<?xml version='1.0' encoding='UTF-8'?><gpx version="1.1" creator="JPX - https://github.com/jenetics/jpx" xmlns="http://www.topografix.com/GPX/1/1"><trk><trkseg><trkpt lat="44.7276367" lon="7.821735"><ele>308.0</ele><time>2026-04-11T06:37:18.059Z</time></trkpt><trkpt lat="44.7276417" lon="7.821645"><ele>308.0</ele><time>2026-04-11T06:37:20.058Z</time></trkpt><trkpt lat="44.727685" lon="7.8215717"><ele>308.0</ele><time>2026-04-11T06:37:22.06Z</time></trkpt><trkpt lat="44.7277433" lon="7.8215083"><ele>308.0</ele><time>2026-04-11T06:37:24.059Z</time></trkpt><trkpt lat="44.7278267" lon="7.8214367"><ele>308.0</ele><time>2026-04-11T06:37:27.061Z</time></trkpt><trkpt lat="44.7279067" lon="7.8214133"><ele>308.0</ele><time>2026-04-11T06:37:29.061Z</time></trkpt><trkpt lat="44.7279967" lon="7.8213983"><ele>309.33333333333337</ele><time>2026-04-11T06:37:31.059Z</time></trkpt><trkpt lat="44.728085" lon="7.821385"><ele>310.6666666666667</ele><time>2026-04-11T06:37:33.06Z</time></trkpt><trkpt lat="44.7281667" lon="7.8213767"><ele>312.0</ele><time>2026-04-11T06:37:35.06Z</time></trkpt><trkpt lat="44.7282517" lon="7.8213683"><ele>313.3333333333333</ele><time>2026-04-11T06:37:37.06Z</time></trkpt><trkpt lat="44.7283417" lon="7.82136"><ele>314.66666666666663</ele><time>2026-04-11T06:37:39.059Z</time></trkpt><trkpt lat="44.7284267" lon="7.8213283"><ele>316.0</ele><time>2026-04-11T06:37:41.058Z</time></trkpt><trkpt lat="44.7285067" lon="7.8212767"><ele>316.40000000000003</ele><time>2026-04-11T06:37:43.061Z</time></trkpt><trkpt lat="44.728585" lon="7.8212133"><ele>316.8</ele><time>2026-04-11T06:37:45.058Z</time></trkpt><trkpt lat="44.7286633" lon="7.821135"><ele>317.20000000000005</ele><time>2026-04-11T06:37:47.058Z</time></trkpt><trkpt lat="44.7287333" lon="7.8210517"><ele>317.6</ele><time>2026-04-11T06:37:49.059Z</time></trkpt><trkpt lat="44.7288033" lon="7.8209667"><ele>318.0</ele><time>2026-04-11T06:37:51.059Z</time></trkpt><trkpt lat="44.7288633" lon="7.820865"><ele>318.0</ele><time>2026-04-11T06:37:53.059Z</time></trkpt><trkpt lat="44.7289017" lon="7.820765"><ele>318.0</ele><time>2026-04-11T06:37:55.059Z</time></trkpt><trkpt lat="44.7289333" lon="7.8206617"><ele>318.0</ele><time>2026-04-11T06:37:57.06Z</time></trkpt><trkpt lat="44.7289733" lon="7.82054"><ele>318.0</ele><time>2026-04-11T06:37:59.062Z</time></trkpt><trkpt lat="44.7290167" lon="7.8204233"><ele>318.0</ele><time>2026-04-11T06:38:01.059Z</time></trkpt><trkpt lat="44.7290567" lon="7.820325"><ele>318.0</ele><time>2026-04-11T06:38:03.062Z</time></trkpt><trkpt lat="44.7290633" lon="7.820225"><ele>315.0</ele><time>2026-04-11T06:38:05.059Z</time></trkpt><trkpt lat="44.7290233" lon="7.82014"><ele>312.0</ele><time>2026-04-11T06:38:07.059Z</time></trkpt><trkpt lat="44.72895" lon="7.8200917"><ele>309.0</ele><time>2026-04-11T06:38:09.06Z</time></trkpt><trkpt lat="44.7288467" lon="7.8200683"><ele>306.0</ele><time>2026-04-11T06:38:11.058Z</time></trkpt><trkpt lat="44.7287567" lon="7.8200433"><ele>303.0</ele><time>2026-04-11T06:38:13.058Z</time></trkpt><trkpt lat="44.7286717" lon="7.8200133"><ele>300.0</ele><time>2026-04-11T06:38:15.058Z</time></trkpt><trkpt lat="44.72857" lon="7.8199867"><ele>298.6</ele><time>2026-04-11T06:38:17.061Z</time></trkpt><trkpt lat="44.7284667" lon="7.8199583"><ele>297.2</ele><time>2026-04-11T06:38:19.063Z</time></trkpt><trkpt lat="44.7283583" lon="7.81993"><ele>295.8</ele><time>2026-04-11T06:38:21.066Z</time></trkpt><trkpt lat="44.7282533" lon="7.819905"><ele>294.4</ele><time>2026-04-11T06:38:23.059Z</time></trkpt><trkpt lat="44.7281567" lon="7.8198867"><ele>293.0</ele><time>2026-04-11T06:38:25.062Z</time></trkpt><trkpt lat="44.7280717" lon="7.819865"><ele>293.0</ele><time>2026-04-11T06:38:27.066Z</time></trkpt><trkpt lat="44.7279833" lon="7.8198433"><ele>293.0</ele><time>2026-04-11T06:38:29.063Z</time></trkpt><trkpt lat="44.727895" lon="7.8198317"><ele>293.0</ele><time>2026-04-11T06:38:31.064Z</time></trkpt><trkpt lat="44.7278067" lon="7.8198433"><ele>293.0</ele><time>2026-04-11T06:38:33.06Z</time></trkpt><trkpt lat="44.7277267" lon="7.81989"><ele>293.0</ele><time>2026-04-11T06:38:35.058Z</time></trkpt><trkpt lat="44.727645" lon="7.8199533"><ele>293.0</ele><time>2026-04-11T06:38:37.054Z</time></trkpt><trkpt lat="44.7275633" lon="7.8200133"><ele>293.2</ele><time>2026-04-11T06:38:39.059Z</time></trkpt><trkpt lat="44.7274783" lon="7.8200733"><ele>293.4</ele><time>2026-04-11T06:38:41.06Z</time></trkpt><trkpt lat="44.7273917" lon="7.82014"><ele>293.59999999999997</ele><time>2026-04-11T06:38:43.061Z</time></trkpt><trkpt lat="44.727315" lon="7.8201967"><ele>293.8</ele><time>2026-04-11T06:38:45.064Z</time></trkpt><trkpt lat="44.7272383" lon="7.8201983"><ele>294.0</ele><time>2026-04-11T06:38:47.061Z</time></trkpt><trkpt lat="44.7271533" lon="7.820125"><ele>291.59999999999997</ele><time>2026-04-11T06:38:49.059Z</time></trkpt><trkpt lat="44.7270833" lon="7.819995"><ele>289.2</ele><time>2026-04-11T06:38:51.059Z</time></trkpt><trkpt lat="44.7270317" lon="7.819865"><ele>286.79999999999995</ele><time>2026-04-11T06:38:53.061Z</time></trkpt><trkpt lat="44.7269733" lon="7.8197433"><ele>284.4</ele><time>2026-04-11T06:38:55.059Z</time></trkpt><trkpt lat="44.7268967" lon="7.8196217"><ele>282.0</ele><time>2026-04-11T06:38:57.064Z</time></trkpt><trkpt lat="44.7268233" lon="7.8195117"><ele>281.57142857142856</ele><time>2026-04-11T06:38:59.058Z</time></trkpt><trkpt lat="44.7267717" lon="7.8194083"><ele>281.1428571428571</ele><time>2026-04-11T06:39:01.058Z</time></trkpt><trkpt lat="44.72673" lon="7.81932"><ele>280.71428571428567</ele><time>2026-04-11T06:39:03.061Z</time></trkpt><trkpt lat="44.726695" lon="7.8192433"><ele>280.2857142857143</ele><time>2026-04-11T06:39:05.059Z</time></trkpt><trkpt lat="44.7266533" lon="7.8191733"><ele>279.85714285714283</ele><time>2026-04-11T06:39:07.061Z</time></trkpt><trkpt lat="44.7266017" lon="7.8191033"><ele>279.4285714285714</ele><time>2026-04-11T06:39:09.06Z</time></trkpt><trkpt lat="44.72654" lon="7.819025"><ele>279.0</ele><time>2026-04-11T06:39:11.058Z</time></trkpt><trkpt lat="44.7264733" lon="7.8189233"><ele>278.59999999999997</ele><time>2026-04-11T06:39:13.057Z</time></trkpt><trkpt lat="44.7264067" lon="7.8188083"><ele>278.2</ele><time>2026-04-11T06:39:15.059Z</time></trkpt><trkpt lat="44.7263483" lon="7.818685"><ele>277.79999999999995</ele><time>2026-04-11T06:39:17.055Z</time></trkpt><trkpt lat="44.7262833" lon="7.818555"><ele>277.4</ele><time>2026-04-11T06:39:19.06Z</time></trkpt><trkpt lat="44.7262067" lon="7.8184233"><ele>277.0</ele><time>2026-04-11T06:39:21.059Z</time></trkpt><trkpt lat="44.7261317" lon="7.8183033"><ele>276.5</ele><time>2026-04-11T06:39:23.058Z</time></trkpt><trkpt lat="44.7260467" lon="7.8181817"><ele>276.0</ele><time>2026-04-11T06:39:25.06Z</time></trkpt><trkpt lat="44.7259717" lon="7.8180517"><ele>275.5</ele><time>2026-04-11T06:39:27.06Z</time></trkpt><trkpt lat="44.7259083" lon="7.81792"><ele>275.0</ele><time>2026-04-11T06:39:29.057Z</time></trkpt><trkpt lat="44.725845" lon="7.8177883"><ele>275.0</ele><time>2026-04-11T06:39:31.058Z</time></trkpt><trkpt lat="44.725785" lon="7.81767"><ele>275.0</ele><time>2026-04-11T06:39:33.059Z</time></trkpt><trkpt lat="44.7257183" lon="7.8175883"><ele>275.0</ele><time>2026-04-11T06:39:35.056Z</time></trkpt><trkpt lat="44.725615" lon="7.817625"><ele>275.0</ele><time>2026-04-11T06:39:37.06Z</time></trkpt><trkpt lat="44.72552" lon="7.8177133"><ele>275.0</ele><time>2026-04-11T06:39:39.06Z</time></trkpt><trkpt lat="44.7254233" lon="7.8178"><ele>275.0</ele><time>2026-04-11T06:39:41.058Z</time></trkpt><trkpt lat="44.7253267" lon="7.8178917"><ele>275.0</ele><time>2026-04-11T06:39:43.058Z</time></trkpt><trkpt lat="44.7252267" lon="7.817985"><ele>275.0</ele><time>2026-04-11T06:39:45.062Z</time></trkpt><trkpt lat="44.7251367" lon="7.81808"><ele>275.0</ele><time>2026-04-11T06:39:47.06Z</time></trkpt><trkpt lat="44.725045" lon="7.818175"><ele>274.5</ele><time>2026-04-11T06:39:49.059Z</time></trkpt><trkpt lat="44.7249467" lon="7.8182717"><ele>274.0</ele><time>2026-04-11T06:39:51.059Z</time></trkpt><trkpt lat="44.7248517" lon="7.8183733"><ele>273.5</ele><time>2026-04-11T06:39:53.059Z</time></trkpt><trkpt lat="44.7247533" lon="7.8184683"><ele>273.0</ele><time>2026-04-11T06:39:55.059Z</time></trkpt><trkpt lat="44.7246567" lon="7.818565"><ele>273.0</ele><time>2026-04-11T06:39:57.062Z</time></trkpt><trkpt lat="44.724565" lon="7.8186683"><ele>273.0</ele><time>2026-04-11T06:39:59.059Z</time></trkpt><trkpt lat="44.7244683" lon="7.81877"><ele>273.0</ele><time>2026-04-11T06:40:01.06Z</time></trkpt><trkpt lat="44.7243717" lon="7.818865"><ele>273.0</ele><time>2026-04-11T06:40:03.059Z</time></trkpt><trkpt lat="44.7242783" lon="7.8189533"><ele>273.0</ele><time>2026-04-11T06:40:05.06Z</time></trkpt><trkpt lat="44.7241883" lon="7.8190417"><ele>273.0</ele><time>2026-04-11T06:40:07.058Z</time></trkpt><trkpt lat="44.7240983" lon="7.8191333"><ele>273.0</ele><time>2026-04-11T06:40:09.061Z</time></trkpt><trkpt lat="44.7240067" lon="7.8192233"><ele>273.0</ele><time>2026-04-11T06:40:11.06Z</time></trkpt><trkpt lat="44.7239117" lon="7.8193167"><ele>273.0</ele><time>2026-04-11T06:40:13.059Z</time></trkpt><trkpt lat="44.72382" lon="7.8194133"><ele>273.0</ele><time>2026-04-11T06:40:15.06Z</time></trkpt><trkpt lat="44.7237217" lon="7.81951"><ele>273.0</ele><time>2026-04-11T06:40:17.059Z</time></trkpt><trkpt lat="44.7236267" lon="7.8196067"><ele>273.0</ele><time>2026-04-11T06:40:19.059Z</time></trkpt><trkpt lat="44.723525" lon="7.819705"><ele>273.0</ele><time>2026-04-11T06:40:21.058Z</time></trkpt><trkpt lat="44.7234267" lon="7.8198067"><ele>273.0</ele><time>2026-04-11T06:40:23.059Z</time></trkpt><trkpt lat="44.7233283" lon="7.8199083"><ele>273.0</ele><time>2026-04-11T06:40:25.06Z</time></trkpt><trkpt lat="44.7232333" lon="7.8200133"><ele>273.0</ele><time>2026-04-11T06:40:27.06Z</time></trkpt><trkpt lat="44.7231417" lon="7.82012"><ele>273.0</ele><time>2026-04-11T06:40:29.058Z</time></trkpt><trkpt lat="44.72304" lon="7.82021"><ele>273.2</ele><time>2026-04-11T06:40:31.055Z</time></trkpt><trkpt lat="44.722945" lon="7.8203033"><ele>273.4</ele><time>2026-04-11T06:40:33.059Z</time></trkpt><trkpt lat="44.7228533" lon="7.8204017"><ele>273.59999999999997</ele><time>2026-04-11T06:40:35.059Z</time></trkpt><trkpt lat="44.7227667" lon="7.8205"><ele>273.8</ele><time>2026-04-11T06:40:37.057Z</time></trkpt><trkpt lat="44.7226867" lon="7.8205967"><ele>274.0</ele><time>2026-04-11T06:40:39.059Z</time></trkpt><trkpt lat="44.7226167" lon="7.8206833"><ele>274.3333333333333</ele><time>2026-04-11T06:40:41.057Z</time></trkpt><trkpt lat="44.7225583" lon="7.8207517"><ele>274.66666666666663</ele><time>2026-04-11T06:40:43.06Z</time></trkpt><trkpt lat="44.722485" lon="7.82078"><ele>275.0</ele><time>2026-04-11T06:40:46.058Z</time></trkpt><trkpt lat="44.7224467" lon="7.8206733"><ele>275.3333333333333</ele><time>2026-04-11T06:40:48.059Z</time></trkpt><trkpt lat="44.722405" lon="7.8205467"><ele>275.6666666666667</ele><time>2026-04-11T06:40:50.059Z</time></trkpt><trkpt lat="44.7223583" lon="7.8204017"><ele>276.0</ele><time>2026-04-11T06:40:52.058Z</time></trkpt><trkpt lat="44.7223017" lon="7.8202417"><ele>276.0</ele><time>2026-04-11T06:40:54.059Z</time></trkpt><trkpt lat="44.72227" lon="7.8201617"><ele>276.0</ele><time>2026-04-11T06:40:55.06Z</time></trkpt><trkpt lat="44.7222417" lon="7.8200733"><ele>276.0</ele><time>2026-04-11T06:40:56.058Z</time></trkpt><trkpt lat="44.7222133" lon="7.81999"><ele>276.0</ele><time>2026-04-11T06:40:57.06Z</time></trkpt><trkpt lat="44.7221833" lon="7.8199117"><ele>276.0</ele><time>2026-04-11T06:40:58.058Z</time></trkpt><trkpt lat="44.7221483" lon="7.8198367"><ele>276.0</ele><time>2026-04-11T06:40:59.058Z</time></trkpt><trkpt lat="44.7220783" lon="7.81969"><ele>275.5</ele><time>2026-04-11T06:41:01.058Z</time></trkpt><trkpt lat="44.7220017" lon="7.819555"><ele>275.0</ele><time>2026-04-11T06:41:03.059Z</time></trkpt><trkpt lat="44.7219333" lon="7.819415"><ele>274.5</ele><time>2026-04-11T06:41:05.06Z</time></trkpt><trkpt lat="44.721895" lon="7.8193383"><ele>274.0</ele><time>2026-04-11T06:41:06.059Z</time></trkpt><trkpt lat="44.7218667" lon="7.8192533"><ele>273.5</ele><time>2026-04-11T06:41:07.06Z</time></trkpt><trkpt lat="44.7218367" lon="7.81917"><ele>273.0</ele><time>2026-04-11T06:41:08.058Z</time></trkpt><trkpt lat="44.7218033" lon="7.8190717"><ele>272.6666666666667</ele><time>2026-04-11T06:41:09.062Z</time></trkpt><trkpt lat="44.7217767" lon="7.8189733"><ele>272.3333333333333</ele><time>2026-04-11T06:41:10.061Z</time></trkpt><trkpt lat="44.7217467" lon="7.81887"><ele>272.0</ele><time>2026-04-11T06:41:11.061Z</time></trkpt><trkpt lat="44.721715" lon="7.8187633"><ele>271.66666666666663</ele><time>2026-04-11T06:41:12.06Z</time></trkpt><trkpt lat="44.7216833" lon="7.8186583"><ele>271.3333333333333</ele><time>2026-04-11T06:41:13.06Z</time></trkpt><trkpt lat="44.721655" lon="7.8185533"><ele>271.0</ele><time>2026-04-11T06:41:14.059Z</time></trkpt><trkpt lat="44.7216283" lon="7.81845"><ele>271.0</ele><time>2026-04-11T06:41:15.061Z</time></trkpt><trkpt lat="44.7216033" lon="7.8183417"><ele>271.0</ele><time>2026-04-11T06:41:16.06Z</time></trkpt><trkpt lat="44.7215817" lon="7.8182383"><ele>271.0</ele><time>2026-04-11T06:41:17.061Z</time></trkpt><trkpt lat="44.72156" lon="7.8181317"><ele>271.0</ele><time>2026-04-11T06:41:18.061Z</time></trkpt><trkpt lat="44.7215367" lon="7.8180233"><ele>271.0</ele><time>2026-04-11T06:41:19.063Z</time></trkpt><trkpt lat="44.7215083" lon="7.8179167"><ele>271.0</ele><time>2026-04-11T06:41:20.06Z</time></trkpt><trkpt lat="44.7214867" lon="7.8178083"><ele>271.0</ele><time>2026-04-11T06:41:21.063Z</time></trkpt><trkpt lat="44.721465" lon="7.8176933"><ele>271.0</ele><time>2026-04-11T06:41:22.061Z</time></trkpt><trkpt lat="44.7214433" lon="7.8175817"><ele>271.0</ele><time>2026-04-11T06:41:23.058Z</time></trkpt><trkpt lat="44.7214183" lon="7.81747"><ele>271.0</ele><time>2026-04-11T06:41:24.061Z</time></trkpt><trkpt lat="44.7213917" lon="7.81736"><ele>271.0</ele><time>2026-04-11T06:41:25.059Z</time></trkpt><trkpt lat="44.7213617" lon="7.8172517"><ele>271.0</ele><time>2026-04-11T06:41:26.06Z</time></trkpt><trkpt lat="44.72133" lon="7.817145"><ele>270.5</ele><time>2026-04-11T06:41:27.06Z</time></trkpt><trkpt lat="44.721295" lon="7.8170383"><ele>270.0</ele><time>2026-04-11T06:41:28.058Z</time></trkpt><trkpt lat="44.72126" lon="7.81694"><ele>269.5</ele><time>2026-04-11T06:41:29.059Z</time></trkpt><trkpt lat="44.7212233" lon="7.8168383"><ele>269.0</ele><time>2026-04-11T06:41:30.059Z</time></trkpt><trkpt lat="44.7211867" lon="7.8167383"><ele>268.5</ele><time>2026-04-11T06:41:31.061Z</time></trkpt><trkpt lat="44.72114" lon="7.8166333"><ele>268.0</ele><time>2026-04-11T06:41:32.059Z</time></trkpt><trkpt lat="44.7210967" lon="7.81653"><ele>268.0</ele><time>2026-04-11T06:41:33.06Z</time></trkpt><trkpt lat="44.721055" lon="7.8164267"><ele>268.0</ele><time>2026-04-11T06:41:34.056Z</time></trkpt><trkpt lat="44.7210133" lon="7.8163183"><ele>268.0</ele><time>2026-04-11T06:41:35.06Z</time></trkpt><trkpt lat="44.7209717" lon="7.816215"><ele>268.0</ele><time>2026-04-11T06:41:36.061Z</time></trkpt><trkpt lat="44.720935" lon="7.81611"><ele>268.0</ele><time>2026-04-11T06:41:37.061Z</time></trkpt><trkpt lat="44.7209" lon="7.816"><ele>268.0</ele><time>2026-04-11T06:41:38.06Z</time></trkpt><trkpt lat="44.7208667" lon="7.8158833"><ele>267.8333333333333</ele><time>2026-04-11T06:41:39.061Z</time></trkpt><trkpt lat="44.7208383" lon="7.8157667"><ele>267.66666666666663</ele><time>2026-04-11T06:41:40.061Z</time></trkpt><trkpt lat="44.7208183" lon="7.8156483"><ele>267.5</ele><time>2026-04-11T06:41:41.06Z</time></trkpt><trkpt lat="44.720795" lon="7.8155283"><ele>267.3333333333333</ele><time>2026-04-11T06:41:42.06Z</time></trkpt><trkpt lat="44.7207767" lon="7.8154083"><ele>267.1666666666667</ele><time>2026-04-11T06:41:43.061Z</time></trkpt><trkpt lat="44.7207633" lon="7.815295"><ele>267.0</ele><time>2026-04-11T06:41:44.056Z</time></trkpt><trkpt lat="44.7207533" lon="7.8151817"><ele>267.3333333333333</ele><time>2026-04-11T06:41:45.06Z</time></trkpt><trkpt lat="44.720745" lon="7.815065"><ele>267.6666666666667</ele><time>2026-04-11T06:41:46.061Z</time></trkpt><trkpt lat="44.720735" lon="7.8149533"><ele>268.0</ele><time>2026-04-11T06:41:47.058Z</time></trkpt><trkpt lat="44.7207233" lon="7.8148433"><ele>268.33333333333337</ele><time>2026-04-11T06:41:48.06Z</time></trkpt><trkpt lat="44.7207133" lon="7.8147383"><ele>268.6666666666667</ele><time>2026-04-11T06:41:49.059Z</time></trkpt><trkpt lat="44.7207033" lon="7.8146317"><ele>269.0</ele><time>2026-04-11T06:41:50.059Z</time></trkpt><trkpt lat="44.7206867" lon="7.814525"><ele>269.0</ele><time>2026-04-11T06:41:51.059Z</time></trkpt><trkpt lat="44.72067" lon="7.81442"><ele>269.0</ele><time>2026-04-11T06:41:52.061Z</time></trkpt><trkpt lat="44.7206517" lon="7.8143167"><ele>269.0</ele><time>2026-04-11T06:41:53.058Z</time></trkpt><trkpt lat="44.720625" lon="7.8142117"><ele>269.0</ele><time>2026-04-11T06:41:54.06Z</time></trkpt><trkpt lat="44.7205917" lon="7.814115"><ele>269.0</ele><time>2026-04-11T06:41:55.062Z</time></trkpt><trkpt lat="44.7205533" lon="7.814015"><ele>269.0</ele><time>2026-04-11T06:41:56.058Z</time></trkpt><trkpt lat="44.7205133" lon="7.81392"><ele>269.0</ele><time>2026-04-11T06:41:57.058Z</time></trkpt><trkpt lat="44.72047" lon="7.8138267"><ele>269.0</ele><time>2026-04-11T06:41:58.06Z</time></trkpt><trkpt lat="44.7204267" lon="7.8137383"><ele>269.0</ele><time>2026-04-11T06:41:59.059Z</time></trkpt><trkpt lat="44.7203817" lon="7.8136433"><ele>269.0</ele><time>2026-04-11T06:42:00.061Z</time></trkpt><trkpt lat="44.720335" lon="7.81355"><ele>269.0</ele><time>2026-04-11T06:42:01.061Z</time></trkpt><trkpt lat="44.720285" lon="7.8134617"><ele>269.0</ele><time>2026-04-11T06:42:02.062Z</time></trkpt><trkpt lat="44.7202367" lon="7.8133783"><ele>268.6666666666667</ele><time>2026-04-11T06:42:03.063Z</time></trkpt><trkpt lat="44.7201867" lon="7.8132967"><ele>268.33333333333337</ele><time>2026-04-11T06:42:04.06Z</time></trkpt><trkpt lat="44.7201333" lon="7.8132183"><ele>268.0</ele><time>2026-04-11T06:42:05.058Z</time></trkpt><trkpt lat="44.720075" lon="7.8131383"><ele>267.6666666666667</ele><time>2026-04-11T06:42:06.059Z</time></trkpt><trkpt lat="44.7200133" lon="7.813065"><ele>267.3333333333333</ele><time>2026-04-11T06:42:07.06Z</time></trkpt><trkpt lat="44.7199483" lon="7.8129967"><ele>267.0</ele><time>2026-04-11T06:42:08.058Z</time></trkpt><trkpt lat="44.719885" lon="7.81293"><ele>267.0</ele><time>2026-04-11T06:42:09.061Z</time></trkpt><trkpt lat="44.71982" lon="7.812865"><ele>267.0</ele><time>2026-04-11T06:42:10.059Z</time></trkpt><trkpt lat="44.7197533" lon="7.8127983"><ele>267.0</ele><time>2026-04-11T06:42:11.059Z</time></trkpt><trkpt lat="44.7196883" lon="7.8127333"><ele>267.0</ele><time>2026-04-11T06:42:12.06Z</time></trkpt><trkpt lat="44.7196233" lon="7.81267"><ele>267.0</ele><time>2026-04-11T06:42:13.06Z</time></trkpt><trkpt lat="44.7195583" lon="7.8126067"><ele>267.0</ele><time>2026-04-11T06:42:14.061Z</time></trkpt><trkpt lat="44.7194967" lon="7.81254"><ele>267.0</ele><time>2026-04-11T06:42:15.06Z</time></trkpt><trkpt lat="44.7194367" lon="7.8124717"><ele>267.0</ele><time>2026-04-11T06:42:16.058Z</time></trkpt><trkpt lat="44.7193733" lon="7.8124067"><ele>267.0</ele><time>2026-04-11T06:42:17.059Z</time></trkpt><trkpt lat="44.7193117" lon="7.8123417"><ele>267.0</ele><time>2026-04-11T06:42:18.058Z</time></trkpt><trkpt lat="44.71925" lon="7.8122733"><ele>267.0</ele><time>2026-04-11T06:42:19.059Z</time></trkpt><trkpt lat="44.7191883" lon="7.8122033"><ele>267.0</ele><time>2026-04-11T06:42:20.057Z</time></trkpt><trkpt lat="44.719125" lon="7.8121333"><ele>267.1666666666667</ele><time>2026-04-11T06:42:21.059Z</time></trkpt><trkpt lat="44.7190617" lon="7.812065"><ele>267.3333333333333</ele><time>2026-04-11T06:42:22.058Z</time></trkpt><trkpt lat="44.719" lon="7.811995"><ele>267.5</ele><time>2026-04-11T06:42:23.058Z</time></trkpt><trkpt lat="44.71894" lon="7.8119233"><ele>267.66666666666663</ele><time>2026-04-11T06:42:24.061Z</time></trkpt><trkpt lat="44.7188883" lon="7.8118433"><ele>267.8333333333333</ele><time>2026-04-11T06:42:25.059Z</time></trkpt><trkpt lat="44.7188417" lon="7.8117533"><ele>268.0</ele><time>2026-04-11T06:42:26.058Z</time></trkpt><trkpt lat="44.7188" lon="7.81166"><ele>268.0</ele><time>2026-04-11T06:42:27.06Z</time></trkpt><trkpt lat="44.7187617" lon="7.8115633"><ele>268.0</ele><time>2026-04-11T06:42:28.059Z</time></trkpt><trkpt lat="44.718725" lon="7.811465"><ele>268.0</ele><time>2026-04-11T06:42:29.058Z</time></trkpt><trkpt lat="44.71869" lon="7.8113633"><ele>268.0</ele><time>2026-04-11T06:42:30.061Z</time></trkpt><trkpt lat="44.7186583" lon="7.8112633"><ele>268.0</ele><time>2026-04-11T06:42:31.06Z</time></trkpt><trkpt lat="44.718625" lon="7.811165"><ele>268.0</ele><time>2026-04-11T06:42:32.058Z</time></trkpt><trkpt lat="44.7185933" lon="7.8110633"><ele>267.5</ele><time>2026-04-11T06:42:33.061Z</time></trkpt><trkpt lat="44.7185583" lon="7.81096"><ele>267.0</ele><time>2026-04-11T06:42:34.06Z</time></trkpt><trkpt lat="44.7185217" lon="7.810855"><ele>266.5</ele><time>2026-04-11T06:42:35.06Z</time></trkpt><trkpt lat="44.7184817" lon="7.8107517"><ele>266.0</ele><time>2026-04-11T06:42:36.06Z</time></trkpt><trkpt lat="44.7184417" lon="7.8106467"><ele>265.5</ele><time>2026-04-11T06:42:37.061Z</time></trkpt><trkpt lat="44.7184017" lon="7.810545"><ele>265.0</ele><time>2026-04-11T06:42:38.058Z</time></trkpt><trkpt lat="44.71836" lon="7.81044"><ele>265.0</ele><time>2026-04-11T06:42:39.06Z</time></trkpt><trkpt lat="44.7183167" lon="7.810335"><ele>265.0</ele><time>2026-04-11T06:42:40.059Z</time></trkpt><trkpt lat="44.7182683" lon="7.8102317"><ele>265.0</ele><time>2026-04-11T06:42:41.059Z</time></trkpt><trkpt lat="44.7182183" lon="7.81013"><ele>265.0</ele><time>2026-04-11T06:42:42.061Z</time></trkpt><trkpt lat="44.7181667" lon="7.81003"><ele>265.0</ele><time>2026-04-11T06:42:43.061Z</time></trkpt><trkpt lat="44.7181133" lon="7.8099317"><ele>265.0</ele><time>2026-04-11T06:42:44.059Z</time></trkpt><trkpt lat="44.7180567" lon="7.80984"><ele>265.0</ele><time>2026-04-11T06:42:45.06Z</time></trkpt><trkpt lat="44.7179983" lon="7.8097483"><ele>265.0</ele><time>2026-04-11T06:42:46.06Z</time></trkpt><trkpt lat="44.7179417" lon="7.809655"><ele>265.0</ele><time>2026-04-11T06:42:47.059Z</time></trkpt><trkpt lat="44.7178833" lon="7.8095667"><ele>265.0</ele><time>2026-04-11T06:42:48.061Z</time></trkpt><trkpt lat="44.7178217" lon="7.8094767"><ele>265.0</ele><time>2026-04-11T06:42:49.059Z</time></trkpt><trkpt lat="44.717765" lon="7.8093867"><ele>265.0</ele><time>2026-04-11T06:42:50.059Z</time></trkpt><trkpt lat="44.7177067" lon="7.8092983"><ele>265.66666666666663</ele><time>2026-04-11T06:42:51.061Z</time></trkpt><trkpt lat="44.71765" lon="7.80921"><ele>266.3333333333333</ele><time>2026-04-11T06:42:52.059Z</time></trkpt><trkpt lat="44.7175933" lon="7.809125"><ele>267.0</ele><time>2026-04-11T06:42:53.058Z</time></trkpt><trkpt lat="44.7175383" lon="7.80904"><ele>267.6666666666667</ele><time>2026-04-11T06:42:54.06Z</time></trkpt><trkpt lat="44.7174833" lon="7.8089567"><ele>268.33333333333337</ele><time>2026-04-11T06:42:55.058Z</time></trkpt><trkpt lat="44.7174283" lon="7.8088733"><ele>269.0</ele><time>2026-04-11T06:42:56.059Z</time></trkpt><trkpt lat="44.7173767" lon="7.8087933"><ele>269.0</ele><time>2026-04-11T06:42:57.06Z</time></trkpt><trkpt lat="44.7173217" lon="7.808715"><ele>269.0</ele><time>2026-04-11T06:42:58.058Z</time></trkpt><trkpt lat="44.71727" lon="7.8086383"><ele>269.0</ele><time>2026-04-11T06:42:59.059Z</time></trkpt><trkpt lat="44.7172233" lon="7.808565"><ele>269.0</ele><time>2026-04-11T06:43:00.059Z</time></trkpt><trkpt lat="44.71718" lon="7.808495"><ele>269.0</ele><time>2026-04-11T06:43:01.058Z</time></trkpt><trkpt lat="44.7171383" lon="7.8084267"><ele>269.0</ele><time>2026-04-11T06:43:02.057Z</time></trkpt><trkpt lat="44.7170667" lon="7.8083067"><ele>269.0</ele><time>2026-04-11T06:43:04.06Z</time></trkpt><trkpt lat="44.7170417" lon="7.80817"><ele>269.0</ele><time>2026-04-11T06:43:06.058Z</time></trkpt><trkpt lat="44.7170983" lon="7.808045"><ele>269.0</ele><time>2026-04-11T06:43:08.059Z</time></trkpt><trkpt lat="44.7172083" lon="7.80795"><ele>269.0</ele><time>2026-04-11T06:43:10.061Z</time></trkpt><trkpt lat="44.717265" lon="7.8079"><ele>269.0</ele><time>2026-04-11T06:43:11.058Z</time></trkpt><trkpt lat="44.7173217" lon="7.807845"><ele>269.0</ele><time>2026-04-11T06:43:12.057Z</time></trkpt><trkpt lat="44.7173767" lon="7.80779"><ele>269.0</ele><time>2026-04-11T06:43:13.058Z</time></trkpt><trkpt lat="44.7174317" lon="7.8077433"><ele>269.0</ele><time>2026-04-11T06:43:14.058Z</time></trkpt><trkpt lat="44.71749" lon="7.8077017"><ele>269.0</ele><time>2026-04-11T06:43:15.058Z</time></trkpt><trkpt lat="44.7175483" lon="7.8076483"><ele>269.0</ele><time>2026-04-11T06:43:16.059Z</time></trkpt><trkpt lat="44.717605" lon="7.8075867"><ele>269.0</ele><time>2026-04-11T06:43:17.058Z</time></trkpt><trkpt lat="44.7176617" lon="7.80752"><ele>269.0</ele><time>2026-04-11T06:43:18.057Z</time></trkpt><trkpt lat="44.717725" lon="7.8074533"><ele>268.6666666666667</ele><time>2026-04-11T06:43:19.059Z</time></trkpt><trkpt lat="44.7177867" lon="7.8073917"><ele>268.33333333333337</ele><time>2026-04-11T06:43:20.059Z</time></trkpt><trkpt lat="44.71785" lon="7.8073333"><ele>268.0</ele><time>2026-04-11T06:43:21.059Z</time></trkpt><trkpt lat="44.7179117" lon="7.807275"><ele>267.6666666666667</ele><time>2026-04-11T06:43:22.059Z</time></trkpt><trkpt lat="44.7179767" lon="7.80722"><ele>267.3333333333333</ele><time>2026-04-11T06:43:23.057Z</time></trkpt><trkpt lat="44.7180433" lon="7.8071583"><ele>267.0</ele><time>2026-04-11T06:43:24.06Z</time></trkpt><trkpt lat="44.718105" lon="7.807095"><ele>267.0</ele><time>2026-04-11T06:43:25.059Z</time></trkpt><trkpt lat="44.7181683" lon="7.8070367"><ele>267.0</ele><time>2026-04-11T06:43:26.059Z</time></trkpt><trkpt lat="44.7182333" lon="7.806975"><ele>267.0</ele><time>2026-04-11T06:43:27.06Z</time></trkpt><trkpt lat="44.7183" lon="7.8069083"><ele>267.0</ele><time>2026-04-11T06:43:28.058Z</time></trkpt><trkpt lat="44.7183667" lon="7.806845"><ele>267.0</ele><time>2026-04-11T06:43:29.057Z</time></trkpt><trkpt lat="44.718435" lon="7.8067833"><ele>267.0</ele><time>2026-04-11T06:43:30.059Z</time></trkpt><trkpt lat="44.7185033" lon="7.8067233"><ele>267.3333333333333</ele><time>2026-04-11T06:43:31.058Z</time></trkpt><trkpt lat="44.71857" lon="7.806665"><ele>267.6666666666667</ele><time>2026-04-11T06:43:32.059Z</time></trkpt><trkpt lat="44.7186367" lon="7.8066017"><ele>268.0</ele><time>2026-04-11T06:43:33.06Z</time></trkpt><trkpt lat="44.718705" lon="7.8065333"><ele>268.33333333333337</ele><time>2026-04-11T06:43:34.059Z</time></trkpt><trkpt lat="44.7187733" lon="7.8064667"><ele>268.6666666666667</ele><time>2026-04-11T06:43:35.058Z</time></trkpt><trkpt lat="44.7188383" lon="7.8064017"><ele>269.0</ele><time>2026-04-11T06:43:36.058Z</time></trkpt><trkpt lat="44.7189017" lon="7.8063367"><ele>269.0</ele><time>2026-04-11T06:43:37.058Z</time></trkpt><trkpt lat="44.7189683" lon="7.8062733"><ele>269.0</ele><time>2026-04-11T06:43:38.059Z</time></trkpt><trkpt lat="44.7190317" lon="7.806205"><ele>269.0</ele><time>2026-04-11T06:43:39.059Z</time></trkpt><trkpt lat="44.719095" lon="7.8061433"><ele>269.0</ele><time>2026-04-11T06:43:40.059Z</time></trkpt><trkpt lat="44.7191583" lon="7.8060817"><ele>269.0</ele><time>2026-04-11T06:43:41.058Z</time></trkpt><trkpt lat="44.7192217" lon="7.8060167"><ele>269.0</ele><time>2026-04-11T06:43:42.057Z</time></trkpt><trkpt lat="44.719285" lon="7.8059533"><ele>268.83333333333337</ele><time>2026-04-11T06:43:43.058Z</time></trkpt><trkpt lat="44.7193467" lon="7.80589"><ele>268.6666666666667</ele><time>2026-04-11T06:43:44.058Z</time></trkpt><trkpt lat="44.7194067" lon="7.805825"><ele>268.5</ele><time>2026-04-11T06:43:45.06Z</time></trkpt><trkpt lat="44.7194683" lon="7.8057583"><ele>268.3333333333333</ele><time>2026-04-11T06:43:46.058Z</time></trkpt><trkpt lat="44.7195317" lon="7.80569"><ele>268.16666666666663</ele><time>2026-04-11T06:43:47.058Z</time></trkpt><trkpt lat="44.7195933" lon="7.8056183"><ele>268.0</ele><time>2026-04-11T06:43:48.06Z</time></trkpt><trkpt lat="44.719655" lon="7.8055483"><ele>268.0</ele><time>2026-04-11T06:43:49.059Z</time></trkpt><trkpt lat="44.7197167" lon="7.8054783"><ele>268.0</ele><time>2026-04-11T06:43:50.059Z</time></trkpt><trkpt lat="44.7197767" lon="7.8054083"><ele>268.0</ele><time>2026-04-11T06:43:51.06Z</time></trkpt><trkpt lat="44.719835" lon="7.8053383"><ele>268.0</ele><time>2026-04-11T06:43:52.061Z</time></trkpt><trkpt lat="44.7198933" lon="7.8052633"><ele>268.0</ele><time>2026-04-11T06:43:53.057Z</time></trkpt><trkpt lat="44.7199483" lon="7.8051883"><ele>268.0</ele><time>2026-04-11T06:43:54.059Z</time></trkpt><trkpt lat="44.7200083" lon="7.8051183"><ele>267.8333333333333</ele><time>2026-04-11T06:43:55.059Z</time></trkpt><trkpt lat="44.72007" lon="7.8050467"><ele>267.66666666666663</ele><time>2026-04-11T06:43:56.059Z</time></trkpt><trkpt lat="44.7201317" lon="7.804975"><ele>267.5</ele><time>2026-04-11T06:43:57.059Z</time></trkpt><trkpt lat="44.7201933" lon="7.8049033"><ele>267.3333333333333</ele><time>2026-04-11T06:43:58.061Z</time></trkpt><trkpt lat="44.7202517" lon="7.8048317"><ele>267.1666666666667</ele><time>2026-04-11T06:43:59.059Z</time></trkpt><trkpt lat="44.7203133" lon="7.8047583"><ele>267.0</ele><time>2026-04-11T06:44:00.06Z</time></trkpt><trkpt lat="44.7203733" lon="7.8046867"><ele>266.8333333333333</ele><time>2026-04-11T06:44:01.061Z</time></trkpt><trkpt lat="44.720435" lon="7.804615"><ele>266.6666666666667</ele><time>2026-04-11T06:44:02.059Z</time></trkpt><trkpt lat="44.720495" lon="7.804545"><ele>266.5</ele><time>2026-04-11T06:44:03.06Z</time></trkpt><trkpt lat="44.7205533" lon="7.8044733"><ele>266.33333333333337</ele><time>2026-04-11T06:44:04.059Z</time></trkpt><trkpt lat="44.7206117" lon="7.8044017"><ele>266.1666666666667</ele><time>2026-04-11T06:44:05.059Z</time></trkpt><trkpt lat="44.7206717" lon="7.8043333"><ele>266.0</ele><time>2026-04-11T06:44:06.059Z</time></trkpt><trkpt lat="44.7207283" lon="7.8042667"><ele>266.14285714285717</ele><time>2026-04-11T06:44:07.06Z</time></trkpt><trkpt lat="44.7207833" lon="7.8042017"><ele>266.2857142857143</ele><time>2026-04-11T06:44:08.059Z</time></trkpt><trkpt lat="44.72084" lon="7.8041367"><ele>266.42857142857144</ele><time>2026-04-11T06:44:09.059Z</time></trkpt><trkpt lat="44.7208967" lon="7.8040717"><ele>266.57142857142856</ele><time>2026-04-11T06:44:10.058Z</time></trkpt><trkpt lat="44.7209533" lon="7.804005"><ele>266.7142857142857</ele><time>2026-04-11T06:44:11.058Z</time></trkpt><trkpt lat="44.7210083" lon="7.80394"><ele>266.8571428571429</ele><time>2026-04-11T06:44:12.058Z</time></trkpt><trkpt lat="44.721065" lon="7.8038783"><ele>267.0</ele><time>2026-04-11T06:44:13.06Z</time></trkpt><trkpt lat="44.7211217" lon="7.8038167"><ele>267.00000000000006</ele><time>2026-04-11T06:44:14.058Z</time></trkpt><trkpt lat="44.7211767" lon="7.803755"><ele>267.0</ele><time>2026-04-11T06:44:15.06Z</time></trkpt><trkpt lat="44.7212333" lon="7.8036933"><ele>267.0</ele><time>2026-04-11T06:44:16.058Z</time></trkpt><trkpt lat="44.72129" lon="7.8036283"><ele>267.0</ele><time>2026-04-11T06:44:17.059Z</time></trkpt><trkpt lat="44.72135" lon="7.8035617"><ele>267.0</ele><time>2026-04-11T06:44:18.059Z</time></trkpt><trkpt lat="44.72141" lon="7.8035017"><ele>267.00000000000006</ele><time>2026-04-11T06:44:19.06Z</time></trkpt><trkpt lat="44.7214717" lon="7.8034417"><ele>267.0</ele><time>2026-04-11T06:44:20.058Z</time></trkpt><trkpt lat="44.7215333" lon="7.8033817"><ele>267.0</ele><time>2026-04-11T06:44:21.059Z</time></trkpt><trkpt lat="44.721595" lon="7.8033217"><ele>267.0</ele><time>2026-04-11T06:44:22.058Z</time></trkpt><trkpt lat="44.7216583" lon="7.8032617"><ele>267.0</ele><time>2026-04-11T06:44:23.058Z</time></trkpt><trkpt lat="44.7217217" lon="7.8031983"><ele>267.0</ele><time>2026-04-11T06:44:24.058Z</time></trkpt><trkpt lat="44.721785" lon="7.8031367"><ele>267.0</ele><time>2026-04-11T06:44:25.059Z</time></trkpt><trkpt lat="44.7218483" lon="7.8030733"><ele>267.0</ele><time>2026-04-11T06:44:26.058Z</time></trkpt><trkpt lat="44.7219117" lon="7.8030117"><ele>267.0</ele><time>2026-04-11T06:44:27.061Z</time></trkpt><trkpt lat="44.721975" lon="7.8029483"><ele>267.0</ele><time>2026-04-11T06:44:28.058Z</time></trkpt><trkpt lat="44.7220367" lon="7.8028833"><ele>267.0</ele><time>2026-04-11T06:44:29.059Z</time></trkpt><trkpt lat="44.7220967" lon="7.8028183"><ele>267.0</ele><time>2026-04-11T06:44:30.059Z</time></trkpt><trkpt lat="44.7221567" lon="7.8027583"><ele>267.0</ele><time>2026-04-11T06:44:31.059Z</time></trkpt><trkpt lat="44.7222167" lon="7.8026983"><ele>267.0</ele><time>2026-04-11T06:44:32.059Z</time></trkpt><trkpt lat="44.7222783" lon="7.8026367"><ele>266.8333333333333</ele><time>2026-04-11T06:44:33.059Z</time></trkpt><trkpt lat="44.7223417" lon="7.8025767"><ele>266.6666666666667</ele><time>2026-04-11T06:44:34.058Z</time></trkpt><trkpt lat="44.722405" lon="7.8025167"><ele>266.5</ele><time>2026-04-11T06:44:35.058Z</time></trkpt><trkpt lat="44.7224667" lon="7.8024567"><ele>266.33333333333337</ele><time>2026-04-11T06:44:36.06Z</time></trkpt><trkpt lat="44.7225283" lon="7.8024"><ele>266.1666666666667</ele><time>2026-04-11T06:44:37.058Z</time></trkpt><trkpt lat="44.7225917" lon="7.8023417"><ele>266.0</ele><time>2026-04-11T06:44:38.059Z</time></trkpt><trkpt lat="44.7226517" lon="7.8022817"><ele>266.0</ele><time>2026-04-11T06:44:39.06Z</time></trkpt><trkpt lat="44.7227133" lon="7.8022183"><ele>266.0</ele><time>2026-04-11T06:44:40.059Z</time></trkpt><trkpt lat="44.7227717" lon="7.8021483"><ele>266.0</ele><time>2026-04-11T06:44:41.06Z</time></trkpt><trkpt lat="44.722825" lon="7.802075"><ele>266.0</ele><time>2026-04-11T06:44:42.057Z</time></trkpt><trkpt lat="44.7228783" lon="7.8019967"><ele>266.0</ele><time>2026-04-11T06:44:43.06Z</time></trkpt><trkpt lat="44.7229317" lon="7.80192"><ele>266.0</ele><time>2026-04-11T06:44:44.057Z</time></trkpt><trkpt lat="44.7229867" lon="7.8018433"><ele>266.0</ele><time>2026-04-11T06:44:45.059Z</time></trkpt><trkpt lat="44.7230417" lon="7.801765"><ele>266.0</ele><time>2026-04-11T06:44:46.057Z</time></trkpt><trkpt lat="44.7230967" lon="7.801685"><ele>266.0</ele><time>2026-04-11T06:44:47.059Z</time></trkpt><trkpt lat="44.7231517" lon="7.8016083"><ele>266.0</ele><time>2026-04-11T06:44:48.058Z</time></trkpt><trkpt lat="44.72321" lon="7.8015317"><ele>266.0</ele><time>2026-04-11T06:44:49.057Z</time></trkpt><trkpt lat="44.7232717" lon="7.8014633"><ele>266.0</ele><time>2026-04-11T06:44:50.058Z</time></trkpt><trkpt lat="44.7233367" lon="7.8014"><ele>266.0</ele><time>2026-04-11T06:44:51.06Z</time></trkpt><trkpt lat="44.7234033" lon="7.801345"><ele>266.0</ele><time>2026-04-11T06:44:52.059Z</time></trkpt><trkpt lat="44.7234717" lon="7.8012933"><ele>266.0</ele><time>2026-04-11T06:44:53.058Z</time></trkpt><trkpt lat="44.723545" lon="7.80124"><ele>266.0</ele><time>2026-04-11T06:44:54.058Z</time></trkpt><trkpt lat="44.7236083" lon="7.801185"><ele>266.0</ele><time>2026-04-11T06:44:55.057Z</time></trkpt><trkpt lat="44.72367" lon="7.80113"><ele>266.0</ele><time>2026-04-11T06:44:56.057Z</time></trkpt><trkpt lat="44.7237317" lon="7.801075"><ele>266.0</ele><time>2026-04-11T06:44:57.057Z</time></trkpt><trkpt lat="44.7237933" lon="7.801025"><ele>266.0</ele><time>2026-04-11T06:44:58.058Z</time></trkpt><trkpt lat="44.7238567" lon="7.800975"><ele>266.0</ele><time>2026-04-11T06:44:59.057Z</time></trkpt><trkpt lat="44.72392" lon="7.80092"><ele>266.0</ele><time>2026-04-11T06:45:00.058Z</time></trkpt><trkpt lat="44.7239867" lon="7.8008717"><ele>266.0</ele><time>2026-04-11T06:45:01.059Z</time></trkpt><trkpt lat="44.7240533" lon="7.8008267"><ele>266.0</ele><time>2026-04-11T06:45:02.059Z</time></trkpt><trkpt lat="44.7241183" lon="7.8007767"><ele>266.0</ele><time>2026-04-11T06:45:03.059Z</time></trkpt><trkpt lat="44.7241867" lon="7.8007217"><ele>265.83333333333337</ele><time>2026-04-11T06:45:04.058Z</time></trkpt><trkpt lat="44.7242517" lon="7.8006633"><ele>265.6666666666667</ele><time>2026-04-11T06:45:05.06Z</time></trkpt><trkpt lat="44.724315" lon="7.8006067"><ele>265.5</ele><time>2026-04-11T06:45:06.058Z</time></trkpt><trkpt lat="44.7243783" lon="7.8005533"><ele>265.3333333333333</ele><time>2026-04-11T06:45:07.058Z</time></trkpt><trkpt lat="44.7244417" lon="7.8004967"><ele>265.16666666666663</ele><time>2026-04-11T06:45:08.059Z</time></trkpt><trkpt lat="44.724505" lon="7.80044"><ele>265.0</ele><time>2026-04-11T06:45:09.06Z</time></trkpt><trkpt lat="44.7245717" lon="7.8003833"><ele>264.8333333333333</ele><time>2026-04-11T06:45:10.058Z</time></trkpt><trkpt lat="44.724635" lon="7.8003217"><ele>264.66666666666663</ele><time>2026-04-11T06:45:11.059Z</time></trkpt><trkpt lat="44.7247" lon="7.80026"><ele>264.5</ele><time>2026-04-11T06:45:12.06Z</time></trkpt><trkpt lat="44.724765" lon="7.800205"><ele>264.3333333333333</ele><time>2026-04-11T06:45:13.058Z</time></trkpt><trkpt lat="44.72483" lon="7.80015"><ele>264.1666666666667</ele><time>2026-04-11T06:45:14.061Z</time></trkpt><trkpt lat="44.7248983" lon="7.8000967"><ele>264.0</ele><time>2026-04-11T06:45:15.059Z</time></trkpt><trkpt lat="44.724965" lon="7.8000483"><ele>264.3333333333333</ele><time>2026-04-11T06:45:16.06Z</time></trkpt><trkpt lat="44.7250317" lon="7.799995"><ele>264.6666666666667</ele><time>2026-04-11T06:45:17.059Z</time></trkpt><trkpt lat="44.7250983" lon="7.799945"><ele>265.0</ele><time>2026-04-11T06:45:18.059Z</time></trkpt><trkpt lat="44.725165" lon="7.7998967"><ele>265.33333333333337</ele><time>2026-04-11T06:45:19.06Z</time></trkpt><trkpt lat="44.7252317" lon="7.7998467"><ele>265.6666666666667</ele><time>2026-04-11T06:45:20.058Z</time></trkpt><trkpt lat="44.7253" lon="7.7998"><ele>266.0</ele><time>2026-04-11T06:45:21.059Z</time></trkpt><trkpt lat="44.72537" lon="7.799755"><ele>266.1666666666667</ele><time>2026-04-11T06:45:22.058Z</time></trkpt><trkpt lat="44.72544" lon="7.79971"><ele>266.33333333333337</ele><time>2026-04-11T06:45:23.058Z</time></trkpt><trkpt lat="44.7255117" lon="7.7996683"><ele>266.5</ele><time>2026-04-11T06:45:24.058Z</time></trkpt><trkpt lat="44.725585" lon="7.799625"><ele>266.6666666666667</ele><time>2026-04-11T06:45:25.058Z</time></trkpt><trkpt lat="44.7256533" lon="7.7995833"><ele>266.8333333333333</ele><time>2026-04-11T06:45:26.057Z</time></trkpt><trkpt lat="44.7257233" lon="7.7995383"><ele>267.0</ele><time>2026-04-11T06:45:27.059Z</time></trkpt><trkpt lat="44.7257933" lon="7.799495"><ele>267.0</ele><time>2026-04-11T06:45:28.057Z</time></trkpt><trkpt lat="44.7258583" lon="7.7994517"><ele>267.0</ele><time>2026-04-11T06:45:29.057Z</time></trkpt><trkpt lat="44.7259183" lon="7.7994167"><ele>267.0</ele><time>2026-04-11T06:45:30.058Z</time></trkpt><trkpt lat="44.726035" lon="7.799405"><ele>267.0</ele><time>2026-04-11T06:45:32.059Z</time></trkpt><trkpt lat="44.7261283" lon="7.799485"><ele>267.0</ele><time>2026-04-11T06:45:34.055Z</time></trkpt><trkpt lat="44.726205" lon="7.799595"><ele>266.5</ele><time>2026-04-11T06:45:36.061Z</time></trkpt><trkpt lat="44.7263083" lon="7.7996317"><ele>266.0</ele><time>2026-04-11T06:45:38.06Z</time></trkpt><trkpt lat="44.7264167" lon="7.7995617"><ele>265.5</ele><time>2026-04-11T06:45:40.058Z</time></trkpt><trkpt lat="44.726515" lon="7.79947"><ele>265.0</ele><time>2026-04-11T06:45:42.058Z</time></trkpt><trkpt lat="44.7266167" lon="7.7993883"><ele>265.0</ele><time>2026-04-11T06:45:44.059Z</time></trkpt><trkpt lat="44.7267167" lon="7.7993"><ele>265.0</ele><time>2026-04-11T06:45:46.058Z</time></trkpt><trkpt lat="44.72683" lon="7.7992217"><ele>265.0</ele><time>2026-04-11T06:45:48.059Z</time></trkpt><trkpt lat="44.72695" lon="7.7991883"><ele>265.0</ele><time>2026-04-11T06:45:50.058Z</time></trkpt><trkpt lat="44.7270667" lon="7.7992333"><ele>264.8333333333333</ele><time>2026-04-11T06:45:52.057Z</time></trkpt><trkpt lat="44.7271767" lon="7.7993117"><ele>264.66666666666663</ele><time>2026-04-11T06:45:54.058Z</time></trkpt><trkpt lat="44.727235" lon="7.7993467"><ele>264.5</ele><time>2026-04-11T06:45:55.058Z</time></trkpt><trkpt lat="44.7273583" lon="7.799385"><ele>264.3333333333333</ele><time>2026-04-11T06:45:57.06Z</time></trkpt><trkpt lat="44.7274233" lon="7.79939"><ele>264.1666666666667</ele><time>2026-04-11T06:45:58.058Z</time></trkpt><trkpt lat="44.72749" lon="7.7993867"><ele>264.0</ele><time>2026-04-11T06:45:59.058Z</time></trkpt><trkpt lat="44.727555" lon="7.7993783"><ele>264.0</ele><time>2026-04-11T06:46:00.059Z</time></trkpt><trkpt lat="44.7276217" lon="7.7993667"><ele>264.0</ele><time>2026-04-11T06:46:01.064Z</time></trkpt><trkpt lat="44.7276867" lon="7.7993533"><ele>264.0</ele><time>2026-04-11T06:46:02.058Z</time></trkpt><trkpt lat="44.7277567" lon="7.7993367"><ele>264.0</ele><time>2026-04-11T06:46:03.058Z</time></trkpt><trkpt lat="44.7278233" lon="7.7993183"><ele>264.0</ele><time>2026-04-11T06:46:04.058Z</time></trkpt><trkpt lat="44.72789" lon="7.799305"><ele>264.0</ele><time>2026-04-11T06:46:05.055Z</time></trkpt><trkpt lat="44.7279567" lon="7.799295"><ele>264.0</ele><time>2026-04-11T06:46:06.058Z</time></trkpt><trkpt lat="44.72802" lon="7.7992867"><ele>264.2857142857143</ele><time>2026-04-11T06:46:07.056Z</time></trkpt><trkpt lat="44.7280883" lon="7.7992733"><ele>264.57142857142856</ele><time>2026-04-11T06:46:08.058Z</time></trkpt><trkpt lat="44.728155" lon="7.7992617"><ele>264.8571428571429</ele><time>2026-04-11T06:46:09.06Z</time></trkpt><trkpt lat="44.72822" lon="7.7992517"><ele>265.1428571428571</ele><time>2026-04-11T06:46:10.058Z</time></trkpt><trkpt lat="44.7282883" lon="7.79924"><ele>265.42857142857144</ele><time>2026-04-11T06:46:11.058Z</time></trkpt><trkpt lat="44.728355" lon="7.7992267"><ele>265.7142857142857</ele><time>2026-04-11T06:46:12.059Z</time></trkpt><trkpt lat="44.7284233" lon="7.7992133"><ele>266.0</ele><time>2026-04-11T06:46:13.06Z</time></trkpt><trkpt lat="44.72849" lon="7.7992033"><ele>266.0</ele><time>2026-04-11T06:46:14.058Z</time></trkpt><trkpt lat="44.7285567" lon="7.7991967"><ele>266.0</ele><time>2026-04-11T06:46:15.055Z</time></trkpt><trkpt lat="44.72862" lon="7.799185"><ele>266.0</ele><time>2026-04-11T06:46:16.06Z</time></trkpt><trkpt lat="44.7286867" lon="7.7991683"><ele>266.0</ele><time>2026-04-11T06:46:17.059Z</time></trkpt><trkpt lat="44.72875" lon="7.799145"><ele>266.0</ele><time>2026-04-11T06:46:18.059Z</time></trkpt><trkpt lat="44.7288067" lon="7.799105"><ele>266.0</ele><time>2026-04-11T06:46:19.057Z</time></trkpt><trkpt lat="44.72886" lon="7.7990483"><ele>266.0</ele><time>2026-04-11T06:46:20.058Z</time></trkpt><trkpt lat="44.72891" lon="7.7989833"><ele>265.57142857142856</ele><time>2026-04-11T06:46:21.06Z</time></trkpt><trkpt lat="44.72896" lon="7.7989117"><ele>265.1428571428571</ele><time>2026-04-11T06:46:22.06Z</time></trkpt><trkpt lat="44.7290133" lon="7.7988467"><ele>264.7142857142857</ele><time>2026-04-11T06:46:23.059Z</time></trkpt><trkpt lat="44.7290733" lon="7.7987983"><ele>264.2857142857143</ele><time>2026-04-11T06:46:24.058Z</time></trkpt><trkpt lat="44.7291383" lon="7.798765"><ele>263.85714285714283</ele><time>2026-04-11T06:46:25.058Z</time></trkpt><trkpt lat="44.729205" lon="7.79875"><ele>263.42857142857144</ele><time>2026-04-11T06:46:26.058Z</time></trkpt><trkpt lat="44.729275" lon="7.7987383"><ele>263.0</ele><time>2026-04-11T06:46:27.059Z</time></trkpt><trkpt lat="44.7293433" lon="7.7987283"><ele>263.2857142857143</ele><time>2026-04-11T06:46:28.061Z</time></trkpt><trkpt lat="44.72941" lon="7.7987167"><ele>263.57142857142856</ele><time>2026-04-11T06:46:29.06Z</time></trkpt><trkpt lat="44.7294783" lon="7.7987083"><ele>263.85714285714283</ele><time>2026-04-11T06:46:30.059Z</time></trkpt><trkpt lat="44.7295483" lon="7.7987"><ele>264.1428571428571</ele><time>2026-04-11T06:46:31.058Z</time></trkpt><trkpt lat="44.72962" lon="7.7986883"><ele>264.42857142857144</ele><time>2026-04-11T06:46:32.059Z</time></trkpt><trkpt lat="44.72969" lon="7.798675"><ele>264.71428571428567</ele><time>2026-04-11T06:46:33.061Z</time></trkpt><trkpt lat="44.7297583" lon="7.7986583"><ele>265.0</ele><time>2026-04-11T06:46:34.059Z</time></trkpt><trkpt lat="44.729825" lon="7.79864"><ele>265.0</ele><time>2026-04-11T06:46:35.058Z</time></trkpt><trkpt lat="44.7299483" lon="7.7986067"><ele>265.0</ele><time>2026-04-11T06:46:37.058Z</time></trkpt><trkpt lat="44.7300667" lon="7.7986183"><ele>265.0</ele><time>2026-04-11T06:46:39.061Z</time></trkpt><trkpt lat="44.7301883" lon="7.7986367"><ele>265.0</ele><time>2026-04-11T06:46:41.06Z</time></trkpt><trkpt lat="44.7302533" lon="7.7986267"><ele>265.0</ele><time>2026-04-11T06:46:42.059Z</time></trkpt><trkpt lat="44.73032" lon="7.7986117"><ele>265.4285714285714</ele><time>2026-04-11T06:46:43.059Z</time></trkpt><trkpt lat="44.7303883" lon="7.7986"><ele>265.85714285714283</ele><time>2026-04-11T06:46:44.058Z</time></trkpt><trkpt lat="44.7304567" lon="7.79859"><ele>266.2857142857143</ele><time>2026-04-11T06:46:45.061Z</time></trkpt><trkpt lat="44.7305217" lon="7.7985817"><ele>266.71428571428567</ele><time>2026-04-11T06:46:46.059Z</time></trkpt><trkpt lat="44.7305917" lon="7.7985717"><ele>267.1428571428571</ele><time>2026-04-11T06:46:47.058Z</time></trkpt><trkpt lat="44.7306583" lon="7.7985633"><ele>267.57142857142856</ele><time>2026-04-11T06:46:48.059Z</time></trkpt><trkpt lat="44.730725" lon="7.798555"><ele>268.0</ele><time>2026-04-11T06:46:49.057Z</time></trkpt><trkpt lat="44.7307917" lon="7.798545"><ele>268.0</ele><time>2026-04-11T06:46:50.058Z</time></trkpt><trkpt lat="44.7308583" lon="7.798535"><ele>268.0</ele><time>2026-04-11T06:46:51.061Z</time></trkpt><trkpt lat="44.7309267" lon="7.7985267"><ele>268.0</ele><time>2026-04-11T06:46:52.059Z</time></trkpt><trkpt lat="44.7309933" lon="7.798515"><ele>268.0</ele><time>2026-04-11T06:46:53.059Z</time></trkpt><trkpt lat="44.73106" lon="7.7985033"><ele>268.0</ele><time>2026-04-11T06:46:54.058Z</time></trkpt><trkpt lat="44.7311267" lon="7.798495"><ele>268.0</ele><time>2026-04-11T06:46:55.058Z</time></trkpt><trkpt lat="44.7311933" lon="7.798485"><ele>268.0</ele><time>2026-04-11T06:46:56.058Z</time></trkpt><trkpt lat="44.7312633" lon="7.798475"><ele>268.14285714285717</ele><time>2026-04-11T06:46:57.058Z</time></trkpt><trkpt lat="44.73133" lon="7.7984633"><ele>268.2857142857143</ele><time>2026-04-11T06:46:58.058Z</time></trkpt><trkpt lat="44.7313983" lon="7.7984517"><ele>268.42857142857144</ele><time>2026-04-11T06:46:59.058Z</time></trkpt><trkpt lat="44.7314667" lon="7.7984383"><ele>268.57142857142856</ele><time>2026-04-11T06:47:00.058Z</time></trkpt><trkpt lat="44.731535" lon="7.798425"><ele>268.7142857142857</ele><time>2026-04-11T06:47:01.058Z</time></trkpt><trkpt lat="44.7316033" lon="7.7984117"><ele>268.8571428571429</ele><time>2026-04-11T06:47:02.058Z</time></trkpt><trkpt lat="44.73167" lon="7.7983967"><ele>269.0</ele><time>2026-04-11T06:47:03.06Z</time></trkpt><trkpt lat="44.7317383" lon="7.7983817"><ele>269.0</ele><time>2026-04-11T06:47:04.06Z</time></trkpt><trkpt lat="44.731805" lon="7.7983667"><ele>269.0</ele><time>2026-04-11T06:47:05.059Z</time></trkpt><trkpt lat="44.73187" lon="7.7983517"><ele>269.0</ele><time>2026-04-11T06:47:06.058Z</time></trkpt><trkpt lat="44.731935" lon="7.7983367"><ele>269.0</ele><time>2026-04-11T06:47:07.059Z</time></trkpt><trkpt lat="44.732" lon="7.79832"><ele>269.0</ele><time>2026-04-11T06:47:08.058Z</time></trkpt><trkpt lat="44.7320667" lon="7.7983017"><ele>269.0</ele><time>2026-04-11T06:47:09.061Z</time></trkpt><trkpt lat="44.7321317" lon="7.7982833"><ele>269.0</ele><time>2026-04-11T06:47:10.057Z</time></trkpt><trkpt lat="44.7321967" lon="7.79826"><ele>268.8571428571429</ele><time>2026-04-11T06:47:11.058Z</time></trkpt><trkpt lat="44.73226" lon="7.798235"><ele>268.7142857142857</ele><time>2026-04-11T06:47:12.058Z</time></trkpt><trkpt lat="44.732325" lon="7.7982183"><ele>268.57142857142856</ele><time>2026-04-11T06:47:13.059Z</time></trkpt><trkpt lat="44.7323917" lon="7.798205"><ele>268.42857142857144</ele><time>2026-04-11T06:47:14.059Z</time></trkpt><trkpt lat="44.73246" lon="7.798195"><ele>268.2857142857143</ele><time>2026-04-11T06:47:15.06Z</time></trkpt><trkpt lat="44.7325283" lon="7.7981867"><ele>268.14285714285717</ele><time>2026-04-11T06:47:16.06Z</time></trkpt><trkpt lat="44.732595" lon="7.7981783"><ele>268.0</ele><time>2026-04-11T06:47:17.06Z</time></trkpt><trkpt lat="44.7326617" lon="7.79817"><ele>267.57142857142856</ele><time>2026-04-11T06:47:18.059Z</time></trkpt><trkpt lat="44.7327283" lon="7.7981617"><ele>267.1428571428571</ele><time>2026-04-11T06:47:19.058Z</time></trkpt><trkpt lat="44.7327967" lon="7.798155"><ele>266.71428571428567</ele><time>2026-04-11T06:47:20.061Z</time></trkpt><trkpt lat="44.7328617" lon="7.7981467"><ele>266.2857142857143</ele><time>2026-04-11T06:47:21.061Z</time></trkpt><trkpt lat="44.7329267" lon="7.7981383"><ele>265.85714285714283</ele><time>2026-04-11T06:47:22.06Z</time></trkpt><trkpt lat="44.7329933" lon="7.7981283"><ele>265.4285714285714</ele><time>2026-04-11T06:47:23.059Z</time></trkpt><trkpt lat="44.7330583" lon="7.79812"><ele>265.0</ele><time>2026-04-11T06:47:24.059Z</time></trkpt><trkpt lat="44.7331283" lon="7.7981117"><ele>264.99999999999994</ele><time>2026-04-11T06:47:25.06Z</time></trkpt><trkpt lat="44.7331967" lon="7.7981033"><ele>265.0</ele><time>2026-04-11T06:47:26.058Z</time></trkpt><trkpt lat="44.733265" lon="7.7980917"><ele>265.0</ele><time>2026-04-11T06:47:27.059Z</time></trkpt><trkpt lat="44.7333333" lon="7.7980783"><ele>265.0</ele><time>2026-04-11T06:47:28.06Z</time></trkpt><trkpt lat="44.7334017" lon="7.7980733"><ele>265.0</ele><time>2026-04-11T06:47:29.058Z</time></trkpt><trkpt lat="44.7334717" lon="7.798065"><ele>264.99999999999994</ele><time>2026-04-11T06:47:30.059Z</time></trkpt><trkpt lat="44.7335417" lon="7.798055"><ele>265.0</ele><time>2026-04-11T06:47:31.057Z</time></trkpt><trkpt lat="44.7336083" lon="7.7980467"><ele>264.85714285714283</ele><time>2026-04-11T06:47:32.059Z</time></trkpt><trkpt lat="44.73368" lon="7.7980367"><ele>264.7142857142857</ele><time>2026-04-11T06:47:33.059Z</time></trkpt><trkpt lat="44.73375" lon="7.7980217"><ele>264.57142857142856</ele><time>2026-04-11T06:47:34.058Z</time></trkpt><trkpt lat="44.7338183" lon="7.798005"><ele>264.42857142857144</ele><time>2026-04-11T06:47:35.058Z</time></trkpt><trkpt lat="44.7338867" lon="7.79798"><ele>264.2857142857143</ele><time>2026-04-11T06:47:36.058Z</time></trkpt><trkpt lat="44.73395" lon="7.7979483"><ele>264.1428571428571</ele><time>2026-04-11T06:47:37.06Z</time></trkpt><trkpt lat="44.7340117" lon="7.797915"><ele>264.0</ele><time>2026-04-11T06:47:38.06Z</time></trkpt><trkpt lat="44.7340783" lon="7.7978867"><ele>264.0</ele><time>2026-04-11T06:47:39.058Z</time></trkpt><trkpt lat="44.7341433" lon="7.7978633"><ele>264.0</ele><time>2026-04-11T06:47:40.059Z</time></trkpt><trkpt lat="44.73421" lon="7.79785"><ele>264.0</ele><time>2026-04-11T06:47:41.059Z</time></trkpt><trkpt lat="44.7342767" lon="7.7978517"><ele>264.0</ele><time>2026-04-11T06:47:42.059Z</time></trkpt><trkpt lat="44.7343417" lon="7.797865"><ele>264.0</ele><time>2026-04-11T06:47:43.059Z</time></trkpt><trkpt lat="44.7344083" lon="7.7978817"><ele>264.0</ele><time>2026-04-11T06:47:44.06Z</time></trkpt><trkpt lat="44.734475" lon="7.7978883"><ele>264.0</ele><time>2026-04-11T06:47:45.062Z</time></trkpt><trkpt lat="44.734545" lon="7.7978867"><ele>264.1428571428571</ele><time>2026-04-11T06:47:46.058Z</time></trkpt><trkpt lat="44.7346133" lon="7.79788"><ele>264.2857142857143</ele><time>2026-04-11T06:47:47.059Z</time></trkpt><trkpt lat="44.7346817" lon="7.79787"><ele>264.42857142857144</ele><time>2026-04-11T06:47:48.059Z</time></trkpt><trkpt lat="44.7347517" lon="7.7978617"><ele>264.57142857142856</ele><time>2026-04-11T06:47:49.061Z</time></trkpt><trkpt lat="44.7348217" lon="7.7978533"><ele>264.7142857142857</ele><time>2026-04-11T06:47:50.058Z</time></trkpt><trkpt lat="44.7348933" lon="7.797845"><ele>264.85714285714283</ele><time>2026-04-11T06:47:51.059Z</time></trkpt><trkpt lat="44.7349633" lon="7.7978333"><ele>265.0</ele><time>2026-04-11T06:47:52.058Z</time></trkpt><trkpt lat="44.7350333" lon="7.79782"><ele>264.99999999999994</ele><time>2026-04-11T06:47:53.059Z</time></trkpt><trkpt lat="44.7351" lon="7.79781"><ele>265.0</ele><time>2026-04-11T06:47:54.057Z</time></trkpt><trkpt lat="44.7351717" lon="7.7977967"><ele>265.0</ele><time>2026-04-11T06:47:55.059Z</time></trkpt><trkpt lat="44.73524" lon="7.7977867"><ele>265.0</ele><time>2026-04-11T06:47:56.059Z</time></trkpt><trkpt lat="44.7353083" lon="7.7977733"><ele>265.0</ele><time>2026-04-11T06:47:57.059Z</time></trkpt><trkpt lat="44.73538" lon="7.7977617"><ele>264.99999999999994</ele><time>2026-04-11T06:47:58.061Z</time></trkpt><trkpt lat="44.7354483" lon="7.7977517"><ele>265.0</ele><time>2026-04-11T06:47:59.058Z</time></trkpt><trkpt lat="44.73552" lon="7.7977417"><ele>264.85714285714283</ele><time>2026-04-11T06:48:00.059Z</time></trkpt><trkpt lat="44.73559" lon="7.7977283"><ele>264.7142857142857</ele><time>2026-04-11T06:48:01.061Z</time></trkpt><trkpt lat="44.7356583" lon="7.7977117"><ele>264.57142857142856</ele><time>2026-04-11T06:48:02.058Z</time></trkpt><trkpt lat="44.7357283" lon="7.7976983"><ele>264.42857142857144</ele><time>2026-04-11T06:48:03.06Z</time></trkpt><trkpt lat="44.7358" lon="7.7976867"><ele>264.2857142857143</ele><time>2026-04-11T06:48:04.059Z</time></trkpt><trkpt lat="44.7358717" lon="7.7976767"><ele>264.1428571428571</ele><time>2026-04-11T06:48:05.061Z</time></trkpt><trkpt lat="44.7359417" lon="7.797665"><ele>264.0</ele><time>2026-04-11T06:48:06.06Z</time></trkpt><trkpt lat="44.7360117" lon="7.7976533"><ele>264.0</ele><time>2026-04-11T06:48:07.06Z</time></trkpt><trkpt lat="44.7360833" lon="7.797645"><ele>264.0</ele><time>2026-04-11T06:48:08.059Z</time></trkpt><trkpt lat="44.7361533" lon="7.7976383"><ele>264.0</ele><time>2026-04-11T06:48:09.059Z</time></trkpt><trkpt lat="44.7362267" lon="7.7976317"><ele>264.0</ele><time>2026-04-11T06:48:10.059Z</time></trkpt><trkpt lat="44.7362967" lon="7.7976233"><ele>264.0</ele><time>2026-04-11T06:48:11.06Z</time></trkpt><trkpt lat="44.7363683" lon="7.7976233"><ele>264.0</ele><time>2026-04-11T06:48:12.059Z</time></trkpt><trkpt lat="44.7364383" lon="7.7976367"><ele>264.0</ele><time>2026-04-11T06:48:13.059Z</time></trkpt><trkpt lat="44.736505" lon="7.797655"><ele>264.0</ele><time>2026-04-11T06:48:14.059Z</time></trkpt><trkpt lat="44.73657" lon="7.79768"><ele>264.0</ele><time>2026-04-11T06:48:15.06Z</time></trkpt><trkpt lat="44.7366367" lon="7.79769"><ele>264.0</ele><time>2026-04-11T06:48:16.06Z</time></trkpt><trkpt lat="44.7367083" lon="7.79769"><ele>264.0</ele><time>2026-04-11T06:48:17.062Z</time></trkpt><trkpt lat="44.7367783" lon="7.7976767"><ele>264.0</ele><time>2026-04-11T06:48:18.058Z</time></trkpt><trkpt lat="44.73685" lon="7.7976583"><ele>264.0</ele><time>2026-04-11T06:48:19.063Z</time></trkpt><trkpt lat="44.73692" lon="7.79764"><ele>264.0</ele><time>2026-04-11T06:48:20.062Z</time></trkpt><trkpt lat="44.7369917" lon="7.79762"><ele>264.57142857142856</ele><time>2026-04-11T06:48:21.06Z</time></trkpt><trkpt lat="44.7370633" lon="7.7976017"><ele>265.14285714285717</ele><time>2026-04-11T06:48:22.06Z</time></trkpt><trkpt lat="44.737135" lon="7.7975867"><ele>265.7142857142857</ele><time>2026-04-11T06:48:23.059Z</time></trkpt><trkpt lat="44.737205" lon="7.7975667"><ele>266.2857142857143</ele><time>2026-04-11T06:48:24.059Z</time></trkpt><trkpt lat="44.737275" lon="7.7975417"><ele>266.85714285714283</ele><time>2026-04-11T06:48:25.06Z</time></trkpt><trkpt lat="44.737345" lon="7.7975167"><ele>267.42857142857144</ele><time>2026-04-11T06:48:26.059Z</time></trkpt><trkpt lat="44.7374133" lon="7.7974967"><ele>268.0</ele><time>2026-04-11T06:48:27.06Z</time></trkpt><trkpt lat="44.7374833" lon="7.7974733"><ele>268.0</ele><time>2026-04-11T06:48:28.06Z</time></trkpt><trkpt lat="44.7375533" lon="7.79745"><ele>268.0</ele><time>2026-04-11T06:48:29.06Z</time></trkpt><trkpt lat="44.7376217" lon="7.797425"><ele>268.0</ele><time>2026-04-11T06:48:30.059Z</time></trkpt><trkpt lat="44.7376917" lon="7.7974067"><ele>268.0</ele><time>2026-04-11T06:48:31.059Z</time></trkpt><trkpt lat="44.7377583" lon="7.7973833"><ele>268.0</ele><time>2026-04-11T06:48:32.06Z</time></trkpt><trkpt lat="44.7378233" lon="7.7973633"><ele>268.0</ele><time>2026-04-11T06:48:33.06Z</time></trkpt><trkpt lat="44.7378917" lon="7.7973417"><ele>268.0</ele><time>2026-04-11T06:48:34.059Z</time></trkpt><trkpt lat="44.7379617" lon="7.7973317"><ele>267.7142857142857</ele><time>2026-04-11T06:48:35.06Z</time></trkpt><trkpt lat="44.7380333" lon="7.7973317"><ele>267.42857142857144</ele><time>2026-04-11T06:48:36.06Z</time></trkpt><trkpt lat="44.7380983" lon="7.7973483"><ele>267.1428571428571</ele><time>2026-04-11T06:48:37.061Z</time></trkpt><trkpt lat="44.73816" lon="7.797385"><ele>266.8571428571429</ele><time>2026-04-11T06:48:38.059Z</time></trkpt><trkpt lat="44.738215" lon="7.797435"><ele>266.57142857142856</ele><time>2026-04-11T06:48:39.06Z</time></trkpt><trkpt lat="44.7382717" lon="7.79748"><ele>266.2857142857143</ele><time>2026-04-11T06:48:40.06Z</time></trkpt><trkpt lat="44.7383367" lon="7.7975067"><ele>266.0</ele><time>2026-04-11T06:48:41.057Z</time></trkpt><trkpt lat="44.738405" lon="7.79751"><ele>266.0</ele><time>2026-04-11T06:48:42.06Z</time></trkpt><trkpt lat="44.7384733" lon="7.7974983"><ele>266.0</ele><time>2026-04-11T06:48:43.058Z</time></trkpt><trkpt lat="44.7385367" lon="7.79748"><ele>266.0</ele><time>2026-04-11T06:48:44.059Z</time></trkpt><trkpt lat="44.7386017" lon="7.7974633"><ele>266.0</ele><time>2026-04-11T06:48:45.059Z</time></trkpt><trkpt lat="44.7386683" lon="7.7974433"><ele>266.0</ele><time>2026-04-11T06:48:46.059Z</time></trkpt><trkpt lat="44.7387333" lon="7.79742"><ele>266.0</ele><time>2026-04-11T06:48:47.06Z</time></trkpt><trkpt lat="44.7387967" lon="7.7973967"><ele>266.0</ele><time>2026-04-11T06:48:48.059Z</time></trkpt><trkpt lat="44.73886" lon="7.797375"><ele>265.85714285714283</ele><time>2026-04-11T06:48:49.059Z</time></trkpt><trkpt lat="44.738925" lon="7.7973583"><ele>265.7142857142857</ele><time>2026-04-11T06:48:50.061Z</time></trkpt><trkpt lat="44.73899" lon="7.7973433"><ele>265.57142857142856</ele><time>2026-04-11T06:48:51.061Z</time></trkpt><trkpt lat="44.7390533" lon="7.7973317"><ele>265.42857142857144</ele><time>2026-04-11T06:48:52.059Z</time></trkpt><trkpt lat="44.7391167" lon="7.7973233"><ele>265.2857142857143</ele><time>2026-04-11T06:48:53.059Z</time></trkpt><trkpt lat="44.73918" lon="7.7973133"><ele>265.1428571428571</ele><time>2026-04-11T06:48:54.061Z</time></trkpt><trkpt lat="44.7392433" lon="7.7973033"><ele>265.0</ele><time>2026-04-11T06:48:55.061Z</time></trkpt><trkpt lat="44.7393067" lon="7.7972967"><ele>265.0</ele><time>2026-04-11T06:48:56.061Z</time></trkpt><trkpt lat="44.7394267" lon="7.797295"><ele>265.0</ele><time>2026-04-11T06:48:58.062Z</time></trkpt><trkpt lat="44.739525" lon="7.7973583"><ele>265.0</ele><time>2026-04-11T06:49:00.062Z</time></trkpt><trkpt lat="44.739575" lon="7.7974967"><ele>265.0</ele><time>2026-04-11T06:49:02.06Z</time></trkpt><trkpt lat="44.739585" lon="7.797585"><ele>265.0</ele><time>2026-04-11T06:49:03.061Z</time></trkpt><trkpt lat="44.7395933" lon="7.7976767"><ele>264.8</ele><time>2026-04-11T06:49:04.061Z</time></trkpt><trkpt lat="44.7395983" lon="7.7977667"><ele>264.6</ele><time>2026-04-11T06:49:05.059Z</time></trkpt><trkpt lat="44.7396117" lon="7.7979417"><ele>264.4</ele><time>2026-04-11T06:49:07.059Z</time></trkpt><trkpt lat="44.7396233" lon="7.7981167"><ele>264.2</ele><time>2026-04-11T06:49:09.061Z</time></trkpt><trkpt lat="44.739635" lon="7.79829"><ele>264.0</ele><time>2026-04-11T06:49:11.06Z</time></trkpt><trkpt lat="44.7396417" lon="7.7983783"><ele>264.0</ele><time>2026-04-11T06:49:12.059Z</time></trkpt><trkpt lat="44.7396483" lon="7.7984683"><ele>264.0</ele><time>2026-04-11T06:49:13.059Z</time></trkpt><trkpt lat="44.739655" lon="7.7985633"><ele>264.0</ele><time>2026-04-11T06:49:14.06Z</time></trkpt><trkpt lat="44.7396617" lon="7.7986583"><ele>264.0</ele><time>2026-04-11T06:49:15.062Z</time></trkpt><trkpt lat="44.7396683" lon="7.7987533"><ele>264.0</ele><time>2026-04-11T06:49:16.062Z</time></trkpt><trkpt lat="44.7396733" lon="7.79885"><ele>264.0</ele><time>2026-04-11T06:49:17.061Z</time></trkpt><trkpt lat="44.7396833" lon="7.7989467"><ele>264.0</ele><time>2026-04-11T06:49:18.063Z</time></trkpt><trkpt lat="44.7396983" lon="7.7990383"><ele>264.1428571428571</ele><time>2026-04-11T06:49:19.062Z</time></trkpt><trkpt lat="44.7397217" lon="7.7991267"><ele>264.2857142857143</ele><time>2026-04-11T06:49:20.061Z</time></trkpt><trkpt lat="44.7397567" lon="7.7992033"><ele>264.42857142857144</ele><time>2026-04-11T06:49:21.061Z</time></trkpt><trkpt lat="44.7398083" lon="7.799265"><ele>264.57142857142856</ele><time>2026-04-11T06:49:22.06Z</time></trkpt><trkpt lat="44.7398733" lon="7.799305"><ele>264.7142857142857</ele><time>2026-04-11T06:49:23.059Z</time></trkpt><trkpt lat="44.7399433" lon="7.799335"><ele>264.85714285714283</ele><time>2026-04-11T06:49:24.058Z</time></trkpt><trkpt lat="44.7400167" lon="7.7993633"><ele>265.0</ele><time>2026-04-11T06:49:25.062Z</time></trkpt><trkpt lat="44.7400867" lon="7.7994"><ele>264.99999999999994</ele><time>2026-04-11T06:49:26.062Z</time></trkpt><trkpt lat="44.7401533" lon="7.7994433"><ele>265.0</ele><time>2026-04-11T06:49:27.061Z</time></trkpt><trkpt lat="44.7402183" lon="7.79949"><ele>265.0</ele><time>2026-04-11T06:49:28.058Z</time></trkpt><trkpt lat="44.7402783" lon="7.7995383"><ele>265.0</ele><time>2026-04-11T06:49:29.059Z</time></trkpt><trkpt lat="44.7403383" lon="7.7995917"><ele>265.0</ele><time>2026-04-11T06:49:30.059Z</time></trkpt><trkpt lat="44.7404" lon="7.7996467"><ele>264.99999999999994</ele><time>2026-04-11T06:49:31.06Z</time></trkpt><trkpt lat="44.74046" lon="7.7997017"><ele>265.0</ele><time>2026-04-11T06:49:32.059Z</time></trkpt><trkpt lat="44.7405217" lon="7.7997533"><ele>265.1428571428571</ele><time>2026-04-11T06:49:33.059Z</time></trkpt><trkpt lat="44.7405833" lon="7.7998067"><ele>265.2857142857143</ele><time>2026-04-11T06:49:34.061Z</time></trkpt><trkpt lat="44.7406433" lon="7.7998617"><ele>265.42857142857144</ele><time>2026-04-11T06:49:35.057Z</time></trkpt><trkpt lat="44.740705" lon="7.7999183"><ele>265.57142857142856</ele><time>2026-04-11T06:49:36.059Z</time></trkpt><trkpt lat="44.740765" lon="7.7999733"><ele>265.7142857142857</ele><time>2026-04-11T06:49:37.061Z</time></trkpt><trkpt lat="44.7408233" lon="7.8000283"><ele>265.85714285714283</ele><time>2026-04-11T06:49:38.06Z</time></trkpt><trkpt lat="44.74088" lon="7.800085"><ele>266.0</ele><time>2026-04-11T06:49:39.061Z</time></trkpt><trkpt lat="44.7409333" lon="7.8001433"><ele>266.0</ele><time>2026-04-11T06:49:40.063Z</time></trkpt><trkpt lat="44.7409833" lon="7.80021"><ele>266.0</ele><time>2026-04-11T06:49:41.06Z</time></trkpt><trkpt lat="44.74103" lon="7.8002817"><ele>266.0</ele><time>2026-04-11T06:49:42.062Z</time></trkpt><trkpt lat="44.7410717" lon="7.8003583"><ele>266.0</ele><time>2026-04-11T06:49:43.059Z</time></trkpt><trkpt lat="44.7411083" lon="7.80044"><ele>266.0</ele><time>2026-04-11T06:49:44.061Z</time></trkpt><trkpt lat="44.7411383" lon="7.8005217"><ele>266.0</ele><time>2026-04-11T06:49:45.06Z</time></trkpt><trkpt lat="44.741165" lon="7.8006083"><ele>266.0</ele><time>2026-04-11T06:49:46.062Z</time></trkpt><trkpt lat="44.74119" lon="7.8006967"><ele>266.14285714285717</ele><time>2026-04-11T06:49:47.059Z</time></trkpt><trkpt lat="44.7412117" lon="7.8007883"><ele>266.2857142857143</ele><time>2026-04-11T06:49:48.057Z</time></trkpt><trkpt lat="44.7412317" lon="7.8008833"><ele>266.42857142857144</ele><time>2026-04-11T06:49:49.061Z</time></trkpt><trkpt lat="44.7412517" lon="7.8009783"><ele>266.57142857142856</ele><time>2026-04-11T06:49:50.06Z</time></trkpt><trkpt lat="44.7412733" lon="7.801075"><ele>266.7142857142857</ele><time>2026-04-11T06:49:51.059Z</time></trkpt><trkpt lat="44.7412917" lon="7.8011683"><ele>266.8571428571429</ele><time>2026-04-11T06:49:52.062Z</time></trkpt><trkpt lat="44.74131" lon="7.8012617"><ele>267.0</ele><time>2026-04-11T06:49:53.059Z</time></trkpt><trkpt lat="44.7413283" lon="7.8013533"><ele>267.00000000000006</ele><time>2026-04-11T06:49:54.059Z</time></trkpt><trkpt lat="44.74135" lon="7.801445"><ele>267.0</ele><time>2026-04-11T06:49:55.062Z</time></trkpt><trkpt lat="44.7413733" lon="7.8015333"><ele>267.0</ele><time>2026-04-11T06:49:56.06Z</time></trkpt><trkpt lat="44.7413983" lon="7.8016183"><ele>267.0</ele><time>2026-04-11T06:49:57.06Z</time></trkpt><trkpt lat="44.741425" lon="7.8017017"><ele>267.0</ele><time>2026-04-11T06:49:58.059Z</time></trkpt><trkpt lat="44.7414583" lon="7.8017833"><ele>267.00000000000006</ele><time>2026-04-11T06:49:59.059Z</time></trkpt><trkpt lat="44.7414933" lon="7.8018617"><ele>267.0</ele><time>2026-04-11T06:50:00.06Z</time></trkpt><trkpt lat="44.74153" lon="7.80194"><ele>267.0</ele><time>2026-04-11T06:50:01.061Z</time></trkpt><trkpt lat="44.7415683" lon="7.8020133"><ele>267.0</ele><time>2026-04-11T06:50:02.061Z</time></trkpt><trkpt lat="44.7416083" lon="7.802085"><ele>267.0</ele><time>2026-04-11T06:50:03.061Z</time></trkpt><trkpt lat="44.7416517" lon="7.8021567"><ele>267.0</ele><time>2026-04-11T06:50:04.059Z</time></trkpt><trkpt lat="44.74173" lon="7.8022867"><ele>267.0</ele><time>2026-04-11T06:50:06.059Z</time></trkpt><trkpt lat="44.7418117" lon="7.80241"><ele>267.0</ele><time>2026-04-11T06:50:08.06Z</time></trkpt><trkpt lat="44.7418567" lon="7.802475"><ele>267.28571428571433</ele><time>2026-04-11T06:50:09.062Z</time></trkpt><trkpt lat="44.7419067" lon="7.8025367"><ele>267.57142857142856</ele><time>2026-04-11T06:50:10.06Z</time></trkpt><trkpt lat="44.7419567" lon="7.8026"><ele>267.8571428571429</ele><time>2026-04-11T06:50:11.059Z</time></trkpt><trkpt lat="44.7420083" lon="7.80266"><ele>268.14285714285717</ele><time>2026-04-11T06:50:12.062Z</time></trkpt><trkpt lat="44.7420617" lon="7.80272"><ele>268.42857142857144</ele><time>2026-04-11T06:50:13.061Z</time></trkpt><trkpt lat="44.742115" lon="7.8027733"><ele>268.7142857142857</ele><time>2026-04-11T06:50:14.062Z</time></trkpt><trkpt lat="44.74217" lon="7.8028283"><ele>269.0</ele><time>2026-04-11T06:50:15.062Z</time></trkpt><trkpt lat="44.7422233" lon="7.80288"><ele>269.0</ele><time>2026-04-11T06:50:16.059Z</time></trkpt><trkpt lat="44.74228" lon="7.8029333"><ele>269.0</ele><time>2026-04-11T06:50:17.06Z</time></trkpt><trkpt lat="44.7423367" lon="7.802985"><ele>269.0</ele><time>2026-04-11T06:50:18.06Z</time></trkpt><trkpt lat="44.7423917" lon="7.8030367"><ele>269.0</ele><time>2026-04-11T06:50:19.061Z</time></trkpt><trkpt lat="44.7424483" lon="7.8030867"><ele>269.0</ele><time>2026-04-11T06:50:20.061Z</time></trkpt><trkpt lat="44.742505" lon="7.8031367"><ele>269.0</ele><time>2026-04-11T06:50:21.062Z</time></trkpt><trkpt lat="44.742565" lon="7.8031883"><ele>269.0</ele><time>2026-04-11T06:50:22.061Z</time></trkpt><trkpt lat="44.7426217" lon="7.8032367"><ele>269.0</ele><time>2026-04-11T06:50:23.06Z</time></trkpt><trkpt lat="44.7426817" lon="7.8032833"><ele>269.0</ele><time>2026-04-11T06:50:24.062Z</time></trkpt><trkpt lat="44.74274" lon="7.8033317"><ele>269.0</ele><time>2026-04-11T06:50:25.061Z</time></trkpt><trkpt lat="44.7427983" lon="7.8033883"><ele>269.0</ele><time>2026-04-11T06:50:26.061Z</time></trkpt><trkpt lat="44.74286" lon="7.8034417"><ele>269.0</ele><time>2026-04-11T06:50:27.061Z</time></trkpt><trkpt lat="44.7429183" lon="7.8034967"><ele>269.0</ele><time>2026-04-11T06:50:28.059Z</time></trkpt><trkpt lat="44.74298" lon="7.8035483"><ele>269.0</ele><time>2026-04-11T06:50:29.059Z</time></trkpt><trkpt lat="44.7430383" lon="7.8036033"><ele>269.57142857142856</ele><time>2026-04-11T06:50:30.06Z</time></trkpt><trkpt lat="44.7430967" lon="7.803655"><ele>270.14285714285717</ele><time>2026-04-11T06:50:31.062Z</time></trkpt><trkpt lat="44.7431533" lon="7.80371"><ele>270.7142857142857</ele><time>2026-04-11T06:50:32.061Z</time></trkpt><trkpt lat="44.7432083" lon="7.8037683"><ele>271.2857142857143</ele><time>2026-04-11T06:50:33.061Z</time></trkpt><trkpt lat="44.7432633" lon="7.80383"><ele>271.8571428571429</ele><time>2026-04-11T06:50:34.06Z</time></trkpt><trkpt lat="44.74332" lon="7.8038867"><ele>272.42857142857144</ele><time>2026-04-11T06:50:35.059Z</time></trkpt><trkpt lat="44.7433783" lon="7.8039433"><ele>273.0</ele><time>2026-04-11T06:50:36.06Z</time></trkpt><trkpt lat="44.7434367" lon="7.8039983"><ele>273.0</ele><time>2026-04-11T06:50:37.062Z</time></trkpt><trkpt lat="44.743495" lon="7.8040517"><ele>273.0</ele><time>2026-04-11T06:50:38.06Z</time></trkpt><trkpt lat="44.7435517" lon="7.8041"><ele>273.0</ele><time>2026-04-11T06:50:39.062Z</time></trkpt><trkpt lat="44.74361" lon="7.8041467"><ele>273.0</ele><time>2026-04-11T06:50:40.06Z</time></trkpt><trkpt lat="44.7436667" lon="7.8041933"><ele>273.0</ele><time>2026-04-11T06:50:41.06Z</time></trkpt><trkpt lat="44.743725" lon="7.8042367"><ele>273.0</ele><time>2026-04-11T06:50:42.061Z</time></trkpt><trkpt lat="44.743785" lon="7.8042767"><ele>273.0</ele><time>2026-04-11T06:50:43.061Z</time></trkpt><trkpt lat="44.743845" lon="7.8043117"><ele>273.14285714285717</ele><time>2026-04-11T06:50:44.059Z</time></trkpt><trkpt lat="44.74391" lon="7.80435"><ele>273.2857142857143</ele><time>2026-04-11T06:50:45.059Z</time></trkpt><trkpt lat="44.743975" lon="7.804385"><ele>273.42857142857144</ele><time>2026-04-11T06:50:46.06Z</time></trkpt><trkpt lat="44.7440417" lon="7.80442"><ele>273.57142857142856</ele><time>2026-04-11T06:50:47.059Z</time></trkpt><trkpt lat="44.744105" lon="7.804455"><ele>273.7142857142857</ele><time>2026-04-11T06:50:48.059Z</time></trkpt><trkpt lat="44.7441683" lon="7.8044933"><ele>273.8571428571429</ele><time>2026-04-11T06:50:49.059Z</time></trkpt><trkpt lat="44.7442317" lon="7.8045333"><ele>274.0</ele><time>2026-04-11T06:50:50.06Z</time></trkpt><trkpt lat="44.7442933" lon="7.8045783"><ele>274.00000000000006</ele><time>2026-04-11T06:50:51.06Z</time></trkpt><trkpt lat="44.744355" lon="7.8046233"><ele>274.0</ele><time>2026-04-11T06:50:52.061Z</time></trkpt><trkpt lat="44.744415" lon="7.8046733"><ele>274.0</ele><time>2026-04-11T06:50:53.06Z</time></trkpt><trkpt lat="44.7444767" lon="7.8047333"><ele>274.0</ele><time>2026-04-11T06:50:54.061Z</time></trkpt><trkpt lat="44.7445333" lon="7.8047917"><ele>274.0</ele><time>2026-04-11T06:50:55.059Z</time></trkpt><trkpt lat="44.7445867" lon="7.8048533"><ele>274.00000000000006</ele><time>2026-04-11T06:50:56.06Z</time></trkpt><trkpt lat="44.7446383" lon="7.8049217"><ele>274.0</ele><time>2026-04-11T06:50:57.059Z</time></trkpt><trkpt lat="44.7446917" lon="7.80499"><ele>274.00000000000006</ele><time>2026-04-11T06:50:58.061Z</time></trkpt><trkpt lat="44.74474" lon="7.80506"><ele>274.0</ele><time>2026-04-11T06:50:59.06Z</time></trkpt><trkpt lat="44.7447883" lon="7.8051317"><ele>274.0</ele><time>2026-04-11T06:51:00.06Z</time></trkpt><trkpt lat="44.7448333" lon="7.8052067"><ele>274.0</ele><time>2026-04-11T06:51:01.06Z</time></trkpt><trkpt lat="44.7448783" lon="7.8052817"><ele>274.0</ele><time>2026-04-11T06:51:02.06Z</time></trkpt><trkpt lat="44.744925" lon="7.805355"><ele>274.00000000000006</ele><time>2026-04-11T06:51:03.061Z</time></trkpt><trkpt lat="44.7449733" lon="7.805425"><ele>274.0</ele><time>2026-04-11T06:51:04.06Z</time></trkpt><trkpt lat="44.7450217" lon="7.8054967"><ele>274.00000000000006</ele><time>2026-04-11T06:51:05.06Z</time></trkpt><trkpt lat="44.7450717" lon="7.805565"><ele>274.0</ele><time>2026-04-11T06:51:06.061Z</time></trkpt><trkpt lat="44.7451233" lon="7.805635"><ele>274.0</ele><time>2026-04-11T06:51:07.061Z</time></trkpt><trkpt lat="44.7451733" lon="7.8057067"><ele>274.0</ele><time>2026-04-11T06:51:08.06Z</time></trkpt><trkpt lat="44.745225" lon="7.8057783"><ele>274.0</ele><time>2026-04-11T06:51:09.06Z</time></trkpt><trkpt lat="44.74528" lon="7.8058483"><ele>274.00000000000006</ele><time>2026-04-11T06:51:10.06Z</time></trkpt><trkpt lat="44.7453333" lon="7.8059167"><ele>274.0</ele><time>2026-04-11T06:51:11.059Z</time></trkpt><trkpt lat="44.74539" lon="7.805985"><ele>274.00000000000006</ele><time>2026-04-11T06:51:12.06Z</time></trkpt><trkpt lat="44.7454467" lon="7.80605"><ele>274.0</ele><time>2026-04-11T06:51:13.062Z</time></trkpt><trkpt lat="44.7455017" lon="7.806115"><ele>274.0</ele><time>2026-04-11T06:51:14.059Z</time></trkpt><trkpt lat="44.745555" lon="7.8061817"><ele>274.0</ele><time>2026-04-11T06:51:15.06Z</time></trkpt><trkpt lat="44.74561" lon="7.8062467"><ele>274.0</ele><time>2026-04-11T06:51:16.061Z</time></trkpt><trkpt lat="44.745665" lon="7.8063067"><ele>274.00000000000006</ele><time>2026-04-11T06:51:17.058Z</time></trkpt><trkpt lat="44.74572" lon="7.8063617"><ele>274.0</ele><time>2026-04-11T06:51:18.06Z</time></trkpt><trkpt lat="44.74578" lon="7.8064133"><ele>274.00000000000006</ele><time>2026-04-11T06:51:19.06Z</time></trkpt><trkpt lat="44.7458367" lon="7.8064733"><ele>274.0</ele><time>2026-04-11T06:51:20.06Z</time></trkpt><trkpt lat="44.7458933" lon="7.8065333"><ele>274.0</ele><time>2026-04-11T06:51:21.061Z</time></trkpt><trkpt lat="44.7459483" lon="7.8065917"><ele>274.0</ele><time>2026-04-11T06:51:22.059Z</time></trkpt><trkpt lat="44.7460017" lon="7.8066533"><ele>274.0</ele><time>2026-04-11T06:51:23.059Z</time></trkpt><trkpt lat="44.74605" lon="7.8067117"><ele>274.00000000000006</ele><time>2026-04-11T06:51:24.06Z</time></trkpt><trkpt lat="44.7460983" lon="7.80677"><ele>274.0</ele><time>2026-04-11T06:51:25.063Z</time></trkpt><trkpt lat="44.7461867" lon="7.80688"><ele>274.2</ele><time>2026-04-11T06:51:27.059Z</time></trkpt><trkpt lat="44.74626" lon="7.806965"><ele>274.4</ele><time>2026-04-11T06:51:29.06Z</time></trkpt><trkpt lat="44.746335" lon="7.807045"><ele>274.6</ele><time>2026-04-11T06:51:31.059Z</time></trkpt><trkpt lat="44.7464283" lon="7.8071383"><ele>274.8</ele><time>2026-04-11T06:51:33.06Z</time></trkpt><trkpt lat="44.7465183" lon="7.80723"><ele>275.0</ele><time>2026-04-11T06:51:35.06Z</time></trkpt><trkpt lat="44.74658" lon="7.8073017"><ele>275.0</ele><time>2026-04-11T06:51:37.059Z</time></trkpt><trkpt lat="44.7466467" lon="7.8073417"><ele>275.0</ele><time>2026-04-11T06:51:40.058Z</time></trkpt><trkpt lat="44.7467167" lon="7.80736"><ele>275.0</ele><time>2026-04-11T06:51:42.061Z</time></trkpt><trkpt lat="44.7468133" lon="7.8073433"><ele>275.0</ele><time>2026-04-11T06:51:44.055Z</time></trkpt><trkpt lat="44.7469167" lon="7.80732"><ele>275.0</ele><time>2026-04-11T06:51:46.059Z</time></trkpt><trkpt lat="44.7470267" lon="7.8072933"><ele>275.2</ele><time>2026-04-11T06:51:48.059Z</time></trkpt><trkpt lat="44.747145" lon="7.807255"><ele>275.4</ele><time>2026-04-11T06:51:50.06Z</time></trkpt><trkpt lat="44.7472067" lon="7.807235"><ele>275.6</ele><time>2026-04-11T06:51:51.058Z</time></trkpt><trkpt lat="44.7472683" lon="7.8072133"><ele>275.8</ele><time>2026-04-11T06:51:52.058Z</time></trkpt><trkpt lat="44.7473817" lon="7.8071733"><ele>276.0</ele><time>2026-04-11T06:51:54.058Z</time></trkpt><trkpt lat="44.7474917" lon="7.8071367"><ele>276.0</ele><time>2026-04-11T06:51:56.059Z</time></trkpt><trkpt lat="44.7476067" lon="7.80709"><ele>276.0</ele><time>2026-04-11T06:51:58.059Z</time></trkpt><trkpt lat="44.7477267" lon="7.80704"><ele>276.0</ele><time>2026-04-11T06:52:00.06Z</time></trkpt><trkpt lat="44.74779" lon="7.8070167"><ele>276.0</ele><time>2026-04-11T06:52:01.061Z</time></trkpt><trkpt lat="44.7478583" lon="7.80699"><ele>276.0</ele><time>2026-04-11T06:52:02.059Z</time></trkpt><trkpt lat="44.7479233" lon="7.8069683"><ele>276.0</ele><time>2026-04-11T06:52:03.059Z</time></trkpt><trkpt lat="44.7479867" lon="7.806945"><ele>276.0</ele><time>2026-04-11T06:52:04.06Z</time></trkpt><trkpt lat="44.7480517" lon="7.8069233"><ele>276.0</ele><time>2026-04-11T06:52:05.059Z</time></trkpt><trkpt lat="44.748115" lon="7.806905"><ele>276.0</ele><time>2026-04-11T06:52:06.058Z</time></trkpt><trkpt lat="44.7481767" lon="7.806885"><ele>276.0</ele><time>2026-04-11T06:52:07.062Z</time></trkpt><trkpt lat="44.7482983" lon="7.80684"><ele>276.0</ele><time>2026-04-11T06:52:09.059Z</time></trkpt><trkpt lat="44.7484133" lon="7.806795"><ele>276.0</ele><time>2026-04-11T06:52:11.058Z</time></trkpt><trkpt lat="44.748525" lon="7.806745"><ele>276.0</ele><time>2026-04-11T06:52:13.059Z</time></trkpt><trkpt lat="44.7486383" lon="7.8067417"><ele>276.0</ele><time>2026-04-11T06:52:15.059Z</time></trkpt><trkpt lat="44.748745" lon="7.806825"><ele>276.0</ele><time>2026-04-11T06:52:17.06Z</time></trkpt><trkpt lat="44.7488417" lon="7.8069317"><ele>276.0</ele><time>2026-04-11T06:52:19.059Z</time></trkpt><trkpt lat="44.74894" lon="7.8070383"><ele>276.3333333333333</ele><time>2026-04-11T06:52:21.06Z</time></trkpt><trkpt lat="44.7489917" lon="7.8070917"><ele>276.6666666666667</ele><time>2026-04-11T06:52:22.059Z</time></trkpt><trkpt lat="44.7490483" lon="7.8071417"><ele>277.0</ele><time>2026-04-11T06:52:23.058Z</time></trkpt><trkpt lat="44.749105" lon="7.8071933"><ele>277.33333333333337</ele><time>2026-04-11T06:52:24.059Z</time></trkpt><trkpt lat="44.74916" lon="7.8072467"><ele>277.6666666666667</ele><time>2026-04-11T06:52:25.06Z</time></trkpt><trkpt lat="44.749215" lon="7.8072967"><ele>278.0</ele><time>2026-04-11T06:52:26.062Z</time></trkpt><trkpt lat="44.7493133" lon="7.807395"><ele>278.6</ele><time>2026-04-11T06:52:28.06Z</time></trkpt><trkpt lat="44.7494083" lon="7.80749"><ele>279.20000000000005</ele><time>2026-04-11T06:52:30.06Z</time></trkpt><trkpt lat="44.7494983" lon="7.8075767"><ele>279.8</ele><time>2026-04-11T06:52:32.06Z</time></trkpt><trkpt lat="44.7495617" lon="7.8076883"><ele>280.40000000000003</ele><time>2026-04-11T06:52:34.06Z</time></trkpt><trkpt lat="44.7495283" lon="7.8078133"><ele>281.0</ele><time>2026-04-11T06:52:36.061Z</time></trkpt><trkpt lat="44.7494667" lon="7.80793"><ele>281.0</ele><time>2026-04-11T06:52:38.059Z</time></trkpt><trkpt lat="44.7494133" lon="7.8080583"><ele>281.0</ele><time>2026-04-11T06:52:40.059Z</time></trkpt><trkpt lat="44.7493733" lon="7.8081917"><ele>281.0</ele><time>2026-04-11T06:52:42.059Z</time></trkpt><trkpt lat="44.7493433" lon="7.8083217"><ele>281.0</ele><time>2026-04-11T06:52:44.06Z</time></trkpt><trkpt lat="44.7493083" lon="7.8084517"><ele>281.0</ele><time>2026-04-11T06:52:46.059Z</time></trkpt><trkpt lat="44.7492667" lon="7.8085817"><ele>281.0</ele><time>2026-04-11T06:52:48.059Z</time></trkpt><trkpt lat="44.7492317" lon="7.808725"><ele>281.0</ele><time>2026-04-11T06:52:50.06Z</time></trkpt><trkpt lat="44.7491833" lon="7.808865"><ele>281.0</ele><time>2026-04-11T06:52:52.063Z</time></trkpt><trkpt lat="44.749135" lon="7.8090117"><ele>281.0</ele><time>2026-04-11T06:52:54.059Z</time></trkpt><trkpt lat="44.7491" lon="7.8091633"><ele>281.0</ele><time>2026-04-11T06:52:56.059Z</time></trkpt><trkpt lat="44.7490617" lon="7.80933"><ele>281.00000000000006</ele><time>2026-04-11T06:52:58.059Z</time></trkpt><trkpt lat="44.74904" lon="7.8094167"><ele>281.0</ele><time>2026-04-11T06:52:59.06Z</time></trkpt><trkpt lat="44.7490183" lon="7.8095067"><ele>281.0</ele><time>2026-04-11T06:53:00.06Z</time></trkpt><trkpt lat="44.749005" lon="7.8095967"><ele>281.0</ele><time>2026-04-11T06:53:01.059Z</time></trkpt><trkpt lat="44.748995" lon="7.8096867"><ele>281.0</ele><time>2026-04-11T06:53:02.059Z</time></trkpt><trkpt lat="44.7489833" lon="7.80978"><ele>281.00000000000006</ele><time>2026-04-11T06:53:03.06Z</time></trkpt><trkpt lat="44.7489733" lon="7.809875"><ele>281.0</ele><time>2026-04-11T06:53:04.059Z</time></trkpt><trkpt lat="44.7489617" lon="7.8099667"><ele>281.00000000000006</ele><time>2026-04-11T06:53:05.061Z</time></trkpt><trkpt lat="44.748955" lon="7.8100617"><ele>281.0</ele><time>2026-04-11T06:53:06.06Z</time></trkpt><trkpt lat="44.7489467" lon="7.8101533"><ele>281.0</ele><time>2026-04-11T06:53:07.06Z</time></trkpt><trkpt lat="44.7489383" lon="7.810245"><ele>281.0</ele><time>2026-04-11T06:53:08.06Z</time></trkpt><trkpt lat="44.7489217" lon="7.8103383"><ele>281.0</ele><time>2026-04-11T06:53:09.06Z</time></trkpt><trkpt lat="44.748905" lon="7.8104317"><ele>281.00000000000006</ele><time>2026-04-11T06:53:10.061Z</time></trkpt><trkpt lat="44.7488833" lon="7.8105267"><ele>281.0</ele><time>2026-04-11T06:53:11.061Z</time></trkpt><trkpt lat="44.7488583" lon="7.81062"><ele>281.42857142857144</ele><time>2026-04-11T06:53:12.06Z</time></trkpt><trkpt lat="44.74883" lon="7.8107133"><ele>281.8571428571429</ele><time>2026-04-11T06:53:13.059Z</time></trkpt><trkpt lat="44.748805" lon="7.810805"><ele>282.2857142857143</ele><time>2026-04-11T06:53:14.06Z</time></trkpt><trkpt lat="44.7487817" lon="7.8108967"><ele>282.7142857142857</ele><time>2026-04-11T06:53:15.061Z</time></trkpt><trkpt lat="44.748755" lon="7.8109883"><ele>283.1428571428571</ele><time>2026-04-11T06:53:16.06Z</time></trkpt><trkpt lat="44.7487283" lon="7.8110817"><ele>283.57142857142856</ele><time>2026-04-11T06:53:17.059Z</time></trkpt><trkpt lat="44.7487067" lon="7.8111733"><ele>284.0</ele><time>2026-04-11T06:53:18.06Z</time></trkpt><trkpt lat="44.748685" lon="7.8112667"><ele>284.42857142857144</ele><time>2026-04-11T06:53:19.06Z</time></trkpt><trkpt lat="44.7486567" lon="7.81136"><ele>284.85714285714283</ele><time>2026-04-11T06:53:20.059Z</time></trkpt><trkpt lat="44.7486267" lon="7.81145"><ele>285.2857142857143</ele><time>2026-04-11T06:53:21.06Z</time></trkpt><trkpt lat="44.7485983" lon="7.81154"><ele>285.7142857142857</ele><time>2026-04-11T06:53:22.059Z</time></trkpt><trkpt lat="44.748575" lon="7.811635"><ele>286.1428571428571</ele><time>2026-04-11T06:53:23.059Z</time></trkpt><trkpt lat="44.7485517" lon="7.81173"><ele>286.57142857142856</ele><time>2026-04-11T06:53:24.06Z</time></trkpt><trkpt lat="44.74853" lon="7.811825"><ele>287.0</ele><time>2026-04-11T06:53:25.059Z</time></trkpt><trkpt lat="44.7485117" lon="7.8119183"><ele>287.0</ele><time>2026-04-11T06:53:26.059Z</time></trkpt><trkpt lat="44.7484917" lon="7.8120133"><ele>287.0</ele><time>2026-04-11T06:53:27.06Z</time></trkpt><trkpt lat="44.7484683" lon="7.8121067"><ele>287.0</ele><time>2026-04-11T06:53:28.059Z</time></trkpt><trkpt lat="44.748445" lon="7.8122017"><ele>287.0</ele><time>2026-04-11T06:53:29.059Z</time></trkpt><trkpt lat="44.7484233" lon="7.8122933"><ele>287.0</ele><time>2026-04-11T06:53:30.059Z</time></trkpt><trkpt lat="44.7484017" lon="7.8123817"><ele>287.0</ele><time>2026-04-11T06:53:31.06Z</time></trkpt><trkpt lat="44.74838" lon="7.8124683"><ele>287.0</ele><time>2026-04-11T06:53:32.059Z</time></trkpt><trkpt lat="44.748355" lon="7.81255"><ele>287.5</ele><time>2026-04-11T06:53:33.06Z</time></trkpt><trkpt lat="44.748305" lon="7.81271"><ele>288.0</ele><time>2026-04-11T06:53:35.059Z</time></trkpt><trkpt lat="44.7482517" lon="7.81286"><ele>288.5</ele><time>2026-04-11T06:53:37.06Z</time></trkpt><trkpt lat="44.7482083" lon="7.813005"><ele>289.0</ele><time>2026-04-11T06:53:39.06Z</time></trkpt><trkpt lat="44.748165" lon="7.81315"><ele>289.0</ele><time>2026-04-11T06:53:41.059Z</time></trkpt><trkpt lat="44.7481233" lon="7.8132917"><ele>289.0</ele><time>2026-04-11T06:53:43.06Z</time></trkpt><trkpt lat="44.7480883" lon="7.8134333"><ele>289.0</ele><time>2026-04-11T06:53:45.059Z</time></trkpt><trkpt lat="44.7480683" lon="7.8135817"><ele>289.0</ele><time>2026-04-11T06:53:47.06Z</time></trkpt><trkpt lat="44.7480517" lon="7.8137367"><ele>289.0</ele><time>2026-04-11T06:53:49.061Z</time></trkpt><trkpt lat="44.748035" lon="7.8139"><ele>288.8</ele><time>2026-04-11T06:53:51.06Z</time></trkpt><trkpt lat="44.74801" lon="7.814055"><ele>288.59999999999997</ele><time>2026-04-11T06:53:53.059Z</time></trkpt><trkpt lat="44.7479733" lon="7.8142067"><ele>288.4</ele><time>2026-04-11T06:53:55.062Z</time></trkpt><trkpt lat="44.747935" lon="7.8143733"><ele>288.2</ele><time>2026-04-11T06:53:57.061Z</time></trkpt><trkpt lat="44.7479167" lon="7.8144633"><ele>288.0</ele><time>2026-04-11T06:53:58.06Z</time></trkpt><trkpt lat="44.7479033" lon="7.8145533"><ele>288.42857142857144</ele><time>2026-04-11T06:53:59.06Z</time></trkpt><trkpt lat="44.7478983" lon="7.814645"><ele>288.8571428571429</ele><time>2026-04-11T06:54:00.059Z</time></trkpt><trkpt lat="44.7479017" lon="7.81474"><ele>289.2857142857143</ele><time>2026-04-11T06:54:01.06Z</time></trkpt><trkpt lat="44.74791" lon="7.8148367"><ele>289.7142857142857</ele><time>2026-04-11T06:54:02.061Z</time></trkpt><trkpt lat="44.7479167" lon="7.8149317"><ele>290.1428571428571</ele><time>2026-04-11T06:54:03.061Z</time></trkpt><trkpt lat="44.7479217" lon="7.8150283"><ele>290.57142857142856</ele><time>2026-04-11T06:54:04.061Z</time></trkpt><trkpt lat="44.7479233" lon="7.8151283"><ele>291.0</ele><time>2026-04-11T06:54:05.058Z</time></trkpt><trkpt lat="44.7479333" lon="7.8152317"><ele>291.5</ele><time>2026-04-11T06:54:06.059Z</time></trkpt><trkpt lat="44.7479433" lon="7.8153367"><ele>292.0</ele><time>2026-04-11T06:54:07.061Z</time></trkpt><trkpt lat="44.7479533" lon="7.8154433"><ele>292.5</ele><time>2026-04-11T06:54:08.061Z</time></trkpt><trkpt lat="44.7479633" lon="7.81555"><ele>293.0</ele><time>2026-04-11T06:54:09.061Z</time></trkpt><trkpt lat="44.7479683" lon="7.8156567"><ele>293.5</ele><time>2026-04-11T06:54:10.06Z</time></trkpt><trkpt lat="44.7479683" lon="7.815765"><ele>294.0</ele><time>2026-04-11T06:54:11.059Z</time></trkpt><trkpt lat="44.74796" lon="7.815875"><ele>294.0</ele><time>2026-04-11T06:54:12.061Z</time></trkpt><trkpt lat="44.7479483" lon="7.8159817"><ele>294.0</ele><time>2026-04-11T06:54:13.059Z</time></trkpt><trkpt lat="44.7479317" lon="7.8160883"><ele>294.0</ele><time>2026-04-11T06:54:14.06Z</time></trkpt><trkpt lat="44.747915" lon="7.816195"><ele>294.0</ele><time>2026-04-11T06:54:15.06Z</time></trkpt><trkpt lat="44.7478933" lon="7.816295"><ele>294.0</ele><time>2026-04-11T06:54:16.06Z</time></trkpt><trkpt lat="44.7478733" lon="7.8163917"><ele>294.0</ele><time>2026-04-11T06:54:17.058Z</time></trkpt><trkpt lat="44.7478533" lon="7.8164867"><ele>294.0</ele><time>2026-04-11T06:54:18.059Z</time></trkpt><trkpt lat="44.7478333" lon="7.8165817"><ele>294.0</ele><time>2026-04-11T06:54:19.061Z</time></trkpt><trkpt lat="44.7478117" lon="7.816675"><ele>294.0</ele><time>2026-04-11T06:54:20.06Z</time></trkpt><trkpt lat="44.7477917" lon="7.8167633"><ele>294.0</ele><time>2026-04-11T06:54:21.06Z</time></trkpt><trkpt lat="44.747775" lon="7.816855"><ele>294.0</ele><time>2026-04-11T06:54:22.061Z</time></trkpt><trkpt lat="44.7477583" lon="7.8169483"><ele>294.0</ele><time>2026-04-11T06:54:23.058Z</time></trkpt><trkpt lat="44.7477417" lon="7.8170483"><ele>294.0</ele><time>2026-04-11T06:54:24.061Z</time></trkpt><trkpt lat="44.747725" lon="7.8171517"><ele>294.0</ele><time>2026-04-11T06:54:25.059Z</time></trkpt><trkpt lat="44.7477067" lon="7.8172567"><ele>292.6666666666667</ele><time>2026-04-11T06:54:26.059Z</time></trkpt><trkpt lat="44.7476917" lon="7.8173617"><ele>291.3333333333333</ele><time>2026-04-11T06:54:27.06Z</time></trkpt><trkpt lat="44.74768" lon="7.8174683"><ele>290.0</ele><time>2026-04-11T06:54:28.06Z</time></trkpt><trkpt lat="44.7476667" lon="7.81757"><ele>288.66666666666663</ele><time>2026-04-11T06:54:29.061Z</time></trkpt><trkpt lat="44.7476333" lon="7.8176683"><ele>287.3333333333333</ele><time>2026-04-11T06:54:30.06Z</time></trkpt><trkpt lat="44.74759" lon="7.8177533"><ele>286.0</ele><time>2026-04-11T06:54:31.061Z</time></trkpt><trkpt lat="44.74754" lon="7.817835"><ele>286.0</ele><time>2026-04-11T06:54:32.062Z</time></trkpt><trkpt lat="44.7474867" lon="7.8179133"><ele>286.0</ele><time>2026-04-11T06:54:33.061Z</time></trkpt><trkpt lat="44.7474367" lon="7.818"><ele>286.0</ele><time>2026-04-11T06:54:34.061Z</time></trkpt><trkpt lat="44.7473833" lon="7.818085"><ele>286.0</ele><time>2026-04-11T06:54:35.061Z</time></trkpt><trkpt lat="44.7473317" lon="7.8181717"><ele>286.0</ele><time>2026-04-11T06:54:36.062Z</time></trkpt><trkpt lat="44.7472717" lon="7.8182517"><ele>286.0</ele><time>2026-04-11T06:54:37.06Z</time></trkpt><trkpt lat="44.7472183" lon="7.818335"><ele>286.0</ele><time>2026-04-11T06:54:38.062Z</time></trkpt><trkpt lat="44.7471717" lon="7.818415"><ele>286.0</ele><time>2026-04-11T06:54:39.061Z</time></trkpt><trkpt lat="44.7471333" lon="7.8185"><ele>286.0</ele><time>2026-04-11T06:54:40.061Z</time></trkpt><trkpt lat="44.7471033" lon="7.8185833"><ele>286.0</ele><time>2026-04-11T06:54:41.061Z</time></trkpt><trkpt lat="44.7470533" lon="7.818735"><ele>286.0</ele><time>2026-04-11T06:54:43.06Z</time></trkpt><trkpt lat="44.7470117" lon="7.8189"><ele>286.66666666666663</ele><time>2026-04-11T06:54:45.063Z</time></trkpt><trkpt lat="44.7469917" lon="7.8189867"><ele>287.3333333333333</ele><time>2026-04-11T06:54:46.062Z</time></trkpt><trkpt lat="44.7469783" lon="7.8190783"><ele>288.0</ele><time>2026-04-11T06:54:47.061Z</time></trkpt><trkpt lat="44.74696" lon="7.8191633"><ele>288.6666666666667</ele><time>2026-04-11T06:54:48.06Z</time></trkpt><trkpt lat="44.7469083" lon="7.819315"><ele>289.33333333333337</ele><time>2026-04-11T06:54:50.061Z</time></trkpt><trkpt lat="44.746895" lon="7.8194667"><ele>290.0</ele><time>2026-04-11T06:54:52.06Z</time></trkpt><trkpt lat="44.74696" lon="7.819595"><ele>290.6666666666667</ele><time>2026-04-11T06:54:54.061Z</time></trkpt><trkpt lat="44.7470433" lon="7.8196467"><ele>291.33333333333337</ele><time>2026-04-11T06:54:56.059Z</time></trkpt><trkpt lat="44.7471433" lon="7.8196533"><ele>292.0</ele><time>2026-04-11T06:54:58.06Z</time></trkpt><trkpt lat="44.747235" lon="7.8196683"><ele>292.6666666666667</ele><time>2026-04-11T06:55:00.062Z</time></trkpt><trkpt lat="44.7473067" lon="7.8197033"><ele>293.3333333333333</ele><time>2026-04-11T06:55:02.06Z</time></trkpt><trkpt lat="44.747365" lon="7.8197667"><ele>294.0</ele><time>2026-04-11T06:55:04.059Z</time></trkpt><trkpt lat="44.747405" lon="7.8198733"><ele>294.0</ele><time>2026-04-11T06:55:07.061Z</time></trkpt><trkpt lat="44.747415" lon="7.819965"><ele>294.0</ele><time>2026-04-11T06:55:10.059Z</time></trkpt><trkpt lat="44.74746" lon="7.8200417"><ele>294.0</ele><time>2026-04-11T06:55:13.061Z</time></trkpt><trkpt lat="44.7475367" lon="7.8201233"><ele>294.0</ele><time>2026-04-11T06:55:16.06Z</time></trkpt><trkpt lat="44.7475817" lon="7.8201933"><ele>294.0</ele><time>2026-04-11T06:55:18.06Z</time></trkpt><trkpt lat="44.7476517" lon="7.820265"><ele>294.0</ele><time>2026-04-11T06:55:20.06Z</time></trkpt><trkpt lat="44.747715" lon="7.8203183"><ele>295.14285714285717</ele><time>2026-04-11T06:55:22.063Z</time></trkpt><trkpt lat="44.7477717" lon="7.8203783"><ele>296.2857142857143</ele><time>2026-04-11T06:55:24.059Z</time></trkpt><trkpt lat="44.74783" lon="7.8204267"><ele>297.42857142857144</ele><time>2026-04-11T06:55:26.062Z</time></trkpt><trkpt lat="44.7478967" lon="7.82047"><ele>298.57142857142856</ele><time>2026-04-11T06:55:28.061Z</time></trkpt><trkpt lat="44.7479767" lon="7.82049"><ele>299.7142857142857</ele><time>2026-04-11T06:55:30.06Z</time></trkpt><trkpt lat="44.74805" lon="7.8204967"><ele>300.8571428571429</ele><time>2026-04-11T06:55:32.06Z</time></trkpt><trkpt lat="44.7481267" lon="7.8205067"><ele>302.0</ele><time>2026-04-11T06:55:34.061Z</time></trkpt><trkpt lat="44.7482017" lon="7.8205133"><ele>302.00000000000006</ele><time>2026-04-11T06:55:36.063Z</time></trkpt><trkpt lat="44.7482733" lon="7.82053"><ele>302.0</ele><time>2026-04-11T06:55:38.06Z</time></trkpt><trkpt lat="44.7483433" lon="7.8205533"><ele>302.0</ele><time>2026-04-11T06:55:40.063Z</time></trkpt><trkpt lat="44.7484183" lon="7.820585"><ele>302.0</ele><time>2026-04-11T06:55:42.06Z</time></trkpt><trkpt lat="44.7484767" lon="7.8206217"><ele>302.0</ele><time>2026-04-11T06:55:44.06Z</time></trkpt><trkpt lat="44.7485417" lon="7.8206583"><ele>302.00000000000006</ele><time>2026-04-11T06:55:46.06Z</time></trkpt><trkpt lat="44.7486067" lon="7.8206883"><ele>302.0</ele><time>2026-04-11T06:55:48.062Z</time></trkpt><trkpt lat="44.7486883" lon="7.8207367"><ele>303.83333333333337</ele><time>2026-04-11T06:55:51.062Z</time></trkpt><trkpt lat="44.7487533" lon="7.8207817"><ele>305.6666666666667</ele><time>2026-04-11T06:55:54.06Z</time></trkpt><trkpt lat="44.7488167" lon="7.8208283"><ele>307.5</ele><time>2026-04-11T06:55:57.06Z</time></trkpt><trkpt lat="44.7488917" lon="7.82086"><ele>309.3333333333333</ele><time>2026-04-11T06:56:01.061Z</time></trkpt><trkpt lat="44.7489533" lon="7.8208167"><ele>311.16666666666663</ele><time>2026-04-11T06:56:04.06Z</time></trkpt><trkpt lat="44.7490233" lon="7.8208733"><ele>313.0</ele><time>2026-04-11T06:56:07.062Z</time></trkpt><trkpt lat="44.7490633" lon="7.8209683"><ele>314.2857142857143</ele><time>2026-04-11T06:56:09.059Z</time></trkpt><trkpt lat="44.74912" lon="7.82102"><ele>315.57142857142856</ele><time>2026-04-11T06:56:11.062Z</time></trkpt><trkpt lat="44.7491783" lon="7.82107"><ele>316.8571428571429</ele><time>2026-04-11T06:56:13.06Z</time></trkpt><trkpt lat="44.74924" lon="7.8211167"><ele>318.1428571428571</ele><time>2026-04-11T06:56:15.061Z</time></trkpt><trkpt lat="44.7493" lon="7.821155"><ele>319.42857142857144</ele><time>2026-04-11T06:56:17.06Z</time></trkpt><trkpt lat="44.7493583" lon="7.82119"><ele>320.7142857142857</ele><time>2026-04-11T06:56:19.06Z</time></trkpt><trkpt lat="44.7494417" lon="7.8212383"><ele>322.0</ele><time>2026-04-11T06:56:22.06Z</time></trkpt><trkpt lat="44.7495233" lon="7.8212867"><ele>322.66666666666663</ele><time>2026-04-11T06:56:25.062Z</time></trkpt><trkpt lat="44.7496" lon="7.8213117"><ele>323.3333333333333</ele><time>2026-04-11T06:56:28.062Z</time></trkpt><trkpt lat="44.7496817" lon="7.8213517"><ele>324.0</ele><time>2026-04-11T06:56:31.06Z</time></trkpt><trkpt lat="44.7497567" lon="7.8213567"><ele>324.6666666666667</ele><time>2026-04-11T06:56:35.062Z</time></trkpt><trkpt lat="44.7498333" lon="7.82141"><ele>325.33333333333337</ele><time>2026-04-11T06:56:38.06Z</time></trkpt><trkpt lat="44.749895" lon="7.8214567"><ele>326.0</ele><time>2026-04-11T06:56:40.059Z</time></trkpt><trkpt lat="44.749975" lon="7.8214983"><ele>326.0</ele><time>2026-04-11T06:56:43.059Z</time></trkpt><trkpt lat="44.7500433" lon="7.8215417"><ele>326.0</ele><time>2026-04-11T06:56:46.062Z</time></trkpt><trkpt lat="44.7501033" lon="7.8215833"><ele>326.0</ele><time>2026-04-11T06:56:49.061Z</time></trkpt><trkpt lat="44.7501583" lon="7.8216333"><ele>326.0</ele><time>2026-04-11T06:56:52.056Z</time></trkpt><trkpt lat="44.7502117" lon="7.8216883"><ele>326.0</ele><time>2026-04-11T06:56:55.059Z</time></trkpt><trkpt lat="44.7502767" lon="7.8217667"><ele>326.0</ele><time>2026-04-11T06:56:58.06Z</time></trkpt><trkpt lat="44.7503233" lon="7.821845"><ele>326.0</ele><time>2026-04-11T06:57:01.059Z</time></trkpt><trkpt lat="44.75038" lon="7.8219383"><ele>326.8571428571429</ele><time>2026-04-11T06:57:05.06Z</time></trkpt><trkpt lat="44.7503967" lon="7.8220317"><ele>327.71428571428567</ele><time>2026-04-11T06:57:08.061Z</time></trkpt><trkpt lat="44.750365" lon="7.82214"><ele>328.57142857142856</ele><time>2026-04-11T06:57:11.059Z</time></trkpt><trkpt lat="44.7503067" lon="7.82219"><ele>329.42857142857144</ele><time>2026-04-11T06:57:13.057Z</time></trkpt><trkpt lat="44.7502533" lon="7.8222483"><ele>330.28571428571433</ele><time>2026-04-11T06:57:15.061Z</time></trkpt><trkpt lat="44.7502017" lon="7.822315"><ele>331.1428571428571</ele><time>2026-04-11T06:57:17.054Z</time></trkpt><trkpt lat="44.750165" lon="7.82239"><ele>332.0</ele><time>2026-04-11T06:57:19.056Z</time></trkpt><trkpt lat="44.7501567" lon="7.8225117"><ele>332.0</ele><time>2026-04-11T06:57:22.057Z</time></trkpt><trkpt lat="44.7501867" lon="7.8225967"><ele>332.0</ele><time>2026-04-11T06:57:24.055Z</time></trkpt><trkpt lat="44.7502467" lon="7.8226717"><ele>332.0</ele><time>2026-04-11T06:57:27.055Z</time></trkpt><trkpt lat="44.7502583" lon="7.8227667"><ele>332.0</ele><time>2026-04-11T06:57:31.056Z</time></trkpt><trkpt lat="44.7502267" lon="7.8228533"><ele>332.0</ele><time>2026-04-11T06:57:34.058Z</time></trkpt><trkpt lat="44.7501733" lon="7.822915"><ele>332.0</ele><time>2026-04-11T06:57:37.057Z</time></trkpt><trkpt lat="44.7501333" lon="7.822985"><ele>332.0</ele><time>2026-04-11T06:57:41.056Z</time></trkpt><trkpt lat="44.750085" lon="7.8230617"><ele>332.1428571428571</ele><time>2026-04-11T06:57:46.058Z</time></trkpt><trkpt lat="44.7500817" lon="7.8231667"><ele>332.28571428571433</ele><time>2026-04-11T06:57:50.054Z</time></trkpt><trkpt lat="44.750105" lon="7.8232667"><ele>332.42857142857144</ele><time>2026-04-11T06:57:54.057Z</time></trkpt><trkpt lat="44.75014" lon="7.8233517"><ele>332.57142857142856</ele><time>2026-04-11T06:57:58.055Z</time></trkpt><trkpt lat="44.7501983" lon="7.8234183"><ele>332.71428571428567</ele><time>2026-04-11T06:58:03.057Z</time></trkpt><trkpt lat="44.7502617" lon="7.8234517"><ele>332.8571428571429</ele><time>2026-04-11T06:58:08.056Z</time></trkpt><trkpt lat="44.750335" lon="7.8235"><ele>333.0</ele><time>2026-04-11T06:58:12.055Z</time></trkpt><trkpt lat="44.7504" lon="7.8235183"><ele>333.7142857142857</ele><time>2026-04-11T06:58:15.056Z</time></trkpt><trkpt lat="44.750475" lon="7.82352"><ele>334.4285714285714</ele><time>2026-04-11T06:58:20.058Z</time></trkpt><trkpt lat="44.75054" lon="7.82351"><ele>335.1428571428571</ele><time>2026-04-11T06:58:24.057Z</time></trkpt><trkpt lat="44.7506117" lon="7.8235033"><ele>335.8571428571429</ele><time>2026-04-11T06:58:28.056Z</time></trkpt><trkpt lat="44.75069" lon="7.8234867"><ele>336.57142857142856</ele><time>2026-04-11T06:58:32.056Z</time></trkpt><trkpt lat="44.7507567" lon="7.8234933"><ele>337.2857142857143</ele><time>2026-04-11T06:58:36.057Z</time></trkpt><trkpt lat="44.75082" lon="7.8234833"><ele>338.0</ele><time>2026-04-11T06:58:39.059Z</time></trkpt><trkpt lat="44.7509067" lon="7.8234233"><ele>338.0</ele><time>2026-04-11T06:58:42.057Z</time></trkpt><trkpt lat="44.7509717" lon="7.8233733"><ele>338.0</ele><time>2026-04-11T06:58:44.056Z</time></trkpt><trkpt lat="44.751035" lon="7.8233233"><ele>338.0</ele><time>2026-04-11T06:58:46.057Z</time></trkpt><trkpt lat="44.751095" lon="7.8232817"><ele>338.0</ele><time>2026-04-11T06:58:48.056Z</time></trkpt><trkpt lat="44.7511817" lon="7.8232633"><ele>338.0</ele><time>2026-04-11T06:58:51.057Z</time></trkpt><trkpt lat="44.7512183" lon="7.823375"><ele>338.0</ele><time>2026-04-11T06:58:55.055Z</time></trkpt><trkpt lat="44.7511683" lon="7.8234567"><ele>338.59999999999997</ele><time>2026-04-11T06:58:57.058Z</time></trkpt><trkpt lat="44.75111" lon="7.82355"><ele>339.2</ele><time>2026-04-11T06:58:59.057Z</time></trkpt><trkpt lat="44.75106" lon="7.8236483"><ele>339.8</ele><time>2026-04-11T06:59:01.056Z</time></trkpt><trkpt lat="44.7510217" lon="7.8237417"><ele>340.4</ele><time>2026-04-11T06:59:03.056Z</time></trkpt><trkpt lat="44.7509633" lon="7.8238717"><ele>341.0</ele><time>2026-04-11T06:59:20.055Z</time></trkpt><trkpt lat="44.7509067" lon="7.8239833"><ele>341.0</ele><time>2026-04-11T06:59:23.058Z</time></trkpt><trkpt lat="44.7508533" lon="7.8240817"><ele>341.0</ele><time>2026-04-11T06:59:25.061Z</time></trkpt><trkpt lat="44.7507883" lon="7.8241867"><ele>341.0</ele><time>2026-04-11T06:59:27.06Z</time></trkpt><trkpt lat="44.7507267" lon="7.8243067"><ele>341.0</ele><time>2026-04-11T06:59:29.058Z</time></trkpt><trkpt lat="44.7506683" lon="7.8244367"><ele>341.0</ele><time>2026-04-11T06:59:31.06Z</time></trkpt><trkpt lat="44.7506083" lon="7.8245633"><ele>340.75</ele><time>2026-04-11T06:59:33.059Z</time></trkpt><trkpt lat="44.750545" lon="7.8246933"><ele>340.5</ele><time>2026-04-11T06:59:35.059Z</time></trkpt><trkpt lat="44.7504733" lon="7.8248267"><ele>340.25</ele><time>2026-04-11T06:59:37.061Z</time></trkpt><trkpt lat="44.7504017" lon="7.82496"><ele>340.0</ele><time>2026-04-11T06:59:39.062Z</time></trkpt><trkpt lat="44.7503317" lon="7.8250967"><ele>340.0</ele><time>2026-04-11T06:59:41.058Z</time></trkpt><trkpt lat="44.7502617" lon="7.82523"><ele>340.0</ele><time>2026-04-11T06:59:43.06Z</time></trkpt><trkpt lat="44.75019" lon="7.8253583"><ele>340.0</ele><time>2026-04-11T06:59:45.06Z</time></trkpt><trkpt lat="44.7501167" lon="7.8254967"><ele>340.0</ele><time>2026-04-11T06:59:47.059Z</time></trkpt><trkpt lat="44.750045" lon="7.8256367"><ele>340.0</ele><time>2026-04-11T06:59:49.06Z</time></trkpt><trkpt lat="44.7499717" lon="7.8257783"><ele>340.0</ele><time>2026-04-11T06:59:51.061Z</time></trkpt><trkpt lat="44.7499333" lon="7.82585"><ele>340.0</ele><time>2026-04-11T06:59:52.061Z</time></trkpt><trkpt lat="44.7498617" lon="7.8259917"><ele>340.0</ele><time>2026-04-11T06:59:54.06Z</time></trkpt><trkpt lat="44.7497933" lon="7.8261333"><ele>340.0</ele><time>2026-04-11T06:59:56.061Z</time></trkpt><trkpt lat="44.7497217" lon="7.8262767"><ele>340.0</ele><time>2026-04-11T06:59:58.062Z</time></trkpt><trkpt lat="44.7496483" lon="7.8264117"><ele>340.0</ele><time>2026-04-11T07:00:00.063Z</time></trkpt><trkpt lat="44.74957" lon="7.826545"><ele>340.0</ele><time>2026-04-11T07:00:02.056Z</time></trkpt><trkpt lat="44.7494917" lon="7.8266833"><ele>340.0</ele><time>2026-04-11T07:00:04.063Z</time></trkpt><trkpt lat="44.7494117" lon="7.82682"><ele>342.0</ele><time>2026-04-11T07:00:06.062Z</time></trkpt><trkpt lat="44.7493317" lon="7.8269483"><ele>344.0</ele><time>2026-04-11T07:00:08.06Z</time></trkpt><trkpt lat="44.7492533" lon="7.82707"><ele>346.0</ele><time>2026-04-11T07:00:10.061Z</time></trkpt><trkpt lat="44.7491817" lon="7.8271917"><ele>348.0</ele><time>2026-04-11T07:00:12.061Z</time></trkpt><trkpt lat="44.7491133" lon="7.8272983"><ele>348.0</ele><time>2026-04-11T07:00:14.059Z</time></trkpt><trkpt lat="44.7490417" lon="7.8274083"><ele>348.0</ele><time>2026-04-11T07:00:16.061Z</time></trkpt><trkpt lat="44.7489783" lon="7.827515"><ele>348.0</ele><time>2026-04-11T07:00:18.061Z</time></trkpt><trkpt lat="44.7489133" lon="7.8276283"><ele>348.0</ele><time>2026-04-11T07:00:20.061Z</time></trkpt><trkpt lat="44.7488333" lon="7.8277417"><ele>348.0</ele><time>2026-04-11T07:00:22.059Z</time></trkpt><trkpt lat="44.7487383" lon="7.8278517"><ele>347.7142857142857</ele><time>2026-04-11T07:00:24.06Z</time></trkpt><trkpt lat="44.7486883" lon="7.82791"><ele>347.42857142857144</ele><time>2026-04-11T07:00:25.059Z</time></trkpt><trkpt lat="44.748635" lon="7.82797"><ele>347.1428571428571</ele><time>2026-04-11T07:00:26.062Z</time></trkpt><trkpt lat="44.74858" lon="7.8280333"><ele>346.8571428571429</ele><time>2026-04-11T07:00:27.06Z</time></trkpt><trkpt lat="44.748525" lon="7.8280917"><ele>346.5714285714286</ele><time>2026-04-11T07:00:28.061Z</time></trkpt><trkpt lat="44.7484717" lon="7.8281567"><ele>346.2857142857143</ele><time>2026-04-11T07:00:29.059Z</time></trkpt><trkpt lat="44.748425" lon="7.8282267"><ele>346.0</ele><time>2026-04-11T07:00:30.059Z</time></trkpt><trkpt lat="44.7483817" lon="7.8283033"><ele>345.85714285714283</ele><time>2026-04-11T07:00:31.06Z</time></trkpt><trkpt lat="44.7483417" lon="7.8283767"><ele>345.7142857142857</ele><time>2026-04-11T07:00:32.062Z</time></trkpt><trkpt lat="44.748305" lon="7.828455"><ele>345.57142857142856</ele><time>2026-04-11T07:00:33.06Z</time></trkpt><trkpt lat="44.7482733" lon="7.828535"><ele>345.42857142857144</ele><time>2026-04-11T07:00:34.06Z</time></trkpt><trkpt lat="44.7482417" lon="7.8286233"><ele>345.2857142857143</ele><time>2026-04-11T07:00:35.061Z</time></trkpt><trkpt lat="44.74821" lon="7.8287133"><ele>345.14285714285717</ele><time>2026-04-11T07:00:36.065Z</time></trkpt><trkpt lat="44.7481733" lon="7.828805"><ele>345.0</ele><time>2026-04-11T07:00:37.06Z</time></trkpt><trkpt lat="44.7481367" lon="7.828895"><ele>345.2857142857143</ele><time>2026-04-11T07:00:38.061Z</time></trkpt><trkpt lat="44.7481033" lon="7.8289883"><ele>345.57142857142856</ele><time>2026-04-11T07:00:39.062Z</time></trkpt><trkpt lat="44.7480717" lon="7.8290833"><ele>345.8571428571429</ele><time>2026-04-11T07:00:40.06Z</time></trkpt><trkpt lat="44.7480433" lon="7.8291767"><ele>346.1428571428571</ele><time>2026-04-11T07:00:41.06Z</time></trkpt><trkpt lat="44.7480167" lon="7.82927"><ele>346.4285714285714</ele><time>2026-04-11T07:00:42.061Z</time></trkpt><trkpt lat="44.7479917" lon="7.829365"><ele>346.7142857142857</ele><time>2026-04-11T07:00:43.06Z</time></trkpt><trkpt lat="44.7479667" lon="7.8294583"><ele>347.0</ele><time>2026-04-11T07:00:44.061Z</time></trkpt><trkpt lat="44.7479467" lon="7.829555"><ele>347.42857142857144</ele><time>2026-04-11T07:00:45.061Z</time></trkpt><trkpt lat="44.74793" lon="7.82965"><ele>347.85714285714283</ele><time>2026-04-11T07:00:46.061Z</time></trkpt><trkpt lat="44.74792" lon="7.8297467"><ele>348.2857142857143</ele><time>2026-04-11T07:00:47.059Z</time></trkpt><trkpt lat="44.7479183" lon="7.8298383"><ele>348.7142857142857</ele><time>2026-04-11T07:00:48.058Z</time></trkpt><trkpt lat="44.7479267" lon="7.8299317"><ele>349.1428571428571</ele><time>2026-04-11T07:00:49.062Z</time></trkpt><trkpt lat="44.7479517" lon="7.8300217"><ele>349.57142857142856</ele><time>2026-04-11T07:00:50.06Z</time></trkpt><trkpt lat="44.74799" lon="7.8301017"><ele>350.0</ele><time>2026-04-11T07:00:51.061Z</time></trkpt><trkpt lat="44.74803" lon="7.8301783"><ele>350.0</ele><time>2026-04-11T07:00:52.061Z</time></trkpt><trkpt lat="44.748065" lon="7.83026"><ele>350.0</ele><time>2026-04-11T07:00:53.059Z</time></trkpt><trkpt lat="44.7480883" lon="7.8303483"><ele>350.0</ele><time>2026-04-11T07:00:54.061Z</time></trkpt><trkpt lat="44.7480983" lon="7.8304433"><ele>350.0</ele><time>2026-04-11T07:00:55.059Z</time></trkpt><trkpt lat="44.7481017" lon="7.83054"><ele>350.0</ele><time>2026-04-11T07:00:56.06Z</time></trkpt><trkpt lat="44.7481" lon="7.8306317"><ele>350.0</ele><time>2026-04-11T07:00:57.061Z</time></trkpt><trkpt lat="44.7480983" lon="7.83073"><ele>350.0</ele><time>2026-04-11T07:00:58.06Z</time></trkpt><trkpt lat="44.7481" lon="7.8308233"><ele>350.0</ele><time>2026-04-11T07:00:59.061Z</time></trkpt><trkpt lat="44.74811" lon="7.830915"><ele>350.0</ele><time>2026-04-11T07:01:00.061Z</time></trkpt><trkpt lat="44.748125" lon="7.8310017"><ele>350.0</ele><time>2026-04-11T07:01:01.06Z</time></trkpt><trkpt lat="44.7481683" lon="7.8311633"><ele>350.0</ele><time>2026-04-11T07:01:03.059Z</time></trkpt><trkpt lat="44.748205" lon="7.8313233"><ele>350.0</ele><time>2026-04-11T07:01:05.058Z</time></trkpt><trkpt lat="44.7482167" lon="7.8314883"><ele>350.25</ele><time>2026-04-11T07:01:07.062Z</time></trkpt><trkpt lat="44.7482183" lon="7.8316517"><ele>350.5</ele><time>2026-04-11T07:01:09.062Z</time></trkpt><trkpt lat="44.7482017" lon="7.8318183"><ele>350.75</ele><time>2026-04-11T07:01:11.061Z</time></trkpt><trkpt lat="44.748165" lon="7.8319667"><ele>351.0</ele><time>2026-04-11T07:01:13.06Z</time></trkpt><trkpt lat="44.7481183" lon="7.8321167"><ele>351.75</ele><time>2026-04-11T07:01:15.061Z</time></trkpt><trkpt lat="44.74809" lon="7.8322717"><ele>352.5</ele><time>2026-04-11T07:01:17.058Z</time></trkpt><trkpt lat="44.7480867" lon="7.832435"><ele>353.25</ele><time>2026-04-11T07:01:19.061Z</time></trkpt><trkpt lat="44.74809" lon="7.8325917"><ele>354.0</ele><time>2026-04-11T07:01:21.06Z</time></trkpt><trkpt lat="44.748105" lon="7.8327533"><ele>354.0</ele><time>2026-04-11T07:01:23.06Z</time></trkpt><trkpt lat="44.74811" lon="7.8328417"><ele>354.0</ele><time>2026-04-11T07:01:24.061Z</time></trkpt><trkpt lat="44.7481117" lon="7.8329333"><ele>354.0</ele><time>2026-04-11T07:01:25.061Z</time></trkpt><trkpt lat="44.7481067" lon="7.833025"><ele>354.0</ele><time>2026-04-11T07:01:26.06Z</time></trkpt><trkpt lat="44.7480983" lon="7.8331167"><ele>354.0</ele><time>2026-04-11T07:01:27.061Z</time></trkpt><trkpt lat="44.74808" lon="7.8332017"><ele>354.0</ele><time>2026-04-11T07:01:28.061Z</time></trkpt><trkpt lat="44.7480617" lon="7.8332867"><ele>354.0</ele><time>2026-04-11T07:01:29.061Z</time></trkpt><trkpt lat="44.7480417" lon="7.833375"><ele>354.0</ele><time>2026-04-11T07:01:30.063Z</time></trkpt><trkpt lat="44.7480217" lon="7.8334633"><ele>354.0</ele><time>2026-04-11T07:01:31.06Z</time></trkpt><trkpt lat="44.748" lon="7.8335483"><ele>354.0</ele><time>2026-04-11T07:01:32.062Z</time></trkpt><trkpt lat="44.7479783" lon="7.8336367"><ele>354.0</ele><time>2026-04-11T07:01:33.062Z</time></trkpt><trkpt lat="44.7479567" lon="7.8337233"><ele>354.0</ele><time>2026-04-11T07:01:34.063Z</time></trkpt><trkpt lat="44.7479383" lon="7.8338117"><ele>354.0</ele><time>2026-04-11T07:01:35.059Z</time></trkpt><trkpt lat="44.7479233" lon="7.8338983"><ele>354.0</ele><time>2026-04-11T07:01:36.063Z</time></trkpt><trkpt lat="44.7478983" lon="7.8340683"><ele>353.8333333333333</ele><time>2026-04-11T07:01:38.056Z</time></trkpt><trkpt lat="44.7478767" lon="7.834245"><ele>353.6666666666667</ele><time>2026-04-11T07:01:40.061Z</time></trkpt><trkpt lat="44.747865" lon="7.8343333"><ele>353.5</ele><time>2026-04-11T07:01:41.06Z</time></trkpt><trkpt lat="44.7478467" lon="7.8344183"><ele>353.33333333333337</ele><time>2026-04-11T07:01:42.061Z</time></trkpt><trkpt lat="44.74782" lon="7.8345"><ele>353.1666666666667</ele><time>2026-04-11T07:01:43.061Z</time></trkpt><trkpt lat="44.7477883" lon="7.8345767"><ele>353.0</ele><time>2026-04-11T07:01:44.06Z</time></trkpt><trkpt lat="44.74772" lon="7.834725"><ele>354.5</ele><time>2026-04-11T07:01:46.061Z</time></trkpt><trkpt lat="44.7476633" lon="7.83488"><ele>356.0</ele><time>2026-04-11T07:01:48.061Z</time></trkpt><trkpt lat="44.74762" lon="7.8350317"><ele>357.5</ele><time>2026-04-11T07:01:50.06Z</time></trkpt><trkpt lat="44.7475767" lon="7.8351867"><ele>359.0</ele><time>2026-04-11T07:01:52.063Z</time></trkpt><trkpt lat="44.74752" lon="7.8353217"><ele>359.4</ele><time>2026-04-11T07:01:54.06Z</time></trkpt><trkpt lat="44.747445" lon="7.8354217"><ele>359.79999999999995</ele><time>2026-04-11T07:01:56.061Z</time></trkpt><trkpt lat="44.747355" lon="7.8355"><ele>360.20000000000005</ele><time>2026-04-11T07:01:58.06Z</time></trkpt><trkpt lat="44.747255" lon="7.8355667"><ele>360.6</ele><time>2026-04-11T07:02:00.062Z</time></trkpt><trkpt lat="44.747145" lon="7.8356267"><ele>361.0</ele><time>2026-04-11T07:02:02.06Z</time></trkpt><trkpt lat="44.7470333" lon="7.8356767"><ele>361.0</ele><time>2026-04-11T07:02:04.059Z</time></trkpt><trkpt lat="44.7469733" lon="7.8357067"><ele>361.0</ele><time>2026-04-11T07:02:05.061Z</time></trkpt><trkpt lat="44.7468583" lon="7.835765"><ele>361.0</ele><time>2026-04-11T07:02:07.06Z</time></trkpt><trkpt lat="44.7467467" lon="7.8358283"><ele>361.0</ele><time>2026-04-11T07:02:09.061Z</time></trkpt><trkpt lat="44.74664" lon="7.8358917"><ele>361.0</ele><time>2026-04-11T07:02:11.059Z</time></trkpt><trkpt lat="44.7465433" lon="7.8359633"><ele>361.6</ele><time>2026-04-11T07:02:13.062Z</time></trkpt><trkpt lat="44.74645" lon="7.8360383"><ele>362.20000000000005</ele><time>2026-04-11T07:02:15.058Z</time></trkpt><trkpt lat="44.7463567" lon="7.8361117"><ele>362.79999999999995</ele><time>2026-04-11T07:02:17.06Z</time></trkpt><trkpt lat="44.7462583" lon="7.8361867"><ele>363.4</ele><time>2026-04-11T07:02:19.059Z</time></trkpt><trkpt lat="44.746175" lon="7.8362883"><ele>364.0</ele><time>2026-04-11T07:02:21.059Z</time></trkpt><trkpt lat="44.7461233" lon="7.83642"><ele>364.0</ele><time>2026-04-11T07:02:23.059Z</time></trkpt><trkpt lat="44.7460817" lon="7.8365617"><ele>364.0</ele><time>2026-04-11T07:02:25.061Z</time></trkpt><trkpt lat="44.7460317" lon="7.8366883"><ele>364.0</ele><time>2026-04-11T07:02:27.061Z</time></trkpt><trkpt lat="44.7459767" lon="7.836805"><ele>364.0</ele><time>2026-04-11T07:02:29.059Z</time></trkpt><trkpt lat="44.745925" lon="7.83693"><ele>364.0</ele><time>2026-04-11T07:02:31.061Z</time></trkpt><trkpt lat="44.745885" lon="7.8370633"><ele>364.2</ele><time>2026-04-11T07:02:33.062Z</time></trkpt><trkpt lat="44.7458617" lon="7.8371983"><ele>364.4</ele><time>2026-04-11T07:02:35.061Z</time></trkpt><trkpt lat="44.7458483" lon="7.8373333"><ele>364.6</ele><time>2026-04-11T07:02:37.062Z</time></trkpt><trkpt lat="44.7458267" lon="7.837465"><ele>364.8</ele><time>2026-04-11T07:02:39.062Z</time></trkpt><trkpt lat="44.74579" lon="7.837575"><ele>365.0</ele><time>2026-04-11T07:02:41.059Z</time></trkpt><trkpt lat="44.745735" lon="7.8376667"><ele>364.4</ele><time>2026-04-11T07:02:43.062Z</time></trkpt><trkpt lat="44.7456633" lon="7.8377267"><ele>363.8</ele><time>2026-04-11T07:02:45.06Z</time></trkpt><trkpt lat="44.74558" lon="7.8377833"><ele>363.20000000000005</ele><time>2026-04-11T07:02:47.06Z</time></trkpt><trkpt lat="44.7454883" lon="7.8378367"><ele>362.6</ele><time>2026-04-11T07:02:49.059Z</time></trkpt><trkpt lat="44.7453967" lon="7.837875"><ele>362.0</ele><time>2026-04-11T07:02:51.059Z</time></trkpt><trkpt lat="44.7453067" lon="7.8379317"><ele>362.0</ele><time>2026-04-11T07:02:53.059Z</time></trkpt><trkpt lat="44.745215" lon="7.8379917"><ele>362.0</ele><time>2026-04-11T07:02:55.06Z</time></trkpt><trkpt lat="44.7451183" lon="7.8380533"><ele>362.0</ele><time>2026-04-11T07:02:57.059Z</time></trkpt><trkpt lat="44.7450217" lon="7.8381117"><ele>362.0</ele><time>2026-04-11T07:02:59.059Z</time></trkpt><trkpt lat="44.7449283" lon="7.83818"><ele>362.0</ele><time>2026-04-11T07:03:01.06Z</time></trkpt><trkpt lat="44.74483" lon="7.838245"><ele>362.6</ele><time>2026-04-11T07:03:03.061Z</time></trkpt><trkpt lat="44.7447317" lon="7.838305"><ele>363.20000000000005</ele><time>2026-04-11T07:03:05.059Z</time></trkpt><trkpt lat="44.7446333" lon="7.8383683"><ele>363.8</ele><time>2026-04-11T07:03:07.059Z</time></trkpt><trkpt lat="44.7445367" lon="7.8384283"><ele>364.4</ele><time>2026-04-11T07:03:09.061Z</time></trkpt><trkpt lat="44.744435" lon="7.8384883"><ele>365.0</ele><time>2026-04-11T07:03:11.059Z</time></trkpt><trkpt lat="44.74434" lon="7.8385467"><ele>365.4</ele><time>2026-04-11T07:03:13.059Z</time></trkpt><trkpt lat="44.7442533" lon="7.8386017"><ele>365.8</ele><time>2026-04-11T07:03:15.059Z</time></trkpt><trkpt lat="44.7441783" lon="7.838645"><ele>366.20000000000005</ele><time>2026-04-11T07:03:17.059Z</time></trkpt><trkpt lat="44.7440833" lon="7.838675"><ele>366.6</ele><time>2026-04-11T07:03:19.062Z</time></trkpt><trkpt lat="44.7439867" lon="7.838705"><ele>367.0</ele><time>2026-04-11T07:03:21.062Z</time></trkpt><trkpt lat="44.7438933" lon="7.83876"><ele>367.0</ele><time>2026-04-11T07:03:23.06Z</time></trkpt><trkpt lat="44.743795" lon="7.8388283"><ele>367.0</ele><time>2026-04-11T07:03:25.061Z</time></trkpt><trkpt lat="44.7436983" lon="7.838895"><ele>367.0</ele><time>2026-04-11T07:03:27.06Z</time></trkpt><trkpt lat="44.743595" lon="7.83895"><ele>367.0</ele><time>2026-04-11T07:03:29.059Z</time></trkpt><trkpt lat="44.7434933" lon="7.8389867"><ele>367.0</ele><time>2026-04-11T07:03:31.059Z</time></trkpt><trkpt lat="44.743395" lon="7.8390133"><ele>367.8</ele><time>2026-04-11T07:03:33.063Z</time></trkpt><trkpt lat="44.743295" lon="7.8390267"><ele>368.6</ele><time>2026-04-11T07:03:35.06Z</time></trkpt><trkpt lat="44.743195" lon="7.839045"><ele>369.40000000000003</ele><time>2026-04-11T07:03:37.061Z</time></trkpt><trkpt lat="44.7430983" lon="7.83908"><ele>370.20000000000005</ele><time>2026-04-11T07:03:39.06Z</time></trkpt><trkpt lat="44.7430067" lon="7.8391283"><ele>371.0</ele><time>2026-04-11T07:03:41.059Z</time></trkpt><trkpt lat="44.7429267" lon="7.83919"><ele>371.0</ele><time>2026-04-11T07:03:43.06Z</time></trkpt><trkpt lat="44.74285" lon="7.83927"><ele>371.0</ele><time>2026-04-11T07:03:45.062Z</time></trkpt><trkpt lat="44.7427817" lon="7.8393633"><ele>371.0</ele><time>2026-04-11T07:03:47.059Z</time></trkpt><trkpt lat="44.742715" lon="7.83947"><ele>371.0</ele><time>2026-04-11T07:03:49.061Z</time></trkpt><trkpt lat="44.7426433" lon="7.8395617"><ele>371.0</ele><time>2026-04-11T07:03:51.06Z</time></trkpt><trkpt lat="44.7425583" lon="7.8396367"><ele>371.20000000000005</ele><time>2026-04-11T07:03:53.06Z</time></trkpt><trkpt lat="44.742475" lon="7.8397133"><ele>371.40000000000003</ele><time>2026-04-11T07:03:55.061Z</time></trkpt><trkpt lat="44.74239" lon="7.8397717"><ele>371.6</ele><time>2026-04-11T07:03:57.064Z</time></trkpt><trkpt lat="44.742305" lon="7.839785"><ele>371.8</ele><time>2026-04-11T07:03:59.061Z</time></trkpt><trkpt lat="44.7422133" lon="7.83978"><ele>372.0</ele><time>2026-04-11T07:04:01.063Z</time></trkpt><trkpt lat="44.7421233" lon="7.8397933"><ele>372.0</ele><time>2026-04-11T07:04:03.06Z</time></trkpt><trkpt lat="44.742035" lon="7.83984"><ele>372.0</ele><time>2026-04-11T07:04:05.06Z</time></trkpt><trkpt lat="44.741955" lon="7.839915"><ele>372.0</ele><time>2026-04-11T07:04:07.061Z</time></trkpt><trkpt lat="44.7418833" lon="7.8400117"><ele>372.0</ele><time>2026-04-11T07:04:09.06Z</time></trkpt><trkpt lat="44.7418133" lon="7.8401217"><ele>372.0</ele><time>2026-04-11T07:04:11.06Z</time></trkpt><trkpt lat="44.74174" lon="7.840225"><ele>372.6</ele><time>2026-04-11T07:04:13.06Z</time></trkpt><trkpt lat="44.7416633" lon="7.84032"><ele>373.20000000000005</ele><time>2026-04-11T07:04:15.061Z</time></trkpt><trkpt lat="44.74159" lon="7.8404083"><ele>373.8</ele><time>2026-04-11T07:04:17.059Z</time></trkpt><trkpt lat="44.741535" lon="7.8405"><ele>374.4</ele><time>2026-04-11T07:04:19.06Z</time></trkpt><trkpt lat="44.7415183" lon="7.84061"><ele>375.0</ele><time>2026-04-11T07:04:21.06Z</time></trkpt><trkpt lat="44.7415167" lon="7.8407333"><ele>375.0</ele><time>2026-04-11T07:04:23.059Z</time></trkpt><trkpt lat="44.741525" lon="7.840855"><ele>375.0</ele><time>2026-04-11T07:04:25.061Z</time></trkpt><trkpt lat="44.7415433" lon="7.8409817"><ele>375.0</ele><time>2026-04-11T07:04:27.062Z</time></trkpt><trkpt lat="44.7415767" lon="7.841105"><ele>375.0</ele><time>2026-04-11T07:04:29.061Z</time></trkpt><trkpt lat="44.7415967" lon="7.8412283"><ele>375.0</ele><time>2026-04-11T07:04:31.062Z</time></trkpt><trkpt lat="44.741595" lon="7.8413483"><ele>375.0</ele><time>2026-04-11T07:04:33.061Z</time></trkpt><trkpt lat="44.7415367" lon="7.841485"><ele>375.0</ele><time>2026-04-11T07:04:35.06Z</time></trkpt><trkpt lat="44.7414917" lon="7.841615"><ele>375.0</ele><time>2026-04-11T07:04:37.061Z</time></trkpt><trkpt lat="44.7414383" lon="7.841735"><ele>375.0</ele><time>2026-04-11T07:04:39.061Z</time></trkpt><trkpt lat="44.7413583" lon="7.8418333"><ele>375.0</ele><time>2026-04-11T07:04:41.06Z</time></trkpt><trkpt lat="44.7412683" lon="7.8418917"><ele>375.0</ele><time>2026-04-11T07:04:43.062Z</time></trkpt><trkpt lat="44.7411767" lon="7.84194"><ele>375.0</ele><time>2026-04-11T07:04:45.059Z</time></trkpt><trkpt lat="44.7411033" lon="7.8419917"><ele>375.0</ele><time>2026-04-11T07:04:47.059Z</time></trkpt><trkpt lat="44.74105" lon="7.8420833"><ele>375.0</ele><time>2026-04-11T07:04:49.059Z</time></trkpt><trkpt lat="44.7410433" lon="7.8422017"><ele>375.0</ele><time>2026-04-11T07:04:51.061Z</time></trkpt><trkpt lat="44.7410817" lon="7.8423283"><ele>375.0</ele><time>2026-04-11T07:04:53.059Z</time></trkpt><trkpt lat="44.7411267" lon="7.8424567"><ele>375.0</ele><time>2026-04-11T07:04:55.06Z</time></trkpt><trkpt lat="44.7411683" lon="7.842575"><ele>375.0</ele><time>2026-04-11T07:04:57.06Z</time></trkpt><trkpt lat="44.7412133" lon="7.84269"><ele>375.0</ele><time>2026-04-11T07:04:59.061Z</time></trkpt><trkpt lat="44.7412533" lon="7.84281"><ele>375.0</ele><time>2026-04-11T07:05:01.062Z</time></trkpt><trkpt lat="44.74127" lon="7.842915"><ele>375.0</ele><time>2026-04-11T07:05:03.06Z</time></trkpt><trkpt lat="44.7412717" lon="7.8430083"><ele>375.0</ele><time>2026-04-11T07:05:05.06Z</time></trkpt><trkpt lat="44.7412283" lon="7.843125"><ele>375.3333333333333</ele><time>2026-04-11T07:05:08.06Z</time></trkpt><trkpt lat="44.74117" lon="7.843175"><ele>375.6666666666667</ele><time>2026-04-11T07:05:10.056Z</time></trkpt><trkpt lat="44.741105" lon="7.8432117"><ele>376.0</ele><time>2026-04-11T07:05:12.061Z</time></trkpt><trkpt lat="44.7410367" lon="7.843245"><ele>376.33333333333337</ele><time>2026-04-11T07:05:14.059Z</time></trkpt><trkpt lat="44.740965" lon="7.8433183"><ele>376.6666666666667</ele><time>2026-04-11T07:05:17.06Z</time></trkpt><trkpt lat="44.7408817" lon="7.8433917"><ele>377.0</ele><time>2026-04-11T07:05:20.06Z</time></trkpt><trkpt lat="44.7408267" lon="7.8434517"><ele>377.71428571428567</ele><time>2026-04-11T07:05:22.059Z</time></trkpt><trkpt lat="44.7407633" lon="7.8435117"><ele>378.42857142857144</ele><time>2026-04-11T07:05:24.061Z</time></trkpt><trkpt lat="44.7406967" lon="7.8435683"><ele>379.1428571428571</ele><time>2026-04-11T07:05:26.063Z</time></trkpt><trkpt lat="44.74064" lon="7.8436283"><ele>379.85714285714283</ele><time>2026-04-11T07:05:28.06Z</time></trkpt><trkpt lat="44.7405783" lon="7.8436767"><ele>380.57142857142856</ele><time>2026-04-11T07:05:30.061Z</time></trkpt><trkpt lat="44.7405167" lon="7.843725"><ele>381.2857142857143</ele><time>2026-04-11T07:05:32.057Z</time></trkpt><trkpt lat="44.74046" lon="7.8437717"><ele>382.0</ele><time>2026-04-11T07:05:34.061Z</time></trkpt><trkpt lat="44.740405" lon="7.8438267"><ele>382.0</ele><time>2026-04-11T07:05:36.064Z</time></trkpt><trkpt lat="44.7403517" lon="7.8438933"><ele>382.0</ele><time>2026-04-11T07:05:38.06Z</time></trkpt><trkpt lat="44.7402983" lon="7.8439717"><ele>382.0</ele><time>2026-04-11T07:05:40.061Z</time></trkpt><trkpt lat="44.7402417" lon="7.8440733"><ele>382.0</ele><time>2026-04-11T07:05:42.06Z</time></trkpt><trkpt lat="44.740175" lon="7.8441867"><ele>382.0</ele><time>2026-04-11T07:05:44.055Z</time></trkpt><trkpt lat="44.7401133" lon="7.84429"><ele>382.0</ele><time>2026-04-11T07:05:46.06Z</time></trkpt><trkpt lat="44.74006" lon="7.8443883"><ele>382.66666666666663</ele><time>2026-04-11T07:05:48.058Z</time></trkpt><trkpt lat="44.740025" lon="7.8444933"><ele>383.3333333333333</ele><time>2026-04-11T07:05:50.062Z</time></trkpt><trkpt lat="44.7400033" lon="7.8446"><ele>384.0</ele><time>2026-04-11T07:05:52.06Z</time></trkpt><trkpt lat="44.739995" lon="7.8446933"><ele>384.66666666666663</ele><time>2026-04-11T07:05:54.059Z</time></trkpt><trkpt lat="44.7400033" lon="7.8448317"><ele>385.3333333333333</ele><time>2026-04-11T07:05:57.061Z</time></trkpt><trkpt lat="44.7400017" lon="7.84494"><ele>386.0</ele><time>2026-04-11T07:05:59.061Z</time></trkpt><trkpt lat="44.7399717" lon="7.84504"><ele>386.0</ele><time>2026-04-11T07:06:01.064Z</time></trkpt><trkpt lat="44.7399267" lon="7.8451267"><ele>386.0</ele><time>2026-04-11T07:06:03.062Z</time></trkpt><trkpt lat="44.739855" lon="7.8452217"><ele>386.0</ele><time>2026-04-11T07:06:05.06Z</time></trkpt><trkpt lat="44.739785" lon="7.8453333"><ele>386.0</ele><time>2026-04-11T07:06:07.059Z</time></trkpt><trkpt lat="44.739745" lon="7.8454567"><ele>386.0</ele><time>2026-04-11T07:06:09.062Z</time></trkpt><trkpt lat="44.739775" lon="7.8455883"><ele>384.75</ele><time>2026-04-11T07:06:11.059Z</time></trkpt><trkpt lat="44.7398217" lon="7.8457283"><ele>383.5</ele><time>2026-04-11T07:06:13.063Z</time></trkpt><trkpt lat="44.7398433" lon="7.845895"><ele>382.25</ele><time>2026-04-11T07:06:15.062Z</time></trkpt><trkpt lat="44.73986" lon="7.8460567"><ele>381.0</ele><time>2026-04-11T07:06:17.059Z</time></trkpt><trkpt lat="44.7398767" lon="7.846205"><ele>379.6666666666667</ele><time>2026-04-11T07:06:19.061Z</time></trkpt><trkpt lat="44.739915" lon="7.8463567"><ele>378.3333333333333</ele><time>2026-04-11T07:06:21.06Z</time></trkpt><trkpt lat="44.7399767" lon="7.8465"><ele>377.0</ele><time>2026-04-11T07:06:23.059Z</time></trkpt><trkpt lat="44.7400217" lon="7.8465683"><ele>375.66666666666663</ele><time>2026-04-11T07:06:24.061Z</time></trkpt><trkpt lat="44.7400633" lon="7.8466367"><ele>374.3333333333333</ele><time>2026-04-11T07:06:25.062Z</time></trkpt><trkpt lat="44.740105" lon="7.8467083"><ele>373.0</ele><time>2026-04-11T07:06:26.061Z</time></trkpt><trkpt lat="44.7401733" lon="7.8468433"><ele>372.59999999999997</ele><time>2026-04-11T07:06:28.061Z</time></trkpt><trkpt lat="44.740215" lon="7.8469917"><ele>372.2</ele><time>2026-04-11T07:06:30.06Z</time></trkpt><trkpt lat="44.740225" lon="7.8471617"><ele>371.8</ele><time>2026-04-11T07:06:32.06Z</time></trkpt><trkpt lat="44.74021" lon="7.8473333"><ele>371.4</ele><time>2026-04-11T07:06:34.06Z</time></trkpt><trkpt lat="44.7401883" lon="7.8474183"><ele>371.0</ele><time>2026-04-11T07:06:35.059Z</time></trkpt><trkpt lat="44.740155" lon="7.8475067"><ele>370.83333333333337</ele><time>2026-04-11T07:06:36.058Z</time></trkpt><trkpt lat="44.7401083" lon="7.8475883"><ele>370.6666666666667</ele><time>2026-04-11T07:06:37.06Z</time></trkpt><trkpt lat="44.7400617" lon="7.8476767"><ele>370.5</ele><time>2026-04-11T07:06:38.06Z</time></trkpt><trkpt lat="44.7400133" lon="7.84777"><ele>370.3333333333333</ele><time>2026-04-11T07:06:39.059Z</time></trkpt><trkpt lat="44.7399633" lon="7.8478617"><ele>370.16666666666663</ele><time>2026-04-11T07:06:40.06Z</time></trkpt><trkpt lat="44.7399167" lon="7.847955"><ele>370.0</ele><time>2026-04-11T07:06:41.058Z</time></trkpt><trkpt lat="44.739875" lon="7.8480467"><ele>370.0</ele><time>2026-04-11T07:06:42.058Z</time></trkpt><trkpt lat="44.73983" lon="7.8481333"><ele>370.0</ele><time>2026-04-11T07:06:43.062Z</time></trkpt><trkpt lat="44.7397933" lon="7.848215"><ele>370.0</ele><time>2026-04-11T07:06:44.061Z</time></trkpt><trkpt lat="44.739765" lon="7.8482983"><ele>370.0</ele><time>2026-04-11T07:06:45.062Z</time></trkpt><trkpt lat="44.7397783" lon="7.8484517"><ele>370.0</ele><time>2026-04-11T07:06:47.06Z</time></trkpt><trkpt lat="44.7398233" lon="7.848545"><ele>370.0</ele><time>2026-04-11T07:06:48.061Z</time></trkpt><trkpt lat="44.739885" lon="7.848635"><ele>369.8333333333333</ele><time>2026-04-11T07:06:49.06Z</time></trkpt><trkpt lat="44.7399283" lon="7.8487233"><ele>369.66666666666663</ele><time>2026-04-11T07:06:50.061Z</time></trkpt><trkpt lat="44.7399717" lon="7.8488167"><ele>369.5</ele><time>2026-04-11T07:06:51.06Z</time></trkpt><trkpt lat="44.7400167" lon="7.8489167"><ele>369.3333333333333</ele><time>2026-04-11T07:06:52.06Z</time></trkpt><trkpt lat="44.7400517" lon="7.8490183"><ele>369.1666666666667</ele><time>2026-04-11T07:06:53.061Z</time></trkpt><trkpt lat="44.7400817" lon="7.8491267"><ele>369.0</ele><time>2026-04-11T07:06:54.061Z</time></trkpt><trkpt lat="44.74011" lon="7.8492367"><ele>369.6666666666667</ele><time>2026-04-11T07:06:55.06Z</time></trkpt><trkpt lat="44.74014" lon="7.84934"><ele>370.3333333333333</ele><time>2026-04-11T07:06:56.06Z</time></trkpt><trkpt lat="44.7401767" lon="7.849425"><ele>371.0</ele><time>2026-04-11T07:06:57.06Z</time></trkpt><trkpt lat="44.7402217" lon="7.8494983"><ele>371.66666666666663</ele><time>2026-04-11T07:06:58.06Z</time></trkpt><trkpt lat="44.7402667" lon="7.8495717"><ele>372.3333333333333</ele><time>2026-04-11T07:06:59.06Z</time></trkpt><trkpt lat="44.7403117" lon="7.849635"><ele>373.0</ele><time>2026-04-11T07:07:00.059Z</time></trkpt><trkpt lat="44.74039" lon="7.8497583"><ele>373.8333333333333</ele><time>2026-04-11T07:07:02.058Z</time></trkpt><trkpt lat="44.7404633" lon="7.8498317"><ele>374.66666666666663</ele><time>2026-04-11T07:07:04.061Z</time></trkpt><trkpt lat="44.7405567" lon="7.8498233"><ele>375.5</ele><time>2026-04-11T07:07:06.058Z</time></trkpt><trkpt lat="44.7406417" lon="7.8498333"><ele>376.3333333333333</ele><time>2026-04-11T07:07:08.059Z</time></trkpt><trkpt lat="44.7407067" lon="7.8498717"><ele>377.1666666666667</ele><time>2026-04-11T07:07:10.061Z</time></trkpt><trkpt lat="44.7407033" lon="7.8500033"><ele>378.0</ele><time>2026-04-11T07:07:13.06Z</time></trkpt><trkpt lat="44.7406783" lon="7.8500867"><ele>378.5</ele><time>2026-04-11T07:07:15.059Z</time></trkpt><trkpt lat="44.740655" lon="7.8502083"><ele>379.0</ele><time>2026-04-11T07:07:18.062Z</time></trkpt><trkpt lat="44.7406283" lon="7.85033"><ele>379.5</ele><time>2026-04-11T07:07:21.061Z</time></trkpt><trkpt lat="44.7406317" lon="7.8504217"><ele>380.0</ele><time>2026-04-11T07:07:23.058Z</time></trkpt><trkpt lat="44.7406633" lon="7.850505"><ele>380.5</ele><time>2026-04-11T07:07:25.063Z</time></trkpt><trkpt lat="44.7407267" lon="7.8505967"><ele>381.0</ele><time>2026-04-11T07:07:28.059Z</time></trkpt><trkpt lat="44.74082" lon="7.8506067"><ele>381.0</ele><time>2026-04-11T07:07:35.06Z</time></trkpt><trkpt lat="44.7408933" lon="7.8505717"><ele>381.0</ele><time>2026-04-11T07:07:38.058Z</time></trkpt><trkpt lat="44.7408083" lon="7.850615"><ele>381.0</ele><time>2026-04-11T07:07:55.061Z</time></trkpt><trkpt lat="44.740725" lon="7.8505967"><ele>381.0</ele><time>2026-04-11T07:07:58.06Z</time></trkpt><trkpt lat="44.7406783" lon="7.8505133"><ele>381.0</ele><time>2026-04-11T07:08:01.061Z</time></trkpt><trkpt lat="44.7407133" lon="7.8504283"><ele>381.0</ele><time>2026-04-11T07:08:05.059Z</time></trkpt><trkpt lat="44.7407717" lon="7.850375"><ele>381.0</ele><time>2026-04-11T07:08:07.061Z</time></trkpt><trkpt lat="44.74084" lon="7.850305"><ele>381.0</ele><time>2026-04-11T07:08:09.06Z</time></trkpt><trkpt lat="44.7408967" lon="7.8502133"><ele>381.0</ele><time>2026-04-11T07:08:11.061Z</time></trkpt><trkpt lat="44.740955" lon="7.8501317"><ele>381.0</ele><time>2026-04-11T07:08:13.059Z</time></trkpt><trkpt lat="44.7410133" lon="7.850075"><ele>381.0</ele><time>2026-04-11T07:08:15.06Z</time></trkpt><trkpt lat="44.741085" lon="7.8500583"><ele>381.0</ele><time>2026-04-11T07:08:17.058Z</time></trkpt><trkpt lat="44.74115" lon="7.8500267"><ele>380.5</ele><time>2026-04-11T07:08:19.061Z</time></trkpt><trkpt lat="44.7412133" lon="7.8499883"><ele>380.0</ele><time>2026-04-11T07:08:21.061Z</time></trkpt><trkpt lat="44.7412867" lon="7.8499433"><ele>379.5</ele><time>2026-04-11T07:08:23.059Z</time></trkpt><trkpt lat="44.74136" lon="7.8498967"><ele>379.0</ele><time>2026-04-11T07:08:25.059Z</time></trkpt><trkpt lat="44.7414267" lon="7.8498283"><ele>378.5</ele><time>2026-04-11T07:08:27.059Z</time></trkpt><trkpt lat="44.7414933" lon="7.8497783"><ele>378.0</ele><time>2026-04-11T07:08:29.059Z</time></trkpt><trkpt lat="44.7415583" lon="7.849705"><ele>378.0</ele><time>2026-04-11T07:08:31.061Z</time></trkpt><trkpt lat="44.7416183" lon="7.8495933"><ele>378.0</ele><time>2026-04-11T07:08:33.059Z</time></trkpt><trkpt lat="44.7416717" lon="7.8494933"><ele>378.0</ele><time>2026-04-11T07:08:36.061Z</time></trkpt><trkpt lat="44.7417517" lon="7.8494567"><ele>378.0</ele><time>2026-04-11T07:08:39.06Z</time></trkpt><trkpt lat="44.7418167" lon="7.8494"><ele>378.0</ele><time>2026-04-11T07:08:42.061Z</time></trkpt><trkpt lat="44.7418483" lon="7.849315"><ele>378.0</ele><time>2026-04-11T07:08:44.058Z</time></trkpt><trkpt lat="44.7419017" lon="7.849205"><ele>377.14285714285717</ele><time>2026-04-11T07:08:47.06Z</time></trkpt><trkpt lat="44.74196" lon="7.8491383"><ele>376.2857142857143</ele><time>2026-04-11T07:08:49.06Z</time></trkpt><trkpt lat="44.7420217" lon="7.8490917"><ele>375.42857142857144</ele><time>2026-04-11T07:08:52.061Z</time></trkpt><trkpt lat="44.7420817" lon="7.849045"><ele>374.57142857142856</ele><time>2026-04-11T07:08:55.061Z</time></trkpt><trkpt lat="44.7421533" lon="7.849025"><ele>373.7142857142857</ele><time>2026-04-11T07:08:58.061Z</time></trkpt><trkpt lat="44.7422233" lon="7.8489833"><ele>372.8571428571429</ele><time>2026-04-11T07:09:01.061Z</time></trkpt><trkpt lat="44.7422983" lon="7.8489283"><ele>372.0</ele><time>2026-04-11T07:09:03.063Z</time></trkpt><trkpt lat="44.742375" lon="7.848865"><ele>372.0</ele><time>2026-04-11T07:09:05.061Z</time></trkpt><trkpt lat="44.7424567" lon="7.8488033"><ele>372.0</ele><time>2026-04-11T07:09:07.06Z</time></trkpt><trkpt lat="44.7425417" lon="7.84874"><ele>372.0</ele><time>2026-04-11T07:09:09.06Z</time></trkpt><trkpt lat="44.7426317" lon="7.8486617"><ele>372.0</ele><time>2026-04-11T07:09:11.058Z</time></trkpt><trkpt lat="44.7427417" lon="7.8485767"><ele>372.0</ele><time>2026-04-11T07:09:13.062Z</time></trkpt><trkpt lat="44.7428067" lon="7.8485367"><ele>372.0</ele><time>2026-04-11T07:09:14.06Z</time></trkpt><trkpt lat="44.7428683" lon="7.84851"><ele>372.0</ele><time>2026-04-11T07:09:15.06Z</time></trkpt><trkpt lat="44.7429283" lon="7.8484817"><ele>372.0</ele><time>2026-04-11T07:09:16.059Z</time></trkpt><trkpt lat="44.74299" lon="7.84844"><ele>372.0</ele><time>2026-04-11T07:09:17.06Z</time></trkpt><trkpt lat="44.7431017" lon="7.848385"><ele>372.0</ele><time>2026-04-11T07:09:19.061Z</time></trkpt><trkpt lat="44.7432033" lon="7.8482917"><ele>372.0</ele><time>2026-04-11T07:09:21.06Z</time></trkpt><trkpt lat="44.7432883" lon="7.8481733"><ele>371.5</ele><time>2026-04-11T07:09:23.061Z</time></trkpt><trkpt lat="44.7433783" lon="7.8480433"><ele>371.0</ele><time>2026-04-11T07:09:25.061Z</time></trkpt><trkpt lat="44.7434517" lon="7.8479233"><ele>370.5</ele><time>2026-04-11T07:09:27.06Z</time></trkpt><trkpt lat="44.743515" lon="7.84786"><ele>370.0</ele><time>2026-04-11T07:09:28.06Z</time></trkpt><trkpt lat="44.74363" lon="7.8477583"><ele>369.2</ele><time>2026-04-11T07:09:30.061Z</time></trkpt><trkpt lat="44.7437417" lon="7.847705"><ele>368.4</ele><time>2026-04-11T07:09:32.059Z</time></trkpt><trkpt lat="44.7438517" lon="7.8476883"><ele>367.6</ele><time>2026-04-11T07:09:34.058Z</time></trkpt><trkpt lat="44.7439517" lon="7.8476633"><ele>366.8</ele><time>2026-04-11T07:09:36.055Z</time></trkpt><trkpt lat="44.7440333" lon="7.8476167"><ele>366.0</ele><time>2026-04-11T07:09:38.061Z</time></trkpt><trkpt lat="44.74411" lon="7.84759"><ele>366.0</ele><time>2026-04-11T07:09:40.06Z</time></trkpt><trkpt lat="44.7441933" lon="7.8476"><ele>366.0</ele><time>2026-04-11T07:09:42.06Z</time></trkpt><trkpt lat="44.7442617" lon="7.8476467"><ele>366.0</ele><time>2026-04-11T07:09:45.061Z</time></trkpt><trkpt lat="44.7443033" lon="7.84773"><ele>366.0</ele><time>2026-04-11T07:09:56.061Z</time></trkpt><trkpt lat="44.7443567" lon="7.847795"><ele>366.0</ele><time>2026-04-11T07:10:04.059Z</time></trkpt><trkpt lat="44.7443767" lon="7.8479"><ele>366.0</ele><time>2026-04-11T07:10:08.062Z</time></trkpt><trkpt lat="44.7443467" lon="7.8479917"><ele>366.0</ele><time>2026-04-11T07:10:11.06Z</time></trkpt><trkpt lat="44.7442867" lon="7.8480417"><ele>366.0</ele><time>2026-04-11T07:10:13.062Z</time></trkpt><trkpt lat="44.7442317" lon="7.8480933"><ele>366.0</ele><time>2026-04-11T07:10:15.061Z</time></trkpt><trkpt lat="44.74418" lon="7.8481533"><ele>366.0</ele><time>2026-04-11T07:10:17.064Z</time></trkpt><trkpt lat="44.7441233" lon="7.848195"><ele>366.0</ele><time>2026-04-11T07:10:19.062Z</time></trkpt><trkpt lat="44.7440733" lon="7.8482617"><ele>366.0</ele><time>2026-04-11T07:10:21.06Z</time></trkpt><trkpt lat="44.7440267" lon="7.8483483"><ele>366.0</ele><time>2026-04-11T07:10:23.061Z</time></trkpt><trkpt lat="44.744" lon="7.8484433"><ele>366.8333333333333</ele><time>2026-04-11T07:10:25.062Z</time></trkpt><trkpt lat="44.7439633" lon="7.8485317"><ele>367.6666666666667</ele><time>2026-04-11T07:10:27.061Z</time></trkpt><trkpt lat="44.743905" lon="7.848585"><ele>368.5</ele><time>2026-04-11T07:10:29.061Z</time></trkpt><trkpt lat="44.7438233" lon="7.84863"><ele>369.33333333333337</ele><time>2026-04-11T07:10:31.057Z</time></trkpt><trkpt lat="44.7437683" lon="7.8486833"><ele>370.1666666666667</ele><time>2026-04-11T07:10:33.062Z</time></trkpt><trkpt lat="44.743715" lon="7.8487783"><ele>371.0</ele><time>2026-04-11T07:10:36.057Z</time></trkpt><trkpt lat="44.7436617" lon="7.8488483"><ele>371.0</ele><time>2026-04-11T07:10:38.061Z</time></trkpt><trkpt lat="44.7435917" lon="7.8489167"><ele>371.0</ele><time>2026-04-11T07:10:40.06Z</time></trkpt><trkpt lat="44.743515" lon="7.8489617"><ele>371.0</ele><time>2026-04-11T07:10:42.059Z</time></trkpt><trkpt lat="44.743445" lon="7.849"><ele>371.0</ele><time>2026-04-11T07:10:44.06Z</time></trkpt><trkpt lat="44.7433833" lon="7.8490417"><ele>371.0</ele><time>2026-04-11T07:10:46.058Z</time></trkpt><trkpt lat="44.7433267" lon="7.8490883"><ele>371.0</ele><time>2026-04-11T07:10:49.063Z</time></trkpt><trkpt lat="44.7432633" lon="7.8491217"><ele>371.0</ele><time>2026-04-11T07:10:52.061Z</time></trkpt><trkpt lat="44.7431883" lon="7.8491567"><ele>371.1666666666667</ele><time>2026-04-11T07:10:55.062Z</time></trkpt><trkpt lat="44.7431267" lon="7.8492017"><ele>371.33333333333337</ele><time>2026-04-11T07:10:58.065Z</time></trkpt><trkpt lat="44.743075" lon="7.84926"><ele>371.5</ele><time>2026-04-11T07:11:01.06Z</time></trkpt><trkpt lat="44.743" lon="7.8493233"><ele>371.6666666666667</ele><time>2026-04-11T07:11:04.061Z</time></trkpt><trkpt lat="44.7429417" lon="7.8493733"><ele>371.8333333333333</ele><time>2026-04-11T07:11:06.058Z</time></trkpt><trkpt lat="44.742885" lon="7.849475"><ele>372.0</ele><time>2026-04-11T07:11:09.061Z</time></trkpt><trkpt lat="44.7428683" lon="7.8495767"><ele>372.42857142857144</ele><time>2026-04-11T07:11:12.06Z</time></trkpt><trkpt lat="44.7429017" lon="7.8496533"><ele>372.8571428571429</ele><time>2026-04-11T07:11:16.059Z</time></trkpt><trkpt lat="44.7429583" lon="7.8497167"><ele>373.28571428571433</ele><time>2026-04-11T07:11:20.062Z</time></trkpt><trkpt lat="44.743025" lon="7.84975"><ele>373.7142857142857</ele><time>2026-04-11T07:11:24.061Z</time></trkpt><trkpt lat="44.743105" lon="7.84979"><ele>374.1428571428571</ele><time>2026-04-11T07:11:40.062Z</time></trkpt><trkpt lat="44.74313" lon="7.8498933"><ele>374.5714285714286</ele><time>2026-04-11T07:11:46.06Z</time></trkpt><trkpt lat="44.74315" lon="7.85"><ele>375.0</ele><time>2026-04-11T07:11:49.062Z</time></trkpt><trkpt lat="44.74316" lon="7.8500883"><ele>375.0</ele><time>2026-04-11T07:11:51.059Z</time></trkpt><trkpt lat="44.7431433" lon="7.8502083"><ele>375.0</ele><time>2026-04-11T07:11:54.059Z</time></trkpt><trkpt lat="44.74321" lon="7.8501917"><ele>375.0</ele><time>2026-04-11T07:12:00.058Z</time></trkpt><trkpt lat="44.7433017" lon="7.850165"><ele>375.0</ele><time>2026-04-11T07:12:02.057Z</time></trkpt><trkpt lat="44.7433683" lon="7.8500883"><ele>375.0</ele><time>2026-04-11T07:12:04.062Z</time></trkpt><trkpt lat="44.74362" lon="7.8500733"><ele>374.0</ele><time>2026-04-11T07:12:06.155Z</time></trkpt><trkpt lat="44.7436067" lon="7.8499433"><ele>373.0</ele><time>2026-04-11T07:12:07.562Z</time></trkpt><trkpt lat="44.74369" lon="7.8498333"><ele>372.0</ele><time>2026-04-11T07:12:13.063Z</time></trkpt><trkpt lat="44.743775" lon="7.8495983"><ele>371.0</ele><time>2026-04-11T07:12:18.062Z</time></trkpt><trkpt lat="44.74382" lon="7.8495083"><ele>371.0</ele><time>2026-04-11T07:12:19.06Z</time></trkpt><trkpt lat="44.7438867" lon="7.8494033"><ele>371.0</ele><time>2026-04-11T07:12:21.063Z</time></trkpt><trkpt lat="44.743935" lon="7.8493433"><ele>371.0</ele><time>2026-04-11T07:12:22.06Z</time></trkpt><trkpt lat="44.74404" lon="7.8492733"><ele>371.0</ele><time>2026-04-11T07:12:24.059Z</time></trkpt><trkpt lat="44.7441267" lon="7.8492267"><ele>371.0</ele><time>2026-04-11T07:12:26.06Z</time></trkpt><trkpt lat="44.7441967" lon="7.8492267"><ele>371.0</ele><time>2026-04-11T07:12:28.062Z</time></trkpt><trkpt lat="44.74427" lon="7.8492017"><ele>371.0</ele><time>2026-04-11T07:12:30.058Z</time></trkpt><trkpt lat="44.7443417" lon="7.849155"><ele>371.0</ele><time>2026-04-11T07:12:32.057Z</time></trkpt><trkpt lat="44.7444017" lon="7.849105"><ele>371.0</ele><time>2026-04-11T07:12:34.06Z</time></trkpt><trkpt lat="44.7444717" lon="7.8490767"><ele>371.0</ele><time>2026-04-11T07:12:36.059Z</time></trkpt><trkpt lat="44.744555" lon="7.8490667"><ele>371.0</ele><time>2026-04-11T07:12:38.059Z</time></trkpt><trkpt lat="44.74464" lon="7.849075"><ele>371.0</ele><time>2026-04-11T07:12:40.06Z</time></trkpt><trkpt lat="44.7447033" lon="7.849075"><ele>370.33333333333337</ele><time>2026-04-11T07:12:42.059Z</time></trkpt><trkpt lat="44.7447733" lon="7.84905"><ele>369.6666666666667</ele><time>2026-04-11T07:12:44.061Z</time></trkpt><trkpt lat="44.7448333" lon="7.8490033"><ele>369.0</ele><time>2026-04-11T07:12:47.059Z</time></trkpt><trkpt lat="44.744895" lon="7.8489283"><ele>368.3333333333333</ele><time>2026-04-11T07:12:50.059Z</time></trkpt><trkpt lat="44.744965" lon="7.84886"><ele>367.66666666666663</ele><time>2026-04-11T07:12:52.061Z</time></trkpt><trkpt lat="44.74503" lon="7.8488067"><ele>367.0</ele><time>2026-04-11T07:12:54.06Z</time></trkpt><trkpt lat="44.7450983" lon="7.8487533"><ele>367.0</ele><time>2026-04-11T07:12:56.059Z</time></trkpt><trkpt lat="44.7451767" lon="7.8487083"><ele>367.0</ele><time>2026-04-11T07:12:59.061Z</time></trkpt><trkpt lat="44.7452933" lon="7.8486267"><ele>367.0</ele><time>2026-04-11T07:13:02.06Z</time></trkpt><trkpt lat="44.7453717" lon="7.8485817"><ele>367.0</ele><time>2026-04-11T07:13:04.06Z</time></trkpt><trkpt lat="44.74544" lon="7.84853"><ele>367.0</ele><time>2026-04-11T07:13:05.06Z</time></trkpt><trkpt lat="44.7455217" lon="7.8484517"><ele>366.5</ele><time>2026-04-11T07:13:06.06Z</time></trkpt><trkpt lat="44.7455967" lon="7.8483867"><ele>366.0</ele><time>2026-04-11T07:13:07.06Z</time></trkpt><trkpt lat="44.745675" lon="7.8483167"><ele>365.5</ele><time>2026-04-11T07:13:08.061Z</time></trkpt><trkpt lat="44.7457383" lon="7.8482683"><ele>365.0</ele><time>2026-04-11T07:13:09.061Z</time></trkpt><trkpt lat="44.74582" lon="7.848195"><ele>364.5</ele><time>2026-04-11T07:13:10.063Z</time></trkpt><trkpt lat="44.7458867" lon="7.8481317"><ele>364.0</ele><time>2026-04-11T07:13:11.06Z</time></trkpt><trkpt lat="44.7460017" lon="7.8480867"><ele>363.57142857142856</ele><time>2026-04-11T07:13:13.061Z</time></trkpt><trkpt lat="44.7460667" lon="7.84807"><ele>363.1428571428571</ele><time>2026-04-11T07:13:14.06Z</time></trkpt><trkpt lat="44.7461367" lon="7.848045"><ele>362.7142857142857</ele><time>2026-04-11T07:13:15.061Z</time></trkpt><trkpt lat="44.7462033" lon="7.8480217"><ele>362.2857142857143</ele><time>2026-04-11T07:13:16.06Z</time></trkpt><trkpt lat="44.7462667" lon="7.8479983"><ele>361.85714285714283</ele><time>2026-04-11T07:13:17.061Z</time></trkpt><trkpt lat="44.7463317" lon="7.8479733"><ele>361.42857142857144</ele><time>2026-04-11T07:13:18.06Z</time></trkpt><trkpt lat="44.7464" lon="7.847945"><ele>361.0</ele><time>2026-04-11T07:13:19.061Z</time></trkpt><trkpt lat="44.7464633" lon="7.8479133"><ele>361.0</ele><time>2026-04-11T07:13:20.06Z</time></trkpt><trkpt lat="44.74653" lon="7.8478883"><ele>361.0</ele><time>2026-04-11T07:13:21.06Z</time></trkpt><trkpt lat="44.7466267" lon="7.847835"><ele>361.0</ele><time>2026-04-11T07:13:23.06Z</time></trkpt><trkpt lat="44.7466967" lon="7.8477683"><ele>361.0</ele><time>2026-04-11T07:13:25.06Z</time></trkpt><trkpt lat="44.74676" lon="7.847705"><ele>361.0</ele><time>2026-04-11T07:13:28.063Z</time></trkpt><trkpt lat="44.746805" lon="7.8476317"><ele>361.0</ele><time>2026-04-11T07:13:32.06Z</time></trkpt><trkpt lat="44.74687" lon="7.8475817"><ele>361.0</ele><time>2026-04-11T07:13:36.055Z</time></trkpt><trkpt lat="44.7469417" lon="7.8475883"><ele>361.0</ele><time>2026-04-11T07:13:41.061Z</time></trkpt><trkpt lat="44.74699" lon="7.8476517"><ele>361.0</ele><time>2026-04-11T07:13:48.057Z</time></trkpt><trkpt lat="44.74693" lon="7.8477467"><ele>361.0</ele><time>2026-04-11T07:13:51.06Z</time></trkpt><trkpt lat="44.7468783" lon="7.8478267"><ele>361.0</ele><time>2026-04-11T07:13:53.06Z</time></trkpt><trkpt lat="44.7468317" lon="7.84793"><ele>361.0</ele><time>2026-04-11T07:13:55.059Z</time></trkpt><trkpt lat="44.74679" lon="7.848035"><ele>361.0</ele><time>2026-04-11T07:13:57.054Z</time></trkpt><trkpt lat="44.7467483" lon="7.84813"><ele>361.0</ele><time>2026-04-11T07:13:59.059Z</time></trkpt><trkpt lat="44.7466933" lon="7.84821"><ele>361.0</ele><time>2026-04-11T07:14:01.058Z</time></trkpt><trkpt lat="44.7466317" lon="7.8482883"><ele>361.0</ele><time>2026-04-11T07:14:03.062Z</time></trkpt><trkpt lat="44.7465867" lon="7.8483517"><ele>361.0</ele><time>2026-04-11T07:14:05.059Z</time></trkpt><trkpt lat="44.746535" lon="7.8484217"><ele>361.0</ele><time>2026-04-11T07:14:08.061Z</time></trkpt><trkpt lat="44.7464717" lon="7.848465"><ele>361.0</ele><time>2026-04-11T07:14:10.059Z</time></trkpt><trkpt lat="44.7463983" lon="7.8485133"><ele>361.14285714285717</ele><time>2026-04-11T07:14:13.059Z</time></trkpt><trkpt lat="44.7463217" lon="7.8485533"><ele>361.2857142857143</ele><time>2026-04-11T07:14:16.061Z</time></trkpt><trkpt lat="44.7462617" lon="7.8485883"><ele>361.42857142857144</ele><time>2026-04-11T07:14:18.059Z</time></trkpt><trkpt lat="44.7461917" lon="7.8486167"><ele>361.57142857142856</ele><time>2026-04-11T07:14:20.059Z</time></trkpt><trkpt lat="44.74613" lon="7.8486383"><ele>361.71428571428567</ele><time>2026-04-11T07:14:21.058Z</time></trkpt><trkpt lat="44.7460683" lon="7.8486867"><ele>361.85714285714283</ele><time>2026-04-11T07:14:23.059Z</time></trkpt><trkpt lat="44.7460167" lon="7.84875"><ele>362.0</ele><time>2026-04-11T07:14:25.063Z</time></trkpt><trkpt lat="44.7459667" lon="7.8488117"><ele>362.1428571428571</ele><time>2026-04-11T07:14:27.061Z</time></trkpt><trkpt lat="44.745905" lon="7.8488833"><ele>362.2857142857143</ele><time>2026-04-11T07:14:31.06Z</time></trkpt><trkpt lat="44.7458417" lon="7.848925"><ele>362.42857142857144</ele><time>2026-04-11T07:14:35.059Z</time></trkpt><trkpt lat="44.7457817" lon="7.848995"><ele>362.57142857142856</ele><time>2026-04-11T07:14:53.059Z</time></trkpt><trkpt lat="44.745725" lon="7.8490667"><ele>362.7142857142857</ele><time>2026-04-11T07:14:56.059Z</time></trkpt><trkpt lat="44.7456717" lon="7.8491383"><ele>362.85714285714283</ele><time>2026-04-11T07:14:58.059Z</time></trkpt><trkpt lat="44.7456233" lon="7.849205"><ele>363.0</ele><time>2026-04-11T07:15:00.06Z</time></trkpt><trkpt lat="44.74557" lon="7.8492617"><ele>363.2857142857143</ele><time>2026-04-11T07:15:02.058Z</time></trkpt><trkpt lat="44.7455167" lon="7.849315"><ele>363.57142857142856</ele><time>2026-04-11T07:15:04.059Z</time></trkpt><trkpt lat="44.7454467" lon="7.8493633"><ele>363.8571428571429</ele><time>2026-04-11T07:15:06.06Z</time></trkpt><trkpt lat="44.7453717" lon="7.8494117"><ele>364.1428571428571</ele><time>2026-04-11T07:15:08.06Z</time></trkpt><trkpt lat="44.7452917" lon="7.8494683"><ele>364.42857142857144</ele><time>2026-04-11T07:15:11.061Z</time></trkpt><trkpt lat="44.7452417" lon="7.8495317"><ele>364.7142857142857</ele><time>2026-04-11T07:15:13.061Z</time></trkpt><trkpt lat="44.7451917" lon="7.8495933"><ele>365.0</ele><time>2026-04-11T07:15:15.06Z</time></trkpt><trkpt lat="44.7451117" lon="7.8496133"><ele>365.33333333333337</ele><time>2026-04-11T07:15:19.061Z</time></trkpt><trkpt lat="44.7450917" lon="7.849705"><ele>365.6666666666667</ele><time>2026-04-11T07:15:28.061Z</time></trkpt><trkpt lat="44.74504" lon="7.8498033"><ele>366.0</ele><time>2026-04-11T07:15:31.059Z</time></trkpt><trkpt lat="44.7449967" lon="7.8498783"><ele>366.3333333333333</ele><time>2026-04-11T07:15:33.061Z</time></trkpt><trkpt lat="44.74494" lon="7.8499533"><ele>366.66666666666663</ele><time>2026-04-11T07:15:35.06Z</time></trkpt><trkpt lat="44.7448917" lon="7.8500417"><ele>367.0</ele><time>2026-04-11T07:15:37.056Z</time></trkpt><trkpt lat="44.7448383" lon="7.8501267"><ele>367.3333333333333</ele><time>2026-04-11T07:15:39.054Z</time></trkpt><trkpt lat="44.744775" lon="7.8501883"><ele>367.66666666666663</ele><time>2026-04-11T07:15:41.06Z</time></trkpt><trkpt lat="44.7446983" lon="7.8502267"><ele>368.0</ele><time>2026-04-11T07:15:43.061Z</time></trkpt><trkpt lat="44.74461" lon="7.850275"><ele>368.3333333333333</ele><time>2026-04-11T07:15:45.06Z</time></trkpt><trkpt lat="44.7445417" lon="7.8503233"><ele>368.6666666666667</ele><time>2026-04-11T07:15:47.061Z</time></trkpt><trkpt lat="44.74448" lon="7.8503867"><ele>369.0</ele><time>2026-04-11T07:15:49.061Z</time></trkpt><trkpt lat="44.74442" lon="7.8504583"><ele>369.5</ele><time>2026-04-11T07:15:51.058Z</time></trkpt><trkpt lat="44.7443667" lon="7.8505333"><ele>370.0</ele><time>2026-04-11T07:15:53.058Z</time></trkpt><trkpt lat="44.7443" lon="7.8506217"><ele>370.5</ele><time>2026-04-11T07:15:55.061Z</time></trkpt><trkpt lat="44.7442367" lon="7.8507267"><ele>371.0</ele><time>2026-04-11T07:15:58.058Z</time></trkpt><trkpt lat="44.7441783" lon="7.8508233"><ele>371.5</ele><time>2026-04-11T07:16:00.06Z</time></trkpt><trkpt lat="44.7441517" lon="7.8509217"><ele>372.0</ele><time>2026-04-11T07:16:02.06Z</time></trkpt><trkpt lat="44.7441383" lon="7.851025"><ele>372.3333333333333</ele><time>2026-04-11T07:16:04.06Z</time></trkpt><trkpt lat="44.7441183" lon="7.8511183"><ele>372.6666666666667</ele><time>2026-04-11T07:16:06.059Z</time></trkpt><trkpt lat="44.7440867" lon="7.8512417"><ele>373.0</ele><time>2026-04-11T07:16:09.061Z</time></trkpt><trkpt lat="44.7440567" lon="7.8513633"><ele>373.33333333333337</ele><time>2026-04-11T07:16:12.061Z</time></trkpt><trkpt lat="44.7440483" lon="7.85146"><ele>373.6666666666667</ele><time>2026-04-11T07:16:14.06Z</time></trkpt><trkpt lat="44.7440233" lon="7.8515617"><ele>374.0</ele><time>2026-04-11T07:16:16.059Z</time></trkpt><trkpt lat="44.7439683" lon="7.8516717"><ele>374.0</ele><time>2026-04-11T07:16:18.061Z</time></trkpt><trkpt lat="44.7439217" lon="7.851775"><ele>374.0</ele><time>2026-04-11T07:16:20.057Z</time></trkpt><trkpt lat="44.7438967" lon="7.8518733"><ele>374.0</ele><time>2026-04-11T07:16:22.06Z</time></trkpt><trkpt lat="44.7438617" lon="7.8519733"><ele>374.0</ele><time>2026-04-11T07:16:24.059Z</time></trkpt><trkpt lat="44.743825" lon="7.8520683"><ele>374.0</ele><time>2026-04-11T07:16:26.06Z</time></trkpt><trkpt lat="44.7437917" lon="7.8521633"><ele>374.0</ele><time>2026-04-11T07:16:28.058Z</time></trkpt><trkpt lat="44.7437667" lon="7.8522483"><ele>374.1428571428571</ele><time>2026-04-11T07:16:30.059Z</time></trkpt><trkpt lat="44.7437567" lon="7.85235"><ele>374.28571428571433</ele><time>2026-04-11T07:16:32.06Z</time></trkpt><trkpt lat="44.7437333" lon="7.852435"><ele>374.42857142857144</ele><time>2026-04-11T07:16:34.06Z</time></trkpt><trkpt lat="44.7437017" lon="7.8525133"><ele>374.57142857142856</ele><time>2026-04-11T07:16:36.06Z</time></trkpt><trkpt lat="44.7436583" lon="7.85258"><ele>374.71428571428567</ele><time>2026-04-11T07:16:38.059Z</time></trkpt><trkpt lat="44.7436" lon="7.852665"><ele>374.8571428571429</ele><time>2026-04-11T07:16:41.06Z</time></trkpt><trkpt lat="44.7435567" lon="7.8527467"><ele>375.0</ele><time>2026-04-11T07:16:44.059Z</time></trkpt><trkpt lat="44.7434967" lon="7.8528117"><ele>375.2857142857143</ele><time>2026-04-11T07:16:48.059Z</time></trkpt><trkpt lat="44.7434417" lon="7.8528867"><ele>375.57142857142856</ele><time>2026-04-11T07:16:52.058Z</time></trkpt><trkpt lat="44.743405" lon="7.8529717"><ele>375.85714285714283</ele><time>2026-04-11T07:16:55.059Z</time></trkpt><trkpt lat="44.7433517" lon="7.8530467"><ele>376.1428571428571</ele><time>2026-04-11T07:16:58.058Z</time></trkpt><trkpt lat="44.7432917" lon="7.8531017"><ele>376.42857142857144</ele><time>2026-04-11T07:17:01.059Z</time></trkpt><trkpt lat="44.7432317" lon="7.8531733"><ele>376.71428571428567</ele><time>2026-04-11T07:17:05.06Z</time></trkpt><trkpt lat="44.74317" lon="7.8532"><ele>377.0</ele><time>2026-04-11T07:17:10.059Z</time></trkpt><trkpt lat="44.743105" lon="7.85323"><ele>377.0</ele><time>2026-04-11T07:17:14.061Z</time></trkpt><trkpt lat="44.743035" lon="7.8532333"><ele>377.0</ele><time>2026-04-11T07:17:18.06Z</time></trkpt><trkpt lat="44.74297" lon="7.8531633"><ele>377.0</ele><time>2026-04-11T07:17:23.06Z</time></trkpt><trkpt lat="44.7429067" lon="7.853135"><ele>377.0</ele><time>2026-04-11T07:17:27.059Z</time></trkpt><trkpt lat="44.742865" lon="7.8532217"><ele>377.0</ele><time>2026-04-11T07:17:32.061Z</time></trkpt><trkpt lat="44.74283" lon="7.8532983"><ele>377.0</ele><time>2026-04-11T07:17:35.059Z</time></trkpt><trkpt lat="44.7427383" lon="7.8533133"><ele>377.1428571428571</ele><time>2026-04-11T07:17:38.058Z</time></trkpt><trkpt lat="44.7426667" lon="7.8532633"><ele>377.2857142857143</ele><time>2026-04-11T07:17:40.059Z</time></trkpt><trkpt lat="44.742615" lon="7.85321"><ele>377.42857142857144</ele><time>2026-04-11T07:17:42.059Z</time></trkpt><trkpt lat="44.7425517" lon="7.8531517"><ele>377.57142857142856</ele><time>2026-04-11T07:17:44.059Z</time></trkpt><trkpt lat="44.742475" lon="7.8531233"><ele>377.7142857142857</ele><time>2026-04-11T07:17:47.058Z</time></trkpt><trkpt lat="44.7424017" lon="7.8531367"><ele>377.85714285714283</ele><time>2026-04-11T07:17:49.059Z</time></trkpt><trkpt lat="44.742335" lon="7.8531767"><ele>378.0</ele><time>2026-04-11T07:17:52.058Z</time></trkpt><trkpt lat="44.742245" lon="7.8532367"><ele>378.0</ele><time>2026-04-11T07:17:55.059Z</time></trkpt><trkpt lat="44.7421767" lon="7.8532517"><ele>378.0</ele><time>2026-04-11T07:17:58.062Z</time></trkpt><trkpt lat="44.74209" lon="7.85327"><ele>378.0</ele><time>2026-04-11T07:18:01.062Z</time></trkpt><trkpt lat="44.741995" lon="7.8532683"><ele>378.0</ele><time>2026-04-11T07:18:04.062Z</time></trkpt><trkpt lat="44.7419217" lon="7.8532583"><ele>378.0</ele><time>2026-04-11T07:18:06.059Z</time></trkpt><trkpt lat="44.7418233" lon="7.853265"><ele>378.0</ele><time>2026-04-11T07:18:08.059Z</time></trkpt><trkpt lat="44.74175" lon="7.8532533"><ele>378.57142857142856</ele><time>2026-04-11T07:18:10.059Z</time></trkpt><trkpt lat="44.7416767" lon="7.8532533"><ele>379.1428571428571</ele><time>2026-04-11T07:18:12.058Z</time></trkpt><trkpt lat="44.741605" lon="7.8532833"><ele>379.7142857142857</ele><time>2026-04-11T07:18:15.061Z</time></trkpt><trkpt lat="44.7415333" lon="7.8533"><ele>380.2857142857143</ele><time>2026-04-11T07:18:17.059Z</time></trkpt><trkpt lat="44.74146" lon="7.8533433"><ele>380.85714285714283</ele><time>2026-04-11T07:18:22.056Z</time></trkpt><trkpt lat="44.7414167" lon="7.853415"><ele>381.42857142857144</ele><time>2026-04-11T07:18:27.059Z</time></trkpt><trkpt lat="44.7413517" lon="7.8534783"><ele>382.0</ele><time>2026-04-11T07:18:34.058Z</time></trkpt><trkpt lat="44.7413017" lon="7.8535583"><ele>382.0</ele><time>2026-04-11T07:18:37.061Z</time></trkpt><trkpt lat="44.741255" lon="7.8536417"><ele>382.0</ele><time>2026-04-11T07:18:40.058Z</time></trkpt><trkpt lat="44.7412333" lon="7.8537467"><ele>382.0</ele><time>2026-04-11T07:18:44.06Z</time></trkpt><trkpt lat="44.7412517" lon="7.853835"><ele>382.0</ele><time>2026-04-11T07:18:47.059Z</time></trkpt><trkpt lat="44.7412717" lon="7.8539233"><ele>382.0</ele><time>2026-04-11T07:18:50.062Z</time></trkpt><trkpt lat="44.7412767" lon="7.8540367"><ele>382.0</ele><time>2026-04-11T07:18:54.059Z</time></trkpt><trkpt lat="44.7412283" lon="7.85412"><ele>382.0</ele><time>2026-04-11T07:18:58.061Z</time></trkpt><trkpt lat="44.7411617" lon="7.8541567"><ele>382.0</ele><time>2026-04-11T07:19:01.06Z</time></trkpt><trkpt lat="44.7410883" lon="7.8541783"><ele>382.0</ele><time>2026-04-11T07:19:04.06Z</time></trkpt><trkpt lat="44.7410067" lon="7.854205"><ele>382.0</ele><time>2026-04-11T07:19:07.06Z</time></trkpt><trkpt lat="44.7409267" lon="7.854225"><ele>382.0</ele><time>2026-04-11T07:19:10.06Z</time></trkpt><trkpt lat="44.74084" lon="7.8542417"><ele>382.0</ele><time>2026-04-11T07:19:13.062Z</time></trkpt><trkpt lat="44.7407617" lon="7.8542383"><ele>382.0</ele><time>2026-04-11T07:19:16.059Z</time></trkpt><trkpt lat="44.740695" lon="7.85425"><ele>382.66666666666663</ele><time>2026-04-11T07:19:18.059Z</time></trkpt><trkpt lat="44.7406217" lon="7.854255"><ele>383.3333333333333</ele><time>2026-04-11T07:19:20.06Z</time></trkpt><trkpt lat="44.740545" lon="7.8542867"><ele>384.0</ele><time>2026-04-11T07:19:23.058Z</time></trkpt><trkpt lat="44.740475" lon="7.8543383"><ele>384.66666666666663</ele><time>2026-04-11T07:19:26.058Z</time></trkpt><trkpt lat="44.7404033" lon="7.8543833"><ele>385.3333333333333</ele><time>2026-04-11T07:19:29.058Z</time></trkpt><trkpt lat="44.7403433" lon="7.854455"><ele>386.0</ele><time>2026-04-11T07:19:32.059Z</time></trkpt><trkpt lat="44.7402683" lon="7.8544933"><ele>386.49999999999994</ele><time>2026-04-11T07:19:35.058Z</time></trkpt><trkpt lat="44.7402017" lon="7.85449"><ele>387.0</ele><time>2026-04-11T07:19:38.058Z</time></trkpt><trkpt lat="44.7401333" lon="7.8545483"><ele>387.5</ele><time>2026-04-11T07:19:41.06Z</time></trkpt><trkpt lat="44.7400533" lon="7.8546133"><ele>388.0</ele><time>2026-04-11T07:19:44.061Z</time></trkpt><trkpt lat="44.7399617" lon="7.85466"><ele>388.49999999999994</ele><time>2026-04-11T07:19:47.059Z</time></trkpt><trkpt lat="44.739885" lon="7.8547017"><ele>389.0</ele><time>2026-04-11T07:19:49.061Z</time></trkpt><trkpt lat="44.7398033" lon="7.8547283"><ele>388.99999999999994</ele><time>2026-04-11T07:19:51.058Z</time></trkpt><trkpt lat="44.739725" lon="7.8547283"><ele>389.0</ele><time>2026-04-11T07:19:53.059Z</time></trkpt><trkpt lat="44.7396433" lon="7.8547383"><ele>389.0</ele><time>2026-04-11T07:19:55.06Z</time></trkpt><trkpt lat="44.73956" lon="7.854745"><ele>389.0</ele><time>2026-04-11T07:19:57.06Z</time></trkpt><trkpt lat="44.739495" lon="7.854755"><ele>388.99999999999994</ele><time>2026-04-11T07:19:59.058Z</time></trkpt><trkpt lat="44.73941" lon="7.85479"><ele>389.0</ele><time>2026-04-11T07:20:02.059Z</time></trkpt><trkpt lat="44.739325" lon="7.85482"><ele>389.3333333333333</ele><time>2026-04-11T07:20:05.059Z</time></trkpt><trkpt lat="44.7392633" lon="7.854885"><ele>389.66666666666663</ele><time>2026-04-11T07:20:07.059Z</time></trkpt><trkpt lat="44.73918" lon="7.8549583"><ele>390.0</ele><time>2026-04-11T07:20:09.061Z</time></trkpt><trkpt lat="44.7391233" lon="7.8550067"><ele>390.33333333333337</ele><time>2026-04-11T07:20:10.061Z</time></trkpt><trkpt lat="44.739065" lon="7.8550633"><ele>390.6666666666667</ele><time>2026-04-11T07:20:11.057Z</time></trkpt><trkpt lat="44.7390183" lon="7.8551233"><ele>391.0</ele><time>2026-04-11T07:20:12.058Z</time></trkpt><trkpt lat="44.7389317" lon="7.8552367"><ele>390.20000000000005</ele><time>2026-04-11T07:20:14.061Z</time></trkpt><trkpt lat="44.7388283" lon="7.85533"><ele>389.40000000000003</ele><time>2026-04-11T07:20:16.061Z</time></trkpt><trkpt lat="44.73873" lon="7.8554167"><ele>388.6</ele><time>2026-04-11T07:20:18.061Z</time></trkpt><trkpt lat="44.7386533" lon="7.85552"><ele>387.8</ele><time>2026-04-11T07:20:20.061Z</time></trkpt><trkpt lat="44.7386233" lon="7.8556367"><ele>387.0</ele><time>2026-04-11T07:20:22.062Z</time></trkpt><trkpt lat="44.7386117" lon="7.8557367"><ele>387.0</ele><time>2026-04-11T07:20:24.06Z</time></trkpt><trkpt lat="44.7386117" lon="7.8558433"><ele>387.0</ele><time>2026-04-11T07:20:27.061Z</time></trkpt><trkpt lat="44.7386933" lon="7.8559183"><ele>387.0</ele><time>2026-04-11T07:20:29.06Z</time></trkpt><trkpt lat="44.7387833" lon="7.8559833"><ele>387.0</ele><time>2026-04-11T07:20:31.059Z</time></trkpt><trkpt lat="44.738885" lon="7.8560533"><ele>387.0</ele><time>2026-04-11T07:20:33.061Z</time></trkpt><trkpt lat="44.738945" lon="7.8560883"><ele>387.0</ele><time>2026-04-11T07:20:34.06Z</time></trkpt><trkpt lat="44.73901" lon="7.8561083"><ele>387.0</ele><time>2026-04-11T07:20:35.061Z</time></trkpt><trkpt lat="44.739075" lon="7.8561333"><ele>387.0</ele><time>2026-04-11T07:20:36.061Z</time></trkpt><trkpt lat="44.7391917" lon="7.8561767"><ele>387.0</ele><time>2026-04-11T07:20:38.06Z</time></trkpt><trkpt lat="44.7392817" lon="7.8562333"><ele>387.0</ele><time>2026-04-11T07:20:40.06Z</time></trkpt><trkpt lat="44.7393833" lon="7.8563017"><ele>384.8</ele><time>2026-04-11T07:20:42.06Z</time></trkpt><trkpt lat="44.7394933" lon="7.8563717"><ele>382.6</ele><time>2026-04-11T07:20:44.059Z</time></trkpt><trkpt lat="44.739555" lon="7.8564067"><ele>380.40000000000003</ele><time>2026-04-11T07:20:45.061Z</time></trkpt><trkpt lat="44.739665" lon="7.8564467"><ele>378.20000000000005</ele><time>2026-04-11T07:20:47.06Z</time></trkpt><trkpt lat="44.7397383" lon="7.8565517"><ele>376.0</ele><time>2026-04-11T07:20:49.061Z</time></trkpt><trkpt lat="44.7398" lon="7.8566583"><ele>376.0</ele><time>2026-04-11T07:20:51.061Z</time></trkpt><trkpt lat="44.7398717" lon="7.856735"><ele>376.0</ele><time>2026-04-11T07:20:53.06Z</time></trkpt><trkpt lat="44.73996" lon="7.8567783"><ele>376.0</ele><time>2026-04-11T07:20:55.062Z</time></trkpt><trkpt lat="44.7400483" lon="7.8567583"><ele>376.0</ele><time>2026-04-11T07:20:57.06Z</time></trkpt><trkpt lat="44.7401333" lon="7.856775"><ele>376.0</ele><time>2026-04-11T07:20:59.063Z</time></trkpt><trkpt lat="44.740225" lon="7.856815"><ele>375.5</ele><time>2026-04-11T07:21:01.059Z</time></trkpt><trkpt lat="44.7403033" lon="7.8568617"><ele>375.0</ele><time>2026-04-11T07:21:03.059Z</time></trkpt><trkpt lat="44.7403883" lon="7.85684"><ele>374.5</ele><time>2026-04-11T07:21:06.059Z</time></trkpt><trkpt lat="44.7404683" lon="7.856805"><ele>374.0</ele><time>2026-04-11T07:21:08.059Z</time></trkpt><trkpt lat="44.7405467" lon="7.8567833"><ele>373.5</ele><time>2026-04-11T07:21:10.061Z</time></trkpt><trkpt lat="44.740625" lon="7.8567767"><ele>373.0</ele><time>2026-04-11T07:21:12.06Z</time></trkpt><trkpt lat="44.7407233" lon="7.85676"><ele>373.0</ele><time>2026-04-11T07:21:14.061Z</time></trkpt><trkpt lat="44.740825" lon="7.85674"><ele>373.0</ele><time>2026-04-11T07:21:16.06Z</time></trkpt><trkpt lat="44.7409283" lon="7.8567617"><ele>373.0</ele><time>2026-04-11T07:21:18.06Z</time></trkpt><trkpt lat="44.7410417" lon="7.856775"><ele>373.0</ele><time>2026-04-11T07:21:20.062Z</time></trkpt><trkpt lat="44.7411433" lon="7.8567817"><ele>373.0</ele><time>2026-04-11T07:21:22.06Z</time></trkpt><trkpt lat="44.74124" lon="7.8567817"><ele>372.66666666666663</ele><time>2026-04-11T07:21:24.059Z</time></trkpt><trkpt lat="44.74134" lon="7.8567567"><ele>372.3333333333333</ele><time>2026-04-11T07:21:26.062Z</time></trkpt><trkpt lat="44.7414033" lon="7.85676"><ele>372.0</ele><time>2026-04-11T07:21:27.061Z</time></trkpt><trkpt lat="44.7415267" lon="7.856755"><ele>371.6666666666667</ele><time>2026-04-11T07:21:29.055Z</time></trkpt><trkpt lat="44.74159" lon="7.85675"><ele>371.33333333333337</ele><time>2026-04-11T07:21:30.062Z</time></trkpt><trkpt lat="44.74166" lon="7.85675"><ele>371.0</ele><time>2026-04-11T07:21:31.061Z</time></trkpt><trkpt lat="44.7417233" lon="7.8567633"><ele>371.0</ele><time>2026-04-11T07:21:32.06Z</time></trkpt><trkpt lat="44.7417867" lon="7.8567767"><ele>371.0</ele><time>2026-04-11T07:21:33.059Z</time></trkpt><trkpt lat="44.7418483" lon="7.8568017"><ele>371.0</ele><time>2026-04-11T07:21:34.062Z</time></trkpt><trkpt lat="44.7419133" lon="7.8568483"><ele>371.0</ele><time>2026-04-11T07:21:35.06Z</time></trkpt><trkpt lat="44.7419667" lon="7.8569133"><ele>371.0</ele><time>2026-04-11T07:21:36.06Z</time></trkpt><trkpt lat="44.7420167" lon="7.85699"><ele>371.0</ele><time>2026-04-11T07:21:37.061Z</time></trkpt><trkpt lat="44.742065" lon="7.8570667"><ele>371.0</ele><time>2026-04-11T07:21:38.062Z</time></trkpt><trkpt lat="44.742115" lon="7.8571467"><ele>370.33333333333337</ele><time>2026-04-11T07:21:39.06Z</time></trkpt><trkpt lat="44.742175" lon="7.8572233"><ele>369.6666666666667</ele><time>2026-04-11T07:21:40.06Z</time></trkpt><trkpt lat="44.7422333" lon="7.8573083"><ele>369.0</ele><time>2026-04-11T07:21:41.06Z</time></trkpt><trkpt lat="44.7422917" lon="7.8573867"><ele>368.3333333333333</ele><time>2026-04-11T07:21:42.06Z</time></trkpt><trkpt lat="44.7423483" lon="7.8574567"><ele>367.66666666666663</ele><time>2026-04-11T07:21:43.061Z</time></trkpt><trkpt lat="44.7424017" lon="7.857525"><ele>367.0</ele><time>2026-04-11T07:21:44.06Z</time></trkpt><trkpt lat="44.7424567" lon="7.8575867"><ele>366.7142857142857</ele><time>2026-04-11T07:21:45.061Z</time></trkpt><trkpt lat="44.7425033" lon="7.85766"><ele>366.42857142857144</ele><time>2026-04-11T07:21:46.059Z</time></trkpt><trkpt lat="44.7425517" lon="7.857735"><ele>366.14285714285717</ele><time>2026-04-11T07:21:47.06Z</time></trkpt><trkpt lat="44.7426033" lon="7.8578017"><ele>365.8571428571429</ele><time>2026-04-11T07:21:48.059Z</time></trkpt><trkpt lat="44.7426517" lon="7.85787"><ele>365.57142857142856</ele><time>2026-04-11T07:21:49.061Z</time></trkpt><trkpt lat="44.7427017" lon="7.8579483"><ele>365.28571428571433</ele><time>2026-04-11T07:21:50.06Z</time></trkpt><trkpt lat="44.7427517" lon="7.8580267"><ele>365.0</ele><time>2026-04-11T07:21:51.062Z</time></trkpt><trkpt lat="44.7427933" lon="7.8581083"><ele>364.5</ele><time>2026-04-11T07:21:52.059Z</time></trkpt><trkpt lat="44.7428267" lon="7.8581933"><ele>364.0</ele><time>2026-04-11T07:21:53.06Z</time></trkpt><trkpt lat="44.7428567" lon="7.8582717"><ele>363.5</ele><time>2026-04-11T07:21:54.06Z</time></trkpt><trkpt lat="44.7429317" lon="7.8584117"><ele>363.0</ele><time>2026-04-11T07:21:56.059Z</time></trkpt><trkpt lat="44.7430183" lon="7.8584983"><ele>362.5</ele><time>2026-04-11T07:21:58.059Z</time></trkpt><trkpt lat="44.7430733" lon="7.8585467"><ele>362.0</ele><time>2026-04-11T07:21:59.059Z</time></trkpt><trkpt lat="44.7431233" lon="7.8586017"><ele>361.7142857142857</ele><time>2026-04-11T07:22:00.06Z</time></trkpt><trkpt lat="44.7431883" lon="7.8586567"><ele>361.42857142857144</ele><time>2026-04-11T07:22:01.06Z</time></trkpt><trkpt lat="44.7432433" lon="7.858725"><ele>361.1428571428571</ele><time>2026-04-11T07:22:02.061Z</time></trkpt><trkpt lat="44.7433117" lon="7.8587533"><ele>360.8571428571429</ele><time>2026-04-11T07:22:03.06Z</time></trkpt><trkpt lat="44.7433783" lon="7.8587683"><ele>360.5714285714286</ele><time>2026-04-11T07:22:04.059Z</time></trkpt><trkpt lat="44.743455" lon="7.8587867"><ele>360.2857142857143</ele><time>2026-04-11T07:22:05.059Z</time></trkpt><trkpt lat="44.743525" lon="7.8587967"><ele>360.0</ele><time>2026-04-11T07:22:06.061Z</time></trkpt><trkpt lat="44.7435933" lon="7.8588083"><ele>359.8333333333333</ele><time>2026-04-11T07:22:07.062Z</time></trkpt><trkpt lat="44.7436617" lon="7.858825"><ele>359.6666666666667</ele><time>2026-04-11T07:22:08.059Z</time></trkpt><trkpt lat="44.7437833" lon="7.8588633"><ele>359.5</ele><time>2026-04-11T07:22:10.061Z</time></trkpt><trkpt lat="44.7438417" lon="7.8588983"><ele>359.33333333333337</ele><time>2026-04-11T07:22:11.061Z</time></trkpt><trkpt lat="44.7438983" lon="7.8589417"><ele>359.1666666666667</ele><time>2026-04-11T07:22:12.059Z</time></trkpt><trkpt lat="44.743955" lon="7.8589983"><ele>359.0</ele><time>2026-04-11T07:22:13.062Z</time></trkpt><trkpt lat="44.7440083" lon="7.8590583"><ele>359.0</ele><time>2026-04-11T07:22:14.061Z</time></trkpt><trkpt lat="44.74406" lon="7.8591133"><ele>359.0</ele><time>2026-04-11T07:22:15.057Z</time></trkpt><trkpt lat="44.74411" lon="7.85917"><ele>359.0</ele><time>2026-04-11T07:22:16.06Z</time></trkpt><trkpt lat="44.7441617" lon="7.8592267"><ele>359.0</ele><time>2026-04-11T07:22:17.059Z</time></trkpt><trkpt lat="44.7442167" lon="7.8592767"><ele>359.0</ele><time>2026-04-11T07:22:18.058Z</time></trkpt><trkpt lat="44.7443183" lon="7.8593783"><ele>359.0</ele><time>2026-04-11T07:22:20.061Z</time></trkpt><trkpt lat="44.744375" lon="7.8594333"><ele>358.0</ele><time>2026-04-11T07:22:21.062Z</time></trkpt><trkpt lat="44.7444217" lon="7.8594933"><ele>357.0</ele><time>2026-04-11T07:22:22.058Z</time></trkpt><trkpt lat="44.7444983" lon="7.8596083"><ele>356.0</ele><time>2026-04-11T07:22:24.06Z</time></trkpt><trkpt lat="44.744565" lon="7.85969"><ele>355.0</ele><time>2026-04-11T07:22:26.06Z</time></trkpt><trkpt lat="44.7446117" lon="7.859775"><ele>354.0</ele><time>2026-04-11T07:22:28.059Z</time></trkpt><trkpt lat="44.74466" lon="7.859895"><ele>353.0</ele><time>2026-04-11T07:22:30.06Z</time></trkpt><trkpt lat="44.7447133" lon="7.8600433"><ele>353.0</ele><time>2026-04-11T07:22:32.06Z</time></trkpt><trkpt lat="44.7447733" lon="7.8601833"><ele>353.0</ele><time>2026-04-11T07:22:34.061Z</time></trkpt><trkpt lat="44.7448533" lon="7.860295"><ele>353.0</ele><time>2026-04-11T07:22:36.06Z</time></trkpt><trkpt lat="44.74492" lon="7.8604067"><ele>353.0</ele><time>2026-04-11T07:22:38.06Z</time></trkpt><trkpt lat="44.7449833" lon="7.860455"><ele>353.0</ele><time>2026-04-11T07:22:41.06Z</time></trkpt><trkpt lat="44.7450317" lon="7.8603533"><ele>353.0</ele><time>2026-04-11T07:22:44.06Z</time></trkpt><trkpt lat="44.7450767" lon="7.8602283"><ele>353.0</ele><time>2026-04-11T07:22:46.059Z</time></trkpt><trkpt lat="44.745135" lon="7.860065"><ele>353.0</ele><time>2026-04-11T07:22:48.059Z</time></trkpt><trkpt lat="44.745195" lon="7.8599433"><ele>353.0</ele><time>2026-04-11T07:22:50.062Z</time></trkpt><trkpt lat="44.74525" lon="7.859845"><ele>353.0</ele><time>2026-04-11T07:22:52.062Z</time></trkpt><trkpt lat="44.74535" lon="7.8597933"><ele>353.1666666666667</ele><time>2026-04-11T07:25:36.061Z</time></trkpt><trkpt lat="44.745285" lon="7.8598617"><ele>353.33333333333337</ele><time>2026-04-11T07:26:07.233Z</time></trkpt><trkpt lat="44.7452133" lon="7.8597783"><ele>353.5</ele><time>2026-04-11T07:26:22.061Z</time></trkpt><trkpt lat="44.74525" lon="7.8596267"><ele>353.6666666666667</ele><time>2026-04-11T07:27:34.06Z</time></trkpt><trkpt lat="44.7452883" lon="7.8597133"><ele>353.8333333333333</ele><time>2026-04-11T07:27:47.058Z</time></trkpt><trkpt lat="44.74536" lon="7.8596883"><ele>354.0</ele><time>2026-04-11T07:28:58.061Z</time></trkpt><trkpt lat="44.745415" lon="7.8596183"><ele>354.0</ele><time>2026-04-11T07:29:01.061Z</time></trkpt><trkpt lat="44.7455133" lon="7.8595267"><ele>354.0</ele><time>2026-04-11T07:29:04.06Z</time></trkpt><trkpt lat="44.7455667" lon="7.8594617"><ele>354.0</ele><time>2026-04-11T07:29:06.057Z</time></trkpt><trkpt lat="44.74562" lon="7.8593917"><ele>354.0</ele><time>2026-04-11T07:29:08.059Z</time></trkpt><trkpt lat="44.745665" lon="7.8593133"><ele>354.0</ele><time>2026-04-11T07:29:10.059Z</time></trkpt><trkpt lat="44.745705" lon="7.85924"><ele>354.0</ele><time>2026-04-11T07:29:12.059Z</time></trkpt><trkpt lat="44.7457633" lon="7.8591217"><ele>354.1666666666667</ele><time>2026-04-11T07:29:14.058Z</time></trkpt><trkpt lat="44.7458117" lon="7.8590417"><ele>354.3333333333333</ele><time>2026-04-11T07:29:17.062Z</time></trkpt><trkpt lat="44.74585" lon="7.85894"><ele>354.5</ele><time>2026-04-11T07:29:22.06Z</time></trkpt><trkpt lat="44.7458833" lon="7.8588517"><ele>354.66666666666663</ele><time>2026-04-11T07:29:24.061Z</time></trkpt><trkpt lat="44.7459267" lon="7.8587483"><ele>354.8333333333333</ele><time>2026-04-11T07:29:26.06Z</time></trkpt><trkpt lat="44.7459767" lon="7.8586383"><ele>355.0</ele><time>2026-04-11T07:29:28.057Z</time></trkpt><trkpt lat="44.7460467" lon="7.858525"><ele>354.2</ele><time>2026-04-11T07:29:30.06Z</time></trkpt><trkpt lat="44.7461283" lon="7.8584417"><ele>353.4</ele><time>2026-04-11T07:29:32.059Z</time></trkpt><trkpt lat="44.7462117" lon="7.8583767"><ele>352.6</ele><time>2026-04-11T07:29:34.054Z</time></trkpt><trkpt lat="44.746285" lon="7.8582933"><ele>351.8</ele><time>2026-04-11T07:29:36.054Z</time></trkpt><trkpt lat="44.7463467" lon="7.8581833"><ele>351.0</ele><time>2026-04-11T07:29:38.056Z</time></trkpt><trkpt lat="44.7464017" lon="7.858045"><ele>351.0</ele><time>2026-04-11T07:29:40.058Z</time></trkpt><trkpt lat="44.7464417" lon="7.8578867"><ele>351.0</ele><time>2026-04-11T07:29:42.056Z</time></trkpt><trkpt lat="44.7464733" lon="7.857735"><ele>351.0</ele><time>2026-04-11T07:29:44.058Z</time></trkpt><trkpt lat="44.7465117" lon="7.8575783"><ele>351.0</ele><time>2026-04-11T07:29:46.06Z</time></trkpt><trkpt lat="44.7465567" lon="7.8574367"><ele>351.0</ele><time>2026-04-11T07:29:48.06Z</time></trkpt><trkpt lat="44.746605" lon="7.85731"><ele>351.0</ele><time>2026-04-11T07:29:50.059Z</time></trkpt><trkpt lat="44.7466733" lon="7.857185"><ele>351.0</ele><time>2026-04-11T07:29:52.059Z</time></trkpt><trkpt lat="44.7467433" lon="7.8570683"><ele>351.0</ele><time>2026-04-11T07:29:54.058Z</time></trkpt><trkpt lat="44.746825" lon="7.8569417"><ele>351.0</ele><time>2026-04-11T07:29:56.058Z</time></trkpt><trkpt lat="44.7468717" lon="7.8568817"><ele>350.7142857142857</ele><time>2026-04-11T07:29:57.06Z</time></trkpt><trkpt lat="44.7469217" lon="7.85682"><ele>350.42857142857144</ele><time>2026-04-11T07:29:58.059Z</time></trkpt><trkpt lat="44.746975" lon="7.8567583"><ele>350.1428571428571</ele><time>2026-04-11T07:29:59.06Z</time></trkpt><trkpt lat="44.74703" lon="7.8567017"><ele>349.8571428571429</ele><time>2026-04-11T07:30:00.061Z</time></trkpt><trkpt lat="44.747085" lon="7.856645"><ele>349.57142857142856</ele><time>2026-04-11T07:30:01.062Z</time></trkpt><trkpt lat="44.74714" lon="7.8565917"><ele>349.2857142857143</ele><time>2026-04-11T07:30:02.057Z</time></trkpt><trkpt lat="44.7471967" lon="7.8565433"><ele>349.0</ele><time>2026-04-11T07:30:03.058Z</time></trkpt><trkpt lat="44.7472533" lon="7.85649"><ele>348.99999999999994</ele><time>2026-04-11T07:30:04.058Z</time></trkpt><trkpt lat="44.7473067" lon="7.85643"><ele>349.0</ele><time>2026-04-11T07:30:05.06Z</time></trkpt><trkpt lat="44.7473567" lon="7.8563583"><ele>349.0</ele><time>2026-04-11T07:30:06.061Z</time></trkpt><trkpt lat="44.7474017" lon="7.8562833"><ele>349.0</ele><time>2026-04-11T07:30:07.059Z</time></trkpt><trkpt lat="44.747445" lon="7.8562033"><ele>349.0</ele><time>2026-04-11T07:30:08.059Z</time></trkpt><trkpt lat="44.7474933" lon="7.856125"><ele>348.99999999999994</ele><time>2026-04-11T07:30:09.064Z</time></trkpt><trkpt lat="44.7475517" lon="7.8560533"><ele>349.0</ele><time>2026-04-11T07:30:10.059Z</time></trkpt><trkpt lat="44.7476183" lon="7.8559933"><ele>349.0</ele><time>2026-04-11T07:30:11.059Z</time></trkpt><trkpt lat="44.7476917" lon="7.8559433"><ele>349.0</ele><time>2026-04-11T07:30:12.061Z</time></trkpt><trkpt lat="44.7477717" lon="7.8559"><ele>349.0</ele><time>2026-04-11T07:30:13.062Z</time></trkpt><trkpt lat="44.7478483" lon="7.85585"><ele>349.0</ele><time>2026-04-11T07:30:14.058Z</time></trkpt><trkpt lat="44.7479233" lon="7.8558"><ele>349.0</ele><time>2026-04-11T07:30:15.061Z</time></trkpt><trkpt lat="44.7479967" lon="7.855745"><ele>349.0</ele><time>2026-04-11T07:30:16.06Z</time></trkpt><trkpt lat="44.7480683" lon="7.8556917"><ele>348.5</ele><time>2026-04-11T07:30:17.057Z</time></trkpt><trkpt lat="44.7481367" lon="7.855635"><ele>348.0</ele><time>2026-04-11T07:30:18.059Z</time></trkpt><trkpt lat="44.7482033" lon="7.855575"><ele>347.5</ele><time>2026-04-11T07:30:19.06Z</time></trkpt><trkpt lat="44.74827" lon="7.85551"><ele>347.0</ele><time>2026-04-11T07:30:20.059Z</time></trkpt><trkpt lat="44.7483383" lon="7.8554383"><ele>346.5</ele><time>2026-04-11T07:30:21.06Z</time></trkpt><trkpt lat="44.748405" lon="7.8553683"><ele>346.0</ele><time>2026-04-11T07:30:22.059Z</time></trkpt><trkpt lat="44.7484667" lon="7.8552917"><ele>346.0</ele><time>2026-04-11T07:30:23.056Z</time></trkpt><trkpt lat="44.7485267" lon="7.8552067"><ele>346.0</ele><time>2026-04-11T07:30:24.059Z</time></trkpt><trkpt lat="44.7485783" lon="7.8551117"><ele>346.0</ele><time>2026-04-11T07:30:25.06Z</time></trkpt><trkpt lat="44.7486233" lon="7.8550167"><ele>346.0</ele><time>2026-04-11T07:30:26.059Z</time></trkpt><trkpt lat="44.7486717" lon="7.85492"><ele>346.0</ele><time>2026-04-11T07:30:27.06Z</time></trkpt><trkpt lat="44.74872" lon="7.85482"><ele>346.0</ele><time>2026-04-11T07:30:28.058Z</time></trkpt><trkpt lat="44.74877" lon="7.854725"><ele>345.66666666666663</ele><time>2026-04-11T07:30:29.059Z</time></trkpt><trkpt lat="44.7488233" lon="7.854635"><ele>345.3333333333333</ele><time>2026-04-11T07:30:30.061Z</time></trkpt><trkpt lat="44.7488817" lon="7.854555"><ele>345.0</ele><time>2026-04-11T07:30:31.06Z</time></trkpt><trkpt lat="44.748945" lon="7.854485"><ele>344.6666666666667</ele><time>2026-04-11T07:30:32.059Z</time></trkpt><trkpt lat="44.7490133" lon="7.8544267"><ele>344.33333333333337</ele><time>2026-04-11T07:30:33.061Z</time></trkpt><trkpt lat="44.7490867" lon="7.8543817"><ele>344.0</ele><time>2026-04-11T07:30:34.059Z</time></trkpt><trkpt lat="44.7491583" lon="7.85434"><ele>344.0</ele><time>2026-04-11T07:30:35.059Z</time></trkpt><trkpt lat="44.74923" lon="7.8542967"><ele>344.0</ele><time>2026-04-11T07:30:36.06Z</time></trkpt><trkpt lat="44.7493" lon="7.8542533"><ele>344.0</ele><time>2026-04-11T07:30:37.059Z</time></trkpt><trkpt lat="44.74937" lon="7.8542067"><ele>344.0</ele><time>2026-04-11T07:30:38.06Z</time></trkpt><trkpt lat="44.749435" lon="7.8541533"><ele>344.0</ele><time>2026-04-11T07:30:39.06Z</time></trkpt><trkpt lat="44.7495" lon="7.854095"><ele>344.0</ele><time>2026-04-11T07:30:40.06Z</time></trkpt><trkpt lat="44.7495633" lon="7.8540383"><ele>343.6666666666667</ele><time>2026-04-11T07:30:41.059Z</time></trkpt><trkpt lat="44.74962" lon="7.8539817"><ele>343.33333333333337</ele><time>2026-04-11T07:30:42.058Z</time></trkpt><trkpt lat="44.749675" lon="7.85393"><ele>343.0</ele><time>2026-04-11T07:30:43.059Z</time></trkpt><trkpt lat="44.7497633" lon="7.8538117"><ele>342.6666666666667</ele><time>2026-04-11T07:30:45.061Z</time></trkpt><trkpt lat="44.7498533" lon="7.853705"><ele>342.3333333333333</ele><time>2026-04-11T07:30:47.056Z</time></trkpt><trkpt lat="44.7499067" lon="7.8536533"><ele>342.0</ele><time>2026-04-11T07:30:48.059Z</time></trkpt><trkpt lat="44.7499617" lon="7.8535967"><ele>342.0</ele><time>2026-04-11T07:30:49.06Z</time></trkpt><trkpt lat="44.7500133" lon="7.8535317"><ele>342.0</ele><time>2026-04-11T07:30:50.06Z</time></trkpt><trkpt lat="44.7500583" lon="7.8534633"><ele>342.0</ele><time>2026-04-11T07:30:51.058Z</time></trkpt><trkpt lat="44.750105" lon="7.8534"><ele>342.0</ele><time>2026-04-11T07:30:52.059Z</time></trkpt><trkpt lat="44.7501533" lon="7.85334"><ele>342.0</ele><time>2026-04-11T07:30:53.058Z</time></trkpt><trkpt lat="44.7502" lon="7.8532767"><ele>342.0</ele><time>2026-04-11T07:30:54.06Z</time></trkpt><trkpt lat="44.750285" lon="7.8531483"><ele>342.3333333333333</ele><time>2026-04-11T07:30:56.062Z</time></trkpt><trkpt lat="44.7503783" lon="7.853025"><ele>342.6666666666667</ele><time>2026-04-11T07:30:58.059Z</time></trkpt><trkpt lat="44.750425" lon="7.8529567"><ele>343.0</ele><time>2026-04-11T07:30:59.059Z</time></trkpt><trkpt lat="44.7504717" lon="7.8528833"><ele>343.33333333333337</ele><time>2026-04-11T07:31:00.063Z</time></trkpt><trkpt lat="44.7505183" lon="7.852805"><ele>343.6666666666667</ele><time>2026-04-11T07:31:01.061Z</time></trkpt><trkpt lat="44.7505617" lon="7.85272"><ele>344.0</ele><time>2026-04-11T07:31:02.06Z</time></trkpt><trkpt lat="44.7506017" lon="7.8526333"><ele>343.5</ele><time>2026-04-11T07:31:03.062Z</time></trkpt><trkpt lat="44.7506433" lon="7.8525467"><ele>343.0</ele><time>2026-04-11T07:31:04.06Z</time></trkpt><trkpt lat="44.750685" lon="7.8524583"><ele>342.5</ele><time>2026-04-11T07:31:05.061Z</time></trkpt><trkpt lat="44.7507233" lon="7.8523667"><ele>342.0</ele><time>2026-04-11T07:31:06.061Z</time></trkpt><trkpt lat="44.7507633" lon="7.8522717"><ele>341.5</ele><time>2026-04-11T07:31:07.059Z</time></trkpt><trkpt lat="44.7508" lon="7.85217"><ele>341.0</ele><time>2026-04-11T07:31:08.061Z</time></trkpt><trkpt lat="44.7508383" lon="7.8520633"><ele>341.0</ele><time>2026-04-11T07:31:09.06Z</time></trkpt><trkpt lat="44.7508783" lon="7.8519583"><ele>341.0</ele><time>2026-04-11T07:31:10.06Z</time></trkpt><trkpt lat="44.7509167" lon="7.8518483"><ele>341.0</ele><time>2026-04-11T07:31:11.061Z</time></trkpt><trkpt lat="44.750955" lon="7.8517383"><ele>341.0</ele><time>2026-04-11T07:31:12.062Z</time></trkpt><trkpt lat="44.750995" lon="7.8516283"><ele>341.0</ele><time>2026-04-11T07:31:13.061Z</time></trkpt><trkpt lat="44.7510383" lon="7.8515217"><ele>341.0</ele><time>2026-04-11T07:31:14.061Z</time></trkpt><trkpt lat="44.75108" lon="7.8514167"><ele>340.6666666666667</ele><time>2026-04-11T07:31:15.062Z</time></trkpt><trkpt lat="44.75112" lon="7.8513117"><ele>340.33333333333337</ele><time>2026-04-11T07:31:16.059Z</time></trkpt><trkpt lat="44.751165" lon="7.85121"><ele>340.0</ele><time>2026-04-11T07:31:17.059Z</time></trkpt><trkpt lat="44.7512117" lon="7.85111"><ele>339.6666666666667</ele><time>2026-04-11T07:31:18.062Z</time></trkpt><trkpt lat="44.7512567" lon="7.851015"><ele>339.3333333333333</ele><time>2026-04-11T07:31:19.06Z</time></trkpt><trkpt lat="44.7513033" lon="7.850925"><ele>339.0</ele><time>2026-04-11T07:31:20.06Z</time></trkpt><trkpt lat="44.75135" lon="7.8508367"><ele>338.6666666666667</ele><time>2026-04-11T07:31:21.062Z</time></trkpt><trkpt lat="44.7513967" lon="7.85075"><ele>338.3333333333333</ele><time>2026-04-11T07:31:22.061Z</time></trkpt><trkpt lat="44.7514467" lon="7.8506633"><ele>338.0</ele><time>2026-04-11T07:31:23.069Z</time></trkpt><trkpt lat="44.7514917" lon="7.8505783"><ele>337.66666666666663</ele><time>2026-04-11T07:31:24.062Z</time></trkpt><trkpt lat="44.75154" lon="7.8504933"><ele>337.3333333333333</ele><time>2026-04-11T07:31:25.06Z</time></trkpt><trkpt lat="44.7515917" lon="7.8504117"><ele>337.0</ele><time>2026-04-11T07:31:26.06Z</time></trkpt><trkpt lat="44.7516367" lon="7.8503283"><ele>337.0</ele><time>2026-04-11T07:31:27.06Z</time></trkpt><trkpt lat="44.7516783" lon="7.8502483"><ele>337.0</ele><time>2026-04-11T07:31:28.061Z</time></trkpt><trkpt lat="44.7517217" lon="7.850165"><ele>337.0</ele><time>2026-04-11T07:31:29.06Z</time></trkpt><trkpt lat="44.7517633" lon="7.85009"><ele>337.0</ele><time>2026-04-11T07:31:30.06Z</time></trkpt><trkpt lat="44.751805" lon="7.8500183"><ele>337.0</ele><time>2026-04-11T07:31:31.061Z</time></trkpt><trkpt lat="44.7518767" lon="7.849885"><ele>337.0</ele><time>2026-04-11T07:31:33.06Z</time></trkpt><trkpt lat="44.7519467" lon="7.8497567"><ele>337.0</ele><time>2026-04-11T07:31:35.06Z</time></trkpt><trkpt lat="44.7520233" lon="7.8496183"><ele>337.0</ele><time>2026-04-11T07:31:37.06Z</time></trkpt><trkpt lat="44.7520917" lon="7.84948"><ele>337.0</ele><time>2026-04-11T07:31:39.06Z</time></trkpt><trkpt lat="44.7521533" lon="7.8493317"><ele>337.0</ele><time>2026-04-11T07:31:41.059Z</time></trkpt><trkpt lat="44.75221" lon="7.8491783"><ele>336.5</ele><time>2026-04-11T07:31:43.062Z</time></trkpt><trkpt lat="44.7522683" lon="7.8490317"><ele>336.0</ele><time>2026-04-11T07:31:45.06Z</time></trkpt><trkpt lat="44.7523267" lon="7.8488817"><ele>335.5</ele><time>2026-04-11T07:31:47.06Z</time></trkpt><trkpt lat="44.752385" lon="7.8487367"><ele>335.0</ele><time>2026-04-11T07:31:49.062Z</time></trkpt><trkpt lat="44.7524433" lon="7.8485983"><ele>334.83333333333337</ele><time>2026-04-11T07:31:51.061Z</time></trkpt><trkpt lat="44.7524833" lon="7.8484517"><ele>334.6666666666667</ele><time>2026-04-11T07:31:53.06Z</time></trkpt><trkpt lat="44.7525467" lon="7.8482983"><ele>334.5</ele><time>2026-04-11T07:31:55.061Z</time></trkpt><trkpt lat="44.75258" lon="7.84822"><ele>334.3333333333333</ele><time>2026-04-11T07:31:56.06Z</time></trkpt><trkpt lat="44.7526167" lon="7.8481367"><ele>334.16666666666663</ele><time>2026-04-11T07:31:57.06Z</time></trkpt><trkpt lat="44.7526517" lon="7.8480517"><ele>334.0</ele><time>2026-04-11T07:31:58.062Z</time></trkpt><trkpt lat="44.7526817" lon="7.8479683"><ele>334.0</ele><time>2026-04-11T07:31:59.06Z</time></trkpt><trkpt lat="44.752715" lon="7.8478833"><ele>334.0</ele><time>2026-04-11T07:32:00.06Z</time></trkpt><trkpt lat="44.7527483" lon="7.8477967"><ele>334.0</ele><time>2026-04-11T07:32:01.062Z</time></trkpt><trkpt lat="44.7527783" lon="7.84771"><ele>334.0</ele><time>2026-04-11T07:32:02.064Z</time></trkpt><trkpt lat="44.7528117" lon="7.847625"><ele>334.0</ele><time>2026-04-11T07:32:03.062Z</time></trkpt><trkpt lat="44.752845" lon="7.8475417"><ele>334.0</ele><time>2026-04-11T07:32:04.059Z</time></trkpt><trkpt lat="44.75288" lon="7.8474583"><ele>334.0</ele><time>2026-04-11T07:32:05.059Z</time></trkpt><trkpt lat="44.75292" lon="7.847375"><ele>333.85714285714283</ele><time>2026-04-11T07:32:06.06Z</time></trkpt><trkpt lat="44.75296" lon="7.8472917"><ele>333.7142857142857</ele><time>2026-04-11T07:32:07.061Z</time></trkpt><trkpt lat="44.7529967" lon="7.8472117"><ele>333.57142857142856</ele><time>2026-04-11T07:32:08.061Z</time></trkpt><trkpt lat="44.7530367" lon="7.8471333"><ele>333.42857142857144</ele><time>2026-04-11T07:32:09.061Z</time></trkpt><trkpt lat="44.7530783" lon="7.8470533"><ele>333.2857142857143</ele><time>2026-04-11T07:32:10.06Z</time></trkpt><trkpt lat="44.7531217" lon="7.84698"><ele>333.14285714285717</ele><time>2026-04-11T07:32:11.059Z</time></trkpt><trkpt lat="44.7531617" lon="7.84691"><ele>333.0</ele><time>2026-04-11T07:32:12.062Z</time></trkpt><trkpt lat="44.7532033" lon="7.8468367"><ele>333.14285714285717</ele><time>2026-04-11T07:32:13.06Z</time></trkpt><trkpt lat="44.75324" lon="7.84676"><ele>333.2857142857143</ele><time>2026-04-11T07:32:14.062Z</time></trkpt><trkpt lat="44.7532683" lon="7.8466767"><ele>333.42857142857144</ele><time>2026-04-11T07:32:15.061Z</time></trkpt><trkpt lat="44.7532817" lon="7.84659"><ele>333.57142857142856</ele><time>2026-04-11T07:32:16.062Z</time></trkpt><trkpt lat="44.7532783" lon="7.8464967"><ele>333.7142857142857</ele><time>2026-04-11T07:32:17.061Z</time></trkpt><trkpt lat="44.7532733" lon="7.846405"><ele>333.85714285714283</ele><time>2026-04-11T07:32:18.062Z</time></trkpt><trkpt lat="44.753275" lon="7.8463117"><ele>334.0</ele><time>2026-04-11T07:32:19.06Z</time></trkpt><trkpt lat="44.7532733" lon="7.8462183"><ele>334.0</ele><time>2026-04-11T07:32:20.061Z</time></trkpt><trkpt lat="44.7532717" lon="7.846125"><ele>334.0</ele><time>2026-04-11T07:32:21.061Z</time></trkpt><trkpt lat="44.7532683" lon="7.846035"><ele>334.0</ele><time>2026-04-11T07:32:22.061Z</time></trkpt><trkpt lat="44.7532617" lon="7.845945"><ele>334.0</ele><time>2026-04-11T07:32:23.061Z</time></trkpt><trkpt lat="44.75325" lon="7.845855"><ele>334.0</ele><time>2026-04-11T07:32:24.062Z</time></trkpt><trkpt lat="44.7532417" lon="7.845765"><ele>334.0</ele><time>2026-04-11T07:32:25.06Z</time></trkpt><trkpt lat="44.75323" lon="7.8455917"><ele>334.0</ele><time>2026-04-11T07:32:27.062Z</time></trkpt><trkpt lat="44.753225" lon="7.8455033"><ele>334.0</ele><time>2026-04-11T07:32:28.061Z</time></trkpt><trkpt lat="44.7532183" lon="7.845415"><ele>334.0</ele><time>2026-04-11T07:32:29.061Z</time></trkpt><trkpt lat="44.7532167" lon="7.8453217"><ele>334.0</ele><time>2026-04-11T07:32:30.062Z</time></trkpt><trkpt lat="44.753215" lon="7.8452217"><ele>334.0</ele><time>2026-04-11T07:32:31.067Z</time></trkpt><trkpt lat="44.7532117" lon="7.8451217"><ele>334.0</ele><time>2026-04-11T07:32:32.061Z</time></trkpt><trkpt lat="44.7532133" lon="7.84502"><ele>334.0</ele><time>2026-04-11T07:32:33.06Z</time></trkpt><trkpt lat="44.7532183" lon="7.844925"><ele>334.0</ele><time>2026-04-11T07:32:34.06Z</time></trkpt><trkpt lat="44.75322" lon="7.84483"><ele>333.8333333333333</ele><time>2026-04-11T07:32:35.06Z</time></trkpt><trkpt lat="44.7532267" lon="7.84473"><ele>333.66666666666663</ele><time>2026-04-11T07:32:36.06Z</time></trkpt><trkpt lat="44.7532383" lon="7.8446267"><ele>333.5</ele><time>2026-04-11T07:32:37.061Z</time></trkpt><trkpt lat="44.7532567" lon="7.844525"><ele>333.3333333333333</ele><time>2026-04-11T07:32:38.062Z</time></trkpt><trkpt lat="44.7532833" lon="7.8444283"><ele>333.1666666666667</ele><time>2026-04-11T07:32:39.062Z</time></trkpt><trkpt lat="44.75331" lon="7.84433"><ele>333.0</ele><time>2026-04-11T07:32:40.062Z</time></trkpt><trkpt lat="44.7533333" lon="7.8442167"><ele>333.3333333333333</ele><time>2026-04-11T07:32:41.06Z</time></trkpt><trkpt lat="44.7533583" lon="7.8441067"><ele>333.6666666666667</ele><time>2026-04-11T07:32:42.06Z</time></trkpt><trkpt lat="44.753385" lon="7.8439983"><ele>334.0</ele><time>2026-04-11T07:32:43.059Z</time></trkpt><trkpt lat="44.753415" lon="7.843885"><ele>334.33333333333337</ele><time>2026-04-11T07:32:44.059Z</time></trkpt><trkpt lat="44.7534417" lon="7.8437733"><ele>334.6666666666667</ele><time>2026-04-11T07:32:45.062Z</time></trkpt><trkpt lat="44.753465" lon="7.8436617"><ele>335.0</ele><time>2026-04-11T07:32:46.06Z</time></trkpt><trkpt lat="44.7534867" lon="7.8435533"><ele>334.5</ele><time>2026-04-11T07:32:47.059Z</time></trkpt><trkpt lat="44.7535017" lon="7.8434417"><ele>334.0</ele><time>2026-04-11T07:32:48.061Z</time></trkpt><trkpt lat="44.7535033" lon="7.843325"><ele>333.5</ele><time>2026-04-11T07:32:49.061Z</time></trkpt><trkpt lat="44.7535033" lon="7.8432117"><ele>333.0</ele><time>2026-04-11T07:32:50.061Z</time></trkpt><trkpt lat="44.753505" lon="7.8430967"><ele>332.5</ele><time>2026-04-11T07:32:51.06Z</time></trkpt><trkpt lat="44.7535117" lon="7.8429883"><ele>332.0</ele><time>2026-04-11T07:32:52.062Z</time></trkpt><trkpt lat="44.7535267" lon="7.84288"><ele>332.1666666666667</ele><time>2026-04-11T07:32:53.059Z</time></trkpt><trkpt lat="44.75355" lon="7.8427767"><ele>332.33333333333337</ele><time>2026-04-11T07:32:54.06Z</time></trkpt><trkpt lat="44.753585" lon="7.842675"><ele>332.5</ele><time>2026-04-11T07:32:55.061Z</time></trkpt><trkpt lat="44.7536233" lon="7.8425733"><ele>332.6666666666667</ele><time>2026-04-11T07:32:56.061Z</time></trkpt><trkpt lat="44.7536583" lon="7.84247"><ele>332.8333333333333</ele><time>2026-04-11T07:32:57.06Z</time></trkpt><trkpt lat="44.7536883" lon="7.8423667"><ele>333.0</ele><time>2026-04-11T07:32:58.061Z</time></trkpt><trkpt lat="44.753725" lon="7.8422683"><ele>332.6666666666667</ele><time>2026-04-11T07:32:59.06Z</time></trkpt><trkpt lat="44.7537667" lon="7.8421733"><ele>332.3333333333333</ele><time>2026-04-11T07:33:00.06Z</time></trkpt><trkpt lat="44.75381" lon="7.842075"><ele>332.0</ele><time>2026-04-11T07:33:01.059Z</time></trkpt><trkpt lat="44.7538517" lon="7.8419783"><ele>331.66666666666663</ele><time>2026-04-11T07:33:02.06Z</time></trkpt><trkpt lat="44.7539017" lon="7.841885"><ele>331.3333333333333</ele><time>2026-04-11T07:33:03.062Z</time></trkpt><trkpt lat="44.7539517" lon="7.8417967"><ele>331.0</ele><time>2026-04-11T07:33:04.061Z</time></trkpt><trkpt lat="44.7540067" lon="7.8417083"><ele>330.8333333333333</ele><time>2026-04-11T07:33:05.061Z</time></trkpt><trkpt lat="44.7540583" lon="7.8416367"><ele>330.66666666666663</ele><time>2026-04-11T07:33:06.062Z</time></trkpt><trkpt lat="44.754115" lon="7.8415633"><ele>330.5</ele><time>2026-04-11T07:33:07.06Z</time></trkpt><trkpt lat="44.7541633" lon="7.8414883"><ele>330.3333333333333</ele><time>2026-04-11T07:33:08.061Z</time></trkpt><trkpt lat="44.7542133" lon="7.8414033"><ele>330.1666666666667</ele><time>2026-04-11T07:33:09.061Z</time></trkpt><trkpt lat="44.754265" lon="7.84132"><ele>330.0</ele><time>2026-04-11T07:33:10.061Z</time></trkpt><trkpt lat="44.7543167" lon="7.8412333"><ele>330.00000000000006</ele><time>2026-04-11T07:33:11.06Z</time></trkpt><trkpt lat="44.7543617" lon="7.8411517"><ele>330.0</ele><time>2026-04-11T07:33:12.062Z</time></trkpt><trkpt lat="44.754405" lon="7.841075"><ele>330.0</ele><time>2026-04-11T07:33:13.06Z</time></trkpt><trkpt lat="44.7544533" lon="7.8410017"><ele>330.0</ele><time>2026-04-11T07:33:14.059Z</time></trkpt><trkpt lat="44.7545067" lon="7.8409267"><ele>330.0</ele><time>2026-04-11T07:33:15.061Z</time></trkpt><trkpt lat="44.7545617" lon="7.8408567"><ele>330.00000000000006</ele><time>2026-04-11T07:33:16.06Z</time></trkpt><trkpt lat="44.75462" lon="7.840795"><ele>330.0</ele><time>2026-04-11T07:33:17.06Z</time></trkpt><trkpt lat="44.75468" lon="7.8407383"><ele>329.5</ele><time>2026-04-11T07:33:18.062Z</time></trkpt><trkpt lat="44.7547367" lon="7.840675"><ele>329.0</ele><time>2026-04-11T07:33:19.063Z</time></trkpt><trkpt lat="44.754785" lon="7.8406067"><ele>328.5</ele><time>2026-04-11T07:33:20.06Z</time></trkpt><trkpt lat="44.7548333" lon="7.8405367"><ele>328.0</ele><time>2026-04-11T07:33:21.06Z</time></trkpt><trkpt lat="44.7548867" lon="7.840475"><ele>327.5</ele><time>2026-04-11T07:33:22.06Z</time></trkpt><trkpt lat="44.7549633" lon="7.84033"><ele>327.0</ele><time>2026-04-11T07:33:24.061Z</time></trkpt><trkpt lat="44.75499" lon="7.8402383"><ele>327.0</ele><time>2026-04-11T07:33:25.061Z</time></trkpt><trkpt lat="44.7550233" lon="7.8401483"><ele>327.0</ele><time>2026-04-11T07:33:26.062Z</time></trkpt><trkpt lat="44.7550517" lon="7.8400517"><ele>327.0</ele><time>2026-04-11T07:33:27.06Z</time></trkpt><trkpt lat="44.75508" lon="7.8399567"><ele>327.0</ele><time>2026-04-11T07:33:28.061Z</time></trkpt><trkpt lat="44.755105" lon="7.8398617"><ele>327.0</ele><time>2026-04-11T07:33:29.061Z</time></trkpt><trkpt lat="44.755125" lon="7.8397617"><ele>327.0</ele><time>2026-04-11T07:33:30.062Z</time></trkpt><trkpt lat="44.75514" lon="7.8396617"><ele>327.0</ele><time>2026-04-11T07:33:31.062Z</time></trkpt><trkpt lat="44.7551483" lon="7.8395617"><ele>327.0</ele><time>2026-04-11T07:33:32.061Z</time></trkpt><trkpt lat="44.75516" lon="7.8394617"><ele>327.0</ele><time>2026-04-11T07:33:33.062Z</time></trkpt><trkpt lat="44.7551733" lon="7.8393633"><ele>327.0</ele><time>2026-04-11T07:33:34.058Z</time></trkpt><trkpt lat="44.7551833" lon="7.8392683"><ele>327.0</ele><time>2026-04-11T07:33:35.06Z</time></trkpt><trkpt lat="44.755185" lon="7.8391733"><ele>327.0</ele><time>2026-04-11T07:33:36.059Z</time></trkpt><trkpt lat="44.7551867" lon="7.83908"><ele>327.0</ele><time>2026-04-11T07:33:37.058Z</time></trkpt><trkpt lat="44.7551767" lon="7.83895"><ele>327.0</ele><time>2026-04-11T07:33:39.062Z</time></trkpt><trkpt lat="44.75517" lon="7.8388367"><ele>326.85714285714283</ele><time>2026-04-11T07:33:42.062Z</time></trkpt><trkpt lat="44.7552067" lon="7.83876"><ele>326.7142857142857</ele><time>2026-04-11T07:33:44.061Z</time></trkpt><trkpt lat="44.7552517" lon="7.8386817"><ele>326.57142857142856</ele><time>2026-04-11T07:33:46.062Z</time></trkpt><trkpt lat="44.7552983" lon="7.838595"><ele>326.42857142857144</ele><time>2026-04-11T07:33:48.059Z</time></trkpt><trkpt lat="44.75533" lon="7.8385167"><ele>326.2857142857143</ele><time>2026-04-11T07:33:50.059Z</time></trkpt><trkpt lat="44.7553667" lon="7.83843"><ele>326.14285714285717</ele><time>2026-04-11T07:33:53.061Z</time></trkpt><trkpt lat="44.7554167" lon="7.8383633"><ele>326.0</ele><time>2026-04-11T07:33:55.062Z</time></trkpt><trkpt lat="44.75547" lon="7.8382883"><ele>326.0</ele><time>2026-04-11T07:33:57.06Z</time></trkpt><trkpt lat="44.75555" lon="7.8382233"><ele>326.0</ele><time>2026-04-11T07:33:59.06Z</time></trkpt><trkpt lat="44.75562" lon="7.8381833"><ele>326.0</ele><time>2026-04-11T07:34:01.061Z</time></trkpt><trkpt lat="44.75569" lon="7.838145"><ele>326.0</ele><time>2026-04-11T07:34:03.061Z</time></trkpt><trkpt lat="44.7557567" lon="7.8381117"><ele>326.0</ele><time>2026-04-11T07:34:05.058Z</time></trkpt><trkpt lat="44.7558433" lon="7.8380767"><ele>326.0</ele><time>2026-04-11T07:34:07.061Z</time></trkpt><trkpt lat="44.75594" lon="7.8380433"><ele>326.4</ele><time>2026-04-11T07:34:09.062Z</time></trkpt><trkpt lat="44.7560433" lon="7.8379983"><ele>326.8</ele><time>2026-04-11T07:34:11.06Z</time></trkpt><trkpt lat="44.756145" lon="7.8379217"><ele>327.2</ele><time>2026-04-11T07:34:13.059Z</time></trkpt><trkpt lat="44.75625" lon="7.8378317"><ele>327.59999999999997</ele><time>2026-04-11T07:34:15.06Z</time></trkpt><trkpt lat="44.756305" lon="7.8377833"><ele>328.0</ele><time>2026-04-11T07:34:16.06Z</time></trkpt><trkpt lat="44.75641" lon="7.8376883"><ele>326.75</ele><time>2026-04-11T07:34:18.061Z</time></trkpt><trkpt lat="44.7565117" lon="7.8375933"><ele>325.5</ele><time>2026-04-11T07:34:20.06Z</time></trkpt><trkpt lat="44.756605" lon="7.837505"><ele>324.25</ele><time>2026-04-11T07:34:22.061Z</time></trkpt><trkpt lat="44.7567033" lon="7.8374267"><ele>323.0</ele><time>2026-04-11T07:34:24.061Z</time></trkpt><trkpt lat="44.7567967" lon="7.8373333"><ele>322.59999999999997</ele><time>2026-04-11T07:34:26.06Z</time></trkpt><trkpt lat="44.7568917" lon="7.8372367"><ele>322.2</ele><time>2026-04-11T07:34:28.06Z</time></trkpt><trkpt lat="44.756975" lon="7.8371383"><ele>321.8</ele><time>2026-04-11T07:34:30.06Z</time></trkpt><trkpt lat="44.757055" lon="7.8370533"><ele>321.4</ele><time>2026-04-11T07:34:32.061Z</time></trkpt><trkpt lat="44.7571483" lon="7.8369767"><ele>321.0</ele><time>2026-04-11T07:34:34.061Z</time></trkpt><trkpt lat="44.7572317" lon="7.8368917"><ele>321.0</ele><time>2026-04-11T07:34:36.058Z</time></trkpt><trkpt lat="44.7573017" lon="7.8368167"><ele>321.0</ele><time>2026-04-11T07:34:38.061Z</time></trkpt><trkpt lat="44.7573717" lon="7.8367267"><ele>321.0</ele><time>2026-04-11T07:34:40.062Z</time></trkpt><trkpt lat="44.7574583" lon="7.8366483"><ele>321.0</ele><time>2026-04-11T07:34:42.06Z</time></trkpt><trkpt lat="44.7575467" lon="7.83659"><ele>321.0</ele><time>2026-04-11T07:34:44.06Z</time></trkpt><trkpt lat="44.7576433" lon="7.8365333"><ele>321.0</ele><time>2026-04-11T07:34:46.061Z</time></trkpt><trkpt lat="44.7577417" lon="7.83648"><ele>321.0</ele><time>2026-04-11T07:34:48.061Z</time></trkpt><trkpt lat="44.7578483" lon="7.83643"><ele>321.0</ele><time>2026-04-11T07:34:50.062Z</time></trkpt><trkpt lat="44.757955" lon="7.8363983"><ele>321.0</ele><time>2026-04-11T07:34:52.061Z</time></trkpt><trkpt lat="44.758055" lon="7.836365"><ele>321.0</ele><time>2026-04-11T07:34:54.059Z</time></trkpt><trkpt lat="44.758155" lon="7.8363383"><ele>321.0</ele><time>2026-04-11T07:34:56.062Z</time></trkpt><trkpt lat="44.7582633" lon="7.83629"><ele>321.0</ele><time>2026-04-11T07:34:58.06Z</time></trkpt><trkpt lat="44.7583717" lon="7.8362533"><ele>321.0</ele><time>2026-04-11T07:35:00.058Z</time></trkpt><trkpt lat="44.7584733" lon="7.8362167"><ele>321.0</ele><time>2026-04-11T07:35:02.061Z</time></trkpt><trkpt lat="44.7585683" lon="7.8361833"><ele>321.0</ele><time>2026-04-11T07:35:04.06Z</time></trkpt><trkpt lat="44.7586717" lon="7.8361517"><ele>321.4</ele><time>2026-04-11T07:35:06.06Z</time></trkpt><trkpt lat="44.7587767" lon="7.836125"><ele>321.8</ele><time>2026-04-11T07:35:08.06Z</time></trkpt><trkpt lat="44.7588783" lon="7.83608"><ele>322.2</ele><time>2026-04-11T07:35:10.061Z</time></trkpt><trkpt lat="44.758975" lon="7.8360283"><ele>322.59999999999997</ele><time>2026-04-11T07:35:12.061Z</time></trkpt><trkpt lat="44.7590717" lon="7.8359633"><ele>323.0</ele><time>2026-04-11T07:35:14.06Z</time></trkpt><trkpt lat="44.7591533" lon="7.8358683"><ele>323.0</ele><time>2026-04-11T07:35:16.063Z</time></trkpt><trkpt lat="44.759225" lon="7.8357467"><ele>323.0</ele><time>2026-04-11T07:35:18.062Z</time></trkpt><trkpt lat="44.7592883" lon="7.83562"><ele>323.0</ele><time>2026-04-11T07:35:20.061Z</time></trkpt><trkpt lat="44.75936" lon="7.8354867"><ele>323.0</ele><time>2026-04-11T07:35:22.06Z</time></trkpt><trkpt lat="44.7594283" lon="7.8353517"><ele>322.5</ele><time>2026-04-11T07:35:24.061Z</time></trkpt><trkpt lat="44.759505" lon="7.8352217"><ele>322.0</ele><time>2026-04-11T07:35:26.061Z</time></trkpt><trkpt lat="44.7595917" lon="7.835105"><ele>321.5</ele><time>2026-04-11T07:35:28.061Z</time></trkpt><trkpt lat="44.7596783" lon="7.8349917"><ele>321.0</ele><time>2026-04-11T07:35:30.061Z</time></trkpt><trkpt lat="44.7597733" lon="7.8348833"><ele>321.0</ele><time>2026-04-11T07:35:32.061Z</time></trkpt><trkpt lat="44.75987" lon="7.8347733"><ele>321.0</ele><time>2026-04-11T07:35:34.06Z</time></trkpt><trkpt lat="44.75996" lon="7.8346683"><ele>321.0</ele><time>2026-04-11T07:35:36.06Z</time></trkpt><trkpt lat="44.760045" lon="7.8345567"><ele>321.0</ele><time>2026-04-11T07:35:38.061Z</time></trkpt><trkpt lat="44.76013" lon="7.83445"><ele>320.5</ele><time>2026-04-11T07:35:40.061Z</time></trkpt><trkpt lat="44.7602167" lon="7.8343283"><ele>320.0</ele><time>2026-04-11T07:35:42.059Z</time></trkpt><trkpt lat="44.7603017" lon="7.834205"><ele>319.5</ele><time>2026-04-11T07:35:44.061Z</time></trkpt><trkpt lat="44.7603767" lon="7.8340733"><ele>319.0</ele><time>2026-04-11T07:35:46.061Z</time></trkpt><trkpt lat="44.760445" lon="7.8339417"><ele>319.0</ele><time>2026-04-11T07:35:48.059Z</time></trkpt><trkpt lat="44.7605233" lon="7.8338183"><ele>319.0</ele><time>2026-04-11T07:35:50.061Z</time></trkpt><trkpt lat="44.7605967" lon="7.8336967"><ele>319.0</ele><time>2026-04-11T07:35:52.061Z</time></trkpt><trkpt lat="44.76067" lon="7.833585"><ele>319.0</ele><time>2026-04-11T07:35:54.062Z</time></trkpt><trkpt lat="44.7607283" lon="7.8334667"><ele>319.0</ele><time>2026-04-11T07:35:56.059Z</time></trkpt><trkpt lat="44.7607717" lon="7.83335"><ele>319.2</ele><time>2026-04-11T07:35:58.061Z</time></trkpt><trkpt lat="44.760815" lon="7.8332383"><ele>319.4</ele><time>2026-04-11T07:36:00.06Z</time></trkpt><trkpt lat="44.7608783" lon="7.8331583"><ele>319.6</ele><time>2026-04-11T07:36:02.061Z</time></trkpt><trkpt lat="44.76095" lon="7.8330633"><ele>319.8</ele><time>2026-04-11T07:36:04.061Z</time></trkpt><trkpt lat="44.76103" lon="7.832955"><ele>320.0</ele><time>2026-04-11T07:36:06.061Z</time></trkpt><trkpt lat="44.7611133" lon="7.832835"><ele>320.0</ele><time>2026-04-11T07:36:08.062Z</time></trkpt><trkpt lat="44.761195" lon="7.8327117"><ele>320.0</ele><time>2026-04-11T07:36:10.061Z</time></trkpt><trkpt lat="44.7612717" lon="7.8325917"><ele>320.0</ele><time>2026-04-11T07:36:12.061Z</time></trkpt><trkpt lat="44.7613567" lon="7.8324783"><ele>320.0</ele><time>2026-04-11T07:36:14.06Z</time></trkpt><trkpt lat="44.7614317" lon="7.832365"><ele>319.8</ele><time>2026-04-11T07:36:16.061Z</time></trkpt><trkpt lat="44.7615017" lon="7.83224"><ele>319.6</ele><time>2026-04-11T07:36:18.061Z</time></trkpt><trkpt lat="44.761555" lon="7.832085"><ele>319.4</ele><time>2026-04-11T07:36:20.059Z</time></trkpt><trkpt lat="44.7615883" lon="7.832"><ele>319.2</ele><time>2026-04-11T07:36:21.062Z</time></trkpt><trkpt lat="44.7616233" lon="7.8319083"><ele>319.0</ele><time>2026-04-11T07:36:22.06Z</time></trkpt><trkpt lat="44.76166" lon="7.8318167"><ele>319.16666666666663</ele><time>2026-04-11T07:36:23.06Z</time></trkpt><trkpt lat="44.7616967" lon="7.8317233"><ele>319.3333333333333</ele><time>2026-04-11T07:36:24.061Z</time></trkpt><trkpt lat="44.7617317" lon="7.8316333"><ele>319.5</ele><time>2026-04-11T07:36:25.063Z</time></trkpt><trkpt lat="44.7617783" lon="7.8315417"><ele>319.6666666666667</ele><time>2026-04-11T07:36:26.06Z</time></trkpt><trkpt lat="44.76182" lon="7.8314483"><ele>319.83333333333337</ele><time>2026-04-11T07:36:27.063Z</time></trkpt><trkpt lat="44.7618633" lon="7.831345"><ele>320.0</ele><time>2026-04-11T07:36:28.061Z</time></trkpt><trkpt lat="44.7619067" lon="7.83124"><ele>319.5</ele><time>2026-04-11T07:36:29.06Z</time></trkpt><trkpt lat="44.7619433" lon="7.8311367"><ele>319.0</ele><time>2026-04-11T07:36:30.061Z</time></trkpt><trkpt lat="44.76197" lon="7.8310267"><ele>318.5</ele><time>2026-04-11T07:36:31.061Z</time></trkpt><trkpt lat="44.7619933" lon="7.8309217"><ele>318.0</ele><time>2026-04-11T07:36:32.061Z</time></trkpt><trkpt lat="44.762015" lon="7.83082"><ele>317.5</ele><time>2026-04-11T07:36:33.063Z</time></trkpt><trkpt lat="44.7620383" lon="7.830715"><ele>317.0</ele><time>2026-04-11T07:36:34.06Z</time></trkpt><trkpt lat="44.7620617" lon="7.8306117"><ele>317.0</ele><time>2026-04-11T07:36:35.057Z</time></trkpt><trkpt lat="44.7620933" lon="7.8305083"><ele>317.0</ele><time>2026-04-11T07:36:36.06Z</time></trkpt><trkpt lat="44.76213" lon="7.83041"><ele>317.0</ele><time>2026-04-11T07:36:37.061Z</time></trkpt><trkpt lat="44.7621633" lon="7.8303"><ele>317.0</ele><time>2026-04-11T07:36:38.062Z</time></trkpt><trkpt lat="44.7621917" lon="7.8301833"><ele>317.0</ele><time>2026-04-11T07:36:39.061Z</time></trkpt><trkpt lat="44.7622217" lon="7.8300683"><ele>317.0</ele><time>2026-04-11T07:36:40.06Z</time></trkpt><trkpt lat="44.7622417" lon="7.829955"><ele>316.83333333333337</ele><time>2026-04-11T07:36:41.059Z</time></trkpt><trkpt lat="44.762245" lon="7.829845"><ele>316.6666666666667</ele><time>2026-04-11T07:36:42.061Z</time></trkpt><trkpt lat="44.76224" lon="7.829735"><ele>316.5</ele><time>2026-04-11T07:36:43.06Z</time></trkpt><trkpt lat="44.7622367" lon="7.8296233"><ele>316.3333333333333</ele><time>2026-04-11T07:36:44.059Z</time></trkpt><trkpt lat="44.7622333" lon="7.82951"><ele>316.16666666666663</ele><time>2026-04-11T07:36:45.061Z</time></trkpt><trkpt lat="44.7622267" lon="7.8293983"><ele>316.0</ele><time>2026-04-11T07:36:46.062Z</time></trkpt><trkpt lat="44.76222" lon="7.82929"><ele>315.8333333333333</ele><time>2026-04-11T07:36:47.062Z</time></trkpt><trkpt lat="44.7622183" lon="7.8291783"><ele>315.66666666666663</ele><time>2026-04-11T07:36:48.061Z</time></trkpt><trkpt lat="44.76222" lon="7.8290667"><ele>315.5</ele><time>2026-04-11T07:36:49.065Z</time></trkpt><trkpt lat="44.7622233" lon="7.8289533"><ele>315.3333333333333</ele><time>2026-04-11T07:36:50.059Z</time></trkpt><trkpt lat="44.7622317" lon="7.8288433"><ele>315.1666666666667</ele><time>2026-04-11T07:36:51.058Z</time></trkpt><trkpt lat="44.7622383" lon="7.828735"><ele>315.0</ele><time>2026-04-11T07:36:52.062Z</time></trkpt><trkpt lat="44.762245" lon="7.828625"><ele>315.0</ele><time>2026-04-11T07:36:53.059Z</time></trkpt><trkpt lat="44.762255" lon="7.82852"><ele>315.0</ele><time>2026-04-11T07:36:54.06Z</time></trkpt><trkpt lat="44.7622633" lon="7.828415"><ele>315.0</ele><time>2026-04-11T07:36:55.06Z</time></trkpt><trkpt lat="44.7622717" lon="7.8283117"><ele>315.0</ele><time>2026-04-11T07:36:56.061Z</time></trkpt><trkpt lat="44.76228" lon="7.8282133"><ele>315.0</ele><time>2026-04-11T07:36:57.063Z</time></trkpt><trkpt lat="44.7622883" lon="7.8281183"><ele>315.0</ele><time>2026-04-11T07:36:58.061Z</time></trkpt><trkpt lat="44.7622933" lon="7.82802"><ele>315.0</ele><time>2026-04-11T07:36:59.06Z</time></trkpt><trkpt lat="44.7623067" lon="7.8279233"><ele>315.0</ele><time>2026-04-11T07:37:00.062Z</time></trkpt><trkpt lat="44.76233" lon="7.8278233"><ele>315.0</ele><time>2026-04-11T07:37:01.06Z</time></trkpt><trkpt lat="44.76235" lon="7.8277283"><ele>315.0</ele><time>2026-04-11T07:37:02.059Z</time></trkpt><trkpt lat="44.7623717" lon="7.8276317"><ele>315.0</ele><time>2026-04-11T07:37:03.059Z</time></trkpt><trkpt lat="44.762395" lon="7.8275267"><ele>315.0</ele><time>2026-04-11T07:37:04.06Z</time></trkpt><trkpt lat="44.762425" lon="7.82743"><ele>315.0</ele><time>2026-04-11T07:37:05.06Z</time></trkpt><trkpt lat="44.7624533" lon="7.8273333"><ele>315.0</ele><time>2026-04-11T07:37:06.061Z</time></trkpt><trkpt lat="44.7624733" lon="7.827235"><ele>315.0</ele><time>2026-04-11T07:37:07.06Z</time></trkpt><trkpt lat="44.7624933" lon="7.8271333"><ele>315.0</ele><time>2026-04-11T07:37:08.057Z</time></trkpt><trkpt lat="44.7625117" lon="7.8270317"><ele>315.0</ele><time>2026-04-11T07:37:09.058Z</time></trkpt><trkpt lat="44.7625267" lon="7.82693"><ele>315.0</ele><time>2026-04-11T07:37:10.06Z</time></trkpt><trkpt lat="44.7625367" lon="7.8268283"><ele>315.0</ele><time>2026-04-11T07:37:11.061Z</time></trkpt><trkpt lat="44.7625467" lon="7.8267317"><ele>315.0</ele><time>2026-04-11T07:37:12.061Z</time></trkpt><trkpt lat="44.7625567" lon="7.8266383"><ele>315.0</ele><time>2026-04-11T07:37:13.059Z</time></trkpt><trkpt lat="44.7625667" lon="7.8265483"><ele>315.0</ele><time>2026-04-11T07:37:14.06Z</time></trkpt><trkpt lat="44.76258" lon="7.826385"><ele>315.0</ele><time>2026-04-11T07:37:16.059Z</time></trkpt><trkpt lat="44.7625933" lon="7.8262417"><ele>315.0</ele><time>2026-04-11T07:37:18.061Z</time></trkpt><trkpt lat="44.762605" lon="7.8261"><ele>315.0</ele><time>2026-04-11T07:37:20.06Z</time></trkpt><trkpt lat="44.7626183" lon="7.8259517"><ele>315.0</ele><time>2026-04-11T07:37:22.06Z</time></trkpt><trkpt lat="44.7626017" lon="7.8258283"><ele>315.2</ele><time>2026-04-11T07:37:24.061Z</time></trkpt><trkpt lat="44.762585" lon="7.8257217"><ele>315.4</ele><time>2026-04-11T07:37:26.059Z</time></trkpt><trkpt lat="44.7625767" lon="7.825595"><ele>315.6</ele><time>2026-04-11T07:37:28.062Z</time></trkpt><trkpt lat="44.762555" lon="7.825465"><ele>315.8</ele><time>2026-04-11T07:37:30.059Z</time></trkpt><trkpt lat="44.76253" lon="7.8253183"><ele>316.0</ele><time>2026-04-11T07:37:32.06Z</time></trkpt><trkpt lat="44.7625167" lon="7.8251567"><ele>315.66666666666663</ele><time>2026-04-11T07:37:34.065Z</time></trkpt><trkpt lat="44.7625167" lon="7.8249817"><ele>315.3333333333333</ele><time>2026-04-11T07:37:36.063Z</time></trkpt><trkpt lat="44.7625117" lon="7.8248933"><ele>315.0</ele><time>2026-04-11T07:37:37.061Z</time></trkpt><trkpt lat="44.7625067" lon="7.8248017"><ele>314.6666666666667</ele><time>2026-04-11T07:37:38.06Z</time></trkpt><trkpt lat="44.7625" lon="7.8247133"><ele>314.33333333333337</ele><time>2026-04-11T07:37:39.059Z</time></trkpt><trkpt lat="44.762485" lon="7.8245517"><ele>314.0</ele><time>2026-04-11T07:37:41.061Z</time></trkpt><trkpt lat="44.76246" lon="7.8244017"><ele>314.0</ele><time>2026-04-11T07:37:43.061Z</time></trkpt><trkpt lat="44.7624567" lon="7.824305"><ele>314.0</ele><time>2026-04-11T07:37:45.061Z</time></trkpt><trkpt lat="44.7625167" lon="7.8242317"><ele>314.0</ele><time>2026-04-11T07:37:50.061Z</time></trkpt><trkpt lat="44.76256" lon="7.8241433"><ele>314.0</ele><time>2026-04-11T07:37:52.059Z</time></trkpt><trkpt lat="44.762585" lon="7.8240017"><ele>314.0</ele><time>2026-04-11T07:37:54.06Z</time></trkpt><trkpt lat="44.76261" lon="7.8238533"><ele>314.0</ele><time>2026-04-11T07:37:56.059Z</time></trkpt><trkpt lat="44.7626183" lon="7.8237183"><ele>314.0</ele><time>2026-04-11T07:37:58.06Z</time></trkpt><trkpt lat="44.7626217" lon="7.8235917"><ele>314.0</ele><time>2026-04-11T07:38:00.061Z</time></trkpt><trkpt lat="44.7626083" lon="7.8234883"><ele>314.0</ele><time>2026-04-11T07:38:02.061Z</time></trkpt><trkpt lat="44.7626017" lon="7.8233883"><ele>314.0</ele><time>2026-04-11T07:38:04.06Z</time></trkpt><trkpt lat="44.7626217" lon="7.8232683"><ele>314.0</ele><time>2026-04-11T07:38:06.059Z</time></trkpt><trkpt lat="44.7626417" lon="7.82315"><ele>314.0</ele><time>2026-04-11T07:38:08.06Z</time></trkpt><trkpt lat="44.762665" lon="7.8230317"><ele>313.83333333333337</ele><time>2026-04-11T07:38:10.062Z</time></trkpt><trkpt lat="44.762685" lon="7.8229217"><ele>313.6666666666667</ele><time>2026-04-11T07:38:12.059Z</time></trkpt><trkpt lat="44.7627217" lon="7.8228167"><ele>313.5</ele><time>2026-04-11T07:38:14.061Z</time></trkpt><trkpt lat="44.762745" lon="7.8227"><ele>313.3333333333333</ele><time>2026-04-11T07:38:16.061Z</time></trkpt><trkpt lat="44.7627533" lon="7.82256"><ele>313.16666666666663</ele><time>2026-04-11T07:38:18.065Z</time></trkpt><trkpt lat="44.7627583" lon="7.8224417"><ele>313.0</ele><time>2026-04-11T07:38:20.062Z</time></trkpt><trkpt lat="44.7627467" lon="7.8223517"><ele>312.2</ele><time>2026-04-11T07:38:22.061Z</time></trkpt><trkpt lat="44.7627467" lon="7.8222483"><ele>311.4</ele><time>2026-04-11T07:38:24.06Z</time></trkpt><trkpt lat="44.7627517" lon="7.8221217"><ele>310.59999999999997</ele><time>2026-04-11T07:38:26.063Z</time></trkpt><trkpt lat="44.7627517" lon="7.8219667"><ele>309.8</ele><time>2026-04-11T07:38:28.061Z</time></trkpt><trkpt lat="44.7627433" lon="7.821805"><ele>309.0</ele><time>2026-04-11T07:38:30.061Z</time></trkpt><trkpt lat="44.762735" lon="7.8216383"><ele>308.8333333333333</ele><time>2026-04-11T07:38:32.06Z</time></trkpt><trkpt lat="44.7626933" lon="7.8214833"><ele>308.6666666666667</ele><time>2026-04-11T07:38:34.061Z</time></trkpt><trkpt lat="44.7626467" lon="7.8213967"><ele>308.5</ele><time>2026-04-11T07:38:36.061Z</time></trkpt><trkpt lat="44.7625733" lon="7.82135"><ele>308.33333333333337</ele><time>2026-04-11T07:38:39.061Z</time></trkpt><trkpt lat="44.7625167" lon="7.82126"><ele>308.1666666666667</ele><time>2026-04-11T07:38:42.06Z</time></trkpt><trkpt lat="44.7624633" lon="7.821175"><ele>308.0</ele><time>2026-04-11T07:38:44.062Z</time></trkpt><trkpt lat="44.7624267" lon="7.8210667"><ele>307.33333333333337</ele><time>2026-04-11T07:38:46.059Z</time></trkpt><trkpt lat="44.76239" lon="7.820965"><ele>306.6666666666667</ele><time>2026-04-11T07:38:48.062Z</time></trkpt><trkpt lat="44.7623533" lon="7.8208683"><ele>306.0</ele><time>2026-04-11T07:38:50.062Z</time></trkpt><trkpt lat="44.76232" lon="7.8207767"><ele>305.3333333333333</ele><time>2026-04-11T07:38:52.064Z</time></trkpt><trkpt lat="44.76228" lon="7.82069"><ele>304.66666666666663</ele><time>2026-04-11T07:38:54.06Z</time></trkpt><trkpt lat="44.7622417" lon="7.8205967"><ele>304.0</ele><time>2026-04-11T07:38:56.062Z</time></trkpt><trkpt lat="44.7621983" lon="7.820505"><ele>304.0</ele><time>2026-04-11T07:38:58.059Z</time></trkpt><trkpt lat="44.762165" lon="7.8204117"><ele>304.0</ele><time>2026-04-11T07:39:00.062Z</time></trkpt><trkpt lat="44.76217" lon="7.820315"><ele>304.0</ele><time>2026-04-11T07:39:02.06Z</time></trkpt><trkpt lat="44.76218" lon="7.82022"><ele>304.0</ele><time>2026-04-11T07:39:04.059Z</time></trkpt><trkpt lat="44.7621967" lon="7.82012"><ele>304.0</ele><time>2026-04-11T07:39:06.061Z</time></trkpt><trkpt lat="44.7622333" lon="7.8200167"><ele>304.0</ele><time>2026-04-11T07:39:08.061Z</time></trkpt><trkpt lat="44.7622683" lon="7.819885"><ele>304.0</ele><time>2026-04-11T07:39:10.06Z</time></trkpt><trkpt lat="44.7623133" lon="7.81974"><ele>304.0</ele><time>2026-04-11T07:39:12.061Z</time></trkpt><trkpt lat="44.7623417" lon="7.819575"><ele>304.0</ele><time>2026-04-11T07:39:14.061Z</time></trkpt><trkpt lat="44.7623567" lon="7.819485"><ele>304.0</ele><time>2026-04-11T07:39:15.061Z</time></trkpt><trkpt lat="44.76237" lon="7.8193883"><ele>304.0</ele><time>2026-04-11T07:39:16.061Z</time></trkpt><trkpt lat="44.7623867" lon="7.8192917"><ele>304.0</ele><time>2026-04-11T07:39:17.061Z</time></trkpt><trkpt lat="44.7624083" lon="7.8192017"><ele>304.5</ele><time>2026-04-11T07:39:18.059Z</time></trkpt><trkpt lat="44.7624283" lon="7.81911"><ele>305.0</ele><time>2026-04-11T07:39:19.06Z</time></trkpt><trkpt lat="44.7624433" lon="7.8190117"><ele>305.5</ele><time>2026-04-11T07:39:20.061Z</time></trkpt><trkpt lat="44.76246" lon="7.8189067"><ele>306.0</ele><time>2026-04-11T07:39:21.06Z</time></trkpt><trkpt lat="44.76248" lon="7.8187983"><ele>306.5</ele><time>2026-04-11T07:39:22.059Z</time></trkpt><trkpt lat="44.7625017" lon="7.8186883"><ele>307.0</ele><time>2026-04-11T07:39:23.059Z</time></trkpt><trkpt lat="44.7625267" lon="7.81858"><ele>307.0</ele><time>2026-04-11T07:39:24.059Z</time></trkpt><trkpt lat="44.7625533" lon="7.8184717"><ele>307.0</ele><time>2026-04-11T07:39:25.062Z</time></trkpt><trkpt lat="44.7625817" lon="7.8183683"><ele>307.0</ele><time>2026-04-11T07:39:26.061Z</time></trkpt><trkpt lat="44.7626083" lon="7.8182667"><ele>307.0</ele><time>2026-04-11T07:39:27.061Z</time></trkpt><trkpt lat="44.7626283" lon="7.8181583"><ele>307.0</ele><time>2026-04-11T07:39:28.062Z</time></trkpt><trkpt lat="44.76265" lon="7.81805"><ele>307.0</ele><time>2026-04-11T07:39:29.059Z</time></trkpt><trkpt lat="44.76267" lon="7.8179433"><ele>306.99999999999994</ele><time>2026-04-11T07:39:30.06Z</time></trkpt><trkpt lat="44.7626833" lon="7.8178367"><ele>307.0</ele><time>2026-04-11T07:39:31.061Z</time></trkpt><trkpt lat="44.7627" lon="7.81773"><ele>307.0</ele><time>2026-04-11T07:39:32.061Z</time></trkpt><trkpt lat="44.7627083" lon="7.8176283"><ele>307.0</ele><time>2026-04-11T07:39:33.059Z</time></trkpt><trkpt lat="44.7627067" lon="7.8175333"><ele>307.0</ele><time>2026-04-11T07:39:34.06Z</time></trkpt><trkpt lat="44.7626917" lon="7.8174417"><ele>306.99999999999994</ele><time>2026-04-11T07:39:35.061Z</time></trkpt><trkpt lat="44.7626667" lon="7.8173483"><ele>307.0</ele><time>2026-04-11T07:39:36.059Z</time></trkpt><trkpt lat="44.7626383" lon="7.8172567"><ele>307.2</ele><time>2026-04-11T07:39:37.059Z</time></trkpt><trkpt lat="44.7626117" lon="7.817175"><ele>307.4</ele><time>2026-04-11T07:39:38.06Z</time></trkpt><trkpt lat="44.7625733" lon="7.8170133"><ele>307.6</ele><time>2026-04-11T07:39:40.06Z</time></trkpt><trkpt lat="44.7625633" lon="7.8169233"><ele>307.8</ele><time>2026-04-11T07:39:41.06Z</time></trkpt><trkpt lat="44.7625617" lon="7.8167533"><ele>308.0</ele><time>2026-04-11T07:39:43.062Z</time></trkpt><trkpt lat="44.762545" lon="7.8165783"><ele>308.1666666666667</ele><time>2026-04-11T07:39:45.06Z</time></trkpt><trkpt lat="44.7625383" lon="7.816485"><ele>308.33333333333337</ele><time>2026-04-11T07:39:46.059Z</time></trkpt><trkpt lat="44.76253" lon="7.81639"><ele>308.5</ele><time>2026-04-11T07:39:47.06Z</time></trkpt><trkpt lat="44.7625233" lon="7.8162967"><ele>308.6666666666667</ele><time>2026-04-11T07:39:48.059Z</time></trkpt><trkpt lat="44.76251" lon="7.816205"><ele>308.8333333333333</ele><time>2026-04-11T07:39:49.059Z</time></trkpt><trkpt lat="44.7625017" lon="7.8161167"><ele>309.0</ele><time>2026-04-11T07:39:50.061Z</time></trkpt><trkpt lat="44.762515" lon="7.81594"><ele>309.0</ele><time>2026-04-11T07:39:52.062Z</time></trkpt><trkpt lat="44.76252" lon="7.8158433"><ele>309.0</ele><time>2026-04-11T07:39:53.062Z</time></trkpt><trkpt lat="44.76252" lon="7.81575"><ele>309.0</ele><time>2026-04-11T07:39:54.06Z</time></trkpt><trkpt lat="44.76252" lon="7.8156583"><ele>309.0</ele><time>2026-04-11T07:39:55.061Z</time></trkpt><trkpt lat="44.7625117" lon="7.81557"><ele>309.0</ele><time>2026-04-11T07:39:56.061Z</time></trkpt><trkpt lat="44.762445" lon="7.8154383"><ele>309.0</ele><time>2026-04-11T07:39:58.062Z</time></trkpt><trkpt lat="44.7623367" lon="7.8153767"><ele>309.0</ele><time>2026-04-11T07:40:00.062Z</time></trkpt><trkpt lat="44.76224" lon="7.8153133"><ele>309.0</ele><time>2026-04-11T07:40:02.06Z</time></trkpt><trkpt lat="44.76215" lon="7.8152433"><ele>309.0</ele><time>2026-04-11T07:40:04.06Z</time></trkpt><trkpt lat="44.762055" lon="7.8151583"><ele>309.0</ele><time>2026-04-11T07:40:06.059Z</time></trkpt><trkpt lat="44.7619617" lon="7.8150883"><ele>309.0</ele><time>2026-04-11T07:40:08.061Z</time></trkpt><trkpt lat="44.761865" lon="7.8150183"><ele>309.6666666666667</ele><time>2026-04-11T07:40:10.061Z</time></trkpt><trkpt lat="44.76178" lon="7.8149433"><ele>310.3333333333333</ele><time>2026-04-11T07:40:12.06Z</time></trkpt><trkpt lat="44.7617083" lon="7.8148533"><ele>311.0</ele><time>2026-04-11T07:40:14.06Z</time></trkpt><trkpt lat="44.7616633" lon="7.81475"><ele>311.66666666666663</ele><time>2026-04-11T07:40:16.06Z</time></trkpt><trkpt lat="44.7616517" lon="7.8146433"><ele>312.3333333333333</ele><time>2026-04-11T07:40:18.06Z</time></trkpt><trkpt lat="44.7616783" lon="7.81453"><ele>313.0</ele><time>2026-04-11T07:40:20.062Z</time></trkpt><trkpt lat="44.7617283" lon="7.8144283"><ele>313.0</ele><time>2026-04-11T07:40:22.062Z</time></trkpt><trkpt lat="44.7617817" lon="7.8143767"><ele>313.0</ele><time>2026-04-11T07:40:24.059Z</time></trkpt><trkpt lat="44.7618633" lon="7.8143067"><ele>313.0</ele><time>2026-04-11T07:40:27.063Z</time></trkpt><trkpt lat="44.7619267" lon="7.81421"><ele>313.0</ele><time>2026-04-11T07:40:29.06Z</time></trkpt><trkpt lat="44.7619983" lon="7.8141017"><ele>313.0</ele><time>2026-04-11T07:40:31.063Z</time></trkpt><trkpt lat="44.7620717" lon="7.8139783"><ele>313.6</ele><time>2026-04-11T07:40:33.063Z</time></trkpt><trkpt lat="44.7621417" lon="7.8138517"><ele>314.20000000000005</ele><time>2026-04-11T07:40:35.061Z</time></trkpt><trkpt lat="44.762205" lon="7.8137333"><ele>314.8</ele><time>2026-04-11T07:40:37.061Z</time></trkpt><trkpt lat="44.7622733" lon="7.8136117"><ele>315.40000000000003</ele><time>2026-04-11T07:40:39.061Z</time></trkpt><trkpt lat="44.7623417" lon="7.813485"><ele>316.0</ele><time>2026-04-11T07:40:41.06Z</time></trkpt><trkpt lat="44.7624133" lon="7.8133533"><ele>316.0</ele><time>2026-04-11T07:40:43.06Z</time></trkpt><trkpt lat="44.7624867" lon="7.8132233"><ele>316.0</ele><time>2026-04-11T07:40:45.062Z</time></trkpt><trkpt lat="44.7625483" lon="7.81308"><ele>316.0</ele><time>2026-04-11T07:40:47.062Z</time></trkpt><trkpt lat="44.7625867" lon="7.8129117"><ele>316.0</ele><time>2026-04-11T07:40:49.062Z</time></trkpt><trkpt lat="44.7626017" lon="7.8128233"><ele>316.0</ele><time>2026-04-11T07:40:50.06Z</time></trkpt><trkpt lat="44.762615" lon="7.81273"><ele>316.16666666666663</ele><time>2026-04-11T07:40:51.063Z</time></trkpt><trkpt lat="44.76263" lon="7.8126367"><ele>316.3333333333333</ele><time>2026-04-11T07:40:52.058Z</time></trkpt><trkpt lat="44.7626433" lon="7.812545"><ele>316.5</ele><time>2026-04-11T07:40:53.059Z</time></trkpt><trkpt lat="44.762655" lon="7.8124517"><ele>316.6666666666667</ele><time>2026-04-11T07:40:54.06Z</time></trkpt><trkpt lat="44.762685" lon="7.81229"><ele>316.83333333333337</ele><time>2026-04-11T07:40:56.06Z</time></trkpt><trkpt lat="44.76274" lon="7.81218"><ele>317.0</ele><time>2026-04-11T07:40:58.059Z</time></trkpt><trkpt lat="44.762825" lon="7.8121267"><ele>315.4</ele><time>2026-04-11T07:41:00.06Z</time></trkpt><trkpt lat="44.762925" lon="7.812085"><ele>313.79999999999995</ele><time>2026-04-11T07:41:02.06Z</time></trkpt><trkpt lat="44.7630217" lon="7.81202"><ele>312.2</ele><time>2026-04-11T07:41:04.059Z</time></trkpt><trkpt lat="44.7631167" lon="7.811935"><ele>310.59999999999997</ele><time>2026-04-11T07:41:06.059Z</time></trkpt><trkpt lat="44.7631983" lon="7.811815"><ele>309.0</ele><time>2026-04-11T07:41:08.062Z</time></trkpt><trkpt lat="44.76327" lon="7.8116717"><ele>308.8571428571429</ele><time>2026-04-11T07:41:10.06Z</time></trkpt><trkpt lat="44.7633117" lon="7.8115933"><ele>308.7142857142857</ele><time>2026-04-11T07:41:11.06Z</time></trkpt><trkpt lat="44.76335" lon="7.8115117"><ele>308.57142857142856</ele><time>2026-04-11T07:41:12.061Z</time></trkpt><trkpt lat="44.7633883" lon="7.81143"><ele>308.42857142857144</ele><time>2026-04-11T07:41:13.061Z</time></trkpt><trkpt lat="44.7634267" lon="7.8113483"><ele>308.2857142857143</ele><time>2026-04-11T07:41:14.06Z</time></trkpt><trkpt lat="44.7634667" lon="7.811265"><ele>308.14285714285717</ele><time>2026-04-11T07:41:15.061Z</time></trkpt><trkpt lat="44.7635067" lon="7.8111817"><ele>308.0</ele><time>2026-04-11T07:41:16.061Z</time></trkpt><trkpt lat="44.7635467" lon="7.8110983"><ele>307.6666666666667</ele><time>2026-04-11T07:41:17.061Z</time></trkpt><trkpt lat="44.763585" lon="7.811015"><ele>307.33333333333337</ele><time>2026-04-11T07:41:18.059Z</time></trkpt><trkpt lat="44.763625" lon="7.8109367"><ele>307.0</ele><time>2026-04-11T07:41:19.059Z</time></trkpt><trkpt lat="44.763665" lon="7.8108617"><ele>306.6666666666667</ele><time>2026-04-11T07:41:20.059Z</time></trkpt><trkpt lat="44.763705" lon="7.8107883"><ele>306.3333333333333</ele><time>2026-04-11T07:41:21.06Z</time></trkpt><trkpt lat="44.7637767" lon="7.81065"><ele>306.0</ele><time>2026-04-11T07:41:23.06Z</time></trkpt><trkpt lat="44.7638283" lon="7.8105433"><ele>306.0</ele><time>2026-04-11T07:41:25.06Z</time></trkpt><trkpt lat="44.7638733" lon="7.8104667"><ele>306.0</ele><time>2026-04-11T07:41:27.06Z</time></trkpt><trkpt lat="44.7639183" lon="7.81039"><ele>306.0</ele><time>2026-04-11T07:41:29.062Z</time></trkpt><trkpt lat="44.7639617" lon="7.8103133"><ele>306.0</ele><time>2026-04-11T07:41:31.059Z</time></trkpt><trkpt lat="44.7640183" lon="7.81021"><ele>306.0</ele><time>2026-04-11T07:41:34.06Z</time></trkpt><trkpt lat="44.7640633" lon="7.81012"><ele>306.0</ele><time>2026-04-11T07:41:37.061Z</time></trkpt><trkpt lat="44.76413" lon="7.8100283"><ele>305.8333333333333</ele><time>2026-04-11T07:41:40.058Z</time></trkpt><trkpt lat="44.7641817" lon="7.8099383"><ele>305.6666666666667</ele><time>2026-04-11T07:41:42.059Z</time></trkpt><trkpt lat="44.7642317" lon="7.809845"><ele>305.5</ele><time>2026-04-11T07:41:44.061Z</time></trkpt><trkpt lat="44.7642767" lon="7.8097633"><ele>305.33333333333337</ele><time>2026-04-11T07:41:46.058Z</time></trkpt><trkpt lat="44.7643233" lon="7.809685"><ele>305.1666666666667</ele><time>2026-04-11T07:41:48.059Z</time></trkpt><trkpt lat="44.7643817" lon="7.8095833"><ele>305.0</ele><time>2026-04-11T07:41:50.06Z</time></trkpt><trkpt lat="44.7644417" lon="7.80948"><ele>305.0</ele><time>2026-04-11T07:41:52.062Z</time></trkpt><trkpt lat="44.7645033" lon="7.8093783"><ele>305.0</ele><time>2026-04-11T07:41:54.059Z</time></trkpt><trkpt lat="44.7645583" lon="7.809275"><ele>305.0</ele><time>2026-04-11T07:41:56.061Z</time></trkpt><trkpt lat="44.7646217" lon="7.8091667"><ele>305.0</ele><time>2026-04-11T07:41:58.061Z</time></trkpt><trkpt lat="44.76469" lon="7.80905"><ele>305.0</ele><time>2026-04-11T07:42:00.061Z</time></trkpt><trkpt lat="44.7647567" lon="7.8089317"><ele>305.0</ele><time>2026-04-11T07:42:02.06Z</time></trkpt><trkpt lat="44.764825" lon="7.8088183"><ele>305.0</ele><time>2026-04-11T07:42:04.06Z</time></trkpt><trkpt lat="44.7648783" lon="7.8087283"><ele>305.0</ele><time>2026-04-11T07:42:06.059Z</time></trkpt><trkpt lat="44.7649333" lon="7.808635"><ele>305.0</ele><time>2026-04-11T07:42:08.06Z</time></trkpt><trkpt lat="44.7649917" lon="7.8085383"><ele>305.0</ele><time>2026-04-11T07:42:10.06Z</time></trkpt><trkpt lat="44.7650483" lon="7.8084367"><ele>305.5</ele><time>2026-04-11T07:42:12.058Z</time></trkpt><trkpt lat="44.7651117" lon="7.8083233"><ele>306.0</ele><time>2026-04-11T07:42:14.059Z</time></trkpt><trkpt lat="44.76518" lon="7.8081933"><ele>306.5</ele><time>2026-04-11T07:42:16.06Z</time></trkpt><trkpt lat="44.7652567" lon="7.8080633"><ele>307.0</ele><time>2026-04-11T07:42:18.059Z</time></trkpt><trkpt lat="44.765325" lon="7.8079267"><ele>306.4285714285714</ele><time>2026-04-11T07:42:20.06Z</time></trkpt><trkpt lat="44.76536" lon="7.8078517"><ele>305.85714285714283</ele><time>2026-04-11T07:42:21.059Z</time></trkpt><trkpt lat="44.7653967" lon="7.8077767"><ele>305.2857142857143</ele><time>2026-04-11T07:42:22.061Z</time></trkpt><trkpt lat="44.765435" lon="7.8077"><ele>304.71428571428567</ele><time>2026-04-11T07:42:23.061Z</time></trkpt><trkpt lat="44.7654733" lon="7.807625"><ele>304.1428571428571</ele><time>2026-04-11T07:42:24.058Z</time></trkpt><trkpt lat="44.7655133" lon="7.8075533"><ele>303.57142857142856</ele><time>2026-04-11T07:42:25.062Z</time></trkpt><trkpt lat="44.7655533" lon="7.8074817"><ele>303.0</ele><time>2026-04-11T07:42:26.059Z</time></trkpt><trkpt lat="44.7655933" lon="7.8074117"><ele>303.0</ele><time>2026-04-11T07:42:27.06Z</time></trkpt><trkpt lat="44.7656317" lon="7.80734"><ele>303.0</ele><time>2026-04-11T07:42:28.06Z</time></trkpt><trkpt lat="44.7656733" lon="7.8072683"><ele>303.0</ele><time>2026-04-11T07:42:29.059Z</time></trkpt><trkpt lat="44.765715" lon="7.807195"><ele>303.0</ele><time>2026-04-11T07:42:30.059Z</time></trkpt><trkpt lat="44.7657567" lon="7.8071233"><ele>303.0</ele><time>2026-04-11T07:42:31.061Z</time></trkpt><trkpt lat="44.7657983" lon="7.8070467"><ele>303.0</ele><time>2026-04-11T07:42:32.059Z</time></trkpt><trkpt lat="44.765835" lon="7.8069733"><ele>303.0</ele><time>2026-04-11T07:42:33.058Z</time></trkpt><trkpt lat="44.7658717" lon="7.806895"><ele>303.2</ele><time>2026-04-11T07:42:34.061Z</time></trkpt><trkpt lat="44.7659033" lon="7.806815"><ele>303.4</ele><time>2026-04-11T07:42:35.061Z</time></trkpt><trkpt lat="44.7659183" lon="7.8066533"><ele>303.59999999999997</ele><time>2026-04-11T07:42:37.059Z</time></trkpt><trkpt lat="44.765915" lon="7.8065017"><ele>303.8</ele><time>2026-04-11T07:42:39.062Z</time></trkpt><trkpt lat="44.7659483" lon="7.8063533"><ele>304.0</ele><time>2026-04-11T07:42:41.06Z</time></trkpt><trkpt lat="44.76603" lon="7.806215"><ele>303.7142857142857</ele><time>2026-04-11T07:42:43.06Z</time></trkpt><trkpt lat="44.7660733" lon="7.80615"><ele>303.42857142857144</ele><time>2026-04-11T07:42:44.061Z</time></trkpt><trkpt lat="44.76612" lon="7.806085"><ele>303.14285714285717</ele><time>2026-04-11T07:42:45.061Z</time></trkpt><trkpt lat="44.766165" lon="7.8060167"><ele>302.8571428571429</ele><time>2026-04-11T07:42:46.061Z</time></trkpt><trkpt lat="44.7662083" lon="7.8059483"><ele>302.57142857142856</ele><time>2026-04-11T07:42:47.061Z</time></trkpt><trkpt lat="44.7662517" lon="7.8058833"><ele>302.28571428571433</ele><time>2026-04-11T07:42:48.06Z</time></trkpt><trkpt lat="44.7662983" lon="7.8058167"><ele>302.0</ele><time>2026-04-11T07:42:49.061Z</time></trkpt><trkpt lat="44.7663433" lon="7.8057517"><ele>302.00000000000006</ele><time>2026-04-11T07:42:50.06Z</time></trkpt><trkpt lat="44.7663883" lon="7.8056817"><ele>302.0</ele><time>2026-04-11T07:42:51.061Z</time></trkpt><trkpt lat="44.7664317" lon="7.805615"><ele>302.0</ele><time>2026-04-11T07:42:52.06Z</time></trkpt><trkpt lat="44.7664767" lon="7.805545"><ele>302.0</ele><time>2026-04-11T07:42:53.06Z</time></trkpt><trkpt lat="44.7665233" lon="7.8054817"><ele>302.0</ele><time>2026-04-11T07:42:54.06Z</time></trkpt><trkpt lat="44.766575" lon="7.80543"><ele>302.00000000000006</ele><time>2026-04-11T07:42:55.058Z</time></trkpt><trkpt lat="44.76667" lon="7.8054217"><ele>302.0</ele><time>2026-04-11T07:42:57.062Z</time></trkpt><trkpt lat="44.76676" lon="7.8055083"><ele>301.4</ele><time>2026-04-11T07:42:59.06Z</time></trkpt><trkpt lat="44.76687" lon="7.8055883"><ele>300.79999999999995</ele><time>2026-04-11T07:43:01.06Z</time></trkpt><trkpt lat="44.76699" lon="7.80557"><ele>300.2</ele><time>2026-04-11T07:43:03.06Z</time></trkpt><trkpt lat="44.767095" lon="7.8054717"><ele>299.59999999999997</ele><time>2026-04-11T07:43:05.061Z</time></trkpt><trkpt lat="44.76715" lon="7.8054117"><ele>299.0</ele><time>2026-04-11T07:43:06.059Z</time></trkpt><trkpt lat="44.7672033" lon="7.8053533"><ele>299.0</ele><time>2026-04-11T07:43:07.059Z</time></trkpt><trkpt lat="44.7672567" lon="7.8052933"><ele>299.0</ele><time>2026-04-11T07:43:08.057Z</time></trkpt><trkpt lat="44.7673083" lon="7.8052333"><ele>299.0</ele><time>2026-04-11T07:43:09.061Z</time></trkpt><trkpt lat="44.7673617" lon="7.80517"><ele>299.0</ele><time>2026-04-11T07:43:10.059Z</time></trkpt><trkpt lat="44.767415" lon="7.8051117"><ele>299.0</ele><time>2026-04-11T07:43:11.058Z</time></trkpt><trkpt lat="44.76747" lon="7.805055"><ele>299.0</ele><time>2026-04-11T07:43:12.058Z</time></trkpt><trkpt lat="44.767525" lon="7.8049983"><ele>299.0</ele><time>2026-04-11T07:43:13.059Z</time></trkpt><trkpt lat="44.7675767" lon="7.80494"><ele>299.0</ele><time>2026-04-11T07:43:14.059Z</time></trkpt><trkpt lat="44.7676283" lon="7.8048817"><ele>299.0</ele><time>2026-04-11T07:43:15.06Z</time></trkpt><trkpt lat="44.7676817" lon="7.8048233"><ele>299.0</ele><time>2026-04-11T07:43:16.06Z</time></trkpt><trkpt lat="44.7677317" lon="7.8047683"><ele>299.0</ele><time>2026-04-11T07:43:17.058Z</time></trkpt><trkpt lat="44.7677817" lon="7.8047117"><ele>299.0</ele><time>2026-04-11T07:43:18.06Z</time></trkpt><trkpt lat="44.7678283" lon="7.8046483"><ele>299.0</ele><time>2026-04-11T07:43:19.059Z</time></trkpt><trkpt lat="44.76791" lon="7.8045217"><ele>299.0</ele><time>2026-04-11T07:43:21.059Z</time></trkpt><trkpt lat="44.7679683" lon="7.8043817"><ele>299.0</ele><time>2026-04-11T07:43:23.06Z</time></trkpt><trkpt lat="44.767995" lon="7.8043"><ele>299.0</ele><time>2026-04-11T07:43:24.06Z</time></trkpt><trkpt lat="44.76802" lon="7.8042117"><ele>299.0</ele><time>2026-04-11T07:43:25.059Z</time></trkpt><trkpt lat="44.76804" lon="7.8041167"><ele>299.0</ele><time>2026-04-11T07:43:26.058Z</time></trkpt><trkpt lat="44.76806" lon="7.8040217"><ele>299.0</ele><time>2026-04-11T07:43:27.06Z</time></trkpt><trkpt lat="44.7680783" lon="7.80393"><ele>299.0</ele><time>2026-04-11T07:43:28.061Z</time></trkpt><trkpt lat="44.7680983" lon="7.80384"><ele>299.0</ele><time>2026-04-11T07:43:29.059Z</time></trkpt><trkpt lat="44.7681167" lon="7.8037483"><ele>299.0</ele><time>2026-04-11T07:43:30.059Z</time></trkpt><trkpt lat="44.7681333" lon="7.8036567"><ele>299.0</ele><time>2026-04-11T07:43:31.059Z</time></trkpt><trkpt lat="44.7681483" lon="7.803565"><ele>299.0</ele><time>2026-04-11T07:43:32.059Z</time></trkpt><trkpt lat="44.76816" lon="7.8034733"><ele>299.0</ele><time>2026-04-11T07:43:33.061Z</time></trkpt><trkpt lat="44.7681733" lon="7.80338"><ele>299.0</ele><time>2026-04-11T07:43:34.059Z</time></trkpt><trkpt lat="44.768185" lon="7.8032883"><ele>299.0</ele><time>2026-04-11T07:43:35.06Z</time></trkpt><trkpt lat="44.7681967" lon="7.8031967"><ele>299.0</ele><time>2026-04-11T07:43:36.059Z</time></trkpt><trkpt lat="44.7682233" lon="7.8030283"><ele>299.0</ele><time>2026-04-11T07:43:38.063Z</time></trkpt><trkpt lat="44.76827" lon="7.8028717"><ele>299.0</ele><time>2026-04-11T07:43:40.056Z</time></trkpt><trkpt lat="44.7683483" lon="7.8027617"><ele>299.0</ele><time>2026-04-11T07:43:42.058Z</time></trkpt><trkpt lat="44.7684583" lon="7.8027267"><ele>299.0</ele><time>2026-04-11T07:43:44.059Z</time></trkpt><trkpt lat="44.7685667" lon="7.8027067"><ele>298.8</ele><time>2026-04-11T07:43:46.061Z</time></trkpt><trkpt lat="44.76865" lon="7.80266"><ele>298.59999999999997</ele><time>2026-04-11T07:43:48.06Z</time></trkpt><trkpt lat="44.7686933" lon="7.8025417"><ele>298.4</ele><time>2026-04-11T07:44:17.058Z</time></trkpt><trkpt lat="44.76871" lon="7.802435"><ele>298.2</ele><time>2026-04-11T07:44:19.061Z</time></trkpt><trkpt lat="44.7687217" lon="7.8022867"><ele>298.0</ele><time>2026-04-11T07:44:21.061Z</time></trkpt><trkpt lat="44.7687333" lon="7.80213"><ele>298.0</ele><time>2026-04-11T07:44:23.061Z</time></trkpt><trkpt lat="44.7687517" lon="7.80197"><ele>298.0</ele><time>2026-04-11T07:44:25.06Z</time></trkpt><trkpt lat="44.7687767" lon="7.801805"><ele>298.0</ele><time>2026-04-11T07:44:27.065Z</time></trkpt><trkpt lat="44.7687983" lon="7.801635"><ele>298.0</ele><time>2026-04-11T07:44:29.059Z</time></trkpt><trkpt lat="44.7688217" lon="7.8014667"><ele>297.6</ele><time>2026-04-11T07:44:31.059Z</time></trkpt><trkpt lat="44.7688433" lon="7.8013117"><ele>297.20000000000005</ele><time>2026-04-11T07:44:33.062Z</time></trkpt><trkpt lat="44.768865" lon="7.8011633"><ele>296.8</ele><time>2026-04-11T07:44:35.059Z</time></trkpt><trkpt lat="44.7688867" lon="7.80101"><ele>296.40000000000003</ele><time>2026-04-11T07:44:37.059Z</time></trkpt><trkpt lat="44.7689083" lon="7.8008617"><ele>296.0</ele><time>2026-04-11T07:44:39.062Z</time></trkpt><trkpt lat="44.7689383" lon="7.80071"><ele>296.0</ele><time>2026-04-11T07:44:41.059Z</time></trkpt><trkpt lat="44.7689733" lon="7.8005417"><ele>296.0</ele><time>2026-04-11T07:44:43.06Z</time></trkpt><trkpt lat="44.76899" lon="7.8004517"><ele>296.0</ele><time>2026-04-11T07:44:44.059Z</time></trkpt><trkpt lat="44.76901" lon="7.8003567"><ele>296.0</ele><time>2026-04-11T07:44:45.06Z</time></trkpt><trkpt lat="44.7690333" lon="7.80026"><ele>296.0</ele><time>2026-04-11T07:44:46.06Z</time></trkpt><trkpt lat="44.769055" lon="7.8001617"><ele>296.0</ele><time>2026-04-11T07:44:47.059Z</time></trkpt><trkpt lat="44.7690783" lon="7.80006"><ele>295.6666666666667</ele><time>2026-04-11T07:44:48.06Z</time></trkpt><trkpt lat="44.769105" lon="7.7999583"><ele>295.33333333333337</ele><time>2026-04-11T07:44:49.059Z</time></trkpt><trkpt lat="44.7691333" lon="7.7998583"><ele>295.0</ele><time>2026-04-11T07:44:50.059Z</time></trkpt><trkpt lat="44.7691633" lon="7.7997617"><ele>294.6666666666667</ele><time>2026-04-11T07:44:51.062Z</time></trkpt><trkpt lat="44.7691967" lon="7.7996633"><ele>294.3333333333333</ele><time>2026-04-11T07:44:52.06Z</time></trkpt><trkpt lat="44.76923" lon="7.7995633"><ele>294.0</ele><time>2026-04-11T07:44:53.06Z</time></trkpt><trkpt lat="44.7692633" lon="7.799465"><ele>294.0</ele><time>2026-04-11T07:44:54.06Z</time></trkpt><trkpt lat="44.76929" lon="7.799365"><ele>294.0</ele><time>2026-04-11T07:44:55.059Z</time></trkpt><trkpt lat="44.7693217" lon="7.7992617"><ele>294.0</ele><time>2026-04-11T07:44:56.06Z</time></trkpt><trkpt lat="44.7693517" lon="7.7991567"><ele>294.0</ele><time>2026-04-11T07:44:57.059Z</time></trkpt><trkpt lat="44.7693833" lon="7.7990567"><ele>294.0</ele><time>2026-04-11T07:44:58.059Z</time></trkpt><trkpt lat="44.769415" lon="7.7989617"><ele>294.0</ele><time>2026-04-11T07:44:59.059Z</time></trkpt><trkpt lat="44.7694467" lon="7.7988683"><ele>293.59999999999997</ele><time>2026-04-11T07:45:00.059Z</time></trkpt><trkpt lat="44.7694733" lon="7.7987817"><ele>293.2</ele><time>2026-04-11T07:45:01.059Z</time></trkpt><trkpt lat="44.7695033" lon="7.7986983"><ele>292.79999999999995</ele><time>2026-04-11T07:45:02.059Z</time></trkpt><trkpt lat="44.7695817" lon="7.798575"><ele>292.4</ele><time>2026-04-11T07:45:04.06Z</time></trkpt><trkpt lat="44.76967" lon="7.798515"><ele>292.0</ele><time>2026-04-11T07:45:06.06Z</time></trkpt><trkpt lat="44.7697767" lon="7.7984667"><ele>291.85714285714283</ele><time>2026-04-11T07:45:08.061Z</time></trkpt><trkpt lat="44.76984" lon="7.7984367"><ele>291.7142857142857</ele><time>2026-04-11T07:45:09.061Z</time></trkpt><trkpt lat="44.7699033" lon="7.7984083"><ele>291.57142857142856</ele><time>2026-04-11T07:45:10.059Z</time></trkpt><trkpt lat="44.7699667" lon="7.7983833"><ele>291.42857142857144</ele><time>2026-04-11T07:45:11.06Z</time></trkpt><trkpt lat="44.7700333" lon="7.7983567"><ele>291.2857142857143</ele><time>2026-04-11T07:45:12.058Z</time></trkpt><trkpt lat="44.7700983" lon="7.7983233"><ele>291.1428571428571</ele><time>2026-04-11T07:45:13.061Z</time></trkpt><trkpt lat="44.7701633" lon="7.7982817"><ele>291.0</ele><time>2026-04-11T07:45:14.06Z</time></trkpt><trkpt lat="44.770225" lon="7.7982317"><ele>290.85714285714283</ele><time>2026-04-11T07:45:15.06Z</time></trkpt><trkpt lat="44.770285" lon="7.7981733"><ele>290.71428571428567</ele><time>2026-04-11T07:45:16.06Z</time></trkpt><trkpt lat="44.7703417" lon="7.7981083"><ele>290.57142857142856</ele><time>2026-04-11T07:45:17.058Z</time></trkpt><trkpt lat="44.7703917" lon="7.798035"><ele>290.42857142857144</ele><time>2026-04-11T07:45:18.06Z</time></trkpt><trkpt lat="44.7704367" lon="7.79795"><ele>290.28571428571433</ele><time>2026-04-11T07:45:19.062Z</time></trkpt><trkpt lat="44.7704783" lon="7.79786"><ele>290.14285714285717</ele><time>2026-04-11T07:45:20.059Z</time></trkpt><trkpt lat="44.7705167" lon="7.797765"><ele>290.0</ele><time>2026-04-11T07:45:21.06Z</time></trkpt><trkpt lat="44.770555" lon="7.7976683"><ele>290.0</ele><time>2026-04-11T07:45:22.059Z</time></trkpt><trkpt lat="44.77059" lon="7.7975717"><ele>290.0</ele><time>2026-04-11T07:45:23.06Z</time></trkpt><trkpt lat="44.77062" lon="7.7974633"><ele>290.0</ele><time>2026-04-11T07:45:24.06Z</time></trkpt><trkpt lat="44.7706533" lon="7.79735"><ele>290.0</ele><time>2026-04-11T07:45:25.059Z</time></trkpt><trkpt lat="44.7706933" lon="7.797235"><ele>290.0</ele><time>2026-04-11T07:45:26.059Z</time></trkpt><trkpt lat="44.7707317" lon="7.7971217"><ele>290.0</ele><time>2026-04-11T07:45:27.06Z</time></trkpt><trkpt lat="44.77077" lon="7.797005"><ele>290.0</ele><time>2026-04-11T07:45:28.058Z</time></trkpt><trkpt lat="44.7708067" lon="7.7968867"><ele>290.0</ele><time>2026-04-11T07:45:29.06Z</time></trkpt><trkpt lat="44.7708467" lon="7.79677"><ele>290.0</ele><time>2026-04-11T07:45:30.058Z</time></trkpt><trkpt lat="44.770885" lon="7.7966583"><ele>290.0</ele><time>2026-04-11T07:45:31.059Z</time></trkpt><trkpt lat="44.7709267" lon="7.7965433"><ele>290.0</ele><time>2026-04-11T07:45:32.057Z</time></trkpt><trkpt lat="44.7709683" lon="7.7964267"><ele>289.8</ele><time>2026-04-11T07:45:33.059Z</time></trkpt><trkpt lat="44.7710133" lon="7.7963083"><ele>289.6</ele><time>2026-04-11T07:45:34.058Z</time></trkpt><trkpt lat="44.7710567" lon="7.7961933"><ele>289.4</ele><time>2026-04-11T07:45:35.059Z</time></trkpt><trkpt lat="44.7710983" lon="7.7960783"><ele>289.2</ele><time>2026-04-11T07:45:36.062Z</time></trkpt><trkpt lat="44.77114" lon="7.7959617"><ele>289.0</ele><time>2026-04-11T07:45:37.058Z</time></trkpt><trkpt lat="44.7711783" lon="7.79585"><ele>288.16666666666663</ele><time>2026-04-11T07:45:38.059Z</time></trkpt><trkpt lat="44.7712117" lon="7.7957417"><ele>287.3333333333333</ele><time>2026-04-11T07:45:39.06Z</time></trkpt><trkpt lat="44.7712417" lon="7.7956333"><ele>286.5</ele><time>2026-04-11T07:45:40.058Z</time></trkpt><trkpt lat="44.7712667" lon="7.79552"><ele>285.6666666666667</ele><time>2026-04-11T07:45:41.06Z</time></trkpt><trkpt lat="44.77128" lon="7.7954017"><ele>284.83333333333337</ele><time>2026-04-11T07:45:42.06Z</time></trkpt><trkpt lat="44.77129" lon="7.7952933"><ele>284.0</ele><time>2026-04-11T07:45:43.058Z</time></trkpt><trkpt lat="44.771295" lon="7.7951467"><ele>283.33333333333337</ele><time>2026-04-11T07:45:45.059Z</time></trkpt><trkpt lat="44.7712733" lon="7.7950467"><ele>282.6666666666667</ele><time>2026-04-11T07:45:49.06Z</time></trkpt><trkpt lat="44.7712383" lon="7.7949517"><ele>282.0</ele><time>2026-04-11T07:45:51.054Z</time></trkpt><trkpt lat="44.7711767" lon="7.7948167"><ele>281.3333333333333</ele><time>2026-04-11T07:45:53.054Z</time></trkpt><trkpt lat="44.7711417" lon="7.7947317"><ele>280.66666666666663</ele><time>2026-04-11T07:45:54.054Z</time></trkpt><trkpt lat="44.771105" lon="7.794645"><ele>280.0</ele><time>2026-04-11T07:45:55.054Z</time></trkpt><trkpt lat="44.77106" lon="7.7945633"><ele>279.8333333333333</ele><time>2026-04-11T07:45:56.056Z</time></trkpt><trkpt lat="44.7710133" lon="7.79448"><ele>279.66666666666663</ele><time>2026-04-11T07:45:57.054Z</time></trkpt><trkpt lat="44.7709583" lon="7.7943983"><ele>279.5</ele><time>2026-04-11T07:45:58.055Z</time></trkpt><trkpt lat="44.77091" lon="7.7943133"><ele>279.3333333333333</ele><time>2026-04-11T07:45:59.054Z</time></trkpt><trkpt lat="44.7708867" lon="7.7942083"><ele>279.1666666666667</ele><time>2026-04-11T07:46:00.054Z</time></trkpt><trkpt lat="44.7708767" lon="7.7940967"><ele>279.0</ele><time>2026-04-11T07:46:01.054Z</time></trkpt><trkpt lat="44.7708933" lon="7.7939867"><ele>279.0</ele><time>2026-04-11T07:46:02.054Z</time></trkpt><trkpt lat="44.7709283" lon="7.79388"><ele>279.0</ele><time>2026-04-11T07:46:03.054Z</time></trkpt><trkpt lat="44.7709783" lon="7.7937867"><ele>279.0</ele><time>2026-04-11T07:46:04.054Z</time></trkpt><trkpt lat="44.771035" lon="7.793705"><ele>279.0</ele><time>2026-04-11T07:46:05.054Z</time></trkpt><trkpt lat="44.77109" lon="7.7936217"><ele>279.0</ele><time>2026-04-11T07:46:06.054Z</time></trkpt><trkpt lat="44.771145" lon="7.7935433"><ele>279.0</ele><time>2026-04-11T07:46:07.055Z</time></trkpt><trkpt lat="44.7712" lon="7.7934633"><ele>278.3333333333333</ele><time>2026-04-11T07:46:08.059Z</time></trkpt><trkpt lat="44.7712517" lon="7.7933817"><ele>277.6666666666667</ele><time>2026-04-11T07:46:09.06Z</time></trkpt><trkpt lat="44.7713" lon="7.7933067"><ele>277.0</ele><time>2026-04-11T07:46:10.06Z</time></trkpt><trkpt lat="44.7713917" lon="7.793205"><ele>276.33333333333337</ele><time>2026-04-11T07:46:12.059Z</time></trkpt><trkpt lat="44.77147" lon="7.79315"><ele>275.6666666666667</ele><time>2026-04-11T07:46:14.058Z</time></trkpt><trkpt lat="44.7715317" lon="7.793195"><ele>275.0</ele><time>2026-04-11T07:46:16.058Z</time></trkpt><trkpt lat="44.7715667" lon="7.7933267"><ele>275.0</ele><time>2026-04-11T07:46:18.059Z</time></trkpt><trkpt lat="44.7715917" lon="7.7934733"><ele>275.0</ele><time>2026-04-11T07:46:20.061Z</time></trkpt><trkpt lat="44.77163" lon="7.7936267"><ele>275.0</ele><time>2026-04-11T07:46:22.061Z</time></trkpt><trkpt lat="44.7716817" lon="7.7937633"><ele>275.0</ele><time>2026-04-11T07:46:24.061Z</time></trkpt><trkpt lat="44.771745" lon="7.79388"><ele>275.0</ele><time>2026-04-11T07:46:26.06Z</time></trkpt><trkpt lat="44.7718133" lon="7.794"><ele>275.6</ele><time>2026-04-11T07:46:28.06Z</time></trkpt><trkpt lat="44.7718917" lon="7.7941233"><ele>276.2</ele><time>2026-04-11T07:46:30.06Z</time></trkpt><trkpt lat="44.7719767" lon="7.7942433"><ele>276.8</ele><time>2026-04-11T07:46:32.06Z</time></trkpt><trkpt lat="44.7720583" lon="7.7943517"><ele>277.4</ele><time>2026-04-11T07:46:34.06Z</time></trkpt><trkpt lat="44.7721083" lon="7.7944083"><ele>278.0</ele><time>2026-04-11T07:46:35.061Z</time></trkpt><trkpt lat="44.7721967" lon="7.7945333"><ele>278.2</ele><time>2026-04-11T07:46:37.061Z</time></trkpt><trkpt lat="44.77224" lon="7.7946017"><ele>278.4</ele><time>2026-04-11T07:46:38.06Z</time></trkpt><trkpt lat="44.7722833" lon="7.7946667"><ele>278.59999999999997</ele><time>2026-04-11T07:46:39.06Z</time></trkpt><trkpt lat="44.7723633" lon="7.794795"><ele>278.8</ele><time>2026-04-11T07:46:41.059Z</time></trkpt><trkpt lat="44.77243" lon="7.79493"><ele>279.0</ele><time>2026-04-11T07:46:43.06Z</time></trkpt><trkpt lat="44.7724733" lon="7.7950683"><ele>278.8</ele><time>2026-04-11T07:46:45.062Z</time></trkpt><trkpt lat="44.772505" lon="7.79521"><ele>278.59999999999997</ele><time>2026-04-11T07:46:47.06Z</time></trkpt><trkpt lat="44.77254" lon="7.7953567"><ele>278.4</ele><time>2026-04-11T07:46:49.059Z</time></trkpt><trkpt lat="44.772575" lon="7.7955067"><ele>278.2</ele><time>2026-04-11T07:46:51.06Z</time></trkpt><trkpt lat="44.77261" lon="7.7956617"><ele>278.0</ele><time>2026-04-11T07:46:53.058Z</time></trkpt><trkpt lat="44.7726417" lon="7.7958133"><ele>278.0</ele><time>2026-04-11T07:46:55.06Z</time></trkpt><trkpt lat="44.7726633" lon="7.7958983"><ele>278.0</ele><time>2026-04-11T07:46:56.059Z</time></trkpt><trkpt lat="44.7726833" lon="7.7959867"><ele>278.0</ele><time>2026-04-11T07:46:57.06Z</time></trkpt><trkpt lat="44.7727067" lon="7.79608"><ele>278.0</ele><time>2026-04-11T07:46:58.061Z</time></trkpt><trkpt lat="44.7727333" lon="7.7961633"><ele>278.0</ele><time>2026-04-11T07:46:59.058Z</time></trkpt><trkpt lat="44.77278" lon="7.7963217"><ele>278.0</ele><time>2026-04-11T07:47:01.059Z</time></trkpt><trkpt lat="44.7728017" lon="7.79641"><ele>278.0</ele><time>2026-04-11T07:47:02.061Z</time></trkpt><trkpt lat="44.77282" lon="7.7965"><ele>278.0</ele><time>2026-04-11T07:47:03.061Z</time></trkpt><trkpt lat="44.7728417" lon="7.796585"><ele>278.0</ele><time>2026-04-11T07:47:04.059Z</time></trkpt><trkpt lat="44.772865" lon="7.7966717"><ele>278.0</ele><time>2026-04-11T07:47:05.06Z</time></trkpt><trkpt lat="44.7729" lon="7.7968417"><ele>278.0</ele><time>2026-04-11T07:47:07.062Z</time></trkpt><trkpt lat="44.7729183" lon="7.7969333"><ele>278.0</ele><time>2026-04-11T07:47:08.06Z</time></trkpt><trkpt lat="44.7729483" lon="7.7971033"><ele>278.0</ele><time>2026-04-11T07:47:10.061Z</time></trkpt><trkpt lat="44.7729667" lon="7.797195"><ele>278.0</ele><time>2026-04-11T07:47:11.058Z</time></trkpt><trkpt lat="44.7729767" lon="7.7972833"><ele>278.0</ele><time>2026-04-11T07:47:12.06Z</time></trkpt><trkpt lat="44.7729917" lon="7.7973783"><ele>278.0</ele><time>2026-04-11T07:47:13.06Z</time></trkpt><trkpt lat="44.7730033" lon="7.7974683"><ele>278.0</ele><time>2026-04-11T07:47:14.06Z</time></trkpt><trkpt lat="44.773015" lon="7.79756"><ele>278.0</ele><time>2026-04-11T07:47:15.061Z</time></trkpt><trkpt lat="44.773025" lon="7.7976517"><ele>278.0</ele><time>2026-04-11T07:47:16.059Z</time></trkpt><trkpt lat="44.7730367" lon="7.7977433"><ele>278.0</ele><time>2026-04-11T07:47:17.059Z</time></trkpt><trkpt lat="44.7730467" lon="7.7978367"><ele>278.0</ele><time>2026-04-11T07:47:18.059Z</time></trkpt><trkpt lat="44.7730567" lon="7.7979317"><ele>278.0</ele><time>2026-04-11T07:47:19.059Z</time></trkpt><trkpt lat="44.7730667" lon="7.798025"><ele>278.0</ele><time>2026-04-11T07:47:20.06Z</time></trkpt><trkpt lat="44.7730767" lon="7.798115"><ele>278.0</ele><time>2026-04-11T07:47:21.06Z</time></trkpt><trkpt lat="44.773085" lon="7.7982083"><ele>278.0</ele><time>2026-04-11T07:47:22.059Z</time></trkpt><trkpt lat="44.7730883" lon="7.7983017"><ele>278.0</ele><time>2026-04-11T07:47:23.058Z</time></trkpt><trkpt lat="44.77309" lon="7.7983917"><ele>278.0</ele><time>2026-04-11T07:47:24.059Z</time></trkpt><trkpt lat="44.7730967" lon="7.7984867"><ele>278.0</ele><time>2026-04-11T07:47:25.06Z</time></trkpt><trkpt lat="44.7731033" lon="7.79858"><ele>278.0</ele><time>2026-04-11T07:47:26.059Z</time></trkpt><trkpt lat="44.77311" lon="7.7986767"><ele>278.0</ele><time>2026-04-11T07:47:27.06Z</time></trkpt><trkpt lat="44.7731167" lon="7.798765"><ele>278.0</ele><time>2026-04-11T07:47:28.06Z</time></trkpt><trkpt lat="44.77312" lon="7.79886"><ele>278.0</ele><time>2026-04-11T07:47:29.06Z</time></trkpt><trkpt lat="44.7731217" lon="7.7989517"><ele>278.0</ele><time>2026-04-11T07:47:30.061Z</time></trkpt><trkpt lat="44.7731283" lon="7.79904"><ele>278.33333333333337</ele><time>2026-04-11T07:47:31.061Z</time></trkpt><trkpt lat="44.7731333" lon="7.79913"><ele>278.6666666666667</ele><time>2026-04-11T07:47:32.062Z</time></trkpt><trkpt lat="44.7731367" lon="7.7993083"><ele>279.0</ele><time>2026-04-11T07:47:34.06Z</time></trkpt><trkpt lat="44.7731367" lon="7.7994017"><ele>279.3333333333333</ele><time>2026-04-11T07:47:35.059Z</time></trkpt><trkpt lat="44.7731383" lon="7.799495"><ele>279.66666666666663</ele><time>2026-04-11T07:47:36.062Z</time></trkpt><trkpt lat="44.7731367" lon="7.7996717"><ele>280.0</ele><time>2026-04-11T07:47:38.06Z</time></trkpt><trkpt lat="44.7731333" lon="7.7997617"><ele>280.0</ele><time>2026-04-11T07:47:39.062Z</time></trkpt><trkpt lat="44.7731267" lon="7.7999417"><ele>280.0</ele><time>2026-04-11T07:47:41.062Z</time></trkpt><trkpt lat="44.7731233" lon="7.8000333"><ele>280.0</ele><time>2026-04-11T07:47:42.061Z</time></trkpt><trkpt lat="44.77312" lon="7.800125"><ele>280.0</ele><time>2026-04-11T07:47:43.061Z</time></trkpt><trkpt lat="44.7731167" lon="7.8002183"><ele>280.0</ele><time>2026-04-11T07:47:44.06Z</time></trkpt><trkpt lat="44.7731133" lon="7.8003083"><ele>280.0</ele><time>2026-04-11T07:47:45.062Z</time></trkpt><trkpt lat="44.773115" lon="7.8003983"><ele>280.3333333333333</ele><time>2026-04-11T07:47:46.063Z</time></trkpt><trkpt lat="44.7731233" lon="7.8004883"><ele>280.66666666666663</ele><time>2026-04-11T07:47:47.061Z</time></trkpt><trkpt lat="44.7731417" lon="7.8005767"><ele>281.0</ele><time>2026-04-11T07:47:48.061Z</time></trkpt><trkpt lat="44.7731683" lon="7.80066"><ele>281.3333333333333</ele><time>2026-04-11T07:47:49.06Z</time></trkpt><trkpt lat="44.7732183" lon="7.800815"><ele>281.6666666666667</ele><time>2026-04-11T07:47:51.061Z</time></trkpt><trkpt lat="44.7732633" lon="7.80096"><ele>282.0</ele><time>2026-04-11T07:47:53.062Z</time></trkpt><trkpt lat="44.7733033" lon="7.8011117"><ele>282.2</ele><time>2026-04-11T07:47:55.061Z</time></trkpt><trkpt lat="44.773335" lon="7.8012633"><ele>282.4</ele><time>2026-04-11T07:47:57.06Z</time></trkpt><trkpt lat="44.7733717" lon="7.801405"><ele>282.6</ele><time>2026-04-11T07:47:59.061Z</time></trkpt><trkpt lat="44.773425" lon="7.80153"><ele>282.8</ele><time>2026-04-11T07:48:01.063Z</time></trkpt><trkpt lat="44.77349" lon="7.8016333"><ele>283.0</ele><time>2026-04-11T07:48:03.061Z</time></trkpt><trkpt lat="44.77357" lon="7.8017"><ele>284.0</ele><time>2026-04-11T07:48:05.058Z</time></trkpt><trkpt lat="44.7736567" lon="7.80173"><ele>285.0</ele><time>2026-04-11T07:48:07.06Z</time></trkpt><trkpt lat="44.7737283" lon="7.8017833"><ele>286.0</ele><time>2026-04-11T07:48:09.06Z</time></trkpt><trkpt lat="44.7737683" lon="7.8018783"><ele>287.0</ele><time>2026-04-11T07:48:11.06Z</time></trkpt><trkpt lat="44.7737717" lon="7.8019967"><ele>288.0</ele><time>2026-04-11T07:48:13.066Z</time></trkpt><trkpt lat="44.7737633" lon="7.8021267"><ele>289.0</ele><time>2026-04-11T07:48:15.062Z</time></trkpt><trkpt lat="44.7737583" lon="7.802255"><ele>290.16666666666663</ele><time>2026-04-11T07:48:17.06Z</time></trkpt><trkpt lat="44.7737567" lon="7.8023717"><ele>291.3333333333333</ele><time>2026-04-11T07:48:19.063Z</time></trkpt><trkpt lat="44.7737533" lon="7.8024917"><ele>292.5</ele><time>2026-04-11T07:48:21.063Z</time></trkpt><trkpt lat="44.7737633" lon="7.802605"><ele>293.6666666666667</ele><time>2026-04-11T07:48:23.063Z</time></trkpt><trkpt lat="44.7737817" lon="7.8026933"><ele>294.83333333333337</ele><time>2026-04-11T07:48:25.062Z</time></trkpt><trkpt lat="44.77382" lon="7.8027733"><ele>296.0</ele><time>2026-04-11T07:48:27.061Z</time></trkpt><trkpt lat="44.7738683" lon="7.8028533"><ele>296.2857142857143</ele><time>2026-04-11T07:48:29.062Z</time></trkpt><trkpt lat="44.773915" lon="7.8029217"><ele>296.57142857142856</ele><time>2026-04-11T07:48:31.06Z</time></trkpt><trkpt lat="44.7739583" lon="7.8029883"><ele>296.85714285714283</ele><time>2026-04-11T07:48:33.063Z</time></trkpt><trkpt lat="44.774" lon="7.8030617"><ele>297.1428571428571</ele><time>2026-04-11T07:48:35.061Z</time></trkpt><trkpt lat="44.7740467" lon="7.803135"><ele>297.4285714285714</ele><time>2026-04-11T07:48:37.06Z</time></trkpt><trkpt lat="44.774095" lon="7.8031967"><ele>297.7142857142857</ele><time>2026-04-11T07:48:39.06Z</time></trkpt><trkpt lat="44.77416" lon="7.8032733"><ele>298.0</ele><time>2026-04-11T07:48:42.06Z</time></trkpt><trkpt lat="44.7742133" lon="7.8033483"><ele>298.0</ele><time>2026-04-11T07:48:45.06Z</time></trkpt><trkpt lat="44.77427" lon="7.803405"><ele>298.0</ele><time>2026-04-11T07:48:48.061Z</time></trkpt><trkpt lat="44.7743383" lon="7.8034633"><ele>298.0</ele><time>2026-04-11T07:48:52.06Z</time></trkpt><trkpt lat="44.7744133" lon="7.80352"><ele>298.0</ele><time>2026-04-11T07:49:57.062Z</time></trkpt><trkpt lat="44.774465" lon="7.803575"><ele>298.0</ele><time>2026-04-11T07:50:09.063Z</time></trkpt><trkpt lat="44.774385" lon="7.8035217"><ele>298.0</ele><time>2026-04-11T07:51:21.059Z</time></trkpt><trkpt lat="44.7743333" lon="7.80347"><ele>298.0</ele><time>2026-04-11T07:51:23.058Z</time></trkpt><trkpt lat="44.7742667" lon="7.80341"><ele>298.0</ele><time>2026-04-11T07:51:25.059Z</time></trkpt><trkpt lat="44.774195" lon="7.8033317"><ele>298.0</ele><time>2026-04-11T07:51:27.06Z</time></trkpt><trkpt lat="44.7741283" lon="7.8032333"><ele>298.0</ele><time>2026-04-11T07:51:29.06Z</time></trkpt><trkpt lat="44.7740583" lon="7.8031317"><ele>298.0</ele><time>2026-04-11T07:51:31.059Z</time></trkpt><trkpt lat="44.7739833" lon="7.80302"><ele>298.0</ele><time>2026-04-11T07:51:33.062Z</time></trkpt><trkpt lat="44.7739033" lon="7.802915"><ele>298.0</ele><time>2026-04-11T07:51:35.06Z</time></trkpt><trkpt lat="44.77383" lon="7.8027983"><ele>298.0</ele><time>2026-04-11T07:51:37.061Z</time></trkpt><trkpt lat="44.7737783" lon="7.8026633"><ele>298.0</ele><time>2026-04-11T07:51:39.059Z</time></trkpt><trkpt lat="44.7737533" lon="7.8025017"><ele>298.0</ele><time>2026-04-11T07:51:41.06Z</time></trkpt><trkpt lat="44.7737483" lon="7.8024117"><ele>297.66666666666663</ele><time>2026-04-11T07:51:42.06Z</time></trkpt><trkpt lat="44.7737517" lon="7.802315"><ele>297.3333333333333</ele><time>2026-04-11T07:51:43.061Z</time></trkpt><trkpt lat="44.7737583" lon="7.8022117"><ele>297.0</ele><time>2026-04-11T07:51:44.062Z</time></trkpt><trkpt lat="44.7737567" lon="7.8021117"><ele>296.6666666666667</ele><time>2026-04-11T07:51:45.063Z</time></trkpt><trkpt lat="44.7737567" lon="7.8020167"><ele>296.33333333333337</ele><time>2026-04-11T07:51:46.062Z</time></trkpt><trkpt lat="44.7737433" lon="7.801865"><ele>296.0</ele><time>2026-04-11T07:51:48.06Z</time></trkpt><trkpt lat="44.7736767" lon="7.80178"><ele>294.6</ele><time>2026-04-11T07:51:50.06Z</time></trkpt><trkpt lat="44.77358" lon="7.8017317"><ele>293.20000000000005</ele><time>2026-04-11T07:51:52.059Z</time></trkpt><trkpt lat="44.77349" lon="7.8016633"><ele>291.79999999999995</ele><time>2026-04-11T07:51:54.061Z</time></trkpt><trkpt lat="44.7734117" lon="7.80154"><ele>290.4</ele><time>2026-04-11T07:51:56.056Z</time></trkpt><trkpt lat="44.77336" lon="7.80138"><ele>289.0</ele><time>2026-04-11T07:51:58.061Z</time></trkpt><trkpt lat="44.7733217" lon="7.8012117"><ele>288.14285714285717</ele><time>2026-04-11T07:52:00.062Z</time></trkpt><trkpt lat="44.773305" lon="7.801125"><ele>287.2857142857143</ele><time>2026-04-11T07:52:01.06Z</time></trkpt><trkpt lat="44.773285" lon="7.8010367"><ele>286.42857142857144</ele><time>2026-04-11T07:52:02.061Z</time></trkpt><trkpt lat="44.7732633" lon="7.8009517"><ele>285.57142857142856</ele><time>2026-04-11T07:52:03.061Z</time></trkpt><trkpt lat="44.77324" lon="7.8008667"><ele>284.7142857142857</ele><time>2026-04-11T07:52:04.059Z</time></trkpt><trkpt lat="44.77321" lon="7.8007817"><ele>283.8571428571429</ele><time>2026-04-11T07:52:05.06Z</time></trkpt><trkpt lat="44.7731817" lon="7.8006983"><ele>283.0</ele><time>2026-04-11T07:52:06.06Z</time></trkpt><trkpt lat="44.7731317" lon="7.80057"><ele>282.8333333333333</ele><time>2026-04-11T07:52:08.062Z</time></trkpt><trkpt lat="44.7731067" lon="7.8004583"><ele>282.66666666666663</ele><time>2026-04-11T07:52:11.06Z</time></trkpt><trkpt lat="44.77309" lon="7.8003483"><ele>282.5</ele><time>2026-04-11T07:52:37.062Z</time></trkpt><trkpt lat="44.773095" lon="7.800245"><ele>282.3333333333333</ele><time>2026-04-11T07:52:40.061Z</time></trkpt><trkpt lat="44.7731033" lon="7.8001517"><ele>282.1666666666667</ele><time>2026-04-11T07:52:42.062Z</time></trkpt><trkpt lat="44.7731183" lon="7.8000417"><ele>282.0</ele><time>2026-04-11T07:52:44.06Z</time></trkpt><trkpt lat="44.7731317" lon="7.7999217"><ele>281.6</ele><time>2026-04-11T07:52:46.062Z</time></trkpt><trkpt lat="44.773135" lon="7.7998017"><ele>281.2</ele><time>2026-04-11T07:52:48.059Z</time></trkpt><trkpt lat="44.7731367" lon="7.79967"><ele>280.8</ele><time>2026-04-11T07:52:50.062Z</time></trkpt><trkpt lat="44.7731367" lon="7.7995383"><ele>280.4</ele><time>2026-04-11T07:52:52.06Z</time></trkpt><trkpt lat="44.7731417" lon="7.7994083"><ele>280.0</ele><time>2026-04-11T07:52:54.061Z</time></trkpt><trkpt lat="44.7731417" lon="7.799275"><ele>280.0</ele><time>2026-04-11T07:52:56.062Z</time></trkpt><trkpt lat="44.77314" lon="7.7991317"><ele>280.0</ele><time>2026-04-11T07:52:58.06Z</time></trkpt><trkpt lat="44.773135" lon="7.7989783"><ele>280.0</ele><time>2026-04-11T07:53:00.061Z</time></trkpt><trkpt lat="44.7731283" lon="7.7988217"><ele>280.0</ele><time>2026-04-11T07:53:02.063Z</time></trkpt><trkpt lat="44.7731233" lon="7.798665"><ele>280.0</ele><time>2026-04-11T07:53:04.061Z</time></trkpt><trkpt lat="44.7731117" lon="7.7985167"><ele>279.6</ele><time>2026-04-11T07:53:06.058Z</time></trkpt><trkpt lat="44.773105" lon="7.79838"><ele>279.2</ele><time>2026-04-11T07:53:08.059Z</time></trkpt><trkpt lat="44.7731067" lon="7.798245"><ele>278.8</ele><time>2026-04-11T07:53:10.061Z</time></trkpt><trkpt lat="44.7731" lon="7.79811"><ele>278.4</ele><time>2026-04-11T07:53:12.06Z</time></trkpt><trkpt lat="44.7730883" lon="7.797965"><ele>278.0</ele><time>2026-04-11T07:53:14.061Z</time></trkpt><trkpt lat="44.7730717" lon="7.7978133"><ele>278.0</ele><time>2026-04-11T07:53:16.059Z</time></trkpt><trkpt lat="44.773055" lon="7.7976667"><ele>278.0</ele><time>2026-04-11T07:53:18.06Z</time></trkpt><trkpt lat="44.773045" lon="7.7975183"><ele>278.0</ele><time>2026-04-11T07:53:20.058Z</time></trkpt><trkpt lat="44.7730283" lon="7.7973633"><ele>278.0</ele><time>2026-04-11T07:53:22.061Z</time></trkpt><trkpt lat="44.773005" lon="7.7971983"><ele>278.0</ele><time>2026-04-11T07:53:24.062Z</time></trkpt><trkpt lat="44.77299" lon="7.7971117"><ele>278.0</ele><time>2026-04-11T07:53:25.061Z</time></trkpt><trkpt lat="44.77296" lon="7.79694"><ele>278.0</ele><time>2026-04-11T07:53:27.061Z</time></trkpt><trkpt lat="44.772945" lon="7.7968533"><ele>278.0</ele><time>2026-04-11T07:53:28.058Z</time></trkpt><trkpt lat="44.7729267" lon="7.7967683"><ele>278.0</ele><time>2026-04-11T07:53:29.06Z</time></trkpt><trkpt lat="44.7728883" lon="7.7966083"><ele>278.0</ele><time>2026-04-11T07:53:31.058Z</time></trkpt><trkpt lat="44.7728533" lon="7.7964467"><ele>278.0</ele><time>2026-04-11T07:53:33.062Z</time></trkpt><trkpt lat="44.77282" lon="7.7962917"><ele>278.0</ele><time>2026-04-11T07:53:35.058Z</time></trkpt><trkpt lat="44.7727783" lon="7.7961317"><ele>278.0</ele><time>2026-04-11T07:53:37.062Z</time></trkpt><trkpt lat="44.77274" lon="7.7959767"><ele>278.0</ele><time>2026-04-11T07:53:39.06Z</time></trkpt><trkpt lat="44.77271" lon="7.7958217"><ele>278.0</ele><time>2026-04-11T07:53:41.059Z</time></trkpt><trkpt lat="44.77268" lon="7.79567"><ele>278.0</ele><time>2026-04-11T07:53:43.062Z</time></trkpt><trkpt lat="44.77265" lon="7.7955233"><ele>278.0</ele><time>2026-04-11T07:53:45.062Z</time></trkpt><trkpt lat="44.7726167" lon="7.79538"><ele>278.0</ele><time>2026-04-11T07:53:47.06Z</time></trkpt><trkpt lat="44.7725767" lon="7.79524"><ele>278.0</ele><time>2026-04-11T07:53:49.062Z</time></trkpt><trkpt lat="44.7725483" lon="7.7951167"><ele>278.1666666666667</ele><time>2026-04-11T07:53:51.063Z</time></trkpt><trkpt lat="44.7725033" lon="7.7950367"><ele>278.33333333333337</ele><time>2026-04-11T07:54:07.063Z</time></trkpt><trkpt lat="44.7724617" lon="7.7949683"><ele>278.5</ele><time>2026-04-11T07:54:09.063Z</time></trkpt><trkpt lat="44.7724117" lon="7.7948683"><ele>278.6666666666667</ele><time>2026-04-11T07:54:11.06Z</time></trkpt><trkpt lat="44.77235" lon="7.794765"><ele>278.8333333333333</ele><time>2026-04-11T07:54:13.061Z</time></trkpt><trkpt lat="44.77229" lon="7.7946583"><ele>279.0</ele><time>2026-04-11T07:54:15.061Z</time></trkpt><trkpt lat="44.772215" lon="7.7945617"><ele>279.0</ele><time>2026-04-11T07:54:17.06Z</time></trkpt><trkpt lat="44.7721367" lon="7.7944533"><ele>279.0</ele><time>2026-04-11T07:54:19.06Z</time></trkpt><trkpt lat="44.7720583" lon="7.7943483"><ele>279.0</ele><time>2026-04-11T07:54:21.061Z</time></trkpt><trkpt lat="44.772005" lon="7.7942533"><ele>279.0</ele><time>2026-04-11T07:54:23.059Z</time></trkpt><trkpt lat="44.7720183" lon="7.7941633"><ele>279.0</ele><time>2026-04-11T07:54:25.061Z</time></trkpt><trkpt lat="44.7720833" lon="7.7940983"><ele>279.0</ele><time>2026-04-11T07:54:27.061Z</time></trkpt><trkpt lat="44.7721717" lon="7.7940417"><ele>278.8</ele><time>2026-04-11T07:54:29.06Z</time></trkpt><trkpt lat="44.7722517" lon="7.7939817"><ele>278.59999999999997</ele><time>2026-04-11T07:54:31.059Z</time></trkpt><trkpt lat="44.772325" lon="7.7939083"><ele>278.4</ele><time>2026-04-11T07:54:33.058Z</time></trkpt><trkpt lat="44.7723883" lon="7.79386"><ele>278.2</ele><time>2026-04-11T07:54:35.058Z</time></trkpt><trkpt lat="44.772465" lon="7.7938017"><ele>278.0</ele><time>2026-04-11T07:54:38.062Z</time></trkpt><trkpt lat="44.7725733" lon="7.7938833"><ele>278.0</ele><time>2026-04-11T07:54:42.057Z</time></trkpt><trkpt lat="44.772625" lon="7.79394"><ele>278.0</ele><time>2026-04-11T07:54:44.059Z</time></trkpt><trkpt lat="44.7726783" lon="7.7940067"><ele>278.0</ele><time>2026-04-11T07:54:46.058Z</time></trkpt><trkpt lat="44.7727333" lon="7.7940817"><ele>278.0</ele><time>2026-04-11T07:54:48.059Z</time></trkpt><trkpt lat="44.77279" lon="7.794155"><ele>278.0</ele><time>2026-04-11T07:54:50.058Z</time></trkpt><trkpt lat="44.7728467" lon="7.7942317"><ele>278.0</ele><time>2026-04-11T07:54:52.062Z</time></trkpt><trkpt lat="44.7729017" lon="7.7943033"><ele>278.0</ele><time>2026-04-11T07:54:54.06Z</time></trkpt><trkpt lat="44.7729617" lon="7.7943833"><ele>278.6666666666667</ele><time>2026-04-11T07:54:56.058Z</time></trkpt><trkpt lat="44.7730267" lon="7.7944617"><ele>279.33333333333337</ele><time>2026-04-11T07:54:58.058Z</time></trkpt><trkpt lat="44.773095" lon="7.7945433"><ele>280.0</ele><time>2026-04-11T07:55:00.058Z</time></trkpt><trkpt lat="44.7731583" lon="7.7946167"><ele>280.6666666666667</ele><time>2026-04-11T07:55:02.059Z</time></trkpt><trkpt lat="44.7732183" lon="7.7946933"><ele>281.3333333333333</ele><time>2026-04-11T07:55:04.064Z</time></trkpt><trkpt lat="44.7732783" lon="7.794765"><ele>282.0</ele><time>2026-04-11T07:55:06.058Z</time></trkpt><trkpt lat="44.773335" lon="7.7948233"><ele>282.0</ele><time>2026-04-11T07:55:08.059Z</time></trkpt><trkpt lat="44.77339" lon="7.7948883"><ele>282.0</ele><time>2026-04-11T07:55:10.059Z</time></trkpt><trkpt lat="44.773455" lon="7.7949533"><ele>282.0</ele><time>2026-04-11T07:55:12.06Z</time></trkpt><trkpt lat="44.7735217" lon="7.79502"><ele>282.0</ele><time>2026-04-11T07:55:14.06Z</time></trkpt><trkpt lat="44.7735883" lon="7.7950967"><ele>282.0</ele><time>2026-04-11T07:55:16.063Z</time></trkpt><trkpt lat="44.7736567" lon="7.795175"><ele>282.0</ele><time>2026-04-11T07:55:18.059Z</time></trkpt><trkpt lat="44.7737217" lon="7.7952417"><ele>283.5</ele><time>2026-04-11T07:55:20.06Z</time></trkpt><trkpt lat="44.7737883" lon="7.7953083"><ele>285.0</ele><time>2026-04-11T07:55:22.06Z</time></trkpt><trkpt lat="44.773855" lon="7.7953767"><ele>286.5</ele><time>2026-04-11T07:55:24.06Z</time></trkpt><trkpt lat="44.7739167" lon="7.79545"><ele>288.0</ele><time>2026-04-11T07:55:26.062Z</time></trkpt><trkpt lat="44.7739833" lon="7.7955233"><ele>289.5</ele><time>2026-04-11T07:55:28.06Z</time></trkpt><trkpt lat="44.7740483" lon="7.7955933"><ele>291.0</ele><time>2026-04-11T07:55:30.061Z</time></trkpt><trkpt lat="44.7741183" lon="7.79566"><ele>291.0</ele><time>2026-04-11T07:55:32.059Z</time></trkpt><trkpt lat="44.7741883" lon="7.7957267"><ele>291.0</ele><time>2026-04-11T07:55:34.062Z</time></trkpt><trkpt lat="44.7742633" lon="7.7957933"><ele>291.0</ele><time>2026-04-11T07:55:36.061Z</time></trkpt><trkpt lat="44.7743383" lon="7.7958633"><ele>291.0</ele><time>2026-04-11T07:55:38.061Z</time></trkpt><trkpt lat="44.77442" lon="7.795935"><ele>291.0</ele><time>2026-04-11T07:55:40.059Z</time></trkpt><trkpt lat="44.7745017" lon="7.7960067"><ele>292.6</ele><time>2026-04-11T07:55:42.062Z</time></trkpt><trkpt lat="44.7745817" lon="7.79607"><ele>294.20000000000005</ele><time>2026-04-11T07:55:44.061Z</time></trkpt><trkpt lat="44.7746567" lon="7.796125"><ele>295.79999999999995</ele><time>2026-04-11T07:55:46.061Z</time></trkpt><trkpt lat="44.7747333" lon="7.7961867"><ele>297.4</ele><time>2026-04-11T07:55:48.06Z</time></trkpt><trkpt lat="44.7748133" lon="7.796255"><ele>299.0</ele><time>2026-04-11T07:55:50.06Z</time></trkpt><trkpt lat="44.7748917" lon="7.7963217"><ele>299.0</ele><time>2026-04-11T07:55:52.067Z</time></trkpt><trkpt lat="44.7749717" lon="7.79639"><ele>299.0</ele><time>2026-04-11T07:55:54.059Z</time></trkpt><trkpt lat="44.7750517" lon="7.7964567"><ele>299.0</ele><time>2026-04-11T07:55:56.06Z</time></trkpt><trkpt lat="44.775125" lon="7.79652"><ele>299.0</ele><time>2026-04-11T07:55:58.06Z</time></trkpt><trkpt lat="44.7751967" lon="7.796585"><ele>299.0</ele><time>2026-04-11T07:56:00.06Z</time></trkpt><trkpt lat="44.77527" lon="7.7966483"><ele>299.0</ele><time>2026-04-11T07:56:02.062Z</time></trkpt><trkpt lat="44.775345" lon="7.7967167"><ele>299.33333333333337</ele><time>2026-04-11T07:56:04.061Z</time></trkpt><trkpt lat="44.7754183" lon="7.7967883"><ele>299.6666666666667</ele><time>2026-04-11T07:56:06.059Z</time></trkpt><trkpt lat="44.775485" lon="7.7968667"><ele>300.0</ele><time>2026-04-11T07:56:08.06Z</time></trkpt><trkpt lat="44.7755483" lon="7.7969417"><ele>300.3333333333333</ele><time>2026-04-11T07:56:10.058Z</time></trkpt><trkpt lat="44.7756117" lon="7.7970183"><ele>300.66666666666663</ele><time>2026-04-11T07:56:12.06Z</time></trkpt><trkpt lat="44.7756667" lon="7.7971"><ele>301.0</ele><time>2026-04-11T07:56:14.061Z</time></trkpt><trkpt lat="44.7757183" lon="7.7971917"><ele>301.0</ele><time>2026-04-11T07:56:16.06Z</time></trkpt><trkpt lat="44.7757667" lon="7.7972917"><ele>301.0</ele><time>2026-04-11T07:56:18.06Z</time></trkpt><trkpt lat="44.7758133" lon="7.797405"><ele>301.0</ele><time>2026-04-11T07:56:20.064Z</time></trkpt><trkpt lat="44.7758567" lon="7.7975433"><ele>301.0</ele><time>2026-04-11T07:56:22.06Z</time></trkpt><trkpt lat="44.775895" lon="7.797685"><ele>301.0</ele><time>2026-04-11T07:56:24.062Z</time></trkpt><trkpt lat="44.775935" lon="7.7978267"><ele>301.0</ele><time>2026-04-11T07:56:26.058Z</time></trkpt><trkpt lat="44.775975" lon="7.7979733"><ele>301.0</ele><time>2026-04-11T07:56:28.06Z</time></trkpt><trkpt lat="44.7760167" lon="7.79813"><ele>301.0</ele><time>2026-04-11T07:56:30.059Z</time></trkpt><trkpt lat="44.77606" lon="7.79829"><ele>301.0</ele><time>2026-04-11T07:56:32.06Z</time></trkpt><trkpt lat="44.7761083" lon="7.798455"><ele>301.0</ele><time>2026-04-11T07:56:34.062Z</time></trkpt><trkpt lat="44.7761317" lon="7.79854"><ele>301.0</ele><time>2026-04-11T07:56:35.058Z</time></trkpt><trkpt lat="44.7761583" lon="7.7986283"><ele>301.0</ele><time>2026-04-11T07:56:36.061Z</time></trkpt><trkpt lat="44.7761817" lon="7.798715"><ele>301.0</ele><time>2026-04-11T07:56:37.061Z</time></trkpt><trkpt lat="44.7762083" lon="7.7988017"><ele>301.0</ele><time>2026-04-11T07:56:38.063Z</time></trkpt><trkpt lat="44.7762533" lon="7.7989667"><ele>301.0</ele><time>2026-04-11T07:56:40.061Z</time></trkpt><trkpt lat="44.776275" lon="7.79905"><ele>301.0</ele><time>2026-04-11T07:56:41.059Z</time></trkpt><trkpt lat="44.7762983" lon="7.7991367"><ele>301.0</ele><time>2026-04-11T07:56:42.059Z</time></trkpt><trkpt lat="44.7763167" lon="7.7992217"><ele>301.0</ele><time>2026-04-11T07:56:43.061Z</time></trkpt><trkpt lat="44.7763367" lon="7.7993067"><ele>301.0</ele><time>2026-04-11T07:56:44.06Z</time></trkpt><trkpt lat="44.7763533" lon="7.799395"><ele>301.0</ele><time>2026-04-11T07:56:45.063Z</time></trkpt><trkpt lat="44.7763683" lon="7.799485"><ele>301.0</ele><time>2026-04-11T07:56:46.062Z</time></trkpt><trkpt lat="44.7763833" lon="7.79958"><ele>301.0</ele><time>2026-04-11T07:56:47.059Z</time></trkpt><trkpt lat="44.7764" lon="7.7996733"><ele>301.0</ele><time>2026-04-11T07:56:48.059Z</time></trkpt><trkpt lat="44.7764183" lon="7.7997683"><ele>301.0</ele><time>2026-04-11T07:56:49.061Z</time></trkpt><trkpt lat="44.7764317" lon="7.79986"><ele>301.0</ele><time>2026-04-11T07:56:50.06Z</time></trkpt><trkpt lat="44.7764483" lon="7.79995"><ele>301.0</ele><time>2026-04-11T07:56:51.061Z</time></trkpt><trkpt lat="44.7764633" lon="7.8000417"><ele>301.0</ele><time>2026-04-11T07:56:52.061Z</time></trkpt><trkpt lat="44.7764767" lon="7.8001333"><ele>301.0</ele><time>2026-04-11T07:56:53.06Z</time></trkpt><trkpt lat="44.7764967" lon="7.8003017"><ele>301.0</ele><time>2026-04-11T07:56:55.06Z</time></trkpt><trkpt lat="44.7765183" lon="7.800465"><ele>301.0</ele><time>2026-04-11T07:56:57.06Z</time></trkpt><trkpt lat="44.7765433" lon="7.800635"><ele>301.0</ele><time>2026-04-11T07:56:59.059Z</time></trkpt><trkpt lat="44.7765567" lon="7.8007217"><ele>301.0</ele><time>2026-04-11T07:57:00.059Z</time></trkpt><trkpt lat="44.77658" lon="7.8008933"><ele>301.0</ele><time>2026-04-11T07:57:02.061Z</time></trkpt><trkpt lat="44.7766067" lon="7.8010667"><ele>301.16666666666663</ele><time>2026-04-11T07:57:04.059Z</time></trkpt><trkpt lat="44.7766183" lon="7.801155"><ele>301.3333333333333</ele><time>2026-04-11T07:57:05.059Z</time></trkpt><trkpt lat="44.77663" lon="7.801245"><ele>301.5</ele><time>2026-04-11T07:57:06.06Z</time></trkpt><trkpt lat="44.7766433" lon="7.8013317"><ele>301.6666666666667</ele><time>2026-04-11T07:57:07.06Z</time></trkpt><trkpt lat="44.77667" lon="7.8015"><ele>301.83333333333337</ele><time>2026-04-11T07:57:09.061Z</time></trkpt><trkpt lat="44.7766967" lon="7.8016633"><ele>302.0</ele><time>2026-04-11T07:57:11.059Z</time></trkpt><trkpt lat="44.7767283" lon="7.801825"><ele>302.0</ele><time>2026-04-11T07:57:13.059Z</time></trkpt><trkpt lat="44.7767683" lon="7.80199"><ele>302.0</ele><time>2026-04-11T07:57:15.062Z</time></trkpt><trkpt lat="44.77682" lon="7.8021467"><ele>302.0</ele><time>2026-04-11T07:57:17.06Z</time></trkpt><trkpt lat="44.7768867" lon="7.8023"><ele>302.0</ele><time>2026-04-11T07:57:19.06Z</time></trkpt><trkpt lat="44.7769233" lon="7.802375"><ele>302.0</ele><time>2026-04-11T07:57:20.06Z</time></trkpt><trkpt lat="44.776965" lon="7.802445"><ele>302.00000000000006</ele><time>2026-04-11T07:57:21.062Z</time></trkpt><trkpt lat="44.7770067" lon="7.8025117"><ele>302.0</ele><time>2026-04-11T07:57:22.06Z</time></trkpt><trkpt lat="44.77705" lon="7.80258"><ele>302.0</ele><time>2026-04-11T07:57:23.059Z</time></trkpt><trkpt lat="44.7770917" lon="7.8026533"><ele>302.0</ele><time>2026-04-11T07:57:24.059Z</time></trkpt><trkpt lat="44.7771333" lon="7.8027217"><ele>302.0</ele><time>2026-04-11T07:57:25.063Z</time></trkpt><trkpt lat="44.7771783" lon="7.8027917"><ele>302.00000000000006</ele><time>2026-04-11T07:57:26.062Z</time></trkpt><trkpt lat="44.777225" lon="7.802855"><ele>302.0</ele><time>2026-04-11T07:57:27.06Z</time></trkpt><trkpt lat="44.7772983" lon="7.802995"><ele>301.83333333333337</ele><time>2026-04-11T07:57:29.059Z</time></trkpt><trkpt lat="44.7773033" lon="7.8030867"><ele>301.6666666666667</ele><time>2026-04-11T07:57:30.059Z</time></trkpt><trkpt lat="44.7772533" lon="7.803245"><ele>301.5</ele><time>2026-04-11T07:57:32.06Z</time></trkpt><trkpt lat="44.777205" lon="7.803305"><ele>301.3333333333333</ele><time>2026-04-11T07:57:33.061Z</time></trkpt><trkpt lat="44.7771583" lon="7.8033667"><ele>301.16666666666663</ele><time>2026-04-11T07:57:34.059Z</time></trkpt><trkpt lat="44.7771133" lon="7.80343"><ele>301.0</ele><time>2026-04-11T07:57:35.06Z</time></trkpt><trkpt lat="44.777025" lon="7.80355"><ele>301.0</ele><time>2026-04-11T07:57:37.06Z</time></trkpt><trkpt lat="44.776935" lon="7.8036767"><ele>301.0</ele><time>2026-04-11T07:57:39.061Z</time></trkpt><trkpt lat="44.7768433" lon="7.8038017"><ele>301.0</ele><time>2026-04-11T07:57:41.058Z</time></trkpt><trkpt lat="44.7767967" lon="7.8038633"><ele>301.0</ele><time>2026-04-11T07:57:42.06Z</time></trkpt><trkpt lat="44.77675" lon="7.8039233"><ele>301.0</ele><time>2026-04-11T07:57:43.06Z</time></trkpt><trkpt lat="44.7766583" lon="7.8040467"><ele>301.0</ele><time>2026-04-11T07:57:45.062Z</time></trkpt><trkpt lat="44.77657" lon="7.8041683"><ele>301.0</ele><time>2026-04-11T07:57:47.059Z</time></trkpt><trkpt lat="44.7764833" lon="7.8042933"><ele>301.0</ele><time>2026-04-11T07:57:49.062Z</time></trkpt><trkpt lat="44.7763917" lon="7.8044183"><ele>301.0</ele><time>2026-04-11T07:57:51.061Z</time></trkpt><trkpt lat="44.7763033" lon="7.8045467"><ele>301.0</ele><time>2026-04-11T07:57:53.059Z</time></trkpt><trkpt lat="44.7762567" lon="7.8046083"><ele>301.0</ele><time>2026-04-11T07:57:54.055Z</time></trkpt><trkpt lat="44.7761633" lon="7.80473"><ele>301.0</ele><time>2026-04-11T07:57:56.059Z</time></trkpt><trkpt lat="44.776115" lon="7.80479"><ele>301.0</ele><time>2026-04-11T07:57:57.06Z</time></trkpt><trkpt lat="44.7760683" lon="7.804855"><ele>301.0</ele><time>2026-04-11T07:57:58.061Z</time></trkpt><trkpt lat="44.7760217" lon="7.80492"><ele>301.0</ele><time>2026-04-11T07:57:59.06Z</time></trkpt><trkpt lat="44.775975" lon="7.804985"><ele>301.42857142857144</ele><time>2026-04-11T07:58:00.057Z</time></trkpt><trkpt lat="44.7759283" lon="7.8050517"><ele>301.8571428571429</ele><time>2026-04-11T07:58:01.061Z</time></trkpt><trkpt lat="44.7758783" lon="7.8051167"><ele>302.2857142857143</ele><time>2026-04-11T07:58:02.066Z</time></trkpt><trkpt lat="44.7758317" lon="7.80518"><ele>302.7142857142857</ele><time>2026-04-11T07:58:03.061Z</time></trkpt><trkpt lat="44.775785" lon="7.8052467"><ele>303.14285714285717</ele><time>2026-04-11T07:58:04.059Z</time></trkpt><trkpt lat="44.7757417" lon="7.8053117"><ele>303.57142857142856</ele><time>2026-04-11T07:58:05.061Z</time></trkpt><trkpt lat="44.7756983" lon="7.8053767"><ele>304.0</ele><time>2026-04-11T07:58:06.062Z</time></trkpt><trkpt lat="44.7756117" lon="7.8055067"><ele>304.0</ele><time>2026-04-11T07:58:08.06Z</time></trkpt><trkpt lat="44.7755683" lon="7.8055733"><ele>304.0</ele><time>2026-04-11T07:58:09.062Z</time></trkpt><trkpt lat="44.7755267" lon="7.8056417"><ele>304.0</ele><time>2026-04-11T07:58:10.062Z</time></trkpt><trkpt lat="44.775455" lon="7.8057867"><ele>304.0</ele><time>2026-04-11T07:58:12.059Z</time></trkpt><trkpt lat="44.77542" lon="7.8058617"><ele>304.0</ele><time>2026-04-11T07:58:13.059Z</time></trkpt><trkpt lat="44.7753883" lon="7.80594"><ele>304.0</ele><time>2026-04-11T07:58:14.06Z</time></trkpt><trkpt lat="44.7753533" lon="7.806015"><ele>304.0</ele><time>2026-04-11T07:58:15.06Z</time></trkpt><trkpt lat="44.7753167" lon="7.8060883"><ele>304.2857142857143</ele><time>2026-04-11T07:58:16.061Z</time></trkpt><trkpt lat="44.77528" lon="7.8061617"><ele>304.5714285714286</ele><time>2026-04-11T07:58:17.06Z</time></trkpt><trkpt lat="44.7752417" lon="7.806235"><ele>304.8571428571429</ele><time>2026-04-11T07:58:18.062Z</time></trkpt><trkpt lat="44.7752017" lon="7.8063083"><ele>305.1428571428571</ele><time>2026-04-11T07:58:19.059Z</time></trkpt><trkpt lat="44.7751617" lon="7.80638"><ele>305.42857142857144</ele><time>2026-04-11T07:58:20.062Z</time></trkpt><trkpt lat="44.7751217" lon="7.806455"><ele>305.7142857142857</ele><time>2026-04-11T07:58:21.062Z</time></trkpt><trkpt lat="44.7750817" lon="7.8065283"><ele>306.0</ele><time>2026-04-11T07:58:22.06Z</time></trkpt><trkpt lat="44.7750433" lon="7.8066"><ele>306.0</ele><time>2026-04-11T07:58:23.058Z</time></trkpt><trkpt lat="44.775005" lon="7.806675"><ele>306.0</ele><time>2026-04-11T07:58:24.058Z</time></trkpt><trkpt lat="44.774965" lon="7.8067517"><ele>306.0</ele><time>2026-04-11T07:58:25.054Z</time></trkpt><trkpt lat="44.7749267" lon="7.8068267"><ele>306.0</ele><time>2026-04-11T07:58:26.059Z</time></trkpt><trkpt lat="44.7748867" lon="7.8069017"><ele>306.0</ele><time>2026-04-11T07:58:27.063Z</time></trkpt><trkpt lat="44.7748483" lon="7.8069783"><ele>306.0</ele><time>2026-04-11T07:58:28.061Z</time></trkpt><trkpt lat="44.7748083" lon="7.807055"><ele>306.0</ele><time>2026-04-11T07:58:29.06Z</time></trkpt><trkpt lat="44.7747667" lon="7.80713"><ele>306.0</ele><time>2026-04-11T07:58:30.059Z</time></trkpt><trkpt lat="44.7747267" lon="7.807205"><ele>306.0</ele><time>2026-04-11T07:58:31.064Z</time></trkpt><trkpt lat="44.7746867" lon="7.8072833"><ele>306.0</ele><time>2026-04-11T07:58:32.06Z</time></trkpt><trkpt lat="44.7746467" lon="7.80736"><ele>306.0</ele><time>2026-04-11T07:58:33.062Z</time></trkpt><trkpt lat="44.7746083" lon="7.8074383"><ele>306.0</ele><time>2026-04-11T07:58:34.06Z</time></trkpt><trkpt lat="44.77457" lon="7.807515"><ele>306.0</ele><time>2026-04-11T07:58:35.062Z</time></trkpt><trkpt lat="44.7745367" lon="7.8075933"><ele>306.0</ele><time>2026-04-11T07:58:36.062Z</time></trkpt><trkpt lat="44.7745" lon="7.8076683"><ele>306.0</ele><time>2026-04-11T07:58:37.06Z</time></trkpt><trkpt lat="44.774465" lon="7.8077467"><ele>306.0</ele><time>2026-04-11T07:58:38.06Z</time></trkpt><trkpt lat="44.7744317" lon="7.8078267"><ele>306.0</ele><time>2026-04-11T07:58:39.06Z</time></trkpt><trkpt lat="44.7743967" lon="7.8079033"><ele>306.0</ele><time>2026-04-11T07:58:40.059Z</time></trkpt><trkpt lat="44.7743617" lon="7.80798"><ele>306.0</ele><time>2026-04-11T07:58:41.059Z</time></trkpt><trkpt lat="44.774325" lon="7.8080567"><ele>306.0</ele><time>2026-04-11T07:58:42.062Z</time></trkpt><trkpt lat="44.77429" lon="7.808135"><ele>306.0</ele><time>2026-04-11T07:58:43.061Z</time></trkpt><trkpt lat="44.774255" lon="7.8082133"><ele>306.0</ele><time>2026-04-11T07:58:44.06Z</time></trkpt><trkpt lat="44.77422" lon="7.8082917"><ele>306.0</ele><time>2026-04-11T07:58:45.063Z</time></trkpt><trkpt lat="44.7741817" lon="7.8083733"><ele>306.0</ele><time>2026-04-11T07:58:46.061Z</time></trkpt><trkpt lat="44.77414" lon="7.8084533"><ele>306.0</ele><time>2026-04-11T07:58:47.06Z</time></trkpt><trkpt lat="44.7740967" lon="7.8085317"><ele>306.0</ele><time>2026-04-11T07:58:48.059Z</time></trkpt><trkpt lat="44.77405" lon="7.8086083"><ele>306.0</ele><time>2026-04-11T07:58:49.061Z</time></trkpt><trkpt lat="44.7740017" lon="7.808685"><ele>306.0</ele><time>2026-04-11T07:58:50.061Z</time></trkpt><trkpt lat="44.7739517" lon="7.8087617"><ele>306.0</ele><time>2026-04-11T07:58:51.058Z</time></trkpt><trkpt lat="44.7739017" lon="7.8088417"><ele>306.0</ele><time>2026-04-11T07:58:52.062Z</time></trkpt><trkpt lat="44.7738517" lon="7.8089217"><ele>306.0</ele><time>2026-04-11T07:58:53.06Z</time></trkpt><trkpt lat="44.7738017" lon="7.8089983"><ele>306.0</ele><time>2026-04-11T07:58:54.062Z</time></trkpt><trkpt lat="44.7737517" lon="7.809075"><ele>306.0</ele><time>2026-04-11T07:58:55.059Z</time></trkpt><trkpt lat="44.7737033" lon="7.8091533"><ele>306.0</ele><time>2026-04-11T07:58:56.062Z</time></trkpt><trkpt lat="44.77366" lon="7.809235"><ele>306.0</ele><time>2026-04-11T07:58:57.061Z</time></trkpt><trkpt lat="44.7736167" lon="7.80932"><ele>306.1428571428571</ele><time>2026-04-11T07:58:58.06Z</time></trkpt><trkpt lat="44.7735783" lon="7.8094067"><ele>306.2857142857143</ele><time>2026-04-11T07:58:59.06Z</time></trkpt><trkpt lat="44.77354" lon="7.8094917"><ele>306.42857142857144</ele><time>2026-04-11T07:59:00.059Z</time></trkpt><trkpt lat="44.773505" lon="7.8095783"><ele>306.57142857142856</ele><time>2026-04-11T07:59:01.06Z</time></trkpt><trkpt lat="44.7734683" lon="7.8096633"><ele>306.7142857142857</ele><time>2026-04-11T07:59:02.058Z</time></trkpt><trkpt lat="44.7734317" lon="7.8097467"><ele>306.85714285714283</ele><time>2026-04-11T07:59:03.06Z</time></trkpt><trkpt lat="44.7733983" lon="7.8098333"><ele>307.0</ele><time>2026-04-11T07:59:04.06Z</time></trkpt><trkpt lat="44.773365" lon="7.8099217"><ele>307.2857142857143</ele><time>2026-04-11T07:59:05.06Z</time></trkpt><trkpt lat="44.77333" lon="7.81001"><ele>307.57142857142856</ele><time>2026-04-11T07:59:06.06Z</time></trkpt><trkpt lat="44.773295" lon="7.8100967"><ele>307.8571428571429</ele><time>2026-04-11T07:59:07.061Z</time></trkpt><trkpt lat="44.7732617" lon="7.8101817"><ele>308.1428571428571</ele><time>2026-04-11T07:59:08.061Z</time></trkpt><trkpt lat="44.7732283" lon="7.8102667"><ele>308.42857142857144</ele><time>2026-04-11T07:59:09.059Z</time></trkpt><trkpt lat="44.7731967" lon="7.8103483"><ele>308.7142857142857</ele><time>2026-04-11T07:59:10.059Z</time></trkpt><trkpt lat="44.7731633" lon="7.8104283"><ele>309.0</ele><time>2026-04-11T07:59:11.063Z</time></trkpt><trkpt lat="44.77313" lon="7.81051"><ele>309.00000000000006</ele><time>2026-04-11T07:59:12.059Z</time></trkpt><trkpt lat="44.7730967" lon="7.8105933"><ele>309.0</ele><time>2026-04-11T07:59:13.061Z</time></trkpt><trkpt lat="44.773065" lon="7.8106783"><ele>309.0</ele><time>2026-04-11T07:59:14.06Z</time></trkpt><trkpt lat="44.773035" lon="7.81076"><ele>309.0</ele><time>2026-04-11T07:59:15.06Z</time></trkpt><trkpt lat="44.773005" lon="7.8108433"><ele>309.0</ele><time>2026-04-11T07:59:16.063Z</time></trkpt><trkpt lat="44.7729783" lon="7.8109267"><ele>309.00000000000006</ele><time>2026-04-11T07:59:17.059Z</time></trkpt><trkpt lat="44.7729517" lon="7.8110117"><ele>309.0</ele><time>2026-04-11T07:59:18.059Z</time></trkpt><trkpt lat="44.7729267" lon="7.8110967"><ele>308.8</ele><time>2026-04-11T07:59:19.061Z</time></trkpt><trkpt lat="44.7729017" lon="7.81118"><ele>308.59999999999997</ele><time>2026-04-11T07:59:20.059Z</time></trkpt><trkpt lat="44.7728517" lon="7.81134"><ele>308.4</ele><time>2026-04-11T07:59:22.061Z</time></trkpt><trkpt lat="44.772825" lon="7.8114217"><ele>308.2</ele><time>2026-04-11T07:59:23.059Z</time></trkpt><trkpt lat="44.7727633" lon="7.8115767"><ele>308.0</ele><time>2026-04-11T07:59:25.063Z</time></trkpt><trkpt lat="44.7727033" lon="7.81173"><ele>308.2857142857143</ele><time>2026-04-11T07:59:27.06Z</time></trkpt><trkpt lat="44.7726667" lon="7.811805"><ele>308.57142857142856</ele><time>2026-04-11T07:59:28.061Z</time></trkpt><trkpt lat="44.7726233" lon="7.8118717"><ele>308.8571428571429</ele><time>2026-04-11T07:59:29.06Z</time></trkpt><trkpt lat="44.7725767" lon="7.8119333"><ele>309.1428571428571</ele><time>2026-04-11T07:59:30.061Z</time></trkpt><trkpt lat="44.77253" lon="7.811995"><ele>309.42857142857144</ele><time>2026-04-11T07:59:31.063Z</time></trkpt><trkpt lat="44.7724817" lon="7.812055"><ele>309.7142857142857</ele><time>2026-04-11T07:59:32.061Z</time></trkpt><trkpt lat="44.7723867" lon="7.8121667"><ele>310.0</ele><time>2026-04-11T07:59:34.062Z</time></trkpt><trkpt lat="44.7722867" lon="7.8122783"><ele>310.0</ele><time>2026-04-11T07:59:36.062Z</time></trkpt><trkpt lat="44.7722367" lon="7.812335"><ele>310.0</ele><time>2026-04-11T07:59:37.063Z</time></trkpt><trkpt lat="44.7721833" lon="7.8123883"><ele>310.0</ele><time>2026-04-11T07:59:38.062Z</time></trkpt><trkpt lat="44.7721317" lon="7.812445"><ele>310.0</ele><time>2026-04-11T07:59:39.062Z</time></trkpt><trkpt lat="44.77208" lon="7.8125"><ele>310.0</ele><time>2026-04-11T07:59:40.06Z</time></trkpt><trkpt lat="44.7720283" lon="7.8125567"><ele>310.0</ele><time>2026-04-11T07:59:41.06Z</time></trkpt><trkpt lat="44.7719767" lon="7.812615"><ele>310.0</ele><time>2026-04-11T07:59:42.059Z</time></trkpt><trkpt lat="44.7719283" lon="7.81268"><ele>310.14285714285717</ele><time>2026-04-11T07:59:43.062Z</time></trkpt><trkpt lat="44.7718833" lon="7.8127533"><ele>310.2857142857143</ele><time>2026-04-11T07:59:44.061Z</time></trkpt><trkpt lat="44.7718417" lon="7.8128333"><ele>310.42857142857144</ele><time>2026-04-11T07:59:45.06Z</time></trkpt><trkpt lat="44.7718067" lon="7.81292"><ele>310.57142857142856</ele><time>2026-04-11T07:59:46.059Z</time></trkpt><trkpt lat="44.771775" lon="7.8130183"><ele>310.7142857142857</ele><time>2026-04-11T07:59:47.059Z</time></trkpt><trkpt lat="44.7717467" lon="7.8131217"><ele>310.85714285714283</ele><time>2026-04-11T07:59:48.061Z</time></trkpt><trkpt lat="44.771725" lon="7.813225"><ele>311.0</ele><time>2026-04-11T07:59:49.063Z</time></trkpt><trkpt lat="44.771705" lon="7.8133267"><ele>311.2857142857143</ele><time>2026-04-11T07:59:50.058Z</time></trkpt><trkpt lat="44.7716883" lon="7.81343"><ele>311.5714285714286</ele><time>2026-04-11T07:59:51.061Z</time></trkpt><trkpt lat="44.7716733" lon="7.8135333"><ele>311.8571428571429</ele><time>2026-04-11T07:59:52.06Z</time></trkpt><trkpt lat="44.77166" lon="7.81364"><ele>312.1428571428571</ele><time>2026-04-11T07:59:53.059Z</time></trkpt><trkpt lat="44.77165" lon="7.813745"><ele>312.42857142857144</ele><time>2026-04-11T07:59:54.061Z</time></trkpt><trkpt lat="44.7716467" lon="7.8138483"><ele>312.7142857142857</ele><time>2026-04-11T07:59:55.059Z</time></trkpt><trkpt lat="44.77165" lon="7.81395"><ele>313.0</ele><time>2026-04-11T07:59:56.061Z</time></trkpt><trkpt lat="44.7716617" lon="7.814045"><ele>313.0</ele><time>2026-04-11T07:59:57.062Z</time></trkpt><trkpt lat="44.7716817" lon="7.8141367"><ele>313.0</ele><time>2026-04-11T07:59:58.06Z</time></trkpt><trkpt lat="44.7717067" lon="7.8142233"><ele>313.0</ele><time>2026-04-11T07:59:59.06Z</time></trkpt><trkpt lat="44.7717383" lon="7.8143083"><ele>313.0</ele><time>2026-04-11T08:00:00.057Z</time></trkpt><trkpt lat="44.7717733" lon="7.81439"><ele>313.0</ele><time>2026-04-11T08:00:01.056Z</time></trkpt><trkpt lat="44.771805" lon="7.8144783"><ele>313.0</ele><time>2026-04-11T08:00:02.056Z</time></trkpt><trkpt lat="44.7718283" lon="7.8145667"><ele>313.0</ele><time>2026-04-11T08:00:03.055Z</time></trkpt><trkpt lat="44.7718467" lon="7.8146567"><ele>313.2</ele><time>2026-04-11T08:00:04.06Z</time></trkpt><trkpt lat="44.771855" lon="7.8147517"><ele>313.4</ele><time>2026-04-11T08:00:05.06Z</time></trkpt><trkpt lat="44.7718583" lon="7.814845"><ele>313.59999999999997</ele><time>2026-04-11T08:00:06.06Z</time></trkpt><trkpt lat="44.7718333" lon="7.8150017"><ele>313.8</ele><time>2026-04-11T08:00:08.061Z</time></trkpt><trkpt lat="44.7717667" lon="7.8151283"><ele>314.0</ele><time>2026-04-11T08:00:10.059Z</time></trkpt><trkpt lat="44.7716717" lon="7.8152217"><ele>314.25</ele><time>2026-04-11T08:00:12.061Z</time></trkpt><trkpt lat="44.7715733" lon="7.8153183"><ele>314.5</ele><time>2026-04-11T08:00:14.061Z</time></trkpt><trkpt lat="44.7714783" lon="7.81541"><ele>314.75</ele><time>2026-04-11T08:00:16.06Z</time></trkpt><trkpt lat="44.7713783" lon="7.815505"><ele>315.0</ele><time>2026-04-11T08:00:18.06Z</time></trkpt><trkpt lat="44.7712767" lon="7.8156"><ele>315.0</ele><time>2026-04-11T08:00:20.061Z</time></trkpt><trkpt lat="44.7712233" lon="7.8156517"><ele>315.0</ele><time>2026-04-11T08:00:21.06Z</time></trkpt><trkpt lat="44.7711683" lon="7.815705"><ele>315.0</ele><time>2026-04-11T08:00:22.06Z</time></trkpt><trkpt lat="44.771115" lon="7.815755"><ele>315.0</ele><time>2026-04-11T08:00:23.061Z</time></trkpt><trkpt lat="44.77106" lon="7.815805"><ele>315.0</ele><time>2026-04-11T08:00:24.06Z</time></trkpt><trkpt lat="44.7710083" lon="7.8158567"><ele>315.0</ele><time>2026-04-11T08:00:25.06Z</time></trkpt><trkpt lat="44.77096" lon="7.8159167"><ele>315.0</ele><time>2026-04-11T08:00:26.06Z</time></trkpt><trkpt lat="44.7709167" lon="7.8159817"><ele>315.2857142857143</ele><time>2026-04-11T08:00:27.061Z</time></trkpt><trkpt lat="44.7708883" lon="7.8160617"><ele>315.57142857142856</ele><time>2026-04-11T08:00:28.061Z</time></trkpt><trkpt lat="44.770875" lon="7.816155"><ele>315.8571428571429</ele><time>2026-04-11T08:00:29.061Z</time></trkpt><trkpt lat="44.7708767" lon="7.816255"><ele>316.1428571428571</ele><time>2026-04-11T08:00:30.059Z</time></trkpt><trkpt lat="44.77089" lon="7.8163583"><ele>316.42857142857144</ele><time>2026-04-11T08:00:31.057Z</time></trkpt><trkpt lat="44.770905" lon="7.8164617"><ele>316.7142857142857</ele><time>2026-04-11T08:00:32.058Z</time></trkpt><trkpt lat="44.7709267" lon="7.81656"><ele>317.0</ele><time>2026-04-11T08:00:33.061Z</time></trkpt><trkpt lat="44.770955" lon="7.8166583"><ele>317.0</ele><time>2026-04-11T08:00:34.059Z</time></trkpt><trkpt lat="44.770985" lon="7.8167567"><ele>317.0</ele><time>2026-04-11T08:00:35.06Z</time></trkpt><trkpt lat="44.7710167" lon="7.8168583"><ele>317.0</ele><time>2026-04-11T08:00:36.063Z</time></trkpt><trkpt lat="44.7710483" lon="7.8169583"><ele>317.0</ele><time>2026-04-11T08:00:37.06Z</time></trkpt><trkpt lat="44.7710817" lon="7.8170583"><ele>317.0</ele><time>2026-04-11T08:00:38.063Z</time></trkpt><trkpt lat="44.7711167" lon="7.8171533"><ele>317.0</ele><time>2026-04-11T08:00:39.062Z</time></trkpt><trkpt lat="44.7711533" lon="7.8172433"><ele>316.8571428571429</ele><time>2026-04-11T08:00:40.059Z</time></trkpt><trkpt lat="44.7711933" lon="7.8173267"><ele>316.7142857142857</ele><time>2026-04-11T08:00:41.059Z</time></trkpt><trkpt lat="44.7712333" lon="7.8174067"><ele>316.57142857142856</ele><time>2026-04-11T08:00:42.06Z</time></trkpt><trkpt lat="44.7712733" lon="7.8174883"><ele>316.42857142857144</ele><time>2026-04-11T08:00:43.06Z</time></trkpt><trkpt lat="44.7713117" lon="7.8175683"><ele>316.2857142857143</ele><time>2026-04-11T08:00:44.06Z</time></trkpt><trkpt lat="44.7713483" lon="7.817655"><ele>316.14285714285717</ele><time>2026-04-11T08:00:45.061Z</time></trkpt><trkpt lat="44.771385" lon="7.8177433"><ele>316.0</ele><time>2026-04-11T08:00:46.059Z</time></trkpt><trkpt lat="44.7714233" lon="7.81783"><ele>316.00000000000006</ele><time>2026-04-11T08:00:47.061Z</time></trkpt><trkpt lat="44.7714617" lon="7.8179167"><ele>316.0</ele><time>2026-04-11T08:00:48.059Z</time></trkpt><trkpt lat="44.7714983" lon="7.8180033"><ele>316.0</ele><time>2026-04-11T08:00:49.059Z</time></trkpt><trkpt lat="44.7715333" lon="7.8180917"><ele>316.0</ele><time>2026-04-11T08:00:50.059Z</time></trkpt><trkpt lat="44.771565" lon="7.818185"><ele>316.0</ele><time>2026-04-11T08:00:51.059Z</time></trkpt><trkpt lat="44.771595" lon="7.818275"><ele>316.00000000000006</ele><time>2026-04-11T08:00:52.06Z</time></trkpt><trkpt lat="44.77162" lon="7.81837"><ele>316.0</ele><time>2026-04-11T08:00:53.059Z</time></trkpt><trkpt lat="44.7716433" lon="7.818465"><ele>316.28571428571433</ele><time>2026-04-11T08:00:54.059Z</time></trkpt><trkpt lat="44.771665" lon="7.81856"><ele>316.57142857142856</ele><time>2026-04-11T08:00:55.058Z</time></trkpt><trkpt lat="44.7716867" lon="7.8186533"><ele>316.8571428571429</ele><time>2026-04-11T08:00:56.061Z</time></trkpt><trkpt lat="44.7717067" lon="7.8187483"><ele>317.14285714285717</ele><time>2026-04-11T08:00:57.059Z</time></trkpt><trkpt lat="44.771725" lon="7.8188417"><ele>317.42857142857144</ele><time>2026-04-11T08:00:58.06Z</time></trkpt><trkpt lat="44.7717467" lon="7.818935"><ele>317.7142857142857</ele><time>2026-04-11T08:00:59.061Z</time></trkpt><trkpt lat="44.771765" lon="7.8190283"><ele>318.0</ele><time>2026-04-11T08:01:00.059Z</time></trkpt><trkpt lat="44.7717833" lon="7.81912"><ele>318.0</ele><time>2026-04-11T08:01:01.06Z</time></trkpt><trkpt lat="44.7718033" lon="7.8192117"><ele>318.0</ele><time>2026-04-11T08:01:02.061Z</time></trkpt><trkpt lat="44.7718233" lon="7.8193017"><ele>318.0</ele><time>2026-04-11T08:01:03.062Z</time></trkpt><trkpt lat="44.7718417" lon="7.819395"><ele>318.0</ele><time>2026-04-11T08:01:04.059Z</time></trkpt><trkpt lat="44.7718583" lon="7.8194833"><ele>318.0</ele><time>2026-04-11T08:01:05.061Z</time></trkpt><trkpt lat="44.7718783" lon="7.8195717"><ele>318.0</ele><time>2026-04-11T08:01:06.061Z</time></trkpt><trkpt lat="44.7718967" lon="7.81966"><ele>318.0</ele><time>2026-04-11T08:01:07.059Z</time></trkpt><trkpt lat="44.7719167" lon="7.8197467"><ele>318.8</ele><time>2026-04-11T08:01:08.061Z</time></trkpt><trkpt lat="44.7719367" lon="7.8198317"><ele>319.6</ele><time>2026-04-11T08:01:09.059Z</time></trkpt><trkpt lat="44.7719567" lon="7.8199167"><ele>320.40000000000003</ele><time>2026-04-11T08:01:10.061Z</time></trkpt><trkpt lat="44.7719933" lon="7.8200783"><ele>321.20000000000005</ele><time>2026-04-11T08:01:12.06Z</time></trkpt><trkpt lat="44.7720217" lon="7.82024"><ele>322.0</ele><time>2026-04-11T08:01:14.06Z</time></trkpt><trkpt lat="44.7720167" lon="7.82041"><ele>322.0</ele><time>2026-04-11T08:01:16.06Z</time></trkpt><trkpt lat="44.7719533" lon="7.8205483"><ele>322.0</ele><time>2026-04-11T08:01:18.062Z</time></trkpt><trkpt lat="44.771855" lon="7.8206283"><ele>322.0</ele><time>2026-04-11T08:01:20.058Z</time></trkpt><trkpt lat="44.771755" lon="7.8206933"><ele>322.0</ele><time>2026-04-11T08:01:22.061Z</time></trkpt><trkpt lat="44.7716567" lon="7.8207783"><ele>322.0</ele><time>2026-04-11T08:01:24.059Z</time></trkpt><trkpt lat="44.7715767" lon="7.82089"><ele>322.0</ele><time>2026-04-11T08:01:26.059Z</time></trkpt><trkpt lat="44.77153" lon="7.8210267"><ele>322.0</ele><time>2026-04-11T08:01:28.061Z</time></trkpt><trkpt lat="44.77152" lon="7.82117"><ele>322.0</ele><time>2026-04-11T08:01:30.06Z</time></trkpt><trkpt lat="44.771535" lon="7.821325"><ele>322.0</ele><time>2026-04-11T08:01:32.059Z</time></trkpt><trkpt lat="44.7715533" lon="7.8214917"><ele>322.0</ele><time>2026-04-11T08:01:34.058Z</time></trkpt><trkpt lat="44.7715667" lon="7.8215883"><ele>322.0</ele><time>2026-04-11T08:01:35.059Z</time></trkpt><trkpt lat="44.77158" lon="7.82169"><ele>322.0</ele><time>2026-04-11T08:01:36.061Z</time></trkpt><trkpt lat="44.7715917" lon="7.8217967"><ele>322.0</ele><time>2026-04-11T08:01:37.059Z</time></trkpt><trkpt lat="44.7716033" lon="7.8218983"><ele>322.0</ele><time>2026-04-11T08:01:38.057Z</time></trkpt><trkpt lat="44.7716167" lon="7.8219967"><ele>322.0</ele><time>2026-04-11T08:01:39.059Z</time></trkpt><trkpt lat="44.7716283" lon="7.8220967"><ele>322.0</ele><time>2026-04-11T08:01:40.061Z</time></trkpt><trkpt lat="44.77164" lon="7.8221967"><ele>321.85714285714283</ele><time>2026-04-11T08:01:41.059Z</time></trkpt><trkpt lat="44.7716533" lon="7.8223"><ele>321.7142857142857</ele><time>2026-04-11T08:01:42.06Z</time></trkpt><trkpt lat="44.771665" lon="7.8224033"><ele>321.57142857142856</ele><time>2026-04-11T08:01:43.06Z</time></trkpt><trkpt lat="44.7716767" lon="7.8225083"><ele>321.42857142857144</ele><time>2026-04-11T08:01:44.059Z</time></trkpt><trkpt lat="44.7716867" lon="7.8226133"><ele>321.2857142857143</ele><time>2026-04-11T08:01:45.061Z</time></trkpt><trkpt lat="44.7716983" lon="7.822715"><ele>321.1428571428571</ele><time>2026-04-11T08:01:46.062Z</time></trkpt><trkpt lat="44.771705" lon="7.82282"><ele>321.0</ele><time>2026-04-11T08:01:47.06Z</time></trkpt><trkpt lat="44.7717117" lon="7.82293"><ele>321.2857142857143</ele><time>2026-04-11T08:01:48.06Z</time></trkpt><trkpt lat="44.771715" lon="7.8230367"><ele>321.57142857142856</ele><time>2026-04-11T08:01:49.061Z</time></trkpt><trkpt lat="44.771715" lon="7.8231417"><ele>321.8571428571429</ele><time>2026-04-11T08:01:50.059Z</time></trkpt><trkpt lat="44.771705" lon="7.8232433"><ele>322.1428571428571</ele><time>2026-04-11T08:01:51.061Z</time></trkpt><trkpt lat="44.77169" lon="7.823345"><ele>322.42857142857144</ele><time>2026-04-11T08:01:52.06Z</time></trkpt><trkpt lat="44.77167" lon="7.8234433"><ele>322.7142857142857</ele><time>2026-04-11T08:01:53.059Z</time></trkpt><trkpt lat="44.7716517" lon="7.8235417"><ele>323.0</ele><time>2026-04-11T08:01:54.059Z</time></trkpt><trkpt lat="44.7716333" lon="7.8236367"><ele>323.00000000000006</ele><time>2026-04-11T08:01:55.058Z</time></trkpt><trkpt lat="44.771615" lon="7.82373"><ele>323.0</ele><time>2026-04-11T08:01:56.058Z</time></trkpt><trkpt lat="44.7715967" lon="7.8238267"><ele>323.0</ele><time>2026-04-11T08:01:57.062Z</time></trkpt><trkpt lat="44.7715767" lon="7.82392"><ele>323.0</ele><time>2026-04-11T08:01:58.061Z</time></trkpt><trkpt lat="44.771555" lon="7.8240083"><ele>323.0</ele><time>2026-04-11T08:01:59.059Z</time></trkpt><trkpt lat="44.7715317" lon="7.8240983"><ele>323.00000000000006</ele><time>2026-04-11T08:02:00.059Z</time></trkpt><trkpt lat="44.7715067" lon="7.8241867"><ele>323.0</ele><time>2026-04-11T08:02:01.059Z</time></trkpt><trkpt lat="44.7714783" lon="7.824275"><ele>322.8571428571429</ele><time>2026-04-11T08:02:02.059Z</time></trkpt><trkpt lat="44.771445" lon="7.8243633"><ele>322.7142857142857</ele><time>2026-04-11T08:02:03.06Z</time></trkpt><trkpt lat="44.7714117" lon="7.82445"><ele>322.57142857142856</ele><time>2026-04-11T08:02:04.06Z</time></trkpt><trkpt lat="44.7713767" lon="7.8245367"><ele>322.42857142857144</ele><time>2026-04-11T08:02:05.06Z</time></trkpt><trkpt lat="44.7713417" lon="7.8246233"><ele>322.2857142857143</ele><time>2026-04-11T08:02:06.06Z</time></trkpt><trkpt lat="44.7713083" lon="7.8247083"><ele>322.14285714285717</ele><time>2026-04-11T08:02:07.061Z</time></trkpt><trkpt lat="44.77127" lon="7.8247933"><ele>322.0</ele><time>2026-04-11T08:02:08.059Z</time></trkpt><trkpt lat="44.7712317" lon="7.824875"><ele>322.0</ele><time>2026-04-11T08:02:09.06Z</time></trkpt><trkpt lat="44.7711883" lon="7.824955"><ele>322.0</ele><time>2026-04-11T08:02:10.059Z</time></trkpt><trkpt lat="44.771145" lon="7.8250333"><ele>322.0</ele><time>2026-04-11T08:02:11.059Z</time></trkpt><trkpt lat="44.7711033" lon="7.8251117"><ele>322.0</ele><time>2026-04-11T08:02:12.06Z</time></trkpt><trkpt lat="44.771065" lon="7.8251917"><ele>322.0</ele><time>2026-04-11T08:02:13.058Z</time></trkpt><trkpt lat="44.77103" lon="7.825275"><ele>322.0</ele><time>2026-04-11T08:02:14.058Z</time></trkpt><trkpt lat="44.7709983" lon="7.82536"><ele>322.0</ele><time>2026-04-11T08:02:15.059Z</time></trkpt><trkpt lat="44.7709683" lon="7.8254467"><ele>322.8</ele><time>2026-04-11T08:02:16.059Z</time></trkpt><trkpt lat="44.7709367" lon="7.8255317"><ele>323.6</ele><time>2026-04-11T08:02:17.058Z</time></trkpt><trkpt lat="44.7709067" lon="7.8256117"><ele>324.40000000000003</ele><time>2026-04-11T08:02:18.058Z</time></trkpt><trkpt lat="44.7708217" lon="7.82574"><ele>325.20000000000005</ele><time>2026-04-11T08:02:20.06Z</time></trkpt><trkpt lat="44.77072" lon="7.82584"><ele>326.0</ele><time>2026-04-11T08:02:22.058Z</time></trkpt><trkpt lat="44.770605" lon="7.8259183"><ele>326.0</ele><time>2026-04-11T08:02:24.062Z</time></trkpt><trkpt lat="44.7705383" lon="7.825945"><ele>326.0</ele><time>2026-04-11T08:02:25.06Z</time></trkpt><trkpt lat="44.77047" lon="7.8259633"><ele>326.0</ele><time>2026-04-11T08:02:26.06Z</time></trkpt><trkpt lat="44.770405" lon="7.8259817"><ele>326.0</ele><time>2026-04-11T08:02:27.06Z</time></trkpt><trkpt lat="44.77034" lon="7.825995"><ele>326.0</ele><time>2026-04-11T08:02:28.062Z</time></trkpt><trkpt lat="44.7702717" lon="7.8260067"><ele>326.0</ele><time>2026-04-11T08:02:29.061Z</time></trkpt><trkpt lat="44.7702033" lon="7.8260183"><ele>326.0</ele><time>2026-04-11T08:02:30.062Z</time></trkpt><trkpt lat="44.7701367" lon="7.8260267"><ele>326.42857142857144</ele><time>2026-04-11T08:02:31.058Z</time></trkpt><trkpt lat="44.77007" lon="7.8260417"><ele>326.85714285714283</ele><time>2026-04-11T08:02:32.058Z</time></trkpt><trkpt lat="44.7700067" lon="7.82606"><ele>327.2857142857143</ele><time>2026-04-11T08:02:33.061Z</time></trkpt><trkpt lat="44.76994" lon="7.826075"><ele>327.7142857142857</ele><time>2026-04-11T08:02:34.06Z</time></trkpt><trkpt lat="44.7698733" lon="7.8260883"><ele>328.1428571428571</ele><time>2026-04-11T08:02:35.059Z</time></trkpt><trkpt lat="44.769805" lon="7.8260983"><ele>328.57142857142856</ele><time>2026-04-11T08:02:36.059Z</time></trkpt><trkpt lat="44.7697367" lon="7.8261083"><ele>329.0</ele><time>2026-04-11T08:02:37.061Z</time></trkpt><trkpt lat="44.76967" lon="7.8261183"><ele>329.0</ele><time>2026-04-11T08:02:38.06Z</time></trkpt><trkpt lat="44.7695467" lon="7.8261417"><ele>329.0</ele><time>2026-04-11T08:02:40.06Z</time></trkpt><trkpt lat="44.76948" lon="7.8261567"><ele>329.0</ele><time>2026-04-11T08:02:41.059Z</time></trkpt><trkpt lat="44.769415" lon="7.8261717"><ele>329.0</ele><time>2026-04-11T08:02:42.058Z</time></trkpt><trkpt lat="44.7693517" lon="7.8261867"><ele>329.0</ele><time>2026-04-11T08:02:43.057Z</time></trkpt><trkpt lat="44.7692867" lon="7.8262017"><ele>329.0</ele><time>2026-04-11T08:02:44.061Z</time></trkpt><trkpt lat="44.7692167" lon="7.826215"><ele>329.1666666666667</ele><time>2026-04-11T08:02:45.055Z</time></trkpt><trkpt lat="44.769145" lon="7.82623"><ele>329.33333333333337</ele><time>2026-04-11T08:02:46.057Z</time></trkpt><trkpt lat="44.7690783" lon="7.8262517"><ele>329.5</ele><time>2026-04-11T08:02:47.056Z</time></trkpt><trkpt lat="44.7690183" lon="7.8262933"><ele>329.6666666666667</ele><time>2026-04-11T08:02:48.062Z</time></trkpt><trkpt lat="44.7689383" lon="7.8264217"><ele>329.8333333333333</ele><time>2026-04-11T08:02:50.059Z</time></trkpt><trkpt lat="44.7689167" lon="7.8265817"><ele>330.0</ele><time>2026-04-11T08:02:52.06Z</time></trkpt><trkpt lat="44.768965" lon="7.82673"><ele>330.2</ele><time>2026-04-11T08:02:54.06Z</time></trkpt><trkpt lat="44.76904" lon="7.8268717"><ele>330.4</ele><time>2026-04-11T08:02:56.058Z</time></trkpt><trkpt lat="44.7691017" lon="7.8270233"><ele>330.6</ele><time>2026-04-11T08:02:58.059Z</time></trkpt><trkpt lat="44.7691283" lon="7.827105"><ele>330.8</ele><time>2026-04-11T08:02:59.06Z</time></trkpt><trkpt lat="44.76918" lon="7.8272617"><ele>331.0</ele><time>2026-04-11T08:03:01.06Z</time></trkpt><trkpt lat="44.7692133" lon="7.8274217"><ele>331.0</ele><time>2026-04-11T08:03:03.06Z</time></trkpt><trkpt lat="44.7692367" lon="7.8275933"><ele>331.0</ele><time>2026-04-11T08:03:05.059Z</time></trkpt><trkpt lat="44.7692467" lon="7.8276817"><ele>331.0</ele><time>2026-04-11T08:03:06.06Z</time></trkpt><trkpt lat="44.76926" lon="7.8277717"><ele>331.0</ele><time>2026-04-11T08:03:07.06Z</time></trkpt><trkpt lat="44.76927" lon="7.8278683"><ele>331.0</ele><time>2026-04-11T08:03:08.061Z</time></trkpt><trkpt lat="44.769285" lon="7.827965"><ele>331.0</ele><time>2026-04-11T08:03:09.062Z</time></trkpt><trkpt lat="44.7692967" lon="7.8280667"><ele>330.8333333333333</ele><time>2026-04-11T08:03:10.059Z</time></trkpt><trkpt lat="44.7693133" lon="7.8281717"><ele>330.66666666666663</ele><time>2026-04-11T08:03:11.059Z</time></trkpt><trkpt lat="44.7693333" lon="7.8282783"><ele>330.5</ele><time>2026-04-11T08:03:12.059Z</time></trkpt><trkpt lat="44.7693583" lon="7.8283833"><ele>330.3333333333333</ele><time>2026-04-11T08:03:13.06Z</time></trkpt><trkpt lat="44.7693833" lon="7.8284883"><ele>330.1666666666667</ele><time>2026-04-11T08:03:14.059Z</time></trkpt><trkpt lat="44.7694033" lon="7.8285917"><ele>330.0</ele><time>2026-04-11T08:03:15.061Z</time></trkpt><trkpt lat="44.769425" lon="7.8286967"><ele>329.6666666666667</ele><time>2026-04-11T08:03:16.06Z</time></trkpt><trkpt lat="44.769445" lon="7.8288033"><ele>329.3333333333333</ele><time>2026-04-11T08:03:17.06Z</time></trkpt><trkpt lat="44.7694683" lon="7.8289117"><ele>329.0</ele><time>2026-04-11T08:03:18.058Z</time></trkpt><trkpt lat="44.7694833" lon="7.8290183"><ele>328.66666666666663</ele><time>2026-04-11T08:03:19.059Z</time></trkpt><trkpt lat="44.7695033" lon="7.8291283"><ele>328.3333333333333</ele><time>2026-04-11T08:03:20.059Z</time></trkpt><trkpt lat="44.76952" lon="7.8292383"><ele>328.0</ele><time>2026-04-11T08:03:21.06Z</time></trkpt><trkpt lat="44.7695367" lon="7.82934"><ele>328.0</ele><time>2026-04-11T08:03:22.059Z</time></trkpt><trkpt lat="44.7695583" lon="7.8294367"><ele>328.0</ele><time>2026-04-11T08:03:23.058Z</time></trkpt><trkpt lat="44.769575" lon="7.82954"><ele>328.0</ele><time>2026-04-11T08:03:24.059Z</time></trkpt><trkpt lat="44.76959" lon="7.8296433"><ele>328.0</ele><time>2026-04-11T08:03:25.061Z</time></trkpt><trkpt lat="44.769605" lon="7.82975"><ele>328.0</ele><time>2026-04-11T08:03:26.059Z</time></trkpt><trkpt lat="44.7696233" lon="7.829855"><ele>328.0</ele><time>2026-04-11T08:03:27.061Z</time></trkpt><trkpt lat="44.7696433" lon="7.829965"><ele>327.99999999999994</ele><time>2026-04-11T08:03:28.059Z</time></trkpt><trkpt lat="44.769655" lon="7.8300717"><ele>328.0</ele><time>2026-04-11T08:03:29.061Z</time></trkpt><trkpt lat="44.769665" lon="7.8301767"><ele>328.0</ele><time>2026-04-11T08:03:30.063Z</time></trkpt><trkpt lat="44.7696717" lon="7.83028"><ele>328.0</ele><time>2026-04-11T08:03:31.058Z</time></trkpt><trkpt lat="44.7696667" lon="7.8303867"><ele>328.0</ele><time>2026-04-11T08:03:32.061Z</time></trkpt><trkpt lat="44.7696517" lon="7.830485"><ele>327.99999999999994</ele><time>2026-04-11T08:03:33.06Z</time></trkpt><trkpt lat="44.76962" lon="7.8305717"><ele>328.0</ele><time>2026-04-11T08:03:34.059Z</time></trkpt><trkpt lat="44.7695733" lon="7.830645"><ele>327.99999999999994</ele><time>2026-04-11T08:03:35.061Z</time></trkpt><trkpt lat="44.7695167" lon="7.8307033"><ele>328.0</ele><time>2026-04-11T08:03:36.061Z</time></trkpt><trkpt lat="44.7694567" lon="7.8307517"><ele>328.0</ele><time>2026-04-11T08:03:37.061Z</time></trkpt><trkpt lat="44.769395" lon="7.8308"><ele>328.0</ele><time>2026-04-11T08:03:38.06Z</time></trkpt><trkpt lat="44.7693317" lon="7.8308433"><ele>328.0</ele><time>2026-04-11T08:03:39.06Z</time></trkpt><trkpt lat="44.769265" lon="7.8308833"><ele>327.99999999999994</ele><time>2026-04-11T08:03:40.061Z</time></trkpt><trkpt lat="44.7692017" lon="7.830925"><ele>328.0</ele><time>2026-04-11T08:03:41.06Z</time></trkpt><trkpt lat="44.76914" lon="7.8309683"><ele>328.1428571428571</ele><time>2026-04-11T08:03:42.06Z</time></trkpt><trkpt lat="44.7690783" lon="7.8310083"><ele>328.2857142857143</ele><time>2026-04-11T08:03:43.059Z</time></trkpt><trkpt lat="44.7690167" lon="7.83105"><ele>328.42857142857144</ele><time>2026-04-11T08:03:44.06Z</time></trkpt><trkpt lat="44.7689533" lon="7.8310883"><ele>328.57142857142856</ele><time>2026-04-11T08:03:45.061Z</time></trkpt><trkpt lat="44.7688933" lon="7.8311267"><ele>328.7142857142857</ele><time>2026-04-11T08:03:46.061Z</time></trkpt><trkpt lat="44.7688317" lon="7.8311667"><ele>328.85714285714283</ele><time>2026-04-11T08:03:47.06Z</time></trkpt><trkpt lat="44.7687683" lon="7.8312083"><ele>329.0</ele><time>2026-04-11T08:03:48.06Z</time></trkpt><trkpt lat="44.768705" lon="7.83125"><ele>329.0</ele><time>2026-04-11T08:03:49.06Z</time></trkpt><trkpt lat="44.768645" lon="7.8312933"><ele>329.0</ele><time>2026-04-11T08:03:50.061Z</time></trkpt><trkpt lat="44.7685817" lon="7.831335"><ele>329.0</ele><time>2026-04-11T08:03:51.061Z</time></trkpt><trkpt lat="44.76852" lon="7.831375"><ele>329.0</ele><time>2026-04-11T08:03:52.062Z</time></trkpt><trkpt lat="44.76846" lon="7.83142"><ele>329.0</ele><time>2026-04-11T08:03:53.059Z</time></trkpt><trkpt lat="44.7683983" lon="7.8314667"><ele>329.0</ele><time>2026-04-11T08:03:54.06Z</time></trkpt><trkpt lat="44.7683383" lon="7.8315117"><ele>329.0</ele><time>2026-04-11T08:03:55.061Z</time></trkpt><trkpt lat="44.7682783" lon="7.831555"><ele>329.2857142857143</ele><time>2026-04-11T08:03:56.061Z</time></trkpt><trkpt lat="44.7682183" lon="7.8316033"><ele>329.57142857142856</ele><time>2026-04-11T08:03:57.062Z</time></trkpt><trkpt lat="44.7681617" lon="7.8316483"><ele>329.8571428571429</ele><time>2026-04-11T08:03:58.06Z</time></trkpt><trkpt lat="44.768105" lon="7.8317033"><ele>330.1428571428571</ele><time>2026-04-11T08:03:59.059Z</time></trkpt><trkpt lat="44.7680467" lon="7.8317583"><ele>330.42857142857144</ele><time>2026-04-11T08:04:00.06Z</time></trkpt><trkpt lat="44.76799" lon="7.83182"><ele>330.7142857142857</ele><time>2026-04-11T08:04:01.06Z</time></trkpt><trkpt lat="44.76794" lon="7.8318867"><ele>331.0</ele><time>2026-04-11T08:04:02.058Z</time></trkpt><trkpt lat="44.767885" lon="7.83195"><ele>331.0</ele><time>2026-04-11T08:04:03.061Z</time></trkpt><trkpt lat="44.7678317" lon="7.832015"><ele>331.0</ele><time>2026-04-11T08:04:04.059Z</time></trkpt><trkpt lat="44.76778" lon="7.8320833"><ele>331.0</ele><time>2026-04-11T08:04:05.061Z</time></trkpt><trkpt lat="44.7677283" lon="7.8321533"><ele>331.0</ele><time>2026-04-11T08:04:06.062Z</time></trkpt><trkpt lat="44.76768" lon="7.8322267"><ele>331.0</ele><time>2026-04-11T08:04:07.058Z</time></trkpt><trkpt lat="44.7676333" lon="7.8322967"><ele>331.0</ele><time>2026-04-11T08:04:08.06Z</time></trkpt><trkpt lat="44.767585" lon="7.8323667"><ele>331.0</ele><time>2026-04-11T08:04:09.063Z</time></trkpt><trkpt lat="44.767535" lon="7.8324333"><ele>331.2857142857143</ele><time>2026-04-11T08:04:10.058Z</time></trkpt><trkpt lat="44.7674883" lon="7.8325"><ele>331.57142857142856</ele><time>2026-04-11T08:04:11.06Z</time></trkpt><trkpt lat="44.7674433" lon="7.8325667"><ele>331.8571428571429</ele><time>2026-04-11T08:04:12.054Z</time></trkpt><trkpt lat="44.7673967" lon="7.83264"><ele>332.1428571428571</ele><time>2026-04-11T08:04:13.062Z</time></trkpt><trkpt lat="44.7673517" lon="7.8327183"><ele>332.4285714285714</ele><time>2026-04-11T08:04:14.061Z</time></trkpt><trkpt lat="44.7673083" lon="7.8328"><ele>332.7142857142857</ele><time>2026-04-11T08:04:15.063Z</time></trkpt><trkpt lat="44.7672717" lon="7.83289"><ele>333.0</ele><time>2026-04-11T08:04:16.062Z</time></trkpt><trkpt lat="44.76725" lon="7.83299"><ele>333.14285714285717</ele><time>2026-04-11T08:04:17.06Z</time></trkpt><trkpt lat="44.7672433" lon="7.8330933"><ele>333.2857142857143</ele><time>2026-04-11T08:04:18.064Z</time></trkpt><trkpt lat="44.7672483" lon="7.833195"><ele>333.42857142857144</ele><time>2026-04-11T08:04:19.06Z</time></trkpt><trkpt lat="44.7672633" lon="7.833295"><ele>333.57142857142856</ele><time>2026-04-11T08:04:20.06Z</time></trkpt><trkpt lat="44.767275" lon="7.8333933"><ele>333.7142857142857</ele><time>2026-04-11T08:04:21.062Z</time></trkpt><trkpt lat="44.7672867" lon="7.8334917"><ele>333.85714285714283</ele><time>2026-04-11T08:04:22.062Z</time></trkpt><trkpt lat="44.767295" lon="7.8335917"><ele>334.0</ele><time>2026-04-11T08:04:23.06Z</time></trkpt><trkpt lat="44.7672983" lon="7.8336883"><ele>334.42857142857144</ele><time>2026-04-11T08:04:24.06Z</time></trkpt><trkpt lat="44.7673017" lon="7.8337867"><ele>334.8571428571429</ele><time>2026-04-11T08:04:25.061Z</time></trkpt><trkpt lat="44.767305" lon="7.83389"><ele>335.28571428571433</ele><time>2026-04-11T08:04:26.059Z</time></trkpt><trkpt lat="44.7673033" lon="7.833995"><ele>335.7142857142857</ele><time>2026-04-11T08:04:27.059Z</time></trkpt><trkpt lat="44.7673" lon="7.8341"><ele>336.14285714285717</ele><time>2026-04-11T08:04:28.061Z</time></trkpt><trkpt lat="44.7672967" lon="7.834205"><ele>336.5714285714286</ele><time>2026-04-11T08:04:29.059Z</time></trkpt><trkpt lat="44.7672933" lon="7.8343083"><ele>337.0</ele><time>2026-04-11T08:04:30.06Z</time></trkpt><trkpt lat="44.7672867" lon="7.8344133"><ele>337.00000000000006</ele><time>2026-04-11T08:04:31.063Z</time></trkpt><trkpt lat="44.7672783" lon="7.8345133"><ele>337.0</ele><time>2026-04-11T08:04:32.062Z</time></trkpt><trkpt lat="44.7672683" lon="7.8346167"><ele>337.0</ele><time>2026-04-11T08:04:33.062Z</time></trkpt><trkpt lat="44.7672583" lon="7.8347133"><ele>337.0</ele><time>2026-04-11T08:04:34.061Z</time></trkpt><trkpt lat="44.7672533" lon="7.8348117"><ele>337.0</ele><time>2026-04-11T08:04:35.059Z</time></trkpt><trkpt lat="44.7672467" lon="7.8349117"><ele>337.00000000000006</ele><time>2026-04-11T08:04:36.06Z</time></trkpt><trkpt lat="44.7672417" lon="7.83501"><ele>337.0</ele><time>2026-04-11T08:04:37.061Z</time></trkpt><trkpt lat="44.7672333" lon="7.8351083"><ele>337.00000000000006</ele><time>2026-04-11T08:04:38.063Z</time></trkpt><trkpt lat="44.7672283" lon="7.8352083"><ele>337.0</ele><time>2026-04-11T08:04:39.061Z</time></trkpt><trkpt lat="44.7672217" lon="7.83531"><ele>337.0</ele><time>2026-04-11T08:04:40.063Z</time></trkpt><trkpt lat="44.7672067" lon="7.83541"><ele>337.0</ele><time>2026-04-11T08:04:41.06Z</time></trkpt><trkpt lat="44.7671917" lon="7.8355117"><ele>337.0</ele><time>2026-04-11T08:04:42.062Z</time></trkpt><trkpt lat="44.76718" lon="7.835615"><ele>337.00000000000006</ele><time>2026-04-11T08:04:43.062Z</time></trkpt><trkpt lat="44.7671683" lon="7.8357183"><ele>337.0</ele><time>2026-04-11T08:04:44.061Z</time></trkpt><trkpt lat="44.7671567" lon="7.8358233"><ele>337.00000000000006</ele><time>2026-04-11T08:04:45.064Z</time></trkpt><trkpt lat="44.7671483" lon="7.8359233"><ele>337.0</ele><time>2026-04-11T08:04:46.062Z</time></trkpt><trkpt lat="44.7671383" lon="7.8360267"><ele>337.0</ele><time>2026-04-11T08:04:47.06Z</time></trkpt><trkpt lat="44.7671283" lon="7.8361267"><ele>337.0</ele><time>2026-04-11T08:04:48.062Z</time></trkpt><trkpt lat="44.7671217" lon="7.8362283"><ele>337.0</ele><time>2026-04-11T08:04:49.063Z</time></trkpt><trkpt lat="44.7671183" lon="7.8363267"><ele>337.00000000000006</ele><time>2026-04-11T08:04:50.061Z</time></trkpt><trkpt lat="44.767115" lon="7.8364267"><ele>337.0</ele><time>2026-04-11T08:04:51.064Z</time></trkpt><trkpt lat="44.7671133" lon="7.8365267"><ele>337.0</ele><time>2026-04-11T08:04:52.064Z</time></trkpt><trkpt lat="44.7671117" lon="7.83662"><ele>337.0</ele><time>2026-04-11T08:04:53.061Z</time></trkpt><trkpt lat="44.7671133" lon="7.83671"><ele>337.0</ele><time>2026-04-11T08:04:54.063Z</time></trkpt><trkpt lat="44.7671333" lon="7.836875"><ele>337.0</ele><time>2026-04-11T08:04:56.062Z</time></trkpt><trkpt lat="44.767175" lon="7.8370317"><ele>337.0</ele><time>2026-04-11T08:04:58.063Z</time></trkpt><trkpt lat="44.7672383" lon="7.8371683"><ele>336.6</ele><time>2026-04-11T08:05:00.063Z</time></trkpt><trkpt lat="44.7672967" lon="7.8373067"><ele>336.20000000000005</ele><time>2026-04-11T08:05:02.057Z</time></trkpt><trkpt lat="44.767355" lon="7.837465"><ele>335.8</ele><time>2026-04-11T08:05:04.061Z</time></trkpt><trkpt lat="44.7673933" lon="7.8375517"><ele>335.4</ele><time>2026-04-11T08:05:05.06Z</time></trkpt><trkpt lat="44.767435" lon="7.8376467"><ele>335.0</ele><time>2026-04-11T08:05:06.062Z</time></trkpt><trkpt lat="44.7674783" lon="7.8377517"><ele>334.6</ele><time>2026-04-11T08:05:07.061Z</time></trkpt><trkpt lat="44.7675317" lon="7.83786"><ele>334.2</ele><time>2026-04-11T08:05:08.061Z</time></trkpt><trkpt lat="44.76759" lon="7.83796"><ele>333.79999999999995</ele><time>2026-04-11T08:05:09.063Z</time></trkpt><trkpt lat="44.7676533" lon="7.8380617"><ele>333.4</ele><time>2026-04-11T08:05:10.061Z</time></trkpt><trkpt lat="44.767725" lon="7.8381617"><ele>333.0</ele><time>2026-04-11T08:05:11.061Z</time></trkpt><trkpt lat="44.7678" lon="7.8382567"><ele>332.0</ele><time>2026-04-11T08:05:12.06Z</time></trkpt><trkpt lat="44.7678817" lon="7.8383467"><ele>331.0</ele><time>2026-04-11T08:05:13.061Z</time></trkpt><trkpt lat="44.767965" lon="7.8384383"><ele>330.0</ele><time>2026-04-11T08:05:14.06Z</time></trkpt><trkpt lat="44.7680517" lon="7.838525"><ele>329.0</ele><time>2026-04-11T08:05:15.061Z</time></trkpt><trkpt lat="44.76814" lon="7.8386117"><ele>328.0</ele><time>2026-04-11T08:05:16.06Z</time></trkpt><trkpt lat="44.7682233" lon="7.8387017"><ele>328.0</ele><time>2026-04-11T08:05:17.058Z</time></trkpt><trkpt lat="44.768295" lon="7.83879"><ele>328.0</ele><time>2026-04-11T08:05:18.062Z</time></trkpt><trkpt lat="44.7683483" lon="7.8388967"><ele>328.0</ele><time>2026-04-11T08:05:19.06Z</time></trkpt><trkpt lat="44.7683783" lon="7.83902"><ele>328.0</ele><time>2026-04-11T08:05:20.061Z</time></trkpt><trkpt lat="44.7683817" lon="7.8391417"><ele>328.0</ele><time>2026-04-11T08:05:21.061Z</time></trkpt><trkpt lat="44.76837" lon="7.8392633"><ele>328.66666666666663</ele><time>2026-04-11T08:05:22.062Z</time></trkpt><trkpt lat="44.7683567" lon="7.839385"><ele>329.3333333333333</ele><time>2026-04-11T08:05:23.06Z</time></trkpt><trkpt lat="44.7683417" lon="7.8395017"><ele>330.0</ele><time>2026-04-11T08:05:24.061Z</time></trkpt><trkpt lat="44.7683267" lon="7.8396133"><ele>330.6666666666667</ele><time>2026-04-11T08:05:25.06Z</time></trkpt><trkpt lat="44.7683117" lon="7.8397233"><ele>331.33333333333337</ele><time>2026-04-11T08:05:26.062Z</time></trkpt><trkpt lat="44.768295" lon="7.8398267"><ele>332.0</ele><time>2026-04-11T08:05:27.059Z</time></trkpt><trkpt lat="44.7682817" lon="7.8399283"><ele>332.0</ele><time>2026-04-11T08:05:28.058Z</time></trkpt><trkpt lat="44.768265" lon="7.8400217"><ele>332.0</ele><time>2026-04-11T08:05:29.061Z</time></trkpt><trkpt lat="44.7682467" lon="7.84011"><ele>332.0</ele><time>2026-04-11T08:05:30.06Z</time></trkpt><trkpt lat="44.7682233" lon="7.8401933"><ele>332.0</ele><time>2026-04-11T08:05:31.063Z</time></trkpt><trkpt lat="44.7681583" lon="7.84033"><ele>332.0</ele><time>2026-04-11T08:05:33.061Z</time></trkpt><trkpt lat="44.7680783" lon="7.840445"><ele>332.0</ele><time>2026-04-11T08:05:35.06Z</time></trkpt><trkpt lat="44.7680333" lon="7.84051"><ele>332.6</ele><time>2026-04-11T08:05:36.063Z</time></trkpt><trkpt lat="44.76799" lon="7.8405783"><ele>333.20000000000005</ele><time>2026-04-11T08:05:37.062Z</time></trkpt><trkpt lat="44.767905" lon="7.8407133"><ele>333.8</ele><time>2026-04-11T08:05:39.063Z</time></trkpt><trkpt lat="44.767865" lon="7.8407867"><ele>334.4</ele><time>2026-04-11T08:05:40.06Z</time></trkpt><trkpt lat="44.76779" lon="7.84092"><ele>335.0</ele><time>2026-04-11T08:05:42.062Z</time></trkpt><trkpt lat="44.7677167" lon="7.8410467"><ele>335.6</ele><time>2026-04-11T08:05:44.062Z</time></trkpt><trkpt lat="44.7676517" lon="7.841175"><ele>336.2</ele><time>2026-04-11T08:05:46.061Z</time></trkpt><trkpt lat="44.767615" lon="7.84132"><ele>336.79999999999995</ele><time>2026-04-11T08:05:48.06Z</time></trkpt><trkpt lat="44.7676183" lon="7.841475"><ele>337.4</ele><time>2026-04-11T08:05:50.06Z</time></trkpt><trkpt lat="44.7676317" lon="7.84163"><ele>338.0</ele><time>2026-04-11T08:05:52.061Z</time></trkpt><trkpt lat="44.7676583" lon="7.841785"><ele>338.0</ele><time>2026-04-11T08:05:54.061Z</time></trkpt><trkpt lat="44.7676917" lon="7.84192"><ele>338.0</ele><time>2026-04-11T08:05:56.061Z</time></trkpt><trkpt lat="44.7677267" lon="7.8420417"><ele>338.0</ele><time>2026-04-11T08:05:58.061Z</time></trkpt><trkpt lat="44.7677667" lon="7.8421567"><ele>338.0</ele><time>2026-04-11T08:06:00.062Z</time></trkpt><trkpt lat="44.7678183" lon="7.8422683"><ele>338.0</ele><time>2026-04-11T08:06:02.059Z</time></trkpt><trkpt lat="44.767865" lon="7.8423867"><ele>338.0</ele><time>2026-04-11T08:06:04.06Z</time></trkpt><trkpt lat="44.7679067" lon="7.8425033"><ele>338.0</ele><time>2026-04-11T08:06:06.06Z</time></trkpt><trkpt lat="44.7679433" lon="7.8426167"><ele>338.0</ele><time>2026-04-11T08:06:08.061Z</time></trkpt><trkpt lat="44.767975" lon="7.84273"><ele>338.0</ele><time>2026-04-11T08:06:10.062Z</time></trkpt><trkpt lat="44.768" lon="7.84286"><ele>338.0</ele><time>2026-04-11T08:06:12.06Z</time></trkpt><trkpt lat="44.767995" lon="7.842995"><ele>338.2</ele><time>2026-04-11T08:06:14.061Z</time></trkpt><trkpt lat="44.7679517" lon="7.8431317"><ele>338.4</ele><time>2026-04-11T08:06:16.06Z</time></trkpt><trkpt lat="44.767885" lon="7.8432433"><ele>338.59999999999997</ele><time>2026-04-11T08:06:18.06Z</time></trkpt><trkpt lat="44.7678083" lon="7.84334"><ele>338.79999999999995</ele><time>2026-04-11T08:06:20.06Z</time></trkpt><trkpt lat="44.7677233" lon="7.843425"><ele>339.0</ele><time>2026-04-11T08:06:22.061Z</time></trkpt><trkpt lat="44.767635" lon="7.8435033"><ele>339.4</ele><time>2026-04-11T08:06:24.061Z</time></trkpt><trkpt lat="44.7675467" lon="7.8435867"><ele>339.79999999999995</ele><time>2026-04-11T08:06:26.062Z</time></trkpt><trkpt lat="44.76746" lon="7.843675"><ele>340.20000000000005</ele><time>2026-04-11T08:06:28.062Z</time></trkpt><trkpt lat="44.7673683" lon="7.8437683"><ele>340.6</ele><time>2026-04-11T08:06:30.06Z</time></trkpt><trkpt lat="44.76728" lon="7.8438617"><ele>341.0</ele><time>2026-04-11T08:06:32.061Z</time></trkpt><trkpt lat="44.7671933" lon="7.843955"><ele>341.0</ele><time>2026-04-11T08:06:34.062Z</time></trkpt><trkpt lat="44.7671033" lon="7.8440367"><ele>341.0</ele><time>2026-04-11T08:06:36.061Z</time></trkpt><trkpt lat="44.767015" lon="7.8441233"><ele>341.0</ele><time>2026-04-11T08:06:38.059Z</time></trkpt><trkpt lat="44.7669233" lon="7.8442083"><ele>341.0</ele><time>2026-04-11T08:06:40.062Z</time></trkpt><trkpt lat="44.76683" lon="7.8442933"><ele>341.0</ele><time>2026-04-11T08:06:42.061Z</time></trkpt><trkpt lat="44.7667367" lon="7.84438"><ele>341.75</ele><time>2026-04-11T08:06:44.062Z</time></trkpt><trkpt lat="44.766645" lon="7.8444667"><ele>342.5</ele><time>2026-04-11T08:06:46.061Z</time></trkpt><trkpt lat="44.7665467" lon="7.8445567"><ele>343.25</ele><time>2026-04-11T08:06:48.059Z</time></trkpt><trkpt lat="44.766445" lon="7.84465"><ele>344.0</ele><time>2026-04-11T08:06:50.062Z</time></trkpt><trkpt lat="44.7663483" lon="7.844745"><ele>344.0</ele><time>2026-04-11T08:06:52.062Z</time></trkpt><trkpt lat="44.76625" lon="7.8448383"><ele>344.0</ele><time>2026-04-11T08:06:54.06Z</time></trkpt><trkpt lat="44.7661567" lon="7.8449317"><ele>344.0</ele><time>2026-04-11T08:06:56.061Z</time></trkpt><trkpt lat="44.7660567" lon="7.8450217"><ele>344.0</ele><time>2026-04-11T08:06:58.06Z</time></trkpt><trkpt lat="44.7659633" lon="7.8451133"><ele>345.25</ele><time>2026-04-11T08:07:00.062Z</time></trkpt><trkpt lat="44.7658833" lon="7.8452267"><ele>346.5</ele><time>2026-04-11T08:07:02.062Z</time></trkpt><trkpt lat="44.7658717" lon="7.845375"><ele>347.75</ele><time>2026-04-11T08:07:04.06Z</time></trkpt><trkpt lat="44.765925" lon="7.8455217"><ele>349.0</ele><time>2026-04-11T08:07:06.063Z</time></trkpt><trkpt lat="44.7659917" lon="7.8456683"><ele>348.4</ele><time>2026-04-11T08:07:08.062Z</time></trkpt><trkpt lat="44.7660683" lon="7.8458067"><ele>347.79999999999995</ele><time>2026-04-11T08:07:10.06Z</time></trkpt><trkpt lat="44.7661117" lon="7.8458717"><ele>347.20000000000005</ele><time>2026-04-11T08:07:11.059Z</time></trkpt><trkpt lat="44.7661533" lon="7.8459383"><ele>346.6</ele><time>2026-04-11T08:07:12.06Z</time></trkpt><trkpt lat="44.766235" lon="7.8460683"><ele>346.0</ele><time>2026-04-11T08:07:14.06Z</time></trkpt><trkpt lat="44.7663133" lon="7.8462017"><ele>346.0</ele><time>2026-04-11T08:07:16.062Z</time></trkpt><trkpt lat="44.7663867" lon="7.8463483"><ele>346.0</ele><time>2026-04-11T08:07:18.06Z</time></trkpt><trkpt lat="44.7664233" lon="7.8464267"><ele>346.0</ele><time>2026-04-11T08:07:19.066Z</time></trkpt><trkpt lat="44.7664567" lon="7.84651"><ele>346.0</ele><time>2026-04-11T08:07:20.06Z</time></trkpt><trkpt lat="44.7664917" lon="7.8465933"><ele>346.0</ele><time>2026-04-11T08:07:21.061Z</time></trkpt><trkpt lat="44.7665283" lon="7.8466717"><ele>346.0</ele><time>2026-04-11T08:07:22.059Z</time></trkpt><trkpt lat="44.766565" lon="7.84675"><ele>346.3333333333333</ele><time>2026-04-11T08:07:23.059Z</time></trkpt><trkpt lat="44.7666" lon="7.84683"><ele>346.66666666666663</ele><time>2026-04-11T08:07:24.059Z</time></trkpt><trkpt lat="44.766635" lon="7.84691"><ele>347.0</ele><time>2026-04-11T08:07:25.06Z</time></trkpt><trkpt lat="44.7666683" lon="7.8469867"><ele>347.3333333333333</ele><time>2026-04-11T08:07:26.061Z</time></trkpt><trkpt lat="44.766705" lon="7.84706"><ele>347.6666666666667</ele><time>2026-04-11T08:07:27.061Z</time></trkpt><trkpt lat="44.7667767" lon="7.8471967"><ele>348.0</ele><time>2026-04-11T08:07:29.06Z</time></trkpt><trkpt lat="44.7668467" lon="7.8473233"><ele>347.59999999999997</ele><time>2026-04-11T08:07:31.062Z</time></trkpt><trkpt lat="44.766885" lon="7.8474467"><ele>347.2</ele><time>2026-04-11T08:07:33.063Z</time></trkpt><trkpt lat="44.76687" lon="7.8475767"><ele>346.8</ele><time>2026-04-11T08:07:35.06Z</time></trkpt><trkpt lat="44.7668167" lon="7.8476867"><ele>346.4</ele><time>2026-04-11T08:07:37.061Z</time></trkpt><trkpt lat="44.7667417" lon="7.847775"><ele>346.0</ele><time>2026-04-11T08:07:39.06Z</time></trkpt><trkpt lat="44.766655" lon="7.8478717"><ele>346.0</ele><time>2026-04-11T08:07:41.061Z</time></trkpt><trkpt lat="44.7665633" lon="7.84797"><ele>346.0</ele><time>2026-04-11T08:07:43.059Z</time></trkpt><trkpt lat="44.7664667" lon="7.8480583"><ele>346.0</ele><time>2026-04-11T08:07:45.062Z</time></trkpt><trkpt lat="44.7663617" lon="7.848135"><ele>346.0</ele><time>2026-04-11T08:07:47.059Z</time></trkpt><trkpt lat="44.7662417" lon="7.8481517"><ele>346.0</ele><time>2026-04-11T08:07:49.061Z</time></trkpt><trkpt lat="44.766175" lon="7.848135"><ele>346.0</ele><time>2026-04-11T08:07:50.061Z</time></trkpt><trkpt lat="44.7661083" lon="7.8481133"><ele>346.0</ele><time>2026-04-11T08:07:51.061Z</time></trkpt><trkpt lat="44.7660467" lon="7.8480883"><ele>346.0</ele><time>2026-04-11T08:07:52.061Z</time></trkpt><trkpt lat="44.7659217" lon="7.8480517"><ele>346.0</ele><time>2026-04-11T08:07:54.061Z</time></trkpt><trkpt lat="44.76581" lon="7.848055"><ele>346.0</ele><time>2026-04-11T08:07:56.062Z</time></trkpt><trkpt lat="44.7657083" lon="7.8481067"><ele>345.75</ele><time>2026-04-11T08:07:58.061Z</time></trkpt><trkpt lat="44.7655967" lon="7.84815"><ele>345.5</ele><time>2026-04-11T08:08:00.063Z</time></trkpt><trkpt lat="44.765495" lon="7.8482417"><ele>345.25</ele><time>2026-04-11T08:08:02.06Z</time></trkpt><trkpt lat="44.7654233" lon="7.84837"><ele>345.0</ele><time>2026-04-11T08:08:04.059Z</time></trkpt><trkpt lat="44.7653633" lon="7.8484983"><ele>344.6</ele><time>2026-04-11T08:08:06.061Z</time></trkpt><trkpt lat="44.76533" lon="7.8486267"><ele>344.2</ele><time>2026-04-11T08:08:08.059Z</time></trkpt><trkpt lat="44.7653667" lon="7.8487833"><ele>343.79999999999995</ele><time>2026-04-11T08:08:10.06Z</time></trkpt><trkpt lat="44.7654367" lon="7.848935"><ele>343.4</ele><time>2026-04-11T08:08:12.06Z</time></trkpt><trkpt lat="44.7654633" lon="7.84902"><ele>343.0</ele><time>2026-04-11T08:08:13.061Z</time></trkpt><trkpt lat="44.7654883" lon="7.8491133"><ele>343.0</ele><time>2026-04-11T08:08:14.06Z</time></trkpt><trkpt lat="44.7655083" lon="7.8492083"><ele>343.0</ele><time>2026-04-11T08:08:15.061Z</time></trkpt><trkpt lat="44.7655333" lon="7.849305"><ele>343.0</ele><time>2026-04-11T08:08:16.059Z</time></trkpt><trkpt lat="44.7655567" lon="7.849405"><ele>343.0</ele><time>2026-04-11T08:08:17.059Z</time></trkpt><trkpt lat="44.7655833" lon="7.8495017"><ele>343.0</ele><time>2026-04-11T08:08:18.059Z</time></trkpt><trkpt lat="44.76561" lon="7.8495967"><ele>343.0</ele><time>2026-04-11T08:08:19.062Z</time></trkpt><trkpt lat="44.7656367" lon="7.84969"><ele>343.0</ele><time>2026-04-11T08:08:20.059Z</time></trkpt><trkpt lat="44.7656683" lon="7.8497783"><ele>343.2</ele><time>2026-04-11T08:08:21.061Z</time></trkpt><trkpt lat="44.7657217" lon="7.8499217"><ele>343.4</ele><time>2026-04-11T08:08:23.061Z</time></trkpt><trkpt lat="44.765795" lon="7.8500117"><ele>343.59999999999997</ele><time>2026-04-11T08:08:25.062Z</time></trkpt><trkpt lat="44.7658617" lon="7.850085"><ele>343.79999999999995</ele><time>2026-04-11T08:08:27.061Z</time></trkpt><trkpt lat="44.7659267" lon="7.85016"><ele>344.0</ele><time>2026-04-11T08:08:29.06Z</time></trkpt><trkpt lat="44.7660067" lon="7.8502167"><ele>343.2</ele><time>2026-04-11T08:08:31.059Z</time></trkpt><trkpt lat="44.7660983" lon="7.8502467"><ele>342.4</ele><time>2026-04-11T08:08:33.059Z</time></trkpt><trkpt lat="44.7662017" lon="7.8502767"><ele>341.6</ele><time>2026-04-11T08:08:35.061Z</time></trkpt><trkpt lat="44.7662917" lon="7.8502883"><ele>340.8</ele><time>2026-04-11T08:08:37.06Z</time></trkpt><trkpt lat="44.76639" lon="7.850295"><ele>340.0</ele><time>2026-04-11T08:08:39.063Z</time></trkpt><trkpt lat="44.766455" lon="7.8503133"><ele>340.0</ele><time>2026-04-11T08:08:40.061Z</time></trkpt><trkpt lat="44.7665233" lon="7.8503467"><ele>340.0</ele><time>2026-04-11T08:08:41.06Z</time></trkpt><trkpt lat="44.7665867" lon="7.85039"><ele>340.0</ele><time>2026-04-11T08:08:42.059Z</time></trkpt><trkpt lat="44.7666517" lon="7.8504183"><ele>340.0</ele><time>2026-04-11T08:08:43.061Z</time></trkpt><trkpt lat="44.76677" lon="7.8504733"><ele>340.0</ele><time>2026-04-11T08:08:45.06Z</time></trkpt><trkpt lat="44.76686" lon="7.8506"><ele>339.6</ele><time>2026-04-11T08:08:47.061Z</time></trkpt><trkpt lat="44.7668917" lon="7.8506817"><ele>339.2</ele><time>2026-04-11T08:08:48.062Z</time></trkpt><trkpt lat="44.76692" lon="7.850845"><ele>338.79999999999995</ele><time>2026-04-11T08:08:50.06Z</time></trkpt><trkpt lat="44.7669083" lon="7.8510233"><ele>338.4</ele><time>2026-04-11T08:08:52.06Z</time></trkpt><trkpt lat="44.7669083" lon="7.8511133"><ele>338.0</ele><time>2026-04-11T08:08:53.06Z</time></trkpt><trkpt lat="44.7669233" lon="7.851215"><ele>338.0</ele><time>2026-04-11T08:08:54.06Z</time></trkpt><trkpt lat="44.76697" lon="7.8513167"><ele>338.0</ele><time>2026-04-11T08:08:56.061Z</time></trkpt><trkpt lat="44.7670083" lon="7.8513883"><ele>338.0</ele><time>2026-04-11T08:08:58.059Z</time></trkpt><trkpt lat="44.7670233" lon="7.8515"><ele>338.0</ele><time>2026-04-11T08:09:01.061Z</time></trkpt><trkpt lat="44.76704" lon="7.8516017"><ele>338.0</ele><time>2026-04-11T08:09:03.061Z</time></trkpt><trkpt lat="44.7670733" lon="7.8517033"><ele>338.0</ele><time>2026-04-11T08:09:05.062Z</time></trkpt><trkpt lat="44.7670967" lon="7.8518117"><ele>337.79999999999995</ele><time>2026-04-11T08:09:07.061Z</time></trkpt><trkpt lat="44.7670867" lon="7.851915"><ele>337.6</ele><time>2026-04-11T08:09:09.061Z</time></trkpt><trkpt lat="44.7670333" lon="7.8520333"><ele>337.4</ele><time>2026-04-11T08:09:11.058Z</time></trkpt><trkpt lat="44.7670083" lon="7.8521883"><ele>337.20000000000005</ele><time>2026-04-11T08:09:13.061Z</time></trkpt><trkpt lat="44.766975" lon="7.85235"><ele>337.0</ele><time>2026-04-11T08:09:15.062Z</time></trkpt><trkpt lat="44.7669283" lon="7.8525017"><ele>336.0</ele><time>2026-04-11T08:09:17.06Z</time></trkpt><trkpt lat="44.7669017" lon="7.8526717"><ele>335.0</ele><time>2026-04-11T08:09:19.06Z</time></trkpt><trkpt lat="44.7668867" lon="7.852835"><ele>334.0</ele><time>2026-04-11T08:09:21.063Z</time></trkpt><trkpt lat="44.7668783" lon="7.8530083"><ele>333.0</ele><time>2026-04-11T08:09:23.061Z</time></trkpt><trkpt lat="44.7668783" lon="7.85317"><ele>333.0</ele><time>2026-04-11T08:09:25.061Z</time></trkpt><trkpt lat="44.76687" lon="7.85326"><ele>333.0</ele><time>2026-04-11T08:09:26.062Z</time></trkpt><trkpt lat="44.7668633" lon="7.8533483"><ele>333.0</ele><time>2026-04-11T08:09:27.061Z</time></trkpt><trkpt lat="44.7668583" lon="7.8535233"><ele>333.0</ele><time>2026-04-11T08:09:29.06Z</time></trkpt><trkpt lat="44.7668583" lon="7.8536217"><ele>333.0</ele><time>2026-04-11T08:09:30.06Z</time></trkpt><trkpt lat="44.76685" lon="7.8537217"><ele>333.0</ele><time>2026-04-11T08:09:31.061Z</time></trkpt><trkpt lat="44.7668333" lon="7.8538167"><ele>333.1666666666667</ele><time>2026-04-11T08:09:32.062Z</time></trkpt><trkpt lat="44.7668167" lon="7.8539067"><ele>333.3333333333333</ele><time>2026-04-11T08:09:33.061Z</time></trkpt><trkpt lat="44.7667817" lon="7.8539817"><ele>333.5</ele><time>2026-04-11T08:09:34.06Z</time></trkpt><trkpt lat="44.7667183" lon="7.854075"><ele>333.66666666666663</ele><time>2026-04-11T08:09:36.061Z</time></trkpt><trkpt lat="44.7666283" lon="7.8541367"><ele>333.8333333333333</ele><time>2026-04-11T08:09:38.06Z</time></trkpt><trkpt lat="44.7665283" lon="7.854165"><ele>334.0</ele><time>2026-04-11T08:09:40.061Z</time></trkpt><trkpt lat="44.766425" lon="7.8541667"><ele>334.0</ele><time>2026-04-11T08:09:42.06Z</time></trkpt><trkpt lat="44.7663283" lon="7.8541717"><ele>334.0</ele><time>2026-04-11T08:09:44.061Z</time></trkpt><trkpt lat="44.766225" lon="7.8541833"><ele>334.0</ele><time>2026-04-11T08:09:46.061Z</time></trkpt><trkpt lat="44.76614" lon="7.854185"><ele>334.0</ele><time>2026-04-11T08:09:48.06Z</time></trkpt><trkpt lat="44.7660833" lon="7.8542467"><ele>334.0</ele><time>2026-04-11T08:09:50.061Z</time></trkpt><trkpt lat="44.766045" lon="7.8543317"><ele>334.0</ele><time>2026-04-11T08:09:52.062Z</time></trkpt><trkpt lat="44.765985" lon="7.8544167"><ele>334.16666666666663</ele><time>2026-04-11T08:09:54.059Z</time></trkpt><trkpt lat="44.7659133" lon="7.85449"><ele>334.3333333333333</ele><time>2026-04-11T08:09:56.061Z</time></trkpt><trkpt lat="44.7658433" lon="7.85454"><ele>334.5</ele><time>2026-04-11T08:09:58.061Z</time></trkpt><trkpt lat="44.7657567" lon="7.85458"><ele>334.6666666666667</ele><time>2026-04-11T08:10:01.061Z</time></trkpt><trkpt lat="44.7656767" lon="7.8546233"><ele>334.83333333333337</ele><time>2026-04-11T08:10:04.062Z</time></trkpt><trkpt lat="44.76561" lon="7.8546633"><ele>335.0</ele><time>2026-04-11T08:10:06.061Z</time></trkpt><trkpt lat="44.765525" lon="7.8546983"><ele>334.99999999999994</ele><time>2026-04-11T08:10:08.061Z</time></trkpt><trkpt lat="44.7654583" lon="7.8547317"><ele>335.0</ele><time>2026-04-11T08:10:10.062Z</time></trkpt><trkpt lat="44.76539" lon="7.8547583"><ele>335.0</ele><time>2026-04-11T08:10:12.062Z</time></trkpt><trkpt lat="44.7653217" lon="7.8547483"><ele>335.0</ele><time>2026-04-11T08:10:14.061Z</time></trkpt><trkpt lat="44.7652483" lon="7.8547167"><ele>335.0</ele><time>2026-04-11T08:10:16.059Z</time></trkpt><trkpt lat="44.7651883" lon="7.8546617"><ele>334.99999999999994</ele><time>2026-04-11T08:10:18.059Z</time></trkpt><trkpt lat="44.76515" lon="7.85459"><ele>335.0</ele><time>2026-04-11T08:10:20.06Z</time></trkpt><trkpt lat="44.7651533" lon="7.854485"><ele>335.5</ele><time>2026-04-11T08:10:22.059Z</time></trkpt><trkpt lat="44.765165" lon="7.8543583"><ele>336.0</ele><time>2026-04-11T08:10:24.061Z</time></trkpt><trkpt lat="44.7651517" lon="7.8542267"><ele>336.5</ele><time>2026-04-11T08:10:26.061Z</time></trkpt><trkpt lat="44.7651083" lon="7.8541267"><ele>337.0</ele><time>2026-04-11T08:10:28.06Z</time></trkpt><trkpt lat="44.765035" lon="7.85407"><ele>337.5</ele><time>2026-04-11T08:10:30.059Z</time></trkpt><trkpt lat="44.7649383" lon="7.854065"><ele>338.0</ele><time>2026-04-11T08:10:32.06Z</time></trkpt><trkpt lat="44.7648483" lon="7.8540583"><ele>339.0</ele><time>2026-04-11T08:10:34.06Z</time></trkpt><trkpt lat="44.7647733" lon="7.8540433"><ele>340.0</ele><time>2026-04-11T08:10:36.061Z</time></trkpt><trkpt lat="44.7647233" lon="7.8539833"><ele>341.0</ele><time>2026-04-11T08:10:38.059Z</time></trkpt><trkpt lat="44.7646983" lon="7.8538817"><ele>342.0</ele><time>2026-04-11T08:10:40.062Z</time></trkpt><trkpt lat="44.7646783" lon="7.853755"><ele>343.0</ele><time>2026-04-11T08:10:42.059Z</time></trkpt><trkpt lat="44.7646633" lon="7.8536267"><ele>344.0</ele><time>2026-04-11T08:10:44.06Z</time></trkpt><trkpt lat="44.7646367" lon="7.8534983"><ele>344.4</ele><time>2026-04-11T08:10:46.06Z</time></trkpt><trkpt lat="44.7646183" lon="7.8533633"><ele>344.79999999999995</ele><time>2026-04-11T08:10:48.059Z</time></trkpt><trkpt lat="44.7646133" lon="7.8532267"><ele>345.20000000000005</ele><time>2026-04-11T08:10:50.06Z</time></trkpt><trkpt lat="44.7646117" lon="7.8530967"><ele>345.6</ele><time>2026-04-11T08:10:52.06Z</time></trkpt><trkpt lat="44.7645967" lon="7.8529517"><ele>346.0</ele><time>2026-04-11T08:10:54.059Z</time></trkpt><trkpt lat="44.764565" lon="7.8528217"><ele>346.0</ele><time>2026-04-11T08:10:56.06Z</time></trkpt><trkpt lat="44.7645033" lon="7.8527383"><ele>346.0</ele><time>2026-04-11T08:10:58.059Z</time></trkpt><trkpt lat="44.7644217" lon="7.8527133"><ele>346.0</ele><time>2026-04-11T08:11:00.06Z</time></trkpt><trkpt lat="44.7643583" lon="7.8527033"><ele>346.0</ele><time>2026-04-11T08:11:02.059Z</time></trkpt><trkpt lat="44.7642667" lon="7.8527383"><ele>346.0</ele><time>2026-04-11T08:11:05.06Z</time></trkpt><trkpt lat="44.764205" lon="7.852795"><ele>346.0</ele><time>2026-04-11T08:11:07.06Z</time></trkpt><trkpt lat="44.76416" lon="7.85288"><ele>347.4</ele><time>2026-04-11T08:11:09.059Z</time></trkpt><trkpt lat="44.76413" lon="7.85299"><ele>348.8</ele><time>2026-04-11T08:11:11.059Z</time></trkpt><trkpt lat="44.7640767" lon="7.8530933"><ele>350.2</ele><time>2026-04-11T08:11:14.06Z</time></trkpt><trkpt lat="44.763975" lon="7.8530767"><ele>351.59999999999997</ele><time>2026-04-11T08:11:17.058Z</time></trkpt><trkpt lat="44.7638867" lon="7.85301"><ele>353.0</ele><time>2026-04-11T08:11:19.059Z</time></trkpt><trkpt lat="44.7637833" lon="7.8529667"><ele>353.0</ele><time>2026-04-11T08:11:21.06Z</time></trkpt><trkpt lat="44.7636867" lon="7.8529233"><ele>353.0</ele><time>2026-04-11T08:11:23.059Z</time></trkpt><trkpt lat="44.7635967" lon="7.8528433"><ele>353.0</ele><time>2026-04-11T08:11:25.057Z</time></trkpt><trkpt lat="44.763535" lon="7.85274"><ele>353.0</ele><time>2026-04-11T08:11:27.059Z</time></trkpt><trkpt lat="44.7634733" lon="7.852625"><ele>353.0</ele><time>2026-04-11T08:11:29.058Z</time></trkpt><trkpt lat="44.7634017" lon="7.8525417"><ele>352.5</ele><time>2026-04-11T08:11:31.06Z</time></trkpt><trkpt lat="44.7633483" lon="7.85247"><ele>352.0</ele><time>2026-04-11T08:11:33.059Z</time></trkpt><trkpt lat="44.7632817" lon="7.8523933"><ele>351.5</ele><time>2026-04-11T08:11:35.059Z</time></trkpt><trkpt lat="44.7631817" lon="7.8523467"><ele>351.0</ele><time>2026-04-11T08:11:37.061Z</time></trkpt><trkpt lat="44.7631183" lon="7.85232"><ele>350.5</ele><time>2026-04-11T08:11:38.059Z</time></trkpt><trkpt lat="44.7630517" lon="7.852295"><ele>350.0</ele><time>2026-04-11T08:11:39.057Z</time></trkpt><trkpt lat="44.76298" lon="7.8522717"><ele>350.0</ele><time>2026-04-11T08:11:40.059Z</time></trkpt><trkpt lat="44.76291" lon="7.85224"><ele>350.0</ele><time>2026-04-11T08:11:41.059Z</time></trkpt><trkpt lat="44.762835" lon="7.8522067"><ele>350.0</ele><time>2026-04-11T08:11:42.059Z</time></trkpt><trkpt lat="44.7627667" lon="7.8521817"><ele>350.0</ele><time>2026-04-11T08:11:43.06Z</time></trkpt><trkpt lat="44.7627" lon="7.8521483"><ele>350.0</ele><time>2026-04-11T08:11:44.058Z</time></trkpt><trkpt lat="44.7626383" lon="7.8521183"><ele>350.0</ele><time>2026-04-11T08:11:45.059Z</time></trkpt><trkpt lat="44.7625733" lon="7.8520967"><ele>350.0</ele><time>2026-04-11T08:11:46.061Z</time></trkpt><trkpt lat="44.76251" lon="7.852075"><ele>349.0</ele><time>2026-04-11T08:11:47.061Z</time></trkpt><trkpt lat="44.762445" lon="7.852045"><ele>348.0</ele><time>2026-04-11T08:11:48.061Z</time></trkpt><trkpt lat="44.7623833" lon="7.852005"><ele>347.0</ele><time>2026-04-11T08:11:49.06Z</time></trkpt><trkpt lat="44.7623233" lon="7.8519633"><ele>346.0</ele><time>2026-04-11T08:11:50.059Z</time></trkpt><trkpt lat="44.7622017" lon="7.8519083"><ele>345.0</ele><time>2026-04-11T08:11:52.059Z</time></trkpt><trkpt lat="44.7621367" lon="7.8518883"><ele>344.0</ele><time>2026-04-11T08:11:53.058Z</time></trkpt><trkpt lat="44.7620717" lon="7.8518633"><ele>344.00000000000006</ele><time>2026-04-11T08:11:54.061Z</time></trkpt><trkpt lat="44.7620067" lon="7.8518417"><ele>344.0</ele><time>2026-04-11T08:11:55.06Z</time></trkpt><trkpt lat="44.7619417" lon="7.8518117"><ele>344.0</ele><time>2026-04-11T08:11:56.061Z</time></trkpt><trkpt lat="44.7618767" lon="7.8517867"><ele>344.0</ele><time>2026-04-11T08:11:57.061Z</time></trkpt><trkpt lat="44.761815" lon="7.85176"><ele>344.0</ele><time>2026-04-11T08:11:58.061Z</time></trkpt><trkpt lat="44.7617533" lon="7.85173"><ele>344.00000000000006</ele><time>2026-04-11T08:11:59.061Z</time></trkpt><trkpt lat="44.76169" lon="7.8516983"><ele>344.0</ele><time>2026-04-11T08:12:00.059Z</time></trkpt><trkpt lat="44.761575" lon="7.85163"><ele>344.4</ele><time>2026-04-11T08:12:02.059Z</time></trkpt><trkpt lat="44.761455" lon="7.8515783"><ele>344.79999999999995</ele><time>2026-04-11T08:12:04.06Z</time></trkpt><trkpt lat="44.761395" lon="7.8515483"><ele>345.20000000000005</ele><time>2026-04-11T08:12:05.06Z</time></trkpt><trkpt lat="44.7612817" lon="7.851485"><ele>345.6</ele><time>2026-04-11T08:12:07.061Z</time></trkpt><trkpt lat="44.76122" lon="7.8514533"><ele>346.0</ele><time>2026-04-11T08:12:08.059Z</time></trkpt><trkpt lat="44.7611067" lon="7.85141"><ele>347.5</ele><time>2026-04-11T08:12:10.059Z</time></trkpt><trkpt lat="44.76099" lon="7.8513883"><ele>349.0</ele><time>2026-04-11T08:12:12.059Z</time></trkpt><trkpt lat="44.760925" lon="7.851395"><ele>350.5</ele><time>2026-04-11T08:12:13.06Z</time></trkpt><trkpt lat="44.7608017" lon="7.8514233"><ele>352.0</ele><time>2026-04-11T08:12:15.061Z</time></trkpt><trkpt lat="44.7607367" lon="7.8514467"><ele>353.5</ele><time>2026-04-11T08:12:16.06Z</time></trkpt><trkpt lat="44.7606733" lon="7.8514717"><ele>355.0</ele><time>2026-04-11T08:12:17.06Z</time></trkpt><trkpt lat="44.76061" lon="7.8514983"><ele>355.0</ele><time>2026-04-11T08:12:18.062Z</time></trkpt><trkpt lat="44.7604883" lon="7.851555"><ele>355.0</ele><time>2026-04-11T08:12:20.061Z</time></trkpt><trkpt lat="44.76037" lon="7.8516383"><ele>355.0</ele><time>2026-04-11T08:12:22.06Z</time></trkpt><trkpt lat="44.760315" lon="7.8516833"><ele>355.0</ele><time>2026-04-11T08:12:23.058Z</time></trkpt><trkpt lat="44.760255" lon="7.8517267"><ele>355.0</ele><time>2026-04-11T08:12:24.061Z</time></trkpt><trkpt lat="44.76015" lon="7.85181"><ele>356.4</ele><time>2026-04-11T08:12:26.061Z</time></trkpt><trkpt lat="44.760055" lon="7.8518567"><ele>357.8</ele><time>2026-04-11T08:12:28.061Z</time></trkpt><trkpt lat="44.759945" lon="7.8518433"><ele>359.20000000000005</ele><time>2026-04-11T08:12:30.059Z</time></trkpt><trkpt lat="44.7598383" lon="7.8518667"><ele>360.6</ele><time>2026-04-11T08:12:32.061Z</time></trkpt><trkpt lat="44.7597283" lon="7.8518917"><ele>362.0</ele><time>2026-04-11T08:12:34.06Z</time></trkpt><trkpt lat="44.7596417" lon="7.8519317"><ele>362.0</ele><time>2026-04-11T08:12:36.059Z</time></trkpt><trkpt lat="44.759555" lon="7.851955"><ele>362.0</ele><time>2026-04-11T08:12:38.06Z</time></trkpt><trkpt lat="44.759485" lon="7.85193"><ele>362.0</ele><time>2026-04-11T08:12:40.061Z</time></trkpt><trkpt lat="44.759425" lon="7.851865"><ele>362.0</ele><time>2026-04-11T08:12:42.062Z</time></trkpt><trkpt lat="44.7593667" lon="7.8518"><ele>362.0</ele><time>2026-04-11T08:12:44.06Z</time></trkpt><trkpt lat="44.75932" lon="7.8517283"><ele>362.0</ele><time>2026-04-11T08:12:46.059Z</time></trkpt><trkpt lat="44.7592617" lon="7.8516683"><ele>362.57142857142856</ele><time>2026-04-11T08:12:48.059Z</time></trkpt><trkpt lat="44.7592" lon="7.85161"><ele>363.1428571428571</ele><time>2026-04-11T08:12:50.061Z</time></trkpt><trkpt lat="44.7591483" lon="7.8515517"><ele>363.7142857142857</ele><time>2026-04-11T08:12:52.061Z</time></trkpt><trkpt lat="44.7590817" lon="7.851515"><ele>364.2857142857143</ele><time>2026-04-11T08:12:54.06Z</time></trkpt><trkpt lat="44.759" lon="7.851505"><ele>364.8571428571429</ele><time>2026-04-11T08:12:56.058Z</time></trkpt><trkpt lat="44.7589217" lon="7.8515317"><ele>365.42857142857144</ele><time>2026-04-11T08:12:58.06Z</time></trkpt><trkpt lat="44.758855" lon="7.8515233"><ele>366.0</ele><time>2026-04-11T08:13:00.059Z</time></trkpt><trkpt lat="44.758815" lon="7.8514067"><ele>366.0</ele><time>2026-04-11T08:13:03.061Z</time></trkpt><trkpt lat="44.7588" lon="7.8513017"><ele>366.0</ele><time>2026-04-11T08:13:05.06Z</time></trkpt><trkpt lat="44.7587717" lon="7.8512067"><ele>366.0</ele><time>2026-04-11T08:13:07.06Z</time></trkpt><trkpt lat="44.7587283" lon="7.8511117"><ele>366.0</ele><time>2026-04-11T08:13:09.062Z</time></trkpt><trkpt lat="44.758675" lon="7.8510433"><ele>366.0</ele><time>2026-04-11T08:13:11.059Z</time></trkpt><trkpt lat="44.7586183" lon="7.850975"><ele>366.0</ele><time>2026-04-11T08:13:13.061Z</time></trkpt><trkpt lat="44.75856" lon="7.85092"><ele>366.0</ele><time>2026-04-11T08:13:15.059Z</time></trkpt><trkpt lat="44.7584883" lon="7.8508933"><ele>367.3333333333333</ele><time>2026-04-11T08:13:17.061Z</time></trkpt><trkpt lat="44.7584067" lon="7.8508333"><ele>368.6666666666667</ele><time>2026-04-11T08:13:20.059Z</time></trkpt><trkpt lat="44.75838" lon="7.8507517"><ele>370.0</ele><time>2026-04-11T08:13:22.06Z</time></trkpt><trkpt lat="44.7583433" lon="7.8506567"><ele>371.33333333333337</ele><time>2026-04-11T08:13:25.062Z</time></trkpt><trkpt lat="44.7582967" lon="7.8505867"><ele>372.6666666666667</ele><time>2026-04-11T08:13:28.057Z</time></trkpt><trkpt lat="44.7582417" lon="7.8505267"><ele>374.0</ele><time>2026-04-11T08:13:31.062Z</time></trkpt><trkpt lat="44.7581733" lon="7.8504683"><ele>374.0</ele><time>2026-04-11T08:13:34.061Z</time></trkpt><trkpt lat="44.7580833" lon="7.8504283"><ele>374.0</ele><time>2026-04-11T08:13:37.06Z</time></trkpt><trkpt lat="44.757995" lon="7.8504167"><ele>374.0</ele><time>2026-04-11T08:13:40.06Z</time></trkpt><trkpt lat="44.7579117" lon="7.8503733"><ele>374.0</ele><time>2026-04-11T08:13:43.06Z</time></trkpt><trkpt lat="44.7578367" lon="7.850345"><ele>374.0</ele><time>2026-04-11T08:13:46.062Z</time></trkpt><trkpt lat="44.7577583" lon="7.8503383"><ele>374.0</ele><time>2026-04-11T08:13:49.06Z</time></trkpt><trkpt lat="44.75769" lon="7.8503167"><ele>374.1666666666667</ele><time>2026-04-11T08:13:52.061Z</time></trkpt><trkpt lat="44.7576233" lon="7.8502817"><ele>374.33333333333337</ele><time>2026-04-11T08:13:55.061Z</time></trkpt><trkpt lat="44.75756" lon="7.85022"><ele>374.5</ele><time>2026-04-11T08:13:58.061Z</time></trkpt><trkpt lat="44.7575067" lon="7.8501417"><ele>374.6666666666667</ele><time>2026-04-11T08:14:01.061Z</time></trkpt><trkpt lat="44.7574483" lon="7.8500433"><ele>374.8333333333333</ele><time>2026-04-11T08:14:04.062Z</time></trkpt><trkpt lat="44.7574" lon="7.8499533"><ele>375.0</ele><time>2026-04-11T08:14:07.06Z</time></trkpt><trkpt lat="44.7573433" lon="7.849875"><ele>375.0</ele><time>2026-04-11T08:14:10.059Z</time></trkpt><trkpt lat="44.75728" lon="7.849855"><ele>375.0</ele><time>2026-04-11T08:14:12.062Z</time></trkpt><trkpt lat="44.757195" lon="7.849905"><ele>375.0</ele><time>2026-04-11T08:14:15.063Z</time></trkpt><trkpt lat="44.7571383" lon="7.849945"><ele>375.0</ele><time>2026-04-11T08:14:17.057Z</time></trkpt><trkpt lat="44.7570783" lon="7.8499883"><ele>375.0</ele><time>2026-04-11T08:14:19.062Z</time></trkpt><trkpt lat="44.7570117" lon="7.8500467"><ele>375.0</ele><time>2026-04-11T08:14:21.061Z</time></trkpt><trkpt lat="44.7569533" lon="7.8501283"><ele>375.0</ele><time>2026-04-11T08:14:23.059Z</time></trkpt><trkpt lat="44.75691" lon="7.8502233"><ele>375.0</ele><time>2026-04-11T08:14:25.059Z</time></trkpt><trkpt lat="44.7568767" lon="7.8503383"><ele>375.0</ele><time>2026-04-11T08:14:27.061Z</time></trkpt><trkpt lat="44.75685" lon="7.8504633"><ele>375.0</ele><time>2026-04-11T08:14:29.06Z</time></trkpt><trkpt lat="44.7568417" lon="7.850605"><ele>375.0</ele><time>2026-04-11T08:14:31.061Z</time></trkpt><trkpt lat="44.7568433" lon="7.8507367"><ele>375.0</ele><time>2026-04-11T08:14:33.062Z</time></trkpt><trkpt lat="44.75684" lon="7.8508683"><ele>375.0</ele><time>2026-04-11T08:14:35.059Z</time></trkpt><trkpt lat="44.7568333" lon="7.8510017"><ele>375.0</ele><time>2026-04-11T08:14:37.06Z</time></trkpt><trkpt lat="44.75683" lon="7.8511417"><ele>375.0</ele><time>2026-04-11T08:14:39.058Z</time></trkpt><trkpt lat="44.7568333" lon="7.8512867"><ele>375.0</ele><time>2026-04-11T08:14:41.059Z</time></trkpt><trkpt lat="44.75683" lon="7.85144"><ele>375.0</ele><time>2026-04-11T08:14:43.061Z</time></trkpt><trkpt lat="44.7568333" lon="7.8516017"><ele>375.0</ele><time>2026-04-11T08:14:45.06Z</time></trkpt><trkpt lat="44.756825" lon="7.8517567"><ele>375.0</ele><time>2026-04-11T08:14:47.059Z</time></trkpt><trkpt lat="44.75682" lon="7.8519067"><ele>375.0</ele><time>2026-04-11T08:14:49.06Z</time></trkpt><trkpt lat="44.756815" lon="7.8520517"><ele>375.0</ele><time>2026-04-11T08:14:51.062Z</time></trkpt><trkpt lat="44.7568" lon="7.8522017"><ele>375.0</ele><time>2026-04-11T08:14:53.061Z</time></trkpt><trkpt lat="44.7567867" lon="7.852355"><ele>376.0</ele><time>2026-04-11T08:14:55.062Z</time></trkpt><trkpt lat="44.7567767" lon="7.85251"><ele>377.0</ele><time>2026-04-11T08:14:57.061Z</time></trkpt><trkpt lat="44.7567917" lon="7.8526617"><ele>378.0</ele><time>2026-04-11T08:14:59.06Z</time></trkpt><trkpt lat="44.75683" lon="7.8528183"><ele>379.0</ele><time>2026-04-11T08:15:01.06Z</time></trkpt><trkpt lat="44.7568517" lon="7.85299"><ele>379.28571428571433</ele><time>2026-04-11T08:15:03.061Z</time></trkpt><trkpt lat="44.75684" lon="7.8530833"><ele>379.57142857142856</ele><time>2026-04-11T08:15:04.061Z</time></trkpt><trkpt lat="44.7568067" lon="7.8532433"><ele>379.8571428571429</ele><time>2026-04-11T08:15:06.061Z</time></trkpt><trkpt lat="44.756785" lon="7.8533267"><ele>380.14285714285717</ele><time>2026-04-11T08:15:07.061Z</time></trkpt><trkpt lat="44.7567683" lon="7.8534133"><ele>380.42857142857144</ele><time>2026-04-11T08:15:08.06Z</time></trkpt><trkpt lat="44.7567483" lon="7.8534983"><ele>380.7142857142857</ele><time>2026-04-11T08:15:09.061Z</time></trkpt><trkpt lat="44.7567217" lon="7.8535817"><ele>381.0</ele><time>2026-04-11T08:15:10.059Z</time></trkpt><trkpt lat="44.7566867" lon="7.8536583"><ele>381.6</ele><time>2026-04-11T08:15:11.059Z</time></trkpt><trkpt lat="44.756655" lon="7.8537383"><ele>382.20000000000005</ele><time>2026-04-11T08:15:12.06Z</time></trkpt><trkpt lat="44.7565917" lon="7.853885"><ele>382.79999999999995</ele><time>2026-04-11T08:15:14.06Z</time></trkpt><trkpt lat="44.7565583" lon="7.8540317"><ele>383.4</ele><time>2026-04-11T08:15:16.059Z</time></trkpt><trkpt lat="44.756545" lon="7.8541617"><ele>384.0</ele><time>2026-04-11T08:15:18.06Z</time></trkpt><trkpt lat="44.75653" lon="7.8542883"><ele>384.4</ele><time>2026-04-11T08:15:20.06Z</time></trkpt><trkpt lat="44.7565033" lon="7.854435"><ele>384.79999999999995</ele><time>2026-04-11T08:15:22.06Z</time></trkpt><trkpt lat="44.75646" lon="7.85457"><ele>385.20000000000005</ele><time>2026-04-11T08:15:24.059Z</time></trkpt><trkpt lat="44.7564033" lon="7.854675"><ele>385.6</ele><time>2026-04-11T08:15:26.059Z</time></trkpt><trkpt lat="44.7563517" lon="7.8547683"><ele>386.0</ele><time>2026-04-11T08:15:28.06Z</time></trkpt><trkpt lat="44.756305" lon="7.8548567"><ele>385.99999999999994</ele><time>2026-04-11T08:15:30.059Z</time></trkpt><trkpt lat="44.7562517" lon="7.8549333"><ele>386.0</ele><time>2026-04-11T08:15:32.059Z</time></trkpt><trkpt lat="44.7562083" lon="7.855015"><ele>386.0</ele><time>2026-04-11T08:15:34.059Z</time></trkpt><trkpt lat="44.7561467" lon="7.8550917"><ele>386.0</ele><time>2026-04-11T08:15:36.062Z</time></trkpt><trkpt lat="44.756075" lon="7.8551717"><ele>385.99999999999994</ele><time>2026-04-11T08:15:38.059Z</time></trkpt><trkpt lat="44.755995" lon="7.85525"><ele>386.0</ele><time>2026-04-11T08:15:40.06Z</time></trkpt><trkpt lat="44.755925" lon="7.8553283"><ele>386.20000000000005</ele><time>2026-04-11T08:15:42.06Z</time></trkpt><trkpt lat="44.75587" lon="7.85543"><ele>386.40000000000003</ele><time>2026-04-11T08:15:44.059Z</time></trkpt><trkpt lat="44.75582" lon="7.8555483"><ele>386.6</ele><time>2026-04-11T08:15:46.059Z</time></trkpt><trkpt lat="44.7557683" lon="7.8556783"><ele>386.8</ele><time>2026-04-11T08:15:48.06Z</time></trkpt><trkpt lat="44.7557067" lon="7.8558133"><ele>387.0</ele><time>2026-04-11T08:15:50.06Z</time></trkpt><trkpt lat="44.7556483" lon="7.855955"><ele>387.25</ele><time>2026-04-11T08:15:52.06Z</time></trkpt><trkpt lat="44.7555867" lon="7.85609"><ele>387.5</ele><time>2026-04-11T08:15:54.062Z</time></trkpt><trkpt lat="44.75554" lon="7.856235"><ele>387.75</ele><time>2026-04-11T08:15:56.059Z</time></trkpt><trkpt lat="44.7554967" lon="7.85638"><ele>388.0</ele><time>2026-04-11T08:15:58.06Z</time></trkpt><trkpt lat="44.7554483" lon="7.8565267"><ele>388.0</ele><time>2026-04-11T08:16:00.062Z</time></trkpt><trkpt lat="44.7554067" lon="7.8566667"><ele>388.0</ele><time>2026-04-11T08:16:02.06Z</time></trkpt><trkpt lat="44.7553633" lon="7.856805"><ele>388.0</ele><time>2026-04-11T08:16:04.06Z</time></trkpt><trkpt lat="44.75533" lon="7.8569383"><ele>388.0</ele><time>2026-04-11T08:16:06.06Z</time></trkpt><trkpt lat="44.7553133" lon="7.8570533"><ele>388.0</ele><time>2026-04-11T08:16:08.061Z</time></trkpt><trkpt lat="44.75534" lon="7.8571533"><ele>387.4</ele><time>2026-04-11T08:16:10.061Z</time></trkpt><trkpt lat="44.7554117" lon="7.85722"><ele>386.79999999999995</ele><time>2026-04-11T08:16:12.062Z</time></trkpt><trkpt lat="44.7555067" lon="7.8572367"><ele>386.2</ele><time>2026-04-11T08:16:14.062Z</time></trkpt><trkpt lat="44.7556117" lon="7.857235"><ele>385.6</ele><time>2026-04-11T08:16:16.061Z</time></trkpt><trkpt lat="44.7557167" lon="7.8572267"><ele>385.0</ele><time>2026-04-11T08:16:18.06Z</time></trkpt><trkpt lat="44.755815" lon="7.8571933"><ele>385.0</ele><time>2026-04-11T08:16:20.06Z</time></trkpt><trkpt lat="44.7559133" lon="7.8571433"><ele>385.0</ele><time>2026-04-11T08:16:22.06Z</time></trkpt><trkpt lat="44.7560267" lon="7.857105"><ele>385.0</ele><time>2026-04-11T08:16:24.06Z</time></trkpt><trkpt lat="44.7561517" lon="7.857085"><ele>385.0</ele><time>2026-04-11T08:16:26.06Z</time></trkpt><trkpt lat="44.756215" lon="7.8570817"><ele>385.0</ele><time>2026-04-11T08:16:27.061Z</time></trkpt><trkpt lat="44.7562783" lon="7.8570883"><ele>384.50000000000006</ele><time>2026-04-11T08:16:28.06Z</time></trkpt><trkpt lat="44.7563417" lon="7.8570933"><ele>384.0</ele><time>2026-04-11T08:16:29.06Z</time></trkpt><trkpt lat="44.756405" lon="7.85708"><ele>383.5</ele><time>2026-04-11T08:16:30.06Z</time></trkpt><trkpt lat="44.75647" lon="7.8570583"><ele>383.0</ele><time>2026-04-11T08:16:31.06Z</time></trkpt><trkpt lat="44.75658" lon="7.856995"><ele>382.5</ele><time>2026-04-11T08:16:33.061Z</time></trkpt><trkpt lat="44.756635" lon="7.8568783"><ele>382.0</ele><time>2026-04-11T08:16:35.059Z</time></trkpt><trkpt lat="44.7566833" lon="7.856775"><ele>382.0</ele><time>2026-04-11T08:16:37.061Z</time></trkpt><trkpt lat="44.7567717" lon="7.8567033"><ele>382.0</ele><time>2026-04-11T08:16:39.06Z</time></trkpt><trkpt lat="44.75687" lon="7.8566333"><ele>382.0</ele><time>2026-04-11T08:16:41.06Z</time></trkpt><trkpt lat="44.756965" lon="7.8565467"><ele>382.0</ele><time>2026-04-11T08:16:43.06Z</time></trkpt><trkpt lat="44.757045" lon="7.85647"><ele>382.0</ele><time>2026-04-11T08:16:45.06Z</time></trkpt><trkpt lat="44.7571233" lon="7.85644"><ele>379.8333333333333</ele><time>2026-04-11T08:16:47.06Z</time></trkpt><trkpt lat="44.7571983" lon="7.8564417"><ele>377.66666666666663</ele><time>2026-04-11T08:16:49.061Z</time></trkpt><trkpt lat="44.7572867" lon="7.8564067"><ele>375.5</ele><time>2026-04-11T08:16:51.063Z</time></trkpt><trkpt lat="44.7573483" lon="7.8563233"><ele>373.3333333333333</ele><time>2026-04-11T08:16:53.06Z</time></trkpt><trkpt lat="44.757375" lon="7.8562283"><ele>371.1666666666667</ele><time>2026-04-11T08:16:56.06Z</time></trkpt><trkpt lat="44.7573333" lon="7.8561233"><ele>369.0</ele><time>2026-04-11T08:16:59.06Z</time></trkpt><trkpt lat="44.75726" lon="7.8560583"><ele>369.0</ele><time>2026-04-11T08:17:01.064Z</time></trkpt><trkpt lat="44.7571833" lon="7.8559967"><ele>369.0</ele><time>2026-04-11T08:17:03.06Z</time></trkpt><trkpt lat="44.7571383" lon="7.8559317"><ele>369.0</ele><time>2026-04-11T08:17:05.059Z</time></trkpt><trkpt lat="44.7571583" lon="7.8558233"><ele>369.0</ele><time>2026-04-11T08:17:08.061Z</time></trkpt><trkpt lat="44.7571967" lon="7.85575"><ele>369.0</ele><time>2026-04-11T08:17:10.06Z</time></trkpt><trkpt lat="44.7572617" lon="7.8556567"><ele>369.0</ele><time>2026-04-11T08:17:12.06Z</time></trkpt><trkpt lat="44.7573583" lon="7.855545"><ele>369.3333333333333</ele><time>2026-04-11T08:17:14.059Z</time></trkpt><trkpt lat="44.7574117" lon="7.8554883"><ele>369.6666666666667</ele><time>2026-04-11T08:17:15.06Z</time></trkpt><trkpt lat="44.7574683" lon="7.8554417"><ele>370.0</ele><time>2026-04-11T08:17:16.058Z</time></trkpt><trkpt lat="44.7575233" lon="7.85539"><ele>370.33333333333337</ele><time>2026-04-11T08:17:17.062Z</time></trkpt><trkpt lat="44.7575667" lon="7.855325"><ele>370.6666666666667</ele><time>2026-04-11T08:17:18.059Z</time></trkpt><trkpt lat="44.75765" lon="7.8552"><ele>371.0</ele><time>2026-04-11T08:17:20.059Z</time></trkpt><trkpt lat="44.7577617" lon="7.8551517"><ele>370.0</ele><time>2026-04-11T08:17:22.059Z</time></trkpt><trkpt lat="44.7578767" lon="7.8551883"><ele>369.0</ele><time>2026-04-11T08:17:24.06Z</time></trkpt><trkpt lat="44.7579933" lon="7.8552383"><ele>368.0</ele><time>2026-04-11T08:17:26.06Z</time></trkpt><trkpt lat="44.7581083" lon="7.8552833"><ele>367.0</ele><time>2026-04-11T08:17:28.06Z</time></trkpt><trkpt lat="44.758205" lon="7.8553283"><ele>367.0</ele><time>2026-04-11T08:17:30.055Z</time></trkpt><trkpt lat="44.7582867" lon="7.8553617"><ele>367.0</ele><time>2026-04-11T08:17:32.06Z</time></trkpt><trkpt lat="44.7583717" lon="7.85536"><ele>367.0</ele><time>2026-04-11T08:17:35.06Z</time></trkpt><trkpt lat="44.75843" lon="7.8552983"><ele>367.0</ele><time>2026-04-11T08:17:37.059Z</time></trkpt><trkpt lat="44.7584933" lon="7.8552267"><ele>367.0</ele><time>2026-04-11T08:17:39.059Z</time></trkpt><trkpt lat="44.7585617" lon="7.8551667"><ele>367.0</ele><time>2026-04-11T08:17:41.059Z</time></trkpt><trkpt lat="44.758625" lon="7.855105"><ele>367.3333333333333</ele><time>2026-04-11T08:17:43.062Z</time></trkpt><trkpt lat="44.758695" lon="7.8550483"><ele>367.66666666666663</ele><time>2026-04-11T08:17:45.061Z</time></trkpt><trkpt lat="44.7587633" lon="7.8549817"><ele>368.0</ele><time>2026-04-11T08:17:47.059Z</time></trkpt><trkpt lat="44.7588417" lon="7.8549333"><ele>368.3333333333333</ele><time>2026-04-11T08:17:49.061Z</time></trkpt><trkpt lat="44.7589083" lon="7.8548833"><ele>368.6666666666667</ele><time>2026-04-11T08:17:51.06Z</time></trkpt><trkpt lat="44.7589667" lon="7.854845"><ele>369.0</ele><time>2026-04-11T08:17:53.059Z</time></trkpt><trkpt lat="44.7590317" lon="7.8548067"><ele>369.0</ele><time>2026-04-11T08:17:55.057Z</time></trkpt><trkpt lat="44.7590933" lon="7.8547767"><ele>369.0</ele><time>2026-04-11T08:17:57.055Z</time></trkpt><trkpt lat="44.7591633" lon="7.85474"><ele>369.0</ele><time>2026-04-11T08:17:59.057Z</time></trkpt><trkpt lat="44.7592317" lon="7.8547167"><ele>369.0</ele><time>2026-04-11T08:18:01.061Z</time></trkpt><trkpt lat="44.7592967" lon="7.8547017"><ele>369.0</ele><time>2026-04-11T08:18:03.06Z</time></trkpt><trkpt lat="44.759365" lon="7.8546883"><ele>369.0</ele><time>2026-04-11T08:18:05.059Z</time></trkpt><trkpt lat="44.7594533" lon="7.85468"><ele>369.0</ele><time>2026-04-11T08:18:08.06Z</time></trkpt><trkpt lat="44.759545" lon="7.8546633"><ele>369.0</ele><time>2026-04-11T08:18:11.059Z</time></trkpt><trkpt lat="44.7596283" lon="7.8546617"><ele>369.0</ele><time>2026-04-11T08:18:14.06Z</time></trkpt><trkpt lat="44.7596933" lon="7.8547217"><ele>369.0</ele><time>2026-04-11T08:18:17.06Z</time></trkpt><trkpt lat="44.7596967" lon="7.854835"><ele>369.0</ele><time>2026-04-11T08:18:20.059Z</time></trkpt><trkpt lat="44.75966" lon="7.8549567"><ele>369.0</ele><time>2026-04-11T08:18:23.057Z</time></trkpt><trkpt lat="44.7596317" lon="7.8550383"><ele>369.0</ele><time>2026-04-11T08:18:25.061Z</time></trkpt><trkpt lat="44.7596" lon="7.855145"><ele>369.3333333333333</ele><time>2026-04-11T08:18:27.06Z</time></trkpt><trkpt lat="44.7595633" lon="7.8552467"><ele>369.6666666666667</ele><time>2026-04-11T08:18:29.061Z</time></trkpt><trkpt lat="44.75952" lon="7.8553367"><ele>370.0</ele><time>2026-04-11T08:18:31.062Z</time></trkpt><trkpt lat="44.7594767" lon="7.8554217"><ele>370.33333333333337</ele><time>2026-04-11T08:18:33.06Z</time></trkpt><trkpt lat="44.7594333" lon="7.8555217"><ele>370.6666666666667</ele><time>2026-04-11T08:18:35.06Z</time></trkpt><trkpt lat="44.7593967" lon="7.8556333"><ele>371.0</ele><time>2026-04-11T08:18:37.061Z</time></trkpt><trkpt lat="44.7593667" lon="7.85574"><ele>371.6666666666667</ele><time>2026-04-11T08:18:39.061Z</time></trkpt><trkpt lat="44.7593417" lon="7.8558383"><ele>372.33333333333337</ele><time>2026-04-11T08:18:41.059Z</time></trkpt><trkpt lat="44.7593133" lon="7.8559367"><ele>373.0</ele><time>2026-04-11T08:18:43.062Z</time></trkpt><trkpt lat="44.7592783" lon="7.8560367"><ele>373.6666666666667</ele><time>2026-04-11T08:18:45.063Z</time></trkpt><trkpt lat="44.759245" lon="7.85615"><ele>374.3333333333333</ele><time>2026-04-11T08:18:47.062Z</time></trkpt><trkpt lat="44.75922" lon="7.8562683"><ele>375.0</ele><time>2026-04-11T08:18:49.058Z</time></trkpt><trkpt lat="44.75918" lon="7.8563833"><ele>375.8</ele><time>2026-04-11T08:18:51.061Z</time></trkpt><trkpt lat="44.7591417" lon="7.856515"><ele>376.6</ele><time>2026-04-11T08:18:53.06Z</time></trkpt><trkpt lat="44.7591067" lon="7.85665"><ele>377.4</ele><time>2026-04-11T08:18:55.061Z</time></trkpt><trkpt lat="44.7590683" lon="7.8567767"><ele>378.2</ele><time>2026-04-11T08:18:57.059Z</time></trkpt><trkpt lat="44.759025" lon="7.85691"><ele>379.0</ele><time>2026-04-11T08:18:59.059Z</time></trkpt><trkpt lat="44.75898" lon="7.8570467"><ele>379.4</ele><time>2026-04-11T08:19:01.062Z</time></trkpt><trkpt lat="44.7589383" lon="7.85718"><ele>379.79999999999995</ele><time>2026-04-11T08:19:03.063Z</time></trkpt><trkpt lat="44.7589017" lon="7.8573067"><ele>380.20000000000005</ele><time>2026-04-11T08:19:05.06Z</time></trkpt><trkpt lat="44.7588633" lon="7.85743"><ele>380.6</ele><time>2026-04-11T08:19:07.06Z</time></trkpt><trkpt lat="44.7588217" lon="7.8575583"><ele>381.0</ele><time>2026-04-11T08:19:09.063Z</time></trkpt><trkpt lat="44.7587767" lon="7.8576883"><ele>381.6</ele><time>2026-04-11T08:19:11.06Z</time></trkpt><trkpt lat="44.758735" lon="7.85782"><ele>382.20000000000005</ele><time>2026-04-11T08:19:13.059Z</time></trkpt><trkpt lat="44.758685" lon="7.8579417"><ele>382.79999999999995</ele><time>2026-04-11T08:19:15.06Z</time></trkpt><trkpt lat="44.7586383" lon="7.8580667"><ele>383.4</ele><time>2026-04-11T08:19:17.061Z</time></trkpt><trkpt lat="44.7586" lon="7.8581917"><ele>384.0</ele><time>2026-04-11T08:19:19.06Z</time></trkpt><trkpt lat="44.758555" lon="7.858315"><ele>383.79999999999995</ele><time>2026-04-11T08:19:21.061Z</time></trkpt><trkpt lat="44.7585117" lon="7.858445"><ele>383.59999999999997</ele><time>2026-04-11T08:19:23.059Z</time></trkpt><trkpt lat="44.7584667" lon="7.858575"><ele>383.4</ele><time>2026-04-11T08:19:25.061Z</time></trkpt><trkpt lat="44.7584217" lon="7.8587017"><ele>383.2</ele><time>2026-04-11T08:19:27.06Z</time></trkpt><trkpt lat="44.75837" lon="7.8588267"><ele>383.0</ele><time>2026-04-11T08:19:29.06Z</time></trkpt><trkpt lat="44.7583283" lon="7.8589517"><ele>383.4</ele><time>2026-04-11T08:19:31.061Z</time></trkpt><trkpt lat="44.758285" lon="7.8590717"><ele>383.79999999999995</ele><time>2026-04-11T08:19:33.06Z</time></trkpt><trkpt lat="44.7582433" lon="7.8592017"><ele>384.2</ele><time>2026-04-11T08:19:35.058Z</time></trkpt><trkpt lat="44.758195" lon="7.85933"><ele>384.6</ele><time>2026-04-11T08:19:37.06Z</time></trkpt><trkpt lat="44.758155" lon="7.8594583"><ele>385.0</ele><time>2026-04-11T08:19:39.061Z</time></trkpt><trkpt lat="44.7581117" lon="7.859585"><ele>385.0</ele><time>2026-04-11T08:19:41.06Z</time></trkpt><trkpt lat="44.7580667" lon="7.8597083"><ele>385.0</ele><time>2026-04-11T08:19:43.06Z</time></trkpt><trkpt lat="44.758025" lon="7.8598333"><ele>385.0</ele><time>2026-04-11T08:19:45.06Z</time></trkpt><trkpt lat="44.7579717" lon="7.85996"><ele>385.0</ele><time>2026-04-11T08:19:47.059Z</time></trkpt><trkpt lat="44.7579083" lon="7.860075"><ele>385.0</ele><time>2026-04-11T08:19:49.062Z</time></trkpt><trkpt lat="44.7578383" lon="7.86019"><ele>385.6</ele><time>2026-04-11T08:19:51.06Z</time></trkpt><trkpt lat="44.75777" lon="7.8603083"><ele>386.2</ele><time>2026-04-11T08:19:53.058Z</time></trkpt><trkpt lat="44.7577033" lon="7.8604217"><ele>386.79999999999995</ele><time>2026-04-11T08:19:55.06Z</time></trkpt><trkpt lat="44.7576233" lon="7.8605233"><ele>387.4</ele><time>2026-04-11T08:19:57.06Z</time></trkpt><trkpt lat="44.75753" lon="7.8606083"><ele>388.0</ele><time>2026-04-11T08:19:59.061Z</time></trkpt><trkpt lat="44.7574417" lon="7.8606933"><ele>388.0</ele><time>2026-04-11T08:20:01.063Z</time></trkpt><trkpt lat="44.757355" lon="7.8607683"><ele>388.0</ele><time>2026-04-11T08:20:03.061Z</time></trkpt><trkpt lat="44.7572567" lon="7.8608217"><ele>388.0</ele><time>2026-04-11T08:20:05.061Z</time></trkpt><trkpt lat="44.75716" lon="7.86087"><ele>388.0</ele><time>2026-04-11T08:20:07.059Z</time></trkpt><trkpt lat="44.7570667" lon="7.8608983"><ele>388.0</ele><time>2026-04-11T08:20:09.06Z</time></trkpt><trkpt lat="44.756985" lon="7.8609183"><ele>388.00000000000006</ele><time>2026-04-11T08:20:11.06Z</time></trkpt><trkpt lat="44.7569083" lon="7.860935"><ele>388.0</ele><time>2026-04-11T08:20:13.06Z</time></trkpt><trkpt lat="44.7568383" lon="7.860945"><ele>388.0</ele><time>2026-04-11T08:20:15.06Z</time></trkpt><trkpt lat="44.75675" lon="7.8609533"><ele>388.0</ele><time>2026-04-11T08:20:17.058Z</time></trkpt><trkpt lat="44.7566583" lon="7.8609717"><ele>388.00000000000006</ele><time>2026-04-11T08:20:19.062Z</time></trkpt><trkpt lat="44.7565633" lon="7.860985"><ele>388.0</ele><time>2026-04-11T08:20:21.06Z</time></trkpt><trkpt lat="44.7564567" lon="7.861005"><ele>388.2</ele><time>2026-04-11T08:20:23.06Z</time></trkpt><trkpt lat="44.7563517" lon="7.8610467"><ele>388.4</ele><time>2026-04-11T08:20:25.06Z</time></trkpt><trkpt lat="44.7562567" lon="7.8611"><ele>388.59999999999997</ele><time>2026-04-11T08:20:27.059Z</time></trkpt><trkpt lat="44.756165" lon="7.8611833"><ele>388.79999999999995</ele><time>2026-04-11T08:20:29.062Z</time></trkpt><trkpt lat="44.7560667" lon="7.861245"><ele>389.0</ele><time>2026-04-11T08:20:31.06Z</time></trkpt><trkpt lat="44.7559583" lon="7.8612817"><ele>389.0</ele><time>2026-04-11T08:20:33.061Z</time></trkpt><trkpt lat="44.75585" lon="7.8613183"><ele>389.0</ele><time>2026-04-11T08:20:35.059Z</time></trkpt><trkpt lat="44.755745" lon="7.8613483"><ele>389.0</ele><time>2026-04-11T08:20:37.062Z</time></trkpt><trkpt lat="44.755645" lon="7.8613917"><ele>389.0</ele><time>2026-04-11T08:20:39.059Z</time></trkpt><trkpt lat="44.7555483" lon="7.8614433"><ele>389.0</ele><time>2026-04-11T08:20:41.059Z</time></trkpt><trkpt lat="44.7554617" lon="7.8615333"><ele>389.0</ele><time>2026-04-11T08:20:43.06Z</time></trkpt><trkpt lat="44.7553767" lon="7.8616283"><ele>389.0</ele><time>2026-04-11T08:20:45.063Z</time></trkpt><trkpt lat="44.7552867" lon="7.8617233"><ele>389.0</ele><time>2026-04-11T08:20:47.059Z</time></trkpt><trkpt lat="44.7551917" lon="7.86182"><ele>389.0</ele><time>2026-04-11T08:20:49.059Z</time></trkpt><trkpt lat="44.7550983" lon="7.8619083"><ele>389.5</ele><time>2026-04-11T08:20:51.061Z</time></trkpt><trkpt lat="44.75501" lon="7.8620017"><ele>390.0</ele><time>2026-04-11T08:20:53.059Z</time></trkpt><trkpt lat="44.7549183" lon="7.8621"><ele>390.5</ele><time>2026-04-11T08:20:55.061Z</time></trkpt><trkpt lat="44.7548317" lon="7.8622167"><ele>391.0</ele><time>2026-04-11T08:20:57.06Z</time></trkpt><trkpt lat="44.75475" lon="7.8623367"><ele>391.0</ele><time>2026-04-11T08:20:59.059Z</time></trkpt><trkpt lat="44.7546667" lon="7.8624433"><ele>391.0</ele><time>2026-04-11T08:21:01.061Z</time></trkpt><trkpt lat="44.7545667" lon="7.86253"><ele>391.0</ele><time>2026-04-11T08:21:03.06Z</time></trkpt><trkpt lat="44.75448" lon="7.8626283"><ele>391.0</ele><time>2026-04-11T08:21:05.06Z</time></trkpt><trkpt lat="44.7544017" lon="7.8627267"><ele>391.0</ele><time>2026-04-11T08:21:07.06Z</time></trkpt><trkpt lat="44.754325" lon="7.8628267"><ele>392.25</ele><time>2026-04-11T08:21:09.061Z</time></trkpt><trkpt lat="44.7542533" lon="7.8629367"><ele>393.5</ele><time>2026-04-11T08:21:11.06Z</time></trkpt><trkpt lat="44.7541767" lon="7.863055"><ele>394.75</ele><time>2026-04-11T08:21:13.061Z</time></trkpt><trkpt lat="44.7540933" lon="7.8631717"><ele>396.0</ele><time>2026-04-11T08:21:15.062Z</time></trkpt><trkpt lat="44.7540233" lon="7.8632983"><ele>396.0</ele><time>2026-04-11T08:21:17.06Z</time></trkpt><trkpt lat="44.753965" lon="7.8634167"><ele>396.0</ele><time>2026-04-11T08:21:19.061Z</time></trkpt><trkpt lat="44.7538933" lon="7.8635033"><ele>396.0</ele><time>2026-04-11T08:21:21.062Z</time></trkpt><trkpt lat="44.7538233" lon="7.8636033"><ele>396.0</ele><time>2026-04-11T08:21:23.058Z</time></trkpt><trkpt lat="44.7537717" lon="7.8637233"><ele>396.0</ele><time>2026-04-11T08:21:25.061Z</time></trkpt><trkpt lat="44.753735" lon="7.8638667"><ele>395.4</ele><time>2026-04-11T08:21:27.062Z</time></trkpt><trkpt lat="44.75371" lon="7.86404"><ele>394.8</ele><time>2026-04-11T08:21:29.06Z</time></trkpt><trkpt lat="44.7537117" lon="7.86413"><ele>394.2</ele><time>2026-04-11T08:21:30.062Z</time></trkpt><trkpt lat="44.7537617" lon="7.864295"><ele>393.59999999999997</ele><time>2026-04-11T08:21:32.062Z</time></trkpt><trkpt lat="44.7537933" lon="7.8643817"><ele>393.0</ele><time>2026-04-11T08:21:33.062Z</time></trkpt><trkpt lat="44.7538167" lon="7.86447"><ele>391.5714285714286</ele><time>2026-04-11T08:21:34.061Z</time></trkpt><trkpt lat="44.7538217" lon="7.8645617"><ele>390.14285714285717</ele><time>2026-04-11T08:21:35.06Z</time></trkpt><trkpt lat="44.753805" lon="7.86466"><ele>388.7142857142857</ele><time>2026-04-11T08:21:36.061Z</time></trkpt><trkpt lat="44.7537717" lon="7.8647533"><ele>387.28571428571433</ele><time>2026-04-11T08:21:37.06Z</time></trkpt><trkpt lat="44.7537283" lon="7.8648383"><ele>385.85714285714283</ele><time>2026-04-11T08:21:38.061Z</time></trkpt><trkpt lat="44.75369" lon="7.8649283"><ele>384.42857142857144</ele><time>2026-04-11T08:21:39.062Z</time></trkpt><trkpt lat="44.7536667" lon="7.8650317"><ele>383.0</ele><time>2026-04-11T08:21:40.062Z</time></trkpt><trkpt lat="44.7536617" lon="7.8651367"><ele>382.1666666666667</ele><time>2026-04-11T08:21:41.06Z</time></trkpt><trkpt lat="44.7536683" lon="7.8652317"><ele>381.33333333333337</ele><time>2026-04-11T08:21:42.06Z</time></trkpt><trkpt lat="44.75369" lon="7.8653283"><ele>380.5</ele><time>2026-04-11T08:21:43.06Z</time></trkpt><trkpt lat="44.7537167" lon="7.8654217"><ele>379.6666666666667</ele><time>2026-04-11T08:21:44.061Z</time></trkpt><trkpt lat="44.7537517" lon="7.8655183"><ele>378.8333333333333</ele><time>2026-04-11T08:21:45.062Z</time></trkpt><trkpt lat="44.75378" lon="7.865625"><ele>378.0</ele><time>2026-04-11T08:21:46.061Z</time></trkpt><trkpt lat="44.7537917" lon="7.86574"><ele>378.0</ele><time>2026-04-11T08:21:47.059Z</time></trkpt><trkpt lat="44.75379" lon="7.8658667"><ele>378.0</ele><time>2026-04-11T08:21:48.061Z</time></trkpt><trkpt lat="44.7537983" lon="7.8659817"><ele>378.0</ele><time>2026-04-11T08:21:49.061Z</time></trkpt><trkpt lat="44.753805" lon="7.8660867"><ele>378.0</ele><time>2026-04-11T08:21:50.06Z</time></trkpt><trkpt lat="44.753805" lon="7.86619"><ele>378.0</ele><time>2026-04-11T08:21:51.063Z</time></trkpt><trkpt lat="44.7537883" lon="7.8662883"><ele>378.0</ele><time>2026-04-11T08:21:52.061Z</time></trkpt><trkpt lat="44.7537583" lon="7.86638"><ele>377.42857142857144</ele><time>2026-04-11T08:21:53.061Z</time></trkpt><trkpt lat="44.7537133" lon="7.8664667"><ele>376.8571428571429</ele><time>2026-04-11T08:21:54.06Z</time></trkpt><trkpt lat="44.75366" lon="7.86653"><ele>376.2857142857143</ele><time>2026-04-11T08:21:55.059Z</time></trkpt><trkpt lat="44.7536" lon="7.8665933"><ele>375.7142857142857</ele><time>2026-04-11T08:21:56.062Z</time></trkpt><trkpt lat="44.7535383" lon="7.8666417"><ele>375.14285714285717</ele><time>2026-04-11T08:21:57.061Z</time></trkpt><trkpt lat="44.7534683" lon="7.8666617"><ele>374.57142857142856</ele><time>2026-04-11T08:21:58.063Z</time></trkpt><trkpt lat="44.7533933" lon="7.866655"><ele>374.0</ele><time>2026-04-11T08:21:59.061Z</time></trkpt><trkpt lat="44.7533267" lon="7.8666333"><ele>373.5</ele><time>2026-04-11T08:22:00.062Z</time></trkpt><trkpt lat="44.7532717" lon="7.8665883"><ele>373.0</ele><time>2026-04-11T08:22:01.06Z</time></trkpt><trkpt lat="44.7531967" lon="7.866555"><ele>372.5</ele><time>2026-04-11T08:22:03.061Z</time></trkpt><trkpt lat="44.75315" lon="7.86663"><ele>372.0</ele><time>2026-04-11T08:22:05.059Z</time></trkpt><trkpt lat="44.7531483" lon="7.8667667"><ele>371.5</ele><time>2026-04-11T08:22:07.059Z</time></trkpt><trkpt lat="44.7531267" lon="7.8669333"><ele>371.0</ele><time>2026-04-11T08:22:09.061Z</time></trkpt><trkpt lat="44.7531017" lon="7.867025"><ele>370.42857142857144</ele><time>2026-04-11T08:22:10.061Z</time></trkpt><trkpt lat="44.7530767" lon="7.8671183"><ele>369.8571428571429</ele><time>2026-04-11T08:22:11.06Z</time></trkpt><trkpt lat="44.7530567" lon="7.867215"><ele>369.2857142857143</ele><time>2026-04-11T08:22:12.061Z</time></trkpt><trkpt lat="44.7530383" lon="7.8673117"><ele>368.7142857142857</ele><time>2026-04-11T08:22:13.061Z</time></trkpt><trkpt lat="44.7530283" lon="7.8674083"><ele>368.14285714285717</ele><time>2026-04-11T08:22:14.061Z</time></trkpt><trkpt lat="44.7530283" lon="7.8675117"><ele>367.57142857142856</ele><time>2026-04-11T08:22:15.061Z</time></trkpt><trkpt lat="44.75304" lon="7.8676167"><ele>367.0</ele><time>2026-04-11T08:22:16.058Z</time></trkpt><trkpt lat="44.7530633" lon="7.8677217"><ele>366.3333333333333</ele><time>2026-04-11T08:22:17.06Z</time></trkpt><trkpt lat="44.7530967" lon="7.867825"><ele>365.66666666666663</ele><time>2026-04-11T08:22:18.059Z</time></trkpt><trkpt lat="44.75314" lon="7.867915"><ele>365.0</ele><time>2026-04-11T08:22:19.06Z</time></trkpt><trkpt lat="44.7531883" lon="7.8679983"><ele>364.3333333333333</ele><time>2026-04-11T08:22:20.061Z</time></trkpt><trkpt lat="44.7532217" lon="7.8680933"><ele>363.6666666666667</ele><time>2026-04-11T08:22:21.061Z</time></trkpt><trkpt lat="44.7532433" lon="7.8682017"><ele>363.0</ele><time>2026-04-11T08:22:22.06Z</time></trkpt><trkpt lat="44.753255" lon="7.8683117"><ele>363.0</ele><time>2026-04-11T08:22:23.061Z</time></trkpt><trkpt lat="44.753265" lon="7.8684167"><ele>363.0</ele><time>2026-04-11T08:22:24.061Z</time></trkpt><trkpt lat="44.7532817" lon="7.8685233"><ele>363.0</ele><time>2026-04-11T08:22:25.06Z</time></trkpt><trkpt lat="44.7532983" lon="7.868635"><ele>363.0</ele><time>2026-04-11T08:22:26.062Z</time></trkpt><trkpt lat="44.7533017" lon="7.86875"><ele>363.0</ele><time>2026-04-11T08:22:27.061Z</time></trkpt><trkpt lat="44.7532933" lon="7.868865"><ele>363.0</ele><time>2026-04-11T08:22:28.059Z</time></trkpt><trkpt lat="44.7532717" lon="7.8689783"><ele>361.8333333333333</ele><time>2026-04-11T08:22:29.061Z</time></trkpt><trkpt lat="44.753255" lon="7.8690917"><ele>360.6666666666667</ele><time>2026-04-11T08:22:30.061Z</time></trkpt><trkpt lat="44.7532467" lon="7.8692033"><ele>359.5</ele><time>2026-04-11T08:22:31.061Z</time></trkpt><trkpt lat="44.7532417" lon="7.8693133"><ele>358.33333333333337</ele><time>2026-04-11T08:22:32.061Z</time></trkpt><trkpt lat="44.7532383" lon="7.8694233"><ele>357.1666666666667</ele><time>2026-04-11T08:22:33.061Z</time></trkpt><trkpt lat="44.7532433" lon="7.8695333"><ele>356.0</ele><time>2026-04-11T08:22:34.06Z</time></trkpt><trkpt lat="44.7532483" lon="7.8696383"><ele>355.0</ele><time>2026-04-11T08:22:35.061Z</time></trkpt><trkpt lat="44.7532517" lon="7.86974"><ele>354.0</ele><time>2026-04-11T08:22:36.061Z</time></trkpt><trkpt lat="44.753245" lon="7.8698333"><ele>353.0</ele><time>2026-04-11T08:22:37.061Z</time></trkpt><trkpt lat="44.7532" lon="7.869975"><ele>352.0</ele><time>2026-04-11T08:22:39.061Z</time></trkpt><trkpt lat="44.7530967" lon="7.8700233"><ele>351.0</ele><time>2026-04-11T08:22:41.061Z</time></trkpt><trkpt lat="44.7530333" lon="7.870035"><ele>350.0</ele><time>2026-04-11T08:22:42.059Z</time></trkpt><trkpt lat="44.75293" lon="7.870125"><ele>349.4</ele><time>2026-04-11T08:22:44.061Z</time></trkpt><trkpt lat="44.75288" lon="7.8702767"><ele>348.8</ele><time>2026-04-11T08:22:46.061Z</time></trkpt><trkpt lat="44.7528517" lon="7.870455"><ele>348.20000000000005</ele><time>2026-04-11T08:22:48.059Z</time></trkpt><trkpt lat="44.75284" lon="7.87055"><ele>347.6</ele><time>2026-04-11T08:22:49.06Z</time></trkpt><trkpt lat="44.752825" lon="7.87064"><ele>347.0</ele><time>2026-04-11T08:22:50.06Z</time></trkpt><trkpt lat="44.752785" lon="7.8708017"><ele>347.83333333333337</ele><time>2026-04-11T08:22:52.061Z</time></trkpt><trkpt lat="44.7527333" lon="7.8709567"><ele>348.6666666666667</ele><time>2026-04-11T08:22:54.059Z</time></trkpt><trkpt lat="44.7526683" lon="7.8711133"><ele>349.5</ele><time>2026-04-11T08:22:56.061Z</time></trkpt><trkpt lat="44.7526417" lon="7.8711967"><ele>350.3333333333333</ele><time>2026-04-11T08:22:57.06Z</time></trkpt><trkpt lat="44.7526083" lon="7.8712767"><ele>351.16666666666663</ele><time>2026-04-11T08:22:58.059Z</time></trkpt><trkpt lat="44.7525683" lon="7.87135"><ele>352.0</ele><time>2026-04-11T08:22:59.061Z</time></trkpt><trkpt lat="44.7525267" lon="7.8714167"><ele>352.0</ele><time>2026-04-11T08:23:00.061Z</time></trkpt><trkpt lat="44.75248" lon="7.8714767"><ele>352.0</ele><time>2026-04-11T08:23:01.061Z</time></trkpt><trkpt lat="44.752435" lon="7.8715483"><ele>352.0</ele><time>2026-04-11T08:23:02.059Z</time></trkpt><trkpt lat="44.752395" lon="7.871625"><ele>352.0</ele><time>2026-04-11T08:23:03.061Z</time></trkpt><trkpt lat="44.75236" lon="7.87171"><ele>352.0</ele><time>2026-04-11T08:23:04.062Z</time></trkpt><trkpt lat="44.75234" lon="7.8717967"><ele>352.0</ele><time>2026-04-11T08:23:05.059Z</time></trkpt><trkpt lat="44.7523233" lon="7.8718883"><ele>352.0</ele><time>2026-04-11T08:23:06.059Z</time></trkpt><trkpt lat="44.7523017" lon="7.8719833"><ele>352.0</ele><time>2026-04-11T08:23:07.061Z</time></trkpt><trkpt lat="44.7522783" lon="7.8720733"><ele>352.0</ele><time>2026-04-11T08:23:08.061Z</time></trkpt><trkpt lat="44.752255" lon="7.87216"><ele>352.0</ele><time>2026-04-11T08:23:09.059Z</time></trkpt><trkpt lat="44.75223" lon="7.8722433"><ele>352.0</ele><time>2026-04-11T08:23:10.06Z</time></trkpt><trkpt lat="44.752195" lon="7.872325"><ele>352.0</ele><time>2026-04-11T08:23:11.059Z</time></trkpt><trkpt lat="44.752155" lon="7.8724"><ele>352.0</ele><time>2026-04-11T08:23:12.06Z</time></trkpt><trkpt lat="44.7520817" lon="7.8725433"><ele>352.40000000000003</ele><time>2026-04-11T08:23:14.058Z</time></trkpt><trkpt lat="44.75202" lon="7.8726967"><ele>352.8</ele><time>2026-04-11T08:23:16.06Z</time></trkpt><trkpt lat="44.7519617" lon="7.87285"><ele>353.2</ele><time>2026-04-11T08:23:18.06Z</time></trkpt><trkpt lat="44.7519" lon="7.8729983"><ele>353.6</ele><time>2026-04-11T08:23:20.062Z</time></trkpt><trkpt lat="44.751865" lon="7.8730733"><ele>354.0</ele><time>2026-04-11T08:23:21.061Z</time></trkpt><trkpt lat="44.7518283" lon="7.8731467"><ele>354.0</ele><time>2026-04-11T08:23:22.06Z</time></trkpt><trkpt lat="44.7517617" lon="7.8732883"><ele>354.0</ele><time>2026-04-11T08:23:24.06Z</time></trkpt><trkpt lat="44.7516917" lon="7.8734233"><ele>354.0</ele><time>2026-04-11T08:23:26.059Z</time></trkpt><trkpt lat="44.751615" lon="7.8735483"><ele>354.0</ele><time>2026-04-11T08:23:28.058Z</time></trkpt><trkpt lat="44.751535" lon="7.87367"><ele>353.5</ele><time>2026-04-11T08:23:30.061Z</time></trkpt><trkpt lat="44.75144" lon="7.87377"><ele>353.0</ele><time>2026-04-11T08:23:32.059Z</time></trkpt><trkpt lat="44.7513517" lon="7.87387"><ele>352.5</ele><time>2026-04-11T08:23:34.06Z</time></trkpt><trkpt lat="44.7512583" lon="7.8739717"><ele>352.0</ele><time>2026-04-11T08:23:36.062Z</time></trkpt><trkpt lat="44.751165" lon="7.8740833"><ele>352.0</ele><time>2026-04-11T08:23:38.061Z</time></trkpt><trkpt lat="44.751075" lon="7.8741933"><ele>352.0</ele><time>2026-04-11T08:23:40.061Z</time></trkpt><trkpt lat="44.7509867" lon="7.8743067"><ele>352.0</ele><time>2026-04-11T08:23:42.059Z</time></trkpt><trkpt lat="44.7508983" lon="7.8744217"><ele>352.0</ele><time>2026-04-11T08:23:44.06Z</time></trkpt><trkpt lat="44.7508517" lon="7.8744817"><ele>352.0</ele><time>2026-04-11T08:23:45.061Z</time></trkpt><trkpt lat="44.7507567" lon="7.8745967"><ele>352.75</ele><time>2026-04-11T08:23:47.06Z</time></trkpt><trkpt lat="44.750655" lon="7.8746967"><ele>353.5</ele><time>2026-04-11T08:23:49.06Z</time></trkpt><trkpt lat="44.7505567" lon="7.874795"><ele>354.25</ele><time>2026-04-11T08:23:51.061Z</time></trkpt><trkpt lat="44.7504517" lon="7.8748833"><ele>355.0</ele><time>2026-04-11T08:23:53.061Z</time></trkpt><trkpt lat="44.7503483" lon="7.8749717"><ele>355.0</ele><time>2026-04-11T08:23:55.061Z</time></trkpt><trkpt lat="44.7502933" lon="7.87502"><ele>355.0</ele><time>2026-04-11T08:23:56.061Z</time></trkpt><trkpt lat="44.75024" lon="7.875075"><ele>355.0</ele><time>2026-04-11T08:23:57.06Z</time></trkpt><trkpt lat="44.7501917" lon="7.8751383"><ele>355.0</ele><time>2026-04-11T08:23:58.06Z</time></trkpt><trkpt lat="44.7501483" lon="7.8752067"><ele>355.0</ele><time>2026-04-11T08:23:59.06Z</time></trkpt><trkpt lat="44.750105" lon="7.875285"><ele>355.0</ele><time>2026-04-11T08:24:00.06Z</time></trkpt><trkpt lat="44.7500667" lon="7.8753617"><ele>355.0</ele><time>2026-04-11T08:24:01.062Z</time></trkpt><trkpt lat="44.7500333" lon="7.875445"><ele>355.5</ele><time>2026-04-11T08:24:02.067Z</time></trkpt><trkpt lat="44.7499967" lon="7.875615"><ele>356.0</ele><time>2026-04-11T08:24:04.06Z</time></trkpt><trkpt lat="44.7499867" lon="7.87571"><ele>356.5</ele><time>2026-04-11T08:24:05.06Z</time></trkpt><trkpt lat="44.7499817" lon="7.875805"><ele>357.0</ele><time>2026-04-11T08:24:06.06Z</time></trkpt><trkpt lat="44.7499783" lon="7.8759017"><ele>357.5</ele><time>2026-04-11T08:24:07.06Z</time></trkpt><trkpt lat="44.749965" lon="7.8759983"><ele>358.0</ele><time>2026-04-11T08:24:08.06Z</time></trkpt><trkpt lat="44.7499517" lon="7.8760933"><ele>358.00000000000006</ele><time>2026-04-11T08:24:09.061Z</time></trkpt><trkpt lat="44.7499333" lon="7.8761883"><ele>358.0</ele><time>2026-04-11T08:24:10.06Z</time></trkpt><trkpt lat="44.7499117" lon="7.8762833"><ele>358.0</ele><time>2026-04-11T08:24:11.06Z</time></trkpt><trkpt lat="44.74989" lon="7.8763767"><ele>358.0</ele><time>2026-04-11T08:24:12.059Z</time></trkpt><trkpt lat="44.7498683" lon="7.8764683"><ele>358.0</ele><time>2026-04-11T08:24:13.062Z</time></trkpt><trkpt lat="44.7498483" lon="7.8765617"><ele>358.00000000000006</ele><time>2026-04-11T08:24:14.06Z</time></trkpt><trkpt lat="44.749825" lon="7.8766517"><ele>358.0</ele><time>2026-04-11T08:24:15.061Z</time></trkpt><trkpt lat="44.7498067" lon="7.87674"><ele>359.4</ele><time>2026-04-11T08:24:16.06Z</time></trkpt><trkpt lat="44.749785" lon="7.87683"><ele>360.79999999999995</ele><time>2026-04-11T08:24:17.059Z</time></trkpt><trkpt lat="44.7497433" lon="7.8770017"><ele>362.2</ele><time>2026-04-11T08:24:19.062Z</time></trkpt><trkpt lat="44.7497183" lon="7.8770867"><ele>363.6</ele><time>2026-04-11T08:24:20.062Z</time></trkpt><trkpt lat="44.7496733" lon="7.87724"><ele>365.0</ele><time>2026-04-11T08:24:22.06Z</time></trkpt><trkpt lat="44.7496233" lon="7.8773883"><ele>365.00000000000006</ele><time>2026-04-11T08:24:24.06Z</time></trkpt><trkpt lat="44.7495633" lon="7.8775383"><ele>365.0</ele><time>2026-04-11T08:24:26.06Z</time></trkpt><trkpt lat="44.7495317" lon="7.877615"><ele>365.0</ele><time>2026-04-11T08:24:27.061Z</time></trkpt><trkpt lat="44.7494983" lon="7.8776967"><ele>365.0</ele><time>2026-04-11T08:24:28.06Z</time></trkpt><trkpt lat="44.7494633" lon="7.8777767"><ele>365.0</ele><time>2026-04-11T08:24:29.06Z</time></trkpt><trkpt lat="44.7494367" lon="7.8778617"><ele>365.00000000000006</ele><time>2026-04-11T08:24:30.059Z</time></trkpt><trkpt lat="44.7494283" lon="7.8779517"><ele>365.0</ele><time>2026-04-11T08:24:31.062Z</time></trkpt><trkpt lat="44.7494433" lon="7.8780417"><ele>366.0</ele><time>2026-04-11T08:24:32.06Z</time></trkpt><trkpt lat="44.7494683" lon="7.8781283"><ele>367.0</ele><time>2026-04-11T08:24:33.06Z</time></trkpt><trkpt lat="44.7494933" lon="7.87821"><ele>368.0</ele><time>2026-04-11T08:24:34.059Z</time></trkpt><trkpt lat="44.7495417" lon="7.8783667"><ele>369.0</ele><time>2026-04-11T08:24:36.06Z</time></trkpt><trkpt lat="44.7495617" lon="7.8785417"><ele>370.0</ele><time>2026-04-11T08:24:38.06Z</time></trkpt><trkpt lat="44.7495633" lon="7.8787183"><ele>370.4</ele><time>2026-04-11T08:24:40.062Z</time></trkpt><trkpt lat="44.7495417" lon="7.8788883"><ele>370.8</ele><time>2026-04-11T08:24:42.061Z</time></trkpt><trkpt lat="44.7495267" lon="7.8789783"><ele>371.20000000000005</ele><time>2026-04-11T08:24:43.06Z</time></trkpt><trkpt lat="44.7495067" lon="7.8791483"><ele>371.6</ele><time>2026-04-11T08:24:45.059Z</time></trkpt><trkpt lat="44.749485" lon="7.8793217"><ele>372.0</ele><time>2026-04-11T08:24:47.059Z</time></trkpt><trkpt lat="44.74947" lon="7.87949"><ele>372.25</ele><time>2026-04-11T08:24:49.06Z</time></trkpt><trkpt lat="44.7494633" lon="7.8796667"><ele>372.5</ele><time>2026-04-11T08:24:51.061Z</time></trkpt><trkpt lat="44.749455" lon="7.87984"><ele>372.75</ele><time>2026-04-11T08:24:53.06Z</time></trkpt><trkpt lat="44.74945" lon="7.8800083"><ele>373.0</ele><time>2026-04-11T08:24:55.062Z</time></trkpt><trkpt lat="44.7494483" lon="7.88018"><ele>372.25</ele><time>2026-04-11T08:24:57.06Z</time></trkpt><trkpt lat="44.7494467" lon="7.880345"><ele>371.5</ele><time>2026-04-11T08:24:59.059Z</time></trkpt><trkpt lat="44.7494517" lon="7.8805083"><ele>370.75</ele><time>2026-04-11T08:25:01.061Z</time></trkpt><trkpt lat="44.74945" lon="7.8806683"><ele>370.0</ele><time>2026-04-11T08:25:03.062Z</time></trkpt><trkpt lat="44.74944" lon="7.8808217"><ele>369.6</ele><time>2026-04-11T08:25:05.06Z</time></trkpt><trkpt lat="44.7494083" lon="7.8809717"><ele>369.2</ele><time>2026-04-11T08:25:07.059Z</time></trkpt><trkpt lat="44.7493617" lon="7.88111"><ele>368.79999999999995</ele><time>2026-04-11T08:25:09.06Z</time></trkpt><trkpt lat="44.749315" lon="7.881245"><ele>368.4</ele><time>2026-04-11T08:25:11.06Z</time></trkpt><trkpt lat="44.74926" lon="7.8813683"><ele>368.0</ele><time>2026-04-11T08:25:13.062Z</time></trkpt><trkpt lat="44.7492067" lon="7.8815017"><ele>368.0</ele><time>2026-04-11T08:25:15.06Z</time></trkpt><trkpt lat="44.74915" lon="7.8816333"><ele>368.0</ele><time>2026-04-11T08:25:17.059Z</time></trkpt><trkpt lat="44.7491083" lon="7.8817667"><ele>368.0</ele><time>2026-04-11T08:25:19.06Z</time></trkpt><trkpt lat="44.7490667" lon="7.881895"><ele>368.0</ele><time>2026-04-11T08:25:21.061Z</time></trkpt><trkpt lat="44.7490167" lon="7.88201"><ele>368.0</ele><time>2026-04-11T08:25:23.058Z</time></trkpt><trkpt lat="44.74895" lon="7.8821067"><ele>369.59999999999997</ele><time>2026-04-11T08:25:25.062Z</time></trkpt><trkpt lat="44.7488717" lon="7.8822"><ele>371.2</ele><time>2026-04-11T08:25:27.061Z</time></trkpt><trkpt lat="44.748795" lon="7.8822733"><ele>372.8</ele><time>2026-04-11T08:25:29.06Z</time></trkpt><trkpt lat="44.7487133" lon="7.8823433"><ele>374.4</ele><time>2026-04-11T08:25:31.06Z</time></trkpt><trkpt lat="44.7486317" lon="7.8824117"><ele>376.0</ele><time>2026-04-11T08:25:33.061Z</time></trkpt><trkpt lat="44.7485567" lon="7.88249"><ele>376.6</ele><time>2026-04-11T08:25:35.058Z</time></trkpt><trkpt lat="44.7484817" lon="7.8825717"><ele>377.20000000000005</ele><time>2026-04-11T08:25:37.061Z</time></trkpt><trkpt lat="44.7484083" lon="7.8826533"><ele>377.79999999999995</ele><time>2026-04-11T08:25:39.061Z</time></trkpt><trkpt lat="44.74834" lon="7.882745"><ele>378.4</ele><time>2026-04-11T08:25:41.059Z</time></trkpt><trkpt lat="44.7482733" lon="7.8828417"><ele>379.0</ele><time>2026-04-11T08:25:43.06Z</time></trkpt><trkpt lat="44.7482183" lon="7.8829433"><ele>379.0</ele><time>2026-04-11T08:25:45.061Z</time></trkpt><trkpt lat="44.7481783" lon="7.8830517"><ele>379.0</ele><time>2026-04-11T08:25:47.06Z</time></trkpt><trkpt lat="44.7481383" lon="7.8831667"><ele>379.0</ele><time>2026-04-11T08:25:49.059Z</time></trkpt><trkpt lat="44.7480983" lon="7.8832833"><ele>379.0</ele><time>2026-04-11T08:25:51.059Z</time></trkpt><trkpt lat="44.74807" lon="7.8833983"><ele>379.0</ele><time>2026-04-11T08:25:53.06Z</time></trkpt><trkpt lat="44.74804" lon="7.8835067"><ele>379.0</ele><time>2026-04-11T08:25:55.06Z</time></trkpt><trkpt lat="44.7480083" lon="7.8836083"><ele>381.0</ele><time>2026-04-11T08:25:57.06Z</time></trkpt><trkpt lat="44.7479783" lon="7.8837"><ele>383.0</ele><time>2026-04-11T08:25:59.06Z</time></trkpt><trkpt lat="44.7479383" lon="7.883815"><ele>385.0</ele><time>2026-04-11T08:26:02.059Z</time></trkpt><trkpt lat="44.7479083" lon="7.88393"><ele>387.0</ele><time>2026-04-11T08:26:05.06Z</time></trkpt><trkpt lat="44.7478633" lon="7.88403"><ele>389.00000000000006</ele><time>2026-04-11T08:26:08.061Z</time></trkpt><trkpt lat="44.7478067" lon="7.88411"><ele>391.0</ele><time>2026-04-11T08:26:11.059Z</time></trkpt><trkpt lat="44.7477583" lon="7.884185"><ele>391.1428571428571</ele><time>2026-04-11T08:26:14.06Z</time></trkpt><trkpt lat="44.7477183" lon="7.884265"><ele>391.2857142857143</ele><time>2026-04-11T08:26:17.058Z</time></trkpt><trkpt lat="44.7476767" lon="7.8843383"><ele>391.42857142857144</ele><time>2026-04-11T08:26:20.06Z</time></trkpt><trkpt lat="44.747635" lon="7.8844317"><ele>391.57142857142856</ele><time>2026-04-11T08:26:23.06Z</time></trkpt><trkpt lat="44.7476017" lon="7.884525"><ele>391.7142857142857</ele><time>2026-04-11T08:26:26.059Z</time></trkpt><trkpt lat="44.74756" lon="7.8846083"><ele>391.85714285714283</ele><time>2026-04-11T08:26:29.059Z</time></trkpt><trkpt lat="44.747525" lon="7.884705"><ele>392.0</ele><time>2026-04-11T08:26:32.059Z</time></trkpt><trkpt lat="44.7474933" lon="7.8847933"><ele>391.99999999999994</ele><time>2026-04-11T08:26:35.058Z</time></trkpt><trkpt lat="44.74745" lon="7.8848767"><ele>392.0</ele><time>2026-04-11T08:26:38.06Z</time></trkpt><trkpt lat="44.7473883" lon="7.8849383"><ele>392.0</ele><time>2026-04-11T08:26:41.06Z</time></trkpt><trkpt lat="44.7473167" lon="7.88498"><ele>392.0</ele><time>2026-04-11T08:26:44.059Z</time></trkpt><trkpt lat="44.74724" lon="7.88498"><ele>391.99999999999994</ele><time>2026-04-11T08:26:47.059Z</time></trkpt><trkpt lat="44.747165" lon="7.884995"><ele>392.0</ele><time>2026-04-11T08:26:50.06Z</time></trkpt><trkpt lat="44.74709" lon="7.884985"><ele>391.99999999999994</ele><time>2026-04-11T08:26:53.06Z</time></trkpt><trkpt lat="44.74701" lon="7.8849983"><ele>392.0</ele><time>2026-04-11T08:26:56.059Z</time></trkpt><trkpt lat="44.7469317" lon="7.88505"><ele>392.0</ele><time>2026-04-11T08:26:59.059Z</time></trkpt><trkpt lat="44.7468733" lon="7.8851267"><ele>392.0</ele><time>2026-04-11T08:27:02.061Z</time></trkpt><trkpt lat="44.7468533" lon="7.885225"><ele>391.99999999999994</ele><time>2026-04-11T08:27:05.061Z</time></trkpt><trkpt lat="44.7468617" lon="7.8853333"><ele>392.0</ele><time>2026-04-11T08:27:08.06Z</time></trkpt><trkpt lat="44.746895" lon="7.88543"><ele>393.8333333333333</ele><time>2026-04-11T08:27:11.059Z</time></trkpt><trkpt lat="44.7469467" lon="7.88551"><ele>395.66666666666663</ele><time>2026-04-11T08:27:14.058Z</time></trkpt><trkpt lat="44.74699" lon="7.88559"><ele>397.5</ele><time>2026-04-11T08:27:17.058Z</time></trkpt><trkpt lat="44.7470367" lon="7.8856733"><ele>399.33333333333337</ele><time>2026-04-11T08:27:20.062Z</time></trkpt><trkpt lat="44.7470883" lon="7.8857583"><ele>401.1666666666667</ele><time>2026-04-11T08:27:23.059Z</time></trkpt><trkpt lat="44.747145" lon="7.885835"><ele>403.0</ele><time>2026-04-11T08:27:26.059Z</time></trkpt><trkpt lat="44.7471867" lon="7.8859233"><ele>404.0</ele><time>2026-04-11T08:27:29.059Z</time></trkpt><trkpt lat="44.7472133" lon="7.88602"><ele>405.0</ele><time>2026-04-11T08:27:32.06Z</time></trkpt><trkpt lat="44.7472367" lon="7.8861267"><ele>406.0</ele><time>2026-04-11T08:27:35.058Z</time></trkpt><trkpt lat="44.74725" lon="7.8862317"><ele>407.0</ele><time>2026-04-11T08:27:38.059Z</time></trkpt><trkpt lat="44.74726" lon="7.8863333"><ele>408.0</ele><time>2026-04-11T08:27:41.058Z</time></trkpt><trkpt lat="44.747265" lon="7.886435"><ele>409.0</ele><time>2026-04-11T08:27:44.06Z</time></trkpt><trkpt lat="44.747275" lon="7.8865383"><ele>410.0</ele><time>2026-04-11T08:27:47.058Z</time></trkpt><trkpt lat="44.7472817" lon="7.8866383"><ele>410.0</ele><time>2026-04-11T08:27:50.059Z</time></trkpt><trkpt lat="44.7472917" lon="7.8867383"><ele>410.0</ele><time>2026-04-11T08:27:53.06Z</time></trkpt><trkpt lat="44.74731" lon="7.8868367"><ele>410.0</ele><time>2026-04-11T08:27:56.059Z</time></trkpt><trkpt lat="44.7473133" lon="7.8869467"><ele>410.0</ele><time>2026-04-11T08:27:59.06Z</time></trkpt><trkpt lat="44.7473133" lon="7.88704"><ele>410.0</ele><time>2026-04-11T08:28:02.062Z</time></trkpt><trkpt lat="44.7472917" lon="7.8871367"><ele>410.0</ele><time>2026-04-11T08:28:05.058Z</time></trkpt><trkpt lat="44.7472717" lon="7.8872283"><ele>410.0</ele><time>2026-04-11T08:28:08.059Z</time></trkpt><trkpt lat="44.7472433" lon="7.8873183"><ele>409.42857142857144</ele><time>2026-04-11T08:28:11.059Z</time></trkpt><trkpt lat="44.747275" lon="7.8873967"><ele>408.85714285714283</ele><time>2026-04-11T08:28:15.061Z</time></trkpt><trkpt lat="44.7473133" lon="7.88732"><ele>408.2857142857143</ele><time>2026-04-11T08:28:18.061Z</time></trkpt><trkpt lat="44.7473317" lon="7.8872167"><ele>407.7142857142857</ele><time>2026-04-11T08:28:21.06Z</time></trkpt><trkpt lat="44.74736" lon="7.887115"><ele>407.1428571428571</ele><time>2026-04-11T08:28:24.061Z</time></trkpt><trkpt lat="44.7473867" lon="7.8870317"><ele>406.57142857142856</ele><time>2026-04-11T08:28:27.059Z</time></trkpt><trkpt lat="44.7474167" lon="7.8869333"><ele>406.0</ele><time>2026-04-11T08:28:30.058Z</time></trkpt><trkpt lat="44.7474533" lon="7.8868167"><ele>406.2857142857143</ele><time>2026-04-11T08:28:33.059Z</time></trkpt><trkpt lat="44.74748" lon="7.8867317"><ele>406.57142857142856</ele><time>2026-04-11T08:28:35.06Z</time></trkpt><trkpt lat="44.7475133" lon="7.8866483"><ele>406.8571428571429</ele><time>2026-04-11T08:28:37.062Z</time></trkpt><trkpt lat="44.7475483" lon="7.88657"><ele>407.1428571428571</ele><time>2026-04-11T08:28:39.062Z</time></trkpt><trkpt lat="44.7475783" lon="7.8864767"><ele>407.42857142857144</ele><time>2026-04-11T08:28:41.059Z</time></trkpt><trkpt lat="44.74762" lon="7.8863867"><ele>407.7142857142857</ele><time>2026-04-11T08:28:43.058Z</time></trkpt><trkpt lat="44.7476733" lon="7.8862983"><ele>408.0</ele><time>2026-04-11T08:28:45.059Z</time></trkpt><trkpt lat="44.74773" lon="7.8862083"><ele>408.0</ele><time>2026-04-11T08:28:47.06Z</time></trkpt><trkpt lat="44.74779" lon="7.8861167"><ele>408.0</ele><time>2026-04-11T08:28:49.058Z</time></trkpt><trkpt lat="44.7478633" lon="7.8860267"><ele>408.0</ele><time>2026-04-11T08:28:51.061Z</time></trkpt><trkpt lat="44.7479317" lon="7.8859233"><ele>408.0</ele><time>2026-04-11T08:28:53.06Z</time></trkpt><trkpt lat="44.7480017" lon="7.8858183"><ele>408.0</ele><time>2026-04-11T08:28:55.06Z</time></trkpt><trkpt lat="44.7480717" lon="7.8857"><ele>407.75</ele><time>2026-04-11T08:28:57.06Z</time></trkpt><trkpt lat="44.7481433" lon="7.885565"><ele>407.5</ele><time>2026-04-11T08:28:59.06Z</time></trkpt><trkpt lat="44.748215" lon="7.88543"><ele>407.25</ele><time>2026-04-11T08:29:01.061Z</time></trkpt><trkpt lat="44.748285" lon="7.8852967"><ele>407.0</ele><time>2026-04-11T08:29:03.059Z</time></trkpt><trkpt lat="44.7483633" lon="7.88517"><ele>406.6</ele><time>2026-04-11T08:29:05.059Z</time></trkpt><trkpt lat="44.7484433" lon="7.8850433"><ele>406.20000000000005</ele><time>2026-04-11T08:29:07.062Z</time></trkpt><trkpt lat="44.74853" lon="7.8849267"><ele>405.8</ele><time>2026-04-11T08:29:09.062Z</time></trkpt><trkpt lat="44.7486217" lon="7.884815"><ele>405.4</ele><time>2026-04-11T08:29:11.059Z</time></trkpt><trkpt lat="44.7486733" lon="7.8847617"><ele>405.0</ele><time>2026-04-11T08:29:12.061Z</time></trkpt><trkpt lat="44.7487817" lon="7.88467"><ele>405.0</ele><time>2026-04-11T08:29:14.061Z</time></trkpt><trkpt lat="44.7488883" lon="7.88459"><ele>405.0</ele><time>2026-04-11T08:29:16.062Z</time></trkpt><trkpt lat="44.7489983" lon="7.88453"><ele>405.0</ele><time>2026-04-11T08:29:18.06Z</time></trkpt><trkpt lat="44.7491133" lon="7.884495"><ele>405.0</ele><time>2026-04-11T08:29:20.06Z</time></trkpt><trkpt lat="44.7492317" lon="7.8844767"><ele>405.0</ele><time>2026-04-11T08:29:22.06Z</time></trkpt><trkpt lat="44.7493517" lon="7.8844733"><ele>405.0</ele><time>2026-04-11T08:29:24.061Z</time></trkpt><trkpt lat="44.74947" lon="7.8844817"><ele>405.0</ele><time>2026-04-11T08:29:26.059Z</time></trkpt><trkpt lat="44.7495867" lon="7.8844933"><ele>405.0</ele><time>2026-04-11T08:29:28.061Z</time></trkpt><trkpt lat="44.749655" lon="7.884495"><ele>405.0</ele><time>2026-04-11T08:29:29.06Z</time></trkpt><trkpt lat="44.7497767" lon="7.8844933"><ele>404.5</ele><time>2026-04-11T08:29:31.061Z</time></trkpt><trkpt lat="44.7498933" lon="7.8844933"><ele>404.0</ele><time>2026-04-11T08:29:33.063Z</time></trkpt><trkpt lat="44.7500067" lon="7.884485"><ele>403.5</ele><time>2026-04-11T08:29:35.06Z</time></trkpt><trkpt lat="44.75012" lon="7.8844767"><ele>403.0</ele><time>2026-04-11T08:29:37.061Z</time></trkpt><trkpt lat="44.7502267" lon="7.8844733"><ele>402.4</ele><time>2026-04-11T08:29:39.061Z</time></trkpt><trkpt lat="44.7503317" lon="7.88448"><ele>401.79999999999995</ele><time>2026-04-11T08:29:41.06Z</time></trkpt><trkpt lat="44.7504383" lon="7.8844617"><ele>401.2</ele><time>2026-04-11T08:29:43.059Z</time></trkpt><trkpt lat="44.7505367" lon="7.8844383"><ele>400.6</ele><time>2026-04-11T08:29:45.06Z</time></trkpt><trkpt lat="44.75063" lon="7.8844017"><ele>400.0</ele><time>2026-04-11T08:29:47.059Z</time></trkpt><trkpt lat="44.7507167" lon="7.8843433"><ele>400.0</ele><time>2026-04-11T08:29:49.06Z</time></trkpt><trkpt lat="44.7508" lon="7.884285"><ele>400.0</ele><time>2026-04-11T08:29:51.06Z</time></trkpt><trkpt lat="44.7508817" lon="7.884225"><ele>400.0</ele><time>2026-04-11T08:29:53.061Z</time></trkpt><trkpt lat="44.75096" lon="7.8841567"><ele>400.0</ele><time>2026-04-11T08:29:55.059Z</time></trkpt><trkpt lat="44.75104" lon="7.8841033"><ele>400.0</ele><time>2026-04-11T08:29:57.061Z</time></trkpt><trkpt lat="44.7511267" lon="7.884055"><ele>402.1666666666667</ele><time>2026-04-11T08:29:59.058Z</time></trkpt><trkpt lat="44.7512133" lon="7.8840117"><ele>404.33333333333337</ele><time>2026-04-11T08:30:01.06Z</time></trkpt><trkpt lat="44.751295" lon="7.88398"><ele>406.5</ele><time>2026-04-11T08:30:03.062Z</time></trkpt><trkpt lat="44.7513783" lon="7.8839283"><ele>408.66666666666663</ele><time>2026-04-11T08:30:05.061Z</time></trkpt><trkpt lat="44.7514533" lon="7.88386"><ele>410.8333333333333</ele><time>2026-04-11T08:30:07.062Z</time></trkpt><trkpt lat="44.75153" lon="7.8838017"><ele>413.0</ele><time>2026-04-11T08:30:09.063Z</time></trkpt><trkpt lat="44.75161" lon="7.8837533"><ele>412.99999999999994</ele><time>2026-04-11T08:30:11.06Z</time></trkpt><trkpt lat="44.751675" lon="7.8836983"><ele>413.0</ele><time>2026-04-11T08:30:13.06Z</time></trkpt><trkpt lat="44.75174" lon="7.8836333"><ele>413.0</ele><time>2026-04-11T08:30:15.063Z</time></trkpt><trkpt lat="44.751805" lon="7.8835583"><ele>413.0</ele><time>2026-04-11T08:30:17.061Z</time></trkpt><trkpt lat="44.7518733" lon="7.8834833"><ele>412.99999999999994</ele><time>2026-04-11T08:30:19.06Z</time></trkpt><trkpt lat="44.7519333" lon="7.88341"><ele>413.0</ele><time>2026-04-11T08:30:21.062Z</time></trkpt><trkpt lat="44.7519783" lon="7.88331"><ele>413.59999999999997</ele><time>2026-04-11T08:30:23.061Z</time></trkpt><trkpt lat="44.7520267" lon="7.8831917"><ele>414.2</ele><time>2026-04-11T08:30:25.062Z</time></trkpt><trkpt lat="44.7520833" lon="7.8830517"><ele>414.8</ele><time>2026-04-11T08:30:27.06Z</time></trkpt><trkpt lat="44.752115" lon="7.882975"><ele>415.4</ele><time>2026-04-11T08:30:28.061Z</time></trkpt><trkpt lat="44.7521467" lon="7.8828967"><ele>416.0</ele><time>2026-04-11T08:30:29.061Z</time></trkpt><trkpt lat="44.7522067" lon="7.8827383"><ele>416.0</ele><time>2026-04-11T08:30:31.06Z</time></trkpt><trkpt lat="44.7522317" lon="7.8826533"><ele>416.0</ele><time>2026-04-11T08:30:32.062Z</time></trkpt><trkpt lat="44.752255" lon="7.882485"><ele>416.0</ele><time>2026-04-11T08:30:34.062Z</time></trkpt><trkpt lat="44.7522317" lon="7.8823283"><ele>416.0</ele><time>2026-04-11T08:30:36.06Z</time></trkpt><trkpt lat="44.7521883" lon="7.8821783"><ele>416.0</ele><time>2026-04-11T08:30:38.061Z</time></trkpt><trkpt lat="44.7521483" lon="7.882035"><ele>417.20000000000005</ele><time>2026-04-11T08:30:40.06Z</time></trkpt><trkpt lat="44.752125" lon="7.8818867"><ele>418.40000000000003</ele><time>2026-04-11T08:30:42.062Z</time></trkpt><trkpt lat="44.7521117" lon="7.8817317"><ele>419.6</ele><time>2026-04-11T08:30:44.062Z</time></trkpt><trkpt lat="44.7520983" lon="7.88158"><ele>420.8</ele><time>2026-04-11T08:30:46.062Z</time></trkpt><trkpt lat="44.7521017" lon="7.881415"><ele>422.0</ele><time>2026-04-11T08:30:48.061Z</time></trkpt><trkpt lat="44.7521133" lon="7.8812617"><ele>422.0</ele><time>2026-04-11T08:30:50.059Z</time></trkpt><trkpt lat="44.7521467" lon="7.88112"><ele>422.0</ele><time>2026-04-11T08:30:52.063Z</time></trkpt><trkpt lat="44.7522017" lon="7.880985"><ele>422.0</ele><time>2026-04-11T08:30:54.059Z</time></trkpt><trkpt lat="44.752255" lon="7.88083"><ele>422.0</ele><time>2026-04-11T08:30:56.061Z</time></trkpt><trkpt lat="44.752285" lon="7.88075"><ele>422.0</ele><time>2026-04-11T08:30:57.06Z</time></trkpt><trkpt lat="44.75233" lon="7.8805967"><ele>421.0</ele><time>2026-04-11T08:30:59.061Z</time></trkpt><trkpt lat="44.7523767" lon="7.8804583"><ele>420.0</ele><time>2026-04-11T08:31:01.062Z</time></trkpt><trkpt lat="44.7524417" lon="7.8803767"><ele>419.0</ele><time>2026-04-11T08:31:03.06Z</time></trkpt><trkpt lat="44.7525117" lon="7.8803117"><ele>418.0</ele><time>2026-04-11T08:31:05.059Z</time></trkpt><trkpt lat="44.752605" lon="7.8802717"><ele>417.0</ele><time>2026-04-11T08:31:07.061Z</time></trkpt><trkpt lat="44.7527183" lon="7.880215"><ele>415.5</ele><time>2026-04-11T08:31:09.059Z</time></trkpt><trkpt lat="44.7528283" lon="7.8801967"><ele>414.0</ele><time>2026-04-11T08:31:11.059Z</time></trkpt><trkpt lat="44.75295" lon="7.88019"><ele>412.5</ele><time>2026-04-11T08:31:13.06Z</time></trkpt><trkpt lat="44.7530683" lon="7.88015"><ele>411.0</ele><time>2026-04-11T08:31:15.06Z</time></trkpt><trkpt lat="44.7531733" lon="7.88007"><ele>409.0</ele><time>2026-04-11T08:31:17.061Z</time></trkpt><trkpt lat="44.7532617" lon="7.8799517"><ele>407.0</ele><time>2026-04-11T08:31:19.06Z</time></trkpt><trkpt lat="44.7532967" lon="7.8798767"><ele>405.0</ele><time>2026-04-11T08:31:20.06Z</time></trkpt><trkpt lat="44.7533367" lon="7.8798067"><ele>403.0</ele><time>2026-04-11T08:31:21.061Z</time></trkpt><trkpt lat="44.7533867" lon="7.879665"><ele>401.0</ele><time>2026-04-11T08:31:23.06Z</time></trkpt><trkpt lat="44.753435" lon="7.8795167"><ele>401.0</ele><time>2026-04-11T08:31:25.062Z</time></trkpt><trkpt lat="44.7534733" lon="7.8793633"><ele>401.0</ele><time>2026-04-11T08:31:27.061Z</time></trkpt><trkpt lat="44.75352" lon="7.8792183"><ele>401.0</ele><time>2026-04-11T08:31:29.062Z</time></trkpt><trkpt lat="44.7535483" lon="7.879075"><ele>401.0</ele><time>2026-04-11T08:31:31.061Z</time></trkpt><trkpt lat="44.753575" lon="7.878945"><ele>401.0</ele><time>2026-04-11T08:31:33.062Z</time></trkpt><trkpt lat="44.7536183" lon="7.878815"><ele>399.8</ele><time>2026-04-11T08:31:35.061Z</time></trkpt><trkpt lat="44.7536633" lon="7.8786833"><ele>398.6</ele><time>2026-04-11T08:31:37.062Z</time></trkpt><trkpt lat="44.753715" lon="7.8785483"><ele>397.4</ele><time>2026-04-11T08:31:39.064Z</time></trkpt><trkpt lat="44.7537717" lon="7.87844"><ele>396.2</ele><time>2026-04-11T08:31:41.061Z</time></trkpt><trkpt lat="44.7538617" lon="7.8783433"><ele>395.0</ele><time>2026-04-11T08:31:43.061Z</time></trkpt><trkpt lat="44.753915" lon="7.878295"><ele>397.4</ele><time>2026-04-11T08:31:44.061Z</time></trkpt><trkpt lat="44.7540117" lon="7.8782167"><ele>399.8</ele><time>2026-04-11T08:31:46.06Z</time></trkpt><trkpt lat="44.75409" lon="7.878105"><ele>402.20000000000005</ele><time>2026-04-11T08:31:48.061Z</time></trkpt><trkpt lat="44.7541417" lon="7.8779683"><ele>404.6</ele><time>2026-04-11T08:31:50.059Z</time></trkpt><trkpt lat="44.75419" lon="7.8778217"><ele>407.0</ele><time>2026-04-11T08:31:52.062Z</time></trkpt><trkpt lat="44.7542217" lon="7.877745"><ele>406.99999999999994</ele><time>2026-04-11T08:31:53.06Z</time></trkpt><trkpt lat="44.7542533" lon="7.8776633"><ele>407.0</ele><time>2026-04-11T08:31:54.061Z</time></trkpt><trkpt lat="44.7542867" lon="7.8775833"><ele>407.0</ele><time>2026-04-11T08:31:55.061Z</time></trkpt><trkpt lat="44.754345" lon="7.8774233"><ele>407.0</ele><time>2026-04-11T08:31:57.061Z</time></trkpt><trkpt lat="44.7543783" lon="7.87734"><ele>406.99999999999994</ele><time>2026-04-11T08:31:58.061Z</time></trkpt><trkpt lat="44.754415" lon="7.8772583"><ele>407.0</ele><time>2026-04-11T08:31:59.061Z</time></trkpt><trkpt lat="44.754445" lon="7.8771717"><ele>408.00000000000006</ele><time>2026-04-11T08:32:00.058Z</time></trkpt><trkpt lat="44.7544783" lon="7.8770867"><ele>409.0</ele><time>2026-04-11T08:32:01.059Z</time></trkpt><trkpt lat="44.754515" lon="7.877"><ele>410.0</ele><time>2026-04-11T08:32:02.06Z</time></trkpt><trkpt lat="44.75454" lon="7.876915"><ele>411.0</ele><time>2026-04-11T08:32:03.061Z</time></trkpt><trkpt lat="44.7545733" lon="7.8768283"><ele>412.0</ele><time>2026-04-11T08:32:04.061Z</time></trkpt><trkpt lat="44.7546" lon="7.876735"><ele>413.00000000000006</ele><time>2026-04-11T08:32:05.06Z</time></trkpt><trkpt lat="44.754625" lon="7.876645"><ele>414.0</ele><time>2026-04-11T08:32:06.06Z</time></trkpt><trkpt lat="44.7546467" lon="7.8765517"><ele>414.0</ele><time>2026-04-11T08:32:07.061Z</time></trkpt><trkpt lat="44.7546617" lon="7.8764617"><ele>414.0</ele><time>2026-04-11T08:32:08.06Z</time></trkpt><trkpt lat="44.7546767" lon="7.8763733"><ele>414.0</ele><time>2026-04-11T08:32:09.062Z</time></trkpt><trkpt lat="44.754685" lon="7.8762767"><ele>414.0</ele><time>2026-04-11T08:32:10.058Z</time></trkpt><trkpt lat="44.7546883" lon="7.876185"><ele>414.0</ele><time>2026-04-11T08:32:11.059Z</time></trkpt><trkpt lat="44.7546717" lon="7.8760067"><ele>414.0</ele><time>2026-04-11T08:32:13.061Z</time></trkpt><trkpt lat="44.7546633" lon="7.87591"><ele>412.79999999999995</ele><time>2026-04-11T08:32:14.062Z</time></trkpt><trkpt lat="44.7546617" lon="7.8758167"><ele>411.59999999999997</ele><time>2026-04-11T08:32:15.061Z</time></trkpt><trkpt lat="44.75466" lon="7.8757267"><ele>410.4</ele><time>2026-04-11T08:32:16.061Z</time></trkpt><trkpt lat="44.7546583" lon="7.87558"><ele>409.2</ele><time>2026-04-11T08:32:18.061Z</time></trkpt><trkpt lat="44.7546267" lon="7.8754383"><ele>408.0</ele><time>2026-04-11T08:32:20.059Z</time></trkpt><trkpt lat="44.754605" lon="7.875275"><ele>408.0</ele><time>2026-04-11T08:32:22.063Z</time></trkpt><trkpt lat="44.7546133" lon="7.8751133"><ele>408.0</ele><time>2026-04-11T08:32:24.061Z</time></trkpt><trkpt lat="44.754605" lon="7.87497"><ele>408.0</ele><time>2026-04-11T08:32:26.061Z</time></trkpt><trkpt lat="44.75461" lon="7.8748233"><ele>408.0</ele><time>2026-04-11T08:32:28.061Z</time></trkpt><trkpt lat="44.7546117" lon="7.8746333"><ele>407.14285714285717</ele><time>2026-04-11T08:32:30.061Z</time></trkpt><trkpt lat="44.7546033" lon="7.874525"><ele>406.28571428571433</ele><time>2026-04-11T08:32:31.06Z</time></trkpt><trkpt lat="44.754605" lon="7.8744167"><ele>405.42857142857144</ele><time>2026-04-11T08:32:32.06Z</time></trkpt><trkpt lat="44.7546183" lon="7.874315"><ele>404.57142857142856</ele><time>2026-04-11T08:32:33.062Z</time></trkpt><trkpt lat="44.7546283" lon="7.8742133"><ele>403.7142857142857</ele><time>2026-04-11T08:32:34.061Z</time></trkpt><trkpt lat="44.7546333" lon="7.8741083"><ele>402.85714285714283</ele><time>2026-04-11T08:32:35.059Z</time></trkpt><trkpt lat="44.75463" lon="7.8740083"><ele>402.0</ele><time>2026-04-11T08:32:36.06Z</time></trkpt><trkpt lat="44.75462" lon="7.8739117"><ele>402.0</ele><time>2026-04-11T08:32:37.06Z</time></trkpt><trkpt lat="44.7546217" lon="7.8737567"><ele>402.0</ele><time>2026-04-11T08:32:39.059Z</time></trkpt><trkpt lat="44.7546533" lon="7.8736667"><ele>402.0</ele><time>2026-04-11T08:32:41.06Z</time></trkpt><trkpt lat="44.7547517" lon="7.8736383"><ele>402.0</ele><time>2026-04-11T08:32:43.06Z</time></trkpt><trkpt lat="44.7548133" lon="7.8736183"><ele>402.0</ele><time>2026-04-11T08:32:44.06Z</time></trkpt><trkpt lat="44.7549217" lon="7.8735483"><ele>402.0</ele><time>2026-04-11T08:32:46.06Z</time></trkpt><trkpt lat="44.755025" lon="7.87348"><ele>402.0</ele><time>2026-04-11T08:32:48.059Z</time></trkpt><trkpt lat="44.755135" lon="7.8734117"><ele>402.0</ele><time>2026-04-11T08:32:50.06Z</time></trkpt><trkpt lat="44.75524" lon="7.8733633"><ele>402.0</ele><time>2026-04-11T08:32:52.06Z</time></trkpt><trkpt lat="44.75535" lon="7.8733367"><ele>402.3333333333333</ele><time>2026-04-11T08:32:54.06Z</time></trkpt><trkpt lat="44.7554383" lon="7.8733233"><ele>402.66666666666663</ele><time>2026-04-11T08:32:56.06Z</time></trkpt><trkpt lat="44.755525" lon="7.8733183"><ele>403.0</ele><time>2026-04-11T08:32:58.06Z</time></trkpt><trkpt lat="44.7555983" lon="7.873305"><ele>403.3333333333333</ele><time>2026-04-11T08:33:00.06Z</time></trkpt><trkpt lat="44.75568" lon="7.8732833"><ele>403.66666666666663</ele><time>2026-04-11T08:33:02.061Z</time></trkpt><trkpt lat="44.755795" lon="7.8732867"><ele>404.0</ele><time>2026-04-11T08:33:04.061Z</time></trkpt><trkpt lat="44.7558617" lon="7.87329"><ele>403.99999999999994</ele><time>2026-04-11T08:33:05.061Z</time></trkpt><trkpt lat="44.7559283" lon="7.87328"><ele>404.0</ele><time>2026-04-11T08:33:06.061Z</time></trkpt><trkpt lat="44.7559983" lon="7.8732667"><ele>404.0</ele><time>2026-04-11T08:33:07.061Z</time></trkpt><trkpt lat="44.756065" lon="7.873245"><ele>404.0</ele><time>2026-04-11T08:33:08.061Z</time></trkpt><trkpt lat="44.7561317" lon="7.87322"><ele>403.99999999999994</ele><time>2026-04-11T08:33:09.06Z</time></trkpt><trkpt lat="44.756195" lon="7.8732"><ele>404.0</ele><time>2026-04-11T08:33:10.06Z</time></trkpt><trkpt lat="44.756315" lon="7.87317"><ele>404.4</ele><time>2026-04-11T08:33:12.061Z</time></trkpt><trkpt lat="44.7564383" lon="7.8731683"><ele>404.79999999999995</ele><time>2026-04-11T08:33:14.062Z</time></trkpt><trkpt lat="44.7565017" lon="7.87317"><ele>405.20000000000005</ele><time>2026-04-11T08:33:15.062Z</time></trkpt><trkpt lat="44.7566183" lon="7.8731933"><ele>405.6</ele><time>2026-04-11T08:33:17.061Z</time></trkpt><trkpt lat="44.756735" lon="7.8732283"><ele>406.0</ele><time>2026-04-11T08:33:19.06Z</time></trkpt><trkpt lat="44.7568" lon="7.8732333"><ele>406.0</ele><time>2026-04-11T08:33:20.061Z</time></trkpt><trkpt lat="44.7568633" lon="7.873245"><ele>406.0</ele><time>2026-04-11T08:33:21.06Z</time></trkpt><trkpt lat="44.7569867" lon="7.8732717"><ele>406.0</ele><time>2026-04-11T08:33:23.059Z</time></trkpt><trkpt lat="44.75705" lon="7.8732833"><ele>406.0</ele><time>2026-04-11T08:33:24.058Z</time></trkpt><trkpt lat="44.7571717" lon="7.87329"><ele>406.0</ele><time>2026-04-11T08:33:26.061Z</time></trkpt><trkpt lat="44.7572983" lon="7.8732817"><ele>406.2857142857143</ele><time>2026-04-11T08:33:28.062Z</time></trkpt><trkpt lat="44.757365" lon="7.8732733"><ele>406.57142857142856</ele><time>2026-04-11T08:33:29.059Z</time></trkpt><trkpt lat="44.7574333" lon="7.87327"><ele>406.8571428571429</ele><time>2026-04-11T08:33:30.06Z</time></trkpt><trkpt lat="44.7574967" lon="7.873255"><ele>407.1428571428571</ele><time>2026-04-11T08:33:31.059Z</time></trkpt><trkpt lat="44.75756" lon="7.873235"><ele>407.42857142857144</ele><time>2026-04-11T08:33:32.06Z</time></trkpt><trkpt lat="44.75762" lon="7.8732"><ele>407.7142857142857</ele><time>2026-04-11T08:33:33.06Z</time></trkpt><trkpt lat="44.757685" lon="7.873165"><ele>408.0</ele><time>2026-04-11T08:33:34.062Z</time></trkpt><trkpt lat="44.7577467" lon="7.8731267"><ele>408.0</ele><time>2026-04-11T08:33:35.059Z</time></trkpt><trkpt lat="44.757805" lon="7.8730883"><ele>408.0</ele><time>2026-04-11T08:33:36.06Z</time></trkpt><trkpt lat="44.7578617" lon="7.8730467"><ele>408.0</ele><time>2026-04-11T08:33:37.061Z</time></trkpt><trkpt lat="44.7579183" lon="7.873005"><ele>408.0</ele><time>2026-04-11T08:33:38.06Z</time></trkpt><trkpt lat="44.758015" lon="7.87291"><ele>408.0</ele><time>2026-04-11T08:33:40.059Z</time></trkpt><trkpt lat="44.7580967" lon="7.8727633"><ele>408.0</ele><time>2026-04-11T08:33:42.061Z</time></trkpt><trkpt lat="44.7581367" lon="7.8726733"><ele>407.1666666666667</ele><time>2026-04-11T08:33:43.061Z</time></trkpt><trkpt lat="44.75818" lon="7.872585"><ele>406.33333333333337</ele><time>2026-04-11T08:33:44.06Z</time></trkpt><trkpt lat="44.758225" lon="7.8724967"><ele>405.5</ele><time>2026-04-11T08:33:45.061Z</time></trkpt><trkpt lat="44.7582683" lon="7.8724"><ele>404.6666666666667</ele><time>2026-04-11T08:33:46.06Z</time></trkpt><trkpt lat="44.75831" lon="7.8722983"><ele>403.83333333333337</ele><time>2026-04-11T08:33:47.059Z</time></trkpt><trkpt lat="44.758345" lon="7.8721933"><ele>403.0</ele><time>2026-04-11T08:33:48.059Z</time></trkpt><trkpt lat="44.7583767" lon="7.8720817"><ele>403.0</ele><time>2026-04-11T08:33:49.06Z</time></trkpt><trkpt lat="44.75841" lon="7.8719767"><ele>403.0</ele><time>2026-04-11T08:33:50.061Z</time></trkpt><trkpt lat="44.7584417" lon="7.8718833"><ele>403.0</ele><time>2026-04-11T08:33:51.06Z</time></trkpt><trkpt lat="44.75848" lon="7.8718"><ele>403.0</ele><time>2026-04-11T08:33:52.059Z</time></trkpt><trkpt lat="44.7585317" lon="7.8717267"><ele>403.0</ele><time>2026-04-11T08:33:53.059Z</time></trkpt><trkpt lat="44.7585833" lon="7.8716567"><ele>403.0</ele><time>2026-04-11T08:33:54.059Z</time></trkpt><trkpt lat="44.7586367" lon="7.8715867"><ele>403.0</ele><time>2026-04-11T08:33:55.062Z</time></trkpt><trkpt lat="44.7586883" lon="7.8715233"><ele>401.50000000000006</ele><time>2026-04-11T08:33:56.06Z</time></trkpt><trkpt lat="44.7587383" lon="7.8714617"><ele>400.0</ele><time>2026-04-11T08:33:57.061Z</time></trkpt><trkpt lat="44.7587867" lon="7.8713883"><ele>398.5</ele><time>2026-04-11T08:33:59.059Z</time></trkpt><trkpt lat="44.7588383" lon="7.8712783"><ele>397.0</ele><time>2026-04-11T08:34:48.06Z</time></trkpt><trkpt lat="44.7588567" lon="7.8711917"><ele>395.50000000000006</ele><time>2026-04-11T08:34:50.058Z</time></trkpt><trkpt lat="44.75889" lon="7.8710967"><ele>394.0</ele><time>2026-04-11T08:34:52.06Z</time></trkpt><trkpt lat="44.7589383" lon="7.8710017"><ele>394.4</ele><time>2026-04-11T08:34:54.061Z</time></trkpt><trkpt lat="44.7589917" lon="7.8708883"><ele>394.79999999999995</ele><time>2026-04-11T08:34:56.061Z</time></trkpt><trkpt lat="44.7590417" lon="7.8707583"><ele>395.20000000000005</ele><time>2026-04-11T08:34:58.06Z</time></trkpt><trkpt lat="44.7590767" lon="7.8706267"><ele>395.6</ele><time>2026-04-11T08:35:00.061Z</time></trkpt><trkpt lat="44.7590967" lon="7.8704783"><ele>396.0</ele><time>2026-04-11T08:35:02.056Z</time></trkpt><trkpt lat="44.75911" lon="7.8703283"><ele>396.0</ele><time>2026-04-11T08:35:04.061Z</time></trkpt><trkpt lat="44.7591067" lon="7.8701833"><ele>396.0</ele><time>2026-04-11T08:35:06.062Z</time></trkpt><trkpt lat="44.75911" lon="7.8700367"><ele>396.0</ele><time>2026-04-11T08:35:08.061Z</time></trkpt><trkpt lat="44.7591267" lon="7.8698817"><ele>396.0</ele><time>2026-04-11T08:35:10.06Z</time></trkpt><trkpt lat="44.759175" lon="7.8697267"><ele>396.0</ele><time>2026-04-11T08:35:12.059Z</time></trkpt><trkpt lat="44.7592133" lon="7.8696517"><ele>395.6666666666667</ele><time>2026-04-11T08:35:13.06Z</time></trkpt><trkpt lat="44.7592583" lon="7.8695817"><ele>395.33333333333337</ele><time>2026-04-11T08:35:14.059Z</time></trkpt><trkpt lat="44.7593083" lon="7.8695233"><ele>395.0</ele><time>2026-04-11T08:35:15.061Z</time></trkpt><trkpt lat="44.759365" lon="7.8694833"><ele>394.6666666666667</ele><time>2026-04-11T08:35:16.059Z</time></trkpt><trkpt lat="44.7594783" lon="7.8694867"><ele>394.33333333333337</ele><time>2026-04-11T08:35:18.059Z</time></trkpt><trkpt lat="44.75959" lon="7.8694533"><ele>394.0</ele><time>2026-04-11T08:35:20.059Z</time></trkpt><trkpt lat="44.759695" lon="7.8693917"><ele>392.4</ele><time>2026-04-11T08:35:22.06Z</time></trkpt><trkpt lat="44.75978" lon="7.8693467"><ele>390.79999999999995</ele><time>2026-04-11T08:35:24.06Z</time></trkpt><trkpt lat="44.759855" lon="7.8693017"><ele>389.20000000000005</ele><time>2026-04-11T08:35:26.06Z</time></trkpt><trkpt lat="44.759915" lon="7.8692033"><ele>387.6</ele><time>2026-04-11T08:35:28.061Z</time></trkpt><trkpt lat="44.7599683" lon="7.869065"><ele>386.0</ele><time>2026-04-11T08:35:30.06Z</time></trkpt><trkpt lat="44.75999" lon="7.8689133"><ele>386.0</ele><time>2026-04-11T08:35:32.061Z</time></trkpt><trkpt lat="44.75999" lon="7.8687617"><ele>386.0</ele><time>2026-04-11T08:35:34.061Z</time></trkpt><trkpt lat="44.7600083" lon="7.8686167"><ele>386.0</ele><time>2026-04-11T08:35:36.06Z</time></trkpt><trkpt lat="44.76005" lon="7.8684717"><ele>386.0</ele><time>2026-04-11T08:35:38.06Z</time></trkpt><trkpt lat="44.7600833" lon="7.86839"><ele>386.0</ele><time>2026-04-11T08:35:39.061Z</time></trkpt><trkpt lat="44.7601233" lon="7.8683017"><ele>385.6</ele><time>2026-04-11T08:35:40.061Z</time></trkpt><trkpt lat="44.7601783" lon="7.8681667"><ele>385.20000000000005</ele><time>2026-04-11T08:35:42.062Z</time></trkpt><trkpt lat="44.76021" lon="7.8680483"><ele>384.79999999999995</ele><time>2026-04-11T08:35:44.063Z</time></trkpt><trkpt lat="44.7602133" lon="7.867895"><ele>384.4</ele><time>2026-04-11T08:35:46.062Z</time></trkpt><trkpt lat="44.7602317" lon="7.8677583"><ele>384.0</ele><time>2026-04-11T08:35:48.059Z</time></trkpt><trkpt lat="44.7602733" lon="7.8676633"><ele>382.1666666666667</ele><time>2026-04-11T08:35:50.059Z</time></trkpt><trkpt lat="44.7603317" lon="7.8675617"><ele>380.3333333333333</ele><time>2026-04-11T08:35:52.061Z</time></trkpt><trkpt lat="44.760365" lon="7.86743"><ele>378.5</ele><time>2026-04-11T08:35:54.059Z</time></trkpt><trkpt lat="44.7603983" lon="7.8672983"><ele>376.66666666666663</ele><time>2026-04-11T08:35:56.06Z</time></trkpt><trkpt lat="44.7604333" lon="7.8671783"><ele>374.8333333333333</ele><time>2026-04-11T08:35:58.058Z</time></trkpt><trkpt lat="44.7604767" lon="7.8671117"><ele>373.0</ele><time>2026-04-11T08:36:00.06Z</time></trkpt><trkpt lat="44.7605133" lon="7.8670267"><ele>373.0</ele><time>2026-04-11T08:36:02.06Z</time></trkpt><trkpt lat="44.760525" lon="7.866885"><ele>373.0</ele><time>2026-04-11T08:36:04.058Z</time></trkpt><trkpt lat="44.7605533" lon="7.8667367"><ele>373.0</ele><time>2026-04-11T08:36:06.06Z</time></trkpt><trkpt lat="44.76061" lon="7.8666283"><ele>373.0</ele><time>2026-04-11T08:36:08.06Z</time></trkpt><trkpt lat="44.7606467" lon="7.8665067"><ele>373.0</ele><time>2026-04-11T08:36:10.059Z</time></trkpt><trkpt lat="44.7606667" lon="7.8663717"><ele>372.3333333333333</ele><time>2026-04-11T08:36:12.061Z</time></trkpt><trkpt lat="44.760675" lon="7.866255"><ele>371.66666666666663</ele><time>2026-04-11T08:36:14.059Z</time></trkpt><trkpt lat="44.7606483" lon="7.8661417"><ele>371.0</ele><time>2026-04-11T08:36:16.06Z</time></trkpt><trkpt lat="44.7606483" lon="7.86605"><ele>370.3333333333333</ele><time>2026-04-11T08:36:18.06Z</time></trkpt><trkpt lat="44.760715" lon="7.8659433"><ele>369.6666666666667</ele><time>2026-04-11T08:36:21.061Z</time></trkpt><trkpt lat="44.7608033" lon="7.865925"><ele>369.0</ele><time>2026-04-11T08:36:23.059Z</time></trkpt><trkpt lat="44.760885" lon="7.8659333"><ele>366.2</ele><time>2026-04-11T08:36:26.059Z</time></trkpt><trkpt lat="44.7609733" lon="7.86586"><ele>363.4</ele><time>2026-04-11T08:36:29.059Z</time></trkpt><trkpt lat="44.7610583" lon="7.865755"><ele>360.6</ele><time>2026-04-11T08:36:31.061Z</time></trkpt><trkpt lat="44.7611067" lon="7.8656917"><ele>357.8</ele><time>2026-04-11T08:36:32.06Z</time></trkpt><trkpt lat="44.7612" lon="7.8656183"><ele>355.0</ele><time>2026-04-11T08:36:34.061Z</time></trkpt><trkpt lat="44.76131" lon="7.86561"><ele>355.0</ele><time>2026-04-11T08:36:36.062Z</time></trkpt><trkpt lat="44.7614167" lon="7.865595"><ele>355.0</ele><time>2026-04-11T08:36:38.058Z</time></trkpt><trkpt lat="44.76152" lon="7.8655933"><ele>355.0</ele><time>2026-04-11T08:36:40.058Z</time></trkpt><trkpt lat="44.7616067" lon="7.865645"><ele>355.0</ele><time>2026-04-11T08:36:42.059Z</time></trkpt><trkpt lat="44.7617033" lon="7.8656583"><ele>355.0</ele><time>2026-04-11T08:36:44.06Z</time></trkpt><trkpt lat="44.761805" lon="7.8656733"><ele>353.6</ele><time>2026-04-11T08:36:46.061Z</time></trkpt><trkpt lat="44.7618917" lon="7.8656883"><ele>352.2</ele><time>2026-04-11T08:36:48.061Z</time></trkpt><trkpt lat="44.7619717" lon="7.8656333"><ele>350.79999999999995</ele><time>2026-04-11T08:36:50.059Z</time></trkpt><trkpt lat="44.76201" lon="7.865535"><ele>349.4</ele><time>2026-04-11T08:36:52.059Z</time></trkpt><trkpt lat="44.762035" lon="7.8654067"><ele>348.0</ele><time>2026-04-11T08:36:54.06Z</time></trkpt><trkpt lat="44.7620483" lon="7.8652567"><ele>348.0</ele><time>2026-04-11T08:36:56.059Z</time></trkpt><trkpt lat="44.7620633" lon="7.86514"><ele>348.0</ele><time>2026-04-11T08:36:58.059Z</time></trkpt><trkpt lat="44.7621267" lon="7.86509"><ele>348.0</ele><time>2026-04-11T08:37:01.06Z</time></trkpt><trkpt lat="44.7622017" lon="7.86512"><ele>348.0</ele><time>2026-04-11T08:37:03.06Z</time></trkpt><trkpt lat="44.7623" lon="7.8651833"><ele>348.0</ele><time>2026-04-11T08:37:05.06Z</time></trkpt><trkpt lat="44.7623533" lon="7.865235"><ele>348.0</ele><time>2026-04-11T08:37:06.06Z</time></trkpt><trkpt lat="44.7624033" lon="7.865295"><ele>348.0</ele><time>2026-04-11T08:37:07.059Z</time></trkpt><trkpt lat="44.7624867" lon="7.8654"><ele>348.0</ele><time>2026-04-11T08:37:09.062Z</time></trkpt><trkpt lat="44.7625417" lon="7.8654467"><ele>348.0</ele><time>2026-04-11T08:37:11.058Z</time></trkpt><trkpt lat="44.7626167" lon="7.8653883"><ele>348.0</ele><time>2026-04-11T08:37:14.06Z</time></trkpt><trkpt lat="44.7627017" lon="7.865345"><ele>348.0</ele><time>2026-04-11T08:37:17.06Z</time></trkpt><trkpt lat="44.76279" lon="7.8653717"><ele>348.0</ele><time>2026-04-11T08:37:20.06Z</time></trkpt><trkpt lat="44.7628533" lon="7.8654133"><ele>346.3333333333333</ele><time>2026-04-11T08:37:22.061Z</time></trkpt><trkpt lat="44.7629183" lon="7.8653783"><ele>344.6666666666667</ele><time>2026-04-11T08:37:24.06Z</time></trkpt><trkpt lat="44.7629867" lon="7.8653433"><ele>343.0</ele><time>2026-04-11T08:37:26.061Z</time></trkpt><trkpt lat="44.7630517" lon="7.865345"><ele>341.33333333333337</ele><time>2026-04-11T08:37:28.059Z</time></trkpt><trkpt lat="44.7631" lon="7.86545"><ele>339.6666666666667</ele><time>2026-04-11T08:37:31.061Z</time></trkpt><trkpt lat="44.7632383" lon="7.865535"><ele>338.0</ele><time>2026-04-11T08:37:53.06Z</time></trkpt><trkpt lat="44.763275" lon="7.8656267"><ele>338.0</ele><time>2026-04-11T08:37:56.061Z</time></trkpt><trkpt lat="44.7633433" lon="7.865665"><ele>338.0</ele><time>2026-04-11T08:38:08.06Z</time></trkpt><trkpt lat="44.76343" lon="7.8656617"><ele>338.0</ele><time>2026-04-11T08:38:11.058Z</time></trkpt><trkpt lat="44.7635133" lon="7.86568"><ele>338.0</ele><time>2026-04-11T08:38:15.058Z</time></trkpt><trkpt lat="44.763585" lon="7.8656667"><ele>338.0</ele><time>2026-04-11T08:38:17.058Z</time></trkpt><trkpt lat="44.7636617" lon="7.86565"><ele>338.0</ele><time>2026-04-11T08:38:19.061Z</time></trkpt><trkpt lat="44.763745" lon="7.8656417"><ele>338.1666666666667</ele><time>2026-04-11T08:38:21.059Z</time></trkpt><trkpt lat="44.763825" lon="7.86563"><ele>338.33333333333337</ele><time>2026-04-11T08:38:23.059Z</time></trkpt><trkpt lat="44.7639217" lon="7.86562"><ele>338.5</ele><time>2026-04-11T08:38:25.059Z</time></trkpt><trkpt lat="44.7640183" lon="7.8656083"><ele>338.6666666666667</ele><time>2026-04-11T08:38:27.061Z</time></trkpt><trkpt lat="44.7641083" lon="7.865595"><ele>338.8333333333333</ele><time>2026-04-11T08:38:29.058Z</time></trkpt><trkpt lat="44.7641817" lon="7.8655717"><ele>339.0</ele><time>2026-04-11T08:38:31.061Z</time></trkpt><trkpt lat="44.76425" lon="7.8655583"><ele>339.0</ele><time>2026-04-11T08:38:33.06Z</time></trkpt><trkpt lat="44.7643367" lon="7.8655817"><ele>339.0</ele><time>2026-04-11T08:38:36.061Z</time></trkpt><trkpt lat="44.764435" lon="7.865575"><ele>339.0</ele><time>2026-04-11T08:38:39.064Z</time></trkpt><trkpt lat="44.76451" lon="7.8655567"><ele>339.0</ele><time>2026-04-11T08:38:41.061Z</time></trkpt><trkpt lat="44.76457" lon="7.8655217"><ele>339.0</ele><time>2026-04-11T08:38:44.062Z</time></trkpt><trkpt lat="44.76455" lon="7.8654333"><ele>339.0</ele><time>2026-04-11T08:38:49.061Z</time></trkpt><trkpt lat="44.764435" lon="7.865285"><ele>339.0</ele><time>2026-04-11T08:39:14.06Z</time></trkpt><trkpt lat="44.7643417" lon="7.8651917"><ele>339.0</ele><time>2026-04-11T08:39:27.063Z</time></trkpt><trkpt lat="44.7642783" lon="7.8650433"><ele>339.0</ele><time>2026-04-11T08:41:53.059Z</time></trkpt><trkpt lat="44.76427" lon="7.86491"><ele>339.0</ele><time>2026-04-11T08:41:56.059Z</time></trkpt><trkpt lat="44.764255" lon="7.8648217"><ele>339.0</ele><time>2026-04-11T08:41:58.06Z</time></trkpt><trkpt lat="44.76424" lon="7.8647233"><ele>338.0</ele><time>2026-04-11T08:42:00.061Z</time></trkpt><trkpt lat="44.7642283" lon="7.8646217"><ele>337.0</ele><time>2026-04-11T08:42:02.059Z</time></trkpt><trkpt lat="44.7642333" lon="7.864525"><ele>336.0</ele><time>2026-04-11T08:42:04.059Z</time></trkpt><trkpt lat="44.764265" lon="7.8644317"><ele>335.0</ele><time>2026-04-11T08:42:06.06Z</time></trkpt><trkpt lat="44.764305" lon="7.8643417"><ele>334.0</ele><time>2026-04-11T08:42:08.059Z</time></trkpt><trkpt lat="44.7643433" lon="7.8642583"><ele>333.0</ele><time>2026-04-11T08:42:10.059Z</time></trkpt><trkpt lat="44.76438" lon="7.8641733"><ele>332.0</ele><time>2026-04-11T08:42:12.059Z</time></trkpt><trkpt lat="44.7644267" lon="7.8640833"><ele>331.8</ele><time>2026-04-11T08:42:14.059Z</time></trkpt><trkpt lat="44.7644817" lon="7.8639983"><ele>331.6</ele><time>2026-04-11T08:42:16.061Z</time></trkpt><trkpt lat="44.7645517" lon="7.86393"><ele>331.40000000000003</ele><time>2026-04-11T08:42:18.058Z</time></trkpt><trkpt lat="44.76464" lon="7.863885"><ele>331.20000000000005</ele><time>2026-04-11T08:42:20.06Z</time></trkpt><trkpt lat="44.764725" lon="7.8638417"><ele>331.0</ele><time>2026-04-11T08:42:22.06Z</time></trkpt><trkpt lat="44.7648117" lon="7.8637717"><ele>331.0</ele><time>2026-04-11T08:42:24.059Z</time></trkpt><trkpt lat="44.7648883" lon="7.8636783"><ele>331.0</ele><time>2026-04-11T08:42:26.061Z</time></trkpt><trkpt lat="44.7649417" lon="7.8635617"><ele>331.0</ele><time>2026-04-11T08:42:28.059Z</time></trkpt><trkpt lat="44.7649667" lon="7.86343"><ele>331.0</ele><time>2026-04-11T08:42:30.061Z</time></trkpt><trkpt lat="44.7649717" lon="7.8632783"><ele>331.0</ele><time>2026-04-11T08:42:32.061Z</time></trkpt><trkpt lat="44.7649917" lon="7.8631283"><ele>330.6</ele><time>2026-04-11T08:42:34.062Z</time></trkpt><trkpt lat="44.76503" lon="7.8629933"><ele>330.20000000000005</ele><time>2026-04-11T08:42:36.06Z</time></trkpt><trkpt lat="44.7650767" lon="7.8628717"><ele>329.79999999999995</ele><time>2026-04-11T08:42:38.061Z</time></trkpt><trkpt lat="44.7651217" lon="7.8627683"><ele>329.4</ele><time>2026-04-11T08:42:40.059Z</time></trkpt><trkpt lat="44.7651633" lon="7.8626517"><ele>329.0</ele><time>2026-04-11T08:42:42.061Z</time></trkpt><trkpt lat="44.7651933" lon="7.8625183"><ele>329.6</ele><time>2026-04-11T08:42:44.06Z</time></trkpt><trkpt lat="44.7652367" lon="7.862385"><ele>330.2</ele><time>2026-04-11T08:42:46.06Z</time></trkpt><trkpt lat="44.7652767" lon="7.8622583"><ele>330.8</ele><time>2026-04-11T08:42:48.061Z</time></trkpt><trkpt lat="44.7653217" lon="7.8621383"><ele>331.40000000000003</ele><time>2026-04-11T08:42:50.063Z</time></trkpt><trkpt lat="44.765365" lon="7.86202"><ele>332.0</ele><time>2026-04-11T08:42:52.059Z</time></trkpt><trkpt lat="44.7654033" lon="7.8619067"><ele>332.0</ele><time>2026-04-11T08:42:54.059Z</time></trkpt><trkpt lat="44.76545" lon="7.861785"><ele>332.0</ele><time>2026-04-11T08:42:56.059Z</time></trkpt><trkpt lat="44.765505" lon="7.8616517"><ele>332.0</ele><time>2026-04-11T08:42:58.06Z</time></trkpt><trkpt lat="44.7655583" lon="7.8615083"><ele>332.0</ele><time>2026-04-11T08:43:00.059Z</time></trkpt><trkpt lat="44.76561" lon="7.86135"><ele>332.0</ele><time>2026-04-11T08:43:02.061Z</time></trkpt><trkpt lat="44.7656417" lon="7.8611883"><ele>331.40000000000003</ele><time>2026-04-11T08:43:04.059Z</time></trkpt><trkpt lat="44.76566" lon="7.8610283"><ele>330.8</ele><time>2026-04-11T08:43:06.06Z</time></trkpt><trkpt lat="44.765685" lon="7.860885"><ele>330.2</ele><time>2026-04-11T08:43:08.06Z</time></trkpt><trkpt lat="44.7657233" lon="7.86075"><ele>329.6</ele><time>2026-04-11T08:43:10.061Z</time></trkpt><trkpt lat="44.7657617" lon="7.8606333"><ele>329.0</ele><time>2026-04-11T08:43:12.06Z</time></trkpt><trkpt lat="44.7658033" lon="7.86052"><ele>329.0</ele><time>2026-04-11T08:43:14.061Z</time></trkpt><trkpt lat="44.7658517" lon="7.8604017"><ele>329.0</ele><time>2026-04-11T08:43:16.06Z</time></trkpt><trkpt lat="44.765905" lon="7.8602683"><ele>329.0</ele><time>2026-04-11T08:43:18.059Z</time></trkpt><trkpt lat="44.7659567" lon="7.8601283"><ele>329.0</ele><time>2026-04-11T08:43:20.058Z</time></trkpt><trkpt lat="44.766015" lon="7.8599883"><ele>329.0</ele><time>2026-04-11T08:43:22.06Z</time></trkpt><trkpt lat="44.7660883" lon="7.8598617"><ele>329.79999999999995</ele><time>2026-04-11T08:43:24.061Z</time></trkpt><trkpt lat="44.7661683" lon="7.859755"><ele>330.59999999999997</ele><time>2026-04-11T08:43:26.06Z</time></trkpt><trkpt lat="44.76625" lon="7.8596583"><ele>331.4</ele><time>2026-04-11T08:43:28.059Z</time></trkpt><trkpt lat="44.7663317" lon="7.85955"><ele>332.2</ele><time>2026-04-11T08:43:30.059Z</time></trkpt><trkpt lat="44.76641" lon="7.85943"><ele>333.0</ele><time>2026-04-11T08:43:32.06Z</time></trkpt><trkpt lat="44.76648" lon="7.8593017"><ele>332.1666666666667</ele><time>2026-04-11T08:43:34.06Z</time></trkpt><trkpt lat="44.76655" lon="7.859165"><ele>331.3333333333333</ele><time>2026-04-11T08:43:36.059Z</time></trkpt><trkpt lat="44.766615" lon="7.859015"><ele>330.5</ele><time>2026-04-11T08:43:38.058Z</time></trkpt><trkpt lat="44.7666433" lon="7.858935"><ele>329.66666666666663</ele><time>2026-04-11T08:43:39.057Z</time></trkpt><trkpt lat="44.76667" lon="7.8588533"><ele>328.8333333333333</ele><time>2026-04-11T08:43:40.057Z</time></trkpt><trkpt lat="44.7666933" lon="7.85877"><ele>328.0</ele><time>2026-04-11T08:43:41.058Z</time></trkpt><trkpt lat="44.7667317" lon="7.858605"><ele>328.0</ele><time>2026-04-11T08:43:43.06Z</time></trkpt><trkpt lat="44.7667817" lon="7.8584567"><ele>328.0</ele><time>2026-04-11T08:43:45.06Z</time></trkpt><trkpt lat="44.7668517" lon="7.85833"><ele>328.0</ele><time>2026-04-11T08:43:47.059Z</time></trkpt><trkpt lat="44.7669333" lon="7.85821"><ele>328.0</ele><time>2026-04-11T08:43:49.058Z</time></trkpt><trkpt lat="44.76702" lon="7.85809"><ele>327.66666666666663</ele><time>2026-04-11T08:43:51.06Z</time></trkpt><trkpt lat="44.7671317" lon="7.8577417"><ele>327.3333333333333</ele><time>2026-04-11T08:43:53.446Z</time></trkpt><trkpt lat="44.76716" lon="7.8578467"><ele>327.0</ele><time>2026-04-11T08:43:54.831Z</time></trkpt><trkpt lat="44.767245" lon="7.8577267"><ele>327.0</ele><time>2026-04-11T08:43:57.061Z</time></trkpt><trkpt lat="44.7672917" lon="7.8576667"><ele>327.0</ele><time>2026-04-11T08:43:58.06Z</time></trkpt><trkpt lat="44.76737" lon="7.8575417"><ele>327.0</ele><time>2026-04-11T08:44:00.059Z</time></trkpt><trkpt lat="44.7674383" lon="7.8574167"><ele>327.0</ele><time>2026-04-11T08:44:02.06Z</time></trkpt><trkpt lat="44.767495" lon="7.8572933"><ele>327.0</ele><time>2026-04-11T08:44:04.059Z</time></trkpt><trkpt lat="44.767545" lon="7.85715"><ele>327.0</ele><time>2026-04-11T08:44:06.061Z</time></trkpt><trkpt lat="44.76759" lon="7.8569983"><ele>327.0</ele><time>2026-04-11T08:44:08.061Z</time></trkpt><trkpt lat="44.7676367" lon="7.85686"><ele>327.0</ele><time>2026-04-11T08:44:10.059Z</time></trkpt><trkpt lat="44.767685" lon="7.8567267"><ele>327.0</ele><time>2026-04-11T08:44:12.06Z</time></trkpt><trkpt lat="44.7677317" lon="7.8565883"><ele>327.0</ele><time>2026-04-11T08:44:14.059Z</time></trkpt><trkpt lat="44.7677617" lon="7.8564533"><ele>327.20000000000005</ele><time>2026-04-11T08:44:16.061Z</time></trkpt><trkpt lat="44.76777" lon="7.8563183"><ele>327.4</ele><time>2026-04-11T08:44:18.059Z</time></trkpt><trkpt lat="44.7677383" lon="7.8561933"><ele>327.6</ele><time>2026-04-11T08:44:20.061Z</time></trkpt><trkpt lat="44.767695" lon="7.8560717"><ele>327.79999999999995</ele><time>2026-04-11T08:44:22.06Z</time></trkpt><trkpt lat="44.7676367" lon="7.8559583"><ele>328.0</ele><time>2026-04-11T08:44:24.062Z</time></trkpt><trkpt lat="44.7675433" lon="7.8558633"><ele>328.79999999999995</ele><time>2026-04-11T08:44:26.06Z</time></trkpt><trkpt lat="44.7674367" lon="7.8557883"><ele>329.6</ele><time>2026-04-11T08:44:28.059Z</time></trkpt><trkpt lat="44.7673767" lon="7.85575"><ele>330.4</ele><time>2026-04-11T08:44:29.058Z</time></trkpt><trkpt lat="44.767295" lon="7.8556667"><ele>331.20000000000005</ele><time>2026-04-11T08:44:31.06Z</time></trkpt><trkpt lat="44.7672717" lon="7.8555633"><ele>332.0</ele><time>2026-04-11T08:44:33.06Z</time></trkpt><trkpt lat="44.76726" lon="7.855425"><ele>332.0</ele><time>2026-04-11T08:44:35.058Z</time></trkpt><trkpt lat="44.7672617" lon="7.855265"><ele>332.0</ele><time>2026-04-11T08:44:37.062Z</time></trkpt><trkpt lat="44.7672517" lon="7.8550983"><ele>332.0</ele><time>2026-04-11T08:44:39.059Z</time></trkpt><trkpt lat="44.7672767" lon="7.85493"><ele>332.0</ele><time>2026-04-11T08:44:41.059Z</time></trkpt><trkpt lat="44.767295" lon="7.854845"><ele>332.0</ele><time>2026-04-11T08:44:42.06Z</time></trkpt><trkpt lat="44.767385" lon="7.8547283"><ele>331.7142857142857</ele><time>2026-04-11T08:44:44.06Z</time></trkpt><trkpt lat="44.7674367" lon="7.85467"><ele>331.42857142857144</ele><time>2026-04-11T08:44:45.06Z</time></trkpt><trkpt lat="44.7674883" lon="7.854605"><ele>331.14285714285717</ele><time>2026-04-11T08:44:46.059Z</time></trkpt><trkpt lat="44.7675383" lon="7.8545367"><ele>330.8571428571429</ele><time>2026-04-11T08:44:47.058Z</time></trkpt><trkpt lat="44.76758" lon="7.8544583"><ele>330.57142857142856</ele><time>2026-04-11T08:44:48.058Z</time></trkpt><trkpt lat="44.7676183" lon="7.8543817"><ele>330.28571428571433</ele><time>2026-04-11T08:44:49.061Z</time></trkpt><trkpt lat="44.767665" lon="7.85431"><ele>330.0</ele><time>2026-04-11T08:44:50.061Z</time></trkpt><trkpt lat="44.767715" lon="7.8542383"><ele>329.28571428571433</ele><time>2026-04-11T08:44:51.059Z</time></trkpt><trkpt lat="44.76777" lon="7.8541767"><ele>328.57142857142856</ele><time>2026-04-11T08:44:52.057Z</time></trkpt><trkpt lat="44.7678283" lon="7.854115"><ele>327.8571428571429</ele><time>2026-04-11T08:44:53.059Z</time></trkpt><trkpt lat="44.7678867" lon="7.8540567"><ele>327.14285714285717</ele><time>2026-04-11T08:44:54.059Z</time></trkpt><trkpt lat="44.7679483" lon="7.8540017"><ele>326.42857142857144</ele><time>2026-04-11T08:44:55.06Z</time></trkpt><trkpt lat="44.7680133" lon="7.8539483"><ele>325.7142857142857</ele><time>2026-04-11T08:44:56.062Z</time></trkpt><trkpt lat="44.7680783" lon="7.8538967"><ele>325.0</ele><time>2026-04-11T08:44:57.06Z</time></trkpt><trkpt lat="44.7681417" lon="7.85384"><ele>325.0</ele><time>2026-04-11T08:44:58.061Z</time></trkpt><trkpt lat="44.7682017" lon="7.8537783"><ele>325.0</ele><time>2026-04-11T08:44:59.061Z</time></trkpt><trkpt lat="44.768255" lon="7.8537133"><ele>325.0</ele><time>2026-04-11T08:45:00.06Z</time></trkpt><trkpt lat="44.7683067" lon="7.85366"><ele>325.0</ele><time>2026-04-11T08:45:01.059Z</time></trkpt><trkpt lat="44.768395" lon="7.8535683"><ele>325.0</ele><time>2026-04-11T08:45:03.06Z</time></trkpt><trkpt lat="44.7684833" lon="7.8535067"><ele>325.0</ele><time>2026-04-11T08:45:05.058Z</time></trkpt><trkpt lat="44.7685867" lon="7.8534467"><ele>325.0</ele><time>2026-04-11T08:45:07.061Z</time></trkpt><trkpt lat="44.768685" lon="7.8533783"><ele>325.0</ele><time>2026-04-11T08:45:09.06Z</time></trkpt><trkpt lat="44.768755" lon="7.853275"><ele>325.0</ele><time>2026-04-11T08:45:11.061Z</time></trkpt><trkpt lat="44.76883" lon="7.8531633"><ele>325.0</ele><time>2026-04-11T08:45:13.06Z</time></trkpt><trkpt lat="44.7688933" lon="7.8530433"><ele>325.0</ele><time>2026-04-11T08:45:15.062Z</time></trkpt><trkpt lat="44.768935" lon="7.8529083"><ele>325.0</ele><time>2026-04-11T08:45:17.061Z</time></trkpt><trkpt lat="44.7689583" lon="7.8527667"><ele>325.0</ele><time>2026-04-11T08:45:19.062Z</time></trkpt><trkpt lat="44.76896" lon="7.852615"><ele>325.0</ele><time>2026-04-11T08:45:21.063Z</time></trkpt><trkpt lat="44.7689567" lon="7.85245"><ele>325.0</ele><time>2026-04-11T08:45:23.059Z</time></trkpt><trkpt lat="44.768955" lon="7.8522967"><ele>325.0</ele><time>2026-04-11T08:45:25.062Z</time></trkpt><trkpt lat="44.76898" lon="7.8521683"><ele>324.5</ele><time>2026-04-11T08:45:27.062Z</time></trkpt><trkpt lat="44.7689917" lon="7.8520417"><ele>324.0</ele><time>2026-04-11T08:45:29.059Z</time></trkpt><trkpt lat="44.7689767" lon="7.8519217"><ele>323.5</ele><time>2026-04-11T08:45:31.06Z</time></trkpt><trkpt lat="44.76896" lon="7.8518083"><ele>323.0</ele><time>2026-04-11T08:45:33.062Z</time></trkpt><trkpt lat="44.76895" lon="7.851685"><ele>322.5</ele><time>2026-04-11T08:45:35.061Z</time></trkpt><trkpt lat="44.7689283" lon="7.8515783"><ele>322.0</ele><time>2026-04-11T08:45:37.061Z</time></trkpt><trkpt lat="44.7689067" lon="7.8514667"><ele>322.0</ele><time>2026-04-11T08:45:39.06Z</time></trkpt><trkpt lat="44.768875" lon="7.8513567"><ele>322.0</ele><time>2026-04-11T08:45:41.06Z</time></trkpt><trkpt lat="44.7688517" lon="7.8512467"><ele>322.0</ele><time>2026-04-11T08:45:43.057Z</time></trkpt><trkpt lat="44.7688283" lon="7.85115"><ele>322.0</ele><time>2026-04-11T08:45:45.059Z</time></trkpt><trkpt lat="44.768805" lon="7.8510617"><ele>322.0</ele><time>2026-04-11T08:45:47.059Z</time></trkpt><trkpt lat="44.7687833" lon="7.8509767"><ele>322.0</ele><time>2026-04-11T08:45:49.058Z</time></trkpt><trkpt lat="44.7687667" lon="7.850855"><ele>322.0</ele><time>2026-04-11T08:45:52.06Z</time></trkpt><trkpt lat="44.7687367" lon="7.8507317"><ele>322.0</ele><time>2026-04-11T08:45:55.061Z</time></trkpt><trkpt lat="44.768715" lon="7.8506467"><ele>322.0</ele><time>2026-04-11T08:45:57.059Z</time></trkpt><trkpt lat="44.7687017" lon="7.85056"><ele>322.0</ele><time>2026-04-11T08:45:59.059Z</time></trkpt><trkpt lat="44.768725" lon="7.85047"><ele>322.0</ele><time>2026-04-11T08:46:01.061Z</time></trkpt><trkpt lat="44.768785" lon="7.85041"><ele>322.0</ele><time>2026-04-11T08:46:03.061Z</time></trkpt><trkpt lat="44.7688617" lon="7.8503733"><ele>322.0</ele><time>2026-04-11T08:46:05.059Z</time></trkpt><trkpt lat="44.7689433" lon="7.850335"><ele>322.0</ele><time>2026-04-11T08:46:07.06Z</time></trkpt><trkpt lat="44.76903" lon="7.850295"><ele>322.0</ele><time>2026-04-11T08:46:09.06Z</time></trkpt><trkpt lat="44.76912" lon="7.8502467"><ele>322.0</ele><time>2026-04-11T08:46:11.061Z</time></trkpt><trkpt lat="44.76922" lon="7.850185"><ele>322.0</ele><time>2026-04-11T08:46:13.06Z</time></trkpt><trkpt lat="44.76933" lon="7.8501183"><ele>322.0</ele><time>2026-04-11T08:46:15.059Z</time></trkpt><trkpt lat="44.76944" lon="7.85005"><ele>321.75</ele><time>2026-04-11T08:46:17.059Z</time></trkpt><trkpt lat="44.7695483" lon="7.84997"><ele>321.5</ele><time>2026-04-11T08:46:19.06Z</time></trkpt><trkpt lat="44.76966" lon="7.84989"><ele>321.25</ele><time>2026-04-11T08:46:21.061Z</time></trkpt><trkpt lat="44.7697483" lon="7.8497733"><ele>321.0</ele><time>2026-04-11T08:46:23.061Z</time></trkpt><trkpt lat="44.7697717" lon="7.849605"><ele>321.0</ele><time>2026-04-11T08:46:25.06Z</time></trkpt><trkpt lat="44.769755" lon="7.8494517"><ele>321.0</ele><time>2026-04-11T08:46:27.061Z</time></trkpt><trkpt lat="44.7697383" lon="7.8493"><ele>321.0</ele><time>2026-04-11T08:46:29.061Z</time></trkpt><trkpt lat="44.76972" lon="7.8491617"><ele>321.0</ele><time>2026-04-11T08:46:31.061Z</time></trkpt><trkpt lat="44.7697067" lon="7.849025"><ele>321.0</ele><time>2026-04-11T08:46:33.06Z</time></trkpt><trkpt lat="44.7696933" lon="7.8488883"><ele>321.0</ele><time>2026-04-11T08:46:35.062Z</time></trkpt><trkpt lat="44.76968" lon="7.8487517"><ele>321.0</ele><time>2026-04-11T08:46:37.061Z</time></trkpt><trkpt lat="44.7696667" lon="7.8486133"><ele>321.0</ele><time>2026-04-11T08:46:39.061Z</time></trkpt><trkpt lat="44.769655" lon="7.848475"><ele>321.0</ele><time>2026-04-11T08:46:41.06Z</time></trkpt><trkpt lat="44.7696417" lon="7.848345"><ele>321.0</ele><time>2026-04-11T08:46:43.058Z</time></trkpt><trkpt lat="44.7696367" lon="7.8482233"><ele>321.6</ele><time>2026-04-11T08:46:45.061Z</time></trkpt><trkpt lat="44.76968" lon="7.848135"><ele>322.20000000000005</ele><time>2026-04-11T08:46:47.058Z</time></trkpt><trkpt lat="44.7697683" lon="7.848115"><ele>322.79999999999995</ele><time>2026-04-11T08:46:49.058Z</time></trkpt><trkpt lat="44.76988" lon="7.8481317"><ele>323.4</ele><time>2026-04-11T08:46:51.059Z</time></trkpt><trkpt lat="44.7700017" lon="7.84814"><ele>324.0</ele><time>2026-04-11T08:46:53.058Z</time></trkpt><trkpt lat="44.770065" lon="7.8481417"><ele>324.0</ele><time>2026-04-11T08:46:54.061Z</time></trkpt><trkpt lat="44.7701317" lon="7.8481417"><ele>324.0</ele><time>2026-04-11T08:46:55.058Z</time></trkpt><trkpt lat="44.7701983" lon="7.84814"><ele>324.0</ele><time>2026-04-11T08:46:56.06Z</time></trkpt><trkpt lat="44.7702683" lon="7.8481317"><ele>324.0</ele><time>2026-04-11T08:46:57.058Z</time></trkpt><trkpt lat="44.7703383" lon="7.848125"><ele>324.0</ele><time>2026-04-11T08:46:58.058Z</time></trkpt><trkpt lat="44.7704067" lon="7.848115"><ele>324.0</ele><time>2026-04-11T08:46:59.06Z</time></trkpt><trkpt lat="44.7704783" lon="7.8480983"><ele>324.0</ele><time>2026-04-11T08:47:00.06Z</time></trkpt><trkpt lat="44.7705467" lon="7.8480783"><ele>324.0</ele><time>2026-04-11T08:47:01.06Z</time></trkpt><trkpt lat="44.770615" lon="7.848055"><ele>324.0</ele><time>2026-04-11T08:47:02.062Z</time></trkpt><trkpt lat="44.77068" lon="7.84803"><ele>324.0</ele><time>2026-04-11T08:47:03.06Z</time></trkpt><trkpt lat="44.7707467" lon="7.8480033"><ele>324.0</ele><time>2026-04-11T08:47:04.061Z</time></trkpt><trkpt lat="44.7708133" lon="7.8479717"><ele>324.0</ele><time>2026-04-11T08:47:05.058Z</time></trkpt><trkpt lat="44.7708783" lon="7.8479367"><ele>324.0</ele><time>2026-04-11T08:47:06.061Z</time></trkpt><trkpt lat="44.7709417" lon="7.8479033"><ele>324.0</ele><time>2026-04-11T08:47:07.061Z</time></trkpt><trkpt lat="44.771" lon="7.8478667"><ele>324.6</ele><time>2026-04-11T08:47:08.061Z</time></trkpt><trkpt lat="44.77106" lon="7.8478283"><ele>325.2</ele><time>2026-04-11T08:47:09.061Z</time></trkpt><trkpt lat="44.7711183" lon="7.8477883"><ele>325.8</ele><time>2026-04-11T08:47:10.059Z</time></trkpt><trkpt lat="44.77122" lon="7.8476967"><ele>326.40000000000003</ele><time>2026-04-11T08:47:12.06Z</time></trkpt><trkpt lat="44.7713233" lon="7.8475983"><ele>327.0</ele><time>2026-04-11T08:47:14.06Z</time></trkpt><trkpt lat="44.7714283" lon="7.847505"><ele>327.5</ele><time>2026-04-11T08:47:16.06Z</time></trkpt><trkpt lat="44.7714833" lon="7.8474583"><ele>328.0</ele><time>2026-04-11T08:47:17.06Z</time></trkpt><trkpt lat="44.7715367" lon="7.8474083"><ele>328.5</ele><time>2026-04-11T08:47:18.06Z</time></trkpt><trkpt lat="44.7715883" lon="7.8473567"><ele>329.0</ele><time>2026-04-11T08:47:19.06Z</time></trkpt><trkpt lat="44.7716417" lon="7.847305"><ele>329.5</ele><time>2026-04-11T08:47:20.06Z</time></trkpt><trkpt lat="44.771745" lon="7.847205"><ele>330.0</ele><time>2026-04-11T08:47:22.06Z</time></trkpt><trkpt lat="44.77185" lon="7.8471117"><ele>330.0</ele><time>2026-04-11T08:47:24.059Z</time></trkpt><trkpt lat="44.7719467" lon="7.8470167"><ele>330.0</ele><time>2026-04-11T08:47:26.059Z</time></trkpt><trkpt lat="44.7720483" lon="7.8469267"><ele>330.0</ele><time>2026-04-11T08:47:28.06Z</time></trkpt><trkpt lat="44.7721483" lon="7.846835"><ele>330.0</ele><time>2026-04-11T08:47:30.061Z</time></trkpt><trkpt lat="44.772245" lon="7.8467417"><ele>330.0</ele><time>2026-04-11T08:47:32.06Z</time></trkpt><trkpt lat="44.772345" lon="7.84665"><ele>330.0</ele><time>2026-04-11T08:47:34.058Z</time></trkpt><trkpt lat="44.7724467" lon="7.846555"><ele>330.0</ele><time>2026-04-11T08:47:36.06Z</time></trkpt><trkpt lat="44.77255" lon="7.846455"><ele>330.0</ele><time>2026-04-11T08:47:38.059Z</time></trkpt><trkpt lat="44.7726533" lon="7.8463617"><ele>329.8333333333333</ele><time>2026-04-11T08:47:40.058Z</time></trkpt><trkpt lat="44.7727583" lon="7.846265"><ele>329.6666666666667</ele><time>2026-04-11T08:47:42.058Z</time></trkpt><trkpt lat="44.7728117" lon="7.8462167"><ele>329.5</ele><time>2026-04-11T08:47:43.059Z</time></trkpt><trkpt lat="44.7728667" lon="7.846165"><ele>329.33333333333337</ele><time>2026-04-11T08:47:44.058Z</time></trkpt><trkpt lat="44.772925" lon="7.8461117"><ele>329.1666666666667</ele><time>2026-04-11T08:47:45.057Z</time></trkpt><trkpt lat="44.7729833" lon="7.84606"><ele>329.0</ele><time>2026-04-11T08:47:46.059Z</time></trkpt><trkpt lat="44.7730433" lon="7.8460017"><ele>329.2857142857143</ele><time>2026-04-11T08:47:47.058Z</time></trkpt><trkpt lat="44.7731033" lon="7.84595"><ele>329.57142857142856</ele><time>2026-04-11T08:47:48.06Z</time></trkpt><trkpt lat="44.7731617" lon="7.845895"><ele>329.8571428571429</ele><time>2026-04-11T08:47:49.059Z</time></trkpt><trkpt lat="44.7732217" lon="7.8458417"><ele>330.1428571428571</ele><time>2026-04-11T08:47:50.058Z</time></trkpt><trkpt lat="44.7732833" lon="7.8457833"><ele>330.42857142857144</ele><time>2026-04-11T08:47:51.058Z</time></trkpt><trkpt lat="44.7733417" lon="7.8457217"><ele>330.7142857142857</ele><time>2026-04-11T08:47:52.061Z</time></trkpt><trkpt lat="44.7734017" lon="7.84566"><ele>331.0</ele><time>2026-04-11T08:47:53.059Z</time></trkpt><trkpt lat="44.77346" lon="7.8456"><ele>331.0</ele><time>2026-04-11T08:47:54.06Z</time></trkpt><trkpt lat="44.7735217" lon="7.84554"><ele>331.0</ele><time>2026-04-11T08:47:55.06Z</time></trkpt><trkpt lat="44.7735817" lon="7.8454783"><ele>331.0</ele><time>2026-04-11T08:47:56.059Z</time></trkpt><trkpt lat="44.7736417" lon="7.8454167"><ele>331.0</ele><time>2026-04-11T08:47:57.06Z</time></trkpt><trkpt lat="44.7737017" lon="7.8453567"><ele>331.0</ele><time>2026-04-11T08:47:58.061Z</time></trkpt><trkpt lat="44.77376" lon="7.8452983"><ele>331.0</ele><time>2026-04-11T08:47:59.059Z</time></trkpt><trkpt lat="44.7738217" lon="7.84524"><ele>331.0</ele><time>2026-04-11T08:48:00.06Z</time></trkpt><trkpt lat="44.7738817" lon="7.8451767"><ele>330.57142857142856</ele><time>2026-04-11T08:48:01.059Z</time></trkpt><trkpt lat="44.7739383" lon="7.84511"><ele>330.1428571428571</ele><time>2026-04-11T08:48:02.059Z</time></trkpt><trkpt lat="44.773995" lon="7.845045"><ele>329.71428571428567</ele><time>2026-04-11T08:48:03.06Z</time></trkpt><trkpt lat="44.7740533" lon="7.8449817"><ele>329.2857142857143</ele><time>2026-04-11T08:48:04.06Z</time></trkpt><trkpt lat="44.774115" lon="7.8449217"><ele>328.85714285714283</ele><time>2026-04-11T08:48:05.059Z</time></trkpt><trkpt lat="44.77418" lon="7.8448683"><ele>328.4285714285714</ele><time>2026-04-11T08:48:06.062Z</time></trkpt><trkpt lat="44.77425" lon="7.84482"><ele>328.0</ele><time>2026-04-11T08:48:07.06Z</time></trkpt><trkpt lat="44.7743183" lon="7.8447817"><ele>327.0</ele><time>2026-04-11T08:48:08.058Z</time></trkpt><trkpt lat="44.77439" lon="7.8447533"><ele>326.0</ele><time>2026-04-11T08:48:09.061Z</time></trkpt><trkpt lat="44.7744667" lon="7.8447317"><ele>325.0</ele><time>2026-04-11T08:48:10.06Z</time></trkpt><trkpt lat="44.7745417" lon="7.84472"><ele>324.0</ele><time>2026-04-11T08:48:11.058Z</time></trkpt><trkpt lat="44.77462" lon="7.844715"><ele>323.0</ele><time>2026-04-11T08:48:12.06Z</time></trkpt><trkpt lat="44.7747017" lon="7.8447117"><ele>322.0</ele><time>2026-04-11T08:48:13.061Z</time></trkpt><trkpt lat="44.7747817" lon="7.8447083"><ele>322.0</ele><time>2026-04-11T08:48:14.059Z</time></trkpt><trkpt lat="44.77487" lon="7.8447"><ele>322.0</ele><time>2026-04-11T08:48:15.06Z</time></trkpt><trkpt lat="44.7749633" lon="7.844675"><ele>322.0</ele><time>2026-04-11T08:48:16.059Z</time></trkpt><trkpt lat="44.7750533" lon="7.844635"><ele>322.0</ele><time>2026-04-11T08:48:17.061Z</time></trkpt><trkpt lat="44.7751417" lon="7.84458"><ele>322.0</ele><time>2026-04-11T08:48:18.059Z</time></trkpt><trkpt lat="44.7752283" lon="7.8445183"><ele>321.6</ele><time>2026-04-11T08:48:19.06Z</time></trkpt><trkpt lat="44.7753167" lon="7.8444533"><ele>321.20000000000005</ele><time>2026-04-11T08:48:20.06Z</time></trkpt><trkpt lat="44.7754017" lon="7.844385"><ele>320.8</ele><time>2026-04-11T08:48:21.059Z</time></trkpt><trkpt lat="44.7754867" lon="7.8443167"><ele>320.4</ele><time>2026-04-11T08:48:22.06Z</time></trkpt><trkpt lat="44.7755717" lon="7.8442483"><ele>320.0</ele><time>2026-04-11T08:48:23.059Z</time></trkpt><trkpt lat="44.7756617" lon="7.8441783"><ele>320.0</ele><time>2026-04-11T08:48:24.061Z</time></trkpt><trkpt lat="44.7757433" lon="7.8441083"><ele>320.0</ele><time>2026-04-11T08:48:25.059Z</time></trkpt><trkpt lat="44.7758283" lon="7.844045"><ele>320.0</ele><time>2026-04-11T08:48:26.06Z</time></trkpt><trkpt lat="44.7759133" lon="7.8439783"><ele>320.0</ele><time>2026-04-11T08:48:27.061Z</time></trkpt><trkpt lat="44.7760017" lon="7.8439117"><ele>320.0</ele><time>2026-04-11T08:48:28.06Z</time></trkpt><trkpt lat="44.7760933" lon="7.8438483"><ele>318.6</ele><time>2026-04-11T08:48:29.059Z</time></trkpt><trkpt lat="44.776185" lon="7.843775"><ele>317.2</ele><time>2026-04-11T08:48:30.061Z</time></trkpt><trkpt lat="44.7762733" lon="7.8437033"><ele>315.8</ele><time>2026-04-11T08:48:31.061Z</time></trkpt><trkpt lat="44.7763617" lon="7.8436283"><ele>314.4</ele><time>2026-04-11T08:48:32.06Z</time></trkpt><trkpt lat="44.7764533" lon="7.8435517"><ele>313.0</ele><time>2026-04-11T08:48:33.06Z</time></trkpt><trkpt lat="44.7765483" lon="7.8434767"><ele>313.2</ele><time>2026-04-11T08:48:34.059Z</time></trkpt><trkpt lat="44.7766417" lon="7.843405"><ele>313.4</ele><time>2026-04-11T08:48:35.059Z</time></trkpt><trkpt lat="44.77674" lon="7.8433367"><ele>313.59999999999997</ele><time>2026-04-11T08:48:36.06Z</time></trkpt><trkpt lat="44.7768383" lon="7.8432667"><ele>313.8</ele><time>2026-04-11T08:48:37.06Z</time></trkpt><trkpt lat="44.7769333" lon="7.8431933"><ele>314.0</ele><time>2026-04-11T08:48:38.058Z</time></trkpt><trkpt lat="44.7770317" lon="7.8431183"><ele>312.59999999999997</ele><time>2026-04-11T08:48:39.06Z</time></trkpt><trkpt lat="44.7771267" lon="7.8430383"><ele>311.2</ele><time>2026-04-11T08:48:40.061Z</time></trkpt><trkpt lat="44.7772183" lon="7.842955"><ele>309.79999999999995</ele><time>2026-04-11T08:48:41.059Z</time></trkpt><trkpt lat="44.7773067" lon="7.8428667"><ele>308.4</ele><time>2026-04-11T08:48:42.059Z</time></trkpt><trkpt lat="44.7773933" lon="7.8427733"><ele>307.0</ele><time>2026-04-11T08:48:43.059Z</time></trkpt><trkpt lat="44.777475" lon="7.8426833"><ele>307.2</ele><time>2026-04-11T08:48:44.058Z</time></trkpt><trkpt lat="44.7775533" lon="7.8425933"><ele>307.4</ele><time>2026-04-11T08:48:45.062Z</time></trkpt><trkpt lat="44.7776267" lon="7.842505"><ele>307.6</ele><time>2026-04-11T08:48:46.058Z</time></trkpt><trkpt lat="44.7776983" lon="7.8424217"><ele>307.8</ele><time>2026-04-11T08:48:47.058Z</time></trkpt><trkpt lat="44.777765" lon="7.8423383"><ele>308.0</ele><time>2026-04-11T08:48:48.06Z</time></trkpt><trkpt lat="44.7778283" lon="7.84226"><ele>308.6666666666667</ele><time>2026-04-11T08:48:49.06Z</time></trkpt><trkpt lat="44.7778883" lon="7.842185"><ele>309.33333333333337</ele><time>2026-04-11T08:48:50.06Z</time></trkpt><trkpt lat="44.7779467" lon="7.842115"><ele>310.0</ele><time>2026-04-11T08:48:51.061Z</time></trkpt><trkpt lat="44.778005" lon="7.8420517"><ele>310.6666666666667</ele><time>2026-04-11T08:48:52.06Z</time></trkpt><trkpt lat="44.7780567" lon="7.8419917"><ele>311.3333333333333</ele><time>2026-04-11T08:48:53.059Z</time></trkpt><trkpt lat="44.7781483" lon="7.841885"><ele>312.0</ele><time>2026-04-11T08:48:55.061Z</time></trkpt><trkpt lat="44.778235" lon="7.8417983"><ele>312.0</ele><time>2026-04-11T08:48:57.06Z</time></trkpt><trkpt lat="44.7783217" lon="7.84171"><ele>312.0</ele><time>2026-04-11T08:48:59.061Z</time></trkpt><trkpt lat="44.77842" lon="7.8416433"><ele>312.0</ele><time>2026-04-11T08:49:01.057Z</time></trkpt><trkpt lat="44.7785183" lon="7.8416117"><ele>312.0</ele><time>2026-04-11T08:49:03.059Z</time></trkpt><trkpt lat="44.7786133" lon="7.841625"><ele>312.0</ele><time>2026-04-11T08:49:05.058Z</time></trkpt><trkpt lat="44.7786967" lon="7.8416867"><ele>314.0</ele><time>2026-04-11T08:49:07.06Z</time></trkpt><trkpt lat="44.778765" lon="7.8417783"><ele>316.0</ele><time>2026-04-11T08:49:09.059Z</time></trkpt><trkpt lat="44.7788083" lon="7.8419"><ele>318.0</ele><time>2026-04-11T08:49:11.059Z</time></trkpt><trkpt lat="44.778835" lon="7.8420233"><ele>320.0</ele><time>2026-04-11T08:49:13.059Z</time></trkpt><trkpt lat="44.7788667" lon="7.8421433"><ele>322.0</ele><time>2026-04-11T08:49:15.062Z</time></trkpt><trkpt lat="44.7789133" lon="7.84227"><ele>322.3333333333333</ele><time>2026-04-11T08:49:17.061Z</time></trkpt><trkpt lat="44.7789767" lon="7.8423717"><ele>322.66666666666663</ele><time>2026-04-11T08:49:19.061Z</time></trkpt><trkpt lat="44.7790583" lon="7.8424383"><ele>323.0</ele><time>2026-04-11T08:49:21.061Z</time></trkpt><trkpt lat="44.7791383" lon="7.842485"><ele>323.3333333333333</ele><time>2026-04-11T08:49:23.059Z</time></trkpt><trkpt lat="44.7792133" lon="7.8425083"><ele>323.6666666666667</ele><time>2026-04-11T08:49:25.059Z</time></trkpt><trkpt lat="44.779285" lon="7.8424933"><ele>324.0</ele><time>2026-04-11T08:49:27.06Z</time></trkpt><trkpt lat="44.77937" lon="7.8424733"><ele>324.4</ele><time>2026-04-11T08:49:29.06Z</time></trkpt><trkpt lat="44.7794633" lon="7.8424417"><ele>324.79999999999995</ele><time>2026-04-11T08:49:31.061Z</time></trkpt><trkpt lat="44.7795533" lon="7.8424083"><ele>325.20000000000005</ele><time>2026-04-11T08:49:33.058Z</time></trkpt><trkpt lat="44.779655" lon="7.8423617"><ele>325.6</ele><time>2026-04-11T08:49:35.058Z</time></trkpt><trkpt lat="44.7797517" lon="7.84231"><ele>326.0</ele><time>2026-04-11T08:49:37.058Z</time></trkpt><trkpt lat="44.77984" lon="7.8422467"><ele>326.0</ele><time>2026-04-11T08:49:39.059Z</time></trkpt><trkpt lat="44.7799217" lon="7.842175"><ele>326.0</ele><time>2026-04-11T08:49:41.059Z</time></trkpt><trkpt lat="44.7800067" lon="7.8421"><ele>326.0</ele><time>2026-04-11T08:49:43.062Z</time></trkpt><trkpt lat="44.78009" lon="7.8420233"><ele>326.0</ele><time>2026-04-11T08:49:45.061Z</time></trkpt><trkpt lat="44.7801683" lon="7.8419333"><ele>326.0</ele><time>2026-04-11T08:49:47.06Z</time></trkpt><trkpt lat="44.780245" lon="7.8418367"><ele>325.5</ele><time>2026-04-11T08:49:49.059Z</time></trkpt><trkpt lat="44.780325" lon="7.8417417"><ele>325.0</ele><time>2026-04-11T08:49:51.06Z</time></trkpt><trkpt lat="44.7804117" lon="7.84164"><ele>324.5</ele><time>2026-04-11T08:49:53.059Z</time></trkpt><trkpt lat="44.7805" lon="7.8415333"><ele>324.0</ele><time>2026-04-11T08:49:55.062Z</time></trkpt><trkpt lat="44.78059" lon="7.84142"><ele>324.0</ele><time>2026-04-11T08:49:57.062Z</time></trkpt><trkpt lat="44.780685" lon="7.8413233"><ele>324.0</ele><time>2026-04-11T08:49:59.06Z</time></trkpt><trkpt lat="44.780795" lon="7.8412583"><ele>324.0</ele><time>2026-04-11T08:50:01.06Z</time></trkpt><trkpt lat="44.7809183" lon="7.841245"><ele>324.0</ele><time>2026-04-11T08:50:03.059Z</time></trkpt><trkpt lat="44.7809817" lon="7.841265"><ele>324.0</ele><time>2026-04-11T08:50:04.059Z</time></trkpt><trkpt lat="44.781045" lon="7.8413"><ele>323.3333333333333</ele><time>2026-04-11T08:50:05.06Z</time></trkpt><trkpt lat="44.7811033" lon="7.8413567"><ele>322.6666666666667</ele><time>2026-04-11T08:50:06.059Z</time></trkpt><trkpt lat="44.7811533" lon="7.8414217"><ele>322.0</ele><time>2026-04-11T08:50:07.059Z</time></trkpt><trkpt lat="44.7811967" lon="7.8415067"><ele>321.33333333333337</ele><time>2026-04-11T08:50:08.06Z</time></trkpt><trkpt lat="44.7812283" lon="7.8416117"><ele>320.6666666666667</ele><time>2026-04-11T08:50:09.061Z</time></trkpt><trkpt lat="44.7812567" lon="7.8417283"><ele>320.0</ele><time>2026-04-11T08:50:10.06Z</time></trkpt><trkpt lat="44.781285" lon="7.8418467"><ele>319.2</ele><time>2026-04-11T08:50:11.06Z</time></trkpt><trkpt lat="44.7813133" lon="7.8419717"><ele>318.4</ele><time>2026-04-11T08:50:12.059Z</time></trkpt><trkpt lat="44.78134" lon="7.8421017"><ele>317.6</ele><time>2026-04-11T08:50:13.06Z</time></trkpt><trkpt lat="44.781365" lon="7.8422367"><ele>316.8</ele><time>2026-04-11T08:50:14.06Z</time></trkpt><trkpt lat="44.7814" lon="7.84237"><ele>316.0</ele><time>2026-04-11T08:50:15.061Z</time></trkpt><trkpt lat="44.78145" lon="7.8425"><ele>316.0</ele><time>2026-04-11T08:50:16.06Z</time></trkpt><trkpt lat="44.781525" lon="7.842625"><ele>316.0</ele><time>2026-04-11T08:50:17.06Z</time></trkpt><trkpt lat="44.7816167" lon="7.8427167"><ele>316.0</ele><time>2026-04-11T08:50:18.061Z</time></trkpt><trkpt lat="44.7817317" lon="7.8427683"><ele>316.0</ele><time>2026-04-11T08:50:19.063Z</time></trkpt><trkpt lat="44.7818517" lon="7.8427717"><ele>314.75</ele><time>2026-04-11T08:50:20.06Z</time></trkpt><trkpt lat="44.7819667" lon="7.842725"><ele>313.5</ele><time>2026-04-11T08:50:21.06Z</time></trkpt><trkpt lat="44.7820717" lon="7.8426567"><ele>312.25</ele><time>2026-04-11T08:50:22.062Z</time></trkpt><trkpt lat="44.7821733" lon="7.8425833"><ele>311.0</ele><time>2026-04-11T08:50:23.058Z</time></trkpt><trkpt lat="44.7822683" lon="7.8425067"><ele>311.0</ele><time>2026-04-11T08:50:24.061Z</time></trkpt><trkpt lat="44.7823683" lon="7.8424383"><ele>311.0</ele><time>2026-04-11T08:50:25.059Z</time></trkpt><trkpt lat="44.7824733" lon="7.8423917"><ele>311.0</ele><time>2026-04-11T08:50:26.06Z</time></trkpt><trkpt lat="44.7825833" lon="7.8423533"><ele>311.0</ele><time>2026-04-11T08:50:27.062Z</time></trkpt><trkpt lat="44.7826983" lon="7.8423317"><ele>309.0</ele><time>2026-04-11T08:50:28.059Z</time></trkpt><trkpt lat="44.7828167" lon="7.842315"><ele>307.0</ele><time>2026-04-11T08:50:29.061Z</time></trkpt><trkpt lat="44.7829383" lon="7.8423167"><ele>305.0</ele><time>2026-04-11T08:50:30.06Z</time></trkpt><trkpt lat="44.7830567" lon="7.8423367"><ele>303.0</ele><time>2026-04-11T08:50:31.06Z</time></trkpt><trkpt lat="44.7831817" lon="7.8423733"><ele>303.0</ele><time>2026-04-11T08:50:32.06Z</time></trkpt><trkpt lat="44.783305" lon="7.84242"><ele>303.0</ele><time>2026-04-11T08:50:33.063Z</time></trkpt><trkpt lat="44.78342" lon="7.84248"><ele>303.0</ele><time>2026-04-11T08:50:34.059Z</time></trkpt><trkpt lat="44.78353" lon="7.8425533"><ele>303.0</ele><time>2026-04-11T08:50:35.06Z</time></trkpt><trkpt lat="44.7836367" lon="7.8426433"><ele>301.25</ele><time>2026-04-11T08:50:36.06Z</time></trkpt><trkpt lat="44.7837367" lon="7.8427467"><ele>299.5</ele><time>2026-04-11T08:50:37.061Z</time></trkpt><trkpt lat="44.7838333" lon="7.8428567"><ele>297.75</ele><time>2026-04-11T08:50:38.061Z</time></trkpt><trkpt lat="44.78393" lon="7.84297"><ele>296.0</ele><time>2026-04-11T08:50:39.062Z</time></trkpt><trkpt lat="44.7840267" lon="7.8430783"><ele>296.0</ele><time>2026-04-11T08:50:40.061Z</time></trkpt><trkpt lat="44.7841217" lon="7.8431817"><ele>296.0</ele><time>2026-04-11T08:50:41.06Z</time></trkpt><trkpt lat="44.7842133" lon="7.8432783"><ele>296.0</ele><time>2026-04-11T08:50:42.061Z</time></trkpt><trkpt lat="44.7842967" lon="7.8433767"><ele>296.0</ele><time>2026-04-11T08:50:43.06Z</time></trkpt><trkpt lat="44.7843733" lon="7.8434783"><ele>296.0</ele><time>2026-04-11T08:50:44.059Z</time></trkpt><trkpt lat="44.7844467" lon="7.84358"><ele>296.0</ele><time>2026-04-11T08:50:45.062Z</time></trkpt><trkpt lat="44.78452" lon="7.8436767"><ele>296.0</ele><time>2026-04-11T08:50:46.059Z</time></trkpt><trkpt lat="44.7845883" lon="7.8437633"><ele>296.0</ele><time>2026-04-11T08:50:47.06Z</time></trkpt><trkpt lat="44.7846533" lon="7.8438417"><ele>296.0</ele><time>2026-04-11T08:50:48.061Z</time></trkpt><trkpt lat="44.7847183" lon="7.8439183"><ele>296.0</ele><time>2026-04-11T08:50:49.06Z</time></trkpt><trkpt lat="44.7847767" lon="7.8439917"><ele>296.0</ele><time>2026-04-11T08:50:50.059Z</time></trkpt><trkpt lat="44.784835" lon="7.8440633"><ele>296.0</ele><time>2026-04-11T08:50:51.064Z</time></trkpt><trkpt lat="44.78489" lon="7.8441383"><ele>296.0</ele><time>2026-04-11T08:50:52.061Z</time></trkpt><trkpt lat="44.784945" lon="7.8442117"><ele>296.0</ele><time>2026-04-11T08:50:53.059Z</time></trkpt><trkpt lat="44.7849983" lon="7.8442833"><ele>296.0</ele><time>2026-04-11T08:50:54.061Z</time></trkpt><trkpt lat="44.7850483" lon="7.8443533"><ele>296.0</ele><time>2026-04-11T08:50:55.059Z</time></trkpt><trkpt lat="44.7851" lon="7.84442"><ele>296.0</ele><time>2026-04-11T08:50:56.059Z</time></trkpt><trkpt lat="44.78515" lon="7.8444817"><ele>296.0</ele><time>2026-04-11T08:50:57.061Z</time></trkpt><trkpt lat="44.7852417" lon="7.8445967"><ele>296.2</ele><time>2026-04-11T08:50:59.06Z</time></trkpt><trkpt lat="44.7853267" lon="7.844695"><ele>296.40000000000003</ele><time>2026-04-11T08:51:01.061Z</time></trkpt><trkpt lat="44.7853967" lon="7.84478"><ele>296.6</ele><time>2026-04-11T08:51:03.062Z</time></trkpt><trkpt lat="44.785465" lon="7.8448283"><ele>296.8</ele><time>2026-04-11T08:51:05.06Z</time></trkpt><trkpt lat="44.7855483" lon="7.844795"><ele>297.0</ele><time>2026-04-11T08:51:07.06Z</time></trkpt><trkpt lat="44.785615" lon="7.8446683"><ele>297.0</ele><time>2026-04-11T08:51:09.061Z</time></trkpt><trkpt lat="44.7856567" lon="7.84451"><ele>297.0</ele><time>2026-04-11T08:51:11.059Z</time></trkpt><trkpt lat="44.7856783" lon="7.84442"><ele>297.0</ele><time>2026-04-11T08:51:12.059Z</time></trkpt><trkpt lat="44.7856983" lon="7.8443267"><ele>297.0</ele><time>2026-04-11T08:51:13.058Z</time></trkpt><trkpt lat="44.7857217" lon="7.8442317"><ele>297.0</ele><time>2026-04-11T08:51:14.061Z</time></trkpt><trkpt lat="44.785745" lon="7.844135"><ele>297.0</ele><time>2026-04-11T08:51:15.061Z</time></trkpt><trkpt lat="44.7857667" lon="7.8440383"><ele>296.7142857142857</ele><time>2026-04-11T08:51:16.06Z</time></trkpt><trkpt lat="44.78579" lon="7.8439417"><ele>296.42857142857144</ele><time>2026-04-11T08:51:17.062Z</time></trkpt><trkpt lat="44.785815" lon="7.8438433"><ele>296.14285714285717</ele><time>2026-04-11T08:51:18.062Z</time></trkpt><trkpt lat="44.7858383" lon="7.843745"><ele>295.8571428571429</ele><time>2026-04-11T08:51:19.061Z</time></trkpt><trkpt lat="44.78586" lon="7.8436467"><ele>295.57142857142856</ele><time>2026-04-11T08:51:20.06Z</time></trkpt><trkpt lat="44.7858817" lon="7.8435517"><ele>295.28571428571433</ele><time>2026-04-11T08:51:21.06Z</time></trkpt><trkpt lat="44.7859017" lon="7.8434583"><ele>295.0</ele><time>2026-04-11T08:51:22.059Z</time></trkpt><trkpt lat="44.7859217" lon="7.843365"><ele>294.8571428571429</ele><time>2026-04-11T08:51:23.059Z</time></trkpt><trkpt lat="44.7859417" lon="7.843275"><ele>294.7142857142857</ele><time>2026-04-11T08:51:24.058Z</time></trkpt><trkpt lat="44.7859633" lon="7.843185"><ele>294.57142857142856</ele><time>2026-04-11T08:51:25.06Z</time></trkpt><trkpt lat="44.785985" lon="7.8430917"><ele>294.42857142857144</ele><time>2026-04-11T08:51:26.06Z</time></trkpt><trkpt lat="44.7860083" lon="7.8429967"><ele>294.2857142857143</ele><time>2026-04-11T08:51:27.061Z</time></trkpt><trkpt lat="44.7860333" lon="7.8429"><ele>294.14285714285717</ele><time>2026-04-11T08:51:28.062Z</time></trkpt><trkpt lat="44.7860583" lon="7.8428033"><ele>294.0</ele><time>2026-04-11T08:51:29.059Z</time></trkpt><trkpt lat="44.7860817" lon="7.8427067"><ele>294.57142857142856</ele><time>2026-04-11T08:51:30.06Z</time></trkpt><trkpt lat="44.7861067" lon="7.84261"><ele>295.1428571428571</ele><time>2026-04-11T08:51:31.062Z</time></trkpt><trkpt lat="44.7861283" lon="7.8425117"><ele>295.7142857142857</ele><time>2026-04-11T08:51:32.061Z</time></trkpt><trkpt lat="44.78615" lon="7.8424133"><ele>296.2857142857143</ele><time>2026-04-11T08:51:33.062Z</time></trkpt><trkpt lat="44.78617" lon="7.8423183"><ele>296.85714285714283</ele><time>2026-04-11T08:51:34.059Z</time></trkpt><trkpt lat="44.78619" lon="7.842225"><ele>297.42857142857144</ele><time>2026-04-11T08:51:35.059Z</time></trkpt><trkpt lat="44.7862117" lon="7.8421333"><ele>298.0</ele><time>2026-04-11T08:51:36.061Z</time></trkpt><trkpt lat="44.7862317" lon="7.8420433"><ele>298.0</ele><time>2026-04-11T08:51:37.06Z</time></trkpt><trkpt lat="44.7862533" lon="7.8419533"><ele>298.0</ele><time>2026-04-11T08:51:38.06Z</time></trkpt><trkpt lat="44.786275" lon="7.841865"><ele>298.0</ele><time>2026-04-11T08:51:39.06Z</time></trkpt><trkpt lat="44.786295" lon="7.8417767"><ele>298.0</ele><time>2026-04-11T08:51:40.06Z</time></trkpt><trkpt lat="44.786315" lon="7.84169"><ele>298.0</ele><time>2026-04-11T08:51:41.06Z</time></trkpt><trkpt lat="44.78635" lon="7.841525"><ele>298.0</ele><time>2026-04-11T08:51:43.059Z</time></trkpt><trkpt lat="44.7864033" lon="7.8414317"><ele>297.8</ele><time>2026-04-11T08:51:45.06Z</time></trkpt><trkpt lat="44.7864817" lon="7.8414317"><ele>297.6</ele><time>2026-04-11T08:51:47.058Z</time></trkpt><trkpt lat="44.7865533" lon="7.841485"><ele>297.4</ele><time>2026-04-11T08:51:49.062Z</time></trkpt><trkpt lat="44.7866367" lon="7.8415583"><ele>297.2</ele><time>2026-04-11T08:51:51.061Z</time></trkpt><trkpt lat="44.78672" lon="7.84164"><ele>297.0</ele><time>2026-04-11T08:51:53.061Z</time></trkpt><trkpt lat="44.7867967" lon="7.8417283"><ele>298.6</ele><time>2026-04-11T08:51:55.064Z</time></trkpt><trkpt lat="44.78688" lon="7.8418"><ele>300.2</ele><time>2026-04-11T08:51:57.062Z</time></trkpt><trkpt lat="44.78698" lon="7.8418233"><ele>301.8</ele><time>2026-04-11T08:51:59.061Z</time></trkpt><trkpt lat="44.78708" lon="7.8418083"><ele>303.4</ele><time>2026-04-11T08:52:01.06Z</time></trkpt><trkpt lat="44.787175" lon="7.841785"><ele>305.0</ele><time>2026-04-11T08:52:03.06Z</time></trkpt><trkpt lat="44.78727" lon="7.8417517"><ele>305.1666666666667</ele><time>2026-04-11T08:52:05.058Z</time></trkpt><trkpt lat="44.78736" lon="7.84173"><ele>305.33333333333337</ele><time>2026-04-11T08:52:07.062Z</time></trkpt><trkpt lat="44.78745" lon="7.8417017"><ele>305.5</ele><time>2026-04-11T08:52:09.06Z</time></trkpt><trkpt lat="44.7875367" lon="7.8416783"><ele>305.6666666666667</ele><time>2026-04-11T08:52:11.06Z</time></trkpt><trkpt lat="44.78762" lon="7.8416633"><ele>305.8333333333333</ele><time>2026-04-11T08:52:13.061Z</time></trkpt><trkpt lat="44.787705" lon="7.8416517"><ele>306.0</ele><time>2026-04-11T08:52:15.061Z</time></trkpt><trkpt lat="44.78779" lon="7.8416433"><ele>306.8333333333333</ele><time>2026-04-11T08:52:17.059Z</time></trkpt><trkpt lat="44.7878733" lon="7.84165"><ele>307.6666666666667</ele><time>2026-04-11T08:52:19.06Z</time></trkpt><trkpt lat="44.7879567" lon="7.84166"><ele>308.5</ele><time>2026-04-11T08:52:21.061Z</time></trkpt><trkpt lat="44.78803" lon="7.841695"><ele>309.33333333333337</ele><time>2026-04-11T08:52:23.06Z</time></trkpt><trkpt lat="44.7881067" lon="7.84174"><ele>310.1666666666667</ele><time>2026-04-11T08:52:25.061Z</time></trkpt><trkpt lat="44.7881817" lon="7.8417917"><ele>311.0</ele><time>2026-04-11T08:52:27.06Z</time></trkpt><trkpt lat="44.78826" lon="7.8418483"><ele>311.0</ele><time>2026-04-11T08:52:29.058Z</time></trkpt><trkpt lat="44.7883283" lon="7.8419183"><ele>311.0</ele><time>2026-04-11T08:52:31.06Z</time></trkpt><trkpt lat="44.7883933" lon="7.84199"><ele>311.0</ele><time>2026-04-11T08:52:33.06Z</time></trkpt><trkpt lat="44.788445" lon="7.8420633"><ele>311.0</ele><time>2026-04-11T08:52:35.058Z</time></trkpt><trkpt lat="44.7885" lon="7.84214"><ele>311.0</ele><time>2026-04-11T08:52:37.059Z</time></trkpt><trkpt lat="44.788555" lon="7.8422217"><ele>311.0</ele><time>2026-04-11T08:52:39.06Z</time></trkpt><trkpt lat="44.788605" lon="7.8423"><ele>311.5</ele><time>2026-04-11T08:52:41.06Z</time></trkpt><trkpt lat="44.7886483" lon="7.8423867"><ele>312.0</ele><time>2026-04-11T08:52:43.061Z</time></trkpt><trkpt lat="44.7887017" lon="7.8424683"><ele>312.5</ele><time>2026-04-11T08:52:45.061Z</time></trkpt><trkpt lat="44.7887483" lon="7.84255"><ele>313.0</ele><time>2026-04-11T08:52:47.059Z</time></trkpt><trkpt lat="44.7887917" lon="7.8426417"><ele>313.5</ele><time>2026-04-11T08:52:49.061Z</time></trkpt><trkpt lat="44.7888433" lon="7.8427267"><ele>314.0</ele><time>2026-04-11T08:52:51.061Z</time></trkpt><trkpt lat="44.7888883" lon="7.842815"><ele>314.0</ele><time>2026-04-11T08:52:53.06Z</time></trkpt><trkpt lat="44.7889317" lon="7.8428983"><ele>314.0</ele><time>2026-04-11T08:52:55.06Z</time></trkpt><trkpt lat="44.7889783" lon="7.8429767"><ele>314.0</ele><time>2026-04-11T08:52:57.06Z</time></trkpt><trkpt lat="44.7890317" lon="7.84306"><ele>314.0</ele><time>2026-04-11T08:52:59.059Z</time></trkpt><trkpt lat="44.789085" lon="7.84314"><ele>314.0</ele><time>2026-04-11T08:53:01.057Z</time></trkpt><trkpt lat="44.7891467" lon="7.84322"><ele>314.0</ele><time>2026-04-11T08:53:03.059Z</time></trkpt><trkpt lat="44.7892017" lon="7.8432917"><ele>313.99999999999994</ele><time>2026-04-11T08:53:05.059Z</time></trkpt><trkpt lat="44.78925" lon="7.843365"><ele>314.0</ele><time>2026-04-11T08:53:07.061Z</time></trkpt><trkpt lat="44.7892983" lon="7.843445"><ele>314.0</ele><time>2026-04-11T08:53:09.058Z</time></trkpt><trkpt lat="44.7893567" lon="7.8435167"><ele>314.0</ele><time>2026-04-11T08:53:11.061Z</time></trkpt><trkpt lat="44.7894183" lon="7.8435783"><ele>314.0</ele><time>2026-04-11T08:53:13.062Z</time></trkpt><trkpt lat="44.7894783" lon="7.843625"><ele>313.99999999999994</ele><time>2026-04-11T08:53:15.061Z</time></trkpt><trkpt lat="44.7895383" lon="7.8436717"><ele>314.0</ele><time>2026-04-11T08:53:17.059Z</time></trkpt><trkpt lat="44.7895983" lon="7.843715"><ele>314.85714285714283</ele><time>2026-04-11T08:53:19.057Z</time></trkpt><trkpt lat="44.7896617" lon="7.8437433"><ele>315.7142857142857</ele><time>2026-04-11T08:53:21.061Z</time></trkpt><trkpt lat="44.7897267" lon="7.8437583"><ele>316.57142857142856</ele><time>2026-04-11T08:53:23.058Z</time></trkpt><trkpt lat="44.7897917" lon="7.843775"><ele>317.42857142857144</ele><time>2026-04-11T08:53:25.062Z</time></trkpt><trkpt lat="44.7898633" lon="7.8437917"><ele>318.2857142857143</ele><time>2026-04-11T08:53:27.06Z</time></trkpt><trkpt lat="44.7899317" lon="7.8438067"><ele>319.1428571428571</ele><time>2026-04-11T08:53:29.06Z</time></trkpt><trkpt lat="44.7900017" lon="7.8438283"><ele>320.0</ele><time>2026-04-11T08:53:31.058Z</time></trkpt><trkpt lat="44.7900683" lon="7.843855"><ele>320.0</ele><time>2026-04-11T08:53:33.061Z</time></trkpt><trkpt lat="44.79014" lon="7.8438767"><ele>320.0</ele><time>2026-04-11T08:53:35.06Z</time></trkpt><trkpt lat="44.790215" lon="7.8438917"><ele>320.0</ele><time>2026-04-11T08:53:37.06Z</time></trkpt><trkpt lat="44.7902883" lon="7.8438917"><ele>320.0</ele><time>2026-04-11T08:53:39.063Z</time></trkpt><trkpt lat="44.7903617" lon="7.84389"><ele>320.0</ele><time>2026-04-11T08:53:41.058Z</time></trkpt><trkpt lat="44.7904383" lon="7.8438733"><ele>320.0</ele><time>2026-04-11T08:53:43.058Z</time></trkpt><trkpt lat="44.7905133" lon="7.8438433"><ele>321.0</ele><time>2026-04-11T08:53:45.061Z</time></trkpt><trkpt lat="44.7905867" lon="7.8438217"><ele>322.0</ele><time>2026-04-11T08:53:47.058Z</time></trkpt><trkpt lat="44.7906617" lon="7.8437983"><ele>323.0</ele><time>2026-04-11T08:53:49.062Z</time></trkpt><trkpt lat="44.790735" lon="7.84377"><ele>324.0</ele><time>2026-04-11T08:53:51.062Z</time></trkpt><trkpt lat="44.79081" lon="7.8437383"><ele>325.0</ele><time>2026-04-11T08:53:53.059Z</time></trkpt><trkpt lat="44.790885" lon="7.8437083"><ele>326.0</ele><time>2026-04-11T08:53:55.064Z</time></trkpt><trkpt lat="44.79096" lon="7.8436933"><ele>326.83333333333337</ele><time>2026-04-11T08:53:57.06Z</time></trkpt><trkpt lat="44.791035" lon="7.84368"><ele>327.6666666666667</ele><time>2026-04-11T08:53:59.057Z</time></trkpt><trkpt lat="44.79111" lon="7.8436833"><ele>328.5</ele><time>2026-04-11T08:54:01.062Z</time></trkpt><trkpt lat="44.79118" lon="7.843715"><ele>329.3333333333333</ele><time>2026-04-11T08:54:03.06Z</time></trkpt><trkpt lat="44.7912567" lon="7.843755"><ele>330.16666666666663</ele><time>2026-04-11T08:54:05.06Z</time></trkpt><trkpt lat="44.79133" lon="7.8437967"><ele>331.0</ele><time>2026-04-11T08:54:07.062Z</time></trkpt><trkpt lat="44.7913883" lon="7.8438683"><ele>331.0</ele><time>2026-04-11T08:54:09.06Z</time></trkpt><trkpt lat="44.7914333" lon="7.8439633"><ele>331.0</ele><time>2026-04-11T08:54:11.059Z</time></trkpt><trkpt lat="44.7914683" lon="7.8440583"><ele>331.0</ele><time>2026-04-11T08:54:13.061Z</time></trkpt><trkpt lat="44.7914983" lon="7.8441583"><ele>331.0</ele><time>2026-04-11T08:54:15.059Z</time></trkpt><trkpt lat="44.7915217" lon="7.8442667"><ele>331.0</ele><time>2026-04-11T08:54:17.06Z</time></trkpt><trkpt lat="44.7915467" lon="7.8443717"><ele>331.0</ele><time>2026-04-11T08:54:19.059Z</time></trkpt><trkpt lat="44.7915767" lon="7.8444817"><ele>330.8333333333333</ele><time>2026-04-11T08:54:21.054Z</time></trkpt><trkpt lat="44.7916067" lon="7.8445833"><ele>330.66666666666663</ele><time>2026-04-11T08:54:23.055Z</time></trkpt><trkpt lat="44.79164" lon="7.8446867"><ele>330.5</ele><time>2026-04-11T08:54:25.06Z</time></trkpt><trkpt lat="44.7916633" lon="7.84479"><ele>330.3333333333333</ele><time>2026-04-11T08:54:27.063Z</time></trkpt><trkpt lat="44.791675" lon="7.8449133"><ele>330.1666666666667</ele><time>2026-04-11T08:54:29.06Z</time></trkpt><trkpt lat="44.7917033" lon="7.84504"><ele>330.0</ele><time>2026-04-11T08:54:31.06Z</time></trkpt><trkpt lat="44.791725" lon="7.8451667"><ele>330.0</ele><time>2026-04-11T08:54:33.06Z</time></trkpt><trkpt lat="44.79175" lon="7.84531"><ele>330.0</ele><time>2026-04-11T08:54:35.059Z</time></trkpt><trkpt lat="44.7917983" lon="7.8454467"><ele>330.0</ele><time>2026-04-11T08:54:37.06Z</time></trkpt><trkpt lat="44.7918833" lon="7.845545"><ele>330.0</ele><time>2026-04-11T08:54:39.059Z</time></trkpt><trkpt lat="44.7919833" lon="7.8456067"><ele>330.0</ele><time>2026-04-11T08:54:41.06Z</time></trkpt><trkpt lat="44.7920933" lon="7.84561"><ele>330.6</ele><time>2026-04-11T08:54:43.06Z</time></trkpt><trkpt lat="44.7922033" lon="7.845565"><ele>331.2</ele><time>2026-04-11T08:54:45.06Z</time></trkpt><trkpt lat="44.7923017" lon="7.8454983"><ele>331.79999999999995</ele><time>2026-04-11T08:54:47.059Z</time></trkpt><trkpt lat="44.7923983" lon="7.8454367"><ele>332.4</ele><time>2026-04-11T08:54:49.059Z</time></trkpt><trkpt lat="44.7924917" lon="7.8453833"><ele>333.0</ele><time>2026-04-11T08:54:51.059Z</time></trkpt><trkpt lat="44.7925933" lon="7.84534"><ele>332.2</ele><time>2026-04-11T08:54:53.059Z</time></trkpt><trkpt lat="44.7926983" lon="7.8452867"><ele>331.4</ele><time>2026-04-11T08:54:55.059Z</time></trkpt><trkpt lat="44.792805" lon="7.8452417"><ele>330.59999999999997</ele><time>2026-04-11T08:54:57.06Z</time></trkpt><trkpt lat="44.7929033" lon="7.8451967"><ele>329.79999999999995</ele><time>2026-04-11T08:54:59.06Z</time></trkpt><trkpt lat="44.792985" lon="7.8451767"><ele>329.0</ele><time>2026-04-11T08:55:01.059Z</time></trkpt><trkpt lat="44.793025" lon="7.845305"><ele>329.0</ele><time>2026-04-11T08:55:04.058Z</time></trkpt><trkpt lat="44.793025" lon="7.8454567"><ele>329.0</ele><time>2026-04-11T08:55:06.058Z</time></trkpt><trkpt lat="44.79302" lon="7.84562"><ele>329.0</ele><time>2026-04-11T08:55:08.059Z</time></trkpt><trkpt lat="44.7930117" lon="7.845785"><ele>329.0</ele><time>2026-04-11T08:55:10.058Z</time></trkpt><trkpt lat="44.793" lon="7.8459483"><ele>329.2</ele><time>2026-04-11T08:55:12.058Z</time></trkpt><trkpt lat="44.7929867" lon="7.8461133"><ele>329.4</ele><time>2026-04-11T08:55:14.059Z</time></trkpt><trkpt lat="44.7929617" lon="7.8462833"><ele>329.6</ele><time>2026-04-11T08:55:16.059Z</time></trkpt><trkpt lat="44.7929467" lon="7.8463717"><ele>329.8</ele><time>2026-04-11T08:55:17.058Z</time></trkpt><trkpt lat="44.7929233" lon="7.8465367"><ele>330.0</ele><time>2026-04-11T08:55:19.057Z</time></trkpt><trkpt lat="44.792895" lon="7.8466983"><ele>330.5</ele><time>2026-04-11T08:55:21.058Z</time></trkpt><trkpt lat="44.792865" lon="7.8468633"><ele>331.0</ele><time>2026-04-11T08:55:23.057Z</time></trkpt><trkpt lat="44.7928483" lon="7.8470283"><ele>331.5</ele><time>2026-04-11T08:55:25.059Z</time></trkpt><trkpt lat="44.7928767" lon="7.8471933"><ele>332.0</ele><time>2026-04-11T08:55:27.059Z</time></trkpt><trkpt lat="44.7929633" lon="7.8473117"><ele>332.0</ele><time>2026-04-11T08:55:29.059Z</time></trkpt><trkpt lat="44.7930717" lon="7.847365"><ele>332.0</ele><time>2026-04-11T08:55:31.059Z</time></trkpt><trkpt lat="44.7931817" lon="7.847395"><ele>332.0</ele><time>2026-04-11T08:55:33.059Z</time></trkpt><trkpt lat="44.7932883" lon="7.84743"><ele>332.0</ele><time>2026-04-11T08:55:35.053Z</time></trkpt><trkpt lat="44.793395" lon="7.8474667"><ele>332.0</ele><time>2026-04-11T08:55:37.06Z</time></trkpt><trkpt lat="44.7935033" lon="7.8475033"><ele>332.40000000000003</ele><time>2026-04-11T08:55:39.06Z</time></trkpt><trkpt lat="44.7936067" lon="7.84754"><ele>332.8</ele><time>2026-04-11T08:55:41.058Z</time></trkpt><trkpt lat="44.7937133" lon="7.847575"><ele>333.2</ele><time>2026-04-11T08:55:43.057Z</time></trkpt><trkpt lat="44.7938217" lon="7.8476167"><ele>333.6</ele><time>2026-04-11T08:55:45.059Z</time></trkpt><trkpt lat="44.7939333" lon="7.8476517"><ele>334.0</ele><time>2026-04-11T08:55:47.06Z</time></trkpt><trkpt lat="44.79405" lon="7.8476917"><ele>334.0</ele><time>2026-04-11T08:55:49.06Z</time></trkpt><trkpt lat="44.7941667" lon="7.847745"><ele>334.0</ele><time>2026-04-11T08:55:51.058Z</time></trkpt><trkpt lat="44.7942883" lon="7.8477867"><ele>334.0</ele><time>2026-04-11T08:55:53.058Z</time></trkpt><trkpt lat="44.79435" lon="7.847805"><ele>334.0</ele><time>2026-04-11T08:55:54.062Z</time></trkpt><trkpt lat="44.79447" lon="7.8478467"><ele>334.0</ele><time>2026-04-11T08:55:56.06Z</time></trkpt><trkpt lat="44.7945867" lon="7.8478983"><ele>334.0</ele><time>2026-04-11T08:55:58.059Z</time></trkpt><trkpt lat="44.7947033" lon="7.8479533"><ele>334.0</ele><time>2026-04-11T08:56:00.061Z</time></trkpt><trkpt lat="44.7948167" lon="7.8480083"><ele>334.0</ele><time>2026-04-11T08:56:02.06Z</time></trkpt><trkpt lat="44.7949367" lon="7.84806"><ele>334.0</ele><time>2026-04-11T08:56:04.059Z</time></trkpt><trkpt lat="44.795" lon="7.8480883"><ele>334.0</ele><time>2026-04-11T08:56:05.059Z</time></trkpt><trkpt lat="44.7950617" lon="7.8481183"><ele>334.0</ele><time>2026-04-11T08:56:06.061Z</time></trkpt><trkpt lat="44.7951233" lon="7.84815"><ele>334.0</ele><time>2026-04-11T08:56:07.063Z</time></trkpt><trkpt lat="44.795185" lon="7.8481817"><ele>334.0</ele><time>2026-04-11T08:56:08.062Z</time></trkpt><trkpt lat="44.7952467" lon="7.8482117"><ele>334.0</ele><time>2026-04-11T08:56:09.058Z</time></trkpt><trkpt lat="44.7953067" lon="7.848245"><ele>334.0</ele><time>2026-04-11T08:56:10.062Z</time></trkpt><trkpt lat="44.7953667" lon="7.8482833"><ele>334.0</ele><time>2026-04-11T08:56:11.059Z</time></trkpt><trkpt lat="44.795425" lon="7.84832"><ele>334.0</ele><time>2026-04-11T08:56:12.06Z</time></trkpt><trkpt lat="44.7955433" lon="7.8483867"><ele>333.66666666666663</ele><time>2026-04-11T08:56:14.059Z</time></trkpt><trkpt lat="44.7956033" lon="7.848425"><ele>333.3333333333333</ele><time>2026-04-11T08:56:15.06Z</time></trkpt><trkpt lat="44.7956617" lon="7.8484617"><ele>333.0</ele><time>2026-04-11T08:56:16.059Z</time></trkpt><trkpt lat="44.79572" lon="7.8484983"><ele>332.6666666666667</ele><time>2026-04-11T08:56:17.059Z</time></trkpt><trkpt lat="44.7957783" lon="7.8485383"><ele>332.33333333333337</ele><time>2026-04-11T08:56:18.058Z</time></trkpt><trkpt lat="44.79589" lon="7.8486117"><ele>332.0</ele><time>2026-04-11T08:56:20.06Z</time></trkpt><trkpt lat="44.7959983" lon="7.8486833"><ele>331.75</ele><time>2026-04-11T08:56:22.063Z</time></trkpt><trkpt lat="44.7961033" lon="7.8487617"><ele>331.5</ele><time>2026-04-11T08:56:24.059Z</time></trkpt><trkpt lat="44.7962017" lon="7.848855"><ele>331.25</ele><time>2026-04-11T08:56:26.058Z</time></trkpt><trkpt lat="44.7962783" lon="7.84899"><ele>331.0</ele><time>2026-04-11T08:56:28.06Z</time></trkpt><trkpt lat="44.796305" lon="7.84916"><ele>331.0</ele><time>2026-04-11T08:56:30.062Z</time></trkpt><trkpt lat="44.7963" lon="7.8492533"><ele>331.0</ele><time>2026-04-11T08:56:31.059Z</time></trkpt><trkpt lat="44.796295" lon="7.8493567"><ele>331.0</ele><time>2026-04-11T08:56:32.057Z</time></trkpt><trkpt lat="44.7962883" lon="7.849465"><ele>331.0</ele><time>2026-04-11T08:56:33.058Z</time></trkpt><trkpt lat="44.7962817" lon="7.8495767"><ele>331.0</ele><time>2026-04-11T08:56:34.058Z</time></trkpt><trkpt lat="44.7962783" lon="7.8496917"><ele>331.0</ele><time>2026-04-11T08:56:35.058Z</time></trkpt><trkpt lat="44.796275" lon="7.84981"><ele>330.5</ele><time>2026-04-11T08:56:36.058Z</time></trkpt><trkpt lat="44.7962717" lon="7.8499283"><ele>330.0</ele><time>2026-04-11T08:56:37.058Z</time></trkpt><trkpt lat="44.7962683" lon="7.850045"><ele>329.5</ele><time>2026-04-11T08:56:38.06Z</time></trkpt><trkpt lat="44.7962617" lon="7.8501567"><ele>329.0</ele><time>2026-04-11T08:56:39.059Z</time></trkpt><trkpt lat="44.7962533" lon="7.8502667"><ele>328.5</ele><time>2026-04-11T08:56:40.059Z</time></trkpt><trkpt lat="44.7962417" lon="7.8503767"><ele>328.0</ele><time>2026-04-11T08:56:41.058Z</time></trkpt><trkpt lat="44.79622" lon="7.85048"><ele>327.3333333333333</ele><time>2026-04-11T08:56:42.057Z</time></trkpt><trkpt lat="44.7962117" lon="7.85059"><ele>326.66666666666663</ele><time>2026-04-11T08:56:43.068Z</time></trkpt><trkpt lat="44.79623" lon="7.8507083"><ele>326.0</ele><time>2026-04-11T08:56:44.059Z</time></trkpt><trkpt lat="44.7962817" lon="7.850805"><ele>325.3333333333333</ele><time>2026-04-11T08:56:45.058Z</time></trkpt><trkpt lat="44.7963583" lon="7.8508583"><ele>324.6666666666667</ele><time>2026-04-11T08:56:46.057Z</time></trkpt><trkpt lat="44.79644" lon="7.85087"><ele>324.0</ele><time>2026-04-11T08:56:47.059Z</time></trkpt><trkpt lat="44.7965183" lon="7.85086"><ele>324.0</ele><time>2026-04-11T08:56:48.058Z</time></trkpt><trkpt lat="44.7965933" lon="7.85084"><ele>324.0</ele><time>2026-04-11T08:56:49.063Z</time></trkpt><trkpt lat="44.7966667" lon="7.850815"><ele>324.0</ele><time>2026-04-11T08:56:50.06Z</time></trkpt><trkpt lat="44.79674" lon="7.85079"><ele>324.0</ele><time>2026-04-11T08:56:51.065Z</time></trkpt><trkpt lat="44.796815" lon="7.85077"><ele>324.0</ele><time>2026-04-11T08:56:52.06Z</time></trkpt><trkpt lat="44.7968933" lon="7.8507467"><ele>324.0</ele><time>2026-04-11T08:56:53.059Z</time></trkpt><trkpt lat="44.7969683" lon="7.8507183"><ele>324.0</ele><time>2026-04-11T08:56:54.059Z</time></trkpt><trkpt lat="44.79704" lon="7.850685"><ele>324.0</ele><time>2026-04-11T08:56:55.057Z</time></trkpt><trkpt lat="44.7971067" lon="7.850655"><ele>324.0</ele><time>2026-04-11T08:56:56.059Z</time></trkpt><trkpt lat="44.7971767" lon="7.8506283"><ele>324.0</ele><time>2026-04-11T08:56:57.06Z</time></trkpt><trkpt lat="44.7972467" lon="7.8506167"><ele>324.0</ele><time>2026-04-11T08:56:58.063Z</time></trkpt><trkpt lat="44.797315" lon="7.8506233"><ele>324.0</ele><time>2026-04-11T08:56:59.061Z</time></trkpt><trkpt lat="44.7973817" lon="7.8506483"><ele>324.0</ele><time>2026-04-11T08:57:00.057Z</time></trkpt><trkpt lat="44.7974633" lon="7.8507617"><ele>324.0</ele><time>2026-04-11T08:57:02.06Z</time></trkpt><trkpt lat="44.7974967" lon="7.850845"><ele>324.0</ele><time>2026-04-11T08:57:03.06Z</time></trkpt><trkpt lat="44.7975383" lon="7.85094"><ele>324.0</ele><time>2026-04-11T08:57:04.059Z</time></trkpt><trkpt lat="44.7975783" lon="7.85104"><ele>324.0</ele><time>2026-04-11T08:57:05.059Z</time></trkpt><trkpt lat="44.797615" lon="7.8511383"><ele>324.0</ele><time>2026-04-11T08:57:06.058Z</time></trkpt><trkpt lat="44.7976517" lon="7.851235"><ele>324.0</ele><time>2026-04-11T08:57:07.059Z</time></trkpt><trkpt lat="44.797685" lon="7.8513283"><ele>323.8571428571429</ele><time>2026-04-11T08:57:08.059Z</time></trkpt><trkpt lat="44.7977183" lon="7.851425"><ele>323.7142857142857</ele><time>2026-04-11T08:57:09.059Z</time></trkpt><trkpt lat="44.7977483" lon="7.8515217"><ele>323.57142857142856</ele><time>2026-04-11T08:57:10.061Z</time></trkpt><trkpt lat="44.7977783" lon="7.851615"><ele>323.42857142857144</ele><time>2026-04-11T08:57:11.06Z</time></trkpt><trkpt lat="44.7978083" lon="7.8517033"><ele>323.2857142857143</ele><time>2026-04-11T08:57:12.059Z</time></trkpt><trkpt lat="44.7978383" lon="7.8517917"><ele>323.14285714285717</ele><time>2026-04-11T08:57:13.057Z</time></trkpt><trkpt lat="44.7978633" lon="7.8518783"><ele>323.0</ele><time>2026-04-11T08:57:14.058Z</time></trkpt><trkpt lat="44.7978917" lon="7.8519617"><ele>323.0</ele><time>2026-04-11T08:57:15.06Z</time></trkpt><trkpt lat="44.7979183" lon="7.8520433"><ele>323.0</ele><time>2026-04-11T08:57:16.06Z</time></trkpt><trkpt lat="44.797945" lon="7.852125"><ele>323.0</ele><time>2026-04-11T08:57:17.059Z</time></trkpt><trkpt lat="44.797975" lon="7.852205"><ele>323.0</ele><time>2026-04-11T08:57:18.058Z</time></trkpt><trkpt lat="44.79803" lon="7.8523533"><ele>323.0</ele><time>2026-04-11T08:57:20.059Z</time></trkpt><trkpt lat="44.7980967" lon="7.8524917"><ele>323.0</ele><time>2026-04-11T08:57:22.059Z</time></trkpt><trkpt lat="44.798205" lon="7.8525733"><ele>323.00000000000006</ele><time>2026-04-11T08:57:24.058Z</time></trkpt><trkpt lat="44.7982733" lon="7.852575"><ele>323.0</ele><time>2026-04-11T08:57:25.06Z</time></trkpt><trkpt lat="44.7983417" lon="7.852555"><ele>323.0</ele><time>2026-04-11T08:57:26.058Z</time></trkpt><trkpt lat="44.79841" lon="7.8525217"><ele>323.0</ele><time>2026-04-11T08:57:27.058Z</time></trkpt><trkpt lat="44.798475" lon="7.85249"><ele>323.0</ele><time>2026-04-11T08:57:28.058Z</time></trkpt><trkpt lat="44.79854" lon="7.852455"><ele>323.00000000000006</ele><time>2026-04-11T08:57:29.058Z</time></trkpt><trkpt lat="44.798605" lon="7.8524217"><ele>323.0</ele><time>2026-04-11T08:57:30.059Z</time></trkpt><trkpt lat="44.79867" lon="7.85239"><ele>322.42857142857144</ele><time>2026-04-11T08:57:31.06Z</time></trkpt><trkpt lat="44.7987333" lon="7.85236"><ele>321.8571428571429</ele><time>2026-04-11T08:57:32.059Z</time></trkpt><trkpt lat="44.7988" lon="7.8523317"><ele>321.28571428571433</ele><time>2026-04-11T08:57:33.059Z</time></trkpt><trkpt lat="44.7988667" lon="7.8523"><ele>320.7142857142857</ele><time>2026-04-11T08:57:34.057Z</time></trkpt><trkpt lat="44.79893" lon="7.8522667"><ele>320.1428571428571</ele><time>2026-04-11T08:57:35.057Z</time></trkpt><trkpt lat="44.798995" lon="7.8522367"><ele>319.5714285714286</ele><time>2026-04-11T08:57:36.059Z</time></trkpt><trkpt lat="44.7990567" lon="7.85221"><ele>319.0</ele><time>2026-04-11T08:57:37.059Z</time></trkpt><trkpt lat="44.7991217" lon="7.8521833"><ele>319.0</ele><time>2026-04-11T08:57:38.059Z</time></trkpt><trkpt lat="44.7991867" lon="7.852155"><ele>319.0</ele><time>2026-04-11T08:57:39.059Z</time></trkpt><trkpt lat="44.799305" lon="7.8521033"><ele>319.0</ele><time>2026-04-11T08:57:41.06Z</time></trkpt><trkpt lat="44.799425" lon="7.8520567"><ele>319.0</ele><time>2026-04-11T08:57:43.06Z</time></trkpt><trkpt lat="44.7994883" lon="7.852055"><ele>319.0</ele><time>2026-04-11T08:57:44.061Z</time></trkpt><trkpt lat="44.7995517" lon="7.8520833"><ele>319.0</ele><time>2026-04-11T08:57:45.059Z</time></trkpt><trkpt lat="44.79961" lon="7.852145"><ele>318.4</ele><time>2026-04-11T08:57:46.06Z</time></trkpt><trkpt lat="44.7996583" lon="7.852235"><ele>317.79999999999995</ele><time>2026-04-11T08:57:47.059Z</time></trkpt><trkpt lat="44.7997033" lon="7.8523417"><ele>317.20000000000005</ele><time>2026-04-11T08:57:48.06Z</time></trkpt><trkpt lat="44.7997417" lon="7.85246"><ele>316.6</ele><time>2026-04-11T08:57:49.058Z</time></trkpt><trkpt lat="44.7997867" lon="7.8525833"><ele>316.0</ele><time>2026-04-11T08:57:50.06Z</time></trkpt><trkpt lat="44.79984" lon="7.8527017"><ele>316.0</ele><time>2026-04-11T08:57:51.061Z</time></trkpt><trkpt lat="44.7998933" lon="7.8528133"><ele>316.0</ele><time>2026-04-11T08:57:52.059Z</time></trkpt><trkpt lat="44.7999417" lon="7.8529233"><ele>316.0</ele><time>2026-04-11T08:57:53.059Z</time></trkpt><trkpt lat="44.7999917" lon="7.8530317"><ele>316.0</ele><time>2026-04-11T08:57:54.061Z</time></trkpt><trkpt lat="44.80004" lon="7.8531317"><ele>316.0</ele><time>2026-04-11T08:57:55.06Z</time></trkpt><trkpt lat="44.8000817" lon="7.8532283"><ele>316.0</ele><time>2026-04-11T08:57:56.06Z</time></trkpt><trkpt lat="44.8001217" lon="7.8533183"><ele>316.0</ele><time>2026-04-11T08:57:57.059Z</time></trkpt><trkpt lat="44.80016" lon="7.8534"><ele>316.0</ele><time>2026-04-11T08:57:58.059Z</time></trkpt><trkpt lat="44.800195" lon="7.853475"><ele>316.0</ele><time>2026-04-11T08:57:59.06Z</time></trkpt><trkpt lat="44.8002567" lon="7.8536067"><ele>316.0</ele><time>2026-04-11T08:58:01.058Z</time></trkpt><trkpt lat="44.8003133" lon="7.8537283"><ele>316.0</ele><time>2026-04-11T08:58:03.056Z</time></trkpt><trkpt lat="44.8003633" lon="7.853855"><ele>317.20000000000005</ele><time>2026-04-11T08:58:05.058Z</time></trkpt><trkpt lat="44.8004083" lon="7.85399"><ele>318.40000000000003</ele><time>2026-04-11T08:58:07.059Z</time></trkpt><trkpt lat="44.8004567" lon="7.85411"><ele>319.6</ele><time>2026-04-11T08:58:09.059Z</time></trkpt><trkpt lat="44.8005017" lon="7.8542283"><ele>320.8</ele><time>2026-04-11T08:58:11.058Z</time></trkpt><trkpt lat="44.8005517" lon="7.85435"><ele>322.0</ele><time>2026-04-11T08:58:13.062Z</time></trkpt><trkpt lat="44.8006" lon="7.85445"><ele>323.5</ele><time>2026-04-11T08:58:15.061Z</time></trkpt><trkpt lat="44.8006383" lon="7.85455"><ele>325.0</ele><time>2026-04-11T08:58:17.061Z</time></trkpt><trkpt lat="44.80068" lon="7.8546533"><ele>326.5</ele><time>2026-04-11T08:58:19.062Z</time></trkpt><trkpt lat="44.8007167" lon="7.8547667"><ele>328.0</ele><time>2026-04-11T08:58:21.061Z</time></trkpt><trkpt lat="44.80077" lon="7.8548767"><ele>329.5</ele><time>2026-04-11T08:58:23.061Z</time></trkpt><trkpt lat="44.8008183" lon="7.8549783"><ele>331.0</ele><time>2026-04-11T08:58:25.062Z</time></trkpt><trkpt lat="44.8008683" lon="7.8550917"><ele>331.6</ele><time>2026-04-11T08:58:27.062Z</time></trkpt><trkpt lat="44.800905" lon="7.8552017"><ele>332.20000000000005</ele><time>2026-04-11T08:58:29.061Z</time></trkpt><trkpt lat="44.800925" lon="7.8553383"><ele>332.79999999999995</ele><time>2026-04-11T08:58:31.063Z</time></trkpt><trkpt lat="44.8009217" lon="7.855475"><ele>333.4</ele><time>2026-04-11T08:58:33.059Z</time></trkpt><trkpt lat="44.8008933" lon="7.8555967"><ele>334.0</ele><time>2026-04-11T08:58:35.061Z</time></trkpt><trkpt lat="44.8008633" lon="7.8557183"><ele>334.0</ele><time>2026-04-11T08:58:37.063Z</time></trkpt><trkpt lat="44.8008317" lon="7.8558267"><ele>334.0</ele><time>2026-04-11T08:58:39.062Z</time></trkpt><trkpt lat="44.8007983" lon="7.855935"><ele>334.0</ele><time>2026-04-11T08:58:41.061Z</time></trkpt><trkpt lat="44.800765" lon="7.8560367"><ele>334.0</ele><time>2026-04-11T08:58:43.064Z</time></trkpt><trkpt lat="44.8007417" lon="7.8561383"><ele>334.0</ele><time>2026-04-11T08:58:45.062Z</time></trkpt><trkpt lat="44.8007367" lon="7.8562517"><ele>334.0</ele><time>2026-04-11T08:58:47.062Z</time></trkpt><trkpt lat="44.80077" lon="7.856375"><ele>334.0</ele><time>2026-04-11T08:58:49.061Z</time></trkpt><trkpt lat="44.8008317" lon="7.85646"><ele>334.0</ele><time>2026-04-11T08:58:51.059Z</time></trkpt><trkpt lat="44.8009067" lon="7.85652"><ele>334.0</ele><time>2026-04-11T08:58:53.06Z</time></trkpt><trkpt lat="44.8009783" lon="7.8565783"><ele>334.0</ele><time>2026-04-11T08:58:55.062Z</time></trkpt><trkpt lat="44.8010517" lon="7.85664"><ele>334.0</ele><time>2026-04-11T08:58:57.061Z</time></trkpt><trkpt lat="44.8011217" lon="7.8567083"><ele>334.0</ele><time>2026-04-11T08:58:59.062Z</time></trkpt><trkpt lat="44.801185" lon="7.8567867"><ele>333.3333333333333</ele><time>2026-04-11T08:59:01.058Z</time></trkpt><trkpt lat="44.8012517" lon="7.8568733"><ele>332.66666666666663</ele><time>2026-04-11T08:59:03.064Z</time></trkpt><trkpt lat="44.8013117" lon="7.8569833"><ele>332.0</ele><time>2026-04-11T08:59:05.059Z</time></trkpt><trkpt lat="44.8013333" lon="7.857135"><ele>331.3333333333333</ele><time>2026-04-11T08:59:07.059Z</time></trkpt><trkpt lat="44.8013317" lon="7.8572283"><ele>330.6666666666667</ele><time>2026-04-11T08:59:08.059Z</time></trkpt><trkpt lat="44.80133" lon="7.8573317"><ele>330.0</ele><time>2026-04-11T08:59:09.061Z</time></trkpt><trkpt lat="44.8013267" lon="7.857445"><ele>330.0</ele><time>2026-04-11T08:59:10.059Z</time></trkpt><trkpt lat="44.8013183" lon="7.8575633"><ele>330.0</ele><time>2026-04-11T08:59:11.058Z</time></trkpt><trkpt lat="44.80131" lon="7.8576917"><ele>330.0</ele><time>2026-04-11T08:59:12.06Z</time></trkpt><trkpt lat="44.8012983" lon="7.85783"><ele>330.0</ele><time>2026-04-11T08:59:13.059Z</time></trkpt><trkpt lat="44.801285" lon="7.85798"><ele>330.0</ele><time>2026-04-11T08:59:14.06Z</time></trkpt><trkpt lat="44.8012667" lon="7.8581283"><ele>328.4</ele><time>2026-04-11T08:59:15.061Z</time></trkpt><trkpt lat="44.8012483" lon="7.8582667"><ele>326.8</ele><time>2026-04-11T08:59:16.063Z</time></trkpt><trkpt lat="44.80123" lon="7.85841"><ele>325.20000000000005</ele><time>2026-04-11T08:59:17.054Z</time></trkpt><trkpt lat="44.8012233" lon="7.8585583"><ele>323.6</ele><time>2026-04-11T08:59:18.057Z</time></trkpt><trkpt lat="44.801245" lon="7.8587117"><ele>322.0</ele><time>2026-04-11T08:59:19.061Z</time></trkpt><trkpt lat="44.8012917" lon="7.858855"><ele>322.0</ele><time>2026-04-11T08:59:20.059Z</time></trkpt><trkpt lat="44.8013633" lon="7.858985"><ele>322.0</ele><time>2026-04-11T08:59:21.058Z</time></trkpt><trkpt lat="44.8014433" lon="7.8591"><ele>322.0</ele><time>2026-04-11T08:59:22.061Z</time></trkpt><trkpt lat="44.8015317" lon="7.8592083"><ele>322.0</ele><time>2026-04-11T08:59:23.058Z</time></trkpt><trkpt lat="44.8016167" lon="7.8593117"><ele>322.0</ele><time>2026-04-11T08:59:24.059Z</time></trkpt><trkpt lat="44.801695" lon="7.8594183"><ele>322.0</ele><time>2026-04-11T08:59:25.063Z</time></trkpt><trkpt lat="44.8017683" lon="7.8595317"><ele>322.0</ele><time>2026-04-11T08:59:26.06Z</time></trkpt><trkpt lat="44.8018267" lon="7.8596467"><ele>322.0</ele><time>2026-04-11T08:59:27.057Z</time></trkpt><trkpt lat="44.8018767" lon="7.8597633"><ele>322.0</ele><time>2026-04-11T08:59:28.062Z</time></trkpt><trkpt lat="44.80192" lon="7.8598783"><ele>323.3333333333333</ele><time>2026-04-11T08:59:29.06Z</time></trkpt><trkpt lat="44.8019533" lon="7.8599883"><ele>324.66666666666663</ele><time>2026-04-11T08:59:30.059Z</time></trkpt><trkpt lat="44.801985" lon="7.860095"><ele>326.0</ele><time>2026-04-11T08:59:31.059Z</time></trkpt><trkpt lat="44.8020133" lon="7.860195"><ele>327.3333333333333</ele><time>2026-04-11T08:59:32.059Z</time></trkpt><trkpt lat="44.8020433" lon="7.86029"><ele>328.6666666666667</ele><time>2026-04-11T08:59:33.059Z</time></trkpt><trkpt lat="44.80207" lon="7.8603817"><ele>330.0</ele><time>2026-04-11T08:59:34.06Z</time></trkpt><trkpt lat="44.8020967" lon="7.8604683"><ele>330.0</ele><time>2026-04-11T08:59:35.058Z</time></trkpt><trkpt lat="44.8021217" lon="7.860555"><ele>330.0</ele><time>2026-04-11T08:59:36.059Z</time></trkpt><trkpt lat="44.8021483" lon="7.8606383"><ele>330.0</ele><time>2026-04-11T08:59:37.06Z</time></trkpt><trkpt lat="44.80218" lon="7.8607183"><ele>330.0</ele><time>2026-04-11T08:59:38.057Z</time></trkpt><trkpt lat="44.8022067" lon="7.8608033"><ele>330.0</ele><time>2026-04-11T08:59:39.061Z</time></trkpt><trkpt lat="44.8022567" lon="7.860965"><ele>330.0</ele><time>2026-04-11T08:59:41.058Z</time></trkpt><trkpt lat="44.80231" lon="7.8611133"><ele>329.4</ele><time>2026-04-11T08:59:43.059Z</time></trkpt><trkpt lat="44.8023767" lon="7.8612533"><ele>328.8</ele><time>2026-04-11T08:59:45.06Z</time></trkpt><trkpt lat="44.8024433" lon="7.8613817"><ele>328.20000000000005</ele><time>2026-04-11T08:59:47.059Z</time></trkpt><trkpt lat="44.8025083" lon="7.8614933"><ele>327.6</ele><time>2026-04-11T08:59:49.059Z</time></trkpt><trkpt lat="44.8025767" lon="7.8616033"><ele>327.0</ele><time>2026-04-11T08:59:51.061Z</time></trkpt><trkpt lat="44.8026467" lon="7.861705"><ele>328.6</ele><time>2026-04-11T08:59:53.061Z</time></trkpt><trkpt lat="44.80272" lon="7.8617967"><ele>330.20000000000005</ele><time>2026-04-11T08:59:55.061Z</time></trkpt><trkpt lat="44.802795" lon="7.86189"><ele>331.8</ele><time>2026-04-11T08:59:57.06Z</time></trkpt><trkpt lat="44.8028683" lon="7.8619917"><ele>333.4</ele><time>2026-04-11T08:59:59.059Z</time></trkpt><trkpt lat="44.8029433" lon="7.8620983"><ele>335.0</ele><time>2026-04-11T09:00:01.056Z</time></trkpt><trkpt lat="44.8030133" lon="7.8621983"><ele>335.0</ele><time>2026-04-11T09:00:03.06Z</time></trkpt><trkpt lat="44.8030783" lon="7.8623017"><ele>335.0</ele><time>2026-04-11T09:00:05.06Z</time></trkpt><trkpt lat="44.80314" lon="7.8623933"><ele>335.0</ele><time>2026-04-11T09:00:07.061Z</time></trkpt><trkpt lat="44.8032017" lon="7.8624783"><ele>335.0</ele><time>2026-04-11T09:00:09.059Z</time></trkpt><trkpt lat="44.803265" lon="7.86258"><ele>335.0</ele><time>2026-04-11T09:00:11.059Z</time></trkpt><trkpt lat="44.8033283" lon="7.862665"><ele>335.0</ele><time>2026-04-11T09:00:13.062Z</time></trkpt><trkpt lat="44.803395" lon="7.862745"><ele>335.0</ele><time>2026-04-11T09:00:15.059Z</time></trkpt><trkpt lat="44.8034633" lon="7.8628133"><ele>335.0</ele><time>2026-04-11T09:00:17.058Z</time></trkpt><trkpt lat="44.8035367" lon="7.8628817"><ele>335.0</ele><time>2026-04-11T09:00:19.06Z</time></trkpt><trkpt lat="44.803615" lon="7.8629483"><ele>335.0</ele><time>2026-04-11T09:00:21.06Z</time></trkpt><trkpt lat="44.8036883" lon="7.86302"><ele>335.0</ele><time>2026-04-11T09:00:23.06Z</time></trkpt><trkpt lat="44.8037617" lon="7.8630917"><ele>336.1666666666667</ele><time>2026-04-11T09:00:25.062Z</time></trkpt><trkpt lat="44.80383" lon="7.8631633"><ele>337.33333333333337</ele><time>2026-04-11T09:00:27.061Z</time></trkpt><trkpt lat="44.8038917" lon="7.8632367"><ele>338.5</ele><time>2026-04-11T09:00:29.061Z</time></trkpt><trkpt lat="44.8039433" lon="7.8633217"><ele>339.6666666666667</ele><time>2026-04-11T09:00:31.061Z</time></trkpt><trkpt lat="44.80399" lon="7.8634167"><ele>340.8333333333333</ele><time>2026-04-11T09:00:33.061Z</time></trkpt><trkpt lat="44.804035" lon="7.8635117"><ele>342.0</ele><time>2026-04-11T09:00:35.058Z</time></trkpt><trkpt lat="44.8040767" lon="7.863615"><ele>342.1666666666667</ele><time>2026-04-11T09:00:37.06Z</time></trkpt><trkpt lat="44.8041217" lon="7.86371"><ele>342.3333333333333</ele><time>2026-04-11T09:00:39.061Z</time></trkpt><trkpt lat="44.8041717" lon="7.863805"><ele>342.5</ele><time>2026-04-11T09:00:41.059Z</time></trkpt><trkpt lat="44.804215" lon="7.863895"><ele>342.66666666666663</ele><time>2026-04-11T09:00:43.059Z</time></trkpt><trkpt lat="44.8042567" lon="7.863985"><ele>342.8333333333333</ele><time>2026-04-11T09:00:45.06Z</time></trkpt><trkpt lat="44.804295" lon="7.8640733"><ele>343.0</ele><time>2026-04-11T09:00:47.059Z</time></trkpt><trkpt lat="44.8043333" lon="7.8641567"><ele>344.14285714285717</ele><time>2026-04-11T09:00:49.059Z</time></trkpt><trkpt lat="44.8043733" lon="7.864235"><ele>345.2857142857143</ele><time>2026-04-11T09:00:51.061Z</time></trkpt><trkpt lat="44.804405" lon="7.8643167"><ele>346.42857142857144</ele><time>2026-04-11T09:00:53.06Z</time></trkpt><trkpt lat="44.8044267" lon="7.8644117"><ele>347.57142857142856</ele><time>2026-04-11T09:00:55.062Z</time></trkpt><trkpt lat="44.8044467" lon="7.86451"><ele>348.7142857142857</ele><time>2026-04-11T09:00:57.061Z</time></trkpt><trkpt lat="44.80447" lon="7.86461"><ele>349.8571428571429</ele><time>2026-04-11T09:00:59.058Z</time></trkpt><trkpt lat="44.8044867" lon="7.8647217"><ele>351.0</ele><time>2026-04-11T09:01:01.06Z</time></trkpt><trkpt lat="44.8045017" lon="7.8648317"><ele>351.0</ele><time>2026-04-11T09:01:03.06Z</time></trkpt><trkpt lat="44.8045167" lon="7.8649467"><ele>351.0</ele><time>2026-04-11T09:01:05.058Z</time></trkpt><trkpt lat="44.8045383" lon="7.8650583"><ele>351.0</ele><time>2026-04-11T09:01:07.06Z</time></trkpt><trkpt lat="44.8045567" lon="7.865175"><ele>351.0</ele><time>2026-04-11T09:01:09.058Z</time></trkpt><trkpt lat="44.804575" lon="7.8652983"><ele>351.0</ele><time>2026-04-11T09:01:11.059Z</time></trkpt><trkpt lat="44.8045967" lon="7.8654217"><ele>351.0</ele><time>2026-04-11T09:01:13.058Z</time></trkpt><trkpt lat="44.8046133" lon="7.865555"><ele>350.6</ele><time>2026-04-11T09:01:15.059Z</time></trkpt><trkpt lat="44.80463" lon="7.8657"><ele>350.20000000000005</ele><time>2026-04-11T09:01:17.061Z</time></trkpt><trkpt lat="44.80465" lon="7.86585"><ele>349.79999999999995</ele><time>2026-04-11T09:01:19.061Z</time></trkpt><trkpt lat="44.804675" lon="7.865995"><ele>349.4</ele><time>2026-04-11T09:01:21.061Z</time></trkpt><trkpt lat="44.8047033" lon="7.866135"><ele>349.0</ele><time>2026-04-11T09:01:23.059Z</time></trkpt><trkpt lat="44.8047367" lon="7.8662833"><ele>348.6</ele><time>2026-04-11T09:01:25.06Z</time></trkpt><trkpt lat="44.8047617" lon="7.8664383"><ele>348.2</ele><time>2026-04-11T09:01:27.059Z</time></trkpt><trkpt lat="44.8047767" lon="7.8665917"><ele>347.8</ele><time>2026-04-11T09:01:29.06Z</time></trkpt><trkpt lat="44.804775" lon="7.8667433"><ele>347.40000000000003</ele><time>2026-04-11T09:01:31.06Z</time></trkpt><trkpt lat="44.804765" lon="7.866905"><ele>347.0</ele><time>2026-04-11T09:01:33.061Z</time></trkpt><trkpt lat="44.8047467" lon="7.8670633"><ele>346.75</ele><time>2026-04-11T09:01:35.059Z</time></trkpt><trkpt lat="44.8047317" lon="7.8672183"><ele>346.5</ele><time>2026-04-11T09:01:37.06Z</time></trkpt><trkpt lat="44.8047117" lon="7.86737"><ele>346.25</ele><time>2026-04-11T09:01:39.06Z</time></trkpt><trkpt lat="44.8046867" lon="7.8675333"><ele>346.0</ele><time>2026-04-11T09:01:41.058Z</time></trkpt><trkpt lat="44.8046617" lon="7.8677033"><ele>346.0</ele><time>2026-04-11T09:01:43.059Z</time></trkpt><trkpt lat="44.8046483" lon="7.8677917"><ele>346.0</ele><time>2026-04-11T09:01:44.06Z</time></trkpt><trkpt lat="44.804625" lon="7.8679667"><ele>346.0</ele><time>2026-04-11T09:01:46.061Z</time></trkpt><trkpt lat="44.8046133" lon="7.868055"><ele>346.0</ele><time>2026-04-11T09:01:47.059Z</time></trkpt><trkpt lat="44.8046" lon="7.8681433"><ele>346.0</ele><time>2026-04-11T09:01:48.06Z</time></trkpt><trkpt lat="44.804575" lon="7.86832"><ele>346.0</ele><time>2026-04-11T09:01:50.059Z</time></trkpt><trkpt lat="44.8045517" lon="7.8684983"><ele>346.4</ele><time>2026-04-11T09:01:52.059Z</time></trkpt><trkpt lat="44.8045417" lon="7.8685933"><ele>346.8</ele><time>2026-04-11T09:01:53.06Z</time></trkpt><trkpt lat="44.8045217" lon="7.8687633"><ele>347.2</ele><time>2026-04-11T09:01:55.06Z</time></trkpt><trkpt lat="44.8045" lon="7.8689267"><ele>347.59999999999997</ele><time>2026-04-11T09:01:57.061Z</time></trkpt><trkpt lat="44.8044817" lon="7.86909"><ele>348.0</ele><time>2026-04-11T09:01:59.06Z</time></trkpt><trkpt lat="44.8044617" lon="7.8692617"><ele>348.79999999999995</ele><time>2026-04-11T09:02:01.06Z</time></trkpt><trkpt lat="44.8044467" lon="7.8694083"><ele>349.6</ele><time>2026-04-11T09:02:03.06Z</time></trkpt><trkpt lat="44.8044333" lon="7.8695367"><ele>350.4</ele><time>2026-04-11T09:02:05.06Z</time></trkpt><trkpt lat="44.80448" lon="7.8696033"><ele>351.20000000000005</ele><time>2026-04-11T09:02:07.061Z</time></trkpt><trkpt lat="44.804565" lon="7.8696"><ele>352.0</ele><time>2026-04-11T09:02:09.062Z</time></trkpt><trkpt lat="44.8046733" lon="7.8695883"><ele>352.0</ele><time>2026-04-11T09:02:11.059Z</time></trkpt><trkpt lat="44.8047933" lon="7.8695733"><ele>352.0</ele><time>2026-04-11T09:02:13.059Z</time></trkpt><trkpt lat="44.8048567" lon="7.869565"><ele>352.0</ele><time>2026-04-11T09:02:14.062Z</time></trkpt><trkpt lat="44.80498" lon="7.869545"><ele>352.0</ele><time>2026-04-11T09:02:16.06Z</time></trkpt><trkpt lat="44.8050983" lon="7.86954"><ele>352.0</ele><time>2026-04-11T09:02:18.062Z</time></trkpt><trkpt lat="44.8051617" lon="7.8695417"><ele>351.5</ele><time>2026-04-11T09:02:19.061Z</time></trkpt><trkpt lat="44.8052883" lon="7.8695417"><ele>351.0</ele><time>2026-04-11T09:02:21.063Z</time></trkpt><trkpt lat="44.8054117" lon="7.8695533"><ele>350.5</ele><time>2026-04-11T09:02:23.06Z</time></trkpt><trkpt lat="44.8055333" lon="7.8695667"><ele>350.0</ele><time>2026-04-11T09:02:25.061Z</time></trkpt><trkpt lat="44.80565" lon="7.8695883"><ele>350.0</ele><time>2026-04-11T09:02:27.059Z</time></trkpt><trkpt lat="44.8057717" lon="7.8695917"><ele>350.0</ele><time>2026-04-11T09:02:29.059Z</time></trkpt><trkpt lat="44.8058867" lon="7.8695633"><ele>350.0</ele><time>2026-04-11T09:02:31.061Z</time></trkpt><trkpt lat="44.8060017" lon="7.8695183"><ele>350.0</ele><time>2026-04-11T09:02:33.059Z</time></trkpt><trkpt lat="44.80612" lon="7.8694733"><ele>348.83333333333337</ele><time>2026-04-11T09:02:35.061Z</time></trkpt><trkpt lat="44.8061817" lon="7.86945"><ele>347.6666666666667</ele><time>2026-04-11T09:02:36.06Z</time></trkpt><trkpt lat="44.8062433" lon="7.8694317"><ele>346.5</ele><time>2026-04-11T09:02:37.063Z</time></trkpt><trkpt lat="44.8063683" lon="7.8694067"><ele>345.3333333333333</ele><time>2026-04-11T09:02:39.061Z</time></trkpt><trkpt lat="44.8064933" lon="7.8693867"><ele>344.16666666666663</ele><time>2026-04-11T09:02:41.059Z</time></trkpt><trkpt lat="44.8065567" lon="7.8693733"><ele>343.0</ele><time>2026-04-11T09:02:42.06Z</time></trkpt><trkpt lat="44.80662" lon="7.86935"><ele>343.0</ele><time>2026-04-11T09:02:43.06Z</time></trkpt><trkpt lat="44.8066833" lon="7.8693233"><ele>343.0</ele><time>2026-04-11T09:02:44.059Z</time></trkpt><trkpt lat="44.8067417" lon="7.8692867"><ele>343.0</ele><time>2026-04-11T09:02:45.059Z</time></trkpt><trkpt lat="44.8067983" lon="7.8692417"><ele>343.0</ele><time>2026-04-11T09:02:46.06Z</time></trkpt><trkpt lat="44.806855" lon="7.8691917"><ele>343.0</ele><time>2026-04-11T09:02:47.059Z</time></trkpt><trkpt lat="44.806915" lon="7.869145"><ele>343.0</ele><time>2026-04-11T09:02:48.061Z</time></trkpt><trkpt lat="44.8069783" lon="7.8691"><ele>343.0</ele><time>2026-04-11T09:02:49.059Z</time></trkpt><trkpt lat="44.8070417" lon="7.8690567"><ele>343.2857142857143</ele><time>2026-04-11T09:02:50.065Z</time></trkpt><trkpt lat="44.8071067" lon="7.8690167"><ele>343.57142857142856</ele><time>2026-04-11T09:02:51.061Z</time></trkpt><trkpt lat="44.8071733" lon="7.8689733"><ele>343.8571428571429</ele><time>2026-04-11T09:02:52.062Z</time></trkpt><trkpt lat="44.8072417" lon="7.8689267"><ele>344.1428571428571</ele><time>2026-04-11T09:02:53.063Z</time></trkpt><trkpt lat="44.8073133" lon="7.8688833"><ele>344.42857142857144</ele><time>2026-04-11T09:02:54.059Z</time></trkpt><trkpt lat="44.8073817" lon="7.86884"><ele>344.7142857142857</ele><time>2026-04-11T09:02:55.061Z</time></trkpt><trkpt lat="44.80745" lon="7.8687933"><ele>345.0</ele><time>2026-04-11T09:02:56.059Z</time></trkpt><trkpt lat="44.8075217" lon="7.8687467"><ele>345.0</ele><time>2026-04-11T09:02:57.06Z</time></trkpt><trkpt lat="44.8075917" lon="7.8687"><ele>345.0</ele><time>2026-04-11T09:02:58.058Z</time></trkpt><trkpt lat="44.8076617" lon="7.8686533"><ele>345.0</ele><time>2026-04-11T09:02:59.06Z</time></trkpt><trkpt lat="44.80773" lon="7.8686117"><ele>345.0</ele><time>2026-04-11T09:03:00.058Z</time></trkpt><trkpt lat="44.8077983" lon="7.8685717"><ele>345.0</ele><time>2026-04-11T09:03:01.061Z</time></trkpt><trkpt lat="44.8078683" lon="7.86853"><ele>345.0</ele><time>2026-04-11T09:03:02.059Z</time></trkpt><trkpt lat="44.8079383" lon="7.8684867"><ele>345.14285714285717</ele><time>2026-04-11T09:03:03.061Z</time></trkpt><trkpt lat="44.808005" lon="7.8684383"><ele>345.2857142857143</ele><time>2026-04-11T09:03:04.06Z</time></trkpt><trkpt lat="44.8080717" lon="7.8683883"><ele>345.42857142857144</ele><time>2026-04-11T09:03:05.06Z</time></trkpt><trkpt lat="44.808135" lon="7.8683333"><ele>345.57142857142856</ele><time>2026-04-11T09:03:06.06Z</time></trkpt><trkpt lat="44.8081983" lon="7.8682717"><ele>345.7142857142857</ele><time>2026-04-11T09:03:07.062Z</time></trkpt><trkpt lat="44.8082567" lon="7.8682067"><ele>345.85714285714283</ele><time>2026-04-11T09:03:08.061Z</time></trkpt><trkpt lat="44.8083117" lon="7.86814"><ele>346.0</ele><time>2026-04-11T09:03:09.06Z</time></trkpt><trkpt lat="44.8083667" lon="7.86807"><ele>346.0</ele><time>2026-04-11T09:03:10.062Z</time></trkpt><trkpt lat="44.8084167" lon="7.867995"><ele>346.0</ele><time>2026-04-11T09:03:11.06Z</time></trkpt><trkpt lat="44.8084683" lon="7.86792"><ele>346.0</ele><time>2026-04-11T09:03:12.06Z</time></trkpt><trkpt lat="44.80852" lon="7.8678433"><ele>346.0</ele><time>2026-04-11T09:03:13.061Z</time></trkpt><trkpt lat="44.8085717" lon="7.8677683"><ele>346.0</ele><time>2026-04-11T09:03:14.057Z</time></trkpt><trkpt lat="44.8086217" lon="7.8676933"><ele>346.0</ele><time>2026-04-11T09:03:15.06Z</time></trkpt><trkpt lat="44.8086717" lon="7.8676183"><ele>346.0</ele><time>2026-04-11T09:03:16.059Z</time></trkpt><trkpt lat="44.8087233" lon="7.86754"><ele>345.8333333333333</ele><time>2026-04-11T09:03:17.058Z</time></trkpt><trkpt lat="44.8087733" lon="7.86746"><ele>345.66666666666663</ele><time>2026-04-11T09:03:18.055Z</time></trkpt><trkpt lat="44.8088233" lon="7.86738"><ele>345.5</ele><time>2026-04-11T09:03:19.06Z</time></trkpt><trkpt lat="44.808875" lon="7.8673033"><ele>345.3333333333333</ele><time>2026-04-11T09:03:20.06Z</time></trkpt><trkpt lat="44.8089267" lon="7.8672217"><ele>345.1666666666667</ele><time>2026-04-11T09:03:21.06Z</time></trkpt><trkpt lat="44.8089833" lon="7.867145"><ele>345.0</ele><time>2026-04-11T09:03:22.059Z</time></trkpt><trkpt lat="44.8090417" lon="7.8670633"><ele>345.0</ele><time>2026-04-11T09:03:23.06Z</time></trkpt><trkpt lat="44.8091033" lon="7.8669817"><ele>345.0</ele><time>2026-04-11T09:03:24.059Z</time></trkpt><trkpt lat="44.8091683" lon="7.8668967"><ele>345.0</ele><time>2026-04-11T09:03:25.058Z</time></trkpt><trkpt lat="44.8092367" lon="7.8668167"><ele>345.0</ele><time>2026-04-11T09:03:26.06Z</time></trkpt><trkpt lat="44.8093117" lon="7.86674"><ele>345.0</ele><time>2026-04-11T09:03:27.06Z</time></trkpt><trkpt lat="44.80939" lon="7.8666667"><ele>345.0</ele><time>2026-04-11T09:03:28.059Z</time></trkpt><trkpt lat="44.8094733" lon="7.866595"><ele>344.0</ele><time>2026-04-11T09:03:29.06Z</time></trkpt><trkpt lat="44.8095567" lon="7.866525"><ele>343.0</ele><time>2026-04-11T09:03:30.061Z</time></trkpt><trkpt lat="44.8096433" lon="7.86646"><ele>342.0</ele><time>2026-04-11T09:03:31.059Z</time></trkpt><trkpt lat="44.8097283" lon="7.866395"><ele>341.0</ele><time>2026-04-11T09:03:32.061Z</time></trkpt><trkpt lat="44.8098133" lon="7.8663317"><ele>340.0</ele><time>2026-04-11T09:03:33.06Z</time></trkpt><trkpt lat="44.8098967" lon="7.8662667"><ele>340.0</ele><time>2026-04-11T09:03:34.064Z</time></trkpt><trkpt lat="44.8099733" lon="7.8662067"><ele>340.0</ele><time>2026-04-11T09:03:35.06Z</time></trkpt><trkpt lat="44.8100517" lon="7.8661483"><ele>340.0</ele><time>2026-04-11T09:03:36.062Z</time></trkpt><trkpt lat="44.8101283" lon="7.8660883"><ele>340.0</ele><time>2026-04-11T09:03:37.061Z</time></trkpt><trkpt lat="44.8102033" lon="7.86603"><ele>340.0</ele><time>2026-04-11T09:03:38.061Z</time></trkpt><trkpt lat="44.810275" lon="7.8659683"><ele>340.0</ele><time>2026-04-11T09:03:39.063Z</time></trkpt><trkpt lat="44.810345" lon="7.8659117"><ele>339.66666666666663</ele><time>2026-04-11T09:03:40.06Z</time></trkpt><trkpt lat="44.8104133" lon="7.865855"><ele>339.3333333333333</ele><time>2026-04-11T09:03:41.059Z</time></trkpt><trkpt lat="44.8104783" lon="7.8657967"><ele>339.0</ele><time>2026-04-11T09:03:42.059Z</time></trkpt><trkpt lat="44.8105417" lon="7.8657383"><ele>338.6666666666667</ele><time>2026-04-11T09:03:43.06Z</time></trkpt><trkpt lat="44.8106083" lon="7.865685"><ele>338.33333333333337</ele><time>2026-04-11T09:03:44.061Z</time></trkpt><trkpt lat="44.810675" lon="7.8656367"><ele>338.0</ele><time>2026-04-11T09:03:45.059Z</time></trkpt><trkpt lat="44.810745" lon="7.86559"><ele>338.0</ele><time>2026-04-11T09:03:46.06Z</time></trkpt><trkpt lat="44.8108133" lon="7.865545"><ele>338.0</ele><time>2026-04-11T09:03:47.059Z</time></trkpt><trkpt lat="44.8108783" lon="7.8655"><ele>338.0</ele><time>2026-04-11T09:03:48.06Z</time></trkpt><trkpt lat="44.81094" lon="7.8654533"><ele>338.0</ele><time>2026-04-11T09:03:49.06Z</time></trkpt><trkpt lat="44.8109983" lon="7.8654083"><ele>338.0</ele><time>2026-04-11T09:03:50.06Z</time></trkpt><trkpt lat="44.8111017" lon="7.8653183"><ele>338.0</ele><time>2026-04-11T09:03:52.06Z</time></trkpt><trkpt lat="44.811205" lon="7.8652283"><ele>338.14285714285717</ele><time>2026-04-11T09:03:54.06Z</time></trkpt><trkpt lat="44.8112617" lon="7.8651883"><ele>338.2857142857143</ele><time>2026-04-11T09:03:55.059Z</time></trkpt><trkpt lat="44.81132" lon="7.8651467"><ele>338.42857142857144</ele><time>2026-04-11T09:03:56.059Z</time></trkpt><trkpt lat="44.8113817" lon="7.8651"><ele>338.57142857142856</ele><time>2026-04-11T09:03:57.062Z</time></trkpt><trkpt lat="44.8114483" lon="7.8650433"><ele>338.7142857142857</ele><time>2026-04-11T09:03:58.061Z</time></trkpt><trkpt lat="44.8115183" lon="7.8649867"><ele>338.85714285714283</ele><time>2026-04-11T09:03:59.06Z</time></trkpt><trkpt lat="44.8115883" lon="7.8649317"><ele>339.0</ele><time>2026-04-11T09:04:00.061Z</time></trkpt><trkpt lat="44.8116517" lon="7.8648733"><ele>339.1428571428571</ele><time>2026-04-11T09:04:01.061Z</time></trkpt><trkpt lat="44.811715" lon="7.864815"><ele>339.28571428571433</ele><time>2026-04-11T09:04:02.063Z</time></trkpt><trkpt lat="44.81178" lon="7.86476"><ele>339.42857142857144</ele><time>2026-04-11T09:04:03.061Z</time></trkpt><trkpt lat="44.8118433" lon="7.864705"><ele>339.57142857142856</ele><time>2026-04-11T09:04:04.059Z</time></trkpt><trkpt lat="44.81191" lon="7.8646533"><ele>339.71428571428567</ele><time>2026-04-11T09:04:05.06Z</time></trkpt><trkpt lat="44.8119767" lon="7.8646"><ele>339.8571428571429</ele><time>2026-04-11T09:04:06.06Z</time></trkpt><trkpt lat="44.8120383" lon="7.8645517"><ele>340.0</ele><time>2026-04-11T09:04:07.06Z</time></trkpt><trkpt lat="44.8121" lon="7.8645033"><ele>340.0</ele><time>2026-04-11T09:04:08.061Z</time></trkpt><trkpt lat="44.81216" lon="7.8644533"><ele>340.0</ele><time>2026-04-11T09:04:09.062Z</time></trkpt><trkpt lat="44.8122217" lon="7.8644"><ele>340.0</ele><time>2026-04-11T09:04:10.06Z</time></trkpt><trkpt lat="44.8122867" lon="7.8643483"><ele>340.0</ele><time>2026-04-11T09:04:11.061Z</time></trkpt><trkpt lat="44.81235" lon="7.864295"><ele>340.0</ele><time>2026-04-11T09:04:12.06Z</time></trkpt><trkpt lat="44.8124133" lon="7.86424"><ele>340.0</ele><time>2026-04-11T09:04:13.06Z</time></trkpt><trkpt lat="44.8124783" lon="7.864185"><ele>340.0</ele><time>2026-04-11T09:04:14.062Z</time></trkpt><trkpt lat="44.812545" lon="7.8641283"><ele>339.8333333333333</ele><time>2026-04-11T09:04:15.06Z</time></trkpt><trkpt lat="44.81261" lon="7.8640717"><ele>339.66666666666663</ele><time>2026-04-11T09:04:16.06Z</time></trkpt><trkpt lat="44.81268" lon="7.8640183"><ele>339.5</ele><time>2026-04-11T09:04:17.059Z</time></trkpt><trkpt lat="44.8127517" lon="7.8639683"><ele>339.3333333333333</ele><time>2026-04-11T09:04:18.058Z</time></trkpt><trkpt lat="44.8128217" lon="7.8639183"><ele>339.1666666666667</ele><time>2026-04-11T09:04:19.06Z</time></trkpt><trkpt lat="44.8128933" lon="7.8638683"><ele>339.0</ele><time>2026-04-11T09:04:20.061Z</time></trkpt><trkpt lat="44.8129617" lon="7.8638183"><ele>339.0</ele><time>2026-04-11T09:04:21.061Z</time></trkpt><trkpt lat="44.8130317" lon="7.86377"><ele>339.0</ele><time>2026-04-11T09:04:22.061Z</time></trkpt><trkpt lat="44.8131" lon="7.8637233"><ele>339.0</ele><time>2026-04-11T09:04:23.06Z</time></trkpt><trkpt lat="44.8131617" lon="7.8636783"><ele>339.0</ele><time>2026-04-11T09:04:24.061Z</time></trkpt><trkpt lat="44.8132233" lon="7.8636317"><ele>339.0</ele><time>2026-04-11T09:04:25.061Z</time></trkpt><trkpt lat="44.813285" lon="7.8635817"><ele>339.0</ele><time>2026-04-11T09:04:26.061Z</time></trkpt><trkpt lat="44.8133467" lon="7.8635317"><ele>339.0</ele><time>2026-04-11T09:04:27.061Z</time></trkpt><trkpt lat="44.8134117" lon="7.8634767"><ele>338.5</ele><time>2026-04-11T09:04:28.06Z</time></trkpt><trkpt lat="44.81348" lon="7.86342"><ele>338.0</ele><time>2026-04-11T09:04:29.061Z</time></trkpt><trkpt lat="44.8135517" lon="7.8633617"><ele>337.5</ele><time>2026-04-11T09:04:30.058Z</time></trkpt><trkpt lat="44.813625" lon="7.8633"><ele>337.0</ele><time>2026-04-11T09:04:31.058Z</time></trkpt><trkpt lat="44.8137017" lon="7.8632383"><ele>336.5</ele><time>2026-04-11T09:04:32.058Z</time></trkpt><trkpt lat="44.8137767" lon="7.8631767"><ele>336.0</ele><time>2026-04-11T09:04:33.059Z</time></trkpt><trkpt lat="44.8138467" lon="7.8631183"><ele>335.3333333333333</ele><time>2026-04-11T09:04:34.058Z</time></trkpt><trkpt lat="44.8139117" lon="7.8630617"><ele>334.6666666666667</ele><time>2026-04-11T09:04:35.058Z</time></trkpt><trkpt lat="44.8139583" lon="7.8629917"><ele>334.0</ele><time>2026-04-11T09:04:36.058Z</time></trkpt><trkpt lat="44.8139867" lon="7.86291"><ele>333.33333333333337</ele><time>2026-04-11T09:04:37.06Z</time></trkpt><trkpt lat="44.8139433" lon="7.86275"><ele>332.6666666666667</ele><time>2026-04-11T09:04:39.061Z</time></trkpt><trkpt lat="44.813885" lon="7.86269"><ele>332.0</ele><time>2026-04-11T09:04:40.058Z</time></trkpt><trkpt lat="44.8138267" lon="7.8626267"><ele>332.1428571428571</ele><time>2026-04-11T09:04:41.06Z</time></trkpt><trkpt lat="44.81377" lon="7.862565"><ele>332.28571428571433</ele><time>2026-04-11T09:04:42.06Z</time></trkpt><trkpt lat="44.8137167" lon="7.8624967"><ele>332.42857142857144</ele><time>2026-04-11T09:04:43.06Z</time></trkpt><trkpt lat="44.81367" lon="7.86242"><ele>332.57142857142856</ele><time>2026-04-11T09:04:44.061Z</time></trkpt><trkpt lat="44.8136283" lon="7.86234"><ele>332.71428571428567</ele><time>2026-04-11T09:04:45.058Z</time></trkpt><trkpt lat="44.8135833" lon="7.8622583"><ele>332.8571428571429</ele><time>2026-04-11T09:04:46.058Z</time></trkpt><trkpt lat="44.8135367" lon="7.862175"><ele>333.0</ele><time>2026-04-11T09:04:47.059Z</time></trkpt><trkpt lat="44.8134867" lon="7.86209"><ele>333.0</ele><time>2026-04-11T09:04:48.06Z</time></trkpt><trkpt lat="44.8134333" lon="7.86201"><ele>333.0</ele><time>2026-04-11T09:04:49.058Z</time></trkpt><trkpt lat="44.813385" lon="7.86193"><ele>333.0</ele><time>2026-04-11T09:04:50.062Z</time></trkpt><trkpt lat="44.81334" lon="7.8618483"><ele>333.0</ele><time>2026-04-11T09:04:51.061Z</time></trkpt><trkpt lat="44.813295" lon="7.8617667"><ele>333.0</ele><time>2026-04-11T09:04:52.06Z</time></trkpt><trkpt lat="44.813255" lon="7.86168"><ele>333.0</ele><time>2026-04-11T09:04:53.061Z</time></trkpt><trkpt lat="44.8132217" lon="7.8615833"><ele>333.0</ele><time>2026-04-11T09:04:54.061Z</time></trkpt><trkpt lat="44.8131867" lon="7.861495"><ele>332.8571428571429</ele><time>2026-04-11T09:04:55.061Z</time></trkpt><trkpt lat="44.81315" lon="7.86141"><ele>332.71428571428567</ele><time>2026-04-11T09:04:56.06Z</time></trkpt><trkpt lat="44.8131117" lon="7.8613233"><ele>332.57142857142856</ele><time>2026-04-11T09:04:57.061Z</time></trkpt><trkpt lat="44.8130767" lon="7.8612383"><ele>332.42857142857144</ele><time>2026-04-11T09:04:58.063Z</time></trkpt><trkpt lat="44.8130433" lon="7.861155"><ele>332.28571428571433</ele><time>2026-04-11T09:04:59.062Z</time></trkpt><trkpt lat="44.8130083" lon="7.86107"><ele>332.1428571428571</ele><time>2026-04-11T09:05:00.06Z</time></trkpt><trkpt lat="44.8129783" lon="7.8609867"><ele>332.0</ele><time>2026-04-11T09:05:01.062Z</time></trkpt><trkpt lat="44.8129483" lon="7.8609"><ele>332.0</ele><time>2026-04-11T09:05:02.059Z</time></trkpt><trkpt lat="44.8129167" lon="7.8608133"><ele>332.0</ele><time>2026-04-11T09:05:03.06Z</time></trkpt><trkpt lat="44.8128867" lon="7.8607267"><ele>332.0</ele><time>2026-04-11T09:05:04.06Z</time></trkpt><trkpt lat="44.812855" lon="7.8606433"><ele>332.0</ele><time>2026-04-11T09:05:05.059Z</time></trkpt><trkpt lat="44.8128233" lon="7.8605633"><ele>332.0</ele><time>2026-04-11T09:05:06.061Z</time></trkpt><trkpt lat="44.8127617" lon="7.8604217"><ele>332.0</ele><time>2026-04-11T09:05:08.06Z</time></trkpt><trkpt lat="44.8127117" lon="7.860275"><ele>332.0</ele><time>2026-04-11T09:05:10.06Z</time></trkpt><trkpt lat="44.8126833" lon="7.8601133"><ele>332.0</ele><time>2026-04-11T09:05:12.061Z</time></trkpt><trkpt lat="44.8126717" lon="7.859945"><ele>332.0</ele><time>2026-04-11T09:05:14.061Z</time></trkpt><trkpt lat="44.8126767" lon="7.859775"><ele>332.0</ele><time>2026-04-11T09:05:16.062Z</time></trkpt><trkpt lat="44.81268" lon="7.8596033"><ele>332.0</ele><time>2026-04-11T09:05:18.058Z</time></trkpt><trkpt lat="44.8126733" lon="7.8594267"><ele>332.0</ele><time>2026-04-11T09:05:20.061Z</time></trkpt><trkpt lat="44.8126733" lon="7.859335"><ele>332.0</ele><time>2026-04-11T09:05:21.061Z</time></trkpt><trkpt lat="44.8126733" lon="7.85924"><ele>332.0</ele><time>2026-04-11T09:05:22.058Z</time></trkpt><trkpt lat="44.8126717" lon="7.859145"><ele>332.0</ele><time>2026-04-11T09:05:23.059Z</time></trkpt><trkpt lat="44.8126683" lon="7.85905"><ele>332.0</ele><time>2026-04-11T09:05:24.06Z</time></trkpt><trkpt lat="44.812665" lon="7.858955"><ele>331.875</ele><time>2026-04-11T09:05:25.061Z</time></trkpt><trkpt lat="44.81266" lon="7.8588633"><ele>331.75</ele><time>2026-04-11T09:05:26.059Z</time></trkpt><trkpt lat="44.8126533" lon="7.8587717"><ele>331.625</ele><time>2026-04-11T09:05:27.066Z</time></trkpt><trkpt lat="44.8126483" lon="7.8586817"><ele>331.5</ele><time>2026-04-11T09:05:28.059Z</time></trkpt><trkpt lat="44.8126433" lon="7.8585917"><ele>331.375</ele><time>2026-04-11T09:05:29.06Z</time></trkpt><trkpt lat="44.8126367" lon="7.8585033"><ele>331.25</ele><time>2026-04-11T09:05:30.061Z</time></trkpt><trkpt lat="44.8126283" lon="7.8584133"><ele>331.125</ele><time>2026-04-11T09:05:31.06Z</time></trkpt><trkpt lat="44.81262" lon="7.858325"><ele>331.0</ele><time>2026-04-11T09:05:32.059Z</time></trkpt><trkpt lat="44.812605" lon="7.85816"><ele>331.0</ele><time>2026-04-11T09:05:34.061Z</time></trkpt><trkpt lat="44.812585" lon="7.8580017"><ele>331.0</ele><time>2026-04-11T09:05:36.06Z</time></trkpt><trkpt lat="44.8125717" lon="7.8578583"><ele>331.0</ele><time>2026-04-11T09:05:38.059Z</time></trkpt><trkpt lat="44.8125683" lon="7.8577133"><ele>331.0</ele><time>2026-04-11T09:05:40.061Z</time></trkpt><trkpt lat="44.812585" lon="7.8575583"><ele>331.0</ele><time>2026-04-11T09:05:42.062Z</time></trkpt><trkpt lat="44.8126133" lon="7.8574017"><ele>331.0</ele><time>2026-04-11T09:05:44.062Z</time></trkpt><trkpt lat="44.8126617" lon="7.8572433"><ele>331.0</ele><time>2026-04-11T09:05:46.061Z</time></trkpt><trkpt lat="44.8126883" lon="7.85716"><ele>331.0</ele><time>2026-04-11T09:05:47.062Z</time></trkpt><trkpt lat="44.8127133" lon="7.857075"><ele>331.0</ele><time>2026-04-11T09:05:48.062Z</time></trkpt><trkpt lat="44.81274" lon="7.8569883"><ele>331.0</ele><time>2026-04-11T09:05:49.062Z</time></trkpt><trkpt lat="44.8127683" lon="7.856905"><ele>331.0</ele><time>2026-04-11T09:05:50.058Z</time></trkpt><trkpt lat="44.8127967" lon="7.85682"><ele>331.2857142857143</ele><time>2026-04-11T09:05:51.06Z</time></trkpt><trkpt lat="44.8128283" lon="7.8567317"><ele>331.57142857142856</ele><time>2026-04-11T09:05:52.06Z</time></trkpt><trkpt lat="44.8128617" lon="7.856645"><ele>331.8571428571429</ele><time>2026-04-11T09:05:53.061Z</time></trkpt><trkpt lat="44.8128983" lon="7.8565617"><ele>332.1428571428571</ele><time>2026-04-11T09:05:54.061Z</time></trkpt><trkpt lat="44.8129383" lon="7.8564817"><ele>332.4285714285714</ele><time>2026-04-11T09:05:55.059Z</time></trkpt><trkpt lat="44.8129833" lon="7.8564067"><ele>332.7142857142857</ele><time>2026-04-11T09:05:56.061Z</time></trkpt><trkpt lat="44.81303" lon="7.8563317"><ele>333.0</ele><time>2026-04-11T09:05:57.06Z</time></trkpt><trkpt lat="44.81308" lon="7.8562617"><ele>333.0</ele><time>2026-04-11T09:05:58.06Z</time></trkpt><trkpt lat="44.81313" lon="7.8561917"><ele>333.0</ele><time>2026-04-11T09:05:59.061Z</time></trkpt><trkpt lat="44.813185" lon="7.8561283"><ele>333.0</ele><time>2026-04-11T09:06:00.062Z</time></trkpt><trkpt lat="44.8132383" lon="7.85606"><ele>333.0</ele><time>2026-04-11T09:06:01.06Z</time></trkpt><trkpt lat="44.8132883" lon="7.85599"><ele>333.0</ele><time>2026-04-11T09:06:02.061Z</time></trkpt><trkpt lat="44.8133333" lon="7.8559133"><ele>333.0</ele><time>2026-04-11T09:06:03.061Z</time></trkpt><trkpt lat="44.8133733" lon="7.8558283"><ele>333.0</ele><time>2026-04-11T09:06:04.063Z</time></trkpt><trkpt lat="44.8134067" lon="7.855745"><ele>333.14285714285717</ele><time>2026-04-11T09:06:05.06Z</time></trkpt><trkpt lat="44.8134383" lon="7.8556617"><ele>333.2857142857143</ele><time>2026-04-11T09:06:06.059Z</time></trkpt><trkpt lat="44.8134683" lon="7.8555783"><ele>333.42857142857144</ele><time>2026-04-11T09:06:07.061Z</time></trkpt><trkpt lat="44.8134967" lon="7.8554933"><ele>333.57142857142856</ele><time>2026-04-11T09:06:08.061Z</time></trkpt><trkpt lat="44.8135267" lon="7.85541"><ele>333.7142857142857</ele><time>2026-04-11T09:06:09.061Z</time></trkpt><trkpt lat="44.81356" lon="7.85533"><ele>333.85714285714283</ele><time>2026-04-11T09:06:10.059Z</time></trkpt><trkpt lat="44.8135933" lon="7.85525"><ele>334.0</ele><time>2026-04-11T09:06:11.06Z</time></trkpt><trkpt lat="44.8136283" lon="7.855175"><ele>334.2</ele><time>2026-04-11T09:06:12.059Z</time></trkpt><trkpt lat="44.813665" lon="7.855095"><ele>334.4</ele><time>2026-04-11T09:06:13.06Z</time></trkpt><trkpt lat="44.8136983" lon="7.8550167"><ele>334.6</ele><time>2026-04-11T09:06:14.061Z</time></trkpt><trkpt lat="44.8137667" lon="7.8548683"><ele>334.8</ele><time>2026-04-11T09:06:16.061Z</time></trkpt><trkpt lat="44.8138283" lon="7.8547183"><ele>335.0</ele><time>2026-04-11T09:06:18.062Z</time></trkpt><trkpt lat="44.8139067" lon="7.8546083"><ele>335.0</ele><time>2026-04-11T09:06:20.062Z</time></trkpt><trkpt lat="44.8140067" lon="7.8545533"><ele>335.0</ele><time>2026-04-11T09:06:22.06Z</time></trkpt><trkpt lat="44.814135" lon="7.8545133"><ele>335.0</ele><time>2026-04-11T09:06:24.059Z</time></trkpt><trkpt lat="44.8141933" lon="7.854475"><ele>335.0</ele><time>2026-04-11T09:06:25.06Z</time></trkpt><trkpt lat="44.81429" lon="7.8544117"><ele>335.0</ele><time>2026-04-11T09:06:27.06Z</time></trkpt><trkpt lat="44.8143967" lon="7.854385"><ele>334.85714285714283</ele><time>2026-04-11T09:06:29.06Z</time></trkpt><trkpt lat="44.81446" lon="7.8543817"><ele>334.7142857142857</ele><time>2026-04-11T09:06:30.062Z</time></trkpt><trkpt lat="44.8145267" lon="7.8543633"><ele>334.57142857142856</ele><time>2026-04-11T09:06:31.06Z</time></trkpt><trkpt lat="44.8145833" lon="7.85432"><ele>334.42857142857144</ele><time>2026-04-11T09:06:32.061Z</time></trkpt><trkpt lat="44.81463" lon="7.8542567"><ele>334.2857142857143</ele><time>2026-04-11T09:06:33.062Z</time></trkpt><trkpt lat="44.814685" lon="7.8541867"><ele>334.1428571428571</ele><time>2026-04-11T09:06:34.061Z</time></trkpt><trkpt lat="44.8147433" lon="7.8541167"><ele>334.0</ele><time>2026-04-11T09:06:35.06Z</time></trkpt><trkpt lat="44.8147983" lon="7.8540367"><ele>333.2857142857143</ele><time>2026-04-11T09:06:36.061Z</time></trkpt><trkpt lat="44.8148483" lon="7.85396"><ele>332.57142857142856</ele><time>2026-04-11T09:06:37.062Z</time></trkpt><trkpt lat="44.8148983" lon="7.853885"><ele>331.8571428571429</ele><time>2026-04-11T09:06:38.059Z</time></trkpt><trkpt lat="44.814945" lon="7.8538067"><ele>331.1428571428571</ele><time>2026-04-11T09:06:39.06Z</time></trkpt><trkpt lat="44.8149867" lon="7.8537317"><ele>330.42857142857144</ele><time>2026-04-11T09:06:40.061Z</time></trkpt><trkpt lat="44.8150333" lon="7.8536583"><ele>329.7142857142857</ele><time>2026-04-11T09:06:41.055Z</time></trkpt><trkpt lat="44.8150783" lon="7.8535933"><ele>329.0</ele><time>2026-04-11T09:06:42.059Z</time></trkpt><trkpt lat="44.8151517" lon="7.8534817"><ele>327.4</ele><time>2026-04-11T09:06:44.06Z</time></trkpt><trkpt lat="44.8152317" lon="7.8533633"><ele>325.79999999999995</ele><time>2026-04-11T09:06:46.058Z</time></trkpt><trkpt lat="44.815305" lon="7.8532183"><ele>324.20000000000005</ele><time>2026-04-11T09:06:48.061Z</time></trkpt><trkpt lat="44.81534" lon="7.85314"><ele>322.6</ele><time>2026-04-11T09:06:49.059Z</time></trkpt><trkpt lat="44.815425" lon="7.8530017"><ele>321.0</ele><time>2026-04-11T09:06:51.061Z</time></trkpt><trkpt lat="44.8154733" lon="7.85293"><ele>321.0</ele><time>2026-04-11T09:06:52.061Z</time></trkpt><trkpt lat="44.8155267" lon="7.8528533"><ele>321.0</ele><time>2026-04-11T09:06:53.06Z</time></trkpt><trkpt lat="44.8155733" lon="7.8527767"><ele>321.0</ele><time>2026-04-11T09:06:54.059Z</time></trkpt><trkpt lat="44.81562" lon="7.8526917"><ele>321.0</ele><time>2026-04-11T09:06:55.062Z</time></trkpt><trkpt lat="44.8156583" lon="7.852605"><ele>321.0</ele><time>2026-04-11T09:06:56.06Z</time></trkpt><trkpt lat="44.8157467" lon="7.8525783"><ele>321.0</ele><time>2026-04-11T09:06:58.06Z</time></trkpt><trkpt lat="44.8158383" lon="7.8526533"><ele>321.0</ele><time>2026-04-11T09:07:00.061Z</time></trkpt><trkpt lat="44.81593" lon="7.8527667"><ele>321.0</ele><time>2026-04-11T09:07:02.059Z</time></trkpt><trkpt lat="44.8160333" lon="7.85287"><ele>321.0</ele><time>2026-04-11T09:07:04.059Z</time></trkpt><trkpt lat="44.816095" lon="7.8529183"><ele>321.0</ele><time>2026-04-11T09:07:05.058Z</time></trkpt><trkpt lat="44.816155" lon="7.85296"><ele>321.0</ele><time>2026-04-11T09:07:06.059Z</time></trkpt><trkpt lat="44.8162167" lon="7.852995"><ele>320.5</ele><time>2026-04-11T09:07:07.06Z</time></trkpt><trkpt lat="44.8163183" lon="7.85305"><ele>320.0</ele><time>2026-04-11T09:07:09.064Z</time></trkpt><trkpt lat="44.816385" lon="7.85306"><ele>319.5</ele><time>2026-04-11T09:07:11.063Z</time></trkpt><trkpt lat="44.816445" lon="7.8529817"><ele>319.0</ele><time>2026-04-11T09:07:14.06Z</time></trkpt><trkpt lat="44.8164817" lon="7.8529"><ele>318.5</ele><time>2026-04-11T09:07:17.059Z</time></trkpt><trkpt lat="44.8165167" lon="7.852825"><ele>318.0</ele><time>2026-04-11T09:07:21.064Z</time></trkpt><trkpt lat="44.81657" lon="7.8527083"><ele>318.0</ele><time>2026-04-11T09:07:24.06Z</time></trkpt><trkpt lat="44.8166083" lon="7.8526233"><ele>318.0</ele><time>2026-04-11T09:07:26.061Z</time></trkpt><trkpt lat="44.8166367" lon="7.8525317"><ele>318.0</ele><time>2026-04-11T09:07:28.062Z</time></trkpt><trkpt lat="44.8166633" lon="7.8524267"><ele>318.0</ele><time>2026-04-11T09:07:30.061Z</time></trkpt><trkpt lat="44.81669" lon="7.852305"><ele>318.0</ele><time>2026-04-11T09:07:32.061Z</time></trkpt><trkpt lat="44.8167183" lon="7.8521767"><ele>318.0</ele><time>2026-04-11T09:07:34.06Z</time></trkpt><trkpt lat="44.81675" lon="7.8520467"><ele>317.0</ele><time>2026-04-11T09:07:36.059Z</time></trkpt><trkpt lat="44.816785" lon="7.8519117"><ele>316.0</ele><time>2026-04-11T09:07:38.062Z</time></trkpt><trkpt lat="44.8168133" lon="7.85176"><ele>315.0</ele><time>2026-04-11T09:07:40.063Z</time></trkpt><trkpt lat="44.81685" lon="7.8516033"><ele>314.0</ele><time>2026-04-11T09:07:42.061Z</time></trkpt><trkpt lat="44.8168867" lon="7.8514433"><ele>313.59999999999997</ele><time>2026-04-11T09:07:44.059Z</time></trkpt><trkpt lat="44.8169283" lon="7.85129"><ele>313.2</ele><time>2026-04-11T09:07:46.06Z</time></trkpt><trkpt lat="44.8169717" lon="7.8511333"><ele>312.79999999999995</ele><time>2026-04-11T09:07:48.06Z</time></trkpt><trkpt lat="44.8170033" lon="7.8510033"><ele>312.4</ele><time>2026-04-11T09:07:50.061Z</time></trkpt><trkpt lat="44.8170333" lon="7.8508817"><ele>312.0</ele><time>2026-04-11T09:07:52.06Z</time></trkpt><trkpt lat="44.8170883" lon="7.850765"><ele>311.5</ele><time>2026-04-11T09:07:54.061Z</time></trkpt><trkpt lat="44.8171617" lon="7.85065"><ele>311.0</ele><time>2026-04-11T09:07:56.06Z</time></trkpt><trkpt lat="44.8172433" lon="7.8505467"><ele>310.5</ele><time>2026-04-11T09:07:58.061Z</time></trkpt><trkpt lat="44.8173317" lon="7.8504383"><ele>310.0</ele><time>2026-04-11T09:08:00.063Z</time></trkpt><trkpt lat="44.8174217" lon="7.850325"><ele>310.0</ele><time>2026-04-11T09:08:02.064Z</time></trkpt><trkpt lat="44.8175183" lon="7.850225"><ele>310.0</ele><time>2026-04-11T09:08:04.06Z</time></trkpt><trkpt lat="44.8176217" lon="7.85015"><ele>310.0</ele><time>2026-04-11T09:08:06.059Z</time></trkpt><trkpt lat="44.81774" lon="7.8501217"><ele>310.0</ele><time>2026-04-11T09:08:08.06Z</time></trkpt><trkpt lat="44.8178033" lon="7.850115"><ele>310.0</ele><time>2026-04-11T09:08:09.061Z</time></trkpt><trkpt lat="44.81787" lon="7.8501067"><ele>309.7142857142857</ele><time>2026-04-11T09:08:10.059Z</time></trkpt><trkpt lat="44.817935" lon="7.85009"><ele>309.42857142857144</ele><time>2026-04-11T09:08:11.06Z</time></trkpt><trkpt lat="44.8179967" lon="7.85006"><ele>309.1428571428571</ele><time>2026-04-11T09:08:12.059Z</time></trkpt><trkpt lat="44.8180567" lon="7.8500183"><ele>308.8571428571429</ele><time>2026-04-11T09:08:13.062Z</time></trkpt><trkpt lat="44.81811" lon="7.8499683"><ele>308.57142857142856</ele><time>2026-04-11T09:08:14.06Z</time></trkpt><trkpt lat="44.81816" lon="7.8499117"><ele>308.2857142857143</ele><time>2026-04-11T09:08:15.06Z</time></trkpt><trkpt lat="44.81821" lon="7.8498517"><ele>308.0</ele><time>2026-04-11T09:08:16.059Z</time></trkpt><trkpt lat="44.81826" lon="7.84978"><ele>308.0</ele><time>2026-04-11T09:08:17.059Z</time></trkpt><trkpt lat="44.81831" lon="7.849705"><ele>308.0</ele><time>2026-04-11T09:08:18.059Z</time></trkpt><trkpt lat="44.8183583" lon="7.849635"><ele>308.0</ele><time>2026-04-11T09:08:19.061Z</time></trkpt><trkpt lat="44.8184067" lon="7.8495667"><ele>308.0</ele><time>2026-04-11T09:08:20.062Z</time></trkpt><trkpt lat="44.818455" lon="7.8495"><ele>308.0</ele><time>2026-04-11T09:08:21.063Z</time></trkpt><trkpt lat="44.8185033" lon="7.8494267"><ele>308.0</ele><time>2026-04-11T09:08:22.06Z</time></trkpt><trkpt lat="44.8185517" lon="7.8493533"><ele>308.0</ele><time>2026-04-11T09:08:23.06Z</time></trkpt><trkpt lat="44.8185967" lon="7.849285"><ele>306.8</ele><time>2026-04-11T09:08:24.06Z</time></trkpt><trkpt lat="44.818645" lon="7.849215"><ele>305.6</ele><time>2026-04-11T09:08:25.059Z</time></trkpt><trkpt lat="44.818715" lon="7.8490883"><ele>304.4</ele><time>2026-04-11T09:08:27.061Z</time></trkpt><trkpt lat="44.818705" lon="7.8489433"><ele>303.2</ele><time>2026-04-11T09:08:29.059Z</time></trkpt><trkpt lat="44.8186333" lon="7.8487933"><ele>302.0</ele><time>2026-04-11T09:08:31.06Z</time></trkpt><trkpt lat="44.818605" lon="7.8487083"><ele>302.00000000000006</ele><time>2026-04-11T09:08:32.061Z</time></trkpt><trkpt lat="44.8185817" lon="7.8486233"><ele>302.0</ele><time>2026-04-11T09:08:33.06Z</time></trkpt><trkpt lat="44.8185583" lon="7.8485333"><ele>302.0</ele><time>2026-04-11T09:08:34.059Z</time></trkpt><trkpt lat="44.8185283" lon="7.848445"><ele>302.0</ele><time>2026-04-11T09:08:35.061Z</time></trkpt><trkpt lat="44.8184967" lon="7.8483633"><ele>302.0</ele><time>2026-04-11T09:08:36.062Z</time></trkpt><trkpt lat="44.8184633" lon="7.8482833"><ele>302.00000000000006</ele><time>2026-04-11T09:08:37.061Z</time></trkpt><trkpt lat="44.81842" lon="7.8482117"><ele>302.0</ele><time>2026-04-11T09:08:38.061Z</time></trkpt><trkpt lat="44.8183683" lon="7.8481517"><ele>302.83333333333337</ele><time>2026-04-11T09:08:39.06Z</time></trkpt><trkpt lat="44.8183067" lon="7.84811"><ele>303.6666666666667</ele><time>2026-04-11T09:08:40.062Z</time></trkpt><trkpt lat="44.818245" lon="7.8480833"><ele>304.5</ele><time>2026-04-11T09:08:41.061Z</time></trkpt><trkpt lat="44.818115" lon="7.8480517"><ele>305.3333333333333</ele><time>2026-04-11T09:08:43.062Z</time></trkpt><trkpt lat="44.81804" lon="7.8480333"><ele>306.16666666666663</ele><time>2026-04-11T09:08:44.062Z</time></trkpt><trkpt lat="44.8179633" lon="7.848025"><ele>307.0</ele><time>2026-04-11T09:08:45.063Z</time></trkpt><trkpt lat="44.817895" lon="7.8480233"><ele>307.0</ele><time>2026-04-11T09:08:46.061Z</time></trkpt><trkpt lat="44.81783" lon="7.8480217"><ele>307.0</ele><time>2026-04-11T09:08:47.06Z</time></trkpt><trkpt lat="44.8177667" lon="7.848015"><ele>307.0</ele><time>2026-04-11T09:08:48.062Z</time></trkpt><trkpt lat="44.81765" lon="7.8479767"><ele>307.0</ele><time>2026-04-11T09:08:50.062Z</time></trkpt><trkpt lat="44.817585" lon="7.8479317"><ele>307.0</ele><time>2026-04-11T09:08:51.062Z</time></trkpt><trkpt lat="44.8175217" lon="7.84787"><ele>307.0</ele><time>2026-04-11T09:08:52.062Z</time></trkpt><trkpt lat="44.8174683" lon="7.8477883"><ele>307.3333333333333</ele><time>2026-04-11T09:08:53.059Z</time></trkpt><trkpt lat="44.8174183" lon="7.8476917"><ele>307.66666666666663</ele><time>2026-04-11T09:08:54.064Z</time></trkpt><trkpt lat="44.8173767" lon="7.8475917"><ele>308.0</ele><time>2026-04-11T09:08:55.061Z</time></trkpt><trkpt lat="44.81734" lon="7.8474917"><ele>308.3333333333333</ele><time>2026-04-11T09:08:56.061Z</time></trkpt><trkpt lat="44.8173017" lon="7.8474067"><ele>308.6666666666667</ele><time>2026-04-11T09:08:57.06Z</time></trkpt><trkpt lat="44.8172133" lon="7.8472967"><ele>309.0</ele><time>2026-04-11T09:08:59.06Z</time></trkpt><trkpt lat="44.8171417" lon="7.8472667"><ele>308.0</ele><time>2026-04-11T09:09:01.06Z</time></trkpt><trkpt lat="44.8170533" lon="7.8472367"><ele>307.0</ele><time>2026-04-11T09:09:04.06Z</time></trkpt><trkpt lat="44.8169817" lon="7.8472167"><ele>306.0</ele><time>2026-04-11T09:09:06.062Z</time></trkpt><trkpt lat="44.8168933" lon="7.84721"><ele>305.0</ele><time>2026-04-11T09:09:08.059Z</time></trkpt><trkpt lat="44.8167933" lon="7.8471967"><ele>304.0</ele><time>2026-04-11T09:09:10.059Z</time></trkpt><trkpt lat="44.8166917" lon="7.8471817"><ele>303.4</ele><time>2026-04-11T09:09:12.06Z</time></trkpt><trkpt lat="44.8165867" lon="7.8471367"><ele>302.79999999999995</ele><time>2026-04-11T09:09:14.062Z</time></trkpt><trkpt lat="44.8164817" lon="7.84707"><ele>302.20000000000005</ele><time>2026-04-11T09:09:16.06Z</time></trkpt><trkpt lat="44.81639" lon="7.846995"><ele>301.6</ele><time>2026-04-11T09:09:18.059Z</time></trkpt><trkpt lat="44.816305" lon="7.8469167"><ele>301.0</ele><time>2026-04-11T09:09:20.061Z</time></trkpt><trkpt lat="44.8162317" lon="7.8468433"><ele>301.0</ele><time>2026-04-11T09:09:22.059Z</time></trkpt><trkpt lat="44.8161667" lon="7.84678"><ele>301.0</ele><time>2026-04-11T09:09:24.059Z</time></trkpt><trkpt lat="44.81611" lon="7.84671"><ele>301.0</ele><time>2026-04-11T09:09:26.058Z</time></trkpt><trkpt lat="44.81605" lon="7.84664"><ele>301.0</ele><time>2026-04-11T09:09:28.061Z</time></trkpt><trkpt lat="44.8159867" lon="7.8465667"><ele>301.0</ele><time>2026-04-11T09:09:30.06Z</time></trkpt><trkpt lat="44.8159283" lon="7.846485"><ele>301.0</ele><time>2026-04-11T09:09:32.059Z</time></trkpt><trkpt lat="44.8158817" lon="7.8463917"><ele>300.8333333333333</ele><time>2026-04-11T09:09:34.06Z</time></trkpt><trkpt lat="44.8158433" lon="7.846295"><ele>300.66666666666663</ele><time>2026-04-11T09:09:36.061Z</time></trkpt><trkpt lat="44.8158017" lon="7.8461983"><ele>300.5</ele><time>2026-04-11T09:09:38.058Z</time></trkpt><trkpt lat="44.8157667" lon="7.8461"><ele>300.3333333333333</ele><time>2026-04-11T09:09:40.061Z</time></trkpt><trkpt lat="44.8157233" lon="7.8459967"><ele>300.1666666666667</ele><time>2026-04-11T09:09:42.061Z</time></trkpt><trkpt lat="44.815675" lon="7.845915"><ele>300.0</ele><time>2026-04-11T09:09:44.06Z</time></trkpt><trkpt lat="44.8156133" lon="7.8458533"><ele>299.8333333333333</ele><time>2026-04-11T09:09:46.061Z</time></trkpt><trkpt lat="44.81556" lon="7.84577"><ele>299.6666666666667</ele><time>2026-04-11T09:09:48.06Z</time></trkpt><trkpt lat="44.8155083" lon="7.8456783"><ele>299.5</ele><time>2026-04-11T09:09:50.063Z</time></trkpt><trkpt lat="44.815435" lon="7.8456167"><ele>299.33333333333337</ele><time>2026-04-11T09:09:52.06Z</time></trkpt><trkpt lat="44.8153817" lon="7.8455517"><ele>299.1666666666667</ele><time>2026-04-11T09:09:54.062Z</time></trkpt><trkpt lat="44.8153583" lon="7.845455"><ele>299.0</ele><time>2026-04-11T09:09:56.061Z</time></trkpt><trkpt lat="44.8153917" lon="7.8453667"><ele>299.0</ele><time>2026-04-11T09:09:58.061Z</time></trkpt><trkpt lat="44.8154683" lon="7.8452817"><ele>299.0</ele><time>2026-04-11T09:10:00.059Z</time></trkpt><trkpt lat="44.815555" lon="7.8451983"><ele>299.0</ele><time>2026-04-11T09:10:02.06Z</time></trkpt><trkpt lat="44.8156433" lon="7.8451033"><ele>299.0</ele><time>2026-04-11T09:10:04.059Z</time></trkpt><trkpt lat="44.81574" lon="7.8450067"><ele>299.0</ele><time>2026-04-11T09:10:06.058Z</time></trkpt><trkpt lat="44.8158433" lon="7.8449033"><ele>298.4</ele><time>2026-04-11T09:10:08.059Z</time></trkpt><trkpt lat="44.8158967" lon="7.8448517"><ele>297.79999999999995</ele><time>2026-04-11T09:10:09.061Z</time></trkpt><trkpt lat="44.81595" lon="7.8448"><ele>297.20000000000005</ele><time>2026-04-11T09:10:10.06Z</time></trkpt><trkpt lat="44.816055" lon="7.8447117"><ele>296.6</ele><time>2026-04-11T09:10:12.058Z</time></trkpt><trkpt lat="44.8161583" lon="7.84463"><ele>296.0</ele><time>2026-04-11T09:10:14.058Z</time></trkpt><trkpt lat="44.8162533" lon="7.84455"><ele>296.0</ele><time>2026-04-11T09:10:16.056Z</time></trkpt><trkpt lat="44.8163467" lon="7.844475"><ele>296.0</ele><time>2026-04-11T09:10:18.061Z</time></trkpt><trkpt lat="44.8164517" lon="7.8444183"><ele>296.0</ele><time>2026-04-11T09:10:20.061Z</time></trkpt><trkpt lat="44.816565" lon="7.844365"><ele>296.0</ele><time>2026-04-11T09:10:22.06Z</time></trkpt><trkpt lat="44.8166717" lon="7.84431"><ele>296.2</ele><time>2026-04-11T09:10:24.061Z</time></trkpt><trkpt lat="44.8167767" lon="7.8442333"><ele>296.40000000000003</ele><time>2026-04-11T09:10:26.061Z</time></trkpt><trkpt lat="44.8168617" lon="7.8441367"><ele>296.6</ele><time>2026-04-11T09:10:28.062Z</time></trkpt><trkpt lat="44.8169" lon="7.8439983"><ele>296.8</ele><time>2026-04-11T09:10:30.058Z</time></trkpt><trkpt lat="44.8168883" lon="7.84384"><ele>297.0</ele><time>2026-04-11T09:10:32.061Z</time></trkpt><trkpt lat="44.8168717" lon="7.8436833"><ele>297.0</ele><time>2026-04-11T09:10:34.059Z</time></trkpt><trkpt lat="44.816855" lon="7.8435267"><ele>297.0</ele><time>2026-04-11T09:10:36.059Z</time></trkpt><trkpt lat="44.8168367" lon="7.843365"><ele>297.0</ele><time>2026-04-11T09:10:38.059Z</time></trkpt><trkpt lat="44.8168233" lon="7.8432067"><ele>297.0</ele><time>2026-04-11T09:10:40.053Z</time></trkpt><trkpt lat="44.8168083" lon="7.8430467"><ele>297.0</ele><time>2026-04-11T09:10:42.055Z</time></trkpt><trkpt lat="44.8168033" lon="7.84289"><ele>297.0</ele><time>2026-04-11T09:10:44.055Z</time></trkpt><trkpt lat="44.8168167" lon="7.842735"><ele>297.0</ele><time>2026-04-11T09:10:46.053Z</time></trkpt><trkpt lat="44.8168433" lon="7.84258"><ele>297.0</ele><time>2026-04-11T09:10:48.057Z</time></trkpt><trkpt lat="44.8168767" lon="7.842425"><ele>297.0</ele><time>2026-04-11T09:10:50.055Z</time></trkpt><trkpt lat="44.8169083" lon="7.8422767"><ele>297.0</ele><time>2026-04-11T09:10:52.055Z</time></trkpt><trkpt lat="44.8169317" lon="7.8421267"><ele>297.0</ele><time>2026-04-11T09:10:54.059Z</time></trkpt><trkpt lat="44.816945" lon="7.8419717"><ele>297.0</ele><time>2026-04-11T09:10:56.056Z</time></trkpt><trkpt lat="44.81695" lon="7.8418217"><ele>297.0</ele><time>2026-04-11T09:10:58.06Z</time></trkpt><trkpt lat="44.8169517" lon="7.8416767"><ele>297.2</ele><time>2026-04-11T09:11:00.059Z</time></trkpt><trkpt lat="44.81695" lon="7.8415367"><ele>297.4</ele><time>2026-04-11T09:11:02.061Z</time></trkpt><trkpt lat="44.81694" lon="7.8414117"><ele>297.6</ele><time>2026-04-11T09:11:04.061Z</time></trkpt><trkpt lat="44.816915" lon="7.8412917"><ele>297.8</ele><time>2026-04-11T09:11:06.057Z</time></trkpt><trkpt lat="44.8168767" lon="7.841175"><ele>298.0</ele><time>2026-04-11T09:11:08.062Z</time></trkpt><trkpt lat="44.8168433" lon="7.84105"><ele>298.4</ele><time>2026-04-11T09:11:10.058Z</time></trkpt><trkpt lat="44.81681" lon="7.840925"><ele>298.8</ele><time>2026-04-11T09:11:12.058Z</time></trkpt><trkpt lat="44.8167867" lon="7.8407983"><ele>299.2</ele><time>2026-04-11T09:11:14.06Z</time></trkpt><trkpt lat="44.8167717" lon="7.840665"><ele>299.6</ele><time>2026-04-11T09:11:16.059Z</time></trkpt><trkpt lat="44.8167583" lon="7.8405283"><ele>300.0</ele><time>2026-04-11T09:11:18.059Z</time></trkpt><trkpt lat="44.8167517" lon="7.84039"><ele>300.0</ele><time>2026-04-11T09:11:20.058Z</time></trkpt><trkpt lat="44.8167417" lon="7.8402517"><ele>300.0</ele><time>2026-04-11T09:11:22.059Z</time></trkpt><trkpt lat="44.8167317" lon="7.84011"><ele>300.0</ele><time>2026-04-11T09:11:24.057Z</time></trkpt><trkpt lat="44.8167167" lon="7.8399717"><ele>300.0</ele><time>2026-04-11T09:11:26.06Z</time></trkpt><trkpt lat="44.8166967" lon="7.8398317"><ele>300.0</ele><time>2026-04-11T09:11:28.058Z</time></trkpt><trkpt lat="44.816655" lon="7.8397067"><ele>300.4</ele><time>2026-04-11T09:11:30.061Z</time></trkpt><trkpt lat="44.816595" lon="7.8395917"><ele>300.8</ele><time>2026-04-11T09:11:32.059Z</time></trkpt><trkpt lat="44.8165317" lon="7.8394717"><ele>301.2</ele><time>2026-04-11T09:11:34.058Z</time></trkpt><trkpt lat="44.81646" lon="7.839355"><ele>301.6</ele><time>2026-04-11T09:11:36.06Z</time></trkpt><trkpt lat="44.816385" lon="7.83924"><ele>302.0</ele><time>2026-04-11T09:11:38.06Z</time></trkpt><trkpt lat="44.8163167" lon="7.8391183"><ele>302.2</ele><time>2026-04-11T09:11:40.057Z</time></trkpt><trkpt lat="44.8162583" lon="7.8389883"><ele>302.4</ele><time>2026-04-11T09:11:42.061Z</time></trkpt><trkpt lat="44.816225" lon="7.8388467"><ele>302.6</ele><time>2026-04-11T09:11:44.058Z</time></trkpt><trkpt lat="44.8162183" lon="7.8387017"><ele>302.8</ele><time>2026-04-11T09:11:46.059Z</time></trkpt><trkpt lat="44.8162233" lon="7.8385533"><ele>303.0</ele><time>2026-04-11T09:11:48.061Z</time></trkpt><trkpt lat="44.8162267" lon="7.8384017"><ele>303.4</ele><time>2026-04-11T09:11:50.061Z</time></trkpt><trkpt lat="44.81624" lon="7.8382583"><ele>303.8</ele><time>2026-04-11T09:11:52.06Z</time></trkpt><trkpt lat="44.8162717" lon="7.838115"><ele>304.2</ele><time>2026-04-11T09:11:54.06Z</time></trkpt><trkpt lat="44.8163117" lon="7.8379717"><ele>304.6</ele><time>2026-04-11T09:11:56.059Z</time></trkpt><trkpt lat="44.8163383" lon="7.8378233"><ele>305.0</ele><time>2026-04-11T09:11:58.061Z</time></trkpt><trkpt lat="44.8163367" lon="7.8376717"><ele>305.4</ele><time>2026-04-11T09:12:00.058Z</time></trkpt><trkpt lat="44.8163183" lon="7.8375333"><ele>305.8</ele><time>2026-04-11T09:12:02.061Z</time></trkpt><trkpt lat="44.81633" lon="7.8374117"><ele>306.2</ele><time>2026-04-11T09:12:04.059Z</time></trkpt><trkpt lat="44.81639" lon="7.8373183"><ele>306.6</ele><time>2026-04-11T09:12:06.059Z</time></trkpt><trkpt lat="44.8164883" lon="7.8372533"><ele>307.0</ele><time>2026-04-11T09:12:08.059Z</time></trkpt><trkpt lat="44.8165967" lon="7.837195"><ele>307.0</ele><time>2026-04-11T09:12:10.059Z</time></trkpt><trkpt lat="44.8166967" lon="7.837115"><ele>307.0</ele><time>2026-04-11T09:12:12.057Z</time></trkpt><trkpt lat="44.8167967" lon="7.837005"><ele>307.0</ele><time>2026-04-11T09:12:14.059Z</time></trkpt><trkpt lat="44.816845" lon="7.8369333"><ele>307.0</ele><time>2026-04-11T09:12:15.059Z</time></trkpt><trkpt lat="44.8168883" lon="7.8368667"><ele>307.0</ele><time>2026-04-11T09:12:16.059Z</time></trkpt><trkpt lat="44.81693" lon="7.8367983"><ele>307.0</ele><time>2026-04-11T09:12:17.058Z</time></trkpt><trkpt lat="44.81702" lon="7.836675"><ele>306.3333333333333</ele><time>2026-04-11T09:12:19.061Z</time></trkpt><trkpt lat="44.8170633" lon="7.83661"><ele>305.66666666666663</ele><time>2026-04-11T09:12:20.059Z</time></trkpt><trkpt lat="44.8171483" lon="7.8364767"><ele>305.0</ele><time>2026-04-11T09:12:22.059Z</time></trkpt><trkpt lat="44.817195" lon="7.83641"><ele>304.3333333333333</ele><time>2026-04-11T09:12:23.059Z</time></trkpt><trkpt lat="44.8172433" lon="7.8363433"><ele>303.6666666666667</ele><time>2026-04-11T09:12:24.059Z</time></trkpt><trkpt lat="44.81729" lon="7.8362733"><ele>303.0</ele><time>2026-04-11T09:12:25.06Z</time></trkpt><trkpt lat="44.817335" lon="7.836205"><ele>303.0</ele><time>2026-04-11T09:12:26.06Z</time></trkpt><trkpt lat="44.8173767" lon="7.8361333"><ele>303.0</ele><time>2026-04-11T09:12:27.059Z</time></trkpt><trkpt lat="44.817415" lon="7.8360583"><ele>303.0</ele><time>2026-04-11T09:12:28.061Z</time></trkpt><trkpt lat="44.8174517" lon="7.8359783"><ele>303.0</ele><time>2026-04-11T09:12:29.058Z</time></trkpt><trkpt lat="44.81748" lon="7.8358983"><ele>303.0</ele><time>2026-04-11T09:12:30.059Z</time></trkpt><trkpt lat="44.8175133" lon="7.8357317"><ele>303.0</ele><time>2026-04-11T09:12:32.059Z</time></trkpt><trkpt lat="44.8175233" lon="7.8355733"><ele>302.8333333333333</ele><time>2026-04-11T09:12:34.059Z</time></trkpt><trkpt lat="44.81755" lon="7.8354717"><ele>302.6666666666667</ele><time>2026-04-11T09:12:36.059Z</time></trkpt><trkpt lat="44.8176533" lon="7.835475"><ele>302.5</ele><time>2026-04-11T09:12:39.062Z</time></trkpt><trkpt lat="44.8177083" lon="7.835525"><ele>302.33333333333337</ele><time>2026-04-11T09:12:40.059Z</time></trkpt><trkpt lat="44.8177617" lon="7.83558"><ele>302.1666666666667</ele><time>2026-04-11T09:12:41.06Z</time></trkpt><trkpt lat="44.8178683" lon="7.835685"><ele>302.0</ele><time>2026-04-11T09:12:43.061Z</time></trkpt><trkpt lat="44.8179267" lon="7.8357317"><ele>301.8571428571429</ele><time>2026-04-11T09:12:44.06Z</time></trkpt><trkpt lat="44.8179833" lon="7.835775"><ele>301.7142857142857</ele><time>2026-04-11T09:12:45.059Z</time></trkpt><trkpt lat="44.8180383" lon="7.8358217"><ele>301.57142857142856</ele><time>2026-04-11T09:12:46.058Z</time></trkpt><trkpt lat="44.8180917" lon="7.83587"><ele>301.42857142857144</ele><time>2026-04-11T09:12:47.06Z</time></trkpt><trkpt lat="44.8181467" lon="7.83592"><ele>301.2857142857143</ele><time>2026-04-11T09:12:48.058Z</time></trkpt><trkpt lat="44.8182" lon="7.83597"><ele>301.14285714285717</ele><time>2026-04-11T09:12:49.061Z</time></trkpt><trkpt lat="44.8182533" lon="7.8360183"><ele>301.0</ele><time>2026-04-11T09:12:50.06Z</time></trkpt><trkpt lat="44.818355" lon="7.8361133"><ele>300.75</ele><time>2026-04-11T09:12:52.06Z</time></trkpt><trkpt lat="44.8184533" lon="7.8362067"><ele>300.5</ele><time>2026-04-11T09:12:54.06Z</time></trkpt><trkpt lat="44.81855" lon="7.8363067"><ele>300.25</ele><time>2026-04-11T09:12:56.059Z</time></trkpt><trkpt lat="44.8186533" lon="7.8364083"><ele>300.0</ele><time>2026-04-11T09:12:58.06Z</time></trkpt><trkpt lat="44.8187583" lon="7.8365"><ele>300.5</ele><time>2026-04-11T09:13:00.06Z</time></trkpt><trkpt lat="44.8188617" lon="7.8365967"><ele>301.0</ele><time>2026-04-11T09:13:02.059Z</time></trkpt><trkpt lat="44.8189517" lon="7.8367067"><ele>301.5</ele><time>2026-04-11T09:13:04.06Z</time></trkpt><trkpt lat="44.81903" lon="7.8368333"><ele>302.0</ele><time>2026-04-11T09:13:06.061Z</time></trkpt><trkpt lat="44.8191017" lon="7.8369717"><ele>302.2</ele><time>2026-04-11T09:13:08.059Z</time></trkpt><trkpt lat="44.8191367" lon="7.8370483"><ele>302.4</ele><time>2026-04-11T09:13:09.059Z</time></trkpt><trkpt lat="44.8192033" lon="7.8371967"><ele>302.6</ele><time>2026-04-11T09:13:11.058Z</time></trkpt><trkpt lat="44.8192517" lon="7.8373333"><ele>302.8</ele><time>2026-04-11T09:13:13.061Z</time></trkpt><trkpt lat="44.8193" lon="7.8374683"><ele>303.0</ele><time>2026-04-11T09:13:15.061Z</time></trkpt><trkpt lat="44.8193467" lon="7.837595"><ele>302.4</ele><time>2026-04-11T09:13:17.061Z</time></trkpt><trkpt lat="44.81942" lon="7.8377333"><ele>301.8</ele><time>2026-04-11T09:13:19.061Z</time></trkpt><trkpt lat="44.8195317" lon="7.8376983"><ele>301.2</ele><time>2026-04-11T09:13:21.059Z</time></trkpt><trkpt lat="44.819645" lon="7.837625"><ele>300.6</ele><time>2026-04-11T09:13:23.061Z</time></trkpt><trkpt lat="44.819705" lon="7.83759"><ele>300.0</ele><time>2026-04-11T09:13:24.062Z</time></trkpt><trkpt lat="44.819765" lon="7.8375567"><ele>299.99999999999994</ele><time>2026-04-11T09:13:25.06Z</time></trkpt><trkpt lat="44.819825" lon="7.8375233"><ele>300.0</ele><time>2026-04-11T09:13:26.062Z</time></trkpt><trkpt lat="44.8198883" lon="7.8374917"><ele>300.0</ele><time>2026-04-11T09:13:27.063Z</time></trkpt><trkpt lat="44.8199517" lon="7.83746"><ele>300.0</ele><time>2026-04-11T09:13:28.062Z</time></trkpt><trkpt lat="44.8200167" lon="7.8374267"><ele>300.0</ele><time>2026-04-11T09:13:29.061Z</time></trkpt><trkpt lat="44.8200783" lon="7.8373967"><ele>299.99999999999994</ele><time>2026-04-11T09:13:30.06Z</time></trkpt><trkpt lat="44.8201417" lon="7.8373633"><ele>300.0</ele><time>2026-04-11T09:13:31.063Z</time></trkpt><trkpt lat="44.8202083" lon="7.83733"><ele>299.85714285714283</ele><time>2026-04-11T09:13:32.06Z</time></trkpt><trkpt lat="44.8202733" lon="7.8372983"><ele>299.7142857142857</ele><time>2026-04-11T09:13:33.061Z</time></trkpt><trkpt lat="44.82034" lon="7.8372633"><ele>299.57142857142856</ele><time>2026-04-11T09:13:34.06Z</time></trkpt><trkpt lat="44.8204067" lon="7.83723"><ele>299.42857142857144</ele><time>2026-04-11T09:13:35.059Z</time></trkpt><trkpt lat="44.8204733" lon="7.8371967"><ele>299.2857142857143</ele><time>2026-04-11T09:13:36.062Z</time></trkpt><trkpt lat="44.82054" lon="7.8371633"><ele>299.1428571428571</ele><time>2026-04-11T09:13:37.061Z</time></trkpt><trkpt lat="44.8206083" lon="7.8371333"><ele>299.0</ele><time>2026-04-11T09:13:38.06Z</time></trkpt><trkpt lat="44.8206717" lon="7.837105"><ele>299.0</ele><time>2026-04-11T09:13:39.06Z</time></trkpt><trkpt lat="44.820735" lon="7.8370717"><ele>299.0</ele><time>2026-04-11T09:13:40.061Z</time></trkpt><trkpt lat="44.8207983" lon="7.8370367"><ele>299.0</ele><time>2026-04-11T09:13:41.062Z</time></trkpt><trkpt lat="44.820865" lon="7.8370017"><ele>299.0</ele><time>2026-04-11T09:13:42.062Z</time></trkpt><trkpt lat="44.8209283" lon="7.83697"><ele>299.0</ele><time>2026-04-11T09:13:43.06Z</time></trkpt><trkpt lat="44.8209933" lon="7.8369417"><ele>299.0</ele><time>2026-04-11T09:13:44.061Z</time></trkpt><trkpt lat="44.82106" lon="7.836915"><ele>299.0</ele><time>2026-04-11T09:13:45.062Z</time></trkpt><trkpt lat="44.8211267" lon="7.836885"><ele>299.0</ele><time>2026-04-11T09:13:46.06Z</time></trkpt><trkpt lat="44.8211933" lon="7.836855"><ele>299.0</ele><time>2026-04-11T09:13:47.061Z</time></trkpt><trkpt lat="44.8212617" lon="7.8368233"><ele>299.0</ele><time>2026-04-11T09:13:48.062Z</time></trkpt><trkpt lat="44.8213333" lon="7.83679"><ele>299.0</ele><time>2026-04-11T09:13:49.06Z</time></trkpt><trkpt lat="44.821405" lon="7.8367567"><ele>299.0</ele><time>2026-04-11T09:13:50.061Z</time></trkpt><trkpt lat="44.8214783" lon="7.83673"><ele>299.0</ele><time>2026-04-11T09:13:51.06Z</time></trkpt><trkpt lat="44.8215533" lon="7.8367033"><ele>299.0</ele><time>2026-04-11T09:13:52.06Z</time></trkpt><trkpt lat="44.821625" lon="7.8366767"><ele>298.83333333333337</ele><time>2026-04-11T09:13:53.059Z</time></trkpt><trkpt lat="44.8216983" lon="7.8366483"><ele>298.6666666666667</ele><time>2026-04-11T09:13:54.062Z</time></trkpt><trkpt lat="44.8217717" lon="7.8366217"><ele>298.5</ele><time>2026-04-11T09:13:55.061Z</time></trkpt><trkpt lat="44.821845" lon="7.836595"><ele>298.3333333333333</ele><time>2026-04-11T09:13:56.06Z</time></trkpt><trkpt lat="44.8219183" lon="7.8365717"><ele>298.16666666666663</ele><time>2026-04-11T09:13:57.063Z</time></trkpt><trkpt lat="44.82199" lon="7.836545"><ele>298.0</ele><time>2026-04-11T09:13:58.062Z</time></trkpt><trkpt lat="44.82206" lon="7.836515"><ele>298.0</ele><time>2026-04-11T09:13:59.061Z</time></trkpt><trkpt lat="44.8221333" lon="7.8364833"><ele>298.0</ele><time>2026-04-11T09:14:00.061Z</time></trkpt><trkpt lat="44.8222067" lon="7.8364517"><ele>298.0</ele><time>2026-04-11T09:14:01.061Z</time></trkpt><trkpt lat="44.8222817" lon="7.83642"><ele>298.0</ele><time>2026-04-11T09:14:02.061Z</time></trkpt><trkpt lat="44.8223533" lon="7.8363883"><ele>298.0</ele><time>2026-04-11T09:14:03.061Z</time></trkpt><trkpt lat="44.8224233" lon="7.8363567"><ele>298.0</ele><time>2026-04-11T09:14:04.061Z</time></trkpt><trkpt lat="44.822495" lon="7.8363233"><ele>298.0</ele><time>2026-04-11T09:14:05.06Z</time></trkpt><trkpt lat="44.8225667" lon="7.83629"><ele>298.0</ele><time>2026-04-11T09:14:06.06Z</time></trkpt><trkpt lat="44.822635" lon="7.8362533"><ele>298.0</ele><time>2026-04-11T09:14:07.059Z</time></trkpt><trkpt lat="44.8227033" lon="7.8362183"><ele>298.0</ele><time>2026-04-11T09:14:08.061Z</time></trkpt><trkpt lat="44.8227733" lon="7.8361833"><ele>298.0</ele><time>2026-04-11T09:14:09.061Z</time></trkpt><trkpt lat="44.822845" lon="7.8361483"><ele>298.0</ele><time>2026-04-11T09:14:10.06Z</time></trkpt><trkpt lat="44.8229167" lon="7.8361167"><ele>298.0</ele><time>2026-04-11T09:14:11.059Z</time></trkpt><trkpt lat="44.8229883" lon="7.836085"><ele>297.16666666666663</ele><time>2026-04-11T09:14:12.061Z</time></trkpt><trkpt lat="44.8230617" lon="7.8360533"><ele>296.3333333333333</ele><time>2026-04-11T09:14:13.061Z</time></trkpt><trkpt lat="44.823135" lon="7.836025"><ele>295.5</ele><time>2026-04-11T09:14:14.062Z</time></trkpt><trkpt lat="44.8232083" lon="7.8359983"><ele>294.6666666666667</ele><time>2026-04-11T09:14:15.06Z</time></trkpt><trkpt lat="44.8232817" lon="7.83597"><ele>293.83333333333337</ele><time>2026-04-11T09:14:16.061Z</time></trkpt><trkpt lat="44.8233583" lon="7.83594"><ele>293.0</ele><time>2026-04-11T09:14:17.06Z</time></trkpt><trkpt lat="44.8234367" lon="7.8359083"><ele>293.1666666666667</ele><time>2026-04-11T09:14:18.059Z</time></trkpt><trkpt lat="44.8235183" lon="7.8358833"><ele>293.33333333333337</ele><time>2026-04-11T09:14:19.063Z</time></trkpt><trkpt lat="44.8236" lon="7.83586"><ele>293.5</ele><time>2026-04-11T09:14:20.06Z</time></trkpt><trkpt lat="44.82368" lon="7.8358367"><ele>293.6666666666667</ele><time>2026-04-11T09:14:21.06Z</time></trkpt><trkpt lat="44.8237567" lon="7.8357967"><ele>293.8333333333333</ele><time>2026-04-11T09:14:22.059Z</time></trkpt><trkpt lat="44.823815" lon="7.83572"><ele>294.0</ele><time>2026-04-11T09:14:23.061Z</time></trkpt><trkpt lat="44.8238467" lon="7.835625"><ele>294.0</ele><time>2026-04-11T09:14:24.061Z</time></trkpt><trkpt lat="44.823845" lon="7.83552"><ele>294.0</ele><time>2026-04-11T09:14:25.06Z</time></trkpt><trkpt lat="44.823805" lon="7.8354033"><ele>294.0</ele><time>2026-04-11T09:14:26.06Z</time></trkpt><trkpt lat="44.82376" lon="7.8353033"><ele>294.0</ele><time>2026-04-11T09:14:27.061Z</time></trkpt><trkpt lat="44.8237233" lon="7.835205"><ele>294.0</ele><time>2026-04-11T09:14:28.06Z</time></trkpt><trkpt lat="44.8237033" lon="7.8350983"><ele>294.0</ele><time>2026-04-11T09:14:29.059Z</time></trkpt><trkpt lat="44.8237083" lon="7.8349883"><ele>293.6666666666667</ele><time>2026-04-11T09:14:30.06Z</time></trkpt><trkpt lat="44.8237383" lon="7.834885"><ele>293.3333333333333</ele><time>2026-04-11T09:14:31.061Z</time></trkpt><trkpt lat="44.823785" lon="7.834795"><ele>293.0</ele><time>2026-04-11T09:14:32.061Z</time></trkpt><trkpt lat="44.82384" lon="7.8347117"><ele>292.66666666666663</ele><time>2026-04-11T09:14:33.059Z</time></trkpt><trkpt lat="44.8238967" lon="7.8346333"><ele>292.3333333333333</ele><time>2026-04-11T09:14:34.059Z</time></trkpt><trkpt lat="44.8239517" lon="7.834555"><ele>292.0</ele><time>2026-04-11T09:14:35.059Z</time></trkpt><trkpt lat="44.8240067" lon="7.8344717"><ele>292.0</ele><time>2026-04-11T09:14:36.06Z</time></trkpt><trkpt lat="44.8240633" lon="7.83439"><ele>292.0</ele><time>2026-04-11T09:14:37.06Z</time></trkpt><trkpt lat="44.8241183" lon="7.8343083"><ele>292.0</ele><time>2026-04-11T09:14:38.06Z</time></trkpt><trkpt lat="44.8241733" lon="7.8342217"><ele>292.0</ele><time>2026-04-11T09:14:39.063Z</time></trkpt><trkpt lat="44.824225" lon="7.834135"><ele>292.0</ele><time>2026-04-11T09:14:40.059Z</time></trkpt><trkpt lat="44.8242717" lon="7.8340467"><ele>292.0</ele><time>2026-04-11T09:14:41.062Z</time></trkpt><trkpt lat="44.82432" lon="7.8339583"><ele>292.0</ele><time>2026-04-11T09:14:42.06Z</time></trkpt><trkpt lat="44.82437" lon="7.8338667"><ele>292.0</ele><time>2026-04-11T09:14:43.059Z</time></trkpt><trkpt lat="44.82442" lon="7.8337817"><ele>292.0</ele><time>2026-04-11T09:14:44.06Z</time></trkpt><trkpt lat="44.8244683" lon="7.8336983"><ele>292.0</ele><time>2026-04-11T09:14:45.061Z</time></trkpt><trkpt lat="44.8245167" lon="7.833625"><ele>292.0</ele><time>2026-04-11T09:14:46.061Z</time></trkpt><trkpt lat="44.8245667" lon="7.8335567"><ele>292.0</ele><time>2026-04-11T09:14:47.059Z</time></trkpt><trkpt lat="44.8246233" lon="7.8335017"><ele>292.0</ele><time>2026-04-11T09:14:48.061Z</time></trkpt><trkpt lat="44.824685" lon="7.8334483"><ele>292.0</ele><time>2026-04-11T09:14:49.059Z</time></trkpt><trkpt lat="44.824745" lon="7.833395"><ele>292.0</ele><time>2026-04-11T09:14:50.062Z</time></trkpt><trkpt lat="44.8248033" lon="7.8333367"><ele>292.0</ele><time>2026-04-11T09:14:51.062Z</time></trkpt><trkpt lat="44.8248633" lon="7.8332733"><ele>292.0</ele><time>2026-04-11T09:14:52.061Z</time></trkpt><trkpt lat="44.8249233" lon="7.8332083"><ele>292.0</ele><time>2026-04-11T09:14:53.06Z</time></trkpt><trkpt lat="44.82498" lon="7.8331433"><ele>292.0</ele><time>2026-04-11T09:14:54.059Z</time></trkpt><trkpt lat="44.8250333" lon="7.83308"><ele>292.0</ele><time>2026-04-11T09:14:55.059Z</time></trkpt><trkpt lat="44.8250883" lon="7.83302"><ele>292.0</ele><time>2026-04-11T09:14:56.06Z</time></trkpt><trkpt lat="44.8251417" lon="7.83296"><ele>292.0</ele><time>2026-04-11T09:14:57.061Z</time></trkpt><trkpt lat="44.8251933" lon="7.8329017"><ele>292.0</ele><time>2026-04-11T09:14:58.06Z</time></trkpt><trkpt lat="44.8252433" lon="7.8328433"><ele>292.0</ele><time>2026-04-11T09:14:59.06Z</time></trkpt><trkpt lat="44.8252967" lon="7.8327783"><ele>292.0</ele><time>2026-04-11T09:15:00.059Z</time></trkpt><trkpt lat="44.8253433" lon="7.832705"><ele>292.0</ele><time>2026-04-11T09:15:01.06Z</time></trkpt><trkpt lat="44.8253783" lon="7.8326167"><ele>292.0</ele><time>2026-04-11T09:15:02.062Z</time></trkpt><trkpt lat="44.825385" lon="7.8325167"><ele>291.42857142857144</ele><time>2026-04-11T09:15:03.059Z</time></trkpt><trkpt lat="44.8253667" lon="7.8324267"><ele>290.8571428571429</ele><time>2026-04-11T09:15:04.06Z</time></trkpt><trkpt lat="44.8253283" lon="7.8323467"><ele>290.28571428571433</ele><time>2026-04-11T09:15:05.06Z</time></trkpt><trkpt lat="44.8252833" lon="7.8322817"><ele>289.7142857142857</ele><time>2026-04-11T09:15:06.06Z</time></trkpt><trkpt lat="44.825235" lon="7.832215"><ele>289.14285714285717</ele><time>2026-04-11T09:15:07.06Z</time></trkpt><trkpt lat="44.8251917" lon="7.8321433"><ele>288.5714285714286</ele><time>2026-04-11T09:15:08.058Z</time></trkpt><trkpt lat="44.82516" lon="7.83206"><ele>288.0</ele><time>2026-04-11T09:15:09.061Z</time></trkpt><trkpt lat="44.8251483" lon="7.8319683"><ele>288.1666666666667</ele><time>2026-04-11T09:15:10.06Z</time></trkpt><trkpt lat="44.8251883" lon="7.831795"><ele>288.3333333333333</ele><time>2026-04-11T09:15:12.06Z</time></trkpt><trkpt lat="44.825225" lon="7.83171"><ele>288.5</ele><time>2026-04-11T09:15:13.059Z</time></trkpt><trkpt lat="44.8252633" lon="7.831625"><ele>288.66666666666663</ele><time>2026-04-11T09:15:14.061Z</time></trkpt><trkpt lat="44.825305" lon="7.83154"><ele>288.8333333333333</ele><time>2026-04-11T09:15:15.06Z</time></trkpt><trkpt lat="44.825345" lon="7.8314533"><ele>289.0</ele><time>2026-04-11T09:15:16.064Z</time></trkpt><trkpt lat="44.8253817" lon="7.8313633"><ele>289.0</ele><time>2026-04-11T09:15:17.059Z</time></trkpt><trkpt lat="44.825415" lon="7.8312683"><ele>289.0</ele><time>2026-04-11T09:15:18.06Z</time></trkpt><trkpt lat="44.8254517" lon="7.8311683"><ele>289.0</ele><time>2026-04-11T09:15:19.061Z</time></trkpt><trkpt lat="44.825485" lon="7.8310733"><ele>289.0</ele><time>2026-04-11T09:15:20.06Z</time></trkpt><trkpt lat="44.82552" lon="7.8309833"><ele>289.0</ele><time>2026-04-11T09:15:21.064Z</time></trkpt><trkpt lat="44.8255583" lon="7.8308967"><ele>289.0</ele><time>2026-04-11T09:15:22.06Z</time></trkpt><trkpt lat="44.8256067" lon="7.83082"><ele>289.0</ele><time>2026-04-11T09:15:23.059Z</time></trkpt><trkpt lat="44.8256567" lon="7.83075"><ele>289.0</ele><time>2026-04-11T09:15:24.059Z</time></trkpt><trkpt lat="44.8257083" lon="7.83068"><ele>289.0</ele><time>2026-04-11T09:15:25.059Z</time></trkpt><trkpt lat="44.8257617" lon="7.8306083"><ele>289.0</ele><time>2026-04-11T09:15:26.063Z</time></trkpt><trkpt lat="44.8258117" lon="7.830535"><ele>289.0</ele><time>2026-04-11T09:15:27.06Z</time></trkpt><trkpt lat="44.8258667" lon="7.8304617"><ele>289.0</ele><time>2026-04-11T09:15:28.06Z</time></trkpt><trkpt lat="44.8259217" lon="7.83039"><ele>289.0</ele><time>2026-04-11T09:15:29.059Z</time></trkpt><trkpt lat="44.8259767" lon="7.8303217"><ele>289.0</ele><time>2026-04-11T09:15:30.061Z</time></trkpt><trkpt lat="44.8260367" lon="7.83025"><ele>288.5</ele><time>2026-04-11T09:15:31.061Z</time></trkpt><trkpt lat="44.826095" lon="7.8301817"><ele>288.0</ele><time>2026-04-11T09:15:32.06Z</time></trkpt><trkpt lat="44.82615" lon="7.8301067"><ele>287.5</ele><time>2026-04-11T09:15:33.06Z</time></trkpt><trkpt lat="44.8261983" lon="7.830025"><ele>287.0</ele><time>2026-04-11T09:15:34.06Z</time></trkpt><trkpt lat="44.8262367" lon="7.829935"><ele>286.5</ele><time>2026-04-11T09:15:35.058Z</time></trkpt><trkpt lat="44.8262667" lon="7.82984"><ele>286.0</ele><time>2026-04-11T09:15:36.058Z</time></trkpt><trkpt lat="44.8262867" lon="7.8297383"><ele>286.0</ele><time>2026-04-11T09:15:37.059Z</time></trkpt><trkpt lat="44.8263" lon="7.8296333"><ele>286.0</ele><time>2026-04-11T09:15:38.06Z</time></trkpt><trkpt lat="44.82631" lon="7.8295233"><ele>286.0</ele><time>2026-04-11T09:15:39.06Z</time></trkpt><trkpt lat="44.8263167" lon="7.829415"><ele>286.0</ele><time>2026-04-11T09:15:40.061Z</time></trkpt><trkpt lat="44.8263217" lon="7.8293067"><ele>286.0</ele><time>2026-04-11T09:15:41.057Z</time></trkpt><trkpt lat="44.826325" lon="7.829195"><ele>286.0</ele><time>2026-04-11T09:15:42.059Z</time></trkpt><trkpt lat="44.8263267" lon="7.829085"><ele>286.5</ele><time>2026-04-11T09:15:43.058Z</time></trkpt><trkpt lat="44.8263217" lon="7.82898"><ele>287.0</ele><time>2026-04-11T09:15:44.06Z</time></trkpt><trkpt lat="44.8263217" lon="7.828875"><ele>287.5</ele><time>2026-04-11T09:15:45.06Z</time></trkpt><trkpt lat="44.826325" lon="7.82877"><ele>288.0</ele><time>2026-04-11T09:15:46.058Z</time></trkpt><trkpt lat="44.82633" lon="7.8286667"><ele>288.5</ele><time>2026-04-11T09:15:47.059Z</time></trkpt><trkpt lat="44.82634" lon="7.8285717"><ele>289.0</ele><time>2026-04-11T09:15:48.061Z</time></trkpt><trkpt lat="44.8263633" lon="7.8284017"><ele>289.2</ele><time>2026-04-11T09:15:50.059Z</time></trkpt><trkpt lat="44.8263883" lon="7.8282317"><ele>289.4</ele><time>2026-04-11T09:15:52.062Z</time></trkpt><trkpt lat="44.8264117" lon="7.8280817"><ele>289.6</ele><time>2026-04-11T09:15:54.061Z</time></trkpt><trkpt lat="44.8264733" lon="7.82801"><ele>289.8</ele><time>2026-04-11T09:15:56.059Z</time></trkpt><trkpt lat="44.8265583" lon="7.8280333"><ele>290.0</ele><time>2026-04-11T09:15:58.063Z</time></trkpt><trkpt lat="44.82663" lon="7.8281083"><ele>290.0</ele><time>2026-04-11T09:16:00.061Z</time></trkpt><trkpt lat="44.8267233" lon="7.82819"><ele>290.0</ele><time>2026-04-11T09:16:02.061Z</time></trkpt><trkpt lat="44.8268317" lon="7.82827"><ele>290.0</ele><time>2026-04-11T09:16:04.06Z</time></trkpt><trkpt lat="44.8269433" lon="7.8283517"><ele>290.0</ele><time>2026-04-11T09:16:06.06Z</time></trkpt><trkpt lat="44.8269983" lon="7.828395"><ele>290.0</ele><time>2026-04-11T09:16:07.06Z</time></trkpt><trkpt lat="44.82711" lon="7.8284817"><ele>289.42857142857144</ele><time>2026-04-11T09:16:09.061Z</time></trkpt><trkpt lat="44.8271667" lon="7.8285267"><ele>288.8571428571429</ele><time>2026-04-11T09:16:10.062Z</time></trkpt><trkpt lat="44.8272267" lon="7.8285717"><ele>288.2857142857143</ele><time>2026-04-11T09:16:11.06Z</time></trkpt><trkpt lat="44.827285" lon="7.82862"><ele>287.7142857142857</ele><time>2026-04-11T09:16:12.062Z</time></trkpt><trkpt lat="44.8273433" lon="7.8286683"><ele>287.1428571428571</ele><time>2026-04-11T09:16:13.062Z</time></trkpt><trkpt lat="44.827405" lon="7.828715"><ele>286.57142857142856</ele><time>2026-04-11T09:16:14.061Z</time></trkpt><trkpt lat="44.8274667" lon="7.8287633"><ele>286.0</ele><time>2026-04-11T09:16:15.061Z</time></trkpt><trkpt lat="44.8275267" lon="7.82881"><ele>285.99999999999994</ele><time>2026-04-11T09:16:16.061Z</time></trkpt><trkpt lat="44.8275867" lon="7.828855"><ele>286.0</ele><time>2026-04-11T09:16:17.059Z</time></trkpt><trkpt lat="44.827645" lon="7.8289"><ele>286.0</ele><time>2026-04-11T09:16:18.06Z</time></trkpt><trkpt lat="44.8277067" lon="7.828945"><ele>286.0</ele><time>2026-04-11T09:16:19.062Z</time></trkpt><trkpt lat="44.8277717" lon="7.8289917"><ele>286.0</ele><time>2026-04-11T09:16:20.06Z</time></trkpt><trkpt lat="44.827835" lon="7.8290417"><ele>285.99999999999994</ele><time>2026-04-11T09:16:21.061Z</time></trkpt><trkpt lat="44.8279" lon="7.8290933"><ele>286.0</ele><time>2026-04-11T09:16:22.061Z</time></trkpt><trkpt lat="44.8279667" lon="7.8291383"><ele>285.85714285714283</ele><time>2026-04-11T09:16:23.059Z</time></trkpt><trkpt lat="44.8280317" lon="7.829185"><ele>285.7142857142857</ele><time>2026-04-11T09:16:24.062Z</time></trkpt><trkpt lat="44.828095" lon="7.8292317"><ele>285.57142857142856</ele><time>2026-04-11T09:16:25.063Z</time></trkpt><trkpt lat="44.8281583" lon="7.82928"><ele>285.42857142857144</ele><time>2026-04-11T09:16:26.06Z</time></trkpt><trkpt lat="44.8282233" lon="7.82933"><ele>285.2857142857143</ele><time>2026-04-11T09:16:27.061Z</time></trkpt><trkpt lat="44.8282883" lon="7.8293783"><ele>285.1428571428571</ele><time>2026-04-11T09:16:28.063Z</time></trkpt><trkpt lat="44.8283533" lon="7.8294283"><ele>285.0</ele><time>2026-04-11T09:16:29.06Z</time></trkpt><trkpt lat="44.8284167" lon="7.8294783"><ele>285.0</ele><time>2026-04-11T09:16:30.059Z</time></trkpt><trkpt lat="44.8284783" lon="7.82953"><ele>285.0</ele><time>2026-04-11T09:16:31.061Z</time></trkpt><trkpt lat="44.8285417" lon="7.8295767"><ele>285.0</ele><time>2026-04-11T09:16:32.06Z</time></trkpt><trkpt lat="44.8286017" lon="7.829625"><ele>285.0</ele><time>2026-04-11T09:16:33.062Z</time></trkpt><trkpt lat="44.8286617" lon="7.829675"><ele>285.0</ele><time>2026-04-11T09:16:34.06Z</time></trkpt><trkpt lat="44.82872" lon="7.829725"><ele>285.0</ele><time>2026-04-11T09:16:35.059Z</time></trkpt><trkpt lat="44.8287783" lon="7.8297767"><ele>285.0</ele><time>2026-04-11T09:16:36.06Z</time></trkpt><trkpt lat="44.828835" lon="7.8298367"><ele>285.0</ele><time>2026-04-11T09:16:37.063Z</time></trkpt><trkpt lat="44.82889" lon="7.8298967"><ele>285.0</ele><time>2026-04-11T09:16:38.058Z</time></trkpt><trkpt lat="44.8289433" lon="7.8299583"><ele>285.0</ele><time>2026-04-11T09:16:39.06Z</time></trkpt><trkpt lat="44.8289967" lon="7.83002"><ele>285.0</ele><time>2026-04-11T09:16:40.058Z</time></trkpt><trkpt lat="44.8290433" lon="7.8300833"><ele>285.0</ele><time>2026-04-11T09:16:41.065Z</time></trkpt><trkpt lat="44.829115" lon="7.8301883"><ele>285.0</ele><time>2026-04-11T09:16:43.059Z</time></trkpt><trkpt lat="44.8291933" lon="7.8302183"><ele>285.0</ele><time>2026-04-11T09:16:46.059Z</time></trkpt><trkpt lat="44.82925" lon="7.830155"><ele>285.0</ele><time>2026-04-11T09:16:48.061Z</time></trkpt><trkpt lat="44.829305" lon="7.830035"><ele>285.0</ele><time>2026-04-11T09:16:50.062Z</time></trkpt><trkpt lat="44.82936" lon="7.8299"><ele>285.0</ele><time>2026-04-11T09:16:52.061Z</time></trkpt><trkpt lat="44.8294183" lon="7.8297567"><ele>285.0</ele><time>2026-04-11T09:16:54.061Z</time></trkpt><trkpt lat="44.8294917" lon="7.8296167"><ele>284.8</ele><time>2026-04-11T09:16:56.061Z</time></trkpt><trkpt lat="44.8295683" lon="7.8294767"><ele>284.6</ele><time>2026-04-11T09:16:58.063Z</time></trkpt><trkpt lat="44.8296083" lon="7.8294033"><ele>284.4</ele><time>2026-04-11T09:16:59.061Z</time></trkpt><trkpt lat="44.8296483" lon="7.8293283"><ele>284.2</ele><time>2026-04-11T09:17:00.061Z</time></trkpt><trkpt lat="44.8297267" lon="7.8291867"><ele>284.0</ele><time>2026-04-11T09:17:02.06Z</time></trkpt><trkpt lat="44.8297667" lon="7.8291133"><ele>284.0</ele><time>2026-04-11T09:17:03.061Z</time></trkpt><trkpt lat="44.8298067" lon="7.82904"><ele>284.0</ele><time>2026-04-11T09:17:04.059Z</time></trkpt><trkpt lat="44.829845" lon="7.8289667"><ele>284.0</ele><time>2026-04-11T09:17:05.055Z</time></trkpt><trkpt lat="44.8298833" lon="7.8288933"><ele>284.0</ele><time>2026-04-11T09:17:06.058Z</time></trkpt><trkpt lat="44.8299583" lon="7.8287567"><ele>284.0</ele><time>2026-04-11T09:17:08.059Z</time></trkpt><trkpt lat="44.83003" lon="7.8286233"><ele>284.0</ele><time>2026-04-11T09:17:10.06Z</time></trkpt><trkpt lat="44.8301017" lon="7.8284917"><ele>284.0</ele><time>2026-04-11T09:17:12.061Z</time></trkpt><trkpt lat="44.830165" lon="7.82837"><ele>284.0</ele><time>2026-04-11T09:17:14.062Z</time></trkpt><trkpt lat="44.8302267" lon="7.8282317"><ele>284.0</ele><time>2026-04-11T09:17:16.06Z</time></trkpt><trkpt lat="44.8302817" lon="7.828095"><ele>284.0</ele><time>2026-04-11T09:17:18.059Z</time></trkpt><trkpt lat="44.8303267" lon="7.82796"><ele>284.0</ele><time>2026-04-11T09:17:20.06Z</time></trkpt><trkpt lat="44.83039" lon="7.8278167"><ele>284.0</ele><time>2026-04-11T09:17:22.06Z</time></trkpt><trkpt lat="44.8304533" lon="7.8276717"><ele>284.0</ele><time>2026-04-11T09:17:24.059Z</time></trkpt><trkpt lat="44.830515" lon="7.8275367"><ele>284.0</ele><time>2026-04-11T09:17:26.061Z</time></trkpt><trkpt lat="44.83059" lon="7.8274333"><ele>284.0</ele><time>2026-04-11T09:17:28.061Z</time></trkpt><trkpt lat="44.830695" lon="7.827385"><ele>283.0</ele><time>2026-04-11T09:17:30.061Z</time></trkpt><trkpt lat="44.8308133" lon="7.8273983"><ele>282.0</ele><time>2026-04-11T09:17:32.063Z</time></trkpt><trkpt lat="44.8309183" lon="7.827375"><ele>281.0</ele><time>2026-04-11T09:17:34.062Z</time></trkpt><trkpt lat="44.8310017" lon="7.8272717"><ele>280.0</ele><time>2026-04-11T09:17:36.063Z</time></trkpt><trkpt lat="44.83105" lon="7.8271233"><ele>279.75</ele><time>2026-04-11T09:17:38.059Z</time></trkpt><trkpt lat="44.8310833" lon="7.8269567"><ele>279.5</ele><time>2026-04-11T09:17:40.06Z</time></trkpt><trkpt lat="44.831115" lon="7.8267933"><ele>279.25</ele><time>2026-04-11T09:17:42.059Z</time></trkpt><trkpt lat="44.8311367" lon="7.8266217"><ele>279.0</ele><time>2026-04-11T09:17:44.059Z</time></trkpt><trkpt lat="44.8311417" lon="7.8264467"><ele>279.5</ele><time>2026-04-11T09:17:46.059Z</time></trkpt><trkpt lat="44.831145" lon="7.82627"><ele>280.0</ele><time>2026-04-11T09:17:48.06Z</time></trkpt><trkpt lat="44.8311433" lon="7.8261"><ele>280.5</ele><time>2026-04-11T09:17:50.059Z</time></trkpt><trkpt lat="44.8311383" lon="7.8259333"><ele>281.0</ele><time>2026-04-11T09:17:52.06Z</time></trkpt><trkpt lat="44.8311317" lon="7.8257683"><ele>281.5</ele><time>2026-04-11T09:17:54.06Z</time></trkpt><trkpt lat="44.831125" lon="7.8256067"><ele>282.0</ele><time>2026-04-11T09:17:56.06Z</time></trkpt><trkpt lat="44.8311217" lon="7.8254483"><ele>282.5</ele><time>2026-04-11T09:17:58.059Z</time></trkpt><trkpt lat="44.8311317" lon="7.8252883"><ele>283.0</ele><time>2026-04-11T09:18:00.059Z</time></trkpt><trkpt lat="44.8311583" lon="7.8251283"><ele>283.25</ele><time>2026-04-11T09:18:02.061Z</time></trkpt><trkpt lat="44.831205" lon="7.824975"><ele>283.5</ele><time>2026-04-11T09:18:04.058Z</time></trkpt><trkpt lat="44.8312617" lon="7.8248317"><ele>283.75</ele><time>2026-04-11T09:18:06.058Z</time></trkpt><trkpt lat="44.83131" lon="7.82469"><ele>284.0</ele><time>2026-04-11T09:18:08.06Z</time></trkpt><trkpt lat="44.831355" lon="7.8245517"><ele>284.0</ele><time>2026-04-11T09:18:10.058Z</time></trkpt><trkpt lat="44.8314" lon="7.82441"><ele>284.0</ele><time>2026-04-11T09:18:12.061Z</time></trkpt><trkpt lat="44.8314483" lon="7.8242683"><ele>284.0</ele><time>2026-04-11T09:18:14.06Z</time></trkpt><trkpt lat="44.8315" lon="7.824125"><ele>284.0</ele><time>2026-04-11T09:18:16.063Z</time></trkpt><trkpt lat="44.8315483" lon="7.82399"><ele>284.0</ele><time>2026-04-11T09:18:18.058Z</time></trkpt><trkpt lat="44.8315933" lon="7.823855"><ele>283.8</ele><time>2026-04-11T09:18:20.058Z</time></trkpt><trkpt lat="44.8316333" lon="7.823725"><ele>283.59999999999997</ele><time>2026-04-11T09:18:22.061Z</time></trkpt><trkpt lat="44.8316633" lon="7.8235833"><ele>283.4</ele><time>2026-04-11T09:18:24.06Z</time></trkpt><trkpt lat="44.8316733" lon="7.8234283"><ele>283.2</ele><time>2026-04-11T09:18:26.061Z</time></trkpt><trkpt lat="44.8316517" lon="7.8232833"><ele>283.0</ele><time>2026-04-11T09:18:28.059Z</time></trkpt><trkpt lat="44.8316117" lon="7.8231417"><ele>283.0</ele><time>2026-04-11T09:18:30.059Z</time></trkpt><trkpt lat="44.8315783" lon="7.8229933"><ele>283.0</ele><time>2026-04-11T09:18:32.06Z</time></trkpt><trkpt lat="44.83159" lon="7.8228283"><ele>283.0</ele><time>2026-04-11T09:18:34.058Z</time></trkpt><trkpt lat="44.8316417" lon="7.8226633"><ele>283.0</ele><time>2026-04-11T09:18:36.06Z</time></trkpt><trkpt lat="44.831675" lon="7.82258"><ele>283.0</ele><time>2026-04-11T09:18:37.059Z</time></trkpt><trkpt lat="44.8317083" lon="7.822495"><ele>283.2857142857143</ele><time>2026-04-11T09:18:38.059Z</time></trkpt><trkpt lat="44.8317433" lon="7.8224117"><ele>283.5714285714286</ele><time>2026-04-11T09:18:39.06Z</time></trkpt><trkpt lat="44.8317783" lon="7.8223283"><ele>283.8571428571429</ele><time>2026-04-11T09:18:40.058Z</time></trkpt><trkpt lat="44.831815" lon="7.8222467"><ele>284.14285714285717</ele><time>2026-04-11T09:18:41.059Z</time></trkpt><trkpt lat="44.83185" lon="7.8221633"><ele>284.42857142857144</ele><time>2026-04-11T09:18:42.06Z</time></trkpt><trkpt lat="44.8318833" lon="7.8220817"><ele>284.7142857142857</ele><time>2026-04-11T09:18:43.06Z</time></trkpt><trkpt lat="44.83192" lon="7.822"><ele>285.0</ele><time>2026-04-11T09:18:44.059Z</time></trkpt><trkpt lat="44.831955" lon="7.8219133"><ele>284.42857142857144</ele><time>2026-04-11T09:18:45.06Z</time></trkpt><trkpt lat="44.8319867" lon="7.8218283"><ele>283.8571428571429</ele><time>2026-04-11T09:18:46.059Z</time></trkpt><trkpt lat="44.83202" lon="7.8217417"><ele>283.28571428571433</ele><time>2026-04-11T09:18:47.06Z</time></trkpt><trkpt lat="44.8320567" lon="7.821655"><ele>282.7142857142857</ele><time>2026-04-11T09:18:48.06Z</time></trkpt><trkpt lat="44.8320933" lon="7.82157"><ele>282.14285714285717</ele><time>2026-04-11T09:18:49.06Z</time></trkpt><trkpt lat="44.83213" lon="7.821485"><ele>281.5714285714286</ele><time>2026-04-11T09:18:50.059Z</time></trkpt><trkpt lat="44.8321667" lon="7.8214"><ele>281.0</ele><time>2026-04-11T09:18:51.062Z</time></trkpt><trkpt lat="44.8322033" lon="7.8213167"><ele>281.00000000000006</ele><time>2026-04-11T09:18:52.06Z</time></trkpt><trkpt lat="44.83224" lon="7.8212317"><ele>281.0</ele><time>2026-04-11T09:18:53.059Z</time></trkpt><trkpt lat="44.832275" lon="7.8211483"><ele>281.0</ele><time>2026-04-11T09:18:54.061Z</time></trkpt><trkpt lat="44.8323117" lon="7.8210633"><ele>281.0</ele><time>2026-04-11T09:18:55.062Z</time></trkpt><trkpt lat="44.83235" lon="7.82098"><ele>281.0</ele><time>2026-04-11T09:18:56.062Z</time></trkpt><trkpt lat="44.8323867" lon="7.820895"><ele>281.00000000000006</ele><time>2026-04-11T09:18:57.059Z</time></trkpt><trkpt lat="44.8324233" lon="7.8208067"><ele>281.0</ele><time>2026-04-11T09:18:58.059Z</time></trkpt><trkpt lat="44.8324583" lon="7.8207167"><ele>280.7142857142857</ele><time>2026-04-11T09:18:59.061Z</time></trkpt><trkpt lat="44.8324967" lon="7.8206283"><ele>280.42857142857144</ele><time>2026-04-11T09:19:00.061Z</time></trkpt><trkpt lat="44.8325367" lon="7.8205433"><ele>280.1428571428571</ele><time>2026-04-11T09:19:01.06Z</time></trkpt><trkpt lat="44.8325783" lon="7.8204583"><ele>279.8571428571429</ele><time>2026-04-11T09:19:02.061Z</time></trkpt><trkpt lat="44.832625" lon="7.8203767"><ele>279.57142857142856</ele><time>2026-04-11T09:19:03.059Z</time></trkpt><trkpt lat="44.8326717" lon="7.8203017"><ele>279.2857142857143</ele><time>2026-04-11T09:19:04.059Z</time></trkpt><trkpt lat="44.8327233" lon="7.8202317"><ele>279.0</ele><time>2026-04-11T09:19:05.059Z</time></trkpt><trkpt lat="44.8327783" lon="7.82016"><ele>278.99999999999994</ele><time>2026-04-11T09:19:06.059Z</time></trkpt><trkpt lat="44.83283" lon="7.82009"><ele>279.0</ele><time>2026-04-11T09:19:07.058Z</time></trkpt><trkpt lat="44.832885" lon="7.8200183"><ele>279.0</ele><time>2026-04-11T09:19:08.058Z</time></trkpt><trkpt lat="44.8329417" lon="7.8199467"><ele>279.0</ele><time>2026-04-11T09:19:09.06Z</time></trkpt><trkpt lat="44.832995" lon="7.819875"><ele>279.0</ele><time>2026-04-11T09:19:10.059Z</time></trkpt><trkpt lat="44.8330467" lon="7.8198"><ele>278.99999999999994</ele><time>2026-04-11T09:19:11.06Z</time></trkpt><trkpt lat="44.8331" lon="7.8197267"><ele>279.0</ele><time>2026-04-11T09:19:12.058Z</time></trkpt><trkpt lat="44.83315" lon="7.8196533"><ele>278.99999999999994</ele><time>2026-04-11T09:19:13.058Z</time></trkpt><trkpt lat="44.8331983" lon="7.819575"><ele>279.0</ele><time>2026-04-11T09:19:14.06Z</time></trkpt><trkpt lat="44.8332467" lon="7.8195"><ele>279.0</ele><time>2026-04-11T09:19:15.058Z</time></trkpt><trkpt lat="44.8332933" lon="7.8194267"><ele>279.0</ele><time>2026-04-11T09:19:16.06Z</time></trkpt><trkpt lat="44.8333367" lon="7.819355"><ele>279.0</ele><time>2026-04-11T09:19:17.058Z</time></trkpt><trkpt lat="44.83338" lon="7.8192883"><ele>278.99999999999994</ele><time>2026-04-11T09:19:18.061Z</time></trkpt><trkpt lat="44.8334233" lon="7.8192217"><ele>279.0</ele><time>2026-04-11T09:19:19.058Z</time></trkpt><trkpt lat="44.833505" lon="7.8191083"><ele>279.0</ele><time>2026-04-11T09:19:21.061Z</time></trkpt><trkpt lat="44.833575" lon="7.81904"><ele>279.0</ele><time>2026-04-11T09:19:23.059Z</time></trkpt><trkpt lat="44.83365" lon="7.819055"><ele>279.0</ele><time>2026-04-11T09:19:25.063Z</time></trkpt><trkpt lat="44.83371" lon="7.81915"><ele>279.0</ele><time>2026-04-11T09:19:27.06Z</time></trkpt><trkpt lat="44.8337767" lon="7.819255"><ele>279.0</ele><time>2026-04-11T09:19:29.059Z</time></trkpt><trkpt lat="44.8338383" lon="7.8193483"><ele>279.0</ele><time>2026-04-11T09:19:31.059Z</time></trkpt><trkpt lat="44.8339" lon="7.8194467"><ele>278.8333333333333</ele><time>2026-04-11T09:19:33.061Z</time></trkpt><trkpt lat="44.8339667" lon="7.8195367"><ele>278.6666666666667</ele><time>2026-04-11T09:19:35.059Z</time></trkpt><trkpt lat="44.8340233" lon="7.81961"><ele>278.5</ele><time>2026-04-11T09:19:37.06Z</time></trkpt><trkpt lat="44.8340767" lon="7.8196733"><ele>278.33333333333337</ele><time>2026-04-11T09:19:39.062Z</time></trkpt><trkpt lat="44.8341383" lon="7.8197433"><ele>278.1666666666667</ele><time>2026-04-11T09:19:41.059Z</time></trkpt><trkpt lat="44.8342083" lon="7.8198067"><ele>278.0</ele><time>2026-04-11T09:19:43.06Z</time></trkpt><trkpt lat="44.83428" lon="7.8198767"><ele>277.6</ele><time>2026-04-11T09:19:45.06Z</time></trkpt><trkpt lat="44.8343517" lon="7.8199483"><ele>277.20000000000005</ele><time>2026-04-11T09:19:47.061Z</time></trkpt><trkpt lat="44.8344333" lon="7.8200183"><ele>276.8</ele><time>2026-04-11T09:19:49.059Z</time></trkpt><trkpt lat="44.83451" lon="7.8200883"><ele>276.40000000000003</ele><time>2026-04-11T09:19:51.06Z</time></trkpt><trkpt lat="44.8345883" lon="7.82016"><ele>276.0</ele><time>2026-04-11T09:19:53.054Z</time></trkpt><trkpt lat="44.8346767" lon="7.82026"><ele>275.8</ele><time>2026-04-11T09:19:55.069Z</time></trkpt><trkpt lat="44.834765" lon="7.8203517"><ele>275.6</ele><time>2026-04-11T09:19:57.054Z</time></trkpt><trkpt lat="44.8348467" lon="7.8204267"><ele>275.4</ele><time>2026-04-11T09:19:59.066Z</time></trkpt><trkpt lat="44.8349183" lon="7.8205117"><ele>275.2</ele><time>2026-04-11T09:20:01.065Z</time></trkpt><trkpt lat="44.834995" lon="7.8205967"><ele>275.0</ele><time>2026-04-11T09:20:03.077Z</time></trkpt><trkpt lat="44.8350867" lon="7.8206817"><ele>274.8</ele><time>2026-04-11T09:20:05.061Z</time></trkpt><trkpt lat="44.83517" lon="7.82076"><ele>274.6</ele><time>2026-04-11T09:20:07.064Z</time></trkpt><trkpt lat="44.835255" lon="7.82084"><ele>274.4</ele><time>2026-04-11T09:20:09.071Z</time></trkpt><trkpt lat="44.835335" lon="7.82092"><ele>274.2</ele><time>2026-04-11T09:20:11.059Z</time></trkpt><trkpt lat="44.8354117" lon="7.821"><ele>274.0</ele><time>2026-04-11T09:20:13.055Z</time></trkpt><trkpt lat="44.835485" lon="7.8210783"><ele>274.4</ele><time>2026-04-11T09:20:15.054Z</time></trkpt><trkpt lat="44.835565" lon="7.821165"><ele>274.79999999999995</ele><time>2026-04-11T09:20:17.055Z</time></trkpt><trkpt lat="44.8356417" lon="7.821245"><ele>275.20000000000005</ele><time>2026-04-11T09:20:19.053Z</time></trkpt><trkpt lat="44.8357217" lon="7.8213283"><ele>275.6</ele><time>2026-04-11T09:20:21.054Z</time></trkpt><trkpt lat="44.8357967" lon="7.8214267"><ele>276.0</ele><time>2026-04-11T09:20:23.061Z</time></trkpt><trkpt lat="44.835885" lon="7.8215083"><ele>276.0</ele><time>2026-04-11T09:20:25.058Z</time></trkpt><trkpt lat="44.83597" lon="7.821585"><ele>276.0</ele><time>2026-04-11T09:20:27.056Z</time></trkpt><trkpt lat="44.83605" lon="7.8216583"><ele>276.0</ele><time>2026-04-11T09:20:29.062Z</time></trkpt><trkpt lat="44.8361217" lon="7.8217367"><ele>276.0</ele><time>2026-04-11T09:20:31.054Z</time></trkpt><trkpt lat="44.8361933" lon="7.8218017"><ele>276.0</ele><time>2026-04-11T09:20:33.054Z</time></trkpt><trkpt lat="44.83627" lon="7.8218433"><ele>275.8333333333333</ele><time>2026-04-11T09:20:35.056Z</time></trkpt><trkpt lat="44.8363433" lon="7.8218383"><ele>275.6666666666667</ele><time>2026-04-11T09:20:38.059Z</time></trkpt><trkpt lat="44.836385" lon="7.82176"><ele>275.5</ele><time>2026-04-11T09:20:56.059Z</time></trkpt><trkpt lat="44.8364417" lon="7.821675"><ele>275.33333333333337</ele><time>2026-04-11T09:20:59.062Z</time></trkpt><trkpt lat="44.83651" lon="7.8215833"><ele>275.1666666666667</ele><time>2026-04-11T09:21:02.059Z</time></trkpt><trkpt lat="44.8365617" lon="7.8215067"><ele>275.0</ele><time>2026-04-11T09:21:04.059Z</time></trkpt><trkpt lat="44.8366217" lon="7.82142"><ele>275.0</ele><time>2026-04-11T09:21:06.06Z</time></trkpt><trkpt lat="44.8366867" lon="7.82133"><ele>275.0</ele><time>2026-04-11T09:21:08.059Z</time></trkpt><trkpt lat="44.8367533" lon="7.8212333"><ele>275.0</ele><time>2026-04-11T09:21:10.061Z</time></trkpt><trkpt lat="44.8368267" lon="7.8211267"><ele>275.0</ele><time>2026-04-11T09:21:12.062Z</time></trkpt><trkpt lat="44.836905" lon="7.821015"><ele>275.0</ele><time>2026-04-11T09:21:14.06Z</time></trkpt><trkpt lat="44.836985" lon="7.8209"><ele>275.1666666666667</ele><time>2026-04-11T09:21:16.062Z</time></trkpt><trkpt lat="44.837065" lon="7.820785"><ele>275.33333333333337</ele><time>2026-04-11T09:21:18.058Z</time></trkpt><trkpt lat="44.8371533" lon="7.8206617"><ele>275.5</ele><time>2026-04-11T09:21:20.06Z</time></trkpt><trkpt lat="44.8371967" lon="7.820595"><ele>275.6666666666667</ele><time>2026-04-11T09:21:21.061Z</time></trkpt><trkpt lat="44.83724" lon="7.82053"><ele>275.8333333333333</ele><time>2026-04-11T09:21:22.06Z</time></trkpt><trkpt lat="44.8372833" lon="7.8204617"><ele>276.0</ele><time>2026-04-11T09:21:23.06Z</time></trkpt><trkpt lat="44.837375" lon="7.8203383"><ele>276.0</ele><time>2026-04-11T09:21:25.062Z</time></trkpt><trkpt lat="44.83742" lon="7.820275"><ele>276.0</ele><time>2026-04-11T09:21:26.062Z</time></trkpt><trkpt lat="44.8374667" lon="7.8202083"><ele>276.0</ele><time>2026-04-11T09:21:27.063Z</time></trkpt><trkpt lat="44.8375117" lon="7.8201417"><ele>276.0</ele><time>2026-04-11T09:21:28.062Z</time></trkpt><trkpt lat="44.837555" lon="7.8200717"><ele>276.0</ele><time>2026-04-11T09:21:29.061Z</time></trkpt><trkpt lat="44.8376017" lon="7.8200067"><ele>276.0</ele><time>2026-04-11T09:21:30.061Z</time></trkpt><trkpt lat="44.83765" lon="7.81994"><ele>276.0</ele><time>2026-04-11T09:21:31.062Z</time></trkpt><trkpt lat="44.8376983" lon="7.819875"><ele>276.0</ele><time>2026-04-11T09:21:32.061Z</time></trkpt><trkpt lat="44.8377467" lon="7.8198067"><ele>276.0</ele><time>2026-04-11T09:21:33.062Z</time></trkpt><trkpt lat="44.837795" lon="7.819735"><ele>276.0</ele><time>2026-04-11T09:21:34.061Z</time></trkpt><trkpt lat="44.83784" lon="7.8196667"><ele>276.0</ele><time>2026-04-11T09:21:35.063Z</time></trkpt><trkpt lat="44.8378867" lon="7.819595"><ele>276.0</ele><time>2026-04-11T09:21:36.061Z</time></trkpt><trkpt lat="44.837935" lon="7.8195283"><ele>276.0</ele><time>2026-04-11T09:21:37.063Z</time></trkpt><trkpt lat="44.8379817" lon="7.8194683"><ele>276.0</ele><time>2026-04-11T09:21:38.061Z</time></trkpt><trkpt lat="44.83803" lon="7.8194067"><ele>276.0</ele><time>2026-04-11T09:21:39.06Z</time></trkpt><trkpt lat="44.8380767" lon="7.8193433"><ele>276.0</ele><time>2026-04-11T09:21:40.059Z</time></trkpt><trkpt lat="44.8381667" lon="7.8192167"><ele>276.0</ele><time>2026-04-11T09:21:42.061Z</time></trkpt><trkpt lat="44.8382133" lon="7.8191483"><ele>276.0</ele><time>2026-04-11T09:21:43.062Z</time></trkpt><trkpt lat="44.8382583" lon="7.819085"><ele>276.0</ele><time>2026-04-11T09:21:44.06Z</time></trkpt><trkpt lat="44.838345" lon="7.8189667"><ele>276.0</ele><time>2026-04-11T09:21:46.061Z</time></trkpt><trkpt lat="44.838415" lon="7.8188517"><ele>275.8333333333333</ele><time>2026-04-11T09:21:48.062Z</time></trkpt><trkpt lat="44.8385017" lon="7.8187317"><ele>275.6666666666667</ele><time>2026-04-11T09:21:50.061Z</time></trkpt><trkpt lat="44.83855" lon="7.81867"><ele>275.5</ele><time>2026-04-11T09:21:51.059Z</time></trkpt><trkpt lat="44.8385983" lon="7.8186017"><ele>275.33333333333337</ele><time>2026-04-11T09:21:52.06Z</time></trkpt><trkpt lat="44.8386483" lon="7.8185283"><ele>275.1666666666667</ele><time>2026-04-11T09:21:53.057Z</time></trkpt><trkpt lat="44.8386967" lon="7.8184567"><ele>275.0</ele><time>2026-04-11T09:21:54.06Z</time></trkpt><trkpt lat="44.8387483" lon="7.8183867"><ele>274.7142857142857</ele><time>2026-04-11T09:21:55.068Z</time></trkpt><trkpt lat="44.8387983" lon="7.818315"><ele>274.42857142857144</ele><time>2026-04-11T09:21:56.061Z</time></trkpt><trkpt lat="44.838845" lon="7.8182483"><ele>274.1428571428571</ele><time>2026-04-11T09:21:57.061Z</time></trkpt><trkpt lat="44.83889" lon="7.818175"><ele>273.8571428571429</ele><time>2026-04-11T09:21:58.058Z</time></trkpt><trkpt lat="44.8389367" lon="7.8181017"><ele>273.57142857142856</ele><time>2026-04-11T09:21:59.059Z</time></trkpt><trkpt lat="44.838985" lon="7.8180267"><ele>273.2857142857143</ele><time>2026-04-11T09:22:00.061Z</time></trkpt><trkpt lat="44.8390317" lon="7.81795"><ele>273.0</ele><time>2026-04-11T09:22:01.061Z</time></trkpt><trkpt lat="44.8390783" lon="7.8178767"><ele>273.0</ele><time>2026-04-11T09:22:02.06Z</time></trkpt><trkpt lat="44.8391233" lon="7.8178017"><ele>273.0</ele><time>2026-04-11T09:22:03.061Z</time></trkpt><trkpt lat="44.8391667" lon="7.8177317"><ele>273.0</ele><time>2026-04-11T09:22:04.06Z</time></trkpt><trkpt lat="44.83921" lon="7.81766"><ele>273.0</ele><time>2026-04-11T09:22:05.06Z</time></trkpt><trkpt lat="44.839255" lon="7.8175917"><ele>273.0</ele><time>2026-04-11T09:22:06.061Z</time></trkpt><trkpt lat="44.8393033" lon="7.8175183"><ele>273.0</ele><time>2026-04-11T09:22:07.06Z</time></trkpt><trkpt lat="44.839355" lon="7.81744"><ele>273.0</ele><time>2026-04-11T09:22:08.061Z</time></trkpt><trkpt lat="44.8394117" lon="7.817365"><ele>273.1666666666667</ele><time>2026-04-11T09:22:09.059Z</time></trkpt><trkpt lat="44.83947" lon="7.81729"><ele>273.3333333333333</ele><time>2026-04-11T09:22:10.062Z</time></trkpt><trkpt lat="44.8395317" lon="7.817225"><ele>273.5</ele><time>2026-04-11T09:22:11.06Z</time></trkpt><trkpt lat="44.8395883" lon="7.8171517"><ele>273.66666666666663</ele><time>2026-04-11T09:22:12.061Z</time></trkpt><trkpt lat="44.8396433" lon="7.81708"><ele>273.8333333333333</ele><time>2026-04-11T09:22:13.062Z</time></trkpt><trkpt lat="44.8396933" lon="7.8170067"><ele>274.0</ele><time>2026-04-11T09:22:14.061Z</time></trkpt><trkpt lat="44.839745" lon="7.8169383"><ele>274.00000000000006</ele><time>2026-04-11T09:22:15.059Z</time></trkpt><trkpt lat="44.8397967" lon="7.8168683"><ele>274.0</ele><time>2026-04-11T09:22:16.061Z</time></trkpt><trkpt lat="44.83985" lon="7.81681"><ele>274.0</ele><time>2026-04-11T09:22:17.06Z</time></trkpt><trkpt lat="44.8399083" lon="7.8167733"><ele>274.0</ele><time>2026-04-11T09:22:18.06Z</time></trkpt><trkpt lat="44.8399717" lon="7.8167617"><ele>274.0</ele><time>2026-04-11T09:22:19.06Z</time></trkpt><trkpt lat="44.840035" lon="7.816775"><ele>274.00000000000006</ele><time>2026-04-11T09:22:20.06Z</time></trkpt><trkpt lat="44.840095" lon="7.8168033"><ele>274.0</ele><time>2026-04-11T09:22:21.059Z</time></trkpt><trkpt lat="44.8401517" lon="7.816845"><ele>273.2</ele><time>2026-04-11T09:22:22.06Z</time></trkpt><trkpt lat="44.8402067" lon="7.8168883"><ele>272.4</ele><time>2026-04-11T09:22:23.059Z</time></trkpt><trkpt lat="44.8403067" lon="7.8169917"><ele>271.6</ele><time>2026-04-11T09:22:25.061Z</time></trkpt><trkpt lat="44.8404067" lon="7.8170967"><ele>270.8</ele><time>2026-04-11T09:22:27.057Z</time></trkpt><trkpt lat="44.84046" lon="7.8171467"><ele>270.0</ele><time>2026-04-11T09:22:28.055Z</time></trkpt><trkpt lat="44.840575" lon="7.8172283"><ele>270.0</ele><time>2026-04-11T09:22:30.061Z</time></trkpt><trkpt lat="44.8406333" lon="7.8172733"><ele>270.0</ele><time>2026-04-11T09:22:31.066Z</time></trkpt><trkpt lat="44.84069" lon="7.8173183"><ele>270.0</ele><time>2026-04-11T09:22:32.06Z</time></trkpt><trkpt lat="44.8407467" lon="7.8173683"><ele>270.0</ele><time>2026-04-11T09:22:33.062Z</time></trkpt><trkpt lat="44.8408067" lon="7.817415"><ele>270.0</ele><time>2026-04-11T09:22:34.061Z</time></trkpt><trkpt lat="44.840865" lon="7.8174583"><ele>270.0</ele><time>2026-04-11T09:22:35.062Z</time></trkpt><trkpt lat="44.8409217" lon="7.8175017"><ele>270.0</ele><time>2026-04-11T09:22:36.061Z</time></trkpt><trkpt lat="44.84098" lon="7.81754"><ele>270.0</ele><time>2026-04-11T09:22:37.062Z</time></trkpt><trkpt lat="44.8410367" lon="7.81758"><ele>270.0</ele><time>2026-04-11T09:22:38.062Z</time></trkpt><trkpt lat="44.8410917" lon="7.8176233"><ele>270.0</ele><time>2026-04-11T09:22:39.062Z</time></trkpt><trkpt lat="44.8412033" lon="7.817705"><ele>270.0</ele><time>2026-04-11T09:22:41.06Z</time></trkpt><trkpt lat="44.84126" lon="7.8177467"><ele>270.0</ele><time>2026-04-11T09:22:42.061Z</time></trkpt><trkpt lat="44.8413217" lon="7.8177817"><ele>270.0</ele><time>2026-04-11T09:22:43.061Z</time></trkpt><trkpt lat="44.841385" lon="7.81781"><ele>270.0</ele><time>2026-04-11T09:22:44.06Z</time></trkpt><trkpt lat="44.8414517" lon="7.8178317"><ele>270.0</ele><time>2026-04-11T09:22:45.061Z</time></trkpt><trkpt lat="44.8415183" lon="7.8178483"><ele>270.0</ele><time>2026-04-11T09:22:46.06Z</time></trkpt><trkpt lat="44.8415867" lon="7.8178583"><ele>270.0</ele><time>2026-04-11T09:22:47.059Z</time></trkpt><trkpt lat="44.8416567" lon="7.8178617"><ele>270.0</ele><time>2026-04-11T09:22:48.059Z</time></trkpt><trkpt lat="44.8417267" lon="7.81786"><ele>270.0</ele><time>2026-04-11T09:22:49.061Z</time></trkpt><trkpt lat="44.8417983" lon="7.8178517"><ele>270.0</ele><time>2026-04-11T09:22:50.06Z</time></trkpt><trkpt lat="44.84187" lon="7.8178417"><ele>270.0</ele><time>2026-04-11T09:22:51.063Z</time></trkpt><trkpt lat="44.84194" lon="7.8178367"><ele>269.57142857142856</ele><time>2026-04-11T09:22:52.06Z</time></trkpt><trkpt lat="44.8420117" lon="7.8178333"><ele>269.1428571428571</ele><time>2026-04-11T09:22:53.059Z</time></trkpt><trkpt lat="44.8420833" lon="7.8178367"><ele>268.7142857142857</ele><time>2026-04-11T09:22:54.06Z</time></trkpt><trkpt lat="44.8421533" lon="7.8178483"><ele>268.2857142857143</ele><time>2026-04-11T09:22:55.06Z</time></trkpt><trkpt lat="44.8422233" lon="7.81787"><ele>267.8571428571429</ele><time>2026-04-11T09:22:56.06Z</time></trkpt><trkpt lat="44.8422933" lon="7.8178917"><ele>267.42857142857144</ele><time>2026-04-11T09:22:57.062Z</time></trkpt><trkpt lat="44.8423617" lon="7.8179183"><ele>267.0</ele><time>2026-04-11T09:22:58.059Z</time></trkpt><trkpt lat="44.8424317" lon="7.817945"><ele>267.00000000000006</ele><time>2026-04-11T09:22:59.059Z</time></trkpt><trkpt lat="44.8425033" lon="7.8179633"><ele>267.0</ele><time>2026-04-11T09:23:00.061Z</time></trkpt><trkpt lat="44.8425733" lon="7.8179783"><ele>267.0</ele><time>2026-04-11T09:23:01.062Z</time></trkpt><trkpt lat="44.84264" lon="7.8179867"><ele>267.0</ele><time>2026-04-11T09:23:02.06Z</time></trkpt><trkpt lat="44.8427083" lon="7.817995"><ele>267.0</ele><time>2026-04-11T09:23:03.061Z</time></trkpt><trkpt lat="44.8427783" lon="7.818"><ele>267.00000000000006</ele><time>2026-04-11T09:23:04.061Z</time></trkpt><trkpt lat="44.8428483" lon="7.818"><ele>267.0</ele><time>2026-04-11T09:23:05.057Z</time></trkpt><trkpt lat="44.8429183" lon="7.8179983"><ele>266.7142857142857</ele><time>2026-04-11T09:23:06.067Z</time></trkpt><trkpt lat="44.8429883" lon="7.8179983"><ele>266.42857142857144</ele><time>2026-04-11T09:23:07.061Z</time></trkpt><trkpt lat="44.8430583" lon="7.818"><ele>266.1428571428571</ele><time>2026-04-11T09:23:08.06Z</time></trkpt><trkpt lat="44.8431283" lon="7.8180033"><ele>265.8571428571429</ele><time>2026-04-11T09:23:09.061Z</time></trkpt><trkpt lat="44.8431983" lon="7.818005"><ele>265.57142857142856</ele><time>2026-04-11T09:23:10.06Z</time></trkpt><trkpt lat="44.84327" lon="7.8180083"><ele>265.2857142857143</ele><time>2026-04-11T09:23:11.061Z</time></trkpt><trkpt lat="44.84334" lon="7.8180217"><ele>265.0</ele><time>2026-04-11T09:23:12.061Z</time></trkpt><trkpt lat="44.84341" lon="7.81804"><ele>264.85714285714283</ele><time>2026-04-11T09:23:13.06Z</time></trkpt><trkpt lat="44.8434817" lon="7.8180617"><ele>264.7142857142857</ele><time>2026-04-11T09:23:14.061Z</time></trkpt><trkpt lat="44.843555" lon="7.8180783"><ele>264.57142857142856</ele><time>2026-04-11T09:23:15.062Z</time></trkpt><trkpt lat="44.8436267" lon="7.818095"><ele>264.42857142857144</ele><time>2026-04-11T09:23:16.061Z</time></trkpt><trkpt lat="44.8437017" lon="7.8181133"><ele>264.2857142857143</ele><time>2026-04-11T09:23:17.06Z</time></trkpt><trkpt lat="44.843775" lon="7.8181317"><ele>264.1428571428571</ele><time>2026-04-11T09:23:18.061Z</time></trkpt><trkpt lat="44.843845" lon="7.8181517"><ele>264.0</ele><time>2026-04-11T09:23:19.062Z</time></trkpt><trkpt lat="44.8439117" lon="7.8181717"><ele>264.0</ele><time>2026-04-11T09:23:20.061Z</time></trkpt><trkpt lat="44.8439783" lon="7.8181933"><ele>264.0</ele><time>2026-04-11T09:23:21.062Z</time></trkpt><trkpt lat="44.844045" lon="7.8182133"><ele>264.0</ele><time>2026-04-11T09:23:22.061Z</time></trkpt><trkpt lat="44.8441117" lon="7.8182233"><ele>264.0</ele><time>2026-04-11T09:23:23.058Z</time></trkpt><trkpt lat="44.8441783" lon="7.818225"><ele>264.0</ele><time>2026-04-11T09:23:24.061Z</time></trkpt><trkpt lat="44.844245" lon="7.8182033"><ele>264.0</ele><time>2026-04-11T09:23:25.062Z</time></trkpt><trkpt lat="44.84431" lon="7.8181617"><ele>264.0</ele><time>2026-04-11T09:23:26.061Z</time></trkpt><trkpt lat="44.8443667" lon="7.8181067"><ele>264.1428571428571</ele><time>2026-04-11T09:23:27.06Z</time></trkpt><trkpt lat="44.8444283" lon="7.8180467"><ele>264.2857142857143</ele><time>2026-04-11T09:23:28.061Z</time></trkpt><trkpt lat="44.84449" lon="7.817985"><ele>264.42857142857144</ele><time>2026-04-11T09:23:29.06Z</time></trkpt><trkpt lat="44.84455" lon="7.817925"><ele>264.57142857142856</ele><time>2026-04-11T09:23:30.055Z</time></trkpt><trkpt lat="44.84461" lon="7.8178667"><ele>264.7142857142857</ele><time>2026-04-11T09:23:31.06Z</time></trkpt><trkpt lat="44.84467" lon="7.8178067"><ele>264.85714285714283</ele><time>2026-04-11T09:23:32.06Z</time></trkpt><trkpt lat="44.8447317" lon="7.8177467"><ele>265.0</ele><time>2026-04-11T09:23:33.061Z</time></trkpt><trkpt lat="44.844795" lon="7.817685"><ele>264.8333333333333</ele><time>2026-04-11T09:23:34.061Z</time></trkpt><trkpt lat="44.8448567" lon="7.8176267"><ele>264.66666666666663</ele><time>2026-04-11T09:23:35.059Z</time></trkpt><trkpt lat="44.8449217" lon="7.817565"><ele>264.5</ele><time>2026-04-11T09:23:36.061Z</time></trkpt><trkpt lat="44.844985" lon="7.8175033"><ele>264.3333333333333</ele><time>2026-04-11T09:23:37.061Z</time></trkpt><trkpt lat="44.8450483" lon="7.8174417"><ele>264.1666666666667</ele><time>2026-04-11T09:23:38.06Z</time></trkpt><trkpt lat="44.8451117" lon="7.8173817"><ele>264.0</ele><time>2026-04-11T09:23:39.061Z</time></trkpt><trkpt lat="44.8451733" lon="7.81732"><ele>264.0</ele><time>2026-04-11T09:23:40.06Z</time></trkpt><trkpt lat="44.8452367" lon="7.817255"><ele>264.0</ele><time>2026-04-11T09:23:41.059Z</time></trkpt><trkpt lat="44.8453017" lon="7.8171933"><ele>264.0</ele><time>2026-04-11T09:23:42.06Z</time></trkpt><trkpt lat="44.845365" lon="7.81713"><ele>264.0</ele><time>2026-04-11T09:23:43.06Z</time></trkpt><trkpt lat="44.8454267" lon="7.8170733"><ele>264.0</ele><time>2026-04-11T09:23:44.062Z</time></trkpt><trkpt lat="44.8454883" lon="7.817015"><ele>264.0</ele><time>2026-04-11T09:23:45.063Z</time></trkpt><trkpt lat="44.8455517" lon="7.8169567"><ele>264.0</ele><time>2026-04-11T09:23:46.059Z</time></trkpt><trkpt lat="44.84561" lon="7.8169"><ele>264.0</ele><time>2026-04-11T09:23:47.06Z</time></trkpt><trkpt lat="44.8456717" lon="7.8168417"><ele>264.0</ele><time>2026-04-11T09:23:48.062Z</time></trkpt><trkpt lat="44.8457317" lon="7.8167833"><ele>264.0</ele><time>2026-04-11T09:23:49.059Z</time></trkpt><trkpt lat="44.8457917" lon="7.8167283"><ele>264.0</ele><time>2026-04-11T09:23:50.058Z</time></trkpt><trkpt lat="44.8458517" lon="7.8166683"><ele>264.0</ele><time>2026-04-11T09:23:51.062Z</time></trkpt><trkpt lat="44.8459117" lon="7.816605"><ele>264.0</ele><time>2026-04-11T09:23:52.061Z</time></trkpt><trkpt lat="44.8459717" lon="7.8165433"><ele>263.85714285714283</ele><time>2026-04-11T09:23:53.061Z</time></trkpt><trkpt lat="44.8460333" lon="7.8164817"><ele>263.7142857142857</ele><time>2026-04-11T09:23:54.061Z</time></trkpt><trkpt lat="44.8460967" lon="7.8164183"><ele>263.57142857142856</ele><time>2026-04-11T09:23:55.059Z</time></trkpt><trkpt lat="44.84616" lon="7.816355"><ele>263.42857142857144</ele><time>2026-04-11T09:23:56.062Z</time></trkpt><trkpt lat="44.8462183" lon="7.8162967"><ele>263.2857142857143</ele><time>2026-04-11T09:23:57.06Z</time></trkpt><trkpt lat="44.8462817" lon="7.816245"><ele>263.1428571428571</ele><time>2026-04-11T09:23:58.061Z</time></trkpt><trkpt lat="44.8463483" lon="7.8162"><ele>263.0</ele><time>2026-04-11T09:23:59.058Z</time></trkpt><trkpt lat="44.8464183" lon="7.8161617"><ele>263.0</ele><time>2026-04-11T09:24:00.059Z</time></trkpt><trkpt lat="44.8464867" lon="7.8161267"><ele>263.0</ele><time>2026-04-11T09:24:01.06Z</time></trkpt><trkpt lat="44.8465567" lon="7.8160917"><ele>263.0</ele><time>2026-04-11T09:24:02.06Z</time></trkpt><trkpt lat="44.8466267" lon="7.8160533"><ele>263.0</ele><time>2026-04-11T09:24:03.06Z</time></trkpt><trkpt lat="44.8467" lon="7.816015"><ele>263.0</ele><time>2026-04-11T09:24:04.061Z</time></trkpt><trkpt lat="44.8467717" lon="7.8159817"><ele>263.0</ele><time>2026-04-11T09:24:05.059Z</time></trkpt><trkpt lat="44.8468433" lon="7.8159483"><ele>262.6</ele><time>2026-04-11T09:24:06.06Z</time></trkpt><trkpt lat="44.846915" lon="7.8159167"><ele>262.20000000000005</ele><time>2026-04-11T09:24:07.064Z</time></trkpt><trkpt lat="44.84699" lon="7.81586"><ele>261.8</ele><time>2026-04-11T09:24:08.001Z</time></trkpt><trkpt lat="44.8470783" lon="7.81588"><ele>261.40000000000003</ele><time>2026-04-11T09:24:10.061Z</time></trkpt><trkpt lat="44.84716" lon="7.815825"><ele>261.0</ele><time>2026-04-11T09:24:11.058Z</time></trkpt><trkpt lat="44.8472733" lon="7.81577"><ele>261.0</ele><time>2026-04-11T09:24:12.56Z</time></trkpt><trkpt lat="44.8473817" lon="7.8157183"><ele>261.0</ele><time>2026-04-11T09:24:14.06Z</time></trkpt><trkpt lat="44.8474517" lon="7.8156833"><ele>261.0</ele><time>2026-04-11T09:24:15.058Z</time></trkpt><trkpt lat="44.8475217" lon="7.8156533"><ele>261.0</ele><time>2026-04-11T09:24:16.061Z</time></trkpt><trkpt lat="44.8475883" lon="7.8156217"><ele>261.0</ele><time>2026-04-11T09:24:17.059Z</time></trkpt><trkpt lat="44.8476517" lon="7.81559"><ele>261.0</ele><time>2026-04-11T09:24:18.06Z</time></trkpt><trkpt lat="44.8477183" lon="7.8155567"><ele>261.0</ele><time>2026-04-11T09:24:19.06Z</time></trkpt><trkpt lat="44.847785" lon="7.815525"><ele>261.0</ele><time>2026-04-11T09:24:20.064Z</time></trkpt><trkpt lat="44.8478517" lon="7.8154883"><ele>261.0</ele><time>2026-04-11T09:24:21.063Z</time></trkpt><trkpt lat="44.84792" lon="7.81545"><ele>261.0</ele><time>2026-04-11T09:24:22.062Z</time></trkpt><trkpt lat="44.84799" lon="7.8154133"><ele>261.0</ele><time>2026-04-11T09:24:23.06Z</time></trkpt><trkpt lat="44.8480567" lon="7.8153783"><ele>261.0</ele><time>2026-04-11T09:24:24.062Z</time></trkpt><trkpt lat="44.848125" lon="7.8153417"><ele>261.0</ele><time>2026-04-11T09:24:25.063Z</time></trkpt><trkpt lat="44.8481917" lon="7.8153017"><ele>261.0</ele><time>2026-04-11T09:24:26.064Z</time></trkpt><trkpt lat="44.84826" lon="7.8152633"><ele>261.0</ele><time>2026-04-11T09:24:27.064Z</time></trkpt><trkpt lat="44.848325" lon="7.8152283"><ele>261.0</ele><time>2026-04-11T09:24:28.062Z</time></trkpt><trkpt lat="44.8483917" lon="7.8151917"><ele>261.0</ele><time>2026-04-11T09:24:29.06Z</time></trkpt><trkpt lat="44.84846" lon="7.8151533"><ele>261.0</ele><time>2026-04-11T09:24:30.063Z</time></trkpt><trkpt lat="44.8485283" lon="7.815115"><ele>261.0</ele><time>2026-04-11T09:24:31.062Z</time></trkpt><trkpt lat="44.8485983" lon="7.815075"><ele>261.0</ele><time>2026-04-11T09:24:32.063Z</time></trkpt><trkpt lat="44.848665" lon="7.8150367"><ele>260.8571428571429</ele><time>2026-04-11T09:24:33.061Z</time></trkpt><trkpt lat="44.8487333" lon="7.8149983"><ele>260.7142857142857</ele><time>2026-04-11T09:24:34.061Z</time></trkpt><trkpt lat="44.8488017" lon="7.8149633"><ele>260.57142857142856</ele><time>2026-04-11T09:24:35.06Z</time></trkpt><trkpt lat="44.8488733" lon="7.814925"><ele>260.42857142857144</ele><time>2026-04-11T09:24:36.067Z</time></trkpt><trkpt lat="44.8489433" lon="7.8148883"><ele>260.2857142857143</ele><time>2026-04-11T09:24:37.062Z</time></trkpt><trkpt lat="44.8490117" lon="7.8148517"><ele>260.14285714285717</ele><time>2026-04-11T09:24:38.056Z</time></trkpt><trkpt lat="44.8490783" lon="7.814815"><ele>260.0</ele><time>2026-04-11T09:24:39.062Z</time></trkpt><trkpt lat="44.849145" lon="7.8147767"><ele>260.00000000000006</ele><time>2026-04-11T09:24:40.062Z</time></trkpt><trkpt lat="44.8492117" lon="7.8147383"><ele>260.0</ele><time>2026-04-11T09:24:41.059Z</time></trkpt><trkpt lat="44.8492767" lon="7.8147"><ele>260.0</ele><time>2026-04-11T09:24:42.062Z</time></trkpt><trkpt lat="44.8493467" lon="7.8146583"><ele>260.0</ele><time>2026-04-11T09:24:43.059Z</time></trkpt><trkpt lat="44.849415" lon="7.81462"><ele>260.0</ele><time>2026-04-11T09:24:44.058Z</time></trkpt><trkpt lat="44.849485" lon="7.8145767"><ele>260.00000000000006</ele><time>2026-04-11T09:24:45.061Z</time></trkpt><trkpt lat="44.8495533" lon="7.8145367"><ele>260.0</ele><time>2026-04-11T09:24:46.06Z</time></trkpt><trkpt lat="44.849625" lon="7.8144967"><ele>260.0</ele><time>2026-04-11T09:24:47.059Z</time></trkpt><trkpt lat="44.8496983" lon="7.814455"><ele>260.0</ele><time>2026-04-11T09:24:48.06Z</time></trkpt><trkpt lat="44.84977" lon="7.8144133"><ele>260.0</ele><time>2026-04-11T09:24:49.063Z</time></trkpt><trkpt lat="44.8498417" lon="7.8143717"><ele>260.0</ele><time>2026-04-11T09:24:50.06Z</time></trkpt><trkpt lat="44.8499133" lon="7.8143317"><ele>260.0</ele><time>2026-04-11T09:24:51.061Z</time></trkpt><trkpt lat="44.8499833" lon="7.81429"><ele>260.0</ele><time>2026-04-11T09:24:52.059Z</time></trkpt><trkpt lat="44.8500533" lon="7.8142517"><ele>260.0</ele><time>2026-04-11T09:24:53.058Z</time></trkpt><trkpt lat="44.8501233" lon="7.81421"><ele>260.0</ele><time>2026-04-11T09:24:54.06Z</time></trkpt><trkpt lat="44.850195" lon="7.81417"><ele>260.0</ele><time>2026-04-11T09:24:55.061Z</time></trkpt><trkpt lat="44.8502667" lon="7.81413"><ele>260.0</ele><time>2026-04-11T09:24:56.059Z</time></trkpt><trkpt lat="44.8503367" lon="7.81409"><ele>260.0</ele><time>2026-04-11T09:24:57.06Z</time></trkpt><trkpt lat="44.8504083" lon="7.8140483"><ele>260.0</ele><time>2026-04-11T09:24:58.059Z</time></trkpt><trkpt lat="44.8504767" lon="7.8140067"><ele>260.00000000000006</ele><time>2026-04-11T09:24:59.06Z</time></trkpt><trkpt lat="44.850545" lon="7.8139667"><ele>260.0</ele><time>2026-04-11T09:25:00.059Z</time></trkpt><trkpt lat="44.8506133" lon="7.8139267"><ele>260.0</ele><time>2026-04-11T09:25:01.061Z</time></trkpt><trkpt lat="44.8506833" lon="7.81389"><ele>260.0</ele><time>2026-04-11T09:25:02.06Z</time></trkpt><trkpt lat="44.8507517" lon="7.8138483"><ele>260.0</ele><time>2026-04-11T09:25:03.059Z</time></trkpt><trkpt lat="44.8508183" lon="7.81381"><ele>260.00000000000006</ele><time>2026-04-11T09:25:04.059Z</time></trkpt><trkpt lat="44.8508867" lon="7.81377"><ele>260.0</ele><time>2026-04-11T09:25:05.06Z</time></trkpt><trkpt lat="44.850955" lon="7.81373"><ele>260.0</ele><time>2026-04-11T09:25:06.061Z</time></trkpt><trkpt lat="44.851025" lon="7.8136867"><ele>260.0</ele><time>2026-04-11T09:25:07.061Z</time></trkpt><trkpt lat="44.8510933" lon="7.8136467"><ele>260.0</ele><time>2026-04-11T09:25:08.06Z</time></trkpt><trkpt lat="44.8511633" lon="7.813605"><ele>260.0</ele><time>2026-04-11T09:25:09.061Z</time></trkpt><trkpt lat="44.8512333" lon="7.8135633"><ele>260.0</ele><time>2026-04-11T09:25:10.059Z</time></trkpt><trkpt lat="44.8513033" lon="7.8135233"><ele>260.0</ele><time>2026-04-11T09:25:11.058Z</time></trkpt><trkpt lat="44.851375" lon="7.8134817"><ele>259.6666666666667</ele><time>2026-04-11T09:25:12.062Z</time></trkpt><trkpt lat="44.8514433" lon="7.8134383"><ele>259.33333333333337</ele><time>2026-04-11T09:25:13.06Z</time></trkpt><trkpt lat="44.8515133" lon="7.8133983"><ele>259.0</ele><time>2026-04-11T09:25:14.063Z</time></trkpt><trkpt lat="44.851585" lon="7.8133533"><ele>258.6666666666667</ele><time>2026-04-11T09:25:15.061Z</time></trkpt><trkpt lat="44.851655" lon="7.8133067"><ele>258.3333333333333</ele><time>2026-04-11T09:25:16.061Z</time></trkpt><trkpt lat="44.8517217" lon="7.813255"><ele>258.0</ele><time>2026-04-11T09:25:17.06Z</time></trkpt><trkpt lat="44.8517867" lon="7.8132017"><ele>258.1428571428571</ele><time>2026-04-11T09:25:18.062Z</time></trkpt><trkpt lat="44.8518517" lon="7.8131483"><ele>258.2857142857143</ele><time>2026-04-11T09:25:19.061Z</time></trkpt><trkpt lat="44.8519133" lon="7.8130867"><ele>258.42857142857144</ele><time>2026-04-11T09:25:20.061Z</time></trkpt><trkpt lat="44.8519733" lon="7.8130233"><ele>258.57142857142856</ele><time>2026-04-11T09:25:21.058Z</time></trkpt><trkpt lat="44.8520317" lon="7.8129567"><ele>258.7142857142857</ele><time>2026-04-11T09:25:22.059Z</time></trkpt><trkpt lat="44.8520883" lon="7.8128917"><ele>258.85714285714283</ele><time>2026-04-11T09:25:23.058Z</time></trkpt><trkpt lat="44.8521467" lon="7.8128267"><ele>259.0</ele><time>2026-04-11T09:25:24.059Z</time></trkpt><trkpt lat="44.8522017" lon="7.8127567"><ele>259.0</ele><time>2026-04-11T09:25:25.06Z</time></trkpt><trkpt lat="44.8522583" lon="7.812685"><ele>259.0</ele><time>2026-04-11T09:25:26.06Z</time></trkpt><trkpt lat="44.8523167" lon="7.812615"><ele>259.0</ele><time>2026-04-11T09:25:27.061Z</time></trkpt><trkpt lat="44.852375" lon="7.8125433"><ele>259.0</ele><time>2026-04-11T09:25:28.061Z</time></trkpt><trkpt lat="44.8524317" lon="7.812475"><ele>259.0</ele><time>2026-04-11T09:25:29.06Z</time></trkpt><trkpt lat="44.8524917" lon="7.8124067"><ele>259.0</ele><time>2026-04-11T09:25:30.059Z</time></trkpt><trkpt lat="44.8525517" lon="7.81234"><ele>258.8333333333333</ele><time>2026-04-11T09:25:31.06Z</time></trkpt><trkpt lat="44.8526117" lon="7.81227"><ele>258.66666666666663</ele><time>2026-04-11T09:25:32.062Z</time></trkpt><trkpt lat="44.8526733" lon="7.8122017"><ele>258.5</ele><time>2026-04-11T09:25:33.06Z</time></trkpt><trkpt lat="44.8527367" lon="7.8121333"><ele>258.3333333333333</ele><time>2026-04-11T09:25:34.063Z</time></trkpt><trkpt lat="44.8528" lon="7.8120583"><ele>258.1666666666667</ele><time>2026-04-11T09:25:35.062Z</time></trkpt><trkpt lat="44.8528617" lon="7.811985"><ele>258.0</ele><time>2026-04-11T09:25:36.064Z</time></trkpt><trkpt lat="44.8529233" lon="7.8119083"><ele>258.0</ele><time>2026-04-11T09:25:37.062Z</time></trkpt><trkpt lat="44.852985" lon="7.8118317"><ele>258.0</ele><time>2026-04-11T09:25:38.063Z</time></trkpt><trkpt lat="44.8530467" lon="7.8117567"><ele>258.0</ele><time>2026-04-11T09:25:39.061Z</time></trkpt><trkpt lat="44.8531117" lon="7.81168"><ele>258.0</ele><time>2026-04-11T09:25:40.061Z</time></trkpt><trkpt lat="44.853175" lon="7.8116033"><ele>258.0</ele><time>2026-04-11T09:25:41.061Z</time></trkpt><trkpt lat="44.8532367" lon="7.8115217"><ele>258.0</ele><time>2026-04-11T09:25:42.062Z</time></trkpt><trkpt lat="44.8533" lon="7.8114433"><ele>258.0</ele><time>2026-04-11T09:25:43.062Z</time></trkpt><trkpt lat="44.853365" lon="7.8113633"><ele>258.0</ele><time>2026-04-11T09:25:44.061Z</time></trkpt><trkpt lat="44.8534283" lon="7.8112833"><ele>258.0</ele><time>2026-04-11T09:25:45.061Z</time></trkpt><trkpt lat="44.8534917" lon="7.811205"><ele>258.0</ele><time>2026-04-11T09:25:46.061Z</time></trkpt><trkpt lat="44.8535533" lon="7.8111267"><ele>258.0</ele><time>2026-04-11T09:25:47.061Z</time></trkpt><trkpt lat="44.8536167" lon="7.8110517"><ele>258.0</ele><time>2026-04-11T09:25:48.061Z</time></trkpt><trkpt lat="44.8536817" lon="7.8109767"><ele>257.8333333333333</ele><time>2026-04-11T09:25:49.061Z</time></trkpt><trkpt lat="44.8537417" lon="7.8109033"><ele>257.6666666666667</ele><time>2026-04-11T09:25:50.06Z</time></trkpt><trkpt lat="44.853805" lon="7.81083"><ele>257.5</ele><time>2026-04-11T09:25:51.061Z</time></trkpt><trkpt lat="44.8538667" lon="7.8107567"><ele>257.33333333333337</ele><time>2026-04-11T09:25:52.061Z</time></trkpt><trkpt lat="44.8539283" lon="7.8106817"><ele>257.1666666666667</ele><time>2026-04-11T09:25:53.06Z</time></trkpt><trkpt lat="44.8539917" lon="7.8106083"><ele>257.0</ele><time>2026-04-11T09:25:54.057Z</time></trkpt><trkpt lat="44.8540567" lon="7.8105333"><ele>257.0</ele><time>2026-04-11T09:25:55.063Z</time></trkpt><trkpt lat="44.8541217" lon="7.8104583"><ele>257.0</ele><time>2026-04-11T09:25:56.061Z</time></trkpt><trkpt lat="44.854185" lon="7.8103817"><ele>257.0</ele><time>2026-04-11T09:25:57.062Z</time></trkpt><trkpt lat="44.8542467" lon="7.8103067"><ele>257.0</ele><time>2026-04-11T09:25:58.06Z</time></trkpt><trkpt lat="44.8543067" lon="7.8102317"><ele>257.0</ele><time>2026-04-11T09:25:59.061Z</time></trkpt><trkpt lat="44.85437" lon="7.810155"><ele>257.0</ele><time>2026-04-11T09:26:00.061Z</time></trkpt><trkpt lat="44.8544333" lon="7.8100833"><ele>256.85714285714283</ele><time>2026-04-11T09:26:01.06Z</time></trkpt><trkpt lat="44.8544917" lon="7.8100167"><ele>256.7142857142857</ele><time>2026-04-11T09:26:02.059Z</time></trkpt><trkpt lat="44.85455" lon="7.8099483"><ele>256.57142857142856</ele><time>2026-04-11T09:26:03.06Z</time></trkpt><trkpt lat="44.8546117" lon="7.8098867"><ele>256.42857142857144</ele><time>2026-04-11T09:26:04.06Z</time></trkpt><trkpt lat="44.8546783" lon="7.8098433"><ele>256.2857142857143</ele><time>2026-04-11T09:26:05.059Z</time></trkpt><trkpt lat="44.8547483" lon="7.8098217"><ele>256.1428571428571</ele><time>2026-04-11T09:26:06.06Z</time></trkpt><trkpt lat="44.854825" lon="7.8098167"><ele>256.0</ele><time>2026-04-11T09:26:07.061Z</time></trkpt><trkpt lat="44.8549033" lon="7.8098217"><ele>255.99999999999997</ele><time>2026-04-11T09:26:08.06Z</time></trkpt><trkpt lat="44.8549817" lon="7.809825"><ele>256.0</ele><time>2026-04-11T09:26:09.059Z</time></trkpt><trkpt lat="44.8550617" lon="7.8098233"><ele>256.0</ele><time>2026-04-11T09:26:10.059Z</time></trkpt><trkpt lat="44.8551383" lon="7.809825"><ele>256.0</ele><time>2026-04-11T09:26:11.059Z</time></trkpt><trkpt lat="44.855215" lon="7.80983"><ele>255.99999999999997</ele><time>2026-04-11T09:26:12.061Z</time></trkpt><trkpt lat="44.85529" lon="7.8098333"><ele>256.0</ele><time>2026-04-11T09:26:13.062Z</time></trkpt><trkpt lat="44.8553583" lon="7.8098317"><ele>255.8</ele><time>2026-04-11T09:26:14.06Z</time></trkpt><trkpt lat="44.85546" lon="7.8098333"><ele>255.60000000000002</ele><time>2026-04-11T09:26:16.059Z</time></trkpt><trkpt lat="44.85554" lon="7.80983"><ele>255.4</ele><time>2026-04-11T09:26:18.059Z</time></trkpt><trkpt lat="44.8556117" lon="7.8097667"><ele>255.2</ele><time>2026-04-11T09:26:20.061Z</time></trkpt><trkpt lat="44.8556533" lon="7.809625"><ele>255.0</ele><time>2026-04-11T09:26:22.06Z</time></trkpt><trkpt lat="44.8556817" lon="7.8094533"><ele>255.0</ele><time>2026-04-11T09:26:24.059Z</time></trkpt><trkpt lat="44.8556967" lon="7.8093667"><ele>255.0</ele><time>2026-04-11T09:26:25.06Z</time></trkpt><trkpt lat="44.8557583" lon="7.80921"><ele>255.0</ele><time>2026-04-11T09:26:27.061Z</time></trkpt><trkpt lat="44.8558083" lon="7.8091483"><ele>255.0</ele><time>2026-04-11T09:26:28.062Z</time></trkpt><trkpt lat="44.8558617" lon="7.8090867"><ele>255.0</ele><time>2026-04-11T09:26:29.06Z</time></trkpt><trkpt lat="44.855915" lon="7.8090183"><ele>255.0</ele><time>2026-04-11T09:26:30.061Z</time></trkpt><trkpt lat="44.855965" lon="7.8089533"><ele>254.8</ele><time>2026-04-11T09:26:31.06Z</time></trkpt><trkpt lat="44.8560167" lon="7.8088867"><ele>254.6</ele><time>2026-04-11T09:26:32.061Z</time></trkpt><trkpt lat="44.856105" lon="7.8087767"><ele>254.39999999999998</ele><time>2026-04-11T09:26:34.061Z</time></trkpt><trkpt lat="44.8561833" lon="7.8086833"><ele>254.2</ele><time>2026-04-11T09:26:36.06Z</time></trkpt><trkpt lat="44.856255" lon="7.808595"><ele>254.0</ele><time>2026-04-11T09:26:38.062Z</time></trkpt><trkpt lat="44.856335" lon="7.8085117"><ele>254.0</ele><time>2026-04-11T09:26:40.057Z</time></trkpt><trkpt lat="44.8564217" lon="7.80841"><ele>253.99999999999997</ele><time>2026-04-11T09:26:42.059Z</time></trkpt><trkpt lat="44.8565" lon="7.8083133"><ele>253.99999999999997</ele><time>2026-04-11T09:26:44.06Z</time></trkpt><trkpt lat="44.8565867" lon="7.8082133"><ele>254.0</ele><time>2026-04-11T09:26:46.058Z</time></trkpt><trkpt lat="44.8566733" lon="7.8081133"><ele>254.0</ele><time>2026-04-11T09:26:48.06Z</time></trkpt><trkpt lat="44.8567583" lon="7.80801"><ele>254.00000000000003</ele><time>2026-04-11T09:26:50.06Z</time></trkpt><trkpt lat="44.8568383" lon="7.807915"><ele>254.0</ele><time>2026-04-11T09:26:52.06Z</time></trkpt><trkpt lat="44.8569283" lon="7.8078033"><ele>254.0</ele><time>2026-04-11T09:26:54.056Z</time></trkpt><trkpt lat="44.85698" lon="7.8077433"><ele>254.0</ele><time>2026-04-11T09:26:55.061Z</time></trkpt><trkpt lat="44.8570283" lon="7.8076783"><ele>254.00000000000003</ele><time>2026-04-11T09:26:56.062Z</time></trkpt><trkpt lat="44.8570767" lon="7.8076183"><ele>254.0</ele><time>2026-04-11T09:26:57.059Z</time></trkpt><trkpt lat="44.8571283" lon="7.807555"><ele>254.0</ele><time>2026-04-11T09:26:58.061Z</time></trkpt><trkpt lat="44.8571783" lon="7.8074933"><ele>253.99999999999997</ele><time>2026-04-11T09:26:59.06Z</time></trkpt><trkpt lat="44.8572733" lon="7.8073817"><ele>253.99999999999997</ele><time>2026-04-11T09:27:01.063Z</time></trkpt><trkpt lat="44.85737" lon="7.8072683"><ele>254.0</ele><time>2026-04-11T09:27:03.061Z</time></trkpt><trkpt lat="44.8574683" lon="7.8071567"><ele>254.0</ele><time>2026-04-11T09:27:05.06Z</time></trkpt><trkpt lat="44.8575667" lon="7.80704"><ele>254.00000000000003</ele><time>2026-04-11T09:27:07.061Z</time></trkpt><trkpt lat="44.857615" lon="7.8069817"><ele>254.0</ele><time>2026-04-11T09:27:08.061Z</time></trkpt><trkpt lat="44.857665" lon="7.8069217"><ele>254.0</ele><time>2026-04-11T09:27:09.062Z</time></trkpt><trkpt lat="44.8577633" lon="7.8068083"><ele>254.0</ele><time>2026-04-11T09:27:11.061Z</time></trkpt><trkpt lat="44.8578133" lon="7.8067517"><ele>254.00000000000003</ele><time>2026-04-11T09:27:12.062Z</time></trkpt><trkpt lat="44.857865" lon="7.8066917"><ele>254.0</ele><time>2026-04-11T09:27:13.061Z</time></trkpt><trkpt lat="44.8579167" lon="7.8066333"><ele>253.85714285714286</ele><time>2026-04-11T09:27:14.061Z</time></trkpt><trkpt lat="44.85797" lon="7.8065717"><ele>253.71428571428572</ele><time>2026-04-11T09:27:15.062Z</time></trkpt><trkpt lat="44.8580233" lon="7.8065117"><ele>253.57142857142858</ele><time>2026-04-11T09:27:16.06Z</time></trkpt><trkpt lat="44.8580783" lon="7.8064483"><ele>253.42857142857144</ele><time>2026-04-11T09:27:17.061Z</time></trkpt><trkpt lat="44.8581317" lon="7.806385"><ele>253.28571428571428</ele><time>2026-04-11T09:27:18.061Z</time></trkpt><trkpt lat="44.8581817" lon="7.8063283"><ele>253.14285714285717</ele><time>2026-04-11T09:27:19.069Z</time></trkpt><trkpt lat="44.8582333" lon="7.8062667"><ele>253.00000000000003</ele><time>2026-04-11T09:27:20.063Z</time></trkpt><trkpt lat="44.858285" lon="7.8062067"><ele>253.00000000000003</ele><time>2026-04-11T09:27:21.061Z</time></trkpt><trkpt lat="44.8583367" lon="7.8061467"><ele>253.0</ele><time>2026-04-11T09:27:22.06Z</time></trkpt><trkpt lat="44.85839" lon="7.806085"><ele>253.00000000000003</ele><time>2026-04-11T09:27:23.059Z</time></trkpt><trkpt lat="44.85844" lon="7.80602"><ele>253.00000000000003</ele><time>2026-04-11T09:27:24.061Z</time></trkpt><trkpt lat="44.8584883" lon="7.80595"><ele>253.0</ele><time>2026-04-11T09:27:25.061Z</time></trkpt><trkpt lat="44.85853" lon="7.80587"><ele>253.00000000000003</ele><time>2026-04-11T09:27:26.059Z</time></trkpt><trkpt lat="44.85857" lon="7.8057867"><ele>253.00000000000003</ele><time>2026-04-11T09:27:27.064Z</time></trkpt><trkpt lat="44.8586017" lon="7.8056983"><ele>252.8571428571429</ele><time>2026-04-11T09:27:28.06Z</time></trkpt><trkpt lat="44.85863" lon="7.8056"><ele>252.71428571428572</ele><time>2026-04-11T09:27:29.061Z</time></trkpt><trkpt lat="44.858655" lon="7.8055017"><ele>252.57142857142858</ele><time>2026-04-11T09:27:30.059Z</time></trkpt><trkpt lat="44.8586783" lon="7.8054033"><ele>252.42857142857144</ele><time>2026-04-11T09:27:31.062Z</time></trkpt><trkpt lat="44.8586967" lon="7.8053017"><ele>252.28571428571428</ele><time>2026-04-11T09:27:32.061Z</time></trkpt><trkpt lat="44.858715" lon="7.8052017"><ele>252.14285714285714</ele><time>2026-04-11T09:27:33.061Z</time></trkpt><trkpt lat="44.8587317" lon="7.8051"><ele>252.0</ele><time>2026-04-11T09:27:34.061Z</time></trkpt><trkpt lat="44.8587483" lon="7.805"><ele>252.0</ele><time>2026-04-11T09:27:35.061Z</time></trkpt><trkpt lat="44.858765" lon="7.8048983"><ele>252.0</ele><time>2026-04-11T09:27:36.061Z</time></trkpt><trkpt lat="44.858785" lon="7.8047983"><ele>252.0</ele><time>2026-04-11T09:27:37.062Z</time></trkpt><trkpt lat="44.858805" lon="7.8047"><ele>252.0</ele><time>2026-04-11T09:27:38.06Z</time></trkpt><trkpt lat="44.8588233" lon="7.8046017"><ele>252.0</ele><time>2026-04-11T09:27:39.061Z</time></trkpt><trkpt lat="44.8588417" lon="7.8045017"><ele>252.0</ele><time>2026-04-11T09:27:40.06Z</time></trkpt><trkpt lat="44.85886" lon="7.8044033"><ele>252.0</ele><time>2026-04-11T09:27:41.059Z</time></trkpt><trkpt lat="44.8588783" lon="7.8043033"><ele>252.14285714285714</ele><time>2026-04-11T09:27:42.059Z</time></trkpt><trkpt lat="44.8589" lon="7.8042033"><ele>252.28571428571428</ele><time>2026-04-11T09:27:43.062Z</time></trkpt><trkpt lat="44.8589217" lon="7.8041033"><ele>252.42857142857144</ele><time>2026-04-11T09:27:44.061Z</time></trkpt><trkpt lat="44.8589417" lon="7.8040017"><ele>252.57142857142858</ele><time>2026-04-11T09:27:45.06Z</time></trkpt><trkpt lat="44.85896" lon="7.8038983"><ele>252.71428571428572</ele><time>2026-04-11T09:27:46.061Z</time></trkpt><trkpt lat="44.85898" lon="7.803795"><ele>252.8571428571429</ele><time>2026-04-11T09:27:47.059Z</time></trkpt><trkpt lat="44.8589983" lon="7.8036967"><ele>253.00000000000003</ele><time>2026-04-11T09:27:48.062Z</time></trkpt><trkpt lat="44.859015" lon="7.8035967"><ele>252.8571428571429</ele><time>2026-04-11T09:27:49.062Z</time></trkpt><trkpt lat="44.859035" lon="7.803495"><ele>252.71428571428572</ele><time>2026-04-11T09:27:50.06Z</time></trkpt><trkpt lat="44.859055" lon="7.803395"><ele>252.57142857142858</ele><time>2026-04-11T09:27:51.063Z</time></trkpt><trkpt lat="44.859075" lon="7.8032933"><ele>252.42857142857144</ele><time>2026-04-11T09:27:52.06Z</time></trkpt><trkpt lat="44.8591" lon="7.803195"><ele>252.28571428571428</ele><time>2026-04-11T09:27:53.059Z</time></trkpt><trkpt lat="44.859125" lon="7.803095"><ele>252.14285714285714</ele><time>2026-04-11T09:27:54.06Z</time></trkpt><trkpt lat="44.8591533" lon="7.8029983"><ele>252.0</ele><time>2026-04-11T09:27:55.062Z</time></trkpt><trkpt lat="44.8591883" lon="7.8029067"><ele>252.0</ele><time>2026-04-11T09:27:56.061Z</time></trkpt><trkpt lat="44.8592283" lon="7.8028167"><ele>252.0</ele><time>2026-04-11T09:27:57.063Z</time></trkpt><trkpt lat="44.8592733" lon="7.80273"><ele>252.0</ele><time>2026-04-11T09:27:58.061Z</time></trkpt><trkpt lat="44.8593217" lon="7.80265"><ele>252.0</ele><time>2026-04-11T09:27:59.06Z</time></trkpt><trkpt lat="44.8593733" lon="7.80257"><ele>252.0</ele><time>2026-04-11T09:28:00.061Z</time></trkpt><trkpt lat="44.8594233" lon="7.8024917"><ele>252.0</ele><time>2026-04-11T09:28:01.062Z</time></trkpt><trkpt lat="44.8594717" lon="7.8024117"><ele>252.0</ele><time>2026-04-11T09:28:02.062Z</time></trkpt><trkpt lat="44.8595233" lon="7.80233"><ele>252.0</ele><time>2026-04-11T09:28:03.062Z</time></trkpt><trkpt lat="44.8595733" lon="7.8022467"><ele>252.0</ele><time>2026-04-11T09:28:04.062Z</time></trkpt><trkpt lat="44.8596233" lon="7.8021633"><ele>252.0</ele><time>2026-04-11T09:28:05.061Z</time></trkpt><trkpt lat="44.8596767" lon="7.802085"><ele>252.0</ele><time>2026-04-11T09:28:06.063Z</time></trkpt><trkpt lat="44.85973" lon="7.8020033"><ele>252.0</ele><time>2026-04-11T09:28:07.061Z</time></trkpt><trkpt lat="44.8597817" lon="7.8019233"><ele>252.0</ele><time>2026-04-11T09:28:08.061Z</time></trkpt><trkpt lat="44.85983" lon="7.8018417"><ele>252.0</ele><time>2026-04-11T09:28:09.059Z</time></trkpt><trkpt lat="44.8598783" lon="7.8017633"><ele>252.0</ele><time>2026-04-11T09:28:10.062Z</time></trkpt><trkpt lat="44.8599283" lon="7.8016867"><ele>252.0</ele><time>2026-04-11T09:28:11.061Z</time></trkpt><trkpt lat="44.8599767" lon="7.80161"><ele>252.0</ele><time>2026-04-11T09:28:12.061Z</time></trkpt><trkpt lat="44.860025" lon="7.8015283"><ele>252.0</ele><time>2026-04-11T09:28:13.062Z</time></trkpt><trkpt lat="44.860075" lon="7.8014433"><ele>252.0</ele><time>2026-04-11T09:28:14.062Z</time></trkpt><trkpt lat="44.8601233" lon="7.8013617"><ele>252.0</ele><time>2026-04-11T09:28:15.062Z</time></trkpt><trkpt lat="44.8601717" lon="7.80128"><ele>252.0</ele><time>2026-04-11T09:28:16.061Z</time></trkpt><trkpt lat="44.8602233" lon="7.8011933"><ele>252.0</ele><time>2026-04-11T09:28:17.061Z</time></trkpt><trkpt lat="44.860275" lon="7.8011083"><ele>252.0</ele><time>2026-04-11T09:28:18.062Z</time></trkpt><trkpt lat="44.8603233" lon="7.80103"><ele>252.0</ele><time>2026-04-11T09:28:19.062Z</time></trkpt><trkpt lat="44.8603733" lon="7.80095"><ele>252.0</ele><time>2026-04-11T09:28:20.061Z</time></trkpt><trkpt lat="44.8604217" lon="7.8008733"><ele>252.0</ele><time>2026-04-11T09:28:21.061Z</time></trkpt><trkpt lat="44.86047" lon="7.800795"><ele>252.0</ele><time>2026-04-11T09:28:22.067Z</time></trkpt><trkpt lat="44.8605183" lon="7.800715"><ele>252.0</ele><time>2026-04-11T09:28:23.063Z</time></trkpt><trkpt lat="44.860565" lon="7.8006333"><ele>252.0</ele><time>2026-04-11T09:28:24.061Z</time></trkpt><trkpt lat="44.860615" lon="7.800545"><ele>252.0</ele><time>2026-04-11T09:28:25.06Z</time></trkpt><trkpt lat="44.8606633" lon="7.8004667"><ele>252.0</ele><time>2026-04-11T09:28:26.061Z</time></trkpt><trkpt lat="44.8607117" lon="7.8003867"><ele>252.0</ele><time>2026-04-11T09:28:27.059Z</time></trkpt><trkpt lat="44.8607617" lon="7.8003033"><ele>252.0</ele><time>2026-04-11T09:28:28.061Z</time></trkpt><trkpt lat="44.86081" lon="7.800225"><ele>252.0</ele><time>2026-04-11T09:28:29.06Z</time></trkpt><trkpt lat="44.8608567" lon="7.800145"><ele>252.0</ele><time>2026-04-11T09:28:30.06Z</time></trkpt><trkpt lat="44.8609067" lon="7.8000667"><ele>252.0</ele><time>2026-04-11T09:28:31.061Z</time></trkpt><trkpt lat="44.860955" lon="7.7999867"><ele>252.0</ele><time>2026-04-11T09:28:32.06Z</time></trkpt><trkpt lat="44.8610033" lon="7.7999067"><ele>252.0</ele><time>2026-04-11T09:28:33.062Z</time></trkpt><trkpt lat="44.8610533" lon="7.7998183"><ele>251.83333333333334</ele><time>2026-04-11T09:28:34.061Z</time></trkpt><trkpt lat="44.8611" lon="7.799735"><ele>251.66666666666669</ele><time>2026-04-11T09:28:35.058Z</time></trkpt><trkpt lat="44.8611517" lon="7.7996467"><ele>251.5</ele><time>2026-04-11T09:28:36.061Z</time></trkpt><trkpt lat="44.8612" lon="7.7995617"><ele>251.33333333333334</ele><time>2026-04-11T09:28:37.061Z</time></trkpt><trkpt lat="44.86125" lon="7.7994733"><ele>251.16666666666669</ele><time>2026-04-11T09:28:38.061Z</time></trkpt><trkpt lat="44.8613" lon="7.799385"><ele>251.0</ele><time>2026-04-11T09:28:39.062Z</time></trkpt><trkpt lat="44.8613433" lon="7.799305"><ele>250.99999999999997</ele><time>2026-04-11T09:28:40.061Z</time></trkpt><trkpt lat="44.861385" lon="7.79922"><ele>251.0</ele><time>2026-04-11T09:28:41.062Z</time></trkpt><trkpt lat="44.8614233" lon="7.7991317"><ele>250.99999999999997</ele><time>2026-04-11T09:28:42.061Z</time></trkpt><trkpt lat="44.861455" lon="7.79904"><ele>250.99999999999997</ele><time>2026-04-11T09:28:43.06Z</time></trkpt><trkpt lat="44.861485" lon="7.7989483"><ele>251.0</ele><time>2026-04-11T09:28:44.062Z</time></trkpt><trkpt lat="44.861515" lon="7.7988533"><ele>250.99999999999997</ele><time>2026-04-11T09:28:45.062Z</time></trkpt><trkpt lat="44.8615433" lon="7.79875"><ele>250.99999999999997</ele><time>2026-04-11T09:28:46.062Z</time></trkpt><trkpt lat="44.8615733" lon="7.7986517"><ele>251.00000000000003</ele><time>2026-04-11T09:28:47.06Z</time></trkpt><trkpt lat="44.8616083" lon="7.7985567"><ele>251.0</ele><time>2026-04-11T09:28:48.062Z</time></trkpt><trkpt lat="44.8616467" lon="7.7984683"><ele>251.0</ele><time>2026-04-11T09:28:49.062Z</time></trkpt><trkpt lat="44.8616917" lon="7.79838"><ele>251.0</ele><time>2026-04-11T09:28:50.06Z</time></trkpt><trkpt lat="44.861735" lon="7.7982917"><ele>251.00000000000003</ele><time>2026-04-11T09:28:51.062Z</time></trkpt><trkpt lat="44.8617817" lon="7.7981967"><ele>251.0</ele><time>2026-04-11T09:28:52.06Z</time></trkpt><trkpt lat="44.8618283" lon="7.7981"><ele>250.83333333333334</ele><time>2026-04-11T09:28:53.059Z</time></trkpt><trkpt lat="44.8618717" lon="7.7980117"><ele>250.66666666666669</ele><time>2026-04-11T09:28:54.06Z</time></trkpt><trkpt lat="44.8619117" lon="7.797915"><ele>250.5</ele><time>2026-04-11T09:28:55.062Z</time></trkpt><trkpt lat="44.8619517" lon="7.7978183"><ele>250.33333333333331</ele><time>2026-04-11T09:28:56.061Z</time></trkpt><trkpt lat="44.86199" lon="7.7977217"><ele>250.16666666666666</ele><time>2026-04-11T09:28:57.063Z</time></trkpt><trkpt lat="44.8620267" lon="7.7976283"><ele>250.0</ele><time>2026-04-11T09:28:58.06Z</time></trkpt><trkpt lat="44.8620667" lon="7.7975333"><ele>249.83333333333331</ele><time>2026-04-11T09:28:59.058Z</time></trkpt><trkpt lat="44.862105" lon="7.7974367"><ele>249.66666666666666</ele><time>2026-04-11T09:29:00.064Z</time></trkpt><trkpt lat="44.8621467" lon="7.7973383"><ele>249.5</ele><time>2026-04-11T09:29:01.061Z</time></trkpt><trkpt lat="44.8621917" lon="7.7972383"><ele>249.33333333333331</ele><time>2026-04-11T09:29:02.061Z</time></trkpt><trkpt lat="44.8622367" lon="7.797145"><ele>249.16666666666666</ele><time>2026-04-11T09:29:03.062Z</time></trkpt><trkpt lat="44.8622833" lon="7.7970483"><ele>249.0</ele><time>2026-04-11T09:29:04.061Z</time></trkpt><trkpt lat="44.86233" lon="7.7969483"><ele>249.0</ele><time>2026-04-11T09:29:05.061Z</time></trkpt><trkpt lat="44.862375" lon="7.7968483"><ele>249.0</ele><time>2026-04-11T09:29:06.06Z</time></trkpt><trkpt lat="44.8624183" lon="7.7967483"><ele>249.0</ele><time>2026-04-11T09:29:07.062Z</time></trkpt><trkpt lat="44.8624567" lon="7.7966483"><ele>249.0</ele><time>2026-04-11T09:29:08.061Z</time></trkpt><trkpt lat="44.8624883" lon="7.7965483"><ele>249.0</ele><time>2026-04-11T09:29:09.063Z</time></trkpt><trkpt lat="44.8625133" lon="7.7964433"><ele>249.0</ele><time>2026-04-11T09:29:10.061Z</time></trkpt><trkpt lat="44.8625267" lon="7.796335"><ele>249.0</ele><time>2026-04-11T09:29:11.059Z</time></trkpt><trkpt lat="44.8625317" lon="7.7962267"><ele>249.0</ele><time>2026-04-11T09:29:12.06Z</time></trkpt><trkpt lat="44.8625283" lon="7.7961183"><ele>249.0</ele><time>2026-04-11T09:29:13.062Z</time></trkpt><trkpt lat="44.86252" lon="7.7960117"><ele>249.0</ele><time>2026-04-11T09:29:14.061Z</time></trkpt><trkpt lat="44.8625083" lon="7.795905"><ele>249.0</ele><time>2026-04-11T09:29:15.062Z</time></trkpt><trkpt lat="44.8624917" lon="7.7958017"><ele>249.0</ele><time>2026-04-11T09:29:16.061Z</time></trkpt><trkpt lat="44.862475" lon="7.7956983"><ele>249.2</ele><time>2026-04-11T09:29:17.06Z</time></trkpt><trkpt lat="44.8624617" lon="7.7955967"><ele>249.39999999999998</ele><time>2026-04-11T09:29:18.061Z</time></trkpt><trkpt lat="44.8624517" lon="7.7954967"><ele>249.6</ele><time>2026-04-11T09:29:19.062Z</time></trkpt><trkpt lat="44.8624617" lon="7.79534"><ele>249.8</ele><time>2026-04-11T09:29:21.062Z</time></trkpt><trkpt lat="44.8625233" lon="7.795245"><ele>250.0</ele><time>2026-04-11T09:29:23.063Z</time></trkpt><trkpt lat="44.8626333" lon="7.7952267"><ele>249.99999999999997</ele><time>2026-04-11T09:29:25.062Z</time></trkpt><trkpt lat="44.8627617" lon="7.79523"><ele>250.0</ele><time>2026-04-11T09:29:27.062Z</time></trkpt><trkpt lat="44.8628283" lon="7.795225"><ele>250.0</ele><time>2026-04-11T09:29:28.063Z</time></trkpt><trkpt lat="44.862895" lon="7.7952133"><ele>250.0</ele><time>2026-04-11T09:29:29.06Z</time></trkpt><trkpt lat="44.8629617" lon="7.7952017"><ele>249.99999999999997</ele><time>2026-04-11T09:29:30.06Z</time></trkpt><trkpt lat="44.86303" lon="7.7951883"><ele>250.0</ele><time>2026-04-11T09:29:31.063Z</time></trkpt><trkpt lat="44.8630967" lon="7.7951733"><ele>249.85714285714283</ele><time>2026-04-11T09:29:32.061Z</time></trkpt><trkpt lat="44.8631617" lon="7.7951583"><ele>249.71428571428572</ele><time>2026-04-11T09:29:33.061Z</time></trkpt><trkpt lat="44.86323" lon="7.79514"><ele>249.57142857142856</ele><time>2026-04-11T09:29:34.061Z</time></trkpt><trkpt lat="44.8632967" lon="7.795125"><ele>249.42857142857142</ele><time>2026-04-11T09:29:35.059Z</time></trkpt><trkpt lat="44.8633633" lon="7.79511"><ele>249.28571428571428</ele><time>2026-04-11T09:29:36.062Z</time></trkpt><trkpt lat="44.86343" lon="7.7950967"><ele>249.14285714285714</ele><time>2026-04-11T09:29:37.061Z</time></trkpt><trkpt lat="44.8634983" lon="7.79508"><ele>249.0</ele><time>2026-04-11T09:29:38.06Z</time></trkpt><trkpt lat="44.863565" lon="7.7950617"><ele>249.0</ele><time>2026-04-11T09:29:39.063Z</time></trkpt><trkpt lat="44.8636333" lon="7.795045"><ele>248.99999999999997</ele><time>2026-04-11T09:29:40.061Z</time></trkpt><trkpt lat="44.8637" lon="7.7950283"><ele>249.0</ele><time>2026-04-11T09:29:41.06Z</time></trkpt><trkpt lat="44.8637683" lon="7.7950133"><ele>249.0</ele><time>2026-04-11T09:29:42.06Z</time></trkpt><trkpt lat="44.8638367" lon="7.7949983"><ele>248.99999999999997</ele><time>2026-04-11T09:29:43.062Z</time></trkpt><trkpt lat="44.863905" lon="7.7949833"><ele>249.0</ele><time>2026-04-11T09:29:44.061Z</time></trkpt><trkpt lat="44.8639733" lon="7.79497"><ele>249.0</ele><time>2026-04-11T09:29:45.061Z</time></trkpt><trkpt lat="44.8640433" lon="7.7949517"><ele>249.0</ele><time>2026-04-11T09:29:46.062Z</time></trkpt><trkpt lat="44.864115" lon="7.7949333"><ele>248.99999999999997</ele><time>2026-04-11T09:29:47.06Z</time></trkpt><trkpt lat="44.864185" lon="7.7949167"><ele>249.0</ele><time>2026-04-11T09:29:48.06Z</time></trkpt><trkpt lat="44.8642583" lon="7.7948967"><ele>249.0</ele><time>2026-04-11T09:29:49.062Z</time></trkpt><trkpt lat="44.86433" lon="7.7948783"><ele>248.99999999999997</ele><time>2026-04-11T09:29:50.061Z</time></trkpt><trkpt lat="44.8644033" lon="7.7948583"><ele>249.0</ele><time>2026-04-11T09:29:51.064Z</time></trkpt><trkpt lat="44.8644733" lon="7.794845"><ele>249.0</ele><time>2026-04-11T09:29:52.061Z</time></trkpt><trkpt lat="44.8645433" lon="7.794835"><ele>248.66666666666666</ele><time>2026-04-11T09:29:53.061Z</time></trkpt><trkpt lat="44.864615" lon="7.79482"><ele>248.33333333333331</ele><time>2026-04-11T09:29:54.061Z</time></trkpt><trkpt lat="44.8646867" lon="7.7948017"><ele>248.0</ele><time>2026-04-11T09:29:55.061Z</time></trkpt><trkpt lat="44.86476" lon="7.7947867"><ele>247.66666666666666</ele><time>2026-04-11T09:29:56.061Z</time></trkpt><trkpt lat="44.8648333" lon="7.79477"><ele>247.33333333333331</ele><time>2026-04-11T09:29:57.062Z</time></trkpt><trkpt lat="44.86491" lon="7.794745"><ele>247.0</ele><time>2026-04-11T09:29:58.062Z</time></trkpt><trkpt lat="44.8649867" lon="7.794725"><ele>246.99999999999997</ele><time>2026-04-11T09:29:59.063Z</time></trkpt><trkpt lat="44.86506" lon="7.794705"><ele>247.0</ele><time>2026-04-11T09:30:00.062Z</time></trkpt><trkpt lat="44.8651367" lon="7.794685"><ele>247.0</ele><time>2026-04-11T09:30:01.063Z</time></trkpt><trkpt lat="44.8652117" lon="7.7946667"><ele>247.0</ele><time>2026-04-11T09:30:02.061Z</time></trkpt><trkpt lat="44.8652883" lon="7.7946483"><ele>246.99999999999997</ele><time>2026-04-11T09:30:03.061Z</time></trkpt><trkpt lat="44.865365" lon="7.7946317"><ele>247.0</ele><time>2026-04-11T09:30:04.062Z</time></trkpt><trkpt lat="44.8654417" lon="7.794615"><ele>246.83333333333331</ele><time>2026-04-11T09:30:05.06Z</time></trkpt><trkpt lat="44.8655183" lon="7.7945967"><ele>246.66666666666666</ele><time>2026-04-11T09:30:06.061Z</time></trkpt><trkpt lat="44.865595" lon="7.794575"><ele>246.5</ele><time>2026-04-11T09:30:07.062Z</time></trkpt><trkpt lat="44.8656733" lon="7.7945583"><ele>246.33333333333331</ele><time>2026-04-11T09:30:08.06Z</time></trkpt><trkpt lat="44.8657517" lon="7.79454"><ele>246.16666666666666</ele><time>2026-04-11T09:30:09.062Z</time></trkpt><trkpt lat="44.8658317" lon="7.79452"><ele>246.0</ele><time>2026-04-11T09:30:10.06Z</time></trkpt><trkpt lat="44.8659117" lon="7.7945"><ele>246.0</ele><time>2026-04-11T09:30:11.061Z</time></trkpt><trkpt lat="44.8659883" lon="7.7944817"><ele>246.0</ele><time>2026-04-11T09:30:12.062Z</time></trkpt><trkpt lat="44.866065" lon="7.7944633"><ele>246.0</ele><time>2026-04-11T09:30:13.061Z</time></trkpt><trkpt lat="44.8661417" lon="7.7944483"><ele>246.0</ele><time>2026-04-11T09:30:14.061Z</time></trkpt><trkpt lat="44.8662167" lon="7.79443"><ele>246.0</ele><time>2026-04-11T09:30:15.062Z</time></trkpt><trkpt lat="44.8662933" lon="7.7944167"><ele>246.0</ele><time>2026-04-11T09:30:16.062Z</time></trkpt><trkpt lat="44.8663683" lon="7.7944"><ele>246.0</ele><time>2026-04-11T09:30:17.058Z</time></trkpt><trkpt lat="44.866445" lon="7.7943817"><ele>246.0</ele><time>2026-04-11T09:30:18.061Z</time></trkpt><trkpt lat="44.86652" lon="7.7943683"><ele>246.0</ele><time>2026-04-11T09:30:19.06Z</time></trkpt><trkpt lat="44.8665983" lon="7.7943483"><ele>246.0</ele><time>2026-04-11T09:30:20.06Z</time></trkpt><trkpt lat="44.8666767" lon="7.794335"><ele>246.0</ele><time>2026-04-11T09:30:21.062Z</time></trkpt><trkpt lat="44.866755" lon="7.7943183"><ele>246.0</ele><time>2026-04-11T09:30:22.062Z</time></trkpt><trkpt lat="44.866835" lon="7.7942983"><ele>246.0</ele><time>2026-04-11T09:30:23.062Z</time></trkpt><trkpt lat="44.8669133" lon="7.7942783"><ele>246.0</ele><time>2026-04-11T09:30:24.062Z</time></trkpt><trkpt lat="44.8669917" lon="7.7942617"><ele>246.0</ele><time>2026-04-11T09:30:25.061Z</time></trkpt><trkpt lat="44.86707" lon="7.7942433"><ele>246.0</ele><time>2026-04-11T09:30:26.062Z</time></trkpt><trkpt lat="44.8671483" lon="7.794225"><ele>246.0</ele><time>2026-04-11T09:30:27.062Z</time></trkpt><trkpt lat="44.867225" lon="7.7942033"><ele>246.0</ele><time>2026-04-11T09:30:28.062Z</time></trkpt><trkpt lat="44.8673017" lon="7.7941833"><ele>246.0</ele><time>2026-04-11T09:30:29.062Z</time></trkpt><trkpt lat="44.86738" lon="7.7941667"><ele>246.0</ele><time>2026-04-11T09:30:30.064Z</time></trkpt><trkpt lat="44.8674567" lon="7.7941517"><ele>246.0</ele><time>2026-04-11T09:30:31.063Z</time></trkpt><trkpt lat="44.867535" lon="7.794135"><ele>246.0</ele><time>2026-04-11T09:30:32.062Z</time></trkpt><trkpt lat="44.8676117" lon="7.7941167"><ele>246.0</ele><time>2026-04-11T09:30:33.062Z</time></trkpt><trkpt lat="44.8676883" lon="7.7940967"><ele>246.0</ele><time>2026-04-11T09:30:34.061Z</time></trkpt><trkpt lat="44.8677667" lon="7.7940783"><ele>246.0</ele><time>2026-04-11T09:30:35.062Z</time></trkpt><trkpt lat="44.8678467" lon="7.7940617"><ele>246.0</ele><time>2026-04-11T09:30:36.061Z</time></trkpt><trkpt lat="44.867925" lon="7.7940467"><ele>246.0</ele><time>2026-04-11T09:30:37.063Z</time></trkpt><trkpt lat="44.8680033" lon="7.79403"><ele>246.0</ele><time>2026-04-11T09:30:38.061Z</time></trkpt><trkpt lat="44.8680817" lon="7.79401"><ele>246.0</ele><time>2026-04-11T09:30:39.061Z</time></trkpt><trkpt lat="44.86816" lon="7.7939867"><ele>246.0</ele><time>2026-04-11T09:30:40.061Z</time></trkpt><trkpt lat="44.86824" lon="7.7939667"><ele>246.0</ele><time>2026-04-11T09:30:41.061Z</time></trkpt><trkpt lat="44.86832" lon="7.7939483"><ele>246.0</ele><time>2026-04-11T09:30:42.068Z</time></trkpt><trkpt lat="44.8683967" lon="7.79393"><ele>246.0</ele><time>2026-04-11T09:30:43.063Z</time></trkpt><trkpt lat="44.8684733" lon="7.7939083"><ele>246.0</ele><time>2026-04-11T09:30:44.063Z</time></trkpt><trkpt lat="44.8685483" lon="7.7938867"><ele>246.0</ele><time>2026-04-11T09:30:45.062Z</time></trkpt><trkpt lat="44.8686217" lon="7.7938667"><ele>246.0</ele><time>2026-04-11T09:30:46.061Z</time></trkpt><trkpt lat="44.8686933" lon="7.793845"><ele>245.83333333333334</ele><time>2026-04-11T09:30:47.06Z</time></trkpt><trkpt lat="44.86876" lon="7.7938267"><ele>245.66666666666669</ele><time>2026-04-11T09:30:48.06Z</time></trkpt><trkpt lat="44.868825" lon="7.793805"><ele>245.5</ele><time>2026-04-11T09:30:49.061Z</time></trkpt><trkpt lat="44.8688867" lon="7.7937767"><ele>245.33333333333334</ele><time>2026-04-11T09:30:50.06Z</time></trkpt><trkpt lat="44.8689983" lon="7.79373"><ele>245.16666666666669</ele><time>2026-04-11T09:30:52.061Z</time></trkpt><trkpt lat="44.8690817" lon="7.7937833"><ele>245.0</ele><time>2026-04-11T09:30:54.061Z</time></trkpt><trkpt lat="44.8691417" lon="7.7939233"><ele>245.0</ele><time>2026-04-11T09:30:56.062Z</time></trkpt><trkpt lat="44.8691667" lon="7.7940083"><ele>245.0</ele><time>2026-04-11T09:30:57.061Z</time></trkpt><trkpt lat="44.8691867" lon="7.7940967"><ele>245.0</ele><time>2026-04-11T09:30:58.061Z</time></trkpt><trkpt lat="44.8692133" lon="7.7941817"><ele>245.0</ele><time>2026-04-11T09:30:59.059Z</time></trkpt><trkpt lat="44.8692383" lon="7.79427"><ele>245.0</ele><time>2026-04-11T09:31:00.06Z</time></trkpt><trkpt lat="44.86926" lon="7.79436"><ele>245.0</ele><time>2026-04-11T09:31:01.06Z</time></trkpt><trkpt lat="44.869285" lon="7.79445"><ele>245.0</ele><time>2026-04-11T09:31:02.06Z</time></trkpt><trkpt lat="44.8693067" lon="7.79454"><ele>245.28571428571428</ele><time>2026-04-11T09:31:03.059Z</time></trkpt><trkpt lat="44.8693283" lon="7.7946317"><ele>245.57142857142856</ele><time>2026-04-11T09:31:04.061Z</time></trkpt><trkpt lat="44.86935" lon="7.79472"><ele>245.85714285714286</ele><time>2026-04-11T09:31:05.058Z</time></trkpt><trkpt lat="44.8693717" lon="7.7948083"><ele>246.14285714285714</ele><time>2026-04-11T09:31:06.063Z</time></trkpt><trkpt lat="44.8693967" lon="7.7949"><ele>246.42857142857142</ele><time>2026-04-11T09:31:07.061Z</time></trkpt><trkpt lat="44.8694183" lon="7.7949883"><ele>246.71428571428572</ele><time>2026-04-11T09:31:08.062Z</time></trkpt><trkpt lat="44.8694417" lon="7.7950767"><ele>247.0</ele><time>2026-04-11T09:31:09.062Z</time></trkpt><trkpt lat="44.8694633" lon="7.795165"><ele>246.85714285714286</ele><time>2026-04-11T09:31:10.062Z</time></trkpt><trkpt lat="44.8694867" lon="7.7952517"><ele>246.71428571428572</ele><time>2026-04-11T09:31:11.059Z</time></trkpt><trkpt lat="44.86951" lon="7.79534"><ele>246.57142857142858</ele><time>2026-04-11T09:31:12.06Z</time></trkpt><trkpt lat="44.8695367" lon="7.79543"><ele>246.42857142857144</ele><time>2026-04-11T09:31:13.061Z</time></trkpt><trkpt lat="44.86956" lon="7.79552"><ele>246.28571428571428</ele><time>2026-04-11T09:31:14.06Z</time></trkpt><trkpt lat="44.8695833" lon="7.7956133"><ele>246.14285714285717</ele><time>2026-04-11T09:31:15.061Z</time></trkpt><trkpt lat="44.869605" lon="7.7957083"><ele>246.00000000000003</ele><time>2026-04-11T09:31:16.062Z</time></trkpt><trkpt lat="44.8696283" lon="7.7957983"><ele>246.00000000000003</ele><time>2026-04-11T09:31:17.06Z</time></trkpt><trkpt lat="44.8696533" lon="7.7958917"><ele>246.0</ele><time>2026-04-11T09:31:18.061Z</time></trkpt><trkpt lat="44.86968" lon="7.7959833"><ele>246.00000000000003</ele><time>2026-04-11T09:31:19.06Z</time></trkpt><trkpt lat="44.869705" lon="7.7960767"><ele>246.00000000000003</ele><time>2026-04-11T09:31:20.061Z</time></trkpt><trkpt lat="44.8697317" lon="7.7961733"><ele>246.0</ele><time>2026-04-11T09:31:21.062Z</time></trkpt><trkpt lat="44.8697583" lon="7.7962717"><ele>246.00000000000003</ele><time>2026-04-11T09:31:22.06Z</time></trkpt><trkpt lat="44.8697833" lon="7.7963683"><ele>246.00000000000003</ele><time>2026-04-11T09:31:23.06Z</time></trkpt><trkpt lat="44.8698083" lon="7.7964667"><ele>246.00000000000003</ele><time>2026-04-11T09:31:24.06Z</time></trkpt><trkpt lat="44.8698333" lon="7.7965617"><ele>246.0</ele><time>2026-04-11T09:31:25.063Z</time></trkpt><trkpt lat="44.8698583" lon="7.79666"><ele>246.00000000000003</ele><time>2026-04-11T09:31:26.062Z</time></trkpt><trkpt lat="44.869885" lon="7.7967567"><ele>246.00000000000003</ele><time>2026-04-11T09:31:27.064Z</time></trkpt><trkpt lat="44.8699117" lon="7.7968567"><ele>246.0</ele><time>2026-04-11T09:31:28.063Z</time></trkpt><trkpt lat="44.8699383" lon="7.7969567"><ele>246.00000000000003</ele><time>2026-04-11T09:31:29.06Z</time></trkpt><trkpt lat="44.869965" lon="7.7970533"><ele>246.00000000000003</ele><time>2026-04-11T09:31:30.062Z</time></trkpt><trkpt lat="44.8699933" lon="7.79715"><ele>245.8571428571429</ele><time>2026-04-11T09:31:31.062Z</time></trkpt><trkpt lat="44.87002" lon="7.7972467"><ele>245.71428571428572</ele><time>2026-04-11T09:31:32.061Z</time></trkpt><trkpt lat="44.8700433" lon="7.7973433"><ele>245.57142857142858</ele><time>2026-04-11T09:31:33.062Z</time></trkpt><trkpt lat="44.87007" lon="7.7974417"><ele>245.42857142857144</ele><time>2026-04-11T09:31:34.06Z</time></trkpt><trkpt lat="44.8700967" lon="7.7975367"><ele>245.28571428571428</ele><time>2026-04-11T09:31:35.059Z</time></trkpt><trkpt lat="44.8701233" lon="7.7976317"><ele>245.14285714285714</ele><time>2026-04-11T09:31:36.061Z</time></trkpt><trkpt lat="44.8701483" lon="7.797725"><ele>245.0</ele><time>2026-04-11T09:31:37.061Z</time></trkpt><trkpt lat="44.870175" lon="7.79782"><ele>245.0</ele><time>2026-04-11T09:31:38.061Z</time></trkpt><trkpt lat="44.870205" lon="7.797915"><ele>245.0</ele><time>2026-04-11T09:31:39.061Z</time></trkpt><trkpt lat="44.8702283" lon="7.7980083"><ele>245.0</ele><time>2026-04-11T09:31:40.06Z</time></trkpt><trkpt lat="44.8702567" lon="7.7981017"><ele>245.0</ele><time>2026-04-11T09:31:41.06Z</time></trkpt><trkpt lat="44.8702833" lon="7.7981983"><ele>245.0</ele><time>2026-04-11T09:31:42.062Z</time></trkpt><trkpt lat="44.87031" lon="7.7982967"><ele>245.0</ele><time>2026-04-11T09:31:43.062Z</time></trkpt><trkpt lat="44.8703383" lon="7.7983917"><ele>245.0</ele><time>2026-04-11T09:31:44.062Z</time></trkpt><trkpt lat="44.8703633" lon="7.7984867"><ele>244.85714285714286</ele><time>2026-04-11T09:31:45.062Z</time></trkpt><trkpt lat="44.8703883" lon="7.7985783"><ele>244.71428571428572</ele><time>2026-04-11T09:31:46.063Z</time></trkpt><trkpt lat="44.8704117" lon="7.79867"><ele>244.57142857142856</ele><time>2026-04-11T09:31:47.059Z</time></trkpt><trkpt lat="44.870435" lon="7.79876"><ele>244.42857142857142</ele><time>2026-04-11T09:31:48.064Z</time></trkpt><trkpt lat="44.87046" lon="7.7988483"><ele>244.28571428571428</ele><time>2026-04-11T09:31:49.062Z</time></trkpt><trkpt lat="44.8704833" lon="7.7989333"><ele>244.1428571428571</ele><time>2026-04-11T09:31:50.061Z</time></trkpt><trkpt lat="44.8705067" lon="7.7990233"><ele>243.99999999999997</ele><time>2026-04-11T09:31:51.061Z</time></trkpt><trkpt lat="44.87053" lon="7.799115"><ele>243.99999999999997</ele><time>2026-04-11T09:31:52.061Z</time></trkpt><trkpt lat="44.870555" lon="7.7992083"><ele>244.0</ele><time>2026-04-11T09:31:53.059Z</time></trkpt><trkpt lat="44.8705783" lon="7.7993017"><ele>244.0</ele><time>2026-04-11T09:31:54.061Z</time></trkpt><trkpt lat="44.8706" lon="7.79939"><ele>244.0</ele><time>2026-04-11T09:31:55.06Z</time></trkpt><trkpt lat="44.8706417" lon="7.799545"><ele>243.99999999999997</ele><time>2026-04-11T09:31:57.061Z</time></trkpt><trkpt lat="44.8706933" lon="7.7996883"><ele>244.0</ele><time>2026-04-11T09:31:59.06Z</time></trkpt><trkpt lat="44.8707867" lon="7.7997983"><ele>243.99999999999997</ele><time>2026-04-11T09:32:01.061Z</time></trkpt><trkpt lat="44.8708467" lon="7.7998383"><ele>244.0</ele><time>2026-04-11T09:32:02.059Z</time></trkpt><trkpt lat="44.8709167" lon="7.79987"><ele>243.99999999999997</ele><time>2026-04-11T09:32:03.061Z</time></trkpt><trkpt lat="44.8709867" lon="7.7998983"><ele>243.99999999999997</ele><time>2026-04-11T09:32:04.06Z</time></trkpt><trkpt lat="44.8710567" lon="7.7999267"><ele>244.0</ele><time>2026-04-11T09:32:05.059Z</time></trkpt><trkpt lat="44.871125" lon="7.7999533"><ele>243.99999999999997</ele><time>2026-04-11T09:32:06.066Z</time></trkpt><trkpt lat="44.8711967" lon="7.7999767"><ele>243.99999999999997</ele><time>2026-04-11T09:32:07.059Z</time></trkpt><trkpt lat="44.8712667" lon="7.8000017"><ele>243.99999999999997</ele><time>2026-04-11T09:32:08.06Z</time></trkpt><trkpt lat="44.8713383" lon="7.8000267"><ele>244.0</ele><time>2026-04-11T09:32:09.061Z</time></trkpt><trkpt lat="44.8714067" lon="7.8000533"><ele>243.99999999999997</ele><time>2026-04-11T09:32:10.061Z</time></trkpt><trkpt lat="44.8714767" lon="7.8000817"><ele>243.99999999999997</ele><time>2026-04-11T09:32:11.062Z</time></trkpt><trkpt lat="44.8715467" lon="7.8001083"><ele>244.0</ele><time>2026-04-11T09:32:12.06Z</time></trkpt><trkpt lat="44.8716167" lon="7.800135"><ele>243.99999999999997</ele><time>2026-04-11T09:32:13.061Z</time></trkpt><trkpt lat="44.8716867" lon="7.80016"><ele>243.99999999999997</ele><time>2026-04-11T09:32:14.062Z</time></trkpt><trkpt lat="44.8717583" lon="7.8001883"><ele>244.1428571428571</ele><time>2026-04-11T09:32:15.063Z</time></trkpt><trkpt lat="44.8718267" lon="7.800215"><ele>244.28571428571428</ele><time>2026-04-11T09:32:16.06Z</time></trkpt><trkpt lat="44.8718983" lon="7.8002367"><ele>244.42857142857142</ele><time>2026-04-11T09:32:17.062Z</time></trkpt><trkpt lat="44.8719667" lon="7.8002583"><ele>244.57142857142856</ele><time>2026-04-11T09:32:18.064Z</time></trkpt><trkpt lat="44.8720383" lon="7.8002783"><ele>244.71428571428572</ele><time>2026-04-11T09:32:19.062Z</time></trkpt><trkpt lat="44.8721083" lon="7.8003017"><ele>244.85714285714286</ele><time>2026-04-11T09:32:20.064Z</time></trkpt><trkpt lat="44.8721767" lon="7.8003233"><ele>245.0</ele><time>2026-04-11T09:32:21.057Z</time></trkpt><trkpt lat="44.8722467" lon="7.8003467"><ele>245.0</ele><time>2026-04-11T09:32:22.061Z</time></trkpt><trkpt lat="44.872315" lon="7.80037"><ele>245.0</ele><time>2026-04-11T09:32:23.061Z</time></trkpt><trkpt lat="44.8723833" lon="7.80039"><ele>245.0</ele><time>2026-04-11T09:32:24.062Z</time></trkpt><trkpt lat="44.87245" lon="7.8004117"><ele>245.0</ele><time>2026-04-11T09:32:25.063Z</time></trkpt><trkpt lat="44.87252" lon="7.8004333"><ele>245.0</ele><time>2026-04-11T09:32:26.062Z</time></trkpt><trkpt lat="44.8725883" lon="7.8004617"><ele>245.0</ele><time>2026-04-11T09:32:27.061Z</time></trkpt><trkpt lat="44.8726567" lon="7.8004883"><ele>245.0</ele><time>2026-04-11T09:32:28.061Z</time></trkpt><trkpt lat="44.872725" lon="7.800515"><ele>245.0</ele><time>2026-04-11T09:32:29.062Z</time></trkpt><trkpt lat="44.8727917" lon="7.80054"><ele>245.0</ele><time>2026-04-11T09:32:30.06Z</time></trkpt><trkpt lat="44.8728583" lon="7.8005633"><ele>245.0</ele><time>2026-04-11T09:32:31.063Z</time></trkpt><trkpt lat="44.872925" lon="7.8005883"><ele>245.0</ele><time>2026-04-11T09:32:32.062Z</time></trkpt><trkpt lat="44.8729933" lon="7.8006183"><ele>245.0</ele><time>2026-04-11T09:32:33.061Z</time></trkpt><trkpt lat="44.8730617" lon="7.8006467"><ele>245.0</ele><time>2026-04-11T09:32:34.061Z</time></trkpt><trkpt lat="44.87313" lon="7.8006717"><ele>245.0</ele><time>2026-04-11T09:32:35.058Z</time></trkpt><trkpt lat="44.8732" lon="7.8006967"><ele>245.0</ele><time>2026-04-11T09:32:36.059Z</time></trkpt><trkpt lat="44.87327" lon="7.8007233"><ele>245.0</ele><time>2026-04-11T09:32:37.063Z</time></trkpt><trkpt lat="44.87334" lon="7.8007483"><ele>245.0</ele><time>2026-04-11T09:32:38.059Z</time></trkpt><trkpt lat="44.87341" lon="7.8007767"><ele>245.0</ele><time>2026-04-11T09:32:39.062Z</time></trkpt><trkpt lat="44.8734783" lon="7.8008017"><ele>245.0</ele><time>2026-04-11T09:32:40.06Z</time></trkpt><trkpt lat="44.8735483" lon="7.8008267"><ele>245.0</ele><time>2026-04-11T09:32:41.059Z</time></trkpt><trkpt lat="44.8736183" lon="7.8008533"><ele>245.0</ele><time>2026-04-11T09:32:42.061Z</time></trkpt><trkpt lat="44.8736883" lon="7.800885"><ele>245.0</ele><time>2026-04-11T09:32:43.06Z</time></trkpt><trkpt lat="44.8737583" lon="7.8009133"><ele>245.0</ele><time>2026-04-11T09:32:44.059Z</time></trkpt><trkpt lat="44.8738283" lon="7.8009383"><ele>245.0</ele><time>2026-04-11T09:32:45.059Z</time></trkpt><trkpt lat="44.8739" lon="7.8009633"><ele>245.0</ele><time>2026-04-11T09:32:46.06Z</time></trkpt><trkpt lat="44.8739683" lon="7.8009883"><ele>245.0</ele><time>2026-04-11T09:32:47.06Z</time></trkpt><trkpt lat="44.8740367" lon="7.801015"><ele>245.0</ele><time>2026-04-11T09:32:48.06Z</time></trkpt><trkpt lat="44.8741067" lon="7.8010367"><ele>245.0</ele><time>2026-04-11T09:32:49.059Z</time></trkpt><trkpt lat="44.87418" lon="7.8010567"><ele>244.85714285714286</ele><time>2026-04-11T09:32:50.059Z</time></trkpt><trkpt lat="44.874255" lon="7.8010733"><ele>244.71428571428572</ele><time>2026-04-11T09:32:51.06Z</time></trkpt><trkpt lat="44.8743233" lon="7.8011"><ele>244.57142857142856</ele><time>2026-04-11T09:32:52.06Z</time></trkpt><trkpt lat="44.8743933" lon="7.801125"><ele>244.42857142857142</ele><time>2026-04-11T09:32:53.06Z</time></trkpt><trkpt lat="44.8744583" lon="7.8011533"><ele>244.28571428571428</ele><time>2026-04-11T09:32:54.06Z</time></trkpt><trkpt lat="44.8745267" lon="7.8011783"><ele>244.1428571428571</ele><time>2026-04-11T09:32:55.061Z</time></trkpt><trkpt lat="44.8745967" lon="7.801205"><ele>243.99999999999997</ele><time>2026-04-11T09:32:56.061Z</time></trkpt><trkpt lat="44.8746683" lon="7.80123"><ele>243.99999999999997</ele><time>2026-04-11T09:32:57.061Z</time></trkpt><trkpt lat="44.87474" lon="7.8012567"><ele>244.0</ele><time>2026-04-11T09:32:58.059Z</time></trkpt><trkpt lat="44.8748117" lon="7.801285"><ele>243.99999999999997</ele><time>2026-04-11T09:32:59.06Z</time></trkpt><trkpt lat="44.874885" lon="7.80131"><ele>243.99999999999997</ele><time>2026-04-11T09:33:00.06Z</time></trkpt><trkpt lat="44.8749567" lon="7.8013317"><ele>244.0</ele><time>2026-04-11T09:33:01.061Z</time></trkpt><trkpt lat="44.8750283" lon="7.801355"><ele>243.99999999999997</ele><time>2026-04-11T09:33:02.06Z</time></trkpt><trkpt lat="44.8751" lon="7.80138"><ele>243.99999999999997</ele><time>2026-04-11T09:33:03.061Z</time></trkpt><trkpt lat="44.8751717" lon="7.801405"><ele>243.99999999999997</ele><time>2026-04-11T09:33:04.06Z</time></trkpt><trkpt lat="44.8752433" lon="7.8014333"><ele>244.0</ele><time>2026-04-11T09:33:05.06Z</time></trkpt><trkpt lat="44.875315" lon="7.8014617"><ele>243.99999999999997</ele><time>2026-04-11T09:33:06.061Z</time></trkpt><trkpt lat="44.8753883" lon="7.80149"><ele>243.99999999999997</ele><time>2026-04-11T09:33:07.06Z</time></trkpt><trkpt lat="44.87546" lon="7.801515"><ele>244.0</ele><time>2026-04-11T09:33:08.062Z</time></trkpt><trkpt lat="44.87553" lon="7.80154"><ele>243.99999999999997</ele><time>2026-04-11T09:33:09.061Z</time></trkpt><trkpt lat="44.8756" lon="7.8015633"><ele>243.99999999999997</ele><time>2026-04-11T09:33:10.063Z</time></trkpt><trkpt lat="44.8756717" lon="7.8015883"><ele>243.99999999999997</ele><time>2026-04-11T09:33:11.059Z</time></trkpt><trkpt lat="44.87574" lon="7.8016133"><ele>244.0</ele><time>2026-04-11T09:33:12.061Z</time></trkpt><trkpt lat="44.8758133" lon="7.8016383"><ele>243.99999999999997</ele><time>2026-04-11T09:33:13.06Z</time></trkpt><trkpt lat="44.875885" lon="7.8016617"><ele>243.99999999999997</ele><time>2026-04-11T09:33:14.061Z</time></trkpt><trkpt lat="44.8759567" lon="7.8016833"><ele>244.0</ele><time>2026-04-11T09:33:15.061Z</time></trkpt><trkpt lat="44.8760267" lon="7.80171"><ele>243.99999999999997</ele><time>2026-04-11T09:33:16.062Z</time></trkpt><trkpt lat="44.876095" lon="7.8017367"><ele>243.99999999999997</ele><time>2026-04-11T09:33:17.06Z</time></trkpt><trkpt lat="44.8761633" lon="7.8017617"><ele>243.85714285714283</ele><time>2026-04-11T09:33:18.059Z</time></trkpt><trkpt lat="44.8762317" lon="7.8017883"><ele>243.71428571428572</ele><time>2026-04-11T09:33:19.062Z</time></trkpt><trkpt lat="44.876305" lon="7.8018133"><ele>243.57142857142856</ele><time>2026-04-11T09:33:20.059Z</time></trkpt><trkpt lat="44.8763783" lon="7.80184"><ele>243.42857142857142</ele><time>2026-04-11T09:33:21.062Z</time></trkpt><trkpt lat="44.87645" lon="7.8018667"><ele>243.28571428571428</ele><time>2026-04-11T09:33:22.063Z</time></trkpt><trkpt lat="44.8765217" lon="7.801895"><ele>243.14285714285714</ele><time>2026-04-11T09:33:23.062Z</time></trkpt><trkpt lat="44.8765917" lon="7.8019233"><ele>243.0</ele><time>2026-04-11T09:33:24.06Z</time></trkpt><trkpt lat="44.8766667" lon="7.80195"><ele>242.83333333333334</ele><time>2026-04-11T09:33:25.06Z</time></trkpt><trkpt lat="44.8767433" lon="7.8019783"><ele>242.66666666666669</ele><time>2026-04-11T09:33:26.063Z</time></trkpt><trkpt lat="44.8768183" lon="7.8020067"><ele>242.5</ele><time>2026-04-11T09:33:27.061Z</time></trkpt><trkpt lat="44.8768917" lon="7.8020317"><ele>242.33333333333334</ele><time>2026-04-11T09:33:28.061Z</time></trkpt><trkpt lat="44.876965" lon="7.8020583"><ele>242.16666666666669</ele><time>2026-04-11T09:33:29.065Z</time></trkpt><trkpt lat="44.8770383" lon="7.8020833"><ele>242.0</ele><time>2026-04-11T09:33:30.063Z</time></trkpt><trkpt lat="44.8771133" lon="7.8021083"><ele>242.14285714285714</ele><time>2026-04-11T09:33:31.059Z</time></trkpt><trkpt lat="44.8771867" lon="7.802135"><ele>242.28571428571428</ele><time>2026-04-11T09:33:32.061Z</time></trkpt><trkpt lat="44.8772583" lon="7.8021583"><ele>242.42857142857142</ele><time>2026-04-11T09:33:33.061Z</time></trkpt><trkpt lat="44.8773317" lon="7.802185"><ele>242.57142857142856</ele><time>2026-04-11T09:33:34.06Z</time></trkpt><trkpt lat="44.8774017" lon="7.8022083"><ele>242.71428571428572</ele><time>2026-04-11T09:33:35.059Z</time></trkpt><trkpt lat="44.8774717" lon="7.8022317"><ele>242.85714285714283</ele><time>2026-04-11T09:33:36.06Z</time></trkpt><trkpt lat="44.87754" lon="7.8022533"><ele>243.0</ele><time>2026-04-11T09:33:37.062Z</time></trkpt><trkpt lat="44.87761" lon="7.80228"><ele>243.0</ele><time>2026-04-11T09:33:38.062Z</time></trkpt><trkpt lat="44.87768" lon="7.80231"><ele>243.0</ele><time>2026-04-11T09:33:39.064Z</time></trkpt><trkpt lat="44.8777517" lon="7.8023383"><ele>243.0</ele><time>2026-04-11T09:33:40.063Z</time></trkpt><trkpt lat="44.877825" lon="7.8023667"><ele>243.0</ele><time>2026-04-11T09:33:41.06Z</time></trkpt><trkpt lat="44.8778983" lon="7.8023967"><ele>243.0</ele><time>2026-04-11T09:33:42.061Z</time></trkpt><trkpt lat="44.87797" lon="7.80242"><ele>243.0</ele><time>2026-04-11T09:33:43.061Z</time></trkpt><trkpt lat="44.87804" lon="7.8024433"><ele>243.0</ele><time>2026-04-11T09:33:44.06Z</time></trkpt><trkpt lat="44.87811" lon="7.80247"><ele>243.0</ele><time>2026-04-11T09:33:45.062Z</time></trkpt><trkpt lat="44.87818" lon="7.8024967"><ele>243.0</ele><time>2026-04-11T09:33:46.062Z</time></trkpt><trkpt lat="44.87825" lon="7.8025217"><ele>243.0</ele><time>2026-04-11T09:33:47.061Z</time></trkpt><trkpt lat="44.87832" lon="7.8025433"><ele>243.0</ele><time>2026-04-11T09:33:48.062Z</time></trkpt><trkpt lat="44.8783883" lon="7.8025683"><ele>243.0</ele><time>2026-04-11T09:33:49.061Z</time></trkpt><trkpt lat="44.8784567" lon="7.8025917"><ele>243.0</ele><time>2026-04-11T09:33:50.06Z</time></trkpt><trkpt lat="44.8785267" lon="7.8026183"><ele>243.0</ele><time>2026-04-11T09:33:51.06Z</time></trkpt><trkpt lat="44.878595" lon="7.8026433"><ele>243.0</ele><time>2026-04-11T09:33:52.062Z</time></trkpt><trkpt lat="44.878665" lon="7.802665"><ele>243.0</ele><time>2026-04-11T09:33:53.06Z</time></trkpt><trkpt lat="44.8787333" lon="7.80269"><ele>243.0</ele><time>2026-04-11T09:33:54.06Z</time></trkpt><trkpt lat="44.8788" lon="7.8027133"><ele>243.0</ele><time>2026-04-11T09:33:55.055Z</time></trkpt><trkpt lat="44.8788683" lon="7.80274"><ele>243.0</ele><time>2026-04-11T09:33:56.06Z</time></trkpt><trkpt lat="44.8789367" lon="7.802765"><ele>243.0</ele><time>2026-04-11T09:33:57.056Z</time></trkpt><trkpt lat="44.8790067" lon="7.8027933"><ele>243.0</ele><time>2026-04-11T09:33:58.06Z</time></trkpt><trkpt lat="44.8790767" lon="7.8028167"><ele>243.0</ele><time>2026-04-11T09:33:59.06Z</time></trkpt><trkpt lat="44.8791483" lon="7.8028383"><ele>243.0</ele><time>2026-04-11T09:34:00.061Z</time></trkpt><trkpt lat="44.87922" lon="7.8028583"><ele>243.0</ele><time>2026-04-11T09:34:01.063Z</time></trkpt><trkpt lat="44.8792917" lon="7.802885"><ele>243.0</ele><time>2026-04-11T09:34:02.059Z</time></trkpt><trkpt lat="44.8793617" lon="7.8029117"><ele>243.0</ele><time>2026-04-11T09:34:03.06Z</time></trkpt><trkpt lat="44.8794333" lon="7.8029383"><ele>243.0</ele><time>2026-04-11T09:34:04.062Z</time></trkpt><trkpt lat="44.879505" lon="7.8029667"><ele>243.0</ele><time>2026-04-11T09:34:05.06Z</time></trkpt><trkpt lat="44.879575" lon="7.8029883"><ele>243.14285714285714</ele><time>2026-04-11T09:34:06.061Z</time></trkpt><trkpt lat="44.8796467" lon="7.8030133"><ele>243.28571428571428</ele><time>2026-04-11T09:34:07.062Z</time></trkpt><trkpt lat="44.8797167" lon="7.80304"><ele>243.42857142857142</ele><time>2026-04-11T09:34:08.06Z</time></trkpt><trkpt lat="44.8797867" lon="7.803065"><ele>243.57142857142856</ele><time>2026-04-11T09:34:09.062Z</time></trkpt><trkpt lat="44.8798567" lon="7.80309"><ele>243.71428571428572</ele><time>2026-04-11T09:34:10.061Z</time></trkpt><trkpt lat="44.8799267" lon="7.8031167"><ele>243.85714285714283</ele><time>2026-04-11T09:34:11.06Z</time></trkpt><trkpt lat="44.8799983" lon="7.8031467"><ele>243.99999999999997</ele><time>2026-04-11T09:34:12.06Z</time></trkpt><trkpt lat="44.8800683" lon="7.803175"><ele>243.99999999999997</ele><time>2026-04-11T09:34:13.062Z</time></trkpt><trkpt lat="44.8801383" lon="7.8031983"><ele>244.0</ele><time>2026-04-11T09:34:14.059Z</time></trkpt><trkpt lat="44.8802083" lon="7.8032183"><ele>243.99999999999997</ele><time>2026-04-11T09:34:15.062Z</time></trkpt><trkpt lat="44.8802767" lon="7.8032433"><ele>243.99999999999997</ele><time>2026-04-11T09:34:16.06Z</time></trkpt><trkpt lat="44.880345" lon="7.8032667"><ele>244.0</ele><time>2026-04-11T09:34:17.06Z</time></trkpt><trkpt lat="44.880415" lon="7.8032933"><ele>243.99999999999997</ele><time>2026-04-11T09:34:18.061Z</time></trkpt><trkpt lat="44.8804817" lon="7.8033217"><ele>243.99999999999997</ele><time>2026-04-11T09:34:19.06Z</time></trkpt><trkpt lat="44.8805517" lon="7.8033433"><ele>243.99999999999997</ele><time>2026-04-11T09:34:20.06Z</time></trkpt><trkpt lat="44.88062" lon="7.803365"><ele>244.0</ele><time>2026-04-11T09:34:21.06Z</time></trkpt><trkpt lat="44.880685" lon="7.8033867"><ele>243.99999999999997</ele><time>2026-04-11T09:34:22.062Z</time></trkpt><trkpt lat="44.8807517" lon="7.8034067"><ele>243.99999999999997</ele><time>2026-04-11T09:34:23.059Z</time></trkpt><trkpt lat="44.8808183" lon="7.803435"><ele>244.0</ele><time>2026-04-11T09:34:24.061Z</time></trkpt><trkpt lat="44.880885" lon="7.8034617"><ele>243.99999999999997</ele><time>2026-04-11T09:34:25.062Z</time></trkpt><trkpt lat="44.8809533" lon="7.803485"><ele>243.99999999999997</ele><time>2026-04-11T09:34:26.059Z</time></trkpt><trkpt lat="44.8810233" lon="7.80351"><ele>243.57142857142856</ele><time>2026-04-11T09:34:27.06Z</time></trkpt><trkpt lat="44.8810933" lon="7.8035333"><ele>243.14285714285714</ele><time>2026-04-11T09:34:28.062Z</time></trkpt><trkpt lat="44.8811633" lon="7.803555"><ele>242.71428571428572</ele><time>2026-04-11T09:34:29.06Z</time></trkpt><trkpt lat="44.88123" lon="7.803575"><ele>242.28571428571428</ele><time>2026-04-11T09:34:30.062Z</time></trkpt><trkpt lat="44.8813" lon="7.803595"><ele>241.8571428571429</ele><time>2026-04-11T09:34:31.062Z</time></trkpt><trkpt lat="44.8813683" lon="7.80362"><ele>241.42857142857144</ele><time>2026-04-11T09:34:32.062Z</time></trkpt><trkpt lat="44.8814383" lon="7.8036467"><ele>241.0</ele><time>2026-04-11T09:34:33.063Z</time></trkpt><trkpt lat="44.88151" lon="7.8036733"><ele>241.0</ele><time>2026-04-11T09:34:34.06Z</time></trkpt><trkpt lat="44.8815783" lon="7.8036983"><ele>241.00000000000003</ele><time>2026-04-11T09:34:35.061Z</time></trkpt><trkpt lat="44.8816467" lon="7.8037233"><ele>241.0</ele><time>2026-04-11T09:34:36.062Z</time></trkpt><trkpt lat="44.8817167" lon="7.8037483"><ele>241.0</ele><time>2026-04-11T09:34:37.062Z</time></trkpt><trkpt lat="44.8817867" lon="7.8037733"><ele>241.00000000000003</ele><time>2026-04-11T09:34:38.061Z</time></trkpt><trkpt lat="44.881855" lon="7.8037983"><ele>241.0</ele><time>2026-04-11T09:34:39.06Z</time></trkpt><trkpt lat="44.881925" lon="7.80382"><ele>241.0</ele><time>2026-04-11T09:34:40.061Z</time></trkpt><trkpt lat="44.881995" lon="7.8038417"><ele>240.85714285714286</ele><time>2026-04-11T09:34:41.059Z</time></trkpt><trkpt lat="44.8820633" lon="7.8038633"><ele>240.71428571428572</ele><time>2026-04-11T09:34:42.063Z</time></trkpt><trkpt lat="44.8821317" lon="7.803885"><ele>240.57142857142858</ele><time>2026-04-11T09:34:43.062Z</time></trkpt><trkpt lat="44.8821967" lon="7.803905"><ele>240.42857142857144</ele><time>2026-04-11T09:34:44.061Z</time></trkpt><trkpt lat="44.8822633" lon="7.8039283"><ele>240.28571428571428</ele><time>2026-04-11T09:34:45.065Z</time></trkpt><trkpt lat="44.88233" lon="7.80396"><ele>240.14285714285717</ele><time>2026-04-11T09:34:46.063Z</time></trkpt><trkpt lat="44.8823883" lon="7.804005"><ele>240.0</ele><time>2026-04-11T09:34:47.064Z</time></trkpt><trkpt lat="44.8824467" lon="7.804155"><ele>240.0</ele><time>2026-04-11T09:34:49.061Z</time></trkpt><trkpt lat="44.8824383" lon="7.8042483"><ele>240.0</ele><time>2026-04-11T09:34:50.063Z</time></trkpt><trkpt lat="44.8824133" lon="7.8043483"><ele>240.0</ele><time>2026-04-11T09:34:51.062Z</time></trkpt><trkpt lat="44.8823967" lon="7.8044433"><ele>240.0</ele><time>2026-04-11T09:34:52.06Z</time></trkpt><trkpt lat="44.8823767" lon="7.8045367"><ele>240.0</ele><time>2026-04-11T09:34:53.06Z</time></trkpt><trkpt lat="44.8823583" lon="7.8046317"><ele>240.0</ele><time>2026-04-11T09:34:54.06Z</time></trkpt><trkpt lat="44.8823383" lon="7.8047217"><ele>240.0</ele><time>2026-04-11T09:34:55.061Z</time></trkpt><trkpt lat="44.8823183" lon="7.8048117"><ele>240.14285714285717</ele><time>2026-04-11T09:34:56.062Z</time></trkpt><trkpt lat="44.8823017" lon="7.8049033"><ele>240.28571428571428</ele><time>2026-04-11T09:34:57.062Z</time></trkpt><trkpt lat="44.882285" lon="7.804995"><ele>240.42857142857144</ele><time>2026-04-11T09:34:58.068Z</time></trkpt><trkpt lat="44.8822683" lon="7.8050883"><ele>240.57142857142858</ele><time>2026-04-11T09:34:59.058Z</time></trkpt><trkpt lat="44.8822517" lon="7.805185"><ele>240.71428571428572</ele><time>2026-04-11T09:35:00.06Z</time></trkpt><trkpt lat="44.8822317" lon="7.80528"><ele>240.85714285714286</ele><time>2026-04-11T09:35:01.062Z</time></trkpt><trkpt lat="44.8822133" lon="7.8053733"><ele>241.0</ele><time>2026-04-11T09:35:02.063Z</time></trkpt><trkpt lat="44.882195" lon="7.805465"><ele>241.14285714285717</ele><time>2026-04-11T09:35:03.06Z</time></trkpt><trkpt lat="44.88218" lon="7.8055567"><ele>241.2857142857143</ele><time>2026-04-11T09:35:04.061Z</time></trkpt><trkpt lat="44.8821633" lon="7.8056467"><ele>241.42857142857144</ele><time>2026-04-11T09:35:05.061Z</time></trkpt><trkpt lat="44.8821467" lon="7.8057367"><ele>241.57142857142856</ele><time>2026-04-11T09:35:06.062Z</time></trkpt><trkpt lat="44.8821317" lon="7.8058267"><ele>241.7142857142857</ele><time>2026-04-11T09:35:07.062Z</time></trkpt><trkpt lat="44.882115" lon="7.8059133"><ele>241.85714285714283</ele><time>2026-04-11T09:35:08.061Z</time></trkpt><trkpt lat="44.8821" lon="7.8060033"><ele>242.0</ele><time>2026-04-11T09:35:09.061Z</time></trkpt><trkpt lat="44.8820833" lon="7.8060917"><ele>243.25</ele><time>2026-04-11T09:35:10.061Z</time></trkpt><trkpt lat="44.882055" lon="7.8062583"><ele>244.5</ele><time>2026-04-11T09:35:12.061Z</time></trkpt><trkpt lat="44.8820283" lon="7.8064167"><ele>245.75</ele><time>2026-04-11T09:35:14.063Z</time></trkpt><trkpt lat="44.882" lon="7.8065683"><ele>247.0</ele><time>2026-04-11T09:35:16.061Z</time></trkpt><trkpt lat="44.88197" lon="7.8067133"><ele>247.66666666666666</ele><time>2026-04-11T09:35:18.062Z</time></trkpt><trkpt lat="44.8819417" lon="7.8068483"><ele>248.33333333333331</ele><time>2026-04-11T09:35:20.062Z</time></trkpt><trkpt lat="44.88192" lon="7.806975"><ele>249.0</ele><time>2026-04-11T09:35:22.062Z</time></trkpt><trkpt lat="44.8819067" lon="7.8070917"><ele>249.66666666666669</ele><time>2026-04-11T09:35:24.063Z</time></trkpt><trkpt lat="44.8818833" lon="7.807205"><ele>250.33333333333334</ele><time>2026-04-11T09:35:26.061Z</time></trkpt><trkpt lat="44.88186" lon="7.80732"><ele>251.0</ele><time>2026-04-11T09:35:28.061Z</time></trkpt><trkpt lat="44.88183" lon="7.80743"><ele>251.0</ele><time>2026-04-11T09:35:30.062Z</time></trkpt><trkpt lat="44.881785" lon="7.80754"><ele>251.00000000000003</ele><time>2026-04-11T09:35:32.061Z</time></trkpt><trkpt lat="44.8817233" lon="7.807635"><ele>251.00000000000003</ele><time>2026-04-11T09:35:34.061Z</time></trkpt><trkpt lat="44.8816417" lon="7.80771"><ele>251.0</ele><time>2026-04-11T09:35:36.062Z</time></trkpt><trkpt lat="44.881555" lon="7.8077667"><ele>251.0</ele><time>2026-04-11T09:35:38.061Z</time></trkpt><trkpt lat="44.8814717" lon="7.8078167"><ele>252.0</ele><time>2026-04-11T09:35:40.06Z</time></trkpt><trkpt lat="44.88138" lon="7.80787"><ele>253.00000000000003</ele><time>2026-04-11T09:35:42.062Z</time></trkpt><trkpt lat="44.8812833" lon="7.8079233"><ele>254.00000000000003</ele><time>2026-04-11T09:35:44.062Z</time></trkpt><trkpt lat="44.88119" lon="7.8079933"><ele>255.0</ele><time>2026-04-11T09:35:46.061Z</time></trkpt><trkpt lat="44.8810983" lon="7.8080733"><ele>256.0</ele><time>2026-04-11T09:35:48.063Z</time></trkpt><trkpt lat="44.88101" lon="7.8081483"><ele>256.0</ele><time>2026-04-11T09:35:50.061Z</time></trkpt><trkpt lat="44.8809217" lon="7.8082267"><ele>256.0</ele><time>2026-04-11T09:35:52.062Z</time></trkpt><trkpt lat="44.880835" lon="7.8083117"><ele>256.0</ele><time>2026-04-11T09:35:54.061Z</time></trkpt><trkpt lat="44.8807533" lon="7.808405"><ele>256.0</ele><time>2026-04-11T09:35:56.06Z</time></trkpt><trkpt lat="44.880675" lon="7.8085133"><ele>256.0</ele><time>2026-04-11T09:35:58.061Z</time></trkpt><trkpt lat="44.8805933" lon="7.8086333"><ele>256.40000000000003</ele><time>2026-04-11T09:36:00.061Z</time></trkpt><trkpt lat="44.88052" lon="7.8087717"><ele>256.8</ele><time>2026-04-11T09:36:02.062Z</time></trkpt><trkpt lat="44.8804817" lon="7.8088433"><ele>257.20000000000005</ele><time>2026-04-11T09:36:03.062Z</time></trkpt><trkpt lat="44.880395" lon="7.8089683"><ele>257.6</ele><time>2026-04-11T09:36:05.061Z</time></trkpt><trkpt lat="44.8803067" lon="7.8090917"><ele>258.0</ele><time>2026-04-11T09:36:07.062Z</time></trkpt><trkpt lat="44.88023" lon="7.8092333"><ele>257.8</ele><time>2026-04-11T09:36:09.064Z</time></trkpt><trkpt lat="44.8801583" lon="7.8093767"><ele>257.6</ele><time>2026-04-11T09:36:11.062Z</time></trkpt><trkpt lat="44.8801217" lon="7.80945"><ele>257.4</ele><time>2026-04-11T09:36:12.062Z</time></trkpt><trkpt lat="44.88006" lon="7.8096017"><ele>257.2</ele><time>2026-04-11T09:36:14.062Z</time></trkpt><trkpt lat="44.8800283" lon="7.8096817"><ele>257.0</ele><time>2026-04-11T09:36:15.063Z</time></trkpt><trkpt lat="44.8799717" lon="7.809835"><ele>256.75</ele><time>2026-04-11T09:36:17.061Z</time></trkpt><trkpt lat="44.8799183" lon="7.8099867"><ele>256.5</ele><time>2026-04-11T09:36:19.062Z</time></trkpt><trkpt lat="44.8798733" lon="7.810135"><ele>256.25</ele><time>2026-04-11T09:36:21.063Z</time></trkpt><trkpt lat="44.8798333" lon="7.81029"><ele>256.0</ele><time>2026-04-11T09:36:23.065Z</time></trkpt><trkpt lat="44.87979" lon="7.8104467"><ele>256.3333333333333</ele><time>2026-04-11T09:36:25.062Z</time></trkpt><trkpt lat="44.8797417" lon="7.810605"><ele>256.66666666666663</ele><time>2026-04-11T09:36:27.061Z</time></trkpt><trkpt lat="44.879715" lon="7.8106867"><ele>257.0</ele><time>2026-04-11T09:36:28.065Z</time></trkpt><trkpt lat="44.879685" lon="7.810765"><ele>257.3333333333333</ele><time>2026-04-11T09:36:29.061Z</time></trkpt><trkpt lat="44.8796117" lon="7.81091"><ele>257.6666666666667</ele><time>2026-04-11T09:36:31.061Z</time></trkpt><trkpt lat="44.8795667" lon="7.8109783"><ele>258.0</ele><time>2026-04-11T09:36:32.061Z</time></trkpt><trkpt lat="44.8795167" lon="7.8110383"><ele>258.0</ele><time>2026-04-11T09:36:33.06Z</time></trkpt><trkpt lat="44.8794133" lon="7.81114"><ele>258.0</ele><time>2026-04-11T09:36:35.059Z</time></trkpt><trkpt lat="44.879355" lon="7.811185"><ele>258.0</ele><time>2026-04-11T09:36:36.062Z</time></trkpt><trkpt lat="44.8792433" lon="7.8112667"><ele>258.0</ele><time>2026-04-11T09:36:38.061Z</time></trkpt><trkpt lat="44.8791283" lon="7.8113383"><ele>258.0</ele><time>2026-04-11T09:36:40.061Z</time></trkpt><trkpt lat="44.879015" lon="7.8114133"><ele>258.1666666666667</ele><time>2026-04-11T09:36:42.061Z</time></trkpt><trkpt lat="44.8789583" lon="7.8114567"><ele>258.3333333333333</ele><time>2026-04-11T09:36:43.06Z</time></trkpt><trkpt lat="44.8788517" lon="7.8115433"><ele>258.5</ele><time>2026-04-11T09:36:45.062Z</time></trkpt><trkpt lat="44.8787983" lon="7.8115967"><ele>258.66666666666663</ele><time>2026-04-11T09:36:46.061Z</time></trkpt><trkpt lat="44.8787033" lon="7.811715"><ele>258.8333333333333</ele><time>2026-04-11T09:36:48.063Z</time></trkpt><trkpt lat="44.8786617" lon="7.8117817"><ele>259.0</ele><time>2026-04-11T09:36:49.064Z</time></trkpt><trkpt lat="44.8785883" lon="7.811925"><ele>258.75</ele><time>2026-04-11T09:36:51.062Z</time></trkpt><trkpt lat="44.87853" lon="7.81207"><ele>258.5</ele><time>2026-04-11T09:36:53.063Z</time></trkpt><trkpt lat="44.87847" lon="7.8122183"><ele>258.25</ele><time>2026-04-11T09:36:55.061Z</time></trkpt><trkpt lat="44.8784" lon="7.8123583"><ele>258.0</ele><time>2026-04-11T09:36:57.062Z</time></trkpt><trkpt lat="44.8783183" lon="7.8124933"><ele>257.99999999999994</ele><time>2026-04-11T09:36:59.062Z</time></trkpt><trkpt lat="44.8782733" lon="7.8125583"><ele>258.0</ele><time>2026-04-11T09:37:00.063Z</time></trkpt><trkpt lat="44.878225" lon="7.8126217"><ele>258.0</ele><time>2026-04-11T09:37:01.064Z</time></trkpt><trkpt lat="44.8781783" lon="7.8126833"><ele>258.0</ele><time>2026-04-11T09:37:02.062Z</time></trkpt><trkpt lat="44.8781333" lon="7.8127483"><ele>258.0</ele><time>2026-04-11T09:37:03.062Z</time></trkpt><trkpt lat="44.878085" lon="7.8128133"><ele>257.99999999999994</ele><time>2026-04-11T09:37:04.061Z</time></trkpt><trkpt lat="44.8780367" lon="7.812875"><ele>258.0</ele><time>2026-04-11T09:37:05.06Z</time></trkpt><trkpt lat="44.8779867" lon="7.8129383"><ele>257.85714285714283</ele><time>2026-04-11T09:37:06.061Z</time></trkpt><trkpt lat="44.8779367" lon="7.8129967"><ele>257.7142857142857</ele><time>2026-04-11T09:37:07.064Z</time></trkpt><trkpt lat="44.8778867" lon="7.8130583"><ele>257.57142857142856</ele><time>2026-04-11T09:37:08.061Z</time></trkpt><trkpt lat="44.8778367" lon="7.813115"><ele>257.42857142857144</ele><time>2026-04-11T09:37:09.061Z</time></trkpt><trkpt lat="44.8777867" lon="7.8131767"><ele>257.2857142857143</ele><time>2026-04-11T09:37:10.06Z</time></trkpt><trkpt lat="44.8777383" lon="7.8132417"><ele>257.1428571428571</ele><time>2026-04-11T09:37:11.06Z</time></trkpt><trkpt lat="44.87769" lon="7.8133117"><ele>257.0</ele><time>2026-04-11T09:37:12.06Z</time></trkpt><trkpt lat="44.8776417" lon="7.8133767"><ele>257.42857142857144</ele><time>2026-04-11T09:37:13.064Z</time></trkpt><trkpt lat="44.87759" lon="7.8134467"><ele>257.8571428571429</ele><time>2026-04-11T09:37:14.061Z</time></trkpt><trkpt lat="44.8775417" lon="7.8135167"><ele>258.28571428571433</ele><time>2026-04-11T09:37:15.061Z</time></trkpt><trkpt lat="44.87749" lon="7.8135867"><ele>258.7142857142857</ele><time>2026-04-11T09:37:16.062Z</time></trkpt><trkpt lat="44.87744" lon="7.8136583"><ele>259.14285714285717</ele><time>2026-04-11T09:37:17.06Z</time></trkpt><trkpt lat="44.8773867" lon="7.8137267"><ele>259.5714285714286</ele><time>2026-04-11T09:37:18.06Z</time></trkpt><trkpt lat="44.8773317" lon="7.8137933"><ele>260.0</ele><time>2026-04-11T09:37:19.06Z</time></trkpt><trkpt lat="44.8772767" lon="7.8138617"><ele>260.00000000000006</ele><time>2026-04-11T09:37:20.06Z</time></trkpt><trkpt lat="44.8772283" lon="7.81393"><ele>260.0</ele><time>2026-04-11T09:37:21.06Z</time></trkpt><trkpt lat="44.87718" lon="7.8139933"><ele>260.0</ele><time>2026-04-11T09:37:22.056Z</time></trkpt><trkpt lat="44.8771317" lon="7.8140567"><ele>260.0</ele><time>2026-04-11T09:37:23.057Z</time></trkpt><trkpt lat="44.8770833" lon="7.8141167"><ele>260.0</ele><time>2026-04-11T09:37:24.057Z</time></trkpt><trkpt lat="44.8770333" lon="7.8141767"><ele>260.00000000000006</ele><time>2026-04-11T09:37:25.056Z</time></trkpt><trkpt lat="44.8769833" lon="7.8142367"><ele>260.0</ele><time>2026-04-11T09:37:26.055Z</time></trkpt><trkpt lat="44.8769333" lon="7.814305"><ele>260.00000000000006</ele><time>2026-04-11T09:37:27.057Z</time></trkpt><trkpt lat="44.8768833" lon="7.814375"><ele>260.0</ele><time>2026-04-11T09:37:28.056Z</time></trkpt><trkpt lat="44.8768333" lon="7.8144467"><ele>260.0</ele><time>2026-04-11T09:37:29.055Z</time></trkpt><trkpt lat="44.8767833" lon="7.8145167"><ele>260.0</ele><time>2026-04-11T09:37:30.057Z</time></trkpt><trkpt lat="44.876735" lon="7.81458"><ele>260.0</ele><time>2026-04-11T09:37:31.056Z</time></trkpt><trkpt lat="44.8766867" lon="7.8146433"><ele>260.00000000000006</ele><time>2026-04-11T09:37:32.056Z</time></trkpt><trkpt lat="44.87664" lon="7.8147117"><ele>260.0</ele><time>2026-04-11T09:37:33.057Z</time></trkpt><trkpt lat="44.8765917" lon="7.8147783"><ele>260.00000000000006</ele><time>2026-04-11T09:37:34.056Z</time></trkpt><trkpt lat="44.8765433" lon="7.814845"><ele>260.0</ele><time>2026-04-11T09:37:35.057Z</time></trkpt><trkpt lat="44.8764917" lon="7.8149117"><ele>260.0</ele><time>2026-04-11T09:37:36.058Z</time></trkpt><trkpt lat="44.87644" lon="7.8149783"><ele>260.0</ele><time>2026-04-11T09:37:37.06Z</time></trkpt><trkpt lat="44.87639" lon="7.8150483"><ele>260.0</ele><time>2026-04-11T09:37:38.061Z</time></trkpt><trkpt lat="44.8763417" lon="7.815115"><ele>260.00000000000006</ele><time>2026-04-11T09:37:39.062Z</time></trkpt><trkpt lat="44.87629" lon="7.8151733"><ele>260.0</ele><time>2026-04-11T09:37:40.061Z</time></trkpt><trkpt lat="44.876235" lon="7.81523"><ele>259.7142857142857</ele><time>2026-04-11T09:37:41.06Z</time></trkpt><trkpt lat="44.87618" lon="7.8152883"><ele>259.42857142857144</ele><time>2026-04-11T09:37:42.061Z</time></trkpt><trkpt lat="44.8761267" lon="7.8153483"><ele>259.1428571428571</ele><time>2026-04-11T09:37:43.062Z</time></trkpt><trkpt lat="44.8760717" lon="7.8154017"><ele>258.8571428571429</ele><time>2026-04-11T09:37:44.062Z</time></trkpt><trkpt lat="44.8760167" lon="7.8154583"><ele>258.57142857142856</ele><time>2026-04-11T09:37:45.062Z</time></trkpt><trkpt lat="44.87596" lon="7.8155183"><ele>258.2857142857143</ele><time>2026-04-11T09:37:46.062Z</time></trkpt><trkpt lat="44.8759" lon="7.81558"><ele>258.0</ele><time>2026-04-11T09:37:47.06Z</time></trkpt><trkpt lat="44.8758417" lon="7.815645"><ele>257.99999999999994</ele><time>2026-04-11T09:37:48.059Z</time></trkpt><trkpt lat="44.8757817" lon="7.815705"><ele>258.0</ele><time>2026-04-11T09:37:49.061Z</time></trkpt><trkpt lat="44.87572" lon="7.81576"><ele>258.0</ele><time>2026-04-11T09:37:50.06Z</time></trkpt><trkpt lat="44.8756567" lon="7.815815"><ele>258.0</ele><time>2026-04-11T09:37:51.061Z</time></trkpt><trkpt lat="44.8755967" lon="7.81587"><ele>258.0</ele><time>2026-04-11T09:37:52.062Z</time></trkpt><trkpt lat="44.8755367" lon="7.8159267"><ele>257.99999999999994</ele><time>2026-04-11T09:37:53.059Z</time></trkpt><trkpt lat="44.8754783" lon="7.8159867"><ele>258.0</ele><time>2026-04-11T09:37:54.059Z</time></trkpt><trkpt lat="44.8754183" lon="7.816045"><ele>257.71428571428567</ele><time>2026-04-11T09:37:55.061Z</time></trkpt><trkpt lat="44.8753583" lon="7.8161067"><ele>257.42857142857144</ele><time>2026-04-11T09:37:56.06Z</time></trkpt><trkpt lat="44.8752967" lon="7.8161633"><ele>257.1428571428571</ele><time>2026-04-11T09:37:57.06Z</time></trkpt><trkpt lat="44.8752367" lon="7.81622"><ele>256.85714285714283</ele><time>2026-04-11T09:37:58.061Z</time></trkpt><trkpt lat="44.8751783" lon="7.8162767"><ele>256.57142857142856</ele><time>2026-04-11T09:37:59.061Z</time></trkpt><trkpt lat="44.8751183" lon="7.8163383"><ele>256.2857142857143</ele><time>2026-04-11T09:38:00.062Z</time></trkpt><trkpt lat="44.87506" lon="7.8164"><ele>256.0</ele><time>2026-04-11T09:38:01.062Z</time></trkpt><trkpt lat="44.8750017" lon="7.81646"><ele>256.1428571428571</ele><time>2026-04-11T09:38:02.06Z</time></trkpt><trkpt lat="44.8749417" lon="7.8165217"><ele>256.2857142857143</ele><time>2026-04-11T09:38:03.061Z</time></trkpt><trkpt lat="44.8748833" lon="7.8165833"><ele>256.42857142857144</ele><time>2026-04-11T09:38:04.061Z</time></trkpt><trkpt lat="44.8748283" lon="7.8166417"><ele>256.57142857142856</ele><time>2026-04-11T09:38:05.059Z</time></trkpt><trkpt lat="44.8747733" lon="7.8167017"><ele>256.7142857142857</ele><time>2026-04-11T09:38:06.06Z</time></trkpt><trkpt lat="44.8747167" lon="7.8167617"><ele>256.85714285714283</ele><time>2026-04-11T09:38:07.063Z</time></trkpt><trkpt lat="44.8746583" lon="7.8168217"><ele>257.0</ele><time>2026-04-11T09:38:08.063Z</time></trkpt><trkpt lat="44.8746017" lon="7.8168883"><ele>257.0</ele><time>2026-04-11T09:38:09.062Z</time></trkpt><trkpt lat="44.8745417" lon="7.8169517"><ele>257.0</ele><time>2026-04-11T09:38:10.063Z</time></trkpt><trkpt lat="44.8744833" lon="7.8170167"><ele>257.0</ele><time>2026-04-11T09:38:11.061Z</time></trkpt><trkpt lat="44.874425" lon="7.8170817"><ele>257.0</ele><time>2026-04-11T09:38:12.062Z</time></trkpt><trkpt lat="44.8743683" lon="7.817145"><ele>257.0</ele><time>2026-04-11T09:38:13.062Z</time></trkpt><trkpt lat="44.8743117" lon="7.8172083"><ele>257.0</ele><time>2026-04-11T09:38:14.062Z</time></trkpt><trkpt lat="44.8742567" lon="7.8172717"><ele>257.0</ele><time>2026-04-11T09:38:15.062Z</time></trkpt><trkpt lat="44.8742" lon="7.8173367"><ele>257.7142857142857</ele><time>2026-04-11T09:38:16.062Z</time></trkpt><trkpt lat="44.8741467" lon="7.817405"><ele>258.42857142857144</ele><time>2026-04-11T09:38:17.06Z</time></trkpt><trkpt lat="44.8740933" lon="7.81747"><ele>259.14285714285717</ele><time>2026-04-11T09:38:18.06Z</time></trkpt><trkpt lat="44.8740433" lon="7.81753"><ele>259.8571428571429</ele><time>2026-04-11T09:38:19.06Z</time></trkpt><trkpt lat="44.8739917" lon="7.817585"><ele>260.5714285714286</ele><time>2026-04-11T09:38:20.06Z</time></trkpt><trkpt lat="44.8739417" lon="7.817645"><ele>261.2857142857143</ele><time>2026-04-11T09:38:21.061Z</time></trkpt><trkpt lat="44.8738933" lon="7.817705"><ele>262.0</ele><time>2026-04-11T09:38:22.059Z</time></trkpt><trkpt lat="44.87385" lon="7.8177733"><ele>262.0</ele><time>2026-04-11T09:38:23.061Z</time></trkpt><trkpt lat="44.8738167" lon="7.8178533"><ele>262.0</ele><time>2026-04-11T09:38:24.06Z</time></trkpt><trkpt lat="44.8737967" lon="7.8179483"><ele>262.0</ele><time>2026-04-11T09:38:25.062Z</time></trkpt><trkpt lat="44.8737883" lon="7.8180483"><ele>262.0</ele><time>2026-04-11T09:38:26.06Z</time></trkpt><trkpt lat="44.8737883" lon="7.8181517"><ele>262.0</ele><time>2026-04-11T09:38:27.062Z</time></trkpt><trkpt lat="44.8738" lon="7.8182583"><ele>262.0</ele><time>2026-04-11T09:38:28.059Z</time></trkpt><trkpt lat="44.87382" lon="7.81836"><ele>262.0</ele><time>2026-04-11T09:38:29.059Z</time></trkpt><trkpt lat="44.87384" lon="7.8184617"><ele>261.8333333333333</ele><time>2026-04-11T09:38:30.061Z</time></trkpt><trkpt lat="44.8738617" lon="7.818565"><ele>261.66666666666663</ele><time>2026-04-11T09:38:31.059Z</time></trkpt><trkpt lat="44.8738867" lon="7.8186683"><ele>261.5</ele><time>2026-04-11T09:38:32.061Z</time></trkpt><trkpt lat="44.8739117" lon="7.818775"><ele>261.3333333333333</ele><time>2026-04-11T09:38:33.059Z</time></trkpt><trkpt lat="44.873935" lon="7.818885"><ele>261.1666666666667</ele><time>2026-04-11T09:38:34.061Z</time></trkpt><trkpt lat="44.8739567" lon="7.8189933"><ele>261.0</ele><time>2026-04-11T09:38:35.058Z</time></trkpt><trkpt lat="44.87398" lon="7.8191033"><ele>261.0</ele><time>2026-04-11T09:38:36.06Z</time></trkpt><trkpt lat="44.8740017" lon="7.8192133"><ele>261.0</ele><time>2026-04-11T09:38:37.058Z</time></trkpt><trkpt lat="44.8740267" lon="7.8193233"><ele>261.0</ele><time>2026-04-11T09:38:38.061Z</time></trkpt><trkpt lat="44.8740517" lon="7.8194383"><ele>261.0</ele><time>2026-04-11T09:38:39.062Z</time></trkpt><trkpt lat="44.8740733" lon="7.819555"><ele>261.0</ele><time>2026-04-11T09:38:40.06Z</time></trkpt><trkpt lat="44.87409" lon="7.8196683"><ele>261.0</ele><time>2026-04-11T09:38:41.058Z</time></trkpt><trkpt lat="44.8741067" lon="7.8197833"><ele>260.3333333333333</ele><time>2026-04-11T09:38:42.06Z</time></trkpt><trkpt lat="44.8741267" lon="7.8198967"><ele>259.6666666666667</ele><time>2026-04-11T09:38:43.062Z</time></trkpt><trkpt lat="44.87415" lon="7.8200117"><ele>259.0</ele><time>2026-04-11T09:38:44.059Z</time></trkpt><trkpt lat="44.874175" lon="7.8201267"><ele>258.33333333333337</ele><time>2026-04-11T09:38:45.062Z</time></trkpt><trkpt lat="44.8742033" lon="7.8202417"><ele>257.6666666666667</ele><time>2026-04-11T09:38:46.06Z</time></trkpt><trkpt lat="44.8742367" lon="7.8203583"><ele>257.0</ele><time>2026-04-11T09:38:47.059Z</time></trkpt><trkpt lat="44.8742667" lon="7.82048"><ele>255.8</ele><time>2026-04-11T09:38:48.059Z</time></trkpt><trkpt lat="44.8743" lon="7.8206"><ele>254.6</ele><time>2026-04-11T09:38:49.059Z</time></trkpt><trkpt lat="44.8743267" lon="7.8207217"><ele>253.40000000000003</ele><time>2026-04-11T09:38:50.057Z</time></trkpt><trkpt lat="44.8743567" lon="7.820845"><ele>252.20000000000002</ele><time>2026-04-11T09:38:51.06Z</time></trkpt><trkpt lat="44.874385" lon="7.8209683"><ele>251.0</ele><time>2026-04-11T09:38:52.059Z</time></trkpt><trkpt lat="44.8744117" lon="7.8210867"><ele>251.00000000000003</ele><time>2026-04-11T09:38:53.059Z</time></trkpt><trkpt lat="44.8744367" lon="7.8212033"><ele>251.0</ele><time>2026-04-11T09:38:54.059Z</time></trkpt><trkpt lat="44.8744633" lon="7.8213217"><ele>251.0</ele><time>2026-04-11T09:38:55.059Z</time></trkpt><trkpt lat="44.8744883" lon="7.8214367"><ele>251.0</ele><time>2026-04-11T09:38:56.06Z</time></trkpt><trkpt lat="44.8745117" lon="7.8215483"><ele>251.00000000000003</ele><time>2026-04-11T09:38:57.06Z</time></trkpt><trkpt lat="44.8745317" lon="7.82166"><ele>251.0</ele><time>2026-04-11T09:38:58.06Z</time></trkpt><trkpt lat="44.874545" lon="7.821775"><ele>250.83333333333334</ele><time>2026-04-11T09:38:59.059Z</time></trkpt><trkpt lat="44.8745517" lon="7.82189"><ele>250.66666666666669</ele><time>2026-04-11T09:39:00.06Z</time></trkpt><trkpt lat="44.8745517" lon="7.8220017"><ele>250.5</ele><time>2026-04-11T09:39:01.062Z</time></trkpt><trkpt lat="44.8745483" lon="7.822115"><ele>250.33333333333331</ele><time>2026-04-11T09:39:02.06Z</time></trkpt><trkpt lat="44.87454" lon="7.8222233"><ele>250.16666666666666</ele><time>2026-04-11T09:39:03.062Z</time></trkpt><trkpt lat="44.8745333" lon="7.8223283"><ele>250.0</ele><time>2026-04-11T09:39:04.062Z</time></trkpt><trkpt lat="44.8745267" lon="7.8224383"><ele>250.0</ele><time>2026-04-11T09:39:05.061Z</time></trkpt><trkpt lat="44.8745183" lon="7.8225467"><ele>250.0</ele><time>2026-04-11T09:39:06.063Z</time></trkpt><trkpt lat="44.8745167" lon="7.822655"><ele>250.0</ele><time>2026-04-11T09:39:07.063Z</time></trkpt><trkpt lat="44.874515" lon="7.82276"><ele>250.0</ele><time>2026-04-11T09:39:08.061Z</time></trkpt><trkpt lat="44.874515" lon="7.8228667"><ele>250.0</ele><time>2026-04-11T09:39:09.063Z</time></trkpt><trkpt lat="44.8745133" lon="7.822965"><ele>250.0</ele><time>2026-04-11T09:39:10.062Z</time></trkpt><trkpt lat="44.874515" lon="7.8230617"><ele>250.0</ele><time>2026-04-11T09:39:11.061Z</time></trkpt><trkpt lat="44.8745183" lon="7.8231517"><ele>250.6</ele><time>2026-04-11T09:39:12.062Z</time></trkpt><trkpt lat="44.874525" lon="7.8232417"><ele>251.2</ele><time>2026-04-11T09:39:13.062Z</time></trkpt><trkpt lat="44.8745483" lon="7.8234117"><ele>251.8</ele><time>2026-04-11T09:39:15.062Z</time></trkpt><trkpt lat="44.874585" lon="7.82357"><ele>252.4</ele><time>2026-04-11T09:39:17.06Z</time></trkpt><trkpt lat="44.87462" lon="7.823715"><ele>253.0</ele><time>2026-04-11T09:39:19.062Z</time></trkpt><trkpt lat="44.8746533" lon="7.8238517"><ele>254.16666666666666</ele><time>2026-04-11T09:39:21.063Z</time></trkpt><trkpt lat="44.874685" lon="7.8239733"><ele>255.33333333333331</ele><time>2026-04-11T09:39:23.059Z</time></trkpt><trkpt lat="44.874705" lon="7.824085"><ele>256.5</ele><time>2026-04-11T09:39:25.06Z</time></trkpt><trkpt lat="44.8747133" lon="7.8241817"><ele>257.6666666666667</ele><time>2026-04-11T09:39:27.061Z</time></trkpt><trkpt lat="44.8747467" lon="7.8243067"><ele>258.83333333333337</ele><time>2026-04-11T09:39:29.059Z</time></trkpt><trkpt lat="44.8747967" lon="7.824435"><ele>260.0</ele><time>2026-04-11T09:39:31.06Z</time></trkpt><trkpt lat="44.87484" lon="7.824565"><ele>260.8</ele><time>2026-04-11T09:39:33.061Z</time></trkpt><trkpt lat="44.8748883" lon="7.8246833"><ele>261.6</ele><time>2026-04-11T09:39:35.06Z</time></trkpt><trkpt lat="44.87493" lon="7.8247883"><ele>262.4</ele><time>2026-04-11T09:39:37.061Z</time></trkpt><trkpt lat="44.8749633" lon="7.8248933"><ele>263.2</ele><time>2026-04-11T09:39:39.063Z</time></trkpt><trkpt lat="44.875" lon="7.8250083"><ele>264.0</ele><time>2026-04-11T09:39:41.06Z</time></trkpt><trkpt lat="44.875045" lon="7.82514"><ele>264.0</ele><time>2026-04-11T09:39:43.062Z</time></trkpt><trkpt lat="44.8750867" lon="7.82528"><ele>264.0</ele><time>2026-04-11T09:39:45.062Z</time></trkpt><trkpt lat="44.8751417" lon="7.8254133"><ele>264.0</ele><time>2026-04-11T09:39:47.061Z</time></trkpt><trkpt lat="44.8752117" lon="7.8255317"><ele>264.0</ele><time>2026-04-11T09:39:49.06Z</time></trkpt><trkpt lat="44.875295" lon="7.825645"><ele>264.0</ele><time>2026-04-11T09:39:51.06Z</time></trkpt><trkpt lat="44.8753633" lon="7.8257517"><ele>264.0</ele><time>2026-04-11T09:39:53.059Z</time></trkpt><trkpt lat="44.8754233" lon="7.8258583"><ele>264.0</ele><time>2026-04-11T09:39:55.06Z</time></trkpt><trkpt lat="44.87545" lon="7.8259717"><ele>264.0</ele><time>2026-04-11T09:39:57.06Z</time></trkpt><trkpt lat="44.8754267" lon="7.8260933"><ele>264.0</ele><time>2026-04-11T09:39:59.06Z</time></trkpt><trkpt lat="44.8753767" lon="7.826255"><ele>264.0</ele><time>2026-04-11T09:40:01.06Z</time></trkpt><trkpt lat="44.8753583" lon="7.826345"><ele>263.25</ele><time>2026-04-11T09:40:02.06Z</time></trkpt><trkpt lat="44.8753283" lon="7.8265117"><ele>262.5</ele><time>2026-04-11T09:40:04.06Z</time></trkpt><trkpt lat="44.8752983" lon="7.8266767"><ele>261.75</ele><time>2026-04-11T09:40:06.062Z</time></trkpt><trkpt lat="44.87527" lon="7.82683"><ele>261.0</ele><time>2026-04-11T09:40:08.061Z</time></trkpt><trkpt lat="44.87523" lon="7.8269683"><ele>260.6</ele><time>2026-04-11T09:40:10.062Z</time></trkpt><trkpt lat="44.875175" lon="7.8270967"><ele>260.20000000000005</ele><time>2026-04-11T09:40:12.059Z</time></trkpt><trkpt lat="44.8751083" lon="7.8272133"><ele>259.79999999999995</ele><time>2026-04-11T09:40:14.059Z</time></trkpt><trkpt lat="44.8750417" lon="7.8273267"><ele>259.4</ele><time>2026-04-11T09:40:16.061Z</time></trkpt><trkpt lat="44.8749817" lon="7.8274517"><ele>259.0</ele><time>2026-04-11T09:40:18.06Z</time></trkpt><trkpt lat="44.8749333" lon="7.827585"><ele>260.0</ele><time>2026-04-11T09:40:20.057Z</time></trkpt><trkpt lat="44.874885" lon="7.82773"><ele>261.0</ele><time>2026-04-11T09:40:22.061Z</time></trkpt><trkpt lat="44.874845" lon="7.8278883"><ele>262.0</ele><time>2026-04-11T09:40:24.059Z</time></trkpt><trkpt lat="44.8748" lon="7.82805"><ele>263.0</ele><time>2026-04-11T09:40:26.06Z</time></trkpt><trkpt lat="44.8747383" lon="7.8282133"><ele>263.0</ele><time>2026-04-11T09:40:28.061Z</time></trkpt><trkpt lat="44.8747017" lon="7.8282967"><ele>263.0</ele><time>2026-04-11T09:40:29.059Z</time></trkpt><trkpt lat="44.8746667" lon="7.8283817"><ele>263.0</ele><time>2026-04-11T09:40:30.059Z</time></trkpt><trkpt lat="44.87463" lon="7.8284683"><ele>263.0</ele><time>2026-04-11T09:40:31.057Z</time></trkpt><trkpt lat="44.8745967" lon="7.828555"><ele>263.0</ele><time>2026-04-11T09:40:32.06Z</time></trkpt><trkpt lat="44.8745617" lon="7.82864"><ele>263.0</ele><time>2026-04-11T09:40:33.061Z</time></trkpt><trkpt lat="44.8745267" lon="7.8287217"><ele>263.0</ele><time>2026-04-11T09:40:34.06Z</time></trkpt><trkpt lat="44.87449" lon="7.8288067"><ele>263.1428571428571</ele><time>2026-04-11T09:40:35.06Z</time></trkpt><trkpt lat="44.8744517" lon="7.82889"><ele>263.2857142857143</ele><time>2026-04-11T09:40:36.061Z</time></trkpt><trkpt lat="44.8744183" lon="7.8289683"><ele>263.42857142857144</ele><time>2026-04-11T09:40:37.06Z</time></trkpt><trkpt lat="44.8743817" lon="7.8290433"><ele>263.57142857142856</ele><time>2026-04-11T09:40:38.061Z</time></trkpt><trkpt lat="44.8743433" lon="7.8291183"><ele>263.7142857142857</ele><time>2026-04-11T09:40:39.059Z</time></trkpt><trkpt lat="44.8743033" lon="7.82919"><ele>263.85714285714283</ele><time>2026-04-11T09:40:40.059Z</time></trkpt><trkpt lat="44.87426" lon="7.8292617"><ele>264.0</ele><time>2026-04-11T09:40:41.058Z</time></trkpt><trkpt lat="44.8742117" lon="7.8293333"><ele>264.0</ele><time>2026-04-11T09:40:42.059Z</time></trkpt><trkpt lat="44.8741617" lon="7.8294017"><ele>264.0</ele><time>2026-04-11T09:40:43.059Z</time></trkpt><trkpt lat="44.8741117" lon="7.8294683"><ele>264.0</ele><time>2026-04-11T09:40:44.06Z</time></trkpt><trkpt lat="44.87406" lon="7.8295333"><ele>264.0</ele><time>2026-04-11T09:40:45.06Z</time></trkpt><trkpt lat="44.8740117" lon="7.8295983"><ele>264.0</ele><time>2026-04-11T09:40:46.059Z</time></trkpt><trkpt lat="44.8739633" lon="7.8296633"><ele>264.0</ele><time>2026-04-11T09:40:47.058Z</time></trkpt><trkpt lat="44.8739133" lon="7.8297333"><ele>264.0</ele><time>2026-04-11T09:40:48.061Z</time></trkpt><trkpt lat="44.8738683" lon="7.8298033"><ele>264.0</ele><time>2026-04-11T09:40:49.059Z</time></trkpt><trkpt lat="44.873825" lon="7.8298733"><ele>264.0</ele><time>2026-04-11T09:40:50.059Z</time></trkpt><trkpt lat="44.87378" lon="7.8299517"><ele>264.0</ele><time>2026-04-11T09:40:51.06Z</time></trkpt><trkpt lat="44.8737383" lon="7.830025"><ele>264.0</ele><time>2026-04-11T09:40:52.061Z</time></trkpt><trkpt lat="44.8736983" lon="7.8300983"><ele>264.0</ele><time>2026-04-11T09:40:53.064Z</time></trkpt><trkpt lat="44.8736617" lon="7.8301783"><ele>264.0</ele><time>2026-04-11T09:40:54.061Z</time></trkpt><trkpt lat="44.8736317" lon="7.83026"><ele>264.0</ele><time>2026-04-11T09:40:55.061Z</time></trkpt><trkpt lat="44.8736033" lon="7.8303433"><ele>264.0</ele><time>2026-04-11T09:40:56.061Z</time></trkpt><trkpt lat="44.8735733" lon="7.8304283"><ele>264.0</ele><time>2026-04-11T09:40:57.059Z</time></trkpt><trkpt lat="44.873545" lon="7.8305083"><ele>264.0</ele><time>2026-04-11T09:40:58.059Z</time></trkpt><trkpt lat="44.8734983" lon="7.8306667"><ele>264.0</ele><time>2026-04-11T09:41:00.061Z</time></trkpt><trkpt lat="44.8734483" lon="7.830825"><ele>264.0</ele><time>2026-04-11T09:41:02.06Z</time></trkpt><trkpt lat="44.8734317" lon="7.8309233"><ele>264.0</ele><time>2026-04-11T09:41:03.056Z</time></trkpt><trkpt lat="44.8734367" lon="7.831015"><ele>263.8333333333333</ele><time>2026-04-11T09:41:04.056Z</time></trkpt><trkpt lat="44.873475" lon="7.8310933"><ele>263.6666666666667</ele><time>2026-04-11T09:41:05.056Z</time></trkpt><trkpt lat="44.8735233" lon="7.8311567"><ele>263.5</ele><time>2026-04-11T09:41:06.058Z</time></trkpt><trkpt lat="44.8735833" lon="7.83119"><ele>263.33333333333337</ele><time>2026-04-11T09:41:07.06Z</time></trkpt><trkpt lat="44.8736983" lon="7.8312383"><ele>263.1666666666667</ele><time>2026-04-11T09:41:09.057Z</time></trkpt><trkpt lat="44.8738033" lon="7.8313067"><ele>263.0</ele><time>2026-04-11T09:41:11.056Z</time></trkpt><trkpt lat="44.8738783" lon="7.8314183"><ele>263.0</ele><time>2026-04-11T09:41:13.06Z</time></trkpt><trkpt lat="44.87391" lon="7.8315867"><ele>263.0</ele><time>2026-04-11T09:41:15.057Z</time></trkpt><trkpt lat="44.8739083" lon="7.831685"><ele>263.0</ele><time>2026-04-11T09:41:16.059Z</time></trkpt><trkpt lat="44.873845" lon="7.8318117"><ele>263.0</ele><time>2026-04-11T09:41:18.061Z</time></trkpt><trkpt lat="44.87382" lon="7.8319433"><ele>263.0</ele><time>2026-04-11T09:41:20.059Z</time></trkpt><trkpt lat="44.873865" lon="7.8320383"><ele>263.2857142857143</ele><time>2026-04-11T09:41:22.059Z</time></trkpt><trkpt lat="44.8739333" lon="7.832075"><ele>263.57142857142856</ele><time>2026-04-11T09:41:24.059Z</time></trkpt><trkpt lat="44.8740017" lon="7.8321217"><ele>263.85714285714283</ele><time>2026-04-11T09:41:26.065Z</time></trkpt><trkpt lat="44.87407" lon="7.8321667"><ele>264.1428571428571</ele><time>2026-04-11T09:41:28.06Z</time></trkpt><trkpt lat="44.8741333" lon="7.8322067"><ele>264.42857142857144</ele><time>2026-04-11T09:41:30.061Z</time></trkpt><trkpt lat="44.8741933" lon="7.83225"><ele>264.71428571428567</ele><time>2026-04-11T09:41:32.061Z</time></trkpt><trkpt lat="44.8742717" lon="7.8322967"><ele>265.0</ele><time>2026-04-11T09:41:34.058Z</time></trkpt><trkpt lat="44.8743567" lon="7.8323483"><ele>265.0</ele><time>2026-04-11T09:41:36.058Z</time></trkpt><trkpt lat="44.8744383" lon="7.832395"><ele>265.0</ele><time>2026-04-11T09:41:38.06Z</time></trkpt><trkpt lat="44.8745117" lon="7.8324417"><ele>265.0</ele><time>2026-04-11T09:41:40.059Z</time></trkpt><trkpt lat="44.8745883" lon="7.832495"><ele>265.0</ele><time>2026-04-11T09:41:42.061Z</time></trkpt><trkpt lat="44.8746667" lon="7.83254"><ele>265.0</ele><time>2026-04-11T09:41:44.058Z</time></trkpt><trkpt lat="44.8747467" lon="7.8325917"><ele>265.0</ele><time>2026-04-11T09:41:46.061Z</time></trkpt><trkpt lat="44.8748283" lon="7.8326467"><ele>265.2</ele><time>2026-04-11T09:41:48.059Z</time></trkpt><trkpt lat="44.8749167" lon="7.8327033"><ele>265.4</ele><time>2026-04-11T09:41:50.061Z</time></trkpt><trkpt lat="44.8750083" lon="7.832755"><ele>265.6</ele><time>2026-04-11T09:41:52.06Z</time></trkpt><trkpt lat="44.8751067" lon="7.8328083"><ele>265.8</ele><time>2026-04-11T09:41:54.06Z</time></trkpt><trkpt lat="44.8752067" lon="7.8328667"><ele>266.0</ele><time>2026-04-11T09:41:56.056Z</time></trkpt><trkpt lat="44.8753083" lon="7.8329367"><ele>265.0</ele><time>2026-04-11T09:41:58.06Z</time></trkpt><trkpt lat="44.8754117" lon="7.83301"><ele>264.0</ele><time>2026-04-11T09:42:00.056Z</time></trkpt><trkpt lat="44.8755083" lon="7.8330817"><ele>263.0</ele><time>2026-04-11T09:42:02.061Z</time></trkpt><trkpt lat="44.875615" lon="7.8331533"><ele>262.0</ele><time>2026-04-11T09:42:04.059Z</time></trkpt><trkpt lat="44.8757283" lon="7.833225"><ele>262.0</ele><time>2026-04-11T09:42:06.06Z</time></trkpt><trkpt lat="44.8758433" lon="7.83329"><ele>262.0</ele><time>2026-04-11T09:42:08.061Z</time></trkpt><trkpt lat="44.8759017" lon="7.8333233"><ele>262.0</ele><time>2026-04-11T09:42:09.061Z</time></trkpt><trkpt lat="44.8760117" lon="7.8333933"><ele>262.0</ele><time>2026-04-11T09:42:11.06Z</time></trkpt><trkpt lat="44.8761233" lon="7.83346"><ele>262.0</ele><time>2026-04-11T09:42:13.062Z</time></trkpt><trkpt lat="44.8761817" lon="7.833495"><ele>262.3333333333333</ele><time>2026-04-11T09:42:14.061Z</time></trkpt><trkpt lat="44.8762967" lon="7.8335667"><ele>262.66666666666663</ele><time>2026-04-11T09:42:16.061Z</time></trkpt><trkpt lat="44.876355" lon="7.8336067"><ele>263.0</ele><time>2026-04-11T09:42:17.059Z</time></trkpt><trkpt lat="44.8764133" lon="7.8336433"><ele>263.3333333333333</ele><time>2026-04-11T09:42:18.061Z</time></trkpt><trkpt lat="44.8765267" lon="7.833715"><ele>263.6666666666667</ele><time>2026-04-11T09:42:20.064Z</time></trkpt><trkpt lat="44.8765867" lon="7.8337483"><ele>264.0</ele><time>2026-04-11T09:42:21.061Z</time></trkpt><trkpt lat="44.8767067" lon="7.8338183"><ele>263.7142857142857</ele><time>2026-04-11T09:42:23.062Z</time></trkpt><trkpt lat="44.87682" lon="7.8338883"><ele>263.42857142857144</ele><time>2026-04-11T09:42:25.061Z</time></trkpt><trkpt lat="44.8768783" lon="7.8339283"><ele>263.14285714285717</ele><time>2026-04-11T09:42:26.06Z</time></trkpt><trkpt lat="44.8769383" lon="7.833965"><ele>262.8571428571429</ele><time>2026-04-11T09:42:27.062Z</time></trkpt><trkpt lat="44.876995" lon="7.8340067"><ele>262.5714285714286</ele><time>2026-04-11T09:42:28.062Z</time></trkpt><trkpt lat="44.8770517" lon="7.8340467"><ele>262.2857142857143</ele><time>2026-04-11T09:42:29.06Z</time></trkpt><trkpt lat="44.8771133" lon="7.8340817"><ele>262.0</ele><time>2026-04-11T09:42:30.06Z</time></trkpt><trkpt lat="44.877175" lon="7.834115"><ele>262.0</ele><time>2026-04-11T09:42:31.062Z</time></trkpt><trkpt lat="44.8772383" lon="7.834155"><ele>262.0</ele><time>2026-04-11T09:42:32.061Z</time></trkpt><trkpt lat="44.8773017" lon="7.8341933"><ele>262.0</ele><time>2026-04-11T09:42:33.061Z</time></trkpt><trkpt lat="44.8773633" lon="7.8342367"><ele>262.0</ele><time>2026-04-11T09:42:34.061Z</time></trkpt><trkpt lat="44.8774267" lon="7.8342783"><ele>262.0</ele><time>2026-04-11T09:42:35.059Z</time></trkpt><trkpt lat="44.8774883" lon="7.8343183"><ele>262.0</ele><time>2026-04-11T09:42:36.062Z</time></trkpt><trkpt lat="44.87755" lon="7.8343567"><ele>262.0</ele><time>2026-04-11T09:42:37.06Z</time></trkpt><trkpt lat="44.8776083" lon="7.834395"><ele>261.5</ele><time>2026-04-11T09:42:38.059Z</time></trkpt><trkpt lat="44.8776683" lon="7.8344317"><ele>261.0</ele><time>2026-04-11T09:42:39.06Z</time></trkpt><trkpt lat="44.8777267" lon="7.8344667"><ele>260.5</ele><time>2026-04-11T09:42:40.059Z</time></trkpt><trkpt lat="44.8778383" lon="7.8345283"><ele>260.0</ele><time>2026-04-11T09:42:42.06Z</time></trkpt><trkpt lat="44.8779567" lon="7.8345883"><ele>259.5</ele><time>2026-04-11T09:42:44.062Z</time></trkpt><trkpt lat="44.8780167" lon="7.8346217"><ele>259.0</ele><time>2026-04-11T09:42:45.062Z</time></trkpt><trkpt lat="44.878075" lon="7.8346617"><ele>259.0</ele><time>2026-04-11T09:42:46.06Z</time></trkpt><trkpt lat="44.8781317" lon="7.8347067"><ele>259.0</ele><time>2026-04-11T09:42:47.06Z</time></trkpt><trkpt lat="44.8781867" lon="7.8347533"><ele>259.0</ele><time>2026-04-11T09:42:48.059Z</time></trkpt><trkpt lat="44.8782467" lon="7.8347933"><ele>259.0</ele><time>2026-04-11T09:42:49.061Z</time></trkpt><trkpt lat="44.8783083" lon="7.8348317"><ele>259.0</ele><time>2026-04-11T09:42:50.062Z</time></trkpt><trkpt lat="44.8783667" lon="7.8348733"><ele>259.0</ele><time>2026-04-11T09:42:51.062Z</time></trkpt><trkpt lat="44.8784267" lon="7.8349167"><ele>259.0</ele><time>2026-04-11T09:42:52.065Z</time></trkpt><trkpt lat="44.8784867" lon="7.8349583"><ele>259.0</ele><time>2026-04-11T09:42:53.061Z</time></trkpt><trkpt lat="44.87855" lon="7.8349967"><ele>259.0</ele><time>2026-04-11T09:42:54.061Z</time></trkpt><trkpt lat="44.87861" lon="7.8350333"><ele>259.0</ele><time>2026-04-11T09:42:55.061Z</time></trkpt><trkpt lat="44.8786717" lon="7.8350717"><ele>259.0</ele><time>2026-04-11T09:42:56.063Z</time></trkpt><trkpt lat="44.8787883" lon="7.8351433"><ele>259.0</ele><time>2026-04-11T09:42:58.062Z</time></trkpt><trkpt lat="44.8788467" lon="7.8351783"><ele>259.0</ele><time>2026-04-11T09:42:59.06Z</time></trkpt><trkpt lat="44.8789033" lon="7.8352183"><ele>259.0</ele><time>2026-04-11T09:43:00.06Z</time></trkpt><trkpt lat="44.8790183" lon="7.83529"><ele>259.0</ele><time>2026-04-11T09:43:02.06Z</time></trkpt><trkpt lat="44.8791317" lon="7.835365"><ele>259.0</ele><time>2026-04-11T09:43:04.06Z</time></trkpt><trkpt lat="44.879255" lon="7.8353883"><ele>259.0</ele><time>2026-04-11T09:43:06.059Z</time></trkpt><trkpt lat="44.8793767" lon="7.8353383"><ele>258.42857142857144</ele><time>2026-04-11T09:43:08.061Z</time></trkpt><trkpt lat="44.8794333" lon="7.8352933"><ele>257.8571428571429</ele><time>2026-04-11T09:43:09.06Z</time></trkpt><trkpt lat="44.87949" lon="7.835245"><ele>257.2857142857143</ele><time>2026-04-11T09:43:10.061Z</time></trkpt><trkpt lat="44.879545" lon="7.8351933"><ele>256.7142857142857</ele><time>2026-04-11T09:43:11.061Z</time></trkpt><trkpt lat="44.8795983" lon="7.83514"><ele>256.14285714285717</ele><time>2026-04-11T09:43:12.06Z</time></trkpt><trkpt lat="44.87965" lon="7.8350817"><ele>255.57142857142858</ele><time>2026-04-11T09:43:13.06Z</time></trkpt><trkpt lat="44.8797017" lon="7.8350183"><ele>255.0</ele><time>2026-04-11T09:43:14.061Z</time></trkpt><trkpt lat="44.87975" lon="7.83495"><ele>255.0</ele><time>2026-04-11T09:43:15.06Z</time></trkpt><trkpt lat="44.879795" lon="7.834885"><ele>255.0</ele><time>2026-04-11T09:43:16.06Z</time></trkpt><trkpt lat="44.879835" lon="7.834815"><ele>255.0</ele><time>2026-04-11T09:43:17.06Z</time></trkpt><trkpt lat="44.8798717" lon="7.83474"><ele>255.0</ele><time>2026-04-11T09:43:18.062Z</time></trkpt><trkpt lat="44.8799417" lon="7.8345867"><ele>255.0</ele><time>2026-04-11T09:43:20.059Z</time></trkpt><trkpt lat="44.879985" lon="7.8345133"><ele>255.0</ele><time>2026-04-11T09:43:21.06Z</time></trkpt><trkpt lat="44.88004" lon="7.834455"><ele>255.33333333333334</ele><time>2026-04-11T09:43:22.059Z</time></trkpt><trkpt lat="44.8801" lon="7.8344117"><ele>255.66666666666669</ele><time>2026-04-11T09:43:23.059Z</time></trkpt><trkpt lat="44.8801633" lon="7.8343867"><ele>256.0</ele><time>2026-04-11T09:43:24.061Z</time></trkpt><trkpt lat="44.8802283" lon="7.8343783"><ele>256.33333333333337</ele><time>2026-04-11T09:43:25.062Z</time></trkpt><trkpt lat="44.880295" lon="7.834395"><ele>256.6666666666667</ele><time>2026-04-11T09:43:26.061Z</time></trkpt><trkpt lat="44.8804167" lon="7.834455"><ele>257.0</ele><time>2026-04-11T09:43:28.059Z</time></trkpt><trkpt lat="44.88048" lon="7.8344967"><ele>257.0</ele><time>2026-04-11T09:43:29.06Z</time></trkpt><trkpt lat="44.8805367" lon="7.8345467"><ele>257.0</ele><time>2026-04-11T09:43:30.06Z</time></trkpt><trkpt lat="44.8805933" lon="7.8345967"><ele>257.0</ele><time>2026-04-11T09:43:31.061Z</time></trkpt><trkpt lat="44.88065" lon="7.8346517"><ele>257.0</ele><time>2026-04-11T09:43:32.059Z</time></trkpt><trkpt lat="44.880705" lon="7.8347083"><ele>257.0</ele><time>2026-04-11T09:43:33.061Z</time></trkpt><trkpt lat="44.8807633" lon="7.8347617"><ele>257.0</ele><time>2026-04-11T09:43:34.061Z</time></trkpt><trkpt lat="44.880825" lon="7.83481"><ele>257.0</ele><time>2026-04-11T09:43:35.061Z</time></trkpt><trkpt lat="44.880885" lon="7.8348617"><ele>256.83333333333337</ele><time>2026-04-11T09:43:36.059Z</time></trkpt><trkpt lat="44.8809533" lon="7.8349183"><ele>256.6666666666667</ele><time>2026-04-11T09:43:37.06Z</time></trkpt><trkpt lat="44.8810183" lon="7.8349733"><ele>256.5</ele><time>2026-04-11T09:43:38.059Z</time></trkpt><trkpt lat="44.8810883" lon="7.83503"><ele>256.3333333333333</ele><time>2026-04-11T09:43:39.061Z</time></trkpt><trkpt lat="44.8811567" lon="7.8350833"><ele>256.16666666666663</ele><time>2026-04-11T09:43:40.061Z</time></trkpt><trkpt lat="44.8812283" lon="7.83514"><ele>256.0</ele><time>2026-04-11T09:43:41.058Z</time></trkpt><trkpt lat="44.8813033" lon="7.8351967"><ele>255.83333333333331</ele><time>2026-04-11T09:43:42.061Z</time></trkpt><trkpt lat="44.881375" lon="7.8352517"><ele>255.66666666666666</ele><time>2026-04-11T09:43:43.061Z</time></trkpt><trkpt lat="44.8814483" lon="7.8353067"><ele>255.5</ele><time>2026-04-11T09:43:44.059Z</time></trkpt><trkpt lat="44.8815217" lon="7.8353633"><ele>255.33333333333331</ele><time>2026-04-11T09:43:45.062Z</time></trkpt><trkpt lat="44.8815917" lon="7.8354217"><ele>255.16666666666666</ele><time>2026-04-11T09:43:46.061Z</time></trkpt><trkpt lat="44.8816617" lon="7.8354767"><ele>255.0</ele><time>2026-04-11T09:43:47.06Z</time></trkpt><trkpt lat="44.88173" lon="7.8355283"><ele>254.33333333333334</ele><time>2026-04-11T09:43:48.06Z</time></trkpt><trkpt lat="44.8817933" lon="7.8355783"><ele>253.66666666666669</ele><time>2026-04-11T09:43:49.06Z</time></trkpt><trkpt lat="44.8818633" lon="7.8356283"><ele>253.0</ele><time>2026-04-11T09:43:50.059Z</time></trkpt><trkpt lat="44.88193" lon="7.8356767"><ele>252.33333333333334</ele><time>2026-04-11T09:43:51.061Z</time></trkpt><trkpt lat="44.8819967" lon="7.83573"><ele>251.66666666666669</ele><time>2026-04-11T09:43:52.059Z</time></trkpt><trkpt lat="44.8820617" lon="7.8357833"><ele>251.0</ele><time>2026-04-11T09:43:53.059Z</time></trkpt><trkpt lat="44.8821267" lon="7.8358367"><ele>250.99999999999997</ele><time>2026-04-11T09:43:54.061Z</time></trkpt><trkpt lat="44.8821883" lon="7.8358883"><ele>251.0</ele><time>2026-04-11T09:43:55.061Z</time></trkpt><trkpt lat="44.8822483" lon="7.83594"><ele>250.99999999999997</ele><time>2026-04-11T09:43:56.063Z</time></trkpt><trkpt lat="44.8823117" lon="7.835985"><ele>250.99999999999997</ele><time>2026-04-11T09:43:57.061Z</time></trkpt><trkpt lat="44.8823783" lon="7.8360183"><ele>251.0</ele><time>2026-04-11T09:43:58.059Z</time></trkpt><trkpt lat="44.8824467" lon="7.8360333"><ele>250.99999999999997</ele><time>2026-04-11T09:43:59.062Z</time></trkpt><trkpt lat="44.8825117" lon="7.8360117"><ele>250.99999999999997</ele><time>2026-04-11T09:44:00.061Z</time></trkpt><trkpt lat="44.8825717" lon="7.83596"><ele>250.57142857142856</ele><time>2026-04-11T09:44:01.061Z</time></trkpt><trkpt lat="44.8826133" lon="7.83589"><ele>250.14285714285714</ele><time>2026-04-11T09:44:02.061Z</time></trkpt><trkpt lat="44.8826417" lon="7.8358033"><ele>249.71428571428572</ele><time>2026-04-11T09:44:03.06Z</time></trkpt><trkpt lat="44.88267" lon="7.8357167"><ele>249.28571428571428</ele><time>2026-04-11T09:44:04.061Z</time></trkpt><trkpt lat="44.8826967" lon="7.83563"><ele>248.8571428571429</ele><time>2026-04-11T09:44:05.06Z</time></trkpt><trkpt lat="44.8827217" lon="7.8355433"><ele>248.42857142857144</ele><time>2026-04-11T09:44:06.062Z</time></trkpt><trkpt lat="44.88275" lon="7.8354533"><ele>248.0</ele><time>2026-04-11T09:44:07.059Z</time></trkpt><trkpt lat="44.8827783" lon="7.83537"><ele>248.0</ele><time>2026-04-11T09:44:08.063Z</time></trkpt><trkpt lat="44.882805" lon="7.8352883"><ele>248.0</ele><time>2026-04-11T09:44:09.062Z</time></trkpt><trkpt lat="44.8828683" lon="7.8351683"><ele>248.0</ele><time>2026-04-11T09:44:11.06Z</time></trkpt><trkpt lat="44.882955" lon="7.83515"><ele>248.0</ele><time>2026-04-11T09:44:13.063Z</time></trkpt><trkpt lat="44.8830417" lon="7.83522"><ele>248.0</ele><time>2026-04-11T09:44:15.059Z</time></trkpt><trkpt lat="44.8831433" lon="7.8353067"><ele>248.0</ele><time>2026-04-11T09:44:17.059Z</time></trkpt><trkpt lat="44.8832533" lon="7.8353833"><ele>248.0</ele><time>2026-04-11T09:44:19.061Z</time></trkpt><trkpt lat="44.8833633" lon="7.835465"><ele>248.0</ele><time>2026-04-11T09:44:21.061Z</time></trkpt><trkpt lat="44.883475" lon="7.835545"><ele>248.0</ele><time>2026-04-11T09:44:23.059Z</time></trkpt><trkpt lat="44.88359" lon="7.8356233"><ele>248.33333333333334</ele><time>2026-04-11T09:44:25.059Z</time></trkpt><trkpt lat="44.88365" lon="7.83566"><ele>248.66666666666669</ele><time>2026-04-11T09:44:26.06Z</time></trkpt><trkpt lat="44.88371" lon="7.8356933"><ele>249.0</ele><time>2026-04-11T09:44:27.061Z</time></trkpt><trkpt lat="44.88377" lon="7.8357283"><ele>249.33333333333331</ele><time>2026-04-11T09:44:28.061Z</time></trkpt><trkpt lat="44.8838317" lon="7.8357633"><ele>249.66666666666666</ele><time>2026-04-11T09:44:29.058Z</time></trkpt><trkpt lat="44.883945" lon="7.8358433"><ele>250.0</ele><time>2026-04-11T09:44:31.061Z</time></trkpt><trkpt lat="44.8840017" lon="7.835885"><ele>250.0</ele><time>2026-04-11T09:44:32.062Z</time></trkpt><trkpt lat="44.88406" lon="7.8359233"><ele>250.0</ele><time>2026-04-11T09:44:33.062Z</time></trkpt><trkpt lat="44.88417" lon="7.8359967"><ele>250.0</ele><time>2026-04-11T09:44:35.059Z</time></trkpt><trkpt lat="44.8842767" lon="7.83606"><ele>250.0</ele><time>2026-04-11T09:44:37.061Z</time></trkpt><trkpt lat="44.8843917" lon="7.8361083"><ele>250.0</ele><time>2026-04-11T09:44:39.059Z</time></trkpt><trkpt lat="44.8844583" lon="7.836105"><ele>250.42857142857142</ele><time>2026-04-11T09:44:40.061Z</time></trkpt><trkpt lat="44.8845233" lon="7.8360967"><ele>250.8571428571429</ele><time>2026-04-11T09:44:41.057Z</time></trkpt><trkpt lat="44.8845883" lon="7.83608"><ele>251.2857142857143</ele><time>2026-04-11T09:44:42.06Z</time></trkpt><trkpt lat="44.884655" lon="7.8360583"><ele>251.71428571428572</ele><time>2026-04-11T09:44:43.062Z</time></trkpt><trkpt lat="44.8847183" lon="7.8360317"><ele>252.14285714285717</ele><time>2026-04-11T09:44:44.062Z</time></trkpt><trkpt lat="44.8847817" lon="7.8360067"><ele>252.5714285714286</ele><time>2026-04-11T09:44:45.061Z</time></trkpt><trkpt lat="44.8848433" lon="7.8359833"><ele>253.00000000000003</ele><time>2026-04-11T09:44:46.059Z</time></trkpt><trkpt lat="44.8849067" lon="7.8359583"><ele>253.00000000000003</ele><time>2026-04-11T09:44:47.061Z</time></trkpt><trkpt lat="44.88497" lon="7.8359317"><ele>253.0</ele><time>2026-04-11T09:44:48.062Z</time></trkpt><trkpt lat="44.885035" lon="7.8359"><ele>253.00000000000003</ele><time>2026-04-11T09:44:49.062Z</time></trkpt><trkpt lat="44.8850983" lon="7.8358683"><ele>253.00000000000003</ele><time>2026-04-11T09:44:50.061Z</time></trkpt><trkpt lat="44.8851617" lon="7.8358367"><ele>253.0</ele><time>2026-04-11T09:44:51.062Z</time></trkpt><trkpt lat="44.8852233" lon="7.835805"><ele>253.00000000000003</ele><time>2026-04-11T09:44:52.062Z</time></trkpt><trkpt lat="44.8852867" lon="7.835775"><ele>253.00000000000003</ele><time>2026-04-11T09:44:53.061Z</time></trkpt><trkpt lat="44.88535" lon="7.8357433"><ele>252.71428571428575</ele><time>2026-04-11T09:44:54.063Z</time></trkpt><trkpt lat="44.8854133" lon="7.8357133"><ele>252.42857142857144</ele><time>2026-04-11T09:44:55.061Z</time></trkpt><trkpt lat="44.885475" lon="7.8356883"><ele>252.14285714285714</ele><time>2026-04-11T09:44:56.062Z</time></trkpt><trkpt lat="44.88554" lon="7.8356683"><ele>251.85714285714286</ele><time>2026-04-11T09:44:57.061Z</time></trkpt><trkpt lat="44.885605" lon="7.8356517"><ele>251.57142857142856</ele><time>2026-04-11T09:44:58.062Z</time></trkpt><trkpt lat="44.88567" lon="7.8356433"><ele>251.28571428571425</ele><time>2026-04-11T09:44:59.061Z</time></trkpt><trkpt lat="44.885735" lon="7.8356417"><ele>250.99999999999997</ele><time>2026-04-11T09:45:00.062Z</time></trkpt><trkpt lat="44.8858" lon="7.8356383"><ele>250.99999999999997</ele><time>2026-04-11T09:45:01.06Z</time></trkpt><trkpt lat="44.885865" lon="7.8356383"><ele>251.0</ele><time>2026-04-11T09:45:02.063Z</time></trkpt><trkpt lat="44.8859317" lon="7.8356383"><ele>250.99999999999997</ele><time>2026-04-11T09:45:03.061Z</time></trkpt><trkpt lat="44.8859983" lon="7.8356383"><ele>250.99999999999997</ele><time>2026-04-11T09:45:04.062Z</time></trkpt><trkpt lat="44.8860633" lon="7.835635"><ele>251.0</ele><time>2026-04-11T09:45:05.059Z</time></trkpt><trkpt lat="44.88613" lon="7.83563"><ele>250.99999999999997</ele><time>2026-04-11T09:45:06.06Z</time></trkpt><trkpt lat="44.886195" lon="7.8356267"><ele>250.99999999999997</ele><time>2026-04-11T09:45:07.061Z</time></trkpt><trkpt lat="44.88626" lon="7.835625"><ele>251.50000000000003</ele><time>2026-04-11T09:45:08.06Z</time></trkpt><trkpt lat="44.8863833" lon="7.8356283"><ele>252.0</ele><time>2026-04-11T09:45:10.062Z</time></trkpt><trkpt lat="44.8865067" lon="7.8356233"><ele>252.5</ele><time>2026-04-11T09:45:12.061Z</time></trkpt><trkpt lat="44.88657" lon="7.8356183"><ele>253.0</ele><time>2026-04-11T09:45:13.061Z</time></trkpt><trkpt lat="44.8866333" lon="7.8356133"><ele>253.50000000000003</ele><time>2026-04-11T09:45:14.059Z</time></trkpt><trkpt lat="44.8866983" lon="7.8356083"><ele>254.0</ele><time>2026-04-11T09:45:15.06Z</time></trkpt><trkpt lat="44.8868233" lon="7.835595"><ele>254.28571428571428</ele><time>2026-04-11T09:45:17.058Z</time></trkpt><trkpt lat="44.8868867" lon="7.835585"><ele>254.57142857142856</ele><time>2026-04-11T09:45:18.063Z</time></trkpt><trkpt lat="44.8870083" lon="7.8355617"><ele>254.85714285714283</ele><time>2026-04-11T09:45:20.061Z</time></trkpt><trkpt lat="44.88707" lon="7.8355433"><ele>255.14285714285714</ele><time>2026-04-11T09:45:21.061Z</time></trkpt><trkpt lat="44.8871367" lon="7.83552"><ele>255.4285714285714</ele><time>2026-04-11T09:45:22.061Z</time></trkpt><trkpt lat="44.8872" lon="7.8355017"><ele>255.7142857142857</ele><time>2026-04-11T09:45:23.059Z</time></trkpt><trkpt lat="44.8872633" lon="7.8354833"><ele>256.0</ele><time>2026-04-11T09:45:24.061Z</time></trkpt><trkpt lat="44.8873267" lon="7.8354667"><ele>256.0</ele><time>2026-04-11T09:45:25.062Z</time></trkpt><trkpt lat="44.8874417" lon="7.8354183"><ele>256.0</ele><time>2026-04-11T09:45:27.061Z</time></trkpt><trkpt lat="44.8875567" lon="7.8353467"><ele>256.0</ele><time>2026-04-11T09:45:29.058Z</time></trkpt><trkpt lat="44.8876583" lon="7.8352433"><ele>256.0</ele><time>2026-04-11T09:45:31.058Z</time></trkpt><trkpt lat="44.8877467" lon="7.83513"><ele>255.25</ele><time>2026-04-11T09:45:33.061Z</time></trkpt><trkpt lat="44.8878267" lon="7.83502"><ele>254.5</ele><time>2026-04-11T09:45:35.061Z</time></trkpt><trkpt lat="44.8879067" lon="7.834915"><ele>253.75</ele><time>2026-04-11T09:45:37.064Z</time></trkpt><trkpt lat="44.8879933" lon="7.8348"><ele>253.0</ele><time>2026-04-11T09:45:39.06Z</time></trkpt><trkpt lat="44.8880817" lon="7.8346933"><ele>253.0</ele><time>2026-04-11T09:45:41.059Z</time></trkpt><trkpt lat="44.8881733" lon="7.8345967"><ele>253.0</ele><time>2026-04-11T09:45:43.06Z</time></trkpt><trkpt lat="44.8882683" lon="7.8344983"><ele>253.0</ele><time>2026-04-11T09:45:45.06Z</time></trkpt><trkpt lat="44.8883717" lon="7.8344183"><ele>253.0</ele><time>2026-04-11T09:45:47.06Z</time></trkpt><trkpt lat="44.888475" lon="7.83435"><ele>253.5</ele><time>2026-04-11T09:45:49.061Z</time></trkpt><trkpt lat="44.8885867" lon="7.83429"><ele>254.0</ele><time>2026-04-11T09:45:51.061Z</time></trkpt><trkpt lat="44.888695" lon="7.8342267"><ele>254.5</ele><time>2026-04-11T09:45:53.064Z</time></trkpt><trkpt lat="44.88881" lon="7.8341717"><ele>255.0</ele><time>2026-04-11T09:45:55.061Z</time></trkpt><trkpt lat="44.8889267" lon="7.8341167"><ele>255.0</ele><time>2026-04-11T09:45:57.061Z</time></trkpt><trkpt lat="44.8890383" lon="7.8340483"><ele>255.0</ele><time>2026-04-11T09:45:59.059Z</time></trkpt><trkpt lat="44.8891483" lon="7.8339717"><ele>255.0</ele><time>2026-04-11T09:46:01.06Z</time></trkpt><trkpt lat="44.88926" lon="7.8338983"><ele>255.0</ele><time>2026-04-11T09:46:03.06Z</time></trkpt><trkpt lat="44.8893733" lon="7.8338183"><ele>255.0</ele><time>2026-04-11T09:46:05.061Z</time></trkpt><trkpt lat="44.8894833" lon="7.83373"><ele>255.0</ele><time>2026-04-11T09:46:07.061Z</time></trkpt><trkpt lat="44.889585" lon="7.8336383"><ele>255.0</ele><time>2026-04-11T09:46:09.06Z</time></trkpt><trkpt lat="44.889685" lon="7.833535"><ele>255.0</ele><time>2026-04-11T09:46:11.058Z</time></trkpt><trkpt lat="44.8897817" lon="7.8334317"><ele>255.0</ele><time>2026-04-11T09:46:13.062Z</time></trkpt><trkpt lat="44.8898817" lon="7.8333217"><ele>255.0</ele><time>2026-04-11T09:46:15.061Z</time></trkpt><trkpt lat="44.88998" lon="7.8332133"><ele>255.0</ele><time>2026-04-11T09:46:17.061Z</time></trkpt><trkpt lat="44.89003" lon="7.8331567"><ele>255.0</ele><time>2026-04-11T09:46:18.059Z</time></trkpt><trkpt lat="44.8901233" lon="7.8330367"><ele>255.0</ele><time>2026-04-11T09:46:20.062Z</time></trkpt><trkpt lat="44.89017" lon="7.8329767"><ele>254.71428571428572</ele><time>2026-04-11T09:46:21.06Z</time></trkpt><trkpt lat="44.8902183" lon="7.8329117"><ele>254.42857142857144</ele><time>2026-04-11T09:46:22.059Z</time></trkpt><trkpt lat="44.890265" lon="7.8328483"><ele>254.14285714285717</ele><time>2026-04-11T09:46:23.059Z</time></trkpt><trkpt lat="44.890315" lon="7.83279"><ele>253.8571428571429</ele><time>2026-04-11T09:46:24.06Z</time></trkpt><trkpt lat="44.8903633" lon="7.8327283"><ele>253.57142857142858</ele><time>2026-04-11T09:46:25.062Z</time></trkpt><trkpt lat="44.8904117" lon="7.8326683"><ele>253.28571428571433</ele><time>2026-04-11T09:46:26.06Z</time></trkpt><trkpt lat="44.8904617" lon="7.8326067"><ele>253.00000000000003</ele><time>2026-04-11T09:46:27.061Z</time></trkpt><trkpt lat="44.89051" lon="7.8325433"><ele>253.00000000000003</ele><time>2026-04-11T09:46:28.062Z</time></trkpt><trkpt lat="44.8905633" lon="7.8324833"><ele>253.0</ele><time>2026-04-11T09:46:29.059Z</time></trkpt><trkpt lat="44.890615" lon="7.83242"><ele>253.00000000000003</ele><time>2026-04-11T09:46:30.059Z</time></trkpt><trkpt lat="44.8906717" lon="7.83236"><ele>253.00000000000003</ele><time>2026-04-11T09:46:31.059Z</time></trkpt><trkpt lat="44.8907333" lon="7.8322967"><ele>253.0</ele><time>2026-04-11T09:46:32.059Z</time></trkpt><trkpt lat="44.89079" lon="7.8322333"><ele>253.00000000000003</ele><time>2026-04-11T09:46:33.06Z</time></trkpt><trkpt lat="44.8908483" lon="7.8321717"><ele>253.00000000000003</ele><time>2026-04-11T09:46:34.058Z</time></trkpt><trkpt lat="44.890905" lon="7.8321117"><ele>252.42857142857144</ele><time>2026-04-11T09:46:35.06Z</time></trkpt><trkpt lat="44.8909633" lon="7.8320483"><ele>251.85714285714286</ele><time>2026-04-11T09:46:36.06Z</time></trkpt><trkpt lat="44.8910217" lon="7.831985"><ele>251.28571428571428</ele><time>2026-04-11T09:46:37.061Z</time></trkpt><trkpt lat="44.89108" lon="7.8319217"><ele>250.71428571428572</ele><time>2026-04-11T09:46:38.062Z</time></trkpt><trkpt lat="44.8911383" lon="7.8318533"><ele>250.1428571428571</ele><time>2026-04-11T09:46:39.06Z</time></trkpt><trkpt lat="44.8911983" lon="7.8317867"><ele>249.57142857142856</ele><time>2026-04-11T09:46:40.058Z</time></trkpt><trkpt lat="44.8912567" lon="7.8317183"><ele>249.0</ele><time>2026-04-11T09:46:41.06Z</time></trkpt><trkpt lat="44.891315" lon="7.8316533"><ele>249.0</ele><time>2026-04-11T09:46:42.063Z</time></trkpt><trkpt lat="44.8913717" lon="7.8315883"><ele>248.99999999999997</ele><time>2026-04-11T09:46:43.059Z</time></trkpt><trkpt lat="44.89143" lon="7.8315267"><ele>249.0</ele><time>2026-04-11T09:46:44.06Z</time></trkpt><trkpt lat="44.8914867" lon="7.83146"><ele>249.0</ele><time>2026-04-11T09:46:45.063Z</time></trkpt><trkpt lat="44.8915433" lon="7.831395"><ele>248.99999999999997</ele><time>2026-04-11T09:46:46.061Z</time></trkpt><trkpt lat="44.8916017" lon="7.8313217"><ele>249.0</ele><time>2026-04-11T09:46:47.06Z</time></trkpt><trkpt lat="44.89166" lon="7.8312583"><ele>249.0</ele><time>2026-04-11T09:46:48.06Z</time></trkpt><trkpt lat="44.8917217" lon="7.8311983"><ele>248.66666666666666</ele><time>2026-04-11T09:46:49.059Z</time></trkpt><trkpt lat="44.8917867" lon="7.8311417"><ele>248.33333333333331</ele><time>2026-04-11T09:46:50.061Z</time></trkpt><trkpt lat="44.891855" lon="7.83109"><ele>248.0</ele><time>2026-04-11T09:46:51.061Z</time></trkpt><trkpt lat="44.891925" lon="7.8310467"><ele>247.66666666666666</ele><time>2026-04-11T09:46:52.059Z</time></trkpt><trkpt lat="44.891995" lon="7.8310117"><ele>247.33333333333331</ele><time>2026-04-11T09:46:53.059Z</time></trkpt><trkpt lat="44.8920667" lon="7.8309867"><ele>247.0</ele><time>2026-04-11T09:46:54.059Z</time></trkpt><trkpt lat="44.8921383" lon="7.8309667"><ele>246.85714285714286</ele><time>2026-04-11T09:46:55.059Z</time></trkpt><trkpt lat="44.8922117" lon="7.8309533"><ele>246.71428571428572</ele><time>2026-04-11T09:46:56.059Z</time></trkpt><trkpt lat="44.8922833" lon="7.8309417"><ele>246.57142857142858</ele><time>2026-04-11T09:46:57.059Z</time></trkpt><trkpt lat="44.8923567" lon="7.8309367"><ele>246.42857142857144</ele><time>2026-04-11T09:46:58.061Z</time></trkpt><trkpt lat="44.89243" lon="7.83093"><ele>246.28571428571428</ele><time>2026-04-11T09:46:59.058Z</time></trkpt><trkpt lat="44.8925033" lon="7.8309183"><ele>246.14285714285717</ele><time>2026-04-11T09:47:00.06Z</time></trkpt><trkpt lat="44.892575" lon="7.830905"><ele>246.00000000000003</ele><time>2026-04-11T09:47:01.059Z</time></trkpt><trkpt lat="44.8926483" lon="7.8308867"><ele>246.00000000000003</ele><time>2026-04-11T09:47:02.06Z</time></trkpt><trkpt lat="44.89272" lon="7.8308633"><ele>246.0</ele><time>2026-04-11T09:47:03.061Z</time></trkpt><trkpt lat="44.8927933" lon="7.8308383"><ele>246.00000000000003</ele><time>2026-04-11T09:47:04.059Z</time></trkpt><trkpt lat="44.892865" lon="7.8308167"><ele>246.00000000000003</ele><time>2026-04-11T09:47:05.06Z</time></trkpt><trkpt lat="44.8929333" lon="7.8308083"><ele>246.0</ele><time>2026-04-11T09:47:06.06Z</time></trkpt><trkpt lat="44.8930067" lon="7.8308233"><ele>246.00000000000003</ele><time>2026-04-11T09:47:07.06Z</time></trkpt><trkpt lat="44.8930783" lon="7.8308583"><ele>246.00000000000003</ele><time>2026-04-11T09:47:08.059Z</time></trkpt><trkpt lat="44.8931517" lon="7.8308983"><ele>246.00000000000003</ele><time>2026-04-11T09:47:09.063Z</time></trkpt><trkpt lat="44.89322" lon="7.8309383"><ele>246.0</ele><time>2026-04-11T09:47:10.059Z</time></trkpt><trkpt lat="44.8932883" lon="7.8309783"><ele>246.00000000000003</ele><time>2026-04-11T09:47:11.059Z</time></trkpt><trkpt lat="44.893355" lon="7.83101"><ele>246.00000000000003</ele><time>2026-04-11T09:47:12.061Z</time></trkpt><trkpt lat="44.8934183" lon="7.83104"><ele>246.0</ele><time>2026-04-11T09:47:13.063Z</time></trkpt><trkpt lat="44.8934833" lon="7.8310683"><ele>246.00000000000003</ele><time>2026-04-11T09:47:14.061Z</time></trkpt><trkpt lat="44.8935483" lon="7.8310933"><ele>246.00000000000003</ele><time>2026-04-11T09:47:15.062Z</time></trkpt><trkpt lat="44.8936117" lon="7.8311217"><ele>246.5714285714286</ele><time>2026-04-11T09:47:16.061Z</time></trkpt><trkpt lat="44.8936733" lon="7.831155"><ele>247.14285714285717</ele><time>2026-04-11T09:47:17.059Z</time></trkpt><trkpt lat="44.8937333" lon="7.8311917"><ele>247.71428571428572</ele><time>2026-04-11T09:47:18.063Z</time></trkpt><trkpt lat="44.893795" lon="7.8312233"><ele>248.2857142857143</ele><time>2026-04-11T09:47:19.063Z</time></trkpt><trkpt lat="44.8938583" lon="7.83125"><ele>248.8571428571429</ele><time>2026-04-11T09:47:20.057Z</time></trkpt><trkpt lat="44.89392" lon="7.8312767"><ele>249.42857142857142</ele><time>2026-04-11T09:47:21.061Z</time></trkpt><trkpt lat="44.8939833" lon="7.8313083"><ele>250.0</ele><time>2026-04-11T09:47:22.063Z</time></trkpt><trkpt lat="44.8940467" lon="7.8313433"><ele>249.99999999999997</ele><time>2026-04-11T09:47:23.062Z</time></trkpt><trkpt lat="44.8941117" lon="7.8313783"><ele>250.0</ele><time>2026-04-11T09:47:24.061Z</time></trkpt><trkpt lat="44.894175" lon="7.8314083"><ele>250.0</ele><time>2026-04-11T09:47:25.062Z</time></trkpt><trkpt lat="44.894295" lon="7.8314667"><ele>250.0</ele><time>2026-04-11T09:47:27.062Z</time></trkpt><trkpt lat="44.894355" lon="7.8314983"><ele>249.99999999999997</ele><time>2026-04-11T09:47:28.06Z</time></trkpt><trkpt lat="44.8944167" lon="7.831525"><ele>250.0</ele><time>2026-04-11T09:47:29.059Z</time></trkpt><trkpt lat="44.8944767" lon="7.8315583"><ele>250.0</ele><time>2026-04-11T09:47:30.059Z</time></trkpt><trkpt lat="44.89454" lon="7.8315917"><ele>250.0</ele><time>2026-04-11T09:47:31.061Z</time></trkpt><trkpt lat="44.8946033" lon="7.8316283"><ele>250.0</ele><time>2026-04-11T09:47:32.058Z</time></trkpt><trkpt lat="44.894665" lon="7.831665"><ele>250.0</ele><time>2026-04-11T09:47:33.06Z</time></trkpt><trkpt lat="44.89473" lon="7.8316967"><ele>250.0</ele><time>2026-04-11T09:47:34.059Z</time></trkpt><trkpt lat="44.8947983" lon="7.8317267"><ele>250.0</ele><time>2026-04-11T09:47:35.06Z</time></trkpt><trkpt lat="44.8948683" lon="7.8317433"><ele>250.0</ele><time>2026-04-11T09:47:36.06Z</time></trkpt><trkpt lat="44.8949433" lon="7.8317567"><ele>250.0</ele><time>2026-04-11T09:47:37.06Z</time></trkpt><trkpt lat="44.8950183" lon="7.8317617"><ele>250.0</ele><time>2026-04-11T09:47:38.06Z</time></trkpt><trkpt lat="44.8950967" lon="7.83176"><ele>250.0</ele><time>2026-04-11T09:47:39.061Z</time></trkpt><trkpt lat="44.8951717" lon="7.8317633"><ele>250.0</ele><time>2026-04-11T09:47:40.06Z</time></trkpt><trkpt lat="44.8952483" lon="7.8317717"><ele>250.0</ele><time>2026-04-11T09:47:41.061Z</time></trkpt><trkpt lat="44.89532" lon="7.8317767"><ele>250.0</ele><time>2026-04-11T09:47:42.06Z</time></trkpt><trkpt lat="44.8953917" lon="7.831785"><ele>250.0</ele><time>2026-04-11T09:47:43.06Z</time></trkpt><trkpt lat="44.89546" lon="7.83179"><ele>249.71428571428572</ele><time>2026-04-11T09:47:44.06Z</time></trkpt><trkpt lat="44.8955283" lon="7.8318"><ele>249.42857142857144</ele><time>2026-04-11T09:47:45.063Z</time></trkpt><trkpt lat="44.8955917" lon="7.8318183"><ele>249.14285714285717</ele><time>2026-04-11T09:47:46.061Z</time></trkpt><trkpt lat="44.8956617" lon="7.83184"><ele>248.85714285714286</ele><time>2026-04-11T09:47:47.059Z</time></trkpt><trkpt lat="44.8957383" lon="7.8318583"><ele>248.5714285714286</ele><time>2026-04-11T09:47:48.061Z</time></trkpt><trkpt lat="44.8958117" lon="7.8318367"><ele>248.2857142857143</ele><time>2026-04-11T09:47:49.06Z</time></trkpt><trkpt lat="44.8958433" lon="7.8317583"><ele>248.0</ele><time>2026-04-11T09:47:50.059Z</time></trkpt><trkpt lat="44.8958483" lon="7.8316433"><ele>247.71428571428572</ele><time>2026-04-11T09:47:51.059Z</time></trkpt><trkpt lat="44.895855" lon="7.831545"><ele>247.42857142857144</ele><time>2026-04-11T09:47:52.061Z</time></trkpt><trkpt lat="44.89587" lon="7.8314483"><ele>247.14285714285717</ele><time>2026-04-11T09:47:53.059Z</time></trkpt><trkpt lat="44.8958883" lon="7.8313533"><ele>246.8571428571429</ele><time>2026-04-11T09:47:54.058Z</time></trkpt><trkpt lat="44.8959083" lon="7.8312567"><ele>246.57142857142858</ele><time>2026-04-11T09:47:55.06Z</time></trkpt><trkpt lat="44.89593" lon="7.8311617"><ele>246.28571428571433</ele><time>2026-04-11T09:47:56.06Z</time></trkpt><trkpt lat="44.8959567" lon="7.8310717"><ele>246.00000000000003</ele><time>2026-04-11T09:47:57.06Z</time></trkpt><trkpt lat="44.8959867" lon="7.83099"><ele>245.8571428571429</ele><time>2026-04-11T09:47:58.059Z</time></trkpt><trkpt lat="44.89602" lon="7.8309133"><ele>245.71428571428572</ele><time>2026-04-11T09:47:59.059Z</time></trkpt><trkpt lat="44.89606" lon="7.83084"><ele>245.57142857142858</ele><time>2026-04-11T09:48:00.061Z</time></trkpt><trkpt lat="44.8961067" lon="7.8307633"><ele>245.42857142857144</ele><time>2026-04-11T09:48:01.061Z</time></trkpt><trkpt lat="44.8961533" lon="7.8306917"><ele>245.28571428571428</ele><time>2026-04-11T09:48:02.059Z</time></trkpt><trkpt lat="44.8962" lon="7.830615"><ele>245.14285714285714</ele><time>2026-04-11T09:48:03.06Z</time></trkpt><trkpt lat="44.8962433" lon="7.8305383"><ele>245.0</ele><time>2026-04-11T09:48:04.061Z</time></trkpt><trkpt lat="44.896285" lon="7.8304583"><ele>245.0</ele><time>2026-04-11T09:48:05.058Z</time></trkpt><trkpt lat="44.8963267" lon="7.830375"><ele>245.0</ele><time>2026-04-11T09:48:06.061Z</time></trkpt><trkpt lat="44.896365" lon="7.830285"><ele>245.0</ele><time>2026-04-11T09:48:07.06Z</time></trkpt><trkpt lat="44.8963983" lon="7.8301983"><ele>245.0</ele><time>2026-04-11T09:48:08.062Z</time></trkpt><trkpt lat="44.896425" lon="7.8301117"><ele>245.0</ele><time>2026-04-11T09:48:09.06Z</time></trkpt><trkpt lat="44.8964483" lon="7.830025"><ele>245.0</ele><time>2026-04-11T09:48:10.059Z</time></trkpt><trkpt lat="44.89647" lon="7.829935"><ele>245.0</ele><time>2026-04-11T09:48:11.061Z</time></trkpt><trkpt lat="44.89649" lon="7.82984"><ele>245.42857142857144</ele><time>2026-04-11T09:48:12.06Z</time></trkpt><trkpt lat="44.8964967" lon="7.8297417"><ele>245.85714285714286</ele><time>2026-04-11T09:48:13.062Z</time></trkpt><trkpt lat="44.896485" lon="7.829645"><ele>246.28571428571428</ele><time>2026-04-11T09:48:14.059Z</time></trkpt><trkpt lat="44.8964633" lon="7.8295517"><ele>246.71428571428572</ele><time>2026-04-11T09:48:15.06Z</time></trkpt><trkpt lat="44.896435" lon="7.8294667"><ele>247.14285714285717</ele><time>2026-04-11T09:48:16.06Z</time></trkpt><trkpt lat="44.8964017" lon="7.8293833"><ele>247.57142857142858</ele><time>2026-04-11T09:48:17.06Z</time></trkpt><trkpt lat="44.89637" lon="7.829305"><ele>248.0</ele><time>2026-04-11T09:48:18.062Z</time></trkpt><trkpt lat="44.8963217" lon="7.8291483"><ele>248.4</ele><time>2026-04-11T09:48:20.062Z</time></trkpt><trkpt lat="44.8962867" lon="7.8289967"><ele>248.8</ele><time>2026-04-11T09:48:22.06Z</time></trkpt><trkpt lat="44.896255" lon="7.82884"><ele>249.2</ele><time>2026-04-11T09:48:24.061Z</time></trkpt><trkpt lat="44.8962183" lon="7.8286717"><ele>249.6</ele><time>2026-04-11T09:48:26.061Z</time></trkpt><trkpt lat="44.8961983" lon="7.8285867"><ele>250.0</ele><time>2026-04-11T09:48:27.061Z</time></trkpt><trkpt lat="44.8961683" lon="7.8284317"><ele>249.99999999999997</ele><time>2026-04-11T09:48:29.059Z</time></trkpt><trkpt lat="44.8961367" lon="7.8283517"><ele>250.0</ele><time>2026-04-11T09:48:31.062Z</time></trkpt><trkpt lat="44.8962217" lon="7.8282867"><ele>250.0</ele><time>2026-04-11T09:48:33.061Z</time></trkpt><trkpt lat="44.8962883" lon="7.8282733"><ele>250.0</ele><time>2026-04-11T09:48:34.059Z</time></trkpt><trkpt lat="44.89636" lon="7.828255"><ele>249.99999999999997</ele><time>2026-04-11T09:48:35.059Z</time></trkpt><trkpt lat="44.896435" lon="7.8282383"><ele>250.0</ele><time>2026-04-11T09:48:36.06Z</time></trkpt><trkpt lat="44.8965083" lon="7.828225"><ele>249.99999999999997</ele><time>2026-04-11T09:48:37.061Z</time></trkpt><trkpt lat="44.8965817" lon="7.8282083"><ele>250.0</ele><time>2026-04-11T09:48:38.061Z</time></trkpt><trkpt lat="44.8966617" lon="7.82818"><ele>250.0</ele><time>2026-04-11T09:48:39.061Z</time></trkpt><trkpt lat="44.896735" lon="7.8281567"><ele>250.0</ele><time>2026-04-11T09:48:40.061Z</time></trkpt><trkpt lat="44.8968017" lon="7.828135"><ele>249.99999999999997</ele><time>2026-04-11T09:48:41.06Z</time></trkpt><trkpt lat="44.8969217" lon="7.8280717"><ele>250.0</ele><time>2026-04-11T09:48:43.061Z</time></trkpt><trkpt lat="44.897035" lon="7.828005"><ele>250.16666666666666</ele><time>2026-04-11T09:48:45.06Z</time></trkpt><trkpt lat="44.897145" lon="7.827935"><ele>250.33333333333331</ele><time>2026-04-11T09:48:47.061Z</time></trkpt><trkpt lat="44.897205" lon="7.8279"><ele>250.5</ele><time>2026-04-11T09:48:48.059Z</time></trkpt><trkpt lat="44.8972667" lon="7.827865"><ele>250.66666666666669</ele><time>2026-04-11T09:48:49.062Z</time></trkpt><trkpt lat="44.8973283" lon="7.8278317"><ele>250.83333333333334</ele><time>2026-04-11T09:48:50.06Z</time></trkpt><trkpt lat="44.8973933" lon="7.827805"><ele>251.0</ele><time>2026-04-11T09:48:51.062Z</time></trkpt><trkpt lat="44.8974567" lon="7.8277867"><ele>251.00000000000003</ele><time>2026-04-11T09:48:52.06Z</time></trkpt><trkpt lat="44.897525" lon="7.82778"><ele>251.0</ele><time>2026-04-11T09:48:53.059Z</time></trkpt><trkpt lat="44.897595" lon="7.827785"><ele>251.0</ele><time>2026-04-11T09:48:54.061Z</time></trkpt><trkpt lat="44.89767" lon="7.827795"><ele>251.0</ele><time>2026-04-11T09:48:55.061Z</time></trkpt><trkpt lat="44.8977467" lon="7.8278083"><ele>251.00000000000003</ele><time>2026-04-11T09:48:56.06Z</time></trkpt><trkpt lat="44.8978267" lon="7.8278217"><ele>251.0</ele><time>2026-04-11T09:48:57.058Z</time></trkpt><trkpt lat="44.897905" lon="7.8278333"><ele>250.1428571428571</ele><time>2026-04-11T09:48:58.06Z</time></trkpt><trkpt lat="44.8979833" lon="7.827835"><ele>249.28571428571428</ele><time>2026-04-11T09:48:59.058Z</time></trkpt><trkpt lat="44.8980617" lon="7.8278217"><ele>248.42857142857142</ele><time>2026-04-11T09:49:00.06Z</time></trkpt><trkpt lat="44.898135" lon="7.8278033"><ele>247.57142857142856</ele><time>2026-04-11T09:49:01.06Z</time></trkpt><trkpt lat="44.898205" lon="7.8277817"><ele>246.71428571428572</ele><time>2026-04-11T09:49:02.06Z</time></trkpt><trkpt lat="44.8982767" lon="7.8277567"><ele>245.85714285714286</ele><time>2026-04-11T09:49:03.06Z</time></trkpt><trkpt lat="44.8983467" lon="7.827735"><ele>245.0</ele><time>2026-04-11T09:49:04.061Z</time></trkpt><trkpt lat="44.8984217" lon="7.8277017"><ele>245.00000000000003</ele><time>2026-04-11T09:49:05.059Z</time></trkpt><trkpt lat="44.898495" lon="7.827665"><ele>245.0</ele><time>2026-04-11T09:49:06.059Z</time></trkpt><trkpt lat="44.89857" lon="7.827615"><ele>245.0</ele><time>2026-04-11T09:49:07.061Z</time></trkpt><trkpt lat="44.89864" lon="7.827555"><ele>245.0</ele><time>2026-04-11T09:49:08.06Z</time></trkpt><trkpt lat="44.898705" lon="7.8274883"><ele>245.00000000000003</ele><time>2026-04-11T09:49:09.061Z</time></trkpt><trkpt lat="44.898765" lon="7.8274133"><ele>245.0</ele><time>2026-04-11T09:49:10.061Z</time></trkpt><trkpt lat="44.8988183" lon="7.8273317"><ele>245.0</ele><time>2026-04-11T09:49:11.06Z</time></trkpt><trkpt lat="44.8988633" lon="7.82725"><ele>245.0</ele><time>2026-04-11T09:49:12.058Z</time></trkpt><trkpt lat="44.8989067" lon="7.827165"><ele>245.0</ele><time>2026-04-11T09:49:13.06Z</time></trkpt><trkpt lat="44.8989483" lon="7.82708"><ele>245.0</ele><time>2026-04-11T09:49:14.061Z</time></trkpt><trkpt lat="44.8989883" lon="7.8269933"><ele>245.0</ele><time>2026-04-11T09:49:15.059Z</time></trkpt><trkpt lat="44.8990317" lon="7.8269083"><ele>245.0</ele><time>2026-04-11T09:49:16.061Z</time></trkpt><trkpt lat="44.8990767" lon="7.8268267"><ele>245.0</ele><time>2026-04-11T09:49:17.056Z</time></trkpt><trkpt lat="44.899125" lon="7.826745"><ele>245.00000000000003</ele><time>2026-04-11T09:49:18.059Z</time></trkpt><trkpt lat="44.8991733" lon="7.8266617"><ele>245.0</ele><time>2026-04-11T09:49:19.058Z</time></trkpt><trkpt lat="44.8992217" lon="7.82658"><ele>245.0</ele><time>2026-04-11T09:49:20.059Z</time></trkpt><trkpt lat="44.8992733" lon="7.8265017"><ele>245.0</ele><time>2026-04-11T09:49:21.059Z</time></trkpt><trkpt lat="44.8993267" lon="7.826425"><ele>245.00000000000003</ele><time>2026-04-11T09:49:22.061Z</time></trkpt><trkpt lat="44.8993817" lon="7.8263483"><ele>245.0</ele><time>2026-04-11T09:49:23.058Z</time></trkpt><trkpt lat="44.8994383" lon="7.8262717"><ele>244.50000000000003</ele><time>2026-04-11T09:49:24.059Z</time></trkpt><trkpt lat="44.8994967" lon="7.8261967"><ele>244.0</ele><time>2026-04-11T09:49:25.062Z</time></trkpt><trkpt lat="44.899555" lon="7.8261217"><ele>243.5</ele><time>2026-04-11T09:49:26.059Z</time></trkpt><trkpt lat="44.8996133" lon="7.8260467"><ele>243.0</ele><time>2026-04-11T09:49:27.061Z</time></trkpt><trkpt lat="44.8996733" lon="7.82597"><ele>242.50000000000003</ele><time>2026-04-11T09:49:28.06Z</time></trkpt><trkpt lat="44.8997283" lon="7.825895"><ele>242.0</ele><time>2026-04-11T09:49:29.058Z</time></trkpt><trkpt lat="44.899785" lon="7.8258217"><ele>242.0</ele><time>2026-04-11T09:49:30.06Z</time></trkpt><trkpt lat="44.89984" lon="7.8257483"><ele>241.99999999999997</ele><time>2026-04-11T09:49:31.06Z</time></trkpt><trkpt lat="44.89989" lon="7.825675"><ele>242.0</ele><time>2026-04-11T09:49:32.06Z</time></trkpt><trkpt lat="44.8999417" lon="7.8255983"><ele>242.0</ele><time>2026-04-11T09:49:33.062Z</time></trkpt><trkpt lat="44.8999933" lon="7.8255217"><ele>241.99999999999997</ele><time>2026-04-11T09:49:34.058Z</time></trkpt><trkpt lat="44.9000467" lon="7.8254483"><ele>242.0</ele><time>2026-04-11T09:49:35.057Z</time></trkpt><trkpt lat="44.9001017" lon="7.8253783"><ele>242.0</ele><time>2026-04-11T09:49:36.061Z</time></trkpt><trkpt lat="44.90016" lon="7.8253133"><ele>242.14285714285714</ele><time>2026-04-11T09:49:37.059Z</time></trkpt><trkpt lat="44.9002183" lon="7.8252533"><ele>242.28571428571428</ele><time>2026-04-11T09:49:38.061Z</time></trkpt><trkpt lat="44.90028" lon="7.8251933"><ele>242.42857142857142</ele><time>2026-04-11T09:49:39.06Z</time></trkpt><trkpt lat="44.90034" lon="7.825135"><ele>242.57142857142856</ele><time>2026-04-11T09:49:40.06Z</time></trkpt><trkpt lat="44.9004017" lon="7.82508"><ele>242.71428571428572</ele><time>2026-04-11T09:49:41.061Z</time></trkpt><trkpt lat="44.9004667" lon="7.8250267"><ele>242.85714285714283</ele><time>2026-04-11T09:49:42.059Z</time></trkpt><trkpt lat="44.9005333" lon="7.824975"><ele>243.0</ele><time>2026-04-11T09:49:43.06Z</time></trkpt><trkpt lat="44.9005983" lon="7.8249217"><ele>243.0</ele><time>2026-04-11T09:49:44.059Z</time></trkpt><trkpt lat="44.9006633" lon="7.8248717"><ele>243.0</ele><time>2026-04-11T09:49:45.059Z</time></trkpt><trkpt lat="44.9007283" lon="7.8248267"><ele>243.0</ele><time>2026-04-11T09:49:46.06Z</time></trkpt><trkpt lat="44.9007933" lon="7.8247817"><ele>243.0</ele><time>2026-04-11T09:49:47.058Z</time></trkpt><trkpt lat="44.90086" lon="7.8247417"><ele>243.0</ele><time>2026-04-11T09:49:48.059Z</time></trkpt><trkpt lat="44.9009267" lon="7.8246967"><ele>243.0</ele><time>2026-04-11T09:49:49.06Z</time></trkpt><trkpt lat="44.900995" lon="7.824655"><ele>243.0</ele><time>2026-04-11T09:49:50.06Z</time></trkpt><trkpt lat="44.9010633" lon="7.8246183"><ele>242.57142857142856</ele><time>2026-04-11T09:49:51.06Z</time></trkpt><trkpt lat="44.9011317" lon="7.8245917"><ele>242.14285714285717</ele><time>2026-04-11T09:49:52.061Z</time></trkpt><trkpt lat="44.9012" lon="7.8245683"><ele>241.71428571428572</ele><time>2026-04-11T09:49:53.06Z</time></trkpt><trkpt lat="44.9012717" lon="7.8245467"><ele>241.28571428571428</ele><time>2026-04-11T09:49:54.06Z</time></trkpt><trkpt lat="44.9013433" lon="7.8245267"><ele>240.85714285714283</ele><time>2026-04-11T09:49:55.06Z</time></trkpt><trkpt lat="44.901415" lon="7.8245067"><ele>240.42857142857144</ele><time>2026-04-11T09:49:56.058Z</time></trkpt><trkpt lat="44.9014867" lon="7.824495"><ele>240.0</ele><time>2026-04-11T09:49:57.061Z</time></trkpt><trkpt lat="44.9015617" lon="7.8244783"><ele>240.0</ele><time>2026-04-11T09:49:58.059Z</time></trkpt><trkpt lat="44.9016333" lon="7.8244633"><ele>240.0</ele><time>2026-04-11T09:49:59.06Z</time></trkpt><trkpt lat="44.9017067" lon="7.824445"><ele>240.0</ele><time>2026-04-11T09:50:00.061Z</time></trkpt><trkpt lat="44.90178" lon="7.824425"><ele>240.0</ele><time>2026-04-11T09:50:01.063Z</time></trkpt><trkpt lat="44.9018533" lon="7.8244017"><ele>240.0</ele><time>2026-04-11T09:50:02.06Z</time></trkpt><trkpt lat="44.9019283" lon="7.82438"><ele>240.0</ele><time>2026-04-11T09:50:03.063Z</time></trkpt><trkpt lat="44.9020033" lon="7.824365"><ele>240.0</ele><time>2026-04-11T09:50:04.06Z</time></trkpt><trkpt lat="44.9020783" lon="7.8243517"><ele>240.14285714285717</ele><time>2026-04-11T09:50:05.059Z</time></trkpt><trkpt lat="44.902155" lon="7.8243283"><ele>240.28571428571428</ele><time>2026-04-11T09:50:06.062Z</time></trkpt><trkpt lat="44.9022283" lon="7.8243017"><ele>240.42857142857144</ele><time>2026-04-11T09:50:07.061Z</time></trkpt><trkpt lat="44.9023" lon="7.8242767"><ele>240.57142857142858</ele><time>2026-04-11T09:50:08.061Z</time></trkpt><trkpt lat="44.9023717" lon="7.8242533"><ele>240.71428571428572</ele><time>2026-04-11T09:50:09.061Z</time></trkpt><trkpt lat="44.9024433" lon="7.82423"><ele>240.85714285714286</ele><time>2026-04-11T09:50:10.062Z</time></trkpt><trkpt lat="44.9025117" lon="7.8242083"><ele>241.0</ele><time>2026-04-11T09:50:11.061Z</time></trkpt><trkpt lat="44.9025783" lon="7.8241833"><ele>241.14285714285717</ele><time>2026-04-11T09:50:12.061Z</time></trkpt><trkpt lat="44.9026467" lon="7.82416"><ele>241.2857142857143</ele><time>2026-04-11T09:50:13.062Z</time></trkpt><trkpt lat="44.9027133" lon="7.8241333"><ele>241.42857142857144</ele><time>2026-04-11T09:50:14.06Z</time></trkpt><trkpt lat="44.9027817" lon="7.8241083"><ele>241.57142857142856</ele><time>2026-04-11T09:50:15.06Z</time></trkpt><trkpt lat="44.9028483" lon="7.8240817"><ele>241.7142857142857</ele><time>2026-04-11T09:50:16.061Z</time></trkpt><trkpt lat="44.9029133" lon="7.8240533"><ele>241.85714285714283</ele><time>2026-04-11T09:50:17.061Z</time></trkpt><trkpt lat="44.9029783" lon="7.824025"><ele>242.0</ele><time>2026-04-11T09:50:18.061Z</time></trkpt><trkpt lat="44.9030433" lon="7.824"><ele>242.0</ele><time>2026-04-11T09:50:19.063Z</time></trkpt><trkpt lat="44.9031117" lon="7.82398"><ele>241.99999999999997</ele><time>2026-04-11T09:50:20.059Z</time></trkpt><trkpt lat="44.90318" lon="7.8239583"><ele>242.0</ele><time>2026-04-11T09:50:21.06Z</time></trkpt><trkpt lat="44.9032483" lon="7.8239383"><ele>242.0</ele><time>2026-04-11T09:50:22.06Z</time></trkpt><trkpt lat="44.9033133" lon="7.8239183"><ele>241.99999999999997</ele><time>2026-04-11T09:50:23.059Z</time></trkpt><trkpt lat="44.9033817" lon="7.8239"><ele>242.0</ele><time>2026-04-11T09:50:24.061Z</time></trkpt><trkpt lat="44.9034467" lon="7.8238833"><ele>242.0</ele><time>2026-04-11T09:50:25.062Z</time></trkpt><trkpt lat="44.9035117" lon="7.8238683"><ele>241.7142857142857</ele><time>2026-04-11T09:50:26.064Z</time></trkpt><trkpt lat="44.90358" lon="7.8238467"><ele>241.4285714285714</ele><time>2026-04-11T09:50:27.062Z</time></trkpt><trkpt lat="44.9036467" lon="7.823825"><ele>241.14285714285714</ele><time>2026-04-11T09:50:28.068Z</time></trkpt><trkpt lat="44.9037133" lon="7.8238"><ele>240.85714285714283</ele><time>2026-04-11T09:50:29.061Z</time></trkpt><trkpt lat="44.9037817" lon="7.823775"><ele>240.57142857142856</ele><time>2026-04-11T09:50:30.061Z</time></trkpt><trkpt lat="44.9038483" lon="7.823745"><ele>240.28571428571428</ele><time>2026-04-11T09:50:31.062Z</time></trkpt><trkpt lat="44.903915" lon="7.823715"><ele>240.0</ele><time>2026-04-11T09:50:32.062Z</time></trkpt><trkpt lat="44.90398" lon="7.82369"><ele>240.0</ele><time>2026-04-11T09:50:33.063Z</time></trkpt><trkpt lat="44.904045" lon="7.8236633"><ele>240.0</ele><time>2026-04-11T09:50:34.061Z</time></trkpt><trkpt lat="44.9041083" lon="7.8236417"><ele>240.0</ele><time>2026-04-11T09:50:35.06Z</time></trkpt><trkpt lat="44.9041733" lon="7.8236167"><ele>240.0</ele><time>2026-04-11T09:50:36.062Z</time></trkpt><trkpt lat="44.9042383" lon="7.8235933"><ele>240.0</ele><time>2026-04-11T09:50:37.062Z</time></trkpt><trkpt lat="44.9043017" lon="7.8235683"><ele>240.0</ele><time>2026-04-11T09:50:38.061Z</time></trkpt><trkpt lat="44.904365" lon="7.8235417"><ele>240.0</ele><time>2026-04-11T09:50:39.062Z</time></trkpt><trkpt lat="44.90443" lon="7.823515"><ele>240.0</ele><time>2026-04-11T09:50:40.062Z</time></trkpt><trkpt lat="44.9044967" lon="7.82349"><ele>240.0</ele><time>2026-04-11T09:50:41.062Z</time></trkpt><trkpt lat="44.9045617" lon="7.823465"><ele>240.0</ele><time>2026-04-11T09:50:42.065Z</time></trkpt><trkpt lat="44.9046267" lon="7.8234367"><ele>240.0</ele><time>2026-04-11T09:50:43.063Z</time></trkpt><trkpt lat="44.90469" lon="7.8234017"><ele>240.0</ele><time>2026-04-11T09:50:44.062Z</time></trkpt><trkpt lat="44.9047533" lon="7.8233583"><ele>240.0</ele><time>2026-04-11T09:50:45.061Z</time></trkpt><trkpt lat="44.9048117" lon="7.8233083"><ele>240.0</ele><time>2026-04-11T09:50:46.06Z</time></trkpt><trkpt lat="44.9048667" lon="7.8232533"><ele>240.0</ele><time>2026-04-11T09:50:47.061Z</time></trkpt><trkpt lat="44.9049183" lon="7.823195"><ele>240.0</ele><time>2026-04-11T09:50:48.06Z</time></trkpt><trkpt lat="44.90502" lon="7.8230833"><ele>240.0</ele><time>2026-04-11T09:50:50.061Z</time></trkpt><trkpt lat="44.9050783" lon="7.82303"><ele>240.0</ele><time>2026-04-11T09:50:51.063Z</time></trkpt><trkpt lat="44.9051383" lon="7.8229733"><ele>240.0</ele><time>2026-04-11T09:50:52.061Z</time></trkpt><trkpt lat="44.9051983" lon="7.8229183"><ele>240.0</ele><time>2026-04-11T09:50:53.059Z</time></trkpt><trkpt lat="44.9052583" lon="7.82287"><ele>240.0</ele><time>2026-04-11T09:50:54.06Z</time></trkpt><trkpt lat="44.90532" lon="7.8228317"><ele>240.0</ele><time>2026-04-11T09:50:55.061Z</time></trkpt><trkpt lat="44.905385" lon="7.8227917"><ele>240.0</ele><time>2026-04-11T09:50:56.061Z</time></trkpt><trkpt lat="44.9054533" lon="7.8227517"><ele>240.0</ele><time>2026-04-11T09:50:57.061Z</time></trkpt><trkpt lat="44.90552" lon="7.822715"><ele>240.0</ele><time>2026-04-11T09:50:58.061Z</time></trkpt><trkpt lat="44.9055833" lon="7.8226817"><ele>240.0</ele><time>2026-04-11T09:50:59.06Z</time></trkpt><trkpt lat="44.9056517" lon="7.8226483"><ele>240.0</ele><time>2026-04-11T09:51:00.06Z</time></trkpt><trkpt lat="44.90572" lon="7.822615"><ele>239.85714285714286</ele><time>2026-04-11T09:51:01.06Z</time></trkpt><trkpt lat="44.9057867" lon="7.822585"><ele>239.71428571428572</ele><time>2026-04-11T09:51:02.061Z</time></trkpt><trkpt lat="44.9058517" lon="7.822555"><ele>239.57142857142858</ele><time>2026-04-11T09:51:03.063Z</time></trkpt><trkpt lat="44.90592" lon="7.8225233"><ele>239.42857142857144</ele><time>2026-04-11T09:51:04.061Z</time></trkpt><trkpt lat="44.9059883" lon="7.8224883"><ele>239.28571428571428</ele><time>2026-04-11T09:51:05.059Z</time></trkpt><trkpt lat="44.9060583" lon="7.8224517"><ele>239.14285714285717</ele><time>2026-04-11T09:51:06.06Z</time></trkpt><trkpt lat="44.906125" lon="7.8224167"><ele>239.00000000000003</ele><time>2026-04-11T09:51:07.062Z</time></trkpt><trkpt lat="44.9061917" lon="7.8223867"><ele>239.00000000000003</ele><time>2026-04-11T09:51:08.062Z</time></trkpt><trkpt lat="44.9062617" lon="7.822355"><ele>239.0</ele><time>2026-04-11T09:51:09.06Z</time></trkpt><trkpt lat="44.90633" lon="7.82232"><ele>239.00000000000003</ele><time>2026-04-11T09:51:10.062Z</time></trkpt><trkpt lat="44.906395" lon="7.8222833"><ele>239.00000000000003</ele><time>2026-04-11T09:51:11.058Z</time></trkpt><trkpt lat="44.9064617" lon="7.8222483"><ele>239.0</ele><time>2026-04-11T09:51:12.059Z</time></trkpt><trkpt lat="44.9065267" lon="7.822215"><ele>239.00000000000003</ele><time>2026-04-11T09:51:13.061Z</time></trkpt><trkpt lat="44.9065933" lon="7.8221783"><ele>239.00000000000003</ele><time>2026-04-11T09:51:14.06Z</time></trkpt><trkpt lat="44.9066583" lon="7.8221417"><ele>239.00000000000003</ele><time>2026-04-11T09:51:15.061Z</time></trkpt><trkpt lat="44.9067217" lon="7.822105"><ele>239.0</ele><time>2026-04-11T09:51:16.06Z</time></trkpt><trkpt lat="44.9067867" lon="7.8220617"><ele>239.00000000000003</ele><time>2026-04-11T09:51:17.06Z</time></trkpt><trkpt lat="44.9068483" lon="7.82202"><ele>239.00000000000003</ele><time>2026-04-11T09:51:18.06Z</time></trkpt><trkpt lat="44.90691" lon="7.82198"><ele>239.0</ele><time>2026-04-11T09:51:19.06Z</time></trkpt><trkpt lat="44.90697" lon="7.8219467"><ele>239.00000000000003</ele><time>2026-04-11T09:51:20.059Z</time></trkpt><trkpt lat="44.90703" lon="7.8219133"><ele>239.00000000000003</ele><time>2026-04-11T09:51:21.061Z</time></trkpt><trkpt lat="44.9071467" lon="7.8218633"><ele>239.2</ele><time>2026-04-11T09:51:23.062Z</time></trkpt><trkpt lat="44.9072567" lon="7.82183"><ele>239.39999999999998</ele><time>2026-04-11T09:51:25.061Z</time></trkpt><trkpt lat="44.9073567" lon="7.821795"><ele>239.6</ele><time>2026-04-11T09:51:27.06Z</time></trkpt><trkpt lat="44.90744" lon="7.821755"><ele>239.8</ele><time>2026-04-11T09:51:29.058Z</time></trkpt><trkpt lat="44.9075133" lon="7.8218683"><ele>240.0</ele><time>2026-04-11T09:51:34.06Z</time></trkpt><trkpt lat="44.9075417" lon="7.8220167"><ele>240.0</ele><time>2026-04-11T09:51:36.062Z</time></trkpt><trkpt lat="44.9075717" lon="7.8221767"><ele>240.0</ele><time>2026-04-11T09:51:38.061Z</time></trkpt><trkpt lat="44.9076083" lon="7.8223483"><ele>240.0</ele><time>2026-04-11T09:51:40.06Z</time></trkpt><trkpt lat="44.9076267" lon="7.8224367"><ele>240.0</ele><time>2026-04-11T09:51:41.059Z</time></trkpt><trkpt lat="44.9076433" lon="7.8225267"><ele>240.0</ele><time>2026-04-11T09:51:42.061Z</time></trkpt><trkpt lat="44.9076617" lon="7.8226167"><ele>240.0</ele><time>2026-04-11T09:51:43.068Z</time></trkpt><trkpt lat="44.90768" lon="7.8227067"><ele>240.0</ele><time>2026-04-11T09:51:44.061Z</time></trkpt><trkpt lat="44.9077017" lon="7.8227933"><ele>240.0</ele><time>2026-04-11T09:51:45.06Z</time></trkpt><trkpt lat="44.9077283" lon="7.822875"><ele>240.0</ele><time>2026-04-11T09:51:46.061Z</time></trkpt><trkpt lat="44.9077583" lon="7.822955"><ele>240.0</ele><time>2026-04-11T09:51:47.06Z</time></trkpt><trkpt lat="44.9077833" lon="7.8230383"><ele>240.0</ele><time>2026-04-11T09:51:48.061Z</time></trkpt><trkpt lat="44.907805" lon="7.8231267"><ele>240.0</ele><time>2026-04-11T09:51:49.06Z</time></trkpt><trkpt lat="44.9078267" lon="7.82322"><ele>240.0</ele><time>2026-04-11T09:51:50.06Z</time></trkpt><trkpt lat="44.9078467" lon="7.8233133"><ele>240.0</ele><time>2026-04-11T09:51:51.06Z</time></trkpt><trkpt lat="44.9078633" lon="7.8234133"><ele>240.0</ele><time>2026-04-11T09:51:52.06Z</time></trkpt><trkpt lat="44.90788" lon="7.82351"><ele>240.0</ele><time>2026-04-11T09:51:53.06Z</time></trkpt><trkpt lat="44.9078933" lon="7.8236067"><ele>240.0</ele><time>2026-04-11T09:51:54.059Z</time></trkpt><trkpt lat="44.9079083" lon="7.8237067"><ele>240.0</ele><time>2026-04-11T09:51:55.061Z</time></trkpt><trkpt lat="44.9079217" lon="7.823805"><ele>240.0</ele><time>2026-04-11T09:51:56.058Z</time></trkpt><trkpt lat="44.9079367" lon="7.8239033"><ele>240.0</ele><time>2026-04-11T09:51:57.062Z</time></trkpt><trkpt lat="44.9079517" lon="7.8240033"><ele>239.85714285714286</ele><time>2026-04-11T09:51:58.058Z</time></trkpt><trkpt lat="44.9079683" lon="7.8241017"><ele>239.71428571428572</ele><time>2026-04-11T09:51:59.059Z</time></trkpt><trkpt lat="44.9079833" lon="7.8242017"><ele>239.57142857142858</ele><time>2026-04-11T09:52:00.061Z</time></trkpt><trkpt lat="44.9079983" lon="7.8242983"><ele>239.42857142857144</ele><time>2026-04-11T09:52:01.061Z</time></trkpt><trkpt lat="44.9080133" lon="7.8243967"><ele>239.28571428571428</ele><time>2026-04-11T09:52:02.061Z</time></trkpt><trkpt lat="44.9080267" lon="7.8245"><ele>239.14285714285717</ele><time>2026-04-11T09:52:03.061Z</time></trkpt><trkpt lat="44.9080383" lon="7.8246"><ele>239.00000000000003</ele><time>2026-04-11T09:52:04.06Z</time></trkpt><trkpt lat="44.9080517" lon="7.8247017"><ele>239.14285714285717</ele><time>2026-04-11T09:52:05.061Z</time></trkpt><trkpt lat="44.9080667" lon="7.8248033"><ele>239.28571428571428</ele><time>2026-04-11T09:52:06.062Z</time></trkpt><trkpt lat="44.9080817" lon="7.8249033"><ele>239.42857142857144</ele><time>2026-04-11T09:52:07.061Z</time></trkpt><trkpt lat="44.9080967" lon="7.8250033"><ele>239.57142857142858</ele><time>2026-04-11T09:52:08.06Z</time></trkpt><trkpt lat="44.9081133" lon="7.8251017"><ele>239.71428571428572</ele><time>2026-04-11T09:52:09.062Z</time></trkpt><trkpt lat="44.90813" lon="7.8252033"><ele>239.85714285714286</ele><time>2026-04-11T09:52:10.061Z</time></trkpt><trkpt lat="44.9081433" lon="7.8253017"><ele>240.0</ele><time>2026-04-11T09:52:11.06Z</time></trkpt><trkpt lat="44.9081567" lon="7.8254017"><ele>240.0</ele><time>2026-04-11T09:52:12.059Z</time></trkpt><trkpt lat="44.90817" lon="7.8255033"><ele>240.0</ele><time>2026-04-11T09:52:13.06Z</time></trkpt><trkpt lat="44.9081833" lon="7.8256067"><ele>240.0</ele><time>2026-04-11T09:52:14.059Z</time></trkpt><trkpt lat="44.9081967" lon="7.8257067"><ele>240.0</ele><time>2026-04-11T09:52:15.063Z</time></trkpt><trkpt lat="44.9082117" lon="7.825805"><ele>240.0</ele><time>2026-04-11T09:52:16.061Z</time></trkpt><trkpt lat="44.90823" lon="7.8259033"><ele>240.0</ele><time>2026-04-11T09:52:17.059Z</time></trkpt><trkpt lat="44.9082483" lon="7.8259983"><ele>240.0</ele><time>2026-04-11T09:52:18.06Z</time></trkpt><trkpt lat="44.9082717" lon="7.82609"><ele>240.0</ele><time>2026-04-11T09:52:19.062Z</time></trkpt><trkpt lat="44.9083" lon="7.8261817"><ele>240.0</ele><time>2026-04-11T09:52:20.06Z</time></trkpt><trkpt lat="44.9083317" lon="7.8262733"><ele>240.0</ele><time>2026-04-11T09:52:21.062Z</time></trkpt><trkpt lat="44.9083617" lon="7.82637"><ele>240.0</ele><time>2026-04-11T09:52:22.06Z</time></trkpt><trkpt lat="44.9083967" lon="7.826465"><ele>240.0</ele><time>2026-04-11T09:52:23.059Z</time></trkpt><trkpt lat="44.9084333" lon="7.8265633"><ele>240.0</ele><time>2026-04-11T09:52:24.06Z</time></trkpt><trkpt lat="44.90847" lon="7.8266617"><ele>239.83333333333334</ele><time>2026-04-11T09:52:25.061Z</time></trkpt><trkpt lat="44.9085067" lon="7.8267583"><ele>239.66666666666669</ele><time>2026-04-11T09:52:26.061Z</time></trkpt><trkpt lat="44.9085367" lon="7.8268517"><ele>239.5</ele><time>2026-04-11T09:52:27.062Z</time></trkpt><trkpt lat="44.9085667" lon="7.8269467"><ele>239.33333333333334</ele><time>2026-04-11T09:52:28.06Z</time></trkpt><trkpt lat="44.9086" lon="7.8270433"><ele>239.16666666666669</ele><time>2026-04-11T09:52:29.06Z</time></trkpt><trkpt lat="44.9086317" lon="7.82714"><ele>239.0</ele><time>2026-04-11T09:52:30.059Z</time></trkpt><trkpt lat="44.9086617" lon="7.8272367"><ele>239.00000000000003</ele><time>2026-04-11T09:52:31.06Z</time></trkpt><trkpt lat="44.90869" lon="7.827335"><ele>239.0</ele><time>2026-04-11T09:52:32.061Z</time></trkpt><trkpt lat="44.9087183" lon="7.8274333"><ele>239.00000000000003</ele><time>2026-04-11T09:52:33.061Z</time></trkpt><trkpt lat="44.908745" lon="7.8275283"><ele>239.00000000000003</ele><time>2026-04-11T09:52:34.061Z</time></trkpt><trkpt lat="44.90877" lon="7.8276233"><ele>239.0</ele><time>2026-04-11T09:52:35.058Z</time></trkpt><trkpt lat="44.908795" lon="7.827725"><ele>239.00000000000003</ele><time>2026-04-11T09:52:36.061Z</time></trkpt><trkpt lat="44.9088183" lon="7.8278267"><ele>239.00000000000003</ele><time>2026-04-11T09:52:37.06Z</time></trkpt><trkpt lat="44.9088433" lon="7.82793"><ele>239.14285714285717</ele><time>2026-04-11T09:52:38.062Z</time></trkpt><trkpt lat="44.9088667" lon="7.8280317"><ele>239.28571428571428</ele><time>2026-04-11T09:52:39.061Z</time></trkpt><trkpt lat="44.9088883" lon="7.8281333"><ele>239.42857142857144</ele><time>2026-04-11T09:52:40.059Z</time></trkpt><trkpt lat="44.9089083" lon="7.828235"><ele>239.57142857142858</ele><time>2026-04-11T09:52:41.061Z</time></trkpt><trkpt lat="44.9089267" lon="7.8283333"><ele>239.71428571428572</ele><time>2026-04-11T09:52:42.06Z</time></trkpt><trkpt lat="44.9089467" lon="7.82843"><ele>239.85714285714286</ele><time>2026-04-11T09:52:43.061Z</time></trkpt><trkpt lat="44.908965" lon="7.8285267"><ele>240.0</ele><time>2026-04-11T09:52:44.062Z</time></trkpt><trkpt lat="44.9089867" lon="7.82862"><ele>240.28571428571428</ele><time>2026-04-11T09:52:45.064Z</time></trkpt><trkpt lat="44.9090067" lon="7.828715"><ele>240.57142857142856</ele><time>2026-04-11T09:52:46.062Z</time></trkpt><trkpt lat="44.9090267" lon="7.8288117"><ele>240.85714285714283</ele><time>2026-04-11T09:52:47.062Z</time></trkpt><trkpt lat="44.9090483" lon="7.8289067"><ele>241.14285714285714</ele><time>2026-04-11T09:52:48.06Z</time></trkpt><trkpt lat="44.90907" lon="7.8290017"><ele>241.4285714285714</ele><time>2026-04-11T09:52:49.062Z</time></trkpt><trkpt lat="44.9090917" lon="7.8291"><ele>241.7142857142857</ele><time>2026-04-11T09:52:50.062Z</time></trkpt><trkpt lat="44.90911" lon="7.8291933"><ele>242.0</ele><time>2026-04-11T09:52:51.062Z</time></trkpt><trkpt lat="44.9091283" lon="7.8292883"><ele>242.28571428571428</ele><time>2026-04-11T09:52:52.061Z</time></trkpt><trkpt lat="44.9091467" lon="7.8293833"><ele>242.57142857142856</ele><time>2026-04-11T09:52:53.061Z</time></trkpt><trkpt lat="44.9091633" lon="7.8294767"><ele>242.85714285714283</ele><time>2026-04-11T09:52:54.06Z</time></trkpt><trkpt lat="44.9091833" lon="7.82957"><ele>243.1428571428571</ele><time>2026-04-11T09:52:55.056Z</time></trkpt><trkpt lat="44.9092017" lon="7.8296633"><ele>243.42857142857142</ele><time>2026-04-11T09:52:56.06Z</time></trkpt><trkpt lat="44.9092167" lon="7.8297567"><ele>243.71428571428567</ele><time>2026-04-11T09:52:57.061Z</time></trkpt><trkpt lat="44.909235" lon="7.8298483"><ele>243.99999999999997</ele><time>2026-04-11T09:52:58.064Z</time></trkpt><trkpt lat="44.9092517" lon="7.8299367"><ele>243.2</ele><time>2026-04-11T09:52:59.061Z</time></trkpt><trkpt lat="44.909275" lon="7.83002"><ele>242.39999999999998</ele><time>2026-04-11T09:53:00.057Z</time></trkpt><trkpt lat="44.9093383" lon="7.8301617"><ele>241.6</ele><time>2026-04-11T09:53:02.062Z</time></trkpt><trkpt lat="44.9094033" lon="7.830265"><ele>240.8</ele><time>2026-04-11T09:53:04.061Z</time></trkpt><trkpt lat="44.9094633" lon="7.8303233"><ele>240.0</ele><time>2026-04-11T09:53:07.062Z</time></trkpt><trkpt lat="44.9095333" lon="7.830225"><ele>240.0</ele><time>2026-04-11T09:53:10.059Z</time></trkpt><trkpt lat="44.9096" lon="7.830105"><ele>240.0</ele><time>2026-04-11T09:53:12.062Z</time></trkpt><trkpt lat="44.9096533" lon="7.829995"><ele>240.0</ele><time>2026-04-11T09:53:14.061Z</time></trkpt><trkpt lat="44.9096883" lon="7.8298733"><ele>240.0</ele><time>2026-04-11T09:53:16.064Z</time></trkpt><trkpt lat="44.909705" lon="7.8297383"><ele>240.0</ele><time>2026-04-11T09:53:18.062Z</time></trkpt><trkpt lat="44.9097283" lon="7.8295967"><ele>240.0</ele><time>2026-04-11T09:53:20.062Z</time></trkpt><trkpt lat="44.90976" lon="7.8294583"><ele>240.0</ele><time>2026-04-11T09:53:22.059Z</time></trkpt><trkpt lat="44.909795" lon="7.8293233"><ele>240.0</ele><time>2026-04-11T09:53:24.062Z</time></trkpt><trkpt lat="44.90983" lon="7.8291917"><ele>240.0</ele><time>2026-04-11T09:53:26.061Z</time></trkpt><trkpt lat="44.9098667" lon="7.829075"><ele>240.0</ele><time>2026-04-11T09:53:28.062Z</time></trkpt><trkpt lat="44.9099083" lon="7.8289767"><ele>239.8</ele><time>2026-04-11T09:53:30.059Z</time></trkpt><trkpt lat="44.9099617" lon="7.8288783"><ele>239.6</ele><time>2026-04-11T09:53:32.064Z</time></trkpt><trkpt lat="44.910025" lon="7.8287833"><ele>239.39999999999998</ele><time>2026-04-11T09:53:34.065Z</time></trkpt><trkpt lat="44.910105" lon="7.8286967"><ele>239.2</ele><time>2026-04-11T09:53:36.059Z</time></trkpt><trkpt lat="44.9101983" lon="7.8286217"><ele>239.0</ele><time>2026-04-11T09:53:38.059Z</time></trkpt><trkpt lat="44.9102983" lon="7.82854"><ele>239.2</ele><time>2026-04-11T09:53:40.06Z</time></trkpt><trkpt lat="44.9103917" lon="7.8284583"><ele>239.39999999999998</ele><time>2026-04-11T09:53:42.059Z</time></trkpt><trkpt lat="44.9104867" lon="7.828375"><ele>239.6</ele><time>2026-04-11T09:53:44.059Z</time></trkpt><trkpt lat="44.91058" lon="7.8283067"><ele>239.8</ele><time>2026-04-11T09:53:46.059Z</time></trkpt><trkpt lat="44.91067" lon="7.8282433"><ele>240.0</ele><time>2026-04-11T09:53:48.059Z</time></trkpt><trkpt lat="44.9107617" lon="7.8281717"><ele>240.0</ele><time>2026-04-11T09:53:50.06Z</time></trkpt><trkpt lat="44.910855" lon="7.8280983"><ele>240.0</ele><time>2026-04-11T09:53:52.061Z</time></trkpt><trkpt lat="44.91095" lon="7.8280267"><ele>240.0</ele><time>2026-04-11T09:53:54.06Z</time></trkpt><trkpt lat="44.911045" lon="7.8279533"><ele>240.0</ele><time>2026-04-11T09:53:56.061Z</time></trkpt><trkpt lat="44.9111467" lon="7.8278883"><ele>240.0</ele><time>2026-04-11T09:53:58.061Z</time></trkpt><trkpt lat="44.9112633" lon="7.8278267"><ele>239.5</ele><time>2026-04-11T09:54:00.059Z</time></trkpt><trkpt lat="44.9113783" lon="7.82777"><ele>239.0</ele><time>2026-04-11T09:54:02.06Z</time></trkpt><trkpt lat="44.911495" lon="7.827725"><ele>238.5</ele><time>2026-04-11T09:54:04.061Z</time></trkpt><trkpt lat="44.911615" lon="7.8277017"><ele>238.0</ele><time>2026-04-11T09:54:06.06Z</time></trkpt><trkpt lat="44.911735" lon="7.8276817"><ele>238.5</ele><time>2026-04-11T09:54:08.061Z</time></trkpt><trkpt lat="44.911855" lon="7.8276683"><ele>239.0</ele><time>2026-04-11T09:54:10.061Z</time></trkpt><trkpt lat="44.9119733" lon="7.8276767"><ele>239.5</ele><time>2026-04-11T09:54:12.059Z</time></trkpt><trkpt lat="44.9120933" lon="7.8276983"><ele>240.0</ele><time>2026-04-11T09:54:14.061Z</time></trkpt><trkpt lat="44.9122083" lon="7.82774"><ele>240.0</ele><time>2026-04-11T09:54:16.061Z</time></trkpt><trkpt lat="44.9123167" lon="7.8277983"><ele>240.0</ele><time>2026-04-11T09:54:18.06Z</time></trkpt><trkpt lat="44.9124167" lon="7.8278833"><ele>240.0</ele><time>2026-04-11T09:54:20.06Z</time></trkpt><trkpt lat="44.912525" lon="7.8279483"><ele>240.0</ele><time>2026-04-11T09:54:22.058Z</time></trkpt><trkpt lat="44.9126367" lon="7.8279917"><ele>239.75</ele><time>2026-04-11T09:54:24.058Z</time></trkpt><trkpt lat="44.91275" lon="7.8280383"><ele>239.5</ele><time>2026-04-11T09:54:26.06Z</time></trkpt><trkpt lat="44.9128567" lon="7.828105"><ele>239.25</ele><time>2026-04-11T09:54:28.06Z</time></trkpt><trkpt lat="44.912955" lon="7.828175"><ele>239.0</ele><time>2026-04-11T09:54:30.06Z</time></trkpt><trkpt lat="44.9130617" lon="7.8282133"><ele>239.0</ele><time>2026-04-11T09:54:32.059Z</time></trkpt><trkpt lat="44.9131683" lon="7.8282667"><ele>239.0</ele><time>2026-04-11T09:54:34.062Z</time></trkpt><trkpt lat="44.9132767" lon="7.8283333"><ele>239.0</ele><time>2026-04-11T09:54:36.06Z</time></trkpt><trkpt lat="44.9133817" lon="7.8284"><ele>239.0</ele><time>2026-04-11T09:54:38.06Z</time></trkpt><trkpt lat="44.91348" lon="7.8284617"><ele>239.0</ele><time>2026-04-11T09:54:40.061Z</time></trkpt><trkpt lat="44.9135767" lon="7.82852"><ele>238.99999999999997</ele><time>2026-04-11T09:54:42.06Z</time></trkpt><trkpt lat="44.9136733" lon="7.8285867"><ele>238.99999999999997</ele><time>2026-04-11T09:54:44.059Z</time></trkpt><trkpt lat="44.9137683" lon="7.828665"><ele>239.0</ele><time>2026-04-11T09:54:46.061Z</time></trkpt><trkpt lat="44.91386" lon="7.8287417"><ele>239.0</ele><time>2026-04-11T09:54:48.061Z</time></trkpt><trkpt lat="44.9139483" lon="7.828825"><ele>239.0</ele><time>2026-04-11T09:54:50.061Z</time></trkpt><trkpt lat="44.914025" lon="7.8289133"><ele>238.99999999999997</ele><time>2026-04-11T09:54:52.059Z</time></trkpt><trkpt lat="44.9141217" lon="7.8289733"><ele>238.99999999999997</ele><time>2026-04-11T09:54:54.059Z</time></trkpt><trkpt lat="44.9142233" lon="7.8290183"><ele>239.0</ele><time>2026-04-11T09:54:56.06Z</time></trkpt><trkpt lat="44.9143233" lon="7.8290767"><ele>239.0</ele><time>2026-04-11T09:54:58.06Z</time></trkpt><trkpt lat="44.91443" lon="7.8291217"><ele>239.2</ele><time>2026-04-11T09:55:00.058Z</time></trkpt><trkpt lat="44.914535" lon="7.82913"><ele>239.39999999999998</ele><time>2026-04-11T09:55:02.06Z</time></trkpt><trkpt lat="44.91463" lon="7.8291467"><ele>239.6</ele><time>2026-04-11T09:55:04.06Z</time></trkpt><trkpt lat="44.9147117" lon="7.82922"><ele>239.8</ele><time>2026-04-11T09:55:06.06Z</time></trkpt><trkpt lat="44.91476" lon="7.829345"><ele>240.0</ele><time>2026-04-11T09:55:08.059Z</time></trkpt><trkpt lat="44.9147917" lon="7.829485"><ele>240.0</ele><time>2026-04-11T09:55:10.06Z</time></trkpt><trkpt lat="44.91482" lon="7.8296283"><ele>240.0</ele><time>2026-04-11T09:55:12.059Z</time></trkpt><trkpt lat="44.914865" lon="7.8297617"><ele>240.0</ele><time>2026-04-11T09:55:14.06Z</time></trkpt><trkpt lat="44.9149333" lon="7.8298767"><ele>240.0</ele><time>2026-04-11T09:55:16.061Z</time></trkpt><trkpt lat="44.9150067" lon="7.8299733"><ele>240.0</ele><time>2026-04-11T09:55:18.06Z</time></trkpt><trkpt lat="44.915075" lon="7.8300583"><ele>240.33333333333334</ele><time>2026-04-11T09:55:20.06Z</time></trkpt><trkpt lat="44.9151417" lon="7.8301417"><ele>240.66666666666669</ele><time>2026-04-11T09:55:22.061Z</time></trkpt><trkpt lat="44.9152133" lon="7.830235"><ele>241.0</ele><time>2026-04-11T09:55:24.061Z</time></trkpt><trkpt lat="44.9152817" lon="7.8303233"><ele>241.33333333333334</ele><time>2026-04-11T09:55:26.059Z</time></trkpt><trkpt lat="44.9153433" lon="7.830395"><ele>241.66666666666669</ele><time>2026-04-11T09:55:28.059Z</time></trkpt><trkpt lat="44.9154033" lon="7.8304783"><ele>242.0</ele><time>2026-04-11T09:55:30.06Z</time></trkpt><trkpt lat="44.9154733" lon="7.8305633"><ele>242.0</ele><time>2026-04-11T09:55:32.097Z</time></trkpt><trkpt lat="44.9155483" lon="7.8306567"><ele>242.0</ele><time>2026-04-11T09:55:34.202Z</time></trkpt><trkpt lat="44.9156217" lon="7.8307517"><ele>242.0</ele><time>2026-04-11T09:55:36.056Z</time></trkpt><trkpt lat="44.9157033" lon="7.8308233"><ele>242.0</ele><time>2026-04-11T09:55:38.088Z</time></trkpt><trkpt lat="44.9157783" lon="7.8308933"><ele>242.0</ele><time>2026-04-11T09:55:40.056Z</time></trkpt><trkpt lat="44.915855" lon="7.830955"><ele>242.6</ele><time>2026-04-11T09:55:42.064Z</time></trkpt><trkpt lat="44.9159417" lon="7.83101"><ele>243.2</ele><time>2026-04-11T09:55:44.055Z</time></trkpt><trkpt lat="44.9160333" lon="7.8310567"><ele>243.8</ele><time>2026-04-11T09:55:46.057Z</time></trkpt><trkpt lat="44.91613" lon="7.8310967"><ele>244.4</ele><time>2026-04-11T09:55:48.055Z</time></trkpt><trkpt lat="44.9162317" lon="7.831125"><ele>245.0</ele><time>2026-04-11T09:55:50.059Z</time></trkpt><trkpt lat="44.9163233" lon="7.831145"><ele>245.0</ele><time>2026-04-11T09:55:52.062Z</time></trkpt><trkpt lat="44.9164233" lon="7.8311567"><ele>245.0</ele><time>2026-04-11T09:55:54.056Z</time></trkpt><trkpt lat="44.9165217" lon="7.8311583"><ele>245.0</ele><time>2026-04-11T09:55:56.057Z</time></trkpt><trkpt lat="44.9166233" lon="7.8311533"><ele>245.0</ele><time>2026-04-11T09:55:58.063Z</time></trkpt><trkpt lat="44.91674" lon="7.8311267"><ele>245.0</ele><time>2026-04-11T09:56:00.059Z</time></trkpt><trkpt lat="44.9168533" lon="7.8310217"><ele>244.16666666666669</ele><time>2026-04-11T09:56:02.057Z</time></trkpt><trkpt lat="44.91695" lon="7.8308917"><ele>243.33333333333334</ele><time>2026-04-11T09:56:04.059Z</time></trkpt><trkpt lat="44.9170017" lon="7.83083"><ele>242.5</ele><time>2026-04-11T09:56:05.058Z</time></trkpt><trkpt lat="44.9170533" lon="7.83077"><ele>241.66666666666669</ele><time>2026-04-11T09:56:06.06Z</time></trkpt><trkpt lat="44.917105" lon="7.8307133"><ele>240.83333333333334</ele><time>2026-04-11T09:56:07.061Z</time></trkpt><trkpt lat="44.9171583" lon="7.8306583"><ele>240.0</ele><time>2026-04-11T09:56:08.06Z</time></trkpt><trkpt lat="44.9172067" lon="7.8306"><ele>240.0</ele><time>2026-04-11T09:56:09.061Z</time></trkpt><trkpt lat="44.9172583" lon="7.830535"><ele>240.0</ele><time>2026-04-11T09:56:10.06Z</time></trkpt><trkpt lat="44.917315" lon="7.8304733"><ele>240.0</ele><time>2026-04-11T09:56:11.06Z</time></trkpt><trkpt lat="44.9173683" lon="7.83041"><ele>240.0</ele><time>2026-04-11T09:56:12.06Z</time></trkpt><trkpt lat="44.91742" lon="7.8303533"><ele>240.0</ele><time>2026-04-11T09:56:13.06Z</time></trkpt><trkpt lat="44.917475" lon="7.8302983"><ele>240.0</ele><time>2026-04-11T09:56:14.062Z</time></trkpt><trkpt lat="44.917535" lon="7.8302517"><ele>240.0</ele><time>2026-04-11T09:56:15.06Z</time></trkpt><trkpt lat="44.9176" lon="7.8302167"><ele>239.83333333333334</ele><time>2026-04-11T09:56:16.059Z</time></trkpt><trkpt lat="44.9176617" lon="7.8301967"><ele>239.66666666666669</ele><time>2026-04-11T09:56:17.059Z</time></trkpt><trkpt lat="44.9177867" lon="7.8301883"><ele>239.5</ele><time>2026-04-11T09:56:19.061Z</time></trkpt><trkpt lat="44.9178517" lon="7.8301967"><ele>239.33333333333334</ele><time>2026-04-11T09:56:20.059Z</time></trkpt><trkpt lat="44.9179183" lon="7.8302083"><ele>239.16666666666669</ele><time>2026-04-11T09:56:21.059Z</time></trkpt><trkpt lat="44.9179817" lon="7.83022"><ele>239.0</ele><time>2026-04-11T09:56:22.059Z</time></trkpt><trkpt lat="44.9180483" lon="7.8302333"><ele>239.0</ele><time>2026-04-11T09:56:23.06Z</time></trkpt><trkpt lat="44.9181133" lon="7.830245"><ele>238.99999999999997</ele><time>2026-04-11T09:56:24.061Z</time></trkpt><trkpt lat="44.9181767" lon="7.8302617"><ele>238.99999999999997</ele><time>2026-04-11T09:56:25.059Z</time></trkpt><trkpt lat="44.9182967" lon="7.8302933"><ele>239.0</ele><time>2026-04-11T09:56:27.06Z</time></trkpt><trkpt lat="44.9184067" lon="7.8303283"><ele>239.0</ele><time>2026-04-11T09:56:29.058Z</time></trkpt><trkpt lat="44.91849" lon="7.8303867"><ele>239.00000000000003</ele><time>2026-04-11T09:56:31.06Z</time></trkpt><trkpt lat="44.9185167" lon="7.8304717"><ele>239.0</ele><time>2026-04-11T09:56:33.059Z</time></trkpt><trkpt lat="44.9184833" lon="7.83056"><ele>239.0</ele><time>2026-04-11T09:56:35.059Z</time></trkpt><trkpt lat="44.9184433" lon="7.83067"><ele>239.0</ele><time>2026-04-11T09:56:37.06Z</time></trkpt><trkpt lat="44.9184183" lon="7.8307983"><ele>239.00000000000003</ele><time>2026-04-11T09:56:39.061Z</time></trkpt><trkpt lat="44.918395" lon="7.8309383"><ele>239.0</ele><time>2026-04-11T09:56:41.061Z</time></trkpt><trkpt lat="44.918375" lon="7.8310817"><ele>238.5</ele><time>2026-04-11T09:56:43.059Z</time></trkpt><trkpt lat="44.9183483" lon="7.8312317"><ele>238.0</ele><time>2026-04-11T09:56:45.061Z</time></trkpt><trkpt lat="44.9183217" lon="7.83139"><ele>237.5</ele><time>2026-04-11T09:56:47.06Z</time></trkpt><trkpt lat="44.9182933" lon="7.8315483"><ele>237.0</ele><time>2026-04-11T09:56:49.06Z</time></trkpt><trkpt lat="44.9182667" lon="7.83171"><ele>237.25</ele><time>2026-04-11T09:56:51.061Z</time></trkpt><trkpt lat="44.918255" lon="7.8318767"><ele>237.5</ele><time>2026-04-11T09:56:53.059Z</time></trkpt><trkpt lat="44.9182533" lon="7.832045"><ele>237.75</ele><time>2026-04-11T09:56:55.061Z</time></trkpt><trkpt lat="44.9182633" lon="7.8322133"><ele>238.0</ele><time>2026-04-11T09:56:57.058Z</time></trkpt><trkpt lat="44.91828" lon="7.8323833"><ele>238.0</ele><time>2026-04-11T09:56:59.059Z</time></trkpt><trkpt lat="44.9182917" lon="7.8325517"><ele>238.0</ele><time>2026-04-11T09:57:01.06Z</time></trkpt><trkpt lat="44.9183067" lon="7.8327217"><ele>238.0</ele><time>2026-04-11T09:57:03.06Z</time></trkpt><trkpt lat="44.9183333" lon="7.83288"><ele>238.0</ele><time>2026-04-11T09:57:05.059Z</time></trkpt><trkpt lat="44.918365" lon="7.8330317"><ele>238.0</ele><time>2026-04-11T09:57:07.061Z</time></trkpt><trkpt lat="44.9184067" lon="7.8331783"><ele>238.0</ele><time>2026-04-11T09:57:09.062Z</time></trkpt><trkpt lat="44.9184617" lon="7.8333"><ele>238.0</ele><time>2026-04-11T09:57:11.058Z</time></trkpt><trkpt lat="44.9185317" lon="7.8334083"><ele>238.0</ele><time>2026-04-11T09:57:13.061Z</time></trkpt><trkpt lat="44.9186" lon="7.8335283"><ele>238.0</ele><time>2026-04-11T09:57:15.061Z</time></trkpt><trkpt lat="44.9186583" lon="7.8336583"><ele>238.25</ele><time>2026-04-11T09:57:17.06Z</time></trkpt><trkpt lat="44.9187183" lon="7.833785"><ele>238.5</ele><time>2026-04-11T09:57:19.059Z</time></trkpt><trkpt lat="44.91878" lon="7.8339317"><ele>238.75</ele><time>2026-04-11T09:57:21.06Z</time></trkpt><trkpt lat="44.91883" lon="7.8340867"><ele>239.0</ele><time>2026-04-11T09:57:23.059Z</time></trkpt><trkpt lat="44.9188683" lon="7.8342467"><ele>239.14285714285717</ele><time>2026-04-11T09:57:25.059Z</time></trkpt><trkpt lat="44.91889" lon="7.8343317"><ele>239.28571428571428</ele><time>2026-04-11T09:57:26.058Z</time></trkpt><trkpt lat="44.918915" lon="7.83442"><ele>239.42857142857144</ele><time>2026-04-11T09:57:27.059Z</time></trkpt><trkpt lat="44.91894" lon="7.83451"><ele>239.57142857142858</ele><time>2026-04-11T09:57:28.06Z</time></trkpt><trkpt lat="44.91896" lon="7.8345983"><ele>239.71428571428572</ele><time>2026-04-11T09:57:29.059Z</time></trkpt><trkpt lat="44.91898" lon="7.8346833"><ele>239.85714285714286</ele><time>2026-04-11T09:57:30.06Z</time></trkpt><trkpt lat="44.9190233" lon="7.8348417"><ele>240.0</ele><time>2026-04-11T09:57:32.061Z</time></trkpt><trkpt lat="44.91907" lon="7.834985"><ele>240.0</ele><time>2026-04-11T09:57:34.059Z</time></trkpt><trkpt lat="44.9191" lon="7.8350633"><ele>240.0</ele><time>2026-04-11T09:57:35.058Z</time></trkpt><trkpt lat="44.9191733" lon="7.8351967"><ele>240.0</ele><time>2026-04-11T09:57:37.059Z</time></trkpt><trkpt lat="44.9192233" lon="7.8352533"><ele>240.0</ele><time>2026-04-11T09:57:38.061Z</time></trkpt><trkpt lat="44.9193217" lon="7.83536"><ele>240.0</ele><time>2026-04-11T09:57:40.059Z</time></trkpt><trkpt lat="44.9193683" lon="7.8354267"><ele>240.0</ele><time>2026-04-11T09:57:41.059Z</time></trkpt><trkpt lat="44.919415" lon="7.8354933"><ele>239.6</ele><time>2026-04-11T09:57:42.06Z</time></trkpt><trkpt lat="44.9194567" lon="7.835565"><ele>239.2</ele><time>2026-04-11T09:57:43.06Z</time></trkpt><trkpt lat="44.9194983" lon="7.8356367"><ele>238.8</ele><time>2026-04-11T09:57:44.059Z</time></trkpt><trkpt lat="44.9195733" lon="7.83578"><ele>238.4</ele><time>2026-04-11T09:57:46.061Z</time></trkpt><trkpt lat="44.9196483" lon="7.8359133"><ele>238.0</ele><time>2026-04-11T09:57:48.059Z</time></trkpt><trkpt lat="44.919715" lon="7.8360417"><ele>238.0</ele><time>2026-04-11T09:57:50.062Z</time></trkpt><trkpt lat="44.9197917" lon="7.8361633"><ele>238.0</ele><time>2026-04-11T09:57:52.061Z</time></trkpt><trkpt lat="44.9198617" lon="7.8362917"><ele>238.0</ele><time>2026-04-11T09:57:54.062Z</time></trkpt><trkpt lat="44.9199017" lon="7.8364467"><ele>238.0</ele><time>2026-04-11T09:57:56.061Z</time></trkpt><trkpt lat="44.9199283" lon="7.8366"><ele>238.0</ele><time>2026-04-11T09:57:58.061Z</time></trkpt><trkpt lat="44.919945" lon="7.83675"><ele>238.0</ele><time>2026-04-11T09:58:00.061Z</time></trkpt><trkpt lat="44.9199617" lon="7.8369"><ele>238.0</ele><time>2026-04-11T09:58:02.061Z</time></trkpt><trkpt lat="44.9199833" lon="7.83703"><ele>238.0</ele><time>2026-04-11T09:58:04.062Z</time></trkpt><trkpt lat="44.9200183" lon="7.8371383"><ele>238.0</ele><time>2026-04-11T09:58:06.062Z</time></trkpt><trkpt lat="44.92007" lon="7.8372283"><ele>238.33333333333331</ele><time>2026-04-11T09:58:08.06Z</time></trkpt><trkpt lat="44.9201317" lon="7.8373183"><ele>238.66666666666666</ele><time>2026-04-11T09:58:10.058Z</time></trkpt><trkpt lat="44.9201983" lon="7.8373883"><ele>239.0</ele><time>2026-04-11T09:58:12.06Z</time></trkpt><trkpt lat="44.9202617" lon="7.83747"><ele>239.33333333333331</ele><time>2026-04-11T09:58:14.059Z</time></trkpt><trkpt lat="44.9203233" lon="7.8375583"><ele>239.66666666666666</ele><time>2026-04-11T09:58:16.06Z</time></trkpt><trkpt lat="44.92038" lon="7.8376433"><ele>240.0</ele><time>2026-04-11T09:58:18.058Z</time></trkpt><trkpt lat="44.9204267" lon="7.8377217"><ele>240.33333333333334</ele><time>2026-04-11T09:58:20.059Z</time></trkpt><trkpt lat="44.920465" lon="7.8377933"><ele>240.66666666666669</ele><time>2026-04-11T09:58:22.058Z</time></trkpt><trkpt lat="44.9205133" lon="7.8378917"><ele>241.0</ele><time>2026-04-11T09:58:25.057Z</time></trkpt><trkpt lat="44.9205617" lon="7.83799"><ele>241.33333333333334</ele><time>2026-04-11T09:58:28.058Z</time></trkpt><trkpt lat="44.9205967" lon="7.83809"><ele>241.66666666666669</ele><time>2026-04-11T09:58:31.059Z</time></trkpt><trkpt lat="44.92065" lon="7.83819"><ele>242.0</ele><time>2026-04-11T09:58:34.06Z</time></trkpt><trkpt lat="44.9206883" lon="7.838265"><ele>242.0</ele><time>2026-04-11T09:58:36.059Z</time></trkpt><trkpt lat="44.9207317" lon="7.83836"><ele>242.0</ele><time>2026-04-11T09:58:38.06Z</time></trkpt><trkpt lat="44.9207767" lon="7.838465"><ele>242.0</ele><time>2026-04-11T09:58:40.057Z</time></trkpt><trkpt lat="44.92082" lon="7.83859"><ele>242.0</ele><time>2026-04-11T09:58:42.06Z</time></trkpt><trkpt lat="44.9208717" lon="7.8387067"><ele>242.0</ele><time>2026-04-11T09:58:44.058Z</time></trkpt><trkpt lat="44.9209217" lon="7.838825"><ele>242.00000000000003</ele><time>2026-04-11T09:58:46.06Z</time></trkpt><trkpt lat="44.9209717" lon="7.8389517"><ele>242.0</ele><time>2026-04-11T09:58:48.059Z</time></trkpt><trkpt lat="44.9210167" lon="7.8390633"><ele>242.0</ele><time>2026-04-11T09:58:50.059Z</time></trkpt><trkpt lat="44.9210533" lon="7.83916"><ele>242.0</ele><time>2026-04-11T09:58:52.059Z</time></trkpt><trkpt lat="44.9210883" lon="7.8392517"><ele>242.00000000000003</ele><time>2026-04-11T09:58:54.06Z</time></trkpt><trkpt lat="44.921125" lon="7.8393367"><ele>242.0</ele><time>2026-04-11T09:58:56.06Z</time></trkpt><trkpt lat="44.9211567" lon="7.8394267"><ele>242.00000000000003</ele><time>2026-04-11T09:58:58.06Z</time></trkpt><trkpt lat="44.9211883" lon="7.8395267"><ele>242.0</ele><time>2026-04-11T09:59:00.06Z</time></trkpt><trkpt lat="44.9212233" lon="7.8396333"><ele>242.0</ele><time>2026-04-11T09:59:02.061Z</time></trkpt><trkpt lat="44.9212533" lon="7.8397467"><ele>242.0</ele><time>2026-04-11T09:59:04.059Z</time></trkpt><trkpt lat="44.9212833" lon="7.839865"><ele>242.00000000000003</ele><time>2026-04-11T09:59:06.06Z</time></trkpt><trkpt lat="44.92132" lon="7.8399767"><ele>242.0</ele><time>2026-04-11T09:59:08.06Z</time></trkpt><trkpt lat="44.921355" lon="7.8400833"><ele>242.16666666666669</ele><time>2026-04-11T09:59:10.059Z</time></trkpt><trkpt lat="44.921385" lon="7.8401717"><ele>242.33333333333334</ele><time>2026-04-11T09:59:12.059Z</time></trkpt><trkpt lat="44.921425" lon="7.8402767"><ele>242.5</ele><time>2026-04-11T09:59:15.06Z</time></trkpt><trkpt lat="44.9214167" lon="7.8403883"><ele>242.66666666666669</ele><time>2026-04-11T09:59:18.059Z</time></trkpt><trkpt lat="44.92136" lon="7.84046"><ele>242.83333333333334</ele><time>2026-04-11T09:59:20.061Z</time></trkpt><trkpt lat="44.9212883" lon="7.8405333"><ele>243.0</ele><time>2026-04-11T09:59:22.06Z</time></trkpt><trkpt lat="44.9212183" lon="7.8405967"><ele>243.0</ele><time>2026-04-11T09:59:24.059Z</time></trkpt><trkpt lat="44.9211583" lon="7.8406483"><ele>243.0</ele><time>2026-04-11T09:59:26.059Z</time></trkpt><trkpt lat="44.921092" lon="7.8406794"><ele>243.0</ele><time>2026-04-11T10:02:56.058Z</time></trkpt><trkpt lat="44.9211224" lon="7.8407641"><ele>243.0</ele><time>2026-04-11T10:03:01.06Z</time></trkpt><trkpt lat="44.9212062" lon="7.8407388"><ele>243.0</ele><time>2026-04-11T10:03:04.084Z</time></trkpt><trkpt lat="44.9212735" lon="7.8407033"><ele>243.0</ele><time>2026-04-11T10:03:06.059Z</time></trkpt><trkpt lat="44.9206317" lon="7.8409317"><ele>243.5</ele><time>2026-04-11T10:03:07.059Z</time></trkpt><trkpt lat="44.920565" lon="7.84102"><ele>244.0</ele><time>2026-04-11T10:03:09.059Z</time></trkpt><trkpt lat="44.9204983" lon="7.8411017"><ele>244.5</ele><time>2026-04-11T10:03:11.06Z</time></trkpt><trkpt lat="44.9204533" lon="7.841195"><ele>245.0</ele><time>2026-04-11T10:03:13.058Z</time></trkpt><trkpt lat="44.9204067" lon="7.841285"><ele>245.5</ele><time>2026-04-11T10:03:15.062Z</time></trkpt><trkpt lat="44.9203567" lon="7.8413783"><ele>246.0</ele><time>2026-04-11T10:03:17.058Z</time></trkpt><trkpt lat="44.9203133" lon="7.8414533"><ele>246.0</ele><time>2026-04-11T10:03:19.059Z</time></trkpt><trkpt lat="44.920265" lon="7.8415383"><ele>246.0</ele><time>2026-04-11T10:03:22.06Z</time></trkpt><trkpt lat="44.9203667" lon="7.8414733"><ele>246.0</ele><time>2026-04-11T10:03:56.057Z</time></trkpt><trkpt lat="44.9203117" lon="7.8415417"><ele>246.0</ele><time>2026-04-11T10:04:02.058Z</time></trkpt><trkpt lat="44.92027" lon="7.84161"><ele>246.0</ele><time>2026-04-11T10:04:04.06Z</time></trkpt><trkpt lat="44.920225" lon="7.841685"><ele>246.0</ele><time>2026-04-11T10:04:06.06Z</time></trkpt><trkpt lat="44.9201833" lon="7.841755"><ele>246.66666666666666</ele><time>2026-04-11T10:04:09.059Z</time></trkpt><trkpt lat="44.920225" lon="7.8418417"><ele>247.33333333333331</ele><time>2026-04-11T10:04:15.059Z</time></trkpt><trkpt lat="44.9202933" lon="7.8419133"><ele>248.0</ele><time>2026-04-11T10:04:17.061Z</time></trkpt><trkpt lat="44.9203717" lon="7.841985"><ele>248.66666666666666</ele><time>2026-04-11T10:04:19.059Z</time></trkpt><trkpt lat="44.9204383" lon="7.8420683"><ele>249.33333333333331</ele><time>2026-04-11T10:04:21.057Z</time></trkpt><trkpt lat="44.9205117" lon="7.842145"><ele>250.0</ele><time>2026-04-11T10:04:23.058Z</time></trkpt><trkpt lat="44.9205783" lon="7.8422067"><ele>250.0</ele><time>2026-04-11T10:04:25.057Z</time></trkpt><trkpt lat="44.9206333" lon="7.8422917"><ele>250.0</ele><time>2026-04-11T10:04:27.062Z</time></trkpt><trkpt lat="44.920705" lon="7.8423533"><ele>250.0</ele><time>2026-04-11T10:04:29.059Z</time></trkpt><trkpt lat="44.9207633" lon="7.8424167"><ele>250.0</ele><time>2026-04-11T10:04:31.059Z</time></trkpt><trkpt lat="44.92082" lon="7.84248"><ele>250.0</ele><time>2026-04-11T10:04:33.059Z</time></trkpt><trkpt lat="44.92087" lon="7.842535"><ele>250.0</ele><time>2026-04-11T10:04:35.059Z</time></trkpt><trkpt lat="44.9209183" lon="7.842605"><ele>250.0</ele><time>2026-04-11T10:04:38.057Z</time></trkpt><trkpt lat="44.9208617" lon="7.8426867"><ele>250.83333333333331</ele><time>2026-04-11T10:04:40.058Z</time></trkpt><trkpt lat="44.9208067" lon="7.842775"><ele>251.66666666666666</ele><time>2026-04-11T10:04:42.06Z</time></trkpt><trkpt lat="44.9207533" lon="7.8428767"><ele>252.5</ele><time>2026-04-11T10:04:44.058Z</time></trkpt><trkpt lat="44.920695" lon="7.84297"><ele>253.33333333333331</ele><time>2026-04-11T10:04:46.061Z</time></trkpt><trkpt lat="44.9206383" lon="7.8430683"><ele>254.16666666666666</ele><time>2026-04-11T10:04:48.059Z</time></trkpt><trkpt lat="44.9205867" lon="7.8431517"><ele>255.0</ele><time>2026-04-11T10:04:50.063Z</time></trkpt><trkpt lat="44.920535" lon="7.8432367"><ele>255.0</ele><time>2026-04-11T10:04:52.059Z</time></trkpt><trkpt lat="44.9204883" lon="7.8433217"><ele>255.0</ele><time>2026-04-11T10:04:54.06Z</time></trkpt><trkpt lat="44.9204533" lon="7.8433983"><ele>255.0</ele><time>2026-04-11T10:04:56.059Z</time></trkpt><trkpt lat="44.9203983" lon="7.8434833"><ele>255.0</ele><time>2026-04-11T10:04:59.058Z</time></trkpt><trkpt lat="44.9203367" lon="7.843575"><ele>255.0</ele><time>2026-04-11T10:05:02.058Z</time></trkpt><trkpt lat="44.9202883" lon="7.8436483"><ele>255.0</ele><time>2026-04-11T10:05:04.059Z</time></trkpt><trkpt lat="44.920245" lon="7.8437333"><ele>255.33333333333334</ele><time>2026-04-11T10:05:06.06Z</time></trkpt><trkpt lat="44.9202033" lon="7.84383"><ele>255.66666666666669</ele><time>2026-04-11T10:05:08.06Z</time></trkpt><trkpt lat="44.9201717" lon="7.8439267"><ele>256.0</ele><time>2026-04-11T10:05:10.059Z</time></trkpt><trkpt lat="44.92015" lon="7.8440333"><ele>256.33333333333337</ele><time>2026-04-11T10:05:12.059Z</time></trkpt><trkpt lat="44.92015" lon="7.844145"><ele>256.6666666666667</ele><time>2026-04-11T10:05:14.059Z</time></trkpt><trkpt lat="44.92016" lon="7.8442567"><ele>257.0</ele><time>2026-04-11T10:05:16.06Z</time></trkpt><trkpt lat="44.92017" lon="7.8443567"><ele>257.0</ele><time>2026-04-11T10:05:18.06Z</time></trkpt><trkpt lat="44.9201833" lon="7.8444567"><ele>257.0</ele><time>2026-04-11T10:05:21.06Z</time></trkpt><trkpt lat="44.92025" lon="7.8445167"><ele>257.0</ele><time>2026-04-11T10:05:25.059Z</time></trkpt><trkpt lat="44.9203217" lon="7.8445633"><ele>257.0</ele><time>2026-04-11T10:05:29.06Z</time></trkpt><trkpt lat="44.920375" lon="7.8446283"><ele>257.0</ele><time>2026-04-11T10:05:36.059Z</time></trkpt><trkpt lat="44.9204367" lon="7.8446617"><ele>257.0</ele><time>2026-04-11T10:05:41.057Z</time></trkpt><trkpt lat="44.9205" lon="7.84469"><ele>257.0</ele><time>2026-04-11T10:05:44.06Z</time></trkpt><trkpt lat="44.920565" lon="7.8447467"><ele>257.0</ele><time>2026-04-11T10:05:47.058Z</time></trkpt><trkpt lat="44.9206283" lon="7.8447883"><ele>257.0</ele><time>2026-04-11T10:05:50.06Z</time></trkpt><trkpt lat="44.9207017" lon="7.8448417"><ele>257.0</ele><time>2026-04-11T10:05:54.058Z</time></trkpt><trkpt lat="44.9207317" lon="7.84492"><ele>257.0</ele><time>2026-04-11T10:06:22.057Z</time></trkpt><trkpt lat="44.9207383" lon="7.845015"><ele>257.0</ele><time>2026-04-11T10:06:29.059Z</time></trkpt><trkpt lat="44.9208129" lon="7.845042"><ele>257.0</ele><time>2026-04-11T10:11:52.057Z</time></trkpt><trkpt lat="44.9207506" lon="7.8450111"><ele>257.0</ele><time>2026-04-11T10:13:07.056Z</time></trkpt><trkpt lat="44.9207604" lon="7.8451198"><ele>257.0</ele><time>2026-04-11T10:13:48.861Z</time></trkpt><trkpt lat="44.9207422" lon="7.8450226"><ele>257.0</ele><time>2026-04-11T10:16:25.066Z</time></trkpt><trkpt lat="44.9206885" lon="7.8450734"><ele>257.0</ele><time>2026-04-11T10:28:17.054Z</time></trkpt><trkpt lat="44.9207297" lon="7.8449987"><ele>257.0</ele><time>2026-04-11T10:30:10.079Z</time></trkpt><trkpt lat="44.9207428" lon="7.8449008"><ele>257.0</ele><time>2026-04-11T10:30:25.059Z</time></trkpt><trkpt lat="44.9207784" lon="7.8448259"><ele>257.0</ele><time>2026-04-11T10:31:04.06Z</time></trkpt><trkpt lat="44.9208487" lon="7.8446094"><ele>257.0</ele><time>2026-04-11T10:31:13.108Z</time></trkpt><trkpt lat="44.9208931" lon="7.8445355"><ele>257.0</ele><time>2026-04-11T10:31:15.058Z</time></trkpt><trkpt lat="44.9209283" lon="7.8444583"><ele>257.0</ele><time>2026-04-11T10:31:17.062Z</time></trkpt><trkpt lat="44.92097" lon="7.8443733"><ele>257.0</ele><time>2026-04-11T10:31:20.059Z</time></trkpt><trkpt lat="44.921005" lon="7.844295"><ele>257.0</ele><time>2026-04-11T10:31:22.06Z</time></trkpt><trkpt lat="44.9210333" lon="7.844205"><ele>257.0</ele><time>2026-04-11T10:31:24.058Z</time></trkpt><trkpt lat="44.92107" lon="7.8441233"><ele>257.0</ele><time>2026-04-11T10:31:26.06Z</time></trkpt><trkpt lat="44.9211183" lon="7.8440333"><ele>256.2857142857143</ele><time>2026-04-11T10:31:28.059Z</time></trkpt><trkpt lat="44.9211583" lon="7.8439517"><ele>255.57142857142858</ele><time>2026-04-11T10:31:30.058Z</time></trkpt><trkpt lat="44.9212083" lon="7.8438833"><ele>254.85714285714286</ele><time>2026-04-11T10:31:34.059Z</time></trkpt><trkpt lat="44.9212733" lon="7.8439167"><ele>254.14285714285714</ele><time>2026-04-11T10:31:37.061Z</time></trkpt><trkpt lat="44.9213417" lon="7.84396"><ele>253.42857142857144</ele><time>2026-04-11T10:31:40.059Z</time></trkpt><trkpt lat="44.921405" lon="7.8440017"><ele>252.71428571428572</ele><time>2026-04-11T10:31:42.061Z</time></trkpt><trkpt lat="44.9214633" lon="7.8440417"><ele>252.0</ele><time>2026-04-11T10:31:45.06Z</time></trkpt><trkpt lat="44.9214767" lon="7.843935"><ele>252.0</ele><time>2026-04-11T10:31:49.059Z</time></trkpt><trkpt lat="44.92153" lon="7.8438583"><ele>252.0</ele><time>2026-04-11T10:31:52.059Z</time></trkpt><trkpt lat="44.921615" lon="7.8438567"><ele>252.0</ele><time>2026-04-11T10:31:56.059Z</time></trkpt><trkpt lat="44.9216733" lon="7.8437833"><ele>252.0</ele><time>2026-04-11T10:31:58.059Z</time></trkpt><trkpt lat="44.9217383" lon="7.8436583"><ele>252.0</ele><time>2026-04-11T10:32:00.061Z</time></trkpt><trkpt lat="44.92178" lon="7.8435833"><ele>252.0</ele><time>2026-04-11T10:32:01.06Z</time></trkpt><trkpt lat="44.9218217" lon="7.8434983"><ele>250.85714285714286</ele><time>2026-04-11T10:32:02.058Z</time></trkpt><trkpt lat="44.92186" lon="7.8434133"><ele>249.71428571428572</ele><time>2026-04-11T10:32:03.058Z</time></trkpt><trkpt lat="44.921895" lon="7.84332"><ele>248.57142857142856</ele><time>2026-04-11T10:32:04.059Z</time></trkpt><trkpt lat="44.9219283" lon="7.8432283"><ele>247.42857142857142</ele><time>2026-04-11T10:32:05.059Z</time></trkpt><trkpt lat="44.9219583" lon="7.84314"><ele>246.28571428571428</ele><time>2026-04-11T10:32:06.061Z</time></trkpt><trkpt lat="44.9219883" lon="7.8430533"><ele>245.1428571428571</ele><time>2026-04-11T10:32:07.06Z</time></trkpt><trkpt lat="44.9220167" lon="7.8429683"><ele>243.99999999999997</ele><time>2026-04-11T10:32:08.06Z</time></trkpt><trkpt lat="44.9220467" lon="7.84288"><ele>243.99999999999997</ele><time>2026-04-11T10:32:09.064Z</time></trkpt><trkpt lat="44.922075" lon="7.8427933"><ele>244.0</ele><time>2026-04-11T10:32:10.06Z</time></trkpt><trkpt lat="44.9221033" lon="7.8427067"><ele>243.99999999999997</ele><time>2026-04-11T10:32:11.059Z</time></trkpt><trkpt lat="44.9221283" lon="7.8426217"><ele>243.99999999999997</ele><time>2026-04-11T10:32:12.059Z</time></trkpt><trkpt lat="44.9221533" lon="7.8425367"><ele>244.0</ele><time>2026-04-11T10:32:13.058Z</time></trkpt><trkpt lat="44.9221783" lon="7.8424533"><ele>243.99999999999997</ele><time>2026-04-11T10:32:14.059Z</time></trkpt><trkpt lat="44.9222017" lon="7.84237"><ele>243.99999999999997</ele><time>2026-04-11T10:32:15.062Z</time></trkpt><trkpt lat="44.9222283" lon="7.8422867"><ele>244.49999999999997</ele><time>2026-04-11T10:32:16.06Z</time></trkpt><trkpt lat="44.922255" lon="7.8422033"><ele>245.0</ele><time>2026-04-11T10:32:17.06Z</time></trkpt><trkpt lat="44.9222817" lon="7.8421183"><ele>245.5</ele><time>2026-04-11T10:32:18.061Z</time></trkpt><trkpt lat="44.9223067" lon="7.8420367"><ele>246.0</ele><time>2026-04-11T10:32:19.058Z</time></trkpt><trkpt lat="44.92236" lon="7.841905"><ele>246.49999999999997</ele><time>2026-04-11T10:32:21.061Z</time></trkpt><trkpt lat="44.9223917" lon="7.8417867"><ele>247.0</ele><time>2026-04-11T10:32:23.061Z</time></trkpt><trkpt lat="44.9223433" lon="7.8416533"><ele>247.0</ele><time>2026-04-11T10:32:25.059Z</time></trkpt><trkpt lat="44.9223267" lon="7.8414883"><ele>247.0</ele><time>2026-04-11T10:32:27.06Z</time></trkpt><trkpt lat="44.9223783" lon="7.8413267"><ele>247.0</ele><time>2026-04-11T10:32:29.055Z</time></trkpt><trkpt lat="44.922415" lon="7.8412517"><ele>247.0</ele><time>2026-04-11T10:32:30.055Z</time></trkpt><trkpt lat="44.922465" lon="7.8411283"><ele>247.0</ele><time>2026-04-11T10:32:32.06Z</time></trkpt><trkpt lat="44.922495" lon="7.8410217"><ele>246.33333333333331</ele><time>2026-04-11T10:32:35.06Z</time></trkpt><trkpt lat="44.9224733" lon="7.8408983"><ele>245.66666666666666</ele><time>2026-04-11T10:32:38.059Z</time></trkpt><trkpt lat="44.9224183" lon="7.8408367"><ele>245.0</ele><time>2026-04-11T10:32:40.059Z</time></trkpt><trkpt lat="44.9223583" lon="7.840775"><ele>244.33333333333331</ele><time>2026-04-11T10:32:42.059Z</time></trkpt><trkpt lat="44.9223033" lon="7.8407033"><ele>243.66666666666666</ele><time>2026-04-11T10:32:45.061Z</time></trkpt><trkpt lat="44.9223533" lon="7.84063"><ele>243.0</ele><time>2026-04-11T10:32:49.059Z</time></trkpt><trkpt lat="44.92242" lon="7.8405383"><ele>243.0</ele><time>2026-04-11T10:32:52.059Z</time></trkpt><trkpt lat="44.9224733" lon="7.840455"><ele>243.0</ele><time>2026-04-11T10:32:54.06Z</time></trkpt><trkpt lat="44.9225317" lon="7.8403633"><ele>243.0</ele><time>2026-04-11T10:32:56.061Z</time></trkpt><trkpt lat="44.9225933" lon="7.8402633"><ele>243.0</ele><time>2026-04-11T10:32:58.059Z</time></trkpt><trkpt lat="44.9226633" lon="7.84016"><ele>243.0</ele><time>2026-04-11T10:33:00.06Z</time></trkpt><trkpt lat="44.9227333" lon="7.8400633"><ele>242.4</ele><time>2026-04-11T10:33:02.06Z</time></trkpt><trkpt lat="44.9228017" lon="7.8399567"><ele>241.8</ele><time>2026-04-11T10:33:04.061Z</time></trkpt><trkpt lat="44.9228733" lon="7.8398483"><ele>241.2</ele><time>2026-04-11T10:33:06.061Z</time></trkpt><trkpt lat="44.9229533" lon="7.8397367"><ele>240.6</ele><time>2026-04-11T10:33:08.059Z</time></trkpt><trkpt lat="44.9230367" lon="7.839625"><ele>240.0</ele><time>2026-04-11T10:33:10.06Z</time></trkpt><trkpt lat="44.9231183" lon="7.8395133"><ele>240.0</ele><time>2026-04-11T10:33:12.06Z</time></trkpt><trkpt lat="44.9232117" lon="7.8394067"><ele>240.0</ele><time>2026-04-11T10:33:14.06Z</time></trkpt><trkpt lat="44.923305" lon="7.839305"><ele>240.0</ele><time>2026-04-11T10:33:16.059Z</time></trkpt><trkpt lat="44.9233967" lon="7.8392117"><ele>240.0</ele><time>2026-04-11T10:33:18.061Z</time></trkpt><trkpt lat="44.9234883" lon="7.8391283"><ele>240.0</ele><time>2026-04-11T10:33:20.059Z</time></trkpt><trkpt lat="44.9235817" lon="7.839045"><ele>240.0</ele><time>2026-04-11T10:33:22.06Z</time></trkpt><trkpt lat="44.92367" lon="7.838965"><ele>240.0</ele><time>2026-04-11T10:33:24.059Z</time></trkpt><trkpt lat="44.9237617" lon="7.8388933"><ele>240.0</ele><time>2026-04-11T10:33:26.061Z</time></trkpt><trkpt lat="44.9238517" lon="7.8388183"><ele>240.0</ele><time>2026-04-11T10:33:28.06Z</time></trkpt><trkpt lat="44.923945" lon="7.838745"><ele>240.0</ele><time>2026-04-11T10:33:30.061Z</time></trkpt><trkpt lat="44.924035" lon="7.8386617"><ele>240.0</ele><time>2026-04-11T10:33:32.061Z</time></trkpt><trkpt lat="44.9241267" lon="7.8385817"><ele>240.0</ele><time>2026-04-11T10:33:34.059Z</time></trkpt><trkpt lat="44.924215" lon="7.8385067"><ele>240.0</ele><time>2026-04-11T10:33:36.059Z</time></trkpt><trkpt lat="44.92431" lon="7.838445"><ele>240.0</ele><time>2026-04-11T10:33:38.059Z</time></trkpt><trkpt lat="44.9244117" lon="7.83841"><ele>239.6</ele><time>2026-04-11T10:33:40.06Z</time></trkpt><trkpt lat="44.9245083" lon="7.8383583"><ele>239.2</ele><time>2026-04-11T10:33:42.059Z</time></trkpt><trkpt lat="44.9245833" lon="7.8382617"><ele>238.8</ele><time>2026-04-11T10:33:44.059Z</time></trkpt><trkpt lat="44.9246417" lon="7.8381533"><ele>238.4</ele><time>2026-04-11T10:33:46.06Z</time></trkpt><trkpt lat="44.9247217" lon="7.8380683"><ele>238.0</ele><time>2026-04-11T10:33:48.061Z</time></trkpt><trkpt lat="44.9248083" lon="7.83799"><ele>238.0</ele><time>2026-04-11T10:33:50.06Z</time></trkpt><trkpt lat="44.9249033" lon="7.8379133"><ele>238.0</ele><time>2026-04-11T10:33:52.059Z</time></trkpt><trkpt lat="44.925" lon="7.83783"><ele>238.0</ele><time>2026-04-11T10:33:54.061Z</time></trkpt><trkpt lat="44.9250983" lon="7.8377433"><ele>238.0</ele><time>2026-04-11T10:33:56.059Z</time></trkpt><trkpt lat="44.9251767" lon="7.8376683"><ele>238.0</ele><time>2026-04-11T10:33:58.061Z</time></trkpt><trkpt lat="44.92523" lon="7.8376117"><ele>237.99999999999997</ele><time>2026-04-11T10:34:00.06Z</time></trkpt><trkpt lat="44.92529" lon="7.8375583"><ele>238.0</ele><time>2026-04-11T10:34:03.061Z</time></trkpt><trkpt lat="44.9253417" lon="7.8375"><ele>238.0</ele><time>2026-04-11T10:34:06.068Z</time></trkpt><trkpt lat="44.92531" lon="7.837405"><ele>238.0</ele><time>2026-04-11T10:34:09.061Z</time></trkpt><trkpt lat="44.9252617" lon="7.8373233"><ele>237.99999999999997</ele><time>2026-04-11T10:34:11.058Z</time></trkpt><trkpt lat="44.9252" lon="7.8372133"><ele>238.0</ele><time>2026-04-11T10:34:13.06Z</time></trkpt><trkpt lat="44.925125" lon="7.8371067"><ele>237.75</ele><time>2026-04-11T10:34:15.06Z</time></trkpt><trkpt lat="44.9250483" lon="7.8369967"><ele>237.5</ele><time>2026-04-11T10:34:17.06Z</time></trkpt><trkpt lat="44.9249733" lon="7.8368867"><ele>237.25</ele><time>2026-04-11T10:34:19.059Z</time></trkpt><trkpt lat="44.9248917" lon="7.8367733"><ele>237.0</ele><time>2026-04-11T10:34:21.059Z</time></trkpt><trkpt lat="44.92481" lon="7.8366533"><ele>236.66666666666666</ele><time>2026-04-11T10:34:23.059Z</time></trkpt><trkpt lat="44.9247283" lon="7.8365267"><ele>236.33333333333331</ele><time>2026-04-11T10:34:25.059Z</time></trkpt><trkpt lat="44.9246517" lon="7.8363917"><ele>236.0</ele><time>2026-04-11T10:34:27.06Z</time></trkpt><trkpt lat="44.924615" lon="7.8363183"><ele>235.66666666666666</ele><time>2026-04-11T10:34:28.06Z</time></trkpt><trkpt lat="44.9245817" lon="7.83624"><ele>235.33333333333331</ele><time>2026-04-11T10:34:29.06Z</time></trkpt><trkpt lat="44.92455" lon="7.8361617"><ele>235.0</ele><time>2026-04-11T10:34:30.058Z</time></trkpt><trkpt lat="44.92452" lon="7.83608"><ele>235.0</ele><time>2026-04-11T10:34:31.06Z</time></trkpt><trkpt lat="44.9244933" lon="7.835995"><ele>234.99999999999997</ele><time>2026-04-11T10:34:32.054Z</time></trkpt><trkpt lat="44.9244683" lon="7.8359117"><ele>235.0</ele><time>2026-04-11T10:34:33.061Z</time></trkpt><trkpt lat="44.9244417" lon="7.8358267"><ele>235.0</ele><time>2026-04-11T10:34:34.059Z</time></trkpt><trkpt lat="44.9244133" lon="7.8357417"><ele>234.99999999999997</ele><time>2026-04-11T10:34:35.055Z</time></trkpt><trkpt lat="44.9243883" lon="7.835655"><ele>235.0</ele><time>2026-04-11T10:34:36.058Z</time></trkpt><trkpt lat="44.9243683" lon="7.83557"><ele>235.0</ele><time>2026-04-11T10:34:37.058Z</time></trkpt><trkpt lat="44.9243467" lon="7.8354833"><ele>235.0</ele><time>2026-04-11T10:34:38.058Z</time></trkpt><trkpt lat="44.9243283" lon="7.835395"><ele>234.99999999999997</ele><time>2026-04-11T10:34:39.061Z</time></trkpt><trkpt lat="44.9243133" lon="7.8353017"><ele>235.0</ele><time>2026-04-11T10:34:40.06Z</time></trkpt><trkpt lat="44.9242983" lon="7.8352117"><ele>235.0</ele><time>2026-04-11T10:34:41.058Z</time></trkpt><trkpt lat="44.92429" lon="7.8351217"><ele>234.99999999999997</ele><time>2026-04-11T10:34:42.059Z</time></trkpt><trkpt lat="44.92428" lon="7.83503"><ele>235.0</ele><time>2026-04-11T10:34:43.06Z</time></trkpt><trkpt lat="44.9242717" lon="7.8349383"><ele>235.0</ele><time>2026-04-11T10:34:44.059Z</time></trkpt><trkpt lat="44.9242667" lon="7.8348483"><ele>234.99999999999997</ele><time>2026-04-11T10:34:45.06Z</time></trkpt><trkpt lat="44.9242617" lon="7.834755"><ele>235.0</ele><time>2026-04-11T10:34:46.06Z</time></trkpt><trkpt lat="44.92426" lon="7.834665"><ele>235.0</ele><time>2026-04-11T10:34:47.058Z</time></trkpt><trkpt lat="44.9242483" lon="7.8344917"><ele>235.0</ele><time>2026-04-11T10:34:49.06Z</time></trkpt><trkpt lat="44.924225" lon="7.8343183"><ele>234.99999999999997</ele><time>2026-04-11T10:34:51.062Z</time></trkpt><trkpt lat="44.9242183" lon="7.834225"><ele>235.0</ele><time>2026-04-11T10:34:52.06Z</time></trkpt><trkpt lat="44.9242133" lon="7.83413"><ele>235.14285714285714</ele><time>2026-04-11T10:34:53.06Z</time></trkpt><trkpt lat="44.9242033" lon="7.8340383"><ele>235.28571428571428</ele><time>2026-04-11T10:34:54.06Z</time></trkpt><trkpt lat="44.9241967" lon="7.8339483"><ele>235.42857142857142</ele><time>2026-04-11T10:34:55.061Z</time></trkpt><trkpt lat="44.9241933" lon="7.8338567"><ele>235.57142857142856</ele><time>2026-04-11T10:34:56.06Z</time></trkpt><trkpt lat="44.9241867" lon="7.833765"><ele>235.71428571428572</ele><time>2026-04-11T10:34:57.061Z</time></trkpt><trkpt lat="44.9241783" lon="7.83367"><ele>235.85714285714283</ele><time>2026-04-11T10:34:58.059Z</time></trkpt><trkpt lat="44.924175" lon="7.833575"><ele>236.0</ele><time>2026-04-11T10:34:59.061Z</time></trkpt><trkpt lat="44.9241733" lon="7.83348"><ele>236.0</ele><time>2026-04-11T10:35:00.059Z</time></trkpt><trkpt lat="44.924165" lon="7.8333867"><ele>236.0</ele><time>2026-04-11T10:35:01.061Z</time></trkpt><trkpt lat="44.9241583" lon="7.8332917"><ele>236.0</ele><time>2026-04-11T10:35:02.06Z</time></trkpt><trkpt lat="44.9241517" lon="7.833195"><ele>236.0</ele><time>2026-04-11T10:35:03.06Z</time></trkpt><trkpt lat="44.9241417" lon="7.8331033"><ele>236.0</ele><time>2026-04-11T10:35:04.059Z</time></trkpt><trkpt lat="44.92413" lon="7.83301"><ele>236.0</ele><time>2026-04-11T10:35:05.06Z</time></trkpt><trkpt lat="44.9241083" lon="7.8329183"><ele>236.0</ele><time>2026-04-11T10:35:06.063Z</time></trkpt><trkpt lat="44.9240817" lon="7.8328333"><ele>236.0</ele><time>2026-04-11T10:35:07.06Z</time></trkpt><trkpt lat="44.9240533" lon="7.8327433"><ele>236.0</ele><time>2026-04-11T10:35:08.058Z</time></trkpt><trkpt lat="44.9240267" lon="7.832655"><ele>236.0</ele><time>2026-04-11T10:35:09.062Z</time></trkpt><trkpt lat="44.9240033" lon="7.8325683"><ele>236.0</ele><time>2026-04-11T10:35:10.06Z</time></trkpt><trkpt lat="44.9239817" lon="7.8324767"><ele>236.0</ele><time>2026-04-11T10:35:11.06Z</time></trkpt><trkpt lat="44.9239667" lon="7.8323817"><ele>236.0</ele><time>2026-04-11T10:35:12.06Z</time></trkpt><trkpt lat="44.9239517" lon="7.8322883"><ele>236.0</ele><time>2026-04-11T10:35:13.062Z</time></trkpt><trkpt lat="44.92394" lon="7.832195"><ele>235.85714285714283</ele><time>2026-04-11T10:35:14.06Z</time></trkpt><trkpt lat="44.92393" lon="7.8321033"><ele>235.71428571428572</ele><time>2026-04-11T10:35:15.063Z</time></trkpt><trkpt lat="44.9239233" lon="7.8320083"><ele>235.57142857142856</ele><time>2026-04-11T10:35:16.061Z</time></trkpt><trkpt lat="44.92392" lon="7.831915"><ele>235.42857142857142</ele><time>2026-04-11T10:35:17.063Z</time></trkpt><trkpt lat="44.9239217" lon="7.8317633"><ele>235.28571428571428</ele><time>2026-04-11T10:35:19.06Z</time></trkpt><trkpt lat="44.923935" lon="7.8316617"><ele>235.14285714285714</ele><time>2026-04-11T10:35:21.06Z</time></trkpt><trkpt lat="44.9239467" lon="7.8315683"><ele>235.0</ele><time>2026-04-11T10:35:23.059Z</time></trkpt><trkpt lat="44.9239667" lon="7.8314467"><ele>235.2</ele><time>2026-04-11T10:35:25.062Z</time></trkpt><trkpt lat="44.923995" lon="7.8313133"><ele>235.4</ele><time>2026-04-11T10:35:27.06Z</time></trkpt><trkpt lat="44.9240233" lon="7.8311667"><ele>235.60000000000002</ele><time>2026-04-11T10:35:29.059Z</time></trkpt><trkpt lat="44.9240517" lon="7.83102"><ele>235.8</ele><time>2026-04-11T10:35:31.061Z</time></trkpt><trkpt lat="44.9240833" lon="7.8308683"><ele>236.0</ele><time>2026-04-11T10:35:33.061Z</time></trkpt><trkpt lat="44.92412" lon="7.8307183"><ele>236.00000000000003</ele><time>2026-04-11T10:35:35.058Z</time></trkpt><trkpt lat="44.9241683" lon="7.8305717"><ele>236.0</ele><time>2026-04-11T10:35:37.059Z</time></trkpt><trkpt lat="44.92423" lon="7.8304183"><ele>236.0</ele><time>2026-04-11T10:35:39.06Z</time></trkpt><trkpt lat="44.9242617" lon="7.83034"><ele>236.0</ele><time>2026-04-11T10:35:40.063Z</time></trkpt><trkpt lat="44.924295" lon="7.8302617"><ele>236.00000000000003</ele><time>2026-04-11T10:35:41.06Z</time></trkpt><trkpt lat="44.9243283" lon="7.8301817"><ele>236.0</ele><time>2026-04-11T10:35:42.062Z</time></trkpt><trkpt lat="44.9243617" lon="7.8301"><ele>236.0</ele><time>2026-04-11T10:35:43.06Z</time></trkpt><trkpt lat="44.924395" lon="7.83002"><ele>236.0</ele><time>2026-04-11T10:35:44.059Z</time></trkpt><trkpt lat="44.9244283" lon="7.8299417"><ele>236.0</ele><time>2026-04-11T10:35:45.063Z</time></trkpt><trkpt lat="44.9244633" lon="7.8298633"><ele>236.0</ele><time>2026-04-11T10:35:46.06Z</time></trkpt><trkpt lat="44.9245017" lon="7.8297883"><ele>236.0</ele><time>2026-04-11T10:35:47.06Z</time></trkpt><trkpt lat="44.924545" lon="7.8297183"><ele>236.0</ele><time>2026-04-11T10:35:48.059Z</time></trkpt><trkpt lat="44.9245917" lon="7.8296533"><ele>236.0</ele><time>2026-04-11T10:35:49.06Z</time></trkpt><trkpt lat="44.92464" lon="7.8295917"><ele>236.0</ele><time>2026-04-11T10:35:50.06Z</time></trkpt><trkpt lat="44.92469" lon="7.8295283"><ele>236.0</ele><time>2026-04-11T10:35:51.063Z</time></trkpt><trkpt lat="44.9247417" lon="7.8294633"><ele>236.0</ele><time>2026-04-11T10:35:52.059Z</time></trkpt><trkpt lat="44.9247917" lon="7.8294017"><ele>236.0</ele><time>2026-04-11T10:35:53.061Z</time></trkpt><trkpt lat="44.92484" lon="7.8293333"><ele>236.0</ele><time>2026-04-11T10:35:54.066Z</time></trkpt><trkpt lat="44.9248867" lon="7.8292633"><ele>236.0</ele><time>2026-04-11T10:35:55.062Z</time></trkpt><trkpt lat="44.9249283" lon="7.8291917"><ele>236.0</ele><time>2026-04-11T10:35:56.061Z</time></trkpt><trkpt lat="44.9249717" lon="7.82912"><ele>235.85714285714283</ele><time>2026-04-11T10:35:57.059Z</time></trkpt><trkpt lat="44.9250117" lon="7.8290483"><ele>235.71428571428572</ele><time>2026-04-11T10:35:58.06Z</time></trkpt><trkpt lat="44.9250517" lon="7.8289717"><ele>235.57142857142856</ele><time>2026-04-11T10:35:59.06Z</time></trkpt><trkpt lat="44.9250883" lon="7.8288983"><ele>235.42857142857142</ele><time>2026-04-11T10:36:00.06Z</time></trkpt><trkpt lat="44.925125" lon="7.8288217"><ele>235.28571428571428</ele><time>2026-04-11T10:36:01.06Z</time></trkpt><trkpt lat="44.9251583" lon="7.8287417"><ele>235.14285714285714</ele><time>2026-04-11T10:36:02.061Z</time></trkpt><trkpt lat="44.9251983" lon="7.828665"><ele>235.0</ele><time>2026-04-11T10:36:03.061Z</time></trkpt><trkpt lat="44.9252417" lon="7.828595"><ele>234.85714285714283</ele><time>2026-04-11T10:36:04.062Z</time></trkpt><trkpt lat="44.9252883" lon="7.82853"><ele>234.7142857142857</ele><time>2026-04-11T10:36:05.062Z</time></trkpt><trkpt lat="44.92534" lon="7.8284733"><ele>234.57142857142856</ele><time>2026-04-11T10:36:06.06Z</time></trkpt><trkpt lat="44.925395" lon="7.828425"><ele>234.42857142857144</ele><time>2026-04-11T10:36:07.061Z</time></trkpt><trkpt lat="44.9254517" lon="7.8283783"><ele>234.2857142857143</ele><time>2026-04-11T10:36:08.063Z</time></trkpt><trkpt lat="44.92551" lon="7.828335"><ele>234.14285714285717</ele><time>2026-04-11T10:36:09.062Z</time></trkpt><trkpt lat="44.9255683" lon="7.8282917"><ele>234.0</ele><time>2026-04-11T10:36:10.06Z</time></trkpt><trkpt lat="44.92563" lon="7.8282467"><ele>234.0</ele><time>2026-04-11T10:36:11.061Z</time></trkpt><trkpt lat="44.92569" lon="7.8282"><ele>234.00000000000003</ele><time>2026-04-11T10:36:12.063Z</time></trkpt><trkpt lat="44.9257533" lon="7.8281567"><ele>234.0</ele><time>2026-04-11T10:36:13.061Z</time></trkpt><trkpt lat="44.9258183" lon="7.828115"><ele>234.0</ele><time>2026-04-11T10:36:14.06Z</time></trkpt><trkpt lat="44.9258817" lon="7.8280733"><ele>234.00000000000003</ele><time>2026-04-11T10:36:15.061Z</time></trkpt><trkpt lat="44.9259433" lon="7.8280333"><ele>234.0</ele><time>2026-04-11T10:36:16.06Z</time></trkpt><trkpt lat="44.926005" lon="7.82799"><ele>234.0</ele><time>2026-04-11T10:36:17.059Z</time></trkpt><trkpt lat="44.9260633" lon="7.8279367"><ele>234.0</ele><time>2026-04-11T10:36:18.061Z</time></trkpt><trkpt lat="44.9261133" lon="7.82787"><ele>234.00000000000003</ele><time>2026-04-11T10:36:19.061Z</time></trkpt><trkpt lat="44.92616" lon="7.827795"><ele>234.0</ele><time>2026-04-11T10:36:20.06Z</time></trkpt><trkpt lat="44.926205" lon="7.8277117"><ele>234.0</ele><time>2026-04-11T10:36:21.058Z</time></trkpt><trkpt lat="44.9262467" lon="7.8276233"><ele>234.00000000000003</ele><time>2026-04-11T10:36:22.061Z</time></trkpt><trkpt lat="44.9262817" lon="7.8275317"><ele>234.0</ele><time>2026-04-11T10:36:23.059Z</time></trkpt><trkpt lat="44.9263133" lon="7.8274383"><ele>234.0</ele><time>2026-04-11T10:36:24.059Z</time></trkpt><trkpt lat="44.9263417" lon="7.8273433"><ele>234.0</ele><time>2026-04-11T10:36:25.062Z</time></trkpt><trkpt lat="44.9263633" lon="7.827245"><ele>234.00000000000003</ele><time>2026-04-11T10:36:26.055Z</time></trkpt><trkpt lat="44.9263783" lon="7.8271467"><ele>234.0</ele><time>2026-04-11T10:36:27.061Z</time></trkpt><trkpt lat="44.926395" lon="7.8270483"><ele>234.0</ele><time>2026-04-11T10:36:28.061Z</time></trkpt><trkpt lat="44.92641" lon="7.8269467"><ele>234.00000000000003</ele><time>2026-04-11T10:36:29.062Z</time></trkpt><trkpt lat="44.9264267" lon="7.8268433"><ele>234.0</ele><time>2026-04-11T10:36:30.059Z</time></trkpt><trkpt lat="44.92644" lon="7.826745"><ele>234.0</ele><time>2026-04-11T10:36:31.056Z</time></trkpt><trkpt lat="44.9264583" lon="7.8266467"><ele>234.2857142857143</ele><time>2026-04-11T10:36:32.056Z</time></trkpt><trkpt lat="44.9264817" lon="7.8265483"><ele>234.5714285714286</ele><time>2026-04-11T10:36:33.056Z</time></trkpt><trkpt lat="44.9265067" lon="7.8264483"><ele>234.85714285714286</ele><time>2026-04-11T10:36:34.057Z</time></trkpt><trkpt lat="44.926535" lon="7.8263567"><ele>235.14285714285717</ele><time>2026-04-11T10:36:35.055Z</time></trkpt><trkpt lat="44.926565" lon="7.8262633"><ele>235.42857142857144</ele><time>2026-04-11T10:36:36.056Z</time></trkpt><trkpt lat="44.9265983" lon="7.8261733"><ele>235.71428571428572</ele><time>2026-04-11T10:36:37.059Z</time></trkpt><trkpt lat="44.9266367" lon="7.82609"><ele>236.0</ele><time>2026-04-11T10:36:38.055Z</time></trkpt><trkpt lat="44.9266817" lon="7.826005"><ele>236.0</ele><time>2026-04-11T10:36:39.055Z</time></trkpt><trkpt lat="44.9267283" lon="7.8259233"><ele>236.0</ele><time>2026-04-11T10:36:40.058Z</time></trkpt><trkpt lat="44.9267767" lon="7.8258517"><ele>236.0</ele><time>2026-04-11T10:36:41.06Z</time></trkpt><trkpt lat="44.9268283" lon="7.8257767"><ele>236.0</ele><time>2026-04-11T10:36:42.062Z</time></trkpt><trkpt lat="44.9268833" lon="7.825705"><ele>236.0</ele><time>2026-04-11T10:36:43.055Z</time></trkpt><trkpt lat="44.9269383" lon="7.825635"><ele>236.0</ele><time>2026-04-11T10:36:44.055Z</time></trkpt><trkpt lat="44.9269933" lon="7.82557"><ele>236.0</ele><time>2026-04-11T10:36:45.058Z</time></trkpt><trkpt lat="44.9270517" lon="7.8255067"><ele>236.0</ele><time>2026-04-11T10:36:46.055Z</time></trkpt><trkpt lat="44.9271133" lon="7.8254467"><ele>236.0</ele><time>2026-04-11T10:36:47.055Z</time></trkpt><trkpt lat="44.9271717" lon="7.8253817"><ele>236.0</ele><time>2026-04-11T10:36:48.056Z</time></trkpt><trkpt lat="44.927225" lon="7.825315"><ele>236.0</ele><time>2026-04-11T10:36:49.056Z</time></trkpt><trkpt lat="44.9272717" lon="7.8252417"><ele>236.0</ele><time>2026-04-11T10:36:50.055Z</time></trkpt><trkpt lat="44.9273183" lon="7.82516"><ele>236.0</ele><time>2026-04-11T10:36:51.055Z</time></trkpt><trkpt lat="44.9273617" lon="7.82508"><ele>236.0</ele><time>2026-04-11T10:36:52.056Z</time></trkpt><trkpt lat="44.927405" lon="7.825"><ele>235.85714285714283</ele><time>2026-04-11T10:36:53.061Z</time></trkpt><trkpt lat="44.9274467" lon="7.8249217"><ele>235.71428571428572</ele><time>2026-04-11T10:36:54.058Z</time></trkpt><trkpt lat="44.92749" lon="7.8248433"><ele>235.57142857142856</ele><time>2026-04-11T10:36:55.063Z</time></trkpt><trkpt lat="44.9275333" lon="7.8247617"><ele>235.42857142857142</ele><time>2026-04-11T10:36:56.06Z</time></trkpt><trkpt lat="44.927575" lon="7.82468"><ele>235.28571428571428</ele><time>2026-04-11T10:36:57.062Z</time></trkpt><trkpt lat="44.9276117" lon="7.8245917"><ele>235.14285714285714</ele><time>2026-04-11T10:36:58.06Z</time></trkpt><trkpt lat="44.9276417" lon="7.8245"><ele>235.0</ele><time>2026-04-11T10:36:59.059Z</time></trkpt><trkpt lat="44.9276683" lon="7.8244083"><ele>235.0</ele><time>2026-04-11T10:37:00.062Z</time></trkpt><trkpt lat="44.9276933" lon="7.8243167"><ele>234.99999999999997</ele><time>2026-04-11T10:37:01.061Z</time></trkpt><trkpt lat="44.9277183" lon="7.8242233"><ele>235.0</ele><time>2026-04-11T10:37:02.06Z</time></trkpt><trkpt lat="44.92774" lon="7.8241317"><ele>235.0</ele><time>2026-04-11T10:37:03.062Z</time></trkpt><trkpt lat="44.9277533" lon="7.82404"><ele>234.99999999999997</ele><time>2026-04-11T10:37:04.061Z</time></trkpt><trkpt lat="44.9277617" lon="7.8239467"><ele>235.0</ele><time>2026-04-11T10:37:05.058Z</time></trkpt><trkpt lat="44.9277633" lon="7.8238533"><ele>235.0</ele><time>2026-04-11T10:37:06.06Z</time></trkpt><trkpt lat="44.9277583" lon="7.8237583"><ele>235.0</ele><time>2026-04-11T10:37:07.062Z</time></trkpt><trkpt lat="44.927755" lon="7.8236633"><ele>234.99999999999997</ele><time>2026-04-11T10:37:08.063Z</time></trkpt><trkpt lat="44.927755" lon="7.823565"><ele>235.0</ele><time>2026-04-11T10:37:09.064Z</time></trkpt><trkpt lat="44.9277567" lon="7.8234633"><ele>235.0</ele><time>2026-04-11T10:37:10.061Z</time></trkpt><trkpt lat="44.9277517" lon="7.823365"><ele>234.99999999999997</ele><time>2026-04-11T10:37:11.062Z</time></trkpt><trkpt lat="44.9277467" lon="7.8232633"><ele>235.0</ele><time>2026-04-11T10:37:12.061Z</time></trkpt><trkpt lat="44.927745" lon="7.8231617"><ele>235.0</ele><time>2026-04-11T10:37:13.061Z</time></trkpt><trkpt lat="44.9277433" lon="7.8230567"><ele>235.0</ele><time>2026-04-11T10:37:14.061Z</time></trkpt><trkpt lat="44.92774" lon="7.8229517"><ele>234.99999999999997</ele><time>2026-04-11T10:37:15.061Z</time></trkpt><trkpt lat="44.927735" lon="7.8228483"><ele>235.0</ele><time>2026-04-11T10:37:16.062Z</time></trkpt><trkpt lat="44.92773" lon="7.8227483"><ele>235.0</ele><time>2026-04-11T10:37:17.06Z</time></trkpt><trkpt lat="44.92772" lon="7.8226517"><ele>234.99999999999997</ele><time>2026-04-11T10:37:18.06Z</time></trkpt><trkpt lat="44.9277133" lon="7.822555"><ele>235.0</ele><time>2026-04-11T10:37:19.065Z</time></trkpt><trkpt lat="44.9277083" lon="7.82246"><ele>235.0</ele><time>2026-04-11T10:37:20.06Z</time></trkpt><trkpt lat="44.9277033" lon="7.822365"><ele>235.0</ele><time>2026-04-11T10:37:21.061Z</time></trkpt><trkpt lat="44.9277033" lon="7.8222683"><ele>234.99999999999997</ele><time>2026-04-11T10:37:22.062Z</time></trkpt><trkpt lat="44.9277033" lon="7.822165"><ele>235.0</ele><time>2026-04-11T10:37:23.061Z</time></trkpt><trkpt lat="44.9277017" lon="7.8220583"><ele>235.0</ele><time>2026-04-11T10:37:24.06Z</time></trkpt><trkpt lat="44.9276967" lon="7.82196"><ele>234.99999999999997</ele><time>2026-04-11T10:37:25.061Z</time></trkpt><trkpt lat="44.9276867" lon="7.821865"><ele>235.0</ele><time>2026-04-11T10:37:26.06Z</time></trkpt><trkpt lat="44.9276783" lon="7.8217667"><ele>235.0</ele><time>2026-04-11T10:37:27.061Z</time></trkpt><trkpt lat="44.9276717" lon="7.8216667"><ele>234.83333333333331</ele><time>2026-04-11T10:37:28.061Z</time></trkpt><trkpt lat="44.927665" lon="7.82157"><ele>234.66666666666666</ele><time>2026-04-11T10:37:29.06Z</time></trkpt><trkpt lat="44.9276583" lon="7.8214717"><ele>234.5</ele><time>2026-04-11T10:37:30.06Z</time></trkpt><trkpt lat="44.9276533" lon="7.8213717"><ele>234.33333333333331</ele><time>2026-04-11T10:37:31.061Z</time></trkpt><trkpt lat="44.9276517" lon="7.8212767"><ele>234.16666666666666</ele><time>2026-04-11T10:37:32.06Z</time></trkpt><trkpt lat="44.9276483" lon="7.821095"><ele>234.0</ele><time>2026-04-11T10:37:34.061Z</time></trkpt><trkpt lat="44.92765" lon="7.821"><ele>234.2857142857143</ele><time>2026-04-11T10:37:35.06Z</time></trkpt><trkpt lat="44.9276617" lon="7.8209033"><ele>234.5714285714286</ele><time>2026-04-11T10:37:36.06Z</time></trkpt><trkpt lat="44.9276717" lon="7.8208067"><ele>234.85714285714286</ele><time>2026-04-11T10:37:37.062Z</time></trkpt><trkpt lat="44.9276967" lon="7.8207017"><ele>235.14285714285717</ele><time>2026-04-11T10:37:38.061Z</time></trkpt><trkpt lat="44.9277217" lon="7.8206083"><ele>235.42857142857144</ele><time>2026-04-11T10:37:39.062Z</time></trkpt><trkpt lat="44.92775" lon="7.820515"><ele>235.71428571428572</ele><time>2026-04-11T10:37:40.062Z</time></trkpt><trkpt lat="44.927785" lon="7.8204267"><ele>236.0</ele><time>2026-04-11T10:37:41.06Z</time></trkpt><trkpt lat="44.9278217" lon="7.820345"><ele>236.0</ele><time>2026-04-11T10:37:42.063Z</time></trkpt><trkpt lat="44.9278533" lon="7.8202667"><ele>236.0</ele><time>2026-04-11T10:37:43.062Z</time></trkpt><trkpt lat="44.92789" lon="7.8201817"><ele>236.0</ele><time>2026-04-11T10:37:44.062Z</time></trkpt><trkpt lat="44.927935" lon="7.820095"><ele>236.0</ele><time>2026-04-11T10:37:45.063Z</time></trkpt><trkpt lat="44.927985" lon="7.8200117"><ele>236.0</ele><time>2026-04-11T10:37:46.059Z</time></trkpt><trkpt lat="44.9280317" lon="7.8199317"><ele>236.0</ele><time>2026-04-11T10:37:47.059Z</time></trkpt><trkpt lat="44.928085" lon="7.81985"><ele>236.0</ele><time>2026-04-11T10:37:48.059Z</time></trkpt><trkpt lat="44.92814" lon="7.819775"><ele>236.16666666666669</ele><time>2026-04-11T10:37:49.061Z</time></trkpt><trkpt lat="44.9281967" lon="7.8196967"><ele>236.33333333333334</ele><time>2026-04-11T10:37:50.061Z</time></trkpt><trkpt lat="44.928255" lon="7.8196233"><ele>236.5</ele><time>2026-04-11T10:37:51.062Z</time></trkpt><trkpt lat="44.9283167" lon="7.8195567"><ele>236.66666666666669</ele><time>2026-04-11T10:37:52.06Z</time></trkpt><trkpt lat="44.9283817" lon="7.8195"><ele>236.83333333333334</ele><time>2026-04-11T10:37:53.056Z</time></trkpt><trkpt lat="44.9284433" lon="7.81945"><ele>237.0</ele><time>2026-04-11T10:37:54.06Z</time></trkpt><trkpt lat="44.92851" lon="7.8194033"><ele>236.99999999999997</ele><time>2026-04-11T10:37:55.06Z</time></trkpt><trkpt lat="44.9285733" lon="7.8193567"><ele>237.0</ele><time>2026-04-11T10:37:56.062Z</time></trkpt><trkpt lat="44.9286367" lon="7.8193083"><ele>236.99999999999997</ele><time>2026-04-11T10:37:57.063Z</time></trkpt><trkpt lat="44.9286983" lon="7.81926"><ele>236.99999999999997</ele><time>2026-04-11T10:37:58.06Z</time></trkpt><trkpt lat="44.92876" lon="7.819215"><ele>237.0</ele><time>2026-04-11T10:37:59.061Z</time></trkpt><trkpt lat="44.928825" lon="7.819165"><ele>236.99999999999997</ele><time>2026-04-11T10:38:00.06Z</time></trkpt><trkpt lat="44.9288917" lon="7.81912"><ele>236.99999999999997</ele><time>2026-04-11T10:38:01.061Z</time></trkpt><trkpt lat="44.9289567" lon="7.8190683"><ele>236.99999999999997</ele><time>2026-04-11T10:38:02.061Z</time></trkpt><trkpt lat="44.92902" lon="7.8190183"><ele>237.0</ele><time>2026-04-11T10:38:03.063Z</time></trkpt><trkpt lat="44.9290817" lon="7.81896"><ele>236.99999999999997</ele><time>2026-04-11T10:38:04.059Z</time></trkpt><trkpt lat="44.92914" lon="7.8188983"><ele>236.99999999999997</ele><time>2026-04-11T10:38:05.062Z</time></trkpt><trkpt lat="44.9291983" lon="7.8188317"><ele>237.0</ele><time>2026-04-11T10:38:06.058Z</time></trkpt><trkpt lat="44.9292533" lon="7.818765"><ele>236.99999999999997</ele><time>2026-04-11T10:38:07.061Z</time></trkpt><trkpt lat="44.92931" lon="7.8187017"><ele>236.99999999999997</ele><time>2026-04-11T10:38:08.06Z</time></trkpt><trkpt lat="44.929365" lon="7.8186383"><ele>236.99999999999997</ele><time>2026-04-11T10:38:09.064Z</time></trkpt><trkpt lat="44.9294217" lon="7.818575"><ele>237.0</ele><time>2026-04-11T10:38:10.061Z</time></trkpt><trkpt lat="44.9294767" lon="7.81851"><ele>236.99999999999997</ele><time>2026-04-11T10:38:11.06Z</time></trkpt><trkpt lat="44.9295333" lon="7.81845"><ele>236.99999999999997</ele><time>2026-04-11T10:38:12.062Z</time></trkpt><trkpt lat="44.9295867" lon="7.8183917"><ele>237.0</ele><time>2026-04-11T10:38:13.06Z</time></trkpt><trkpt lat="44.92964" lon="7.8183317"><ele>236.99999999999997</ele><time>2026-04-11T10:38:14.06Z</time></trkpt><trkpt lat="44.9296883" lon="7.818265"><ele>236.99999999999997</ele><time>2026-04-11T10:38:15.061Z</time></trkpt><trkpt lat="44.9297267" lon="7.8181917"><ele>236.99999999999997</ele><time>2026-04-11T10:38:16.061Z</time></trkpt><trkpt lat="44.9297583" lon="7.81811"><ele>237.0</ele><time>2026-04-11T10:38:17.06Z</time></trkpt><trkpt lat="44.9297867" lon="7.818025"><ele>236.99999999999997</ele><time>2026-04-11T10:38:18.059Z</time></trkpt><trkpt lat="44.929815" lon="7.81794"><ele>236.99999999999997</ele><time>2026-04-11T10:38:19.06Z</time></trkpt><trkpt lat="44.9298383" lon="7.8178567"><ele>237.0</ele><time>2026-04-11T10:38:20.061Z</time></trkpt><trkpt lat="44.92986" lon="7.817765"><ele>236.99999999999997</ele><time>2026-04-11T10:38:21.062Z</time></trkpt><trkpt lat="44.92988" lon="7.81767"><ele>236.99999999999997</ele><time>2026-04-11T10:38:22.062Z</time></trkpt><trkpt lat="44.9299017" lon="7.8175733"><ele>236.85714285714283</ele><time>2026-04-11T10:38:23.06Z</time></trkpt><trkpt lat="44.9299283" lon="7.8174767"><ele>236.71428571428572</ele><time>2026-04-11T10:38:24.06Z</time></trkpt><trkpt lat="44.9299617" lon="7.817385"><ele>236.57142857142856</ele><time>2026-04-11T10:38:25.06Z</time></trkpt><trkpt lat="44.930005" lon="7.8173033"><ele>236.42857142857142</ele><time>2026-04-11T10:38:26.061Z</time></trkpt><trkpt lat="44.93005" lon="7.81723"><ele>236.28571428571428</ele><time>2026-04-11T10:38:27.062Z</time></trkpt><trkpt lat="44.9301" lon="7.81716"><ele>236.14285714285714</ele><time>2026-04-11T10:38:28.062Z</time></trkpt><trkpt lat="44.9301517" lon="7.8170933"><ele>236.0</ele><time>2026-04-11T10:38:29.06Z</time></trkpt><trkpt lat="44.9302017" lon="7.8170367"><ele>235.85714285714283</ele><time>2026-04-11T10:38:30.062Z</time></trkpt><trkpt lat="44.9302533" lon="7.8169833"><ele>235.71428571428572</ele><time>2026-04-11T10:38:31.06Z</time></trkpt><trkpt lat="44.9303567" lon="7.8168867"><ele>235.57142857142856</ele><time>2026-04-11T10:38:33.06Z</time></trkpt><trkpt lat="44.9304117" lon="7.8168383"><ele>235.42857142857142</ele><time>2026-04-11T10:38:34.061Z</time></trkpt><trkpt lat="44.9304667" lon="7.8167933"><ele>235.28571428571428</ele><time>2026-04-11T10:38:35.059Z</time></trkpt><trkpt lat="44.9305217" lon="7.8167467"><ele>235.14285714285714</ele><time>2026-04-11T10:38:36.06Z</time></trkpt><trkpt lat="44.9305783" lon="7.8167"><ele>235.0</ele><time>2026-04-11T10:38:37.062Z</time></trkpt><trkpt lat="44.9306333" lon="7.816655"><ele>234.85714285714283</ele><time>2026-04-11T10:38:38.061Z</time></trkpt><trkpt lat="44.93069" lon="7.8166117"><ele>234.7142857142857</ele><time>2026-04-11T10:38:39.061Z</time></trkpt><trkpt lat="44.9307483" lon="7.81657"><ele>234.57142857142856</ele><time>2026-04-11T10:38:40.061Z</time></trkpt><trkpt lat="44.930805" lon="7.8165233"><ele>234.42857142857144</ele><time>2026-04-11T10:38:41.059Z</time></trkpt><trkpt lat="44.9308633" lon="7.8164833"><ele>234.2857142857143</ele><time>2026-04-11T10:38:42.064Z</time></trkpt><trkpt lat="44.9309233" lon="7.8164467"><ele>234.14285714285717</ele><time>2026-04-11T10:38:43.061Z</time></trkpt><trkpt lat="44.9309883" lon="7.8164117"><ele>234.0</ele><time>2026-04-11T10:38:44.061Z</time></trkpt><trkpt lat="44.9310483" lon="7.8163783"><ele>234.0</ele><time>2026-04-11T10:38:45.061Z</time></trkpt><trkpt lat="44.93111" lon="7.8163467"><ele>234.0</ele><time>2026-04-11T10:38:46.06Z</time></trkpt><trkpt lat="44.93117" lon="7.8163133"><ele>234.0</ele><time>2026-04-11T10:38:47.06Z</time></trkpt><trkpt lat="44.9312317" lon="7.81628"><ele>234.0</ele><time>2026-04-11T10:38:48.06Z</time></trkpt><trkpt lat="44.9312917" lon="7.8162483"><ele>234.0</ele><time>2026-04-11T10:38:49.062Z</time></trkpt><trkpt lat="44.9314083" lon="7.8161833"><ele>234.0</ele><time>2026-04-11T10:38:51.061Z</time></trkpt><trkpt lat="44.9314667" lon="7.816145"><ele>234.0</ele><time>2026-04-11T10:38:52.06Z</time></trkpt><trkpt lat="44.931525" lon="7.8161067"><ele>234.0</ele><time>2026-04-11T10:38:53.061Z</time></trkpt><trkpt lat="44.9316383" lon="7.8160283"><ele>234.0</ele><time>2026-04-11T10:38:55.061Z</time></trkpt><trkpt lat="44.9317583" lon="7.8159867"><ele>234.0</ele><time>2026-04-11T10:38:57.06Z</time></trkpt><trkpt lat="44.9318217" lon="7.8159867"><ele>234.0</ele><time>2026-04-11T10:38:58.061Z</time></trkpt><trkpt lat="44.931885" lon="7.815995"><ele>234.0</ele><time>2026-04-11T10:38:59.059Z</time></trkpt><trkpt lat="44.9319517" lon="7.8160067"><ele>233.71428571428572</ele><time>2026-04-11T10:39:00.059Z</time></trkpt><trkpt lat="44.9320167" lon="7.81602"><ele>233.42857142857144</ele><time>2026-04-11T10:39:01.06Z</time></trkpt><trkpt lat="44.9320833" lon="7.8160283"><ele>233.14285714285717</ele><time>2026-04-11T10:39:02.063Z</time></trkpt><trkpt lat="44.9321483" lon="7.8160417"><ele>232.8571428571429</ele><time>2026-04-11T10:39:03.06Z</time></trkpt><trkpt lat="44.9322133" lon="7.816055"><ele>232.57142857142858</ele><time>2026-04-11T10:39:04.062Z</time></trkpt><trkpt lat="44.9322767" lon="7.8160667"><ele>232.28571428571433</ele><time>2026-04-11T10:39:05.06Z</time></trkpt><trkpt lat="44.93234" lon="7.81608"><ele>232.00000000000003</ele><time>2026-04-11T10:39:06.062Z</time></trkpt><trkpt lat="44.9324033" lon="7.816095"><ele>232.0</ele><time>2026-04-11T10:39:07.061Z</time></trkpt><trkpt lat="44.9325267" lon="7.8161217"><ele>232.0</ele><time>2026-04-11T10:39:09.06Z</time></trkpt><trkpt lat="44.9326517" lon="7.8161367"><ele>232.0</ele><time>2026-04-11T10:39:11.06Z</time></trkpt><trkpt lat="44.9327733" lon="7.8160933"><ele>232.0</ele><time>2026-04-11T10:39:13.062Z</time></trkpt><trkpt lat="44.9328283" lon="7.81604"><ele>232.0</ele><time>2026-04-11T10:39:14.06Z</time></trkpt><trkpt lat="44.9328733" lon="7.815975"><ele>232.14285714285717</ele><time>2026-04-11T10:39:15.063Z</time></trkpt><trkpt lat="44.93292" lon="7.815905"><ele>232.28571428571428</ele><time>2026-04-11T10:39:16.066Z</time></trkpt><trkpt lat="44.9329683" lon="7.8158367"><ele>232.42857142857144</ele><time>2026-04-11T10:39:17.059Z</time></trkpt><trkpt lat="44.9330183" lon="7.8157683"><ele>232.57142857142858</ele><time>2026-04-11T10:39:18.061Z</time></trkpt><trkpt lat="44.933065" lon="7.8157017"><ele>232.71428571428572</ele><time>2026-04-11T10:39:19.063Z</time></trkpt><trkpt lat="44.9331133" lon="7.8156367"><ele>232.85714285714286</ele><time>2026-04-11T10:39:20.06Z</time></trkpt><trkpt lat="44.9331583" lon="7.81557"><ele>233.0</ele><time>2026-04-11T10:39:21.06Z</time></trkpt><trkpt lat="44.9332067" lon="7.8155033"><ele>233.0</ele><time>2026-04-11T10:39:22.061Z</time></trkpt><trkpt lat="44.9332517" lon="7.8154333"><ele>233.0</ele><time>2026-04-11T10:39:23.059Z</time></trkpt><trkpt lat="44.9332867" lon="7.815355"><ele>233.0</ele><time>2026-04-11T10:39:24.061Z</time></trkpt><trkpt lat="44.93331" lon="7.8152683"><ele>233.0</ele><time>2026-04-11T10:39:25.061Z</time></trkpt><trkpt lat="44.93332" lon="7.8151767"><ele>233.0</ele><time>2026-04-11T10:39:26.062Z</time></trkpt><trkpt lat="44.9333267" lon="7.8150867"><ele>233.0</ele><time>2026-04-11T10:39:27.061Z</time></trkpt><trkpt lat="44.9333383" lon="7.814995"><ele>233.0</ele><time>2026-04-11T10:39:28.06Z</time></trkpt><trkpt lat="44.933365" lon="7.81491"><ele>233.28571428571428</ele><time>2026-04-11T10:39:29.059Z</time></trkpt><trkpt lat="44.9334017" lon="7.814835"><ele>233.57142857142856</ele><time>2026-04-11T10:39:30.059Z</time></trkpt><trkpt lat="44.93345" lon="7.814765"><ele>233.85714285714283</ele><time>2026-04-11T10:39:31.06Z</time></trkpt><trkpt lat="44.9335033" lon="7.814705"><ele>234.14285714285714</ele><time>2026-04-11T10:39:32.061Z</time></trkpt><trkpt lat="44.9335583" lon="7.8146433"><ele>234.4285714285714</ele><time>2026-04-11T10:39:33.062Z</time></trkpt><trkpt lat="44.9336133" lon="7.8145833"><ele>234.7142857142857</ele><time>2026-04-11T10:39:34.06Z</time></trkpt><trkpt lat="44.9336683" lon="7.8145217"><ele>235.0</ele><time>2026-04-11T10:39:35.061Z</time></trkpt><trkpt lat="44.9337267" lon="7.8144583"><ele>235.0</ele><time>2026-04-11T10:39:36.059Z</time></trkpt><trkpt lat="44.9337817" lon="7.8143967"><ele>234.99999999999997</ele><time>2026-04-11T10:39:37.061Z</time></trkpt><trkpt lat="44.9338383" lon="7.8143333"><ele>235.0</ele><time>2026-04-11T10:39:38.059Z</time></trkpt><trkpt lat="44.9338933" lon="7.814275"><ele>235.0</ele><time>2026-04-11T10:39:39.06Z</time></trkpt><trkpt lat="44.93395" lon="7.814215"><ele>234.99999999999997</ele><time>2026-04-11T10:39:40.06Z</time></trkpt><trkpt lat="44.9340067" lon="7.8141533"><ele>235.0</ele><time>2026-04-11T10:39:41.061Z</time></trkpt><trkpt lat="44.9340617" lon="7.81409"><ele>235.0</ele><time>2026-04-11T10:39:42.061Z</time></trkpt><trkpt lat="44.93412" lon="7.8140283"><ele>235.0</ele><time>2026-04-11T10:39:43.061Z</time></trkpt><trkpt lat="44.9341783" lon="7.8139683"><ele>234.99999999999997</ele><time>2026-04-11T10:39:44.06Z</time></trkpt><trkpt lat="44.9342383" lon="7.8139117"><ele>235.0</ele><time>2026-04-11T10:39:45.063Z</time></trkpt><trkpt lat="44.9343033" lon="7.8138683"><ele>235.0</ele><time>2026-04-11T10:39:46.061Z</time></trkpt><trkpt lat="44.9343733" lon="7.8138383"><ele>234.99999999999997</ele><time>2026-04-11T10:39:47.059Z</time></trkpt><trkpt lat="44.9344467" lon="7.8138283"><ele>235.0</ele><time>2026-04-11T10:39:48.061Z</time></trkpt><trkpt lat="44.9345183" lon="7.8138283"><ele>235.0</ele><time>2026-04-11T10:39:49.061Z</time></trkpt><trkpt lat="44.93459" lon="7.8138267"><ele>234.85714285714283</ele><time>2026-04-11T10:39:50.059Z</time></trkpt><trkpt lat="44.93466" lon="7.8138167"><ele>234.7142857142857</ele><time>2026-04-11T10:39:51.062Z</time></trkpt><trkpt lat="44.9347333" lon="7.813795"><ele>234.57142857142856</ele><time>2026-04-11T10:39:52.063Z</time></trkpt><trkpt lat="44.9348033" lon="7.8137583"><ele>234.42857142857144</ele><time>2026-04-11T10:39:53.059Z</time></trkpt><trkpt lat="44.9348667" lon="7.8137083"><ele>234.2857142857143</ele><time>2026-04-11T10:39:54.061Z</time></trkpt><trkpt lat="44.9349267" lon="7.8136483"><ele>234.14285714285717</ele><time>2026-04-11T10:39:55.062Z</time></trkpt><trkpt lat="44.9349783" lon="7.8135783"><ele>234.0</ele><time>2026-04-11T10:39:56.06Z</time></trkpt><trkpt lat="44.9350283" lon="7.8135033"><ele>234.14285714285717</ele><time>2026-04-11T10:39:57.062Z</time></trkpt><trkpt lat="44.93508" lon="7.813425"><ele>234.2857142857143</ele><time>2026-04-11T10:39:58.06Z</time></trkpt><trkpt lat="44.9351317" lon="7.8133533"><ele>234.42857142857144</ele><time>2026-04-11T10:39:59.059Z</time></trkpt><trkpt lat="44.93519" lon="7.8132883"><ele>234.57142857142856</ele><time>2026-04-11T10:40:00.062Z</time></trkpt><trkpt lat="44.93525" lon="7.813225"><ele>234.7142857142857</ele><time>2026-04-11T10:40:01.064Z</time></trkpt><trkpt lat="44.935305" lon="7.8131533"><ele>234.85714285714283</ele><time>2026-04-11T10:40:02.062Z</time></trkpt><trkpt lat="44.9353583" lon="7.8130783"><ele>235.0</ele><time>2026-04-11T10:40:03.06Z</time></trkpt><trkpt lat="44.9354083" lon="7.8130017"><ele>235.0</ele><time>2026-04-11T10:40:04.057Z</time></trkpt><trkpt lat="44.935455" lon="7.81292"><ele>234.99999999999997</ele><time>2026-04-11T10:40:05.059Z</time></trkpt><trkpt lat="44.9355" lon="7.81284"><ele>235.0</ele><time>2026-04-11T10:40:06.064Z</time></trkpt><trkpt lat="44.9355417" lon="7.81276"><ele>235.0</ele><time>2026-04-11T10:40:07.062Z</time></trkpt><trkpt lat="44.9355883" lon="7.812685"><ele>234.99999999999997</ele><time>2026-04-11T10:40:08.059Z</time></trkpt><trkpt lat="44.935635" lon="7.8126117"><ele>235.0</ele><time>2026-04-11T10:40:09.061Z</time></trkpt><trkpt lat="44.9356833" lon="7.8125417"><ele>235.0</ele><time>2026-04-11T10:40:10.06Z</time></trkpt><trkpt lat="44.93574" lon="7.8124783"><ele>234.85714285714283</ele><time>2026-04-11T10:40:11.058Z</time></trkpt><trkpt lat="44.9357983" lon="7.8124167"><ele>234.7142857142857</ele><time>2026-04-11T10:40:12.061Z</time></trkpt><trkpt lat="44.9358617" lon="7.8123667"><ele>234.57142857142856</ele><time>2026-04-11T10:40:13.062Z</time></trkpt><trkpt lat="44.9359267" lon="7.8123283"><ele>234.42857142857144</ele><time>2026-04-11T10:40:14.058Z</time></trkpt><trkpt lat="44.935995" lon="7.8122917"><ele>234.2857142857143</ele><time>2026-04-11T10:40:15.059Z</time></trkpt><trkpt lat="44.9360633" lon="7.8122667"><ele>234.14285714285717</ele><time>2026-04-11T10:40:16.059Z</time></trkpt><trkpt lat="44.9361317" lon="7.8122467"><ele>234.0</ele><time>2026-04-11T10:40:17.06Z</time></trkpt><trkpt lat="44.9361983" lon="7.8122283"><ele>234.5</ele><time>2026-04-11T10:40:18.06Z</time></trkpt><trkpt lat="44.936265" lon="7.8122117"><ele>235.0</ele><time>2026-04-11T10:40:19.061Z</time></trkpt><trkpt lat="44.936335" lon="7.8121967"><ele>235.5</ele><time>2026-04-11T10:40:20.059Z</time></trkpt><trkpt lat="44.9364033" lon="7.812185"><ele>236.0</ele><time>2026-04-11T10:40:21.061Z</time></trkpt><trkpt lat="44.93647" lon="7.8121733"><ele>236.5</ele><time>2026-04-11T10:40:22.06Z</time></trkpt><trkpt lat="44.936535" lon="7.81216"><ele>237.0</ele><time>2026-04-11T10:40:23.06Z</time></trkpt><trkpt lat="44.93665" lon="7.812105"><ele>236.66666666666666</ele><time>2026-04-11T10:40:25.061Z</time></trkpt><trkpt lat="44.9367467" lon="7.811995"><ele>236.33333333333331</ele><time>2026-04-11T10:40:27.063Z</time></trkpt><trkpt lat="44.9367967" lon="7.811935"><ele>236.0</ele><time>2026-04-11T10:40:28.061Z</time></trkpt><trkpt lat="44.9368517" lon="7.8118783"><ele>235.66666666666666</ele><time>2026-04-11T10:40:29.065Z</time></trkpt><trkpt lat="44.9369067" lon="7.8118267"><ele>235.33333333333331</ele><time>2026-04-11T10:40:30.061Z</time></trkpt><trkpt lat="44.93696" lon="7.8117733"><ele>235.0</ele><time>2026-04-11T10:40:31.061Z</time></trkpt><trkpt lat="44.9370133" lon="7.81172"><ele>235.0</ele><time>2026-04-11T10:40:32.061Z</time></trkpt><trkpt lat="44.9370683" lon="7.8116717"><ele>235.0</ele><time>2026-04-11T10:40:33.061Z</time></trkpt><trkpt lat="44.9371717" lon="7.8115967"><ele>235.0</ele><time>2026-04-11T10:40:35.061Z</time></trkpt><trkpt lat="44.9372617" lon="7.8116117"><ele>235.0</ele><time>2026-04-11T10:40:37.062Z</time></trkpt><trkpt lat="44.9373117" lon="7.8117333"><ele>235.0</ele><time>2026-04-11T10:40:39.061Z</time></trkpt><trkpt lat="44.93735" lon="7.8118883"><ele>234.99999999999997</ele><time>2026-04-11T10:40:41.059Z</time></trkpt><trkpt lat="44.9373867" lon="7.812055"><ele>235.0</ele><time>2026-04-11T10:40:43.06Z</time></trkpt><trkpt lat="44.9374067" lon="7.81214"><ele>235.0</ele><time>2026-04-11T10:40:44.06Z</time></trkpt><trkpt lat="44.9374283" lon="7.812225"><ele>235.0</ele><time>2026-04-11T10:40:45.061Z</time></trkpt><trkpt lat="44.9374533" lon="7.8123067"><ele>234.99999999999997</ele><time>2026-04-11T10:40:46.061Z</time></trkpt><trkpt lat="44.9375267" lon="7.812445"><ele>235.0</ele><time>2026-04-11T10:40:48.059Z</time></trkpt><trkpt lat="44.9376383" lon="7.8125083"><ele>234.85714285714283</ele><time>2026-04-11T10:40:50.059Z</time></trkpt><trkpt lat="44.9377617" lon="7.8125083"><ele>234.7142857142857</ele><time>2026-04-11T10:40:52.066Z</time></trkpt><trkpt lat="44.9378267" lon="7.8125"><ele>234.57142857142856</ele><time>2026-04-11T10:40:53.062Z</time></trkpt><trkpt lat="44.93789" lon="7.8124883"><ele>234.42857142857144</ele><time>2026-04-11T10:40:54.063Z</time></trkpt><trkpt lat="44.937955" lon="7.812475"><ele>234.2857142857143</ele><time>2026-04-11T10:40:55.061Z</time></trkpt><trkpt lat="44.9380183" lon="7.8124617"><ele>234.14285714285717</ele><time>2026-04-11T10:40:56.061Z</time></trkpt><trkpt lat="44.9380833" lon="7.8124483"><ele>234.0</ele><time>2026-04-11T10:40:57.061Z</time></trkpt><trkpt lat="44.9381467" lon="7.812435"><ele>234.0</ele><time>2026-04-11T10:40:58.06Z</time></trkpt><trkpt lat="44.9382117" lon="7.8124267"><ele>234.00000000000003</ele><time>2026-04-11T10:40:59.059Z</time></trkpt><trkpt lat="44.938275" lon="7.8124167"><ele>234.0</ele><time>2026-04-11T10:41:00.06Z</time></trkpt><trkpt lat="44.9383383" lon="7.8124083"><ele>234.0</ele><time>2026-04-11T10:41:01.062Z</time></trkpt><trkpt lat="44.9384017" lon="7.8124017"><ele>234.00000000000003</ele><time>2026-04-11T10:41:02.059Z</time></trkpt><trkpt lat="44.9384667" lon="7.812395"><ele>234.0</ele><time>2026-04-11T10:41:03.061Z</time></trkpt><trkpt lat="44.9385317" lon="7.8123867"><ele>234.0</ele><time>2026-04-11T10:41:04.061Z</time></trkpt><trkpt lat="44.9385967" lon="7.812375"><ele>234.16666666666666</ele><time>2026-04-11T10:41:05.06Z</time></trkpt><trkpt lat="44.9386617" lon="7.8123633"><ele>234.33333333333331</ele><time>2026-04-11T10:41:06.06Z</time></trkpt><trkpt lat="44.938725" lon="7.8123517"><ele>234.5</ele><time>2026-04-11T10:41:07.06Z</time></trkpt><trkpt lat="44.9387883" lon="7.8123433"><ele>234.66666666666666</ele><time>2026-04-11T10:41:08.059Z</time></trkpt><trkpt lat="44.9389133" lon="7.8123267"><ele>234.83333333333331</ele><time>2026-04-11T10:41:10.062Z</time></trkpt><trkpt lat="44.9389767" lon="7.8123183"><ele>235.0</ele><time>2026-04-11T10:41:11.059Z</time></trkpt><trkpt lat="44.9391" lon="7.8122933"><ele>234.99999999999997</ele><time>2026-04-11T10:41:13.059Z</time></trkpt><trkpt lat="44.9391633" lon="7.8122783"><ele>235.0</ele><time>2026-04-11T10:41:14.059Z</time></trkpt><trkpt lat="44.9392267" lon="7.812265"><ele>235.0</ele><time>2026-04-11T10:41:15.061Z</time></trkpt><trkpt lat="44.9392917" lon="7.8122533"><ele>235.0</ele><time>2026-04-11T10:41:16.062Z</time></trkpt><trkpt lat="44.939355" lon="7.8122433"><ele>234.99999999999997</ele><time>2026-04-11T10:41:17.059Z</time></trkpt><trkpt lat="44.9394767" lon="7.8122233"><ele>235.0</ele><time>2026-04-11T10:41:19.06Z</time></trkpt><trkpt lat="44.9396" lon="7.8121983"><ele>235.25</ele><time>2026-04-11T10:41:21.06Z</time></trkpt><trkpt lat="44.93972" lon="7.8121767"><ele>235.5</ele><time>2026-04-11T10:41:23.058Z</time></trkpt><trkpt lat="44.9398383" lon="7.81217"><ele>235.75</ele><time>2026-04-11T10:41:25.061Z</time></trkpt><trkpt lat="44.9399567" lon="7.8121717"><ele>236.0</ele><time>2026-04-11T10:41:27.063Z</time></trkpt><trkpt lat="44.9400817" lon="7.81217"><ele>236.4</ele><time>2026-04-11T10:41:29.06Z</time></trkpt><trkpt lat="44.940205" lon="7.81217"><ele>236.8</ele><time>2026-04-11T10:41:31.063Z</time></trkpt><trkpt lat="44.9403233" lon="7.8121883"><ele>237.20000000000002</ele><time>2026-04-11T10:41:33.061Z</time></trkpt><trkpt lat="44.9404033" lon="7.812265"><ele>237.60000000000002</ele><time>2026-04-11T10:41:35.06Z</time></trkpt><trkpt lat="44.9404267" lon="7.8124017"><ele>238.0</ele><time>2026-04-11T10:41:37.063Z</time></trkpt><trkpt lat="44.940445" lon="7.8125583"><ele>239.4</ele><time>2026-04-11T10:41:39.063Z</time></trkpt><trkpt lat="44.9404733" lon="7.812715"><ele>240.8</ele><time>2026-04-11T10:41:41.058Z</time></trkpt><trkpt lat="44.9405467" lon="7.81282"><ele>242.2</ele><time>2026-04-11T10:41:43.06Z</time></trkpt><trkpt lat="44.9406533" lon="7.81286"><ele>243.6</ele><time>2026-04-11T10:41:45.061Z</time></trkpt><trkpt lat="44.94076" lon="7.812885"><ele>245.0</ele><time>2026-04-11T10:41:47.059Z</time></trkpt><trkpt lat="44.9408667" lon="7.8129333"><ele>244.6</ele><time>2026-04-11T10:41:49.062Z</time></trkpt><trkpt lat="44.940975" lon="7.8129883"><ele>244.2</ele><time>2026-04-11T10:41:51.062Z</time></trkpt><trkpt lat="44.9410833" lon="7.8130333"><ele>243.8</ele><time>2026-04-11T10:41:53.061Z</time></trkpt><trkpt lat="44.9411867" lon="7.813085"><ele>243.4</ele><time>2026-04-11T10:41:55.06Z</time></trkpt><trkpt lat="44.9412917" lon="7.8131383"><ele>243.0</ele><time>2026-04-11T10:41:57.06Z</time></trkpt><trkpt lat="44.941405" lon="7.8131783"><ele>243.0</ele><time>2026-04-11T10:41:59.06Z</time></trkpt><trkpt lat="44.94152" lon="7.8132017"><ele>243.0</ele><time>2026-04-11T10:42:01.056Z</time></trkpt><trkpt lat="44.941635" lon="7.8132183"><ele>243.0</ele><time>2026-04-11T10:42:03.062Z</time></trkpt><trkpt lat="44.9417517" lon="7.8132233"><ele>243.0</ele><time>2026-04-11T10:42:05.058Z</time></trkpt><trkpt lat="44.9418717" lon="7.81323"><ele>243.25</ele><time>2026-04-11T10:42:07.059Z</time></trkpt><trkpt lat="44.9419867" lon="7.8132467"><ele>243.5</ele><time>2026-04-11T10:42:09.06Z</time></trkpt><trkpt lat="44.9420967" lon="7.8132617"><ele>243.75</ele><time>2026-04-11T10:42:11.06Z</time></trkpt><trkpt lat="44.9422083" lon="7.8132733"><ele>244.0</ele><time>2026-04-11T10:42:13.06Z</time></trkpt><trkpt lat="44.94232" lon="7.8132883"><ele>244.0</ele><time>2026-04-11T10:42:15.064Z</time></trkpt><trkpt lat="44.9424367" lon="7.8132967"><ele>244.0</ele><time>2026-04-11T10:42:17.06Z</time></trkpt><trkpt lat="44.9425533" lon="7.81329"><ele>244.0</ele><time>2026-04-11T10:42:19.061Z</time></trkpt><trkpt lat="44.94267" lon="7.8132667"><ele>244.0</ele><time>2026-04-11T10:42:21.063Z</time></trkpt><trkpt lat="44.942775" lon="7.81324"><ele>245.2</ele><time>2026-04-11T10:42:23.062Z</time></trkpt><trkpt lat="44.9428783" lon="7.8132633"><ele>246.39999999999998</ele><time>2026-04-11T10:42:25.062Z</time></trkpt><trkpt lat="44.942975" lon="7.81329"><ele>247.6</ele><time>2026-04-11T10:42:27.062Z</time></trkpt><trkpt lat="44.9430683" lon="7.81331"><ele>248.8</ele><time>2026-04-11T10:42:29.059Z</time></trkpt><trkpt lat="44.9431583" lon="7.8133333"><ele>250.0</ele><time>2026-04-11T10:42:31.061Z</time></trkpt><trkpt lat="44.9432533" lon="7.8133567"><ele>249.99999999999997</ele><time>2026-04-11T10:42:33.062Z</time></trkpt><trkpt lat="44.9433483" lon="7.8133783"><ele>250.0</ele><time>2026-04-11T10:42:35.06Z</time></trkpt><trkpt lat="44.9434383" lon="7.8134033"><ele>250.0</ele><time>2026-04-11T10:42:37.06Z</time></trkpt><trkpt lat="44.94352" lon="7.8134267"><ele>250.0</ele><time>2026-04-11T10:42:39.063Z</time></trkpt><trkpt lat="44.943585" lon="7.8134433"><ele>249.99999999999997</ele><time>2026-04-11T10:42:41.061Z</time></trkpt><trkpt lat="44.9436583" lon="7.813465"><ele>250.0</ele><time>2026-04-11T10:42:44.062Z</time></trkpt><trkpt lat="44.943735" lon="7.8134967"><ele>249.4</ele><time>2026-04-11T10:42:48.061Z</time></trkpt><trkpt lat="44.943835" lon="7.8135033"><ele>248.8</ele><time>2026-04-11T10:42:51.06Z</time></trkpt><trkpt lat="44.94392" lon="7.813525"><ele>248.2</ele><time>2026-04-11T10:42:53.06Z</time></trkpt><trkpt lat="44.944015" lon="7.8135583"><ele>247.6</ele><time>2026-04-11T10:42:55.062Z</time></trkpt><trkpt lat="44.94412" lon="7.8135933"><ele>247.0</ele><time>2026-04-11T10:42:57.062Z</time></trkpt><trkpt lat="44.9442267" lon="7.8136267"><ele>247.0</ele><time>2026-04-11T10:42:59.059Z</time></trkpt><trkpt lat="44.9443383" lon="7.81365"><ele>247.0</ele><time>2026-04-11T10:43:01.061Z</time></trkpt><trkpt lat="44.944455" lon="7.8136833"><ele>247.0</ele><time>2026-04-11T10:43:03.065Z</time></trkpt><trkpt lat="44.9445717" lon="7.813715"><ele>247.0</ele><time>2026-04-11T10:43:05.061Z</time></trkpt><trkpt lat="44.94469" lon="7.81375"><ele>247.0</ele><time>2026-04-11T10:43:07.06Z</time></trkpt><trkpt lat="44.94481" lon="7.8137783"><ele>247.0</ele><time>2026-04-11T10:43:09.062Z</time></trkpt><trkpt lat="44.9449233" lon="7.81381"><ele>247.0</ele><time>2026-04-11T10:43:11.061Z</time></trkpt><trkpt lat="44.94504" lon="7.813845"><ele>247.0</ele><time>2026-04-11T10:43:13.063Z</time></trkpt><trkpt lat="44.945155" lon="7.8138817"><ele>247.2</ele><time>2026-04-11T10:43:15.06Z</time></trkpt><trkpt lat="44.94527" lon="7.8139167"><ele>247.39999999999998</ele><time>2026-04-11T10:43:17.06Z</time></trkpt><trkpt lat="44.9453917" lon="7.8139533"><ele>247.60000000000002</ele><time>2026-04-11T10:43:19.061Z</time></trkpt><trkpt lat="44.9455167" lon="7.8139883"><ele>247.8</ele><time>2026-04-11T10:43:21.061Z</time></trkpt><trkpt lat="44.9455783" lon="7.8140083"><ele>248.0</ele><time>2026-04-11T10:43:22.062Z</time></trkpt><trkpt lat="44.94564" lon="7.81403"><ele>248.00000000000003</ele><time>2026-04-11T10:43:23.06Z</time></trkpt><trkpt lat="44.9457033" lon="7.8140483"><ele>248.0</ele><time>2026-04-11T10:43:24.061Z</time></trkpt><trkpt lat="44.9457667" lon="7.8140683"><ele>248.0</ele><time>2026-04-11T10:43:25.06Z</time></trkpt><trkpt lat="44.94583" lon="7.8140867"><ele>248.0</ele><time>2026-04-11T10:43:26.063Z</time></trkpt><trkpt lat="44.9458917" lon="7.814105"><ele>248.00000000000003</ele><time>2026-04-11T10:43:27.063Z</time></trkpt><trkpt lat="44.9460183" lon="7.8141417"><ele>248.0</ele><time>2026-04-11T10:43:29.06Z</time></trkpt><trkpt lat="44.9461433" lon="7.8141717"><ele>248.42857142857144</ele><time>2026-04-11T10:43:31.061Z</time></trkpt><trkpt lat="44.9462083" lon="7.81419"><ele>248.8571428571429</ele><time>2026-04-11T10:43:32.061Z</time></trkpt><trkpt lat="44.9462717" lon="7.8142117"><ele>249.28571428571428</ele><time>2026-04-11T10:43:33.06Z</time></trkpt><trkpt lat="44.946335" lon="7.8142317"><ele>249.71428571428572</ele><time>2026-04-11T10:43:34.061Z</time></trkpt><trkpt lat="44.9463983" lon="7.8142467"><ele>250.14285714285714</ele><time>2026-04-11T10:43:35.059Z</time></trkpt><trkpt lat="44.9464617" lon="7.814265"><ele>250.57142857142856</ele><time>2026-04-11T10:43:36.06Z</time></trkpt><trkpt lat="44.9465267" lon="7.8142867"><ele>250.99999999999997</ele><time>2026-04-11T10:43:37.063Z</time></trkpt><trkpt lat="44.94665" lon="7.814315"><ele>251.0</ele><time>2026-04-11T10:43:39.062Z</time></trkpt><trkpt lat="44.94677" lon="7.8143367"><ele>251.00000000000003</ele><time>2026-04-11T10:43:41.06Z</time></trkpt><trkpt lat="44.9468733" lon="7.814355"><ele>251.00000000000003</ele><time>2026-04-11T10:43:43.062Z</time></trkpt><trkpt lat="44.9469683" lon="7.8143133"><ele>251.0</ele><time>2026-04-11T10:43:45.065Z</time></trkpt><trkpt lat="44.947055" lon="7.814205"><ele>251.0</ele><time>2026-04-11T10:43:47.061Z</time></trkpt><trkpt lat="44.947105" lon="7.81415"><ele>251.4</ele><time>2026-04-11T10:43:48.06Z</time></trkpt><trkpt lat="44.9472033" lon="7.8140467"><ele>251.8</ele><time>2026-04-11T10:43:50.06Z</time></trkpt><trkpt lat="44.9473" lon="7.8139383"><ele>252.20000000000002</ele><time>2026-04-11T10:43:52.06Z</time></trkpt><trkpt lat="44.9473517" lon="7.8138817"><ele>252.60000000000002</ele><time>2026-04-11T10:43:53.062Z</time></trkpt><trkpt lat="44.9474483" lon="7.8137717"><ele>253.0</ele><time>2026-04-11T10:43:55.064Z</time></trkpt><trkpt lat="44.9475" lon="7.8137067"><ele>252.99999999999997</ele><time>2026-04-11T10:43:56.061Z</time></trkpt><trkpt lat="44.94759" lon="7.8135817"><ele>253.0</ele><time>2026-04-11T10:43:58.062Z</time></trkpt><trkpt lat="44.9476333" lon="7.8135133"><ele>253.0</ele><time>2026-04-11T10:43:59.06Z</time></trkpt><trkpt lat="44.9476733" lon="7.8134433"><ele>253.0</ele><time>2026-04-11T10:44:00.06Z</time></trkpt><trkpt lat="44.947715" lon="7.813375"><ele>252.99999999999997</ele><time>2026-04-11T10:44:01.062Z</time></trkpt><trkpt lat="44.94776" lon="7.813305"><ele>253.0</ele><time>2026-04-11T10:44:02.063Z</time></trkpt><trkpt lat="44.947805" lon="7.8132367"><ele>253.14285714285717</ele><time>2026-04-11T10:44:03.061Z</time></trkpt><trkpt lat="44.9478517" lon="7.8131667"><ele>253.28571428571428</ele><time>2026-04-11T10:44:04.06Z</time></trkpt><trkpt lat="44.9478983" lon="7.8130933"><ele>253.42857142857144</ele><time>2026-04-11T10:44:05.059Z</time></trkpt><trkpt lat="44.9479417" lon="7.8130183"><ele>253.57142857142858</ele><time>2026-04-11T10:44:06.06Z</time></trkpt><trkpt lat="44.947985" lon="7.8129433"><ele>253.71428571428572</ele><time>2026-04-11T10:44:07.06Z</time></trkpt><trkpt lat="44.9480283" lon="7.8128667"><ele>253.85714285714286</ele><time>2026-04-11T10:44:08.061Z</time></trkpt><trkpt lat="44.9480683" lon="7.81279"><ele>254.0</ele><time>2026-04-11T10:44:09.061Z</time></trkpt><trkpt lat="44.94811" lon="7.81271"><ele>254.0</ele><time>2026-04-11T10:44:10.062Z</time></trkpt><trkpt lat="44.94815" lon="7.81263"><ele>254.0</ele><time>2026-04-11T10:44:11.06Z</time></trkpt><trkpt lat="44.94819" lon="7.81255"><ele>254.0</ele><time>2026-04-11T10:44:12.061Z</time></trkpt><trkpt lat="44.9482283" lon="7.8124683"><ele>254.0</ele><time>2026-04-11T10:44:13.061Z</time></trkpt><trkpt lat="44.9482667" lon="7.812385"><ele>254.0</ele><time>2026-04-11T10:44:14.061Z</time></trkpt><trkpt lat="44.9483017" lon="7.8123017"><ele>254.0</ele><time>2026-04-11T10:44:15.061Z</time></trkpt><trkpt lat="44.94834" lon="7.812215"><ele>254.0</ele><time>2026-04-11T10:44:16.061Z</time></trkpt><trkpt lat="44.9483767" lon="7.8121333"><ele>254.0</ele><time>2026-04-11T10:44:17.06Z</time></trkpt><trkpt lat="44.9484133" lon="7.8120517"><ele>254.0</ele><time>2026-04-11T10:44:18.062Z</time></trkpt><trkpt lat="44.9484533" lon="7.81197"><ele>254.0</ele><time>2026-04-11T10:44:19.062Z</time></trkpt><trkpt lat="44.9484917" lon="7.81189"><ele>254.0</ele><time>2026-04-11T10:44:20.062Z</time></trkpt><trkpt lat="44.9485283" lon="7.81181"><ele>254.0</ele><time>2026-04-11T10:44:21.061Z</time></trkpt><trkpt lat="44.94857" lon="7.81173"><ele>254.0</ele><time>2026-04-11T10:44:22.061Z</time></trkpt><trkpt lat="44.9486083" lon="7.8116533"><ele>254.0</ele><time>2026-04-11T10:44:23.06Z</time></trkpt><trkpt lat="44.9486483" lon="7.8115767"><ele>253.85714285714286</ele><time>2026-04-11T10:44:24.064Z</time></trkpt><trkpt lat="44.9486917" lon="7.8115017"><ele>253.71428571428572</ele><time>2026-04-11T10:44:25.061Z</time></trkpt><trkpt lat="44.9487383" lon="7.8114267"><ele>253.57142857142858</ele><time>2026-04-11T10:44:26.062Z</time></trkpt><trkpt lat="44.948785" lon="7.8113567"><ele>253.42857142857144</ele><time>2026-04-11T10:44:27.06Z</time></trkpt><trkpt lat="44.9488333" lon="7.81129"><ele>253.28571428571428</ele><time>2026-04-11T10:44:28.059Z</time></trkpt><trkpt lat="44.9488883" lon="7.81123"><ele>253.14285714285717</ele><time>2026-04-11T10:44:29.058Z</time></trkpt><trkpt lat="44.9489467" lon="7.8111717"><ele>253.00000000000003</ele><time>2026-04-11T10:44:30.058Z</time></trkpt><trkpt lat="44.9490067" lon="7.8111167"><ele>253.00000000000003</ele><time>2026-04-11T10:44:31.06Z</time></trkpt><trkpt lat="44.949065" lon="7.81107"><ele>253.0</ele><time>2026-04-11T10:44:32.061Z</time></trkpt><trkpt lat="44.9491233" lon="7.8110267"><ele>253.00000000000003</ele><time>2026-04-11T10:44:33.06Z</time></trkpt><trkpt lat="44.949185" lon="7.81099"><ele>253.00000000000003</ele><time>2026-04-11T10:44:34.062Z</time></trkpt><trkpt lat="44.9492483" lon="7.8109533"><ele>253.0</ele><time>2026-04-11T10:44:35.059Z</time></trkpt><trkpt lat="44.9493133" lon="7.8109217"><ele>253.00000000000003</ele><time>2026-04-11T10:44:36.059Z</time></trkpt><trkpt lat="44.9493767" lon="7.8108967"><ele>253.00000000000003</ele><time>2026-04-11T10:44:37.06Z</time></trkpt><trkpt lat="44.9494433" lon="7.810875"><ele>253.28571428571433</ele><time>2026-04-11T10:44:38.059Z</time></trkpt><trkpt lat="44.9495117" lon="7.8108517"><ele>253.57142857142858</ele><time>2026-04-11T10:44:39.06Z</time></trkpt><trkpt lat="44.9495767" lon="7.8108233"><ele>253.8571428571429</ele><time>2026-04-11T10:44:40.061Z</time></trkpt><trkpt lat="44.9496383" lon="7.8107933"><ele>254.14285714285717</ele><time>2026-04-11T10:44:41.061Z</time></trkpt><trkpt lat="44.9497017" lon="7.8107633"><ele>254.42857142857144</ele><time>2026-04-11T10:44:42.06Z</time></trkpt><trkpt lat="44.9497667" lon="7.8107367"><ele>254.71428571428572</ele><time>2026-04-11T10:44:43.063Z</time></trkpt><trkpt lat="44.94983" lon="7.8107067"><ele>255.0</ele><time>2026-04-11T10:44:44.063Z</time></trkpt><trkpt lat="44.949895" lon="7.8106817"><ele>255.0</ele><time>2026-04-11T10:44:45.061Z</time></trkpt><trkpt lat="44.94996" lon="7.81066"><ele>255.00000000000003</ele><time>2026-04-11T10:44:46.06Z</time></trkpt><trkpt lat="44.9500233" lon="7.8106383"><ele>255.0</ele><time>2026-04-11T10:44:47.061Z</time></trkpt><trkpt lat="44.9500867" lon="7.8106267"><ele>255.0</ele><time>2026-04-11T10:44:48.059Z</time></trkpt><trkpt lat="44.9501517" lon="7.81062"><ele>255.00000000000003</ele><time>2026-04-11T10:44:49.061Z</time></trkpt><trkpt lat="44.9502167" lon="7.8106183"><ele>255.0</ele><time>2026-04-11T10:44:50.061Z</time></trkpt><trkpt lat="44.9502817" lon="7.81062"><ele>255.0</ele><time>2026-04-11T10:44:51.061Z</time></trkpt><trkpt lat="44.9504017" lon="7.8105817"><ele>254.71428571428572</ele><time>2026-04-11T10:44:53.061Z</time></trkpt><trkpt lat="44.9505017" lon="7.81048"><ele>254.42857142857144</ele><time>2026-04-11T10:44:55.062Z</time></trkpt><trkpt lat="44.9505483" lon="7.81042"><ele>254.14285714285717</ele><time>2026-04-11T10:44:56.062Z</time></trkpt><trkpt lat="44.9505967" lon="7.8103567"><ele>253.8571428571429</ele><time>2026-04-11T10:44:57.063Z</time></trkpt><trkpt lat="44.9506433" lon="7.8102967"><ele>253.57142857142858</ele><time>2026-04-11T10:44:58.062Z</time></trkpt><trkpt lat="44.9506933" lon="7.8102333"><ele>253.28571428571433</ele><time>2026-04-11T10:44:59.061Z</time></trkpt><trkpt lat="44.95074" lon="7.8101667"><ele>253.00000000000003</ele><time>2026-04-11T10:45:00.061Z</time></trkpt><trkpt lat="44.9507883" lon="7.8101033"><ele>253.00000000000003</ele><time>2026-04-11T10:45:01.063Z</time></trkpt><trkpt lat="44.950835" lon="7.81004"><ele>253.0</ele><time>2026-04-11T10:45:02.061Z</time></trkpt><trkpt lat="44.9508833" lon="7.8099767"><ele>253.00000000000003</ele><time>2026-04-11T10:45:03.061Z</time></trkpt><trkpt lat="44.9509333" lon="7.8099133"><ele>253.00000000000003</ele><time>2026-04-11T10:45:04.061Z</time></trkpt><trkpt lat="44.9509833" lon="7.8098517"><ele>253.0</ele><time>2026-04-11T10:45:05.059Z</time></trkpt><trkpt lat="44.9510333" lon="7.809795"><ele>253.00000000000003</ele><time>2026-04-11T10:45:06.06Z</time></trkpt><trkpt lat="44.9510833" lon="7.809735"><ele>253.00000000000003</ele><time>2026-04-11T10:45:07.06Z</time></trkpt><trkpt lat="44.95113" lon="7.8096717"><ele>253.16666666666666</ele><time>2026-04-11T10:45:08.06Z</time></trkpt><trkpt lat="44.9512183" lon="7.8095433"><ele>253.33333333333331</ele><time>2026-04-11T10:45:10.062Z</time></trkpt><trkpt lat="44.9512633" lon="7.80948"><ele>253.5</ele><time>2026-04-11T10:45:11.059Z</time></trkpt><trkpt lat="44.9513083" lon="7.809415"><ele>253.66666666666669</ele><time>2026-04-11T10:45:12.061Z</time></trkpt><trkpt lat="44.9513533" lon="7.80935"><ele>253.83333333333334</ele><time>2026-04-11T10:45:13.06Z</time></trkpt><trkpt lat="44.9514017" lon="7.8092867"><ele>254.0</ele><time>2026-04-11T10:45:14.061Z</time></trkpt><trkpt lat="44.9514483" lon="7.8092217"><ele>254.0</ele><time>2026-04-11T10:45:15.064Z</time></trkpt><trkpt lat="44.9514933" lon="7.8091583"><ele>254.0</ele><time>2026-04-11T10:45:16.06Z</time></trkpt><trkpt lat="44.95154" lon="7.8090917"><ele>254.0</ele><time>2026-04-11T10:45:17.059Z</time></trkpt><trkpt lat="44.9515867" lon="7.8090283"><ele>254.0</ele><time>2026-04-11T10:45:18.062Z</time></trkpt><trkpt lat="44.9516317" lon="7.8089633"><ele>254.0</ele><time>2026-04-11T10:45:19.061Z</time></trkpt><trkpt lat="44.95168" lon="7.8089"><ele>254.0</ele><time>2026-04-11T10:45:20.06Z</time></trkpt><trkpt lat="44.951725" lon="7.8088317"><ele>254.0</ele><time>2026-04-11T10:45:21.061Z</time></trkpt><trkpt lat="44.9517717" lon="7.80876"><ele>254.42857142857144</ele><time>2026-04-11T10:45:22.06Z</time></trkpt><trkpt lat="44.95182" lon="7.8086983"><ele>254.85714285714283</ele><time>2026-04-11T10:45:23.06Z</time></trkpt><trkpt lat="44.9518717" lon="7.8086317"><ele>255.28571428571428</ele><time>2026-04-11T10:45:24.059Z</time></trkpt><trkpt lat="44.951925" lon="7.8085617"><ele>255.71428571428572</ele><time>2026-04-11T10:45:25.06Z</time></trkpt><trkpt lat="44.951975" lon="7.808495"><ele>256.14285714285717</ele><time>2026-04-11T10:45:26.062Z</time></trkpt><trkpt lat="44.952025" lon="7.808425"><ele>256.57142857142856</ele><time>2026-04-11T10:45:27.064Z</time></trkpt><trkpt lat="44.9520733" lon="7.808355"><ele>257.0</ele><time>2026-04-11T10:45:28.063Z</time></trkpt><trkpt lat="44.95212" lon="7.8082817"><ele>257.2857142857143</ele><time>2026-04-11T10:45:29.057Z</time></trkpt><trkpt lat="44.9521667" lon="7.8082083"><ele>257.57142857142856</ele><time>2026-04-11T10:45:30.06Z</time></trkpt><trkpt lat="44.9522117" lon="7.8081367"><ele>257.8571428571429</ele><time>2026-04-11T10:45:31.061Z</time></trkpt><trkpt lat="44.952255" lon="7.8080667"><ele>258.1428571428571</ele><time>2026-04-11T10:45:32.062Z</time></trkpt><trkpt lat="44.9523" lon="7.8079967"><ele>258.42857142857144</ele><time>2026-04-11T10:45:33.059Z</time></trkpt><trkpt lat="44.9523433" lon="7.8079267"><ele>258.7142857142857</ele><time>2026-04-11T10:45:34.06Z</time></trkpt><trkpt lat="44.9523867" lon="7.8078567"><ele>259.0</ele><time>2026-04-11T10:45:35.06Z</time></trkpt><trkpt lat="44.9524317" lon="7.8077833"><ele>259.0</ele><time>2026-04-11T10:45:36.062Z</time></trkpt><trkpt lat="44.952475" lon="7.8077117"><ele>259.0</ele><time>2026-04-11T10:45:37.06Z</time></trkpt><trkpt lat="44.9525183" lon="7.8076417"><ele>259.0</ele><time>2026-04-11T10:45:38.062Z</time></trkpt><trkpt lat="44.9525617" lon="7.8075683"><ele>259.0</ele><time>2026-04-11T10:45:39.061Z</time></trkpt><trkpt lat="44.952605" lon="7.807495"><ele>259.0</ele><time>2026-04-11T10:45:40.061Z</time></trkpt><trkpt lat="44.952645" lon="7.8074167"><ele>259.0</ele><time>2026-04-11T10:45:41.062Z</time></trkpt><trkpt lat="44.9526817" lon="7.8073383"><ele>259.0</ele><time>2026-04-11T10:45:42.062Z</time></trkpt><trkpt lat="44.9527217" lon="7.807265"><ele>258.42857142857144</ele><time>2026-04-11T10:45:43.06Z</time></trkpt><trkpt lat="44.9527683" lon="7.8071983"><ele>257.8571428571429</ele><time>2026-04-11T10:45:44.06Z</time></trkpt><trkpt lat="44.9528183" lon="7.8071333"><ele>257.2857142857143</ele><time>2026-04-11T10:45:45.064Z</time></trkpt><trkpt lat="44.9528633" lon="7.807065"><ele>256.7142857142857</ele><time>2026-04-11T10:45:46.062Z</time></trkpt><trkpt lat="44.952905" lon="7.80699"><ele>256.14285714285717</ele><time>2026-04-11T10:45:47.06Z</time></trkpt><trkpt lat="44.9529483" lon="7.8069133"><ele>255.57142857142858</ele><time>2026-04-11T10:45:48.061Z</time></trkpt><trkpt lat="44.9529933" lon="7.8068383"><ele>255.0</ele><time>2026-04-11T10:45:49.062Z</time></trkpt><trkpt lat="44.9530367" lon="7.8067633"><ele>254.5</ele><time>2026-04-11T10:45:50.063Z</time></trkpt><trkpt lat="44.95308" lon="7.8066883"><ele>254.0</ele><time>2026-04-11T10:45:51.064Z</time></trkpt><trkpt lat="44.9531233" lon="7.8066167"><ele>253.5</ele><time>2026-04-11T10:45:52.063Z</time></trkpt><trkpt lat="44.9531667" lon="7.8065433"><ele>253.0</ele><time>2026-04-11T10:45:53.063Z</time></trkpt><trkpt lat="44.9532083" lon="7.8064733"><ele>252.5</ele><time>2026-04-11T10:45:54.062Z</time></trkpt><trkpt lat="44.9532883" lon="7.8063417"><ele>252.0</ele><time>2026-04-11T10:45:56.061Z</time></trkpt><trkpt lat="44.9533483" lon="7.8062267"><ele>252.6</ele><time>2026-04-11T10:45:58.06Z</time></trkpt><trkpt lat="44.9533933" lon="7.80611"><ele>253.2</ele><time>2026-04-11T10:46:00.062Z</time></trkpt><trkpt lat="44.95344" lon="7.8059783"><ele>253.8</ele><time>2026-04-11T10:46:02.063Z</time></trkpt><trkpt lat="44.9534983" lon="7.8058367"><ele>254.4</ele><time>2026-04-11T10:46:04.062Z</time></trkpt><trkpt lat="44.9535583" lon="7.80569"><ele>255.0</ele><time>2026-04-11T10:46:06.061Z</time></trkpt><trkpt lat="44.953595" lon="7.8055317"><ele>255.16666666666666</ele><time>2026-04-11T10:46:08.061Z</time></trkpt><trkpt lat="44.953625" lon="7.8053667"><ele>255.33333333333331</ele><time>2026-04-11T10:46:10.062Z</time></trkpt><trkpt lat="44.9536517" lon="7.8051917"><ele>255.5</ele><time>2026-04-11T10:46:12.061Z</time></trkpt><trkpt lat="44.9536617" lon="7.8051033"><ele>255.66666666666666</ele><time>2026-04-11T10:46:13.062Z</time></trkpt><trkpt lat="44.95367" lon="7.805015"><ele>255.83333333333331</ele><time>2026-04-11T10:46:14.06Z</time></trkpt><trkpt lat="44.9536767" lon="7.804925"><ele>256.0</ele><time>2026-04-11T10:46:15.061Z</time></trkpt><trkpt lat="44.9536783" lon="7.8048333"><ele>256.0</ele><time>2026-04-11T10:46:16.06Z</time></trkpt><trkpt lat="44.9536783" lon="7.8047417"><ele>255.99999999999997</ele><time>2026-04-11T10:46:17.061Z</time></trkpt><trkpt lat="44.9536767" lon="7.80465"><ele>256.0</ele><time>2026-04-11T10:46:18.062Z</time></trkpt><trkpt lat="44.953675" lon="7.804555"><ele>256.0</ele><time>2026-04-11T10:46:19.066Z</time></trkpt><trkpt lat="44.953675" lon="7.80446"><ele>255.99999999999997</ele><time>2026-04-11T10:46:20.061Z</time></trkpt><trkpt lat="44.9536767" lon="7.8043617"><ele>256.0</ele><time>2026-04-11T10:46:21.061Z</time></trkpt><trkpt lat="44.9536767" lon="7.804265"><ele>256.0</ele><time>2026-04-11T10:46:22.06Z</time></trkpt><trkpt lat="44.9536783" lon="7.8041717"><ele>255.85714285714283</ele><time>2026-04-11T10:46:23.06Z</time></trkpt><trkpt lat="44.9536817" lon="7.804075"><ele>255.7142857142857</ele><time>2026-04-11T10:46:24.06Z</time></trkpt><trkpt lat="44.9536833" lon="7.80398"><ele>255.57142857142856</ele><time>2026-04-11T10:46:25.06Z</time></trkpt><trkpt lat="44.9536867" lon="7.8038867"><ele>255.42857142857144</ele><time>2026-04-11T10:46:26.06Z</time></trkpt><trkpt lat="44.9536883" lon="7.8037933"><ele>255.2857142857143</ele><time>2026-04-11T10:46:27.061Z</time></trkpt><trkpt lat="44.9536933" lon="7.8036983"><ele>255.14285714285717</ele><time>2026-04-11T10:46:28.058Z</time></trkpt><trkpt lat="44.9537" lon="7.8036033"><ele>255.0</ele><time>2026-04-11T10:46:29.059Z</time></trkpt><trkpt lat="44.95371" lon="7.8035067"><ele>255.0</ele><time>2026-04-11T10:46:30.06Z</time></trkpt><trkpt lat="44.953725" lon="7.8034083"><ele>255.00000000000003</ele><time>2026-04-11T10:46:31.061Z</time></trkpt><trkpt lat="44.95374" lon="7.8033133"><ele>255.0</ele><time>2026-04-11T10:46:32.061Z</time></trkpt><trkpt lat="44.9537517" lon="7.803215"><ele>255.0</ele><time>2026-04-11T10:46:33.06Z</time></trkpt><trkpt lat="44.9537683" lon="7.8031183"><ele>255.00000000000003</ele><time>2026-04-11T10:46:34.062Z</time></trkpt><trkpt lat="44.9537933" lon="7.8030217"><ele>255.0</ele><time>2026-04-11T10:46:35.061Z</time></trkpt><trkpt lat="44.9538233" lon="7.8029233"><ele>255.0</ele><time>2026-04-11T10:46:36.06Z</time></trkpt><trkpt lat="44.9538533" lon="7.80283"><ele>255.0</ele><time>2026-04-11T10:46:37.062Z</time></trkpt><trkpt lat="44.9538833" lon="7.8027367"><ele>255.00000000000003</ele><time>2026-04-11T10:46:38.063Z</time></trkpt><trkpt lat="44.9539133" lon="7.8026433"><ele>255.0</ele><time>2026-04-11T10:46:39.062Z</time></trkpt><trkpt lat="44.95394" lon="7.802555"><ele>255.0</ele><time>2026-04-11T10:46:40.062Z</time></trkpt><trkpt lat="44.9539683" lon="7.8024667"><ele>255.00000000000003</ele><time>2026-04-11T10:46:41.06Z</time></trkpt><trkpt lat="44.953995" lon="7.8023717"><ele>255.0</ele><time>2026-04-11T10:46:42.06Z</time></trkpt><trkpt lat="44.9540183" lon="7.80228"><ele>255.0</ele><time>2026-04-11T10:46:43.059Z</time></trkpt><trkpt lat="44.95404" lon="7.8021867"><ele>255.0</ele><time>2026-04-11T10:46:44.062Z</time></trkpt><trkpt lat="44.95407" lon="7.8020983"><ele>255.00000000000003</ele><time>2026-04-11T10:46:45.061Z</time></trkpt><trkpt lat="44.9541017" lon="7.8020133"><ele>255.0</ele><time>2026-04-11T10:46:46.06Z</time></trkpt><trkpt lat="44.9541367" lon="7.8019283"><ele>255.0</ele><time>2026-04-11T10:46:47.06Z</time></trkpt><trkpt lat="44.9541733" lon="7.80184"><ele>255.00000000000003</ele><time>2026-04-11T10:46:48.062Z</time></trkpt><trkpt lat="44.9542133" lon="7.8017517"><ele>255.0</ele><time>2026-04-11T10:46:49.062Z</time></trkpt><trkpt lat="44.95425" lon="7.801665"><ele>255.0</ele><time>2026-04-11T10:46:50.06Z</time></trkpt><trkpt lat="44.9542867" lon="7.80158"><ele>255.14285714285717</ele><time>2026-04-11T10:46:51.059Z</time></trkpt><trkpt lat="44.9543217" lon="7.8015"><ele>255.2857142857143</ele><time>2026-04-11T10:46:52.061Z</time></trkpt><trkpt lat="44.9543583" lon="7.8014233"><ele>255.42857142857144</ele><time>2026-04-11T10:46:53.061Z</time></trkpt><trkpt lat="44.9543917" lon="7.8013433"><ele>255.57142857142856</ele><time>2026-04-11T10:46:54.061Z</time></trkpt><trkpt lat="44.9544267" lon="7.801265"><ele>255.7142857142857</ele><time>2026-04-11T10:46:55.059Z</time></trkpt><trkpt lat="44.9544617" lon="7.8011867"><ele>255.85714285714283</ele><time>2026-04-11T10:46:56.062Z</time></trkpt><trkpt lat="44.9544983" lon="7.8011067"><ele>256.0</ele><time>2026-04-11T10:46:57.062Z</time></trkpt><trkpt lat="44.954535" lon="7.8010267"><ele>255.57142857142856</ele><time>2026-04-11T10:46:58.06Z</time></trkpt><trkpt lat="44.9545717" lon="7.8009467"><ele>255.1428571428571</ele><time>2026-04-11T10:46:59.06Z</time></trkpt><trkpt lat="44.9546117" lon="7.8008667"><ele>254.71428571428572</ele><time>2026-04-11T10:47:00.062Z</time></trkpt><trkpt lat="44.9546533" lon="7.8007917"><ele>254.28571428571428</ele><time>2026-04-11T10:47:01.059Z</time></trkpt><trkpt lat="44.9546933" lon="7.800715"><ele>253.85714285714286</ele><time>2026-04-11T10:47:02.061Z</time></trkpt><trkpt lat="44.954735" lon="7.80064"><ele>253.42857142857144</ele><time>2026-04-11T10:47:03.06Z</time></trkpt><trkpt lat="44.9547767" lon="7.800565"><ele>253.00000000000003</ele><time>2026-04-11T10:47:04.06Z</time></trkpt><trkpt lat="44.9548167" lon="7.8004917"><ele>253.00000000000003</ele><time>2026-04-11T10:47:05.06Z</time></trkpt><trkpt lat="44.9548567" lon="7.8004167"><ele>253.0</ele><time>2026-04-11T10:47:06.061Z</time></trkpt><trkpt lat="44.954895" lon="7.80034"><ele>253.00000000000003</ele><time>2026-04-11T10:47:07.061Z</time></trkpt><trkpt lat="44.9549283" lon="7.8002617"><ele>253.00000000000003</ele><time>2026-04-11T10:47:08.061Z</time></trkpt><trkpt lat="44.95496" lon="7.8001833"><ele>253.0</ele><time>2026-04-11T10:47:09.062Z</time></trkpt><trkpt lat="44.95499" lon="7.8001017"><ele>253.00000000000003</ele><time>2026-04-11T10:47:10.057Z</time></trkpt><trkpt lat="44.9550167" lon="7.80002"><ele>253.00000000000003</ele><time>2026-04-11T10:47:11.059Z</time></trkpt><trkpt lat="44.9550433" lon="7.7999333"><ele>253.16666666666666</ele><time>2026-04-11T10:47:12.063Z</time></trkpt><trkpt lat="44.9550667" lon="7.799845"><ele>253.33333333333331</ele><time>2026-04-11T10:47:13.062Z</time></trkpt><trkpt lat="44.9550883" lon="7.7997583"><ele>253.5</ele><time>2026-04-11T10:47:14.061Z</time></trkpt><trkpt lat="44.95511" lon="7.7996733"><ele>253.66666666666669</ele><time>2026-04-11T10:47:15.063Z</time></trkpt><trkpt lat="44.9551533" lon="7.799515"><ele>253.83333333333334</ele><time>2026-04-11T10:47:17.06Z</time></trkpt><trkpt lat="44.9552033" lon="7.7993933"><ele>254.0</ele><time>2026-04-11T10:47:19.062Z</time></trkpt><trkpt lat="44.9552583" lon="7.7993467"><ele>254.0</ele><time>2026-04-11T10:47:21.062Z</time></trkpt><trkpt lat="44.9553233" lon="7.7993833"><ele>253.99999999999997</ele><time>2026-04-11T10:47:23.062Z</time></trkpt><trkpt lat="44.9553967" lon="7.7994383"><ele>253.99999999999997</ele><time>2026-04-11T10:47:25.063Z</time></trkpt><trkpt lat="44.9554867" lon="7.7994967"><ele>254.0</ele><time>2026-04-11T10:47:27.062Z</time></trkpt><trkpt lat="44.955585" lon="7.79956"><ele>254.0</ele><time>2026-04-11T10:47:29.056Z</time></trkpt><trkpt lat="44.9556867" lon="7.79963"><ele>254.0</ele><time>2026-04-11T10:47:31.054Z</time></trkpt><trkpt lat="44.9557883" lon="7.7997017"><ele>254.0</ele><time>2026-04-11T10:47:33.055Z</time></trkpt><trkpt lat="44.955895" lon="7.7997717"><ele>254.0</ele><time>2026-04-11T10:47:35.06Z</time></trkpt><trkpt lat="44.9559983" lon="7.7998483"><ele>254.0</ele><time>2026-04-11T10:47:37.061Z</time></trkpt><trkpt lat="44.9561033" lon="7.799915"><ele>254.0</ele><time>2026-04-11T10:47:39.059Z</time></trkpt><trkpt lat="44.9562117" lon="7.7999883"><ele>254.0</ele><time>2026-04-11T10:47:41.056Z</time></trkpt><trkpt lat="44.956315" lon="7.8000583"><ele>254.0</ele><time>2026-04-11T10:47:43.06Z</time></trkpt><trkpt lat="44.956425" lon="7.800135"><ele>254.0</ele><time>2026-04-11T10:47:45.061Z</time></trkpt><trkpt lat="44.9565333" lon="7.8002083"><ele>254.25</ele><time>2026-04-11T10:47:47.06Z</time></trkpt><trkpt lat="44.9566467" lon="7.8002783"><ele>254.5</ele><time>2026-04-11T10:47:49.06Z</time></trkpt><trkpt lat="44.9567617" lon="7.8003367"><ele>254.75</ele><time>2026-04-11T10:47:51.059Z</time></trkpt><trkpt lat="44.9568767" lon="7.80038"><ele>255.0</ele><time>2026-04-11T10:47:53.06Z</time></trkpt><trkpt lat="44.9569933" lon="7.8004217"><ele>255.25</ele><time>2026-04-11T10:47:55.06Z</time></trkpt><trkpt lat="44.95711" lon="7.8004617"><ele>255.5</ele><time>2026-04-11T10:47:57.063Z</time></trkpt><trkpt lat="44.957225" lon="7.8005133"><ele>255.75</ele><time>2026-04-11T10:47:59.059Z</time></trkpt><trkpt lat="44.9573367" lon="7.8005567"><ele>256.0</ele><time>2026-04-11T10:48:01.058Z</time></trkpt><trkpt lat="44.957445" lon="7.8006"><ele>257.0</ele><time>2026-04-11T10:48:03.061Z</time></trkpt><trkpt lat="44.9575467" lon="7.800635"><ele>258.0</ele><time>2026-04-11T10:48:05.06Z</time></trkpt><trkpt lat="44.9576467" lon="7.8006667"><ele>259.0</ele><time>2026-04-11T10:48:07.061Z</time></trkpt><trkpt lat="44.9577417" lon="7.8006983"><ele>260.0</ele><time>2026-04-11T10:48:09.061Z</time></trkpt><trkpt lat="44.9578383" lon="7.8007317"><ele>261.0</ele><time>2026-04-11T10:48:11.06Z</time></trkpt><trkpt lat="44.9579333" lon="7.8007667"><ele>261.0</ele><time>2026-04-11T10:48:13.061Z</time></trkpt><trkpt lat="44.9580267" lon="7.8008017"><ele>261.0</ele><time>2026-04-11T10:48:15.064Z</time></trkpt><trkpt lat="44.9581167" lon="7.80083"><ele>261.0</ele><time>2026-04-11T10:48:17.06Z</time></trkpt><trkpt lat="44.95821" lon="7.8008467"><ele>261.0</ele><time>2026-04-11T10:48:19.061Z</time></trkpt><trkpt lat="44.9583033" lon="7.80087"><ele>261.0</ele><time>2026-04-11T10:48:21.057Z</time></trkpt><trkpt lat="44.9583917" lon="7.8008917"><ele>260.8333333333333</ele><time>2026-04-11T10:48:23.061Z</time></trkpt><trkpt lat="44.9584717" lon="7.8009233"><ele>260.6666666666667</ele><time>2026-04-11T10:48:25.062Z</time></trkpt><trkpt lat="44.9585583" lon="7.8009467"><ele>260.5</ele><time>2026-04-11T10:48:27.061Z</time></trkpt><trkpt lat="44.9586483" lon="7.800965"><ele>260.33333333333337</ele><time>2026-04-11T10:48:29.06Z</time></trkpt><trkpt lat="44.9587383" lon="7.8009817"><ele>260.1666666666667</ele><time>2026-04-11T10:48:31.059Z</time></trkpt><trkpt lat="44.958825" lon="7.801"><ele>260.0</ele><time>2026-04-11T10:48:33.063Z</time></trkpt><trkpt lat="44.9589167" lon="7.8010133"><ele>259.8</ele><time>2026-04-11T10:48:35.06Z</time></trkpt><trkpt lat="44.9590133" lon="7.8010217"><ele>259.6</ele><time>2026-04-11T10:48:37.061Z</time></trkpt><trkpt lat="44.9591183" lon="7.8010333"><ele>259.4</ele><time>2026-04-11T10:48:39.06Z</time></trkpt><trkpt lat="44.959225" lon="7.8010467"><ele>259.2</ele><time>2026-04-11T10:48:41.06Z</time></trkpt><trkpt lat="44.9593383" lon="7.8010633"><ele>259.0</ele><time>2026-04-11T10:48:43.061Z</time></trkpt><trkpt lat="44.9594533" lon="7.8010717"><ele>259.0</ele><time>2026-04-11T10:48:45.062Z</time></trkpt><trkpt lat="44.95957" lon="7.80109"><ele>259.0</ele><time>2026-04-11T10:48:47.061Z</time></trkpt><trkpt lat="44.9596917" lon="7.801115"><ele>259.0</ele><time>2026-04-11T10:48:49.061Z</time></trkpt><trkpt lat="44.959755" lon="7.8011333"><ele>259.0</ele><time>2026-04-11T10:48:50.061Z</time></trkpt><trkpt lat="44.95982" lon="7.8011533"><ele>259.0</ele><time>2026-04-11T10:48:51.063Z</time></trkpt><trkpt lat="44.9598883" lon="7.801175"><ele>259.0</ele><time>2026-04-11T10:48:52.06Z</time></trkpt><trkpt lat="44.95996" lon="7.801195"><ele>259.0</ele><time>2026-04-11T10:48:53.062Z</time></trkpt><trkpt lat="44.9600333" lon="7.8012117"><ele>259.0</ele><time>2026-04-11T10:48:54.062Z</time></trkpt><trkpt lat="44.9601067" lon="7.80123"><ele>259.0</ele><time>2026-04-11T10:48:55.062Z</time></trkpt><trkpt lat="44.9601817" lon="7.80125"><ele>259.0</ele><time>2026-04-11T10:48:56.06Z</time></trkpt><trkpt lat="44.96026" lon="7.8012667"><ele>259.0</ele><time>2026-04-11T10:48:57.06Z</time></trkpt><trkpt lat="44.9603417" lon="7.801285"><ele>259.0</ele><time>2026-04-11T10:48:58.059Z</time></trkpt><trkpt lat="44.9604217" lon="7.801295"><ele>259.0</ele><time>2026-04-11T10:48:59.061Z</time></trkpt><trkpt lat="44.9605067" lon="7.8013017"><ele>259.0</ele><time>2026-04-11T10:49:00.06Z</time></trkpt><trkpt lat="44.9605917" lon="7.80131"><ele>259.0</ele><time>2026-04-11T10:49:01.061Z</time></trkpt><trkpt lat="44.9606783" lon="7.8013183"><ele>259.0</ele><time>2026-04-11T10:49:02.061Z</time></trkpt><trkpt lat="44.9607683" lon="7.801325"><ele>259.0</ele><time>2026-04-11T10:49:03.064Z</time></trkpt><trkpt lat="44.9608583" lon="7.8013333"><ele>259.0</ele><time>2026-04-11T10:49:04.06Z</time></trkpt><trkpt lat="44.960945" lon="7.8013383"><ele>258.5</ele><time>2026-04-11T10:49:05.061Z</time></trkpt><trkpt lat="44.9610283" lon="7.8013383"><ele>258.0</ele><time>2026-04-11T10:49:06.06Z</time></trkpt><trkpt lat="44.96111" lon="7.8013433"><ele>257.5</ele><time>2026-04-11T10:49:07.06Z</time></trkpt><trkpt lat="44.9611883" lon="7.8013533"><ele>257.0</ele><time>2026-04-11T10:49:08.06Z</time></trkpt><trkpt lat="44.9612617" lon="7.8013667"><ele>256.5</ele><time>2026-04-11T10:49:09.062Z</time></trkpt><trkpt lat="44.961335" lon="7.8013867"><ele>256.0</ele><time>2026-04-11T10:49:10.062Z</time></trkpt><trkpt lat="44.961405" lon="7.80141"><ele>256.0</ele><time>2026-04-11T10:49:11.061Z</time></trkpt><trkpt lat="44.961475" lon="7.8014333"><ele>255.99999999999997</ele><time>2026-04-11T10:49:12.063Z</time></trkpt><trkpt lat="44.9615467" lon="7.8014617"><ele>256.0</ele><time>2026-04-11T10:49:13.059Z</time></trkpt><trkpt lat="44.9616117" lon="7.8014933"><ele>256.0</ele><time>2026-04-11T10:49:14.06Z</time></trkpt><trkpt lat="44.9616783" lon="7.8015233"><ele>255.99999999999997</ele><time>2026-04-11T10:49:15.061Z</time></trkpt><trkpt lat="44.961745" lon="7.8015467"><ele>256.0</ele><time>2026-04-11T10:49:16.061Z</time></trkpt><trkpt lat="44.9618117" lon="7.8015683"><ele>256.0</ele><time>2026-04-11T10:49:17.058Z</time></trkpt><trkpt lat="44.9618783" lon="7.801595"><ele>256.1428571428571</ele><time>2026-04-11T10:49:18.059Z</time></trkpt><trkpt lat="44.961945" lon="7.8016233"><ele>256.2857142857143</ele><time>2026-04-11T10:49:19.06Z</time></trkpt><trkpt lat="44.96201" lon="7.8016517"><ele>256.42857142857144</ele><time>2026-04-11T10:49:20.061Z</time></trkpt><trkpt lat="44.962075" lon="7.80168"><ele>256.57142857142856</ele><time>2026-04-11T10:49:21.061Z</time></trkpt><trkpt lat="44.9621383" lon="7.8017083"><ele>256.7142857142857</ele><time>2026-04-11T10:49:22.061Z</time></trkpt><trkpt lat="44.9622033" lon="7.80174"><ele>256.85714285714283</ele><time>2026-04-11T10:49:23.061Z</time></trkpt><trkpt lat="44.9622683" lon="7.8017717"><ele>257.0</ele><time>2026-04-11T10:49:24.059Z</time></trkpt><trkpt lat="44.9623317" lon="7.8018083"><ele>257.0</ele><time>2026-04-11T10:49:25.06Z</time></trkpt><trkpt lat="44.9623967" lon="7.8018467"><ele>257.0</ele><time>2026-04-11T10:49:26.06Z</time></trkpt><trkpt lat="44.9624583" lon="7.8018867"><ele>257.0</ele><time>2026-04-11T10:49:27.055Z</time></trkpt><trkpt lat="44.9625233" lon="7.8019267"><ele>257.0</ele><time>2026-04-11T10:49:28.06Z</time></trkpt><trkpt lat="44.9625917" lon="7.8019667"><ele>257.0</ele><time>2026-04-11T10:49:29.059Z</time></trkpt><trkpt lat="44.9626583" lon="7.802005"><ele>257.0</ele><time>2026-04-11T10:49:30.061Z</time></trkpt><trkpt lat="44.9627283" lon="7.8020417"><ele>257.0</ele><time>2026-04-11T10:49:31.061Z</time></trkpt><trkpt lat="44.9627983" lon="7.8020783"><ele>257.1428571428571</ele><time>2026-04-11T10:49:32.061Z</time></trkpt><trkpt lat="44.9628683" lon="7.8021117"><ele>257.2857142857143</ele><time>2026-04-11T10:49:33.062Z</time></trkpt><trkpt lat="44.96294" lon="7.8021433"><ele>257.42857142857144</ele><time>2026-04-11T10:49:34.06Z</time></trkpt><trkpt lat="44.9630117" lon="7.802175"><ele>257.57142857142856</ele><time>2026-04-11T10:49:35.058Z</time></trkpt><trkpt lat="44.9630817" lon="7.8022067"><ele>257.7142857142857</ele><time>2026-04-11T10:49:36.061Z</time></trkpt><trkpt lat="44.9631533" lon="7.80224"><ele>257.85714285714283</ele><time>2026-04-11T10:49:37.061Z</time></trkpt><trkpt lat="44.9632233" lon="7.8022733"><ele>258.0</ele><time>2026-04-11T10:49:38.061Z</time></trkpt><trkpt lat="44.9632933" lon="7.802305"><ele>258.2857142857143</ele><time>2026-04-11T10:49:39.061Z</time></trkpt><trkpt lat="44.963365" lon="7.8023383"><ele>258.57142857142856</ele><time>2026-04-11T10:49:40.061Z</time></trkpt><trkpt lat="44.9634367" lon="7.80237"><ele>258.8571428571429</ele><time>2026-04-11T10:49:41.061Z</time></trkpt><trkpt lat="44.9635083" lon="7.8024017"><ele>259.1428571428571</ele><time>2026-04-11T10:49:42.061Z</time></trkpt><trkpt lat="44.9635783" lon="7.8024333"><ele>259.42857142857144</ele><time>2026-04-11T10:49:43.067Z</time></trkpt><trkpt lat="44.96365" lon="7.8024617"><ele>259.7142857142857</ele><time>2026-04-11T10:49:44.061Z</time></trkpt><trkpt lat="44.9637183" lon="7.8024883"><ele>260.0</ele><time>2026-04-11T10:49:45.062Z</time></trkpt><trkpt lat="44.963785" lon="7.802515"><ele>260.00000000000006</ele><time>2026-04-11T10:49:46.062Z</time></trkpt><trkpt lat="44.9638517" lon="7.8025383"><ele>260.0</ele><time>2026-04-11T10:49:47.058Z</time></trkpt><trkpt lat="44.9639133" lon="7.8025617"><ele>260.0</ele><time>2026-04-11T10:49:48.061Z</time></trkpt><trkpt lat="44.9639783" lon="7.8025833"><ele>260.0</ele><time>2026-04-11T10:49:49.063Z</time></trkpt><trkpt lat="44.96404" lon="7.80261"><ele>260.0</ele><time>2026-04-11T10:49:50.059Z</time></trkpt><trkpt lat="44.964105" lon="7.8026383"><ele>260.00000000000006</ele><time>2026-04-11T10:49:51.064Z</time></trkpt><trkpt lat="44.9641683" lon="7.80266"><ele>260.0</ele><time>2026-04-11T10:49:52.061Z</time></trkpt><trkpt lat="44.96423" lon="7.80268"><ele>259.6666666666667</ele><time>2026-04-11T10:49:53.059Z</time></trkpt><trkpt lat="44.9642933" lon="7.8026983"><ele>259.33333333333337</ele><time>2026-04-11T10:49:54.062Z</time></trkpt><trkpt lat="44.9643567" lon="7.8027033"><ele>259.0</ele><time>2026-04-11T10:49:55.06Z</time></trkpt><trkpt lat="44.96442" lon="7.8026933"><ele>258.6666666666667</ele><time>2026-04-11T10:49:56.06Z</time></trkpt><trkpt lat="44.964545" lon="7.8026317"><ele>258.3333333333333</ele><time>2026-04-11T10:49:58.062Z</time></trkpt><trkpt lat="44.9646033" lon="7.8025883"><ele>258.0</ele><time>2026-04-11T10:49:59.058Z</time></trkpt><trkpt lat="44.96466" lon="7.8025483"><ele>257.99999999999994</ele><time>2026-04-11T10:50:00.062Z</time></trkpt><trkpt lat="44.9647167" lon="7.8025017"><ele>258.0</ele><time>2026-04-11T10:50:01.063Z</time></trkpt><trkpt lat="44.964775" lon="7.8024533"><ele>258.0</ele><time>2026-04-11T10:50:02.062Z</time></trkpt><trkpt lat="44.9648333" lon="7.8024133"><ele>258.0</ele><time>2026-04-11T10:50:03.062Z</time></trkpt><trkpt lat="44.964895" lon="7.8023717"><ele>258.0</ele><time>2026-04-11T10:50:04.06Z</time></trkpt><trkpt lat="44.9649567" lon="7.8023333"><ele>257.99999999999994</ele><time>2026-04-11T10:50:05.06Z</time></trkpt><trkpt lat="44.9650217" lon="7.8022967"><ele>258.0</ele><time>2026-04-11T10:50:06.06Z</time></trkpt><trkpt lat="44.9650867" lon="7.8022617"><ele>257.4285714285714</ele><time>2026-04-11T10:50:07.06Z</time></trkpt><trkpt lat="44.965155" lon="7.80224"><ele>256.85714285714283</ele><time>2026-04-11T10:50:08.061Z</time></trkpt><trkpt lat="44.965225" lon="7.8022283"><ele>256.2857142857143</ele><time>2026-04-11T10:50:09.062Z</time></trkpt><trkpt lat="44.965295" lon="7.802225"><ele>255.7142857142857</ele><time>2026-04-11T10:50:10.059Z</time></trkpt><trkpt lat="44.965365" lon="7.8022283"><ele>255.1428571428571</ele><time>2026-04-11T10:50:11.06Z</time></trkpt><trkpt lat="44.965435" lon="7.8022233"><ele>254.57142857142858</ele><time>2026-04-11T10:50:12.062Z</time></trkpt><trkpt lat="44.9655017" lon="7.8022067"><ele>254.0</ele><time>2026-04-11T10:50:13.061Z</time></trkpt><trkpt lat="44.9655633" lon="7.80218"><ele>254.0</ele><time>2026-04-11T10:50:14.062Z</time></trkpt><trkpt lat="44.9656617" lon="7.8020833"><ele>254.0</ele><time>2026-04-11T10:50:16.066Z</time></trkpt><trkpt lat="44.9657" lon="7.8019217"><ele>254.0</ele><time>2026-04-11T10:50:18.063Z</time></trkpt><trkpt lat="44.9657067" lon="7.80175"><ele>254.0</ele><time>2026-04-11T10:50:20.064Z</time></trkpt><trkpt lat="44.9657067" lon="7.8015733"><ele>254.14285714285717</ele><time>2026-04-11T10:50:22.063Z</time></trkpt><trkpt lat="44.96571" lon="7.8014817"><ele>254.28571428571428</ele><time>2026-04-11T10:50:23.063Z</time></trkpt><trkpt lat="44.96571" lon="7.80139"><ele>254.42857142857144</ele><time>2026-04-11T10:50:24.064Z</time></trkpt><trkpt lat="44.96571" lon="7.8012967"><ele>254.57142857142858</ele><time>2026-04-11T10:50:25.063Z</time></trkpt><trkpt lat="44.9657117" lon="7.8012"><ele>254.71428571428572</ele><time>2026-04-11T10:50:26.063Z</time></trkpt><trkpt lat="44.9657133" lon="7.8011033"><ele>254.85714285714286</ele><time>2026-04-11T10:50:27.063Z</time></trkpt><trkpt lat="44.9657133" lon="7.8010067"><ele>255.0</ele><time>2026-04-11T10:50:28.061Z</time></trkpt><trkpt lat="44.9657117" lon="7.80091"><ele>255.0</ele><time>2026-04-11T10:50:29.063Z</time></trkpt><trkpt lat="44.9657133" lon="7.8008133"><ele>255.00000000000003</ele><time>2026-04-11T10:50:30.061Z</time></trkpt><trkpt lat="44.9657167" lon="7.8007167"><ele>255.0</ele><time>2026-04-11T10:50:31.06Z</time></trkpt><trkpt lat="44.965715" lon="7.8006217"><ele>255.0</ele><time>2026-04-11T10:50:32.059Z</time></trkpt><trkpt lat="44.9657133" lon="7.8005317"><ele>255.00000000000003</ele><time>2026-04-11T10:50:33.068Z</time></trkpt><trkpt lat="44.9657117" lon="7.8004383"><ele>255.0</ele><time>2026-04-11T10:50:34.06Z</time></trkpt><trkpt lat="44.9657183" lon="7.8003417"><ele>255.0</ele><time>2026-04-11T10:50:35.06Z</time></trkpt><trkpt lat="44.9657233" lon="7.8002433"><ele>254.85714285714286</ele><time>2026-04-11T10:50:36.062Z</time></trkpt><trkpt lat="44.965725" lon="7.8001467"><ele>254.71428571428572</ele><time>2026-04-11T10:50:37.062Z</time></trkpt><trkpt lat="44.9657283" lon="7.8000517"><ele>254.57142857142858</ele><time>2026-04-11T10:50:38.061Z</time></trkpt><trkpt lat="44.9657333" lon="7.799955"><ele>254.42857142857144</ele><time>2026-04-11T10:50:39.063Z</time></trkpt><trkpt lat="44.9657333" lon="7.7998567"><ele>254.28571428571428</ele><time>2026-04-11T10:50:40.061Z</time></trkpt><trkpt lat="44.9657317" lon="7.7997583"><ele>254.14285714285717</ele><time>2026-04-11T10:50:41.061Z</time></trkpt><trkpt lat="44.965735" lon="7.799655"><ele>254.0</ele><time>2026-04-11T10:50:42.062Z</time></trkpt><trkpt lat="44.9657367" lon="7.7995533"><ele>254.0</ele><time>2026-04-11T10:50:43.06Z</time></trkpt><trkpt lat="44.9657367" lon="7.799455"><ele>253.99999999999997</ele><time>2026-04-11T10:50:44.062Z</time></trkpt><trkpt lat="44.965735" lon="7.799365"><ele>253.99999999999997</ele><time>2026-04-11T10:50:45.063Z</time></trkpt><trkpt lat="44.9657317" lon="7.7991917"><ele>254.0</ele><time>2026-04-11T10:50:47.06Z</time></trkpt><trkpt lat="44.96572" lon="7.7990317"><ele>254.0</ele><time>2026-04-11T10:50:49.06Z</time></trkpt><trkpt lat="44.965705" lon="7.7988833"><ele>254.00000000000003</ele><time>2026-04-11T10:50:51.062Z</time></trkpt><trkpt lat="44.9657217" lon="7.7987583"><ele>254.0</ele><time>2026-04-11T10:50:53.06Z</time></trkpt><trkpt lat="44.9657733" lon="7.7986983"><ele>254.0</ele><time>2026-04-11T10:50:55.063Z</time></trkpt><trkpt lat="44.9658417" lon="7.7986883"><ele>254.0</ele><time>2026-04-11T10:50:57.062Z</time></trkpt><trkpt lat="44.965925" lon="7.7986917"><ele>254.00000000000003</ele><time>2026-04-11T10:50:59.059Z</time></trkpt><trkpt lat="44.9660033" lon="7.7986933"><ele>254.0</ele><time>2026-04-11T10:51:01.062Z</time></trkpt><trkpt lat="44.9660767" lon="7.7986917"><ele>254.33333333333334</ele><time>2026-04-11T10:51:04.062Z</time></trkpt><trkpt lat="44.9660433" lon="7.7985583"><ele>254.66666666666669</ele><time>2026-04-11T10:51:08.062Z</time></trkpt><trkpt lat="44.9660433" lon="7.798395"><ele>255.0</ele><time>2026-04-11T10:51:10.06Z</time></trkpt><trkpt lat="44.9660483" lon="7.7983017"><ele>255.33333333333331</ele><time>2026-04-11T10:51:11.059Z</time></trkpt><trkpt lat="44.9660517" lon="7.7982083"><ele>255.66666666666666</ele><time>2026-04-11T10:51:12.061Z</time></trkpt><trkpt lat="44.966055" lon="7.7981083"><ele>256.0</ele><time>2026-04-11T10:51:13.063Z</time></trkpt><trkpt lat="44.9660567" lon="7.7980067"><ele>256.1428571428571</ele><time>2026-04-11T10:51:14.061Z</time></trkpt><trkpt lat="44.9660567" lon="7.7979067"><ele>256.2857142857143</ele><time>2026-04-11T10:51:15.061Z</time></trkpt><trkpt lat="44.9660567" lon="7.7978067"><ele>256.42857142857144</ele><time>2026-04-11T10:51:16.06Z</time></trkpt><trkpt lat="44.966055" lon="7.7977017"><ele>256.57142857142856</ele><time>2026-04-11T10:51:17.062Z</time></trkpt><trkpt lat="44.966055" lon="7.7975983"><ele>256.7142857142857</ele><time>2026-04-11T10:51:18.06Z</time></trkpt><trkpt lat="44.9660567" lon="7.79749"><ele>256.85714285714283</ele><time>2026-04-11T10:51:19.059Z</time></trkpt><trkpt lat="44.9660567" lon="7.797385"><ele>257.0</ele><time>2026-04-11T10:51:20.06Z</time></trkpt><trkpt lat="44.9660567" lon="7.7972767"><ele>256.5</ele><time>2026-04-11T10:51:21.062Z</time></trkpt><trkpt lat="44.9660583" lon="7.79717"><ele>256.0</ele><time>2026-04-11T10:51:22.061Z</time></trkpt><trkpt lat="44.9660617" lon="7.7970633"><ele>255.5</ele><time>2026-04-11T10:51:23.059Z</time></trkpt><trkpt lat="44.9660633" lon="7.796955"><ele>255.0</ele><time>2026-04-11T10:51:24.062Z</time></trkpt><trkpt lat="44.9660633" lon="7.7968483"><ele>254.50000000000003</ele><time>2026-04-11T10:51:25.06Z</time></trkpt><trkpt lat="44.9660633" lon="7.79674"><ele>254.0</ele><time>2026-04-11T10:51:26.061Z</time></trkpt><trkpt lat="44.966065" lon="7.7966283"><ele>253.66666666666669</ele><time>2026-04-11T10:51:27.062Z</time></trkpt><trkpt lat="44.9660683" lon="7.7965117"><ele>253.33333333333334</ele><time>2026-04-11T10:51:28.06Z</time></trkpt><trkpt lat="44.9660717" lon="7.7963967"><ele>253.0</ele><time>2026-04-11T10:51:29.061Z</time></trkpt><trkpt lat="44.966075" lon="7.7962783"><ele>252.66666666666669</ele><time>2026-04-11T10:51:30.06Z</time></trkpt><trkpt lat="44.9660767" lon="7.7961583"><ele>252.33333333333334</ele><time>2026-04-11T10:51:31.063Z</time></trkpt><trkpt lat="44.9660783" lon="7.7960383"><ele>252.0</ele><time>2026-04-11T10:51:32.061Z</time></trkpt><trkpt lat="44.96608" lon="7.795915"><ele>251.8</ele><time>2026-04-11T10:51:33.062Z</time></trkpt><trkpt lat="44.9660833" lon="7.7957867"><ele>251.6</ele><time>2026-04-11T10:51:34.062Z</time></trkpt><trkpt lat="44.9660833" lon="7.7956567"><ele>251.40000000000003</ele><time>2026-04-11T10:51:35.059Z</time></trkpt><trkpt lat="44.9660817" lon="7.7955267"><ele>251.20000000000002</ele><time>2026-04-11T10:51:36.06Z</time></trkpt><trkpt lat="44.9660767" lon="7.7953983"><ele>251.0</ele><time>2026-04-11T10:51:37.06Z</time></trkpt><trkpt lat="44.9660733" lon="7.7952717"><ele>249.8</ele><time>2026-04-11T10:51:38.06Z</time></trkpt><trkpt lat="44.96607" lon="7.7951433"><ele>248.60000000000002</ele><time>2026-04-11T10:51:39.061Z</time></trkpt><trkpt lat="44.9660667" lon="7.7950133"><ele>247.4</ele><time>2026-04-11T10:51:40.061Z</time></trkpt><trkpt lat="44.9660683" lon="7.7948817"><ele>246.2</ele><time>2026-04-11T10:51:41.059Z</time></trkpt><trkpt lat="44.9660717" lon="7.7947533"><ele>245.0</ele><time>2026-04-11T10:51:42.061Z</time></trkpt><trkpt lat="44.966075" lon="7.7946217"><ele>245.0</ele><time>2026-04-11T10:51:43.059Z</time></trkpt><trkpt lat="44.9660833" lon="7.7944917"><ele>245.0</ele><time>2026-04-11T10:51:44.059Z</time></trkpt><trkpt lat="44.9660933" lon="7.794365"><ele>245.0</ele><time>2026-04-11T10:51:45.057Z</time></trkpt><trkpt lat="44.9661067" lon="7.7942383"><ele>245.0</ele><time>2026-04-11T10:51:46.061Z</time></trkpt><trkpt lat="44.96612" lon="7.794115"><ele>245.0</ele><time>2026-04-11T10:51:47.059Z</time></trkpt><trkpt lat="44.9661433" lon="7.7939917"><ele>245.00000000000003</ele><time>2026-04-11T10:51:48.061Z</time></trkpt><trkpt lat="44.9661683" lon="7.793875"><ele>245.0</ele><time>2026-04-11T10:51:49.06Z</time></trkpt><trkpt lat="44.9661917" lon="7.7937617"><ele>245.0</ele><time>2026-04-11T10:51:50.06Z</time></trkpt><trkpt lat="44.966215" lon="7.7936533"><ele>245.0</ele><time>2026-04-11T10:51:51.061Z</time></trkpt><trkpt lat="44.9662417" lon="7.7935483"><ele>245.00000000000003</ele><time>2026-04-11T10:51:52.061Z</time></trkpt><trkpt lat="44.966275" lon="7.7934467"><ele>245.0</ele><time>2026-04-11T10:51:53.06Z</time></trkpt><trkpt lat="44.9663083" lon="7.7933417"><ele>244.83333333333334</ele><time>2026-04-11T10:51:54.06Z</time></trkpt><trkpt lat="44.9663417" lon="7.7932333"><ele>244.66666666666669</ele><time>2026-04-11T10:51:55.059Z</time></trkpt><trkpt lat="44.9663683" lon="7.7931267"><ele>244.5</ele><time>2026-04-11T10:51:56.06Z</time></trkpt><trkpt lat="44.966395" lon="7.7930183"><ele>244.33333333333331</ele><time>2026-04-11T10:51:57.064Z</time></trkpt><trkpt lat="44.9664167" lon="7.79291"><ele>244.16666666666666</ele><time>2026-04-11T10:51:58.062Z</time></trkpt><trkpt lat="44.9664333" lon="7.7928"><ele>244.0</ele><time>2026-04-11T10:51:59.061Z</time></trkpt><trkpt lat="44.9664467" lon="7.79269"><ele>243.99999999999997</ele><time>2026-04-11T10:52:00.059Z</time></trkpt><trkpt lat="44.966455" lon="7.7925783"><ele>244.0</ele><time>2026-04-11T10:52:01.059Z</time></trkpt><trkpt lat="44.966465" lon="7.792465"><ele>244.0</ele><time>2026-04-11T10:52:02.063Z</time></trkpt><trkpt lat="44.966475" lon="7.792355"><ele>244.0</ele><time>2026-04-11T10:52:03.062Z</time></trkpt><trkpt lat="44.96649" lon="7.7922433"><ele>243.99999999999997</ele><time>2026-04-11T10:52:04.061Z</time></trkpt><trkpt lat="44.9665117" lon="7.7921317"><ele>244.0</ele><time>2026-04-11T10:52:05.06Z</time></trkpt><trkpt lat="44.9665383" lon="7.7920233"><ele>243.99999999999997</ele><time>2026-04-11T10:52:06.062Z</time></trkpt><trkpt lat="44.9665683" lon="7.7919183"><ele>244.0</ele><time>2026-04-11T10:52:07.06Z</time></trkpt><trkpt lat="44.9665983" lon="7.791815"><ele>244.0</ele><time>2026-04-11T10:52:08.059Z</time></trkpt><trkpt lat="44.9666267" lon="7.7917133"><ele>244.0</ele><time>2026-04-11T10:52:09.063Z</time></trkpt><trkpt lat="44.9666567" lon="7.79161"><ele>243.99999999999997</ele><time>2026-04-11T10:52:10.062Z</time></trkpt><trkpt lat="44.9666883" lon="7.791505"><ele>244.0</ele><time>2026-04-11T10:52:11.059Z</time></trkpt><trkpt lat="44.9667217" lon="7.7914017"><ele>243.99999999999997</ele><time>2026-04-11T10:52:12.062Z</time></trkpt><trkpt lat="44.96675" lon="7.7913033"><ele>244.0</ele><time>2026-04-11T10:52:13.058Z</time></trkpt><trkpt lat="44.96678" lon="7.79121"><ele>243.99999999999997</ele><time>2026-04-11T10:52:14.061Z</time></trkpt><trkpt lat="44.9668117" lon="7.7911217"><ele>243.99999999999997</ele><time>2026-04-11T10:52:15.063Z</time></trkpt><trkpt lat="44.9668433" lon="7.7910383"><ele>244.0</ele><time>2026-04-11T10:52:16.062Z</time></trkpt><trkpt lat="44.9668833" lon="7.7909633"><ele>243.99999999999997</ele><time>2026-04-11T10:52:17.062Z</time></trkpt><trkpt lat="44.9669367" lon="7.79089"><ele>243.99999999999997</ele><time>2026-04-11T10:52:18.063Z</time></trkpt><trkpt lat="44.9669917" lon="7.7908167"><ele>243.99999999999997</ele><time>2026-04-11T10:52:19.06Z</time></trkpt><trkpt lat="44.96705" lon="7.790745"><ele>244.0</ele><time>2026-04-11T10:52:20.061Z</time></trkpt><trkpt lat="44.9671117" lon="7.7906733"><ele>244.0</ele><time>2026-04-11T10:52:21.063Z</time></trkpt><trkpt lat="44.96717" lon="7.7906033"><ele>244.0</ele><time>2026-04-11T10:52:22.06Z</time></trkpt><trkpt lat="44.96722" lon="7.790525"><ele>243.99999999999997</ele><time>2026-04-11T10:52:23.059Z</time></trkpt><trkpt lat="44.9672717" lon="7.7904467"><ele>244.0</ele><time>2026-04-11T10:52:24.062Z</time></trkpt><trkpt lat="44.9673267" lon="7.79037"><ele>243.99999999999997</ele><time>2026-04-11T10:52:25.062Z</time></trkpt><trkpt lat="44.9673833" lon="7.7903"><ele>244.0</ele><time>2026-04-11T10:52:26.06Z</time></trkpt><trkpt lat="44.9674383" lon="7.790225"><ele>244.0</ele><time>2026-04-11T10:52:27.062Z</time></trkpt><trkpt lat="44.9674917" lon="7.79015"><ele>244.0</ele><time>2026-04-11T10:52:28.061Z</time></trkpt><trkpt lat="44.9675483" lon="7.790075"><ele>243.99999999999997</ele><time>2026-04-11T10:52:29.062Z</time></trkpt><trkpt lat="44.9676" lon="7.7899933"><ele>244.0</ele><time>2026-04-11T10:52:30.064Z</time></trkpt><trkpt lat="44.9676517" lon="7.7899083"><ele>243.49999999999997</ele><time>2026-04-11T10:52:31.062Z</time></trkpt><trkpt lat="44.9677033" lon="7.789825"><ele>243.0</ele><time>2026-04-11T10:52:32.058Z</time></trkpt><trkpt lat="44.9677567" lon="7.789745"><ele>242.5</ele><time>2026-04-11T10:52:33.061Z</time></trkpt><trkpt lat="44.96781" lon="7.78967"><ele>242.0</ele><time>2026-04-11T10:52:34.061Z</time></trkpt><trkpt lat="44.9678617" lon="7.7895967"><ele>241.49999999999997</ele><time>2026-04-11T10:52:35.058Z</time></trkpt><trkpt lat="44.967915" lon="7.7895217"><ele>241.0</ele><time>2026-04-11T10:52:36.061Z</time></trkpt><trkpt lat="44.9679633" lon="7.7894417"><ele>240.99999999999997</ele><time>2026-04-11T10:52:37.06Z</time></trkpt><trkpt lat="44.9680133" lon="7.7893617"><ele>241.0</ele><time>2026-04-11T10:52:38.061Z</time></trkpt><trkpt lat="44.968065" lon="7.789285"><ele>241.0</ele><time>2026-04-11T10:52:39.062Z</time></trkpt><trkpt lat="44.9681167" lon="7.7892083"><ele>241.0</ele><time>2026-04-11T10:52:40.059Z</time></trkpt><trkpt lat="44.9681683" lon="7.78913"><ele>240.99999999999997</ele><time>2026-04-11T10:52:41.06Z</time></trkpt><trkpt lat="44.96822" lon="7.7890517"><ele>241.0</ele><time>2026-04-11T10:52:42.06Z</time></trkpt><trkpt lat="44.9682733" lon="7.7889717"><ele>240.99999999999997</ele><time>2026-04-11T10:52:43.059Z</time></trkpt><trkpt lat="44.9683267" lon="7.7888917"><ele>241.0</ele><time>2026-04-11T10:52:44.063Z</time></trkpt><trkpt lat="44.9683817" lon="7.7888133"><ele>241.0</ele><time>2026-04-11T10:52:45.063Z</time></trkpt><trkpt lat="44.9684367" lon="7.788735"><ele>241.0</ele><time>2026-04-11T10:52:46.066Z</time></trkpt><trkpt lat="44.96849" lon="7.7886517"><ele>240.99999999999997</ele><time>2026-04-11T10:52:47.061Z</time></trkpt><trkpt lat="44.9685433" lon="7.7885733"><ele>241.0</ele><time>2026-04-11T10:52:48.06Z</time></trkpt><trkpt lat="44.9685983" lon="7.7884933"><ele>241.66666666666666</ele><time>2026-04-11T10:52:49.062Z</time></trkpt><trkpt lat="44.9686517" lon="7.7884117"><ele>242.33333333333331</ele><time>2026-04-11T10:52:50.062Z</time></trkpt><trkpt lat="44.968705" lon="7.7883317"><ele>243.0</ele><time>2026-04-11T10:52:51.061Z</time></trkpt><trkpt lat="44.9687533" lon="7.7882483"><ele>243.66666666666669</ele><time>2026-04-11T10:52:52.061Z</time></trkpt><trkpt lat="44.9688033" lon="7.7881617"><ele>244.33333333333334</ele><time>2026-04-11T10:52:53.061Z</time></trkpt><trkpt lat="44.9688517" lon="7.78808"><ele>245.0</ele><time>2026-04-11T10:52:54.06Z</time></trkpt><trkpt lat="44.9689033" lon="7.7879967"><ele>245.00000000000003</ele><time>2026-04-11T10:52:55.062Z</time></trkpt><trkpt lat="44.9689583" lon="7.7879183"><ele>245.0</ele><time>2026-04-11T10:52:56.06Z</time></trkpt><trkpt lat="44.9690133" lon="7.7878433"><ele>245.0</ele><time>2026-04-11T10:52:57.062Z</time></trkpt><trkpt lat="44.9690683" lon="7.7877667"><ele>245.0</ele><time>2026-04-11T10:52:58.061Z</time></trkpt><trkpt lat="44.9691217" lon="7.7876867"><ele>245.00000000000003</ele><time>2026-04-11T10:52:59.062Z</time></trkpt><trkpt lat="44.969175" lon="7.78761"><ele>245.0</ele><time>2026-04-11T10:53:00.063Z</time></trkpt><trkpt lat="44.9692233" lon="7.7875283"><ele>244.71428571428572</ele><time>2026-04-11T10:53:01.063Z</time></trkpt><trkpt lat="44.9692733" lon="7.7874533"><ele>244.42857142857144</ele><time>2026-04-11T10:53:02.064Z</time></trkpt><trkpt lat="44.969325" lon="7.787385"><ele>244.14285714285714</ele><time>2026-04-11T10:53:03.064Z</time></trkpt><trkpt lat="44.9693767" lon="7.7873183"><ele>243.85714285714286</ele><time>2026-04-11T10:53:04.064Z</time></trkpt><trkpt lat="44.9694233" lon="7.7872483"><ele>243.57142857142858</ele><time>2026-04-11T10:53:05.064Z</time></trkpt><trkpt lat="44.9694683" lon="7.7871833"><ele>243.28571428571428</ele><time>2026-04-11T10:53:06.063Z</time></trkpt><trkpt lat="44.969515" lon="7.7871233"><ele>243.0</ele><time>2026-04-11T10:53:07.063Z</time></trkpt><trkpt lat="44.9696033" lon="7.7870167"><ele>243.0</ele><time>2026-04-11T10:53:09.063Z</time></trkpt><trkpt lat="44.9696683" lon="7.786935"><ele>243.0</ele><time>2026-04-11T10:53:11.062Z</time></trkpt><trkpt lat="44.9697383" lon="7.7868433"><ele>243.0</ele><time>2026-04-11T10:53:20.061Z</time></trkpt><trkpt lat="44.9698117" lon="7.78678"><ele>243.0</ele><time>2026-04-11T10:53:23.058Z</time></trkpt><trkpt lat="44.9698733" lon="7.786695"><ele>243.0</ele><time>2026-04-11T10:53:25.062Z</time></trkpt><trkpt lat="44.9699417" lon="7.786595"><ele>243.4</ele><time>2026-04-11T10:53:27.061Z</time></trkpt><trkpt lat="44.97002" lon="7.7865"><ele>243.8</ele><time>2026-04-11T10:53:29.062Z</time></trkpt><trkpt lat="44.9700933" lon="7.7863967"><ele>244.2</ele><time>2026-04-11T10:53:31.062Z</time></trkpt><trkpt lat="44.9701667" lon="7.7862933"><ele>244.6</ele><time>2026-04-11T10:53:33.061Z</time></trkpt><trkpt lat="44.9702417" lon="7.7861767"><ele>245.0</ele><time>2026-04-11T10:53:35.062Z</time></trkpt><trkpt lat="44.97031" lon="7.7860517"><ele>245.4</ele><time>2026-04-11T10:53:37.062Z</time></trkpt><trkpt lat="44.970375" lon="7.7859317"><ele>245.8</ele><time>2026-04-11T10:53:39.063Z</time></trkpt><trkpt lat="44.9704317" lon="7.785805"><ele>246.2</ele><time>2026-04-11T10:53:41.061Z</time></trkpt><trkpt lat="44.9705117" lon="7.7857"><ele>246.6</ele><time>2026-04-11T10:53:43.06Z</time></trkpt><trkpt lat="44.9706267" lon="7.7856417"><ele>247.0</ele><time>2026-04-11T10:53:45.063Z</time></trkpt><trkpt lat="44.9707467" lon="7.7855983"><ele>246.99999999999997</ele><time>2026-04-11T10:53:47.06Z</time></trkpt><trkpt lat="44.97081" lon="7.7855717"><ele>247.0</ele><time>2026-04-11T10:53:48.059Z</time></trkpt><trkpt lat="44.9708683" lon="7.7855333"><ele>247.0</ele><time>2026-04-11T10:53:49.061Z</time></trkpt><trkpt lat="44.970925" lon="7.7854867"><ele>247.0</ele><time>2026-04-11T10:53:50.059Z</time></trkpt><trkpt lat="44.9710267" lon="7.7853883"><ele>246.99999999999997</ele><time>2026-04-11T10:53:52.061Z</time></trkpt><trkpt lat="44.971125" lon="7.785285"><ele>247.0</ele><time>2026-04-11T10:53:54.062Z</time></trkpt><trkpt lat="44.9712217" lon="7.78518"><ele>246.75</ele><time>2026-04-11T10:53:56.06Z</time></trkpt><trkpt lat="44.9713183" lon="7.7850817"><ele>246.5</ele><time>2026-04-11T10:53:58.061Z</time></trkpt><trkpt lat="44.9714217" lon="7.7849883"><ele>246.25</ele><time>2026-04-11T10:54:00.06Z</time></trkpt><trkpt lat="44.9715233" lon="7.7848933"><ele>246.0</ele><time>2026-04-11T10:54:02.062Z</time></trkpt><trkpt lat="44.971625" lon="7.784795"><ele>246.75</ele><time>2026-04-11T10:54:04.061Z</time></trkpt><trkpt lat="44.9717233" lon="7.7846967"><ele>247.5</ele><time>2026-04-11T10:54:06.062Z</time></trkpt><trkpt lat="44.9718233" lon="7.7845967"><ele>248.25</ele><time>2026-04-11T10:54:08.061Z</time></trkpt><trkpt lat="44.9719167" lon="7.7844867"><ele>249.0</ele><time>2026-04-11T10:54:10.06Z</time></trkpt><trkpt lat="44.9720083" lon="7.784375"><ele>249.5</ele><time>2026-04-11T10:54:12.06Z</time></trkpt><trkpt lat="44.9721017" lon="7.784265"><ele>250.0</ele><time>2026-04-11T10:54:14.06Z</time></trkpt><trkpt lat="44.972195" lon="7.7841467"><ele>250.5</ele><time>2026-04-11T10:54:16.057Z</time></trkpt><trkpt lat="44.9722883" lon="7.7840283"><ele>251.0</ele><time>2026-04-11T10:54:18.061Z</time></trkpt><trkpt lat="44.97238" lon="7.7839083"><ele>251.0</ele><time>2026-04-11T10:54:20.061Z</time></trkpt><trkpt lat="44.9724633" lon="7.7837767"><ele>251.00000000000003</ele><time>2026-04-11T10:54:22.06Z</time></trkpt><trkpt lat="44.9725067" lon="7.78371"><ele>251.00000000000003</ele><time>2026-04-11T10:54:23.059Z</time></trkpt><trkpt lat="44.97259" lon="7.7835783"><ele>251.0</ele><time>2026-04-11T10:54:25.06Z</time></trkpt><trkpt lat="44.972675" lon="7.7834533"><ele>251.0</ele><time>2026-04-11T10:54:27.062Z</time></trkpt><trkpt lat="44.9727533" lon="7.783335"><ele>251.0</ele><time>2026-04-11T10:54:29.059Z</time></trkpt><trkpt lat="44.97282" lon="7.7832267"><ele>251.00000000000003</ele><time>2026-04-11T10:54:31.061Z</time></trkpt><trkpt lat="44.972905" lon="7.783185"><ele>251.00000000000003</ele><time>2026-04-11T10:54:33.06Z</time></trkpt><trkpt lat="44.9729717" lon="7.7832883"><ele>251.0</ele><time>2026-04-11T10:54:35.059Z</time></trkpt><trkpt lat="44.97303" lon="7.783425"><ele>251.0</ele><time>2026-04-11T10:54:37.061Z</time></trkpt><trkpt lat="44.9731033" lon="7.783555"><ele>251.0</ele><time>2026-04-11T10:54:39.061Z</time></trkpt><trkpt lat="44.9731967" lon="7.7836333"><ele>251.00000000000003</ele><time>2026-04-11T10:54:41.06Z</time></trkpt><trkpt lat="44.973295" lon="7.7836567"><ele>251.00000000000003</ele><time>2026-04-11T10:54:43.06Z</time></trkpt><trkpt lat="44.9734067" lon="7.78366"><ele>251.0</ele><time>2026-04-11T10:54:45.061Z</time></trkpt><trkpt lat="44.9735167" lon="7.783635"><ele>251.0</ele><time>2026-04-11T10:54:47.059Z</time></trkpt><trkpt lat="44.9736367" lon="7.78359"><ele>251.25</ele><time>2026-04-11T10:54:49.06Z</time></trkpt><trkpt lat="44.9737567" lon="7.7835367"><ele>251.5</ele><time>2026-04-11T10:54:51.061Z</time></trkpt><trkpt lat="44.9738717" lon="7.783485"><ele>251.75</ele><time>2026-04-11T10:54:53.061Z</time></trkpt><trkpt lat="44.9739833" lon="7.7834317"><ele>252.0</ele><time>2026-04-11T10:54:55.059Z</time></trkpt><trkpt lat="44.9740933" lon="7.7833767"><ele>252.39999999999998</ele><time>2026-04-11T10:54:57.062Z</time></trkpt><trkpt lat="44.9741983" lon="7.7833283"><ele>252.79999999999998</ele><time>2026-04-11T10:54:59.06Z</time></trkpt><trkpt lat="44.9742883" lon="7.7832983"><ele>253.2</ele><time>2026-04-11T10:55:01.061Z</time></trkpt><trkpt lat="44.9743817" lon="7.78331"><ele>253.6</ele><time>2026-04-11T10:55:03.063Z</time></trkpt><trkpt lat="44.9744767" lon="7.7833817"><ele>254.0</ele><time>2026-04-11T10:55:05.06Z</time></trkpt><trkpt lat="44.97458" lon="7.783455"><ele>253.79999999999998</ele><time>2026-04-11T10:55:07.06Z</time></trkpt><trkpt lat="44.9746933" lon="7.78352"><ele>253.59999999999997</ele><time>2026-04-11T10:55:09.06Z</time></trkpt><trkpt lat="44.97481" lon="7.7835783"><ele>253.4</ele><time>2026-04-11T10:55:11.061Z</time></trkpt><trkpt lat="44.97487" lon="7.7836067"><ele>253.2</ele><time>2026-04-11T10:55:12.061Z</time></trkpt><trkpt lat="44.9749867" lon="7.7836617"><ele>253.0</ele><time>2026-04-11T10:55:14.061Z</time></trkpt><trkpt lat="44.9751033" lon="7.7837167"><ele>252.66666666666666</ele><time>2026-04-11T10:55:16.058Z</time></trkpt><trkpt lat="44.9752183" lon="7.7837683"><ele>252.33333333333331</ele><time>2026-04-11T10:55:18.062Z</time></trkpt><trkpt lat="44.9753333" lon="7.7838217"><ele>252.0</ele><time>2026-04-11T10:55:20.058Z</time></trkpt><trkpt lat="44.9753933" lon="7.78385"><ele>251.66666666666669</ele><time>2026-04-11T10:55:21.061Z</time></trkpt><trkpt lat="44.975455" lon="7.7838767"><ele>251.33333333333334</ele><time>2026-04-11T10:55:22.06Z</time></trkpt><trkpt lat="44.975515" lon="7.783905"><ele>251.0</ele><time>2026-04-11T10:55:23.063Z</time></trkpt><trkpt lat="44.9756333" lon="7.7839467"><ele>251.0</ele><time>2026-04-11T10:55:25.06Z</time></trkpt><trkpt lat="44.9757567" lon="7.78397"><ele>251.0</ele><time>2026-04-11T10:55:27.06Z</time></trkpt><trkpt lat="44.9758783" lon="7.78399"><ele>251.0</ele><time>2026-04-11T10:55:29.058Z</time></trkpt><trkpt lat="44.9759983" lon="7.7840183"><ele>251.0</ele><time>2026-04-11T10:55:31.062Z</time></trkpt><trkpt lat="44.9761133" lon="7.7840933"><ele>251.16666666666669</ele><time>2026-04-11T10:55:33.062Z</time></trkpt><trkpt lat="44.9761733" lon="7.7841233"><ele>251.33333333333334</ele><time>2026-04-11T10:55:34.061Z</time></trkpt><trkpt lat="44.976295" lon="7.7841717"><ele>251.5</ele><time>2026-04-11T10:55:36.061Z</time></trkpt><trkpt lat="44.97636" lon="7.7841917"><ele>251.66666666666669</ele><time>2026-04-11T10:55:37.059Z</time></trkpt><trkpt lat="44.97648" lon="7.7842183"><ele>251.83333333333334</ele><time>2026-04-11T10:55:39.062Z</time></trkpt><trkpt lat="44.9765433" lon="7.784225"><ele>252.0</ele><time>2026-04-11T10:55:40.059Z</time></trkpt><trkpt lat="44.9766617" lon="7.78418"><ele>252.28571428571428</ele><time>2026-04-11T10:55:42.06Z</time></trkpt><trkpt lat="44.9767667" lon="7.7840817"><ele>252.57142857142856</ele><time>2026-04-11T10:55:44.061Z</time></trkpt><trkpt lat="44.9768217" lon="7.7840383"><ele>252.85714285714286</ele><time>2026-04-11T10:55:45.062Z</time></trkpt><trkpt lat="44.9768817" lon="7.784005"><ele>253.14285714285714</ele><time>2026-04-11T10:55:46.061Z</time></trkpt><trkpt lat="44.976945" lon="7.7839883"><ele>253.42857142857142</ele><time>2026-04-11T10:55:47.061Z</time></trkpt><trkpt lat="44.9770083" lon="7.7839767"><ele>253.71428571428572</ele><time>2026-04-11T10:55:48.059Z</time></trkpt><trkpt lat="44.9770733" lon="7.7839667"><ele>254.0</ele><time>2026-04-11T10:55:49.062Z</time></trkpt><trkpt lat="44.9771367" lon="7.7839567"><ele>254.00000000000003</ele><time>2026-04-11T10:55:50.059Z</time></trkpt><trkpt lat="44.9772633" lon="7.78394"><ele>254.0</ele><time>2026-04-11T10:55:52.061Z</time></trkpt><trkpt lat="44.97739" lon="7.7839333"><ele>254.0</ele><time>2026-04-11T10:55:54.063Z</time></trkpt><trkpt lat="44.977455" lon="7.7839317"><ele>254.0</ele><time>2026-04-11T10:55:55.063Z</time></trkpt><trkpt lat="44.9775183" lon="7.78393"><ele>254.00000000000003</ele><time>2026-04-11T10:55:56.061Z</time></trkpt><trkpt lat="44.9775817" lon="7.78393"><ele>254.0</ele><time>2026-04-11T10:55:57.062Z</time></trkpt><trkpt lat="44.9776467" lon="7.783935"><ele>254.16666666666669</ele><time>2026-04-11T10:55:58.06Z</time></trkpt><trkpt lat="44.97771" lon="7.7839367"><ele>254.33333333333334</ele><time>2026-04-11T10:55:59.061Z</time></trkpt><trkpt lat="44.9777733" lon="7.7839433"><ele>254.5</ele><time>2026-04-11T10:56:00.06Z</time></trkpt><trkpt lat="44.9778867" lon="7.7840083"><ele>254.66666666666669</ele><time>2026-04-11T10:56:02.059Z</time></trkpt><trkpt lat="44.977955" lon="7.784155"><ele>254.83333333333334</ele><time>2026-04-11T10:56:04.059Z</time></trkpt><trkpt lat="44.9779717" lon="7.7842483"><ele>255.0</ele><time>2026-04-11T10:56:05.061Z</time></trkpt><trkpt lat="44.9779883" lon="7.7843367"><ele>254.75</ele><time>2026-04-11T10:56:06.062Z</time></trkpt><trkpt lat="44.9780517" lon="7.7844583"><ele>254.5</ele><time>2026-04-11T10:56:08.06Z</time></trkpt><trkpt lat="44.9781583" lon="7.784465"><ele>254.25</ele><time>2026-04-11T10:56:10.061Z</time></trkpt><trkpt lat="44.97828" lon="7.7844517"><ele>254.0</ele><time>2026-04-11T10:56:12.062Z</time></trkpt><trkpt lat="44.9784033" lon="7.7844367"><ele>254.0</ele><time>2026-04-11T10:56:14.06Z</time></trkpt><trkpt lat="44.9784667" lon="7.7844217"><ele>254.0</ele><time>2026-04-11T10:56:15.063Z</time></trkpt><trkpt lat="44.97853" lon="7.784405"><ele>254.0</ele><time>2026-04-11T10:56:16.063Z</time></trkpt><trkpt lat="44.9785933" lon="7.78439"><ele>254.0</ele><time>2026-04-11T10:56:17.061Z</time></trkpt><trkpt lat="44.9786583" lon="7.7843817"><ele>254.0</ele><time>2026-04-11T10:56:18.062Z</time></trkpt><trkpt lat="44.9787233" lon="7.784375"><ele>254.0</ele><time>2026-04-11T10:56:19.062Z</time></trkpt><trkpt lat="44.9787883" lon="7.78437"><ele>254.0</ele><time>2026-04-11T10:56:20.062Z</time></trkpt><trkpt lat="44.9788533" lon="7.784365"><ele>254.00000000000003</ele><time>2026-04-11T10:56:21.061Z</time></trkpt><trkpt lat="44.9789183" lon="7.7843583"><ele>254.0</ele><time>2026-04-11T10:56:22.062Z</time></trkpt><trkpt lat="44.9789833" lon="7.7843533"><ele>254.0</ele><time>2026-04-11T10:56:23.062Z</time></trkpt><trkpt lat="44.97905" lon="7.78435"><ele>254.0</ele><time>2026-04-11T10:56:24.062Z</time></trkpt><trkpt lat="44.9791167" lon="7.784345"><ele>254.00000000000003</ele><time>2026-04-11T10:56:25.06Z</time></trkpt><trkpt lat="44.97923" lon="7.784295"><ele>254.0</ele><time>2026-04-11T10:56:27.062Z</time></trkpt><trkpt lat="44.979285" lon="7.7841483"><ele>254.00000000000003</ele><time>2026-04-11T10:56:29.061Z</time></trkpt><trkpt lat="44.9793133" lon="7.7839783"><ele>254.0</ele><time>2026-04-11T10:56:31.06Z</time></trkpt><trkpt lat="44.9793233" lon="7.78389"><ele>254.0</ele><time>2026-04-11T10:56:32.059Z</time></trkpt><trkpt lat="44.9793367" lon="7.7837117"><ele>254.0</ele><time>2026-04-11T10:56:34.063Z</time></trkpt><trkpt lat="44.979345" lon="7.78362"><ele>254.00000000000003</ele><time>2026-04-11T10:56:35.061Z</time></trkpt><trkpt lat="44.9793533" lon="7.78353"><ele>254.0</ele><time>2026-04-11T10:56:36.061Z</time></trkpt><trkpt lat="44.9793667" lon="7.7833533"><ele>254.5</ele><time>2026-04-11T10:56:38.06Z</time></trkpt><trkpt lat="44.97938" lon="7.783185"><ele>255.0</ele><time>2026-04-11T10:56:40.06Z</time></trkpt><trkpt lat="44.9793933" lon="7.7830167"><ele>255.5</ele><time>2026-04-11T10:56:42.061Z</time></trkpt><trkpt lat="44.97941" lon="7.7828567"><ele>256.0</ele><time>2026-04-11T10:56:44.059Z</time></trkpt><trkpt lat="44.9794283" lon="7.7827117"><ele>256.3333333333333</ele><time>2026-04-11T10:56:46.062Z</time></trkpt><trkpt lat="44.9794467" lon="7.7826117"><ele>256.66666666666663</ele><time>2026-04-11T10:56:48.059Z</time></trkpt><trkpt lat="44.9794717" lon="7.78251"><ele>257.0</ele><time>2026-04-11T10:56:51.062Z</time></trkpt><trkpt lat="44.9795067" lon="7.7824033"><ele>257.3333333333333</ele><time>2026-04-11T10:56:54.062Z</time></trkpt><trkpt lat="44.9795367" lon="7.7822967"><ele>257.6666666666667</ele><time>2026-04-11T10:56:57.061Z</time></trkpt><trkpt lat="44.979565" lon="7.7821983"><ele>258.0</ele><time>2026-04-11T10:56:59.061Z</time></trkpt><trkpt lat="44.97961" lon="7.7820917"><ele>258.0</ele><time>2026-04-11T10:57:01.062Z</time></trkpt><trkpt lat="44.9796817" lon="7.782005"><ele>258.0</ele><time>2026-04-11T10:57:03.061Z</time></trkpt><trkpt lat="44.9797833" lon="7.7819733"><ele>258.0</ele><time>2026-04-11T10:57:05.058Z</time></trkpt><trkpt lat="44.9798917" lon="7.78196"><ele>258.0</ele><time>2026-04-11T10:57:07.061Z</time></trkpt><trkpt lat="44.9800083" lon="7.7819433"><ele>258.0</ele><time>2026-04-11T10:57:09.062Z</time></trkpt><trkpt lat="44.98013" lon="7.781925"><ele>258.0</ele><time>2026-04-11T10:57:11.059Z</time></trkpt><trkpt lat="44.9802517" lon="7.7819"><ele>258.0</ele><time>2026-04-11T10:57:13.061Z</time></trkpt><trkpt lat="44.9803767" lon="7.7818833"><ele>258.0</ele><time>2026-04-11T10:57:15.062Z</time></trkpt><trkpt lat="44.9804417" lon="7.781875"><ele>258.0</ele><time>2026-04-11T10:57:16.055Z</time></trkpt><trkpt lat="44.9805067" lon="7.7818667"><ele>258.0</ele><time>2026-04-11T10:57:17.059Z</time></trkpt><trkpt lat="44.9805717" lon="7.7818617"><ele>258.0</ele><time>2026-04-11T10:57:18.059Z</time></trkpt><trkpt lat="44.9806367" lon="7.781855"><ele>257.99999999999994</ele><time>2026-04-11T10:57:19.059Z</time></trkpt><trkpt lat="44.9807017" lon="7.7818517"><ele>258.0</ele><time>2026-04-11T10:57:20.061Z</time></trkpt><trkpt lat="44.98077" lon="7.7818483"><ele>258.0</ele><time>2026-04-11T10:57:21.061Z</time></trkpt><trkpt lat="44.9808367" lon="7.7818433"><ele>258.0</ele><time>2026-04-11T10:57:22.06Z</time></trkpt><trkpt lat="44.9809067" lon="7.7818383"><ele>258.0</ele><time>2026-04-11T10:57:23.061Z</time></trkpt><trkpt lat="44.9809733" lon="7.78183"><ele>257.99999999999994</ele><time>2026-04-11T10:57:24.063Z</time></trkpt><trkpt lat="44.9810433" lon="7.7818217"><ele>258.0</ele><time>2026-04-11T10:57:25.061Z</time></trkpt><trkpt lat="44.9811117" lon="7.7818133"><ele>258.3333333333333</ele><time>2026-04-11T10:57:26.061Z</time></trkpt><trkpt lat="44.9811817" lon="7.781805"><ele>258.6666666666667</ele><time>2026-04-11T10:57:27.061Z</time></trkpt><trkpt lat="44.98125" lon="7.7818"><ele>259.0</ele><time>2026-04-11T10:57:28.061Z</time></trkpt><trkpt lat="44.981315" lon="7.781795"><ele>259.33333333333337</ele><time>2026-04-11T10:57:29.058Z</time></trkpt><trkpt lat="44.98144" lon="7.78179"><ele>259.6666666666667</ele><time>2026-04-11T10:57:31.064Z</time></trkpt><trkpt lat="44.981505" lon="7.781785"><ele>260.0</ele><time>2026-04-11T10:57:32.058Z</time></trkpt><trkpt lat="44.9815683" lon="7.7817783"><ele>259.8571428571429</ele><time>2026-04-11T10:57:33.061Z</time></trkpt><trkpt lat="44.98169" lon="7.781765"><ele>259.7142857142857</ele><time>2026-04-11T10:57:35.063Z</time></trkpt><trkpt lat="44.9817533" lon="7.7817617"><ele>259.57142857142856</ele><time>2026-04-11T10:57:36.06Z</time></trkpt><trkpt lat="44.9818183" lon="7.7817583"><ele>259.42857142857144</ele><time>2026-04-11T10:57:37.061Z</time></trkpt><trkpt lat="44.9818833" lon="7.7817533"><ele>259.2857142857143</ele><time>2026-04-11T10:57:38.059Z</time></trkpt><trkpt lat="44.98195" lon="7.781745"><ele>259.14285714285717</ele><time>2026-04-11T10:57:39.06Z</time></trkpt><trkpt lat="44.9820133" lon="7.7817367"><ele>259.0</ele><time>2026-04-11T10:57:40.062Z</time></trkpt><trkpt lat="44.98208" lon="7.7817267"><ele>259.0</ele><time>2026-04-11T10:57:41.06Z</time></trkpt><trkpt lat="44.9821467" lon="7.7817167"><ele>259.0</ele><time>2026-04-11T10:57:42.062Z</time></trkpt><trkpt lat="44.9822117" lon="7.7816983"><ele>259.0</ele><time>2026-04-11T10:57:43.062Z</time></trkpt><trkpt lat="44.9822767" lon="7.7816817"><ele>259.0</ele><time>2026-04-11T10:57:44.059Z</time></trkpt><trkpt lat="44.9823417" lon="7.7816667"><ele>259.0</ele><time>2026-04-11T10:57:45.062Z</time></trkpt><trkpt lat="44.982405" lon="7.78165"><ele>259.0</ele><time>2026-04-11T10:57:46.06Z</time></trkpt><trkpt lat="44.98247" lon="7.78163"><ele>259.0</ele><time>2026-04-11T10:57:47.057Z</time></trkpt><trkpt lat="44.982535" lon="7.78161"><ele>259.14285714285717</ele><time>2026-04-11T10:57:48.059Z</time></trkpt><trkpt lat="44.9825983" lon="7.78159"><ele>259.2857142857143</ele><time>2026-04-11T10:57:49.062Z</time></trkpt><trkpt lat="44.982665" lon="7.781565"><ele>259.42857142857144</ele><time>2026-04-11T10:57:50.059Z</time></trkpt><trkpt lat="44.9827283" lon="7.7815333"><ele>259.57142857142856</ele><time>2026-04-11T10:57:51.061Z</time></trkpt><trkpt lat="44.9827917" lon="7.7815017"><ele>259.7142857142857</ele><time>2026-04-11T10:57:52.06Z</time></trkpt><trkpt lat="44.9828567" lon="7.7814733"><ele>259.8571428571429</ele><time>2026-04-11T10:57:53.059Z</time></trkpt><trkpt lat="44.9829217" lon="7.781445"><ele>260.0</ele><time>2026-04-11T10:57:54.061Z</time></trkpt><trkpt lat="44.9829867" lon="7.781415"><ele>260.0</ele><time>2026-04-11T10:57:55.059Z</time></trkpt><trkpt lat="44.9830483" lon="7.7813867"><ele>260.0</ele><time>2026-04-11T10:57:56.059Z</time></trkpt><trkpt lat="44.9831683" lon="7.7813367"><ele>260.0</ele><time>2026-04-11T10:57:58.061Z</time></trkpt><trkpt lat="44.98323" lon="7.7813083"><ele>260.0</ele><time>2026-04-11T10:57:59.059Z</time></trkpt><trkpt lat="44.983295" lon="7.78128"><ele>260.0</ele><time>2026-04-11T10:58:00.061Z</time></trkpt><trkpt lat="44.9833633" lon="7.78125"><ele>260.0</ele><time>2026-04-11T10:58:01.063Z</time></trkpt><trkpt lat="44.9834317" lon="7.78122"><ele>259.8571428571429</ele><time>2026-04-11T10:58:02.06Z</time></trkpt><trkpt lat="44.9834983" lon="7.7811917"><ele>259.7142857142857</ele><time>2026-04-11T10:58:03.064Z</time></trkpt><trkpt lat="44.983565" lon="7.7811617"><ele>259.57142857142856</ele><time>2026-04-11T10:58:04.061Z</time></trkpt><trkpt lat="44.9836333" lon="7.7811283"><ele>259.42857142857144</ele><time>2026-04-11T10:58:05.061Z</time></trkpt><trkpt lat="44.9837017" lon="7.7810967"><ele>259.2857142857143</ele><time>2026-04-11T10:58:06.061Z</time></trkpt><trkpt lat="44.9837667" lon="7.781065"><ele>259.14285714285717</ele><time>2026-04-11T10:58:07.062Z</time></trkpt><trkpt lat="44.983835" lon="7.7810367"><ele>259.0</ele><time>2026-04-11T10:58:08.061Z</time></trkpt><trkpt lat="44.9839017" lon="7.7810067"><ele>259.14285714285717</ele><time>2026-04-11T10:58:09.062Z</time></trkpt><trkpt lat="44.98397" lon="7.780975"><ele>259.2857142857143</ele><time>2026-04-11T10:58:10.061Z</time></trkpt><trkpt lat="44.9840383" lon="7.780945"><ele>259.42857142857144</ele><time>2026-04-11T10:58:11.059Z</time></trkpt><trkpt lat="44.9841033" lon="7.7809167"><ele>259.57142857142856</ele><time>2026-04-11T10:58:12.062Z</time></trkpt><trkpt lat="44.9841717" lon="7.7808867"><ele>259.7142857142857</ele><time>2026-04-11T10:58:13.062Z</time></trkpt><trkpt lat="44.98424" lon="7.7808567"><ele>259.8571428571429</ele><time>2026-04-11T10:58:14.062Z</time></trkpt><trkpt lat="44.98431" lon="7.780825"><ele>260.0</ele><time>2026-04-11T10:58:15.061Z</time></trkpt><trkpt lat="44.9843783" lon="7.78079"><ele>260.00000000000006</ele><time>2026-04-11T10:58:16.055Z</time></trkpt><trkpt lat="44.984445" lon="7.7807583"><ele>260.0</ele><time>2026-04-11T10:58:17.059Z</time></trkpt><trkpt lat="44.9845117" lon="7.7807283"><ele>260.0</ele><time>2026-04-11T10:58:18.061Z</time></trkpt><trkpt lat="44.98458" lon="7.7806967"><ele>260.0</ele><time>2026-04-11T10:58:19.06Z</time></trkpt><trkpt lat="44.98465" lon="7.7806667"><ele>260.0</ele><time>2026-04-11T10:58:20.061Z</time></trkpt><trkpt lat="44.9847183" lon="7.7806333"><ele>260.00000000000006</ele><time>2026-04-11T10:58:21.061Z</time></trkpt><trkpt lat="44.9847883" lon="7.7806"><ele>260.0</ele><time>2026-04-11T10:58:22.06Z</time></trkpt><trkpt lat="44.9848583" lon="7.780565"><ele>260.00000000000006</ele><time>2026-04-11T10:58:23.06Z</time></trkpt><trkpt lat="44.984925" lon="7.780535"><ele>260.0</ele><time>2026-04-11T10:58:24.061Z</time></trkpt><trkpt lat="44.9849967" lon="7.7805083"><ele>260.0</ele><time>2026-04-11T10:58:25.063Z</time></trkpt><trkpt lat="44.9850667" lon="7.78048"><ele>260.0</ele><time>2026-04-11T10:58:26.062Z</time></trkpt><trkpt lat="44.9851383" lon="7.7804517"><ele>260.0</ele><time>2026-04-11T10:58:27.064Z</time></trkpt><trkpt lat="44.9852133" lon="7.7804233"><ele>260.00000000000006</ele><time>2026-04-11T10:58:28.06Z</time></trkpt><trkpt lat="44.9852833" lon="7.7803983"><ele>260.0</ele><time>2026-04-11T10:58:29.061Z</time></trkpt><trkpt lat="44.9853517" lon="7.7803667"><ele>260.0</ele><time>2026-04-11T10:58:30.063Z</time></trkpt><trkpt lat="44.9854167" lon="7.780335"><ele>260.0</ele><time>2026-04-11T10:58:31.06Z</time></trkpt><trkpt lat="44.9854817" lon="7.7803017"><ele>260.0</ele><time>2026-04-11T10:58:32.06Z</time></trkpt><trkpt lat="44.9855417" lon="7.7802683"><ele>260.0</ele><time>2026-04-11T10:58:33.061Z</time></trkpt><trkpt lat="44.9856617" lon="7.7802083"><ele>260.0</ele><time>2026-04-11T10:58:35.059Z</time></trkpt><trkpt lat="44.985725" lon="7.7801867"><ele>260.0</ele><time>2026-04-11T10:58:36.062Z</time></trkpt><trkpt lat="44.9857917" lon="7.78017"><ele>260.14285714285717</ele><time>2026-04-11T10:58:37.061Z</time></trkpt><trkpt lat="44.9858583" lon="7.7801567"><ele>260.2857142857143</ele><time>2026-04-11T10:58:38.061Z</time></trkpt><trkpt lat="44.985925" lon="7.7801417"><ele>260.42857142857144</ele><time>2026-04-11T10:58:39.062Z</time></trkpt><trkpt lat="44.9859917" lon="7.7801233"><ele>260.57142857142856</ele><time>2026-04-11T10:58:40.056Z</time></trkpt><trkpt lat="44.9860583" lon="7.7801083"><ele>260.7142857142857</ele><time>2026-04-11T10:58:41.06Z</time></trkpt><trkpt lat="44.986125" lon="7.7800933"><ele>260.8571428571429</ele><time>2026-04-11T10:58:42.06Z</time></trkpt><trkpt lat="44.98619" lon="7.7800783"><ele>261.0</ele><time>2026-04-11T10:58:43.061Z</time></trkpt><trkpt lat="44.9862567" lon="7.7800633"><ele>261.0</ele><time>2026-04-11T10:58:44.063Z</time></trkpt><trkpt lat="44.9863233" lon="7.78005"><ele>261.0</ele><time>2026-04-11T10:58:45.061Z</time></trkpt><trkpt lat="44.9863867" lon="7.7800367"><ele>261.0</ele><time>2026-04-11T10:58:46.058Z</time></trkpt><trkpt lat="44.9865017" lon="7.78"><ele>261.0</ele><time>2026-04-11T10:58:48.061Z</time></trkpt><trkpt lat="44.9866033" lon="7.7799683"><ele>261.0</ele><time>2026-04-11T10:58:50.061Z</time></trkpt><trkpt lat="44.9866933" lon="7.7799417"><ele>261.0</ele><time>2026-04-11T10:58:52.06Z</time></trkpt><trkpt lat="44.986765" lon="7.7799167"><ele>261.0</ele><time>2026-04-11T10:58:54.06Z</time></trkpt><trkpt lat="44.9868217" lon="7.7799767"><ele>261.0</ele><time>2026-04-11T10:58:57.058Z</time></trkpt><trkpt lat="44.9868483" lon="7.7800767"><ele>261.0</ele><time>2026-04-11T10:58:59.06Z</time></trkpt><trkpt lat="44.98691" lon="7.7801833"><ele>261.0</ele><time>2026-04-11T10:59:01.058Z</time></trkpt><trkpt lat="44.9870017" lon="7.7802533"><ele>261.0</ele><time>2026-04-11T10:59:03.062Z</time></trkpt><trkpt lat="44.9870983" lon="7.7803333"><ele>261.0</ele><time>2026-04-11T10:59:05.059Z</time></trkpt><trkpt lat="44.9871983" lon="7.7804217"><ele>261.0</ele><time>2026-04-11T10:59:07.062Z</time></trkpt><trkpt lat="44.9872983" lon="7.780515"><ele>261.0</ele><time>2026-04-11T10:59:09.061Z</time></trkpt><trkpt lat="44.9873517" lon="7.7805633"><ele>261.0</ele><time>2026-04-11T10:59:10.06Z</time></trkpt><trkpt lat="44.9874583" lon="7.7806567"><ele>261.0</ele><time>2026-04-11T10:59:12.061Z</time></trkpt><trkpt lat="44.9875133" lon="7.780705"><ele>261.1666666666667</ele><time>2026-04-11T10:59:13.061Z</time></trkpt><trkpt lat="44.9876167" lon="7.7808"><ele>261.3333333333333</ele><time>2026-04-11T10:59:15.058Z</time></trkpt><trkpt lat="44.98767" lon="7.7808483"><ele>261.5</ele><time>2026-04-11T10:59:16.06Z</time></trkpt><trkpt lat="44.9877233" lon="7.7808967"><ele>261.66666666666663</ele><time>2026-04-11T10:59:17.061Z</time></trkpt><trkpt lat="44.98783" lon="7.78098"><ele>261.8333333333333</ele><time>2026-04-11T10:59:19.055Z</time></trkpt><trkpt lat="44.9878833" lon="7.7810283"><ele>262.0</ele><time>2026-04-11T10:59:20.063Z</time></trkpt><trkpt lat="44.9879867" lon="7.78112"><ele>262.8</ele><time>2026-04-11T10:59:22.062Z</time></trkpt><trkpt lat="44.9880917" lon="7.78121"><ele>263.6</ele><time>2026-04-11T10:59:24.061Z</time></trkpt><trkpt lat="44.9881467" lon="7.7812567"><ele>264.40000000000003</ele><time>2026-04-11T10:59:25.061Z</time></trkpt><trkpt lat="44.9881983" lon="7.7813083"><ele>265.2</ele><time>2026-04-11T10:59:26.06Z</time></trkpt><trkpt lat="44.9883017" lon="7.7814"><ele>266.0</ele><time>2026-04-11T10:59:28.06Z</time></trkpt><trkpt lat="44.98841" lon="7.781485"><ele>266.0</ele><time>2026-04-11T10:59:30.061Z</time></trkpt><trkpt lat="44.9885167" lon="7.7815633"><ele>266.0</ele><time>2026-04-11T10:59:32.061Z</time></trkpt><trkpt lat="44.988625" lon="7.781635"><ele>266.0</ele><time>2026-04-11T10:59:34.062Z</time></trkpt><trkpt lat="44.9887367" lon="7.7816983"><ele>266.0</ele><time>2026-04-11T10:59:36.062Z</time></trkpt><trkpt lat="44.9888517" lon="7.7817517"><ele>266.0</ele><time>2026-04-11T10:59:38.062Z</time></trkpt><trkpt lat="44.9889633" lon="7.781795"><ele>266.0</ele><time>2026-04-11T10:59:40.062Z</time></trkpt><trkpt lat="44.989075" lon="7.7818333"><ele>266.0</ele><time>2026-04-11T10:59:42.063Z</time></trkpt><trkpt lat="44.9891867" lon="7.781875"><ele>266.0</ele><time>2026-04-11T10:59:44.062Z</time></trkpt><trkpt lat="44.9893033" lon="7.78192"><ele>267.2</ele><time>2026-04-11T10:59:46.06Z</time></trkpt><trkpt lat="44.9894167" lon="7.7819467"><ele>268.40000000000003</ele><time>2026-04-11T10:59:48.06Z</time></trkpt><trkpt lat="44.989525" lon="7.7819683"><ele>269.6</ele><time>2026-04-11T10:59:50.06Z</time></trkpt><trkpt lat="44.98963" lon="7.7819833"><ele>270.8</ele><time>2026-04-11T10:59:52.062Z</time></trkpt><trkpt lat="44.98973" lon="7.781995"><ele>272.0</ele><time>2026-04-11T10:59:54.06Z</time></trkpt><trkpt lat="44.9898233" lon="7.7819983"><ele>272.0</ele><time>2026-04-11T10:59:56.061Z</time></trkpt><trkpt lat="44.9899167" lon="7.782"><ele>272.0</ele><time>2026-04-11T10:59:58.062Z</time></trkpt><trkpt lat="44.990015" lon="7.782005"><ele>272.0</ele><time>2026-04-11T11:00:00.057Z</time></trkpt><trkpt lat="44.9901167" lon="7.7819967"><ele>272.0</ele><time>2026-04-11T11:00:02.056Z</time></trkpt><trkpt lat="44.9902183" lon="7.7819767"><ele>272.0</ele><time>2026-04-11T11:00:04.061Z</time></trkpt><trkpt lat="44.9903233" lon="7.7819533"><ele>271.4</ele><time>2026-04-11T11:00:06.057Z</time></trkpt><trkpt lat="44.9904267" lon="7.7819383"><ele>270.79999999999995</ele><time>2026-04-11T11:00:08.056Z</time></trkpt><trkpt lat="44.99052" lon="7.781935"><ele>270.2</ele><time>2026-04-11T11:00:10.061Z</time></trkpt><trkpt lat="44.990585" lon="7.782"><ele>269.59999999999997</ele><time>2026-04-11T11:00:12.061Z</time></trkpt><trkpt lat="44.9906067" lon="7.782135"><ele>269.0</ele><time>2026-04-11T11:00:14.061Z</time></trkpt><trkpt lat="44.9906583" lon="7.78227"><ele>269.0</ele><time>2026-04-11T11:00:16.061Z</time></trkpt><trkpt lat="44.99076" lon="7.782355"><ele>269.0</ele><time>2026-04-11T11:00:18.061Z</time></trkpt><trkpt lat="44.9908833" lon="7.782385"><ele>269.0</ele><time>2026-04-11T11:00:20.061Z</time></trkpt><trkpt lat="44.9910067" lon="7.7823933"><ele>269.0</ele><time>2026-04-11T11:00:22.06Z</time></trkpt><trkpt lat="44.9910717" lon="7.782395"><ele>269.0</ele><time>2026-04-11T11:00:23.06Z</time></trkpt><trkpt lat="44.991145" lon="7.7823917"><ele>268.8571428571429</ele><time>2026-04-11T11:00:24.061Z</time></trkpt><trkpt lat="44.9912217" lon="7.7823883"><ele>268.7142857142857</ele><time>2026-04-11T11:00:25.06Z</time></trkpt><trkpt lat="44.991295" lon="7.7823783"><ele>268.57142857142856</ele><time>2026-04-11T11:00:26.06Z</time></trkpt><trkpt lat="44.9913633" lon="7.7823633"><ele>268.42857142857144</ele><time>2026-04-11T11:00:27.06Z</time></trkpt><trkpt lat="44.99143" lon="7.7823483"><ele>268.2857142857143</ele><time>2026-04-11T11:00:28.058Z</time></trkpt><trkpt lat="44.9914983" lon="7.78233"><ele>268.14285714285717</ele><time>2026-04-11T11:00:29.06Z</time></trkpt><trkpt lat="44.991565" lon="7.7823117"><ele>268.0</ele><time>2026-04-11T11:00:30.062Z</time></trkpt><trkpt lat="44.9916333" lon="7.7822917"><ele>267.8571428571429</ele><time>2026-04-11T11:00:31.065Z</time></trkpt><trkpt lat="44.991705" lon="7.7822683"><ele>267.7142857142857</ele><time>2026-04-11T11:00:32.059Z</time></trkpt><trkpt lat="44.991775" lon="7.7822467"><ele>267.57142857142856</ele><time>2026-04-11T11:00:33.06Z</time></trkpt><trkpt lat="44.991845" lon="7.7822267"><ele>267.42857142857144</ele><time>2026-04-11T11:00:34.06Z</time></trkpt><trkpt lat="44.991915" lon="7.782205"><ele>267.2857142857143</ele><time>2026-04-11T11:00:35.06Z</time></trkpt><trkpt lat="44.991985" lon="7.7821867"><ele>267.14285714285717</ele><time>2026-04-11T11:00:36.06Z</time></trkpt><trkpt lat="44.9920533" lon="7.7821683"><ele>267.0</ele><time>2026-04-11T11:00:37.061Z</time></trkpt><trkpt lat="44.9921217" lon="7.78215"><ele>267.00000000000006</ele><time>2026-04-11T11:00:38.061Z</time></trkpt><trkpt lat="44.9921917" lon="7.7821317"><ele>267.0</ele><time>2026-04-11T11:00:39.061Z</time></trkpt><trkpt lat="44.9922583" lon="7.7821133"><ele>267.0</ele><time>2026-04-11T11:00:40.06Z</time></trkpt><trkpt lat="44.9923217" lon="7.7820967"><ele>267.0</ele><time>2026-04-11T11:00:41.058Z</time></trkpt><trkpt lat="44.99239" lon="7.7820767"><ele>267.0</ele><time>2026-04-11T11:00:42.061Z</time></trkpt><trkpt lat="44.9924583" lon="7.78206"><ele>267.00000000000006</ele><time>2026-04-11T11:00:43.062Z</time></trkpt><trkpt lat="44.9925283" lon="7.7820433"><ele>267.0</ele><time>2026-04-11T11:00:44.062Z</time></trkpt><trkpt lat="44.9926" lon="7.782025"><ele>267.1666666666667</ele><time>2026-04-11T11:00:45.062Z</time></trkpt><trkpt lat="44.9926733" lon="7.7820017"><ele>267.3333333333333</ele><time>2026-04-11T11:00:46.061Z</time></trkpt><trkpt lat="44.9927483" lon="7.78198"><ele>267.5</ele><time>2026-04-11T11:00:47.058Z</time></trkpt><trkpt lat="44.9928283" lon="7.78196"><ele>267.66666666666663</ele><time>2026-04-11T11:00:48.062Z</time></trkpt><trkpt lat="44.9929133" lon="7.7819417"><ele>267.8333333333333</ele><time>2026-04-11T11:00:49.061Z</time></trkpt><trkpt lat="44.9929967" lon="7.781925"><ele>268.0</ele><time>2026-04-11T11:00:50.059Z</time></trkpt><trkpt lat="44.9930783" lon="7.78191"><ele>268.0</ele><time>2026-04-11T11:00:51.061Z</time></trkpt><trkpt lat="44.9931583" lon="7.7819"><ele>268.0</ele><time>2026-04-11T11:00:52.06Z</time></trkpt><trkpt lat="44.9932367" lon="7.7818933"><ele>268.0</ele><time>2026-04-11T11:00:53.059Z</time></trkpt><trkpt lat="44.9933133" lon="7.7818917"><ele>268.0</ele><time>2026-04-11T11:00:54.06Z</time></trkpt><trkpt lat="44.9933883" lon="7.781895"><ele>268.0</ele><time>2026-04-11T11:00:55.061Z</time></trkpt><trkpt lat="44.9934567" lon="7.7818983"><ele>268.0</ele><time>2026-04-11T11:00:56.06Z</time></trkpt><trkpt lat="44.9935233" lon="7.7818983"><ele>268.0</ele><time>2026-04-11T11:00:57.062Z</time></trkpt><trkpt lat="44.9936317" lon="7.7819017"><ele>268.0</ele><time>2026-04-11T11:00:59.062Z</time></trkpt><trkpt lat="44.993715" lon="7.78193"><ele>268.0</ele><time>2026-04-11T11:01:01.059Z</time></trkpt><trkpt lat="44.993785" lon="7.78197"><ele>268.0</ele><time>2026-04-11T11:01:03.063Z</time></trkpt><trkpt lat="44.9938417" lon="7.7820317"><ele>268.0</ele><time>2026-04-11T11:01:05.06Z</time></trkpt><trkpt lat="44.993905" lon="7.782095"><ele>268.0</ele><time>2026-04-11T11:01:07.061Z</time></trkpt><trkpt lat="44.9939733" lon="7.7821067"><ele>268.0</ele><time>2026-04-11T11:01:09.064Z</time></trkpt><trkpt lat="44.9940183" lon="7.7820217"><ele>268.0</ele><time>2026-04-11T11:01:11.061Z</time></trkpt><trkpt lat="44.9940083" lon="7.7819033"><ele>268.0</ele><time>2026-04-11T11:01:13.063Z</time></trkpt><trkpt lat="44.99399" lon="7.7817867"><ele>268.0</ele><time>2026-04-11T11:01:15.062Z</time></trkpt><trkpt lat="44.993975" lon="7.7816683"><ele>268.0</ele><time>2026-04-11T11:01:17.06Z</time></trkpt><trkpt lat="44.993955" lon="7.781555"><ele>268.0</ele><time>2026-04-11T11:01:19.063Z</time></trkpt><trkpt lat="44.9939417" lon="7.781435"><ele>268.0</ele><time>2026-04-11T11:01:21.062Z</time></trkpt><trkpt lat="44.993925" lon="7.781325"><ele>268.5</ele><time>2026-04-11T11:01:23.059Z</time></trkpt><trkpt lat="44.9939017" lon="7.7812017"><ele>269.0</ele><time>2026-04-11T11:01:25.062Z</time></trkpt><trkpt lat="44.99389" lon="7.78109"><ele>269.5</ele><time>2026-04-11T11:01:27.061Z</time></trkpt><trkpt lat="44.9938733" lon="7.780975"><ele>270.0</ele><time>2026-04-11T11:01:29.059Z</time></trkpt><trkpt lat="44.993855" lon="7.7808567"><ele>270.5</ele><time>2026-04-11T11:01:31.061Z</time></trkpt><trkpt lat="44.99383" lon="7.7807433"><ele>271.0</ele><time>2026-04-11T11:01:33.063Z</time></trkpt><trkpt lat="44.9937917" lon="7.7806433"><ele>271.0</ele><time>2026-04-11T11:01:35.06Z</time></trkpt><trkpt lat="44.9937533" lon="7.7805417"><ele>271.0</ele><time>2026-04-11T11:01:37.059Z</time></trkpt><trkpt lat="44.9937283" lon="7.7804267"><ele>271.0</ele><time>2026-04-11T11:01:39.062Z</time></trkpt><trkpt lat="44.9937033" lon="7.78031"><ele>271.0</ele><time>2026-04-11T11:01:41.058Z</time></trkpt><trkpt lat="44.9936783" lon="7.7802033"><ele>271.0</ele><time>2026-04-11T11:01:43.06Z</time></trkpt><trkpt lat="44.9936533" lon="7.7800867"><ele>271.0</ele><time>2026-04-11T11:01:45.062Z</time></trkpt><trkpt lat="44.993635" lon="7.779965"><ele>271.66666666666663</ele><time>2026-04-11T11:01:47.057Z</time></trkpt><trkpt lat="44.9936167" lon="7.7798367"><ele>272.3333333333333</ele><time>2026-04-11T11:01:49.058Z</time></trkpt><trkpt lat="44.9936017" lon="7.7797083"><ele>273.0</ele><time>2026-04-11T11:01:51.061Z</time></trkpt><trkpt lat="44.99358" lon="7.7795933"><ele>273.6666666666667</ele><time>2026-04-11T11:01:53.058Z</time></trkpt><trkpt lat="44.9935667" lon="7.779475"><ele>274.33333333333337</ele><time>2026-04-11T11:01:55.062Z</time></trkpt><trkpt lat="44.9935483" lon="7.7793567"><ele>275.0</ele><time>2026-04-11T11:01:57.061Z</time></trkpt><trkpt lat="44.9935317" lon="7.7792383"><ele>276.4</ele><time>2026-04-11T11:01:59.058Z</time></trkpt><trkpt lat="44.9935067" lon="7.7791067"><ele>277.8</ele><time>2026-04-11T11:02:01.06Z</time></trkpt><trkpt lat="44.9934783" lon="7.7789683"><ele>279.2</ele><time>2026-04-11T11:02:03.062Z</time></trkpt><trkpt lat="44.9934533" lon="7.7788233"><ele>280.6</ele><time>2026-04-11T11:02:05.059Z</time></trkpt><trkpt lat="44.9934317" lon="7.7786717"><ele>282.0</ele><time>2026-04-11T11:02:07.061Z</time></trkpt><trkpt lat="44.99341" lon="7.7785133"><ele>282.25</ele><time>2026-04-11T11:02:09.062Z</time></trkpt><trkpt lat="44.9933783" lon="7.7783517"><ele>282.5</ele><time>2026-04-11T11:02:11.058Z</time></trkpt><trkpt lat="44.99335" lon="7.778185"><ele>282.75</ele><time>2026-04-11T11:02:13.059Z</time></trkpt><trkpt lat="44.9933217" lon="7.7780167"><ele>283.0</ele><time>2026-04-11T11:02:15.06Z</time></trkpt><trkpt lat="44.99329" lon="7.7778433"><ele>282.0</ele><time>2026-04-11T11:02:17.059Z</time></trkpt><trkpt lat="44.9932633" lon="7.77767"><ele>281.0</ele><time>2026-04-11T11:02:19.06Z</time></trkpt><trkpt lat="44.9932483" lon="7.7775817"><ele>280.0</ele><time>2026-04-11T11:02:20.062Z</time></trkpt><trkpt lat="44.99321" lon="7.7774133"><ele>279.0</ele><time>2026-04-11T11:02:22.06Z</time></trkpt><trkpt lat="44.9931717" lon="7.7772467"><ele>278.0</ele><time>2026-04-11T11:02:24.062Z</time></trkpt><trkpt lat="44.993135" lon="7.7770717"><ele>278.0</ele><time>2026-04-11T11:02:26.061Z</time></trkpt><trkpt lat="44.9931167" lon="7.7769817"><ele>278.0</ele><time>2026-04-11T11:02:27.062Z</time></trkpt><trkpt lat="44.9930967" lon="7.7768883"><ele>278.0</ele><time>2026-04-11T11:02:28.061Z</time></trkpt><trkpt lat="44.9930783" lon="7.7767983"><ele>278.0</ele><time>2026-04-11T11:02:29.061Z</time></trkpt><trkpt lat="44.993045" lon="7.7766267"><ele>278.0</ele><time>2026-04-11T11:02:31.06Z</time></trkpt><trkpt lat="44.993025" lon="7.7765383"><ele>278.0</ele><time>2026-04-11T11:02:32.063Z</time></trkpt><trkpt lat="44.9930083" lon="7.7764517"><ele>277.85714285714283</ele><time>2026-04-11T11:02:33.061Z</time></trkpt><trkpt lat="44.9929917" lon="7.7763617"><ele>277.7142857142857</ele><time>2026-04-11T11:02:34.06Z</time></trkpt><trkpt lat="44.992975" lon="7.7762683"><ele>277.57142857142856</ele><time>2026-04-11T11:02:35.059Z</time></trkpt><trkpt lat="44.99296" lon="7.7761767"><ele>277.42857142857144</ele><time>2026-04-11T11:02:36.056Z</time></trkpt><trkpt lat="44.9929433" lon="7.7760833"><ele>277.2857142857143</ele><time>2026-04-11T11:02:37.06Z</time></trkpt><trkpt lat="44.99293" lon="7.7759867"><ele>277.1428571428571</ele><time>2026-04-11T11:02:38.06Z</time></trkpt><trkpt lat="44.992915" lon="7.77589"><ele>277.0</ele><time>2026-04-11T11:02:39.062Z</time></trkpt><trkpt lat="44.9928983" lon="7.7757967"><ele>276.7142857142857</ele><time>2026-04-11T11:02:40.062Z</time></trkpt><trkpt lat="44.9928833" lon="7.7757"><ele>276.4285714285714</ele><time>2026-04-11T11:02:41.059Z</time></trkpt><trkpt lat="44.9928667" lon="7.77561"><ele>276.1428571428571</ele><time>2026-04-11T11:02:42.061Z</time></trkpt><trkpt lat="44.99285" lon="7.77552"><ele>275.85714285714283</ele><time>2026-04-11T11:02:43.061Z</time></trkpt><trkpt lat="44.99283" lon="7.775425"><ele>275.57142857142856</ele><time>2026-04-11T11:02:44.061Z</time></trkpt><trkpt lat="44.9928117" lon="7.77533"><ele>275.2857142857143</ele><time>2026-04-11T11:02:45.06Z</time></trkpt><trkpt lat="44.9927917" lon="7.7752383"><ele>275.0</ele><time>2026-04-11T11:02:46.063Z</time></trkpt><trkpt lat="44.9927733" lon="7.7751417"><ele>274.83333333333337</ele><time>2026-04-11T11:02:47.06Z</time></trkpt><trkpt lat="44.9927533" lon="7.77504"><ele>274.6666666666667</ele><time>2026-04-11T11:02:48.06Z</time></trkpt><trkpt lat="44.99273" lon="7.7749417"><ele>274.5</ele><time>2026-04-11T11:02:49.06Z</time></trkpt><trkpt lat="44.9927017" lon="7.7747917"><ele>274.3333333333333</ele><time>2026-04-11T11:02:51.061Z</time></trkpt><trkpt lat="44.9926867" lon="7.7746983"><ele>274.16666666666663</ele><time>2026-04-11T11:02:53.062Z</time></trkpt><trkpt lat="44.992705" lon="7.7745983"><ele>274.0</ele><time>2026-04-11T11:02:56.061Z</time></trkpt><trkpt lat="44.9927667" lon="7.7745567"><ele>274.0</ele><time>2026-04-11T11:02:58.06Z</time></trkpt><trkpt lat="44.99287" lon="7.7745133"><ele>274.0</ele><time>2026-04-11T11:03:00.057Z</time></trkpt><trkpt lat="44.992985" lon="7.7744583"><ele>274.0</ele><time>2026-04-11T11:03:02.061Z</time></trkpt><trkpt lat="44.9930467" lon="7.7744317"><ele>274.0</ele><time>2026-04-11T11:03:03.062Z</time></trkpt><trkpt lat="44.9931067" lon="7.7744017"><ele>274.0</ele><time>2026-04-11T11:03:04.061Z</time></trkpt><trkpt lat="44.9931667" lon="7.7743717"><ele>274.0</ele><time>2026-04-11T11:03:05.06Z</time></trkpt><trkpt lat="44.99323" lon="7.77434"><ele>273.7142857142857</ele><time>2026-04-11T11:03:06.059Z</time></trkpt><trkpt lat="44.9932933" lon="7.77431"><ele>273.42857142857144</ele><time>2026-04-11T11:03:07.061Z</time></trkpt><trkpt lat="44.9933567" lon="7.77428"><ele>273.1428571428571</ele><time>2026-04-11T11:03:08.06Z</time></trkpt><trkpt lat="44.9934233" lon="7.774245"><ele>272.8571428571429</ele><time>2026-04-11T11:03:09.061Z</time></trkpt><trkpt lat="44.9934867" lon="7.77421"><ele>272.57142857142856</ele><time>2026-04-11T11:03:10.063Z</time></trkpt><trkpt lat="44.9935517" lon="7.7741717"><ele>272.2857142857143</ele><time>2026-04-11T11:03:11.06Z</time></trkpt><trkpt lat="44.9936167" lon="7.77413"><ele>272.0</ele><time>2026-04-11T11:03:12.06Z</time></trkpt><trkpt lat="44.99368" lon="7.7740867"><ele>271.5</ele><time>2026-04-11T11:03:13.063Z</time></trkpt><trkpt lat="44.9937417" lon="7.774045"><ele>271.0</ele><time>2026-04-11T11:03:14.061Z</time></trkpt><trkpt lat="44.9938033" lon="7.7740017"><ele>270.5</ele><time>2026-04-11T11:03:15.062Z</time></trkpt><trkpt lat="44.9939133" lon="7.7739333"><ele>270.0</ele><time>2026-04-11T11:03:17.061Z</time></trkpt><trkpt lat="44.9939617" lon="7.7738083"><ele>269.5</ele><time>2026-04-11T11:03:19.06Z</time></trkpt><trkpt lat="44.99395" lon="7.7737167"><ele>269.0</ele><time>2026-04-11T11:03:20.057Z</time></trkpt><trkpt lat="44.9939333" lon="7.7736183"><ele>268.83333333333337</ele><time>2026-04-11T11:03:21.061Z</time></trkpt><trkpt lat="44.99392" lon="7.773515"><ele>268.6666666666667</ele><time>2026-04-11T11:03:22.062Z</time></trkpt><trkpt lat="44.9939117" lon="7.77341"><ele>268.5</ele><time>2026-04-11T11:03:23.06Z</time></trkpt><trkpt lat="44.9939017" lon="7.773305"><ele>268.3333333333333</ele><time>2026-04-11T11:03:24.06Z</time></trkpt><trkpt lat="44.99389" lon="7.7732"><ele>268.16666666666663</ele><time>2026-04-11T11:03:25.062Z</time></trkpt><trkpt lat="44.9938767" lon="7.7730933"><ele>268.0</ele><time>2026-04-11T11:03:26.06Z</time></trkpt><trkpt lat="44.9938667" lon="7.7729883"><ele>268.0</ele><time>2026-04-11T11:03:27.061Z</time></trkpt><trkpt lat="44.993855" lon="7.7728783"><ele>268.0</ele><time>2026-04-11T11:03:28.059Z</time></trkpt><trkpt lat="44.993845" lon="7.7727667"><ele>268.0</ele><time>2026-04-11T11:03:29.06Z</time></trkpt><trkpt lat="44.9938333" lon="7.7726533"><ele>268.0</ele><time>2026-04-11T11:03:30.061Z</time></trkpt><trkpt lat="44.9938233" lon="7.7725417"><ele>268.0</ele><time>2026-04-11T11:03:31.062Z</time></trkpt><trkpt lat="44.9938133" lon="7.7724283"><ele>268.0</ele><time>2026-04-11T11:03:32.061Z</time></trkpt><trkpt lat="44.9938033" lon="7.772315"><ele>268.0</ele><time>2026-04-11T11:03:33.061Z</time></trkpt><trkpt lat="44.9937917" lon="7.7722017"><ele>268.0</ele><time>2026-04-11T11:03:34.061Z</time></trkpt><trkpt lat="44.9937833" lon="7.7720817"><ele>268.0</ele><time>2026-04-11T11:03:35.062Z</time></trkpt><trkpt lat="44.993775" lon="7.771965"><ele>268.0</ele><time>2026-04-11T11:03:36.06Z</time></trkpt><trkpt lat="44.993765" lon="7.7718533"><ele>268.0</ele><time>2026-04-11T11:03:37.062Z</time></trkpt><trkpt lat="44.993755" lon="7.7717467"><ele>268.0</ele><time>2026-04-11T11:03:38.062Z</time></trkpt><trkpt lat="44.993745" lon="7.771635"><ele>268.0</ele><time>2026-04-11T11:03:39.062Z</time></trkpt><trkpt lat="44.993735" lon="7.771525"><ele>268.0</ele><time>2026-04-11T11:03:40.059Z</time></trkpt><trkpt lat="44.993725" lon="7.771415"><ele>268.0</ele><time>2026-04-11T11:03:41.06Z</time></trkpt><trkpt lat="44.9937167" lon="7.7713083"><ele>268.0</ele><time>2026-04-11T11:03:42.061Z</time></trkpt><trkpt lat="44.993705" lon="7.7712067"><ele>268.0</ele><time>2026-04-11T11:03:43.062Z</time></trkpt><trkpt lat="44.9936967" lon="7.7711083"><ele>268.0</ele><time>2026-04-11T11:03:44.06Z</time></trkpt><trkpt lat="44.9936867" lon="7.7710117"><ele>268.0</ele><time>2026-04-11T11:03:45.061Z</time></trkpt><trkpt lat="44.9936783" lon="7.770915"><ele>268.0</ele><time>2026-04-11T11:03:46.063Z</time></trkpt><trkpt lat="44.993665" lon="7.7708267"><ele>268.0</ele><time>2026-04-11T11:03:47.059Z</time></trkpt><trkpt lat="44.9935917" lon="7.7706917"><ele>268.0</ele><time>2026-04-11T11:03:49.06Z</time></trkpt><trkpt lat="44.9935333" lon="7.7706583"><ele>268.0</ele><time>2026-04-11T11:03:50.06Z</time></trkpt><trkpt lat="44.9934083" lon="7.77062"><ele>268.0</ele><time>2026-04-11T11:03:52.061Z</time></trkpt><trkpt lat="44.993345" lon="7.7705967"><ele>268.0</ele><time>2026-04-11T11:03:53.059Z</time></trkpt><trkpt lat="44.993235" lon="7.770525"><ele>268.0</ele><time>2026-04-11T11:03:55.062Z</time></trkpt><trkpt lat="44.993135" lon="7.770435"><ele>268.0</ele><time>2026-04-11T11:03:57.061Z</time></trkpt><trkpt lat="44.9930533" lon="7.7703217"><ele>268.0</ele><time>2026-04-11T11:03:59.06Z</time></trkpt><trkpt lat="44.9930183" lon="7.7701633"><ele>268.0</ele><time>2026-04-11T11:04:01.06Z</time></trkpt><trkpt lat="44.9929917" lon="7.76999"><ele>268.5</ele><time>2026-04-11T11:04:03.062Z</time></trkpt><trkpt lat="44.9929683" lon="7.7698167"><ele>269.0</ele><time>2026-04-11T11:04:05.06Z</time></trkpt><trkpt lat="44.9929633" lon="7.769725"><ele>269.5</ele><time>2026-04-11T11:04:06.062Z</time></trkpt><trkpt lat="44.992955" lon="7.7696317"><ele>270.0</ele><time>2026-04-11T11:04:07.059Z</time></trkpt><trkpt lat="44.9929483" lon="7.76954"><ele>270.5</ele><time>2026-04-11T11:04:08.06Z</time></trkpt><trkpt lat="44.99294" lon="7.7694433"><ele>271.0</ele><time>2026-04-11T11:04:09.059Z</time></trkpt><trkpt lat="44.992935" lon="7.7692633"><ele>271.16666666666663</ele><time>2026-04-11T11:04:11.059Z</time></trkpt><trkpt lat="44.9929433" lon="7.7691733"><ele>271.3333333333333</ele><time>2026-04-11T11:04:12.058Z</time></trkpt><trkpt lat="44.9929633" lon="7.7690867"><ele>271.5</ele><time>2026-04-11T11:04:13.061Z</time></trkpt><trkpt lat="44.9930033" lon="7.7689167"><ele>271.6666666666667</ele><time>2026-04-11T11:04:15.059Z</time></trkpt><trkpt lat="44.9930317" lon="7.7687417"><ele>271.83333333333337</ele><time>2026-04-11T11:04:17.059Z</time></trkpt><trkpt lat="44.9930433" lon="7.7686533"><ele>272.0</ele><time>2026-04-11T11:04:18.056Z</time></trkpt><trkpt lat="44.9930567" lon="7.7685633"><ele>271.6666666666667</ele><time>2026-04-11T11:04:19.054Z</time></trkpt><trkpt lat="44.9930833" lon="7.7683717"><ele>271.33333333333337</ele><time>2026-04-11T11:04:21.059Z</time></trkpt><trkpt lat="44.9931" lon="7.7682667"><ele>271.0</ele><time>2026-04-11T11:04:22.056Z</time></trkpt><trkpt lat="44.9931133" lon="7.768165"><ele>270.6666666666667</ele><time>2026-04-11T11:04:23.059Z</time></trkpt><trkpt lat="44.993125" lon="7.7680717"><ele>270.3333333333333</ele><time>2026-04-11T11:04:24.057Z</time></trkpt><trkpt lat="44.9931417" lon="7.7679783"><ele>270.0</ele><time>2026-04-11T11:04:25.057Z</time></trkpt><trkpt lat="44.9931517" lon="7.76788"><ele>270.0</ele><time>2026-04-11T11:04:26.056Z</time></trkpt><trkpt lat="44.993165" lon="7.7677783"><ele>270.0</ele><time>2026-04-11T11:04:27.059Z</time></trkpt><trkpt lat="44.9931817" lon="7.76768"><ele>270.0</ele><time>2026-04-11T11:04:28.059Z</time></trkpt><trkpt lat="44.9932" lon="7.7675883"><ele>270.0</ele><time>2026-04-11T11:04:29.059Z</time></trkpt><trkpt lat="44.99322" lon="7.7674967"><ele>270.0</ele><time>2026-04-11T11:04:30.061Z</time></trkpt><trkpt lat="44.9932383" lon="7.76741"><ele>270.0</ele><time>2026-04-11T11:04:31.056Z</time></trkpt><trkpt lat="44.993255" lon="7.7673217"><ele>270.0</ele><time>2026-04-11T11:04:32.054Z</time></trkpt><trkpt lat="44.9932717" lon="7.7672333"><ele>269.85714285714283</ele><time>2026-04-11T11:04:33.054Z</time></trkpt><trkpt lat="44.99329" lon="7.7671417"><ele>269.71428571428567</ele><time>2026-04-11T11:04:34.054Z</time></trkpt><trkpt lat="44.993305" lon="7.7670433"><ele>269.57142857142856</ele><time>2026-04-11T11:04:35.053Z</time></trkpt><trkpt lat="44.9933183" lon="7.7669417"><ele>269.42857142857144</ele><time>2026-04-11T11:04:36.059Z</time></trkpt><trkpt lat="44.9933283" lon="7.7668367"><ele>269.28571428571433</ele><time>2026-04-11T11:04:37.059Z</time></trkpt><trkpt lat="44.9933383" lon="7.7667367"><ele>269.14285714285717</ele><time>2026-04-11T11:04:38.055Z</time></trkpt><trkpt lat="44.993355" lon="7.76664"><ele>269.0</ele><time>2026-04-11T11:04:39.06Z</time></trkpt><trkpt lat="44.993375" lon="7.7665417"><ele>268.8</ele><time>2026-04-11T11:04:40.054Z</time></trkpt><trkpt lat="44.9934017" lon="7.76639"><ele>268.59999999999997</ele><time>2026-04-11T11:04:42.062Z</time></trkpt><trkpt lat="44.9933933" lon="7.7662833"><ele>268.4</ele><time>2026-04-11T11:04:44.062Z</time></trkpt><trkpt lat="44.9933217" lon="7.76624"><ele>268.2</ele><time>2026-04-11T11:04:46.061Z</time></trkpt><trkpt lat="44.9932033" lon="7.766245"><ele>268.0</ele><time>2026-04-11T11:04:48.06Z</time></trkpt><trkpt lat="44.993135" lon="7.7662517"><ele>267.8571428571429</ele><time>2026-04-11T11:04:49.061Z</time></trkpt><trkpt lat="44.9930633" lon="7.7662617"><ele>267.7142857142857</ele><time>2026-04-11T11:04:50.059Z</time></trkpt><trkpt lat="44.9929933" lon="7.766275"><ele>267.57142857142856</ele><time>2026-04-11T11:04:51.059Z</time></trkpt><trkpt lat="44.9929233" lon="7.7662933"><ele>267.42857142857144</ele><time>2026-04-11T11:04:52.06Z</time></trkpt><trkpt lat="44.9928517" lon="7.7663117"><ele>267.2857142857143</ele><time>2026-04-11T11:04:53.059Z</time></trkpt><trkpt lat="44.99278" lon="7.7663417"><ele>267.14285714285717</ele><time>2026-04-11T11:04:54.059Z</time></trkpt><trkpt lat="44.9927117" lon="7.7663733"><ele>267.0</ele><time>2026-04-11T11:04:55.06Z</time></trkpt><trkpt lat="44.9926433" lon="7.7664083"><ele>267.00000000000006</ele><time>2026-04-11T11:04:56.061Z</time></trkpt><trkpt lat="44.9925767" lon="7.7664383"><ele>267.0</ele><time>2026-04-11T11:04:57.061Z</time></trkpt><trkpt lat="44.9925083" lon="7.766465"><ele>267.0</ele><time>2026-04-11T11:04:58.061Z</time></trkpt><trkpt lat="44.99244" lon="7.766485"><ele>267.0</ele><time>2026-04-11T11:04:59.059Z</time></trkpt><trkpt lat="44.9923717" lon="7.7665017"><ele>267.0</ele><time>2026-04-11T11:05:00.062Z</time></trkpt><trkpt lat="44.9923017" lon="7.7665183"><ele>267.00000000000006</ele><time>2026-04-11T11:05:01.062Z</time></trkpt><trkpt lat="44.9922333" lon="7.7665317"><ele>267.0</ele><time>2026-04-11T11:05:02.06Z</time></trkpt><trkpt lat="44.992165" lon="7.7665383"><ele>266.8</ele><time>2026-04-11T11:05:03.061Z</time></trkpt><trkpt lat="44.9921" lon="7.7665367"><ele>266.6</ele><time>2026-04-11T11:05:04.062Z</time></trkpt><trkpt lat="44.9919933" lon="7.76648"><ele>266.40000000000003</ele><time>2026-04-11T11:05:06.062Z</time></trkpt><trkpt lat="44.99194" lon="7.7663433"><ele>266.2</ele><time>2026-04-11T11:05:08.061Z</time></trkpt><trkpt lat="44.9919383" lon="7.76618"><ele>266.0</ele><time>2026-04-11T11:05:10.061Z</time></trkpt><trkpt lat="44.99195" lon="7.7660117"><ele>266.0</ele><time>2026-04-11T11:05:12.062Z</time></trkpt><trkpt lat="44.99195" lon="7.7658417"><ele>266.0</ele><time>2026-04-11T11:05:14.061Z</time></trkpt><trkpt lat="44.991955" lon="7.7656767"><ele>266.0</ele><time>2026-04-11T11:05:16.062Z</time></trkpt><trkpt lat="44.99196" lon="7.7655283"><ele>266.0</ele><time>2026-04-11T11:05:18.062Z</time></trkpt><trkpt lat="44.9919633" lon="7.7653833"><ele>266.0</ele><time>2026-04-11T11:05:20.058Z</time></trkpt><trkpt lat="44.991965" lon="7.7652533"><ele>266.40000000000003</ele><time>2026-04-11T11:05:22.064Z</time></trkpt><trkpt lat="44.99197" lon="7.7651233"><ele>266.8</ele><time>2026-04-11T11:05:24.062Z</time></trkpt><trkpt lat="44.9919833" lon="7.76499"><ele>267.20000000000005</ele><time>2026-04-11T11:05:26.06Z</time></trkpt><trkpt lat="44.992" lon="7.764855"><ele>267.6</ele><time>2026-04-11T11:05:28.063Z</time></trkpt><trkpt lat="44.9920117" lon="7.76472"><ele>268.0</ele><time>2026-04-11T11:05:30.06Z</time></trkpt><trkpt lat="44.9920183" lon="7.7645983"><ele>268.0</ele><time>2026-04-11T11:05:32.062Z</time></trkpt><trkpt lat="44.9920317" lon="7.7644767"><ele>268.0</ele><time>2026-04-11T11:05:34.062Z</time></trkpt><trkpt lat="44.992045" lon="7.764365"><ele>268.0</ele><time>2026-04-11T11:05:36.066Z</time></trkpt><trkpt lat="44.9920583" lon="7.76426"><ele>268.0</ele><time>2026-04-11T11:05:38.062Z</time></trkpt><trkpt lat="44.9920717" lon="7.764145"><ele>268.0</ele><time>2026-04-11T11:05:40.062Z</time></trkpt><trkpt lat="44.9920867" lon="7.7640183"><ele>268.0</ele><time>2026-04-11T11:05:42.06Z</time></trkpt><trkpt lat="44.992095" lon="7.7638917"><ele>268.3333333333333</ele><time>2026-04-11T11:05:44.063Z</time></trkpt><trkpt lat="44.9921067" lon="7.763765"><ele>268.66666666666663</ele><time>2026-04-11T11:05:46.063Z</time></trkpt><trkpt lat="44.9921167" lon="7.76364"><ele>269.0</ele><time>2026-04-11T11:05:48.063Z</time></trkpt><trkpt lat="44.9921283" lon="7.763515"><ele>269.3333333333333</ele><time>2026-04-11T11:05:50.06Z</time></trkpt><trkpt lat="44.99214" lon="7.76339"><ele>269.6666666666667</ele><time>2026-04-11T11:05:52.065Z</time></trkpt><trkpt lat="44.99215" lon="7.763265"><ele>270.0</ele><time>2026-04-11T11:05:54.062Z</time></trkpt><trkpt lat="44.992155" lon="7.7631367"><ele>270.3333333333333</ele><time>2026-04-11T11:05:56.063Z</time></trkpt><trkpt lat="44.99217" lon="7.7630117"><ele>270.6666666666667</ele><time>2026-04-11T11:05:58.063Z</time></trkpt><trkpt lat="44.9921817" lon="7.76289"><ele>271.0</ele><time>2026-04-11T11:06:00.059Z</time></trkpt><trkpt lat="44.9921883" lon="7.7627733"><ele>271.33333333333337</ele><time>2026-04-11T11:06:02.062Z</time></trkpt><trkpt lat="44.9921967" lon="7.76266"><ele>271.6666666666667</ele><time>2026-04-11T11:06:04.064Z</time></trkpt><trkpt lat="44.9922383" lon="7.7625717"><ele>272.0</ele><time>2026-04-11T11:06:06.065Z</time></trkpt><trkpt lat="44.992285" lon="7.7624817"><ele>272.6666666666667</ele><time>2026-04-11T11:06:08.062Z</time></trkpt><trkpt lat="44.992315" lon="7.7623667"><ele>273.33333333333337</ele><time>2026-04-11T11:06:10.061Z</time></trkpt><trkpt lat="44.9923417" lon="7.7622467"><ele>274.0</ele><time>2026-04-11T11:06:12.062Z</time></trkpt><trkpt lat="44.992365" lon="7.76213"><ele>274.6666666666667</ele><time>2026-04-11T11:06:14.061Z</time></trkpt><trkpt lat="44.99239" lon="7.7620117"><ele>275.3333333333333</ele><time>2026-04-11T11:06:16.063Z</time></trkpt><trkpt lat="44.99242" lon="7.76189"><ele>276.0</ele><time>2026-04-11T11:06:18.061Z</time></trkpt><trkpt lat="44.9924467" lon="7.7617717"><ele>276.3333333333333</ele><time>2026-04-11T11:06:20.061Z</time></trkpt><trkpt lat="44.9924717" lon="7.7616583"><ele>276.6666666666667</ele><time>2026-04-11T11:06:22.061Z</time></trkpt><trkpt lat="44.992495" lon="7.7615467"><ele>277.0</ele><time>2026-04-11T11:06:24.063Z</time></trkpt><trkpt lat="44.9925217" lon="7.7614333"><ele>277.33333333333337</ele><time>2026-04-11T11:06:26.065Z</time></trkpt><trkpt lat="44.992545" lon="7.76132"><ele>277.6666666666667</ele><time>2026-04-11T11:06:28.062Z</time></trkpt><trkpt lat="44.992565" lon="7.7612117"><ele>278.0</ele><time>2026-04-11T11:06:30.063Z</time></trkpt><trkpt lat="44.992585" lon="7.7611067"><ele>279.5</ele><time>2026-04-11T11:06:32.063Z</time></trkpt><trkpt lat="44.99261" lon="7.7609933"><ele>281.0</ele><time>2026-04-11T11:06:34.062Z</time></trkpt><trkpt lat="44.9926367" lon="7.7608767"><ele>282.5</ele><time>2026-04-11T11:06:36.063Z</time></trkpt><trkpt lat="44.9926683" lon="7.76076"><ele>284.0</ele><time>2026-04-11T11:06:38.06Z</time></trkpt><trkpt lat="44.9926933" lon="7.760655"><ele>285.5</ele><time>2026-04-11T11:06:40.063Z</time></trkpt><trkpt lat="44.99272" lon="7.7605567"><ele>287.0</ele><time>2026-04-11T11:06:42.062Z</time></trkpt><trkpt lat="44.9927367" lon="7.7604583"><ele>287.0</ele><time>2026-04-11T11:06:44.062Z</time></trkpt><trkpt lat="44.99275" lon="7.760355"><ele>287.0</ele><time>2026-04-11T11:06:46.062Z</time></trkpt><trkpt lat="44.99277" lon="7.7602633"><ele>287.0</ele><time>2026-04-11T11:06:48.059Z</time></trkpt><trkpt lat="44.9928033" lon="7.7601417"><ele>287.0</ele><time>2026-04-11T11:06:51.064Z</time></trkpt><trkpt lat="44.9928317" lon="7.76003"><ele>287.0</ele><time>2026-04-11T11:06:54.06Z</time></trkpt><trkpt lat="44.99286" lon="7.7599183"><ele>287.0</ele><time>2026-04-11T11:06:57.063Z</time></trkpt><trkpt lat="44.9928667" lon="7.759815"><ele>287.83333333333337</ele><time>2026-04-11T11:07:00.063Z</time></trkpt><trkpt lat="44.992885" lon="7.75971"><ele>288.6666666666667</ele><time>2026-04-11T11:07:03.064Z</time></trkpt><trkpt lat="44.9929067" lon="7.7596"><ele>289.5</ele><time>2026-04-11T11:07:06.061Z</time></trkpt><trkpt lat="44.9929317" lon="7.759475"><ele>290.3333333333333</ele><time>2026-04-11T11:07:09.066Z</time></trkpt><trkpt lat="44.9929583" lon="7.7593867"><ele>291.16666666666663</ele><time>2026-04-11T11:07:11.065Z</time></trkpt><trkpt lat="44.992985" lon="7.759295"><ele>292.0</ele><time>2026-04-11T11:07:13.063Z</time></trkpt><trkpt lat="44.9930083" lon="7.7592033"><ele>292.0</ele><time>2026-04-11T11:07:15.065Z</time></trkpt><trkpt lat="44.9930217" lon="7.75911"><ele>292.0</ele><time>2026-04-11T11:07:17.061Z</time></trkpt><trkpt lat="44.9929483" lon="7.7590667"><ele>292.0</ele><time>2026-04-11T11:07:20.063Z</time></trkpt><trkpt lat="44.992875" lon="7.7591017"><ele>292.0</ele><time>2026-04-11T11:07:22.063Z</time></trkpt><trkpt lat="44.9927817" lon="7.7591367"><ele>292.0</ele><time>2026-04-11T11:07:24.061Z</time></trkpt><trkpt lat="44.9926867" lon="7.7591867"><ele>292.0</ele><time>2026-04-11T11:07:26.062Z</time></trkpt><trkpt lat="44.9925767" lon="7.7592233"><ele>291.4</ele><time>2026-04-11T11:07:28.06Z</time></trkpt><trkpt lat="44.992455" lon="7.759245"><ele>290.79999999999995</ele><time>2026-04-11T11:07:30.06Z</time></trkpt><trkpt lat="44.9923917" lon="7.7592533"><ele>290.2</ele><time>2026-04-11T11:07:31.062Z</time></trkpt><trkpt lat="44.99227" lon="7.7592583"><ele>289.59999999999997</ele><time>2026-04-11T11:07:33.062Z</time></trkpt><trkpt lat="44.992205" lon="7.7592583"><ele>289.0</ele><time>2026-04-11T11:07:34.061Z</time></trkpt><trkpt lat="44.9920883" lon="7.7592633"><ele>289.0</ele><time>2026-04-11T11:07:36.061Z</time></trkpt><trkpt lat="44.991975" lon="7.7592683"><ele>289.0</ele><time>2026-04-11T11:07:38.061Z</time></trkpt><trkpt lat="44.9918717" lon="7.759255"><ele>289.0</ele><time>2026-04-11T11:07:40.061Z</time></trkpt><trkpt lat="44.9917683" lon="7.7592067"><ele>289.0</ele><time>2026-04-11T11:07:42.062Z</time></trkpt><trkpt lat="44.9916617" lon="7.7591367"><ele>289.0</ele><time>2026-04-11T11:07:44.06Z</time></trkpt><trkpt lat="44.9915517" lon="7.75907"><ele>288.8333333333333</ele><time>2026-04-11T11:07:46.06Z</time></trkpt><trkpt lat="44.9914367" lon="7.7590183"><ele>288.66666666666663</ele><time>2026-04-11T11:07:48.062Z</time></trkpt><trkpt lat="44.9913733" lon="7.7589967"><ele>288.5</ele><time>2026-04-11T11:07:49.062Z</time></trkpt><trkpt lat="44.9913117" lon="7.7589783"><ele>288.3333333333333</ele><time>2026-04-11T11:07:50.062Z</time></trkpt><trkpt lat="44.991245" lon="7.758955"><ele>288.1666666666667</ele><time>2026-04-11T11:07:51.063Z</time></trkpt><trkpt lat="44.991175" lon="7.7589267"><ele>288.0</ele><time>2026-04-11T11:07:52.06Z</time></trkpt><trkpt lat="44.9911067" lon="7.758895"><ele>288.0</ele><time>2026-04-11T11:07:53.06Z</time></trkpt><trkpt lat="44.9910383" lon="7.7588617"><ele>288.0</ele><time>2026-04-11T11:07:54.061Z</time></trkpt><trkpt lat="44.9909683" lon="7.7588267"><ele>288.0</ele><time>2026-04-11T11:07:55.061Z</time></trkpt><trkpt lat="44.9908983" lon="7.7587967"><ele>288.0</ele><time>2026-04-11T11:07:56.061Z</time></trkpt><trkpt lat="44.990825" lon="7.7587667"><ele>288.0</ele><time>2026-04-11T11:07:57.061Z</time></trkpt><trkpt lat="44.99075" lon="7.7587383"><ele>288.0</ele><time>2026-04-11T11:07:58.061Z</time></trkpt><trkpt lat="44.9906717" lon="7.75871"><ele>288.0</ele><time>2026-04-11T11:07:59.061Z</time></trkpt><trkpt lat="44.990595" lon="7.7586833"><ele>288.0</ele><time>2026-04-11T11:08:00.062Z</time></trkpt><trkpt lat="44.9905117" lon="7.7586533"><ele>288.0</ele><time>2026-04-11T11:08:01.06Z</time></trkpt><trkpt lat="44.99043" lon="7.7586283"><ele>288.0</ele><time>2026-04-11T11:08:02.06Z</time></trkpt><trkpt lat="44.99035" lon="7.7586067"><ele>288.0</ele><time>2026-04-11T11:08:03.063Z</time></trkpt><trkpt lat="44.9902717" lon="7.758585"><ele>288.0</ele><time>2026-04-11T11:08:04.065Z</time></trkpt><trkpt lat="44.990195" lon="7.7585617"><ele>288.0</ele><time>2026-04-11T11:08:05.061Z</time></trkpt><trkpt lat="44.9901133" lon="7.75854"><ele>288.0</ele><time>2026-04-11T11:08:06.061Z</time></trkpt><trkpt lat="44.9900317" lon="7.75852"><ele>288.0</ele><time>2026-04-11T11:08:07.063Z</time></trkpt><trkpt lat="44.9899483" lon="7.7585017"><ele>288.0</ele><time>2026-04-11T11:08:08.061Z</time></trkpt><trkpt lat="44.9898633" lon="7.75848"><ele>288.0</ele><time>2026-04-11T11:08:09.061Z</time></trkpt><trkpt lat="44.9897783" lon="7.7584583"><ele>288.0</ele><time>2026-04-11T11:08:10.06Z</time></trkpt><trkpt lat="44.989695" lon="7.758425"><ele>287.8333333333333</ele><time>2026-04-11T11:08:11.06Z</time></trkpt><trkpt lat="44.98961" lon="7.7583917"><ele>287.6666666666667</ele><time>2026-04-11T11:08:12.06Z</time></trkpt><trkpt lat="44.9895283" lon="7.75836"><ele>287.5</ele><time>2026-04-11T11:08:13.063Z</time></trkpt><trkpt lat="44.9894467" lon="7.7583067"><ele>287.33333333333337</ele><time>2026-04-11T11:08:14.061Z</time></trkpt><trkpt lat="44.9893633" lon="7.75826"><ele>287.1666666666667</ele><time>2026-04-11T11:08:15.062Z</time></trkpt><trkpt lat="44.98928" lon="7.7582067"><ele>287.0</ele><time>2026-04-11T11:08:16.06Z</time></trkpt><trkpt lat="44.9891983" lon="7.7581483"><ele>286.33333333333337</ele><time>2026-04-11T11:08:17.06Z</time></trkpt><trkpt lat="44.9891167" lon="7.7580983"><ele>285.6666666666667</ele><time>2026-04-11T11:08:18.063Z</time></trkpt><trkpt lat="44.989035" lon="7.758055"><ele>285.0</ele><time>2026-04-11T11:08:19.062Z</time></trkpt><trkpt lat="44.98895" lon="7.758025"><ele>284.3333333333333</ele><time>2026-04-11T11:08:20.061Z</time></trkpt><trkpt lat="44.9888633" lon="7.75801"><ele>283.66666666666663</ele><time>2026-04-11T11:08:21.064Z</time></trkpt><trkpt lat="44.9887767" lon="7.7580067"><ele>283.0</ele><time>2026-04-11T11:08:22.06Z</time></trkpt><trkpt lat="44.9886933" lon="7.7580217"><ele>283.0</ele><time>2026-04-11T11:08:23.061Z</time></trkpt><trkpt lat="44.98861" lon="7.75804"><ele>283.0</ele><time>2026-04-11T11:08:24.062Z</time></trkpt><trkpt lat="44.9885267" lon="7.7580633"><ele>283.0</ele><time>2026-04-11T11:08:25.063Z</time></trkpt><trkpt lat="44.9884417" lon="7.7580883"><ele>283.0</ele><time>2026-04-11T11:08:26.063Z</time></trkpt><trkpt lat="44.9883567" lon="7.7581117"><ele>283.0</ele><time>2026-04-11T11:08:27.06Z</time></trkpt><trkpt lat="44.9882733" lon="7.7581333"><ele>283.0</ele><time>2026-04-11T11:08:28.061Z</time></trkpt><trkpt lat="44.9881867" lon="7.7581583"><ele>282.66666666666663</ele><time>2026-04-11T11:08:29.06Z</time></trkpt><trkpt lat="44.9881017" lon="7.7581833"><ele>282.3333333333333</ele><time>2026-04-11T11:08:30.062Z</time></trkpt><trkpt lat="44.9880183" lon="7.7582067"><ele>282.0</ele><time>2026-04-11T11:08:31.064Z</time></trkpt><trkpt lat="44.9879333" lon="7.758225"><ele>281.6666666666667</ele><time>2026-04-11T11:08:32.062Z</time></trkpt><trkpt lat="44.9878467" lon="7.75824"><ele>281.33333333333337</ele><time>2026-04-11T11:08:33.062Z</time></trkpt><trkpt lat="44.9877633" lon="7.758255"><ele>281.0</ele><time>2026-04-11T11:08:34.063Z</time></trkpt><trkpt lat="44.98768" lon="7.7582733"><ele>281.0</ele><time>2026-04-11T11:08:35.061Z</time></trkpt><trkpt lat="44.9876" lon="7.758295"><ele>281.0</ele><time>2026-04-11T11:08:36.064Z</time></trkpt><trkpt lat="44.9875183" lon="7.7583117"><ele>281.0</ele><time>2026-04-11T11:08:37.064Z</time></trkpt><trkpt lat="44.9874333" lon="7.75832"><ele>281.0</ele><time>2026-04-11T11:08:38.064Z</time></trkpt><trkpt lat="44.9873467" lon="7.7583233"><ele>281.0</ele><time>2026-04-11T11:08:39.067Z</time></trkpt><trkpt lat="44.9872583" lon="7.7583217"><ele>281.0</ele><time>2026-04-11T11:08:40.063Z</time></trkpt><trkpt lat="44.987175" lon="7.75832"><ele>281.1666666666667</ele><time>2026-04-11T11:08:41.061Z</time></trkpt><trkpt lat="44.98709" lon="7.7583083"><ele>281.33333333333337</ele><time>2026-04-11T11:08:42.062Z</time></trkpt><trkpt lat="44.9870017" lon="7.7582867"><ele>281.5</ele><time>2026-04-11T11:08:43.062Z</time></trkpt><trkpt lat="44.98692" lon="7.758255"><ele>281.6666666666667</ele><time>2026-04-11T11:08:44.063Z</time></trkpt><trkpt lat="44.9868383" lon="7.758215"><ele>281.8333333333333</ele><time>2026-04-11T11:08:45.064Z</time></trkpt><trkpt lat="44.986755" lon="7.7581733"><ele>282.0</ele><time>2026-04-11T11:08:46.061Z</time></trkpt><trkpt lat="44.986675" lon="7.7581317"><ele>281.3333333333333</ele><time>2026-04-11T11:08:47.062Z</time></trkpt><trkpt lat="44.9865967" lon="7.75809"><ele>280.6666666666667</ele><time>2026-04-11T11:08:48.062Z</time></trkpt><trkpt lat="44.986515" lon="7.7580533"><ele>280.0</ele><time>2026-04-11T11:08:49.063Z</time></trkpt><trkpt lat="44.9864333" lon="7.7580183"><ele>279.33333333333337</ele><time>2026-04-11T11:08:50.062Z</time></trkpt><trkpt lat="44.98635" lon="7.7579783"><ele>278.6666666666667</ele><time>2026-04-11T11:08:51.064Z</time></trkpt><trkpt lat="44.9862683" lon="7.75794"><ele>278.0</ele><time>2026-04-11T11:08:52.063Z</time></trkpt><trkpt lat="44.9861817" lon="7.7579083"><ele>278.0</ele><time>2026-04-11T11:08:53.061Z</time></trkpt><trkpt lat="44.986095" lon="7.75788"><ele>278.0</ele><time>2026-04-11T11:08:54.062Z</time></trkpt><trkpt lat="44.9860083" lon="7.75785"><ele>278.0</ele><time>2026-04-11T11:08:55.063Z</time></trkpt><trkpt lat="44.98592" lon="7.7578183"><ele>278.0</ele><time>2026-04-11T11:08:56.062Z</time></trkpt><trkpt lat="44.9858317" lon="7.7577933"><ele>278.0</ele><time>2026-04-11T11:08:57.065Z</time></trkpt><trkpt lat="44.9857433" lon="7.7577717"><ele>278.0</ele><time>2026-04-11T11:08:58.066Z</time></trkpt><trkpt lat="44.9856517" lon="7.7577467"><ele>277.2</ele><time>2026-04-11T11:08:59.063Z</time></trkpt><trkpt lat="44.9855583" lon="7.757715"><ele>276.4</ele><time>2026-04-11T11:09:00.063Z</time></trkpt><trkpt lat="44.985465" lon="7.757685"><ele>275.59999999999997</ele><time>2026-04-11T11:09:01.064Z</time></trkpt><trkpt lat="44.9853717" lon="7.7576567"><ele>274.8</ele><time>2026-04-11T11:09:02.063Z</time></trkpt><trkpt lat="44.98528" lon="7.757625"><ele>274.0</ele><time>2026-04-11T11:09:03.064Z</time></trkpt><trkpt lat="44.98519" lon="7.75759"><ele>274.0</ele><time>2026-04-11T11:09:04.062Z</time></trkpt><trkpt lat="44.9850983" lon="7.7575567"><ele>274.0</ele><time>2026-04-11T11:09:05.059Z</time></trkpt><trkpt lat="44.9850067" lon="7.75752"><ele>274.0</ele><time>2026-04-11T11:09:06.06Z</time></trkpt><trkpt lat="44.984915" lon="7.7574817"><ele>274.0</ele><time>2026-04-11T11:09:07.06Z</time></trkpt><trkpt lat="44.984825" lon="7.757445"><ele>274.0</ele><time>2026-04-11T11:09:08.06Z</time></trkpt><trkpt lat="44.98473" lon="7.7574133"><ele>274.0</ele><time>2026-04-11T11:09:09.06Z</time></trkpt><trkpt lat="44.9846367" lon="7.7573867"><ele>274.0</ele><time>2026-04-11T11:09:10.061Z</time></trkpt><trkpt lat="44.984545" lon="7.7573583"><ele>274.0</ele><time>2026-04-11T11:09:11.061Z</time></trkpt><trkpt lat="44.98445" lon="7.757325"><ele>274.0</ele><time>2026-04-11T11:09:12.061Z</time></trkpt><trkpt lat="44.9843567" lon="7.7572833"><ele>274.0</ele><time>2026-04-11T11:09:13.062Z</time></trkpt><trkpt lat="44.9842667" lon="7.757235"><ele>274.0</ele><time>2026-04-11T11:09:14.061Z</time></trkpt><trkpt lat="44.9841833" lon="7.7571733"><ele>274.0</ele><time>2026-04-11T11:09:15.062Z</time></trkpt><trkpt lat="44.9841033" lon="7.75711"><ele>274.0</ele><time>2026-04-11T11:09:16.061Z</time></trkpt><trkpt lat="44.9840233" lon="7.7570567"><ele>274.0</ele><time>2026-04-11T11:09:17.067Z</time></trkpt><trkpt lat="44.98394" lon="7.757025"><ele>274.0</ele><time>2026-04-11T11:09:18.062Z</time></trkpt><trkpt lat="44.9838517" lon="7.7570117"><ele>274.0</ele><time>2026-04-11T11:09:19.061Z</time></trkpt><trkpt lat="44.9837583" lon="7.7570133"><ele>273.59999999999997</ele><time>2026-04-11T11:09:20.062Z</time></trkpt><trkpt lat="44.983665" lon="7.75702"><ele>273.2</ele><time>2026-04-11T11:09:21.062Z</time></trkpt><trkpt lat="44.9835733" lon="7.75703"><ele>272.79999999999995</ele><time>2026-04-11T11:09:22.063Z</time></trkpt><trkpt lat="44.9834867" lon="7.75704"><ele>272.4</ele><time>2026-04-11T11:09:23.062Z</time></trkpt><trkpt lat="44.9833967" lon="7.7570533"><ele>272.0</ele><time>2026-04-11T11:09:24.061Z</time></trkpt><trkpt lat="44.9833" lon="7.757055"><ele>272.0</ele><time>2026-04-11T11:09:25.063Z</time></trkpt><trkpt lat="44.9831983" lon="7.7570517"><ele>272.0</ele><time>2026-04-11T11:09:26.064Z</time></trkpt><trkpt lat="44.9830967" lon="7.757045"><ele>272.0</ele><time>2026-04-11T11:09:27.063Z</time></trkpt><trkpt lat="44.9830017" lon="7.757035"><ele>272.0</ele><time>2026-04-11T11:09:28.062Z</time></trkpt><trkpt lat="44.9829117" lon="7.7570433"><ele>272.0</ele><time>2026-04-11T11:09:29.062Z</time></trkpt><trkpt lat="44.9828283" lon="7.757075"><ele>272.0</ele><time>2026-04-11T11:09:30.063Z</time></trkpt><trkpt lat="44.9827517" lon="7.7571267"><ele>272.0</ele><time>2026-04-11T11:09:31.064Z</time></trkpt><trkpt lat="44.9826867" lon="7.75719"><ele>272.0</ele><time>2026-04-11T11:09:32.063Z</time></trkpt><trkpt lat="44.9826317" lon="7.7572633"><ele>272.0</ele><time>2026-04-11T11:09:33.064Z</time></trkpt><trkpt lat="44.98258" lon="7.7573517"><ele>272.0</ele><time>2026-04-11T11:09:34.064Z</time></trkpt><trkpt lat="44.9825433" lon="7.75745"><ele>272.0</ele><time>2026-04-11T11:09:35.061Z</time></trkpt><trkpt lat="44.982535" lon="7.7575617"><ele>272.0</ele><time>2026-04-11T11:09:36.061Z</time></trkpt><trkpt lat="44.9825267" lon="7.7576933"><ele>272.0</ele><time>2026-04-11T11:09:37.063Z</time></trkpt><trkpt lat="44.9825167" lon="7.7578283"><ele>272.0</ele><time>2026-04-11T11:09:38.062Z</time></trkpt><trkpt lat="44.9825033" lon="7.7579667"><ele>272.0</ele><time>2026-04-11T11:09:39.061Z</time></trkpt><trkpt lat="44.9824867" lon="7.7581083"><ele>272.0</ele><time>2026-04-11T11:09:40.061Z</time></trkpt><trkpt lat="44.9824633" lon="7.75825"><ele>270.2</ele><time>2026-04-11T11:09:41.061Z</time></trkpt><trkpt lat="44.9824383" lon="7.7583983"><ele>268.4</ele><time>2026-04-11T11:09:42.062Z</time></trkpt><trkpt lat="44.9824017" lon="7.75855"><ele>266.6</ele><time>2026-04-11T11:09:43.06Z</time></trkpt><trkpt lat="44.9823633" lon="7.7586983"><ele>264.8</ele><time>2026-04-11T11:09:44.06Z</time></trkpt><trkpt lat="44.9823233" lon="7.758835"><ele>263.0</ele><time>2026-04-11T11:09:45.063Z</time></trkpt><trkpt lat="44.982275" lon="7.758965"><ele>261.6666666666667</ele><time>2026-04-11T11:09:46.061Z</time></trkpt><trkpt lat="44.9822267" lon="7.7590883"><ele>260.33333333333337</ele><time>2026-04-11T11:09:47.061Z</time></trkpt><trkpt lat="44.9821717" lon="7.7592"><ele>259.0</ele><time>2026-04-11T11:09:48.061Z</time></trkpt><trkpt lat="44.9821083" lon="7.7592967"><ele>257.6666666666667</ele><time>2026-04-11T11:09:49.06Z</time></trkpt><trkpt lat="44.98204" lon="7.7593683"><ele>256.3333333333333</ele><time>2026-04-11T11:09:50.062Z</time></trkpt><trkpt lat="44.9819767" lon="7.7594117"><ele>255.0</ele><time>2026-04-11T11:09:51.062Z</time></trkpt><trkpt lat="44.98191" lon="7.7594167"><ele>255.0</ele><time>2026-04-11T11:09:52.062Z</time></trkpt><trkpt lat="44.9818383" lon="7.7593983"><ele>255.0</ele><time>2026-04-11T11:09:53.062Z</time></trkpt><trkpt lat="44.9817667" lon="7.75935"><ele>255.0</ele><time>2026-04-11T11:09:54.062Z</time></trkpt><trkpt lat="44.981695" lon="7.75929"><ele>255.0</ele><time>2026-04-11T11:09:55.063Z</time></trkpt><trkpt lat="44.9816267" lon="7.7592267"><ele>255.0</ele><time>2026-04-11T11:09:56.06Z</time></trkpt><trkpt lat="44.98156" lon="7.7591567"><ele>255.0</ele><time>2026-04-11T11:09:57.06Z</time></trkpt><trkpt lat="44.9815" lon="7.7590783"><ele>254.5</ele><time>2026-04-11T11:09:58.061Z</time></trkpt><trkpt lat="44.98144" lon="7.7589933"><ele>254.0</ele><time>2026-04-11T11:09:59.061Z</time></trkpt><trkpt lat="44.9813767" lon="7.7589167"><ele>253.5</ele><time>2026-04-11T11:10:00.061Z</time></trkpt><trkpt lat="44.9813117" lon="7.7588467"><ele>253.0</ele><time>2026-04-11T11:10:01.06Z</time></trkpt><trkpt lat="44.9812417" lon="7.7587883"><ele>252.5</ele><time>2026-04-11T11:10:02.06Z</time></trkpt><trkpt lat="44.98117" lon="7.7587417"><ele>252.0</ele><time>2026-04-11T11:10:03.062Z</time></trkpt><trkpt lat="44.9810983" lon="7.7587033"><ele>252.0</ele><time>2026-04-11T11:10:04.061Z</time></trkpt><trkpt lat="44.98103" lon="7.7586633"><ele>252.0</ele><time>2026-04-11T11:10:05.06Z</time></trkpt><trkpt lat="44.9809633" lon="7.7586217"><ele>252.0</ele><time>2026-04-11T11:10:06.059Z</time></trkpt><trkpt lat="44.9809017" lon="7.7585783"><ele>252.0</ele><time>2026-04-11T11:10:07.06Z</time></trkpt><trkpt lat="44.9808433" lon="7.758525"><ele>252.0</ele><time>2026-04-11T11:10:08.06Z</time></trkpt><trkpt lat="44.9808017" lon="7.758445"><ele>252.0</ele><time>2026-04-11T11:10:09.062Z</time></trkpt><trkpt lat="44.9807783" lon="7.75835"><ele>252.0</ele><time>2026-04-11T11:10:10.061Z</time></trkpt><trkpt lat="44.9807633" lon="7.7582483"><ele>251.66666666666666</ele><time>2026-04-11T11:10:11.06Z</time></trkpt><trkpt lat="44.9807533" lon="7.7581433"><ele>251.33333333333331</ele><time>2026-04-11T11:10:12.061Z</time></trkpt><trkpt lat="44.98074" lon="7.75804"><ele>251.0</ele><time>2026-04-11T11:10:13.062Z</time></trkpt><trkpt lat="44.9807267" lon="7.757935"><ele>250.66666666666666</ele><time>2026-04-11T11:10:14.063Z</time></trkpt><trkpt lat="44.980715" lon="7.7578267"><ele>250.33333333333331</ele><time>2026-04-11T11:10:15.063Z</time></trkpt><trkpt lat="44.980705" lon="7.7577217"><ele>250.0</ele><time>2026-04-11T11:10:16.062Z</time></trkpt><trkpt lat="44.9807" lon="7.7576133"><ele>249.99999999999997</ele><time>2026-04-11T11:10:17.06Z</time></trkpt><trkpt lat="44.9807" lon="7.757505"><ele>250.0</ele><time>2026-04-11T11:10:18.062Z</time></trkpt><trkpt lat="44.9807133" lon="7.7573917"><ele>250.0</ele><time>2026-04-11T11:10:19.062Z</time></trkpt><trkpt lat="44.980725" lon="7.7572833"><ele>250.0</ele><time>2026-04-11T11:10:20.061Z</time></trkpt><trkpt lat="44.9807383" lon="7.7571783"><ele>249.99999999999997</ele><time>2026-04-11T11:10:21.063Z</time></trkpt><trkpt lat="44.980745" lon="7.75707"><ele>250.0</ele><time>2026-04-11T11:10:22.065Z</time></trkpt><trkpt lat="44.9807533" lon="7.7569617"><ele>249.66666666666666</ele><time>2026-04-11T11:10:23.059Z</time></trkpt><trkpt lat="44.980765" lon="7.7568533"><ele>249.33333333333331</ele><time>2026-04-11T11:10:24.06Z</time></trkpt><trkpt lat="44.980775" lon="7.75674"><ele>249.0</ele><time>2026-04-11T11:10:25.061Z</time></trkpt><trkpt lat="44.9807867" lon="7.7566317"><ele>248.66666666666669</ele><time>2026-04-11T11:10:26.062Z</time></trkpt><trkpt lat="44.9807983" lon="7.7565233"><ele>248.33333333333334</ele><time>2026-04-11T11:10:27.062Z</time></trkpt><trkpt lat="44.9808083" lon="7.7564133"><ele>248.0</ele><time>2026-04-11T11:10:28.062Z</time></trkpt><trkpt lat="44.9808217" lon="7.7563033"><ele>248.0</ele><time>2026-04-11T11:10:29.065Z</time></trkpt><trkpt lat="44.980835" lon="7.7561967"><ele>248.00000000000003</ele><time>2026-04-11T11:10:30.063Z</time></trkpt><trkpt lat="44.9808467" lon="7.7560933"><ele>248.0</ele><time>2026-04-11T11:10:31.064Z</time></trkpt><trkpt lat="44.9808617" lon="7.7559883"><ele>248.0</ele><time>2026-04-11T11:10:32.063Z</time></trkpt><trkpt lat="44.9808767" lon="7.755885"><ele>248.00000000000003</ele><time>2026-04-11T11:10:33.061Z</time></trkpt><trkpt lat="44.98089" lon="7.755785"><ele>248.0</ele><time>2026-04-11T11:10:34.06Z</time></trkpt><trkpt lat="44.980905" lon="7.755685"><ele>248.0</ele><time>2026-04-11T11:10:35.061Z</time></trkpt><trkpt lat="44.9809267" lon="7.7555867"><ele>248.14285714285717</ele><time>2026-04-11T11:10:36.061Z</time></trkpt><trkpt lat="44.9809483" lon="7.7554867"><ele>248.2857142857143</ele><time>2026-04-11T11:10:37.063Z</time></trkpt><trkpt lat="44.980965" lon="7.75539"><ele>248.42857142857144</ele><time>2026-04-11T11:10:38.061Z</time></trkpt><trkpt lat="44.9809767" lon="7.7552917"><ele>248.57142857142856</ele><time>2026-04-11T11:10:39.063Z</time></trkpt><trkpt lat="44.9809867" lon="7.7551933"><ele>248.7142857142857</ele><time>2026-04-11T11:10:40.062Z</time></trkpt><trkpt lat="44.9809933" lon="7.7550933"><ele>248.85714285714283</ele><time>2026-04-11T11:10:41.06Z</time></trkpt><trkpt lat="44.9809967" lon="7.7549917"><ele>249.0</ele><time>2026-04-11T11:10:42.061Z</time></trkpt><trkpt lat="44.9809967" lon="7.7548933"><ele>248.5</ele><time>2026-04-11T11:10:43.06Z</time></trkpt><trkpt lat="44.980995" lon="7.7547933"><ele>248.0</ele><time>2026-04-11T11:10:44.062Z</time></trkpt><trkpt lat="44.9809883" lon="7.754695"><ele>247.5</ele><time>2026-04-11T11:10:45.063Z</time></trkpt><trkpt lat="44.9809767" lon="7.7546017"><ele>247.0</ele><time>2026-04-11T11:10:46.06Z</time></trkpt><trkpt lat="44.9809667" lon="7.7545133"><ele>246.5</ele><time>2026-04-11T11:10:47.062Z</time></trkpt><trkpt lat="44.9809467" lon="7.7543633"><ele>246.0</ele><time>2026-04-11T11:10:49.062Z</time></trkpt><trkpt lat="44.980955" lon="7.754245"><ele>245.8</ele><time>2026-04-11T11:10:51.064Z</time></trkpt><trkpt lat="44.9810133" lon="7.75419"><ele>245.60000000000002</ele><time>2026-04-11T11:10:53.061Z</time></trkpt><trkpt lat="44.9810883" lon="7.75417"><ele>245.4</ele><time>2026-04-11T11:10:55.062Z</time></trkpt><trkpt lat="44.981185" lon="7.7541533"><ele>245.2</ele><time>2026-04-11T11:10:57.063Z</time></trkpt><trkpt lat="44.9812933" lon="7.7541333"><ele>245.0</ele><time>2026-04-11T11:10:59.06Z</time></trkpt><trkpt lat="44.98141" lon="7.754125"><ele>245.0</ele><time>2026-04-11T11:11:01.061Z</time></trkpt><trkpt lat="44.9815333" lon="7.7541217"><ele>245.0</ele><time>2026-04-11T11:11:03.063Z</time></trkpt><trkpt lat="44.9816583" lon="7.7541133"><ele>245.0</ele><time>2026-04-11T11:11:05.06Z</time></trkpt><trkpt lat="44.98178" lon="7.7540883"><ele>245.0</ele><time>2026-04-11T11:11:07.062Z</time></trkpt><trkpt lat="44.9819017" lon="7.7540417"><ele>245.5</ele><time>2026-04-11T11:11:09.062Z</time></trkpt><trkpt lat="44.9820183" lon="7.75399"><ele>246.0</ele><time>2026-04-11T11:11:11.061Z</time></trkpt><trkpt lat="44.9821217" lon="7.75391"><ele>246.5</ele><time>2026-04-11T11:11:13.062Z</time></trkpt><trkpt lat="44.9822083" lon="7.7538067"><ele>247.0</ele><time>2026-04-11T11:11:15.061Z</time></trkpt><trkpt lat="44.9822917" lon="7.7536783"><ele>247.0</ele><time>2026-04-11T11:11:17.06Z</time></trkpt><trkpt lat="44.9823367" lon="7.7536083"><ele>247.0</ele><time>2026-04-11T11:11:18.061Z</time></trkpt><trkpt lat="44.982385" lon="7.7535417"><ele>247.0</ele><time>2026-04-11T11:11:19.062Z</time></trkpt><trkpt lat="44.982435" lon="7.7534783"><ele>247.0</ele><time>2026-04-11T11:11:20.059Z</time></trkpt><trkpt lat="44.9824883" lon="7.75342"><ele>247.0</ele><time>2026-04-11T11:11:21.062Z</time></trkpt><trkpt lat="44.9825433" lon="7.753365"><ele>247.0</ele><time>2026-04-11T11:11:22.062Z</time></trkpt><trkpt lat="44.9826033" lon="7.75332"><ele>247.0</ele><time>2026-04-11T11:11:23.062Z</time></trkpt><trkpt lat="44.9827317" lon="7.75331"><ele>247.6</ele><time>2026-04-11T11:11:25.061Z</time></trkpt><trkpt lat="44.9828533" lon="7.753345"><ele>248.2</ele><time>2026-04-11T11:11:27.068Z</time></trkpt><trkpt lat="44.982975" lon="7.7533867"><ele>248.8</ele><time>2026-04-11T11:11:29.061Z</time></trkpt><trkpt lat="44.98304" lon="7.7534083"><ele>249.4</ele><time>2026-04-11T11:11:30.061Z</time></trkpt><trkpt lat="44.9831067" lon="7.7534383"><ele>250.0</ele><time>2026-04-11T11:11:31.062Z</time></trkpt><trkpt lat="44.983175" lon="7.7534583"><ele>250.0</ele><time>2026-04-11T11:11:32.062Z</time></trkpt><trkpt lat="44.9832417" lon="7.7534867"><ele>250.0</ele><time>2026-04-11T11:11:33.062Z</time></trkpt><trkpt lat="44.9833067" lon="7.75352"><ele>250.0</ele><time>2026-04-11T11:11:34.062Z</time></trkpt><trkpt lat="44.9833733" lon="7.7535533"><ele>250.0</ele><time>2026-04-11T11:11:35.06Z</time></trkpt><trkpt lat="44.9834367" lon="7.7535883"><ele>250.0</ele><time>2026-04-11T11:11:36.063Z</time></trkpt><trkpt lat="44.9835" lon="7.7536233"><ele>250.0</ele><time>2026-04-11T11:11:37.062Z</time></trkpt><trkpt lat="44.983565" lon="7.753655"><ele>250.0</ele><time>2026-04-11T11:11:38.062Z</time></trkpt><trkpt lat="44.9836317" lon="7.7536767"><ele>250.0</ele><time>2026-04-11T11:11:39.062Z</time></trkpt><trkpt lat="44.9836967" lon="7.7536967"><ele>250.0</ele><time>2026-04-11T11:11:40.062Z</time></trkpt><trkpt lat="44.983765" lon="7.7537167"><ele>250.0</ele><time>2026-04-11T11:11:41.061Z</time></trkpt><trkpt lat="44.9838333" lon="7.753735"><ele>250.0</ele><time>2026-04-11T11:11:42.062Z</time></trkpt><trkpt lat="44.9839017" lon="7.7537417"><ele>250.0</ele><time>2026-04-11T11:11:43.062Z</time></trkpt><trkpt lat="44.9839683" lon="7.7537483"><ele>250.0</ele><time>2026-04-11T11:11:44.062Z</time></trkpt><trkpt lat="44.9840383" lon="7.7537567"><ele>250.0</ele><time>2026-04-11T11:11:45.063Z</time></trkpt><trkpt lat="44.9841067" lon="7.75376"><ele>250.0</ele><time>2026-04-11T11:11:46.06Z</time></trkpt><trkpt lat="44.9841767" lon="7.7537633"><ele>250.0</ele><time>2026-04-11T11:11:47.061Z</time></trkpt><trkpt lat="44.984245" lon="7.75377"><ele>250.0</ele><time>2026-04-11T11:11:48.061Z</time></trkpt><trkpt lat="44.98431" lon="7.7537733"><ele>250.0</ele><time>2026-04-11T11:11:49.063Z</time></trkpt><trkpt lat="44.9843767" lon="7.753775"><ele>250.0</ele><time>2026-04-11T11:11:50.061Z</time></trkpt><trkpt lat="44.9844433" lon="7.753775"><ele>250.0</ele><time>2026-04-11T11:11:51.063Z</time></trkpt><trkpt lat="44.98451" lon="7.7537767"><ele>250.0</ele><time>2026-04-11T11:11:52.064Z</time></trkpt><trkpt lat="44.984575" lon="7.7537767"><ele>249.99999999999997</ele><time>2026-04-11T11:11:53.062Z</time></trkpt><trkpt lat="44.9846433" lon="7.7537767"><ele>250.0</ele><time>2026-04-11T11:11:54.061Z</time></trkpt><trkpt lat="44.9847117" lon="7.7537783"><ele>250.0</ele><time>2026-04-11T11:11:55.062Z</time></trkpt><trkpt lat="44.9847783" lon="7.7537817"><ele>250.0</ele><time>2026-04-11T11:11:56.061Z</time></trkpt><trkpt lat="44.9848433" lon="7.7537867"><ele>249.99999999999997</ele><time>2026-04-11T11:11:57.061Z</time></trkpt><trkpt lat="44.9849083" lon="7.753795"><ele>250.0</ele><time>2026-04-11T11:11:58.06Z</time></trkpt><trkpt lat="44.9850283" lon="7.753795"><ele>250.0</ele><time>2026-04-11T11:12:00.061Z</time></trkpt><trkpt lat="44.9851383" lon="7.7537883"><ele>250.0</ele><time>2026-04-11T11:12:02.062Z</time></trkpt><trkpt lat="44.9852467" lon="7.7538"><ele>250.0</ele><time>2026-04-11T11:12:04.063Z</time></trkpt><trkpt lat="44.985345" lon="7.7538133"><ele>250.0</ele><time>2026-04-11T11:12:06.061Z</time></trkpt><trkpt lat="44.9854217" lon="7.7538067"><ele>250.0</ele><time>2026-04-11T11:12:08.061Z</time></trkpt><trkpt lat="44.9854883" lon="7.7537883"><ele>250.0</ele><time>2026-04-11T11:12:10.061Z</time></trkpt><trkpt lat="44.98552" lon="7.7536667"><ele>250.0</ele><time>2026-04-11T11:12:13.062Z</time></trkpt><trkpt lat="44.9855333" lon="7.753535"><ele>250.0</ele><time>2026-04-11T11:12:15.063Z</time></trkpt><trkpt lat="44.9855667" lon="7.7534033"><ele>250.0</ele><time>2026-04-11T11:12:17.062Z</time></trkpt><trkpt lat="44.9856067" lon="7.7532917"><ele>250.0</ele><time>2026-04-11T11:12:19.063Z</time></trkpt><trkpt lat="44.9856617" lon="7.7531817"><ele>249.8</ele><time>2026-04-11T11:12:21.063Z</time></trkpt><trkpt lat="44.9857117" lon="7.7530583"><ele>249.6</ele><time>2026-04-11T11:12:23.062Z</time></trkpt><trkpt lat="44.9857567" lon="7.7529283"><ele>249.39999999999998</ele><time>2026-04-11T11:12:25.06Z</time></trkpt><trkpt lat="44.9857917" lon="7.7527967"><ele>249.2</ele><time>2026-04-11T11:12:27.063Z</time></trkpt><trkpt lat="44.9858283" lon="7.7526617"><ele>249.0</ele><time>2026-04-11T11:12:29.06Z</time></trkpt><trkpt lat="44.9858533" lon="7.752535"><ele>250.16666666666666</ele><time>2026-04-11T11:12:31.062Z</time></trkpt><trkpt lat="44.98587" lon="7.7524167"><ele>251.33333333333331</ele><time>2026-04-11T11:12:33.062Z</time></trkpt><trkpt lat="44.98589" lon="7.7522983"><ele>252.5</ele><time>2026-04-11T11:12:35.062Z</time></trkpt><trkpt lat="44.9859217" lon="7.75218"><ele>253.66666666666666</ele><time>2026-04-11T11:12:37.063Z</time></trkpt><trkpt lat="44.9859583" lon="7.75206"><ele>254.83333333333331</ele><time>2026-04-11T11:12:39.061Z</time></trkpt><trkpt lat="44.9860067" lon="7.7519433"><ele>256.0</ele><time>2026-04-11T11:12:41.062Z</time></trkpt><trkpt lat="44.9860633" lon="7.75183"><ele>257.0</ele><time>2026-04-11T11:12:43.061Z</time></trkpt><trkpt lat="44.9861183" lon="7.751715"><ele>258.0</ele><time>2026-04-11T11:12:45.062Z</time></trkpt><trkpt lat="44.9861717" lon="7.751595"><ele>259.0</ele><time>2026-04-11T11:12:47.06Z</time></trkpt><trkpt lat="44.9862367" lon="7.751475"><ele>260.0</ele><time>2026-04-11T11:12:49.06Z</time></trkpt><trkpt lat="44.98631" lon="7.7513467"><ele>261.0</ele><time>2026-04-11T11:12:51.061Z</time></trkpt><trkpt lat="44.98639" lon="7.7512233"><ele>261.0</ele><time>2026-04-11T11:12:53.062Z</time></trkpt><trkpt lat="44.986465" lon="7.7510983"><ele>261.0</ele><time>2026-04-11T11:12:55.062Z</time></trkpt><trkpt lat="44.9865333" lon="7.7509683"><ele>261.0</ele><time>2026-04-11T11:12:57.063Z</time></trkpt><trkpt lat="44.9866" lon="7.7508317"><ele>261.0</ele><time>2026-04-11T11:12:59.059Z</time></trkpt><trkpt lat="44.9866667" lon="7.75069"><ele>262.0</ele><time>2026-04-11T11:13:01.062Z</time></trkpt><trkpt lat="44.9867383" lon="7.7505433"><ele>263.0</ele><time>2026-04-11T11:13:03.061Z</time></trkpt><trkpt lat="44.986805" lon="7.7503867"><ele>264.0</ele><time>2026-04-11T11:13:05.062Z</time></trkpt><trkpt lat="44.9868383" lon="7.750305"><ele>265.0</ele><time>2026-04-11T11:13:06.062Z</time></trkpt><trkpt lat="44.9868683" lon="7.7502217"><ele>266.0</ele><time>2026-04-11T11:13:07.06Z</time></trkpt><trkpt lat="44.9868983" lon="7.75014"><ele>266.0</ele><time>2026-04-11T11:13:08.063Z</time></trkpt><trkpt lat="44.9869283" lon="7.7500567"><ele>266.0</ele><time>2026-04-11T11:13:09.062Z</time></trkpt><trkpt lat="44.9869533" lon="7.7499733"><ele>266.0</ele><time>2026-04-11T11:13:10.06Z</time></trkpt><trkpt lat="44.9869833" lon="7.7498917"><ele>266.0</ele><time>2026-04-11T11:13:11.062Z</time></trkpt><trkpt lat="44.9870167" lon="7.7498117"><ele>266.0</ele><time>2026-04-11T11:13:12.061Z</time></trkpt><trkpt lat="44.9870483" lon="7.74973"><ele>266.0</ele><time>2026-04-11T11:13:13.061Z</time></trkpt><trkpt lat="44.98708" lon="7.7496517"><ele>266.0</ele><time>2026-04-11T11:13:14.059Z</time></trkpt><trkpt lat="44.98713" lon="7.7494883"><ele>265.5</ele><time>2026-04-11T11:13:16.062Z</time></trkpt><trkpt lat="44.9871633" lon="7.7493183"><ele>265.0</ele><time>2026-04-11T11:13:18.062Z</time></trkpt><trkpt lat="44.9871867" lon="7.7491433"><ele>264.5</ele><time>2026-04-11T11:13:20.06Z</time></trkpt><trkpt lat="44.9871983" lon="7.748975"><ele>264.0</ele><time>2026-04-11T11:13:22.06Z</time></trkpt><trkpt lat="44.9872017" lon="7.74881"><ele>264.0</ele><time>2026-04-11T11:13:24.062Z</time></trkpt><trkpt lat="44.9872117" lon="7.7486367"><ele>264.0</ele><time>2026-04-11T11:13:26.061Z</time></trkpt><trkpt lat="44.9872283" lon="7.7484717"><ele>264.0</ele><time>2026-04-11T11:13:28.06Z</time></trkpt><trkpt lat="44.9872617" lon="7.748315"><ele>264.0</ele><time>2026-04-11T11:13:30.062Z</time></trkpt><trkpt lat="44.987315" lon="7.7481683"><ele>264.4</ele><time>2026-04-11T11:13:32.061Z</time></trkpt><trkpt lat="44.987395" lon="7.7480617"><ele>264.79999999999995</ele><time>2026-04-11T11:13:34.062Z</time></trkpt><trkpt lat="44.9874667" lon="7.74797"><ele>265.20000000000005</ele><time>2026-04-11T11:13:36.061Z</time></trkpt><trkpt lat="44.98755" lon="7.7478883"><ele>265.6</ele><time>2026-04-11T11:13:38.063Z</time></trkpt><trkpt lat="44.987625" lon="7.747815"><ele>266.0</ele><time>2026-04-11T11:13:40.061Z</time></trkpt><trkpt lat="44.9877" lon="7.7477517"><ele>266.6</ele><time>2026-04-11T11:13:42.059Z</time></trkpt><trkpt lat="44.9877767" lon="7.7476917"><ele>267.20000000000005</ele><time>2026-04-11T11:13:44.06Z</time></trkpt><trkpt lat="44.9878783" lon="7.74767"><ele>267.79999999999995</ele><time>2026-04-11T11:13:46.057Z</time></trkpt><trkpt lat="44.9879783" lon="7.7476867"><ele>268.4</ele><time>2026-04-11T11:13:48.06Z</time></trkpt><trkpt lat="44.9880683" lon="7.7477083"><ele>269.0</ele><time>2026-04-11T11:13:50.062Z</time></trkpt><trkpt lat="44.988155" lon="7.74772"><ele>269.0</ele><time>2026-04-11T11:13:52.063Z</time></trkpt><trkpt lat="44.988235" lon="7.7477367"><ele>269.0</ele><time>2026-04-11T11:13:54.061Z</time></trkpt><trkpt lat="44.9883217" lon="7.747745"><ele>269.0</ele><time>2026-04-11T11:13:56.063Z</time></trkpt><trkpt lat="44.9884067" lon="7.7477367"><ele>269.0</ele><time>2026-04-11T11:13:58.063Z</time></trkpt><trkpt lat="44.9884867" lon="7.7477083"><ele>269.0</ele><time>2026-04-11T11:14:00.063Z</time></trkpt><trkpt lat="44.9885683" lon="7.747675"><ele>269.0</ele><time>2026-04-11T11:14:02.065Z</time></trkpt><trkpt lat="44.98865" lon="7.7476217"><ele>269.59999999999997</ele><time>2026-04-11T11:14:04.063Z</time></trkpt><trkpt lat="44.988735" lon="7.7475667"><ele>270.2</ele><time>2026-04-11T11:14:06.06Z</time></trkpt><trkpt lat="44.9888333" lon="7.747515"><ele>270.79999999999995</ele><time>2026-04-11T11:14:08.063Z</time></trkpt><trkpt lat="44.9889217" lon="7.747465"><ele>271.4</ele><time>2026-04-11T11:14:10.061Z</time></trkpt><trkpt lat="44.9890083" lon="7.747425"><ele>272.0</ele><time>2026-04-11T11:14:12.062Z</time></trkpt><trkpt lat="44.9890983" lon="7.7473967"><ele>271.6</ele><time>2026-04-11T11:14:14.062Z</time></trkpt><trkpt lat="44.989195" lon="7.7473283"><ele>271.2</ele><time>2026-04-11T11:14:16.063Z</time></trkpt><trkpt lat="44.98928" lon="7.7472533"><ele>270.8</ele><time>2026-04-11T11:14:18.062Z</time></trkpt><trkpt lat="44.989385" lon="7.7471783"><ele>270.4</ele><time>2026-04-11T11:14:20.063Z</time></trkpt><trkpt lat="44.9894883" lon="7.74709"><ele>270.0</ele><time>2026-04-11T11:14:22.063Z</time></trkpt><trkpt lat="44.989575" lon="7.7469833"><ele>270.6</ele><time>2026-04-11T11:14:24.061Z</time></trkpt><trkpt lat="44.9896567" lon="7.7468617"><ele>271.2</ele><time>2026-04-11T11:14:26.062Z</time></trkpt><trkpt lat="44.9897233" lon="7.74676"><ele>271.8</ele><time>2026-04-11T11:14:28.064Z</time></trkpt><trkpt lat="44.9897983" lon="7.74664"><ele>272.4</ele><time>2026-04-11T11:14:30.06Z</time></trkpt><trkpt lat="44.9898767" lon="7.7465167"><ele>273.0</ele><time>2026-04-11T11:14:32.062Z</time></trkpt><trkpt lat="44.9899733" lon="7.7464217"><ele>273.4</ele><time>2026-04-11T11:14:34.063Z</time></trkpt><trkpt lat="44.9900717" lon="7.746335"><ele>273.8</ele><time>2026-04-11T11:14:36.061Z</time></trkpt><trkpt lat="44.990165" lon="7.7462717"><ele>274.2</ele><time>2026-04-11T11:14:38.062Z</time></trkpt><trkpt lat="44.99026" lon="7.746195"><ele>274.6</ele><time>2026-04-11T11:14:40.062Z</time></trkpt><trkpt lat="44.9903517" lon="7.7461267"><ele>275.0</ele><time>2026-04-11T11:14:42.062Z</time></trkpt><trkpt lat="44.99045" lon="7.7460733"><ele>275.4</ele><time>2026-04-11T11:14:44.062Z</time></trkpt><trkpt lat="44.99055" lon="7.7460133"><ele>275.8</ele><time>2026-04-11T11:14:46.063Z</time></trkpt><trkpt lat="44.9906483" lon="7.745945"><ele>276.2</ele><time>2026-04-11T11:14:48.06Z</time></trkpt><trkpt lat="44.9907533" lon="7.7458767"><ele>276.6</ele><time>2026-04-11T11:14:50.062Z</time></trkpt><trkpt lat="44.9908583" lon="7.7458083"><ele>277.0</ele><time>2026-04-11T11:14:52.061Z</time></trkpt><trkpt lat="44.9909633" lon="7.7457383"><ele>277.0</ele><time>2026-04-11T11:14:54.063Z</time></trkpt><trkpt lat="44.9910633" lon="7.7456633"><ele>277.0</ele><time>2026-04-11T11:14:56.063Z</time></trkpt><trkpt lat="44.9911583" lon="7.7455883"><ele>277.0</ele><time>2026-04-11T11:14:58.063Z</time></trkpt><trkpt lat="44.9912617" lon="7.74552"><ele>277.0</ele><time>2026-04-11T11:15:00.064Z</time></trkpt><trkpt lat="44.99137" lon="7.74544"><ele>277.0</ele><time>2026-04-11T11:15:02.063Z</time></trkpt><trkpt lat="44.9914283" lon="7.7453983"><ele>277.0</ele><time>2026-04-11T11:15:03.064Z</time></trkpt><trkpt lat="44.9914867" lon="7.7453567"><ele>277.0</ele><time>2026-04-11T11:15:04.063Z</time></trkpt><trkpt lat="44.9915467" lon="7.7453133"><ele>277.0</ele><time>2026-04-11T11:15:05.063Z</time></trkpt><trkpt lat="44.991605" lon="7.7452767"><ele>277.0</ele><time>2026-04-11T11:15:06.064Z</time></trkpt><trkpt lat="44.9916667" lon="7.74524"><ele>277.0</ele><time>2026-04-11T11:15:07.063Z</time></trkpt><trkpt lat="44.99173" lon="7.7452"><ele>277.0</ele><time>2026-04-11T11:15:08.064Z</time></trkpt><trkpt lat="44.99179" lon="7.7451583"><ele>277.5</ele><time>2026-04-11T11:15:09.066Z</time></trkpt><trkpt lat="44.9918517" lon="7.7451117"><ele>278.0</ele><time>2026-04-11T11:15:10.061Z</time></trkpt><trkpt lat="44.9919067" lon="7.7450617"><ele>278.5</ele><time>2026-04-11T11:15:11.062Z</time></trkpt><trkpt lat="44.991965" lon="7.7450117"><ele>279.0</ele><time>2026-04-11T11:15:12.062Z</time></trkpt><trkpt lat="44.992025" lon="7.7449633"><ele>279.5</ele><time>2026-04-11T11:15:13.063Z</time></trkpt><trkpt lat="44.9920817" lon="7.744915"><ele>280.0</ele><time>2026-04-11T11:15:14.062Z</time></trkpt><trkpt lat="44.9921883" lon="7.74483"><ele>280.0</ele><time>2026-04-11T11:15:16.062Z</time></trkpt><trkpt lat="44.992245" lon="7.7447883"><ele>280.0</ele><time>2026-04-11T11:15:17.062Z</time></trkpt><trkpt lat="44.9923033" lon="7.7447533"><ele>280.0</ele><time>2026-04-11T11:15:18.062Z</time></trkpt><trkpt lat="44.9923767" lon="7.74462"><ele>280.0</ele><time>2026-04-11T11:15:20.062Z</time></trkpt><trkpt lat="44.9923883" lon="7.74444"><ele>280.0</ele><time>2026-04-11T11:15:22.062Z</time></trkpt><trkpt lat="44.9923833" lon="7.74435"><ele>280.0</ele><time>2026-04-11T11:15:23.062Z</time></trkpt><trkpt lat="44.99238" lon="7.7442583"><ele>279.85714285714283</ele><time>2026-04-11T11:15:24.062Z</time></trkpt><trkpt lat="44.9923767" lon="7.7441667"><ele>279.7142857142857</ele><time>2026-04-11T11:15:25.062Z</time></trkpt><trkpt lat="44.9923717" lon="7.7440733"><ele>279.57142857142856</ele><time>2026-04-11T11:15:26.061Z</time></trkpt><trkpt lat="44.9923667" lon="7.7439817"><ele>279.42857142857144</ele><time>2026-04-11T11:15:27.063Z</time></trkpt><trkpt lat="44.9923583" lon="7.7438883"><ele>279.2857142857143</ele><time>2026-04-11T11:15:28.062Z</time></trkpt><trkpt lat="44.9923433" lon="7.7437967"><ele>279.1428571428571</ele><time>2026-04-11T11:15:29.061Z</time></trkpt><trkpt lat="44.9923333" lon="7.7437083"><ele>279.0</ele><time>2026-04-11T11:15:30.063Z</time></trkpt><trkpt lat="44.992325" lon="7.743615"><ele>279.4285714285714</ele><time>2026-04-11T11:15:31.061Z</time></trkpt><trkpt lat="44.9923183" lon="7.74352"><ele>279.85714285714283</ele><time>2026-04-11T11:15:32.063Z</time></trkpt><trkpt lat="44.9923117" lon="7.7434267"><ele>280.2857142857143</ele><time>2026-04-11T11:15:33.06Z</time></trkpt><trkpt lat="44.99231" lon="7.743335"><ele>280.71428571428567</ele><time>2026-04-11T11:15:34.06Z</time></trkpt><trkpt lat="44.9923083" lon="7.7432433"><ele>281.1428571428571</ele><time>2026-04-11T11:15:35.061Z</time></trkpt><trkpt lat="44.9923083" lon="7.7431517"><ele>281.57142857142856</ele><time>2026-04-11T11:15:36.062Z</time></trkpt><trkpt lat="44.99231" lon="7.74306"><ele>282.0</ele><time>2026-04-11T11:15:37.062Z</time></trkpt><trkpt lat="44.9923117" lon="7.74297"><ele>282.0</ele><time>2026-04-11T11:15:38.062Z</time></trkpt><trkpt lat="44.9923117" lon="7.7428083"><ele>282.0</ele><time>2026-04-11T11:15:40.063Z</time></trkpt><trkpt lat="44.9923267" lon="7.74266"><ele>282.0</ele><time>2026-04-11T11:15:42.062Z</time></trkpt><trkpt lat="44.9923467" lon="7.74255"><ele>282.0</ele><time>2026-04-11T11:15:44.061Z</time></trkpt><trkpt lat="44.9924333" lon="7.7425217"><ele>282.0</ele><time>2026-04-11T11:15:47.06Z</time></trkpt><trkpt lat="44.9925233" lon="7.7425783"><ele>282.2</ele><time>2026-04-11T11:15:49.063Z</time></trkpt><trkpt lat="44.9926167" lon="7.74263"><ele>282.4</ele><time>2026-04-11T11:15:51.062Z</time></trkpt><trkpt lat="44.9927083" lon="7.7426833"><ele>282.6</ele><time>2026-04-11T11:15:53.062Z</time></trkpt><trkpt lat="44.9928" lon="7.7427033"><ele>282.8</ele><time>2026-04-11T11:15:55.062Z</time></trkpt><trkpt lat="44.9928517" lon="7.7425867"><ele>283.0</ele><time>2026-04-11T11:15:57.062Z</time></trkpt><trkpt lat="44.9928617" lon="7.7424067"><ele>283.0</ele><time>2026-04-11T11:15:59.06Z</time></trkpt><trkpt lat="44.9928567" lon="7.7422433"><ele>283.0</ele><time>2026-04-11T11:16:01.062Z</time></trkpt><trkpt lat="44.9928683" lon="7.7420583"><ele>283.0</ele><time>2026-04-11T11:16:03.064Z</time></trkpt><trkpt lat="44.99288" lon="7.7419633"><ele>283.0</ele><time>2026-04-11T11:16:04.061Z</time></trkpt><trkpt lat="44.9928917" lon="7.7418683"><ele>283.0</ele><time>2026-04-11T11:16:05.06Z</time></trkpt><trkpt lat="44.992905" lon="7.7417717"><ele>282.5</ele><time>2026-04-11T11:16:06.06Z</time></trkpt><trkpt lat="44.9929183" lon="7.7416733"><ele>282.0</ele><time>2026-04-11T11:16:07.061Z</time></trkpt><trkpt lat="44.9929333" lon="7.7415683"><ele>281.5</ele><time>2026-04-11T11:16:08.062Z</time></trkpt><trkpt lat="44.9929483" lon="7.7414717"><ele>281.0</ele><time>2026-04-11T11:16:09.062Z</time></trkpt><trkpt lat="44.992975" lon="7.7413683"><ele>280.5</ele><time>2026-04-11T11:16:10.061Z</time></trkpt><trkpt lat="44.9930067" lon="7.7412567"><ele>280.0</ele><time>2026-04-11T11:16:11.061Z</time></trkpt><trkpt lat="44.9930367" lon="7.7411383"><ele>279.0</ele><time>2026-04-11T11:16:12.06Z</time></trkpt><trkpt lat="44.9930683" lon="7.74101"><ele>278.0</ele><time>2026-04-11T11:16:13.06Z</time></trkpt><trkpt lat="44.9931017" lon="7.7408833"><ele>277.0</ele><time>2026-04-11T11:16:14.061Z</time></trkpt><trkpt lat="44.9931433" lon="7.74075"><ele>276.0</ele><time>2026-04-11T11:16:15.062Z</time></trkpt><trkpt lat="44.993185" lon="7.7406067"><ele>275.0</ele><time>2026-04-11T11:16:16.061Z</time></trkpt><trkpt lat="44.9932183" lon="7.7404583"><ele>275.0</ele><time>2026-04-11T11:16:17.06Z</time></trkpt><trkpt lat="44.9932317" lon="7.7403"><ele>275.0</ele><time>2026-04-11T11:16:18.06Z</time></trkpt><trkpt lat="44.9932233" lon="7.74014"><ele>275.0</ele><time>2026-04-11T11:16:19.062Z</time></trkpt><trkpt lat="44.9931817" lon="7.7399883"><ele>275.0</ele><time>2026-04-11T11:16:20.061Z</time></trkpt><trkpt lat="44.9931083" lon="7.739855"><ele>274.25</ele><time>2026-04-11T11:16:21.061Z</time></trkpt><trkpt lat="44.9930183" lon="7.73973"><ele>273.5</ele><time>2026-04-11T11:16:22.061Z</time></trkpt><trkpt lat="44.992925" lon="7.7396033"><ele>272.75</ele><time>2026-04-11T11:16:23.061Z</time></trkpt><trkpt lat="44.992825" lon="7.7394783"><ele>272.0</ele><time>2026-04-11T11:16:24.06Z</time></trkpt><trkpt lat="44.99272" lon="7.7393583"><ele>271.5</ele><time>2026-04-11T11:16:25.062Z</time></trkpt><trkpt lat="44.9926133" lon="7.7392483"><ele>271.0</ele><time>2026-04-11T11:16:26.06Z</time></trkpt><trkpt lat="44.9925017" lon="7.7391517"><ele>270.5</ele><time>2026-04-11T11:16:27.063Z</time></trkpt><trkpt lat="44.9923833" lon="7.739075"><ele>270.0</ele><time>2026-04-11T11:16:28.059Z</time></trkpt><trkpt lat="44.9922683" lon="7.7390267"><ele>270.0</ele><time>2026-04-11T11:16:29.06Z</time></trkpt><trkpt lat="44.9921667" lon="7.7389983"><ele>270.0</ele><time>2026-04-11T11:16:30.063Z</time></trkpt><trkpt lat="44.9920783" lon="7.7389717"><ele>270.0</ele><time>2026-04-11T11:16:31.061Z</time></trkpt><trkpt lat="44.9920033" lon="7.7389483"><ele>270.0</ele><time>2026-04-11T11:16:32.061Z</time></trkpt><trkpt lat="44.99194" lon="7.7389283"><ele>270.0</ele><time>2026-04-11T11:16:33.062Z</time></trkpt><trkpt lat="44.99185" lon="7.7388883"><ele>270.0</ele><time>2026-04-11T11:16:35.059Z</time></trkpt><trkpt lat="44.991815" lon="7.7387933"><ele>270.0</ele><time>2026-04-11T11:16:37.06Z</time></trkpt><trkpt lat="44.9918433" lon="7.738705"><ele>270.0</ele><time>2026-04-11T11:16:39.064Z</time></trkpt><trkpt lat="44.9919033" lon="7.7386333"><ele>270.0</ele><time>2026-04-11T11:16:41.056Z</time></trkpt><trkpt lat="44.9919717" lon="7.7385667"><ele>270.0</ele><time>2026-04-11T11:16:43.061Z</time></trkpt><trkpt lat="44.9920283" lon="7.7384967"><ele>270.0</ele><time>2026-04-11T11:16:45.061Z</time></trkpt><trkpt lat="44.9920833" lon="7.73842"><ele>270.0</ele><time>2026-04-11T11:16:47.063Z</time></trkpt><trkpt lat="44.992145" lon="7.7383417"><ele>269.6666666666667</ele><time>2026-04-11T11:16:49.063Z</time></trkpt><trkpt lat="44.9922033" lon="7.738265"><ele>269.3333333333333</ele><time>2026-04-11T11:16:51.062Z</time></trkpt><trkpt lat="44.99227" lon="7.7381867"><ele>269.0</ele><time>2026-04-11T11:16:53.061Z</time></trkpt><trkpt lat="44.9923367" lon="7.7381067"><ele>268.66666666666663</ele><time>2026-04-11T11:16:55.06Z</time></trkpt><trkpt lat="44.9923983" lon="7.7380267"><ele>268.3333333333333</ele><time>2026-04-11T11:16:57.06Z</time></trkpt><trkpt lat="44.992445" lon="7.73793"><ele>268.0</ele><time>2026-04-11T11:16:59.061Z</time></trkpt><trkpt lat="44.99249" lon="7.737835"><ele>269.0</ele><time>2026-04-11T11:17:01.061Z</time></trkpt><trkpt lat="44.99254" lon="7.7377417"><ele>270.0</ele><time>2026-04-11T11:17:03.065Z</time></trkpt><trkpt lat="44.9925967" lon="7.7376517"><ele>271.0</ele><time>2026-04-11T11:17:05.063Z</time></trkpt><trkpt lat="44.99267" lon="7.7375733"><ele>272.0</ele><time>2026-04-11T11:17:07.065Z</time></trkpt><trkpt lat="44.9927483" lon="7.7375133"><ele>273.0</ele><time>2026-04-11T11:17:09.062Z</time></trkpt><trkpt lat="44.9928333" lon="7.73746"><ele>274.0</ele><time>2026-04-11T11:17:11.063Z</time></trkpt><trkpt lat="44.9929083" lon="7.737405"><ele>274.0</ele><time>2026-04-11T11:17:13.063Z</time></trkpt><trkpt lat="44.9929817" lon="7.73734"><ele>274.0</ele><time>2026-04-11T11:17:15.064Z</time></trkpt><trkpt lat="44.9930567" lon="7.7372667"><ele>274.0</ele><time>2026-04-11T11:17:17.063Z</time></trkpt><trkpt lat="44.993135" lon="7.7371983"><ele>274.0</ele><time>2026-04-11T11:17:19.063Z</time></trkpt><trkpt lat="44.993205" lon="7.7371167"><ele>274.0</ele><time>2026-04-11T11:17:21.063Z</time></trkpt><trkpt lat="44.9932717" lon="7.7370317"><ele>274.0</ele><time>2026-04-11T11:17:23.061Z</time></trkpt><trkpt lat="44.9933283" lon="7.7369433"><ele>274.0</ele><time>2026-04-11T11:17:25.063Z</time></trkpt><trkpt lat="44.9933833" lon="7.7368583"><ele>274.0</ele><time>2026-04-11T11:17:27.063Z</time></trkpt><trkpt lat="44.9934417" lon="7.7367683"><ele>274.0</ele><time>2026-04-11T11:17:29.06Z</time></trkpt><trkpt lat="44.993505" lon="7.7366883"><ele>274.0</ele><time>2026-04-11T11:17:31.064Z</time></trkpt><trkpt lat="44.9935667" lon="7.7366033"><ele>274.0</ele><time>2026-04-11T11:17:33.063Z</time></trkpt><trkpt lat="44.99363" lon="7.7365217"><ele>275.28571428571433</ele><time>2026-04-11T11:17:35.064Z</time></trkpt><trkpt lat="44.9936883" lon="7.736445"><ele>276.57142857142856</ele><time>2026-04-11T11:17:37.063Z</time></trkpt><trkpt lat="44.9937483" lon="7.7363733"><ele>277.8571428571429</ele><time>2026-04-11T11:17:39.069Z</time></trkpt><trkpt lat="44.9938083" lon="7.7363183"><ele>279.14285714285717</ele><time>2026-04-11T11:17:41.066Z</time></trkpt><trkpt lat="44.9938717" lon="7.736265"><ele>280.42857142857144</ele><time>2026-04-11T11:17:43.062Z</time></trkpt><trkpt lat="44.9939383" lon="7.7362317"><ele>281.7142857142857</ele><time>2026-04-11T11:17:45.064Z</time></trkpt><trkpt lat="44.9940083" lon="7.7362133"><ele>283.0</ele><time>2026-04-11T11:17:47.062Z</time></trkpt><trkpt lat="44.9940733" lon="7.7362017"><ele>283.0</ele><time>2026-04-11T11:17:49.063Z</time></trkpt><trkpt lat="44.9941383" lon="7.7362117"><ele>283.0</ele><time>2026-04-11T11:17:51.065Z</time></trkpt><trkpt lat="44.994225" lon="7.7362483"><ele>283.0</ele><time>2026-04-11T11:17:54.063Z</time></trkpt><trkpt lat="44.9943133" lon="7.7362917"><ele>283.0</ele><time>2026-04-11T11:17:57.062Z</time></trkpt><trkpt lat="44.9943767" lon="7.7363017"><ele>283.0</ele><time>2026-04-11T11:17:59.061Z</time></trkpt><trkpt lat="44.99444" lon="7.73627"><ele>283.0</ele><time>2026-04-11T11:18:01.064Z</time></trkpt><trkpt lat="44.9945017" lon="7.7362033"><ele>284.2</ele><time>2026-04-11T11:18:03.06Z</time></trkpt><trkpt lat="44.994565" lon="7.7361283"><ele>285.4</ele><time>2026-04-11T11:18:05.061Z</time></trkpt><trkpt lat="44.9946267" lon="7.73604"><ele>286.59999999999997</ele><time>2026-04-11T11:18:07.063Z</time></trkpt><trkpt lat="44.99469" lon="7.7359533"><ele>287.8</ele><time>2026-04-11T11:18:09.065Z</time></trkpt><trkpt lat="44.9947533" lon="7.735865"><ele>289.0</ele><time>2026-04-11T11:18:11.062Z</time></trkpt><trkpt lat="44.9948383" lon="7.7357733"><ele>289.0</ele><time>2026-04-11T11:18:13.065Z</time></trkpt><trkpt lat="44.9949233" lon="7.73568"><ele>289.0</ele><time>2026-04-11T11:18:15.065Z</time></trkpt><trkpt lat="44.995005" lon="7.7355817"><ele>289.0</ele><time>2026-04-11T11:18:17.064Z</time></trkpt><trkpt lat="44.9950817" lon="7.7354667"><ele>289.0</ele><time>2026-04-11T11:18:19.072Z</time></trkpt><trkpt lat="44.9951667" lon="7.7353267"><ele>288.14285714285717</ele><time>2026-04-11T11:18:21.063Z</time></trkpt><trkpt lat="44.99521" lon="7.735255"><ele>287.2857142857143</ele><time>2026-04-11T11:18:22.063Z</time></trkpt><trkpt lat="44.995255" lon="7.7351817"><ele>286.42857142857144</ele><time>2026-04-11T11:18:23.059Z</time></trkpt><trkpt lat="44.9952983" lon="7.7351083"><ele>285.57142857142856</ele><time>2026-04-11T11:18:24.062Z</time></trkpt><trkpt lat="44.99534" lon="7.7350333"><ele>284.7142857142857</ele><time>2026-04-11T11:18:25.062Z</time></trkpt><trkpt lat="44.995385" lon="7.7349583"><ele>283.8571428571429</ele><time>2026-04-11T11:18:26.058Z</time></trkpt><trkpt lat="44.9954283" lon="7.7348817"><ele>283.0</ele><time>2026-04-11T11:18:27.062Z</time></trkpt><trkpt lat="44.99547" lon="7.7348017"><ele>282.66666666666663</ele><time>2026-04-11T11:18:28.063Z</time></trkpt><trkpt lat="44.9955167" lon="7.73473"><ele>282.3333333333333</ele><time>2026-04-11T11:18:29.064Z</time></trkpt><trkpt lat="44.995565" lon="7.7346583"><ele>282.0</ele><time>2026-04-11T11:18:30.064Z</time></trkpt><trkpt lat="44.99566" lon="7.7345533"><ele>281.6666666666667</ele><time>2026-04-11T11:18:32.063Z</time></trkpt><trkpt lat="44.995775" lon="7.7345517"><ele>281.33333333333337</ele><time>2026-04-11T11:18:34.061Z</time></trkpt><trkpt lat="44.9958383" lon="7.7345717"><ele>281.0</ele><time>2026-04-11T11:18:35.061Z</time></trkpt><trkpt lat="44.9959" lon="7.7345917"><ele>282.0</ele><time>2026-04-11T11:18:36.06Z</time></trkpt><trkpt lat="44.9960217" lon="7.73464"><ele>283.0</ele><time>2026-04-11T11:18:38.06Z</time></trkpt><trkpt lat="44.9960833" lon="7.734665"><ele>284.0</ele><time>2026-04-11T11:18:39.061Z</time></trkpt><trkpt lat="44.996195" lon="7.7347133"><ele>285.0</ele><time>2026-04-11T11:18:41.06Z</time></trkpt><trkpt lat="44.9962833" lon="7.7347033"><ele>286.0</ele><time>2026-04-11T11:18:43.063Z</time></trkpt><trkpt lat="44.996335" lon="7.73461"><ele>286.0</ele><time>2026-04-11T11:18:45.061Z</time></trkpt><trkpt lat="44.9963717" lon="7.7344733"><ele>286.0</ele><time>2026-04-11T11:18:47.06Z</time></trkpt><trkpt lat="44.9964167" lon="7.7343267"><ele>286.0</ele><time>2026-04-11T11:18:49.062Z</time></trkpt><trkpt lat="44.9964667" lon="7.7341767"><ele>286.0</ele><time>2026-04-11T11:18:51.062Z</time></trkpt><trkpt lat="44.9965" lon="7.7340983"><ele>286.0</ele><time>2026-04-11T11:18:52.06Z</time></trkpt><trkpt lat="44.996535" lon="7.7340183"><ele>285.5</ele><time>2026-04-11T11:18:53.06Z</time></trkpt><trkpt lat="44.9965683" lon="7.7339317"><ele>285.0</ele><time>2026-04-11T11:18:54.059Z</time></trkpt><trkpt lat="44.9966017" lon="7.7338367"><ele>284.5</ele><time>2026-04-11T11:18:55.064Z</time></trkpt><trkpt lat="44.996635" lon="7.7337417"><ele>284.0</ele><time>2026-04-11T11:18:56.062Z</time></trkpt><trkpt lat="44.9966683" lon="7.7336467"><ele>283.5</ele><time>2026-04-11T11:18:57.062Z</time></trkpt><trkpt lat="44.9967067" lon="7.73355"><ele>283.0</ele><time>2026-04-11T11:18:58.063Z</time></trkpt><trkpt lat="44.9967467" lon="7.7334567"><ele>283.0</ele><time>2026-04-11T11:18:59.061Z</time></trkpt><trkpt lat="44.99679" lon="7.73336"><ele>283.0</ele><time>2026-04-11T11:19:00.064Z</time></trkpt><trkpt lat="44.9968333" lon="7.7332617"><ele>283.0</ele><time>2026-04-11T11:19:01.065Z</time></trkpt><trkpt lat="44.996875" lon="7.733165"><ele>283.0</ele><time>2026-04-11T11:19:02.063Z</time></trkpt><trkpt lat="44.9969167" lon="7.7330717"><ele>283.0</ele><time>2026-04-11T11:19:03.062Z</time></trkpt><trkpt lat="44.99696" lon="7.732985"><ele>283.0</ele><time>2026-04-11T11:19:04.062Z</time></trkpt><trkpt lat="44.9970083" lon="7.732915"><ele>283.0</ele><time>2026-04-11T11:19:05.061Z</time></trkpt><trkpt lat="44.99706" lon="7.7328583"><ele>283.0</ele><time>2026-04-11T11:19:06.062Z</time></trkpt><trkpt lat="44.9971767" lon="7.7328033"><ele>283.0</ele><time>2026-04-11T11:19:08.062Z</time></trkpt><trkpt lat="44.9972983" lon="7.73278"><ele>283.0</ele><time>2026-04-11T11:19:10.063Z</time></trkpt><trkpt lat="44.9974117" lon="7.7327683"><ele>283.0</ele><time>2026-04-11T11:19:12.061Z</time></trkpt><trkpt lat="44.9975167" lon="7.732745"><ele>283.4</ele><time>2026-04-11T11:19:14.063Z</time></trkpt><trkpt lat="44.9976233" lon="7.7327467"><ele>283.8</ele><time>2026-04-11T11:19:16.06Z</time></trkpt><trkpt lat="44.9977317" lon="7.7327717"><ele>284.2</ele><time>2026-04-11T11:19:18.063Z</time></trkpt><trkpt lat="44.9978383" lon="7.7328233"><ele>284.6</ele><time>2026-04-11T11:19:20.062Z</time></trkpt><trkpt lat="44.9979433" lon="7.7328883"><ele>285.0</ele><time>2026-04-11T11:19:22.061Z</time></trkpt><trkpt lat="44.9980467" lon="7.7329467"><ele>285.0</ele><time>2026-04-11T11:19:24.06Z</time></trkpt><trkpt lat="44.99816" lon="7.7329583"><ele>285.0</ele><time>2026-04-11T11:19:26.064Z</time></trkpt><trkpt lat="44.9982667" lon="7.7328933"><ele>285.0</ele><time>2026-04-11T11:19:28.062Z</time></trkpt><trkpt lat="44.9983783" lon="7.7328167"><ele>285.0</ele><time>2026-04-11T11:19:30.061Z</time></trkpt><trkpt lat="44.998435" lon="7.732775"><ele>285.0</ele><time>2026-04-11T11:19:31.061Z</time></trkpt><trkpt lat="44.99854" lon="7.7327067"><ele>286.0</ele><time>2026-04-11T11:19:33.062Z</time></trkpt><trkpt lat="44.9986183" lon="7.7326083"><ele>287.0</ele><time>2026-04-11T11:19:35.06Z</time></trkpt><trkpt lat="44.9986317" lon="7.73249"><ele>288.0</ele><time>2026-04-11T11:19:37.063Z</time></trkpt><trkpt lat="44.9985833" lon="7.73238"><ele>289.0</ele><time>2026-04-11T11:19:39.061Z</time></trkpt><trkpt lat="44.99853" lon="7.7322583"><ele>290.0</ele><time>2026-04-11T11:19:41.06Z</time></trkpt><trkpt lat="44.9984933" lon="7.7321317"><ele>290.0</ele><time>2026-04-11T11:19:43.061Z</time></trkpt><trkpt lat="44.9984683" lon="7.73201"><ele>290.0</ele><time>2026-04-11T11:19:45.058Z</time></trkpt><trkpt lat="44.998445" lon="7.731905"><ele>290.0</ele><time>2026-04-11T11:19:47.057Z</time></trkpt><trkpt lat="44.9984267" lon="7.7317967"><ele>290.0</ele><time>2026-04-11T11:19:49.057Z</time></trkpt><trkpt lat="44.9983983" lon="7.7317133"><ele>290.0</ele><time>2026-04-11T11:19:51.059Z</time></trkpt><trkpt lat="44.9983567" lon="7.7316083"><ele>290.0</ele><time>2026-04-11T11:19:54.058Z</time></trkpt><trkpt lat="44.9983233" lon="7.731495"><ele>289.83333333333337</ele><time>2026-04-11T11:19:57.058Z</time></trkpt><trkpt lat="44.99829" lon="7.7313783"><ele>289.6666666666667</ele><time>2026-04-11T11:20:00.054Z</time></trkpt><trkpt lat="44.99826" lon="7.7312667"><ele>289.5</ele><time>2026-04-11T11:20:03.068Z</time></trkpt><trkpt lat="44.998215" lon="7.731165"><ele>289.3333333333333</ele><time>2026-04-11T11:20:06.056Z</time></trkpt><trkpt lat="44.998175" lon="7.731085"><ele>289.16666666666663</ele><time>2026-04-11T11:20:08.06Z</time></trkpt><trkpt lat="44.9981317" lon="7.731"><ele>289.0</ele><time>2026-04-11T11:20:10.06Z</time></trkpt><trkpt lat="44.9980983" lon="7.7309083"><ele>289.8333333333333</ele><time>2026-04-11T11:20:12.06Z</time></trkpt><trkpt lat="44.9980583" lon="7.73081"><ele>290.66666666666663</ele><time>2026-04-11T11:20:14.062Z</time></trkpt><trkpt lat="44.9980383" lon="7.730705"><ele>291.5</ele><time>2026-04-11T11:20:16.062Z</time></trkpt><trkpt lat="44.9981017" lon="7.7306483"><ele>292.3333333333333</ele><time>2026-04-11T11:20:18.063Z</time></trkpt><trkpt lat="44.9981917" lon="7.7306483"><ele>293.1666666666667</ele><time>2026-04-11T11:20:20.061Z</time></trkpt><trkpt lat="44.9982917" lon="7.7306567"><ele>294.0</ele><time>2026-04-11T11:20:22.061Z</time></trkpt><trkpt lat="44.9983933" lon="7.73067"><ele>294.4</ele><time>2026-04-11T11:20:24.061Z</time></trkpt><trkpt lat="44.9984967" lon="7.73068"><ele>294.79999999999995</ele><time>2026-04-11T11:20:26.061Z</time></trkpt><trkpt lat="44.9985967" lon="7.7306767"><ele>295.20000000000005</ele><time>2026-04-11T11:20:28.062Z</time></trkpt><trkpt lat="44.9987067" lon="7.730675"><ele>295.6</ele><time>2026-04-11T11:20:30.061Z</time></trkpt><trkpt lat="44.9988183" lon="7.730665"><ele>296.0</ele><time>2026-04-11T11:20:32.062Z</time></trkpt><trkpt lat="44.9989167" lon="7.7306383"><ele>296.0</ele><time>2026-04-11T11:20:34.062Z</time></trkpt><trkpt lat="44.999015" lon="7.73059"><ele>296.0</ele><time>2026-04-11T11:20:36.061Z</time></trkpt><trkpt lat="44.999095" lon="7.7305367"><ele>296.0</ele><time>2026-04-11T11:20:38.063Z</time></trkpt><trkpt lat="44.999165" lon="7.7304867"><ele>296.0</ele><time>2026-04-11T11:20:40.061Z</time></trkpt><trkpt lat="44.9992067" lon="7.73042"><ele>296.0</ele><time>2026-04-11T11:20:42.06Z</time></trkpt><trkpt lat="44.9992117" lon="7.7303083"><ele>296.0</ele><time>2026-04-11T11:20:44.063Z</time></trkpt><trkpt lat="44.9992083" lon="7.7301917"><ele>297.40000000000003</ele><time>2026-04-11T11:20:46.063Z</time></trkpt><trkpt lat="44.9992183" lon="7.7300667"><ele>298.8</ele><time>2026-04-11T11:20:48.062Z</time></trkpt><trkpt lat="44.9992283" lon="7.7299367"><ele>300.20000000000005</ele><time>2026-04-11T11:20:50.061Z</time></trkpt><trkpt lat="44.99924" lon="7.7297917"><ele>301.6</ele><time>2026-04-11T11:20:52.061Z</time></trkpt><trkpt lat="44.9992533" lon="7.72961"><ele>303.0</ele><time>2026-04-11T11:20:54.062Z</time></trkpt><trkpt lat="44.9992617" lon="7.7295083"><ele>303.0</ele><time>2026-04-11T11:20:55.063Z</time></trkpt><trkpt lat="44.9992667" lon="7.7294017"><ele>303.0</ele><time>2026-04-11T11:20:56.062Z</time></trkpt><trkpt lat="44.99927" lon="7.7292967"><ele>303.0</ele><time>2026-04-11T11:20:57.06Z</time></trkpt><trkpt lat="44.99927" lon="7.7291933"><ele>303.0</ele><time>2026-04-11T11:20:58.063Z</time></trkpt><trkpt lat="44.9992717" lon="7.72908"><ele>303.0</ele><time>2026-04-11T11:20:59.057Z</time></trkpt><trkpt lat="44.9992617" lon="7.7289817"><ele>303.0</ele><time>2026-04-11T11:21:00.056Z</time></trkpt><trkpt lat="44.9992533" lon="7.7288883"><ele>303.0</ele><time>2026-04-11T11:21:01.056Z</time></trkpt><trkpt lat="44.9992417" lon="7.7287967"><ele>303.0</ele><time>2026-04-11T11:21:02.056Z</time></trkpt><trkpt lat="44.9992367" lon="7.7287017"><ele>303.0</ele><time>2026-04-11T11:21:03.058Z</time></trkpt><trkpt lat="44.999235" lon="7.7286033"><ele>303.0</ele><time>2026-04-11T11:21:04.055Z</time></trkpt><trkpt lat="44.9992533" lon="7.7284417"><ele>303.0</ele><time>2026-04-11T11:21:06.059Z</time></trkpt><trkpt lat="44.9992733" lon="7.7283183"><ele>303.0</ele><time>2026-04-11T11:21:08.058Z</time></trkpt><trkpt lat="44.9993083" lon="7.728155"><ele>302.5</ele><time>2026-04-11T11:21:10.057Z</time></trkpt><trkpt lat="44.9993383" lon="7.7280567"><ele>302.0</ele><time>2026-04-11T11:21:11.056Z</time></trkpt><trkpt lat="44.9993667" lon="7.72795"><ele>301.5</ele><time>2026-04-11T11:21:12.058Z</time></trkpt><trkpt lat="44.9994" lon="7.72783"><ele>301.0</ele><time>2026-04-11T11:21:13.06Z</time></trkpt><trkpt lat="44.9994267" lon="7.7277117"><ele>300.5</ele><time>2026-04-11T11:21:14.061Z</time></trkpt><trkpt lat="44.9994617" lon="7.7275933"><ele>300.0</ele><time>2026-04-11T11:21:15.062Z</time></trkpt><trkpt lat="44.9994933" lon="7.72749"><ele>298.57142857142856</ele><time>2026-04-11T11:21:16.062Z</time></trkpt><trkpt lat="44.9995217" lon="7.7273917"><ele>297.1428571428571</ele><time>2026-04-11T11:21:17.06Z</time></trkpt><trkpt lat="44.999555" lon="7.7273"><ele>295.7142857142857</ele><time>2026-04-11T11:21:18.062Z</time></trkpt><trkpt lat="44.99959" lon="7.7272117"><ele>294.2857142857143</ele><time>2026-04-11T11:21:19.063Z</time></trkpt><trkpt lat="44.999625" lon="7.727125"><ele>292.8571428571429</ele><time>2026-04-11T11:21:20.06Z</time></trkpt><trkpt lat="44.99966" lon="7.72703"><ele>291.42857142857144</ele><time>2026-04-11T11:21:21.062Z</time></trkpt><trkpt lat="44.9996967" lon="7.7269283"><ele>290.0</ele><time>2026-04-11T11:21:22.063Z</time></trkpt><trkpt lat="44.9997317" lon="7.7268233"><ele>287.5</ele><time>2026-04-11T11:21:23.06Z</time></trkpt><trkpt lat="44.9997617" lon="7.7267117"><ele>285.0</ele><time>2026-04-11T11:21:24.06Z</time></trkpt><trkpt lat="44.9997883" lon="7.7265983"><ele>282.5</ele><time>2026-04-11T11:21:25.061Z</time></trkpt><trkpt lat="44.9998067" lon="7.7264817"><ele>280.0</ele><time>2026-04-11T11:21:26.061Z</time></trkpt><trkpt lat="44.99982" lon="7.726355"><ele>277.5</ele><time>2026-04-11T11:21:27.064Z</time></trkpt><trkpt lat="44.9998183" lon="7.7262217"><ele>275.0</ele><time>2026-04-11T11:21:28.061Z</time></trkpt><trkpt lat="44.9997983" lon="7.7260783"><ele>273.0</ele><time>2026-04-11T11:21:29.06Z</time></trkpt><trkpt lat="44.999775" lon="7.7259317"><ele>271.0</ele><time>2026-04-11T11:21:30.063Z</time></trkpt><trkpt lat="44.9997517" lon="7.7257883"><ele>269.0</ele><time>2026-04-11T11:21:31.061Z</time></trkpt><trkpt lat="44.9997217" lon="7.725645"><ele>267.0</ele><time>2026-04-11T11:21:32.062Z</time></trkpt><trkpt lat="44.9996933" lon="7.7254983"><ele>265.0</ele><time>2026-04-11T11:21:33.062Z</time></trkpt><trkpt lat="44.9996583" lon="7.7253533"><ele>263.8</ele><time>2026-04-11T11:21:34.062Z</time></trkpt><trkpt lat="44.9996067" lon="7.725215"><ele>262.6</ele><time>2026-04-11T11:21:35.061Z</time></trkpt><trkpt lat="44.99955" lon="7.72508"><ele>261.4</ele><time>2026-04-11T11:21:36.061Z</time></trkpt><trkpt lat="44.9994867" lon="7.7249517"><ele>260.2</ele><time>2026-04-11T11:21:37.06Z</time></trkpt><trkpt lat="44.9994183" lon="7.7248267"><ele>259.0</ele><time>2026-04-11T11:21:38.06Z</time></trkpt><trkpt lat="44.99935" lon="7.7246983"><ele>259.0</ele><time>2026-04-11T11:21:39.061Z</time></trkpt><trkpt lat="44.9992883" lon="7.7245667"><ele>259.0</ele><time>2026-04-11T11:21:40.06Z</time></trkpt><trkpt lat="44.9992383" lon="7.72443"><ele>259.0</ele><time>2026-04-11T11:21:41.056Z</time></trkpt><trkpt lat="44.9991967" lon="7.7242883"><ele>259.0</ele><time>2026-04-11T11:21:42.057Z</time></trkpt><trkpt lat="44.9991633" lon="7.7241433"><ele>259.0</ele><time>2026-04-11T11:21:43.062Z</time></trkpt><trkpt lat="44.9991317" lon="7.724"><ele>258.4</ele><time>2026-04-11T11:21:44.059Z</time></trkpt><trkpt lat="44.9991017" lon="7.7238583"><ele>257.79999999999995</ele><time>2026-04-11T11:21:45.062Z</time></trkpt><trkpt lat="44.9990783" lon="7.72372"><ele>257.20000000000005</ele><time>2026-04-11T11:21:46.062Z</time></trkpt><trkpt lat="44.9990567" lon="7.72359"><ele>256.6</ele><time>2026-04-11T11:21:47.061Z</time></trkpt><trkpt lat="44.9990417" lon="7.7234617"><ele>256.0</ele><time>2026-04-11T11:21:48.062Z</time></trkpt><trkpt lat="44.9990333" lon="7.7233317"><ele>255.66666666666666</ele><time>2026-04-11T11:21:49.063Z</time></trkpt><trkpt lat="44.999035" lon="7.7232033"><ele>255.33333333333331</ele><time>2026-04-11T11:21:50.062Z</time></trkpt><trkpt lat="44.9990483" lon="7.7230783"><ele>255.0</ele><time>2026-04-11T11:21:51.063Z</time></trkpt><trkpt lat="44.9990683" lon="7.72296"><ele>254.66666666666669</ele><time>2026-04-11T11:21:52.057Z</time></trkpt><trkpt lat="44.9990883" lon="7.7228533"><ele>254.33333333333334</ele><time>2026-04-11T11:21:53.06Z</time></trkpt><trkpt lat="44.99911" lon="7.7227567"><ele>254.0</ele><time>2026-04-11T11:21:54.06Z</time></trkpt><trkpt lat="44.9991433" lon="7.7226"><ele>254.0</ele><time>2026-04-11T11:21:56.06Z</time></trkpt><trkpt lat="44.9991667" lon="7.7225"><ele>253.99999999999997</ele><time>2026-04-11T11:21:58.06Z</time></trkpt><trkpt lat="44.9992" lon="7.722395"><ele>253.99999999999997</ele><time>2026-04-11T11:22:01.061Z</time></trkpt><trkpt lat="44.99925" lon="7.722265"><ele>254.0</ele><time>2026-04-11T11:22:11.061Z</time></trkpt><trkpt lat="44.99924" lon="7.72212"><ele>254.0</ele><time>2026-04-11T11:22:14.06Z</time></trkpt><trkpt lat="44.99921" lon="7.72199"><ele>254.00000000000003</ele><time>2026-04-11T11:22:16.064Z</time></trkpt><trkpt lat="44.999185" lon="7.7218467"><ele>254.0</ele><time>2026-04-11T11:22:18.061Z</time></trkpt><trkpt lat="44.999165" lon="7.7216817"><ele>254.0</ele><time>2026-04-11T11:22:20.06Z</time></trkpt><trkpt lat="44.999155" lon="7.7215933"><ele>254.0</ele><time>2026-04-11T11:22:21.061Z</time></trkpt><trkpt lat="44.9991433" lon="7.7215"><ele>254.00000000000003</ele><time>2026-04-11T11:22:22.061Z</time></trkpt><trkpt lat="44.9991317" lon="7.7214067"><ele>254.0</ele><time>2026-04-11T11:22:23.059Z</time></trkpt><trkpt lat="44.999115" lon="7.721315"><ele>254.00000000000003</ele><time>2026-04-11T11:22:24.06Z</time></trkpt><trkpt lat="44.9991" lon="7.7212233"><ele>254.0</ele><time>2026-04-11T11:22:25.061Z</time></trkpt><trkpt lat="44.999075" lon="7.7210433"><ele>254.0</ele><time>2026-04-11T11:22:27.063Z</time></trkpt><trkpt lat="44.9990617" lon="7.72095"><ele>254.0</ele><time>2026-04-11T11:22:28.061Z</time></trkpt><trkpt lat="44.99905" lon="7.7208517"><ele>254.00000000000003</ele><time>2026-04-11T11:22:29.06Z</time></trkpt><trkpt lat="44.999035" lon="7.720755"><ele>254.0</ele><time>2026-04-11T11:22:30.062Z</time></trkpt><trkpt lat="44.99902" lon="7.7206583"><ele>253.66666666666669</ele><time>2026-04-11T11:22:31.062Z</time></trkpt><trkpt lat="44.9990017" lon="7.7205617"><ele>253.33333333333334</ele><time>2026-04-11T11:22:32.061Z</time></trkpt><trkpt lat="44.99898" lon="7.72046"><ele>253.0</ele><time>2026-04-11T11:22:33.061Z</time></trkpt><trkpt lat="44.998955" lon="7.72036"><ele>252.66666666666669</ele><time>2026-04-11T11:22:34.061Z</time></trkpt><trkpt lat="44.998925" lon="7.720265"><ele>252.33333333333334</ele><time>2026-04-11T11:22:35.061Z</time></trkpt><trkpt lat="44.9988967" lon="7.720185"><ele>252.0</ele><time>2026-04-11T11:22:36.062Z</time></trkpt><trkpt lat="44.9988583" lon="7.7200617"><ele>252.0</ele><time>2026-04-11T11:22:38.059Z</time></trkpt><trkpt lat="44.9988217" lon="7.7199717"><ele>252.0</ele><time>2026-04-11T11:22:41.062Z</time></trkpt><trkpt lat="44.9987667" lon="7.71986"><ele>252.0</ele><time>2026-04-11T11:22:45.059Z</time></trkpt><trkpt lat="44.9987217" lon="7.7197617"><ele>252.0</ele><time>2026-04-11T11:22:47.06Z</time></trkpt><trkpt lat="44.998665" lon="7.719645"><ele>252.0</ele><time>2026-04-11T11:22:49.062Z</time></trkpt><trkpt lat="44.998595" lon="7.7195217"><ele>251.8</ele><time>2026-04-11T11:22:51.061Z</time></trkpt><trkpt lat="44.9985233" lon="7.719385"><ele>251.6</ele><time>2026-04-11T11:22:53.059Z</time></trkpt><trkpt lat="44.998485" lon="7.7193083"><ele>251.40000000000003</ele><time>2026-04-11T11:22:54.059Z</time></trkpt><trkpt lat="44.9984117" lon="7.719165"><ele>251.20000000000002</ele><time>2026-04-11T11:22:56.06Z</time></trkpt><trkpt lat="44.9983333" lon="7.71903"><ele>251.0</ele><time>2026-04-11T11:22:58.061Z</time></trkpt><trkpt lat="44.9982567" lon="7.7188933"><ele>251.0</ele><time>2026-04-11T11:23:00.061Z</time></trkpt><trkpt lat="44.9981783" lon="7.718755"><ele>251.00000000000003</ele><time>2026-04-11T11:23:02.061Z</time></trkpt><trkpt lat="44.99814" lon="7.7186833"><ele>251.00000000000003</ele><time>2026-04-11T11:23:03.062Z</time></trkpt><trkpt lat="44.9980633" lon="7.7185517"><ele>251.0</ele><time>2026-04-11T11:23:05.061Z</time></trkpt><trkpt lat="44.9979883" lon="7.7184167"><ele>251.0</ele><time>2026-04-11T11:23:07.061Z</time></trkpt><trkpt lat="44.9979133" lon="7.7182883"><ele>252.0</ele><time>2026-04-11T11:23:09.062Z</time></trkpt><trkpt lat="44.9978317" lon="7.7181617"><ele>253.0</ele><time>2026-04-11T11:23:11.062Z</time></trkpt><trkpt lat="44.997735" lon="7.7180533"><ele>254.0</ele><time>2026-04-11T11:23:13.059Z</time></trkpt><trkpt lat="44.997625" lon="7.717985"><ele>255.0</ele><time>2026-04-11T11:23:15.062Z</time></trkpt><trkpt lat="44.997505" lon="7.717945"><ele>255.5</ele><time>2026-04-11T11:23:17.061Z</time></trkpt><trkpt lat="44.9974417" lon="7.7179267"><ele>256.0</ele><time>2026-04-11T11:23:18.061Z</time></trkpt><trkpt lat="44.9973783" lon="7.71791"><ele>256.5</ele><time>2026-04-11T11:23:19.06Z</time></trkpt><trkpt lat="44.9972567" lon="7.7178633"><ele>257.0</ele><time>2026-04-11T11:23:21.062Z</time></trkpt><trkpt lat="44.99714" lon="7.7178017"><ele>257.5</ele><time>2026-04-11T11:23:23.06Z</time></trkpt><trkpt lat="44.99708" lon="7.7177667"><ele>258.0</ele><time>2026-04-11T11:23:24.062Z</time></trkpt><trkpt lat="44.9970217" lon="7.7177283"><ele>257.99999999999994</ele><time>2026-04-11T11:23:25.059Z</time></trkpt><trkpt lat="44.996965" lon="7.7176817"><ele>258.0</ele><time>2026-04-11T11:23:26.061Z</time></trkpt><trkpt lat="44.99691" lon="7.717635"><ele>258.0</ele><time>2026-04-11T11:23:27.059Z</time></trkpt><trkpt lat="44.9968533" lon="7.7175867"><ele>258.0</ele><time>2026-04-11T11:23:28.061Z</time></trkpt><trkpt lat="44.9967983" lon="7.717535"><ele>258.0</ele><time>2026-04-11T11:23:29.061Z</time></trkpt><trkpt lat="44.9967433" lon="7.7174783"><ele>257.99999999999994</ele><time>2026-04-11T11:23:30.06Z</time></trkpt><trkpt lat="44.9966917" lon="7.71742"><ele>258.0</ele><time>2026-04-11T11:23:31.061Z</time></trkpt><trkpt lat="44.9966417" lon="7.7173533"><ele>257.1428571428571</ele><time>2026-04-11T11:23:32.059Z</time></trkpt><trkpt lat="44.996595" lon="7.7172867"><ele>256.2857142857143</ele><time>2026-04-11T11:23:33.065Z</time></trkpt><trkpt lat="44.9965483" lon="7.7172233"><ele>255.42857142857142</ele><time>2026-04-11T11:23:34.062Z</time></trkpt><trkpt lat="44.9965033" lon="7.7171583"><ele>254.57142857142856</ele><time>2026-04-11T11:23:35.06Z</time></trkpt><trkpt lat="44.9964567" lon="7.7170967"><ele>253.71428571428572</ele><time>2026-04-11T11:23:36.059Z</time></trkpt><trkpt lat="44.9964083" lon="7.71703"><ele>252.85714285714286</ele><time>2026-04-11T11:23:37.06Z</time></trkpt><trkpt lat="44.9963617" lon="7.71696"><ele>252.0</ele><time>2026-04-11T11:23:38.061Z</time></trkpt><trkpt lat="44.996315" lon="7.7168867"><ele>252.0</ele><time>2026-04-11T11:23:39.061Z</time></trkpt><trkpt lat="44.996265" lon="7.7168083"><ele>252.0</ele><time>2026-04-11T11:23:40.061Z</time></trkpt><trkpt lat="44.9962167" lon="7.7167267"><ele>252.0</ele><time>2026-04-11T11:23:41.06Z</time></trkpt><trkpt lat="44.99617" lon="7.7166467"><ele>252.0</ele><time>2026-04-11T11:23:42.062Z</time></trkpt><trkpt lat="44.996125" lon="7.716565"><ele>252.0</ele><time>2026-04-11T11:23:43.06Z</time></trkpt><trkpt lat="44.9960767" lon="7.7164817"><ele>252.0</ele><time>2026-04-11T11:23:44.06Z</time></trkpt><trkpt lat="44.9960283" lon="7.7163983"><ele>252.0</ele><time>2026-04-11T11:23:45.062Z</time></trkpt><trkpt lat="44.99598" lon="7.7163167"><ele>252.0</ele><time>2026-04-11T11:23:46.062Z</time></trkpt><trkpt lat="44.9959333" lon="7.7162333"><ele>252.0</ele><time>2026-04-11T11:23:47.061Z</time></trkpt><trkpt lat="44.9958833" lon="7.71615"><ele>252.0</ele><time>2026-04-11T11:23:48.06Z</time></trkpt><trkpt lat="44.9958383" lon="7.7160667"><ele>252.0</ele><time>2026-04-11T11:23:49.061Z</time></trkpt><trkpt lat="44.9957967" lon="7.7159767"><ele>252.0</ele><time>2026-04-11T11:23:50.061Z</time></trkpt><trkpt lat="44.9957617" lon="7.715885"><ele>252.0</ele><time>2026-04-11T11:23:51.061Z</time></trkpt><trkpt lat="44.9957367" lon="7.7157817"><ele>251.33333333333334</ele><time>2026-04-11T11:23:52.062Z</time></trkpt><trkpt lat="44.9957167" lon="7.71568"><ele>250.66666666666669</ele><time>2026-04-11T11:23:53.061Z</time></trkpt><trkpt lat="44.995705" lon="7.7155767"><ele>250.0</ele><time>2026-04-11T11:23:54.06Z</time></trkpt><trkpt lat="44.9957083" lon="7.71547"><ele>249.33333333333334</ele><time>2026-04-11T11:23:55.06Z</time></trkpt><trkpt lat="44.99573" lon="7.71536"><ele>248.66666666666669</ele><time>2026-04-11T11:23:56.06Z</time></trkpt><trkpt lat="44.9957533" lon="7.7152567"><ele>248.0</ele><time>2026-04-11T11:23:57.063Z</time></trkpt><trkpt lat="44.9957817" lon="7.7151567"><ele>247.83333333333334</ele><time>2026-04-11T11:23:58.061Z</time></trkpt><trkpt lat="44.9958033" lon="7.715055"><ele>247.66666666666669</ele><time>2026-04-11T11:23:59.059Z</time></trkpt><trkpt lat="44.995825" lon="7.71495"><ele>247.5</ele><time>2026-04-11T11:24:00.059Z</time></trkpt><trkpt lat="44.99585" lon="7.7148483"><ele>247.33333333333331</ele><time>2026-04-11T11:24:01.061Z</time></trkpt><trkpt lat="44.995875" lon="7.7147483"><ele>247.16666666666666</ele><time>2026-04-11T11:24:02.061Z</time></trkpt><trkpt lat="44.9958983" lon="7.71465"><ele>247.0</ele><time>2026-04-11T11:24:03.062Z</time></trkpt><trkpt lat="44.9959233" lon="7.714545"><ele>248.16666666666666</ele><time>2026-04-11T11:24:04.06Z</time></trkpt><trkpt lat="44.9959533" lon="7.714435"><ele>249.33333333333331</ele><time>2026-04-11T11:24:05.06Z</time></trkpt><trkpt lat="44.9959883" lon="7.714325"><ele>250.5</ele><time>2026-04-11T11:24:06.061Z</time></trkpt><trkpt lat="44.99603" lon="7.71422"><ele>251.66666666666669</ele><time>2026-04-11T11:24:07.063Z</time></trkpt><trkpt lat="44.99607" lon="7.7141183"><ele>252.83333333333334</ele><time>2026-04-11T11:24:08.06Z</time></trkpt><trkpt lat="44.9961067" lon="7.7140167"><ele>254.0</ele><time>2026-04-11T11:24:09.062Z</time></trkpt><trkpt lat="44.9961367" lon="7.713915"><ele>254.00000000000003</ele><time>2026-04-11T11:24:10.062Z</time></trkpt><trkpt lat="44.9961667" lon="7.7138133"><ele>254.0</ele><time>2026-04-11T11:24:11.06Z</time></trkpt><trkpt lat="44.9962" lon="7.7137167"><ele>254.0</ele><time>2026-04-11T11:24:12.061Z</time></trkpt><trkpt lat="44.9962333" lon="7.71362"><ele>254.0</ele><time>2026-04-11T11:24:13.059Z</time></trkpt><trkpt lat="44.9962617" lon="7.7135233"><ele>254.00000000000003</ele><time>2026-04-11T11:24:14.06Z</time></trkpt><trkpt lat="44.9962883" lon="7.7134267"><ele>254.0</ele><time>2026-04-11T11:24:15.062Z</time></trkpt><trkpt lat="44.996315" lon="7.71333"><ele>253.71428571428572</ele><time>2026-04-11T11:24:16.06Z</time></trkpt><trkpt lat="44.9963417" lon="7.713235"><ele>253.42857142857142</ele><time>2026-04-11T11:24:17.059Z</time></trkpt><trkpt lat="44.9963717" lon="7.71314"><ele>253.14285714285714</ele><time>2026-04-11T11:24:18.059Z</time></trkpt><trkpt lat="44.9964" lon="7.713045"><ele>252.85714285714286</ele><time>2026-04-11T11:24:19.062Z</time></trkpt><trkpt lat="44.9964267" lon="7.7129467"><ele>252.57142857142856</ele><time>2026-04-11T11:24:20.058Z</time></trkpt><trkpt lat="44.9964567" lon="7.71285"><ele>252.28571428571428</ele><time>2026-04-11T11:24:21.062Z</time></trkpt><trkpt lat="44.9964867" lon="7.7127517"><ele>252.0</ele><time>2026-04-11T11:24:22.062Z</time></trkpt><trkpt lat="44.9965133" lon="7.712655"><ele>252.14285714285714</ele><time>2026-04-11T11:24:23.06Z</time></trkpt><trkpt lat="44.99654" lon="7.7125583"><ele>252.28571428571428</ele><time>2026-04-11T11:24:24.06Z</time></trkpt><trkpt lat="44.99657" lon="7.7124633"><ele>252.42857142857144</ele><time>2026-04-11T11:24:25.062Z</time></trkpt><trkpt lat="44.9965967" lon="7.71237"><ele>252.57142857142858</ele><time>2026-04-11T11:24:26.06Z</time></trkpt><trkpt lat="44.9966317" lon="7.7122733"><ele>252.71428571428572</ele><time>2026-04-11T11:24:27.06Z</time></trkpt><trkpt lat="44.99666" lon="7.7121833"><ele>252.8571428571429</ele><time>2026-04-11T11:24:28.059Z</time></trkpt><trkpt lat="44.99669" lon="7.7120933"><ele>253.00000000000003</ele><time>2026-04-11T11:24:29.06Z</time></trkpt><trkpt lat="44.9967183" lon="7.712005"><ele>252.99999999999997</ele><time>2026-04-11T11:24:30.061Z</time></trkpt><trkpt lat="44.9967467" lon="7.71192"><ele>253.0</ele><time>2026-04-11T11:24:31.061Z</time></trkpt><trkpt lat="44.9967783" lon="7.711835"><ele>253.0</ele><time>2026-04-11T11:24:32.061Z</time></trkpt><trkpt lat="44.99681" lon="7.711755"><ele>253.0</ele><time>2026-04-11T11:24:33.059Z</time></trkpt><trkpt lat="44.9968767" lon="7.7116067"><ele>252.99999999999997</ele><time>2026-04-11T11:24:35.059Z</time></trkpt><trkpt lat="44.99694" lon="7.7114767"><ele>253.0</ele><time>2026-04-11T11:24:37.06Z</time></trkpt><trkpt lat="44.9969917" lon="7.711355"><ele>252.33333333333331</ele><time>2026-04-11T11:24:39.06Z</time></trkpt><trkpt lat="44.9970317" lon="7.711245"><ele>251.66666666666666</ele><time>2026-04-11T11:24:41.062Z</time></trkpt><trkpt lat="44.9970733" lon="7.71115"><ele>251.0</ele><time>2026-04-11T11:24:43.06Z</time></trkpt><trkpt lat="44.9970983" lon="7.711045"><ele>250.33333333333331</ele><time>2026-04-11T11:24:45.061Z</time></trkpt><trkpt lat="44.9971217" lon="7.7109517"><ele>249.66666666666666</ele><time>2026-04-11T11:24:47.06Z</time></trkpt><trkpt lat="44.997165" lon="7.710855"><ele>249.0</ele><time>2026-04-11T11:24:50.059Z</time></trkpt><trkpt lat="44.9971817" lon="7.710735"><ele>249.0</ele><time>2026-04-11T11:25:08.061Z</time></trkpt><trkpt lat="44.9972" lon="7.7106133"><ele>249.0</ele><time>2026-04-11T11:25:10.062Z</time></trkpt><trkpt lat="44.9972267" lon="7.710465"><ele>249.0</ele><time>2026-04-11T11:25:12.062Z</time></trkpt><trkpt lat="44.9972617" lon="7.7103017"><ele>249.0</ele><time>2026-04-11T11:25:14.061Z</time></trkpt><trkpt lat="44.99728" lon="7.710215"><ele>249.0</ele><time>2026-04-11T11:25:15.061Z</time></trkpt><trkpt lat="44.9973083" lon="7.7101333"><ele>249.0</ele><time>2026-04-11T11:25:16.061Z</time></trkpt><trkpt lat="44.9973467" lon="7.7100483"><ele>248.85714285714283</ele><time>2026-04-11T11:25:17.06Z</time></trkpt><trkpt lat="44.99739" lon="7.7099583"><ele>248.7142857142857</ele><time>2026-04-11T11:25:18.061Z</time></trkpt><trkpt lat="44.99743" lon="7.70987"><ele>248.57142857142856</ele><time>2026-04-11T11:25:19.06Z</time></trkpt><trkpt lat="44.9974667" lon="7.7097817"><ele>248.42857142857144</ele><time>2026-04-11T11:25:20.061Z</time></trkpt><trkpt lat="44.997505" lon="7.7096917"><ele>248.2857142857143</ele><time>2026-04-11T11:25:21.062Z</time></trkpt><trkpt lat="44.9975417" lon="7.7096033"><ele>248.14285714285717</ele><time>2026-04-11T11:25:22.059Z</time></trkpt><trkpt lat="44.99758" lon="7.709515"><ele>248.0</ele><time>2026-04-11T11:25:23.06Z</time></trkpt><trkpt lat="44.99762" lon="7.7094233"><ele>247.85714285714286</ele><time>2026-04-11T11:25:24.061Z</time></trkpt><trkpt lat="44.9976583" lon="7.7093333"><ele>247.71428571428572</ele><time>2026-04-11T11:25:25.061Z</time></trkpt><trkpt lat="44.997695" lon="7.7092433"><ele>247.57142857142858</ele><time>2026-04-11T11:25:26.059Z</time></trkpt><trkpt lat="44.9977333" lon="7.709155"><ele>247.42857142857144</ele><time>2026-04-11T11:25:27.062Z</time></trkpt><trkpt lat="44.9977733" lon="7.7090683"><ele>247.28571428571428</ele><time>2026-04-11T11:25:28.06Z</time></trkpt><trkpt lat="44.9978133" lon="7.7089783"><ele>247.14285714285717</ele><time>2026-04-11T11:25:29.06Z</time></trkpt><trkpt lat="44.997855" lon="7.7088883"><ele>247.0</ele><time>2026-04-11T11:25:30.061Z</time></trkpt><trkpt lat="44.9978983" lon="7.708795"><ele>246.99999999999997</ele><time>2026-04-11T11:25:31.06Z</time></trkpt><trkpt lat="44.9979383" lon="7.7086983"><ele>247.0</ele><time>2026-04-11T11:25:32.056Z</time></trkpt><trkpt lat="44.9979783" lon="7.7086017"><ele>247.0</ele><time>2026-04-11T11:25:33.061Z</time></trkpt><trkpt lat="44.9980167" lon="7.7085033"><ele>247.0</ele><time>2026-04-11T11:25:34.059Z</time></trkpt><trkpt lat="44.9980583" lon="7.708405"><ele>246.99999999999997</ele><time>2026-04-11T11:25:35.06Z</time></trkpt><trkpt lat="44.9981017" lon="7.7083083"><ele>247.0</ele><time>2026-04-11T11:25:36.061Z</time></trkpt><trkpt lat="44.998145" lon="7.70821"><ele>246.49999999999997</ele><time>2026-04-11T11:25:37.061Z</time></trkpt><trkpt lat="44.9981867" lon="7.7081133"><ele>246.0</ele><time>2026-04-11T11:25:38.06Z</time></trkpt><trkpt lat="44.9982283" lon="7.708015"><ele>245.5</ele><time>2026-04-11T11:25:39.06Z</time></trkpt><trkpt lat="44.9982683" lon="7.7079167"><ele>245.0</ele><time>2026-04-11T11:25:40.059Z</time></trkpt><trkpt lat="44.9983133" lon="7.70781"><ele>244.49999999999997</ele><time>2026-04-11T11:25:41.058Z</time></trkpt><trkpt lat="44.9983517" lon="7.7077083"><ele>244.0</ele><time>2026-04-11T11:25:42.061Z</time></trkpt><trkpt lat="44.9983917" lon="7.7076067"><ele>243.83333333333331</ele><time>2026-04-11T11:25:43.062Z</time></trkpt><trkpt lat="44.99843" lon="7.7075033"><ele>243.66666666666666</ele><time>2026-04-11T11:25:44.06Z</time></trkpt><trkpt lat="44.998475" lon="7.7074"><ele>243.5</ele><time>2026-04-11T11:25:45.063Z</time></trkpt><trkpt lat="44.99852" lon="7.7072983"><ele>243.33333333333331</ele><time>2026-04-11T11:25:46.06Z</time></trkpt><trkpt lat="44.998565" lon="7.7072017"><ele>243.16666666666666</ele><time>2026-04-11T11:25:47.059Z</time></trkpt><trkpt lat="44.9986133" lon="7.7071033"><ele>243.0</ele><time>2026-04-11T11:25:48.059Z</time></trkpt><trkpt lat="44.9986633" lon="7.707005"><ele>242.0</ele><time>2026-04-11T11:25:49.059Z</time></trkpt><trkpt lat="44.99871" lon="7.7069017"><ele>241.0</ele><time>2026-04-11T11:25:50.06Z</time></trkpt><trkpt lat="44.9987583" lon="7.7067983"><ele>240.0</ele><time>2026-04-11T11:25:51.062Z</time></trkpt><trkpt lat="44.9988083" lon="7.7066917"><ele>239.0</ele><time>2026-04-11T11:25:52.059Z</time></trkpt><trkpt lat="44.9988583" lon="7.7065883"><ele>238.0</ele><time>2026-04-11T11:25:53.06Z</time></trkpt><trkpt lat="44.998905" lon="7.7064833"><ele>237.0</ele><time>2026-04-11T11:25:54.058Z</time></trkpt><trkpt lat="44.9989517" lon="7.706375"><ele>237.0</ele><time>2026-04-11T11:25:55.059Z</time></trkpt><trkpt lat="44.9990017" lon="7.7062667"><ele>237.0</ele><time>2026-04-11T11:25:56.061Z</time></trkpt><trkpt lat="44.9990467" lon="7.7061583"><ele>237.0</ele><time>2026-04-11T11:25:57.061Z</time></trkpt><trkpt lat="44.999095" lon="7.7060533"><ele>237.0</ele><time>2026-04-11T11:25:58.058Z</time></trkpt><trkpt lat="44.9991433" lon="7.7059433"><ele>237.0</ele><time>2026-04-11T11:25:59.06Z</time></trkpt><trkpt lat="44.9991867" lon="7.7058333"><ele>238.0</ele><time>2026-04-11T11:26:00.059Z</time></trkpt><trkpt lat="44.99923" lon="7.7057267"><ele>239.0</ele><time>2026-04-11T11:26:01.061Z</time></trkpt><trkpt lat="44.9992733" lon="7.7056183"><ele>240.0</ele><time>2026-04-11T11:26:02.061Z</time></trkpt><trkpt lat="44.9993133" lon="7.70551"><ele>241.0</ele><time>2026-04-11T11:26:03.061Z</time></trkpt><trkpt lat="44.99935" lon="7.7054017"><ele>242.0</ele><time>2026-04-11T11:26:04.061Z</time></trkpt><trkpt lat="44.9993833" lon="7.705295"><ele>243.0</ele><time>2026-04-11T11:26:05.06Z</time></trkpt><trkpt lat="44.99941" lon="7.7051933"><ele>243.0</ele><time>2026-04-11T11:26:06.061Z</time></trkpt><trkpt lat="44.9994267" lon="7.7050917"><ele>243.0</ele><time>2026-04-11T11:26:07.06Z</time></trkpt><trkpt lat="44.9994433" lon="7.7049867"><ele>243.0</ele><time>2026-04-11T11:26:08.061Z</time></trkpt><trkpt lat="44.9994633" lon="7.70488"><ele>243.0</ele><time>2026-04-11T11:26:09.06Z</time></trkpt><trkpt lat="44.999485" lon="7.7047717"><ele>243.0</ele><time>2026-04-11T11:26:10.061Z</time></trkpt><trkpt lat="44.999505" lon="7.7046617"><ele>243.0</ele><time>2026-04-11T11:26:11.06Z</time></trkpt><trkpt lat="44.99953" lon="7.7045533"><ele>243.0</ele><time>2026-04-11T11:26:12.061Z</time></trkpt><trkpt lat="44.999555" lon="7.7044467"><ele>243.0</ele><time>2026-04-11T11:26:13.061Z</time></trkpt><trkpt lat="44.999585" lon="7.70434"><ele>243.0</ele><time>2026-04-11T11:26:14.059Z</time></trkpt><trkpt lat="44.999605" lon="7.70423"><ele>243.0</ele><time>2026-04-11T11:26:15.062Z</time></trkpt><trkpt lat="44.9996267" lon="7.70412"><ele>243.0</ele><time>2026-04-11T11:26:16.061Z</time></trkpt><trkpt lat="44.9996517" lon="7.7040117"><ele>243.0</ele><time>2026-04-11T11:26:17.058Z</time></trkpt><trkpt lat="44.9996767" lon="7.703905"><ele>243.16666666666666</ele><time>2026-04-11T11:26:18.059Z</time></trkpt><trkpt lat="44.9997083" lon="7.7037933"><ele>243.33333333333331</ele><time>2026-04-11T11:26:19.06Z</time></trkpt><trkpt lat="44.9997417" lon="7.7036867"><ele>243.5</ele><time>2026-04-11T11:26:20.062Z</time></trkpt><trkpt lat="44.999775" lon="7.7035783"><ele>243.66666666666666</ele><time>2026-04-11T11:26:21.061Z</time></trkpt><trkpt lat="44.999805" lon="7.7034733"><ele>243.83333333333331</ele><time>2026-04-11T11:26:22.061Z</time></trkpt><trkpt lat="44.999835" lon="7.7033717"><ele>244.0</ele><time>2026-04-11T11:26:23.061Z</time></trkpt><trkpt lat="44.9998667" lon="7.7032683"><ele>243.66666666666666</ele><time>2026-04-11T11:26:24.061Z</time></trkpt><trkpt lat="44.9998983" lon="7.7031683"><ele>243.33333333333331</ele><time>2026-04-11T11:26:25.061Z</time></trkpt><trkpt lat="44.99993" lon="7.7030667"><ele>243.0</ele><time>2026-04-11T11:26:26.06Z</time></trkpt><trkpt lat="44.999965" lon="7.7029617"><ele>242.66666666666669</ele><time>2026-04-11T11:26:27.054Z</time></trkpt><trkpt lat="45.0000017" lon="7.70286"><ele>242.33333333333334</ele><time>2026-04-11T11:26:28.061Z</time></trkpt><trkpt lat="45.000045" lon="7.7027633"><ele>242.0</ele><time>2026-04-11T11:26:29.06Z</time></trkpt><trkpt lat="45.00009" lon="7.7026683"><ele>242.00000000000003</ele><time>2026-04-11T11:26:30.063Z</time></trkpt><trkpt lat="45.0001333" lon="7.7025717"><ele>242.0</ele><time>2026-04-11T11:26:31.061Z</time></trkpt><trkpt lat="45.000175" lon="7.702475"><ele>242.0</ele><time>2026-04-11T11:26:32.061Z</time></trkpt><trkpt lat="45.000215" lon="7.7023783"><ele>242.0</ele><time>2026-04-11T11:26:33.062Z</time></trkpt><trkpt lat="45.0002583" lon="7.702285"><ele>242.00000000000003</ele><time>2026-04-11T11:26:34.061Z</time></trkpt><trkpt lat="45.000295" lon="7.702195"><ele>242.0</ele><time>2026-04-11T11:26:35.062Z</time></trkpt><trkpt lat="45.000335" lon="7.7021033"><ele>242.0</ele><time>2026-04-11T11:26:36.062Z</time></trkpt><trkpt lat="45.0003717" lon="7.7020167"><ele>241.99999999999997</ele><time>2026-04-11T11:26:37.061Z</time></trkpt><trkpt lat="45.0004117" lon="7.701925"><ele>242.0</ele><time>2026-04-11T11:26:38.06Z</time></trkpt><trkpt lat="45.00045" lon="7.7018333"><ele>242.0</ele><time>2026-04-11T11:26:39.062Z</time></trkpt><trkpt lat="45.0004917" lon="7.7017433"><ele>241.99999999999997</ele><time>2026-04-11T11:26:40.06Z</time></trkpt><trkpt lat="45.00053" lon="7.7016517"><ele>242.0</ele><time>2026-04-11T11:26:41.062Z</time></trkpt><trkpt lat="45.000565" lon="7.7015633"><ele>242.0</ele><time>2026-04-11T11:26:42.062Z</time></trkpt><trkpt lat="45.0006033" lon="7.7014733"><ele>242.0</ele><time>2026-04-11T11:26:43.064Z</time></trkpt><trkpt lat="45.00064" lon="7.701385"><ele>241.99999999999997</ele><time>2026-04-11T11:26:44.062Z</time></trkpt><trkpt lat="45.0006767" lon="7.701295"><ele>242.0</ele><time>2026-04-11T11:26:45.061Z</time></trkpt><trkpt lat="45.000715" lon="7.7012033"><ele>242.0</ele><time>2026-04-11T11:26:46.061Z</time></trkpt><trkpt lat="45.000755" lon="7.701115"><ele>241.99999999999997</ele><time>2026-04-11T11:26:47.061Z</time></trkpt><trkpt lat="45.00079" lon="7.7010267"><ele>242.0</ele><time>2026-04-11T11:26:48.06Z</time></trkpt><trkpt lat="45.0008283" lon="7.7009383"><ele>242.0</ele><time>2026-04-11T11:26:49.061Z</time></trkpt><trkpt lat="45.0008667" lon="7.7008467"><ele>242.16666666666669</ele><time>2026-04-11T11:26:50.06Z</time></trkpt><trkpt lat="45.0009117" lon="7.7007433"><ele>242.33333333333334</ele><time>2026-04-11T11:26:51.063Z</time></trkpt><trkpt lat="45.0009467" lon="7.7006367"><ele>242.5</ele><time>2026-04-11T11:26:52.061Z</time></trkpt><trkpt lat="45.00097" lon="7.7005267"><ele>242.66666666666669</ele><time>2026-04-11T11:26:53.062Z</time></trkpt><trkpt lat="45.00099" lon="7.7004167"><ele>242.83333333333334</ele><time>2026-04-11T11:26:54.064Z</time></trkpt><trkpt lat="45.0010083" lon="7.700305"><ele>243.0</ele><time>2026-04-11T11:26:55.062Z</time></trkpt><trkpt lat="45.0010233" lon="7.7001933"><ele>243.0</ele><time>2026-04-11T11:26:56.061Z</time></trkpt><trkpt lat="45.0010317" lon="7.7000783"><ele>243.0</ele><time>2026-04-11T11:26:57.064Z</time></trkpt><trkpt lat="45.0010417" lon="7.6999767"><ele>243.0</ele><time>2026-04-11T11:26:58.06Z</time></trkpt><trkpt lat="45.0010483" lon="7.69988"><ele>243.0</ele><time>2026-04-11T11:26:59.063Z</time></trkpt><trkpt lat="45.0010617" lon="7.6997717"><ele>243.0</ele><time>2026-04-11T11:27:00.064Z</time></trkpt><trkpt lat="45.0010733" lon="7.69966"><ele>243.0</ele><time>2026-04-11T11:27:01.062Z</time></trkpt><trkpt lat="45.0010833" lon="7.6995467"><ele>243.0</ele><time>2026-04-11T11:27:02.061Z</time></trkpt><trkpt lat="45.001095" lon="7.6994383"><ele>243.0</ele><time>2026-04-11T11:27:03.061Z</time></trkpt><trkpt lat="45.0011067" lon="7.69933"><ele>243.0</ele><time>2026-04-11T11:27:04.061Z</time></trkpt><trkpt lat="45.0011183" lon="7.69922"><ele>243.0</ele><time>2026-04-11T11:27:05.06Z</time></trkpt><trkpt lat="45.001135" lon="7.6991067"><ele>243.0</ele><time>2026-04-11T11:27:06.061Z</time></trkpt><trkpt lat="45.00116" lon="7.6989917"><ele>243.0</ele><time>2026-04-11T11:27:07.06Z</time></trkpt><trkpt lat="45.0011867" lon="7.698885"><ele>242.33333333333334</ele><time>2026-04-11T11:27:08.062Z</time></trkpt><trkpt lat="45.00121" lon="7.6987833"><ele>241.66666666666669</ele><time>2026-04-11T11:27:09.062Z</time></trkpt><trkpt lat="45.001235" lon="7.6986883"><ele>241.0</ele><time>2026-04-11T11:27:10.062Z</time></trkpt><trkpt lat="45.0012733" lon="7.6986117"><ele>240.33333333333334</ele><time>2026-04-11T11:27:11.061Z</time></trkpt><trkpt lat="45.0013767" lon="7.6985383"><ele>239.66666666666669</ele><time>2026-04-11T11:27:13.062Z</time></trkpt><trkpt lat="45.001485" lon="7.69852"><ele>239.0</ele><time>2026-04-11T11:27:15.062Z</time></trkpt><trkpt lat="45.00157" lon="7.6984833"><ele>239.33333333333334</ele><time>2026-04-11T11:27:17.063Z</time></trkpt><trkpt lat="45.0016717" lon="7.6984633"><ele>239.66666666666669</ele><time>2026-04-11T11:27:19.063Z</time></trkpt><trkpt lat="45.0018" lon="7.6984633"><ele>240.0</ele><time>2026-04-11T11:27:21.06Z</time></trkpt><trkpt lat="45.0018683" lon="7.6984667"><ele>240.33333333333331</ele><time>2026-04-11T11:27:22.061Z</time></trkpt><trkpt lat="45.0019383" lon="7.6984633"><ele>240.66666666666666</ele><time>2026-04-11T11:27:23.062Z</time></trkpt><trkpt lat="45.0020067" lon="7.6984467"><ele>241.0</ele><time>2026-04-11T11:27:24.062Z</time></trkpt><trkpt lat="45.0020783" lon="7.6984183"><ele>241.0</ele><time>2026-04-11T11:27:25.062Z</time></trkpt><trkpt lat="45.0021383" lon="7.6983833"><ele>241.00000000000003</ele><time>2026-04-11T11:27:26.06Z</time></trkpt><trkpt lat="45.0021967" lon="7.6983383"><ele>241.0</ele><time>2026-04-11T11:27:27.06Z</time></trkpt><trkpt lat="45.0022533" lon="7.698295"><ele>241.0</ele><time>2026-04-11T11:27:28.058Z</time></trkpt><trkpt lat="45.0023083" lon="7.69824"><ele>241.00000000000003</ele><time>2026-04-11T11:27:29.06Z</time></trkpt><trkpt lat="45.0023517" lon="7.6981717"><ele>241.0</ele><time>2026-04-11T11:27:30.06Z</time></trkpt><trkpt lat="45.0023833" lon="7.6980883"><ele>241.0</ele><time>2026-04-11T11:27:31.063Z</time></trkpt><trkpt lat="45.0024067" lon="7.6980017"><ele>241.0</ele><time>2026-04-11T11:27:32.063Z</time></trkpt><trkpt lat="45.002425" lon="7.6979133"><ele>241.00000000000003</ele><time>2026-04-11T11:27:33.063Z</time></trkpt><trkpt lat="45.00245" lon="7.6977467"><ele>241.00000000000003</ele><time>2026-04-11T11:27:35.06Z</time></trkpt><trkpt lat="45.0024767" lon="7.697585"><ele>241.0</ele><time>2026-04-11T11:27:37.062Z</time></trkpt><trkpt lat="45.002505" lon="7.6974267"><ele>241.0</ele><time>2026-04-11T11:27:39.061Z</time></trkpt><trkpt lat="45.0025383" lon="7.6972617"><ele>243.5</ele><time>2026-04-11T11:27:41.06Z</time></trkpt><trkpt lat="45.00258" lon="7.697105"><ele>246.0</ele><time>2026-04-11T11:27:43.06Z</time></trkpt><trkpt lat="45.00262" lon="7.6969467"><ele>248.5</ele><time>2026-04-11T11:27:45.064Z</time></trkpt><trkpt lat="45.002655" lon="7.696795"><ele>251.0</ele><time>2026-04-11T11:27:47.063Z</time></trkpt><trkpt lat="45.0027067" lon="7.6966333"><ele>251.0</ele><time>2026-04-11T11:27:49.061Z</time></trkpt><trkpt lat="45.002755" lon="7.6964833"><ele>251.0</ele><time>2026-04-11T11:27:51.056Z</time></trkpt><trkpt lat="45.002805" lon="7.69633"><ele>251.0</ele><time>2026-04-11T11:27:53.061Z</time></trkpt><trkpt lat="45.002875" lon="7.6961983"><ele>251.0</ele><time>2026-04-11T11:27:55.061Z</time></trkpt><trkpt lat="45.0029183" lon="7.6960467"><ele>250.85714285714283</ele><time>2026-04-11T11:27:57.062Z</time></trkpt><trkpt lat="45.0029367" lon="7.69596"><ele>250.71428571428572</ele><time>2026-04-11T11:27:58.062Z</time></trkpt><trkpt lat="45.002955" lon="7.69587"><ele>250.57142857142856</ele><time>2026-04-11T11:27:59.06Z</time></trkpt><trkpt lat="45.0029683" lon="7.6957767"><ele>250.42857142857142</ele><time>2026-04-11T11:28:00.062Z</time></trkpt><trkpt lat="45.0029733" lon="7.6956833"><ele>250.28571428571428</ele><time>2026-04-11T11:28:01.061Z</time></trkpt><trkpt lat="45.00297" lon="7.6955917"><ele>250.14285714285714</ele><time>2026-04-11T11:28:02.063Z</time></trkpt><trkpt lat="45.00297" lon="7.6954983"><ele>250.0</ele><time>2026-04-11T11:28:03.062Z</time></trkpt><trkpt lat="45.0029617" lon="7.6954067"><ele>249.99999999999997</ele><time>2026-04-11T11:28:04.062Z</time></trkpt><trkpt lat="45.002955" lon="7.695315"><ele>250.0</ele><time>2026-04-11T11:28:05.06Z</time></trkpt><trkpt lat="45.0029483" lon="7.6952233"><ele>250.0</ele><time>2026-04-11T11:28:06.063Z</time></trkpt><trkpt lat="45.0029383" lon="7.6951317"><ele>250.0</ele><time>2026-04-11T11:28:07.062Z</time></trkpt><trkpt lat="45.0029283" lon="7.6950417"><ele>249.99999999999997</ele><time>2026-04-11T11:28:08.06Z</time></trkpt><trkpt lat="45.0029167" lon="7.694865"><ele>250.0</ele><time>2026-04-11T11:28:10.064Z</time></trkpt><trkpt lat="45.0029117" lon="7.694775"><ele>249.16666666666666</ele><time>2026-04-11T11:28:11.059Z</time></trkpt><trkpt lat="45.0029117" lon="7.694685"><ele>248.33333333333331</ele><time>2026-04-11T11:28:12.063Z</time></trkpt><trkpt lat="45.002925" lon="7.6945117"><ele>247.5</ele><time>2026-04-11T11:28:14.062Z</time></trkpt><trkpt lat="45.00295" lon="7.6943367"><ele>246.66666666666669</ele><time>2026-04-11T11:28:16.06Z</time></trkpt><trkpt lat="45.00296" lon="7.6942483"><ele>245.83333333333334</ele><time>2026-04-11T11:28:17.062Z</time></trkpt><trkpt lat="45.00297" lon="7.6941567"><ele>245.0</ele><time>2026-04-11T11:28:18.063Z</time></trkpt><trkpt lat="45.00298" lon="7.6940633"><ele>244.71428571428572</ele><time>2026-04-11T11:28:19.063Z</time></trkpt><trkpt lat="45.0029883" lon="7.6939667"><ele>244.42857142857144</ele><time>2026-04-11T11:28:20.061Z</time></trkpt><trkpt lat="45.0029967" lon="7.6938717"><ele>244.14285714285714</ele><time>2026-04-11T11:28:21.064Z</time></trkpt><trkpt lat="45.0030033" lon="7.6937767"><ele>243.85714285714286</ele><time>2026-04-11T11:28:22.061Z</time></trkpt><trkpt lat="45.00301" lon="7.6936833"><ele>243.57142857142858</ele><time>2026-04-11T11:28:23.061Z</time></trkpt><trkpt lat="45.003015" lon="7.6935917"><ele>243.28571428571428</ele><time>2026-04-11T11:28:24.062Z</time></trkpt><trkpt lat="45.0030217" lon="7.6934983"><ele>243.0</ele><time>2026-04-11T11:28:25.06Z</time></trkpt><trkpt lat="45.0030283" lon="7.693405"><ele>243.66666666666666</ele><time>2026-04-11T11:28:26.06Z</time></trkpt><trkpt lat="45.003035" lon="7.6933117"><ele>244.33333333333331</ele><time>2026-04-11T11:28:27.062Z</time></trkpt><trkpt lat="45.00304" lon="7.6932217"><ele>245.0</ele><time>2026-04-11T11:28:28.062Z</time></trkpt><trkpt lat="45.0030467" lon="7.69313"><ele>245.66666666666666</ele><time>2026-04-11T11:28:29.062Z</time></trkpt><trkpt lat="45.0030517" lon="7.6930367"><ele>246.33333333333331</ele><time>2026-04-11T11:28:30.061Z</time></trkpt><trkpt lat="45.00306" lon="7.6929467"><ele>247.0</ele><time>2026-04-11T11:28:31.063Z</time></trkpt><trkpt lat="45.0030783" lon="7.6927733"><ele>247.0</ele><time>2026-04-11T11:28:33.061Z</time></trkpt><trkpt lat="45.0030933" lon="7.6926067"><ele>247.0</ele><time>2026-04-11T11:28:35.061Z</time></trkpt><trkpt lat="45.0031067" lon="7.6924467"><ele>247.0</ele><time>2026-04-11T11:28:37.061Z</time></trkpt><trkpt lat="45.0031217" lon="7.6923017"><ele>247.0</ele><time>2026-04-11T11:28:39.063Z</time></trkpt><trkpt lat="45.0031367" lon="7.692165"><ele>247.0</ele><time>2026-04-11T11:28:41.059Z</time></trkpt><trkpt lat="45.0031483" lon="7.692035"><ele>247.6</ele><time>2026-04-11T11:28:43.062Z</time></trkpt><trkpt lat="45.003165" lon="7.6918983"><ele>248.2</ele><time>2026-04-11T11:28:45.061Z</time></trkpt><trkpt lat="45.00318" lon="7.6917717"><ele>248.8</ele><time>2026-04-11T11:28:47.06Z</time></trkpt><trkpt lat="45.0031917" lon="7.691645"><ele>249.4</ele><time>2026-04-11T11:28:49.062Z</time></trkpt><trkpt lat="45.0032033" lon="7.69152"><ele>250.0</ele><time>2026-04-11T11:28:51.063Z</time></trkpt><trkpt lat="45.003205" lon="7.6913983"><ele>249.99999999999997</ele><time>2026-04-11T11:28:53.061Z</time></trkpt><trkpt lat="45.0032083" lon="7.6912767"><ele>250.0</ele><time>2026-04-11T11:28:55.06Z</time></trkpt><trkpt lat="45.0032067" lon="7.69115"><ele>250.0</ele><time>2026-04-11T11:28:57.064Z</time></trkpt><trkpt lat="45.0031983" lon="7.691025"><ele>250.0</ele><time>2026-04-11T11:28:59.06Z</time></trkpt><trkpt lat="45.0031883" lon="7.6909017"><ele>249.99999999999997</ele><time>2026-04-11T11:29:01.064Z</time></trkpt><trkpt lat="45.0031733" lon="7.6907783"><ele>250.0</ele><time>2026-04-11T11:29:03.065Z</time></trkpt><trkpt lat="45.0031517" lon="7.6906583"><ele>250.66666666666666</ele><time>2026-04-11T11:29:05.063Z</time></trkpt><trkpt lat="45.0031317" lon="7.690545"><ele>251.33333333333331</ele><time>2026-04-11T11:29:07.063Z</time></trkpt><trkpt lat="45.0031133" lon="7.6904283"><ele>252.0</ele><time>2026-04-11T11:29:09.065Z</time></trkpt><trkpt lat="45.0030933" lon="7.6903133"><ele>252.66666666666669</ele><time>2026-04-11T11:29:11.061Z</time></trkpt><trkpt lat="45.0030683" lon="7.6902067"><ele>253.33333333333334</ele><time>2026-04-11T11:29:13.062Z</time></trkpt><trkpt lat="45.0030367" lon="7.6900967"><ele>254.0</ele><time>2026-04-11T11:29:15.067Z</time></trkpt><trkpt lat="45.003" lon="7.6899867"><ele>255.00000000000003</ele><time>2026-04-11T11:29:17.061Z</time></trkpt><trkpt lat="45.0029567" lon="7.68988"><ele>256.0</ele><time>2026-04-11T11:29:19.061Z</time></trkpt><trkpt lat="45.0029167" lon="7.6897833"><ele>257.0</ele><time>2026-04-11T11:29:21.062Z</time></trkpt><trkpt lat="45.002875" lon="7.6896883"><ele>258.0</ele><time>2026-04-11T11:29:23.062Z</time></trkpt><trkpt lat="45.0028267" lon="7.6895933"><ele>259.0</ele><time>2026-04-11T11:29:25.063Z</time></trkpt><trkpt lat="45.002785" lon="7.689505"><ele>260.0</ele><time>2026-04-11T11:29:27.064Z</time></trkpt><trkpt lat="45.0027333" lon="7.6894133"><ele>260.0</ele><time>2026-04-11T11:29:29.062Z</time></trkpt><trkpt lat="45.0026717" lon="7.6893217"><ele>260.0</ele><time>2026-04-11T11:29:31.06Z</time></trkpt><trkpt lat="45.0025833" lon="7.68925"><ele>260.0</ele><time>2026-04-11T11:29:33.063Z</time></trkpt><trkpt lat="45.0024817" lon="7.689195"><ele>260.0</ele><time>2026-04-11T11:29:35.06Z</time></trkpt><trkpt lat="45.0023717" lon="7.6891383"><ele>260.0</ele><time>2026-04-11T11:29:37.06Z</time></trkpt><trkpt lat="45.0023117" lon="7.6890983"><ele>260.00000000000006</ele><time>2026-04-11T11:29:38.06Z</time></trkpt><trkpt lat="45.0022517" lon="7.6890533"><ele>260.0</ele><time>2026-04-11T11:29:39.064Z</time></trkpt><trkpt lat="45.0021933" lon="7.6890017"><ele>260.0</ele><time>2026-04-11T11:29:40.061Z</time></trkpt><trkpt lat="45.0021317" lon="7.6889517"><ele>260.0</ele><time>2026-04-11T11:29:41.059Z</time></trkpt><trkpt lat="45.002065" lon="7.6889"><ele>260.0</ele><time>2026-04-11T11:29:42.061Z</time></trkpt><trkpt lat="45.0019933" lon="7.6888583"><ele>260.00000000000006</ele><time>2026-04-11T11:29:43.06Z</time></trkpt><trkpt lat="45.0019217" lon="7.6888117"><ele>260.0</ele><time>2026-04-11T11:29:44.061Z</time></trkpt><trkpt lat="45.0018433" lon="7.6887767"><ele>260.0</ele><time>2026-04-11T11:29:45.063Z</time></trkpt><trkpt lat="45.0017683" lon="7.6887267"><ele>260.0</ele><time>2026-04-11T11:29:46.064Z</time></trkpt><trkpt lat="45.001695" lon="7.6886767"><ele>260.0</ele><time>2026-04-11T11:29:47.06Z</time></trkpt><trkpt lat="45.0016283" lon="7.6886083"><ele>260.0</ele><time>2026-04-11T11:29:48.062Z</time></trkpt><trkpt lat="45.0015833" lon="7.6885117"><ele>260.0</ele><time>2026-04-11T11:29:49.061Z</time></trkpt><trkpt lat="45.0015683" lon="7.6884017"><ele>260.0</ele><time>2026-04-11T11:29:50.061Z</time></trkpt><trkpt lat="45.0015683" lon="7.6882833"><ele>258.0</ele><time>2026-04-11T11:29:51.061Z</time></trkpt><trkpt lat="45.0015667" lon="7.6881817"><ele>256.0</ele><time>2026-04-11T11:29:52.062Z</time></trkpt><trkpt lat="45.0015517" lon="7.6880333"><ele>254.0</ele><time>2026-04-11T11:29:54.062Z</time></trkpt><trkpt lat="45.0015183" lon="7.6879317"><ele>252.0</ele><time>2026-04-11T11:29:56.061Z</time></trkpt><trkpt lat="45.0014667" lon="7.6878117"><ele>250.0</ele><time>2026-04-11T11:29:58.062Z</time></trkpt><trkpt lat="45.00144" lon="7.687635"><ele>249.99999999999997</ele><time>2026-04-11T11:30:00.06Z</time></trkpt><trkpt lat="45.0014333" lon="7.6875333"><ele>250.0</ele><time>2026-04-11T11:30:01.062Z</time></trkpt><trkpt lat="45.0014217" lon="7.6874267"><ele>250.0</ele><time>2026-04-11T11:30:02.061Z</time></trkpt><trkpt lat="45.0014133" lon="7.6873117"><ele>250.0</ele><time>2026-04-11T11:30:03.062Z</time></trkpt><trkpt lat="45.0014" lon="7.6871983"><ele>249.99999999999997</ele><time>2026-04-11T11:30:04.062Z</time></trkpt><trkpt lat="45.001385" lon="7.6870967"><ele>250.0</ele><time>2026-04-11T11:30:05.059Z</time></trkpt><trkpt lat="45.0013717" lon="7.6870033"><ele>250.83333333333331</ele><time>2026-04-11T11:30:06.061Z</time></trkpt><trkpt lat="45.0013583" lon="7.6869083"><ele>251.66666666666666</ele><time>2026-04-11T11:30:07.06Z</time></trkpt><trkpt lat="45.0013433" lon="7.6868217"><ele>252.5</ele><time>2026-04-11T11:30:08.061Z</time></trkpt><trkpt lat="45.001315" lon="7.68666"><ele>253.33333333333331</ele><time>2026-04-11T11:30:10.061Z</time></trkpt><trkpt lat="45.0012783" lon="7.6865333"><ele>254.16666666666666</ele><time>2026-04-11T11:30:12.061Z</time></trkpt><trkpt lat="45.0012733" lon="7.68643"><ele>255.0</ele><time>2026-04-11T11:30:14.062Z</time></trkpt><trkpt lat="45.0013117" lon="7.686345"><ele>255.0</ele><time>2026-04-11T11:30:17.062Z</time></trkpt><trkpt lat="45.0013933" lon="7.6863083"><ele>255.0</ele><time>2026-04-11T11:30:20.06Z</time></trkpt><trkpt lat="45.0014533" lon="7.6862717"><ele>255.0</ele><time>2026-04-11T11:30:24.06Z</time></trkpt><trkpt lat="45.0014367" lon="7.6861783"><ele>255.0</ele><time>2026-04-11T11:30:29.06Z</time></trkpt><trkpt lat="45.0013983" lon="7.6860867"><ele>255.0</ele><time>2026-04-11T11:30:31.06Z</time></trkpt><trkpt lat="45.0013683" lon="7.6859733"><ele>255.0</ele><time>2026-04-11T11:30:33.061Z</time></trkpt><trkpt lat="45.001335" lon="7.6858383"><ele>256.0</ele><time>2026-04-11T11:30:35.059Z</time></trkpt><trkpt lat="45.001285" lon="7.6856783"><ele>257.0</ele><time>2026-04-11T11:30:37.061Z</time></trkpt><trkpt lat="45.0012533" lon="7.6855933"><ele>258.0</ele><time>2026-04-11T11:30:38.061Z</time></trkpt><trkpt lat="45.00122" lon="7.6855117"><ele>259.0</ele><time>2026-04-11T11:30:39.059Z</time></trkpt><trkpt lat="45.0011867" lon="7.685435"><ele>260.0</ele><time>2026-04-11T11:30:40.062Z</time></trkpt><trkpt lat="45.0011333" lon="7.6853067"><ele>261.0</ele><time>2026-04-11T11:30:42.062Z</time></trkpt><trkpt lat="45.0010733" lon="7.6852283"><ele>261.0</ele><time>2026-04-11T11:30:44.06Z</time></trkpt><trkpt lat="45.0010417" lon="7.6851417"><ele>261.0</ele><time>2026-04-11T11:30:47.059Z</time></trkpt><trkpt lat="45.0010483" lon="7.6850517"><ele>261.0</ele><time>2026-04-11T11:31:46.061Z</time></trkpt><trkpt lat="45.0011083" lon="7.6849883"><ele>261.0</ele><time>2026-04-11T11:37:33.063Z</time></trkpt><trkpt lat="45.0010083" lon="7.68497"><ele>261.0</ele><time>2026-04-11T11:39:12.551Z</time></trkpt><trkpt lat="45.0010517" lon="7.6850867"><ele>261.0</ele><time>2026-04-11T11:39:26.062Z</time></trkpt><trkpt lat="45.001005" lon="7.6849883"><ele>261.0</ele><time>2026-04-11T11:39:42.06Z</time></trkpt><trkpt lat="45.0009583" lon="7.6849183"><ele>261.0</ele><time>2026-04-11T11:39:44.062Z</time></trkpt><trkpt lat="45.000925" lon="7.6848167"><ele>261.0</ele><time>2026-04-11T11:39:47.058Z</time></trkpt><trkpt lat="45.0008817" lon="7.6847117"><ele>261.0</ele><time>2026-04-11T11:39:50.062Z</time></trkpt><trkpt lat="45.0008283" lon="7.684605"><ele>261.0</ele><time>2026-04-11T11:39:53.06Z</time></trkpt><trkpt lat="45.0007783" lon="7.6845033"><ele>261.0</ele><time>2026-04-11T11:39:56.066Z</time></trkpt><trkpt lat="45.000735" lon="7.6844167"><ele>259.1666666666667</ele><time>2026-04-11T11:39:59.061Z</time></trkpt><trkpt lat="45.0006983" lon="7.6843433"><ele>257.3333333333333</ele><time>2026-04-11T11:40:02.06Z</time></trkpt><trkpt lat="45.0006533" lon="7.68425"><ele>255.5</ele><time>2026-04-11T11:40:06.061Z</time></trkpt><trkpt lat="45.00061" lon="7.684165"><ele>253.66666666666666</ele><time>2026-04-11T11:40:09.063Z</time></trkpt><trkpt lat="45.0005633" lon="7.68406"><ele>251.83333333333331</ele><time>2026-04-11T11:40:15.066Z</time></trkpt><trkpt lat="45.00063" lon="7.6840167"><ele>250.0</ele><time>2026-04-11T11:40:19.062Z</time></trkpt><trkpt lat="45.0006933" lon="7.6839633"><ele>249.99999999999997</ele><time>2026-04-11T11:40:21.063Z</time></trkpt><trkpt lat="45.00074" lon="7.68387"><ele>250.0</ele><time>2026-04-11T11:40:24.06Z</time></trkpt><trkpt lat="45.0007383" lon="7.6837433"><ele>250.0</ele><time>2026-04-11T11:40:27.063Z</time></trkpt><trkpt lat="45.0007017" lon="7.683625"><ele>250.0</ele><time>2026-04-11T11:40:29.064Z</time></trkpt><trkpt lat="45.00066" lon="7.68347"><ele>249.99999999999997</ele><time>2026-04-11T11:40:31.06Z</time></trkpt><trkpt lat="45.00064" lon="7.6833817"><ele>250.0</ele><time>2026-04-11T11:40:32.06Z</time></trkpt><trkpt lat="45.00061" lon="7.683295"><ele>250.14285714285714</ele><time>2026-04-11T11:40:33.061Z</time></trkpt><trkpt lat="45.0005733" lon="7.68321"><ele>250.28571428571428</ele><time>2026-04-11T11:40:34.064Z</time></trkpt><trkpt lat="45.000535" lon="7.6831267"><ele>250.42857142857142</ele><time>2026-04-11T11:40:35.063Z</time></trkpt><trkpt lat="45.000495" lon="7.6830433"><ele>250.57142857142856</ele><time>2026-04-11T11:40:36.062Z</time></trkpt><trkpt lat="45.000455" lon="7.682965"><ele>250.71428571428572</ele><time>2026-04-11T11:40:37.065Z</time></trkpt><trkpt lat="45.00042" lon="7.682875"><ele>250.85714285714283</ele><time>2026-04-11T11:40:38.062Z</time></trkpt><trkpt lat="45.0003883" lon="7.6827783"><ele>250.99999999999997</ele><time>2026-04-11T11:40:39.062Z</time></trkpt><trkpt lat="45.00035" lon="7.682685"><ele>250.33333333333334</ele><time>2026-04-11T11:40:40.061Z</time></trkpt><trkpt lat="45.000315" lon="7.682595"><ele>249.66666666666669</ele><time>2026-04-11T11:40:41.062Z</time></trkpt><trkpt lat="45.00028" lon="7.6824983"><ele>249.0</ele><time>2026-04-11T11:40:42.061Z</time></trkpt><trkpt lat="45.0002467" lon="7.6824"><ele>248.33333333333331</ele><time>2026-04-11T11:40:43.061Z</time></trkpt><trkpt lat="45.00021" lon="7.682305"><ele>247.66666666666666</ele><time>2026-04-11T11:40:44.061Z</time></trkpt><trkpt lat="45.0001733" lon="7.6822067"><ele>247.0</ele><time>2026-04-11T11:40:45.061Z</time></trkpt><trkpt lat="45.000135" lon="7.68211"><ele>246.99999999999997</ele><time>2026-04-11T11:40:46.061Z</time></trkpt><trkpt lat="45.0001" lon="7.68201"><ele>247.0</ele><time>2026-04-11T11:40:47.061Z</time></trkpt><trkpt lat="45.00007" lon="7.6819017"><ele>247.0</ele><time>2026-04-11T11:40:48.06Z</time></trkpt><trkpt lat="45.00004" lon="7.6817933"><ele>247.0</ele><time>2026-04-11T11:40:49.062Z</time></trkpt><trkpt lat="45.0000233" lon="7.6816817"><ele>246.99999999999997</ele><time>2026-04-11T11:40:50.06Z</time></trkpt><trkpt lat="45.000005" lon="7.6815733"><ele>247.0</ele><time>2026-04-11T11:40:51.062Z</time></trkpt><trkpt lat="44.9999867" lon="7.6814733"><ele>245.66666666666666</ele><time>2026-04-11T11:40:52.062Z</time></trkpt><trkpt lat="44.9999667" lon="7.6813783"><ele>244.33333333333331</ele><time>2026-04-11T11:40:53.061Z</time></trkpt><trkpt lat="44.9999517" lon="7.6812833"><ele>243.0</ele><time>2026-04-11T11:40:54.06Z</time></trkpt><trkpt lat="44.9999367" lon="7.6811867"><ele>241.66666666666669</ele><time>2026-04-11T11:40:55.062Z</time></trkpt><trkpt lat="44.99992" lon="7.6810933"><ele>240.33333333333334</ele><time>2026-04-11T11:40:56.062Z</time></trkpt><trkpt lat="44.9998967" lon="7.68092"><ele>239.0</ele><time>2026-04-11T11:40:58.063Z</time></trkpt><trkpt lat="44.99987" lon="7.6807867"><ele>238.16666666666669</ele><time>2026-04-11T11:41:00.065Z</time></trkpt><trkpt lat="44.99985" lon="7.6807"><ele>237.33333333333334</ele><time>2026-04-11T11:41:02.06Z</time></trkpt><trkpt lat="44.9997867" lon="7.6806367"><ele>236.5</ele><time>2026-04-11T11:41:06.062Z</time></trkpt><trkpt lat="44.9997" lon="7.680675"><ele>235.66666666666669</ele><time>2026-04-11T11:41:09.062Z</time></trkpt><trkpt lat="44.999635" lon="7.6806967"><ele>234.83333333333334</ele><time>2026-04-11T11:41:11.06Z</time></trkpt><trkpt lat="44.9995617" lon="7.680705"><ele>234.0</ele><time>2026-04-11T11:41:13.06Z</time></trkpt><trkpt lat="44.9994683" lon="7.6806833"><ele>234.0</ele><time>2026-04-11T11:41:15.061Z</time></trkpt><trkpt lat="44.9993467" lon="7.68066"><ele>233.99999999999997</ele><time>2026-04-11T11:41:17.061Z</time></trkpt><trkpt lat="44.999255" lon="7.6805967"><ele>233.99999999999997</ele><time>2026-04-11T11:41:19.062Z</time></trkpt><trkpt lat="44.9991917" lon="7.6804583"><ele>234.0</ele><time>2026-04-11T11:41:21.061Z</time></trkpt><trkpt lat="44.99915" lon="7.6803233"><ele>234.0</ele><time>2026-04-11T11:41:23.06Z</time></trkpt><trkpt lat="44.9991417" lon="7.6802283"><ele>233.16666666666666</ele><time>2026-04-11T11:41:25.062Z</time></trkpt><trkpt lat="44.9992017" lon="7.6801567"><ele>232.33333333333331</ele><time>2026-04-11T11:41:28.059Z</time></trkpt><trkpt lat="44.9992683" lon="7.680125"><ele>231.5</ele><time>2026-04-11T11:41:31.061Z</time></trkpt><trkpt lat="44.999355" lon="7.6800817"><ele>230.66666666666666</ele><time>2026-04-11T11:41:34.062Z</time></trkpt><trkpt lat="44.9994267" lon="7.6800583"><ele>229.83333333333331</ele><time>2026-04-11T11:41:36.061Z</time></trkpt><trkpt lat="44.9995083" lon="7.6800183"><ele>229.0</ele><time>2026-04-11T11:41:38.061Z</time></trkpt><trkpt lat="44.9996033" lon="7.6800017"><ele>229.0</ele><time>2026-04-11T11:41:40.061Z</time></trkpt><trkpt lat="44.9996867" lon="7.6799967"><ele>228.99999999999997</ele><time>2026-04-11T11:41:42.061Z</time></trkpt><trkpt lat="44.9997717" lon="7.67999"><ele>228.99999999999997</ele><time>2026-04-11T11:41:44.061Z</time></trkpt><trkpt lat="44.99986" lon="7.6799417"><ele>229.0</ele><time>2026-04-11T11:41:46.06Z</time></trkpt><trkpt lat="44.999945" lon="7.6798617"><ele>229.0</ele><time>2026-04-11T11:41:48.062Z</time></trkpt><trkpt lat="45.0000433" lon="7.67979"><ele>229.0</ele><time>2026-04-11T11:41:50.061Z</time></trkpt><trkpt lat="45.0001467" lon="7.679725"><ele>228.99999999999997</ele><time>2026-04-11T11:41:52.061Z</time></trkpt><trkpt lat="45.0002383" lon="7.6796383"><ele>228.99999999999997</ele><time>2026-04-11T11:41:54.06Z</time></trkpt><trkpt lat="45.0003217" lon="7.67954"><ele>229.0</ele><time>2026-04-11T11:41:56.061Z</time></trkpt><trkpt lat="45.0004083" lon="7.6794367"><ele>229.0</ele><time>2026-04-11T11:41:58.06Z</time></trkpt><trkpt lat="45.000495" lon="7.67933"><ele>228.25</ele><time>2026-04-11T11:42:00.062Z</time></trkpt><trkpt lat="45.0005767" lon="7.67922"><ele>227.5</ele><time>2026-04-11T11:42:02.062Z</time></trkpt><trkpt lat="45.0006667" lon="7.6791067"><ele>226.75</ele><time>2026-04-11T11:42:04.061Z</time></trkpt><trkpt lat="45.0007533" lon="7.6789883"><ele>226.0</ele><time>2026-04-11T11:42:06.061Z</time></trkpt><trkpt lat="45.0008383" lon="7.6788717"><ele>224.5</ele><time>2026-04-11T11:42:08.061Z</time></trkpt><trkpt lat="45.0009233" lon="7.6787617"><ele>223.0</ele><time>2026-04-11T11:42:10.062Z</time></trkpt><trkpt lat="45.001015" lon="7.67865"><ele>221.5</ele><time>2026-04-11T11:42:12.064Z</time></trkpt><trkpt lat="45.0011033" lon="7.6785333"><ele>220.0</ele><time>2026-04-11T11:42:14.061Z</time></trkpt><trkpt lat="45.001195" lon="7.6784183"><ele>220.0</ele><time>2026-04-11T11:42:16.061Z</time></trkpt><trkpt lat="45.0012867" lon="7.6783033"><ele>220.0</ele><time>2026-04-11T11:42:18.06Z</time></trkpt><trkpt lat="45.0013783" lon="7.6781817"><ele>220.0</ele><time>2026-04-11T11:42:20.061Z</time></trkpt><trkpt lat="45.001425" lon="7.6781167"><ele>220.0</ele><time>2026-04-11T11:42:21.063Z</time></trkpt><trkpt lat="45.0015283" lon="7.6780067"><ele>220.0</ele><time>2026-04-11T11:42:23.06Z</time></trkpt><trkpt lat="45.001585" lon="7.6779533"><ele>219.99999999999997</ele><time>2026-04-11T11:42:24.057Z</time></trkpt><trkpt lat="45.001635" lon="7.677895"><ele>220.0</ele><time>2026-04-11T11:42:25.061Z</time></trkpt><trkpt lat="45.0016833" lon="7.6778317"><ele>220.0</ele><time>2026-04-11T11:42:26.061Z</time></trkpt><trkpt lat="45.001735" lon="7.6777667"><ele>220.0</ele><time>2026-04-11T11:42:27.062Z</time></trkpt><trkpt lat="45.0017883" lon="7.677705"><ele>220.0</ele><time>2026-04-11T11:42:28.062Z</time></trkpt><trkpt lat="45.00184" lon="7.677645"><ele>219.99999999999997</ele><time>2026-04-11T11:42:29.06Z</time></trkpt><trkpt lat="45.0019233" lon="7.677545"><ele>220.0</ele><time>2026-04-11T11:42:31.061Z</time></trkpt><trkpt lat="45.0019883" lon="7.6776033"><ele>220.2</ele><time>2026-04-11T11:42:35.062Z</time></trkpt><trkpt lat="45.0019967" lon="7.6777217"><ele>220.4</ele><time>2026-04-11T11:42:37.061Z</time></trkpt><trkpt lat="45.002025" lon="7.6778517"><ele>220.60000000000002</ele><time>2026-04-11T11:42:39.062Z</time></trkpt><trkpt lat="45.0020533" lon="7.6780033"><ele>220.8</ele><time>2026-04-11T11:42:41.059Z</time></trkpt><trkpt lat="45.0020867" lon="7.6781733"><ele>221.0</ele><time>2026-04-11T11:42:43.06Z</time></trkpt><trkpt lat="45.0021" lon="7.6782617"><ele>220.16666666666669</ele><time>2026-04-11T11:42:44.06Z</time></trkpt><trkpt lat="45.0021133" lon="7.678355"><ele>219.33333333333334</ele><time>2026-04-11T11:42:45.063Z</time></trkpt><trkpt lat="45.0021217" lon="7.6784483"><ele>218.5</ele><time>2026-04-11T11:42:46.061Z</time></trkpt><trkpt lat="45.0021283" lon="7.6785383"><ele>217.66666666666669</ele><time>2026-04-11T11:42:47.059Z</time></trkpt><trkpt lat="45.0021383" lon="7.6787067"><ele>216.83333333333334</ele><time>2026-04-11T11:42:49.06Z</time></trkpt><trkpt lat="45.0021383" lon="7.6788683"><ele>216.0</ele><time>2026-04-11T11:42:51.06Z</time></trkpt><trkpt lat="45.0021533" lon="7.6790267"><ele>216.0</ele><time>2026-04-11T11:42:53.06Z</time></trkpt><trkpt lat="45.0021883" lon="7.67918"><ele>216.0</ele><time>2026-04-11T11:42:55.062Z</time></trkpt><trkpt lat="45.0022517" lon="7.6793217"><ele>216.0</ele><time>2026-04-11T11:42:57.063Z</time></trkpt><trkpt lat="45.0023267" lon="7.6794583"><ele>216.0</ele><time>2026-04-11T11:42:59.06Z</time></trkpt><trkpt lat="45.0023983" lon="7.6795933"><ele>215.75</ele><time>2026-04-11T11:43:01.061Z</time></trkpt><trkpt lat="45.0024717" lon="7.6797233"><ele>215.5</ele><time>2026-04-11T11:43:03.061Z</time></trkpt><trkpt lat="45.00255" lon="7.6798533"><ele>215.25</ele><time>2026-04-11T11:43:05.061Z</time></trkpt><trkpt lat="45.00263" lon="7.6799833"><ele>215.0</ele><time>2026-04-11T11:43:07.06Z</time></trkpt><trkpt lat="45.002715" lon="7.6800983"><ele>215.0</ele><time>2026-04-11T11:43:09.062Z</time></trkpt><trkpt lat="45.0028017" lon="7.68022"><ele>215.0</ele><time>2026-04-11T11:43:11.062Z</time></trkpt><trkpt lat="45.0028667" lon="7.6803517"><ele>215.0</ele><time>2026-04-11T11:43:13.061Z</time></trkpt><trkpt lat="45.0029267" lon="7.68047"><ele>215.0</ele><time>2026-04-11T11:43:15.063Z</time></trkpt><trkpt lat="45.0029917" lon="7.680595"><ele>215.0</ele><time>2026-04-11T11:43:17.059Z</time></trkpt><trkpt lat="45.0030567" lon="7.6807183"><ele>216.25</ele><time>2026-04-11T11:43:19.064Z</time></trkpt><trkpt lat="45.0031283" lon="7.6808483"><ele>217.5</ele><time>2026-04-11T11:43:21.062Z</time></trkpt><trkpt lat="45.003205" lon="7.68097"><ele>218.75</ele><time>2026-04-11T11:43:23.06Z</time></trkpt><trkpt lat="45.0032817" lon="7.6810883"><ele>220.0</ele><time>2026-04-11T11:43:25.062Z</time></trkpt><trkpt lat="45.0033533" lon="7.68121"><ele>220.0</ele><time>2026-04-11T11:43:27.06Z</time></trkpt><trkpt lat="45.0034283" lon="7.68133"><ele>220.0</ele><time>2026-04-11T11:43:29.06Z</time></trkpt><trkpt lat="45.0035017" lon="7.6814383"><ele>220.0</ele><time>2026-04-11T11:43:31.061Z</time></trkpt><trkpt lat="45.0035833" lon="7.6815617"><ele>220.0</ele><time>2026-04-11T11:43:33.062Z</time></trkpt><trkpt lat="45.0036667" lon="7.68167"><ele>220.0</ele><time>2026-04-11T11:43:35.061Z</time></trkpt><trkpt lat="45.0037567" lon="7.68177"><ele>220.0</ele><time>2026-04-11T11:43:37.061Z</time></trkpt><trkpt lat="45.003835" lon="7.6818683"><ele>220.0</ele><time>2026-04-11T11:43:39.061Z</time></trkpt><trkpt lat="45.0039033" lon="7.6819683"><ele>220.0</ele><time>2026-04-11T11:43:41.06Z</time></trkpt><trkpt lat="45.00398" lon="7.6820717"><ele>220.0</ele><time>2026-04-11T11:43:43.06Z</time></trkpt><trkpt lat="45.00406" lon="7.6821767"><ele>220.0</ele><time>2026-04-11T11:43:45.065Z</time></trkpt><trkpt lat="45.004145" lon="7.6822817"><ele>220.0</ele><time>2026-04-11T11:43:47.061Z</time></trkpt><trkpt lat="45.0042367" lon="7.6823817"><ele>220.0</ele><time>2026-04-11T11:43:49.063Z</time></trkpt><trkpt lat="45.00432" lon="7.68246"><ele>220.0</ele><time>2026-04-11T11:43:51.062Z</time></trkpt><trkpt lat="45.004385" lon="7.68253"><ele>220.0</ele><time>2026-04-11T11:43:53.06Z</time></trkpt><trkpt lat="45.00444" lon="7.682605"><ele>219.99999999999997</ele><time>2026-04-11T11:43:56.062Z</time></trkpt><trkpt lat="45.004475" lon="7.68268"><ele>220.0</ele><time>2026-04-11T11:44:00.064Z</time></trkpt><trkpt lat="45.0045217" lon="7.6827483"><ele>220.0</ele><time>2026-04-11T11:44:02.059Z</time></trkpt><trkpt lat="45.0045733" lon="7.68284"><ele>220.0</ele><time>2026-04-11T11:44:04.06Z</time></trkpt><trkpt lat="45.00464" lon="7.682925"><ele>219.99999999999997</ele><time>2026-04-11T11:44:06.062Z</time></trkpt><trkpt lat="45.0047167" lon="7.6830167"><ele>220.0</ele><time>2026-04-11T11:44:08.06Z</time></trkpt><trkpt lat="45.0048067" lon="7.6831167"><ele>220.4</ele><time>2026-04-11T11:44:10.061Z</time></trkpt><trkpt lat="45.004905" lon="7.6832017"><ele>220.8</ele><time>2026-04-11T11:44:12.062Z</time></trkpt><trkpt lat="45.004995" lon="7.68328"><ele>221.2</ele><time>2026-04-11T11:44:14.061Z</time></trkpt><trkpt lat="45.0050867" lon="7.68336"><ele>221.6</ele><time>2026-04-11T11:44:16.062Z</time></trkpt><trkpt lat="45.00519" lon="7.6834317"><ele>222.0</ele><time>2026-04-11T11:44:18.06Z</time></trkpt><trkpt lat="45.0052967" lon="7.6835067"><ele>222.25</ele><time>2026-04-11T11:44:20.062Z</time></trkpt><trkpt lat="45.005405" lon="7.6835917"><ele>222.5</ele><time>2026-04-11T11:44:22.06Z</time></trkpt><trkpt lat="45.0055167" lon="7.6836517"><ele>222.75</ele><time>2026-04-11T11:44:24.062Z</time></trkpt><trkpt lat="45.0056267" lon="7.6836967"><ele>223.0</ele><time>2026-04-11T11:44:26.062Z</time></trkpt><trkpt lat="45.0057433" lon="7.6837217"><ele>222.60000000000002</ele><time>2026-04-11T11:44:28.061Z</time></trkpt><trkpt lat="45.0058567" lon="7.6836883"><ele>222.20000000000002</ele><time>2026-04-11T11:44:30.061Z</time></trkpt><trkpt lat="45.0059583" lon="7.6836267"><ele>221.8</ele><time>2026-04-11T11:44:32.061Z</time></trkpt><trkpt lat="45.00605" lon="7.6835617"><ele>221.4</ele><time>2026-04-11T11:44:34.062Z</time></trkpt><trkpt lat="45.006135" lon="7.6835367"><ele>221.0</ele><time>2026-04-11T11:44:36.061Z</time></trkpt><trkpt lat="45.006225" lon="7.683535"><ele>221.00000000000003</ele><time>2026-04-11T11:44:38.059Z</time></trkpt><trkpt lat="45.0062983" lon="7.6835433"><ele>221.0</ele><time>2026-04-11T11:44:40.062Z</time></trkpt><trkpt lat="45.0063683" lon="7.6835433"><ele>221.0</ele><time>2026-04-11T11:44:42.062Z</time></trkpt><trkpt lat="45.0064583" lon="7.68355"><ele>221.0</ele><time>2026-04-11T11:44:44.062Z</time></trkpt><trkpt lat="45.0065517" lon="7.6835667"><ele>221.00000000000003</ele><time>2026-04-11T11:44:46.062Z</time></trkpt><trkpt lat="45.006645" lon="7.68357"><ele>221.0</ele><time>2026-04-11T11:44:48.062Z</time></trkpt><trkpt lat="45.0067317" lon="7.6835683"><ele>220.60000000000002</ele><time>2026-04-11T11:44:50.061Z</time></trkpt><trkpt lat="45.006825" lon="7.6835717"><ele>220.20000000000002</ele><time>2026-04-11T11:44:52.061Z</time></trkpt><trkpt lat="45.0069283" lon="7.6835817"><ele>219.79999999999998</ele><time>2026-04-11T11:44:54.061Z</time></trkpt><trkpt lat="45.00703" lon="7.6835967"><ele>219.39999999999998</ele><time>2026-04-11T11:44:56.063Z</time></trkpt><trkpt lat="45.0071333" lon="7.6835867"><ele>219.0</ele><time>2026-04-11T11:44:58.061Z</time></trkpt><trkpt lat="45.0072417" lon="7.683545"><ele>219.0</ele><time>2026-04-11T11:45:00.06Z</time></trkpt><trkpt lat="45.007355" lon="7.6835133"><ele>219.0</ele><time>2026-04-11T11:45:02.061Z</time></trkpt><trkpt lat="45.007465" lon="7.6834983"><ele>219.0</ele><time>2026-04-11T11:45:04.062Z</time></trkpt><trkpt lat="45.0075717" lon="7.6835017"><ele>219.0</ele><time>2026-04-11T11:45:06.06Z</time></trkpt><trkpt lat="45.0076917" lon="7.6835"><ele>219.2</ele><time>2026-04-11T11:45:08.059Z</time></trkpt><trkpt lat="45.007795" lon="7.683485"><ele>219.39999999999998</ele><time>2026-04-11T11:45:10.059Z</time></trkpt><trkpt lat="45.007875" lon="7.683445"><ele>219.6</ele><time>2026-04-11T11:45:12.06Z</time></trkpt><trkpt lat="45.0079633" lon="7.6833717"><ele>219.8</ele><time>2026-04-11T11:45:14.063Z</time></trkpt><trkpt lat="45.008055" lon="7.6833133"><ele>220.0</ele><time>2026-04-11T11:45:16.06Z</time></trkpt><trkpt lat="45.0081567" lon="7.6832633"><ele>220.0</ele><time>2026-04-11T11:45:18.06Z</time></trkpt><trkpt lat="45.008265" lon="7.6832017"><ele>220.0</ele><time>2026-04-11T11:45:20.058Z</time></trkpt><trkpt lat="45.008375" lon="7.6831233"><ele>220.0</ele><time>2026-04-11T11:45:22.061Z</time></trkpt><trkpt lat="45.00847" lon="7.68302"><ele>220.0</ele><time>2026-04-11T11:45:24.059Z</time></trkpt><trkpt lat="45.0085617" lon="7.6829167"><ele>219.6</ele><time>2026-04-11T11:45:26.06Z</time></trkpt><trkpt lat="45.0086483" lon="7.68282"><ele>219.2</ele><time>2026-04-11T11:45:28.059Z</time></trkpt><trkpt lat="45.0087283" lon="7.6827333"><ele>218.8</ele><time>2026-04-11T11:45:30.059Z</time></trkpt><trkpt lat="45.008815" lon="7.682635"><ele>218.4</ele><time>2026-04-11T11:45:32.06Z</time></trkpt><trkpt lat="45.008905" lon="7.6825567"><ele>218.0</ele><time>2026-04-11T11:45:34.061Z</time></trkpt><trkpt lat="45.00899" lon="7.6824717"><ele>217.8</ele><time>2026-04-11T11:45:36.062Z</time></trkpt><trkpt lat="45.00908" lon="7.6823883"><ele>217.60000000000002</ele><time>2026-04-11T11:45:38.061Z</time></trkpt><trkpt lat="45.0091667" lon="7.6823267"><ele>217.39999999999998</ele><time>2026-04-11T11:45:40.062Z</time></trkpt><trkpt lat="45.009255" lon="7.682255"><ele>217.2</ele><time>2026-04-11T11:45:42.061Z</time></trkpt><trkpt lat="45.0093533" lon="7.682185"><ele>217.0</ele><time>2026-04-11T11:45:44.06Z</time></trkpt><trkpt lat="45.0094583" lon="7.6821133"><ele>216.83333333333331</ele><time>2026-04-11T11:45:46.057Z</time></trkpt><trkpt lat="45.009565" lon="7.6820333"><ele>216.66666666666666</ele><time>2026-04-11T11:45:48.06Z</time></trkpt><trkpt lat="45.009655" lon="7.6819283"><ele>216.5</ele><time>2026-04-11T11:45:50.06Z</time></trkpt><trkpt lat="45.0097033" lon="7.6818683"><ele>216.33333333333331</ele><time>2026-04-11T11:45:51.062Z</time></trkpt><trkpt lat="45.0097517" lon="7.6818033"><ele>216.16666666666666</ele><time>2026-04-11T11:45:52.06Z</time></trkpt><trkpt lat="45.0097967" lon="7.68174"><ele>216.0</ele><time>2026-04-11T11:45:53.062Z</time></trkpt><trkpt lat="45.0098433" lon="7.6816733"><ele>216.8</ele><time>2026-04-11T11:45:54.06Z</time></trkpt><trkpt lat="45.00994" lon="7.681555"><ele>217.60000000000002</ele><time>2026-04-11T11:45:56.061Z</time></trkpt><trkpt lat="45.0099867" lon="7.6814917"><ele>218.4</ele><time>2026-04-11T11:45:57.065Z</time></trkpt><trkpt lat="45.0100783" lon="7.6813733"><ele>219.2</ele><time>2026-04-11T11:45:59.059Z</time></trkpt><trkpt lat="45.0101817" lon="7.6812717"><ele>220.0</ele><time>2026-04-11T11:46:01.061Z</time></trkpt><trkpt lat="45.0102883" lon="7.68119"><ele>220.2</ele><time>2026-04-11T11:46:03.061Z</time></trkpt><trkpt lat="45.01039" lon="7.681115"><ele>220.4</ele><time>2026-04-11T11:46:05.062Z</time></trkpt><trkpt lat="45.0104933" lon="7.6810217"><ele>220.60000000000002</ele><time>2026-04-11T11:46:07.062Z</time></trkpt><trkpt lat="45.0106033" lon="7.6809467"><ele>220.8</ele><time>2026-04-11T11:46:09.062Z</time></trkpt><trkpt lat="45.010665" lon="7.6808967"><ele>221.0</ele><time>2026-04-11T11:46:10.061Z</time></trkpt><trkpt lat="45.0107267" lon="7.68084"><ele>221.14285714285717</ele><time>2026-04-11T11:46:11.062Z</time></trkpt><trkpt lat="45.010785" lon="7.6807817"><ele>221.28571428571428</ele><time>2026-04-11T11:46:12.063Z</time></trkpt><trkpt lat="45.0108433" lon="7.680725"><ele>221.42857142857144</ele><time>2026-04-11T11:46:13.062Z</time></trkpt><trkpt lat="45.0109017" lon="7.6806683"><ele>221.57142857142858</ele><time>2026-04-11T11:46:14.057Z</time></trkpt><trkpt lat="45.01096" lon="7.6806083"><ele>221.71428571428572</ele><time>2026-04-11T11:46:15.062Z</time></trkpt><trkpt lat="45.0110167" lon="7.6805533"><ele>221.85714285714286</ele><time>2026-04-11T11:46:16.063Z</time></trkpt><trkpt lat="45.01107" lon="7.6805033"><ele>222.0</ele><time>2026-04-11T11:46:17.06Z</time></trkpt><trkpt lat="45.011125" lon="7.6804567"><ele>222.0</ele><time>2026-04-11T11:46:18.063Z</time></trkpt><trkpt lat="45.0112383" lon="7.68039"><ele>222.0</ele><time>2026-04-11T11:46:20.061Z</time></trkpt><trkpt lat="45.01133" lon="7.6803"><ele>222.0</ele><time>2026-04-11T11:46:22.062Z</time></trkpt><trkpt lat="45.011415" lon="7.6801917"><ele>222.0</ele><time>2026-04-11T11:46:24.061Z</time></trkpt><trkpt lat="45.0114933" lon="7.68009"><ele>222.0</ele><time>2026-04-11T11:46:26.061Z</time></trkpt><trkpt lat="45.0115767" lon="7.6799833"><ele>222.0</ele><time>2026-04-11T11:46:28.06Z</time></trkpt><trkpt lat="45.0116533" lon="7.6798717"><ele>222.0</ele><time>2026-04-11T11:46:30.061Z</time></trkpt><trkpt lat="45.01173" lon="7.6797683"><ele>222.0</ele><time>2026-04-11T11:46:32.06Z</time></trkpt><trkpt lat="45.011825" lon="7.6796833"><ele>222.0</ele><time>2026-04-11T11:46:34.06Z</time></trkpt><trkpt lat="45.0119283" lon="7.6796133"><ele>222.0</ele><time>2026-04-11T11:46:36.059Z</time></trkpt><trkpt lat="45.012035" lon="7.6795483"><ele>222.0</ele><time>2026-04-11T11:46:38.061Z</time></trkpt><trkpt lat="45.0121383" lon="7.6794817"><ele>222.0</ele><time>2026-04-11T11:46:40.061Z</time></trkpt><trkpt lat="45.01223" lon="7.6794167"><ele>222.0</ele><time>2026-04-11T11:46:42.063Z</time></trkpt><trkpt lat="45.012295" lon="7.6793367"><ele>222.0</ele><time>2026-04-11T11:46:44.064Z</time></trkpt><trkpt lat="45.012365" lon="7.6792467"><ele>222.0</ele><time>2026-04-11T11:46:46.061Z</time></trkpt><trkpt lat="45.01246" lon="7.6791617"><ele>222.0</ele><time>2026-04-11T11:46:48.063Z</time></trkpt><trkpt lat="45.0125583" lon="7.6790933"><ele>222.0</ele><time>2026-04-11T11:46:50.06Z</time></trkpt><trkpt lat="45.0126667" lon="7.67904"><ele>222.0</ele><time>2026-04-11T11:46:52.061Z</time></trkpt><trkpt lat="45.0127783" lon="7.6789967"><ele>221.66666666666666</ele><time>2026-04-11T11:46:54.058Z</time></trkpt><trkpt lat="45.0128983" lon="7.6789533"><ele>221.33333333333331</ele><time>2026-04-11T11:46:56.059Z</time></trkpt><trkpt lat="45.0130133" lon="7.6789033"><ele>221.0</ele><time>2026-04-11T11:46:58.061Z</time></trkpt><trkpt lat="45.013075" lon="7.67888"><ele>220.66666666666666</ele><time>2026-04-11T11:46:59.059Z</time></trkpt><trkpt lat="45.01314" lon="7.6788567"><ele>220.33333333333331</ele><time>2026-04-11T11:47:00.062Z</time></trkpt><trkpt lat="45.0132" lon="7.678825"><ele>220.0</ele><time>2026-04-11T11:47:01.062Z</time></trkpt><trkpt lat="45.0132583" lon="7.6787817"><ele>219.6</ele><time>2026-04-11T11:47:02.061Z</time></trkpt><trkpt lat="45.0133583" lon="7.6786833"><ele>219.2</ele><time>2026-04-11T11:47:04.061Z</time></trkpt><trkpt lat="45.0134617" lon="7.6785783"><ele>218.8</ele><time>2026-04-11T11:47:06.061Z</time></trkpt><trkpt lat="45.0135667" lon="7.6784833"><ele>218.4</ele><time>2026-04-11T11:47:08.061Z</time></trkpt><trkpt lat="45.0136217" lon="7.6784383"><ele>218.0</ele><time>2026-04-11T11:47:09.063Z</time></trkpt><trkpt lat="45.0137233" lon="7.6783467"><ele>218.0</ele><time>2026-04-11T11:47:11.061Z</time></trkpt><trkpt lat="45.013825" lon="7.6782717"><ele>218.0</ele><time>2026-04-11T11:47:13.063Z</time></trkpt><trkpt lat="45.0139317" lon="7.6781783"><ele>218.0</ele><time>2026-04-11T11:47:15.062Z</time></trkpt><trkpt lat="45.0139883" lon="7.678135"><ele>218.0</ele><time>2026-04-11T11:47:16.061Z</time></trkpt><trkpt lat="45.0140933" lon="7.6780517"><ele>218.0</ele><time>2026-04-11T11:47:18.059Z</time></trkpt><trkpt lat="45.0141967" lon="7.6779633"><ele>218.66666666666669</ele><time>2026-04-11T11:47:20.06Z</time></trkpt><trkpt lat="45.0143" lon="7.6778633"><ele>219.33333333333334</ele><time>2026-04-11T11:47:22.06Z</time></trkpt><trkpt lat="45.0143483" lon="7.677805"><ele>220.0</ele><time>2026-04-11T11:47:23.058Z</time></trkpt><trkpt lat="45.014395" lon="7.6777417"><ele>220.66666666666669</ele><time>2026-04-11T11:47:24.061Z</time></trkpt><trkpt lat="45.0144817" lon="7.677625"><ele>221.33333333333334</ele><time>2026-04-11T11:47:26.06Z</time></trkpt><trkpt lat="45.0145317" lon="7.67757"><ele>222.0</ele><time>2026-04-11T11:47:27.063Z</time></trkpt><trkpt lat="45.0145833" lon="7.6775133"><ele>222.0</ele><time>2026-04-11T11:47:28.059Z</time></trkpt><trkpt lat="45.014685" lon="7.6774167"><ele>222.0</ele><time>2026-04-11T11:47:30.061Z</time></trkpt><trkpt lat="45.0147733" lon="7.6773183"><ele>222.0</ele><time>2026-04-11T11:47:32.061Z</time></trkpt><trkpt lat="45.0148683" lon="7.677215"><ele>222.0</ele><time>2026-04-11T11:47:34.062Z</time></trkpt><trkpt lat="45.0149683" lon="7.6771133"><ele>222.39999999999998</ele><time>2026-04-11T11:47:36.061Z</time></trkpt><trkpt lat="45.0150717" lon="7.67701"><ele>222.79999999999998</ele><time>2026-04-11T11:47:38.06Z</time></trkpt><trkpt lat="45.0151717" lon="7.6769067"><ele>223.2</ele><time>2026-04-11T11:47:40.065Z</time></trkpt><trkpt lat="45.0152217" lon="7.67684"><ele>223.6</ele><time>2026-04-11T11:47:41.06Z</time></trkpt><trkpt lat="45.0152683" lon="7.6767667"><ele>224.0</ele><time>2026-04-11T11:47:42.059Z</time></trkpt><trkpt lat="45.01534" lon="7.6766367"><ele>224.0</ele><time>2026-04-11T11:47:44.061Z</time></trkpt><trkpt lat="45.0154133" lon="7.6765"><ele>223.99999999999997</ele><time>2026-04-11T11:47:46.062Z</time></trkpt><trkpt lat="45.0155117" lon="7.6763883"><ele>223.99999999999997</ele><time>2026-04-11T11:47:48.061Z</time></trkpt><trkpt lat="45.01557" lon="7.676335"><ele>224.0</ele><time>2026-04-11T11:47:49.06Z</time></trkpt><trkpt lat="45.0156267" lon="7.6762767"><ele>224.0</ele><time>2026-04-11T11:47:50.06Z</time></trkpt><trkpt lat="45.0156783" lon="7.6762117"><ele>224.00000000000003</ele><time>2026-04-11T11:47:51.062Z</time></trkpt><trkpt lat="45.01573" lon="7.6761467"><ele>224.0</ele><time>2026-04-11T11:47:52.06Z</time></trkpt><trkpt lat="45.0157767" lon="7.676085"><ele>224.0</ele><time>2026-04-11T11:47:53.06Z</time></trkpt><trkpt lat="45.0158233" lon="7.676025"><ele>224.0</ele><time>2026-04-11T11:47:54.061Z</time></trkpt><trkpt lat="45.01587" lon="7.675965"><ele>224.00000000000003</ele><time>2026-04-11T11:47:55.061Z</time></trkpt><trkpt lat="45.01596" lon="7.6758483"><ele>224.0</ele><time>2026-04-11T11:47:57.062Z</time></trkpt><trkpt lat="45.0160483" lon="7.6757317"><ele>223.79999999999998</ele><time>2026-04-11T11:47:59.063Z</time></trkpt><trkpt lat="45.0160967" lon="7.6756683"><ele>223.59999999999997</ele><time>2026-04-11T11:48:00.06Z</time></trkpt><trkpt lat="45.01617" lon="7.675555"><ele>223.4</ele><time>2026-04-11T11:48:02.06Z</time></trkpt><trkpt lat="45.01626" lon="7.675465"><ele>223.2</ele><time>2026-04-11T11:48:04.061Z</time></trkpt><trkpt lat="45.016345" lon="7.6753683"><ele>223.0</ele><time>2026-04-11T11:48:06.061Z</time></trkpt><trkpt lat="45.01642" lon="7.6752583"><ele>223.0</ele><time>2026-04-11T11:48:08.061Z</time></trkpt><trkpt lat="45.0165217" lon="7.6751983"><ele>223.0</ele><time>2026-04-11T11:48:10.061Z</time></trkpt><trkpt lat="45.0166267" lon="7.6751283"><ele>223.0</ele><time>2026-04-11T11:48:12.06Z</time></trkpt><trkpt lat="45.0167267" lon="7.67505"><ele>223.0</ele><time>2026-04-11T11:48:14.061Z</time></trkpt><trkpt lat="45.016835" lon="7.6749733"><ele>222.8</ele><time>2026-04-11T11:48:16.062Z</time></trkpt><trkpt lat="45.0169383" lon="7.67486"><ele>222.60000000000002</ele><time>2026-04-11T11:48:18.06Z</time></trkpt><trkpt lat="45.0169933" lon="7.6748083"><ele>222.39999999999998</ele><time>2026-04-11T11:48:19.06Z</time></trkpt><trkpt lat="45.0170483" lon="7.6747533"><ele>222.2</ele><time>2026-04-11T11:48:20.06Z</time></trkpt><trkpt lat="45.0171467" lon="7.6746633"><ele>222.0</ele><time>2026-04-11T11:48:22.06Z</time></trkpt><trkpt lat="45.017255" lon="7.6745717"><ele>222.0</ele><time>2026-04-11T11:48:24.062Z</time></trkpt><trkpt lat="45.0173117" lon="7.6745267"><ele>222.0</ele><time>2026-04-11T11:48:25.06Z</time></trkpt><trkpt lat="45.0173933" lon="7.6744167"><ele>222.0</ele><time>2026-04-11T11:48:27.061Z</time></trkpt><trkpt lat="45.0174233" lon="7.6742683"><ele>222.0</ele><time>2026-04-11T11:48:29.059Z</time></trkpt><trkpt lat="45.0174633" lon="7.674145"><ele>222.0</ele><time>2026-04-11T11:48:31.062Z</time></trkpt><trkpt lat="45.0175167" lon="7.6740483"><ele>222.0</ele><time>2026-04-11T11:48:33.06Z</time></trkpt><trkpt lat="45.0175467" lon="7.6739517"><ele>222.0</ele><time>2026-04-11T11:48:35.059Z</time></trkpt><trkpt lat="45.01756" lon="7.6738483"><ele>222.0</ele><time>2026-04-11T11:48:37.061Z</time></trkpt><trkpt lat="45.0175567" lon="7.6737233"><ele>222.0</ele><time>2026-04-11T11:48:40.059Z</time></trkpt><trkpt lat="45.0175617" lon="7.673585"><ele>222.0</ele><time>2026-04-11T11:48:43.062Z</time></trkpt><trkpt lat="45.01757" lon="7.6734717"><ele>222.0</ele><time>2026-04-11T11:48:45.061Z</time></trkpt><trkpt lat="45.01757" lon="7.67336"><ele>222.0</ele><time>2026-04-11T11:48:47.062Z</time></trkpt><trkpt lat="45.01758" lon="7.6732483"><ele>222.0</ele><time>2026-04-11T11:48:49.062Z</time></trkpt><trkpt lat="45.0175883" lon="7.6731317"><ele>222.0</ele><time>2026-04-11T11:48:51.06Z</time></trkpt><trkpt lat="45.01759" lon="7.6730067"><ele>222.0</ele><time>2026-04-11T11:48:53.061Z</time></trkpt><trkpt lat="45.0175933" lon="7.672875"><ele>222.0</ele><time>2026-04-11T11:48:55.059Z</time></trkpt><trkpt lat="45.017605" lon="7.672745"><ele>222.0</ele><time>2026-04-11T11:48:57.061Z</time></trkpt><trkpt lat="45.017615" lon="7.6726333"><ele>223.0</ele><time>2026-04-11T11:48:59.06Z</time></trkpt><trkpt lat="45.0177117" lon="7.6726133"><ele>224.0</ele><time>2026-04-11T11:49:02.06Z</time></trkpt><trkpt lat="45.0178167" lon="7.6726517"><ele>225.0</ele><time>2026-04-11T11:49:04.065Z</time></trkpt><trkpt lat="45.0179217" lon="7.6726717"><ele>226.0</ele><time>2026-04-11T11:49:06.062Z</time></trkpt><trkpt lat="45.0180333" lon="7.672695"><ele>227.0</ele><time>2026-04-11T11:49:08.063Z</time></trkpt><trkpt lat="45.01814" lon="7.6727083"><ele>227.0</ele><time>2026-04-11T11:49:10.061Z</time></trkpt><trkpt lat="45.01825" lon="7.6727267"><ele>227.0</ele><time>2026-04-11T11:49:12.06Z</time></trkpt><trkpt lat="45.018365" lon="7.672735"><ele>227.0</ele><time>2026-04-11T11:49:14.06Z</time></trkpt><trkpt lat="45.0184783" lon="7.6727483"><ele>227.0</ele><time>2026-04-11T11:49:16.061Z</time></trkpt><trkpt lat="45.018595" lon="7.6727717"><ele>225.8</ele><time>2026-04-11T11:49:18.061Z</time></trkpt><trkpt lat="45.01871" lon="7.6727917"><ele>224.6</ele><time>2026-04-11T11:49:20.059Z</time></trkpt><trkpt lat="45.0187733" lon="7.6727983"><ele>223.40000000000003</ele><time>2026-04-11T11:49:21.061Z</time></trkpt><trkpt lat="45.018895" lon="7.6728167"><ele>222.20000000000002</ele><time>2026-04-11T11:49:23.062Z</time></trkpt><trkpt lat="45.0190183" lon="7.6728283"><ele>221.0</ele><time>2026-04-11T11:49:25.061Z</time></trkpt><trkpt lat="45.0190817" lon="7.6728283"><ele>221.00000000000003</ele><time>2026-04-11T11:49:26.062Z</time></trkpt><trkpt lat="45.019145" lon="7.67284"><ele>221.0</ele><time>2026-04-11T11:49:27.062Z</time></trkpt><trkpt lat="45.0192717" lon="7.672855"><ele>221.0</ele><time>2026-04-11T11:49:29.059Z</time></trkpt><trkpt lat="45.0193367" lon="7.6728633"><ele>221.0</ele><time>2026-04-11T11:49:30.06Z</time></trkpt><trkpt lat="45.0194017" lon="7.6728717"><ele>221.00000000000003</ele><time>2026-04-11T11:49:31.061Z</time></trkpt><trkpt lat="45.0194667" lon="7.6728817"><ele>221.0</ele><time>2026-04-11T11:49:32.061Z</time></trkpt><trkpt lat="45.0195333" lon="7.6728917"><ele>221.2857142857143</ele><time>2026-04-11T11:49:33.064Z</time></trkpt><trkpt lat="45.0196017" lon="7.6728983"><ele>221.57142857142858</ele><time>2026-04-11T11:49:34.058Z</time></trkpt><trkpt lat="45.0196717" lon="7.6729083"><ele>221.85714285714286</ele><time>2026-04-11T11:49:35.058Z</time></trkpt><trkpt lat="45.0197383" lon="7.67292"><ele>222.14285714285717</ele><time>2026-04-11T11:49:36.06Z</time></trkpt><trkpt lat="45.019805" lon="7.672925"><ele>222.42857142857142</ele><time>2026-04-11T11:49:37.061Z</time></trkpt><trkpt lat="45.01987" lon="7.67293"><ele>222.71428571428572</ele><time>2026-04-11T11:49:38.059Z</time></trkpt><trkpt lat="45.0199367" lon="7.67294"><ele>223.0</ele><time>2026-04-11T11:49:39.064Z</time></trkpt><trkpt lat="45.020005" lon="7.6729467"><ele>223.0</ele><time>2026-04-11T11:49:40.061Z</time></trkpt><trkpt lat="45.0200683" lon="7.6729583"><ele>223.0</ele><time>2026-04-11T11:49:41.06Z</time></trkpt><trkpt lat="45.020135" lon="7.6729617"><ele>223.0</ele><time>2026-04-11T11:49:42.06Z</time></trkpt><trkpt lat="45.0202017" lon="7.6729733"><ele>223.0</ele><time>2026-04-11T11:49:43.06Z</time></trkpt><trkpt lat="45.0202717" lon="7.6729833"><ele>223.0</ele><time>2026-04-11T11:49:44.062Z</time></trkpt><trkpt lat="45.0203367" lon="7.672995"><ele>223.0</ele><time>2026-04-11T11:49:45.061Z</time></trkpt><trkpt lat="45.0204067" lon="7.673005"><ele>223.0</ele><time>2026-04-11T11:49:46.06Z</time></trkpt><trkpt lat="45.0204717" lon="7.6730183"><ele>223.0</ele><time>2026-04-11T11:49:47.061Z</time></trkpt><trkpt lat="45.0205383" lon="7.6730333"><ele>223.0</ele><time>2026-04-11T11:49:48.061Z</time></trkpt><trkpt lat="45.020605" lon="7.673045"><ele>223.0</ele><time>2026-04-11T11:49:49.06Z</time></trkpt><trkpt lat="45.0206733" lon="7.6730483"><ele>223.0</ele><time>2026-04-11T11:49:50.059Z</time></trkpt><trkpt lat="45.020745" lon="7.673055"><ele>223.0</ele><time>2026-04-11T11:49:51.062Z</time></trkpt><trkpt lat="45.02081" lon="7.6730683"><ele>223.0</ele><time>2026-04-11T11:49:52.06Z</time></trkpt><trkpt lat="45.0208733" lon="7.6730783"><ele>223.0</ele><time>2026-04-11T11:49:53.059Z</time></trkpt><trkpt lat="45.0209417" lon="7.67309"><ele>223.16666666666666</ele><time>2026-04-11T11:49:54.063Z</time></trkpt><trkpt lat="45.0210117" lon="7.6731033"><ele>223.33333333333331</ele><time>2026-04-11T11:49:55.062Z</time></trkpt><trkpt lat="45.0210917" lon="7.6731267"><ele>223.5</ele><time>2026-04-11T11:49:56.061Z</time></trkpt><trkpt lat="45.0211683" lon="7.6731533"><ele>223.66666666666669</ele><time>2026-04-11T11:49:57.062Z</time></trkpt><trkpt lat="45.0212433" lon="7.6731767"><ele>223.83333333333334</ele><time>2026-04-11T11:49:58.061Z</time></trkpt><trkpt lat="45.02132" lon="7.6731983"><ele>224.0</ele><time>2026-04-11T11:49:59.061Z</time></trkpt><trkpt lat="45.02139" lon="7.6732217"><ele>224.0</ele><time>2026-04-11T11:50:00.061Z</time></trkpt><trkpt lat="45.02146" lon="7.67324"><ele>224.0</ele><time>2026-04-11T11:50:01.061Z</time></trkpt><trkpt lat="45.0215267" lon="7.6732517"><ele>224.0</ele><time>2026-04-11T11:50:02.061Z</time></trkpt><trkpt lat="45.02159" lon="7.6732667"><ele>224.0</ele><time>2026-04-11T11:50:03.061Z</time></trkpt><trkpt lat="45.0216567" lon="7.6732833"><ele>224.0</ele><time>2026-04-11T11:50:04.06Z</time></trkpt><trkpt lat="45.0217183" lon="7.6733033"><ele>224.0</ele><time>2026-04-11T11:50:05.058Z</time></trkpt><trkpt lat="45.021785" lon="7.6733233"><ele>224.0</ele><time>2026-04-11T11:50:06.061Z</time></trkpt><trkpt lat="45.0218483" lon="7.67334"><ele>224.00000000000003</ele><time>2026-04-11T11:50:07.061Z</time></trkpt><trkpt lat="45.02197" lon="7.6733717"><ele>224.0</ele><time>2026-04-11T11:50:09.059Z</time></trkpt><trkpt lat="45.0220367" lon="7.6733767"><ele>224.0</ele><time>2026-04-11T11:50:10.06Z</time></trkpt><trkpt lat="45.0221" lon="7.6733767"><ele>224.0</ele><time>2026-04-11T11:50:11.06Z</time></trkpt><trkpt lat="45.0221667" lon="7.6733717"><ele>224.00000000000003</ele><time>2026-04-11T11:50:12.059Z</time></trkpt><trkpt lat="45.0222333" lon="7.6733717"><ele>224.0</ele><time>2026-04-11T11:50:13.059Z</time></trkpt><trkpt lat="45.0223017" lon="7.673375"><ele>224.0</ele><time>2026-04-11T11:50:14.061Z</time></trkpt><trkpt lat="45.0223717" lon="7.6733767"><ele>224.0</ele><time>2026-04-11T11:50:15.06Z</time></trkpt><trkpt lat="45.0224433" lon="7.673385"><ele>224.0</ele><time>2026-04-11T11:50:16.061Z</time></trkpt><trkpt lat="45.02251" lon="7.6733967"><ele>224.0</ele><time>2026-04-11T11:50:17.06Z</time></trkpt><trkpt lat="45.0225783" lon="7.6734067"><ele>224.0</ele><time>2026-04-11T11:50:18.06Z</time></trkpt><trkpt lat="45.0226467" lon="7.673415"><ele>224.0</ele><time>2026-04-11T11:50:19.06Z</time></trkpt><trkpt lat="45.0227167" lon="7.673425"><ele>224.0</ele><time>2026-04-11T11:50:20.06Z</time></trkpt><trkpt lat="45.0227817" lon="7.673435"><ele>223.57142857142858</ele><time>2026-04-11T11:50:21.062Z</time></trkpt><trkpt lat="45.0228467" lon="7.67344"><ele>223.14285714285714</ele><time>2026-04-11T11:50:22.061Z</time></trkpt><trkpt lat="45.022915" lon="7.6734383"><ele>222.71428571428572</ele><time>2026-04-11T11:50:23.059Z</time></trkpt><trkpt lat="45.022985" lon="7.6734367"><ele>222.28571428571428</ele><time>2026-04-11T11:50:24.06Z</time></trkpt><trkpt lat="45.0230567" lon="7.67343"><ele>221.85714285714286</ele><time>2026-04-11T11:50:25.06Z</time></trkpt><trkpt lat="45.0231283" lon="7.67342"><ele>221.42857142857144</ele><time>2026-04-11T11:50:26.06Z</time></trkpt><trkpt lat="45.0232" lon="7.6734117"><ele>221.0</ele><time>2026-04-11T11:50:27.061Z</time></trkpt><trkpt lat="45.0232733" lon="7.6734033"><ele>221.57142857142858</ele><time>2026-04-11T11:50:28.061Z</time></trkpt><trkpt lat="45.0233483" lon="7.6733967"><ele>222.14285714285717</ele><time>2026-04-11T11:50:29.059Z</time></trkpt><trkpt lat="45.0234183" lon="7.6733917"><ele>222.71428571428572</ele><time>2026-04-11T11:50:30.063Z</time></trkpt><trkpt lat="45.023485" lon="7.6733867"><ele>223.2857142857143</ele><time>2026-04-11T11:50:31.061Z</time></trkpt><trkpt lat="45.023555" lon="7.6733783"><ele>223.85714285714286</ele><time>2026-04-11T11:50:32.063Z</time></trkpt><trkpt lat="45.0236217" lon="7.6733717"><ele>224.42857142857147</ele><time>2026-04-11T11:50:33.064Z</time></trkpt><trkpt lat="45.0236917" lon="7.6733617"><ele>225.00000000000003</ele><time>2026-04-11T11:50:34.062Z</time></trkpt><trkpt lat="45.0237617" lon="7.6733533"><ele>225.00000000000003</ele><time>2026-04-11T11:50:35.062Z</time></trkpt><trkpt lat="45.0238317" lon="7.67335"><ele>225.0</ele><time>2026-04-11T11:50:36.063Z</time></trkpt><trkpt lat="45.0239017" lon="7.6733583"><ele>225.00000000000003</ele><time>2026-04-11T11:50:37.063Z</time></trkpt><trkpt lat="45.02397" lon="7.673375"><ele>225.00000000000003</ele><time>2026-04-11T11:50:38.062Z</time></trkpt><trkpt lat="45.0240367" lon="7.673395"><ele>225.0</ele><time>2026-04-11T11:50:39.061Z</time></trkpt><trkpt lat="45.024105" lon="7.673415"><ele>225.00000000000003</ele><time>2026-04-11T11:50:40.064Z</time></trkpt><trkpt lat="45.0241733" lon="7.673435"><ele>225.00000000000003</ele><time>2026-04-11T11:50:41.062Z</time></trkpt><trkpt lat="45.0242383" lon="7.6734583"><ele>224.8571428571429</ele><time>2026-04-11T11:50:42.063Z</time></trkpt><trkpt lat="45.0243017" lon="7.6734817"><ele>224.71428571428572</ele><time>2026-04-11T11:50:43.062Z</time></trkpt><trkpt lat="45.0243717" lon="7.673495"><ele>224.57142857142858</ele><time>2026-04-11T11:50:44.061Z</time></trkpt><trkpt lat="45.02444" lon="7.6735117"><ele>224.42857142857144</ele><time>2026-04-11T11:50:45.062Z</time></trkpt><trkpt lat="45.0245117" lon="7.6735317"><ele>224.28571428571428</ele><time>2026-04-11T11:50:46.059Z</time></trkpt><trkpt lat="45.024585" lon="7.67355"><ele>224.14285714285714</ele><time>2026-04-11T11:50:47.059Z</time></trkpt><trkpt lat="45.0246583" lon="7.673565"><ele>224.0</ele><time>2026-04-11T11:50:48.061Z</time></trkpt><trkpt lat="45.0247283" lon="7.6735883"><ele>224.00000000000003</ele><time>2026-04-11T11:50:49.061Z</time></trkpt><trkpt lat="45.0248017" lon="7.6736117"><ele>224.0</ele><time>2026-04-11T11:50:50.061Z</time></trkpt><trkpt lat="45.0248733" lon="7.6736383"><ele>224.0</ele><time>2026-04-11T11:50:51.061Z</time></trkpt><trkpt lat="45.0249417" lon="7.6736667"><ele>224.0</ele><time>2026-04-11T11:50:52.059Z</time></trkpt><trkpt lat="45.0250117" lon="7.6736867"><ele>224.00000000000003</ele><time>2026-04-11T11:50:53.06Z</time></trkpt><trkpt lat="45.0250767" lon="7.6737117"><ele>224.0</ele><time>2026-04-11T11:50:54.06Z</time></trkpt><trkpt lat="45.02519" lon="7.6737233"><ele>223.50000000000003</ele><time>2026-04-11T11:50:56.061Z</time></trkpt><trkpt lat="45.025275" lon="7.673645"><ele>223.0</ele><time>2026-04-11T11:50:58.061Z</time></trkpt><trkpt lat="45.0253083" lon="7.67353"><ele>222.5</ele><time>2026-04-11T11:51:00.06Z</time></trkpt><trkpt lat="45.0253717" lon="7.6734717"><ele>222.0</ele><time>2026-04-11T11:51:02.059Z</time></trkpt><trkpt lat="45.02544" lon="7.6734417"><ele>221.50000000000003</ele><time>2026-04-11T11:51:04.06Z</time></trkpt><trkpt lat="45.0255117" lon="7.6734283"><ele>221.0</ele><time>2026-04-11T11:51:06.061Z</time></trkpt><trkpt lat="45.0256167" lon="7.6734233"><ele>221.0</ele><time>2026-04-11T11:51:08.06Z</time></trkpt><trkpt lat="45.0257333" lon="7.6734017"><ele>221.0</ele><time>2026-04-11T11:51:10.062Z</time></trkpt><trkpt lat="45.0258483" lon="7.6734"><ele>221.0</ele><time>2026-04-11T11:51:12.058Z</time></trkpt><trkpt lat="45.02596" lon="7.6733883"><ele>221.0</ele><time>2026-04-11T11:51:14.06Z</time></trkpt><trkpt lat="45.02607" lon="7.673385"><ele>221.0</ele><time>2026-04-11T11:51:16.06Z</time></trkpt><trkpt lat="45.0261867" lon="7.6733817"><ele>221.00000000000003</ele><time>2026-04-11T11:51:18.059Z</time></trkpt><trkpt lat="45.0263017" lon="7.673375"><ele>221.00000000000003</ele><time>2026-04-11T11:51:20.063Z</time></trkpt><trkpt lat="45.0264217" lon="7.6733433"><ele>221.0</ele><time>2026-04-11T11:51:22.061Z</time></trkpt><trkpt lat="45.026515" lon="7.6733283"><ele>221.0</ele><time>2026-04-11T11:51:24.062Z</time></trkpt><trkpt lat="45.026595" lon="7.6733333"><ele>221.66666666666669</ele><time>2026-04-11T11:51:26.06Z</time></trkpt><trkpt lat="45.02667" lon="7.6733667"><ele>222.33333333333334</ele><time>2026-04-11T11:51:28.061Z</time></trkpt><trkpt lat="45.0267417" lon="7.6734133"><ele>223.0</ele><time>2026-04-11T11:51:30.061Z</time></trkpt><trkpt lat="45.0268133" lon="7.673455"><ele>223.66666666666669</ele><time>2026-04-11T11:51:32.062Z</time></trkpt><trkpt lat="45.0268933" lon="7.6734567"><ele>224.33333333333334</ele><time>2026-04-11T11:51:34.061Z</time></trkpt><trkpt lat="45.0269767" lon="7.6734483"><ele>225.0</ele><time>2026-04-11T11:51:36.061Z</time></trkpt><trkpt lat="45.0270567" lon="7.67342"><ele>225.0</ele><time>2026-04-11T11:51:38.063Z</time></trkpt><trkpt lat="45.0271417" lon="7.6734133"><ele>225.0</ele><time>2026-04-11T11:51:40.061Z</time></trkpt><trkpt lat="45.02722" lon="7.6734267"><ele>225.0</ele><time>2026-04-11T11:51:42.061Z</time></trkpt><trkpt lat="45.0273033" lon="7.6734317"><ele>225.0</ele><time>2026-04-11T11:51:44.063Z</time></trkpt><trkpt lat="45.02738" lon="7.673415"><ele>225.0</ele><time>2026-04-11T11:51:46.06Z</time></trkpt><trkpt lat="45.027465" lon="7.673395"><ele>225.0</ele><time>2026-04-11T11:51:48.063Z</time></trkpt><trkpt lat="45.027555" lon="7.6733817"><ele>224.5</ele><time>2026-04-11T11:51:50.061Z</time></trkpt><trkpt lat="45.027635" lon="7.67336"><ele>224.0</ele><time>2026-04-11T11:51:52.061Z</time></trkpt><trkpt lat="45.0277117" lon="7.6733167"><ele>223.5</ele><time>2026-04-11T11:51:54.061Z</time></trkpt><trkpt lat="45.0277817" lon="7.6732833"><ele>223.0</ele><time>2026-04-11T11:51:57.063Z</time></trkpt><trkpt lat="45.0278483" lon="7.6732383"><ele>222.5</ele><time>2026-04-11T11:52:09.06Z</time></trkpt><trkpt lat="45.02794" lon="7.67322"><ele>222.0</ele><time>2026-04-11T11:52:12.061Z</time></trkpt><trkpt lat="45.028005" lon="7.6732067"><ele>222.0</ele><time>2026-04-11T11:52:14.061Z</time></trkpt><trkpt lat="45.0280767" lon="7.673195"><ele>222.0</ele><time>2026-04-11T11:52:16.062Z</time></trkpt><trkpt lat="45.0281567" lon="7.67319"><ele>222.0</ele><time>2026-04-11T11:52:18.06Z</time></trkpt><trkpt lat="45.02823" lon="7.6731817"><ele>222.0</ele><time>2026-04-11T11:52:20.062Z</time></trkpt><trkpt lat="45.02831" lon="7.6731817"><ele>222.0</ele><time>2026-04-11T11:52:22.062Z</time></trkpt><trkpt lat="45.0283933" lon="7.6731933"><ele>222.0</ele><time>2026-04-11T11:52:24.065Z</time></trkpt><trkpt lat="45.0284833" lon="7.6731983"><ele>222.39999999999998</ele><time>2026-04-11T11:52:26.06Z</time></trkpt><trkpt lat="45.0285833" lon="7.6731933"><ele>222.79999999999998</ele><time>2026-04-11T11:52:28.063Z</time></trkpt><trkpt lat="45.028695" lon="7.6732217"><ele>223.2</ele><time>2026-04-11T11:52:30.061Z</time></trkpt><trkpt lat="45.0288083" lon="7.67325"><ele>223.6</ele><time>2026-04-11T11:52:32.062Z</time></trkpt><trkpt lat="45.02892" lon="7.6732817"><ele>224.0</ele><time>2026-04-11T11:52:34.058Z</time></trkpt><trkpt lat="45.029035" lon="7.6733117"><ele>223.79999999999998</ele><time>2026-04-11T11:52:36.062Z</time></trkpt><trkpt lat="45.0291467" lon="7.6733383"><ele>223.59999999999997</ele><time>2026-04-11T11:52:38.061Z</time></trkpt><trkpt lat="45.029255" lon="7.67336"><ele>223.4</ele><time>2026-04-11T11:52:40.062Z</time></trkpt><trkpt lat="45.0293617" lon="7.67339"><ele>223.2</ele><time>2026-04-11T11:52:42.063Z</time></trkpt><trkpt lat="45.0294683" lon="7.673445"><ele>223.0</ele><time>2026-04-11T11:52:44.061Z</time></trkpt><trkpt lat="45.0295667" lon="7.6735133"><ele>222.99999999999997</ele><time>2026-04-11T11:52:46.062Z</time></trkpt><trkpt lat="45.0296667" lon="7.67357"><ele>223.0</ele><time>2026-04-11T11:52:48.061Z</time></trkpt><trkpt lat="45.0297567" lon="7.6736283"><ele>223.0</ele><time>2026-04-11T11:52:50.063Z</time></trkpt><trkpt lat="45.02983" lon="7.6736683"><ele>223.0</ele><time>2026-04-11T11:52:52.063Z</time></trkpt><trkpt lat="45.0299017" lon="7.6736833"><ele>222.99999999999997</ele><time>2026-04-11T11:52:54.061Z</time></trkpt><trkpt lat="45.0299717" lon="7.6737033"><ele>223.0</ele><time>2026-04-11T11:52:56.064Z</time></trkpt><trkpt lat="45.0300433" lon="7.6737617"><ele>223.0</ele><time>2026-04-11T11:52:58.061Z</time></trkpt><trkpt lat="45.0301217" lon="7.6738433"><ele>223.0</ele><time>2026-04-11T11:53:00.064Z</time></trkpt><trkpt lat="45.0301967" lon="7.6739317"><ele>223.0</ele><time>2026-04-11T11:53:02.06Z</time></trkpt><trkpt lat="45.030275" lon="7.6740233"><ele>223.0</ele><time>2026-04-11T11:53:04.064Z</time></trkpt><trkpt lat="45.03035" lon="7.6741117"><ele>223.0</ele><time>2026-04-11T11:53:06.06Z</time></trkpt><trkpt lat="45.03043" lon="7.6742017"><ele>223.0</ele><time>2026-04-11T11:53:08.063Z</time></trkpt><trkpt lat="45.030515" lon="7.6742933"><ele>223.0</ele><time>2026-04-11T11:53:10.061Z</time></trkpt><trkpt lat="45.0305967" lon="7.6743767"><ele>223.0</ele><time>2026-04-11T11:53:12.061Z</time></trkpt><trkpt lat="45.030675" lon="7.6744633"><ele>223.0</ele><time>2026-04-11T11:53:14.062Z</time></trkpt><trkpt lat="45.03075" lon="7.67456"><ele>223.0</ele><time>2026-04-11T11:53:16.063Z</time></trkpt><trkpt lat="45.03082" lon="7.6746617"><ele>222.8</ele><time>2026-04-11T11:53:18.061Z</time></trkpt><trkpt lat="45.0308833" lon="7.67476"><ele>222.60000000000002</ele><time>2026-04-11T11:53:20.063Z</time></trkpt><trkpt lat="45.0309433" lon="7.67485"><ele>222.39999999999998</ele><time>2026-04-11T11:53:22.062Z</time></trkpt><trkpt lat="45.031" lon="7.6749467"><ele>222.2</ele><time>2026-04-11T11:53:24.063Z</time></trkpt><trkpt lat="45.0310567" lon="7.67505"><ele>222.0</ele><time>2026-04-11T11:53:26.06Z</time></trkpt><trkpt lat="45.0311083" lon="7.67515"><ele>222.0</ele><time>2026-04-11T11:53:28.06Z</time></trkpt><trkpt lat="45.0311617" lon="7.6752333"><ele>222.0</ele><time>2026-04-11T11:53:30.062Z</time></trkpt><trkpt lat="45.0312167" lon="7.6753117"><ele>222.0</ele><time>2026-04-11T11:53:32.059Z</time></trkpt><trkpt lat="45.0312717" lon="7.6753767"><ele>222.0</ele><time>2026-04-11T11:53:34.061Z</time></trkpt><trkpt lat="45.03133" lon="7.6754383"><ele>222.0</ele><time>2026-04-11T11:53:36.062Z</time></trkpt><trkpt lat="45.03139" lon="7.6754933"><ele>222.0</ele><time>2026-04-11T11:53:38.062Z</time></trkpt><trkpt lat="45.0314433" lon="7.6755433"><ele>222.0</ele><time>2026-04-11T11:53:40.062Z</time></trkpt><trkpt lat="45.0315283" lon="7.6756"><ele>221.83333333333334</ele><time>2026-04-11T11:53:43.061Z</time></trkpt><trkpt lat="45.0315917" lon="7.675665"><ele>221.66666666666669</ele><time>2026-04-11T11:53:46.061Z</time></trkpt><trkpt lat="45.0316683" lon="7.67572"><ele>221.5</ele><time>2026-04-11T11:53:49.061Z</time></trkpt><trkpt lat="45.0317233" lon="7.675775"><ele>221.33333333333334</ele><time>2026-04-11T11:53:52.062Z</time></trkpt><trkpt lat="45.0317717" lon="7.67585"><ele>221.16666666666669</ele><time>2026-04-11T11:53:56.061Z</time></trkpt><trkpt lat="45.0318267" lon="7.675935"><ele>221.0</ele><time>2026-04-11T11:54:00.063Z</time></trkpt><trkpt lat="45.031875" lon="7.6760033"><ele>221.60000000000002</ele><time>2026-04-11T11:54:03.064Z</time></trkpt><trkpt lat="45.0319583" lon="7.6760767"><ele>222.20000000000002</ele><time>2026-04-11T11:54:22.058Z</time></trkpt><trkpt lat="45.0320017" lon="7.6761733"><ele>222.79999999999998</ele><time>2026-04-11T11:54:24.062Z</time></trkpt><trkpt lat="45.0320667" lon="7.6762833"><ele>223.39999999999998</ele><time>2026-04-11T11:54:26.063Z</time></trkpt><trkpt lat="45.03214" lon="7.676395"><ele>224.0</ele><time>2026-04-11T11:54:28.061Z</time></trkpt><trkpt lat="45.0322117" lon="7.6765017"><ele>224.0</ele><time>2026-04-11T11:54:30.061Z</time></trkpt><trkpt lat="45.0322917" lon="7.6766017"><ele>223.99999999999997</ele><time>2026-04-11T11:54:32.065Z</time></trkpt><trkpt lat="45.0323733" lon="7.6766867"><ele>223.99999999999997</ele><time>2026-04-11T11:54:34.061Z</time></trkpt><trkpt lat="45.0324567" lon="7.67677"><ele>224.0</ele><time>2026-04-11T11:54:36.061Z</time></trkpt><trkpt lat="45.0325383" lon="7.6768567"><ele>224.0</ele><time>2026-04-11T11:54:38.06Z</time></trkpt><trkpt lat="45.03261" lon="7.6769467"><ele>224.0</ele><time>2026-04-11T11:54:40.06Z</time></trkpt><trkpt lat="45.032685" lon="7.6770367"><ele>223.99999999999997</ele><time>2026-04-11T11:54:42.06Z</time></trkpt><trkpt lat="45.0327717" lon="7.67712"><ele>223.99999999999997</ele><time>2026-04-11T11:54:44.062Z</time></trkpt><trkpt lat="45.0328617" lon="7.6772083"><ele>224.0</ele><time>2026-04-11T11:54:46.061Z</time></trkpt><trkpt lat="45.0329667" lon="7.6772767"><ele>224.0</ele><time>2026-04-11T11:54:48.061Z</time></trkpt><trkpt lat="45.0330717" lon="7.6773433"><ele>224.0</ele><time>2026-04-11T11:54:50.061Z</time></trkpt><trkpt lat="45.0331783" lon="7.67741"><ele>224.0</ele><time>2026-04-11T11:54:52.062Z</time></trkpt><trkpt lat="45.0332883" lon="7.6774633"><ele>224.0</ele><time>2026-04-11T11:54:54.061Z</time></trkpt><trkpt lat="45.0333933" lon="7.677515"><ele>224.0</ele><time>2026-04-11T11:54:56.061Z</time></trkpt><trkpt lat="45.0335" lon="7.6775717"><ele>224.0</ele><time>2026-04-11T11:54:58.061Z</time></trkpt><trkpt lat="45.0336017" lon="7.6776467"><ele>223.99999999999997</ele><time>2026-04-11T11:55:00.061Z</time></trkpt><trkpt lat="45.0337033" lon="7.677765"><ele>223.99999999999997</ele><time>2026-04-11T11:55:02.06Z</time></trkpt><trkpt lat="45.03377" lon="7.6778133"><ele>224.0</ele><time>2026-04-11T11:55:03.063Z</time></trkpt><trkpt lat="45.0338367" lon="7.67786"><ele>224.0</ele><time>2026-04-11T11:55:04.06Z</time></trkpt><trkpt lat="45.033905" lon="7.6778983"><ele>224.0</ele><time>2026-04-11T11:55:05.059Z</time></trkpt><trkpt lat="45.0339733" lon="7.677935"><ele>224.0</ele><time>2026-04-11T11:55:06.06Z</time></trkpt><trkpt lat="45.034045" lon="7.6779667"><ele>224.0</ele><time>2026-04-11T11:55:07.061Z</time></trkpt><trkpt lat="45.0341167" lon="7.67799"><ele>224.0</ele><time>2026-04-11T11:55:08.062Z</time></trkpt><trkpt lat="45.03419" lon="7.678"><ele>224.0</ele><time>2026-04-11T11:55:09.062Z</time></trkpt><trkpt lat="45.03426" lon="7.6780033"><ele>224.0</ele><time>2026-04-11T11:55:10.06Z</time></trkpt><trkpt lat="45.03433" lon="7.6780033"><ele>224.0</ele><time>2026-04-11T11:55:11.059Z</time></trkpt><trkpt lat="45.0344" lon="7.6780017"><ele>224.14285714285714</ele><time>2026-04-11T11:55:12.061Z</time></trkpt><trkpt lat="45.0344683" lon="7.6779933"><ele>224.28571428571428</ele><time>2026-04-11T11:55:13.061Z</time></trkpt><trkpt lat="45.0345367" lon="7.6779783"><ele>224.42857142857144</ele><time>2026-04-11T11:55:14.059Z</time></trkpt><trkpt lat="45.034605" lon="7.6779617"><ele>224.57142857142858</ele><time>2026-04-11T11:55:15.061Z</time></trkpt><trkpt lat="45.0346717" lon="7.6779417"><ele>224.71428571428572</ele><time>2026-04-11T11:55:16.06Z</time></trkpt><trkpt lat="45.0347383" lon="7.67792"><ele>224.8571428571429</ele><time>2026-04-11T11:55:17.06Z</time></trkpt><trkpt lat="45.0348067" lon="7.6778983"><ele>225.00000000000003</ele><time>2026-04-11T11:55:18.061Z</time></trkpt><trkpt lat="45.03487" lon="7.6778833"><ele>225.00000000000003</ele><time>2026-04-11T11:55:19.061Z</time></trkpt><trkpt lat="45.034935" lon="7.6778667"><ele>225.0</ele><time>2026-04-11T11:55:20.062Z</time></trkpt><trkpt lat="45.035005" lon="7.677845"><ele>225.00000000000003</ele><time>2026-04-11T11:55:21.063Z</time></trkpt><trkpt lat="45.0350717" lon="7.67782"><ele>225.00000000000003</ele><time>2026-04-11T11:55:22.061Z</time></trkpt><trkpt lat="45.0351417" lon="7.6777883"><ele>225.0</ele><time>2026-04-11T11:55:23.061Z</time></trkpt><trkpt lat="45.03521" lon="7.67775"><ele>225.00000000000003</ele><time>2026-04-11T11:55:24.061Z</time></trkpt><trkpt lat="45.0352783" lon="7.6777067"><ele>225.00000000000003</ele><time>2026-04-11T11:55:25.061Z</time></trkpt><trkpt lat="45.0353467" lon="7.6776717"><ele>224.8</ele><time>2026-04-11T11:55:26.06Z</time></trkpt><trkpt lat="45.0354133" lon="7.6776283"><ele>224.6</ele><time>2026-04-11T11:55:27.062Z</time></trkpt><trkpt lat="45.0354767" lon="7.67758"><ele>224.39999999999998</ele><time>2026-04-11T11:55:28.06Z</time></trkpt><trkpt lat="45.03559" lon="7.67751"><ele>224.2</ele><time>2026-04-11T11:55:30.062Z</time></trkpt><trkpt lat="45.0357083" lon="7.6774433"><ele>224.0</ele><time>2026-04-11T11:55:32.061Z</time></trkpt><trkpt lat="45.0357667" lon="7.6774083"><ele>224.16666666666669</ele><time>2026-04-11T11:55:33.061Z</time></trkpt><trkpt lat="45.03583" lon="7.6773783"><ele>224.33333333333334</ele><time>2026-04-11T11:55:34.061Z</time></trkpt><trkpt lat="45.0358933" lon="7.6773517"><ele>224.5</ele><time>2026-04-11T11:55:35.061Z</time></trkpt><trkpt lat="45.0359567" lon="7.6773267"><ele>224.66666666666669</ele><time>2026-04-11T11:55:36.062Z</time></trkpt><trkpt lat="45.0360783" lon="7.6772667"><ele>224.83333333333334</ele><time>2026-04-11T11:55:38.061Z</time></trkpt><trkpt lat="45.03614" lon="7.6772433"><ele>225.0</ele><time>2026-04-11T11:55:39.064Z</time></trkpt><trkpt lat="45.0362033" lon="7.6772183"><ele>225.00000000000003</ele><time>2026-04-11T11:55:40.062Z</time></trkpt><trkpt lat="45.03627" lon="7.6771883"><ele>225.0</ele><time>2026-04-11T11:55:41.06Z</time></trkpt><trkpt lat="45.036335" lon="7.6771633"><ele>225.00000000000003</ele><time>2026-04-11T11:55:42.063Z</time></trkpt><trkpt lat="45.0364" lon="7.6771383"><ele>225.00000000000003</ele><time>2026-04-11T11:55:43.062Z</time></trkpt><trkpt lat="45.036465" lon="7.6771183"><ele>225.0</ele><time>2026-04-11T11:55:44.06Z</time></trkpt><trkpt lat="45.0365317" lon="7.6771067"><ele>225.00000000000003</ele><time>2026-04-11T11:55:45.063Z</time></trkpt><trkpt lat="45.0365967" lon="7.6770967"><ele>225.00000000000003</ele><time>2026-04-11T11:55:46.061Z</time></trkpt><trkpt lat="45.036665" lon="7.6770717"><ele>224.71428571428575</ele><time>2026-04-11T11:55:47.062Z</time></trkpt><trkpt lat="45.0367333" lon="7.6770483"><ele>224.42857142857144</ele><time>2026-04-11T11:55:48.06Z</time></trkpt><trkpt lat="45.0368017" lon="7.6770283"><ele>224.14285714285717</ele><time>2026-04-11T11:55:49.061Z</time></trkpt><trkpt lat="45.03687" lon="7.67701"><ele>223.8571428571429</ele><time>2026-04-11T11:55:50.061Z</time></trkpt><trkpt lat="45.03694" lon="7.677"><ele>223.57142857142856</ele><time>2026-04-11T11:55:51.06Z</time></trkpt><trkpt lat="45.03701" lon="7.67699"><ele>223.28571428571428</ele><time>2026-04-11T11:55:52.063Z</time></trkpt><trkpt lat="45.0370817" lon="7.6769767"><ele>223.0</ele><time>2026-04-11T11:55:53.063Z</time></trkpt><trkpt lat="45.0371517" lon="7.6769567"><ele>223.0</ele><time>2026-04-11T11:55:54.061Z</time></trkpt><trkpt lat="45.0372183" lon="7.676935"><ele>223.0</ele><time>2026-04-11T11:55:55.061Z</time></trkpt><trkpt lat="45.0372817" lon="7.6769117"><ele>223.0</ele><time>2026-04-11T11:55:56.062Z</time></trkpt><trkpt lat="45.0373433" lon="7.6768867"><ele>223.0</ele><time>2026-04-11T11:55:57.061Z</time></trkpt><trkpt lat="45.0374067" lon="7.676865"><ele>223.0</ele><time>2026-04-11T11:55:58.061Z</time></trkpt><trkpt lat="45.0374717" lon="7.6768483"><ele>223.0</ele><time>2026-04-11T11:55:59.062Z</time></trkpt><trkpt lat="45.0375383" lon="7.6768267"><ele>223.0</ele><time>2026-04-11T11:56:00.063Z</time></trkpt><trkpt lat="45.037605" lon="7.6768117"><ele>223.0</ele><time>2026-04-11T11:56:01.062Z</time></trkpt><trkpt lat="45.037675" lon="7.6767967"><ele>223.0</ele><time>2026-04-11T11:56:02.062Z</time></trkpt><trkpt lat="45.0377483" lon="7.6767833"><ele>223.0</ele><time>2026-04-11T11:56:03.064Z</time></trkpt><trkpt lat="45.0378167" lon="7.676765"><ele>223.0</ele><time>2026-04-11T11:56:04.062Z</time></trkpt><trkpt lat="45.0378867" lon="7.676745"><ele>223.0</ele><time>2026-04-11T11:56:05.06Z</time></trkpt><trkpt lat="45.03795" lon="7.6767317"><ele>223.0</ele><time>2026-04-11T11:56:06.061Z</time></trkpt><trkpt lat="45.0380167" lon="7.6767233"><ele>223.0</ele><time>2026-04-11T11:56:07.062Z</time></trkpt><trkpt lat="45.038085" lon="7.6767167"><ele>223.0</ele><time>2026-04-11T11:56:08.058Z</time></trkpt><trkpt lat="45.0381567" lon="7.6767133"><ele>223.0</ele><time>2026-04-11T11:56:09.059Z</time></trkpt><trkpt lat="45.0382233" lon="7.676715"><ele>223.0</ele><time>2026-04-11T11:56:10.063Z</time></trkpt><trkpt lat="45.0382883" lon="7.6767167"><ele>223.0</ele><time>2026-04-11T11:56:11.062Z</time></trkpt><trkpt lat="45.0383517" lon="7.6767167"><ele>223.0</ele><time>2026-04-11T11:56:12.061Z</time></trkpt><trkpt lat="45.038415" lon="7.67672"><ele>223.0</ele><time>2026-04-11T11:56:13.061Z</time></trkpt><trkpt lat="45.0384783" lon="7.676715"><ele>223.0</ele><time>2026-04-11T11:56:14.064Z</time></trkpt><trkpt lat="45.038545" lon="7.6767117"><ele>223.28571428571428</ele><time>2026-04-11T11:56:15.064Z</time></trkpt><trkpt lat="45.0386117" lon="7.6767083"><ele>223.57142857142856</ele><time>2026-04-11T11:56:16.062Z</time></trkpt><trkpt lat="45.0386817" lon="7.676705"><ele>223.8571428571429</ele><time>2026-04-11T11:56:17.062Z</time></trkpt><trkpt lat="45.0387483" lon="7.6767083"><ele>224.14285714285717</ele><time>2026-04-11T11:56:18.062Z</time></trkpt><trkpt lat="45.0388167" lon="7.676715"><ele>224.42857142857144</ele><time>2026-04-11T11:56:19.063Z</time></trkpt><trkpt lat="45.038885" lon="7.6767217"><ele>224.71428571428575</ele><time>2026-04-11T11:56:20.062Z</time></trkpt><trkpt lat="45.0389483" lon="7.6767317"><ele>225.00000000000003</ele><time>2026-04-11T11:56:21.063Z</time></trkpt><trkpt lat="45.0390133" lon="7.676735"><ele>225.00000000000003</ele><time>2026-04-11T11:56:22.061Z</time></trkpt><trkpt lat="45.0390817" lon="7.676735"><ele>225.0</ele><time>2026-04-11T11:56:23.061Z</time></trkpt><trkpt lat="45.03915" lon="7.6767367"><ele>225.00000000000003</ele><time>2026-04-11T11:56:24.063Z</time></trkpt><trkpt lat="45.039215" lon="7.6767367"><ele>225.00000000000003</ele><time>2026-04-11T11:56:25.062Z</time></trkpt><trkpt lat="45.0392833" lon="7.6767367"><ele>225.0</ele><time>2026-04-11T11:56:26.061Z</time></trkpt><trkpt lat="45.03935" lon="7.67674"><ele>225.00000000000003</ele><time>2026-04-11T11:56:27.062Z</time></trkpt><trkpt lat="45.0394133" lon="7.6767467"><ele>225.00000000000003</ele><time>2026-04-11T11:56:28.061Z</time></trkpt><trkpt lat="45.039535" lon="7.6767767"><ele>225.28571428571433</ele><time>2026-04-11T11:56:30.061Z</time></trkpt><trkpt lat="45.0396" lon="7.6767867"><ele>225.57142857142858</ele><time>2026-04-11T11:56:31.062Z</time></trkpt><trkpt lat="45.0396667" lon="7.6767967"><ele>225.8571428571429</ele><time>2026-04-11T11:56:32.06Z</time></trkpt><trkpt lat="45.0397317" lon="7.67681"><ele>226.14285714285717</ele><time>2026-04-11T11:56:33.061Z</time></trkpt><trkpt lat="45.039795" lon="7.6768333"><ele>226.42857142857144</ele><time>2026-04-11T11:56:34.058Z</time></trkpt><trkpt lat="45.03986" lon="7.6768567"><ele>226.71428571428572</ele><time>2026-04-11T11:56:35.059Z</time></trkpt><trkpt lat="45.039925" lon="7.6768867"><ele>227.0</ele><time>2026-04-11T11:56:36.06Z</time></trkpt><trkpt lat="45.03999" lon="7.6769167"><ele>226.57142857142858</ele><time>2026-04-11T11:56:37.063Z</time></trkpt><trkpt lat="45.0400533" lon="7.6769383"><ele>226.14285714285717</ele><time>2026-04-11T11:56:38.062Z</time></trkpt><trkpt lat="45.04012" lon="7.6769633"><ele>225.71428571428572</ele><time>2026-04-11T11:56:39.063Z</time></trkpt><trkpt lat="45.0401833" lon="7.6769933"><ele>225.28571428571428</ele><time>2026-04-11T11:56:40.061Z</time></trkpt><trkpt lat="45.040245" lon="7.6770167"><ele>224.85714285714286</ele><time>2026-04-11T11:56:41.065Z</time></trkpt><trkpt lat="45.0403083" lon="7.677045"><ele>224.42857142857144</ele><time>2026-04-11T11:56:42.062Z</time></trkpt><trkpt lat="45.04037" lon="7.6770833"><ele>224.0</ele><time>2026-04-11T11:56:43.064Z</time></trkpt><trkpt lat="45.0404333" lon="7.6771117"><ele>224.0</ele><time>2026-04-11T11:56:44.061Z</time></trkpt><trkpt lat="45.0405" lon="7.6771367"><ele>224.0</ele><time>2026-04-11T11:56:45.062Z</time></trkpt><trkpt lat="45.0405667" lon="7.6771583"><ele>224.0</ele><time>2026-04-11T11:56:46.062Z</time></trkpt><trkpt lat="45.040635" lon="7.677175"><ele>224.0</ele><time>2026-04-11T11:56:47.061Z</time></trkpt><trkpt lat="45.0407017" lon="7.6771933"><ele>224.0</ele><time>2026-04-11T11:56:48.063Z</time></trkpt><trkpt lat="45.040765" lon="7.6772233"><ele>224.0</ele><time>2026-04-11T11:56:49.062Z</time></trkpt><trkpt lat="45.0408267" lon="7.677255"><ele>224.0</ele><time>2026-04-11T11:56:50.063Z</time></trkpt><trkpt lat="45.0408883" lon="7.677285"><ele>224.28571428571428</ele><time>2026-04-11T11:56:51.061Z</time></trkpt><trkpt lat="45.0409517" lon="7.677315"><ele>224.57142857142856</ele><time>2026-04-11T11:56:52.061Z</time></trkpt><trkpt lat="45.0410117" lon="7.6773533"><ele>224.85714285714286</ele><time>2026-04-11T11:56:53.061Z</time></trkpt><trkpt lat="45.04107" lon="7.6773967"><ele>225.14285714285714</ele><time>2026-04-11T11:56:54.06Z</time></trkpt><trkpt lat="45.04113" lon="7.6774433"><ele>225.42857142857142</ele><time>2026-04-11T11:56:55.06Z</time></trkpt><trkpt lat="45.0411917" lon="7.6774933"><ele>225.71428571428572</ele><time>2026-04-11T11:56:56.06Z</time></trkpt><trkpt lat="45.041255" lon="7.6775333"><ele>226.0</ele><time>2026-04-11T11:56:57.062Z</time></trkpt><trkpt lat="45.0413183" lon="7.677575"><ele>226.0</ele><time>2026-04-11T11:56:58.056Z</time></trkpt><trkpt lat="45.0413817" lon="7.6776233"><ele>226.0</ele><time>2026-04-11T11:56:59.06Z</time></trkpt><trkpt lat="45.0414433" lon="7.6776667"><ele>226.0</ele><time>2026-04-11T11:57:00.06Z</time></trkpt><trkpt lat="45.04151" lon="7.6777033"><ele>226.0</ele><time>2026-04-11T11:57:01.063Z</time></trkpt><trkpt lat="45.04157" lon="7.67774"><ele>226.0</ele><time>2026-04-11T11:57:02.059Z</time></trkpt><trkpt lat="45.0416267" lon="7.6777933"><ele>226.0</ele><time>2026-04-11T11:57:03.066Z</time></trkpt><trkpt lat="45.0416833" lon="7.67784"><ele>226.0</ele><time>2026-04-11T11:57:04.058Z</time></trkpt><trkpt lat="45.041735" lon="7.6778917"><ele>225.66666666666666</ele><time>2026-04-11T11:57:05.058Z</time></trkpt><trkpt lat="45.0417883" lon="7.67794"><ele>225.33333333333331</ele><time>2026-04-11T11:57:06.062Z</time></trkpt><trkpt lat="45.0418383" lon="7.6779967"><ele>225.0</ele><time>2026-04-11T11:57:07.061Z</time></trkpt><trkpt lat="45.0418917" lon="7.6780467"><ele>224.66666666666669</ele><time>2026-04-11T11:57:08.06Z</time></trkpt><trkpt lat="45.04199" lon="7.67814"><ele>224.33333333333334</ele><time>2026-04-11T11:57:10.062Z</time></trkpt><trkpt lat="45.0420883" lon="7.6782533"><ele>224.0</ele><time>2026-04-11T11:57:12.061Z</time></trkpt><trkpt lat="45.0421483" lon="7.6783117"><ele>224.0</ele><time>2026-04-11T11:57:13.061Z</time></trkpt><trkpt lat="45.0421983" lon="7.6783733"><ele>224.0</ele><time>2026-04-11T11:57:14.061Z</time></trkpt><trkpt lat="45.0422483" lon="7.6784367"><ele>224.0</ele><time>2026-04-11T11:57:15.06Z</time></trkpt><trkpt lat="45.0423" lon="7.6785067"><ele>224.0</ele><time>2026-04-11T11:57:16.062Z</time></trkpt><trkpt lat="45.0423483" lon="7.6785767"><ele>224.0</ele><time>2026-04-11T11:57:17.061Z</time></trkpt><trkpt lat="45.042395" lon="7.6786467"><ele>224.0</ele><time>2026-04-11T11:57:18.061Z</time></trkpt><trkpt lat="45.042435" lon="7.6787167"><ele>224.0</ele><time>2026-04-11T11:57:19.06Z</time></trkpt><trkpt lat="45.04251" lon="7.6788583"><ele>224.33333333333334</ele><time>2026-04-11T11:57:21.061Z</time></trkpt><trkpt lat="45.0425833" lon="7.6789983"><ele>224.66666666666669</ele><time>2026-04-11T11:57:23.061Z</time></trkpt><trkpt lat="45.04262" lon="7.6790767"><ele>225.0</ele><time>2026-04-11T11:57:24.061Z</time></trkpt><trkpt lat="45.042655" lon="7.6791583"><ele>225.33333333333331</ele><time>2026-04-11T11:57:25.061Z</time></trkpt><trkpt lat="45.0426867" lon="7.6792383"><ele>225.66666666666666</ele><time>2026-04-11T11:57:26.059Z</time></trkpt><trkpt lat="45.0427517" lon="7.67939"><ele>226.0</ele><time>2026-04-11T11:57:28.06Z</time></trkpt><trkpt lat="45.0427933" lon="7.6794583"><ele>226.0</ele><time>2026-04-11T11:57:29.06Z</time></trkpt><trkpt lat="45.0428633" lon="7.6795983"><ele>226.00000000000003</ele><time>2026-04-11T11:57:31.062Z</time></trkpt><trkpt lat="45.0429267" lon="7.679725"><ele>226.00000000000003</ele><time>2026-04-11T11:57:33.06Z</time></trkpt><trkpt lat="45.04298" lon="7.679845"><ele>226.0</ele><time>2026-04-11T11:57:35.059Z</time></trkpt><trkpt lat="45.0430367" lon="7.6799917"><ele>226.0</ele><time>2026-04-11T11:57:37.059Z</time></trkpt><trkpt lat="45.0431017" lon="7.6801383"><ele>225.60000000000002</ele><time>2026-04-11T11:57:39.063Z</time></trkpt><trkpt lat="45.0431667" lon="7.6802867"><ele>225.20000000000002</ele><time>2026-04-11T11:57:41.06Z</time></trkpt><trkpt lat="45.0431983" lon="7.680365"><ele>224.79999999999998</ele><time>2026-04-11T11:57:42.062Z</time></trkpt><trkpt lat="45.043265" lon="7.6805017"><ele>224.39999999999998</ele><time>2026-04-11T11:57:44.061Z</time></trkpt><trkpt lat="45.0433267" lon="7.6806467"><ele>224.0</ele><time>2026-04-11T11:57:46.059Z</time></trkpt><trkpt lat="45.04338" lon="7.680785"><ele>223.79999999999998</ele><time>2026-04-11T11:57:48.06Z</time></trkpt><trkpt lat="45.0434383" lon="7.6809167"><ele>223.59999999999997</ele><time>2026-04-11T11:57:50.06Z</time></trkpt><trkpt lat="45.043505" lon="7.681035"><ele>223.4</ele><time>2026-04-11T11:57:52.061Z</time></trkpt><trkpt lat="45.0435717" lon="7.6811467"><ele>223.2</ele><time>2026-04-11T11:57:54.06Z</time></trkpt><trkpt lat="45.0436133" lon="7.6812883"><ele>223.0</ele><time>2026-04-11T11:57:56.062Z</time></trkpt><trkpt lat="45.0436617" lon="7.681445"><ele>223.5</ele><time>2026-04-11T11:57:58.061Z</time></trkpt><trkpt lat="45.04371" lon="7.6816083"><ele>224.0</ele><time>2026-04-11T11:58:00.06Z</time></trkpt><trkpt lat="45.0437633" lon="7.68176"><ele>224.5</ele><time>2026-04-11T11:58:02.061Z</time></trkpt><trkpt lat="45.04381" lon="7.6819167"><ele>225.0</ele><time>2026-04-11T11:58:04.06Z</time></trkpt><trkpt lat="45.0438567" lon="7.6820717"><ele>225.6</ele><time>2026-04-11T11:58:06.061Z</time></trkpt><trkpt lat="45.0439067" lon="7.6822183"><ele>226.2</ele><time>2026-04-11T11:58:08.066Z</time></trkpt><trkpt lat="45.0439517" lon="7.682365"><ele>226.8</ele><time>2026-04-11T11:58:10.062Z</time></trkpt><trkpt lat="45.044" lon="7.6824983"><ele>227.4</ele><time>2026-04-11T11:58:12.061Z</time></trkpt><trkpt lat="45.0440483" lon="7.6826333"><ele>228.0</ele><time>2026-04-11T11:58:14.061Z</time></trkpt><trkpt lat="45.0441167" lon="7.6827483"><ele>227.75</ele><time>2026-04-11T11:58:16.06Z</time></trkpt><trkpt lat="45.04417" lon="7.6828883"><ele>227.5</ele><time>2026-04-11T11:58:18.062Z</time></trkpt><trkpt lat="45.044225" lon="7.6830333"><ele>227.25</ele><time>2026-04-11T11:58:20.063Z</time></trkpt><trkpt lat="45.0442917" lon="7.683175"><ele>227.0</ele><time>2026-04-11T11:58:22.064Z</time></trkpt><trkpt lat="45.0443567" lon="7.6833167"><ele>227.0</ele><time>2026-04-11T11:58:24.063Z</time></trkpt><trkpt lat="45.0444317" lon="7.683445"><ele>227.0</ele><time>2026-04-11T11:58:26.063Z</time></trkpt><trkpt lat="45.0445167" lon="7.6835617"><ele>227.0</ele><time>2026-04-11T11:58:28.061Z</time></trkpt><trkpt lat="45.0446067" lon="7.6836717"><ele>227.0</ele><time>2026-04-11T11:58:30.061Z</time></trkpt><trkpt lat="45.0446967" lon="7.68378"><ele>226.8</ele><time>2026-04-11T11:58:32.061Z</time></trkpt><trkpt lat="45.044785" lon="7.6838817"><ele>226.6</ele><time>2026-04-11T11:58:34.061Z</time></trkpt><trkpt lat="45.0448767" lon="7.68397"><ele>226.40000000000003</ele><time>2026-04-11T11:58:36.062Z</time></trkpt><trkpt lat="45.04497" lon="7.68405"><ele>226.20000000000002</ele><time>2026-04-11T11:58:38.061Z</time></trkpt><trkpt lat="45.0450633" lon="7.6841217"><ele>226.0</ele><time>2026-04-11T11:58:40.06Z</time></trkpt><trkpt lat="45.0451583" lon="7.6841817"><ele>226.0</ele><time>2026-04-11T11:58:42.059Z</time></trkpt><trkpt lat="45.045245" lon="7.68424"><ele>226.00000000000003</ele><time>2026-04-11T11:58:44.06Z</time></trkpt><trkpt lat="45.0453367" lon="7.6842533"><ele>226.00000000000003</ele><time>2026-04-11T11:58:46.06Z</time></trkpt><trkpt lat="45.0454467" lon="7.684235"><ele>226.0</ele><time>2026-04-11T11:58:48.061Z</time></trkpt><trkpt lat="45.0455367" lon="7.6842833"><ele>226.0</ele><time>2026-04-11T11:58:50.06Z</time></trkpt><trkpt lat="45.0456183" lon="7.68436"><ele>226.0</ele><time>2026-04-11T11:58:52.06Z</time></trkpt><trkpt lat="45.0457117" lon="7.6844133"><ele>226.00000000000003</ele><time>2026-04-11T11:58:54.061Z</time></trkpt><trkpt lat="45.0458017" lon="7.6844783"><ele>226.00000000000003</ele><time>2026-04-11T11:58:56.063Z</time></trkpt><trkpt lat="45.0458983" lon="7.6845383"><ele>226.0</ele><time>2026-04-11T11:58:58.061Z</time></trkpt><trkpt lat="45.0459933" lon="7.6846117"><ele>226.0</ele><time>2026-04-11T11:59:00.062Z</time></trkpt><trkpt lat="45.0460933" lon="7.6846817"><ele>225.8</ele><time>2026-04-11T11:59:02.061Z</time></trkpt><trkpt lat="45.04615" lon="7.6847217"><ele>225.60000000000002</ele><time>2026-04-11T11:59:03.062Z</time></trkpt><trkpt lat="45.0462567" lon="7.6847917"><ele>225.4</ele><time>2026-04-11T11:59:05.062Z</time></trkpt><trkpt lat="45.0463667" lon="7.6848517"><ele>225.2</ele><time>2026-04-11T11:59:07.062Z</time></trkpt><trkpt lat="45.0464833" lon="7.6848933"><ele>225.0</ele><time>2026-04-11T11:59:09.062Z</time></trkpt><trkpt lat="45.0466067" lon="7.6849367"><ele>225.0</ele><time>2026-04-11T11:59:11.061Z</time></trkpt><trkpt lat="45.0466733" lon="7.6849483"><ele>225.0</ele><time>2026-04-11T11:59:12.062Z</time></trkpt><trkpt lat="45.0467917" lon="7.6849583"><ele>225.0</ele><time>2026-04-11T11:59:14.061Z</time></trkpt><trkpt lat="45.04691" lon="7.6849467"><ele>225.0</ele><time>2026-04-11T11:59:16.062Z</time></trkpt><trkpt lat="45.04702" lon="7.684955"><ele>225.0</ele><time>2026-04-11T11:59:18.062Z</time></trkpt><trkpt lat="45.0471267" lon="7.6849617"><ele>225.0</ele><time>2026-04-11T11:59:20.06Z</time></trkpt><trkpt lat="45.0472367" lon="7.6849517"><ele>225.0</ele><time>2026-04-11T11:59:22.06Z</time></trkpt><trkpt lat="45.04733" lon="7.6849317"><ele>225.0</ele><time>2026-04-11T11:59:24.061Z</time></trkpt><trkpt lat="45.0474233" lon="7.684905"><ele>225.0</ele><time>2026-04-11T11:59:26.063Z</time></trkpt><trkpt lat="45.0475167" lon="7.684865"><ele>225.0</ele><time>2026-04-11T11:59:28.062Z</time></trkpt><trkpt lat="45.0476067" lon="7.6848133"><ele>225.4</ele><time>2026-04-11T11:59:30.061Z</time></trkpt><trkpt lat="45.0476933" lon="7.6847517"><ele>225.8</ele><time>2026-04-11T11:59:32.059Z</time></trkpt><trkpt lat="45.0477717" lon="7.6846883"><ele>226.2</ele><time>2026-04-11T11:59:34.06Z</time></trkpt><trkpt lat="45.04785" lon="7.6846167"><ele>226.6</ele><time>2026-04-11T11:59:36.062Z</time></trkpt><trkpt lat="45.0479233" lon="7.6845383"><ele>227.0</ele><time>2026-04-11T11:59:38.062Z</time></trkpt><trkpt lat="45.0479933" lon="7.6844683"><ele>227.16666666666669</ele><time>2026-04-11T11:59:40.064Z</time></trkpt><trkpt lat="45.0480633" lon="7.6843983"><ele>227.33333333333334</ele><time>2026-04-11T11:59:42.063Z</time></trkpt><trkpt lat="45.04813" lon="7.684345"><ele>227.5</ele><time>2026-04-11T11:59:44.061Z</time></trkpt><trkpt lat="45.048195" lon="7.6843133"><ele>227.66666666666669</ele><time>2026-04-11T11:59:46.063Z</time></trkpt><trkpt lat="45.0482683" lon="7.6842917"><ele>227.83333333333334</ele><time>2026-04-11T11:59:48.062Z</time></trkpt><trkpt lat="45.0483417" lon="7.6842717"><ele>228.0</ele><time>2026-04-11T11:59:50.064Z</time></trkpt><trkpt lat="45.0484183" lon="7.6842467"><ele>228.5</ele><time>2026-04-11T11:59:52.064Z</time></trkpt><trkpt lat="45.04851" lon="7.68422"><ele>229.0</ele><time>2026-04-11T11:59:54.061Z</time></trkpt><trkpt lat="45.048595" lon="7.6842083"><ele>229.5</ele><time>2026-04-11T11:59:56.062Z</time></trkpt><trkpt lat="45.048685" lon="7.6842"><ele>230.0</ele><time>2026-04-11T11:59:58.062Z</time></trkpt><trkpt lat="45.0487683" lon="7.684195"><ele>230.5</ele><time>2026-04-11T12:00:00.06Z</time></trkpt><trkpt lat="45.048855" lon="7.6842017"><ele>231.0</ele><time>2026-04-11T12:00:02.055Z</time></trkpt><trkpt lat="45.04894" lon="7.684245"><ele>231.0</ele><time>2026-04-11T12:00:04.06Z</time></trkpt><trkpt lat="45.0490083" lon="7.684315"><ele>231.00000000000003</ele><time>2026-04-11T12:00:06.061Z</time></trkpt><trkpt lat="45.0490833" lon="7.6844"><ele>231.00000000000003</ele><time>2026-04-11T12:00:08.06Z</time></trkpt><trkpt lat="45.0491583" lon="7.6845017"><ele>231.0</ele><time>2026-04-11T12:00:10.061Z</time></trkpt><trkpt lat="45.0492383" lon="7.6845967"><ele>231.0</ele><time>2026-04-11T12:00:12.062Z</time></trkpt><trkpt lat="45.0493283" lon="7.68471"><ele>230.83333333333334</ele><time>2026-04-11T12:00:14.06Z</time></trkpt><trkpt lat="45.0494233" lon="7.6848333"><ele>230.66666666666669</ele><time>2026-04-11T12:00:16.061Z</time></trkpt><trkpt lat="45.0494717" lon="7.6848983"><ele>230.5</ele><time>2026-04-11T12:00:17.061Z</time></trkpt><trkpt lat="45.049515" lon="7.684965"><ele>230.33333333333334</ele><time>2026-04-11T12:00:18.06Z</time></trkpt><trkpt lat="45.049565" lon="7.6850283"><ele>230.16666666666669</ele><time>2026-04-11T12:00:19.06Z</time></trkpt><trkpt lat="45.0496167" lon="7.685095"><ele>230.0</ele><time>2026-04-11T12:00:20.062Z</time></trkpt><trkpt lat="45.04967" lon="7.68516"><ele>229.99999999999997</ele><time>2026-04-11T12:00:21.063Z</time></trkpt><trkpt lat="45.049725" lon="7.685225"><ele>230.0</ele><time>2026-04-11T12:00:22.062Z</time></trkpt><trkpt lat="45.0497833" lon="7.6852833"><ele>229.99999999999997</ele><time>2026-04-11T12:00:23.061Z</time></trkpt><trkpt lat="45.0498467" lon="7.6853383"><ele>229.99999999999997</ele><time>2026-04-11T12:00:24.063Z</time></trkpt><trkpt lat="45.04991" lon="7.6853917"><ele>230.0</ele><time>2026-04-11T12:00:25.062Z</time></trkpt><trkpt lat="45.0499733" lon="7.68544"><ele>229.99999999999997</ele><time>2026-04-11T12:00:26.06Z</time></trkpt><trkpt lat="45.0500383" lon="7.685485"><ele>229.99999999999997</ele><time>2026-04-11T12:00:27.061Z</time></trkpt><trkpt lat="45.0500967" lon="7.6855283"><ele>228.66666666666669</ele><time>2026-04-11T12:00:28.062Z</time></trkpt><trkpt lat="45.0501617" lon="7.68556"><ele>227.33333333333334</ele><time>2026-04-11T12:00:29.062Z</time></trkpt><trkpt lat="45.0502283" lon="7.6855833"><ele>226.0</ele><time>2026-04-11T12:00:30.06Z</time></trkpt><trkpt lat="45.0502917" lon="7.6856017"><ele>224.66666666666669</ele><time>2026-04-11T12:00:31.06Z</time></trkpt><trkpt lat="45.0503583" lon="7.6856233"><ele>223.33333333333334</ele><time>2026-04-11T12:00:32.064Z</time></trkpt><trkpt lat="45.050425" lon="7.6856417"><ele>222.0</ele><time>2026-04-11T12:00:33.064Z</time></trkpt><trkpt lat="45.050545" lon="7.6856683"><ele>222.0</ele><time>2026-04-11T12:00:35.06Z</time></trkpt><trkpt lat="45.0506633" lon="7.685655"><ele>222.0</ele><time>2026-04-11T12:00:37.061Z</time></trkpt><trkpt lat="45.0507767" lon="7.68563"><ele>222.0</ele><time>2026-04-11T12:00:39.06Z</time></trkpt><trkpt lat="45.0508717" lon="7.6856133"><ele>222.0</ele><time>2026-04-11T12:00:41.062Z</time></trkpt><trkpt lat="45.0509683" lon="7.68561"><ele>222.0</ele><time>2026-04-11T12:00:43.062Z</time></trkpt><trkpt lat="45.0510667" lon="7.6856183"><ele>222.6</ele><time>2026-04-11T12:00:45.062Z</time></trkpt><trkpt lat="45.051165" lon="7.68563"><ele>223.2</ele><time>2026-04-11T12:00:47.061Z</time></trkpt><trkpt lat="45.0512633" lon="7.6856567"><ele>223.8</ele><time>2026-04-11T12:00:49.062Z</time></trkpt><trkpt lat="45.0513617" lon="7.6856983"><ele>224.4</ele><time>2026-04-11T12:00:51.062Z</time></trkpt><trkpt lat="45.0514567" lon="7.6857467"><ele>225.0</ele><time>2026-04-11T12:00:53.06Z</time></trkpt><trkpt lat="45.0515467" lon="7.68578"><ele>225.83333333333334</ele><time>2026-04-11T12:00:55.061Z</time></trkpt><trkpt lat="45.05164" lon="7.6857833"><ele>226.66666666666669</ele><time>2026-04-11T12:00:57.061Z</time></trkpt><trkpt lat="45.05173" lon="7.685785"><ele>227.5</ele><time>2026-04-11T12:00:59.062Z</time></trkpt><trkpt lat="45.05182" lon="7.6857917"><ele>228.33333333333334</ele><time>2026-04-11T12:01:01.061Z</time></trkpt><trkpt lat="45.051905" lon="7.685815"><ele>229.16666666666669</ele><time>2026-04-11T12:01:03.062Z</time></trkpt><trkpt lat="45.05199" lon="7.6858317"><ele>230.0</ele><time>2026-04-11T12:01:05.06Z</time></trkpt><trkpt lat="45.0520683" lon="7.6858467"><ele>230.00000000000003</ele><time>2026-04-11T12:01:07.062Z</time></trkpt><trkpt lat="45.05215" lon="7.6858433"><ele>230.0</ele><time>2026-04-11T12:01:09.06Z</time></trkpt><trkpt lat="45.0522367" lon="7.6858367"><ele>230.0</ele><time>2026-04-11T12:01:11.06Z</time></trkpt><trkpt lat="45.052315" lon="7.6858517"><ele>230.0</ele><time>2026-04-11T12:01:13.061Z</time></trkpt><trkpt lat="45.0523983" lon="7.6858533"><ele>230.00000000000003</ele><time>2026-04-11T12:01:15.064Z</time></trkpt><trkpt lat="45.052485" lon="7.68583"><ele>230.0</ele><time>2026-04-11T12:01:17.06Z</time></trkpt><trkpt lat="45.052565" lon="7.6857833"><ele>230.16666666666669</ele><time>2026-04-11T12:01:19.062Z</time></trkpt><trkpt lat="45.0526317" lon="7.6857233"><ele>230.33333333333334</ele><time>2026-04-11T12:01:21.066Z</time></trkpt><trkpt lat="45.0527017" lon="7.6856567"><ele>230.5</ele><time>2026-04-11T12:01:23.064Z</time></trkpt><trkpt lat="45.0527667" lon="7.6855783"><ele>230.66666666666669</ele><time>2026-04-11T12:01:25.064Z</time></trkpt><trkpt lat="45.052815" lon="7.685485"><ele>230.83333333333334</ele><time>2026-04-11T12:01:27.063Z</time></trkpt><trkpt lat="45.052865" lon="7.6853933"><ele>231.0</ele><time>2026-04-11T12:01:29.063Z</time></trkpt><trkpt lat="45.0529233" lon="7.6852967"><ele>231.33333333333334</ele><time>2026-04-11T12:01:31.062Z</time></trkpt><trkpt lat="45.0529733" lon="7.68519"><ele>231.66666666666669</ele><time>2026-04-11T12:01:33.061Z</time></trkpt><trkpt lat="45.0530167" lon="7.685075"><ele>232.0</ele><time>2026-04-11T12:01:35.06Z</time></trkpt><trkpt lat="45.0530567" lon="7.6849633"><ele>232.33333333333334</ele><time>2026-04-11T12:01:37.058Z</time></trkpt><trkpt lat="45.053085" lon="7.684855"><ele>232.66666666666669</ele><time>2026-04-11T12:01:39.062Z</time></trkpt><trkpt lat="45.0531233" lon="7.684755"><ele>233.0</ele><time>2026-04-11T12:01:41.062Z</time></trkpt><trkpt lat="45.0531833" lon="7.684685"><ele>233.0</ele><time>2026-04-11T12:01:43.061Z</time></trkpt><trkpt lat="45.05327" lon="7.6846767"><ele>233.0</ele><time>2026-04-11T12:01:45.062Z</time></trkpt><trkpt lat="45.053365" lon="7.6846983"><ele>233.0</ele><time>2026-04-11T12:01:47.06Z</time></trkpt><trkpt lat="45.0534633" lon="7.6847317"><ele>233.0</ele><time>2026-04-11T12:01:49.061Z</time></trkpt><trkpt lat="45.0535583" lon="7.6847783"><ele>233.0</ele><time>2026-04-11T12:01:51.063Z</time></trkpt><trkpt lat="45.0536517" lon="7.68482"><ele>233.60000000000002</ele><time>2026-04-11T12:01:53.062Z</time></trkpt><trkpt lat="45.0537383" lon="7.6848667"><ele>234.20000000000002</ele><time>2026-04-11T12:01:55.061Z</time></trkpt><trkpt lat="45.0538217" lon="7.6849067"><ele>234.8</ele><time>2026-04-11T12:01:57.06Z</time></trkpt><trkpt lat="45.0539067" lon="7.68495"><ele>235.4</ele><time>2026-04-11T12:01:59.061Z</time></trkpt><trkpt lat="45.0539933" lon="7.6849833"><ele>236.0</ele><time>2026-04-11T12:02:01.06Z</time></trkpt><trkpt lat="45.0540783" lon="7.6850217"><ele>235.66666666666669</ele><time>2026-04-11T12:02:03.061Z</time></trkpt><trkpt lat="45.0541617" lon="7.6850733"><ele>235.33333333333334</ele><time>2026-04-11T12:02:05.059Z</time></trkpt><trkpt lat="45.0542433" lon="7.6851117"><ele>235.0</ele><time>2026-04-11T12:02:07.063Z</time></trkpt><trkpt lat="45.0543183" lon="7.6851283"><ele>234.66666666666669</ele><time>2026-04-11T12:02:09.061Z</time></trkpt><trkpt lat="45.0544117" lon="7.6851217"><ele>234.33333333333334</ele><time>2026-04-11T12:02:12.064Z</time></trkpt><trkpt lat="45.0544867" lon="7.685085"><ele>234.0</ele><time>2026-04-11T12:02:15.065Z</time></trkpt><trkpt lat="45.0545633" lon="7.6851267"><ele>234.0</ele><time>2026-04-11T12:02:19.062Z</time></trkpt><trkpt lat="45.0546333" lon="7.6851283"><ele>234.0</ele><time>2026-04-11T12:02:23.061Z</time></trkpt><trkpt lat="45.054695" lon="7.6852067"><ele>234.0</ele><time>2026-04-11T12:02:28.064Z</time></trkpt><trkpt lat="45.0547383" lon="7.6852817"><ele>234.0</ele><time>2026-04-11T12:02:32.064Z</time></trkpt><trkpt lat="45.0547833" lon="7.6853683"><ele>234.0</ele><time>2026-04-11T12:02:40.061Z</time></trkpt><trkpt lat="45.0548467" lon="7.685455"><ele>234.0</ele><time>2026-04-11T12:02:43.065Z</time></trkpt><trkpt lat="45.0549117" lon="7.6855383"><ele>233.79999999999998</ele><time>2026-04-11T12:02:45.063Z</time></trkpt><trkpt lat="45.05498" lon="7.6856183"><ele>233.59999999999997</ele><time>2026-04-11T12:02:47.06Z</time></trkpt><trkpt lat="45.0550583" lon="7.6857017"><ele>233.4</ele><time>2026-04-11T12:02:49.06Z</time></trkpt><trkpt lat="45.0551417" lon="7.6857683"><ele>233.2</ele><time>2026-04-11T12:02:51.064Z</time></trkpt><trkpt lat="45.0552233" lon="7.685845"><ele>233.0</ele><time>2026-04-11T12:02:53.06Z</time></trkpt><trkpt lat="45.0553117" lon="7.6859133"><ele>233.0</ele><time>2026-04-11T12:02:55.058Z</time></trkpt><trkpt lat="45.0554017" lon="7.6859983"><ele>233.0</ele><time>2026-04-11T12:02:57.074Z</time></trkpt><trkpt lat="45.0554967" lon="7.6860783"><ele>233.0</ele><time>2026-04-11T12:02:59.085Z</time></trkpt><trkpt lat="45.05564" lon="7.6862083"><ele>233.0</ele><time>2026-04-11T12:03:02.057Z</time></trkpt><trkpt lat="45.055735" lon="7.686285"><ele>233.60000000000002</ele><time>2026-04-11T12:03:04.059Z</time></trkpt><trkpt lat="45.0558433" lon="7.686365"><ele>234.20000000000002</ele><time>2026-04-11T12:03:06.059Z</time></trkpt><trkpt lat="45.0559417" lon="7.6864383"><ele>234.8</ele><time>2026-04-11T12:03:08.064Z</time></trkpt><trkpt lat="45.0560383" lon="7.68651"><ele>235.4</ele><time>2026-04-11T12:03:10.064Z</time></trkpt><trkpt lat="45.056095" lon="7.6865567"><ele>236.0</ele><time>2026-04-11T12:03:11.06Z</time></trkpt><trkpt lat="45.056205" lon="7.686635"><ele>236.0</ele><time>2026-04-11T12:03:13.063Z</time></trkpt><trkpt lat="45.0563017" lon="7.6867017"><ele>236.00000000000003</ele><time>2026-04-11T12:03:15.058Z</time></trkpt><trkpt lat="45.0563933" lon="7.6867767"><ele>236.00000000000003</ele><time>2026-04-11T12:03:17.061Z</time></trkpt><trkpt lat="45.05649" lon="7.6868383"><ele>236.0</ele><time>2026-04-11T12:03:19.063Z</time></trkpt><trkpt lat="45.05658" lon="7.6869033"><ele>236.0</ele><time>2026-04-11T12:03:21.063Z</time></trkpt><trkpt lat="45.0566467" lon="7.6870067"><ele>236.0</ele><time>2026-04-11T12:03:23.06Z</time></trkpt><trkpt lat="45.056665" lon="7.6871533"><ele>236.00000000000003</ele><time>2026-04-11T12:03:25.062Z</time></trkpt><trkpt lat="45.0566683" lon="7.6873133"><ele>236.00000000000003</ele><time>2026-04-11T12:03:27.065Z</time></trkpt><trkpt lat="45.056665" lon="7.687485"><ele>236.0</ele><time>2026-04-11T12:03:29.055Z</time></trkpt><trkpt lat="45.05665" lon="7.687575"><ele>236.0</ele><time>2026-04-11T12:03:30.058Z</time></trkpt><trkpt lat="45.0566367" lon="7.6876683"><ele>236.00000000000003</ele><time>2026-04-11T12:03:31.066Z</time></trkpt><trkpt lat="45.05662" lon="7.68776"><ele>236.0</ele><time>2026-04-11T12:03:32.056Z</time></trkpt><trkpt lat="45.0566033" lon="7.6878517"><ele>236.0</ele><time>2026-04-11T12:03:33.056Z</time></trkpt><trkpt lat="45.0565883" lon="7.6879383"><ele>236.0</ele><time>2026-04-11T12:03:34.063Z</time></trkpt><trkpt lat="45.05654" lon="7.6880733"><ele>236.00000000000003</ele><time>2026-04-11T12:03:36.058Z</time></trkpt><trkpt lat="45.0564633" lon="7.68817"><ele>236.0</ele><time>2026-04-11T12:03:38.061Z</time></trkpt><trkpt lat="45.0563817" lon="7.6882567"><ele>235.00000000000003</ele><time>2026-04-11T12:03:40.062Z</time></trkpt><trkpt lat="45.05635" lon="7.6883517"><ele>234.0</ele><time>2026-04-11T12:03:43.059Z</time></trkpt><trkpt lat="45.056405" lon="7.6884183"><ele>233.0</ele><time>2026-04-11T12:03:45.063Z</time></trkpt><trkpt lat="45.056475" lon="7.6885017"><ele>232.0</ele><time>2026-04-11T12:03:47.059Z</time></trkpt><trkpt lat="45.0565633" lon="7.6885467"><ele>231.00000000000003</ele><time>2026-04-11T12:03:49.062Z</time></trkpt><trkpt lat="45.0566467" lon="7.6886133"><ele>230.0</ele><time>2026-04-11T12:03:51.061Z</time></trkpt><trkpt lat="45.05672" lon="7.6887233"><ele>230.0</ele><time>2026-04-11T12:03:53.062Z</time></trkpt><trkpt lat="45.056785" lon="7.68884"><ele>230.0</ele><time>2026-04-11T12:03:55.065Z</time></trkpt><trkpt lat="45.0568367" lon="7.68895"><ele>230.0</ele><time>2026-04-11T12:03:57.062Z</time></trkpt><trkpt lat="45.0569" lon="7.6890517"><ele>230.0</ele><time>2026-04-11T12:03:59.062Z</time></trkpt><trkpt lat="45.0569733" lon="7.6891267"><ele>230.0</ele><time>2026-04-11T12:04:01.062Z</time></trkpt><trkpt lat="45.0570583" lon="7.6892"><ele>230.0</ele><time>2026-04-11T12:04:03.061Z</time></trkpt><trkpt lat="45.0571483" lon="7.6892733"><ele>230.0</ele><time>2026-04-11T12:04:05.062Z</time></trkpt><trkpt lat="45.057245" lon="7.6893367"><ele>230.0</ele><time>2026-04-11T12:04:07.062Z</time></trkpt><trkpt lat="45.0573417" lon="7.6893983"><ele>230.0</ele><time>2026-04-11T12:04:09.064Z</time></trkpt><trkpt lat="45.05745" lon="7.6894433"><ele>230.0</ele><time>2026-04-11T12:04:11.063Z</time></trkpt><trkpt lat="45.0575533" lon="7.6895"><ele>229.4</ele><time>2026-04-11T12:04:13.063Z</time></trkpt><trkpt lat="45.0576583" lon="7.68957"><ele>228.8</ele><time>2026-04-11T12:04:15.061Z</time></trkpt><trkpt lat="45.0577617" lon="7.6896417"><ele>228.2</ele><time>2026-04-11T12:04:17.06Z</time></trkpt><trkpt lat="45.0578517" lon="7.6897217"><ele>227.6</ele><time>2026-04-11T12:04:19.061Z</time></trkpt><trkpt lat="45.05793" lon="7.689805"><ele>227.0</ele><time>2026-04-11T12:04:21.061Z</time></trkpt><trkpt lat="45.0580067" lon="7.6898867"><ele>227.0</ele><time>2026-04-11T12:04:23.06Z</time></trkpt><trkpt lat="45.0580783" lon="7.689975"><ele>227.0</ele><time>2026-04-11T12:04:25.063Z</time></trkpt><trkpt lat="45.0581233" lon="7.690095"><ele>227.0</ele><time>2026-04-11T12:04:27.061Z</time></trkpt><trkpt lat="45.05816" lon="7.6902167"><ele>227.0</ele><time>2026-04-11T12:04:29.062Z</time></trkpt><trkpt lat="45.05818" lon="7.6903367"><ele>227.0</ele><time>2026-04-11T12:04:31.064Z</time></trkpt><trkpt lat="45.0581883" lon="7.6904617"><ele>226.66666666666669</ele><time>2026-04-11T12:04:33.062Z</time></trkpt><trkpt lat="45.0581917" lon="7.6905867"><ele>226.33333333333334</ele><time>2026-04-11T12:04:35.06Z</time></trkpt><trkpt lat="45.0582017" lon="7.6907133"><ele>226.0</ele><time>2026-04-11T12:04:37.063Z</time></trkpt><trkpt lat="45.058245" lon="7.69082"><ele>225.66666666666669</ele><time>2026-04-11T12:04:39.062Z</time></trkpt><trkpt lat="45.0583133" lon="7.690905"><ele>225.33333333333334</ele><time>2026-04-11T12:04:41.063Z</time></trkpt><trkpt lat="45.0583883" lon="7.6909767"><ele>225.0</ele><time>2026-04-11T12:04:43.064Z</time></trkpt><trkpt lat="45.0584517" lon="7.6910317"><ele>225.0</ele><time>2026-04-11T12:04:45.064Z</time></trkpt><trkpt lat="45.058515" lon="7.691045"><ele>225.0</ele><time>2026-04-11T12:04:47.061Z</time></trkpt><trkpt lat="45.0586033" lon="7.6910917"><ele>225.0</ele><time>2026-04-11T12:04:50.062Z</time></trkpt><trkpt lat="45.0586567" lon="7.6911583"><ele>225.0</ele><time>2026-04-11T12:04:52.062Z</time></trkpt><trkpt lat="45.0586983" lon="7.6912367"><ele>225.0</ele><time>2026-04-11T12:04:54.063Z</time></trkpt><trkpt lat="45.058735" lon="7.6913533"><ele>225.0</ele><time>2026-04-11T12:04:56.061Z</time></trkpt><trkpt lat="45.0587933" lon="7.6914517"><ele>224.8</ele><time>2026-04-11T12:04:58.061Z</time></trkpt><trkpt lat="45.058865" lon="7.6915483"><ele>224.6</ele><time>2026-04-11T12:05:00.063Z</time></trkpt><trkpt lat="45.0589533" lon="7.6916283"><ele>224.39999999999998</ele><time>2026-04-11T12:05:02.083Z</time></trkpt><trkpt lat="45.0590533" lon="7.6917167"><ele>224.2</ele><time>2026-04-11T12:05:04.066Z</time></trkpt><trkpt lat="45.0591083" lon="7.6917617"><ele>224.0</ele><time>2026-04-11T12:05:05.058Z</time></trkpt><trkpt lat="45.0591667" lon="7.6918017"><ele>224.00000000000003</ele><time>2026-04-11T12:05:06.103Z</time></trkpt><trkpt lat="45.0592817" lon="7.6918733"><ele>224.0</ele><time>2026-04-11T12:05:08.055Z</time></trkpt><trkpt lat="45.0593433" lon="7.69192"><ele>224.0</ele><time>2026-04-11T12:05:09.058Z</time></trkpt><trkpt lat="45.0594017" lon="7.69197"><ele>224.0</ele><time>2026-04-11T12:05:10.057Z</time></trkpt><trkpt lat="45.05946" lon="7.692025"><ele>224.00000000000003</ele><time>2026-04-11T12:05:11.059Z</time></trkpt><trkpt lat="45.0595217" lon="7.6920817"><ele>224.0</ele><time>2026-04-11T12:05:12.061Z</time></trkpt><trkpt lat="45.0595833" lon="7.6921433"><ele>223.50000000000003</ele><time>2026-04-11T12:05:13.06Z</time></trkpt><trkpt lat="45.0596467" lon="7.6922067"><ele>223.0</ele><time>2026-04-11T12:05:14.062Z</time></trkpt><trkpt lat="45.05971" lon="7.692265"><ele>222.5</ele><time>2026-04-11T12:05:15.062Z</time></trkpt><trkpt lat="45.0597783" lon="7.69233"><ele>222.0</ele><time>2026-04-11T12:05:16.063Z</time></trkpt><trkpt lat="45.0598433" lon="7.6924"><ele>221.50000000000003</ele><time>2026-04-11T12:05:17.06Z</time></trkpt><trkpt lat="45.05991" lon="7.69247"><ele>221.0</ele><time>2026-04-11T12:05:18.06Z</time></trkpt><trkpt lat="45.05997" lon="7.6925333"><ele>221.00000000000003</ele><time>2026-04-11T12:05:19.062Z</time></trkpt><trkpt lat="45.0600233" lon="7.6925917"><ele>221.0</ele><time>2026-04-11T12:05:20.06Z</time></trkpt><trkpt lat="45.06008" lon="7.69264"><ele>221.0</ele><time>2026-04-11T12:05:21.064Z</time></trkpt><trkpt lat="45.0601367" lon="7.69269"><ele>221.0</ele><time>2026-04-11T12:05:22.062Z</time></trkpt><trkpt lat="45.0601883" lon="7.6927417"><ele>221.00000000000003</ele><time>2026-04-11T12:05:23.062Z</time></trkpt><trkpt lat="45.060295" lon="7.692825"><ele>221.0</ele><time>2026-04-11T12:05:25.062Z</time></trkpt><trkpt lat="45.0603917" lon="7.6929117"><ele>220.5</ele><time>2026-04-11T12:05:27.063Z</time></trkpt><trkpt lat="45.0604883" lon="7.6930117"><ele>220.0</ele><time>2026-04-11T12:05:29.055Z</time></trkpt><trkpt lat="45.06059" lon="7.6931017"><ele>219.5</ele><time>2026-04-11T12:05:31.063Z</time></trkpt><trkpt lat="45.06069" lon="7.69319"><ele>219.0</ele><time>2026-04-11T12:05:33.065Z</time></trkpt><trkpt lat="45.06078" lon="7.6932817"><ele>220.5</ele><time>2026-04-11T12:05:35.061Z</time></trkpt><trkpt lat="45.0608717" lon="7.6933683"><ele>222.0</ele><time>2026-04-11T12:05:37.063Z</time></trkpt><trkpt lat="45.0609783" lon="7.69344"><ele>223.5</ele><time>2026-04-11T12:05:39.063Z</time></trkpt><trkpt lat="45.0610767" lon="7.693535"><ele>225.0</ele><time>2026-04-11T12:05:41.061Z</time></trkpt><trkpt lat="45.0611717" lon="7.6936367"><ele>225.0</ele><time>2026-04-11T12:05:43.062Z</time></trkpt><trkpt lat="45.0612667" lon="7.69374"><ele>225.0</ele><time>2026-04-11T12:05:45.062Z</time></trkpt><trkpt lat="45.0613683" lon="7.6938333"><ele>225.0</ele><time>2026-04-11T12:05:47.06Z</time></trkpt><trkpt lat="45.061465" lon="7.693925"><ele>225.0</ele><time>2026-04-11T12:05:49.063Z</time></trkpt><trkpt lat="45.06156" lon="7.6940133"><ele>225.0</ele><time>2026-04-11T12:05:51.063Z</time></trkpt><trkpt lat="45.0616417" lon="7.6941017"><ele>225.0</ele><time>2026-04-11T12:05:53.062Z</time></trkpt><trkpt lat="45.0617183" lon="7.6941783"><ele>225.0</ele><time>2026-04-11T12:05:55.063Z</time></trkpt><trkpt lat="45.0617833" lon="7.6942667"><ele>225.0</ele><time>2026-04-11T12:05:57.061Z</time></trkpt><trkpt lat="45.0618567" lon="7.694345"><ele>225.0</ele><time>2026-04-11T12:05:59.061Z</time></trkpt><trkpt lat="45.0619183" lon="7.694415"><ele>224.4</ele><time>2026-04-11T12:06:01.063Z</time></trkpt><trkpt lat="45.0619733" lon="7.6945067"><ele>223.8</ele><time>2026-04-11T12:06:04.062Z</time></trkpt><trkpt lat="45.0620567" lon="7.6945867"><ele>223.2</ele><time>2026-04-11T12:06:07.063Z</time></trkpt><trkpt lat="45.0621317" lon="7.694655"><ele>222.6</ele><time>2026-04-11T12:06:09.063Z</time></trkpt><trkpt lat="45.0622083" lon="7.69473"><ele>222.0</ele><time>2026-04-11T12:06:11.06Z</time></trkpt><trkpt lat="45.0622783" lon="7.6948133"><ele>222.0</ele><time>2026-04-11T12:06:13.06Z</time></trkpt><trkpt lat="45.0623533" lon="7.6948817"><ele>222.0</ele><time>2026-04-11T12:06:15.061Z</time></trkpt><trkpt lat="45.0624317" lon="7.694965"><ele>222.0</ele><time>2026-04-11T12:06:17.062Z</time></trkpt><trkpt lat="45.0625017" lon="7.6950617"><ele>222.0</ele><time>2026-04-11T12:06:19.061Z</time></trkpt><trkpt lat="45.06258" lon="7.6951583"><ele>222.0</ele><time>2026-04-11T12:06:21.06Z</time></trkpt><trkpt lat="45.06266" lon="7.6952517"><ele>222.2</ele><time>2026-04-11T12:06:23.061Z</time></trkpt><trkpt lat="45.0627467" lon="7.69533"><ele>222.39999999999998</ele><time>2026-04-11T12:06:25.059Z</time></trkpt><trkpt lat="45.0628317" lon="7.6954017"><ele>222.60000000000002</ele><time>2026-04-11T12:06:27.061Z</time></trkpt><trkpt lat="45.0629067" lon="7.6954983"><ele>222.8</ele><time>2026-04-11T12:06:29.061Z</time></trkpt><trkpt lat="45.06298" lon="7.6955917"><ele>223.0</ele><time>2026-04-11T12:06:31.065Z</time></trkpt><trkpt lat="45.0630517" lon="7.69569"><ele>222.99999999999997</ele><time>2026-04-11T12:06:33.063Z</time></trkpt><trkpt lat="45.06311" lon="7.6957767"><ele>223.0</ele><time>2026-04-11T12:06:35.076Z</time></trkpt><trkpt lat="45.0631783" lon="7.6958517"><ele>223.0</ele><time>2026-04-11T12:06:37.067Z</time></trkpt><trkpt lat="45.0632283" lon="7.6959183"><ele>223.0</ele><time>2026-04-11T12:06:39.075Z</time></trkpt><trkpt lat="45.0632717" lon="7.6959917"><ele>222.99999999999997</ele><time>2026-04-11T12:06:41.081Z</time></trkpt><trkpt lat="45.0633433" lon="7.6960833"><ele>223.0</ele><time>2026-04-11T12:06:44.185Z</time></trkpt><trkpt lat="45.063405" lon="7.6962033"><ele>223.42857142857142</ele><time>2026-04-11T12:06:47.068Z</time></trkpt><trkpt lat="45.0634683" lon="7.69629"><ele>223.85714285714283</ele><time>2026-04-11T12:06:50.057Z</time></trkpt><trkpt lat="45.06352" lon="7.6963433"><ele>224.28571428571428</ele><time>2026-04-11T12:06:52.057Z</time></trkpt><trkpt lat="45.0635833" lon="7.6963917"><ele>224.71428571428572</ele><time>2026-04-11T12:06:54.059Z</time></trkpt><trkpt lat="45.0636417" lon="7.6964333"><ele>225.14285714285714</ele><time>2026-04-11T12:06:56.059Z</time></trkpt><trkpt lat="45.0636967" lon="7.6964817"><ele>225.57142857142858</ele><time>2026-04-11T12:06:58.062Z</time></trkpt><trkpt lat="45.0637483" lon="7.6965567"><ele>226.0</ele><time>2026-04-11T12:07:00.062Z</time></trkpt><trkpt lat="45.0637917" lon="7.696625"><ele>225.99999999999997</ele><time>2026-04-11T12:07:02.06Z</time></trkpt><trkpt lat="45.0638333" lon="7.696695"><ele>226.0</ele><time>2026-04-11T12:07:05.061Z</time></trkpt><trkpt lat="45.0637633" lon="7.6967633"><ele>226.0</ele><time>2026-04-11T12:07:09.561Z</time></trkpt><trkpt lat="45.0638217" lon="7.6968133"><ele>226.0</ele><time>2026-04-11T12:07:12.56Z</time></trkpt><trkpt lat="45.0637633" lon="7.6969067"><ele>225.99999999999997</ele><time>2026-04-11T12:07:16.058Z</time></trkpt><trkpt lat="45.0637167" lon="7.696985"><ele>226.0</ele><time>2026-04-11T12:07:18.062Z</time></trkpt><trkpt lat="45.063665" lon="7.6970783"><ele>223.60000000000002</ele><time>2026-04-11T12:07:20.06Z</time></trkpt><trkpt lat="45.0635967" lon="7.697175"><ele>221.20000000000002</ele><time>2026-04-11T12:07:22.065Z</time></trkpt><trkpt lat="45.0635217" lon="7.69728"><ele>218.79999999999998</ele><time>2026-04-11T12:07:24.061Z</time></trkpt><trkpt lat="45.063455" lon="7.69739"><ele>216.39999999999998</ele><time>2026-04-11T12:07:26.066Z</time></trkpt><trkpt lat="45.0633833" lon="7.6974983"><ele>214.0</ele><time>2026-04-11T12:07:28.063Z</time></trkpt><trkpt lat="45.0633117" lon="7.6976117"><ele>215.5</ele><time>2026-04-11T12:07:30.064Z</time></trkpt><trkpt lat="45.0632367" lon="7.69773"><ele>217.0</ele><time>2026-04-11T12:07:32.06Z</time></trkpt><trkpt lat="45.0631567" lon="7.6978467"><ele>218.5</ele><time>2026-04-11T12:07:34.06Z</time></trkpt><trkpt lat="45.0630817" lon="7.6979733"><ele>220.0</ele><time>2026-04-11T12:07:36.06Z</time></trkpt><trkpt lat="45.0630083" lon="7.6981033"><ele>220.4</ele><time>2026-04-11T12:07:38.063Z</time></trkpt><trkpt lat="45.06293" lon="7.6982217"><ele>220.8</ele><time>2026-04-11T12:07:40.06Z</time></trkpt><trkpt lat="45.06287" lon="7.6983267"><ele>221.2</ele><time>2026-04-11T12:07:42.063Z</time></trkpt><trkpt lat="45.062905" lon="7.6984083"><ele>221.6</ele><time>2026-04-11T12:07:45.062Z</time></trkpt><trkpt lat="45.062995" lon="7.6984583"><ele>222.0</ele><time>2026-04-11T12:07:48.061Z</time></trkpt><trkpt lat="45.063055" lon="7.698545"><ele>222.2</ele><time>2026-04-11T12:07:50.062Z</time></trkpt><trkpt lat="45.0631183" lon="7.6986417"><ele>222.39999999999998</ele><time>2026-04-11T12:07:52.061Z</time></trkpt><trkpt lat="45.06318" lon="7.6987433"><ele>222.60000000000002</ele><time>2026-04-11T12:07:54.06Z</time></trkpt><trkpt lat="45.0632533" lon="7.6988417"><ele>222.8</ele><time>2026-04-11T12:07:56.059Z</time></trkpt><trkpt lat="45.0633283" lon="7.6989483"><ele>223.0</ele><time>2026-04-11T12:07:58.06Z</time></trkpt><trkpt lat="45.063405" lon="7.6990567"><ele>223.25</ele><time>2026-04-11T12:08:00.061Z</time></trkpt><trkpt lat="45.0634817" lon="7.6991667"><ele>223.5</ele><time>2026-04-11T12:08:02.06Z</time></trkpt><trkpt lat="45.0635683" lon="7.6992783"><ele>223.75</ele><time>2026-04-11T12:08:04.061Z</time></trkpt><trkpt lat="45.0636583" lon="7.6993933"><ele>224.0</ele><time>2026-04-11T12:08:06.061Z</time></trkpt><trkpt lat="45.0637383" lon="7.69952"><ele>224.5</ele><time>2026-04-11T12:08:08.061Z</time></trkpt><trkpt lat="45.0638233" lon="7.6996467"><ele>225.0</ele><time>2026-04-11T12:08:10.06Z</time></trkpt><trkpt lat="45.0639133" lon="7.699745"><ele>225.5</ele><time>2026-04-11T12:08:12.061Z</time></trkpt><trkpt lat="45.0640217" lon="7.6998233"><ele>226.0</ele><time>2026-04-11T12:08:14.061Z</time></trkpt><trkpt lat="45.0641217" lon="7.699915"><ele>226.4</ele><time>2026-04-11T12:08:16.062Z</time></trkpt><trkpt lat="45.0641717" lon="7.6999717"><ele>226.8</ele><time>2026-04-11T12:08:17.06Z</time></trkpt><trkpt lat="45.0642583" lon="7.700085"><ele>227.20000000000002</ele><time>2026-04-11T12:08:19.06Z</time></trkpt><trkpt lat="45.06433" lon="7.7002117"><ele>227.60000000000002</ele><time>2026-04-11T12:08:21.06Z</time></trkpt><trkpt lat="45.0643967" lon="7.700325"><ele>228.0</ele><time>2026-04-11T12:08:23.058Z</time></trkpt><trkpt lat="45.064465" lon="7.70039"><ele>228.0</ele><time>2026-04-11T12:08:25.061Z</time></trkpt><trkpt lat="45.0645383" lon="7.70044"><ele>228.0</ele><time>2026-04-11T12:08:27.063Z</time></trkpt><trkpt lat="45.0646333" lon="7.7004783"><ele>228.0</ele><time>2026-04-11T12:08:29.063Z</time></trkpt><trkpt lat="45.06475" lon="7.7005283"><ele>228.0</ele><time>2026-04-11T12:08:31.061Z</time></trkpt><trkpt lat="45.06481" lon="7.7005683"><ele>228.0</ele><time>2026-04-11T12:08:32.061Z</time></trkpt><trkpt lat="45.0648683" lon="7.7006117"><ele>228.0</ele><time>2026-04-11T12:08:33.063Z</time></trkpt><trkpt lat="45.06492" lon="7.7006633"><ele>228.0</ele><time>2026-04-11T12:08:34.061Z</time></trkpt><trkpt lat="45.0650033" lon="7.7007983"><ele>228.0</ele><time>2026-04-11T12:08:36.061Z</time></trkpt><trkpt lat="45.0650467" lon="7.7008667"><ele>228.0</ele><time>2026-04-11T12:08:37.063Z</time></trkpt><trkpt lat="45.0650917" lon="7.7009317"><ele>228.0</ele><time>2026-04-11T12:08:38.06Z</time></trkpt><trkpt lat="45.065135" lon="7.701"><ele>228.0</ele><time>2026-04-11T12:08:39.061Z</time></trkpt><trkpt lat="45.0651767" lon="7.7010683"><ele>228.0</ele><time>2026-04-11T12:08:40.064Z</time></trkpt><trkpt lat="45.0652233" lon="7.7011333"><ele>228.8</ele><time>2026-04-11T12:08:41.06Z</time></trkpt><trkpt lat="45.0652717" lon="7.7011933"><ele>229.60000000000002</ele><time>2026-04-11T12:08:42.06Z</time></trkpt><trkpt lat="45.0653583" lon="7.701305"><ele>230.39999999999998</ele><time>2026-04-11T12:08:44.061Z</time></trkpt><trkpt lat="45.0654033" lon="7.7013733"><ele>231.2</ele><time>2026-04-11T12:08:45.061Z</time></trkpt><trkpt lat="45.06548" lon="7.7015083"><ele>232.0</ele><time>2026-04-11T12:08:47.062Z</time></trkpt><trkpt lat="45.0655383" lon="7.7016467"><ele>231.99999999999997</ele><time>2026-04-11T12:08:49.064Z</time></trkpt><trkpt lat="45.065605" lon="7.7017733"><ele>232.0</ele><time>2026-04-11T12:08:51.063Z</time></trkpt><trkpt lat="45.0656733" lon="7.70192"><ele>232.0</ele><time>2026-04-11T12:08:53.06Z</time></trkpt><trkpt lat="45.06571" lon="7.7019967"><ele>232.0</ele><time>2026-04-11T12:08:54.062Z</time></trkpt><trkpt lat="45.0657433" lon="7.702075"><ele>231.99999999999997</ele><time>2026-04-11T12:08:55.057Z</time></trkpt><trkpt lat="45.0657733" lon="7.702155"><ele>232.0</ele><time>2026-04-11T12:08:56.061Z</time></trkpt><trkpt lat="45.0658117" lon="7.70223"><ele>231.42857142857144</ele><time>2026-04-11T12:08:57.064Z</time></trkpt><trkpt lat="45.0658483" lon="7.7023083"><ele>230.85714285714286</ele><time>2026-04-11T12:08:58.061Z</time></trkpt><trkpt lat="45.0658833" lon="7.70239"><ele>230.28571428571428</ele><time>2026-04-11T12:08:59.06Z</time></trkpt><trkpt lat="45.0659167" lon="7.7024683"><ele>229.71428571428572</ele><time>2026-04-11T12:09:00.061Z</time></trkpt><trkpt lat="45.0659533" lon="7.7025467"><ele>229.1428571428571</ele><time>2026-04-11T12:09:01.061Z</time></trkpt><trkpt lat="45.06599" lon="7.7026283"><ele>228.57142857142856</ele><time>2026-04-11T12:09:02.061Z</time></trkpt><trkpt lat="45.0660283" lon="7.7027067"><ele>228.0</ele><time>2026-04-11T12:09:03.063Z</time></trkpt><trkpt lat="45.0660667" lon="7.70278"><ele>228.0</ele><time>2026-04-11T12:09:04.065Z</time></trkpt><trkpt lat="45.06613" lon="7.7029333"><ele>228.0</ele><time>2026-04-11T12:09:06.062Z</time></trkpt><trkpt lat="45.0661867" lon="7.7030833"><ele>228.0</ele><time>2026-04-11T12:09:08.062Z</time></trkpt><trkpt lat="45.06625" lon="7.703235"><ele>228.0</ele><time>2026-04-11T12:09:10.061Z</time></trkpt><trkpt lat="45.0663017" lon="7.7033717"><ele>228.0</ele><time>2026-04-11T12:09:12.062Z</time></trkpt><trkpt lat="45.0663667" lon="7.7035083"><ele>228.0</ele><time>2026-04-11T12:09:14.064Z</time></trkpt><trkpt lat="45.0664283" lon="7.7036483"><ele>228.0</ele><time>2026-04-11T12:09:16.061Z</time></trkpt><trkpt lat="45.0664883" lon="7.7038"><ele>228.0</ele><time>2026-04-11T12:09:18.061Z</time></trkpt><trkpt lat="45.0665467" lon="7.70395"><ele>228.0</ele><time>2026-04-11T12:09:20.063Z</time></trkpt><trkpt lat="45.0665817" lon="7.7040317"><ele>228.0</ele><time>2026-04-11T12:09:21.064Z</time></trkpt><trkpt lat="45.0666133" lon="7.7041133"><ele>228.0</ele><time>2026-04-11T12:09:22.061Z</time></trkpt><trkpt lat="45.0666367" lon="7.7041983"><ele>228.0</ele><time>2026-04-11T12:09:23.062Z</time></trkpt><trkpt lat="45.0666633" lon="7.7042817"><ele>228.0</ele><time>2026-04-11T12:09:24.061Z</time></trkpt><trkpt lat="45.0666883" lon="7.7043667"><ele>228.0</ele><time>2026-04-11T12:09:25.062Z</time></trkpt><trkpt lat="45.0667433" lon="7.704525"><ele>227.0</ele><time>2026-04-11T12:09:27.062Z</time></trkpt><trkpt lat="45.0668033" lon="7.7046633"><ele>226.0</ele><time>2026-04-11T12:09:29.061Z</time></trkpt><trkpt lat="45.06684" lon="7.7047983"><ele>225.0</ele><time>2026-04-11T12:09:31.062Z</time></trkpt><trkpt lat="45.0668717" lon="7.7049183"><ele>224.0</ele><time>2026-04-11T12:09:33.061Z</time></trkpt><trkpt lat="45.06691" lon="7.7050433"><ele>223.0</ele><time>2026-04-11T12:09:35.062Z</time></trkpt><trkpt lat="45.06696" lon="7.7051883"><ele>223.16666666666666</ele><time>2026-04-11T12:09:37.062Z</time></trkpt><trkpt lat="45.0670083" lon="7.70534"><ele>223.33333333333331</ele><time>2026-04-11T12:09:39.064Z</time></trkpt><trkpt lat="45.0670533" lon="7.7055033"><ele>223.5</ele><time>2026-04-11T12:09:41.062Z</time></trkpt><trkpt lat="45.0670817" lon="7.705585"><ele>223.66666666666669</ele><time>2026-04-11T12:09:42.063Z</time></trkpt><trkpt lat="45.0671067" lon="7.70567"><ele>223.83333333333334</ele><time>2026-04-11T12:09:43.061Z</time></trkpt><trkpt lat="45.0671283" lon="7.705755"><ele>224.0</ele><time>2026-04-11T12:09:44.063Z</time></trkpt><trkpt lat="45.06715" lon="7.7058417"><ele>224.00000000000003</ele><time>2026-04-11T12:09:45.065Z</time></trkpt><trkpt lat="45.0671717" lon="7.7059317"><ele>224.0</ele><time>2026-04-11T12:09:46.062Z</time></trkpt><trkpt lat="45.0671883" lon="7.7060183"><ele>224.0</ele><time>2026-04-11T12:09:47.061Z</time></trkpt><trkpt lat="45.0672033" lon="7.7061067"><ele>224.0</ele><time>2026-04-11T12:09:48.061Z</time></trkpt><trkpt lat="45.0672183" lon="7.706195"><ele>224.00000000000003</ele><time>2026-04-11T12:09:49.06Z</time></trkpt><trkpt lat="45.0672517" lon="7.7063567"><ele>224.0</ele><time>2026-04-11T12:09:51.062Z</time></trkpt><trkpt lat="45.0672867" lon="7.7065233"><ele>224.2</ele><time>2026-04-11T12:09:53.061Z</time></trkpt><trkpt lat="45.0673017" lon="7.70661"><ele>224.39999999999998</ele><time>2026-04-11T12:09:54.061Z</time></trkpt><trkpt lat="45.06733" lon="7.7067767"><ele>224.6</ele><time>2026-04-11T12:09:56.062Z</time></trkpt><trkpt lat="45.067365" lon="7.7069433"><ele>224.8</ele><time>2026-04-11T12:09:58.062Z</time></trkpt><trkpt lat="45.067405" lon="7.7071083"><ele>225.0</ele><time>2026-04-11T12:10:00.061Z</time></trkpt><trkpt lat="45.0674383" lon="7.7072567"><ele>224.0</ele><time>2026-04-11T12:10:02.061Z</time></trkpt><trkpt lat="45.06747" lon="7.7074"><ele>223.0</ele><time>2026-04-11T12:10:04.061Z</time></trkpt><trkpt lat="45.0675117" lon="7.7075683"><ele>222.0</ele><time>2026-04-11T12:10:06.058Z</time></trkpt><trkpt lat="45.0675383" lon="7.7076617"><ele>221.0</ele><time>2026-04-11T12:10:07.063Z</time></trkpt><trkpt lat="45.0675683" lon="7.70776"><ele>220.0</ele><time>2026-04-11T12:10:08.062Z</time></trkpt><trkpt lat="45.0676" lon="7.7078633"><ele>219.83333333333331</ele><time>2026-04-11T12:10:09.063Z</time></trkpt><trkpt lat="45.0676333" lon="7.707965"><ele>219.66666666666666</ele><time>2026-04-11T12:10:10.061Z</time></trkpt><trkpt lat="45.0676633" lon="7.708075"><ele>219.5</ele><time>2026-04-11T12:10:11.061Z</time></trkpt><trkpt lat="45.0676933" lon="7.7081867"><ele>219.33333333333331</ele><time>2026-04-11T12:10:12.06Z</time></trkpt><trkpt lat="45.0677267" lon="7.7082933"><ele>219.16666666666666</ele><time>2026-04-11T12:10:13.06Z</time></trkpt><trkpt lat="45.0677633" lon="7.7083933"><ele>219.0</ele><time>2026-04-11T12:10:14.061Z</time></trkpt><trkpt lat="45.067795" lon="7.7084883"><ele>219.33333333333334</ele><time>2026-04-11T12:10:15.061Z</time></trkpt><trkpt lat="45.0678283" lon="7.7085783"><ele>219.66666666666669</ele><time>2026-04-11T12:10:16.061Z</time></trkpt><trkpt lat="45.0678617" lon="7.7086667"><ele>220.0</ele><time>2026-04-11T12:10:17.062Z</time></trkpt><trkpt lat="45.0678917" lon="7.7087483"><ele>220.33333333333334</ele><time>2026-04-11T12:10:18.062Z</time></trkpt><trkpt lat="45.067905" lon="7.7089083"><ele>220.66666666666669</ele><time>2026-04-11T12:10:20.064Z</time></trkpt><trkpt lat="45.067925" lon="7.7090483"><ele>221.0</ele><time>2026-04-11T12:10:22.061Z</time></trkpt><trkpt lat="45.0679367" lon="7.709185"><ele>221.00000000000003</ele><time>2026-04-11T12:10:24.061Z</time></trkpt><trkpt lat="45.0679433" lon="7.7093083"><ele>221.0</ele><time>2026-04-11T12:10:26.06Z</time></trkpt><trkpt lat="45.067955" lon="7.7094217"><ele>221.0</ele><time>2026-04-11T12:10:28.061Z</time></trkpt><trkpt lat="45.0679717" lon="7.70952"><ele>221.0</ele><time>2026-04-11T12:10:30.061Z</time></trkpt><trkpt lat="45.0679983" lon="7.7096133"><ele>221.00000000000003</ele><time>2026-04-11T12:10:32.061Z</time></trkpt><trkpt lat="45.0680167" lon="7.709725"><ele>221.0</ele><time>2026-04-11T12:10:34.061Z</time></trkpt><trkpt lat="45.06803" lon="7.709855"><ele>221.20000000000002</ele><time>2026-04-11T12:10:36.061Z</time></trkpt><trkpt lat="45.0680317" lon="7.70999"><ele>221.40000000000003</ele><time>2026-04-11T12:10:38.06Z</time></trkpt><trkpt lat="45.0680417" lon="7.7101383"><ele>221.6</ele><time>2026-04-11T12:10:40.061Z</time></trkpt><trkpt lat="45.0680667" lon="7.7102833"><ele>221.8</ele><time>2026-04-11T12:10:42.059Z</time></trkpt><trkpt lat="45.0680983" lon="7.71043"><ele>222.0</ele><time>2026-04-11T12:10:44.062Z</time></trkpt><trkpt lat="45.0681383" lon="7.7105717"><ele>222.25</ele><time>2026-04-11T12:10:46.061Z</time></trkpt><trkpt lat="45.0681817" lon="7.7107217"><ele>222.5</ele><time>2026-04-11T12:10:48.061Z</time></trkpt><trkpt lat="45.068235" lon="7.7108717"><ele>222.75</ele><time>2026-04-11T12:10:50.061Z</time></trkpt><trkpt lat="45.0682783" lon="7.7110317"><ele>223.0</ele><time>2026-04-11T12:10:52.063Z</time></trkpt><trkpt lat="45.068325" lon="7.7111867"><ele>223.0</ele><time>2026-04-11T12:10:54.062Z</time></trkpt><trkpt lat="45.0683683" lon="7.7113483"><ele>223.0</ele><time>2026-04-11T12:10:56.061Z</time></trkpt><trkpt lat="45.0684033" lon="7.7115067"><ele>223.0</ele><time>2026-04-11T12:10:58.062Z</time></trkpt><trkpt lat="45.068425" lon="7.71168"><ele>223.0</ele><time>2026-04-11T12:11:00.061Z</time></trkpt><trkpt lat="45.0684517" lon="7.7118533"><ele>223.33333333333331</ele><time>2026-04-11T12:11:02.059Z</time></trkpt><trkpt lat="45.0684817" lon="7.7120183"><ele>223.66666666666666</ele><time>2026-04-11T12:11:04.063Z</time></trkpt><trkpt lat="45.0684983" lon="7.712105"><ele>224.0</ele><time>2026-04-11T12:11:05.06Z</time></trkpt><trkpt lat="45.0685133" lon="7.7121917"><ele>224.33333333333331</ele><time>2026-04-11T12:11:06.058Z</time></trkpt><trkpt lat="45.06853" lon="7.7122783"><ele>224.66666666666666</ele><time>2026-04-11T12:11:07.063Z</time></trkpt><trkpt lat="45.0685467" lon="7.712365"><ele>225.0</ele><time>2026-04-11T12:11:08.062Z</time></trkpt><trkpt lat="45.0685683" lon="7.7125333"><ele>225.00000000000003</ele><time>2026-04-11T12:11:10.061Z</time></trkpt><trkpt lat="45.0685783" lon="7.7126233"><ele>225.0</ele><time>2026-04-11T12:11:11.064Z</time></trkpt><trkpt lat="45.0685883" lon="7.7127133"><ele>225.00000000000003</ele><time>2026-04-11T12:11:12.063Z</time></trkpt><trkpt lat="45.0685983" lon="7.7128067"><ele>225.00000000000003</ele><time>2026-04-11T12:11:13.064Z</time></trkpt><trkpt lat="45.0686067" lon="7.7129033"><ele>225.0</ele><time>2026-04-11T12:11:14.062Z</time></trkpt><trkpt lat="45.068615" lon="7.7129967"><ele>225.00000000000003</ele><time>2026-04-11T12:11:15.064Z</time></trkpt><trkpt lat="45.068625" lon="7.7130867"><ele>225.00000000000003</ele><time>2026-04-11T12:11:16.061Z</time></trkpt><trkpt lat="45.0686467" lon="7.713255"><ele>224.5</ele><time>2026-04-11T12:11:18.061Z</time></trkpt><trkpt lat="45.0686617" lon="7.7133417"><ele>224.0</ele><time>2026-04-11T12:11:19.063Z</time></trkpt><trkpt lat="45.06869" lon="7.7135117"><ele>223.5</ele><time>2026-04-11T12:11:21.062Z</time></trkpt><trkpt lat="45.068705" lon="7.7136033"><ele>223.0</ele><time>2026-04-11T12:11:22.057Z</time></trkpt><trkpt lat="45.0687283" lon="7.7137767"><ele>222.5</ele><time>2026-04-11T12:11:24.062Z</time></trkpt><trkpt lat="45.0687417" lon="7.7138733"><ele>222.0</ele><time>2026-04-11T12:11:25.063Z</time></trkpt><trkpt lat="45.0687517" lon="7.7139633"><ele>222.0</ele><time>2026-04-11T12:11:26.061Z</time></trkpt><trkpt lat="45.068765" lon="7.7140567"><ele>222.0</ele><time>2026-04-11T12:11:27.063Z</time></trkpt><trkpt lat="45.0687783" lon="7.7141483"><ele>222.0</ele><time>2026-04-11T12:11:28.062Z</time></trkpt><trkpt lat="45.0687967" lon="7.7143217"><ele>222.0</ele><time>2026-04-11T12:11:30.063Z</time></trkpt><trkpt lat="45.0688033" lon="7.7144117"><ele>222.0</ele><time>2026-04-11T12:11:31.062Z</time></trkpt><trkpt lat="45.0688117" lon="7.7145067"><ele>222.0</ele><time>2026-04-11T12:11:32.062Z</time></trkpt><trkpt lat="45.0688233" lon="7.7146017"><ele>222.14285714285714</ele><time>2026-04-11T12:11:33.062Z</time></trkpt><trkpt lat="45.0688333" lon="7.714695"><ele>222.2857142857143</ele><time>2026-04-11T12:11:34.061Z</time></trkpt><trkpt lat="45.068845" lon="7.7147867"><ele>222.42857142857144</ele><time>2026-04-11T12:11:35.061Z</time></trkpt><trkpt lat="45.0688583" lon="7.714885"><ele>222.57142857142856</ele><time>2026-04-11T12:11:36.062Z</time></trkpt><trkpt lat="45.06887" lon="7.7149817"><ele>222.71428571428572</ele><time>2026-04-11T12:11:37.063Z</time></trkpt><trkpt lat="45.06888" lon="7.7150833"><ele>222.85714285714286</ele><time>2026-04-11T12:11:38.063Z</time></trkpt><trkpt lat="45.0688933" lon="7.7151817"><ele>223.0</ele><time>2026-04-11T12:11:39.057Z</time></trkpt><trkpt lat="45.068905" lon="7.71528"><ele>223.14285714285714</ele><time>2026-04-11T12:11:40.061Z</time></trkpt><trkpt lat="45.0689183" lon="7.7153767"><ele>223.28571428571428</ele><time>2026-04-11T12:11:41.064Z</time></trkpt><trkpt lat="45.06893" lon="7.7154733"><ele>223.42857142857144</ele><time>2026-04-11T12:11:42.063Z</time></trkpt><trkpt lat="45.06894" lon="7.7155667"><ele>223.57142857142856</ele><time>2026-04-11T12:11:43.062Z</time></trkpt><trkpt lat="45.06895" lon="7.7156633"><ele>223.71428571428572</ele><time>2026-04-11T12:11:44.062Z</time></trkpt><trkpt lat="45.06896" lon="7.71576"><ele>223.85714285714286</ele><time>2026-04-11T12:11:45.063Z</time></trkpt><trkpt lat="45.06897" lon="7.7158533"><ele>224.0</ele><time>2026-04-11T12:11:46.062Z</time></trkpt><trkpt lat="45.06898" lon="7.7159483"><ele>224.0</ele><time>2026-04-11T12:11:47.061Z</time></trkpt><trkpt lat="45.06899" lon="7.7160417"><ele>224.0</ele><time>2026-04-11T12:11:48.06Z</time></trkpt><trkpt lat="45.069" lon="7.716135"><ele>224.0</ele><time>2026-04-11T12:11:49.062Z</time></trkpt><trkpt lat="45.0690083" lon="7.71623"><ele>224.0</ele><time>2026-04-11T12:11:50.063Z</time></trkpt><trkpt lat="45.06902" lon="7.7163233"><ele>224.0</ele><time>2026-04-11T12:11:51.061Z</time></trkpt><trkpt lat="45.0690333" lon="7.7164167"><ele>224.0</ele><time>2026-04-11T12:11:52.063Z</time></trkpt><trkpt lat="45.0690433" lon="7.7165133"><ele>224.0</ele><time>2026-04-11T12:11:53.06Z</time></trkpt><trkpt lat="45.069055" lon="7.71661"><ele>223.71428571428572</ele><time>2026-04-11T12:11:54.063Z</time></trkpt><trkpt lat="45.069065" lon="7.7167067"><ele>223.42857142857144</ele><time>2026-04-11T12:11:55.062Z</time></trkpt><trkpt lat="45.069075" lon="7.7168033"><ele>223.14285714285714</ele><time>2026-04-11T12:11:56.062Z</time></trkpt><trkpt lat="45.069085" lon="7.7168983"><ele>222.85714285714286</ele><time>2026-04-11T12:11:57.063Z</time></trkpt><trkpt lat="45.0690967" lon="7.716995"><ele>222.57142857142858</ele><time>2026-04-11T12:11:58.061Z</time></trkpt><trkpt lat="45.06911" lon="7.7170933"><ele>222.28571428571428</ele><time>2026-04-11T12:11:59.06Z</time></trkpt><trkpt lat="45.0691217" lon="7.71719"><ele>222.0</ele><time>2026-04-11T12:12:00.058Z</time></trkpt><trkpt lat="45.069135" lon="7.7172867"><ele>222.28571428571428</ele><time>2026-04-11T12:12:01.061Z</time></trkpt><trkpt lat="45.069145" lon="7.717385"><ele>222.57142857142858</ele><time>2026-04-11T12:12:02.06Z</time></trkpt><trkpt lat="45.0691567" lon="7.7174817"><ele>222.85714285714286</ele><time>2026-04-11T12:12:03.061Z</time></trkpt><trkpt lat="45.0691667" lon="7.7175783"><ele>223.14285714285714</ele><time>2026-04-11T12:12:04.063Z</time></trkpt><trkpt lat="45.06918" lon="7.7176733"><ele>223.42857142857144</ele><time>2026-04-11T12:12:05.062Z</time></trkpt><trkpt lat="45.0691833" lon="7.7177717"><ele>223.71428571428572</ele><time>2026-04-11T12:12:06.061Z</time></trkpt><trkpt lat="45.0691933" lon="7.7178667"><ele>224.0</ele><time>2026-04-11T12:12:07.06Z</time></trkpt><trkpt lat="45.069205" lon="7.71796"><ele>224.0</ele><time>2026-04-11T12:12:08.064Z</time></trkpt><trkpt lat="45.0692183" lon="7.7180533"><ele>224.0</ele><time>2026-04-11T12:12:09.062Z</time></trkpt><trkpt lat="45.0692283" lon="7.7181467"><ele>224.0</ele><time>2026-04-11T12:12:10.06Z</time></trkpt><trkpt lat="45.0692467" lon="7.7182433"><ele>224.0</ele><time>2026-04-11T12:12:11.062Z</time></trkpt><trkpt lat="45.0692667" lon="7.71834"><ele>224.0</ele><time>2026-04-11T12:12:12.063Z</time></trkpt><trkpt lat="45.0692817" lon="7.7184333"><ele>224.0</ele><time>2026-04-11T12:12:13.061Z</time></trkpt><trkpt lat="45.06929" lon="7.7185267"><ele>224.0</ele><time>2026-04-11T12:12:14.06Z</time></trkpt><trkpt lat="45.0692967" lon="7.7186217"><ele>223.71428571428572</ele><time>2026-04-11T12:12:15.062Z</time></trkpt><trkpt lat="45.069305" lon="7.718715"><ele>223.42857142857144</ele><time>2026-04-11T12:12:16.063Z</time></trkpt><trkpt lat="45.069315" lon="7.71881"><ele>223.14285714285714</ele><time>2026-04-11T12:12:17.062Z</time></trkpt><trkpt lat="45.0693283" lon="7.7189067"><ele>222.85714285714286</ele><time>2026-04-11T12:12:18.062Z</time></trkpt><trkpt lat="45.06934" lon="7.7190067"><ele>222.57142857142858</ele><time>2026-04-11T12:12:19.061Z</time></trkpt><trkpt lat="45.069355" lon="7.719105"><ele>222.28571428571428</ele><time>2026-04-11T12:12:20.063Z</time></trkpt><trkpt lat="45.0693733" lon="7.7191967"><ele>222.0</ele><time>2026-04-11T12:12:21.063Z</time></trkpt><trkpt lat="45.0693867" lon="7.7192883"><ele>222.0</ele><time>2026-04-11T12:12:22.061Z</time></trkpt><trkpt lat="45.0693983" lon="7.71938"><ele>222.0</ele><time>2026-04-11T12:12:23.06Z</time></trkpt><trkpt lat="45.0694117" lon="7.7194733"><ele>222.0</ele><time>2026-04-11T12:12:24.06Z</time></trkpt><trkpt lat="45.0694233" lon="7.7195667"><ele>222.0</ele><time>2026-04-11T12:12:25.063Z</time></trkpt><trkpt lat="45.0694333" lon="7.7196567"><ele>222.0</ele><time>2026-04-11T12:12:26.06Z</time></trkpt><trkpt lat="45.069445" lon="7.71975"><ele>222.0</ele><time>2026-04-11T12:12:27.055Z</time></trkpt><trkpt lat="45.0694533" lon="7.71984"><ele>222.0</ele><time>2026-04-11T12:12:28.061Z</time></trkpt><trkpt lat="45.0694667" lon="7.7200017"><ele>222.0</ele><time>2026-04-11T12:12:30.065Z</time></trkpt><trkpt lat="45.0694783" lon="7.7201417"><ele>222.0</ele><time>2026-04-11T12:12:32.058Z</time></trkpt><trkpt lat="45.0694983" lon="7.7202567"><ele>222.0</ele><time>2026-04-11T12:12:34.061Z</time></trkpt><trkpt lat="45.06952" lon="7.7203533"><ele>222.0</ele><time>2026-04-11T12:12:36.062Z</time></trkpt><trkpt lat="45.069545" lon="7.7204633"><ele>222.0</ele><time>2026-04-11T12:12:39.068Z</time></trkpt><trkpt lat="45.0695433" lon="7.7205633"><ele>222.0</ele><time>2026-04-11T12:12:41.06Z</time></trkpt><trkpt lat="45.0695583" lon="7.72071"><ele>221.85714285714286</ele><time>2026-04-11T12:12:43.062Z</time></trkpt><trkpt lat="45.0695783" lon="7.72088"><ele>221.71428571428572</ele><time>2026-04-11T12:12:45.063Z</time></trkpt><trkpt lat="45.06959" lon="7.72097"><ele>221.57142857142858</ele><time>2026-04-11T12:12:46.061Z</time></trkpt><trkpt lat="45.0695983" lon="7.72106"><ele>221.42857142857144</ele><time>2026-04-11T12:12:47.061Z</time></trkpt><trkpt lat="45.0696133" lon="7.7211517"><ele>221.28571428571428</ele><time>2026-04-11T12:12:48.061Z</time></trkpt><trkpt lat="45.0696333" lon="7.72124"><ele>221.14285714285717</ele><time>2026-04-11T12:12:49.063Z</time></trkpt><trkpt lat="45.0696483" lon="7.7213283"><ele>221.0</ele><time>2026-04-11T12:12:50.062Z</time></trkpt><trkpt lat="45.0696683" lon="7.721415"><ele>220.85714285714286</ele><time>2026-04-11T12:12:51.065Z</time></trkpt><trkpt lat="45.0696917" lon="7.7215067"><ele>220.71428571428572</ele><time>2026-04-11T12:12:52.063Z</time></trkpt><trkpt lat="45.0697067" lon="7.7215983"><ele>220.57142857142856</ele><time>2026-04-11T12:12:53.061Z</time></trkpt><trkpt lat="45.069725" lon="7.7216967"><ele>220.42857142857144</ele><time>2026-04-11T12:12:54.061Z</time></trkpt><trkpt lat="45.0697467" lon="7.72179"><ele>220.28571428571428</ele><time>2026-04-11T12:12:55.063Z</time></trkpt><trkpt lat="45.06977" lon="7.7218833"><ele>220.14285714285714</ele><time>2026-04-11T12:12:56.062Z</time></trkpt><trkpt lat="45.0697917" lon="7.721975"><ele>220.0</ele><time>2026-04-11T12:12:57.061Z</time></trkpt><trkpt lat="45.0698117" lon="7.722065"><ele>219.99999999999997</ele><time>2026-04-11T12:12:58.059Z</time></trkpt><trkpt lat="45.0698317" lon="7.7221583"><ele>220.0</ele><time>2026-04-11T12:12:59.062Z</time></trkpt><trkpt lat="45.0698517" lon="7.722255"><ele>220.0</ele><time>2026-04-11T12:13:00.061Z</time></trkpt><trkpt lat="45.0698717" lon="7.72235"><ele>220.0</ele><time>2026-04-11T12:13:01.061Z</time></trkpt><trkpt lat="45.0698917" lon="7.722445"><ele>220.0</ele><time>2026-04-11T12:13:02.066Z</time></trkpt><trkpt lat="45.0699117" lon="7.722535"><ele>219.99999999999997</ele><time>2026-04-11T12:13:03.063Z</time></trkpt><trkpt lat="45.069935" lon="7.7226267"><ele>220.0</ele><time>2026-04-11T12:13:04.06Z</time></trkpt><trkpt lat="45.0699567" lon="7.7227167"><ele>219.42857142857142</ele><time>2026-04-11T12:13:05.062Z</time></trkpt><trkpt lat="45.0699767" lon="7.7228067"><ele>218.85714285714286</ele><time>2026-04-11T12:13:06.062Z</time></trkpt><trkpt lat="45.0699967" lon="7.7228967"><ele>218.28571428571428</ele><time>2026-04-11T12:13:07.061Z</time></trkpt><trkpt lat="45.0700217" lon="7.7229833"><ele>217.71428571428572</ele><time>2026-04-11T12:13:08.062Z</time></trkpt><trkpt lat="45.0700467" lon="7.7230717"><ele>217.14285714285714</ele><time>2026-04-11T12:13:09.063Z</time></trkpt><trkpt lat="45.070075" lon="7.7231533"><ele>216.57142857142856</ele><time>2026-04-11T12:13:10.061Z</time></trkpt><trkpt lat="45.0701017" lon="7.7232383"><ele>216.0</ele><time>2026-04-11T12:13:11.061Z</time></trkpt><trkpt lat="45.0701217" lon="7.7233267"><ele>216.0</ele><time>2026-04-11T12:13:12.06Z</time></trkpt><trkpt lat="45.07014" lon="7.7234183"><ele>216.0</ele><time>2026-04-11T12:13:13.06Z</time></trkpt><trkpt lat="45.0701567" lon="7.7235133"><ele>216.0</ele><time>2026-04-11T12:13:14.062Z</time></trkpt><trkpt lat="45.0701733" lon="7.7236033"><ele>216.0</ele><time>2026-04-11T12:13:15.062Z</time></trkpt><trkpt lat="45.0701917" lon="7.7236983"><ele>216.0</ele><time>2026-04-11T12:13:16.059Z</time></trkpt><trkpt lat="45.0702083" lon="7.7237933"><ele>216.0</ele><time>2026-04-11T12:13:17.06Z</time></trkpt><trkpt lat="45.07023" lon="7.7238833"><ele>216.0</ele><time>2026-04-11T12:13:18.061Z</time></trkpt><trkpt lat="45.0702517" lon="7.7239717"><ele>216.42857142857142</ele><time>2026-04-11T12:13:19.06Z</time></trkpt><trkpt lat="45.070275" lon="7.7240583"><ele>216.85714285714283</ele><time>2026-04-11T12:13:20.062Z</time></trkpt><trkpt lat="45.0703017" lon="7.7241417"><ele>217.28571428571428</ele><time>2026-04-11T12:13:21.063Z</time></trkpt><trkpt lat="45.0703317" lon="7.724225"><ele>217.71428571428572</ele><time>2026-04-11T12:13:22.061Z</time></trkpt><trkpt lat="45.0703667" lon="7.724305"><ele>218.14285714285714</ele><time>2026-04-11T12:13:23.062Z</time></trkpt><trkpt lat="45.070405" lon="7.7243867"><ele>218.57142857142858</ele><time>2026-04-11T12:13:24.062Z</time></trkpt><trkpt lat="45.07045" lon="7.7244533"><ele>219.0</ele><time>2026-04-11T12:13:25.062Z</time></trkpt><trkpt lat="45.0705" lon="7.724525"><ele>219.0</ele><time>2026-04-11T12:13:26.062Z</time></trkpt><trkpt lat="45.07055" lon="7.724605"><ele>219.0</ele><time>2026-04-11T12:13:27.062Z</time></trkpt><trkpt lat="45.0706" lon="7.7246767"><ele>219.0</ele><time>2026-04-11T12:13:28.062Z</time></trkpt><trkpt lat="45.0706483" lon="7.724755"><ele>219.0</ele><time>2026-04-11T12:13:29.062Z</time></trkpt><trkpt lat="45.070695" lon="7.7248267"><ele>219.0</ele><time>2026-04-11T12:13:30.063Z</time></trkpt><trkpt lat="45.0707417" lon="7.7248983"><ele>219.0</ele><time>2026-04-11T12:13:31.063Z</time></trkpt><trkpt lat="45.07079" lon="7.7249683"><ele>219.0</ele><time>2026-04-11T12:13:32.062Z</time></trkpt><trkpt lat="45.0708367" lon="7.7250283"><ele>218.71428571428572</ele><time>2026-04-11T12:13:33.064Z</time></trkpt><trkpt lat="45.0708933" lon="7.7250883"><ele>218.42857142857142</ele><time>2026-04-11T12:13:34.064Z</time></trkpt><trkpt lat="45.0709417" lon="7.7251583"><ele>218.14285714285714</ele><time>2026-04-11T12:13:35.059Z</time></trkpt><trkpt lat="45.07099" lon="7.7252283"><ele>217.85714285714286</ele><time>2026-04-11T12:13:36.061Z</time></trkpt><trkpt lat="45.0710367" lon="7.7252967"><ele>217.57142857142856</ele><time>2026-04-11T12:13:37.063Z</time></trkpt><trkpt lat="45.0710783" lon="7.7253733"><ele>217.28571428571428</ele><time>2026-04-11T12:13:38.06Z</time></trkpt><trkpt lat="45.07112" lon="7.7254483"><ele>217.0</ele><time>2026-04-11T12:13:39.063Z</time></trkpt><trkpt lat="45.071165" lon="7.7255217"><ele>217.0</ele><time>2026-04-11T12:13:40.062Z</time></trkpt><trkpt lat="45.071205" lon="7.7255933"><ele>217.0</ele><time>2026-04-11T12:13:41.062Z</time></trkpt><trkpt lat="45.0712467" lon="7.72567"><ele>217.0</ele><time>2026-04-11T12:13:42.061Z</time></trkpt><trkpt lat="45.0712867" lon="7.725745"><ele>217.0</ele><time>2026-04-11T12:13:43.063Z</time></trkpt><trkpt lat="45.07133" lon="7.725825"><ele>217.0</ele><time>2026-04-11T12:13:44.062Z</time></trkpt><trkpt lat="45.071375" lon="7.725895"><ele>217.0</ele><time>2026-04-11T12:13:45.064Z</time></trkpt><trkpt lat="45.0714183" lon="7.7259667"><ele>217.0</ele><time>2026-04-11T12:13:46.062Z</time></trkpt><trkpt lat="45.0714633" lon="7.726045"><ele>217.57142857142858</ele><time>2026-04-11T12:13:47.062Z</time></trkpt><trkpt lat="45.07151" lon="7.726115"><ele>218.14285714285714</ele><time>2026-04-11T12:13:48.062Z</time></trkpt><trkpt lat="45.0715583" lon="7.7261883"><ele>218.71428571428572</ele><time>2026-04-11T12:13:49.061Z</time></trkpt><trkpt lat="45.0716067" lon="7.7262617"><ele>219.28571428571428</ele><time>2026-04-11T12:13:50.059Z</time></trkpt><trkpt lat="45.07165" lon="7.7263367"><ele>219.85714285714286</ele><time>2026-04-11T12:13:51.062Z</time></trkpt><trkpt lat="45.071695" lon="7.7264083"><ele>220.42857142857144</ele><time>2026-04-11T12:13:52.061Z</time></trkpt><trkpt lat="45.07174" lon="7.726485"><ele>221.0</ele><time>2026-04-11T12:13:53.061Z</time></trkpt><trkpt lat="45.0717867" lon="7.7265667"><ele>221.00000000000003</ele><time>2026-04-11T12:13:54.066Z</time></trkpt><trkpt lat="45.07183" lon="7.7266467"><ele>221.0</ele><time>2026-04-11T12:13:55.064Z</time></trkpt><trkpt lat="45.071875" lon="7.7267317"><ele>221.0</ele><time>2026-04-11T12:13:56.064Z</time></trkpt><trkpt lat="45.0719167" lon="7.726815"><ele>221.0</ele><time>2026-04-11T12:13:57.062Z</time></trkpt><trkpt lat="45.07196" lon="7.7268967"><ele>221.0</ele><time>2026-04-11T12:13:58.06Z</time></trkpt><trkpt lat="45.0720117" lon="7.7269667"><ele>221.00000000000003</ele><time>2026-04-11T12:13:59.061Z</time></trkpt><trkpt lat="45.0720633" lon="7.7270483"><ele>221.0</ele><time>2026-04-11T12:14:00.06Z</time></trkpt><trkpt lat="45.0721117" lon="7.7271067"><ele>221.00000000000003</ele><time>2026-04-11T12:14:01.061Z</time></trkpt><trkpt lat="45.0721633" lon="7.72718"><ele>221.0</ele><time>2026-04-11T12:14:02.061Z</time></trkpt><trkpt lat="45.072215" lon="7.7272533"><ele>221.0</ele><time>2026-04-11T12:14:03.061Z</time></trkpt><trkpt lat="45.0722683" lon="7.72732"><ele>221.0</ele><time>2026-04-11T12:14:04.06Z</time></trkpt><trkpt lat="45.0723233" lon="7.727385"><ele>221.0</ele><time>2026-04-11T12:14:05.061Z</time></trkpt><trkpt lat="45.0723783" lon="7.72745"><ele>221.00000000000003</ele><time>2026-04-11T12:14:06.061Z</time></trkpt><trkpt lat="45.0724333" lon="7.7275183"><ele>221.0</ele><time>2026-04-11T12:14:07.065Z</time></trkpt><trkpt lat="45.0724933" lon="7.727575"><ele>221.00000000000003</ele><time>2026-04-11T12:14:08.06Z</time></trkpt><trkpt lat="45.0725567" lon="7.72763"><ele>221.0</ele><time>2026-04-11T12:14:09.063Z</time></trkpt><trkpt lat="45.0726183" lon="7.7276917"><ele>221.0</ele><time>2026-04-11T12:14:10.061Z</time></trkpt><trkpt lat="45.0726817" lon="7.7277483"><ele>221.0</ele><time>2026-04-11T12:14:11.06Z</time></trkpt><trkpt lat="45.0727467" lon="7.7278033"><ele>221.0</ele><time>2026-04-11T12:14:12.062Z</time></trkpt><trkpt lat="45.0728117" lon="7.727855"><ele>221.00000000000003</ele><time>2026-04-11T12:14:13.062Z</time></trkpt><trkpt lat="45.072875" lon="7.7279083"><ele>221.0</ele><time>2026-04-11T12:14:14.059Z</time></trkpt><trkpt lat="45.0729333" lon="7.7279617"><ele>221.14285714285717</ele><time>2026-04-11T12:14:15.062Z</time></trkpt><trkpt lat="45.0729883" lon="7.7280167"><ele>221.28571428571428</ele><time>2026-04-11T12:14:16.061Z</time></trkpt><trkpt lat="45.0730533" lon="7.7280667"><ele>221.42857142857144</ele><time>2026-04-11T12:14:17.062Z</time></trkpt><trkpt lat="45.0731233" lon="7.7281183"><ele>221.57142857142858</ele><time>2026-04-11T12:14:18.061Z</time></trkpt><trkpt lat="45.07319" lon="7.7281633"><ele>221.71428571428572</ele><time>2026-04-11T12:14:19.063Z</time></trkpt><trkpt lat="45.073255" lon="7.72821"><ele>221.85714285714286</ele><time>2026-04-11T12:14:20.061Z</time></trkpt><trkpt lat="45.073325" lon="7.72825"><ele>222.0</ele><time>2026-04-11T12:14:21.062Z</time></trkpt><trkpt lat="45.073395" lon="7.7282917"><ele>221.85714285714286</ele><time>2026-04-11T12:14:22.063Z</time></trkpt><trkpt lat="45.0734633" lon="7.7283333"><ele>221.71428571428572</ele><time>2026-04-11T12:14:23.061Z</time></trkpt><trkpt lat="45.07353" lon="7.7283733"><ele>221.57142857142858</ele><time>2026-04-11T12:14:24.063Z</time></trkpt><trkpt lat="45.0736" lon="7.7284133"><ele>221.42857142857144</ele><time>2026-04-11T12:14:25.064Z</time></trkpt><trkpt lat="45.07367" lon="7.72845"><ele>221.28571428571428</ele><time>2026-04-11T12:14:26.067Z</time></trkpt><trkpt lat="45.07374" lon="7.7284817"><ele>221.14285714285717</ele><time>2026-04-11T12:14:27.063Z</time></trkpt><trkpt lat="45.07381" lon="7.72852"><ele>221.0</ele><time>2026-04-11T12:14:28.062Z</time></trkpt><trkpt lat="45.073875" lon="7.7285633"><ele>221.00000000000003</ele><time>2026-04-11T12:14:29.06Z</time></trkpt><trkpt lat="45.0739383" lon="7.728615"><ele>221.0</ele><time>2026-04-11T12:14:30.062Z</time></trkpt><trkpt lat="45.0740017" lon="7.7286617"><ele>221.0</ele><time>2026-04-11T12:14:31.067Z</time></trkpt><trkpt lat="45.0740683" lon="7.7287033"><ele>221.0</ele><time>2026-04-11T12:14:32.063Z</time></trkpt><trkpt lat="45.074135" lon="7.72874"><ele>221.0</ele><time>2026-04-11T12:14:33.063Z</time></trkpt><trkpt lat="45.0742" lon="7.7287617"><ele>221.00000000000003</ele><time>2026-04-11T12:14:34.06Z</time></trkpt><trkpt lat="45.0742683" lon="7.7287867"><ele>221.0</ele><time>2026-04-11T12:14:35.061Z</time></trkpt><trkpt lat="45.0743333" lon="7.7288183"><ele>221.00000000000003</ele><time>2026-04-11T12:14:36.06Z</time></trkpt><trkpt lat="45.0744017" lon="7.7288417"><ele>221.0</ele><time>2026-04-11T12:14:37.061Z</time></trkpt><trkpt lat="45.0744683" lon="7.7288633"><ele>221.0</ele><time>2026-04-11T12:14:38.063Z</time></trkpt><trkpt lat="45.0745367" lon="7.7288767"><ele>221.0</ele><time>2026-04-11T12:14:39.061Z</time></trkpt><trkpt lat="45.074605" lon="7.7288867"><ele>221.0</ele><time>2026-04-11T12:14:40.061Z</time></trkpt><trkpt lat="45.074675" lon="7.7288883"><ele>221.00000000000003</ele><time>2026-04-11T12:14:41.059Z</time></trkpt><trkpt lat="45.0747433" lon="7.72889"><ele>221.0</ele><time>2026-04-11T12:14:42.062Z</time></trkpt><trkpt lat="45.0748083" lon="7.7288883"><ele>221.00000000000003</ele><time>2026-04-11T12:14:43.062Z</time></trkpt><trkpt lat="45.074875" lon="7.7288883"><ele>221.0</ele><time>2026-04-11T12:14:44.061Z</time></trkpt><trkpt lat="45.07494" lon="7.7288933"><ele>221.0</ele><time>2026-04-11T12:14:45.063Z</time></trkpt><trkpt lat="45.075005" lon="7.7289017"><ele>221.0</ele><time>2026-04-11T12:14:46.06Z</time></trkpt><trkpt lat="45.07513" lon="7.72891"><ele>221.00000000000003</ele><time>2026-04-11T12:14:48.061Z</time></trkpt><trkpt lat="45.0752483" lon="7.7289333"><ele>221.0</ele><time>2026-04-11T12:14:50.06Z</time></trkpt><trkpt lat="45.0753667" lon="7.7289217"><ele>220.50000000000003</ele><time>2026-04-11T12:14:52.06Z</time></trkpt><trkpt lat="45.0754683" lon="7.7289267"><ele>220.0</ele><time>2026-04-11T12:14:54.061Z</time></trkpt><trkpt lat="45.0755333" lon="7.7289367"><ele>219.5</ele><time>2026-04-11T12:14:55.062Z</time></trkpt><trkpt lat="45.0756033" lon="7.7289383"><ele>219.0</ele><time>2026-04-11T12:14:56.063Z</time></trkpt><trkpt lat="45.0756667" lon="7.728945"><ele>218.50000000000003</ele><time>2026-04-11T12:14:57.061Z</time></trkpt><trkpt lat="45.0757433" lon="7.7289317"><ele>218.0</ele><time>2026-04-11T12:14:58.06Z</time></trkpt><trkpt lat="45.0758167" lon="7.7289183"><ele>217.8</ele><time>2026-04-11T12:14:59.061Z</time></trkpt><trkpt lat="45.0758917" lon="7.7289067"><ele>217.60000000000002</ele><time>2026-04-11T12:15:00.059Z</time></trkpt><trkpt lat="45.0759617" lon="7.7289033"><ele>217.39999999999998</ele><time>2026-04-11T12:15:01.061Z</time></trkpt><trkpt lat="45.0760833" lon="7.7288817"><ele>217.2</ele><time>2026-04-11T12:15:03.06Z</time></trkpt><trkpt lat="45.0762083" lon="7.7288633"><ele>217.0</ele><time>2026-04-11T12:15:05.06Z</time></trkpt><trkpt lat="45.0763267" lon="7.7288467"><ele>217.0</ele><time>2026-04-11T12:15:07.06Z</time></trkpt><trkpt lat="45.07639" lon="7.728835"><ele>217.0</ele><time>2026-04-11T12:15:08.059Z</time></trkpt><trkpt lat="45.076505" lon="7.7288283"><ele>217.0</ele><time>2026-04-11T12:15:10.062Z</time></trkpt><trkpt lat="45.0766283" lon="7.7288167"><ele>217.0</ele><time>2026-04-11T12:15:12.063Z</time></trkpt><trkpt lat="45.0767333" lon="7.7287567"><ele>217.0</ele><time>2026-04-11T12:15:14.062Z</time></trkpt><trkpt lat="45.07682" lon="7.7286567"><ele>216.99999999999997</ele><time>2026-04-11T12:15:16.063Z</time></trkpt><trkpt lat="45.076925" lon="7.72856"><ele>217.0</ele><time>2026-04-11T12:15:18.06Z</time></trkpt><trkpt lat="45.077025" lon="7.72847"><ele>217.0</ele><time>2026-04-11T12:15:20.061Z</time></trkpt><trkpt lat="45.0770767" lon="7.7284117"><ele>217.0</ele><time>2026-04-11T12:15:21.064Z</time></trkpt><trkpt lat="45.07713" lon="7.72835"><ele>216.99999999999997</ele><time>2026-04-11T12:15:22.062Z</time></trkpt><trkpt lat="45.077185" lon="7.7282883"><ele>217.0</ele><time>2026-04-11T12:15:23.062Z</time></trkpt><trkpt lat="45.0772483" lon="7.7282267"><ele>216.71428571428572</ele><time>2026-04-11T12:15:24.062Z</time></trkpt><trkpt lat="45.0773133" lon="7.728165"><ele>216.42857142857144</ele><time>2026-04-11T12:15:25.063Z</time></trkpt><trkpt lat="45.0773717" lon="7.72811"><ele>216.14285714285714</ele><time>2026-04-11T12:15:26.062Z</time></trkpt><trkpt lat="45.0774217" lon="7.7280517"><ele>215.85714285714286</ele><time>2026-04-11T12:15:27.06Z</time></trkpt><trkpt lat="45.0774733" lon="7.728"><ele>215.57142857142858</ele><time>2026-04-11T12:15:28.06Z</time></trkpt><trkpt lat="45.0775333" lon="7.7279367"><ele>215.28571428571428</ele><time>2026-04-11T12:15:29.063Z</time></trkpt><trkpt lat="45.07759" lon="7.7278783"><ele>215.0</ele><time>2026-04-11T12:15:30.061Z</time></trkpt><trkpt lat="45.0776467" lon="7.7278233"><ele>215.0</ele><time>2026-04-11T12:15:31.065Z</time></trkpt><trkpt lat="45.0777033" lon="7.7277733"><ele>215.0</ele><time>2026-04-11T12:15:32.062Z</time></trkpt><trkpt lat="45.0777533" lon="7.72771"><ele>215.0</ele><time>2026-04-11T12:15:33.063Z</time></trkpt><trkpt lat="45.0778" lon="7.7276433"><ele>215.0</ele><time>2026-04-11T12:15:34.062Z</time></trkpt><trkpt lat="45.0778517" lon="7.7275783"><ele>215.0</ele><time>2026-04-11T12:15:35.06Z</time></trkpt><trkpt lat="45.0779033" lon="7.7275183"><ele>215.0</ele><time>2026-04-11T12:15:36.064Z</time></trkpt><trkpt lat="45.0779567" lon="7.7274683"><ele>215.0</ele><time>2026-04-11T12:15:37.064Z</time></trkpt><trkpt lat="45.0780133" lon="7.7274133"><ele>214.85714285714286</ele><time>2026-04-11T12:15:38.06Z</time></trkpt><trkpt lat="45.0780683" lon="7.727355"><ele>214.71428571428572</ele><time>2026-04-11T12:15:39.063Z</time></trkpt><trkpt lat="45.0781233" lon="7.7272933"><ele>214.57142857142858</ele><time>2026-04-11T12:15:40.062Z</time></trkpt><trkpt lat="45.078175" lon="7.727235"><ele>214.42857142857144</ele><time>2026-04-11T12:15:41.062Z</time></trkpt><trkpt lat="45.0782233" lon="7.7271767"><ele>214.28571428571428</ele><time>2026-04-11T12:15:42.064Z</time></trkpt><trkpt lat="45.078275" lon="7.727125"><ele>214.14285714285717</ele><time>2026-04-11T12:15:43.063Z</time></trkpt><trkpt lat="45.0783283" lon="7.7270717"><ele>214.0</ele><time>2026-04-11T12:15:44.062Z</time></trkpt><trkpt lat="45.0783867" lon="7.7270183"><ele>214.00000000000003</ele><time>2026-04-11T12:15:45.063Z</time></trkpt><trkpt lat="45.078445" lon="7.7269717"><ele>214.0</ele><time>2026-04-11T12:15:46.063Z</time></trkpt><trkpt lat="45.0785017" lon="7.7269117"><ele>214.0</ele><time>2026-04-11T12:15:47.063Z</time></trkpt><trkpt lat="45.0785583" lon="7.7268467"><ele>214.0</ele><time>2026-04-11T12:15:48.062Z</time></trkpt><trkpt lat="45.078615" lon="7.72678"><ele>214.0</ele><time>2026-04-11T12:15:49.061Z</time></trkpt><trkpt lat="45.0786733" lon="7.7267217"><ele>214.00000000000003</ele><time>2026-04-11T12:15:50.06Z</time></trkpt><trkpt lat="45.0787317" lon="7.726665"><ele>214.0</ele><time>2026-04-11T12:15:51.064Z</time></trkpt><trkpt lat="45.0787867" lon="7.7266083"><ele>214.14285714285717</ele><time>2026-04-11T12:15:52.06Z</time></trkpt><trkpt lat="45.078845" lon="7.7265517"><ele>214.28571428571428</ele><time>2026-04-11T12:15:53.062Z</time></trkpt><trkpt lat="45.0788967" lon="7.7264967"><ele>214.42857142857144</ele><time>2026-04-11T12:15:54.061Z</time></trkpt><trkpt lat="45.0789533" lon="7.7264417"><ele>214.57142857142858</ele><time>2026-04-11T12:15:55.062Z</time></trkpt><trkpt lat="45.0790067" lon="7.726385"><ele>214.71428571428572</ele><time>2026-04-11T12:15:56.062Z</time></trkpt><trkpt lat="45.07906" lon="7.7263317"><ele>214.85714285714286</ele><time>2026-04-11T12:15:57.063Z</time></trkpt><trkpt lat="45.0791117" lon="7.72628"><ele>215.0</ele><time>2026-04-11T12:15:58.061Z</time></trkpt><trkpt lat="45.0792133" lon="7.7261867"><ele>215.0</ele><time>2026-04-11T12:16:00.061Z</time></trkpt><trkpt lat="45.0793267" lon="7.7261033"><ele>215.0</ele><time>2026-04-11T12:16:02.061Z</time></trkpt><trkpt lat="45.0794367" lon="7.7260217"><ele>215.0</ele><time>2026-04-11T12:16:04.062Z</time></trkpt><trkpt lat="45.07949" lon="7.72597"><ele>215.0</ele><time>2026-04-11T12:16:05.06Z</time></trkpt><trkpt lat="45.0795933" lon="7.725875"><ele>215.0</ele><time>2026-04-11T12:16:07.068Z</time></trkpt><trkpt lat="45.0796983" lon="7.72579"><ele>215.5</ele><time>2026-04-11T12:16:09.061Z</time></trkpt><trkpt lat="45.0798" lon="7.7256983"><ele>216.0</ele><time>2026-04-11T12:16:11.062Z</time></trkpt><trkpt lat="45.0799" lon="7.7256283"><ele>216.5</ele><time>2026-04-11T12:16:13.062Z</time></trkpt><trkpt lat="45.0800083" lon="7.725575"><ele>217.0</ele><time>2026-04-11T12:16:15.062Z</time></trkpt><trkpt lat="45.080115" lon="7.7254917"><ele>216.2</ele><time>2026-04-11T12:16:17.063Z</time></trkpt><trkpt lat="45.080215" lon="7.7254017"><ele>215.39999999999998</ele><time>2026-04-11T12:16:19.061Z</time></trkpt><trkpt lat="45.0802733" lon="7.7253617"><ele>214.60000000000002</ele><time>2026-04-11T12:16:20.06Z</time></trkpt><trkpt lat="45.0803817" lon="7.7253067"><ele>213.8</ele><time>2026-04-11T12:16:22.061Z</time></trkpt><trkpt lat="45.0804467" lon="7.72528"><ele>213.0</ele><time>2026-04-11T12:16:23.06Z</time></trkpt><trkpt lat="45.0805667" lon="7.72524"><ele>212.85714285714283</ele><time>2026-04-11T12:16:25.061Z</time></trkpt><trkpt lat="45.0806333" lon="7.7252117"><ele>212.71428571428572</ele><time>2026-04-11T12:16:26.062Z</time></trkpt><trkpt lat="45.0806967" lon="7.72518"><ele>212.57142857142856</ele><time>2026-04-11T12:16:27.062Z</time></trkpt><trkpt lat="45.0807567" lon="7.725135"><ele>212.42857142857142</ele><time>2026-04-11T12:16:28.061Z</time></trkpt><trkpt lat="45.0808167" lon="7.7250933"><ele>212.28571428571428</ele><time>2026-04-11T12:16:29.06Z</time></trkpt><trkpt lat="45.080875" lon="7.7250533"><ele>212.14285714285714</ele><time>2026-04-11T12:16:30.061Z</time></trkpt><trkpt lat="45.0809367" lon="7.72501"><ele>212.0</ele><time>2026-04-11T12:16:31.061Z</time></trkpt><trkpt lat="45.080995" lon="7.72497"><ele>211.85714285714286</ele><time>2026-04-11T12:16:32.059Z</time></trkpt><trkpt lat="45.0810533" lon="7.7249267"><ele>211.7142857142857</ele><time>2026-04-11T12:16:33.065Z</time></trkpt><trkpt lat="45.0811167" lon="7.7248867"><ele>211.57142857142856</ele><time>2026-04-11T12:16:34.059Z</time></trkpt><trkpt lat="45.0811783" lon="7.72484"><ele>211.42857142857144</ele><time>2026-04-11T12:16:35.065Z</time></trkpt><trkpt lat="45.0812383" lon="7.724795"><ele>211.28571428571428</ele><time>2026-04-11T12:16:36.063Z</time></trkpt><trkpt lat="45.0812967" lon="7.7247517"><ele>211.14285714285714</ele><time>2026-04-11T12:16:37.062Z</time></trkpt><trkpt lat="45.0813533" lon="7.72471"><ele>211.0</ele><time>2026-04-11T12:16:38.062Z</time></trkpt><trkpt lat="45.081465" lon="7.7246317"><ele>210.99999999999997</ele><time>2026-04-11T12:16:40.06Z</time></trkpt><trkpt lat="45.081575" lon="7.7245683"><ele>211.0</ele><time>2026-04-11T12:16:42.061Z</time></trkpt><trkpt lat="45.08169" lon="7.7245433"><ele>211.0</ele><time>2026-04-11T12:16:44.062Z</time></trkpt><trkpt lat="45.0817533" lon="7.724555"><ele>211.0</ele><time>2026-04-11T12:16:45.063Z</time></trkpt><trkpt lat="45.0818233" lon="7.724585"><ele>210.99999999999997</ele><time>2026-04-11T12:16:46.062Z</time></trkpt><trkpt lat="45.081885" lon="7.7246233"><ele>211.0</ele><time>2026-04-11T12:16:47.062Z</time></trkpt><trkpt lat="45.0819433" lon="7.7246667"><ele>211.33333333333331</ele><time>2026-04-11T12:16:48.06Z</time></trkpt><trkpt lat="45.08202" lon="7.7247683"><ele>211.66666666666666</ele><time>2026-04-11T12:16:50.064Z</time></trkpt><trkpt lat="45.0820467" lon="7.72487"><ele>212.0</ele><time>2026-04-11T12:16:52.061Z</time></trkpt><trkpt lat="45.0820133" lon="7.7249883"><ele>212.33333333333331</ele><time>2026-04-11T12:16:55.064Z</time></trkpt><trkpt lat="45.08195" lon="7.72504"><ele>212.66666666666666</ele><time>2026-04-11T12:16:57.061Z</time></trkpt><trkpt lat="45.0818717" lon="7.7250717"><ele>213.0</ele><time>2026-04-11T12:16:59.06Z</time></trkpt><trkpt lat="45.0817967" lon="7.725145"><ele>213.4</ele><time>2026-04-11T12:17:01.061Z</time></trkpt><trkpt lat="45.0817567" lon="7.7252617"><ele>213.8</ele><time>2026-04-11T12:17:03.061Z</time></trkpt><trkpt lat="45.0817317" lon="7.72539"><ele>214.2</ele><time>2026-04-11T12:17:05.058Z</time></trkpt><trkpt lat="45.08171" lon="7.7255183"><ele>214.6</ele><time>2026-04-11T12:17:07.064Z</time></trkpt><trkpt lat="45.08169" lon="7.7256517"><ele>215.0</ele><time>2026-04-11T12:17:09.061Z</time></trkpt><trkpt lat="45.0816617" lon="7.7257833"><ele>215.0</ele><time>2026-04-11T12:17:11.064Z</time></trkpt><trkpt lat="45.0816367" lon="7.725915"><ele>215.0</ele><time>2026-04-11T12:17:13.06Z</time></trkpt><trkpt lat="45.0816133" lon="7.72605"><ele>215.0</ele><time>2026-04-11T12:17:15.061Z</time></trkpt><trkpt lat="45.081585" lon="7.7261867"><ele>215.0</ele><time>2026-04-11T12:17:17.058Z</time></trkpt><trkpt lat="45.0815633" lon="7.7263283"><ele>215.0</ele><time>2026-04-11T12:17:19.061Z</time></trkpt><trkpt lat="45.0815333" lon="7.7264617"><ele>214.6</ele><time>2026-04-11T12:17:21.061Z</time></trkpt><trkpt lat="45.0815067" lon="7.72659"><ele>214.2</ele><time>2026-04-11T12:17:23.058Z</time></trkpt><trkpt lat="45.0814733" lon="7.7267233"><ele>213.8</ele><time>2026-04-11T12:17:25.061Z</time></trkpt><trkpt lat="45.08143" lon="7.7268733"><ele>213.4</ele><time>2026-04-11T12:17:27.06Z</time></trkpt><trkpt lat="45.0813933" lon="7.72703"><ele>213.0</ele><time>2026-04-11T12:17:29.059Z</time></trkpt><trkpt lat="45.0813667" lon="7.7271933"><ele>213.0</ele><time>2026-04-11T12:17:31.062Z</time></trkpt><trkpt lat="45.0813517" lon="7.72736"><ele>213.0</ele><time>2026-04-11T12:17:33.062Z</time></trkpt><trkpt lat="45.0813367" lon="7.7275167"><ele>213.0</ele><time>2026-04-11T12:17:35.061Z</time></trkpt><trkpt lat="45.0813083" lon="7.7276683"><ele>213.0</ele><time>2026-04-11T12:17:37.057Z</time></trkpt><trkpt lat="45.08128" lon="7.7278233"><ele>213.5</ele><time>2026-04-11T12:17:39.063Z</time></trkpt><trkpt lat="45.0812583" lon="7.727975"><ele>214.0</ele><time>2026-04-11T12:17:41.061Z</time></trkpt><trkpt lat="45.0812533" lon="7.7281417"><ele>214.5</ele><time>2026-04-11T12:17:43.063Z</time></trkpt><trkpt lat="45.0812367" lon="7.7283"><ele>215.0</ele><time>2026-04-11T12:17:45.062Z</time></trkpt><trkpt lat="45.0812117" lon="7.728455"><ele>215.66666666666669</ele><time>2026-04-11T12:17:47.061Z</time></trkpt><trkpt lat="45.0811817" lon="7.7286067"><ele>216.33333333333334</ele><time>2026-04-11T12:17:49.063Z</time></trkpt><trkpt lat="45.081155" lon="7.728745"><ele>217.0</ele><time>2026-04-11T12:17:51.059Z</time></trkpt><trkpt lat="45.0811283" lon="7.7288717"><ele>217.66666666666669</ele><time>2026-04-11T12:17:53.06Z</time></trkpt><trkpt lat="45.0811067" lon="7.7289583"><ele>218.33333333333334</ele><time>2026-04-11T12:17:55.063Z</time></trkpt><trkpt lat="45.0810883" lon="7.729045"><ele>219.0</ele><time>2026-04-11T12:17:58.061Z</time></trkpt><trkpt lat="45.0811217" lon="7.729125"><ele>219.0</ele><time>2026-04-11T12:18:51.062Z</time></trkpt><trkpt lat="45.0811217" lon="7.7292217"><ele>219.0</ele><time>2026-04-11T12:19:41.062Z</time></trkpt><trkpt lat="45.081085" lon="7.7293217"><ele>219.0</ele><time>2026-04-11T12:19:44.061Z</time></trkpt><trkpt lat="45.0810467" lon="7.7294417"><ele>219.0</ele><time>2026-04-11T12:19:47.06Z</time></trkpt><trkpt lat="45.080995" lon="7.7295033"><ele>219.0</ele><time>2026-04-11T12:19:49.061Z</time></trkpt><trkpt lat="45.0809517" lon="7.7295783"><ele>219.0</ele><time>2026-04-11T12:19:51.063Z</time></trkpt><trkpt lat="45.080905" lon="7.72966"><ele>219.0</ele><time>2026-04-11T12:19:53.063Z</time></trkpt><trkpt lat="45.0808567" lon="7.72975"><ele>219.0</ele><time>2026-04-11T12:19:55.063Z</time></trkpt><trkpt lat="45.08082" lon="7.7298433"><ele>219.0</ele><time>2026-04-11T12:19:57.061Z</time></trkpt><trkpt lat="45.08079" lon="7.72995"><ele>219.0</ele><time>2026-04-11T12:20:00.062Z</time></trkpt><trkpt lat="45.0807633" lon="7.7300367"><ele>219.0</ele><time>2026-04-11T12:20:03.062Z</time></trkpt><trkpt lat="45.08073" lon="7.7301467"><ele>219.0</ele><time>2026-04-11T12:20:06.06Z</time></trkpt><trkpt lat="45.080695" lon="7.7302683"><ele>219.5</ele><time>2026-04-11T12:20:09.065Z</time></trkpt><trkpt lat="45.0806583" lon="7.7303967"><ele>220.0</ele><time>2026-04-11T12:20:12.06Z</time></trkpt><trkpt lat="45.0806317" lon="7.7304883"><ele>220.5</ele><time>2026-04-11T12:20:14.063Z</time></trkpt><trkpt lat="45.0806033" lon="7.7305883"><ele>221.0</ele><time>2026-04-11T12:20:17.061Z</time></trkpt><trkpt lat="45.080625" lon="7.7306867"><ele>221.5</ele><time>2026-04-11T12:21:35.06Z</time></trkpt><trkpt lat="45.0805783" lon="7.7307783"><ele>222.0</ele><time>2026-04-11T12:21:39.062Z</time></trkpt><trkpt lat="45.0805233" lon="7.7308483"><ele>222.0</ele><time>2026-04-11T12:21:42.06Z</time></trkpt><trkpt lat="45.080465" lon="7.7309033"><ele>222.0</ele><time>2026-04-11T12:21:45.063Z</time></trkpt><trkpt lat="45.0804" lon="7.7309483"><ele>222.0</ele><time>2026-04-11T12:22:01.06Z</time></trkpt><trkpt lat="45.0803533" lon="7.73101"><ele>222.0</ele><time>2026-04-11T12:22:03.061Z</time></trkpt><trkpt lat="45.0802867" lon="7.7310633"><ele>222.0</ele><time>2026-04-11T12:22:05.062Z</time></trkpt><trkpt lat="45.0802117" lon="7.7311067"><ele>222.0</ele><time>2026-04-11T12:22:07.062Z</time></trkpt><trkpt lat="45.0801383" lon="7.73115"><ele>222.0</ele><time>2026-04-11T12:22:09.065Z</time></trkpt><trkpt lat="45.08007" lon="7.731195"><ele>222.66666666666666</ele><time>2026-04-11T12:22:11.063Z</time></trkpt><trkpt lat="45.08" lon="7.731245"><ele>223.33333333333331</ele><time>2026-04-11T12:22:13.064Z</time></trkpt><trkpt lat="45.0799183" lon="7.7313"><ele>224.0</ele><time>2026-04-11T12:22:15.065Z</time></trkpt><trkpt lat="45.0798333" lon="7.7313733"><ele>224.66666666666666</ele><time>2026-04-11T12:22:17.062Z</time></trkpt><trkpt lat="45.0797833" lon="7.731465"><ele>225.33333333333331</ele><time>2026-04-11T12:22:19.064Z</time></trkpt><trkpt lat="45.0798133" lon="7.7315867"><ele>226.0</ele><time>2026-04-11T12:22:21.063Z</time></trkpt><trkpt lat="45.0798933" lon="7.7316783"><ele>226.0</ele><time>2026-04-11T12:22:23.065Z</time></trkpt><trkpt lat="45.07999" lon="7.7317717"><ele>226.00000000000003</ele><time>2026-04-11T12:22:25.064Z</time></trkpt><trkpt lat="45.080065" lon="7.7318733"><ele>226.00000000000003</ele><time>2026-04-11T12:22:27.063Z</time></trkpt><trkpt lat="45.0801233" lon="7.7319867"><ele>226.0</ele><time>2026-04-11T12:22:29.062Z</time></trkpt><trkpt lat="45.0801733" lon="7.7321083"><ele>226.0</ele><time>2026-04-11T12:22:31.061Z</time></trkpt><trkpt lat="45.080215" lon="7.732225"><ele>225.99999999999997</ele><time>2026-04-11T12:22:33.062Z</time></trkpt><trkpt lat="45.0802483" lon="7.7323367"><ele>226.0</ele><time>2026-04-11T12:22:35.06Z</time></trkpt><trkpt lat="45.0802867" lon="7.73245"><ele>226.0</ele><time>2026-04-11T12:22:37.062Z</time></trkpt><trkpt lat="45.0803233" lon="7.7325683"><ele>226.0</ele><time>2026-04-11T12:22:39.062Z</time></trkpt><trkpt lat="45.0803567" lon="7.732685"><ele>225.99999999999997</ele><time>2026-04-11T12:22:41.061Z</time></trkpt><trkpt lat="45.0803933" lon="7.7328017"><ele>226.0</ele><time>2026-04-11T12:22:43.061Z</time></trkpt><trkpt lat="45.080425" lon="7.73292"><ele>226.49999999999997</ele><time>2026-04-11T12:22:45.062Z</time></trkpt><trkpt lat="45.0804367" lon="7.7330367"><ele>227.0</ele><time>2026-04-11T12:22:47.062Z</time></trkpt><trkpt lat="45.080405" lon="7.73314"><ele>227.5</ele><time>2026-04-11T12:22:49.061Z</time></trkpt><trkpt lat="45.0803367" lon="7.7332"><ele>228.0</ele><time>2026-04-11T12:22:51.064Z</time></trkpt><trkpt lat="45.0802367" lon="7.7332333"><ele>228.49999999999997</ele><time>2026-04-11T12:22:53.062Z</time></trkpt><trkpt lat="45.0801483" lon="7.733275"><ele>229.0</ele><time>2026-04-11T12:22:55.062Z</time></trkpt><trkpt lat="45.0800517" lon="7.7333217"><ele>229.0</ele><time>2026-04-11T12:22:57.065Z</time></trkpt><trkpt lat="45.079965" lon="7.7333967"><ele>228.99999999999997</ele><time>2026-04-11T12:22:59.06Z</time></trkpt><trkpt lat="45.0798933" lon="7.7334883"><ele>228.99999999999997</ele><time>2026-04-11T12:23:01.062Z</time></trkpt><trkpt lat="45.07983" lon="7.7335883"><ele>229.0</ele><time>2026-04-11T12:23:03.061Z</time></trkpt><trkpt lat="45.0797917" lon="7.7337167"><ele>229.0</ele><time>2026-04-11T12:23:05.062Z</time></trkpt><trkpt lat="45.07977" lon="7.7338567"><ele>229.6</ele><time>2026-04-11T12:23:07.061Z</time></trkpt><trkpt lat="45.079745" lon="7.734"><ele>230.2</ele><time>2026-04-11T12:23:09.058Z</time></trkpt><trkpt lat="45.0797117" lon="7.734135"><ele>230.79999999999998</ele><time>2026-04-11T12:23:11.062Z</time></trkpt><trkpt lat="45.0796733" lon="7.73426"><ele>231.39999999999998</ele><time>2026-04-11T12:23:13.061Z</time></trkpt><trkpt lat="45.0796283" lon="7.7343833"><ele>232.0</ele><time>2026-04-11T12:23:15.063Z</time></trkpt><trkpt lat="45.0795867" lon="7.7345067"><ele>232.6</ele><time>2026-04-11T12:23:17.062Z</time></trkpt><trkpt lat="45.079545" lon="7.7346267"><ele>233.2</ele><time>2026-04-11T12:23:19.062Z</time></trkpt><trkpt lat="45.0794917" lon="7.7347467"><ele>233.8</ele><time>2026-04-11T12:23:21.061Z</time></trkpt><trkpt lat="45.079445" lon="7.7348617"><ele>234.4</ele><time>2026-04-11T12:23:23.061Z</time></trkpt><trkpt lat="45.0793967" lon="7.7349733"><ele>235.0</ele><time>2026-04-11T12:23:25.061Z</time></trkpt><trkpt lat="45.0793367" lon="7.7350783"><ele>235.0</ele><time>2026-04-11T12:23:27.06Z</time></trkpt><trkpt lat="45.0792783" lon="7.7351883"><ele>235.0</ele><time>2026-04-11T12:23:29.061Z</time></trkpt><trkpt lat="45.0792283" lon="7.735305"><ele>235.0</ele><time>2026-04-11T12:23:31.06Z</time></trkpt><trkpt lat="45.0791733" lon="7.735415"><ele>235.0</ele><time>2026-04-11T12:23:33.061Z</time></trkpt><trkpt lat="45.0791267" lon="7.7355267"><ele>235.0</ele><time>2026-04-11T12:23:35.059Z</time></trkpt><trkpt lat="45.0790733" lon="7.735635"><ele>235.6</ele><time>2026-04-11T12:23:37.063Z</time></trkpt><trkpt lat="45.0790183" lon="7.7357433"><ele>236.2</ele><time>2026-04-11T12:23:39.064Z</time></trkpt><trkpt lat="45.0789633" lon="7.7358533"><ele>236.8</ele><time>2026-04-11T12:23:41.058Z</time></trkpt><trkpt lat="45.07891" lon="7.7359683"><ele>237.4</ele><time>2026-04-11T12:23:43.06Z</time></trkpt><trkpt lat="45.0788633" lon="7.7360883"><ele>238.0</ele><time>2026-04-11T12:23:45.062Z</time></trkpt><trkpt lat="45.0788233" lon="7.7362033"><ele>238.0</ele><time>2026-04-11T12:23:47.061Z</time></trkpt><trkpt lat="45.07877" lon="7.7363117"><ele>238.0</ele><time>2026-04-11T12:23:49.06Z</time></trkpt><trkpt lat="45.0787183" lon="7.7364267"><ele>238.0</ele><time>2026-04-11T12:23:51.06Z</time></trkpt><trkpt lat="45.07868" lon="7.7365467"><ele>238.0</ele><time>2026-04-11T12:23:53.059Z</time></trkpt><trkpt lat="45.0786283" lon="7.736665"><ele>238.0</ele><time>2026-04-11T12:23:55.061Z</time></trkpt><trkpt lat="45.0785767" lon="7.7367767"><ele>238.4</ele><time>2026-04-11T12:23:57.062Z</time></trkpt><trkpt lat="45.0785217" lon="7.7368933"><ele>238.8</ele><time>2026-04-11T12:23:59.061Z</time></trkpt><trkpt lat="45.0784617" lon="7.7370083"><ele>239.2</ele><time>2026-04-11T12:24:01.06Z</time></trkpt><trkpt lat="45.0784" lon="7.7371117"><ele>239.6</ele><time>2026-04-11T12:24:03.063Z</time></trkpt><trkpt lat="45.078345" lon="7.7372183"><ele>240.0</ele><time>2026-04-11T12:24:05.058Z</time></trkpt><trkpt lat="45.0782783" lon="7.7373167"><ele>240.0</ele><time>2026-04-11T12:24:07.065Z</time></trkpt><trkpt lat="45.0782083" lon="7.73741"><ele>240.0</ele><time>2026-04-11T12:24:09.057Z</time></trkpt><trkpt lat="45.07814" lon="7.73751"><ele>240.0</ele><time>2026-04-11T12:24:11.061Z</time></trkpt><trkpt lat="45.0780633" lon="7.7376117"><ele>240.0</ele><time>2026-04-11T12:24:13.06Z</time></trkpt><trkpt lat="45.0779883" lon="7.7377133"><ele>240.0</ele><time>2026-04-11T12:24:15.063Z</time></trkpt><trkpt lat="45.077915" lon="7.7378083"><ele>240.6</ele><time>2026-04-11T12:24:17.06Z</time></trkpt><trkpt lat="45.07784" lon="7.737895"><ele>241.2</ele><time>2026-04-11T12:24:19.062Z</time></trkpt><trkpt lat="45.0777633" lon="7.7379717"><ele>241.8</ele><time>2026-04-11T12:24:21.06Z</time></trkpt><trkpt lat="45.0776817" lon="7.7380533"><ele>242.4</ele><time>2026-04-11T12:24:23.061Z</time></trkpt><trkpt lat="45.0775983" lon="7.7381433"><ele>243.0</ele><time>2026-04-11T12:24:25.062Z</time></trkpt><trkpt lat="45.0775133" lon="7.7382233"><ele>243.60000000000002</ele><time>2026-04-11T12:24:27.059Z</time></trkpt><trkpt lat="45.0774217" lon="7.7383117"><ele>244.20000000000002</ele><time>2026-04-11T12:24:29.06Z</time></trkpt><trkpt lat="45.07734" lon="7.7383917"><ele>244.8</ele><time>2026-04-11T12:24:31.06Z</time></trkpt><trkpt lat="45.0772517" lon="7.7384683"><ele>245.4</ele><time>2026-04-11T12:24:33.062Z</time></trkpt><trkpt lat="45.0771667" lon="7.73854"><ele>246.0</ele><time>2026-04-11T12:24:35.062Z</time></trkpt><trkpt lat="45.0770783" lon="7.7385983"><ele>246.4</ele><time>2026-04-11T12:24:37.063Z</time></trkpt><trkpt lat="45.0769833" lon="7.7386467"><ele>246.8</ele><time>2026-04-11T12:24:39.061Z</time></trkpt><trkpt lat="45.07689" lon="7.738695"><ele>247.20000000000002</ele><time>2026-04-11T12:24:41.062Z</time></trkpt><trkpt lat="45.076795" lon="7.7387417"><ele>247.60000000000002</ele><time>2026-04-11T12:24:43.061Z</time></trkpt><trkpt lat="45.0767" lon="7.7387833"><ele>248.0</ele><time>2026-04-11T12:24:45.061Z</time></trkpt><trkpt lat="45.076605" lon="7.7388217"><ele>249.0</ele><time>2026-04-11T12:24:47.06Z</time></trkpt><trkpt lat="45.0765133" lon="7.7388783"><ele>250.0</ele><time>2026-04-11T12:24:49.06Z</time></trkpt><trkpt lat="45.076425" lon="7.7389283"><ele>251.0</ele><time>2026-04-11T12:24:51.061Z</time></trkpt><trkpt lat="45.0763317" lon="7.7389633"><ele>252.0</ele><time>2026-04-11T12:24:53.063Z</time></trkpt><trkpt lat="45.0762417" lon="7.73901"><ele>253.0</ele><time>2026-04-11T12:24:55.06Z</time></trkpt><trkpt lat="45.0761583" lon="7.7390717"><ele>253.0</ele><time>2026-04-11T12:24:57.062Z</time></trkpt><trkpt lat="45.0760817" lon="7.7391533"><ele>253.0</ele><time>2026-04-11T12:24:59.061Z</time></trkpt><trkpt lat="45.0760667" lon="7.7392833"><ele>253.0</ele><time>2026-04-11T12:25:01.06Z</time></trkpt><trkpt lat="45.07611" lon="7.739425"><ele>253.0</ele><time>2026-04-11T12:25:03.06Z</time></trkpt><trkpt lat="45.0761567" lon="7.7395683"><ele>253.0</ele><time>2026-04-11T12:25:05.059Z</time></trkpt><trkpt lat="45.0762117" lon="7.7397017"><ele>252.8</ele><time>2026-04-11T12:25:07.061Z</time></trkpt><trkpt lat="45.0762683" lon="7.7398317"><ele>252.60000000000002</ele><time>2026-04-11T12:25:09.062Z</time></trkpt><trkpt lat="45.0763133" lon="7.7399617"><ele>252.39999999999998</ele><time>2026-04-11T12:25:11.059Z</time></trkpt><trkpt lat="45.0763233" lon="7.7401033"><ele>252.2</ele><time>2026-04-11T12:25:13.06Z</time></trkpt><trkpt lat="45.0763067" lon="7.7402433"><ele>252.0</ele><time>2026-04-11T12:25:15.061Z</time></trkpt><trkpt lat="45.0762733" lon="7.7403717"><ele>252.0</ele><time>2026-04-11T12:25:17.06Z</time></trkpt><trkpt lat="45.0762433" lon="7.7405067"><ele>252.0</ele><time>2026-04-11T12:25:19.061Z</time></trkpt><trkpt lat="45.0762167" lon="7.7406433"><ele>252.0</ele><time>2026-04-11T12:25:21.061Z</time></trkpt><trkpt lat="45.0761833" lon="7.7407717"><ele>252.0</ele><time>2026-04-11T12:25:23.061Z</time></trkpt><trkpt lat="45.0761383" lon="7.7408933"><ele>252.0</ele><time>2026-04-11T12:25:25.061Z</time></trkpt><trkpt lat="45.0760867" lon="7.741"><ele>252.5</ele><time>2026-04-11T12:25:27.06Z</time></trkpt><trkpt lat="45.0760283" lon="7.7410967"><ele>253.0</ele><time>2026-04-11T12:25:29.061Z</time></trkpt><trkpt lat="45.0759583" lon="7.7411533"><ele>253.5</ele><time>2026-04-11T12:25:31.06Z</time></trkpt><trkpt lat="45.075865" lon="7.7411617"><ele>254.0</ele><time>2026-04-11T12:25:33.062Z</time></trkpt><trkpt lat="45.07577" lon="7.7411583"><ele>254.5</ele><time>2026-04-11T12:25:35.06Z</time></trkpt><trkpt lat="45.07568" lon="7.7411567"><ele>255.0</ele><time>2026-04-11T12:25:37.062Z</time></trkpt><trkpt lat="45.0755883" lon="7.7411533"><ele>255.0</ele><time>2026-04-11T12:25:39.062Z</time></trkpt><trkpt lat="45.0755017" lon="7.7411667"><ele>255.0</ele><time>2026-04-11T12:25:41.06Z</time></trkpt><trkpt lat="45.0754233" lon="7.7412217"><ele>255.0</ele><time>2026-04-11T12:25:43.06Z</time></trkpt><trkpt lat="45.0753717" lon="7.74134"><ele>255.0</ele><time>2026-04-11T12:25:45.062Z</time></trkpt><trkpt lat="45.0753467" lon="7.741475"><ele>255.0</ele><time>2026-04-11T12:25:47.062Z</time></trkpt><trkpt lat="45.0753433" lon="7.7416217"><ele>255.0</ele><time>2026-04-11T12:25:49.061Z</time></trkpt><trkpt lat="45.07535" lon="7.7417733"><ele>255.0</ele><time>2026-04-11T12:25:51.063Z</time></trkpt><trkpt lat="45.0753417" lon="7.741925"><ele>255.0</ele><time>2026-04-11T12:25:53.059Z</time></trkpt><trkpt lat="45.0753167" lon="7.7420667"><ele>255.0</ele><time>2026-04-11T12:25:55.056Z</time></trkpt><trkpt lat="45.07528" lon="7.7422067"><ele>255.0</ele><time>2026-04-11T12:25:57.06Z</time></trkpt><trkpt lat="45.0752317" lon="7.7423483"><ele>255.2</ele><time>2026-04-11T12:25:59.058Z</time></trkpt><trkpt lat="45.0751817" lon="7.742485"><ele>255.4</ele><time>2026-04-11T12:26:01.06Z</time></trkpt><trkpt lat="45.07513" lon="7.7426183"><ele>255.60000000000002</ele><time>2026-04-11T12:26:03.061Z</time></trkpt><trkpt lat="45.075075" lon="7.74275"><ele>255.8</ele><time>2026-04-11T12:26:05.06Z</time></trkpt><trkpt lat="45.0750183" lon="7.7428667"><ele>256.0</ele><time>2026-04-11T12:26:07.06Z</time></trkpt><trkpt lat="45.0749567" lon="7.7429817"><ele>260.40000000000003</ele><time>2026-04-11T12:26:09.062Z</time></trkpt><trkpt lat="45.0748933" lon="7.7430933"><ele>264.8</ele><time>2026-04-11T12:26:11.062Z</time></trkpt><trkpt lat="45.0748283" lon="7.7432017"><ele>269.20000000000005</ele><time>2026-04-11T12:26:13.061Z</time></trkpt><trkpt lat="45.0747683" lon="7.7433033"><ele>273.6</ele><time>2026-04-11T12:26:15.062Z</time></trkpt><trkpt lat="45.0747017" lon="7.7434117"><ele>278.0</ele><time>2026-04-11T12:26:17.06Z</time></trkpt><trkpt lat="45.074635" lon="7.7435167"><ele>275.2</ele><time>2026-04-11T12:26:19.06Z</time></trkpt><trkpt lat="45.074565" lon="7.74362"><ele>272.4</ele><time>2026-04-11T12:26:21.061Z</time></trkpt><trkpt lat="45.074495" lon="7.74372"><ele>269.59999999999997</ele><time>2026-04-11T12:26:23.058Z</time></trkpt><trkpt lat="45.0744217" lon="7.74381"><ele>266.8</ele><time>2026-04-11T12:26:25.06Z</time></trkpt><trkpt lat="45.0743383" lon="7.743885"><ele>264.0</ele><time>2026-04-11T12:26:27.06Z</time></trkpt><trkpt lat="45.074245" lon="7.7439433"><ele>264.0</ele><time>2026-04-11T12:26:29.06Z</time></trkpt><trkpt lat="45.0741533" lon="7.7440067"><ele>264.0</ele><time>2026-04-11T12:26:31.061Z</time></trkpt><trkpt lat="45.074065" lon="7.744075"><ele>264.0</ele><time>2026-04-11T12:26:33.06Z</time></trkpt><trkpt lat="45.0739867" lon="7.7441633"><ele>264.0</ele><time>2026-04-11T12:26:35.06Z</time></trkpt><trkpt lat="45.07392" lon="7.7442617"><ele>264.0</ele><time>2026-04-11T12:26:37.06Z</time></trkpt><trkpt lat="45.0738633" lon="7.7443733"><ele>269.4</ele><time>2026-04-11T12:26:39.06Z</time></trkpt><trkpt lat="45.0738117" lon="7.7444933"><ele>274.79999999999995</ele><time>2026-04-11T12:26:41.06Z</time></trkpt><trkpt lat="45.073765" lon="7.7446267"><ele>280.20000000000005</ele><time>2026-04-11T12:26:43.06Z</time></trkpt><trkpt lat="45.073725" lon="7.7447583"><ele>285.6</ele><time>2026-04-11T12:26:45.061Z</time></trkpt><trkpt lat="45.0737" lon="7.7448917"><ele>291.0</ele><time>2026-04-11T12:26:47.059Z</time></trkpt><trkpt lat="45.0737033" lon="7.74503"><ele>291.0</ele><time>2026-04-11T12:26:49.06Z</time></trkpt><trkpt lat="45.07374" lon="7.7451683"><ele>291.0</ele><time>2026-04-11T12:26:51.061Z</time></trkpt><trkpt lat="45.0737833" lon="7.7453017"><ele>291.0</ele><time>2026-04-11T12:26:53.057Z</time></trkpt><trkpt lat="45.0738217" lon="7.7454283"><ele>291.0</ele><time>2026-04-11T12:26:55.061Z</time></trkpt><trkpt lat="45.0738533" lon="7.74556"><ele>291.0</ele><time>2026-04-11T12:26:57.062Z</time></trkpt><trkpt lat="45.0738667" lon="7.745695"><ele>289.8</ele><time>2026-04-11T12:26:59.059Z</time></trkpt><trkpt lat="45.0738483" lon="7.7458283"><ele>288.6</ele><time>2026-04-11T12:27:01.061Z</time></trkpt><trkpt lat="45.0738217" lon="7.7459533"><ele>287.4</ele><time>2026-04-11T12:27:03.062Z</time></trkpt><trkpt lat="45.0738083" lon="7.74608"><ele>286.2</ele><time>2026-04-11T12:27:05.059Z</time></trkpt><trkpt lat="45.073825" lon="7.7462033"><ele>285.0</ele><time>2026-04-11T12:27:07.06Z</time></trkpt><trkpt lat="45.0738683" lon="7.74632"><ele>284.0</ele><time>2026-04-11T12:27:09.062Z</time></trkpt><trkpt lat="45.0739233" lon="7.7464333"><ele>283.0</ele><time>2026-04-11T12:27:11.061Z</time></trkpt><trkpt lat="45.0739633" lon="7.7465483"><ele>282.0</ele><time>2026-04-11T12:27:13.06Z</time></trkpt><trkpt lat="45.0739833" lon="7.746675"><ele>281.0</ele><time>2026-04-11T12:27:15.06Z</time></trkpt><trkpt lat="45.0739767" lon="7.7468"><ele>280.0</ele><time>2026-04-11T12:27:17.06Z</time></trkpt><trkpt lat="45.0739283" lon="7.7469017"><ele>278.8</ele><time>2026-04-11T12:27:19.06Z</time></trkpt><trkpt lat="45.0738583" lon="7.7469967"><ele>277.6</ele><time>2026-04-11T12:27:21.061Z</time></trkpt><trkpt lat="45.0737967" lon="7.7470883"><ele>276.4</ele><time>2026-04-11T12:27:23.059Z</time></trkpt><trkpt lat="45.07373" lon="7.7471733"><ele>275.2</ele><time>2026-04-11T12:27:25.06Z</time></trkpt><trkpt lat="45.0736583" lon="7.747255"><ele>274.0</ele><time>2026-04-11T12:27:27.059Z</time></trkpt><trkpt lat="45.0735883" lon="7.74733"><ele>274.0</ele><time>2026-04-11T12:27:29.061Z</time></trkpt><trkpt lat="45.07352" lon="7.7474"><ele>274.0</ele><time>2026-04-11T12:27:31.061Z</time></trkpt><trkpt lat="45.0734533" lon="7.7474733"><ele>274.0</ele><time>2026-04-11T12:27:33.06Z</time></trkpt><trkpt lat="45.073385" lon="7.74755"><ele>274.0</ele><time>2026-04-11T12:27:35.059Z</time></trkpt><trkpt lat="45.0733183" lon="7.7476233"><ele>274.0</ele><time>2026-04-11T12:27:37.06Z</time></trkpt><trkpt lat="45.0732433" lon="7.7476917"><ele>274.0</ele><time>2026-04-11T12:27:39.06Z</time></trkpt><trkpt lat="45.07317" lon="7.747755"><ele>277.3333333333333</ele><time>2026-04-11T12:27:41.061Z</time></trkpt><trkpt lat="45.073095" lon="7.747825"><ele>280.66666666666663</ele><time>2026-04-11T12:27:43.061Z</time></trkpt><trkpt lat="45.0730217" lon="7.7478933"><ele>284.0</ele><time>2026-04-11T12:27:45.061Z</time></trkpt><trkpt lat="45.0729533" lon="7.7479617"><ele>287.3333333333333</ele><time>2026-04-11T12:27:47.062Z</time></trkpt><trkpt lat="45.072895" lon="7.748045"><ele>290.6666666666667</ele><time>2026-04-11T12:27:49.062Z</time></trkpt><trkpt lat="45.0728467" lon="7.7481433"><ele>294.0</ele><time>2026-04-11T12:27:51.061Z</time></trkpt><trkpt lat="45.07281" lon="7.7482567"><ele>294.0</ele><time>2026-04-11T12:27:53.06Z</time></trkpt><trkpt lat="45.0727917" lon="7.74838"><ele>294.0</ele><time>2026-04-11T12:27:55.064Z</time></trkpt><trkpt lat="45.0727917" lon="7.7485033"><ele>294.0</ele><time>2026-04-11T12:27:57.06Z</time></trkpt><trkpt lat="45.0728033" lon="7.74863"><ele>294.0</ele><time>2026-04-11T12:27:59.059Z</time></trkpt><trkpt lat="45.0728283" lon="7.7487583"><ele>294.0</ele><time>2026-04-11T12:28:01.061Z</time></trkpt><trkpt lat="45.0728367" lon="7.7488817"><ele>294.0</ele><time>2026-04-11T12:28:03.06Z</time></trkpt><trkpt lat="45.0728283" lon="7.7490033"><ele>292.3333333333333</ele><time>2026-04-11T12:28:05.059Z</time></trkpt><trkpt lat="45.0728283" lon="7.7491267"><ele>290.6666666666667</ele><time>2026-04-11T12:28:07.062Z</time></trkpt><trkpt lat="45.0728183" lon="7.7492467"><ele>289.0</ele><time>2026-04-11T12:28:09.063Z</time></trkpt><trkpt lat="45.072805" lon="7.7493633"><ele>287.33333333333337</ele><time>2026-04-11T12:28:11.059Z</time></trkpt><trkpt lat="45.07278" lon="7.7494783"><ele>285.6666666666667</ele><time>2026-04-11T12:28:13.06Z</time></trkpt><trkpt lat="45.0727417" lon="7.749595"><ele>284.0</ele><time>2026-04-11T12:28:15.062Z</time></trkpt><trkpt lat="45.0727017" lon="7.749705"><ele>283.5</ele><time>2026-04-11T12:28:17.06Z</time></trkpt><trkpt lat="45.0726483" lon="7.7498017"><ele>283.0</ele><time>2026-04-11T12:28:19.062Z</time></trkpt><trkpt lat="45.0726017" lon="7.7498983"><ele>282.5</ele><time>2026-04-11T12:28:21.061Z</time></trkpt><trkpt lat="45.0725533" lon="7.7499933"><ele>282.0</ele><time>2026-04-11T12:28:23.06Z</time></trkpt><trkpt lat="45.072505" lon="7.75009"><ele>281.5</ele><time>2026-04-11T12:28:25.061Z</time></trkpt><trkpt lat="45.0724567" lon="7.7501917"><ele>281.0</ele><time>2026-04-11T12:28:27.058Z</time></trkpt><trkpt lat="45.07242" lon="7.7502967"><ele>283.1666666666667</ele><time>2026-04-11T12:28:29.058Z</time></trkpt><trkpt lat="45.0723817" lon="7.7504"><ele>285.33333333333337</ele><time>2026-04-11T12:28:31.062Z</time></trkpt><trkpt lat="45.0723467" lon="7.7505"><ele>287.5</ele><time>2026-04-11T12:28:33.061Z</time></trkpt><trkpt lat="45.0723167" lon="7.750605"><ele>289.6666666666667</ele><time>2026-04-11T12:28:35.059Z</time></trkpt><trkpt lat="45.0722967" lon="7.7507133"><ele>291.8333333333333</ele><time>2026-04-11T12:28:37.062Z</time></trkpt><trkpt lat="45.0722767" lon="7.750815"><ele>294.0</ele><time>2026-04-11T12:28:39.06Z</time></trkpt><trkpt lat="45.0722467" lon="7.7509133"><ele>294.0</ele><time>2026-04-11T12:28:41.06Z</time></trkpt><trkpt lat="45.0722167" lon="7.7510183"><ele>294.0</ele><time>2026-04-11T12:28:43.063Z</time></trkpt><trkpt lat="45.0721867" lon="7.7511233"><ele>294.0</ele><time>2026-04-11T12:28:45.063Z</time></trkpt><trkpt lat="45.0721533" lon="7.7512217"><ele>294.0</ele><time>2026-04-11T12:28:47.059Z</time></trkpt><trkpt lat="45.0721217" lon="7.7513217"><ele>294.0</ele><time>2026-04-11T12:28:49.062Z</time></trkpt><trkpt lat="45.0720867" lon="7.751415"><ele>294.0</ele><time>2026-04-11T12:28:51.062Z</time></trkpt><trkpt lat="45.07205" lon="7.7515033"><ele>294.0</ele><time>2026-04-11T12:28:53.062Z</time></trkpt><trkpt lat="45.0720117" lon="7.751595"><ele>294.0</ele><time>2026-04-11T12:28:55.058Z</time></trkpt><trkpt lat="45.0719767" lon="7.751685"><ele>294.0</ele><time>2026-04-11T12:28:57.062Z</time></trkpt><trkpt lat="45.07194" lon="7.751775"><ele>294.0</ele><time>2026-04-11T12:28:59.059Z</time></trkpt><trkpt lat="45.0719" lon="7.7518633"><ele>294.0</ele><time>2026-04-11T12:29:01.06Z</time></trkpt><trkpt lat="45.0718533" lon="7.75195"><ele>294.0</ele><time>2026-04-11T12:29:03.061Z</time></trkpt><trkpt lat="45.0717917" lon="7.7520133"><ele>294.0</ele><time>2026-04-11T12:29:05.059Z</time></trkpt><trkpt lat="45.071725" lon="7.7520633"><ele>294.0</ele><time>2026-04-11T12:29:07.061Z</time></trkpt><trkpt lat="45.0716567" lon="7.7520933"><ele>294.0</ele><time>2026-04-11T12:29:09.061Z</time></trkpt><trkpt lat="45.07159" lon="7.7521033"><ele>294.0</ele><time>2026-04-11T12:29:11.059Z</time></trkpt><trkpt lat="45.0715167" lon="7.7521267"><ele>294.0</ele><time>2026-04-11T12:29:13.061Z</time></trkpt><trkpt lat="45.0714383" lon="7.7521567"><ele>294.0</ele><time>2026-04-11T12:29:15.062Z</time></trkpt><trkpt lat="45.071355" lon="7.7521867"><ele>294.0</ele><time>2026-04-11T12:29:17.059Z</time></trkpt><trkpt lat="45.0712733" lon="7.7522183"><ele>294.59999999999997</ele><time>2026-04-11T12:29:19.062Z</time></trkpt><trkpt lat="45.0711867" lon="7.7522333"><ele>295.2</ele><time>2026-04-11T12:29:21.06Z</time></trkpt><trkpt lat="45.0710967" lon="7.75224"><ele>295.79999999999995</ele><time>2026-04-11T12:29:23.06Z</time></trkpt><trkpt lat="45.071" lon="7.7522383"><ele>296.4</ele><time>2026-04-11T12:29:25.062Z</time></trkpt><trkpt lat="45.07091" lon="7.7522333"><ele>297.0</ele><time>2026-04-11T12:29:27.06Z</time></trkpt><trkpt lat="45.0708183" lon="7.7522367"><ele>298.2</ele><time>2026-04-11T12:29:29.062Z</time></trkpt><trkpt lat="45.0707233" lon="7.7522367"><ele>299.4</ele><time>2026-04-11T12:29:31.061Z</time></trkpt><trkpt lat="45.0706283" lon="7.75225"><ele>300.6</ele><time>2026-04-11T12:29:33.061Z</time></trkpt><trkpt lat="45.070535" lon="7.752285"><ele>301.8</ele><time>2026-04-11T12:29:35.059Z</time></trkpt><trkpt lat="45.0704533" lon="7.7523433"><ele>303.0</ele><time>2026-04-11T12:29:37.06Z</time></trkpt><trkpt lat="45.0703767" lon="7.7524133"><ele>303.0</ele><time>2026-04-11T12:29:39.062Z</time></trkpt><trkpt lat="45.0703117" lon="7.752505"><ele>303.0</ele><time>2026-04-11T12:29:41.059Z</time></trkpt><trkpt lat="45.0702483" lon="7.7526067"><ele>303.0</ele><time>2026-04-11T12:29:43.059Z</time></trkpt><trkpt lat="45.0701933" lon="7.7527117"><ele>303.0</ele><time>2026-04-11T12:29:45.056Z</time></trkpt><trkpt lat="45.07014" lon="7.7528267"><ele>303.0</ele><time>2026-04-11T12:29:47.061Z</time></trkpt><trkpt lat="45.07008" lon="7.7529317"><ele>303.0</ele><time>2026-04-11T12:29:49.061Z</time></trkpt><trkpt lat="45.0700067" lon="7.7530067"><ele>303.0</ele><time>2026-04-11T12:29:51.064Z</time></trkpt><trkpt lat="45.0699267" lon="7.75306"><ele>303.0</ele><time>2026-04-11T12:29:53.059Z</time></trkpt><trkpt lat="45.0698383" lon="7.7531117"><ele>303.0</ele><time>2026-04-11T12:29:55.062Z</time></trkpt><trkpt lat="45.0697467" lon="7.7531483"><ele>303.0</ele><time>2026-04-11T12:29:57.06Z</time></trkpt><trkpt lat="45.0696533" lon="7.7531867"><ele>303.0</ele><time>2026-04-11T12:29:59.06Z</time></trkpt><trkpt lat="45.0695633" lon="7.7532267"><ele>303.0</ele><time>2026-04-11T12:30:01.062Z</time></trkpt><trkpt lat="45.0694783" lon="7.7532633"><ele>303.0</ele><time>2026-04-11T12:30:03.062Z</time></trkpt><trkpt lat="45.0693967" lon="7.7533017"><ele>303.0</ele><time>2026-04-11T12:30:05.061Z</time></trkpt><trkpt lat="45.0693117" lon="7.7533417"><ele>303.0</ele><time>2026-04-11T12:30:07.067Z</time></trkpt><trkpt lat="45.06923" lon="7.7533767"><ele>303.0</ele><time>2026-04-11T12:30:09.061Z</time></trkpt><trkpt lat="45.0691483" lon="7.7534167"><ele>306.3333333333333</ele><time>2026-04-11T12:30:11.057Z</time></trkpt><trkpt lat="45.0690717" lon="7.7534533"><ele>309.6666666666667</ele><time>2026-04-11T12:30:13.064Z</time></trkpt><trkpt lat="45.06899" lon="7.7535067"><ele>313.0</ele><time>2026-04-11T12:30:15.066Z</time></trkpt><trkpt lat="45.0689117" lon="7.75357"><ele>316.33333333333337</ele><time>2026-04-11T12:30:17.058Z</time></trkpt><trkpt lat="45.068845" lon="7.75364"><ele>319.6666666666667</ele><time>2026-04-11T12:30:19.063Z</time></trkpt><trkpt lat="45.0687783" lon="7.753715"><ele>323.0</ele><time>2026-04-11T12:30:21.064Z</time></trkpt><trkpt lat="45.06872" lon="7.753805"><ele>323.0</ele><time>2026-04-11T12:30:23.062Z</time></trkpt><trkpt lat="45.068665" lon="7.7538967"><ele>323.0</ele><time>2026-04-11T12:30:25.064Z</time></trkpt><trkpt lat="45.068615" lon="7.7539917"><ele>323.0</ele><time>2026-04-11T12:30:27.065Z</time></trkpt><trkpt lat="45.06858" lon="7.7540933"><ele>323.0</ele><time>2026-04-11T12:30:29.064Z</time></trkpt><trkpt lat="45.0685533" lon="7.7542083"><ele>323.0</ele><time>2026-04-11T12:30:31.063Z</time></trkpt><trkpt lat="45.0685833" lon="7.7543233"><ele>323.0</ele><time>2026-04-11T12:30:33.063Z</time></trkpt><trkpt lat="45.0686517" lon="7.754425"><ele>320.83333333333337</ele><time>2026-04-11T12:30:35.063Z</time></trkpt><trkpt lat="45.0686833" lon="7.7545417"><ele>318.6666666666667</ele><time>2026-04-11T12:30:37.064Z</time></trkpt><trkpt lat="45.0686783" lon="7.7546667"><ele>316.5</ele><time>2026-04-11T12:30:39.066Z</time></trkpt><trkpt lat="45.068665" lon="7.7547917"><ele>314.3333333333333</ele><time>2026-04-11T12:30:41.063Z</time></trkpt><trkpt lat="45.0686483" lon="7.75491"><ele>312.16666666666663</ele><time>2026-04-11T12:30:43.063Z</time></trkpt><trkpt lat="45.068625" lon="7.7550233"><ele>310.0</ele><time>2026-04-11T12:30:45.064Z</time></trkpt><trkpt lat="45.06861" lon="7.755135"><ele>310.16666666666663</ele><time>2026-04-11T12:30:47.064Z</time></trkpt><trkpt lat="45.06861" lon="7.7552467"><ele>310.3333333333333</ele><time>2026-04-11T12:30:49.063Z</time></trkpt><trkpt lat="45.0686233" lon="7.7553533"><ele>310.5</ele><time>2026-04-11T12:30:51.064Z</time></trkpt><trkpt lat="45.0686467" lon="7.7554567"><ele>310.6666666666667</ele><time>2026-04-11T12:30:53.062Z</time></trkpt><trkpt lat="45.068675" lon="7.7555633"><ele>310.83333333333337</ele><time>2026-04-11T12:30:55.063Z</time></trkpt><trkpt lat="45.0687067" lon="7.7556617"><ele>311.0</ele><time>2026-04-11T12:30:57.063Z</time></trkpt><trkpt lat="45.068755" lon="7.75575"><ele>311.0</ele><time>2026-04-11T12:30:59.064Z</time></trkpt><trkpt lat="45.068805" lon="7.755825"><ele>311.0</ele><time>2026-04-11T12:31:01.064Z</time></trkpt><trkpt lat="45.0688583" lon="7.7558933"><ele>311.0</ele><time>2026-04-11T12:31:03.063Z</time></trkpt><trkpt lat="45.0689183" lon="7.7559617"><ele>311.0</ele><time>2026-04-11T12:31:05.057Z</time></trkpt><trkpt lat="45.068975" lon="7.7560317"><ele>311.0</ele><time>2026-04-11T12:31:07.063Z</time></trkpt><trkpt lat="45.069025" lon="7.7560967"><ele>311.0</ele><time>2026-04-11T12:31:09.063Z</time></trkpt><trkpt lat="45.069075" lon="7.7562067"><ele>312.0</ele><time>2026-04-11T12:31:12.063Z</time></trkpt><trkpt lat="45.069095" lon="7.7563"><ele>313.0</ele><time>2026-04-11T12:31:14.063Z</time></trkpt><trkpt lat="45.0691133" lon="7.7563867"><ele>314.0</ele><time>2026-04-11T12:31:16.065Z</time></trkpt><trkpt lat="45.06912" lon="7.7564783"><ele>315.0</ele><time>2026-04-11T12:31:18.064Z</time></trkpt><trkpt lat="45.0691283" lon="7.7565667"><ele>316.0</ele><time>2026-04-11T12:31:20.064Z</time></trkpt><trkpt lat="45.0691433" lon="7.7566867"><ele>317.0</ele><time>2026-04-11T12:31:23.066Z</time></trkpt><trkpt lat="45.0691633" lon="7.7568133"><ele>318.0</ele><time>2026-04-11T12:31:26.063Z</time></trkpt><trkpt lat="45.0691917" lon="7.756925"><ele>321.0</ele><time>2026-04-11T12:31:29.062Z</time></trkpt><trkpt lat="45.0692333" lon="7.7570283"><ele>324.0</ele><time>2026-04-11T12:31:32.063Z</time></trkpt><trkpt lat="45.069295" lon="7.75713"><ele>327.0</ele><time>2026-04-11T12:31:35.063Z</time></trkpt><trkpt lat="45.0693417" lon="7.7572033"><ele>330.0</ele><time>2026-04-11T12:31:37.063Z</time></trkpt><trkpt lat="45.06939" lon="7.75728"><ele>333.0</ele><time>2026-04-11T12:31:39.066Z</time></trkpt><trkpt lat="45.0694333" lon="7.7573533"><ele>336.0</ele><time>2026-04-11T12:31:41.064Z</time></trkpt><trkpt lat="45.06947" lon="7.7574317"><ele>336.0</ele><time>2026-04-11T12:31:43.064Z</time></trkpt><trkpt lat="45.069505" lon="7.75756"><ele>336.0</ele><time>2026-04-11T12:31:46.064Z</time></trkpt><trkpt lat="45.0695283" lon="7.7576533"><ele>336.0</ele><time>2026-04-11T12:31:48.063Z</time></trkpt><trkpt lat="45.0695417" lon="7.757745"><ele>336.0</ele><time>2026-04-11T12:31:50.066Z</time></trkpt><trkpt lat="45.0695517" lon="7.757835"><ele>336.0</ele><time>2026-04-11T12:31:52.062Z</time></trkpt><trkpt lat="45.0695617" lon="7.75793"><ele>336.0</ele><time>2026-04-11T12:31:54.065Z</time></trkpt><trkpt lat="45.0695783" lon="7.7580183"><ele>336.0</ele><time>2026-04-11T12:31:56.063Z</time></trkpt><trkpt lat="45.0696067" lon="7.758145"><ele>338.1666666666667</ele><time>2026-04-11T12:31:59.062Z</time></trkpt><trkpt lat="45.069645" lon="7.7582617"><ele>340.3333333333333</ele><time>2026-04-11T12:32:02.065Z</time></trkpt><trkpt lat="45.0696683" lon="7.75835"><ele>342.5</ele><time>2026-04-11T12:32:04.061Z</time></trkpt><trkpt lat="45.0697017" lon="7.75843"><ele>344.66666666666663</ele><time>2026-04-11T12:32:06.063Z</time></trkpt><trkpt lat="45.06974" lon="7.7585517"><ele>346.8333333333333</ele><time>2026-04-11T12:32:09.063Z</time></trkpt><trkpt lat="45.0697717" lon="7.7586733"><ele>349.0</ele><time>2026-04-11T12:32:12.063Z</time></trkpt><trkpt lat="45.06979" lon="7.7587617"><ele>351.57142857142856</ele><time>2026-04-11T12:32:14.062Z</time></trkpt><trkpt lat="45.069815" lon="7.7588483"><ele>354.1428571428571</ele><time>2026-04-11T12:32:16.063Z</time></trkpt><trkpt lat="45.069835" lon="7.758935"><ele>356.71428571428567</ele><time>2026-04-11T12:32:18.064Z</time></trkpt><trkpt lat="45.069855" lon="7.75902"><ele>359.2857142857143</ele><time>2026-04-11T12:32:20.062Z</time></trkpt><trkpt lat="45.0698617" lon="7.75911"><ele>361.8571428571429</ele><time>2026-04-11T12:32:22.063Z</time></trkpt><trkpt lat="45.0698717" lon="7.759235"><ele>364.4285714285714</ele><time>2026-04-11T12:32:25.065Z</time></trkpt><trkpt lat="45.06989" lon="7.7593633"><ele>367.0</ele><time>2026-04-11T12:32:28.063Z</time></trkpt><trkpt lat="45.0699117" lon="7.7594867"><ele>362.8</ele><time>2026-04-11T12:32:31.064Z</time></trkpt><trkpt lat="45.0699583" lon="7.759595"><ele>358.6</ele><time>2026-04-11T12:32:34.06Z</time></trkpt><trkpt lat="45.0700183" lon="7.7596983"><ele>354.40000000000003</ele><time>2026-04-11T12:32:37.061Z</time></trkpt><trkpt lat="45.07007" lon="7.7597917"><ele>350.20000000000005</ele><time>2026-04-11T12:32:40.06Z</time></trkpt><trkpt lat="45.070115" lon="7.7599083"><ele>346.0</ele><time>2026-04-11T12:32:43.063Z</time></trkpt><trkpt lat="45.0701533" lon="7.7600267"><ele>346.0</ele><time>2026-04-11T12:32:46.06Z</time></trkpt><trkpt lat="45.07018" lon="7.760155"><ele>346.0</ele><time>2026-04-11T12:32:49.061Z</time></trkpt><trkpt lat="45.0702083" lon="7.760245"><ele>346.0</ele><time>2026-04-11T12:32:51.063Z</time></trkpt><trkpt lat="45.070235" lon="7.7603267"><ele>346.0</ele><time>2026-04-11T12:32:53.059Z</time></trkpt><trkpt lat="45.0702683" lon="7.7604083"><ele>346.0</ele><time>2026-04-11T12:32:55.06Z</time></trkpt><trkpt lat="45.0703183" lon="7.7605133"><ele>346.0</ele><time>2026-04-11T12:32:58.06Z</time></trkpt><trkpt lat="45.070355" lon="7.7606283"><ele>347.8333333333333</ele><time>2026-04-11T12:33:01.061Z</time></trkpt><trkpt lat="45.0704" lon="7.7607433"><ele>349.66666666666663</ele><time>2026-04-11T12:33:04.06Z</time></trkpt><trkpt lat="45.0704333" lon="7.7608633"><ele>351.5</ele><time>2026-04-11T12:33:07.062Z</time></trkpt><trkpt lat="45.0704517" lon="7.7609817"><ele>353.3333333333333</ele><time>2026-04-11T12:33:10.061Z</time></trkpt><trkpt lat="45.0704867" lon="7.7610867"><ele>355.1666666666667</ele><time>2026-04-11T12:33:13.061Z</time></trkpt><trkpt lat="45.0705067" lon="7.761195"><ele>357.0</ele><time>2026-04-11T12:33:16.061Z</time></trkpt><trkpt lat="45.07054" lon="7.7613133"><ele>357.14285714285717</ele><time>2026-04-11T12:33:19.062Z</time></trkpt><trkpt lat="45.070565" lon="7.761405"><ele>357.2857142857143</ele><time>2026-04-11T12:33:22.06Z</time></trkpt><trkpt lat="45.0706133" lon="7.7614667"><ele>357.42857142857144</ele><time>2026-04-11T12:33:25.062Z</time></trkpt><trkpt lat="45.0706917" lon="7.761435"><ele>357.57142857142856</ele><time>2026-04-11T12:33:29.061Z</time></trkpt><trkpt lat="45.0707383" lon="7.7613417"><ele>357.7142857142857</ele><time>2026-04-11T12:33:32.061Z</time></trkpt><trkpt lat="45.070755" lon="7.7612317"><ele>357.8571428571429</ele><time>2026-04-11T12:33:35.061Z</time></trkpt><trkpt lat="45.07078" lon="7.7611433"><ele>358.0</ele><time>2026-04-11T12:33:38.062Z</time></trkpt><trkpt lat="45.0707967" lon="7.7610383"><ele>357.8571428571429</ele><time>2026-04-11T12:33:41.062Z</time></trkpt><trkpt lat="45.0708083" lon="7.7609333"><ele>357.7142857142857</ele><time>2026-04-11T12:33:44.062Z</time></trkpt><trkpt lat="45.0708167" lon="7.7608367"><ele>357.57142857142856</ele><time>2026-04-11T12:33:47.063Z</time></trkpt><trkpt lat="45.0708183" lon="7.7607467"><ele>357.42857142857144</ele><time>2026-04-11T12:33:50.059Z</time></trkpt><trkpt lat="45.070805" lon="7.7606517"><ele>357.2857142857143</ele><time>2026-04-11T12:33:53.059Z</time></trkpt><trkpt lat="45.0707617" lon="7.7605567"><ele>357.14285714285717</ele><time>2026-04-11T12:33:57.063Z</time></trkpt><trkpt lat="45.070715" lon="7.7604767"><ele>357.0</ele><time>2026-04-11T12:34:00.063Z</time></trkpt><trkpt lat="45.0706683" lon="7.7603983"><ele>357.0</ele><time>2026-04-11T12:34:03.063Z</time></trkpt><trkpt lat="45.070645" lon="7.7603033"><ele>357.0</ele><time>2026-04-11T12:34:07.063Z</time></trkpt><trkpt lat="45.0707067" lon="7.76035"><ele>357.0</ele><time>2026-04-11T12:34:12.062Z</time></trkpt><trkpt lat="45.0707567" lon="7.7604433"><ele>357.0</ele><time>2026-04-11T12:34:16.063Z</time></trkpt><trkpt lat="45.07081" lon="7.7605033"><ele>357.0</ele><time>2026-04-11T12:34:19.063Z</time></trkpt><trkpt lat="45.0708683" lon="7.7605533"><ele>357.0</ele><time>2026-04-11T12:34:22.061Z</time></trkpt><trkpt lat="45.0709233" lon="7.7606167"><ele>357.0</ele><time>2026-04-11T12:34:25.061Z</time></trkpt><trkpt lat="45.07095" lon="7.76072"><ele>356.85714285714283</ele><time>2026-04-11T12:34:29.062Z</time></trkpt><trkpt lat="45.07096" lon="7.7608267"><ele>356.7142857142857</ele><time>2026-04-11T12:34:33.061Z</time></trkpt><trkpt lat="45.0709667" lon="7.7609283"><ele>356.57142857142856</ele><time>2026-04-11T12:34:36.062Z</time></trkpt><trkpt lat="45.07098" lon="7.7610233"><ele>356.42857142857144</ele><time>2026-04-11T12:34:39.064Z</time></trkpt><trkpt lat="45.0709917" lon="7.76112"><ele>356.2857142857143</ele><time>2026-04-11T12:34:42.062Z</time></trkpt><trkpt lat="45.0709917" lon="7.7612217"><ele>356.1428571428571</ele><time>2026-04-11T12:34:45.061Z</time></trkpt><trkpt lat="45.0709983" lon="7.7613267"><ele>356.0</ele><time>2026-04-11T12:34:48.061Z</time></trkpt><trkpt lat="45.071035" lon="7.7614183"><ele>356.2857142857143</ele><time>2026-04-11T12:34:51.062Z</time></trkpt><trkpt lat="45.071085" lon="7.7614867"><ele>356.57142857142856</ele><time>2026-04-11T12:34:54.062Z</time></trkpt><trkpt lat="45.07113" lon="7.76157"><ele>356.8571428571429</ele><time>2026-04-11T12:34:57.063Z</time></trkpt><trkpt lat="45.071175" lon="7.7616717"><ele>357.1428571428571</ele><time>2026-04-11T12:35:01.06Z</time></trkpt><trkpt lat="45.0712133" lon="7.76177"><ele>357.42857142857144</ele><time>2026-04-11T12:35:04.062Z</time></trkpt><trkpt lat="45.0712433" lon="7.761855"><ele>357.7142857142857</ele><time>2026-04-11T12:35:07.062Z</time></trkpt><trkpt lat="45.0712567" lon="7.7619517"><ele>358.0</ele><time>2026-04-11T12:35:10.059Z</time></trkpt><trkpt lat="45.0712883" lon="7.76206"><ele>358.28571428571433</ele><time>2026-04-11T12:35:14.06Z</time></trkpt><trkpt lat="45.0713267" lon="7.7621433"><ele>358.57142857142856</ele><time>2026-04-11T12:35:17.061Z</time></trkpt><trkpt lat="45.0713667" lon="7.7622233"><ele>358.8571428571429</ele><time>2026-04-11T12:35:20.059Z</time></trkpt><trkpt lat="45.0714217" lon="7.7622667"><ele>359.14285714285717</ele><time>2026-04-11T12:35:23.06Z</time></trkpt><trkpt lat="45.0714783" lon="7.7622083"><ele>359.42857142857144</ele><time>2026-04-11T12:35:26.061Z</time></trkpt><trkpt lat="45.0715017" lon="7.7621133"><ele>359.7142857142857</ele><time>2026-04-11T12:35:29.059Z</time></trkpt><trkpt lat="45.071525" lon="7.7619983"><ele>360.0</ele><time>2026-04-11T12:35:33.066Z</time></trkpt><trkpt lat="45.0715233" lon="7.761885"><ele>359.6666666666667</ele><time>2026-04-11T12:35:37.062Z</time></trkpt><trkpt lat="45.0715283" lon="7.76177"><ele>359.3333333333333</ele><time>2026-04-11T12:35:41.057Z</time></trkpt><trkpt lat="45.0715317" lon="7.76168"><ele>359.0</ele><time>2026-04-11T12:35:44.062Z</time></trkpt><trkpt lat="45.071525" lon="7.7615617"><ele>358.66666666666663</ele><time>2026-04-11T12:35:48.062Z</time></trkpt><trkpt lat="45.0715133" lon="7.7614467"><ele>358.3333333333333</ele><time>2026-04-11T12:35:52.061Z</time></trkpt><trkpt lat="45.07153" lon="7.761335"><ele>358.0</ele><time>2026-04-11T12:35:56.063Z</time></trkpt><trkpt lat="45.071545" lon="7.7612233"><ele>358.00000000000006</ele><time>2026-04-11T12:36:00.062Z</time></trkpt><trkpt lat="45.0715617" lon="7.7611167"><ele>358.0</ele><time>2026-04-11T12:36:04.061Z</time></trkpt><trkpt lat="45.0715817" lon="7.76103"><ele>358.0</ele><time>2026-04-11T12:36:07.062Z</time></trkpt><trkpt lat="45.071595" lon="7.7609417"><ele>358.0</ele><time>2026-04-11T12:36:10.059Z</time></trkpt><trkpt lat="45.071605" lon="7.76085"><ele>358.0</ele><time>2026-04-11T12:36:13.064Z</time></trkpt><trkpt lat="45.071615" lon="7.7607583"><ele>358.00000000000006</ele><time>2026-04-11T12:36:16.063Z</time></trkpt><trkpt lat="45.07164" lon="7.7606483"><ele>358.0</ele><time>2026-04-11T12:36:20.064Z</time></trkpt><trkpt lat="45.0716883" lon="7.7605583"><ele>362.28571428571433</ele><time>2026-04-11T12:36:24.062Z</time></trkpt><trkpt lat="45.0717567" lon="7.7604833"><ele>366.57142857142856</ele><time>2026-04-11T12:36:28.063Z</time></trkpt><trkpt lat="45.07181" lon="7.76043"><ele>370.8571428571429</ele><time>2026-04-11T12:36:31.063Z</time></trkpt><trkpt lat="45.07186" lon="7.7603717"><ele>375.14285714285717</ele><time>2026-04-11T12:36:34.063Z</time></trkpt><trkpt lat="45.0719117" lon="7.760315"><ele>379.42857142857144</ele><time>2026-04-11T12:36:37.062Z</time></trkpt><trkpt lat="45.0719617" lon="7.7602583"><ele>383.7142857142857</ele><time>2026-04-11T12:36:40.058Z</time></trkpt><trkpt lat="45.0720283" lon="7.76019"><ele>388.0</ele><time>2026-04-11T12:36:44.064Z</time></trkpt><trkpt lat="45.0720867" lon="7.7601517"><ele>388.0</ele><time>2026-04-11T12:36:47.063Z</time></trkpt><trkpt lat="45.07215" lon="7.7601567"><ele>388.0</ele><time>2026-04-11T12:36:50.062Z</time></trkpt><trkpt lat="45.0722117" lon="7.7602317"><ele>388.0</ele><time>2026-04-11T12:36:54.062Z</time></trkpt><trkpt lat="45.0722" lon="7.76035"><ele>388.0</ele><time>2026-04-11T12:36:58.063Z</time></trkpt><trkpt lat="45.07216" lon="7.7604333"><ele>388.0</ele><time>2026-04-11T12:37:01.062Z</time></trkpt><trkpt lat="45.0721267" lon="7.76052"><ele>388.0</ele><time>2026-04-11T12:37:04.063Z</time></trkpt><trkpt lat="45.072105" lon="7.76061"><ele>388.0</ele><time>2026-04-11T12:37:07.062Z</time></trkpt><trkpt lat="45.0720717" lon="7.7607183"><ele>388.0</ele><time>2026-04-11T12:37:11.062Z</time></trkpt><trkpt lat="45.0720467" lon="7.7608183"><ele>388.0</ele><time>2026-04-11T12:37:14.064Z</time></trkpt><trkpt lat="45.07202" lon="7.760905"><ele>388.0</ele><time>2026-04-11T12:37:17.062Z</time></trkpt><trkpt lat="45.0719817" lon="7.7610067"><ele>388.0</ele><time>2026-04-11T12:37:21.065Z</time></trkpt><trkpt lat="45.0719733" lon="7.7611017"><ele>388.0</ele><time>2026-04-11T12:37:24.063Z</time></trkpt><trkpt lat="45.072045" lon="7.7611133"><ele>388.0</ele><time>2026-04-11T12:37:28.064Z</time></trkpt><trkpt lat="45.0720983" lon="7.761055"><ele>388.0</ele><time>2026-04-11T12:37:30.063Z</time></trkpt><trkpt lat="45.0721467" lon="7.7609583"><ele>388.0</ele><time>2026-04-11T12:37:33.063Z</time></trkpt><trkpt lat="45.0721883" lon="7.7608683"><ele>388.0</ele><time>2026-04-11T12:37:36.062Z</time></trkpt><trkpt lat="45.0722233" lon="7.7607833"><ele>388.0</ele><time>2026-04-11T12:37:39.067Z</time></trkpt><trkpt lat="45.0722617" lon="7.7606983"><ele>388.0</ele><time>2026-04-11T12:37:42.065Z</time></trkpt><trkpt lat="45.072305" lon="7.7606267"><ele>388.0</ele><time>2026-04-11T12:37:45.063Z</time></trkpt><trkpt lat="45.072345" lon="7.7605433"><ele>388.0</ele><time>2026-04-11T12:37:48.062Z</time></trkpt><trkpt lat="45.0724083" lon="7.76054"><ele>388.0</ele><time>2026-04-11T12:37:52.064Z</time></trkpt><trkpt lat="45.0723917" lon="7.7606333"><ele>388.0</ele><time>2026-04-11T12:37:55.063Z</time></trkpt><trkpt lat="45.0723483" lon="7.7607267"><ele>388.0</ele><time>2026-04-11T12:37:58.063Z</time></trkpt><trkpt lat="45.072315" lon="7.760825"><ele>388.0</ele><time>2026-04-11T12:38:01.062Z</time></trkpt><trkpt lat="45.072295" lon="7.7609217"><ele>388.0</ele><time>2026-04-11T12:38:04.061Z</time></trkpt><trkpt lat="45.07228" lon="7.7610167"><ele>388.0</ele><time>2026-04-11T12:38:07.061Z</time></trkpt><trkpt lat="45.0722667" lon="7.7611133"><ele>388.0</ele><time>2026-04-11T12:38:10.06Z</time></trkpt><trkpt lat="45.0722533" lon="7.76121"><ele>388.0</ele><time>2026-04-11T12:38:13.062Z</time></trkpt><trkpt lat="45.07228" lon="7.7612933"><ele>388.00000000000006</ele><time>2026-04-11T12:38:16.061Z</time></trkpt><trkpt lat="45.0723333" lon="7.7613433"><ele>388.0</ele><time>2026-04-11T12:38:19.063Z</time></trkpt><trkpt lat="45.0724117" lon="7.7613117"><ele>388.0</ele><time>2026-04-11T12:38:23.06Z</time></trkpt><trkpt lat="45.0724717" lon="7.761225"><ele>388.0</ele><time>2026-04-11T12:38:26.064Z</time></trkpt><trkpt lat="45.0725083" lon="7.7611183"><ele>388.00000000000006</ele><time>2026-04-11T12:38:29.06Z</time></trkpt><trkpt lat="45.0725317" lon="7.7610067"><ele>388.0</ele><time>2026-04-11T12:38:32.063Z</time></trkpt><trkpt lat="45.0725717" lon="7.7609"><ele>392.1666666666667</ele><time>2026-04-11T12:38:35.061Z</time></trkpt><trkpt lat="45.0726133" lon="7.7608267"><ele>396.33333333333337</ele><time>2026-04-11T12:38:37.063Z</time></trkpt><trkpt lat="45.0726433" lon="7.7607317"><ele>400.5</ele><time>2026-04-11T12:38:39.063Z</time></trkpt><trkpt lat="45.072655" lon="7.760625"><ele>404.66666666666663</ele><time>2026-04-11T12:38:41.061Z</time></trkpt><trkpt lat="45.0726667" lon="7.76052"><ele>408.8333333333333</ele><time>2026-04-11T12:38:43.063Z</time></trkpt><trkpt lat="45.07268" lon="7.7604017"><ele>413.0</ele><time>2026-04-11T12:38:45.063Z</time></trkpt><trkpt lat="45.0726933" lon="7.7602783"><ele>412.49999999999994</ele><time>2026-04-11T12:38:47.06Z</time></trkpt><trkpt lat="45.07271" lon="7.7601533"><ele>412.0</ele><time>2026-04-11T12:38:49.062Z</time></trkpt><trkpt lat="45.0727317" lon="7.7600383"><ele>411.5</ele><time>2026-04-11T12:38:51.064Z</time></trkpt><trkpt lat="45.07275" lon="7.75992"><ele>411.0</ele><time>2026-04-11T12:38:53.064Z</time></trkpt><trkpt lat="45.0727617" lon="7.759795"><ele>410.49999999999994</ele><time>2026-04-11T12:38:55.061Z</time></trkpt><trkpt lat="45.0727733" lon="7.759675"><ele>410.0</ele><time>2026-04-11T12:38:57.061Z</time></trkpt><trkpt lat="45.0727717" lon="7.7595583"><ele>409.99999999999994</ele><time>2026-04-11T12:38:59.062Z</time></trkpt><trkpt lat="45.0727767" lon="7.75946"><ele>410.0</ele><time>2026-04-11T12:39:01.062Z</time></trkpt><trkpt lat="45.0728217" lon="7.75936"><ele>410.0</ele><time>2026-04-11T12:39:04.061Z</time></trkpt><trkpt lat="45.0728867" lon="7.7593433"><ele>410.0</ele><time>2026-04-11T12:39:06.06Z</time></trkpt><trkpt lat="45.0729617" lon="7.7593367"><ele>409.99999999999994</ele><time>2026-04-11T12:39:08.06Z</time></trkpt><trkpt lat="45.07304" lon="7.75936"><ele>410.0</ele><time>2026-04-11T12:39:10.06Z</time></trkpt><trkpt lat="45.07312" lon="7.7594217"><ele>409.99999999999994</ele><time>2026-04-11T12:39:12.062Z</time></trkpt><trkpt lat="45.0731917" lon="7.7594983"><ele>410.0</ele><time>2026-04-11T12:39:14.06Z</time></trkpt><trkpt lat="45.0732567" lon="7.7595733"><ele>410.0</ele><time>2026-04-11T12:39:16.062Z</time></trkpt><trkpt lat="45.0733283" lon="7.7596417"><ele>410.0</ele><time>2026-04-11T12:39:18.061Z</time></trkpt><trkpt lat="45.0733783" lon="7.7597233"><ele>409.99999999999994</ele><time>2026-04-11T12:39:20.061Z</time></trkpt><trkpt lat="45.0734167" lon="7.7597983"><ele>410.0</ele><time>2026-04-11T12:39:22.061Z</time></trkpt><trkpt lat="45.07346" lon="7.7598867"><ele>411.7142857142857</ele><time>2026-04-11T12:39:25.063Z</time></trkpt><trkpt lat="45.0735133" lon="7.7599667"><ele>413.4285714285714</ele><time>2026-04-11T12:39:29.06Z</time></trkpt><trkpt lat="45.073555" lon="7.7600433"><ele>415.1428571428571</ele><time>2026-04-11T12:39:33.064Z</time></trkpt><trkpt lat="45.0735933" lon="7.7601183"><ele>416.8571428571429</ele><time>2026-04-11T12:39:37.062Z</time></trkpt><trkpt lat="45.0736367" lon="7.7601983"><ele>418.57142857142856</ele><time>2026-04-11T12:39:41.062Z</time></trkpt><trkpt lat="45.07368" lon="7.7602667"><ele>420.2857142857143</ele><time>2026-04-11T12:39:45.066Z</time></trkpt><trkpt lat="45.0737217" lon="7.7603417"><ele>422.0</ele><time>2026-04-11T12:39:49.061Z</time></trkpt><trkpt lat="45.073765" lon="7.76043"><ele>423.0</ele><time>2026-04-11T12:39:54.062Z</time></trkpt><trkpt lat="45.0738217" lon="7.7605017"><ele>424.0</ele><time>2026-04-11T12:39:58.059Z</time></trkpt><trkpt lat="45.0738733" lon="7.7605617"><ele>425.0</ele><time>2026-04-11T12:40:02.062Z</time></trkpt><trkpt lat="45.0739233" lon="7.7606383"><ele>426.0</ele><time>2026-04-11T12:40:07.063Z</time></trkpt><trkpt lat="45.073975" lon="7.7606933"><ele>427.0</ele><time>2026-04-11T12:40:12.062Z</time></trkpt><trkpt lat="45.0740317" lon="7.76076"><ele>428.0</ele><time>2026-04-11T12:40:16.058Z</time></trkpt><trkpt lat="45.0740333" lon="7.7608583"><ele>429.0</ele><time>2026-04-11T12:40:22.065Z</time></trkpt><trkpt lat="45.0739717" lon="7.7609067"><ele>429.0</ele><time>2026-04-11T12:40:26.063Z</time></trkpt><trkpt lat="45.0738967" lon="7.7609483"><ele>429.0</ele><time>2026-04-11T12:40:30.061Z</time></trkpt><trkpt lat="45.07384" lon="7.7610117"><ele>429.0</ele><time>2026-04-11T12:40:33.063Z</time></trkpt><trkpt lat="45.0737867" lon="7.7610633"><ele>429.0</ele><time>2026-04-11T12:40:36.061Z</time></trkpt><trkpt lat="45.07376" lon="7.7611517"><ele>429.0</ele><time>2026-04-11T12:40:39.064Z</time></trkpt><trkpt lat="45.0737733" lon="7.7612533"><ele>429.0</ele><time>2026-04-11T12:40:42.062Z</time></trkpt><trkpt lat="45.0738" lon="7.7613417"><ele>429.0</ele><time>2026-04-11T12:40:45.063Z</time></trkpt><trkpt lat="45.07386" lon="7.761415"><ele>429.0</ele><time>2026-04-11T12:40:49.063Z</time></trkpt><trkpt lat="45.0739117" lon="7.761475"><ele>429.0</ele><time>2026-04-11T12:40:52.063Z</time></trkpt><trkpt lat="45.0739733" lon="7.76155"><ele>429.0</ele><time>2026-04-11T12:40:56.063Z</time></trkpt><trkpt lat="45.07402" lon="7.7616217"><ele>429.0</ele><time>2026-04-11T12:41:01.06Z</time></trkpt><trkpt lat="45.074075" lon="7.761675"><ele>429.0</ele><time>2026-04-11T12:41:05.061Z</time></trkpt><trkpt lat="45.0741317" lon="7.7617467"><ele>429.0</ele><time>2026-04-11T12:41:10.06Z</time></trkpt><trkpt lat="45.07418" lon="7.7618167"><ele>429.0</ele><time>2026-04-11T12:41:14.059Z</time></trkpt><trkpt lat="45.0742283" lon="7.76188"><ele>431.8571428571429</ele><time>2026-04-11T12:41:18.059Z</time></trkpt><trkpt lat="45.0742683" lon="7.7619533"><ele>434.7142857142857</ele><time>2026-04-11T12:41:22.061Z</time></trkpt><trkpt lat="45.0743" lon="7.762035"><ele>437.57142857142856</ele><time>2026-04-11T12:41:25.061Z</time></trkpt><trkpt lat="45.0743183" lon="7.7621383"><ele>440.42857142857144</ele><time>2026-04-11T12:41:29.06Z</time></trkpt><trkpt lat="45.07435" lon="7.7622333"><ele>443.2857142857142</ele><time>2026-04-11T12:41:32.06Z</time></trkpt><trkpt lat="45.07437" lon="7.7623317"><ele>446.1428571428571</ele><time>2026-04-11T12:41:35.061Z</time></trkpt><trkpt lat="45.0744017" lon="7.7624217"><ele>449.0</ele><time>2026-04-11T12:41:38.062Z</time></trkpt><trkpt lat="45.0744233" lon="7.762515"><ele>448.99999999999994</ele><time>2026-04-11T12:41:41.059Z</time></trkpt><trkpt lat="45.0744517" lon="7.7626167"><ele>449.0</ele><time>2026-04-11T12:41:44.061Z</time></trkpt><trkpt lat="45.0744617" lon="7.7627467"><ele>449.0</ele><time>2026-04-11T12:41:47.063Z</time></trkpt><trkpt lat="45.0744567" lon="7.7628367"><ele>449.0</ele><time>2026-04-11T12:41:49.061Z</time></trkpt><trkpt lat="45.0744583" lon="7.7629267"><ele>448.99999999999994</ele><time>2026-04-11T12:41:51.064Z</time></trkpt><trkpt lat="45.07448" lon="7.76304"><ele>449.0</ele><time>2026-04-11T12:41:54.062Z</time></trkpt><trkpt lat="45.07452" lon="7.763135"><ele>448.0</ele><time>2026-04-11T12:41:58.063Z</time></trkpt><trkpt lat="45.0745733" lon="7.7631967"><ele>446.99999999999994</ele><time>2026-04-11T12:42:02.06Z</time></trkpt><trkpt lat="45.074635" lon="7.76325"><ele>446.0</ele><time>2026-04-11T12:42:07.062Z</time></trkpt><trkpt lat="45.074695" lon="7.7632783"><ele>445.0</ele><time>2026-04-11T12:42:11.061Z</time></trkpt><trkpt lat="45.0747633" lon="7.7632883"><ele>444.0</ele><time>2026-04-11T12:42:15.062Z</time></trkpt><trkpt lat="45.07482" lon="7.7632417"><ele>443.0</ele><time>2026-04-11T12:42:19.062Z</time></trkpt><trkpt lat="45.0748567" lon="7.7631667"><ele>442.0</ele><time>2026-04-11T12:42:23.06Z</time></trkpt><trkpt lat="45.0748883" lon="7.7630783"><ele>442.00000000000006</ele><time>2026-04-11T12:42:27.063Z</time></trkpt><trkpt lat="45.0749167" lon="7.7629967"><ele>442.0</ele><time>2026-04-11T12:42:31.06Z</time></trkpt><trkpt lat="45.0749483" lon="7.762915"><ele>442.0</ele><time>2026-04-11T12:42:35.06Z</time></trkpt><trkpt lat="45.074985" lon="7.7628183"><ele>442.0</ele><time>2026-04-11T12:42:39.063Z</time></trkpt><trkpt lat="45.07502" lon="7.7627167"><ele>442.0</ele><time>2026-04-11T12:42:43.062Z</time></trkpt><trkpt lat="45.0750267" lon="7.7626"><ele>442.00000000000006</ele><time>2026-04-11T12:42:48.063Z</time></trkpt><trkpt lat="45.0750383" lon="7.7625"><ele>442.0</ele><time>2026-04-11T12:42:52.062Z</time></trkpt><trkpt lat="45.0750583" lon="7.7624033"><ele>447.0</ele><time>2026-04-11T12:42:56.061Z</time></trkpt><trkpt lat="45.0750817" lon="7.7623067"><ele>452.0</ele><time>2026-04-11T12:43:00.062Z</time></trkpt><trkpt lat="45.0751083" lon="7.7622017"><ele>457.0</ele><time>2026-04-11T12:43:04.06Z</time></trkpt><trkpt lat="45.07514" lon="7.7621183"><ele>462.0</ele><time>2026-04-11T12:43:08.062Z</time></trkpt><trkpt lat="45.0751683" lon="7.762035"><ele>466.99999999999994</ele><time>2026-04-11T12:43:12.061Z</time></trkpt><trkpt lat="45.0752" lon="7.7619517"><ele>472.0</ele><time>2026-04-11T12:43:16.062Z</time></trkpt><trkpt lat="45.075245" lon="7.7618733"><ele>477.0</ele><time>2026-04-11T12:43:21.069Z</time></trkpt><trkpt lat="45.0752767" lon="7.761775"><ele>477.1428571428571</ele><time>2026-04-11T12:43:26.06Z</time></trkpt><trkpt lat="45.07529" lon="7.7616767"><ele>477.2857142857142</ele><time>2026-04-11T12:43:30.059Z</time></trkpt><trkpt lat="45.0753167" lon="7.7615767"><ele>477.42857142857144</ele><time>2026-04-11T12:43:35.062Z</time></trkpt><trkpt lat="45.0753383" lon="7.7614733"><ele>477.57142857142856</ele><time>2026-04-11T12:43:40.059Z</time></trkpt><trkpt lat="45.0753767" lon="7.7613767"><ele>477.7142857142857</ele><time>2026-04-11T12:43:45.064Z</time></trkpt><trkpt lat="45.075435" lon="7.7613067"><ele>477.8571428571429</ele><time>2026-04-11T12:43:49.056Z</time></trkpt><trkpt lat="45.07549" lon="7.76126"><ele>478.00000000000006</ele><time>2026-04-11T12:43:52.069Z</time></trkpt><trkpt lat="45.07555" lon="7.7612317"><ele>478.00000000000006</ele><time>2026-04-11T12:43:55.062Z</time></trkpt><trkpt lat="45.0756233" lon="7.7612317"><ele>478.0</ele><time>2026-04-11T12:43:59.062Z</time></trkpt><trkpt lat="45.0757" lon="7.7612383"><ele>478.0</ele><time>2026-04-11T12:44:02.064Z</time></trkpt><trkpt lat="45.075815" lon="7.7612533"><ele>478.0</ele><time>2026-04-11T12:44:06.06Z</time></trkpt><trkpt lat="45.075905" lon="7.76125"><ele>478.00000000000006</ele><time>2026-04-11T12:44:09.063Z</time></trkpt><trkpt lat="45.0759967" lon="7.7612483"><ele>478.0</ele><time>2026-04-11T12:44:12.063Z</time></trkpt><trkpt lat="45.0760933" lon="7.76124"><ele>481.8571428571429</ele><time>2026-04-11T12:44:15.062Z</time></trkpt><trkpt lat="45.07617" lon="7.76123"><ele>485.7142857142857</ele><time>2026-04-11T12:44:17.06Z</time></trkpt><trkpt lat="45.0762533" lon="7.7612233"><ele>489.57142857142856</ele><time>2026-04-11T12:44:19.062Z</time></trkpt><trkpt lat="45.0763267" lon="7.7612117"><ele>493.42857142857144</ele><time>2026-04-11T12:44:21.062Z</time></trkpt><trkpt lat="45.0763917" lon="7.7611883"><ele>497.2857142857142</ele><time>2026-04-11T12:44:23.061Z</time></trkpt><trkpt lat="45.0764617" lon="7.7611467"><ele>501.1428571428571</ele><time>2026-04-11T12:44:25.062Z</time></trkpt><trkpt lat="45.0765183" lon="7.761105"><ele>505.0</ele><time>2026-04-11T12:44:27.06Z</time></trkpt><trkpt lat="45.0765767" lon="7.7610583"><ele>504.00000000000006</ele><time>2026-04-11T12:44:29.061Z</time></trkpt><trkpt lat="45.0766267" lon="7.7610033"><ele>503.0</ele><time>2026-04-11T12:44:32.061Z</time></trkpt><trkpt lat="45.076685" lon="7.7608633"><ele>502.0</ele><time>2026-04-11T12:45:58.062Z</time></trkpt><trkpt lat="45.0766817" lon="7.7607733"><ele>501.0</ele><time>2026-04-11T12:46:00.063Z</time></trkpt><trkpt lat="45.0766733" lon="7.7606667"><ele>500.00000000000006</ele><time>2026-04-11T12:46:02.062Z</time></trkpt><trkpt lat="45.0766617" lon="7.7605467"><ele>499.0</ele><time>2026-04-11T12:46:04.062Z</time></trkpt><trkpt lat="45.07665" lon="7.7604267"><ele>499.00000000000006</ele><time>2026-04-11T12:46:06.063Z</time></trkpt><trkpt lat="45.0766517" lon="7.76031"><ele>499.0</ele><time>2026-04-11T12:46:08.065Z</time></trkpt><trkpt lat="45.076685" lon="7.76021"><ele>499.0</ele><time>2026-04-11T12:46:10.064Z</time></trkpt><trkpt lat="45.0767433" lon="7.7601383"><ele>499.0</ele><time>2026-04-11T12:46:12.062Z</time></trkpt><trkpt lat="45.0768133" lon="7.7600917"><ele>499.00000000000006</ele><time>2026-04-11T12:46:14.062Z</time></trkpt><trkpt lat="45.07688" lon="7.7600567"><ele>499.0</ele><time>2026-04-11T12:46:16.065Z</time></trkpt><trkpt lat="45.0769667" lon="7.76005"><ele>498.4</ele><time>2026-04-11T12:46:18.062Z</time></trkpt><trkpt lat="45.0770567" lon="7.760075"><ele>497.79999999999995</ele><time>2026-04-11T12:46:20.061Z</time></trkpt><trkpt lat="45.0771567" lon="7.7601333"><ele>497.20000000000005</ele><time>2026-04-11T12:46:22.061Z</time></trkpt><trkpt lat="45.0772633" lon="7.7601717"><ele>496.6</ele><time>2026-04-11T12:46:24.062Z</time></trkpt><trkpt lat="45.07737" lon="7.760165"><ele>496.0</ele><time>2026-04-11T12:46:26.06Z</time></trkpt><trkpt lat="45.077465" lon="7.7601083"><ele>496.0</ele><time>2026-04-11T12:46:28.062Z</time></trkpt><trkpt lat="45.0775517" lon="7.7600283"><ele>496.0</ele><time>2026-04-11T12:46:30.062Z</time></trkpt><trkpt lat="45.077645" lon="7.7599533"><ele>496.0</ele><time>2026-04-11T12:46:32.063Z</time></trkpt><trkpt lat="45.077745" lon="7.7599083"><ele>496.0</ele><time>2026-04-11T12:46:34.062Z</time></trkpt><trkpt lat="45.0778417" lon="7.7599133"><ele>496.0</ele><time>2026-04-11T12:46:36.065Z</time></trkpt><trkpt lat="45.0779383" lon="7.759935"><ele>496.00000000000006</ele><time>2026-04-11T12:46:38.061Z</time></trkpt><trkpt lat="45.07803" lon="7.759905"><ele>496.0</ele><time>2026-04-11T12:46:40.063Z</time></trkpt><trkpt lat="45.0780967" lon="7.7598183"><ele>496.0</ele><time>2026-04-11T12:46:42.061Z</time></trkpt><trkpt lat="45.078155" lon="7.7597433"><ele>496.0</ele><time>2026-04-11T12:46:44.062Z</time></trkpt><trkpt lat="45.0781933" lon="7.7596467"><ele>496.00000000000006</ele><time>2026-04-11T12:46:46.063Z</time></trkpt><trkpt lat="45.0782267" lon="7.7595417"><ele>496.0</ele><time>2026-04-11T12:46:48.065Z</time></trkpt><trkpt lat="45.0782633" lon="7.75945"><ele>496.83333333333337</ele><time>2026-04-11T12:46:50.06Z</time></trkpt><trkpt lat="45.078305" lon="7.759335"><ele>497.6666666666667</ele><time>2026-04-11T12:46:53.061Z</time></trkpt><trkpt lat="45.0783417" lon="7.7592067"><ele>498.5</ele><time>2026-04-11T12:46:56.061Z</time></trkpt><trkpt lat="45.0783583" lon="7.7591133"><ele>499.33333333333337</ele><time>2026-04-11T12:46:58.062Z</time></trkpt><trkpt lat="45.0784017" lon="7.7590167"><ele>500.1666666666667</ele><time>2026-04-11T12:47:01.063Z</time></trkpt><trkpt lat="45.0784" lon="7.7591233"><ele>501.0</ele><time>2026-04-11T12:47:07.063Z</time></trkpt><trkpt lat="45.0783783" lon="7.75921"><ele>501.0</ele><time>2026-04-11T12:47:10.065Z</time></trkpt><trkpt lat="45.07836" lon="7.7593233"><ele>501.0</ele><time>2026-04-11T12:47:14.062Z</time></trkpt><trkpt lat="45.078355" lon="7.7594167"><ele>501.0</ele><time>2026-04-11T12:47:17.061Z</time></trkpt><trkpt lat="45.0783517" lon="7.7595067"><ele>501.0</ele><time>2026-04-11T12:47:20.062Z</time></trkpt><trkpt lat="45.0783517" lon="7.7595983"><ele>501.0</ele><time>2026-04-11T12:47:23.062Z</time></trkpt><trkpt lat="45.0783617" lon="7.7597083"><ele>501.0</ele><time>2026-04-11T12:47:27.063Z</time></trkpt><trkpt lat="45.0783617" lon="7.7598217"><ele>501.0</ele><time>2026-04-11T12:47:31.062Z</time></trkpt><trkpt lat="45.0783533" lon="7.7599267"><ele>502.7142857142857</ele><time>2026-04-11T12:47:35.061Z</time></trkpt><trkpt lat="45.0783517" lon="7.7600267"><ele>504.42857142857144</ele><time>2026-04-11T12:47:39.061Z</time></trkpt><trkpt lat="45.0783567" lon="7.7601417"><ele>506.14285714285717</ele><time>2026-04-11T12:47:43.059Z</time></trkpt><trkpt lat="45.0783467" lon="7.7602317"><ele>507.8571428571429</ele><time>2026-04-11T12:47:46.061Z</time></trkpt><trkpt lat="45.07835" lon="7.7603367"><ele>509.57142857142856</ele><time>2026-04-11T12:47:50.061Z</time></trkpt><trkpt lat="45.0783483" lon="7.7604333"><ele>511.28571428571433</ele><time>2026-04-11T12:47:54.061Z</time></trkpt><trkpt lat="45.078335" lon="7.7605383"><ele>513.0</ele><time>2026-04-11T12:47:58.063Z</time></trkpt><trkpt lat="45.0782917" lon="7.7606283"><ele>513.1666666666666</ele><time>2026-04-11T12:48:02.061Z</time></trkpt><trkpt lat="45.0782433" lon="7.7607067"><ele>513.3333333333334</ele><time>2026-04-11T12:48:06.061Z</time></trkpt><trkpt lat="45.0781867" lon="7.7607867"><ele>513.5</ele><time>2026-04-11T12:48:10.062Z</time></trkpt><trkpt lat="45.0781467" lon="7.7608767"><ele>513.6666666666667</ele><time>2026-04-11T12:48:14.062Z</time></trkpt><trkpt lat="45.0781017" lon="7.760965"><ele>513.8333333333334</ele><time>2026-04-11T12:48:18.062Z</time></trkpt><trkpt lat="45.0780467" lon="7.7610467"><ele>514.0</ele><time>2026-04-11T12:48:22.062Z</time></trkpt><trkpt lat="45.077995" lon="7.7611117"><ele>517.2857142857142</ele><time>2026-04-11T12:48:26.062Z</time></trkpt><trkpt lat="45.0779433" lon="7.7611867"><ele>520.5714285714286</ele><time>2026-04-11T12:48:30.06Z</time></trkpt><trkpt lat="45.07789" lon="7.7612367"><ele>523.8571428571429</ele><time>2026-04-11T12:48:33.06Z</time></trkpt><trkpt lat="45.0778133" lon="7.761275"><ele>527.1428571428571</ele><time>2026-04-11T12:48:37.065Z</time></trkpt><trkpt lat="45.077755" lon="7.7613217"><ele>530.4285714285714</ele><time>2026-04-11T12:48:40.064Z</time></trkpt><trkpt lat="45.0776933" lon="7.7613567"><ele>533.7142857142857</ele><time>2026-04-11T12:48:43.065Z</time></trkpt><trkpt lat="45.0776267" lon="7.761385"><ele>537.0</ele><time>2026-04-11T12:48:46.063Z</time></trkpt><trkpt lat="45.0775433" lon="7.761405"><ele>536.9999999999999</ele><time>2026-04-11T12:48:50.062Z</time></trkpt><trkpt lat="45.0774767" lon="7.761415"><ele>537.0</ele><time>2026-04-11T12:48:53.061Z</time></trkpt><trkpt lat="45.0774117" lon="7.761455"><ele>537.0</ele><time>2026-04-11T12:48:56.061Z</time></trkpt><trkpt lat="45.0773567" lon="7.7615217"><ele>537.0</ele><time>2026-04-11T12:48:59.059Z</time></trkpt><trkpt lat="45.077315" lon="7.7616"><ele>537.0</ele><time>2026-04-11T12:49:02.063Z</time></trkpt><trkpt lat="45.0772783" lon="7.7616783"><ele>536.9999999999999</ele><time>2026-04-11T12:49:05.063Z</time></trkpt><trkpt lat="45.07724" lon="7.76176"><ele>537.0</ele><time>2026-04-11T12:49:08.065Z</time></trkpt><trkpt lat="45.07719" lon="7.7618467"><ele>537.9999999999999</ele><time>2026-04-11T12:49:12.064Z</time></trkpt><trkpt lat="45.0771383" lon="7.7618983"><ele>539.0</ele><time>2026-04-11T12:49:15.063Z</time></trkpt><trkpt lat="45.0770733" lon="7.761925"><ele>540.0</ele><time>2026-04-11T12:49:18.063Z</time></trkpt><trkpt lat="45.0770033" lon="7.7619533"><ele>541.0</ele><time>2026-04-11T12:49:22.063Z</time></trkpt><trkpt lat="45.0769283" lon="7.761995"><ele>542.0</ele><time>2026-04-11T12:49:26.063Z</time></trkpt><trkpt lat="45.0768733" lon="7.7620517"><ele>542.9999999999999</ele><time>2026-04-11T12:49:29.062Z</time></trkpt><trkpt lat="45.0768267" lon="7.7621233"><ele>544.0</ele><time>2026-04-11T12:49:32.065Z</time></trkpt><trkpt lat="45.0767833" lon="7.762195"><ele>543.9999999999999</ele><time>2026-04-11T12:49:35.061Z</time></trkpt><trkpt lat="45.0767433" lon="7.7622667"><ele>544.0</ele><time>2026-04-11T12:49:38.061Z</time></trkpt><trkpt lat="45.0767" lon="7.7623683"><ele>544.0</ele><time>2026-04-11T12:49:42.064Z</time></trkpt><trkpt lat="45.0766717" lon="7.762455"><ele>544.0</ele><time>2026-04-11T12:49:45.063Z</time></trkpt><trkpt lat="45.076645" lon="7.7625417"><ele>544.0</ele><time>2026-04-11T12:49:48.062Z</time></trkpt><trkpt lat="45.076615" lon="7.7626417"><ele>543.9999999999999</ele><time>2026-04-11T12:49:52.057Z</time></trkpt><trkpt lat="45.0765917" lon="7.7627467"><ele>544.0</ele><time>2026-04-11T12:49:56.066Z</time></trkpt><trkpt lat="45.07659" lon="7.76287"><ele>544.7142857142857</ele><time>2026-04-11T12:50:00.063Z</time></trkpt><trkpt lat="45.076605" lon="7.7629633"><ele>545.4285714285714</ele><time>2026-04-11T12:50:03.065Z</time></trkpt><trkpt lat="45.0766433" lon="7.76304"><ele>546.1428571428571</ele><time>2026-04-11T12:50:06.061Z</time></trkpt><trkpt lat="45.07669" lon="7.7631067"><ele>546.8571428571429</ele><time>2026-04-11T12:50:09.063Z</time></trkpt><trkpt lat="45.0767317" lon="7.763175"><ele>547.5714285714286</ele><time>2026-04-11T12:50:12.063Z</time></trkpt><trkpt lat="45.07677" lon="7.7632467"><ele>548.2857142857142</ele><time>2026-04-11T12:50:15.064Z</time></trkpt><trkpt lat="45.0768233" lon="7.76333"><ele>549.0</ele><time>2026-04-11T12:50:19.061Z</time></trkpt><trkpt lat="45.07688" lon="7.7634083"><ele>549.0</ele><time>2026-04-11T12:50:23.064Z</time></trkpt><trkpt lat="45.07692" lon="7.7634783"><ele>549.0</ele><time>2026-04-11T12:50:26.063Z</time></trkpt><trkpt lat="45.0769733" lon="7.7635617"><ele>549.0</ele><time>2026-04-11T12:50:30.062Z</time></trkpt><trkpt lat="45.0770217" lon="7.76365"><ele>549.0</ele><time>2026-04-11T12:50:34.062Z</time></trkpt><trkpt lat="45.0770767" lon="7.763735"><ele>549.0</ele><time>2026-04-11T12:50:38.062Z</time></trkpt><trkpt lat="45.077135" lon="7.7638167"><ele>549.0</ele><time>2026-04-11T12:50:42.062Z</time></trkpt><trkpt lat="45.0771867" lon="7.763895"><ele>548.1666666666666</ele><time>2026-04-11T12:50:46.063Z</time></trkpt><trkpt lat="45.0772367" lon="7.76398"><ele>547.3333333333334</ele><time>2026-04-11T12:50:50.063Z</time></trkpt><trkpt lat="45.0772917" lon="7.7640717"><ele>546.5</ele><time>2026-04-11T12:50:54.063Z</time></trkpt><trkpt lat="45.077345" lon="7.764155"><ele>545.6666666666667</ele><time>2026-04-11T12:50:58.063Z</time></trkpt><trkpt lat="45.077395" lon="7.7642417"><ele>544.8333333333334</ele><time>2026-04-11T12:51:02.062Z</time></trkpt><trkpt lat="45.0774433" lon="7.7643317"><ele>544.0</ele><time>2026-04-11T12:51:06.062Z</time></trkpt><trkpt lat="45.0774767" lon="7.7644133"><ele>548.5714285714286</ele><time>2026-04-11T12:51:09.063Z</time></trkpt><trkpt lat="45.0775017" lon="7.7645033"><ele>553.1428571428571</ele><time>2026-04-11T12:51:12.062Z</time></trkpt><trkpt lat="45.07753" lon="7.7645917"><ele>557.7142857142858</ele><time>2026-04-11T12:51:15.063Z</time></trkpt><trkpt lat="45.0775467" lon="7.7647033"><ele>562.2857142857142</ele><time>2026-04-11T12:51:19.065Z</time></trkpt><trkpt lat="45.0775517" lon="7.7648"><ele>566.8571428571429</ele><time>2026-04-11T12:51:22.061Z</time></trkpt><trkpt lat="45.077535" lon="7.7648967"><ele>571.4285714285714</ele><time>2026-04-11T12:51:25.064Z</time></trkpt><trkpt lat="45.0774983" lon="7.764985"><ele>576.0</ele><time>2026-04-11T12:51:28.067Z</time></trkpt><trkpt lat="45.0774583" lon="7.7650783"><ele>573.7142857142858</ele><time>2026-04-11T12:51:31.062Z</time></trkpt><trkpt lat="45.0774167" lon="7.76517"><ele>571.4285714285714</ele><time>2026-04-11T12:51:34.065Z</time></trkpt><trkpt lat="45.0773883" lon="7.76527"><ele>569.1428571428571</ele><time>2026-04-11T12:51:37.064Z</time></trkpt><trkpt lat="45.077365" lon="7.7653633"><ele>566.8571428571429</ele><time>2026-04-11T12:51:40.064Z</time></trkpt><trkpt lat="45.0773367" lon="7.7654583"><ele>564.5714285714286</ele><time>2026-04-11T12:51:43.063Z</time></trkpt><trkpt lat="45.0773217" lon="7.7655567"><ele>562.2857142857143</ele><time>2026-04-11T12:51:46.063Z</time></trkpt><trkpt lat="45.0773067" lon="7.7656583"><ele>560.0</ele><time>2026-04-11T12:51:49.062Z</time></trkpt><trkpt lat="45.077295" lon="7.7657517"><ele>560.0</ele><time>2026-04-11T12:51:52.059Z</time></trkpt><trkpt lat="45.07728" lon="7.7658483"><ele>560.0</ele><time>2026-04-11T12:51:55.064Z</time></trkpt><trkpt lat="45.07726" lon="7.765935"><ele>560.0</ele><time>2026-04-11T12:51:58.061Z</time></trkpt><trkpt lat="45.077225" lon="7.7660217"><ele>560.0</ele><time>2026-04-11T12:52:01.063Z</time></trkpt><trkpt lat="45.0771917" lon="7.7660983"><ele>560.0</ele><time>2026-04-11T12:52:04.064Z</time></trkpt><trkpt lat="45.0771683" lon="7.7661833"><ele>560.0</ele><time>2026-04-11T12:52:07.063Z</time></trkpt><trkpt lat="45.0771417" lon="7.76627"><ele>560.0</ele><time>2026-04-11T12:52:10.061Z</time></trkpt><trkpt lat="45.077115" lon="7.7663533"><ele>562.5</ele><time>2026-04-11T12:52:13.062Z</time></trkpt><trkpt lat="45.0770967" lon="7.7664633"><ele>565.0</ele><time>2026-04-11T12:52:17.062Z</time></trkpt><trkpt lat="45.077055" lon="7.766555"><ele>567.5</ele><time>2026-04-11T12:52:21.063Z</time></trkpt><trkpt lat="45.0770133" lon="7.766655"><ele>570.0</ele><time>2026-04-11T12:52:25.064Z</time></trkpt><trkpt lat="45.076955" lon="7.766725"><ele>572.5</ele><time>2026-04-11T12:52:29.063Z</time></trkpt><trkpt lat="45.0769033" lon="7.7668067"><ele>575.0</ele><time>2026-04-11T12:52:33.066Z</time></trkpt><trkpt lat="45.0768917" lon="7.7669083"><ele>575.0</ele><time>2026-04-11T12:52:36.062Z</time></trkpt><trkpt lat="45.0769267" lon="7.7669917"><ele>575.0</ele><time>2026-04-11T12:52:39.064Z</time></trkpt><trkpt lat="45.07699" lon="7.7669767"><ele>575.0</ele><time>2026-04-11T12:52:42.063Z</time></trkpt><trkpt lat="45.0770517" lon="7.7669083"><ele>575.0</ele><time>2026-04-11T12:52:46.063Z</time></trkpt><trkpt lat="45.0771217" lon="7.76685"><ele>575.0</ele><time>2026-04-11T12:52:51.061Z</time></trkpt><trkpt lat="45.0771833" lon="7.7667867"><ele>575.0</ele><time>2026-04-11T12:52:56.063Z</time></trkpt><trkpt lat="45.0772483" lon="7.7667683"><ele>575.0</ele><time>2026-04-11T12:53:00.061Z</time></trkpt><trkpt lat="45.0773233" lon="7.7667383"><ele>575.0</ele><time>2026-04-11T12:53:05.062Z</time></trkpt><trkpt lat="45.077385" lon="7.7667617"><ele>575.0</ele><time>2026-04-11T12:53:10.06Z</time></trkpt><trkpt lat="45.07745" lon="7.7667567"><ele>575.0</ele><time>2026-04-11T12:53:14.061Z</time></trkpt><trkpt lat="45.0775183" lon="7.7667467"><ele>575.0</ele><time>2026-04-11T12:53:19.061Z</time></trkpt><trkpt lat="45.0775833" lon="7.76674"><ele>575.0</ele><time>2026-04-11T12:53:26.064Z</time></trkpt><trkpt lat="45.0776483" lon="7.7667733"><ele>575.0</ele><time>2026-04-11T12:53:31.063Z</time></trkpt><trkpt lat="45.077715" lon="7.7668233"><ele>575.0</ele><time>2026-04-11T12:53:36.063Z</time></trkpt><trkpt lat="45.077755" lon="7.7669033"><ele>581.1428571428571</ele><time>2026-04-11T12:53:42.057Z</time></trkpt><trkpt lat="45.0777733" lon="7.7670017"><ele>587.2857142857142</ele><time>2026-04-11T12:53:47.064Z</time></trkpt><trkpt lat="45.0778067" lon="7.7670883"><ele>593.4285714285714</ele><time>2026-04-11T12:53:51.061Z</time></trkpt><trkpt lat="45.0778117" lon="7.7671967"><ele>599.5714285714286</ele><time>2026-04-11T12:53:56.064Z</time></trkpt><trkpt lat="45.077785" lon="7.76728"><ele>605.7142857142858</ele><time>2026-04-11T12:54:00.062Z</time></trkpt><trkpt lat="45.0777567" lon="7.7673667"><ele>611.8571428571429</ele><time>2026-04-11T12:54:05.063Z</time></trkpt><trkpt lat="45.0777317" lon="7.7674683"><ele>618.0</ele><time>2026-04-11T12:54:11.062Z</time></trkpt><trkpt lat="45.0776933" lon="7.7675417"><ele>618.0000000000001</ele><time>2026-04-11T12:54:15.062Z</time></trkpt><trkpt lat="45.0776417" lon="7.767615"><ele>618.0</ele><time>2026-04-11T12:54:20.061Z</time></trkpt><trkpt lat="45.077615" lon="7.767705"><ele>618.0</ele><time>2026-04-11T12:54:25.063Z</time></trkpt><trkpt lat="45.077585" lon="7.767805"><ele>618.0</ele><time>2026-04-11T12:54:31.063Z</time></trkpt><trkpt lat="45.0776083" lon="7.7679117"><ele>618.0</ele><time>2026-04-11T12:54:36.062Z</time></trkpt><trkpt lat="45.0776667" lon="7.7679817"><ele>618.0000000000001</ele><time>2026-04-11T12:54:40.063Z</time></trkpt><trkpt lat="45.077715" lon="7.7680633"><ele>618.0</ele><time>2026-04-11T12:54:46.059Z</time></trkpt><trkpt lat="45.07774" lon="7.7681633"><ele>618.0</ele><time>2026-04-11T12:54:51.065Z</time></trkpt><trkpt lat="45.0778067" lon="7.7680967"><ele>618.0</ele><time>2026-04-11T12:54:57.067Z</time></trkpt><trkpt lat="45.0778333" lon="7.767975"><ele>618.0</ele><time>2026-04-11T12:55:00.062Z</time></trkpt><trkpt lat="45.0778667" lon="7.7678767"><ele>618.0</ele><time>2026-04-11T12:55:02.061Z</time></trkpt><trkpt lat="45.077905" lon="7.7677717"><ele>618.0</ele><time>2026-04-11T12:55:04.061Z</time></trkpt><trkpt lat="45.0779567" lon="7.767655"><ele>618.0</ele><time>2026-04-11T12:55:06.06Z</time></trkpt><trkpt lat="45.078005" lon="7.7675233"><ele>618.0</ele><time>2026-04-11T12:55:08.06Z</time></trkpt><trkpt lat="45.0780533" lon="7.7674"><ele>618.0</ele><time>2026-04-11T12:55:10.062Z</time></trkpt><trkpt lat="45.078105" lon="7.7672817"><ele>618.0</ele><time>2026-04-11T12:55:12.06Z</time></trkpt><trkpt lat="45.0781617" lon="7.7671733"><ele>618.0</ele><time>2026-04-11T12:55:14.06Z</time></trkpt><trkpt lat="45.0782167" lon="7.7670683"><ele>618.0</ele><time>2026-04-11T12:55:16.063Z</time></trkpt><trkpt lat="45.078275" lon="7.766975"><ele>620.1999999999999</ele><time>2026-04-11T12:55:18.061Z</time></trkpt><trkpt lat="45.07834" lon="7.766875"><ele>622.4</ele><time>2026-04-11T12:55:20.062Z</time></trkpt><trkpt lat="45.0784" lon="7.76676"><ele>624.5999999999999</ele><time>2026-04-11T12:55:22.063Z</time></trkpt><trkpt lat="45.0784667" lon="7.7666267"><ele>626.8</ele><time>2026-04-11T12:55:24.06Z</time></trkpt><trkpt lat="45.07853" lon="7.766485"><ele>629.0</ele><time>2026-04-11T12:55:26.062Z</time></trkpt><trkpt lat="45.0785767" lon="7.766325"><ele>629.0</ele><time>2026-04-11T12:55:28.063Z</time></trkpt><trkpt lat="45.0786167" lon="7.7661617"><ele>629.0</ele><time>2026-04-11T12:55:30.063Z</time></trkpt><trkpt lat="45.07865" lon="7.7659917"><ele>629.0</ele><time>2026-04-11T12:55:32.062Z</time></trkpt><trkpt lat="45.0786717" lon="7.765815"><ele>629.0</ele><time>2026-04-11T12:55:34.062Z</time></trkpt><trkpt lat="45.0786967" lon="7.765645"><ele>631.2</ele><time>2026-04-11T12:55:36.062Z</time></trkpt><trkpt lat="45.078745" lon="7.7654967"><ele>633.4</ele><time>2026-04-11T12:55:38.063Z</time></trkpt><trkpt lat="45.0788567" lon="7.765425"><ele>635.6</ele><time>2026-04-11T12:55:40.063Z</time></trkpt><trkpt lat="45.078985" lon="7.76538"><ele>637.8</ele><time>2026-04-11T12:55:42.063Z</time></trkpt><trkpt lat="45.0790483" lon="7.7653683"><ele>640.0</ele><time>2026-04-11T12:55:43.064Z</time></trkpt><trkpt lat="45.0791133" lon="7.7653683"><ele>640.0</ele><time>2026-04-11T12:55:44.061Z</time></trkpt><trkpt lat="45.0791783" lon="7.7653833"><ele>640.0</ele><time>2026-04-11T12:55:45.064Z</time></trkpt><trkpt lat="45.07924" lon="7.7654017"><ele>640.0</ele><time>2026-04-11T12:55:46.06Z</time></trkpt><trkpt lat="45.0793583" lon="7.7654417"><ele>640.0</ele><time>2026-04-11T12:55:48.059Z</time></trkpt><trkpt lat="45.07947" lon="7.7654767"><ele>640.0</ele><time>2026-04-11T12:55:50.064Z</time></trkpt><trkpt lat="45.07958" lon="7.7655017"><ele>640.0</ele><time>2026-04-11T12:55:52.063Z</time></trkpt><trkpt lat="45.0796883" lon="7.7655217"><ele>640.0</ele><time>2026-04-11T12:55:54.061Z</time></trkpt><trkpt lat="45.0797933" lon="7.765535"><ele>640.0</ele><time>2026-04-11T12:55:56.062Z</time></trkpt><trkpt lat="45.0798833" lon="7.76556"><ele>640.0</ele><time>2026-04-11T12:55:58.061Z</time></trkpt><trkpt lat="45.07997" lon="7.76559"><ele>640.0</ele><time>2026-04-11T12:56:00.063Z</time></trkpt><trkpt lat="45.0800417" lon="7.7656383"><ele>640.3333333333334</ele><time>2026-04-11T12:56:02.062Z</time></trkpt><trkpt lat="45.0801067" lon="7.7656983"><ele>640.6666666666667</ele><time>2026-04-11T12:56:04.062Z</time></trkpt><trkpt lat="45.0801667" lon="7.7657633"><ele>641.0</ele><time>2026-04-11T12:56:06.06Z</time></trkpt><trkpt lat="45.0802267" lon="7.7658367"><ele>641.3333333333334</ele><time>2026-04-11T12:56:08.06Z</time></trkpt><trkpt lat="45.0802883" lon="7.7659067"><ele>641.6666666666666</ele><time>2026-04-11T12:56:10.06Z</time></trkpt><trkpt lat="45.0803567" lon="7.7659667"><ele>642.0</ele><time>2026-04-11T12:56:12.062Z</time></trkpt><trkpt lat="45.080425" lon="7.76602"><ele>644.5714285714286</ele><time>2026-04-11T12:56:14.062Z</time></trkpt><trkpt lat="45.0804917" lon="7.7660733"><ele>647.1428571428571</ele><time>2026-04-11T12:56:16.062Z</time></trkpt><trkpt lat="45.0805567" lon="7.7661083"><ele>649.7142857142858</ele><time>2026-04-11T12:56:18.063Z</time></trkpt><trkpt lat="45.080625" lon="7.7661333"><ele>652.2857142857142</ele><time>2026-04-11T12:56:20.061Z</time></trkpt><trkpt lat="45.0806967" lon="7.7661783"><ele>654.8571428571429</ele><time>2026-04-11T12:56:22.06Z</time></trkpt><trkpt lat="45.0807683" lon="7.7662233"><ele>657.4285714285714</ele><time>2026-04-11T12:56:24.061Z</time></trkpt><trkpt lat="45.0808283" lon="7.7662833"><ele>660.0</ele><time>2026-04-11T12:56:26.06Z</time></trkpt><trkpt lat="45.080885" lon="7.76633"><ele>660.0000000000001</ele><time>2026-04-11T12:56:28.061Z</time></trkpt><trkpt lat="45.0809617" lon="7.7663683"><ele>660.0</ele><time>2026-04-11T12:56:31.062Z</time></trkpt><trkpt lat="45.0810333" lon="7.76639"><ele>660.0</ele><time>2026-04-11T12:56:34.06Z</time></trkpt><trkpt lat="45.0811083" lon="7.7663933"><ele>660.0</ele><time>2026-04-11T12:56:38.059Z</time></trkpt><trkpt lat="45.08113" lon="7.7663017"><ele>660.0</ele><time>2026-04-11T12:56:48.06Z</time></trkpt><trkpt lat="45.0812033" lon="7.76631"><ele>660.0000000000001</ele><time>2026-04-11T12:56:56.061Z</time></trkpt><trkpt lat="45.0812617" lon="7.7663467"><ele>660.0</ele><time>2026-04-11T12:57:01.06Z</time></trkpt><trkpt lat="45.081325" lon="7.7663783"><ele>660.0000000000001</ele><time>2026-04-11T12:57:07.063Z</time></trkpt><trkpt lat="45.0813893" lon="7.7664107"><ele>660.0</ele><time>2026-04-11T12:57:12.098Z</time></trkpt><trkpt lat="45.0814482" lon="7.7664569"><ele>660.0</ele><time>2026-04-11T12:57:17.054Z</time></trkpt><trkpt lat="45.0814079" lon="7.7665292"><ele>660.0</ele><time>2026-04-11T12:57:33.105Z</time></trkpt><trkpt lat="45.0813546" lon="7.766467"><ele>660.0</ele><time>2026-04-11T12:57:49.099Z</time></trkpt><trkpt lat="45.0812772" lon="7.7664969"><ele>660.0000000000001</ele><time>2026-04-11T12:57:53.06Z</time></trkpt><trkpt lat="45.0812145" lon="7.7665107"><ele>660.0</ele><time>2026-04-11T12:57:56.054Z</time></trkpt><trkpt lat="45.0811317" lon="7.76655"><ele>660.0</ele><time>2026-04-11T12:57:59.06Z</time></trkpt><trkpt lat="45.0810633" lon="7.7666017"><ele>660.0</ele><time>2026-04-11T12:58:03.061Z</time></trkpt><trkpt lat="45.0809967" lon="7.7666483"><ele>660.0</ele><time>2026-04-11T12:58:07.062Z</time></trkpt><trkpt lat="45.0809183" lon="7.7666833"><ele>660.0</ele><time>2026-04-11T12:58:11.061Z</time></trkpt><trkpt lat="45.0808383" lon="7.7666917"><ele>660.0</ele><time>2026-04-11T12:58:15.061Z</time></trkpt><trkpt lat="45.0807567" lon="7.7666967"><ele>660.0</ele><time>2026-04-11T12:58:19.061Z</time></trkpt><trkpt lat="45.08069" lon="7.76672"><ele>660.5714285714287</ele><time>2026-04-11T12:58:22.062Z</time></trkpt><trkpt lat="45.0806217" lon="7.7667333"><ele>661.1428571428571</ele><time>2026-04-11T12:58:25.062Z</time></trkpt><trkpt lat="45.0805567" lon="7.7667467"><ele>661.7142857142858</ele><time>2026-04-11T12:58:28.063Z</time></trkpt><trkpt lat="45.08047" lon="7.766765"><ele>662.2857142857143</ele><time>2026-04-11T12:58:32.06Z</time></trkpt><trkpt lat="45.0804033" lon="7.766765"><ele>662.8571428571429</ele><time>2026-04-11T12:58:35.06Z</time></trkpt><trkpt lat="45.0803383" lon="7.76678"><ele>663.4285714285714</ele><time>2026-04-11T12:58:38.061Z</time></trkpt><trkpt lat="45.080265" lon="7.766775"><ele>664.0</ele><time>2026-04-11T12:58:42.059Z</time></trkpt><trkpt lat="45.0802" lon="7.7667683"><ele>665.7142857142857</ele><time>2026-04-11T12:58:46.061Z</time></trkpt><trkpt lat="45.08022" lon="7.766875"><ele>667.4285714285714</ele><time>2026-04-11T12:58:52.062Z</time></trkpt><trkpt lat="45.0802817" lon="7.7669117"><ele>669.1428571428571</ele><time>2026-04-11T12:58:56.062Z</time></trkpt><trkpt lat="45.080355" lon="7.7668933"><ele>670.8571428571429</ele><time>2026-04-11T12:59:00.062Z</time></trkpt><trkpt lat="45.08042" lon="7.7669067"><ele>672.5714285714286</ele><time>2026-04-11T12:59:03.061Z</time></trkpt><trkpt lat="45.0804817" lon="7.7669367"><ele>674.2857142857143</ele><time>2026-04-11T12:59:06.06Z</time></trkpt><trkpt lat="45.0805467" lon="7.76695"><ele>676.0</ele><time>2026-04-11T12:59:09.064Z</time></trkpt><trkpt lat="45.08062" lon="7.7669767"><ele>676.0</ele><time>2026-04-11T12:59:12.06Z</time></trkpt><trkpt lat="45.0807033" lon="7.7669817"><ele>676.0</ele><time>2026-04-11T12:59:15.062Z</time></trkpt><trkpt lat="45.0807833" lon="7.7669967"><ele>676.0</ele><time>2026-04-11T12:59:18.061Z</time></trkpt><trkpt lat="45.0808583" lon="7.7670417"><ele>676.0</ele><time>2026-04-11T12:59:21.062Z</time></trkpt><trkpt lat="45.0809167" lon="7.7671033"><ele>676.0</ele><time>2026-04-11T12:59:24.063Z</time></trkpt><trkpt lat="45.0809783" lon="7.7671583"><ele>676.0</ele><time>2026-04-11T12:59:27.062Z</time></trkpt><trkpt lat="45.0810417" lon="7.767225"><ele>678.1428571428571</ele><time>2026-04-11T12:59:30.061Z</time></trkpt><trkpt lat="45.081095" lon="7.7672867"><ele>680.2857142857142</ele><time>2026-04-11T12:59:34.06Z</time></trkpt><trkpt lat="45.0810817" lon="7.76717"><ele>682.4285714285713</ele><time>2026-04-11T12:59:44.059Z</time></trkpt><trkpt lat="45.0810383" lon="7.76707"><ele>684.5714285714286</ele><time>2026-04-11T12:59:47.061Z</time></trkpt><trkpt lat="45.081" lon="7.7669867"><ele>686.7142857142857</ele><time>2026-04-11T12:59:50.06Z</time></trkpt><trkpt lat="45.0809333" lon="7.7669333"><ele>688.8571428571428</ele><time>2026-04-11T12:59:54.06Z</time></trkpt><trkpt lat="45.0808767" lon="7.76689"><ele>691.0</ele><time>2026-04-11T12:59:57.06Z</time></trkpt><trkpt lat="45.0808183" lon="7.766855"><ele>690.9999999999999</ele><time>2026-04-11T13:00:01.055Z</time></trkpt><trkpt lat="45.0808633" lon="7.7669183"><ele>691.0</ele><time>2026-04-11T13:04:27.064Z</time></trkpt><trkpt lat="45.0809333" lon="7.7669383"><ele>691.0</ele><time>2026-04-11T13:04:32.061Z</time></trkpt><trkpt lat="45.08099" lon="7.766995"><ele>691.0</ele><time>2026-04-11T13:04:36.06Z</time></trkpt><trkpt lat="45.0810333" lon="7.76708"><ele>691.0</ele><time>2026-04-11T13:04:39.063Z</time></trkpt><trkpt lat="45.0810817" lon="7.76718"><ele>690.9999999999999</ele><time>2026-04-11T13:04:42.062Z</time></trkpt><trkpt lat="45.0811133" lon="7.7672783"><ele>691.0</ele><time>2026-04-11T13:04:45.063Z</time></trkpt><trkpt lat="45.0811533" lon="7.7673867"><ele>691.0</ele><time>2026-04-11T13:04:48.061Z</time></trkpt><trkpt lat="45.0811667" lon="7.7674817"><ele>691.0</ele><time>2026-04-11T13:04:51.062Z</time></trkpt><trkpt lat="45.0811783" lon="7.7676233"><ele>691.0</ele><time>2026-04-11T13:06:55.063Z</time></trkpt><trkpt lat="45.0812017" lon="7.7677167"><ele>691.0</ele><time>2026-04-11T13:06:58.061Z</time></trkpt><trkpt lat="45.0812017" lon="7.7678333"><ele>691.0</ele><time>2026-04-11T13:07:01.064Z</time></trkpt><trkpt lat="45.081205" lon="7.767925"><ele>691.0</ele><time>2026-04-11T13:07:03.063Z</time></trkpt><trkpt lat="45.08122" lon="7.7680217"><ele>689.6666666666667</ele><time>2026-04-11T13:07:05.061Z</time></trkpt><trkpt lat="45.081245" lon="7.7681367"><ele>688.3333333333334</ele><time>2026-04-11T13:07:07.06Z</time></trkpt><trkpt lat="45.0812633" lon="7.76824"><ele>687.0</ele><time>2026-04-11T13:07:09.061Z</time></trkpt><trkpt lat="45.08128" lon="7.768345"><ele>685.6666666666666</ele><time>2026-04-11T13:07:11.061Z</time></trkpt><trkpt lat="45.081305" lon="7.768445"><ele>684.3333333333333</ele><time>2026-04-11T13:07:13.063Z</time></trkpt><trkpt lat="45.0813317" lon="7.76855"><ele>683.0</ele><time>2026-04-11T13:07:15.06Z</time></trkpt><trkpt lat="45.0813583" lon="7.7686483"><ele>679.3333333333333</ele><time>2026-04-11T13:07:17.063Z</time></trkpt><trkpt lat="45.0814067" lon="7.76875"><ele>675.6666666666666</ele><time>2026-04-11T13:07:19.063Z</time></trkpt><trkpt lat="45.0814767" lon="7.7688467"><ele>672.0</ele><time>2026-04-11T13:07:21.063Z</time></trkpt><trkpt lat="45.081515" lon="7.7689583"><ele>668.3333333333334</ele><time>2026-04-11T13:07:24.062Z</time></trkpt><trkpt lat="45.081505" lon="7.769055"><ele>664.6666666666667</ele><time>2026-04-11T13:07:28.062Z</time></trkpt><trkpt lat="45.0814267" lon="7.769075"><ele>661.0</ele><time>2026-04-11T13:07:31.062Z</time></trkpt><trkpt lat="45.0813517" lon="7.7690867"><ele>661.0</ele><time>2026-04-11T13:07:33.063Z</time></trkpt><trkpt lat="45.08128" lon="7.7690967"><ele>661.0</ele><time>2026-04-11T13:07:35.06Z</time></trkpt><trkpt lat="45.08121" lon="7.7691117"><ele>661.0</ele><time>2026-04-11T13:07:37.063Z</time></trkpt><trkpt lat="45.0811217" lon="7.76912"><ele>661.0</ele><time>2026-04-11T13:07:40.062Z</time></trkpt><trkpt lat="45.0810567" lon="7.76912"><ele>661.0</ele><time>2026-04-11T13:07:44.063Z</time></trkpt><trkpt lat="45.081" lon="7.7691683"><ele>661.0</ele><time>2026-04-11T13:08:15.064Z</time></trkpt><trkpt lat="45.0809233" lon="7.7691833"><ele>661.0</ele><time>2026-04-11T13:09:08.059Z</time></trkpt><trkpt lat="45.0808433" lon="7.7691783"><ele>661.0</ele><time>2026-04-11T13:09:11.06Z</time></trkpt><trkpt lat="45.08078" lon="7.7691317"><ele>661.0</ele><time>2026-04-11T13:09:13.059Z</time></trkpt><trkpt lat="45.08072" lon="7.769085"><ele>661.0</ele><time>2026-04-11T13:09:15.063Z</time></trkpt><trkpt lat="45.0806667" lon="7.769035"><ele>661.0</ele><time>2026-04-11T13:09:17.062Z</time></trkpt><trkpt lat="45.080625" lon="7.7689383"><ele>661.0</ele><time>2026-04-11T13:09:20.064Z</time></trkpt><trkpt lat="45.08061" lon="7.768845"><ele>661.0</ele><time>2026-04-11T13:09:23.056Z</time></trkpt><trkpt lat="45.08059" lon="7.7687417"><ele>661.0</ele><time>2026-04-11T13:09:26.059Z</time></trkpt><trkpt lat="45.0805583" lon="7.76864"><ele>661.3333333333334</ele><time>2026-04-11T13:09:29.06Z</time></trkpt><trkpt lat="45.0805433" lon="7.7685533"><ele>661.6666666666667</ele><time>2026-04-11T13:09:31.061Z</time></trkpt><trkpt lat="45.080525" lon="7.7684283"><ele>662.0</ele><time>2026-04-11T13:09:34.061Z</time></trkpt><trkpt lat="45.0804917" lon="7.7683083"><ele>662.3333333333334</ele><time>2026-04-11T13:09:37.062Z</time></trkpt><trkpt lat="45.0804633" lon="7.7681883"><ele>662.6666666666666</ele><time>2026-04-11T13:09:40.062Z</time></trkpt><trkpt lat="45.0804517" lon="7.7680933"><ele>663.0</ele><time>2026-04-11T13:09:43.066Z</time></trkpt><trkpt lat="45.0804333" lon="7.7680033"><ele>663.0</ele><time>2026-04-11T13:09:46.062Z</time></trkpt><trkpt lat="45.0803867" lon="7.7679417"><ele>663.0</ele><time>2026-04-11T13:10:34.061Z</time></trkpt><trkpt lat="45.08036" lon="7.76781"><ele>663.0</ele><time>2026-04-11T13:10:45.064Z</time></trkpt><trkpt lat="45.0803467" lon="7.7677033"><ele>663.0</ele><time>2026-04-11T13:10:54.06Z</time></trkpt><trkpt lat="45.080285" lon="7.7676217"><ele>663.0</ele><time>2026-04-11T13:10:57.061Z</time></trkpt><trkpt lat="45.08023" lon="7.76757"><ele>663.0</ele><time>2026-04-11T13:10:59.06Z</time></trkpt><trkpt lat="45.0801783" lon="7.7675133"><ele>663.3333333333334</ele><time>2026-04-11T13:11:01.062Z</time></trkpt><trkpt lat="45.0801167" lon="7.7674567"><ele>663.6666666666666</ele><time>2026-04-11T13:11:03.061Z</time></trkpt><trkpt lat="45.08006" lon="7.7674133"><ele>664.0</ele><time>2026-04-11T13:11:05.062Z</time></trkpt><trkpt lat="45.079975" lon="7.7673817"><ele>664.3333333333333</ele><time>2026-04-11T13:11:08.062Z</time></trkpt><trkpt lat="45.0799067" lon="7.7674017"><ele>664.6666666666666</ele><time>2026-04-11T13:11:10.063Z</time></trkpt><trkpt lat="45.0798317" lon="7.767435"><ele>665.0</ele><time>2026-04-11T13:11:12.059Z</time></trkpt><trkpt lat="45.07974" lon="7.767475"><ele>665.0</ele><time>2026-04-11T13:11:14.061Z</time></trkpt><trkpt lat="45.0796417" lon="7.767515"><ele>665.0</ele><time>2026-04-11T13:11:16.057Z</time></trkpt><trkpt lat="45.0795383" lon="7.7675833"><ele>665.0</ele><time>2026-04-11T13:11:18.06Z</time></trkpt><trkpt lat="45.07944" lon="7.76766"><ele>665.0</ele><time>2026-04-11T13:11:20.06Z</time></trkpt><trkpt lat="45.0793383" lon="7.7677533"><ele>664.0</ele><time>2026-04-11T13:11:22.061Z</time></trkpt><trkpt lat="45.0792783" lon="7.7678117"><ele>663.0</ele><time>2026-04-11T13:11:23.061Z</time></trkpt><trkpt lat="45.0792233" lon="7.7678633"><ele>662.0</ele><time>2026-04-11T13:11:24.062Z</time></trkpt><trkpt lat="45.0791683" lon="7.7679183"><ele>661.0</ele><time>2026-04-11T13:11:25.061Z</time></trkpt><trkpt lat="45.0791217" lon="7.76798"><ele>660.0</ele><time>2026-04-11T13:11:26.059Z</time></trkpt><trkpt lat="45.0790733" lon="7.7680483"><ele>659.0</ele><time>2026-04-11T13:11:27.061Z</time></trkpt><trkpt lat="45.07903" lon="7.7681317"><ele>658.0</ele><time>2026-04-11T13:11:28.061Z</time></trkpt><trkpt lat="45.0789917" lon="7.7682117"><ele>658.0</ele><time>2026-04-11T13:11:29.059Z</time></trkpt><trkpt lat="45.078955" lon="7.7682933"><ele>658.0</ele><time>2026-04-11T13:11:30.06Z</time></trkpt><trkpt lat="45.0789167" lon="7.76837"><ele>658.0</ele><time>2026-04-11T13:11:31.06Z</time></trkpt><trkpt lat="45.0788733" lon="7.7684383"><ele>658.0</ele><time>2026-04-11T13:11:32.06Z</time></trkpt><trkpt lat="45.0788317" lon="7.7685133"><ele>658.0</ele><time>2026-04-11T13:11:33.06Z</time></trkpt><trkpt lat="45.0787967" lon="7.7685983"><ele>658.0</ele><time>2026-04-11T13:11:34.061Z</time></trkpt><trkpt lat="45.0787717" lon="7.7686817"><ele>658.0</ele><time>2026-04-11T13:11:35.06Z</time></trkpt><trkpt lat="45.0787183" lon="7.7688217"><ele>655.0</ele><time>2026-04-11T13:11:37.062Z</time></trkpt><trkpt lat="45.07866" lon="7.7689533"><ele>652.0</ele><time>2026-04-11T13:11:39.062Z</time></trkpt><trkpt lat="45.078615" lon="7.7690783"><ele>649.0</ele><time>2026-04-11T13:11:41.061Z</time></trkpt><trkpt lat="45.0785833" lon="7.769205"><ele>646.0</ele><time>2026-04-11T13:11:43.064Z</time></trkpt><trkpt lat="45.0785633" lon="7.7693217"><ele>643.0</ele><time>2026-04-11T13:11:45.063Z</time></trkpt><trkpt lat="45.0785517" lon="7.7694233"><ele>641.0</ele><time>2026-04-11T13:11:47.059Z</time></trkpt><trkpt lat="45.0785333" lon="7.7695317"><ele>639.0</ele><time>2026-04-11T13:11:50.062Z</time></trkpt><trkpt lat="45.0784817" lon="7.769585"><ele>637.0</ele><time>2026-04-11T13:11:52.062Z</time></trkpt><trkpt lat="45.0784" lon="7.7696383"><ele>635.0</ele><time>2026-04-11T13:11:54.063Z</time></trkpt><trkpt lat="45.0783283" lon="7.76973"><ele>633.0</ele><time>2026-04-11T13:11:56.061Z</time></trkpt><trkpt lat="45.07828" lon="7.7698617"><ele>631.0</ele><time>2026-04-11T13:11:58.063Z</time></trkpt><trkpt lat="45.078245" lon="7.7700167"><ele>627.2</ele><time>2026-04-11T13:12:00.06Z</time></trkpt><trkpt lat="45.07822" lon="7.7701717"><ele>623.4000000000001</ele><time>2026-04-11T13:12:02.061Z</time></trkpt><trkpt lat="45.0781967" lon="7.7703083"><ele>619.6</ele><time>2026-04-11T13:12:04.061Z</time></trkpt><trkpt lat="45.0781733" lon="7.7704483"><ele>615.8000000000001</ele><time>2026-04-11T13:12:06.061Z</time></trkpt><trkpt lat="45.0781533" lon="7.770605"><ele>612.0</ele><time>2026-04-11T13:12:08.063Z</time></trkpt><trkpt lat="45.0781317" lon="7.770735"><ele>611.3333333333334</ele><time>2026-04-11T13:12:10.061Z</time></trkpt><trkpt lat="45.0781367" lon="7.7708583"><ele>610.6666666666666</ele><time>2026-04-11T13:12:12.06Z</time></trkpt><trkpt lat="45.07815" lon="7.770975"><ele>610.0</ele><time>2026-04-11T13:12:14.061Z</time></trkpt><trkpt lat="45.0781517" lon="7.7710683"><ele>609.3333333333333</ele><time>2026-04-11T13:12:16.064Z</time></trkpt><trkpt lat="45.0781467" lon="7.77117"><ele>608.6666666666666</ele><time>2026-04-11T13:12:19.054Z</time></trkpt><trkpt lat="45.0781583" lon="7.771275"><ele>608.0</ele><time>2026-04-11T13:12:22.062Z</time></trkpt><trkpt lat="45.07821" lon="7.7713417"><ele>609.4</ele><time>2026-04-11T13:12:35.063Z</time></trkpt><trkpt lat="45.0782817" lon="7.7714183"><ele>610.8</ele><time>2026-04-11T13:12:37.063Z</time></trkpt><trkpt lat="45.0783767" lon="7.7715233"><ele>612.2</ele><time>2026-04-11T13:12:39.063Z</time></trkpt><trkpt lat="45.0784067" lon="7.77161"><ele>613.6</ele><time>2026-04-11T13:12:40.06Z</time></trkpt><trkpt lat="45.0784233" lon="7.7717817"><ele>615.0</ele><time>2026-04-11T13:12:42.061Z</time></trkpt><trkpt lat="45.07842" lon="7.771875"><ele>615.1428571428571</ele><time>2026-04-11T13:12:43.059Z</time></trkpt><trkpt lat="45.0784167" lon="7.7719717"><ele>615.2857142857143</ele><time>2026-04-11T13:12:44.06Z</time></trkpt><trkpt lat="45.078415" lon="7.77207"><ele>615.4285714285714</ele><time>2026-04-11T13:12:45.06Z</time></trkpt><trkpt lat="45.0784133" lon="7.7721733"><ele>615.5714285714286</ele><time>2026-04-11T13:12:46.06Z</time></trkpt><trkpt lat="45.07841" lon="7.7722683"><ele>615.7142857142858</ele><time>2026-04-11T13:12:47.059Z</time></trkpt><trkpt lat="45.0784033" lon="7.7723617"><ele>615.8571428571429</ele><time>2026-04-11T13:12:48.061Z</time></trkpt><trkpt lat="45.0783917" lon="7.7724517"><ele>616.0</ele><time>2026-04-11T13:12:49.061Z</time></trkpt><trkpt lat="45.0783767" lon="7.7725383"><ele>616.0</ele><time>2026-04-11T13:12:50.062Z</time></trkpt><trkpt lat="45.078355" lon="7.772625"><ele>616.0</ele><time>2026-04-11T13:12:51.06Z</time></trkpt><trkpt lat="45.0783083" lon="7.77279"><ele>616.0</ele><time>2026-04-11T13:12:53.058Z</time></trkpt><trkpt lat="45.07828" lon="7.772875"><ele>616.0</ele><time>2026-04-11T13:12:54.061Z</time></trkpt><trkpt lat="45.0782483" lon="7.7729567"><ele>616.0</ele><time>2026-04-11T13:12:55.061Z</time></trkpt><trkpt lat="45.0782133" lon="7.7730333"><ele>616.0</ele><time>2026-04-11T13:12:56.06Z</time></trkpt><trkpt lat="45.078125" lon="7.7731567"><ele>616.5</ele><time>2026-04-11T13:12:58.059Z</time></trkpt><trkpt lat="45.07802" lon="7.7732367"><ele>617.0</ele><time>2026-04-11T13:13:00.061Z</time></trkpt><trkpt lat="45.0779317" lon="7.7733083"><ele>617.5</ele><time>2026-04-11T13:13:02.062Z</time></trkpt><trkpt lat="45.07786" lon="7.7733717"><ele>618.0</ele><time>2026-04-11T13:13:04.061Z</time></trkpt><trkpt lat="45.0777967" lon="7.7734217"><ele>618.5</ele><time>2026-04-11T13:13:06.06Z</time></trkpt><trkpt lat="45.077745" lon="7.773475"><ele>619.0</ele><time>2026-04-11T13:13:08.06Z</time></trkpt><trkpt lat="45.0647783" lon="7.8473433"><ele>572.1666666666667</ele><time>2026-04-11T13:40:35.059Z</time></trkpt><trkpt lat="45.06475" lon="7.8474467"><ele>525.3333333333334</ele><time>2026-04-11T13:40:37.06Z</time></trkpt><trkpt lat="45.0647133" lon="7.8475533"><ele>478.5</ele><time>2026-04-11T13:40:39.063Z</time></trkpt><trkpt lat="45.0646917" lon="7.8476717"><ele>431.6666666666667</ele><time>2026-04-11T13:40:41.062Z</time></trkpt><trkpt lat="45.0646617" lon="7.8477733"><ele>384.83333333333337</ele><time>2026-04-11T13:40:43.064Z</time></trkpt><trkpt lat="45.0646217" lon="7.8478583"><ele>338.0</ele><time>2026-04-11T13:40:45.062Z</time></trkpt><trkpt lat="45.0645833" lon="7.8479483"><ele>338.0</ele><time>2026-04-11T13:40:47.061Z</time></trkpt><trkpt lat="45.0645033" lon="7.8481183"><ele>338.0</ele><time>2026-04-11T13:40:51.068Z</time></trkpt><trkpt lat="45.06446" lon="7.8482"><ele>338.0</ele><time>2026-04-11T13:40:53.064Z</time></trkpt><trkpt lat="45.0644183" lon="7.8482917"><ele>338.0</ele><time>2026-04-11T13:40:55.061Z</time></trkpt><trkpt lat="45.0643817" lon="7.84837"><ele>338.0</ele><time>2026-04-11T13:40:57.062Z</time></trkpt><trkpt lat="45.0643483" lon="7.8484583"><ele>338.0</ele><time>2026-04-11T13:40:59.062Z</time></trkpt><trkpt lat="45.06431" lon="7.848545"><ele>340.59999999999997</ele><time>2026-04-11T13:41:01.062Z</time></trkpt><trkpt lat="45.0642767" lon="7.8486367"><ele>343.2</ele><time>2026-04-11T13:41:03.066Z</time></trkpt><trkpt lat="45.0642483" lon="7.8487333"><ele>345.8</ele><time>2026-04-11T13:41:05.061Z</time></trkpt><trkpt lat="45.0642233" lon="7.848835"><ele>348.4</ele><time>2026-04-11T13:41:07.061Z</time></trkpt><trkpt lat="45.0642067" lon="7.8489383"><ele>351.0</ele><time>2026-04-11T13:41:09.063Z</time></trkpt><trkpt lat="45.064195" lon="7.8491683"><ele>351.6666666666667</ele><time>2026-04-11T13:41:14.061Z</time></trkpt><trkpt lat="45.0642133" lon="7.849295"><ele>352.3333333333333</ele><time>2026-04-11T13:41:17.06Z</time></trkpt><trkpt lat="45.0642267" lon="7.8494233"><ele>353.0</ele><time>2026-04-11T13:41:20.065Z</time></trkpt><trkpt lat="45.0642467" lon="7.8495167"><ele>353.66666666666663</ele><time>2026-04-11T13:41:22.06Z</time></trkpt><trkpt lat="45.06428" lon="7.8495967"><ele>354.3333333333333</ele><time>2026-04-11T13:41:24.062Z</time></trkpt><trkpt lat="45.0643383" lon="7.8496917"><ele>355.0</ele><time>2026-04-11T13:41:27.062Z</time></trkpt><trkpt lat="45.064405" lon="7.84977"><ele>355.0</ele><time>2026-04-11T13:41:30.061Z</time></trkpt><trkpt lat="45.06426" lon="7.84975"><ele>355.0</ele><time>2026-04-11T13:41:37.062Z</time></trkpt><trkpt lat="45.0641833" lon="7.849705"><ele>355.0</ele><time>2026-04-11T13:41:40.063Z</time></trkpt><trkpt lat="45.0640933" lon="7.849695"><ele>355.0</ele><time>2026-04-11T13:41:43.061Z</time></trkpt><trkpt lat="45.0640267" lon="7.8496617"><ele>355.0</ele><time>2026-04-11T13:41:45.065Z</time></trkpt><trkpt lat="45.0639567" lon="7.8496317"><ele>356.3333333333333</ele><time>2026-04-11T13:41:47.062Z</time></trkpt><trkpt lat="45.063885" lon="7.8496033"><ele>357.66666666666663</ele><time>2026-04-11T13:41:49.061Z</time></trkpt><trkpt lat="45.0638167" lon="7.8495883"><ele>359.0</ele><time>2026-04-11T13:41:51.063Z</time></trkpt><trkpt lat="45.0636733" lon="7.8496133"><ele>360.3333333333333</ele><time>2026-04-11T13:41:55.063Z</time></trkpt><trkpt lat="45.063605" lon="7.8496333"><ele>361.6666666666667</ele><time>2026-04-11T13:41:57.067Z</time></trkpt><trkpt lat="45.06354" lon="7.8496617"><ele>363.0</ele><time>2026-04-11T13:41:59.064Z</time></trkpt><trkpt lat="45.06348" lon="7.8496933"><ele>363.0</ele><time>2026-04-11T13:42:01.064Z</time></trkpt><trkpt lat="45.0633917" lon="7.8497333"><ele>363.0</ele><time>2026-04-11T13:42:04.062Z</time></trkpt><trkpt lat="45.0633183" lon="7.84979"><ele>363.0</ele><time>2026-04-11T13:42:07.061Z</time></trkpt><trkpt lat="45.0632533" lon="7.8498267"><ele>363.0</ele><time>2026-04-11T13:42:10.063Z</time></trkpt><trkpt lat="45.0631967" lon="7.8499033"><ele>363.0</ele><time>2026-04-11T13:42:14.062Z</time></trkpt><trkpt lat="45.0630883" lon="7.85006"><ele>363.1666666666667</ele><time>2026-04-11T13:42:21.062Z</time></trkpt><trkpt lat="45.0630433" lon="7.8501467"><ele>363.3333333333333</ele><time>2026-04-11T13:42:24.062Z</time></trkpt><trkpt lat="45.0629733" lon="7.85024"><ele>363.5</ele><time>2026-04-11T13:42:27.061Z</time></trkpt><trkpt lat="45.0629217" lon="7.85031"><ele>363.66666666666663</ele><time>2026-04-11T13:42:29.062Z</time></trkpt><trkpt lat="45.0628533" lon="7.8503717"><ele>363.8333333333333</ele><time>2026-04-11T13:42:31.062Z</time></trkpt><trkpt lat="45.0627833" lon="7.8504483"><ele>364.0</ele><time>2026-04-11T13:42:33.063Z</time></trkpt><trkpt lat="45.06271" lon="7.8505333"><ele>364.0</ele><time>2026-04-11T13:42:35.061Z</time></trkpt><trkpt lat="45.0625633" lon="7.8507333"><ele>364.0</ele><time>2026-04-11T13:42:39.063Z</time></trkpt><trkpt lat="45.0624983" lon="7.8508467"><ele>364.0</ele><time>2026-04-11T13:42:41.061Z</time></trkpt><trkpt lat="45.0624383" lon="7.8509533"><ele>364.0</ele><time>2026-04-11T13:42:43.062Z</time></trkpt><trkpt lat="45.0623767" lon="7.8510567"><ele>363.8333333333333</ele><time>2026-04-11T13:42:45.06Z</time></trkpt><trkpt lat="45.0623117" lon="7.85115"><ele>363.66666666666663</ele><time>2026-04-11T13:42:47.063Z</time></trkpt><trkpt lat="45.062245" lon="7.85123"><ele>363.5</ele><time>2026-04-11T13:42:49.062Z</time></trkpt><trkpt lat="45.0621783" lon="7.8513117"><ele>363.3333333333333</ele><time>2026-04-11T13:42:51.063Z</time></trkpt><trkpt lat="45.0621083" lon="7.85139"><ele>363.1666666666667</ele><time>2026-04-11T13:42:53.062Z</time></trkpt><trkpt lat="45.0620483" lon="7.8514567"><ele>363.0</ele><time>2026-04-11T13:42:55.061Z</time></trkpt><trkpt lat="45.061975" lon="7.851525"><ele>363.0</ele><time>2026-04-11T13:42:57.063Z</time></trkpt><trkpt lat="45.0618217" lon="7.8516817"><ele>363.0</ele><time>2026-04-11T13:43:01.061Z</time></trkpt><trkpt lat="45.06174" lon="7.851775"><ele>363.0</ele><time>2026-04-11T13:43:03.062Z</time></trkpt><trkpt lat="45.061655" lon="7.85188"><ele>363.0</ele><time>2026-04-11T13:43:05.061Z</time></trkpt><trkpt lat="45.0616083" lon="7.85194"><ele>361.71428571428567</ele><time>2026-04-11T13:43:06.064Z</time></trkpt><trkpt lat="45.0615617" lon="7.8520033"><ele>360.42857142857144</ele><time>2026-04-11T13:43:07.061Z</time></trkpt><trkpt lat="45.061515" lon="7.8520683"><ele>359.1428571428571</ele><time>2026-04-11T13:43:08.061Z</time></trkpt><trkpt lat="45.0614667" lon="7.8521367"><ele>357.85714285714283</ele><time>2026-04-11T13:43:09.06Z</time></trkpt><trkpt lat="45.061415" lon="7.8522083"><ele>356.57142857142856</ele><time>2026-04-11T13:43:10.061Z</time></trkpt><trkpt lat="45.0613633" lon="7.8522783"><ele>355.2857142857143</ele><time>2026-04-11T13:43:11.055Z</time></trkpt><trkpt lat="45.0613133" lon="7.8523483"><ele>354.0</ele><time>2026-04-11T13:43:12.062Z</time></trkpt><trkpt lat="45.061265" lon="7.8524167"><ele>354.0</ele><time>2026-04-11T13:43:13.062Z</time></trkpt><trkpt lat="45.0612183" lon="7.8524817"><ele>354.0</ele><time>2026-04-11T13:43:14.061Z</time></trkpt><trkpt lat="45.06113" lon="7.8525983"><ele>354.0</ele><time>2026-04-11T13:43:16.064Z</time></trkpt><trkpt lat="45.0610783" lon="7.8526567"><ele>354.0</ele><time>2026-04-11T13:43:17.062Z</time></trkpt><trkpt lat="45.0610267" lon="7.8527117"><ele>354.0</ele><time>2026-04-11T13:43:18.062Z</time></trkpt><trkpt lat="45.0609133" lon="7.85283"><ele>353.42857142857144</ele><time>2026-04-11T13:43:20.06Z</time></trkpt><trkpt lat="45.06086" lon="7.8528867"><ele>352.85714285714283</ele><time>2026-04-11T13:43:21.062Z</time></trkpt><trkpt lat="45.060805" lon="7.852945"><ele>352.2857142857143</ele><time>2026-04-11T13:43:22.063Z</time></trkpt><trkpt lat="45.0607483" lon="7.8530017"><ele>351.7142857142857</ele><time>2026-04-11T13:43:23.061Z</time></trkpt><trkpt lat="45.0606967" lon="7.8530567"><ele>351.1428571428571</ele><time>2026-04-11T13:43:24.063Z</time></trkpt><trkpt lat="45.0606417" lon="7.8531133"><ele>350.57142857142856</ele><time>2026-04-11T13:43:25.061Z</time></trkpt><trkpt lat="45.06059" lon="7.853165"><ele>350.0</ele><time>2026-04-11T13:43:26.06Z</time></trkpt><trkpt lat="45.0604933" lon="7.8532667"><ele>349.8</ele><time>2026-04-11T13:43:28.062Z</time></trkpt><trkpt lat="45.0604083" lon="7.8533717"><ele>349.6</ele><time>2026-04-11T13:43:30.06Z</time></trkpt><trkpt lat="45.06033" lon="7.85347"><ele>349.4</ele><time>2026-04-11T13:43:32.061Z</time></trkpt><trkpt lat="45.0602467" lon="7.853535"><ele>349.2</ele><time>2026-04-11T13:43:34.061Z</time></trkpt><trkpt lat="45.06015" lon="7.8535717"><ele>349.0</ele><time>2026-04-11T13:43:36.062Z</time></trkpt><trkpt lat="45.0600233" lon="7.8535967"><ele>348.79999999999995</ele><time>2026-04-11T13:43:38.063Z</time></trkpt><trkpt lat="45.05995" lon="7.8536133"><ele>348.59999999999997</ele><time>2026-04-11T13:43:39.066Z</time></trkpt><trkpt lat="45.05979" lon="7.8536483"><ele>348.4</ele><time>2026-04-11T13:43:41.062Z</time></trkpt><trkpt lat="45.0597067" lon="7.85367"><ele>348.2</ele><time>2026-04-11T13:43:42.06Z</time></trkpt><trkpt lat="45.0596217" lon="7.8536983"><ele>348.0</ele><time>2026-04-11T13:43:43.062Z</time></trkpt><trkpt lat="45.0595333" lon="7.8537283"><ele>348.0</ele><time>2026-04-11T13:43:44.063Z</time></trkpt><trkpt lat="45.059445" lon="7.85377"><ele>348.0</ele><time>2026-04-11T13:43:45.062Z</time></trkpt><trkpt lat="45.05936" lon="7.8538133"><ele>348.0</ele><time>2026-04-11T13:43:46.061Z</time></trkpt><trkpt lat="45.0592767" lon="7.8538617"><ele>348.0</ele><time>2026-04-11T13:43:47.059Z</time></trkpt><trkpt lat="45.059195" lon="7.853915"><ele>348.0</ele><time>2026-04-11T13:43:48.063Z</time></trkpt><trkpt lat="45.0591183" lon="7.8539733"><ele>346.3333333333333</ele><time>2026-04-11T13:43:49.064Z</time></trkpt><trkpt lat="45.0590483" lon="7.854045"><ele>344.6666666666667</ele><time>2026-04-11T13:43:50.062Z</time></trkpt><trkpt lat="45.0589783" lon="7.8541183"><ele>343.0</ele><time>2026-04-11T13:43:51.063Z</time></trkpt><trkpt lat="45.0589083" lon="7.8541917"><ele>341.33333333333337</ele><time>2026-04-11T13:43:52.062Z</time></trkpt><trkpt lat="45.05884" lon="7.8542717"><ele>339.6666666666667</ele><time>2026-04-11T13:43:53.062Z</time></trkpt><trkpt lat="45.0587667" lon="7.854355"><ele>338.0</ele><time>2026-04-11T13:43:54.062Z</time></trkpt><trkpt lat="45.0586917" lon="7.854445"><ele>338.0</ele><time>2026-04-11T13:43:55.061Z</time></trkpt><trkpt lat="45.05862" lon="7.8545433"><ele>338.0</ele><time>2026-04-11T13:43:56.06Z</time></trkpt><trkpt lat="45.0585517" lon="7.85465"><ele>338.0</ele><time>2026-04-11T13:43:57.063Z</time></trkpt><trkpt lat="45.0584933" lon="7.8547617"><ele>338.0</ele><time>2026-04-11T13:43:58.062Z</time></trkpt><trkpt lat="45.05845" lon="7.85488"><ele>338.0</ele><time>2026-04-11T13:43:59.061Z</time></trkpt><trkpt lat="45.0584083" lon="7.8550033"><ele>338.5</ele><time>2026-04-11T13:44:00.063Z</time></trkpt><trkpt lat="45.0583483" lon="7.8552533"><ele>339.0</ele><time>2026-04-11T13:44:02.063Z</time></trkpt><trkpt lat="45.0583267" lon="7.8553817"><ele>339.5</ele><time>2026-04-11T13:44:03.064Z</time></trkpt><trkpt lat="45.0583067" lon="7.8555083"><ele>340.0</ele><time>2026-04-11T13:44:04.061Z</time></trkpt><trkpt lat="45.0582917" lon="7.8556267"><ele>338.66666666666663</ele><time>2026-04-11T13:44:05.062Z</time></trkpt><trkpt lat="45.058275" lon="7.8557433"><ele>337.3333333333333</ele><time>2026-04-11T13:44:06.063Z</time></trkpt><trkpt lat="45.0582367" lon="7.8558383"><ele>336.0</ele><time>2026-04-11T13:44:07.062Z</time></trkpt><trkpt lat="45.0581817" lon="7.8559133"><ele>334.6666666666667</ele><time>2026-04-11T13:44:08.062Z</time></trkpt><trkpt lat="45.0581167" lon="7.85598"><ele>333.33333333333337</ele><time>2026-04-11T13:44:09.061Z</time></trkpt><trkpt lat="45.058045" lon="7.85604"><ele>332.0</ele><time>2026-04-11T13:44:10.059Z</time></trkpt><trkpt lat="45.0579733" lon="7.8560917"><ele>332.0</ele><time>2026-04-11T13:44:11.061Z</time></trkpt><trkpt lat="45.0579017" lon="7.8561367"><ele>332.0</ele><time>2026-04-11T13:44:12.062Z</time></trkpt><trkpt lat="45.0578233" lon="7.85618"><ele>332.0</ele><time>2026-04-11T13:44:13.061Z</time></trkpt><trkpt lat="45.0577433" lon="7.8562217"><ele>332.0</ele><time>2026-04-11T13:44:14.063Z</time></trkpt><trkpt lat="45.0576633" lon="7.8562583"><ele>332.0</ele><time>2026-04-11T13:44:15.063Z</time></trkpt><trkpt lat="45.0575833" lon="7.8563"><ele>332.0</ele><time>2026-04-11T13:44:16.061Z</time></trkpt><trkpt lat="45.0575083" lon="7.85634"><ele>332.20000000000005</ele><time>2026-04-11T13:44:17.06Z</time></trkpt><trkpt lat="45.0574317" lon="7.8563817"><ele>332.4</ele><time>2026-04-11T13:44:18.06Z</time></trkpt><trkpt lat="45.0573533" lon="7.8564217"><ele>332.6</ele><time>2026-04-11T13:44:19.061Z</time></trkpt><trkpt lat="45.0572767" lon="7.8564633"><ele>332.79999999999995</ele><time>2026-04-11T13:44:20.061Z</time></trkpt><trkpt lat="45.0572033" lon="7.8565"><ele>333.0</ele><time>2026-04-11T13:44:21.06Z</time></trkpt><trkpt lat="45.0570667" lon="7.85658"><ele>333.0</ele><time>2026-04-11T13:44:23.06Z</time></trkpt><trkpt lat="45.057" lon="7.8566183"><ele>333.0</ele><time>2026-04-11T13:44:24.062Z</time></trkpt><trkpt lat="45.0569383" lon="7.8566567"><ele>333.0</ele><time>2026-04-11T13:44:25.063Z</time></trkpt><trkpt lat="45.0568217" lon="7.856735"><ele>333.0</ele><time>2026-04-11T13:44:27.063Z</time></trkpt><trkpt lat="45.0567583" lon="7.85677"><ele>333.0</ele><time>2026-04-11T13:44:28.06Z</time></trkpt><trkpt lat="45.0566967" lon="7.8567983"><ele>333.0</ele><time>2026-04-11T13:44:29.06Z</time></trkpt><trkpt lat="45.0566367" lon="7.85683"><ele>333.0</ele><time>2026-04-11T13:44:30.062Z</time></trkpt><trkpt lat="45.056575" lon="7.8568667"><ele>333.0</ele><time>2026-04-11T13:44:31.061Z</time></trkpt><trkpt lat="45.05647" lon="7.85695"><ele>333.0</ele><time>2026-04-11T13:44:33.062Z</time></trkpt><trkpt lat="45.05637" lon="7.8570517"><ele>333.0</ele><time>2026-04-11T13:44:35.062Z</time></trkpt><trkpt lat="45.0562817" lon="7.857165"><ele>333.0</ele><time>2026-04-11T13:44:37.06Z</time></trkpt><trkpt lat="45.0561967" lon="7.857285"><ele>333.0</ele><time>2026-04-11T13:44:39.063Z</time></trkpt><trkpt lat="45.0561033" lon="7.8574017"><ele>333.0</ele><time>2026-04-11T13:44:41.058Z</time></trkpt><trkpt lat="45.05605" lon="7.85745"><ele>333.0</ele><time>2026-04-11T13:44:42.06Z</time></trkpt><trkpt lat="45.0559333" lon="7.85753"><ele>333.0</ele><time>2026-04-11T13:44:44.061Z</time></trkpt><trkpt lat="45.055815" lon="7.857595"><ele>333.0</ele><time>2026-04-11T13:44:46.062Z</time></trkpt><trkpt lat="45.055755" lon="7.8576267"><ele>334.75</ele><time>2026-04-11T13:44:47.059Z</time></trkpt><trkpt lat="45.05564" lon="7.8576967"><ele>336.5</ele><time>2026-04-11T13:44:49.063Z</time></trkpt><trkpt lat="45.0555283" lon="7.8577667"><ele>338.25</ele><time>2026-04-11T13:44:51.063Z</time></trkpt><trkpt lat="45.0554217" lon="7.857845"><ele>340.0</ele><time>2026-04-11T13:44:53.062Z</time></trkpt><trkpt lat="45.055325" lon="7.8579217"><ele>340.0</ele><time>2026-04-11T13:44:55.063Z</time></trkpt><trkpt lat="45.0552283" lon="7.857985"><ele>340.0</ele><time>2026-04-11T13:44:57.06Z</time></trkpt><trkpt lat="45.0551283" lon="7.8579917"><ele>340.0</ele><time>2026-04-11T13:44:59.062Z</time></trkpt><trkpt lat="45.0550233" lon="7.8579617"><ele>340.0</ele><time>2026-04-11T13:45:01.062Z</time></trkpt><trkpt lat="45.0549233" lon="7.8579467"><ele>340.0</ele><time>2026-04-11T13:45:03.062Z</time></trkpt><trkpt lat="45.0547283" lon="7.8579283"><ele>340.8333333333333</ele><time>2026-04-11T13:45:07.061Z</time></trkpt><trkpt lat="45.0546367" lon="7.8579567"><ele>341.66666666666663</ele><time>2026-04-11T13:45:09.061Z</time></trkpt><trkpt lat="45.0545733" lon="7.8580467"><ele>342.5</ele><time>2026-04-11T13:45:11.061Z</time></trkpt><trkpt lat="45.054545" lon="7.85817"><ele>343.3333333333333</ele><time>2026-04-11T13:45:13.063Z</time></trkpt><trkpt lat="45.0545417" lon="7.8582983"><ele>344.1666666666667</ele><time>2026-04-11T13:45:15.061Z</time></trkpt><trkpt lat="45.0545383" lon="7.8584117"><ele>345.0</ele><time>2026-04-11T13:45:17.059Z</time></trkpt><trkpt lat="45.054515" lon="7.8585183"><ele>345.0</ele><time>2026-04-11T13:45:19.061Z</time></trkpt><trkpt lat="45.05449" lon="7.8586083"><ele>345.0</ele><time>2026-04-11T13:45:21.062Z</time></trkpt><trkpt lat="45.0544433" lon="7.858675"><ele>345.0</ele><time>2026-04-11T13:45:23.062Z</time></trkpt><trkpt lat="45.0543683" lon="7.8587167"><ele>345.0</ele><time>2026-04-11T13:45:25.061Z</time></trkpt><trkpt lat="45.0542067" lon="7.85875"><ele>345.0</ele><time>2026-04-11T13:45:29.06Z</time></trkpt><trkpt lat="45.0541317" lon="7.8587717"><ele>346.3333333333333</ele><time>2026-04-11T13:45:31.063Z</time></trkpt><trkpt lat="45.0540617" lon="7.8588"><ele>347.6666666666667</ele><time>2026-04-11T13:45:33.062Z</time></trkpt><trkpt lat="45.0539667" lon="7.8588417"><ele>349.0</ele><time>2026-04-11T13:45:36.06Z</time></trkpt><trkpt lat="45.0539" lon="7.8588783"><ele>350.33333333333337</ele><time>2026-04-11T13:45:38.058Z</time></trkpt><trkpt lat="45.0538233" lon="7.85893"><ele>351.6666666666667</ele><time>2026-04-11T13:45:40.062Z</time></trkpt><trkpt lat="45.0537317" lon="7.8589967"><ele>353.0</ele><time>2026-04-11T13:45:42.062Z</time></trkpt><trkpt lat="45.0536383" lon="7.8590783"><ele>353.0</ele><time>2026-04-11T13:45:44.062Z</time></trkpt><trkpt lat="45.05355" lon="7.8591633"><ele>353.0</ele><time>2026-04-11T13:45:46.061Z</time></trkpt><trkpt lat="45.05336" lon="7.8593483"><ele>353.0</ele><time>2026-04-11T13:45:50.06Z</time></trkpt><trkpt lat="45.053265" lon="7.8594567"><ele>353.0</ele><time>2026-04-11T13:45:52.061Z</time></trkpt><trkpt lat="45.0531717" lon="7.8595733"><ele>353.0</ele><time>2026-04-11T13:45:54.061Z</time></trkpt><trkpt lat="45.0530833" lon="7.8596683"><ele>353.0</ele><time>2026-04-11T13:45:56.062Z</time></trkpt><trkpt lat="45.0529917" lon="7.859715"><ele>353.0</ele><time>2026-04-11T13:45:58.061Z</time></trkpt><trkpt lat="45.0529083" lon="7.859675"><ele>353.0</ele><time>2026-04-11T13:46:00.062Z</time></trkpt><trkpt lat="45.0528367" lon="7.859645"><ele>353.0</ele><time>2026-04-11T13:46:02.063Z</time></trkpt><trkpt lat="45.0527733" lon="7.859625"><ele>353.0</ele><time>2026-04-11T13:46:04.062Z</time></trkpt><trkpt lat="45.05269" lon="7.859635"><ele>353.0</ele><time>2026-04-11T13:46:07.063Z</time></trkpt><trkpt lat="45.0525383" lon="7.859755"><ele>353.0</ele><time>2026-04-11T13:46:13.06Z</time></trkpt><trkpt lat="45.0524983" lon="7.85984"><ele>353.0</ele><time>2026-04-11T13:46:15.062Z</time></trkpt><trkpt lat="45.05245" lon="7.8599567"><ele>354.0</ele><time>2026-04-11T13:46:17.063Z</time></trkpt><trkpt lat="45.0524017" lon="7.8600867"><ele>355.0</ele><time>2026-04-11T13:46:19.062Z</time></trkpt><trkpt lat="45.0523667" lon="7.8601667"><ele>356.0</ele><time>2026-04-11T13:46:20.061Z</time></trkpt><trkpt lat="45.0523083" lon="7.860325"><ele>357.0</ele><time>2026-04-11T13:46:22.058Z</time></trkpt><trkpt lat="45.05228" lon="7.8604067"><ele>358.0</ele><time>2026-04-11T13:46:23.061Z</time></trkpt><trkpt lat="45.052235" lon="7.86057"><ele>358.0</ele><time>2026-04-11T13:46:25.06Z</time></trkpt><trkpt lat="45.0522183" lon="7.8606633"><ele>358.0</ele><time>2026-04-11T13:46:26.059Z</time></trkpt><trkpt lat="45.0522067" lon="7.8607567"><ele>358.0</ele><time>2026-04-11T13:46:27.063Z</time></trkpt><trkpt lat="45.0522017" lon="7.8608533"><ele>358.0</ele><time>2026-04-11T13:46:28.061Z</time></trkpt><trkpt lat="45.0521683" lon="7.8610383"><ele>358.0</ele><time>2026-04-11T13:46:30.061Z</time></trkpt><trkpt lat="45.0521467" lon="7.86113"><ele>358.0</ele><time>2026-04-11T13:46:31.063Z</time></trkpt><trkpt lat="45.0521033" lon="7.8612033"><ele>357.4</ele><time>2026-04-11T13:46:32.063Z</time></trkpt><trkpt lat="45.0520567" lon="7.8612717"><ele>356.79999999999995</ele><time>2026-04-11T13:46:33.064Z</time></trkpt><trkpt lat="45.0520067" lon="7.8613317"><ele>356.2</ele><time>2026-04-11T13:46:34.064Z</time></trkpt><trkpt lat="45.0519183" lon="7.861455"><ele>355.6</ele><time>2026-04-11T13:46:36.062Z</time></trkpt><trkpt lat="45.0518333" lon="7.8615717"><ele>355.0</ele><time>2026-04-11T13:46:38.061Z</time></trkpt><trkpt lat="45.0517517" lon="7.8616717"><ele>355.0</ele><time>2026-04-11T13:46:40.06Z</time></trkpt><trkpt lat="45.0516567" lon="7.8617317"><ele>355.0</ele><time>2026-04-11T13:46:42.065Z</time></trkpt><trkpt lat="45.05156" lon="7.8617017"><ele>355.0</ele><time>2026-04-11T13:46:44.062Z</time></trkpt><trkpt lat="45.0514417" lon="7.8616833"><ele>355.0</ele><time>2026-04-11T13:46:46.063Z</time></trkpt><trkpt lat="45.05137" lon="7.8616783"><ele>355.0</ele><time>2026-04-11T13:46:47.064Z</time></trkpt><trkpt lat="45.0512917" lon="7.8616683"><ele>353.25</ele><time>2026-04-11T13:46:48.064Z</time></trkpt><trkpt lat="45.05121" lon="7.8616467"><ele>351.5</ele><time>2026-04-11T13:46:49.064Z</time></trkpt><trkpt lat="45.0510317" lon="7.8615883"><ele>349.75</ele><time>2026-04-11T13:46:51.063Z</time></trkpt><trkpt lat="45.050945" lon="7.861555"><ele>348.0</ele><time>2026-04-11T13:46:52.06Z</time></trkpt><trkpt lat="45.050855" lon="7.8615183"><ele>346.79999999999995</ele><time>2026-04-11T13:46:53.063Z</time></trkpt><trkpt lat="45.050765" lon="7.8614783"><ele>345.6</ele><time>2026-04-11T13:46:54.061Z</time></trkpt><trkpt lat="45.05067" lon="7.8614283"><ele>344.4</ele><time>2026-04-11T13:46:55.062Z</time></trkpt><trkpt lat="45.0505767" lon="7.86137"><ele>343.20000000000005</ele><time>2026-04-11T13:46:56.061Z</time></trkpt><trkpt lat="45.0504883" lon="7.8613067"><ele>342.0</ele><time>2026-04-11T13:46:57.065Z</time></trkpt><trkpt lat="45.0503983" lon="7.86125"><ele>342.0</ele><time>2026-04-11T13:46:58.06Z</time></trkpt><trkpt lat="45.0503033" lon="7.8612083"><ele>342.0</ele><time>2026-04-11T13:46:59.059Z</time></trkpt><trkpt lat="45.0502067" lon="7.8611817"><ele>342.0</ele><time>2026-04-11T13:47:00.06Z</time></trkpt><trkpt lat="45.0501083" lon="7.8611817"><ele>342.0</ele><time>2026-04-11T13:47:01.06Z</time></trkpt><trkpt lat="45.0500183" lon="7.861215"><ele>342.0</ele><time>2026-04-11T13:47:02.061Z</time></trkpt><trkpt lat="45.0499383" lon="7.8612783"><ele>342.1666666666667</ele><time>2026-04-11T13:47:03.06Z</time></trkpt><trkpt lat="45.0498667" lon="7.86135"><ele>342.3333333333333</ele><time>2026-04-11T13:47:04.06Z</time></trkpt><trkpt lat="45.0497933" lon="7.861425"><ele>342.5</ele><time>2026-04-11T13:47:05.06Z</time></trkpt><trkpt lat="45.0497217" lon="7.8614967"><ele>342.66666666666663</ele><time>2026-04-11T13:47:06.06Z</time></trkpt><trkpt lat="45.0496467" lon="7.8615617"><ele>342.8333333333333</ele><time>2026-04-11T13:47:07.064Z</time></trkpt><trkpt lat="45.0495683" lon="7.8616233"><ele>343.0</ele><time>2026-04-11T13:47:08.06Z</time></trkpt><trkpt lat="45.0494933" lon="7.8616833"><ele>343.0</ele><time>2026-04-11T13:47:09.064Z</time></trkpt><trkpt lat="45.0494183" lon="7.86174"><ele>343.0</ele><time>2026-04-11T13:47:10.061Z</time></trkpt><trkpt lat="45.0492783" lon="7.8618533"><ele>343.0</ele><time>2026-04-11T13:47:12.06Z</time></trkpt><trkpt lat="45.0492133" lon="7.86191"><ele>343.0</ele><time>2026-04-11T13:47:13.059Z</time></trkpt><trkpt lat="45.04915" lon="7.8619633"><ele>343.0</ele><time>2026-04-11T13:47:14.061Z</time></trkpt><trkpt lat="45.0490917" lon="7.86202"><ele>342.42857142857144</ele><time>2026-04-11T13:47:15.062Z</time></trkpt><trkpt lat="45.049035" lon="7.8620833"><ele>341.8571428571429</ele><time>2026-04-11T13:47:16.061Z</time></trkpt><trkpt lat="45.0489767" lon="7.8621467"><ele>341.2857142857143</ele><time>2026-04-11T13:47:17.06Z</time></trkpt><trkpt lat="45.0489183" lon="7.86221"><ele>340.7142857142857</ele><time>2026-04-11T13:47:18.06Z</time></trkpt><trkpt lat="45.0488583" lon="7.8622717"><ele>340.14285714285717</ele><time>2026-04-11T13:47:19.06Z</time></trkpt><trkpt lat="45.0487967" lon="7.8623333"><ele>339.57142857142856</ele><time>2026-04-11T13:47:20.062Z</time></trkpt><trkpt lat="45.0487283" lon="7.8623883"><ele>339.0</ele><time>2026-04-11T13:47:21.061Z</time></trkpt><trkpt lat="45.0486533" lon="7.8624333"><ele>339.0</ele><time>2026-04-11T13:47:22.061Z</time></trkpt><trkpt lat="45.0485717" lon="7.8624733"><ele>339.0</ele><time>2026-04-11T13:47:23.062Z</time></trkpt><trkpt lat="45.0484883" lon="7.8625133"><ele>339.0</ele><time>2026-04-11T13:47:24.061Z</time></trkpt><trkpt lat="45.0484" lon="7.8625517"><ele>339.0</ele><time>2026-04-11T13:47:25.065Z</time></trkpt><trkpt lat="45.04831" lon="7.8625933"><ele>339.0</ele><time>2026-04-11T13:47:26.06Z</time></trkpt><trkpt lat="45.0482167" lon="7.8626367"><ele>338.0</ele><time>2026-04-11T13:47:27.061Z</time></trkpt><trkpt lat="45.048125" lon="7.86269"><ele>337.0</ele><time>2026-04-11T13:47:28.061Z</time></trkpt><trkpt lat="45.0480367" lon="7.862745"><ele>336.0</ele><time>2026-04-11T13:47:29.061Z</time></trkpt><trkpt lat="45.047945" lon="7.8627967"><ele>335.0</ele><time>2026-04-11T13:47:30.061Z</time></trkpt><trkpt lat="45.0478583" lon="7.8628583"><ele>334.0</ele><time>2026-04-11T13:47:31.062Z</time></trkpt><trkpt lat="45.0476783" lon="7.862985"><ele>334.0</ele><time>2026-04-11T13:47:33.062Z</time></trkpt><trkpt lat="45.0476" lon="7.8630567"><ele>334.0</ele><time>2026-04-11T13:47:34.061Z</time></trkpt><trkpt lat="45.0475233" lon="7.8631367"><ele>334.0</ele><time>2026-04-11T13:47:35.06Z</time></trkpt><trkpt lat="45.0474567" lon="7.863215"><ele>334.0</ele><time>2026-04-11T13:47:36.06Z</time></trkpt><trkpt lat="45.047395" lon="7.8632917"><ele>334.0</ele><time>2026-04-11T13:47:37.058Z</time></trkpt><trkpt lat="45.04734" lon="7.8633683"><ele>334.0</ele><time>2026-04-11T13:47:38.061Z</time></trkpt><trkpt lat="45.0472933" lon="7.8634533"><ele>334.2857142857143</ele><time>2026-04-11T13:47:39.061Z</time></trkpt><trkpt lat="45.047255" lon="7.86354"><ele>334.57142857142856</ele><time>2026-04-11T13:47:40.062Z</time></trkpt><trkpt lat="45.0472217" lon="7.8636267"><ele>334.8571428571429</ele><time>2026-04-11T13:47:41.059Z</time></trkpt><trkpt lat="45.047195" lon="7.8637167"><ele>335.1428571428571</ele><time>2026-04-11T13:47:42.061Z</time></trkpt><trkpt lat="45.04717" lon="7.8638033"><ele>335.42857142857144</ele><time>2026-04-11T13:47:43.061Z</time></trkpt><trkpt lat="45.0471483" lon="7.8638883"><ele>335.7142857142857</ele><time>2026-04-11T13:47:44.058Z</time></trkpt><trkpt lat="45.0471217" lon="7.86397"><ele>336.0</ele><time>2026-04-11T13:47:45.061Z</time></trkpt><trkpt lat="45.0470917" lon="7.8640533"><ele>336.0</ele><time>2026-04-11T13:47:46.06Z</time></trkpt><trkpt lat="45.0470283" lon="7.8641983"><ele>336.0</ele><time>2026-04-11T13:47:48.06Z</time></trkpt><trkpt lat="45.0469667" lon="7.8643283"><ele>336.0</ele><time>2026-04-11T13:47:50.06Z</time></trkpt><trkpt lat="45.0469067" lon="7.86444"><ele>336.0</ele><time>2026-04-11T13:47:52.058Z</time></trkpt><trkpt lat="45.0468017" lon="7.8646417"><ele>336.5</ele><time>2026-04-11T13:47:56.059Z</time></trkpt><trkpt lat="45.0467533" lon="7.864725"><ele>337.0</ele><time>2026-04-11T13:47:58.06Z</time></trkpt><trkpt lat="45.0467033" lon="7.8648133"><ele>337.5</ele><time>2026-04-11T13:48:00.061Z</time></trkpt><trkpt lat="45.04665" lon="7.8649067"><ele>338.0</ele><time>2026-04-11T13:48:02.061Z</time></trkpt><trkpt lat="45.0465867" lon="7.8650033"><ele>338.5</ele><time>2026-04-11T13:48:04.058Z</time></trkpt><trkpt lat="45.0465083" lon="7.865105"><ele>339.0</ele><time>2026-04-11T13:48:06.062Z</time></trkpt><trkpt lat="45.046425" lon="7.865215"><ele>340.0</ele><time>2026-04-11T13:48:08.06Z</time></trkpt><trkpt lat="45.0463333" lon="7.8653133"><ele>341.0</ele><time>2026-04-11T13:48:10.059Z</time></trkpt><trkpt lat="45.0462367" lon="7.8654"><ele>342.0</ele><time>2026-04-11T13:48:12.06Z</time></trkpt><trkpt lat="45.0461517" lon="7.8654833"><ele>343.0</ele><time>2026-04-11T13:48:14.061Z</time></trkpt><trkpt lat="45.046045" lon="7.8656233"><ele>343.0</ele><time>2026-04-11T13:48:18.061Z</time></trkpt><trkpt lat="45.0459833" lon="7.865725"><ele>343.0</ele><time>2026-04-11T13:48:20.06Z</time></trkpt><trkpt lat="45.04591" lon="7.8658217"><ele>343.0</ele><time>2026-04-11T13:48:22.06Z</time></trkpt><trkpt lat="45.0458367" lon="7.8659117"><ele>343.0</ele><time>2026-04-11T13:48:24.059Z</time></trkpt><trkpt lat="45.045755" lon="7.8659817"><ele>343.0</ele><time>2026-04-11T13:48:26.06Z</time></trkpt><trkpt lat="45.0456717" lon="7.8660217"><ele>343.2</ele><time>2026-04-11T13:48:28.061Z</time></trkpt><trkpt lat="45.0455883" lon="7.8660533"><ele>343.4</ele><time>2026-04-11T13:48:30.06Z</time></trkpt><trkpt lat="45.0455067" lon="7.866065"><ele>343.59999999999997</ele><time>2026-04-11T13:48:32.062Z</time></trkpt><trkpt lat="45.0454317" lon="7.8660567"><ele>343.79999999999995</ele><time>2026-04-11T13:48:34.055Z</time></trkpt><trkpt lat="45.045355" lon="7.8660217"><ele>344.0</ele><time>2026-04-11T13:48:36.06Z</time></trkpt><trkpt lat="45.04519" lon="7.8658833"><ele>344.0</ele><time>2026-04-11T13:48:40.06Z</time></trkpt><trkpt lat="45.0450917" lon="7.8657867"><ele>344.0</ele><time>2026-04-11T13:48:42.064Z</time></trkpt><trkpt lat="45.0450283" lon="7.8657467"><ele>344.0</ele><time>2026-04-11T13:48:43.061Z</time></trkpt><trkpt lat="45.0449667" lon="7.8657267"><ele>344.0</ele><time>2026-04-11T13:48:44.059Z</time></trkpt><trkpt lat="45.0448983" lon="7.8657183"><ele>344.0</ele><time>2026-04-11T13:48:45.061Z</time></trkpt><trkpt lat="45.04482" lon="7.8657167"><ele>344.0</ele><time>2026-04-11T13:48:46.06Z</time></trkpt><trkpt lat="45.0447333" lon="7.8657067"><ele>341.6</ele><time>2026-04-11T13:48:47.061Z</time></trkpt><trkpt lat="45.0446433" lon="7.865685"><ele>339.2</ele><time>2026-04-11T13:48:48.058Z</time></trkpt><trkpt lat="45.04455" lon="7.865655"><ele>336.8</ele><time>2026-04-11T13:48:49.061Z</time></trkpt><trkpt lat="45.0444567" lon="7.86561"><ele>334.40000000000003</ele><time>2026-04-11T13:48:50.059Z</time></trkpt><trkpt lat="45.044355" lon="7.8655633"><ele>332.0</ele><time>2026-04-11T13:48:51.061Z</time></trkpt><trkpt lat="45.0442517" lon="7.8655233"><ele>332.0</ele><time>2026-04-11T13:48:52.059Z</time></trkpt><trkpt lat="45.0441433" lon="7.8655067"><ele>332.0</ele><time>2026-04-11T13:48:53.062Z</time></trkpt><trkpt lat="45.0440333" lon="7.8655183"><ele>332.0</ele><time>2026-04-11T13:48:54.059Z</time></trkpt><trkpt lat="45.0439233" lon="7.86557"><ele>332.0</ele><time>2026-04-11T13:48:55.059Z</time></trkpt><trkpt lat="45.0438183" lon="7.8656583"><ele>329.0</ele><time>2026-04-11T13:48:56.06Z</time></trkpt><trkpt lat="45.0437183" lon="7.86577"><ele>326.0</ele><time>2026-04-11T13:48:57.061Z</time></trkpt><trkpt lat="45.0435133" lon="7.866015"><ele>323.0</ele><time>2026-04-11T13:48:59.058Z</time></trkpt><trkpt lat="45.0433983" lon="7.8661333"><ele>320.75</ele><time>2026-04-11T13:49:00.059Z</time></trkpt><trkpt lat="45.043275" lon="7.86624"><ele>318.5</ele><time>2026-04-11T13:49:01.063Z</time></trkpt><trkpt lat="45.0431417" lon="7.8663233"><ele>316.25</ele><time>2026-04-11T13:49:02.057Z</time></trkpt><trkpt lat="45.0430017" lon="7.866385"><ele>314.0</ele><time>2026-04-11T13:49:03.061Z</time></trkpt><trkpt lat="45.0428683" lon="7.8664367"><ele>314.0</ele><time>2026-04-11T13:49:04.06Z</time></trkpt><trkpt lat="45.042745" lon="7.8664783"><ele>314.0</ele><time>2026-04-11T13:49:05.06Z</time></trkpt><trkpt lat="45.0426267" lon="7.8664967"><ele>314.0</ele><time>2026-04-11T13:49:06.059Z</time></trkpt><trkpt lat="45.042515" lon="7.8664867"><ele>314.0</ele><time>2026-04-11T13:49:07.06Z</time></trkpt><trkpt lat="45.0424167" lon="7.8664383"><ele>312.59999999999997</ele><time>2026-04-11T13:49:08.059Z</time></trkpt><trkpt lat="45.0423333" lon="7.86636"><ele>311.2</ele><time>2026-04-11T13:49:09.06Z</time></trkpt><trkpt lat="45.0422617" lon="7.866265"><ele>309.79999999999995</ele><time>2026-04-11T13:49:10.061Z</time></trkpt><trkpt lat="45.042195" lon="7.866175"><ele>308.4</ele><time>2026-04-11T13:49:11.059Z</time></trkpt><trkpt lat="45.0421233" lon="7.866095"><ele>307.0</ele><time>2026-04-11T13:49:12.064Z</time></trkpt><trkpt lat="45.0420517" lon="7.8660167"><ele>306.66666666666663</ele><time>2026-04-11T13:49:13.06Z</time></trkpt><trkpt lat="45.041985" lon="7.8659367"><ele>306.3333333333333</ele><time>2026-04-11T13:49:14.062Z</time></trkpt><trkpt lat="45.0419183" lon="7.8658533"><ele>306.0</ele><time>2026-04-11T13:49:15.062Z</time></trkpt><trkpt lat="45.0418467" lon="7.865775"><ele>305.6666666666667</ele><time>2026-04-11T13:49:16.061Z</time></trkpt><trkpt lat="45.0417733" lon="7.8657067"><ele>305.33333333333337</ele><time>2026-04-11T13:49:17.059Z</time></trkpt><trkpt lat="45.0416933" lon="7.86565"><ele>305.0</ele><time>2026-04-11T13:49:18.058Z</time></trkpt><trkpt lat="45.0415117" lon="7.8655633"><ele>305.0</ele><time>2026-04-11T13:49:20.06Z</time></trkpt><trkpt lat="45.041405" lon="7.865545"><ele>305.0</ele><time>2026-04-11T13:49:21.061Z</time></trkpt><trkpt lat="45.0412967" lon="7.8655417"><ele>305.0</ele><time>2026-04-11T13:49:22.061Z</time></trkpt><trkpt lat="45.0411783" lon="7.8655433"><ele>305.0</ele><time>2026-04-11T13:49:23.06Z</time></trkpt><trkpt lat="45.0410617" lon="7.8655583"><ele>305.0</ele><time>2026-04-11T13:49:24.06Z</time></trkpt><trkpt lat="45.040955" lon="7.8655783"><ele>305.0</ele><time>2026-04-11T13:49:25.061Z</time></trkpt><trkpt lat="45.04086" lon="7.86559"><ele>305.0</ele><time>2026-04-11T13:49:26.058Z</time></trkpt><trkpt lat="45.0407833" lon="7.8655983"><ele>305.0</ele><time>2026-04-11T13:49:27.06Z</time></trkpt><trkpt lat="45.0407183" lon="7.8656133"><ele>305.0</ele><time>2026-04-11T13:49:28.062Z</time></trkpt><trkpt lat="45.0406533" lon="7.8656417"><ele>305.0</ele><time>2026-04-11T13:49:29.06Z</time></trkpt><trkpt lat="45.0405867" lon="7.8656967"><ele>303.4</ele><time>2026-04-11T13:49:30.061Z</time></trkpt><trkpt lat="45.0405183" lon="7.8657633"><ele>301.8</ele><time>2026-04-11T13:49:31.06Z</time></trkpt><trkpt lat="45.040445" lon="7.8658333"><ele>300.2</ele><time>2026-04-11T13:49:32.062Z</time></trkpt><trkpt lat="45.0403667" lon="7.8659017"><ele>298.6</ele><time>2026-04-11T13:49:33.063Z</time></trkpt><trkpt lat="45.0402917" lon="7.8659767"><ele>297.0</ele><time>2026-04-11T13:49:34.06Z</time></trkpt><trkpt lat="45.0402117" lon="7.8660483"><ele>297.0</ele><time>2026-04-11T13:49:35.06Z</time></trkpt><trkpt lat="45.04013" lon="7.8661133"><ele>297.0</ele><time>2026-04-11T13:49:36.059Z</time></trkpt><trkpt lat="45.040045" lon="7.8661783"><ele>297.0</ele><time>2026-04-11T13:49:37.061Z</time></trkpt><trkpt lat="45.03996" lon="7.86625"><ele>297.0</ele><time>2026-04-11T13:49:38.061Z</time></trkpt><trkpt lat="45.039875" lon="7.8663283"><ele>297.0</ele><time>2026-04-11T13:49:39.062Z</time></trkpt><trkpt lat="45.0397167" lon="7.866485"><ele>296.4</ele><time>2026-04-11T13:49:41.059Z</time></trkpt><trkpt lat="45.039655" lon="7.8665533"><ele>295.79999999999995</ele><time>2026-04-11T13:49:42.059Z</time></trkpt><trkpt lat="45.039545" lon="7.8666117"><ele>295.2</ele><time>2026-04-11T13:49:44.061Z</time></trkpt><trkpt lat="45.03945" lon="7.86655"><ele>294.59999999999997</ele><time>2026-04-11T13:49:46.062Z</time></trkpt><trkpt lat="45.0393517" lon="7.8665317"><ele>294.0</ele><time>2026-04-11T13:49:48.061Z</time></trkpt><trkpt lat="45.03927" lon="7.8665467"><ele>294.0</ele><time>2026-04-11T13:49:50.062Z</time></trkpt><trkpt lat="45.0392017" lon="7.8665667"><ele>294.0</ele><time>2026-04-11T13:49:52.059Z</time></trkpt><trkpt lat="45.0391183" lon="7.8666017"><ele>294.0</ele><time>2026-04-11T13:49:54.06Z</time></trkpt><trkpt lat="45.0390483" lon="7.86662"><ele>294.0</ele><time>2026-04-11T13:49:56.064Z</time></trkpt><trkpt lat="45.0389783" lon="7.866655"><ele>294.0</ele><time>2026-04-11T13:49:58.061Z</time></trkpt><trkpt lat="45.0388933" lon="7.8666883"><ele>294.0</ele><time>2026-04-11T13:50:01.062Z</time></trkpt><trkpt lat="45.0387317" lon="7.86675"><ele>295.0</ele><time>2026-04-11T13:50:07.07Z</time></trkpt><trkpt lat="45.0386383" lon="7.8667517"><ele>296.0</ele><time>2026-04-11T13:50:10.061Z</time></trkpt><trkpt lat="45.0385767" lon="7.86673"><ele>297.0</ele><time>2026-04-11T13:50:12.059Z</time></trkpt><trkpt lat="45.0385083" lon="7.8667033"><ele>298.0</ele><time>2026-04-11T13:50:14.059Z</time></trkpt><trkpt lat="45.038435" lon="7.8666767"><ele>299.0</ele><time>2026-04-11T13:50:16.061Z</time></trkpt><trkpt lat="45.0383517" lon="7.8666383"><ele>300.0</ele><time>2026-04-11T13:50:18.061Z</time></trkpt><trkpt lat="45.0382783" lon="7.86661"><ele>300.6</ele><time>2026-04-11T13:50:20.062Z</time></trkpt><trkpt lat="45.0381933" lon="7.8665783"><ele>301.2</ele><time>2026-04-11T13:50:22.062Z</time></trkpt><trkpt lat="45.0380117" lon="7.8665383"><ele>301.8</ele><time>2026-04-11T13:50:27.065Z</time></trkpt><trkpt lat="45.037935" lon="7.8665183"><ele>302.4</ele><time>2026-04-11T13:50:29.06Z</time></trkpt><trkpt lat="45.03784" lon="7.8665067"><ele>303.0</ele><time>2026-04-11T13:50:31.062Z</time></trkpt><trkpt lat="45.0377483" lon="7.8664967"><ele>303.0</ele><time>2026-04-11T13:50:33.059Z</time></trkpt><trkpt lat="45.0376667" lon="7.8664783"><ele>303.0</ele><time>2026-04-11T13:50:35.062Z</time></trkpt><trkpt lat="45.037585" lon="7.8664617"><ele>303.0</ele><time>2026-04-11T13:50:37.062Z</time></trkpt><trkpt lat="45.0375033" lon="7.8664583"><ele>303.0</ele><time>2026-04-11T13:50:39.061Z</time></trkpt><trkpt lat="45.0374117" lon="7.86647"><ele>303.0</ele><time>2026-04-11T13:50:41.059Z</time></trkpt><trkpt lat="45.0373133" lon="7.86649"><ele>303.0</ele><time>2026-04-11T13:50:43.059Z</time></trkpt><trkpt lat="45.03712" lon="7.866545"><ele>300.2</ele><time>2026-04-11T13:50:47.061Z</time></trkpt><trkpt lat="45.0370483" lon="7.86661"><ele>297.4</ele><time>2026-04-11T13:50:49.06Z</time></trkpt><trkpt lat="45.0370283" lon="7.86676"><ele>294.59999999999997</ele><time>2026-04-11T13:50:51.064Z</time></trkpt><trkpt lat="45.0370567" lon="7.8669283"><ele>291.8</ele><time>2026-04-11T13:50:53.06Z</time></trkpt><trkpt lat="45.037095" lon="7.8670933"><ele>289.0</ele><time>2026-04-11T13:50:55.059Z</time></trkpt><trkpt lat="45.0371383" lon="7.8672567"><ele>288.5</ele><time>2026-04-11T13:50:57.063Z</time></trkpt><trkpt lat="45.037175" lon="7.8674233"><ele>288.0</ele><time>2026-04-11T13:50:59.06Z</time></trkpt><trkpt lat="45.03722" lon="7.8675867"><ele>287.5</ele><time>2026-04-11T13:51:01.061Z</time></trkpt><trkpt lat="45.0372467" lon="7.8677517"><ele>287.0</ele><time>2026-04-11T13:51:03.061Z</time></trkpt><trkpt lat="45.0372867" lon="7.8679133"><ele>286.0</ele><time>2026-04-11T13:51:05.06Z</time></trkpt><trkpt lat="45.037355" lon="7.86814"><ele>285.0</ele><time>2026-04-11T13:51:09.06Z</time></trkpt><trkpt lat="45.0373133" lon="7.8682517"><ele>284.0</ele><time>2026-04-11T13:51:29.063Z</time></trkpt><trkpt lat="45.037345" lon="7.8685017"><ele>283.0</ele><time>2026-04-11T13:51:33.06Z</time></trkpt><trkpt lat="45.0373433" lon="7.8686667"><ele>282.66666666666663</ele><time>2026-04-11T13:51:35.063Z</time></trkpt><trkpt lat="45.0373383" lon="7.8687583"><ele>282.3333333333333</ele><time>2026-04-11T13:51:36.061Z</time></trkpt><trkpt lat="45.0373333" lon="7.8688483"><ele>282.0</ele><time>2026-04-11T13:51:37.06Z</time></trkpt><trkpt lat="45.03731" lon="7.869"><ele>281.6666666666667</ele><time>2026-04-11T13:51:39.06Z</time></trkpt><trkpt lat="45.037285" lon="7.8690983"><ele>281.33333333333337</ele><time>2026-04-11T13:51:41.06Z</time></trkpt><trkpt lat="45.0372217" lon="7.869145"><ele>281.0</ele><time>2026-04-11T13:51:44.061Z</time></trkpt><trkpt lat="45.0371483" lon="7.8691967"><ele>281.0</ele><time>2026-04-11T13:51:47.059Z</time></trkpt><trkpt lat="45.0370817" lon="7.8692617"><ele>281.0</ele><time>2026-04-11T13:51:49.059Z</time></trkpt><trkpt lat="45.037" lon="7.8693617"><ele>281.0</ele><time>2026-04-11T13:51:51.061Z</time></trkpt><trkpt lat="45.036815" lon="7.86954"><ele>281.0</ele><time>2026-04-11T13:51:55.061Z</time></trkpt><trkpt lat="45.0367617" lon="7.8695917"><ele>281.0</ele><time>2026-04-11T13:51:56.063Z</time></trkpt><trkpt lat="45.0367033" lon="7.8696483"><ele>281.0</ele><time>2026-04-11T13:51:57.06Z</time></trkpt><trkpt lat="45.0366" lon="7.8697417"><ele>281.0</ele><time>2026-04-11T13:51:59.06Z</time></trkpt><trkpt lat="45.0365033" lon="7.869845"><ele>281.0</ele><time>2026-04-11T13:52:01.06Z</time></trkpt><trkpt lat="45.036425" lon="7.869955"><ele>281.0</ele><time>2026-04-11T13:52:03.062Z</time></trkpt><trkpt lat="45.036375" lon="7.87004"><ele>281.83333333333337</ele><time>2026-04-11T13:52:06.061Z</time></trkpt><trkpt lat="45.0363767" lon="7.8701417"><ele>282.6666666666667</ele><time>2026-04-11T13:52:47.063Z</time></trkpt><trkpt lat="45.0364867" lon="7.8702933"><ele>283.5</ele><time>2026-04-11T13:52:53.062Z</time></trkpt><trkpt lat="45.0365283" lon="7.8703683"><ele>284.3333333333333</ele><time>2026-04-11T13:52:57.064Z</time></trkpt><trkpt lat="45.0366083" lon="7.8703567"><ele>285.16666666666663</ele><time>2026-04-11T13:53:13.062Z</time></trkpt><trkpt lat="45.0365834" lon="7.8703612"><ele>286.0</ele><time>2026-04-11T13:57:55.066Z</time></trkpt><trkpt lat="45.036483" lon="7.8702484"><ele>286.0</ele><time>2026-04-11T14:01:28.095Z</time></trkpt><trkpt lat="45.0365867" lon="7.8707267"><ele>286.0</ele><time>2026-04-11T14:11:57.064Z</time></trkpt><trkpt lat="45.0366083" lon="7.8708367"><ele>286.0</ele><time>2026-04-11T14:11:59.062Z</time></trkpt><trkpt lat="45.03664" lon="7.8709533"><ele>286.0</ele><time>2026-04-11T14:12:01.065Z</time></trkpt><trkpt lat="45.0366683" lon="7.87106"><ele>286.0</ele><time>2026-04-11T14:12:03.061Z</time></trkpt><trkpt lat="45.0366967" lon="7.8711733"><ele>286.0</ele><time>2026-04-11T14:12:05.061Z</time></trkpt><trkpt lat="45.03673" lon="7.8712867"><ele>286.0</ele><time>2026-04-11T14:12:07.059Z</time></trkpt><trkpt lat="45.0367617" lon="7.8714"><ele>286.0</ele><time>2026-04-11T14:12:09.064Z</time></trkpt><trkpt lat="45.036785" lon="7.8715117"><ele>286.0</ele><time>2026-04-11T14:12:11.061Z</time></trkpt><trkpt lat="45.0368233" lon="7.8716283"><ele>286.0</ele><time>2026-04-11T14:12:13.062Z</time></trkpt><trkpt lat="45.0368567" lon="7.8717583"><ele>286.0</ele><time>2026-04-11T14:12:15.062Z</time></trkpt><trkpt lat="45.03691" lon="7.8720017"><ele>286.0</ele><time>2026-04-11T14:12:19.063Z</time></trkpt><trkpt lat="45.0369367" lon="7.8721067"><ele>286.0</ele><time>2026-04-11T14:12:21.062Z</time></trkpt><trkpt lat="45.0369783" lon="7.8722267"><ele>287.0</ele><time>2026-04-11T14:12:23.06Z</time></trkpt><trkpt lat="45.0370067" lon="7.8723383"><ele>288.0</ele><time>2026-04-11T14:12:25.064Z</time></trkpt><trkpt lat="45.0370383" lon="7.8724467"><ele>289.0</ele><time>2026-04-11T14:12:27.062Z</time></trkpt><trkpt lat="45.03708" lon="7.8725533"><ele>290.0</ele><time>2026-04-11T14:12:29.06Z</time></trkpt><trkpt lat="45.0371233" lon="7.8726683"><ele>291.0</ele><time>2026-04-11T14:12:31.061Z</time></trkpt><trkpt lat="45.0371633" lon="7.87278"><ele>292.0</ele><time>2026-04-11T14:12:33.059Z</time></trkpt><trkpt lat="45.037185" lon="7.8728933"><ele>292.0</ele><time>2026-04-11T14:12:35.064Z</time></trkpt><trkpt lat="45.0371933" lon="7.8730133"><ele>292.0</ele><time>2026-04-11T14:12:37.063Z</time></trkpt><trkpt lat="45.0371883" lon="7.8732967"><ele>292.0</ele><time>2026-04-11T14:12:41.058Z</time></trkpt><trkpt lat="45.0371517" lon="7.8734417"><ele>292.0</ele><time>2026-04-11T14:12:43.062Z</time></trkpt><trkpt lat="45.0371117" lon="7.8735833"><ele>291.0</ele><time>2026-04-11T14:12:45.061Z</time></trkpt><trkpt lat="45.0371267" lon="7.8737233"><ele>290.0</ele><time>2026-04-11T14:12:47.06Z</time></trkpt><trkpt lat="45.037195" lon="7.873775"><ele>289.0</ele><time>2026-04-11T14:12:49.06Z</time></trkpt><trkpt lat="45.0373033" lon="7.873775"><ele>288.0</ele><time>2026-04-11T14:12:51.064Z</time></trkpt><trkpt lat="45.03741" lon="7.8738"><ele>287.0</ele><time>2026-04-11T14:12:53.061Z</time></trkpt><trkpt lat="45.0375183" lon="7.8738483"><ele>286.6666666666667</ele><time>2026-04-11T14:12:55.06Z</time></trkpt><trkpt lat="45.037625" lon="7.8739"><ele>286.3333333333333</ele><time>2026-04-11T14:12:57.063Z</time></trkpt><trkpt lat="45.037735" lon="7.8739517"><ele>286.0</ele><time>2026-04-11T14:12:59.059Z</time></trkpt><trkpt lat="45.037955" lon="7.874075"><ele>286.0</ele><time>2026-04-11T14:13:03.062Z</time></trkpt><trkpt lat="45.0380667" lon="7.87414"><ele>286.0</ele><time>2026-04-11T14:13:05.062Z</time></trkpt><trkpt lat="45.0381733" lon="7.8741983"><ele>286.0</ele><time>2026-04-11T14:13:07.062Z</time></trkpt><trkpt lat="45.0382917" lon="7.87426"><ele>286.0</ele><time>2026-04-11T14:13:09.063Z</time></trkpt><trkpt lat="45.0383533" lon="7.8742883"><ele>286.0</ele><time>2026-04-11T14:13:10.061Z</time></trkpt><trkpt lat="45.0384133" lon="7.8743167"><ele>285.57142857142856</ele><time>2026-04-11T14:13:11.06Z</time></trkpt><trkpt lat="45.0384733" lon="7.8743467"><ele>285.1428571428571</ele><time>2026-04-11T14:13:12.064Z</time></trkpt><trkpt lat="45.0385367" lon="7.87438"><ele>284.7142857142857</ele><time>2026-04-11T14:13:13.062Z</time></trkpt><trkpt lat="45.0385983" lon="7.8744117"><ele>284.2857142857143</ele><time>2026-04-11T14:13:14.063Z</time></trkpt><trkpt lat="45.0386583" lon="7.8744433"><ele>283.8571428571429</ele><time>2026-04-11T14:13:15.062Z</time></trkpt><trkpt lat="45.0387217" lon="7.8744767"><ele>283.42857142857144</ele><time>2026-04-11T14:13:16.062Z</time></trkpt><trkpt lat="45.038785" lon="7.8745083"><ele>283.0</ele><time>2026-04-11T14:13:17.061Z</time></trkpt><trkpt lat="45.03885" lon="7.87454"><ele>283.0</ele><time>2026-04-11T14:13:18.062Z</time></trkpt><trkpt lat="45.038915" lon="7.8745733"><ele>283.0</ele><time>2026-04-11T14:13:19.061Z</time></trkpt><trkpt lat="45.03898" lon="7.874605"><ele>283.0</ele><time>2026-04-11T14:13:20.061Z</time></trkpt><trkpt lat="45.0391083" lon="7.8746667"><ele>283.0</ele><time>2026-04-11T14:13:22.063Z</time></trkpt><trkpt lat="45.0391733" lon="7.8746983"><ele>283.0</ele><time>2026-04-11T14:13:23.061Z</time></trkpt><trkpt lat="45.0392383" lon="7.87473"><ele>283.0</ele><time>2026-04-11T14:13:24.062Z</time></trkpt><trkpt lat="45.0393033" lon="7.8747583"><ele>283.0</ele><time>2026-04-11T14:13:25.06Z</time></trkpt><trkpt lat="45.0393683" lon="7.87479"><ele>283.0</ele><time>2026-04-11T14:13:26.061Z</time></trkpt><trkpt lat="45.0394333" lon="7.87482"><ele>283.0</ele><time>2026-04-11T14:13:27.063Z</time></trkpt><trkpt lat="45.0394967" lon="7.8748517"><ele>283.0</ele><time>2026-04-11T14:13:28.059Z</time></trkpt><trkpt lat="45.0395583" lon="7.8748867"><ele>283.0</ele><time>2026-04-11T14:13:29.062Z</time></trkpt><trkpt lat="45.03962" lon="7.8749183"><ele>283.0</ele><time>2026-04-11T14:13:30.061Z</time></trkpt><trkpt lat="45.0396817" lon="7.8749517"><ele>283.0</ele><time>2026-04-11T14:13:31.062Z</time></trkpt><trkpt lat="45.039745" lon="7.8749833"><ele>283.0</ele><time>2026-04-11T14:13:32.062Z</time></trkpt><trkpt lat="45.0398083" lon="7.875015"><ele>283.0</ele><time>2026-04-11T14:13:33.062Z</time></trkpt><trkpt lat="45.03987" lon="7.8750467"><ele>283.0</ele><time>2026-04-11T14:13:34.063Z</time></trkpt><trkpt lat="45.03993" lon="7.87508"><ele>283.0</ele><time>2026-04-11T14:13:35.064Z</time></trkpt><trkpt lat="45.0399917" lon="7.8751133"><ele>283.0</ele><time>2026-04-11T14:13:36.062Z</time></trkpt><trkpt lat="45.0400567" lon="7.8751467"><ele>283.0</ele><time>2026-04-11T14:13:37.063Z</time></trkpt><trkpt lat="45.04012" lon="7.87518"><ele>283.0</ele><time>2026-04-11T14:13:38.056Z</time></trkpt><trkpt lat="45.0402367" lon="7.875245"><ele>282.66666666666663</ele><time>2026-04-11T14:13:40.06Z</time></trkpt><trkpt lat="45.0403517" lon="7.8753033"><ele>282.3333333333333</ele><time>2026-04-11T14:13:42.063Z</time></trkpt><trkpt lat="45.0405717" lon="7.8754283"><ele>282.0</ele><time>2026-04-11T14:13:46.061Z</time></trkpt><trkpt lat="45.0406833" lon="7.8754933"><ele>282.0</ele><time>2026-04-11T14:13:48.056Z</time></trkpt><trkpt lat="45.0407883" lon="7.8755567"><ele>282.0</ele><time>2026-04-11T14:13:50.062Z</time></trkpt><trkpt lat="45.0408883" lon="7.87561"><ele>282.0</ele><time>2026-04-11T14:13:52.062Z</time></trkpt><trkpt lat="45.0409817" lon="7.8756567"><ele>282.0</ele><time>2026-04-11T14:13:54.061Z</time></trkpt><trkpt lat="45.0410717" lon="7.8757"><ele>282.0</ele><time>2026-04-11T14:13:56.062Z</time></trkpt><trkpt lat="45.041155" lon="7.8757333"><ele>282.8</ele><time>2026-04-11T14:13:58.064Z</time></trkpt><trkpt lat="45.0412317" lon="7.875775"><ele>283.6</ele><time>2026-04-11T14:14:00.062Z</time></trkpt><trkpt lat="45.04131" lon="7.8758133"><ele>284.40000000000003</ele><time>2026-04-11T14:14:02.065Z</time></trkpt><trkpt lat="45.0413833" lon="7.8758517"><ele>285.2</ele><time>2026-04-11T14:14:04.061Z</time></trkpt><trkpt lat="45.0415117" lon="7.8759317"><ele>286.0</ele><time>2026-04-11T14:14:08.064Z</time></trkpt><trkpt lat="45.0415733" lon="7.8759733"><ele>288.3333333333333</ele><time>2026-04-11T14:14:10.063Z</time></trkpt><trkpt lat="45.0416533" lon="7.8760383"><ele>290.66666666666663</ele><time>2026-04-11T14:14:13.063Z</time></trkpt><trkpt lat="45.0417267" lon="7.8761183"><ele>293.0</ele><time>2026-04-11T14:14:16.062Z</time></trkpt><trkpt lat="45.0417983" lon="7.8761933"><ele>295.3333333333333</ele><time>2026-04-11T14:14:19.063Z</time></trkpt><trkpt lat="45.0418583" lon="7.87628"><ele>297.6666666666667</ele><time>2026-04-11T14:14:22.063Z</time></trkpt><trkpt lat="45.0419167" lon="7.87637"><ele>300.0</ele><time>2026-04-11T14:14:25.067Z</time></trkpt><trkpt lat="45.0420283" lon="7.8765333"><ele>300.0</ele><time>2026-04-11T14:14:31.063Z</time></trkpt><trkpt lat="45.0420733" lon="7.8766267"><ele>300.0</ele><time>2026-04-11T14:14:34.061Z</time></trkpt><trkpt lat="45.042105" lon="7.8767167"><ele>300.0</ele><time>2026-04-11T14:14:37.064Z</time></trkpt><trkpt lat="45.0421517" lon="7.8767933"><ele>300.0</ele><time>2026-04-11T14:14:40.06Z</time></trkpt><trkpt lat="45.0421967" lon="7.8768667"><ele>300.0</ele><time>2026-04-11T14:14:43.061Z</time></trkpt><trkpt lat="45.0422483" lon="7.876945"><ele>300.0</ele><time>2026-04-11T14:14:46.063Z</time></trkpt><trkpt lat="45.042355" lon="7.8770933"><ele>300.6666666666667</ele><time>2026-04-11T14:14:52.059Z</time></trkpt><trkpt lat="45.0424067" lon="7.8771517"><ele>301.3333333333333</ele><time>2026-04-11T14:14:55.062Z</time></trkpt><trkpt lat="45.042465" lon="7.8772133"><ele>302.0</ele><time>2026-04-11T14:14:58.061Z</time></trkpt><trkpt lat="45.0425283" lon="7.8772517"><ele>302.66666666666663</ele><time>2026-04-11T14:15:01.06Z</time></trkpt><trkpt lat="45.0425917" lon="7.877305"><ele>303.3333333333333</ele><time>2026-04-11T14:15:04.062Z</time></trkpt><trkpt lat="45.04266" lon="7.877355"><ele>304.0</ele><time>2026-04-11T14:15:07.061Z</time></trkpt><trkpt lat="45.0428033" lon="7.8774167"><ele>304.3333333333333</ele><time>2026-04-11T14:15:13.063Z</time></trkpt><trkpt lat="45.0428767" lon="7.8774317"><ele>304.66666666666663</ele><time>2026-04-11T14:15:16.064Z</time></trkpt><trkpt lat="45.0429483" lon="7.8774417"><ele>305.0</ele><time>2026-04-11T14:15:19.062Z</time></trkpt><trkpt lat="45.0430167" lon="7.8774567"><ele>305.3333333333333</ele><time>2026-04-11T14:15:22.061Z</time></trkpt><trkpt lat="45.0430883" lon="7.8774733"><ele>305.6666666666667</ele><time>2026-04-11T14:15:25.062Z</time></trkpt><trkpt lat="45.0431583" lon="7.87749"><ele>306.0</ele><time>2026-04-11T14:15:28.06Z</time></trkpt><trkpt lat="45.0433167" lon="7.8775133"><ele>307.1666666666667</ele><time>2026-04-11T14:15:34.061Z</time></trkpt><trkpt lat="45.043385" lon="7.8775183"><ele>308.3333333333333</ele><time>2026-04-11T14:15:37.062Z</time></trkpt><trkpt lat="45.0434533" lon="7.8775317"><ele>309.5</ele><time>2026-04-11T14:15:40.057Z</time></trkpt><trkpt lat="45.0435267" lon="7.8775467"><ele>310.66666666666663</ele><time>2026-04-11T14:15:43.062Z</time></trkpt><trkpt lat="45.0436" lon="7.877555"><ele>311.8333333333333</ele><time>2026-04-11T14:15:46.062Z</time></trkpt><trkpt lat="45.043675" lon="7.8775633"><ele>313.0</ele><time>2026-04-11T14:15:49.061Z</time></trkpt><trkpt lat="45.0438267" lon="7.8775917"><ele>313.0</ele><time>2026-04-11T14:15:55.064Z</time></trkpt><trkpt lat="45.0439" lon="7.8776017"><ele>313.0</ele><time>2026-04-11T14:15:58.063Z</time></trkpt><trkpt lat="45.0439717" lon="7.8776183"><ele>313.0</ele><time>2026-04-11T14:16:01.059Z</time></trkpt><trkpt lat="45.0440367" lon="7.8776283"><ele>313.0</ele><time>2026-04-11T14:16:04.063Z</time></trkpt><trkpt lat="45.0441033" lon="7.8776433"><ele>313.0</ele><time>2026-04-11T14:16:07.061Z</time></trkpt><trkpt lat="45.044175" lon="7.87766"><ele>313.0</ele><time>2026-04-11T14:16:10.061Z</time></trkpt><trkpt lat="45.044315" lon="7.8776883"><ele>315.16666666666663</ele><time>2026-04-11T14:16:16.064Z</time></trkpt><trkpt lat="45.0443817" lon="7.8777"><ele>317.3333333333333</ele><time>2026-04-11T14:16:19.062Z</time></trkpt><trkpt lat="45.0444517" lon="7.8777133"><ele>319.5</ele><time>2026-04-11T14:16:22.06Z</time></trkpt><trkpt lat="45.0445233" lon="7.877725"><ele>321.6666666666667</ele><time>2026-04-11T14:16:25.061Z</time></trkpt><trkpt lat="45.0445917" lon="7.8777367"><ele>323.83333333333337</ele><time>2026-04-11T14:16:28.062Z</time></trkpt><trkpt lat="45.04466" lon="7.8777467"><ele>326.0</ele><time>2026-04-11T14:16:31.067Z</time></trkpt><trkpt lat="45.0448" lon="7.8778067"><ele>326.0</ele><time>2026-04-11T14:16:37.063Z</time></trkpt><trkpt lat="45.0448633" lon="7.8778483"><ele>326.0</ele><time>2026-04-11T14:16:40.061Z</time></trkpt><trkpt lat="45.0449383" lon="7.8778917"><ele>326.0</ele><time>2026-04-11T14:16:43.059Z</time></trkpt><trkpt lat="45.0450183" lon="7.8779267"><ele>326.0</ele><time>2026-04-11T14:16:46.061Z</time></trkpt><trkpt lat="45.0450967" lon="7.8779683"><ele>326.0</ele><time>2026-04-11T14:16:49.061Z</time></trkpt><trkpt lat="45.0451667" lon="7.87802"><ele>326.0</ele><time>2026-04-11T14:16:52.061Z</time></trkpt><trkpt lat="45.045295" lon="7.8781217"><ele>327.33333333333337</ele><time>2026-04-11T14:16:58.061Z</time></trkpt><trkpt lat="45.0453633" lon="7.8781733"><ele>328.6666666666667</ele><time>2026-04-11T14:17:01.061Z</time></trkpt><trkpt lat="45.0454383" lon="7.8782183"><ele>330.0</ele><time>2026-04-11T14:17:04.061Z</time></trkpt><trkpt lat="45.0455033" lon="7.8782667"><ele>331.3333333333333</ele><time>2026-04-11T14:17:07.063Z</time></trkpt><trkpt lat="45.0455667" lon="7.8783083"><ele>332.66666666666663</ele><time>2026-04-11T14:17:10.061Z</time></trkpt><trkpt lat="45.0456383" lon="7.87835"><ele>334.0</ele><time>2026-04-11T14:17:13.067Z</time></trkpt><trkpt lat="45.0457917" lon="7.8784317"><ele>336.16666666666663</ele><time>2026-04-11T14:17:19.063Z</time></trkpt><trkpt lat="45.0458717" lon="7.8784717"><ele>338.3333333333333</ele><time>2026-04-11T14:17:22.06Z</time></trkpt><trkpt lat="45.0459533" lon="7.878505"><ele>340.5</ele><time>2026-04-11T14:17:25.06Z</time></trkpt><trkpt lat="45.0460433" lon="7.8785433"><ele>342.6666666666667</ele><time>2026-04-11T14:17:28.06Z</time></trkpt><trkpt lat="45.0461067" lon="7.8785667"><ele>344.83333333333337</ele><time>2026-04-11T14:17:30.06Z</time></trkpt><trkpt lat="45.0461683" lon="7.8785867"><ele>347.0</ele><time>2026-04-11T14:17:32.062Z</time></trkpt><trkpt lat="45.04623" lon="7.8786117"><ele>347.0</ele><time>2026-04-11T14:17:34.061Z</time></trkpt><trkpt lat="45.04636" lon="7.878645"><ele>347.0</ele><time>2026-04-11T14:17:38.062Z</time></trkpt><trkpt lat="45.0464267" lon="7.87866"><ele>347.0</ele><time>2026-04-11T14:17:40.064Z</time></trkpt><trkpt lat="45.0464917" lon="7.878675"><ele>347.0</ele><time>2026-04-11T14:17:42.061Z</time></trkpt><trkpt lat="45.0465567" lon="7.878695"><ele>347.0</ele><time>2026-04-11T14:17:44.061Z</time></trkpt><trkpt lat="45.0466233" lon="7.8787183"><ele>347.0</ele><time>2026-04-11T14:17:46.062Z</time></trkpt><trkpt lat="45.0466933" lon="7.878725"><ele>346.8</ele><time>2026-04-11T14:17:48.062Z</time></trkpt><trkpt lat="45.0467633" lon="7.8787367"><ele>346.6</ele><time>2026-04-11T14:17:50.062Z</time></trkpt><trkpt lat="45.0468417" lon="7.878745"><ele>346.40000000000003</ele><time>2026-04-11T14:17:52.06Z</time></trkpt><trkpt lat="45.0469267" lon="7.8787533"><ele>346.20000000000005</ele><time>2026-04-11T14:17:54.063Z</time></trkpt><trkpt lat="45.0470167" lon="7.8787517"><ele>346.0</ele><time>2026-04-11T14:17:56.062Z</time></trkpt><trkpt lat="45.0472167" lon="7.8787417"><ele>346.0</ele><time>2026-04-11T14:18:00.061Z</time></trkpt><trkpt lat="45.0473233" lon="7.8787283"><ele>346.0</ele><time>2026-04-11T14:18:02.061Z</time></trkpt><trkpt lat="45.0474333" lon="7.8787133"><ele>346.0</ele><time>2026-04-11T14:18:04.062Z</time></trkpt><trkpt lat="45.047555" lon="7.8787"><ele>346.0</ele><time>2026-04-11T14:18:06.063Z</time></trkpt><trkpt lat="45.0476183" lon="7.8786883"><ele>346.0</ele><time>2026-04-11T14:18:07.063Z</time></trkpt><trkpt lat="45.0477433" lon="7.8786733"><ele>345.0</ele><time>2026-04-11T14:18:09.063Z</time></trkpt><trkpt lat="45.0478083" lon="7.8786683"><ele>344.0</ele><time>2026-04-11T14:18:10.061Z</time></trkpt><trkpt lat="45.0479333" lon="7.8786567"><ele>343.0</ele><time>2026-04-11T14:18:12.061Z</time></trkpt><trkpt lat="45.0480533" lon="7.8786433"><ele>342.0</ele><time>2026-04-11T14:18:14.063Z</time></trkpt><trkpt lat="45.0481783" lon="7.8786283"><ele>341.0</ele><time>2026-04-11T14:18:16.062Z</time></trkpt><trkpt lat="45.0482967" lon="7.8786083"><ele>340.25</ele><time>2026-04-11T14:18:18.061Z</time></trkpt><trkpt lat="45.0485317" lon="7.8786317"><ele>339.5</ele><time>2026-04-11T14:18:22.06Z</time></trkpt><trkpt lat="45.048655" lon="7.8786633"><ele>338.75</ele><time>2026-04-11T14:18:24.06Z</time></trkpt><trkpt lat="45.0487183" lon="7.878705"><ele>338.0</ele><time>2026-04-11T14:18:25.062Z</time></trkpt><trkpt lat="45.0487733" lon="7.8787767"><ele>338.0</ele><time>2026-04-11T14:18:26.06Z</time></trkpt><trkpt lat="45.0488117" lon="7.878875"><ele>338.0</ele><time>2026-04-11T14:18:27.063Z</time></trkpt><trkpt lat="45.0488417" lon="7.8789883"><ele>338.0</ele><time>2026-04-11T14:18:28.061Z</time></trkpt><trkpt lat="45.0488683" lon="7.8791"><ele>338.0</ele><time>2026-04-11T14:18:29.059Z</time></trkpt><trkpt lat="45.0488883" lon="7.8792133"><ele>338.0</ele><time>2026-04-11T14:18:30.061Z</time></trkpt><trkpt lat="45.0489067" lon="7.879325"><ele>338.0</ele><time>2026-04-11T14:18:31.062Z</time></trkpt><trkpt lat="45.0489267" lon="7.879425"><ele>336.4</ele><time>2026-04-11T14:18:32.062Z</time></trkpt><trkpt lat="45.0489483" lon="7.8795183"><ele>334.79999999999995</ele><time>2026-04-11T14:18:33.063Z</time></trkpt><trkpt lat="45.0489767" lon="7.8796733"><ele>333.2</ele><time>2026-04-11T14:18:35.061Z</time></trkpt><trkpt lat="45.0489833" lon="7.8797983"><ele>331.6</ele><time>2026-04-11T14:18:37.061Z</time></trkpt><trkpt lat="45.0489767" lon="7.8799533"><ele>330.0</ele><time>2026-04-11T14:18:39.063Z</time></trkpt><trkpt lat="45.0489533" lon="7.8801367"><ele>329.0</ele><time>2026-04-11T14:18:41.059Z</time></trkpt><trkpt lat="45.0489317" lon="7.8802883"><ele>328.0</ele><time>2026-04-11T14:18:43.061Z</time></trkpt><trkpt lat="45.0489133" lon="7.8803833"><ele>327.0</ele><time>2026-04-11T14:18:45.061Z</time></trkpt><trkpt lat="45.0489517" lon="7.8805167"><ele>326.0</ele><time>2026-04-11T14:19:39.061Z</time></trkpt><trkpt lat="45.048915" lon="7.8808217"><ele>326.0</ele><time>2026-04-11T14:19:43.054Z</time></trkpt><trkpt lat="45.0489" lon="7.8809183"><ele>326.0</ele><time>2026-04-11T14:19:44.061Z</time></trkpt><trkpt lat="45.0488833" lon="7.88102"><ele>326.0</ele><time>2026-04-11T14:19:45.063Z</time></trkpt><trkpt lat="45.0488683" lon="7.88113"><ele>326.0</ele><time>2026-04-11T14:19:46.061Z</time></trkpt><trkpt lat="45.0488533" lon="7.8812417"><ele>326.0</ele><time>2026-04-11T14:19:47.058Z</time></trkpt><trkpt lat="45.0488383" lon="7.881355"><ele>326.0</ele><time>2026-04-11T14:19:48.054Z</time></trkpt><trkpt lat="45.0488267" lon="7.8814733"><ele>325.0</ele><time>2026-04-11T14:19:49.061Z</time></trkpt><trkpt lat="45.0488167" lon="7.8815933"><ele>324.0</ele><time>2026-04-11T14:19:50.063Z</time></trkpt><trkpt lat="45.0488067" lon="7.8817133"><ele>323.0</ele><time>2026-04-11T14:19:51.065Z</time></trkpt><trkpt lat="45.0487983" lon="7.8818333"><ele>322.0</ele><time>2026-04-11T14:19:52.064Z</time></trkpt><trkpt lat="45.0487867" lon="7.8819517"><ele>321.0</ele><time>2026-04-11T14:19:53.062Z</time></trkpt><trkpt lat="45.0487767" lon="7.8820717"><ele>320.0</ele><time>2026-04-11T14:19:54.06Z</time></trkpt><trkpt lat="45.0487683" lon="7.8821883"><ele>319.5</ele><time>2026-04-11T14:19:55.062Z</time></trkpt><trkpt lat="45.0487583" lon="7.8823033"><ele>319.0</ele><time>2026-04-11T14:19:56.057Z</time></trkpt><trkpt lat="45.0487483" lon="7.8824167"><ele>318.5</ele><time>2026-04-11T14:19:57.064Z</time></trkpt><trkpt lat="45.048735" lon="7.8825283"><ele>318.0</ele><time>2026-04-11T14:19:58.06Z</time></trkpt><trkpt lat="45.0487267" lon="7.88264"><ele>317.5</ele><time>2026-04-11T14:19:59.062Z</time></trkpt><trkpt lat="45.048715" lon="7.88275"><ele>317.0</ele><time>2026-04-11T14:20:00.06Z</time></trkpt><trkpt lat="45.0487017" lon="7.88297"><ele>317.0</ele><time>2026-04-11T14:20:02.061Z</time></trkpt><trkpt lat="45.048695" lon="7.8830767"><ele>317.0</ele><time>2026-04-11T14:20:03.063Z</time></trkpt><trkpt lat="45.0486933" lon="7.8831817"><ele>317.0</ele><time>2026-04-11T14:20:04.062Z</time></trkpt><trkpt lat="45.0486883" lon="7.883285"><ele>317.0</ele><time>2026-04-11T14:20:05.06Z</time></trkpt><trkpt lat="45.0486817" lon="7.883385"><ele>317.0</ele><time>2026-04-11T14:20:06.06Z</time></trkpt><trkpt lat="45.0486767" lon="7.883485"><ele>317.0</ele><time>2026-04-11T14:20:07.063Z</time></trkpt><trkpt lat="45.0486717" lon="7.88358"><ele>317.0</ele><time>2026-04-11T14:20:08.062Z</time></trkpt><trkpt lat="45.0486667" lon="7.88367"><ele>317.4</ele><time>2026-04-11T14:20:09.064Z</time></trkpt><trkpt lat="45.048655" lon="7.88384"><ele>317.79999999999995</ele><time>2026-04-11T14:20:11.063Z</time></trkpt><trkpt lat="45.0486417" lon="7.883985"><ele>318.2</ele><time>2026-04-11T14:20:13.063Z</time></trkpt><trkpt lat="45.0486417" lon="7.8841233"><ele>318.59999999999997</ele><time>2026-04-11T14:20:15.063Z</time></trkpt><trkpt lat="45.048655" lon="7.8843017"><ele>319.0</ele><time>2026-04-11T14:20:17.063Z</time></trkpt><trkpt lat="45.0486617" lon="7.8844"><ele>318.3333333333333</ele><time>2026-04-11T14:20:18.059Z</time></trkpt><trkpt lat="45.0486633" lon="7.8844917"><ele>317.66666666666663</ele><time>2026-04-11T14:20:19.06Z</time></trkpt><trkpt lat="45.04867" lon="7.8845833"><ele>317.0</ele><time>2026-04-11T14:20:20.061Z</time></trkpt><trkpt lat="45.0486783" lon="7.884675"><ele>316.3333333333333</ele><time>2026-04-11T14:20:21.063Z</time></trkpt><trkpt lat="45.0486867" lon="7.8848783"><ele>315.6666666666667</ele><time>2026-04-11T14:20:23.061Z</time></trkpt><trkpt lat="45.04869" lon="7.8849883"><ele>315.0</ele><time>2026-04-11T14:20:24.062Z</time></trkpt><trkpt lat="45.04869" lon="7.8851017"><ele>314.1666666666667</ele><time>2026-04-11T14:20:25.061Z</time></trkpt><trkpt lat="45.04869" lon="7.8852183"><ele>313.3333333333333</ele><time>2026-04-11T14:20:26.061Z</time></trkpt><trkpt lat="45.04869" lon="7.8853333"><ele>312.5</ele><time>2026-04-11T14:20:27.063Z</time></trkpt><trkpt lat="45.04869" lon="7.8854417"><ele>311.66666666666663</ele><time>2026-04-11T14:20:28.06Z</time></trkpt><trkpt lat="45.04869" lon="7.885545"><ele>310.8333333333333</ele><time>2026-04-11T14:20:29.06Z</time></trkpt><trkpt lat="45.0486917" lon="7.885645"><ele>310.0</ele><time>2026-04-11T14:20:30.061Z</time></trkpt><trkpt lat="45.0486933" lon="7.8857467"><ele>310.0</ele><time>2026-04-11T14:20:31.061Z</time></trkpt><trkpt lat="45.0486967" lon="7.8858533"><ele>310.0</ele><time>2026-04-11T14:20:32.062Z</time></trkpt><trkpt lat="45.0486967" lon="7.8859567"><ele>310.0</ele><time>2026-04-11T14:20:33.062Z</time></trkpt><trkpt lat="45.0486983" lon="7.8860583"><ele>310.0</ele><time>2026-04-11T14:20:34.06Z</time></trkpt><trkpt lat="45.0486983" lon="7.88616"><ele>310.0</ele><time>2026-04-11T14:20:35.06Z</time></trkpt><trkpt lat="45.0486967" lon="7.886265"><ele>310.0</ele><time>2026-04-11T14:20:36.061Z</time></trkpt><trkpt lat="45.0486933" lon="7.8863683"><ele>310.0</ele><time>2026-04-11T14:20:37.062Z</time></trkpt><trkpt lat="45.04869" lon="7.8864683"><ele>308.2</ele><time>2026-04-11T14:20:38.059Z</time></trkpt><trkpt lat="45.0486883" lon="7.886565"><ele>306.4</ele><time>2026-04-11T14:20:39.062Z</time></trkpt><trkpt lat="45.0486833" lon="7.8866617"><ele>304.6</ele><time>2026-04-11T14:20:40.063Z</time></trkpt><trkpt lat="45.0486833" lon="7.8867567"><ele>302.8</ele><time>2026-04-11T14:20:41.059Z</time></trkpt><trkpt lat="45.0486933" lon="7.8868467"><ele>301.0</ele><time>2026-04-11T14:20:42.06Z</time></trkpt><trkpt lat="45.048725" lon="7.887115"><ele>299.40000000000003</ele><time>2026-04-11T14:20:46.06Z</time></trkpt><trkpt lat="45.048685" lon="7.887195"><ele>297.8</ele><time>2026-04-11T14:20:48.061Z</time></trkpt><trkpt lat="45.0485933" lon="7.8872317"><ele>296.20000000000005</ele><time>2026-04-11T14:20:50.061Z</time></trkpt><trkpt lat="45.0484833" lon="7.8872467"><ele>294.6</ele><time>2026-04-11T14:20:52.062Z</time></trkpt><trkpt lat="45.04836" lon="7.8872733"><ele>293.0</ele><time>2026-04-11T14:20:54.06Z</time></trkpt><trkpt lat="45.0482383" lon="7.8873017"><ele>292.25</ele><time>2026-04-11T14:20:56.061Z</time></trkpt><trkpt lat="45.0481183" lon="7.8873317"><ele>291.5</ele><time>2026-04-11T14:20:58.063Z</time></trkpt><trkpt lat="45.047995" lon="7.8873567"><ele>290.75</ele><time>2026-04-11T14:21:00.062Z</time></trkpt><trkpt lat="45.0478767" lon="7.8873833"><ele>290.0</ele><time>2026-04-11T14:21:02.061Z</time></trkpt><trkpt lat="45.0477567" lon="7.88741"><ele>290.0</ele><time>2026-04-11T14:21:04.062Z</time></trkpt><trkpt lat="45.047575" lon="7.8874367"><ele>290.0</ele><time>2026-04-11T14:21:07.06Z</time></trkpt><trkpt lat="45.0474533" lon="7.88745"><ele>290.0</ele><time>2026-04-11T14:21:09.063Z</time></trkpt><trkpt lat="45.0473317" lon="7.8874617"><ele>290.0</ele><time>2026-04-11T14:21:11.061Z</time></trkpt><trkpt lat="45.0472133" lon="7.887475"><ele>290.2857142857143</ele><time>2026-04-11T14:21:13.063Z</time></trkpt><trkpt lat="45.0471483" lon="7.8874833"><ele>290.5714285714286</ele><time>2026-04-11T14:21:14.06Z</time></trkpt><trkpt lat="45.0470833" lon="7.88749"><ele>290.8571428571429</ele><time>2026-04-11T14:21:15.061Z</time></trkpt><trkpt lat="45.0470167" lon="7.8874967"><ele>291.14285714285717</ele><time>2026-04-11T14:21:16.06Z</time></trkpt><trkpt lat="45.0469483" lon="7.8875033"><ele>291.42857142857144</ele><time>2026-04-11T14:21:17.06Z</time></trkpt><trkpt lat="45.046885" lon="7.88751"><ele>291.7142857142857</ele><time>2026-04-11T14:21:18.061Z</time></trkpt><trkpt lat="45.04682" lon="7.88752"><ele>292.0</ele><time>2026-04-11T14:21:19.06Z</time></trkpt><trkpt lat="45.046755" lon="7.8875333"><ele>292.0</ele><time>2026-04-11T14:21:20.06Z</time></trkpt><trkpt lat="45.0466917" lon="7.8875483"><ele>292.0</ele><time>2026-04-11T14:21:21.061Z</time></trkpt><trkpt lat="45.0466283" lon="7.8875633"><ele>292.0</ele><time>2026-04-11T14:21:22.06Z</time></trkpt><trkpt lat="45.0465083" lon="7.8876"><ele>292.0</ele><time>2026-04-11T14:21:24.06Z</time></trkpt><trkpt lat="45.04639" lon="7.8876467"><ele>292.0</ele><time>2026-04-11T14:21:26.061Z</time></trkpt><trkpt lat="45.04615" lon="7.8877517"><ele>292.16666666666663</ele><time>2026-04-11T14:21:30.063Z</time></trkpt><trkpt lat="45.0460867" lon="7.8877767"><ele>292.3333333333333</ele><time>2026-04-11T14:21:31.061Z</time></trkpt><trkpt lat="45.0460233" lon="7.8878033"><ele>292.5</ele><time>2026-04-11T14:21:32.06Z</time></trkpt><trkpt lat="45.0459617" lon="7.887825"><ele>292.6666666666667</ele><time>2026-04-11T14:21:33.06Z</time></trkpt><trkpt lat="45.0458433" lon="7.8878767"><ele>292.83333333333337</ele><time>2026-04-11T14:21:35.061Z</time></trkpt><trkpt lat="45.0457233" lon="7.887925"><ele>293.0</ele><time>2026-04-11T14:21:37.063Z</time></trkpt><trkpt lat="45.04566" lon="7.8879483"><ele>293.0</ele><time>2026-04-11T14:21:38.062Z</time></trkpt><trkpt lat="45.04554" lon="7.888"><ele>293.0</ele><time>2026-04-11T14:21:40.061Z</time></trkpt><trkpt lat="45.0454783" lon="7.8880233"><ele>293.0</ele><time>2026-04-11T14:21:41.062Z</time></trkpt><trkpt lat="45.0453583" lon="7.8880717"><ele>293.0</ele><time>2026-04-11T14:21:43.063Z</time></trkpt><trkpt lat="45.045295" lon="7.8880967"><ele>293.0</ele><time>2026-04-11T14:21:44.062Z</time></trkpt><trkpt lat="45.04523" lon="7.88812"><ele>293.0</ele><time>2026-04-11T14:21:45.064Z</time></trkpt><trkpt lat="45.0451083" lon="7.88816"><ele>293.4</ele><time>2026-04-11T14:21:47.062Z</time></trkpt><trkpt lat="45.0449283" lon="7.8882317"><ele>293.8</ele><time>2026-04-11T14:21:50.062Z</time></trkpt><trkpt lat="45.0448067" lon="7.888275"><ele>294.2</ele><time>2026-04-11T14:21:52.063Z</time></trkpt><trkpt lat="45.0447417" lon="7.888295"><ele>294.6</ele><time>2026-04-11T14:21:53.06Z</time></trkpt><trkpt lat="45.04468" lon="7.888315"><ele>295.0</ele><time>2026-04-11T14:21:54.06Z</time></trkpt><trkpt lat="45.0446183" lon="7.8883367"><ele>295.0</ele><time>2026-04-11T14:21:55.061Z</time></trkpt><trkpt lat="45.044555" lon="7.8883617"><ele>295.0</ele><time>2026-04-11T14:21:56.062Z</time></trkpt><trkpt lat="45.0444917" lon="7.8883833"><ele>295.0</ele><time>2026-04-11T14:21:57.062Z</time></trkpt><trkpt lat="45.04443" lon="7.8884083"><ele>295.0</ele><time>2026-04-11T14:21:58.06Z</time></trkpt><trkpt lat="45.04432" lon="7.8884467"><ele>295.0</ele><time>2026-04-11T14:22:00.055Z</time></trkpt><trkpt lat="45.04422" lon="7.8884867"><ele>295.0</ele><time>2026-04-11T14:22:02.061Z</time></trkpt><trkpt lat="45.0441683" lon="7.8885483"><ele>293.0</ele><time>2026-04-11T14:22:04.062Z</time></trkpt><trkpt lat="45.0441567" lon="7.888675"><ele>291.0</ele><time>2026-04-11T14:22:07.06Z</time></trkpt><trkpt lat="45.0441767" lon="7.8887867"><ele>289.0</ele><time>2026-04-11T14:22:09.062Z</time></trkpt><trkpt lat="45.0442267" lon="7.8890333"><ele>287.0</ele><time>2026-04-11T14:22:13.062Z</time></trkpt><trkpt lat="45.0442583" lon="7.8891617"><ele>285.0</ele><time>2026-04-11T14:22:15.062Z</time></trkpt><trkpt lat="45.0442883" lon="7.8892967"><ele>284.6</ele><time>2026-04-11T14:22:17.059Z</time></trkpt><trkpt lat="45.044325" lon="7.8894383"><ele>284.2</ele><time>2026-04-11T14:22:19.061Z</time></trkpt><trkpt lat="45.044365" lon="7.8895867"><ele>283.8</ele><time>2026-04-11T14:22:21.063Z</time></trkpt><trkpt lat="45.0444017" lon="7.889735"><ele>283.4</ele><time>2026-04-11T14:22:23.062Z</time></trkpt><trkpt lat="45.0444417" lon="7.889885"><ele>283.0</ele><time>2026-04-11T14:22:25.061Z</time></trkpt><trkpt lat="45.0444783" lon="7.8900383"><ele>283.66666666666663</ele><time>2026-04-11T14:22:27.061Z</time></trkpt><trkpt lat="45.04452" lon="7.8901933"><ele>284.3333333333333</ele><time>2026-04-11T14:22:29.061Z</time></trkpt><trkpt lat="45.0445583" lon="7.8903433"><ele>285.0</ele><time>2026-04-11T14:22:31.061Z</time></trkpt><trkpt lat="45.0446333" lon="7.8906517"><ele>285.0</ele><time>2026-04-11T14:22:35.06Z</time></trkpt><trkpt lat="45.0446733" lon="7.89081"><ele>285.0</ele><time>2026-04-11T14:22:37.062Z</time></trkpt><trkpt lat="45.0447133" lon="7.8909733"><ele>285.0</ele><time>2026-04-11T14:22:39.062Z</time></trkpt><trkpt lat="45.0447533" lon="7.891135"><ele>285.0</ele><time>2026-04-11T14:22:41.062Z</time></trkpt><trkpt lat="45.04479" lon="7.8912967"><ele>285.0</ele><time>2026-04-11T14:22:43.062Z</time></trkpt><trkpt lat="45.04483" lon="7.891455"><ele>285.0</ele><time>2026-04-11T14:22:45.066Z</time></trkpt><trkpt lat="45.044875" lon="7.8916183"><ele>285.0</ele><time>2026-04-11T14:22:47.062Z</time></trkpt><trkpt lat="45.044925" lon="7.89178"><ele>285.0</ele><time>2026-04-11T14:22:49.06Z</time></trkpt><trkpt lat="45.04497" lon="7.8919433"><ele>285.5</ele><time>2026-04-11T14:22:51.063Z</time></trkpt><trkpt lat="45.0450083" lon="7.89211"><ele>286.0</ele><time>2026-04-11T14:22:53.06Z</time></trkpt><trkpt lat="45.0450767" lon="7.89236"><ele>286.5</ele><time>2026-04-11T14:22:56.061Z</time></trkpt><trkpt lat="45.04512" lon="7.892525"><ele>287.0</ele><time>2026-04-11T14:22:58.06Z</time></trkpt><trkpt lat="45.0451633" lon="7.892685"><ele>287.5</ele><time>2026-04-11T14:23:00.061Z</time></trkpt><trkpt lat="45.0452067" lon="7.8928367"><ele>288.0</ele><time>2026-04-11T14:23:02.061Z</time></trkpt><trkpt lat="45.04524" lon="7.8929533"><ele>288.5</ele><time>2026-04-11T14:23:04.06Z</time></trkpt><trkpt lat="45.0452433" lon="7.893085"><ele>289.0</ele><time>2026-04-11T14:23:07.062Z</time></trkpt><trkpt lat="45.0451817" lon="7.8931717"><ele>289.5</ele><time>2026-04-11T14:23:09.06Z</time></trkpt><trkpt lat="45.04512" lon="7.89319"><ele>290.0</ele><time>2026-04-11T14:23:10.062Z</time></trkpt><trkpt lat="45.045055" lon="7.8932033"><ele>290.0</ele><time>2026-04-11T14:23:11.061Z</time></trkpt><trkpt lat="45.0449717" lon="7.8932083"><ele>290.0</ele><time>2026-04-11T14:23:12.06Z</time></trkpt><trkpt lat="45.044895" lon="7.8932333"><ele>290.0</ele><time>2026-04-11T14:23:13.066Z</time></trkpt><trkpt lat="45.0448233" lon="7.8932717"><ele>290.0</ele><time>2026-04-11T14:23:14.061Z</time></trkpt><trkpt lat="45.0446833" lon="7.8933883"><ele>290.0</ele><time>2026-04-11T14:23:16.062Z</time></trkpt><trkpt lat="45.044615" lon="7.893455"><ele>289.1666666666667</ele><time>2026-04-11T14:23:17.061Z</time></trkpt><trkpt lat="45.0445533" lon="7.8935233"><ele>288.33333333333337</ele><time>2026-04-11T14:23:18.066Z</time></trkpt><trkpt lat="45.044495" lon="7.8935933"><ele>287.5</ele><time>2026-04-11T14:23:19.062Z</time></trkpt><trkpt lat="45.0444367" lon="7.8936683"><ele>286.6666666666667</ele><time>2026-04-11T14:23:20.062Z</time></trkpt><trkpt lat="45.044385" lon="7.89375"><ele>285.8333333333333</ele><time>2026-04-11T14:23:21.063Z</time></trkpt><trkpt lat="45.0443383" lon="7.893835"><ele>285.0</ele><time>2026-04-11T14:23:22.063Z</time></trkpt><trkpt lat="45.0442967" lon="7.8939233"><ele>285.0</ele><time>2026-04-11T14:23:23.062Z</time></trkpt><trkpt lat="45.0442583" lon="7.8940117"><ele>285.0</ele><time>2026-04-11T14:23:24.061Z</time></trkpt><trkpt lat="45.0442183" lon="7.8941"><ele>285.0</ele><time>2026-04-11T14:23:25.062Z</time></trkpt><trkpt lat="45.0441833" lon="7.8941917"><ele>285.0</ele><time>2026-04-11T14:23:26.061Z</time></trkpt><trkpt lat="45.0441517" lon="7.8942817"><ele>285.0</ele><time>2026-04-11T14:23:27.061Z</time></trkpt><trkpt lat="45.0441233" lon="7.8943733"><ele>285.0</ele><time>2026-04-11T14:23:28.06Z</time></trkpt><trkpt lat="45.044095" lon="7.8944667"><ele>285.0</ele><time>2026-04-11T14:23:29.061Z</time></trkpt><trkpt lat="45.0440667" lon="7.89456"><ele>284.8333333333333</ele><time>2026-04-11T14:23:30.059Z</time></trkpt><trkpt lat="45.0440417" lon="7.8946533"><ele>284.6666666666667</ele><time>2026-04-11T14:23:31.059Z</time></trkpt><trkpt lat="45.04402" lon="7.89475"><ele>284.5</ele><time>2026-04-11T14:23:32.062Z</time></trkpt><trkpt lat="45.0440017" lon="7.894845"><ele>284.33333333333337</ele><time>2026-04-11T14:23:33.061Z</time></trkpt><trkpt lat="45.0439817" lon="7.8949417"><ele>284.1666666666667</ele><time>2026-04-11T14:23:34.06Z</time></trkpt><trkpt lat="45.04396" lon="7.8950383"><ele>284.0</ele><time>2026-04-11T14:23:35.061Z</time></trkpt><trkpt lat="45.04392" lon="7.8952283"><ele>284.57142857142856</ele><time>2026-04-11T14:23:37.059Z</time></trkpt><trkpt lat="45.0439017" lon="7.895325"><ele>285.1428571428571</ele><time>2026-04-11T14:23:38.059Z</time></trkpt><trkpt lat="45.0438833" lon="7.89542"><ele>285.7142857142857</ele><time>2026-04-11T14:23:39.062Z</time></trkpt><trkpt lat="45.0438583" lon="7.89551"><ele>286.2857142857143</ele><time>2026-04-11T14:23:40.061Z</time></trkpt><trkpt lat="45.0438283" lon="7.8956"><ele>286.8571428571429</ele><time>2026-04-11T14:23:41.059Z</time></trkpt><trkpt lat="45.0437933" lon="7.8956833"><ele>287.42857142857144</ele><time>2026-04-11T14:23:42.06Z</time></trkpt><trkpt lat="45.0437517" lon="7.89576"><ele>288.0</ele><time>2026-04-11T14:23:43.06Z</time></trkpt><trkpt lat="45.0437117" lon="7.8958367"><ele>288.0</ele><time>2026-04-11T14:23:44.059Z</time></trkpt><trkpt lat="45.0436667" lon="7.8959083"><ele>288.0</ele><time>2026-04-11T14:23:45.06Z</time></trkpt><trkpt lat="45.043565" lon="7.8960133"><ele>288.0</ele><time>2026-04-11T14:23:47.06Z</time></trkpt><trkpt lat="45.0434667" lon="7.8961133"><ele>288.0</ele><time>2026-04-11T14:23:49.061Z</time></trkpt><trkpt lat="45.04337" lon="7.896215"><ele>288.0</ele><time>2026-04-11T14:23:51.06Z</time></trkpt><trkpt lat="45.043275" lon="7.8963067"><ele>291.5</ele><time>2026-04-11T14:23:53.061Z</time></trkpt><trkpt lat="45.0431817" lon="7.896385"><ele>295.0</ele><time>2026-04-11T14:23:55.063Z</time></trkpt><trkpt lat="45.0430983" lon="7.8964667"><ele>298.5</ele><time>2026-04-11T14:23:57.063Z</time></trkpt><trkpt lat="45.0429733" lon="7.8966267"><ele>302.0</ele><time>2026-04-11T14:24:01.061Z</time></trkpt><trkpt lat="45.0429317" lon="7.8967183"><ele>302.5</ele><time>2026-04-11T14:24:03.061Z</time></trkpt><trkpt lat="45.0428917" lon="7.8968083"><ele>303.0</ele><time>2026-04-11T14:24:05.059Z</time></trkpt><trkpt lat="45.0428633" lon="7.8969017"><ele>303.5</ele><time>2026-04-11T14:24:07.064Z</time></trkpt><trkpt lat="45.0428367" lon="7.8969833"><ele>304.0</ele><time>2026-04-11T14:24:09.06Z</time></trkpt><trkpt lat="45.0428167" lon="7.8970683"><ele>304.5</ele><time>2026-04-11T14:24:11.063Z</time></trkpt><trkpt lat="45.0427817" lon="7.8971867"><ele>305.0</ele><time>2026-04-11T14:24:14.061Z</time></trkpt><trkpt lat="45.0427367" lon="7.8973017"><ele>305.0</ele><time>2026-04-11T14:24:17.062Z</time></trkpt><trkpt lat="45.042665" lon="7.8973833"><ele>305.0</ele><time>2026-04-11T14:24:20.059Z</time></trkpt><trkpt lat="45.0425283" lon="7.8975033"><ele>305.0</ele><time>2026-04-11T14:24:26.06Z</time></trkpt><trkpt lat="45.0424733" lon="7.8975483"><ele>305.0</ele><time>2026-04-11T14:24:28.06Z</time></trkpt><trkpt lat="45.0424167" lon="7.89759"><ele>305.0</ele><time>2026-04-11T14:24:30.061Z</time></trkpt><trkpt lat="45.0423617" lon="7.89765"><ele>304.0</ele><time>2026-04-11T14:24:32.062Z</time></trkpt><trkpt lat="45.0422883" lon="7.8977117"><ele>303.0</ele><time>2026-04-11T14:24:34.061Z</time></trkpt><trkpt lat="45.0422167" lon="7.8977717"><ele>302.0</ele><time>2026-04-11T14:24:36.06Z</time></trkpt><trkpt lat="45.04214" lon="7.8978533"><ele>301.0</ele><time>2026-04-11T14:24:38.062Z</time></trkpt><trkpt lat="45.04206" lon="7.897955"><ele>300.0</ele><time>2026-04-11T14:24:40.062Z</time></trkpt><trkpt lat="45.0419817" lon="7.8980683"><ele>300.0</ele><time>2026-04-11T14:24:42.061Z</time></trkpt><trkpt lat="45.0418433" lon="7.898335"><ele>300.0</ele><time>2026-04-11T14:24:46.061Z</time></trkpt><trkpt lat="45.0417883" lon="7.8984917"><ele>300.0</ele><time>2026-04-11T14:24:48.059Z</time></trkpt><trkpt lat="45.0417533" lon="7.89866"><ele>299.75</ele><time>2026-04-11T14:24:50.06Z</time></trkpt><trkpt lat="45.041725" lon="7.8988283"><ele>299.5</ele><time>2026-04-11T14:24:52.062Z</time></trkpt><trkpt lat="45.041705" lon="7.8989933"><ele>299.25</ele><time>2026-04-11T14:24:54.062Z</time></trkpt><trkpt lat="45.0417067" lon="7.8991567"><ele>299.0</ele><time>2026-04-11T14:24:56.061Z</time></trkpt><trkpt lat="45.0417433" lon="7.8993017"><ele>299.75</ele><time>2026-04-11T14:24:58.06Z</time></trkpt><trkpt lat="45.0418283" lon="7.89939"><ele>300.5</ele><time>2026-04-11T14:25:00.061Z</time></trkpt><trkpt lat="45.0419417" lon="7.8994133"><ele>301.25</ele><time>2026-04-11T14:25:02.061Z</time></trkpt><trkpt lat="45.0420583" lon="7.8994133"><ele>302.0</ele><time>2026-04-11T14:25:04.059Z</time></trkpt><trkpt lat="45.0422767" lon="7.89944"><ele>302.0</ele><time>2026-04-11T14:25:08.06Z</time></trkpt><trkpt lat="45.0423517" lon="7.8995267"><ele>302.0</ele><time>2026-04-11T14:25:10.058Z</time></trkpt><trkpt lat="45.042405" lon="7.8996367"><ele>302.0</ele><time>2026-04-11T14:25:12.06Z</time></trkpt><trkpt lat="45.0424567" lon="7.89976"><ele>302.0</ele><time>2026-04-11T14:25:14.061Z</time></trkpt><trkpt lat="45.0425083" lon="7.8998817"><ele>302.0</ele><time>2026-04-11T14:25:16.061Z</time></trkpt><trkpt lat="45.0425617" lon="7.899995"><ele>303.6</ele><time>2026-04-11T14:25:18.06Z</time></trkpt><trkpt lat="45.0426033" lon="7.90012"><ele>305.2</ele><time>2026-04-11T14:25:20.062Z</time></trkpt><trkpt lat="45.0426517" lon="7.9002267"><ele>306.8</ele><time>2026-04-11T14:25:22.061Z</time></trkpt><trkpt lat="45.04271" lon="7.90031"><ele>308.4</ele><time>2026-04-11T14:25:24.06Z</time></trkpt><trkpt lat="45.0427667" lon="7.9003883"><ele>310.0</ele><time>2026-04-11T14:25:26.061Z</time></trkpt><trkpt lat="45.04289" lon="7.9005183"><ele>310.0</ele><time>2026-04-11T14:25:30.063Z</time></trkpt><trkpt lat="45.0429433" lon="7.9005917"><ele>310.0</ele><time>2026-04-11T14:25:32.06Z</time></trkpt><trkpt lat="45.0429933" lon="7.9006483"><ele>310.0</ele><time>2026-04-11T14:25:34.062Z</time></trkpt><trkpt lat="45.043055" lon="7.9007017"><ele>310.0</ele><time>2026-04-11T14:25:36.061Z</time></trkpt><trkpt lat="45.043115" lon="7.9007533"><ele>310.0</ele><time>2026-04-11T14:25:38.062Z</time></trkpt><trkpt lat="45.04318" lon="7.9008"><ele>310.0</ele><time>2026-04-11T14:25:40.059Z</time></trkpt><trkpt lat="45.0432367" lon="7.900855"><ele>310.0</ele><time>2026-04-11T14:25:42.061Z</time></trkpt><trkpt lat="45.0432933" lon="7.9008983"><ele>311.6</ele><time>2026-04-11T14:25:44.061Z</time></trkpt><trkpt lat="45.0433633" lon="7.9009433"><ele>313.2</ele><time>2026-04-11T14:25:46.061Z</time></trkpt><trkpt lat="45.0434417" lon="7.9009933"><ele>314.8</ele><time>2026-04-11T14:25:49.061Z</time></trkpt><trkpt lat="45.0435867" lon="7.9010217"><ele>316.4</ele><time>2026-04-11T14:25:55.06Z</time></trkpt><trkpt lat="45.043665" lon="7.9010733"><ele>318.0</ele><time>2026-04-11T14:25:58.059Z</time></trkpt><trkpt lat="45.0437433" lon="7.9011233"><ele>318.0</ele><time>2026-04-11T14:26:01.062Z</time></trkpt><trkpt lat="45.0438283" lon="7.9011517"><ele>318.0</ele><time>2026-04-11T14:26:04.062Z</time></trkpt><trkpt lat="45.04391" lon="7.9011817"><ele>318.0</ele><time>2026-04-11T14:26:07.062Z</time></trkpt><trkpt lat="45.043975" lon="7.9012467"><ele>318.0</ele><time>2026-04-11T14:26:10.062Z</time></trkpt><trkpt lat="45.0441167" lon="7.9014667"><ele>318.5</ele><time>2026-04-11T14:26:17.062Z</time></trkpt><trkpt lat="45.0441683" lon="7.90157"><ele>319.0</ele><time>2026-04-11T14:26:20.062Z</time></trkpt><trkpt lat="45.04422" lon="7.901675"><ele>319.5</ele><time>2026-04-11T14:26:23.059Z</time></trkpt><trkpt lat="45.0442583" lon="7.9017667"><ele>320.0</ele><time>2026-04-11T14:26:26.059Z</time></trkpt><trkpt lat="45.0442917" lon="7.9018833"><ele>320.5</ele><time>2026-04-11T14:26:29.059Z</time></trkpt><trkpt lat="45.0443267" lon="7.9020033"><ele>321.0</ele><time>2026-04-11T14:26:32.061Z</time></trkpt><trkpt lat="45.04428" lon="7.902175"><ele>321.1666666666667</ele><time>2026-04-11T14:26:38.062Z</time></trkpt><trkpt lat="45.0441983" lon="7.9021967"><ele>321.3333333333333</ele><time>2026-04-11T14:26:41.06Z</time></trkpt><trkpt lat="45.0441267" lon="7.90219"><ele>321.5</ele><time>2026-04-11T14:26:44.063Z</time></trkpt><trkpt lat="45.0440483" lon="7.902205"><ele>321.66666666666663</ele><time>2026-04-11T14:26:47.059Z</time></trkpt><trkpt lat="45.0439617" lon="7.9022067"><ele>321.8333333333333</ele><time>2026-04-11T14:26:50.066Z</time></trkpt><trkpt lat="45.043895" lon="7.9022267"><ele>322.0</ele><time>2026-04-11T14:26:52.062Z</time></trkpt><trkpt lat="45.043815" lon="7.90229"><ele>322.0</ele><time>2026-04-11T14:26:54.059Z</time></trkpt><trkpt lat="45.0436267" lon="7.902485"><ele>322.0</ele><time>2026-04-11T14:26:58.062Z</time></trkpt><trkpt lat="45.04359" lon="7.90256"><ele>322.0</ele><time>2026-04-11T14:26:59.061Z</time></trkpt><trkpt lat="45.04352" lon="7.9026983"><ele>322.0</ele><time>2026-04-11T14:27:01.061Z</time></trkpt><trkpt lat="45.0434283" lon="7.9027917"><ele>322.20000000000005</ele><time>2026-04-11T14:27:03.062Z</time></trkpt><trkpt lat="45.043305" lon="7.9028067"><ele>322.4</ele><time>2026-04-11T14:27:05.059Z</time></trkpt><trkpt lat="45.0431917" lon="7.9028283"><ele>322.6</ele><time>2026-04-11T14:27:07.062Z</time></trkpt><trkpt lat="45.0431233" lon="7.90292"><ele>322.79999999999995</ele><time>2026-04-11T14:27:09.061Z</time></trkpt><trkpt lat="45.0431067" lon="7.903075"><ele>323.0</ele><time>2026-04-11T14:27:11.061Z</time></trkpt><trkpt lat="45.0430867" lon="7.9032383"><ele>321.5</ele><time>2026-04-11T14:27:13.062Z</time></trkpt><trkpt lat="45.0430033" lon="7.903325"><ele>320.0</ele><time>2026-04-11T14:27:15.06Z</time></trkpt><trkpt lat="45.0427583" lon="7.9033267"><ele>318.5</ele><time>2026-04-11T14:27:19.061Z</time></trkpt><trkpt lat="45.0426933" lon="7.9033217"><ele>317.0</ele><time>2026-04-11T14:27:20.062Z</time></trkpt><trkpt lat="45.04263" lon="7.903325"><ele>317.0</ele><time>2026-04-11T14:27:21.06Z</time></trkpt><trkpt lat="45.0425067" lon="7.903325"><ele>317.0</ele><time>2026-04-11T14:27:23.06Z</time></trkpt><trkpt lat="45.0423867" lon="7.9033117"><ele>317.0</ele><time>2026-04-11T14:27:25.063Z</time></trkpt><trkpt lat="45.0422783" lon="7.9033"><ele>317.0</ele><time>2026-04-11T14:27:27.062Z</time></trkpt><trkpt lat="45.042165" lon="7.90327"><ele>316.7142857142857</ele><time>2026-04-11T14:27:29.06Z</time></trkpt><trkpt lat="45.0421017" lon="7.9032533"><ele>316.42857142857144</ele><time>2026-04-11T14:27:30.062Z</time></trkpt><trkpt lat="45.0420317" lon="7.9032417"><ele>316.1428571428571</ele><time>2026-04-11T14:27:31.061Z</time></trkpt><trkpt lat="45.0419583" lon="7.9032283"><ele>315.8571428571429</ele><time>2026-04-11T14:27:32.062Z</time></trkpt><trkpt lat="45.0418867" lon="7.9032333"><ele>315.57142857142856</ele><time>2026-04-11T14:27:33.063Z</time></trkpt><trkpt lat="45.0418133" lon="7.9032317"><ele>315.2857142857143</ele><time>2026-04-11T14:27:34.062Z</time></trkpt><trkpt lat="45.0417383" lon="7.9032383"><ele>315.0</ele><time>2026-04-11T14:27:35.059Z</time></trkpt><trkpt lat="45.0416733" lon="7.903235"><ele>314.5</ele><time>2026-04-11T14:27:37.06Z</time></trkpt><trkpt lat="45.0414833" lon="7.90326"><ele>314.0</ele><time>2026-04-11T14:27:42.063Z</time></trkpt><trkpt lat="45.041365" lon="7.9032683"><ele>313.5</ele><time>2026-04-11T14:27:44.062Z</time></trkpt><trkpt lat="45.0412533" lon="7.9032833"><ele>313.0</ele><time>2026-04-11T14:27:46.062Z</time></trkpt><trkpt lat="45.041145" lon="7.903305"><ele>313.0</ele><time>2026-04-11T14:27:48.062Z</time></trkpt><trkpt lat="45.0410333" lon="7.9033483"><ele>313.0</ele><time>2026-04-11T14:27:50.063Z</time></trkpt><trkpt lat="45.0409717" lon="7.9033683"><ele>313.0</ele><time>2026-04-11T14:27:51.063Z</time></trkpt><trkpt lat="45.0409067" lon="7.9033833"><ele>313.0</ele><time>2026-04-11T14:27:52.062Z</time></trkpt><trkpt lat="45.0408333" lon="7.9034017"><ele>313.0</ele><time>2026-04-11T14:27:53.059Z</time></trkpt><trkpt lat="45.040755" lon="7.9034267"><ele>313.0</ele><time>2026-04-11T14:27:54.061Z</time></trkpt><trkpt lat="45.0406733" lon="7.903455"><ele>311.25</ele><time>2026-04-11T14:27:55.06Z</time></trkpt><trkpt lat="45.0405883" lon="7.903485"><ele>309.5</ele><time>2026-04-11T14:27:56.061Z</time></trkpt><trkpt lat="45.0405" lon="7.90351"><ele>307.75</ele><time>2026-04-11T14:27:57.063Z</time></trkpt><trkpt lat="45.0404067" lon="7.9035367"><ele>306.0</ele><time>2026-04-11T14:27:58.062Z</time></trkpt><trkpt lat="45.040215" lon="7.9036"><ele>306.0</ele><time>2026-04-11T14:28:00.063Z</time></trkpt><trkpt lat="45.0401117" lon="7.9036333"><ele>306.0</ele><time>2026-04-11T14:28:01.059Z</time></trkpt><trkpt lat="45.040005" lon="7.9036633"><ele>306.0</ele><time>2026-04-11T14:28:02.062Z</time></trkpt><trkpt lat="45.039895" lon="7.903695"><ele>306.0</ele><time>2026-04-11T14:28:03.063Z</time></trkpt><trkpt lat="45.03978" lon="7.90373"><ele>306.0</ele><time>2026-04-11T14:28:04.061Z</time></trkpt><trkpt lat="45.0396683" lon="7.903765"><ele>304.2</ele><time>2026-04-11T14:28:05.061Z</time></trkpt><trkpt lat="45.03956" lon="7.9037967"><ele>302.40000000000003</ele><time>2026-04-11T14:28:06.062Z</time></trkpt><trkpt lat="45.0394517" lon="7.9038267"><ele>300.6</ele><time>2026-04-11T14:28:07.062Z</time></trkpt><trkpt lat="45.0393433" lon="7.9038583"><ele>298.8</ele><time>2026-04-11T14:28:08.062Z</time></trkpt><trkpt lat="45.039235" lon="7.9038917"><ele>297.0</ele><time>2026-04-11T14:28:09.06Z</time></trkpt><trkpt lat="45.0391283" lon="7.9039217"><ele>297.0</ele><time>2026-04-11T14:28:10.062Z</time></trkpt><trkpt lat="45.039025" lon="7.9039467"><ele>297.0</ele><time>2026-04-11T14:28:11.059Z</time></trkpt><trkpt lat="45.0389233" lon="7.9039683"><ele>297.0</ele><time>2026-04-11T14:28:12.063Z</time></trkpt><trkpt lat="45.038825" lon="7.903995"><ele>297.0</ele><time>2026-04-11T14:28:13.06Z</time></trkpt><trkpt lat="45.0387267" lon="7.9040283"><ele>297.0</ele><time>2026-04-11T14:28:14.064Z</time></trkpt><trkpt lat="45.0386267" lon="7.9040633"><ele>297.0</ele><time>2026-04-11T14:28:15.063Z</time></trkpt><trkpt lat="45.0385267" lon="7.9041"><ele>297.0</ele><time>2026-04-11T14:28:16.06Z</time></trkpt><trkpt lat="45.0384317" lon="7.9041283"><ele>297.0</ele><time>2026-04-11T14:28:17.06Z</time></trkpt><trkpt lat="45.0383383" lon="7.90415"><ele>297.0</ele><time>2026-04-11T14:28:18.062Z</time></trkpt><trkpt lat="45.0382567" lon="7.9041717"><ele>297.0</ele><time>2026-04-11T14:28:19.055Z</time></trkpt><trkpt lat="45.0380983" lon="7.9042167"><ele>296.6</ele><time>2026-04-11T14:28:22.06Z</time></trkpt><trkpt lat="45.038035" lon="7.90424"><ele>296.2</ele><time>2026-04-11T14:28:24.061Z</time></trkpt><trkpt lat="45.037965" lon="7.904305"><ele>295.8</ele><time>2026-04-11T14:28:26.059Z</time></trkpt><trkpt lat="45.0378733" lon="7.9043817"><ele>295.4</ele><time>2026-04-11T14:28:28.06Z</time></trkpt><trkpt lat="45.0377833" lon="7.9044817"><ele>295.0</ele><time>2026-04-11T14:28:30.06Z</time></trkpt><trkpt lat="45.0376867" lon="7.9045867"><ele>294.75</ele><time>2026-04-11T14:28:32.061Z</time></trkpt><trkpt lat="45.0375883" lon="7.9046683"><ele>294.5</ele><time>2026-04-11T14:28:34.061Z</time></trkpt><trkpt lat="45.0374867" lon="7.9047433"><ele>294.25</ele><time>2026-04-11T14:28:36.061Z</time></trkpt><trkpt lat="45.0373817" lon="7.9048"><ele>294.0</ele><time>2026-04-11T14:28:38.059Z</time></trkpt><trkpt lat="45.0372633" lon="7.90482"><ele>294.0</ele><time>2026-04-11T14:28:40.062Z</time></trkpt><trkpt lat="45.037075" lon="7.904795"><ele>294.0</ele><time>2026-04-11T14:28:43.06Z</time></trkpt><trkpt lat="45.0370117" lon="7.9047733"><ele>294.0</ele><time>2026-04-11T14:28:44.063Z</time></trkpt><trkpt lat="45.03695" lon="7.9047467"><ele>294.0</ele><time>2026-04-11T14:28:45.063Z</time></trkpt><trkpt lat="45.0368867" lon="7.9047183"><ele>294.0</ele><time>2026-04-11T14:28:46.062Z</time></trkpt><trkpt lat="45.0368233" lon="7.9046933"><ele>294.0</ele><time>2026-04-11T14:28:47.06Z</time></trkpt><trkpt lat="45.0367083" lon="7.904645"><ele>294.0</ele><time>2026-04-11T14:28:49.062Z</time></trkpt><trkpt lat="45.0365783" lon="7.9046083"><ele>294.0</ele><time>2026-04-11T14:28:51.062Z</time></trkpt><trkpt lat="45.03651" lon="7.9045867"><ele>294.0</ele><time>2026-04-11T14:28:52.064Z</time></trkpt><trkpt lat="45.036445" lon="7.9045683"><ele>294.0</ele><time>2026-04-11T14:28:53.06Z</time></trkpt><trkpt lat="45.03638" lon="7.9045533"><ele>293.8333333333333</ele><time>2026-04-11T14:28:54.063Z</time></trkpt><trkpt lat="45.0363167" lon="7.9045417"><ele>293.6666666666667</ele><time>2026-04-11T14:28:55.062Z</time></trkpt><trkpt lat="45.0362533" lon="7.904535"><ele>293.5</ele><time>2026-04-11T14:28:56.062Z</time></trkpt><trkpt lat="45.0361883" lon="7.9045317"><ele>293.33333333333337</ele><time>2026-04-11T14:28:57.063Z</time></trkpt><trkpt lat="45.036065" lon="7.9045417"><ele>293.1666666666667</ele><time>2026-04-11T14:28:59.06Z</time></trkpt><trkpt lat="45.0359417" lon="7.90455"><ele>293.0</ele><time>2026-04-11T14:29:01.062Z</time></trkpt><trkpt lat="45.0357033" lon="7.9045633"><ele>292.99999999999994</ele><time>2026-04-11T14:29:05.06Z</time></trkpt><trkpt lat="45.03564" lon="7.904555"><ele>293.0</ele><time>2026-04-11T14:29:06.06Z</time></trkpt><trkpt lat="45.0355767" lon="7.9045383"><ele>293.0</ele><time>2026-04-11T14:29:07.061Z</time></trkpt><trkpt lat="45.0355133" lon="7.90451"><ele>293.0</ele><time>2026-04-11T14:29:08.061Z</time></trkpt><trkpt lat="45.03545" lon="7.9044783"><ele>293.0</ele><time>2026-04-11T14:29:09.065Z</time></trkpt><trkpt lat="45.035385" lon="7.9044467"><ele>292.99999999999994</ele><time>2026-04-11T14:29:10.061Z</time></trkpt><trkpt lat="45.035325" lon="7.90441"><ele>293.0</ele><time>2026-04-11T14:29:11.062Z</time></trkpt><trkpt lat="45.035265" lon="7.90437"><ele>292.99999999999994</ele><time>2026-04-11T14:29:12.061Z</time></trkpt><trkpt lat="45.0352067" lon="7.9043233"><ele>293.0</ele><time>2026-04-11T14:29:13.063Z</time></trkpt><trkpt lat="45.03515" lon="7.9042733"><ele>293.0</ele><time>2026-04-11T14:29:14.063Z</time></trkpt><trkpt lat="45.03509" lon="7.9042233"><ele>293.0</ele><time>2026-04-11T14:29:15.062Z</time></trkpt><trkpt lat="45.0350317" lon="7.904175"><ele>293.0</ele><time>2026-04-11T14:29:16.062Z</time></trkpt><trkpt lat="45.0349733" lon="7.9041267"><ele>292.99999999999994</ele><time>2026-04-11T14:29:17.061Z</time></trkpt><trkpt lat="45.0349133" lon="7.9040817"><ele>293.0</ele><time>2026-04-11T14:29:18.063Z</time></trkpt><trkpt lat="45.0348567" lon="7.90404"><ele>292.5</ele><time>2026-04-11T14:29:19.062Z</time></trkpt><trkpt lat="45.0348" lon="7.9039983"><ele>292.0</ele><time>2026-04-11T14:29:20.061Z</time></trkpt><trkpt lat="45.0346917" lon="7.9039233"><ele>291.5</ele><time>2026-04-11T14:29:22.06Z</time></trkpt><trkpt lat="45.0344633" lon="7.9037983"><ele>291.0</ele><time>2026-04-11T14:29:26.062Z</time></trkpt><trkpt lat="45.034345" lon="7.9037617"><ele>291.0</ele><time>2026-04-11T14:29:28.061Z</time></trkpt><trkpt lat="45.034225" lon="7.9037283"><ele>291.0</ele><time>2026-04-11T14:29:30.062Z</time></trkpt><trkpt lat="45.034105" lon="7.90371"><ele>291.0</ele><time>2026-04-11T14:29:32.062Z</time></trkpt><trkpt lat="45.0339817" lon="7.90371"><ele>291.0</ele><time>2026-04-11T14:29:34.059Z</time></trkpt><trkpt lat="45.0338617" lon="7.90373"><ele>292.0</ele><time>2026-04-11T14:29:36.061Z</time></trkpt><trkpt lat="45.0337983" lon="7.9037483"><ele>293.0</ele><time>2026-04-11T14:29:37.06Z</time></trkpt><trkpt lat="45.033685" lon="7.9038"><ele>294.0</ele><time>2026-04-11T14:29:39.063Z</time></trkpt><trkpt lat="45.0335833" lon="7.903865"><ele>295.0</ele><time>2026-04-11T14:29:41.06Z</time></trkpt><trkpt lat="45.0334883" lon="7.90394"><ele>296.0</ele><time>2026-04-11T14:29:43.059Z</time></trkpt><trkpt lat="45.0333083" lon="7.9040917"><ele>296.2</ele><time>2026-04-11T14:29:47.062Z</time></trkpt><trkpt lat="45.0332283" lon="7.904165"><ele>296.40000000000003</ele><time>2026-04-11T14:29:49.061Z</time></trkpt><trkpt lat="45.0331517" lon="7.90424"><ele>296.6</ele><time>2026-04-11T14:29:51.062Z</time></trkpt><trkpt lat="45.0330767" lon="7.90432"><ele>296.8</ele><time>2026-04-11T14:29:53.062Z</time></trkpt><trkpt lat="45.033005" lon="7.9044017"><ele>297.0</ele><time>2026-04-11T14:29:55.063Z</time></trkpt><trkpt lat="45.0329267" lon="7.904475"><ele>298.6</ele><time>2026-04-11T14:29:57.061Z</time></trkpt><trkpt lat="45.03285" lon="7.9045533"><ele>300.2</ele><time>2026-04-11T14:29:59.061Z</time></trkpt><trkpt lat="45.0327767" lon="7.9046367"><ele>301.8</ele><time>2026-04-11T14:30:01.061Z</time></trkpt><trkpt lat="45.0327067" lon="7.9047167"><ele>303.4</ele><time>2026-04-11T14:30:03.063Z</time></trkpt><trkpt lat="45.0326417" lon="7.90481"><ele>305.0</ele><time>2026-04-11T14:30:05.061Z</time></trkpt><trkpt lat="45.0325317" lon="7.9050033"><ele>305.5714285714286</ele><time>2026-04-11T14:30:09.063Z</time></trkpt><trkpt lat="45.0324833" lon="7.9051"><ele>306.1428571428571</ele><time>2026-04-11T14:30:11.063Z</time></trkpt><trkpt lat="45.0324367" lon="7.9051917"><ele>306.7142857142857</ele><time>2026-04-11T14:30:13.062Z</time></trkpt><trkpt lat="45.0323983" lon="7.905285"><ele>307.28571428571433</ele><time>2026-04-11T14:30:15.061Z</time></trkpt><trkpt lat="45.03236" lon="7.9053617"><ele>307.8571428571429</ele><time>2026-04-11T14:30:17.06Z</time></trkpt><trkpt lat="45.0323183" lon="7.9054367"><ele>308.42857142857144</ele><time>2026-04-11T14:30:19.06Z</time></trkpt><trkpt lat="45.0322683" lon="7.9055033"><ele>309.0</ele><time>2026-04-11T14:30:21.062Z</time></trkpt><trkpt lat="45.0322183" lon="7.9055667"><ele>309.0</ele><time>2026-04-11T14:30:23.062Z</time></trkpt><trkpt lat="45.0321633" lon="7.90562"><ele>309.0</ele><time>2026-04-11T14:30:25.063Z</time></trkpt><trkpt lat="45.0320867" lon="7.9056967"><ele>309.0</ele><time>2026-04-11T14:30:28.062Z</time></trkpt><trkpt lat="45.0319717" lon="7.9057883"><ele>309.0</ele><time>2026-04-11T14:30:32.063Z</time></trkpt><trkpt lat="45.0318983" lon="7.90582"><ele>309.0</ele><time>2026-04-11T14:30:34.062Z</time></trkpt><trkpt lat="45.0318283" lon="7.9058483"><ele>309.0</ele><time>2026-04-11T14:30:36.064Z</time></trkpt><trkpt lat="45.0317567" lon="7.9058683"><ele>309.0</ele><time>2026-04-11T14:30:38.061Z</time></trkpt><trkpt lat="45.031685" lon="7.9058867"><ele>309.0</ele><time>2026-04-11T14:30:40.061Z</time></trkpt><trkpt lat="45.03161" lon="7.9058983"><ele>309.0</ele><time>2026-04-11T14:30:42.065Z</time></trkpt><trkpt lat="45.0315317" lon="7.9058983"><ele>309.0</ele><time>2026-04-11T14:30:44.063Z</time></trkpt><trkpt lat="45.0314567" lon="7.9058933"><ele>309.0</ele><time>2026-04-11T14:30:46.062Z</time></trkpt><trkpt lat="45.03138" lon="7.90588"><ele>309.0</ele><time>2026-04-11T14:30:48.062Z</time></trkpt><trkpt lat="45.031305" lon="7.905865"><ele>308.59999999999997</ele><time>2026-04-11T14:30:50.063Z</time></trkpt><trkpt lat="45.031155" lon="7.905815"><ele>308.2</ele><time>2026-04-11T14:30:54.063Z</time></trkpt><trkpt lat="45.03108" lon="7.9057883"><ele>307.79999999999995</ele><time>2026-04-11T14:30:56.063Z</time></trkpt><trkpt lat="45.0310083" lon="7.9057583"><ele>307.4</ele><time>2026-04-11T14:30:58.061Z</time></trkpt><trkpt lat="45.0309367" lon="7.9057267"><ele>307.0</ele><time>2026-04-11T14:31:00.061Z</time></trkpt><trkpt lat="45.0308567" lon="7.905695"><ele>307.25</ele><time>2026-04-11T14:31:02.062Z</time></trkpt><trkpt lat="45.0307617" lon="7.9056633"><ele>307.5</ele><time>2026-04-11T14:31:04.064Z</time></trkpt><trkpt lat="45.030655" lon="7.90564"><ele>307.75</ele><time>2026-04-11T14:31:06.064Z</time></trkpt><trkpt lat="45.030535" lon="7.9056233"><ele>308.0</ele><time>2026-04-11T14:31:08.061Z</time></trkpt><trkpt lat="45.0304117" lon="7.9056067"><ele>308.0</ele><time>2026-04-11T14:31:10.06Z</time></trkpt><trkpt lat="45.030345" lon="7.9055917"><ele>308.0</ele><time>2026-04-11T14:31:11.059Z</time></trkpt><trkpt lat="45.0302117" lon="7.9055567"><ele>308.0</ele><time>2026-04-11T14:31:13.062Z</time></trkpt><trkpt lat="45.0300967" lon="7.905525"><ele>308.0</ele><time>2026-04-11T14:31:15.061Z</time></trkpt><trkpt lat="45.0300133" lon="7.9055183"><ele>308.0</ele><time>2026-04-11T14:31:17.061Z</time></trkpt><trkpt lat="45.02996" lon="7.9055783"><ele>307.1666666666667</ele><time>2026-04-11T14:31:19.061Z</time></trkpt><trkpt lat="45.02993" lon="7.9056883"><ele>306.33333333333337</ele><time>2026-04-11T14:31:21.063Z</time></trkpt><trkpt lat="45.0298983" lon="7.9058383"><ele>305.5</ele><time>2026-04-11T14:31:23.059Z</time></trkpt><trkpt lat="45.02988" lon="7.9059317"><ele>304.6666666666667</ele><time>2026-04-11T14:31:24.062Z</time></trkpt><trkpt lat="45.0298517" lon="7.9060283"><ele>303.8333333333333</ele><time>2026-04-11T14:31:25.063Z</time></trkpt><trkpt lat="45.0298183" lon="7.90613"><ele>303.0</ele><time>2026-04-11T14:31:26.062Z</time></trkpt><trkpt lat="45.0297883" lon="7.9062367"><ele>302.1666666666667</ele><time>2026-04-11T14:31:27.063Z</time></trkpt><trkpt lat="45.0297567" lon="7.9063467"><ele>301.3333333333333</ele><time>2026-04-11T14:31:28.06Z</time></trkpt><trkpt lat="45.0297217" lon="7.9064583"><ele>300.5</ele><time>2026-04-11T14:31:29.06Z</time></trkpt><trkpt lat="45.0296867" lon="7.9065767"><ele>299.66666666666663</ele><time>2026-04-11T14:31:30.057Z</time></trkpt><trkpt lat="45.0296533" lon="7.9066983"><ele>298.8333333333333</ele><time>2026-04-11T14:31:31.06Z</time></trkpt><trkpt lat="45.0296133" lon="7.9068217"><ele>298.0</ele><time>2026-04-11T14:31:32.059Z</time></trkpt><trkpt lat="45.0295117" lon="7.9070617"><ele>297.8333333333333</ele><time>2026-04-11T14:31:34.06Z</time></trkpt><trkpt lat="45.0294483" lon="7.907165"><ele>297.66666666666663</ele><time>2026-04-11T14:31:35.059Z</time></trkpt><trkpt lat="45.0293783" lon="7.90725"><ele>297.5</ele><time>2026-04-11T14:31:36.06Z</time></trkpt><trkpt lat="45.0292983" lon="7.9073067"><ele>297.3333333333333</ele><time>2026-04-11T14:31:37.063Z</time></trkpt><trkpt lat="45.0292233" lon="7.907345"><ele>297.1666666666667</ele><time>2026-04-11T14:31:38.062Z</time></trkpt><trkpt lat="45.0291483" lon="7.9073767"><ele>297.0</ele><time>2026-04-11T14:31:39.063Z</time></trkpt><trkpt lat="45.029075" lon="7.9073983"><ele>296.5</ele><time>2026-04-11T14:31:40.061Z</time></trkpt><trkpt lat="45.029" lon="7.907405"><ele>296.0</ele><time>2026-04-11T14:31:41.062Z</time></trkpt><trkpt lat="45.0289233" lon="7.9074033"><ele>295.5</ele><time>2026-04-11T14:31:42.062Z</time></trkpt><trkpt lat="45.0288467" lon="7.9074033"><ele>295.0</ele><time>2026-04-11T14:31:43.062Z</time></trkpt><trkpt lat="45.0287683" lon="7.90741"><ele>294.5</ele><time>2026-04-11T14:31:44.06Z</time></trkpt><trkpt lat="45.0286933" lon="7.9074283"><ele>294.0</ele><time>2026-04-11T14:31:45.062Z</time></trkpt><trkpt lat="45.028615" lon="7.9074583"><ele>294.0</ele><time>2026-04-11T14:31:46.06Z</time></trkpt><trkpt lat="45.0285433" lon="7.9074983"><ele>294.0</ele><time>2026-04-11T14:31:47.058Z</time></trkpt><trkpt lat="45.0284717" lon="7.9075417"><ele>294.0</ele><time>2026-04-11T14:31:48.059Z</time></trkpt><trkpt lat="45.0283983" lon="7.9075767"><ele>294.0</ele><time>2026-04-11T14:31:49.06Z</time></trkpt><trkpt lat="45.0283267" lon="7.9076"><ele>294.0</ele><time>2026-04-11T14:31:50.059Z</time></trkpt><trkpt lat="45.0282533" lon="7.90763"><ele>294.0</ele><time>2026-04-11T14:31:51.062Z</time></trkpt><trkpt lat="45.02818" lon="7.9076617"><ele>293.59999999999997</ele><time>2026-04-11T14:31:52.066Z</time></trkpt><trkpt lat="45.0281033" lon="7.9076917"><ele>293.2</ele><time>2026-04-11T14:31:53.061Z</time></trkpt><trkpt lat="45.0279467" lon="7.90773"><ele>292.79999999999995</ele><time>2026-04-11T14:31:55.062Z</time></trkpt><trkpt lat="45.0278617" lon="7.907735"><ele>292.4</ele><time>2026-04-11T14:31:56.062Z</time></trkpt><trkpt lat="45.0277767" lon="7.9077317"><ele>292.0</ele><time>2026-04-11T14:31:57.061Z</time></trkpt><trkpt lat="45.027695" lon="7.9077233"><ele>292.0</ele><time>2026-04-11T14:31:58.059Z</time></trkpt><trkpt lat="45.0276117" lon="7.9077167"><ele>292.0</ele><time>2026-04-11T14:31:59.061Z</time></trkpt><trkpt lat="45.0275283" lon="7.9077117"><ele>292.0</ele><time>2026-04-11T14:32:00.059Z</time></trkpt><trkpt lat="45.0274483" lon="7.9077083"><ele>292.0</ele><time>2026-04-11T14:32:01.061Z</time></trkpt><trkpt lat="45.0273683" lon="7.9077067"><ele>292.0</ele><time>2026-04-11T14:32:02.062Z</time></trkpt><trkpt lat="45.0272883" lon="7.9077017"><ele>292.0</ele><time>2026-04-11T14:32:03.062Z</time></trkpt><trkpt lat="45.02721" lon="7.9076983"><ele>291.85714285714283</ele><time>2026-04-11T14:32:04.061Z</time></trkpt><trkpt lat="45.0271333" lon="7.9076917"><ele>291.7142857142857</ele><time>2026-04-11T14:32:05.06Z</time></trkpt><trkpt lat="45.0270617" lon="7.9076867"><ele>291.57142857142856</ele><time>2026-04-11T14:32:06.063Z</time></trkpt><trkpt lat="45.0269883" lon="7.90768"><ele>291.42857142857144</ele><time>2026-04-11T14:32:07.064Z</time></trkpt><trkpt lat="45.026915" lon="7.9076683"><ele>291.2857142857143</ele><time>2026-04-11T14:32:08.062Z</time></trkpt><trkpt lat="45.0268433" lon="7.9076517"><ele>291.1428571428571</ele><time>2026-04-11T14:32:09.064Z</time></trkpt><trkpt lat="45.0267667" lon="7.9076367"><ele>291.0</ele><time>2026-04-11T14:32:10.061Z</time></trkpt><trkpt lat="45.0266917" lon="7.90762"><ele>290.6</ele><time>2026-04-11T14:32:11.062Z</time></trkpt><trkpt lat="45.0266183" lon="7.9076017"><ele>290.20000000000005</ele><time>2026-04-11T14:32:12.06Z</time></trkpt><trkpt lat="45.0265417" lon="7.9075783"><ele>289.79999999999995</ele><time>2026-04-11T14:32:13.064Z</time></trkpt><trkpt lat="45.026465" lon="7.90755"><ele>289.4</ele><time>2026-04-11T14:32:14.061Z</time></trkpt><trkpt lat="45.0263117" lon="7.90749"><ele>289.0</ele><time>2026-04-11T14:32:16.062Z</time></trkpt><trkpt lat="45.0262367" lon="7.9074583"><ele>289.0</ele><time>2026-04-11T14:32:17.06Z</time></trkpt><trkpt lat="45.0261633" lon="7.907425"><ele>289.0</ele><time>2026-04-11T14:32:18.061Z</time></trkpt><trkpt lat="45.0260867" lon="7.9073933"><ele>289.0</ele><time>2026-04-11T14:32:19.061Z</time></trkpt><trkpt lat="45.0260067" lon="7.9073617"><ele>289.0</ele><time>2026-04-11T14:32:20.061Z</time></trkpt><trkpt lat="45.0259283" lon="7.90733"><ele>289.0</ele><time>2026-04-11T14:32:21.062Z</time></trkpt><trkpt lat="45.0258467" lon="7.9072967"><ele>289.0</ele><time>2026-04-11T14:32:22.061Z</time></trkpt><trkpt lat="45.0257683" lon="7.9072633"><ele>288.5</ele><time>2026-04-11T14:32:23.06Z</time></trkpt><trkpt lat="45.02569" lon="7.90723"><ele>288.0</ele><time>2026-04-11T14:32:24.062Z</time></trkpt><trkpt lat="45.0256117" lon="7.9071983"><ele>287.5</ele><time>2026-04-11T14:32:25.065Z</time></trkpt><trkpt lat="45.0255367" lon="7.90717"><ele>287.0</ele><time>2026-04-11T14:32:26.062Z</time></trkpt><trkpt lat="45.02546" lon="7.9071383"><ele>286.5</ele><time>2026-04-11T14:32:27.063Z</time></trkpt><trkpt lat="45.0253867" lon="7.907105"><ele>286.0</ele><time>2026-04-11T14:32:28.063Z</time></trkpt><trkpt lat="45.0253133" lon="7.90708"><ele>286.0</ele><time>2026-04-11T14:32:29.062Z</time></trkpt><trkpt lat="45.02524" lon="7.9070583"><ele>286.0</ele><time>2026-04-11T14:32:30.062Z</time></trkpt><trkpt lat="45.0251667" lon="7.9070333"><ele>286.0</ele><time>2026-04-11T14:32:31.06Z</time></trkpt><trkpt lat="45.02509" lon="7.907005"><ele>286.0</ele><time>2026-04-11T14:32:32.061Z</time></trkpt><trkpt lat="45.0250183" lon="7.9069767"><ele>286.0</ele><time>2026-04-11T14:32:33.063Z</time></trkpt><trkpt lat="45.0249417" lon="7.9069517"><ele>286.0</ele><time>2026-04-11T14:32:34.062Z</time></trkpt><trkpt lat="45.0248683" lon="7.9069283"><ele>285.40000000000003</ele><time>2026-04-11T14:32:35.061Z</time></trkpt><trkpt lat="45.0247183" lon="7.9068817"><ele>284.8</ele><time>2026-04-11T14:32:37.062Z</time></trkpt><trkpt lat="45.0246433" lon="7.9068583"><ele>284.20000000000005</ele><time>2026-04-11T14:32:38.061Z</time></trkpt><trkpt lat="45.02457" lon="7.906835"><ele>283.6</ele><time>2026-04-11T14:32:39.062Z</time></trkpt><trkpt lat="45.0244917" lon="7.9068217"><ele>283.0</ele><time>2026-04-11T14:32:40.06Z</time></trkpt><trkpt lat="45.024415" lon="7.9068117"><ele>283.0</ele><time>2026-04-11T14:32:41.059Z</time></trkpt><trkpt lat="45.0243383" lon="7.9067983"><ele>283.0</ele><time>2026-04-11T14:32:42.062Z</time></trkpt><trkpt lat="45.0242617" lon="7.9067833"><ele>283.0</ele><time>2026-04-11T14:32:43.063Z</time></trkpt><trkpt lat="45.0241867" lon="7.9067683"><ele>283.0</ele><time>2026-04-11T14:32:44.061Z</time></trkpt><trkpt lat="45.0241133" lon="7.9067533"><ele>283.0</ele><time>2026-04-11T14:32:45.063Z</time></trkpt><trkpt lat="45.0240383" lon="7.906735"><ele>283.0</ele><time>2026-04-11T14:32:46.061Z</time></trkpt><trkpt lat="45.0239617" lon="7.9067183"><ele>283.3333333333333</ele><time>2026-04-11T14:32:47.061Z</time></trkpt><trkpt lat="45.0238883" lon="7.906705"><ele>283.66666666666663</ele><time>2026-04-11T14:32:48.062Z</time></trkpt><trkpt lat="45.0238117" lon="7.9066917"><ele>284.0</ele><time>2026-04-11T14:32:49.06Z</time></trkpt><trkpt lat="45.0237367" lon="7.9066733"><ele>284.3333333333333</ele><time>2026-04-11T14:32:50.061Z</time></trkpt><trkpt lat="45.0236617" lon="7.906655"><ele>284.6666666666667</ele><time>2026-04-11T14:32:51.061Z</time></trkpt><trkpt lat="45.023585" lon="7.90664"><ele>285.0</ele><time>2026-04-11T14:32:52.061Z</time></trkpt><trkpt lat="45.0235083" lon="7.9066267"><ele>285.0</ele><time>2026-04-11T14:32:53.061Z</time></trkpt><trkpt lat="45.0234367" lon="7.906615"><ele>285.0</ele><time>2026-04-11T14:32:54.062Z</time></trkpt><trkpt lat="45.023365" lon="7.9066033"><ele>285.0</ele><time>2026-04-11T14:32:55.062Z</time></trkpt><trkpt lat="45.0232917" lon="7.9065933"><ele>285.0</ele><time>2026-04-11T14:32:56.061Z</time></trkpt><trkpt lat="45.0231467" lon="7.906565"><ele>285.0</ele><time>2026-04-11T14:32:58.063Z</time></trkpt><trkpt lat="45.0230733" lon="7.90655"><ele>285.0</ele><time>2026-04-11T14:32:59.06Z</time></trkpt><trkpt lat="45.023" lon="7.9065317"><ele>285.0</ele><time>2026-04-11T14:33:00.062Z</time></trkpt><trkpt lat="45.0229267" lon="7.9065117"><ele>285.0</ele><time>2026-04-11T14:33:01.061Z</time></trkpt><trkpt lat="45.0228533" lon="7.906495"><ele>285.0</ele><time>2026-04-11T14:33:02.061Z</time></trkpt><trkpt lat="45.0227783" lon="7.9064767"><ele>285.0</ele><time>2026-04-11T14:33:03.063Z</time></trkpt><trkpt lat="45.0227033" lon="7.90646"><ele>285.0</ele><time>2026-04-11T14:33:04.061Z</time></trkpt><trkpt lat="45.0226333" lon="7.9064467"><ele>285.0</ele><time>2026-04-11T14:33:05.06Z</time></trkpt><trkpt lat="45.0225583" lon="7.9064333"><ele>285.0</ele><time>2026-04-11T14:33:06.059Z</time></trkpt><trkpt lat="45.0224817" lon="7.906415"><ele>284.6</ele><time>2026-04-11T14:33:07.063Z</time></trkpt><trkpt lat="45.0224067" lon="7.9063983"><ele>284.2</ele><time>2026-04-11T14:33:08.061Z</time></trkpt><trkpt lat="45.022335" lon="7.9063817"><ele>283.8</ele><time>2026-04-11T14:33:09.062Z</time></trkpt><trkpt lat="45.0222167" lon="7.9063683"><ele>283.4</ele><time>2026-04-11T14:33:11.061Z</time></trkpt><trkpt lat="45.022145" lon="7.906425"><ele>283.0</ele><time>2026-04-11T14:33:13.061Z</time></trkpt><trkpt lat="45.0221067" lon="7.90656"><ele>283.0</ele><time>2026-04-11T14:33:15.064Z</time></trkpt><trkpt lat="45.0220917" lon="7.9067367"><ele>283.0</ele><time>2026-04-11T14:33:17.059Z</time></trkpt><trkpt lat="45.0220733" lon="7.9069317"><ele>283.0</ele><time>2026-04-11T14:33:19.06Z</time></trkpt><trkpt lat="45.0220633" lon="7.9070283"><ele>283.0</ele><time>2026-04-11T14:33:20.062Z</time></trkpt><trkpt lat="45.0220533" lon="7.9071283"><ele>283.0</ele><time>2026-04-11T14:33:21.062Z</time></trkpt><trkpt lat="45.0220417" lon="7.9072283"><ele>282.57142857142856</ele><time>2026-04-11T14:33:22.061Z</time></trkpt><trkpt lat="45.02203" lon="7.90733"><ele>282.14285714285717</ele><time>2026-04-11T14:33:23.06Z</time></trkpt><trkpt lat="45.0220233" lon="7.9074317"><ele>281.7142857142857</ele><time>2026-04-11T14:33:24.062Z</time></trkpt><trkpt lat="45.022015" lon="7.9075367"><ele>281.2857142857143</ele><time>2026-04-11T14:33:25.059Z</time></trkpt><trkpt lat="45.0220067" lon="7.9076417"><ele>280.8571428571429</ele><time>2026-04-11T14:33:26.06Z</time></trkpt><trkpt lat="45.0219983" lon="7.9077483"><ele>280.42857142857144</ele><time>2026-04-11T14:33:27.063Z</time></trkpt><trkpt lat="45.0219917" lon="7.9078533"><ele>280.0</ele><time>2026-04-11T14:33:28.061Z</time></trkpt><trkpt lat="45.0219833" lon="7.9079567"><ele>279.85714285714283</ele><time>2026-04-11T14:33:29.06Z</time></trkpt><trkpt lat="45.021975" lon="7.90806"><ele>279.7142857142857</ele><time>2026-04-11T14:33:30.062Z</time></trkpt><trkpt lat="45.021965" lon="7.9081633"><ele>279.57142857142856</ele><time>2026-04-11T14:33:31.06Z</time></trkpt><trkpt lat="45.021955" lon="7.9082667"><ele>279.42857142857144</ele><time>2026-04-11T14:33:32.06Z</time></trkpt><trkpt lat="45.0219433" lon="7.90837"><ele>279.2857142857143</ele><time>2026-04-11T14:33:33.064Z</time></trkpt><trkpt lat="45.0219333" lon="7.9084733"><ele>279.1428571428571</ele><time>2026-04-11T14:33:34.062Z</time></trkpt><trkpt lat="45.0219233" lon="7.9085767"><ele>279.0</ele><time>2026-04-11T14:33:35.061Z</time></trkpt><trkpt lat="45.0219167" lon="7.9086817"><ele>278.8</ele><time>2026-04-11T14:33:36.061Z</time></trkpt><trkpt lat="45.0219067" lon="7.9087883"><ele>278.59999999999997</ele><time>2026-04-11T14:33:37.061Z</time></trkpt><trkpt lat="45.021895" lon="7.9088917"><ele>278.4</ele><time>2026-04-11T14:33:38.061Z</time></trkpt><trkpt lat="45.0218667" lon="7.9090967"><ele>278.2</ele><time>2026-04-11T14:33:40.062Z</time></trkpt><trkpt lat="45.0218483" lon="7.9092"><ele>278.0</ele><time>2026-04-11T14:33:41.068Z</time></trkpt><trkpt lat="45.0218267" lon="7.909305"><ele>278.0</ele><time>2026-04-11T14:33:42.061Z</time></trkpt><trkpt lat="45.0218017" lon="7.9094083"><ele>278.0</ele><time>2026-04-11T14:33:43.062Z</time></trkpt><trkpt lat="45.0217767" lon="7.9095083"><ele>278.0</ele><time>2026-04-11T14:33:44.061Z</time></trkpt><trkpt lat="45.02175" lon="7.9096083"><ele>278.0</ele><time>2026-04-11T14:33:45.062Z</time></trkpt><trkpt lat="45.0217233" lon="7.9097067"><ele>278.0</ele><time>2026-04-11T14:33:46.06Z</time></trkpt><trkpt lat="45.021695" lon="7.9098033"><ele>278.0</ele><time>2026-04-11T14:33:47.059Z</time></trkpt><trkpt lat="45.0216667" lon="7.9098983"><ele>278.0</ele><time>2026-04-11T14:33:48.064Z</time></trkpt><trkpt lat="45.0216367" lon="7.9099933"><ele>277.7142857142857</ele><time>2026-04-11T14:33:49.06Z</time></trkpt><trkpt lat="45.02161" lon="7.9100867"><ele>277.42857142857144</ele><time>2026-04-11T14:33:50.063Z</time></trkpt><trkpt lat="45.0215817" lon="7.91018"><ele>277.14285714285717</ele><time>2026-04-11T14:33:51.062Z</time></trkpt><trkpt lat="45.02155" lon="7.9102683"><ele>276.8571428571429</ele><time>2026-04-11T14:33:52.061Z</time></trkpt><trkpt lat="45.0215183" lon="7.9103583"><ele>276.5714285714286</ele><time>2026-04-11T14:33:53.061Z</time></trkpt><trkpt lat="45.02149" lon="7.9104517"><ele>276.2857142857143</ele><time>2026-04-11T14:33:54.062Z</time></trkpt><trkpt lat="45.0214617" lon="7.9105433"><ele>276.0</ele><time>2026-04-11T14:33:55.06Z</time></trkpt><trkpt lat="45.02144" lon="7.9106333"><ele>276.0</ele><time>2026-04-11T14:33:56.06Z</time></trkpt><trkpt lat="45.021425" lon="7.9107233"><ele>276.0</ele><time>2026-04-11T14:33:57.062Z</time></trkpt><trkpt lat="45.0214217" lon="7.910815"><ele>276.0</ele><time>2026-04-11T14:33:58.061Z</time></trkpt><trkpt lat="45.02143" lon="7.910905"><ele>276.0</ele><time>2026-04-11T14:33:59.059Z</time></trkpt><trkpt lat="45.0214533" lon="7.911085"><ele>276.0</ele><time>2026-04-11T14:34:01.06Z</time></trkpt><trkpt lat="45.0214567" lon="7.9111783"><ele>276.0</ele><time>2026-04-11T14:34:02.062Z</time></trkpt><trkpt lat="45.0214567" lon="7.91127"><ele>276.14285714285717</ele><time>2026-04-11T14:34:03.061Z</time></trkpt><trkpt lat="45.021455" lon="7.9113633"><ele>276.28571428571433</ele><time>2026-04-11T14:34:04.06Z</time></trkpt><trkpt lat="45.0214533" lon="7.9114583"><ele>276.42857142857144</ele><time>2026-04-11T14:34:05.061Z</time></trkpt><trkpt lat="45.021455" lon="7.9115533"><ele>276.57142857142856</ele><time>2026-04-11T14:34:06.061Z</time></trkpt><trkpt lat="45.021455" lon="7.9116467"><ele>276.71428571428567</ele><time>2026-04-11T14:34:07.061Z</time></trkpt><trkpt lat="45.0214583" lon="7.9117417"><ele>276.85714285714283</ele><time>2026-04-11T14:34:08.061Z</time></trkpt><trkpt lat="45.021465" lon="7.9118333"><ele>277.0</ele><time>2026-04-11T14:34:09.063Z</time></trkpt><trkpt lat="45.0214683" lon="7.9119267"><ele>277.8333333333333</ele><time>2026-04-11T14:34:10.06Z</time></trkpt><trkpt lat="45.021465" lon="7.9120183"><ele>278.66666666666663</ele><time>2026-04-11T14:34:11.058Z</time></trkpt><trkpt lat="45.0214567" lon="7.9121967"><ele>279.5</ele><time>2026-04-11T14:34:13.06Z</time></trkpt><trkpt lat="45.02144" lon="7.9122867"><ele>280.3333333333333</ele><time>2026-04-11T14:34:14.06Z</time></trkpt><trkpt lat="45.02142" lon="7.9123717"><ele>281.1666666666667</ele><time>2026-04-11T14:34:15.06Z</time></trkpt><trkpt lat="45.021385" lon="7.9125333"><ele>282.0</ele><time>2026-04-11T14:34:17.06Z</time></trkpt><trkpt lat="45.021345" lon="7.9126967"><ele>282.0</ele><time>2026-04-11T14:34:19.062Z</time></trkpt><trkpt lat="45.0213233" lon="7.912865"><ele>282.0</ele><time>2026-04-11T14:34:21.061Z</time></trkpt><trkpt lat="45.0213083" lon="7.9132067"><ele>282.0</ele><time>2026-04-11T14:34:25.06Z</time></trkpt><trkpt lat="45.0212817" lon="7.9133733"><ele>282.0</ele><time>2026-04-11T14:34:27.064Z</time></trkpt><trkpt lat="45.0212417" lon="7.9135333"><ele>282.0</ele><time>2026-04-11T14:34:29.061Z</time></trkpt><trkpt lat="45.0211867" lon="7.913695"><ele>282.0</ele><time>2026-04-11T14:34:31.059Z</time></trkpt><trkpt lat="45.0211567" lon="7.913775"><ele>282.0</ele><time>2026-04-11T14:34:32.059Z</time></trkpt><trkpt lat="45.02111" lon="7.913935"><ele>282.0</ele><time>2026-04-11T14:34:34.062Z</time></trkpt><trkpt lat="45.0210767" lon="7.9141"><ele>281.75</ele><time>2026-04-11T14:34:36.063Z</time></trkpt><trkpt lat="45.02106" lon="7.9142567"><ele>281.5</ele><time>2026-04-11T14:34:38.061Z</time></trkpt><trkpt lat="45.0210517" lon="7.9144117"><ele>281.25</ele><time>2026-04-11T14:34:40.057Z</time></trkpt><trkpt lat="45.02104" lon="7.91456"><ele>281.0</ele><time>2026-04-11T14:34:42.06Z</time></trkpt><trkpt lat="45.0210417" lon="7.9148533"><ele>281.0</ele><time>2026-04-11T14:34:46.061Z</time></trkpt><trkpt lat="45.0210467" lon="7.9150133"><ele>281.0</ele><time>2026-04-11T14:34:48.061Z</time></trkpt><trkpt lat="45.0210517" lon="7.9151733"><ele>281.0</ele><time>2026-04-11T14:34:50.062Z</time></trkpt><trkpt lat="45.02106" lon="7.915335"><ele>281.0</ele><time>2026-04-11T14:34:52.063Z</time></trkpt><trkpt lat="45.0210683" lon="7.915495"><ele>281.2</ele><time>2026-04-11T14:34:54.063Z</time></trkpt><trkpt lat="45.021075" lon="7.9156533"><ele>281.40000000000003</ele><time>2026-04-11T14:34:56.062Z</time></trkpt><trkpt lat="45.02109" lon="7.91581"><ele>281.6</ele><time>2026-04-11T14:34:58.062Z</time></trkpt><trkpt lat="45.0211033" lon="7.9159617"><ele>281.8</ele><time>2026-04-11T14:35:00.06Z</time></trkpt><trkpt lat="45.02111" lon="7.91611"><ele>282.0</ele><time>2026-04-11T14:35:02.061Z</time></trkpt><trkpt lat="45.0211133" lon="7.9162517"><ele>283.0</ele><time>2026-04-11T14:35:04.062Z</time></trkpt><trkpt lat="45.0211017" lon="7.916495"><ele>284.0</ele><time>2026-04-11T14:35:08.063Z</time></trkpt><trkpt lat="45.021095" lon="7.9165917"><ele>285.0</ele><time>2026-04-11T14:35:10.061Z</time></trkpt><trkpt lat="45.0210817" lon="7.9166833"><ele>286.0</ele><time>2026-04-11T14:35:12.059Z</time></trkpt><trkpt lat="45.0210667" lon="7.9167717"><ele>287.0</ele><time>2026-04-11T14:35:14.06Z</time></trkpt><trkpt lat="45.02104" lon="7.9168983"><ele>287.0</ele><time>2026-04-11T14:35:17.06Z</time></trkpt><trkpt lat="45.0210183" lon="7.91702"><ele>287.0</ele><time>2026-04-11T14:35:20.06Z</time></trkpt><trkpt lat="45.021005" lon="7.9171483"><ele>287.0</ele><time>2026-04-11T14:35:23.06Z</time></trkpt><trkpt lat="45.0209433" lon="7.917245"><ele>287.0</ele><time>2026-04-11T14:35:26.061Z</time></trkpt><trkpt lat="45.020775" lon="7.9173383"><ele>287.0</ele><time>2026-04-11T14:35:30.061Z</time></trkpt><trkpt lat="45.0206967" lon="7.9173817"><ele>287.0</ele><time>2026-04-11T14:35:32.06Z</time></trkpt><trkpt lat="45.0206083" lon="7.9174417"><ele>287.0</ele><time>2026-04-11T14:35:34.059Z</time></trkpt><trkpt lat="45.02054" lon="7.9175617"><ele>287.0</ele><time>2026-04-11T14:35:36.059Z</time></trkpt><trkpt lat="45.0205183" lon="7.9177233"><ele>287.0</ele><time>2026-04-11T14:35:38.06Z</time></trkpt><trkpt lat="45.020515" lon="7.9178133"><ele>287.0</ele><time>2026-04-11T14:35:39.064Z</time></trkpt><trkpt lat="45.0205117" lon="7.9179067"><ele>287.0</ele><time>2026-04-11T14:35:40.06Z</time></trkpt><trkpt lat="45.020505" lon="7.9180033"><ele>287.0</ele><time>2026-04-11T14:35:41.062Z</time></trkpt><trkpt lat="45.020495" lon="7.9181"><ele>287.0</ele><time>2026-04-11T14:35:42.06Z</time></trkpt><trkpt lat="45.020485" lon="7.9181983"><ele>287.0</ele><time>2026-04-11T14:35:43.062Z</time></trkpt><trkpt lat="45.020475" lon="7.9182967"><ele>287.0</ele><time>2026-04-11T14:35:44.061Z</time></trkpt><trkpt lat="45.0204667" lon="7.9184"><ele>287.0</ele><time>2026-04-11T14:35:45.061Z</time></trkpt><trkpt lat="45.0204567" lon="7.9185017"><ele>286.1666666666667</ele><time>2026-04-11T14:35:46.059Z</time></trkpt><trkpt lat="45.0204483" lon="7.9186033"><ele>285.33333333333337</ele><time>2026-04-11T14:35:47.061Z</time></trkpt><trkpt lat="45.020435" lon="7.9188067"><ele>284.5</ele><time>2026-04-11T14:35:49.059Z</time></trkpt><trkpt lat="45.0204267" lon="7.9189083"><ele>283.6666666666667</ele><time>2026-04-11T14:35:50.058Z</time></trkpt><trkpt lat="45.02042" lon="7.9190067"><ele>282.8333333333333</ele><time>2026-04-11T14:35:51.061Z</time></trkpt><trkpt lat="45.020415" lon="7.9190967"><ele>282.0</ele><time>2026-04-11T14:35:52.06Z</time></trkpt><trkpt lat="45.0204083" lon="7.9191883"><ele>282.2857142857143</ele><time>2026-04-11T14:35:53.062Z</time></trkpt><trkpt lat="45.0204017" lon="7.91928"><ele>282.57142857142856</ele><time>2026-04-11T14:35:54.06Z</time></trkpt><trkpt lat="45.0203933" lon="7.9193717"><ele>282.85714285714283</ele><time>2026-04-11T14:35:55.06Z</time></trkpt><trkpt lat="45.020385" lon="7.9194633"><ele>283.1428571428571</ele><time>2026-04-11T14:35:56.06Z</time></trkpt><trkpt lat="45.0203767" lon="7.9195517"><ele>283.4285714285714</ele><time>2026-04-11T14:35:57.062Z</time></trkpt><trkpt lat="45.020365" lon="7.9197283"><ele>283.7142857142857</ele><time>2026-04-11T14:35:59.06Z</time></trkpt><trkpt lat="45.02036" lon="7.91982"><ele>284.0</ele><time>2026-04-11T14:36:00.059Z</time></trkpt><trkpt lat="45.0203533" lon="7.919915"><ele>284.0</ele><time>2026-04-11T14:36:01.061Z</time></trkpt><trkpt lat="45.0203483" lon="7.92001"><ele>284.0</ele><time>2026-04-11T14:36:02.062Z</time></trkpt><trkpt lat="45.0203417" lon="7.9201017"><ele>284.0</ele><time>2026-04-11T14:36:03.062Z</time></trkpt><trkpt lat="45.02034" lon="7.9201933"><ele>284.0</ele><time>2026-04-11T14:36:04.061Z</time></trkpt><trkpt lat="45.0203433" lon="7.920285"><ele>284.0</ele><time>2026-04-11T14:36:05.059Z</time></trkpt><trkpt lat="45.0203517" lon="7.9204583"><ele>284.0</ele><time>2026-04-11T14:36:07.059Z</time></trkpt><trkpt lat="45.020355" lon="7.9206217"><ele>285.5</ele><time>2026-04-11T14:36:09.063Z</time></trkpt><trkpt lat="45.02035" lon="7.9209233"><ele>287.0</ele><time>2026-04-11T14:36:13.056Z</time></trkpt><trkpt lat="45.0203467" lon="7.92106"><ele>288.5</ele><time>2026-04-11T14:36:15.057Z</time></trkpt><trkpt lat="45.02034" lon="7.9211883"><ele>290.0</ele><time>2026-04-11T14:36:18.054Z</time></trkpt><trkpt lat="45.0203367" lon="7.9212833"><ele>290.0</ele><time>2026-04-11T14:36:20.055Z</time></trkpt><trkpt lat="45.0203367" lon="7.92138"><ele>290.0</ele><time>2026-04-11T14:36:22.055Z</time></trkpt><trkpt lat="45.0203367" lon="7.9214817"><ele>290.0</ele><time>2026-04-11T14:36:24.056Z</time></trkpt><trkpt lat="45.0203333" lon="7.9215817"><ele>290.0</ele><time>2026-04-11T14:36:26.061Z</time></trkpt><trkpt lat="45.0203333" lon="7.921675"><ele>290.0</ele><time>2026-04-11T14:36:28.063Z</time></trkpt><trkpt lat="45.020335" lon="7.9217683"><ele>290.0</ele><time>2026-04-11T14:36:30.063Z</time></trkpt><trkpt lat="45.02032" lon="7.9219867"><ele>290.14285714285717</ele><time>2026-04-11T14:36:35.061Z</time></trkpt><trkpt lat="45.02031" lon="7.9220783"><ele>290.28571428571433</ele><time>2026-04-11T14:36:37.058Z</time></trkpt><trkpt lat="45.0202933" lon="7.922175"><ele>290.42857142857144</ele><time>2026-04-11T14:36:39.063Z</time></trkpt><trkpt lat="45.0202783" lon="7.9222667"><ele>290.57142857142856</ele><time>2026-04-11T14:36:41.063Z</time></trkpt><trkpt lat="45.0202583" lon="7.92236"><ele>290.71428571428567</ele><time>2026-04-11T14:36:43.063Z</time></trkpt><trkpt lat="45.02024" lon="7.9224567"><ele>290.85714285714283</ele><time>2026-04-11T14:36:45.064Z</time></trkpt><trkpt lat="45.02022" lon="7.92257"><ele>291.0</ele><time>2026-04-11T14:36:47.059Z</time></trkpt><trkpt lat="45.0202" lon="7.9227017"><ele>291.0</ele><time>2026-04-11T14:36:49.06Z</time></trkpt><trkpt lat="45.020185" lon="7.9228483"><ele>291.0</ele><time>2026-04-11T14:36:51.06Z</time></trkpt><trkpt lat="45.0201667" lon="7.92312"><ele>291.0</ele><time>2026-04-11T14:36:55.061Z</time></trkpt><trkpt lat="45.0201667" lon="7.9232533"><ele>291.0</ele><time>2026-04-11T14:36:57.06Z</time></trkpt><trkpt lat="45.020165" lon="7.9234"><ele>290.75</ele><time>2026-04-11T14:36:59.06Z</time></trkpt><trkpt lat="45.0201717" lon="7.9235533"><ele>290.5</ele><time>2026-04-11T14:37:01.063Z</time></trkpt><trkpt lat="45.0201817" lon="7.9237117"><ele>290.25</ele><time>2026-04-11T14:37:03.061Z</time></trkpt><trkpt lat="45.0201917" lon="7.9238733"><ele>290.0</ele><time>2026-04-11T14:37:05.06Z</time></trkpt><trkpt lat="45.0202117" lon="7.9240333"><ele>290.0</ele><time>2026-04-11T14:37:07.061Z</time></trkpt><trkpt lat="45.02025" lon="7.9241917"><ele>290.0</ele><time>2026-04-11T14:37:09.063Z</time></trkpt><trkpt lat="45.0202867" lon="7.9243517"><ele>290.0</ele><time>2026-04-11T14:37:11.059Z</time></trkpt><trkpt lat="45.020315" lon="7.9245183"><ele>290.0</ele><time>2026-04-11T14:37:13.061Z</time></trkpt><trkpt lat="45.0203183" lon="7.9247817"><ele>289.7142857142857</ele><time>2026-04-11T14:37:16.06Z</time></trkpt><trkpt lat="45.0203133" lon="7.924875"><ele>289.42857142857144</ele><time>2026-04-11T14:37:17.061Z</time></trkpt><trkpt lat="45.020305" lon="7.9249683"><ele>289.14285714285717</ele><time>2026-04-11T14:37:18.061Z</time></trkpt><trkpt lat="45.0203" lon="7.9250633"><ele>288.8571428571429</ele><time>2026-04-11T14:37:19.062Z</time></trkpt><trkpt lat="45.0202933" lon="7.9251583"><ele>288.57142857142856</ele><time>2026-04-11T14:37:20.061Z</time></trkpt><trkpt lat="45.02029" lon="7.9252517"><ele>288.28571428571433</ele><time>2026-04-11T14:37:21.062Z</time></trkpt><trkpt lat="45.0202833" lon="7.9253417"><ele>288.0</ele><time>2026-04-11T14:37:22.06Z</time></trkpt><trkpt lat="45.020275" lon="7.9254317"><ele>287.8571428571429</ele><time>2026-04-11T14:37:23.06Z</time></trkpt><trkpt lat="45.0202633" lon="7.925525"><ele>287.7142857142857</ele><time>2026-04-11T14:37:24.062Z</time></trkpt><trkpt lat="45.02025" lon="7.9256183"><ele>287.57142857142856</ele><time>2026-04-11T14:37:25.063Z</time></trkpt><trkpt lat="45.0202317" lon="7.9257117"><ele>287.42857142857144</ele><time>2026-04-11T14:37:26.06Z</time></trkpt><trkpt lat="45.0202083" lon="7.9258033"><ele>287.2857142857143</ele><time>2026-04-11T14:37:27.063Z</time></trkpt><trkpt lat="45.0201817" lon="7.9258933"><ele>287.14285714285717</ele><time>2026-04-11T14:37:28.06Z</time></trkpt><trkpt lat="45.020155" lon="7.9259783"><ele>287.0</ele><time>2026-04-11T14:37:29.06Z</time></trkpt><trkpt lat="45.0201267" lon="7.9260617"><ele>286.83333333333337</ele><time>2026-04-11T14:37:30.058Z</time></trkpt><trkpt lat="45.0201017" lon="7.9261467"><ele>286.6666666666667</ele><time>2026-04-11T14:37:31.059Z</time></trkpt><trkpt lat="45.02008" lon="7.926235"><ele>286.5</ele><time>2026-04-11T14:37:32.06Z</time></trkpt><trkpt lat="45.0200583" lon="7.9263233"><ele>286.3333333333333</ele><time>2026-04-11T14:37:33.061Z</time></trkpt><trkpt lat="45.02004" lon="7.9264133"><ele>286.16666666666663</ele><time>2026-04-11T14:37:34.06Z</time></trkpt><trkpt lat="45.02001" lon="7.9265933"><ele>286.0</ele><time>2026-04-11T14:37:36.06Z</time></trkpt><trkpt lat="45.0199983" lon="7.9266833"><ele>285.85714285714283</ele><time>2026-04-11T14:37:37.059Z</time></trkpt><trkpt lat="45.0199867" lon="7.926775"><ele>285.7142857142857</ele><time>2026-04-11T14:37:38.067Z</time></trkpt><trkpt lat="45.0199717" lon="7.9268667"><ele>285.57142857142856</ele><time>2026-04-11T14:37:39.061Z</time></trkpt><trkpt lat="45.0199567" lon="7.9269583"><ele>285.42857142857144</ele><time>2026-04-11T14:37:40.059Z</time></trkpt><trkpt lat="45.019945" lon="7.92705"><ele>285.2857142857143</ele><time>2026-04-11T14:37:41.06Z</time></trkpt><trkpt lat="45.0199333" lon="7.927145"><ele>285.1428571428571</ele><time>2026-04-11T14:37:42.06Z</time></trkpt><trkpt lat="45.0199233" lon="7.92724"><ele>285.0</ele><time>2026-04-11T14:37:43.06Z</time></trkpt><trkpt lat="45.0199167" lon="7.9273317"><ele>284.85714285714283</ele><time>2026-04-11T14:37:44.061Z</time></trkpt><trkpt lat="45.01991" lon="7.9274267"><ele>284.7142857142857</ele><time>2026-04-11T14:37:45.063Z</time></trkpt><trkpt lat="45.0199067" lon="7.92752"><ele>284.57142857142856</ele><time>2026-04-11T14:37:46.061Z</time></trkpt><trkpt lat="45.0199017" lon="7.9276133"><ele>284.42857142857144</ele><time>2026-04-11T14:37:47.06Z</time></trkpt><trkpt lat="45.0198967" lon="7.927705"><ele>284.2857142857143</ele><time>2026-04-11T14:37:48.058Z</time></trkpt><trkpt lat="45.0198933" lon="7.9277967"><ele>284.1428571428571</ele><time>2026-04-11T14:37:49.059Z</time></trkpt><trkpt lat="45.01989" lon="7.92789"><ele>284.0</ele><time>2026-04-11T14:37:50.056Z</time></trkpt><trkpt lat="45.0198883" lon="7.9279833"><ele>283.83333333333337</ele><time>2026-04-11T14:37:51.063Z</time></trkpt><trkpt lat="45.0198867" lon="7.9280767"><ele>283.6666666666667</ele><time>2026-04-11T14:37:52.058Z</time></trkpt><trkpt lat="45.019885" lon="7.92817"><ele>283.5</ele><time>2026-04-11T14:37:53.06Z</time></trkpt><trkpt lat="45.0198817" lon="7.928265"><ele>283.3333333333333</ele><time>2026-04-11T14:37:54.062Z</time></trkpt><trkpt lat="45.01988" lon="7.9283583"><ele>283.16666666666663</ele><time>2026-04-11T14:37:55.06Z</time></trkpt><trkpt lat="45.0198783" lon="7.9285417"><ele>283.0</ele><time>2026-04-11T14:37:57.062Z</time></trkpt><trkpt lat="45.0198783" lon="7.9286317"><ele>283.0</ele><time>2026-04-11T14:37:58.062Z</time></trkpt><trkpt lat="45.0198783" lon="7.928725"><ele>283.0</ele><time>2026-04-11T14:37:59.06Z</time></trkpt><trkpt lat="45.0198817" lon="7.92882"><ele>283.0</ele><time>2026-04-11T14:38:00.06Z</time></trkpt><trkpt lat="45.0198917" lon="7.9289133"><ele>283.0</ele><time>2026-04-11T14:38:01.062Z</time></trkpt><trkpt lat="45.019905" lon="7.929005"><ele>283.0</ele><time>2026-04-11T14:38:02.06Z</time></trkpt><trkpt lat="45.0199217" lon="7.9291"><ele>283.0</ele><time>2026-04-11T14:38:03.06Z</time></trkpt><trkpt lat="45.0199417" lon="7.929195"><ele>283.0</ele><time>2026-04-11T14:38:04.059Z</time></trkpt><trkpt lat="45.0199633" lon="7.9292917"><ele>283.14285714285717</ele><time>2026-04-11T14:38:05.06Z</time></trkpt><trkpt lat="45.0199867" lon="7.92939"><ele>283.28571428571433</ele><time>2026-04-11T14:38:06.059Z</time></trkpt><trkpt lat="45.0200133" lon="7.9294867"><ele>283.42857142857144</ele><time>2026-04-11T14:38:07.059Z</time></trkpt><trkpt lat="45.0200417" lon="7.9295817"><ele>283.57142857142856</ele><time>2026-04-11T14:38:08.061Z</time></trkpt><trkpt lat="45.0200667" lon="7.929675"><ele>283.71428571428567</ele><time>2026-04-11T14:38:09.063Z</time></trkpt><trkpt lat="45.02009" lon="7.9297667"><ele>283.85714285714283</ele><time>2026-04-11T14:38:10.061Z</time></trkpt><trkpt lat="45.0201117" lon="7.92986"><ele>284.0</ele><time>2026-04-11T14:38:11.061Z</time></trkpt><trkpt lat="45.020135" lon="7.92995"><ele>284.0</ele><time>2026-04-11T14:38:12.06Z</time></trkpt><trkpt lat="45.020155" lon="7.9300433"><ele>284.0</ele><time>2026-04-11T14:38:13.06Z</time></trkpt><trkpt lat="45.02017" lon="7.9301383"><ele>284.0</ele><time>2026-04-11T14:38:14.061Z</time></trkpt><trkpt lat="45.0201817" lon="7.9302333"><ele>284.0</ele><time>2026-04-11T14:38:15.062Z</time></trkpt><trkpt lat="45.0201883" lon="7.9303267"><ele>284.0</ele><time>2026-04-11T14:38:16.061Z</time></trkpt><trkpt lat="45.0201933" lon="7.9305133"><ele>284.0</ele><time>2026-04-11T14:38:18.059Z</time></trkpt><trkpt lat="45.020185" lon="7.9306933"><ele>284.0</ele><time>2026-04-11T14:38:20.059Z</time></trkpt><trkpt lat="45.0201783" lon="7.9307833"><ele>284.0</ele><time>2026-04-11T14:38:21.063Z</time></trkpt><trkpt lat="45.0201717" lon="7.9309583"><ele>284.0</ele><time>2026-04-11T14:38:23.059Z</time></trkpt><trkpt lat="45.0201617" lon="7.93113"><ele>284.0</ele><time>2026-04-11T14:38:25.06Z</time></trkpt><trkpt lat="45.0201517" lon="7.9312967"><ele>284.0</ele><time>2026-04-11T14:38:27.061Z</time></trkpt><trkpt lat="45.0201433" lon="7.931455"><ele>283.8</ele><time>2026-04-11T14:38:29.06Z</time></trkpt><trkpt lat="45.02013" lon="7.9316"><ele>283.59999999999997</ele><time>2026-04-11T14:38:31.062Z</time></trkpt><trkpt lat="45.0201217" lon="7.931725"><ele>283.4</ele><time>2026-04-11T14:38:33.061Z</time></trkpt><trkpt lat="45.0201117" lon="7.9318233"><ele>283.2</ele><time>2026-04-11T14:38:35.06Z</time></trkpt><trkpt lat="45.020095" lon="7.93194"><ele>283.0</ele><time>2026-04-11T14:38:38.059Z</time></trkpt><trkpt lat="45.02007" lon="7.93213"><ele>283.3333333333333</ele><time>2026-04-11T14:38:45.06Z</time></trkpt><trkpt lat="45.02006" lon="7.9322483"><ele>283.66666666666663</ele><time>2026-04-11T14:38:49.061Z</time></trkpt><trkpt lat="45.02005" lon="7.932375"><ele>284.0</ele><time>2026-04-11T14:38:52.061Z</time></trkpt><trkpt lat="45.0200433" lon="7.9324683"><ele>284.3333333333333</ele><time>2026-04-11T14:38:54.061Z</time></trkpt><trkpt lat="45.0200367" lon="7.932565"><ele>284.6666666666667</ele><time>2026-04-11T14:38:56.06Z</time></trkpt><trkpt lat="45.0200317" lon="7.9326733"><ele>285.0</ele><time>2026-04-11T14:38:58.061Z</time></trkpt><trkpt lat="45.0200267" lon="7.9327817"><ele>285.4</ele><time>2026-04-11T14:39:00.058Z</time></trkpt><trkpt lat="45.020015" lon="7.9330133"><ele>285.8</ele><time>2026-04-11T14:39:04.061Z</time></trkpt><trkpt lat="45.0200033" lon="7.93313"><ele>286.2</ele><time>2026-04-11T14:39:06.062Z</time></trkpt><trkpt lat="45.0199983" lon="7.9332467"><ele>286.6</ele><time>2026-04-11T14:39:08.062Z</time></trkpt><trkpt lat="45.0199867" lon="7.933355"><ele>287.0</ele><time>2026-04-11T14:39:10.062Z</time></trkpt><trkpt lat="45.01997" lon="7.9334683"><ele>287.0</ele><time>2026-04-11T14:39:12.061Z</time></trkpt><trkpt lat="45.0199583" lon="7.93358"><ele>287.0</ele><time>2026-04-11T14:39:14.062Z</time></trkpt><trkpt lat="45.0199517" lon="7.9336917"><ele>287.0</ele><time>2026-04-11T14:39:16.063Z</time></trkpt><trkpt lat="45.0199483" lon="7.9338"><ele>287.0</ele><time>2026-04-11T14:39:18.06Z</time></trkpt><trkpt lat="45.01995" lon="7.933915"><ele>287.0</ele><time>2026-04-11T14:39:20.062Z</time></trkpt><trkpt lat="45.0199483" lon="7.9340333"><ele>287.0</ele><time>2026-04-11T14:39:22.063Z</time></trkpt><trkpt lat="45.0199417" lon="7.9343"><ele>286.6</ele><time>2026-04-11T14:39:26.066Z</time></trkpt><trkpt lat="45.019935" lon="7.93444"><ele>286.2</ele><time>2026-04-11T14:39:28.061Z</time></trkpt><trkpt lat="45.0199217" lon="7.9345883"><ele>285.8</ele><time>2026-04-11T14:39:30.061Z</time></trkpt><trkpt lat="45.019895" lon="7.9347217"><ele>285.4</ele><time>2026-04-11T14:39:32.063Z</time></trkpt><trkpt lat="45.019875" lon="7.9348733"><ele>285.0</ele><time>2026-04-11T14:39:34.061Z</time></trkpt><trkpt lat="45.019845" lon="7.9349967"><ele>284.8</ele><time>2026-04-11T14:39:36.061Z</time></trkpt><trkpt lat="45.0197783" lon="7.9350817"><ele>284.6</ele><time>2026-04-11T14:39:38.062Z</time></trkpt><trkpt lat="45.0197333" lon="7.9351767"><ele>284.4</ele><time>2026-04-11T14:39:40.06Z</time></trkpt><trkpt lat="45.019745" lon="7.9352717"><ele>284.2</ele><time>2026-04-11T14:39:42.059Z</time></trkpt><trkpt lat="45.0197683" lon="7.93536"><ele>284.0</ele><time>2026-04-11T14:39:44.06Z</time></trkpt><trkpt lat="45.0197517" lon="7.9355933"><ele>284.0</ele><time>2026-04-11T14:39:48.06Z</time></trkpt><trkpt lat="45.0197317" lon="7.9357467"><ele>284.0</ele><time>2026-04-11T14:39:50.061Z</time></trkpt><trkpt lat="45.0197117" lon="7.93591"><ele>284.0</ele><time>2026-04-11T14:39:52.06Z</time></trkpt><trkpt lat="45.019695" lon="7.936085"><ele>284.0</ele><time>2026-04-11T14:39:54.062Z</time></trkpt><trkpt lat="45.0196883" lon="7.9361767"><ele>284.0</ele><time>2026-04-11T14:39:55.061Z</time></trkpt><trkpt lat="45.0196833" lon="7.9362683"><ele>284.0</ele><time>2026-04-11T14:39:56.062Z</time></trkpt><trkpt lat="45.0196767" lon="7.9363583"><ele>284.0</ele><time>2026-04-11T14:39:57.062Z</time></trkpt><trkpt lat="45.0196667" lon="7.93653"><ele>284.0</ele><time>2026-04-11T14:39:59.061Z</time></trkpt><trkpt lat="45.0196517" lon="7.9367"><ele>284.0</ele><time>2026-04-11T14:40:01.063Z</time></trkpt><trkpt lat="45.0196467" lon="7.93679"><ele>284.0</ele><time>2026-04-11T14:40:02.061Z</time></trkpt><trkpt lat="45.0196433" lon="7.9368817"><ele>284.0</ele><time>2026-04-11T14:40:03.061Z</time></trkpt><trkpt lat="45.0196383" lon="7.9369733"><ele>284.0</ele><time>2026-04-11T14:40:04.06Z</time></trkpt><trkpt lat="45.0196267" lon="7.9370667"><ele>284.0</ele><time>2026-04-11T14:40:05.062Z</time></trkpt><trkpt lat="45.0196067" lon="7.937255"><ele>284.0</ele><time>2026-04-11T14:40:07.062Z</time></trkpt><trkpt lat="45.019595" lon="7.9373483"><ele>284.0</ele><time>2026-04-11T14:40:08.063Z</time></trkpt><trkpt lat="45.01958" lon="7.9374433"><ele>284.0</ele><time>2026-04-11T14:40:09.059Z</time></trkpt><trkpt lat="45.019565" lon="7.9375383"><ele>284.0</ele><time>2026-04-11T14:40:10.061Z</time></trkpt><trkpt lat="45.0195517" lon="7.9376317"><ele>284.2857142857143</ele><time>2026-04-11T14:40:11.059Z</time></trkpt><trkpt lat="45.01954" lon="7.9377267"><ele>284.57142857142856</ele><time>2026-04-11T14:40:12.061Z</time></trkpt><trkpt lat="45.01953" lon="7.9378167"><ele>284.85714285714283</ele><time>2026-04-11T14:40:13.061Z</time></trkpt><trkpt lat="45.01952" lon="7.93791"><ele>285.1428571428571</ele><time>2026-04-11T14:40:14.06Z</time></trkpt><trkpt lat="45.0195083" lon="7.9380067"><ele>285.42857142857144</ele><time>2026-04-11T14:40:15.061Z</time></trkpt><trkpt lat="45.0194967" lon="7.9380967"><ele>285.71428571428567</ele><time>2026-04-11T14:40:16.061Z</time></trkpt><trkpt lat="45.0194867" lon="7.9381867"><ele>286.0</ele><time>2026-04-11T14:40:17.059Z</time></trkpt><trkpt lat="45.0194767" lon="7.9382783"><ele>285.99999999999994</ele><time>2026-04-11T14:40:18.06Z</time></trkpt><trkpt lat="45.0194667" lon="7.9383717"><ele>286.0</ele><time>2026-04-11T14:40:19.061Z</time></trkpt><trkpt lat="45.01946" lon="7.938465"><ele>286.0</ele><time>2026-04-11T14:40:20.062Z</time></trkpt><trkpt lat="45.0194533" lon="7.9385567"><ele>286.0</ele><time>2026-04-11T14:40:21.062Z</time></trkpt><trkpt lat="45.01945" lon="7.93865"><ele>286.0</ele><time>2026-04-11T14:40:22.062Z</time></trkpt><trkpt lat="45.019445" lon="7.9387433"><ele>285.99999999999994</ele><time>2026-04-11T14:40:23.062Z</time></trkpt><trkpt lat="45.0194417" lon="7.9388367"><ele>286.0</ele><time>2026-04-11T14:40:24.059Z</time></trkpt><trkpt lat="45.0194433" lon="7.9389283"><ele>286.16666666666663</ele><time>2026-04-11T14:40:25.062Z</time></trkpt><trkpt lat="45.0194417" lon="7.9390217"><ele>286.3333333333333</ele><time>2026-04-11T14:40:26.061Z</time></trkpt><trkpt lat="45.019445" lon="7.9392017"><ele>286.5</ele><time>2026-04-11T14:40:28.059Z</time></trkpt><trkpt lat="45.0194483" lon="7.9392917"><ele>286.6666666666667</ele><time>2026-04-11T14:40:29.06Z</time></trkpt><trkpt lat="45.01945" lon="7.9393817"><ele>286.83333333333337</ele><time>2026-04-11T14:40:30.059Z</time></trkpt><trkpt lat="45.0194567" lon="7.9395567"><ele>287.0</ele><time>2026-04-11T14:40:32.062Z</time></trkpt><trkpt lat="45.0194667" lon="7.9397317"><ele>287.0</ele><time>2026-04-11T14:40:34.062Z</time></trkpt><trkpt lat="45.019475" lon="7.9398233"><ele>287.0</ele><time>2026-04-11T14:40:35.06Z</time></trkpt><trkpt lat="45.0194833" lon="7.939915"><ele>287.0</ele><time>2026-04-11T14:40:36.058Z</time></trkpt><trkpt lat="45.0194933" lon="7.9400917"><ele>287.0</ele><time>2026-04-11T14:40:38.059Z</time></trkpt><trkpt lat="45.0195033" lon="7.9402617"><ele>287.0</ele><time>2026-04-11T14:40:40.058Z</time></trkpt><trkpt lat="45.019515" lon="7.9404383"><ele>287.0</ele><time>2026-04-11T14:40:42.061Z</time></trkpt><trkpt lat="45.0195217" lon="7.940535"><ele>287.0</ele><time>2026-04-11T14:40:43.06Z</time></trkpt><trkpt lat="45.019525" lon="7.9406367"><ele>287.0</ele><time>2026-04-11T14:40:44.059Z</time></trkpt><trkpt lat="45.019525" lon="7.9407417"><ele>287.0</ele><time>2026-04-11T14:40:45.062Z</time></trkpt><trkpt lat="45.0195233" lon="7.9408483"><ele>287.0</ele><time>2026-04-11T14:40:46.061Z</time></trkpt><trkpt lat="45.0195217" lon="7.940955"><ele>287.0</ele><time>2026-04-11T14:40:47.06Z</time></trkpt><trkpt lat="45.0195133" lon="7.9411683"><ele>286.5</ele><time>2026-04-11T14:40:49.061Z</time></trkpt><trkpt lat="45.0195067" lon="7.9412733"><ele>286.0</ele><time>2026-04-11T14:40:50.06Z</time></trkpt><trkpt lat="45.0194983" lon="7.9413817"><ele>285.5</ele><time>2026-04-11T14:40:51.062Z</time></trkpt><trkpt lat="45.01949" lon="7.9414883"><ele>285.0</ele><time>2026-04-11T14:40:52.062Z</time></trkpt><trkpt lat="45.01948" lon="7.9415983"><ele>284.5</ele><time>2026-04-11T14:40:53.059Z</time></trkpt><trkpt lat="45.01947" lon="7.9417083"><ele>284.0</ele><time>2026-04-11T14:40:54.062Z</time></trkpt><trkpt lat="45.0194617" lon="7.9418167"><ele>284.0</ele><time>2026-04-11T14:40:55.06Z</time></trkpt><trkpt lat="45.0194533" lon="7.9419267"><ele>284.0</ele><time>2026-04-11T14:40:56.057Z</time></trkpt><trkpt lat="45.01944" lon="7.942035"><ele>284.0</ele><time>2026-04-11T14:40:57.062Z</time></trkpt><trkpt lat="45.0194267" lon="7.9421417"><ele>284.0</ele><time>2026-04-11T14:40:58.06Z</time></trkpt><trkpt lat="45.0194133" lon="7.9422483"><ele>284.0</ele><time>2026-04-11T14:40:59.061Z</time></trkpt><trkpt lat="45.0193983" lon="7.9423517"><ele>284.0</ele><time>2026-04-11T14:41:00.061Z</time></trkpt><trkpt lat="45.019385" lon="7.942455"><ele>283.85714285714283</ele><time>2026-04-11T14:41:01.061Z</time></trkpt><trkpt lat="45.01937" lon="7.9425567"><ele>283.71428571428567</ele><time>2026-04-11T14:41:02.063Z</time></trkpt><trkpt lat="45.0193567" lon="7.94266"><ele>283.57142857142856</ele><time>2026-04-11T14:41:03.061Z</time></trkpt><trkpt lat="45.01934" lon="7.9427633"><ele>283.42857142857144</ele><time>2026-04-11T14:41:04.061Z</time></trkpt><trkpt lat="45.0193183" lon="7.94286"><ele>283.28571428571433</ele><time>2026-04-11T14:41:05.06Z</time></trkpt><trkpt lat="45.0192983" lon="7.9429533"><ele>283.14285714285717</ele><time>2026-04-11T14:41:06.06Z</time></trkpt><trkpt lat="45.019275" lon="7.943045"><ele>283.0</ele><time>2026-04-11T14:41:07.059Z</time></trkpt><trkpt lat="45.019255" lon="7.943135"><ele>283.0</ele><time>2026-04-11T14:41:08.058Z</time></trkpt><trkpt lat="45.019215" lon="7.9433183"><ele>283.0</ele><time>2026-04-11T14:41:10.063Z</time></trkpt><trkpt lat="45.0191933" lon="7.9434117"><ele>283.0</ele><time>2026-04-11T14:41:11.059Z</time></trkpt><trkpt lat="45.01917" lon="7.943505"><ele>283.0</ele><time>2026-04-11T14:41:12.058Z</time></trkpt><trkpt lat="45.0191483" lon="7.9435983"><ele>283.0</ele><time>2026-04-11T14:41:13.061Z</time></trkpt><trkpt lat="45.0191317" lon="7.9436967"><ele>283.0</ele><time>2026-04-11T14:41:14.062Z</time></trkpt><trkpt lat="45.0191217" lon="7.9437967"><ele>283.14285714285717</ele><time>2026-04-11T14:41:15.06Z</time></trkpt><trkpt lat="45.01912" lon="7.9438983"><ele>283.28571428571433</ele><time>2026-04-11T14:41:16.062Z</time></trkpt><trkpt lat="45.0191267" lon="7.944"><ele>283.42857142857144</ele><time>2026-04-11T14:41:17.059Z</time></trkpt><trkpt lat="45.019145" lon="7.9440983"><ele>283.57142857142856</ele><time>2026-04-11T14:41:18.062Z</time></trkpt><trkpt lat="45.019175" lon="7.944195"><ele>283.71428571428567</ele><time>2026-04-11T14:41:19.061Z</time></trkpt><trkpt lat="45.0192117" lon="7.9442833"><ele>283.85714285714283</ele><time>2026-04-11T14:41:20.06Z</time></trkpt><trkpt lat="45.0192567" lon="7.944365"><ele>284.0</ele><time>2026-04-11T14:41:21.06Z</time></trkpt><trkpt lat="45.0193033" lon="7.944445"><ele>283.7142857142857</ele><time>2026-04-11T14:41:22.06Z</time></trkpt><trkpt lat="45.0193483" lon="7.9445233"><ele>283.4285714285714</ele><time>2026-04-11T14:41:23.059Z</time></trkpt><trkpt lat="45.0193933" lon="7.944605"><ele>283.1428571428571</ele><time>2026-04-11T14:41:24.059Z</time></trkpt><trkpt lat="45.019435" lon="7.9446817"><ele>282.85714285714283</ele><time>2026-04-11T14:41:25.061Z</time></trkpt><trkpt lat="45.01948" lon="7.9447617"><ele>282.57142857142856</ele><time>2026-04-11T14:41:26.061Z</time></trkpt><trkpt lat="45.0195233" lon="7.9448417"><ele>282.2857142857143</ele><time>2026-04-11T14:41:27.06Z</time></trkpt><trkpt lat="45.0195667" lon="7.94492"><ele>282.0</ele><time>2026-04-11T14:41:28.059Z</time></trkpt><trkpt lat="45.0196083" lon="7.9450033"><ele>281.8333333333333</ele><time>2026-04-11T14:41:29.059Z</time></trkpt><trkpt lat="45.019695" lon="7.9451717"><ele>281.6666666666667</ele><time>2026-04-11T14:41:31.059Z</time></trkpt><trkpt lat="45.0197367" lon="7.9452533"><ele>281.5</ele><time>2026-04-11T14:41:32.058Z</time></trkpt><trkpt lat="45.0197767" lon="7.94534"><ele>281.33333333333337</ele><time>2026-04-11T14:41:33.061Z</time></trkpt><trkpt lat="45.0198117" lon="7.9454217"><ele>281.1666666666667</ele><time>2026-04-11T14:41:34.059Z</time></trkpt><trkpt lat="45.01985" lon="7.9455033"><ele>281.0</ele><time>2026-04-11T14:41:35.061Z</time></trkpt><trkpt lat="45.0198883" lon="7.9455817"><ele>281.0</ele><time>2026-04-11T14:41:36.058Z</time></trkpt><trkpt lat="45.019925" lon="7.94566"><ele>281.0</ele><time>2026-04-11T14:41:37.059Z</time></trkpt><trkpt lat="45.0199617" lon="7.9457367"><ele>281.0</ele><time>2026-04-11T14:41:38.059Z</time></trkpt><trkpt lat="45.0199967" lon="7.9458117"><ele>281.0</ele><time>2026-04-11T14:41:39.06Z</time></trkpt><trkpt lat="45.0200667" lon="7.9459567"><ele>281.0</ele><time>2026-04-11T14:41:41.059Z</time></trkpt><trkpt lat="45.02013" lon="7.9460917"><ele>281.0</ele><time>2026-04-11T14:41:43.059Z</time></trkpt><trkpt lat="45.0201883" lon="7.9462167"><ele>282.5</ele><time>2026-04-11T14:41:45.061Z</time></trkpt><trkpt lat="45.02026" lon="7.946335"><ele>284.0</ele><time>2026-04-11T14:41:47.06Z</time></trkpt><trkpt lat="45.0203317" lon="7.94646"><ele>285.5</ele><time>2026-04-11T14:41:49.06Z</time></trkpt><trkpt lat="45.0204083" lon="7.9465783"><ele>287.0</ele><time>2026-04-11T14:41:51.059Z</time></trkpt><trkpt lat="45.0205567" lon="7.9468167"><ele>287.4</ele><time>2026-04-11T14:41:55.061Z</time></trkpt><trkpt lat="45.0206317" lon="7.946915"><ele>287.79999999999995</ele><time>2026-04-11T14:41:57.061Z</time></trkpt><trkpt lat="45.0207067" lon="7.9470167"><ele>288.2</ele><time>2026-04-11T14:41:59.06Z</time></trkpt><trkpt lat="45.02078" lon="7.9471233"><ele>288.59999999999997</ele><time>2026-04-11T14:42:01.058Z</time></trkpt><trkpt lat="45.0208467" lon="7.9472333"><ele>289.0</ele><time>2026-04-11T14:42:03.062Z</time></trkpt><trkpt lat="45.0209217" lon="7.9473433"><ele>289.0</ele><time>2026-04-11T14:42:05.06Z</time></trkpt><trkpt lat="45.0209983" lon="7.9474483"><ele>289.0</ele><time>2026-04-11T14:42:07.06Z</time></trkpt><trkpt lat="45.0210767" lon="7.9475417"><ele>289.0</ele><time>2026-04-11T14:42:09.062Z</time></trkpt><trkpt lat="45.0211517" lon="7.9476583"><ele>289.0</ele><time>2026-04-11T14:42:11.061Z</time></trkpt><trkpt lat="45.0212283" lon="7.9477683"><ele>289.0</ele><time>2026-04-11T14:42:13.063Z</time></trkpt><trkpt lat="45.021385" lon="7.9479733"><ele>289.2</ele><time>2026-04-11T14:42:17.06Z</time></trkpt><trkpt lat="45.021475" lon="7.94807"><ele>289.4</ele><time>2026-04-11T14:42:19.06Z</time></trkpt><trkpt lat="45.0215433" lon="7.948155"><ele>289.6</ele><time>2026-04-11T14:42:21.06Z</time></trkpt><trkpt lat="45.0215917" lon="7.9482333"><ele>289.8</ele><time>2026-04-11T14:42:23.061Z</time></trkpt><trkpt lat="45.0216383" lon="7.94835"><ele>290.0</ele><time>2026-04-11T14:42:26.06Z</time></trkpt><trkpt lat="45.0216817" lon="7.94845"><ele>289.75</ele><time>2026-04-11T14:42:28.06Z</time></trkpt><trkpt lat="45.0217117" lon="7.948565"><ele>289.5</ele><time>2026-04-11T14:42:30.059Z</time></trkpt><trkpt lat="45.021715" lon="7.948685"><ele>289.25</ele><time>2026-04-11T14:42:32.062Z</time></trkpt><trkpt lat="45.0217017" lon="7.9488283"><ele>289.0</ele><time>2026-04-11T14:42:34.06Z</time></trkpt><trkpt lat="45.0216267" lon="7.94913"><ele>289.3333333333333</ele><time>2026-04-11T14:42:38.061Z</time></trkpt><trkpt lat="45.02159" lon="7.94929"><ele>289.66666666666663</ele><time>2026-04-11T14:42:40.062Z</time></trkpt><trkpt lat="45.0215667" lon="7.9493733"><ele>290.0</ele><time>2026-04-11T14:42:41.06Z</time></trkpt><trkpt lat="45.0215433" lon="7.9494583"><ele>290.3333333333333</ele><time>2026-04-11T14:42:42.062Z</time></trkpt><trkpt lat="45.0215167" lon="7.9495417"><ele>290.6666666666667</ele><time>2026-04-11T14:42:43.061Z</time></trkpt><trkpt lat="45.0214717" lon="7.949695"><ele>291.0</ele><time>2026-04-11T14:42:45.06Z</time></trkpt><trkpt lat="45.021435" lon="7.949845"><ele>291.0</ele><time>2026-04-11T14:42:47.061Z</time></trkpt><trkpt lat="45.021405" lon="7.9499733"><ele>291.0</ele><time>2026-04-11T14:42:49.06Z</time></trkpt><trkpt lat="45.0213783" lon="7.95007"><ele>291.0</ele><time>2026-04-11T14:42:51.063Z</time></trkpt><trkpt lat="45.0214" lon="7.9501717"><ele>291.0</ele><time>2026-04-11T14:42:54.061Z</time></trkpt><trkpt lat="45.0214683" lon="7.9502083"><ele>291.0</ele><time>2026-04-11T14:42:56.062Z</time></trkpt><trkpt lat="45.02161" lon="7.9502883"><ele>291.8333333333333</ele><time>2026-04-11T14:43:00.062Z</time></trkpt><trkpt lat="45.02169" lon="7.9503283"><ele>292.6666666666667</ele><time>2026-04-11T14:43:02.061Z</time></trkpt><trkpt lat="45.0217633" lon="7.9503783"><ele>293.5</ele><time>2026-04-11T14:43:04.06Z</time></trkpt><trkpt lat="45.0218433" lon="7.950435"><ele>294.33333333333337</ele><time>2026-04-11T14:43:06.062Z</time></trkpt><trkpt lat="45.021915" lon="7.9504817"><ele>295.1666666666667</ele><time>2026-04-11T14:43:08.06Z</time></trkpt><trkpt lat="45.021985" lon="7.95053"><ele>296.0</ele><time>2026-04-11T14:43:10.06Z</time></trkpt><trkpt lat="45.0220583" lon="7.9505767"><ele>296.0</ele><time>2026-04-11T14:43:12.058Z</time></trkpt><trkpt lat="45.0221267" lon="7.950615"><ele>296.0</ele><time>2026-04-11T14:43:14.061Z</time></trkpt><trkpt lat="45.0222083" lon="7.95065"><ele>296.0</ele><time>2026-04-11T14:43:17.061Z</time></trkpt><trkpt lat="45.0222933" lon="7.9504883"><ele>296.0</ele><time>2026-04-11T14:43:23.06Z</time></trkpt><trkpt lat="45.0223317" lon="7.9503633"><ele>296.0</ele><time>2026-04-11T14:43:26.059Z</time></trkpt><trkpt lat="45.0223633" lon="7.9502767"><ele>296.0</ele><time>2026-04-11T14:43:28.06Z</time></trkpt><trkpt lat="45.0223917" lon="7.95016"><ele>296.0</ele><time>2026-04-11T14:43:30.062Z</time></trkpt><trkpt lat="45.022435" lon="7.950045"><ele>296.0</ele><time>2026-04-11T14:43:32.06Z</time></trkpt><trkpt lat="45.0224817" lon="7.9499367"><ele>296.0</ele><time>2026-04-11T14:43:34.058Z</time></trkpt><trkpt lat="45.0225217" lon="7.9498267"><ele>296.0</ele><time>2026-04-11T14:43:36.059Z</time></trkpt><trkpt lat="45.022555" lon="7.9497017"><ele>296.5</ele><time>2026-04-11T14:43:38.06Z</time></trkpt><trkpt lat="45.0226317" lon="7.9494467"><ele>297.0</ele><time>2026-04-11T14:43:42.06Z</time></trkpt><trkpt lat="45.0226767" lon="7.94932"><ele>297.5</ele><time>2026-04-11T14:43:44.06Z</time></trkpt><trkpt lat="45.0227117" lon="7.949195"><ele>298.0</ele><time>2026-04-11T14:43:46.059Z</time></trkpt><trkpt lat="45.022745" lon="7.9490717"><ele>297.3333333333333</ele><time>2026-04-11T14:43:48.06Z</time></trkpt><trkpt lat="45.022775" lon="7.9489783"><ele>296.66666666666663</ele><time>2026-04-11T14:43:50.061Z</time></trkpt><trkpt lat="45.022805" lon="7.9488767"><ele>296.0</ele><time>2026-04-11T14:43:54.062Z</time></trkpt><trkpt lat="45.0228633" lon="7.9488217"><ele>295.3333333333333</ele><time>2026-04-11T14:43:56.059Z</time></trkpt><trkpt lat="45.0229433" lon="7.9487883"><ele>294.6666666666667</ele><time>2026-04-11T14:43:58.061Z</time></trkpt><trkpt lat="45.0230517" lon="7.9487683"><ele>294.0</ele><time>2026-04-11T14:44:00.058Z</time></trkpt><trkpt lat="45.0232717" lon="7.948745"><ele>294.25</ele><time>2026-04-11T14:44:04.06Z</time></trkpt><trkpt lat="45.0233883" lon="7.9487333"><ele>294.5</ele><time>2026-04-11T14:44:06.06Z</time></trkpt><trkpt lat="45.0234983" lon="7.9487167"><ele>294.75</ele><time>2026-04-11T14:44:08.06Z</time></trkpt><trkpt lat="45.0236183" lon="7.948705"><ele>295.0</ele><time>2026-04-11T14:44:10.061Z</time></trkpt><trkpt lat="45.0237367" lon="7.9486867"><ele>295.0</ele><time>2026-04-11T14:44:12.059Z</time></trkpt><trkpt lat="45.0238533" lon="7.94865"><ele>295.0</ele><time>2026-04-11T14:44:14.06Z</time></trkpt><trkpt lat="45.0239617" lon="7.9485983"><ele>295.0</ele><time>2026-04-11T14:44:16.059Z</time></trkpt><trkpt lat="45.0240733" lon="7.948535"><ele>295.0</ele><time>2026-04-11T14:44:18.059Z</time></trkpt><trkpt lat="45.0241833" lon="7.948465"><ele>294.66666666666663</ele><time>2026-04-11T14:44:20.061Z</time></trkpt><trkpt lat="45.0242867" lon="7.9483717"><ele>294.3333333333333</ele><time>2026-04-11T14:44:22.06Z</time></trkpt><trkpt lat="45.024485" lon="7.9481533"><ele>294.0</ele><time>2026-04-11T14:44:26.06Z</time></trkpt><trkpt lat="45.02458" lon="7.9480383"><ele>294.0</ele><time>2026-04-11T14:44:28.06Z</time></trkpt><trkpt lat="45.0246283" lon="7.9479767"><ele>294.0</ele><time>2026-04-11T14:44:29.06Z</time></trkpt><trkpt lat="45.0247233" lon="7.94787"><ele>294.0</ele><time>2026-04-11T14:44:31.06Z</time></trkpt><trkpt lat="45.0248133" lon="7.947765"><ele>294.0</ele><time>2026-04-11T14:44:33.061Z</time></trkpt><trkpt lat="45.0249033" lon="7.94766"><ele>294.0</ele><time>2026-04-11T14:44:35.06Z</time></trkpt><trkpt lat="45.0249933" lon="7.9475617"><ele>294.0</ele><time>2026-04-11T14:44:37.063Z</time></trkpt><trkpt lat="45.025085" lon="7.9474567"><ele>294.0</ele><time>2026-04-11T14:44:39.063Z</time></trkpt><trkpt lat="45.0251783" lon="7.9473517"><ele>294.0</ele><time>2026-04-11T14:44:41.061Z</time></trkpt><trkpt lat="45.025275" lon="7.947255"><ele>294.0</ele><time>2026-04-11T14:44:43.061Z</time></trkpt><trkpt lat="45.02542" lon="7.9470933"><ele>294.0</ele><time>2026-04-11T14:44:46.059Z</time></trkpt><trkpt lat="45.02547" lon="7.9470367"><ele>294.0</ele><time>2026-04-11T14:44:47.06Z</time></trkpt><trkpt lat="45.0255667" lon="7.9469267"><ele>294.0</ele><time>2026-04-11T14:44:49.061Z</time></trkpt><trkpt lat="45.0256683" lon="7.9468133"><ele>294.0</ele><time>2026-04-11T14:44:51.062Z</time></trkpt><trkpt lat="45.0257183" lon="7.946755"><ele>294.0</ele><time>2026-04-11T14:44:52.06Z</time></trkpt><trkpt lat="45.0257683" lon="7.9466933"><ele>294.0</ele><time>2026-04-11T14:44:53.059Z</time></trkpt><trkpt lat="45.02582" lon="7.9466333"><ele>293.57142857142856</ele><time>2026-04-11T14:44:54.06Z</time></trkpt><trkpt lat="45.0258733" lon="7.9465733"><ele>293.1428571428571</ele><time>2026-04-11T14:44:55.062Z</time></trkpt><trkpt lat="45.02593" lon="7.9465167"><ele>292.7142857142857</ele><time>2026-04-11T14:44:56.061Z</time></trkpt><trkpt lat="45.0259867" lon="7.9464567"><ele>292.2857142857143</ele><time>2026-04-11T14:44:57.062Z</time></trkpt><trkpt lat="45.0260417" lon="7.946395"><ele>291.85714285714283</ele><time>2026-04-11T14:44:58.059Z</time></trkpt><trkpt lat="45.0260967" lon="7.946335"><ele>291.42857142857144</ele><time>2026-04-11T14:44:59.06Z</time></trkpt><trkpt lat="45.0261517" lon="7.9462733"><ele>291.0</ele><time>2026-04-11T14:45:00.062Z</time></trkpt><trkpt lat="45.02621" lon="7.94621"><ele>291.0</ele><time>2026-04-11T14:45:01.058Z</time></trkpt><trkpt lat="45.026265" lon="7.9461467"><ele>291.0</ele><time>2026-04-11T14:45:02.059Z</time></trkpt><trkpt lat="45.02632" lon="7.9460833"><ele>291.0</ele><time>2026-04-11T14:45:03.067Z</time></trkpt><trkpt lat="45.0263767" lon="7.94602"><ele>291.0</ele><time>2026-04-11T14:45:04.06Z</time></trkpt><trkpt lat="45.0264917" lon="7.9458917"><ele>291.0</ele><time>2026-04-11T14:45:06.061Z</time></trkpt><trkpt lat="45.0265467" lon="7.94583"><ele>291.0</ele><time>2026-04-11T14:45:07.061Z</time></trkpt><trkpt lat="45.0266033" lon="7.94577"><ele>290.7142857142857</ele><time>2026-04-11T14:45:08.064Z</time></trkpt><trkpt lat="45.0266583" lon="7.94571"><ele>290.4285714285714</ele><time>2026-04-11T14:45:09.063Z</time></trkpt><trkpt lat="45.0267133" lon="7.9456517"><ele>290.1428571428571</ele><time>2026-04-11T14:45:10.06Z</time></trkpt><trkpt lat="45.0267683" lon="7.94559"><ele>289.85714285714283</ele><time>2026-04-11T14:45:11.062Z</time></trkpt><trkpt lat="45.0268233" lon="7.9455283"><ele>289.57142857142856</ele><time>2026-04-11T14:45:12.058Z</time></trkpt><trkpt lat="45.0268767" lon="7.9454667"><ele>289.2857142857143</ele><time>2026-04-11T14:45:13.059Z</time></trkpt><trkpt lat="45.0269283" lon="7.9454083"><ele>289.0</ele><time>2026-04-11T14:45:14.06Z</time></trkpt><trkpt lat="45.0269783" lon="7.9453517"><ele>289.0</ele><time>2026-04-11T14:45:15.059Z</time></trkpt><trkpt lat="45.0270283" lon="7.945295"><ele>289.0</ele><time>2026-04-11T14:45:16.061Z</time></trkpt><trkpt lat="45.02713" lon="7.9451867"><ele>289.0</ele><time>2026-04-11T14:45:18.058Z</time></trkpt><trkpt lat="45.02718" lon="7.94513"><ele>289.0</ele><time>2026-04-11T14:45:19.059Z</time></trkpt><trkpt lat="45.027275" lon="7.9450233"><ele>289.0</ele><time>2026-04-11T14:45:21.061Z</time></trkpt><trkpt lat="45.0273683" lon="7.9449183"><ele>289.0</ele><time>2026-04-11T14:45:23.058Z</time></trkpt><trkpt lat="45.02745" lon="7.9448183"><ele>289.0</ele><time>2026-04-11T14:45:25.061Z</time></trkpt><trkpt lat="45.0276267" lon="7.9446783"><ele>289.0</ele><time>2026-04-11T14:45:29.06Z</time></trkpt><trkpt lat="45.0277367" lon="7.9446683"><ele>289.0</ele><time>2026-04-11T14:45:31.06Z</time></trkpt><trkpt lat="45.0278517" lon="7.944675"><ele>289.2</ele><time>2026-04-11T14:45:33.059Z</time></trkpt><trkpt lat="45.0279633" lon="7.94467"><ele>289.4</ele><time>2026-04-11T14:45:35.059Z</time></trkpt><trkpt lat="45.0280733" lon="7.94467"><ele>289.6</ele><time>2026-04-11T14:45:37.059Z</time></trkpt><trkpt lat="45.0281783" lon="7.9446667"><ele>289.8</ele><time>2026-04-11T14:45:39.062Z</time></trkpt><trkpt lat="45.0282883" lon="7.94465"><ele>290.0</ele><time>2026-04-11T14:45:41.058Z</time></trkpt><trkpt lat="45.02839" lon="7.94464"><ele>290.25</ele><time>2026-04-11T14:45:43.06Z</time></trkpt><trkpt lat="45.0284817" lon="7.9446267"><ele>290.5</ele><time>2026-04-11T14:45:45.061Z</time></trkpt><trkpt lat="45.0285767" lon="7.9446167"><ele>290.75</ele><time>2026-04-11T14:45:47.058Z</time></trkpt><trkpt lat="45.0287517" lon="7.9445767"><ele>291.0</ele><time>2026-04-11T14:45:51.061Z</time></trkpt><trkpt lat="45.02884" lon="7.9445533"><ele>291.0</ele><time>2026-04-11T14:45:53.058Z</time></trkpt><trkpt lat="45.02893" lon="7.9445217"><ele>291.0</ele><time>2026-04-11T14:45:55.059Z</time></trkpt><trkpt lat="45.0290233" lon="7.944495"><ele>291.0</ele><time>2026-04-11T14:45:57.063Z</time></trkpt><trkpt lat="45.0291183" lon="7.94446"><ele>291.0</ele><time>2026-04-11T14:45:59.058Z</time></trkpt><trkpt lat="45.029215" lon="7.9444433"><ele>291.0</ele><time>2026-04-11T14:46:01.059Z</time></trkpt><trkpt lat="45.0293117" lon="7.94443"><ele>291.5</ele><time>2026-04-11T14:46:03.062Z</time></trkpt><trkpt lat="45.02941" lon="7.94442"><ele>292.0</ele><time>2026-04-11T14:46:05.06Z</time></trkpt><trkpt lat="45.0295067" lon="7.9444133"><ele>292.5</ele><time>2026-04-11T14:46:07.058Z</time></trkpt><trkpt lat="45.0296033" lon="7.9444017"><ele>293.0</ele><time>2026-04-11T14:46:09.06Z</time></trkpt><trkpt lat="45.0297917" lon="7.9443967"><ele>293.0</ele><time>2026-04-11T14:46:13.062Z</time></trkpt><trkpt lat="45.0298867" lon="7.944395"><ele>293.0</ele><time>2026-04-11T14:46:15.061Z</time></trkpt><trkpt lat="45.0299833" lon="7.9443967"><ele>293.0</ele><time>2026-04-11T14:46:17.059Z</time></trkpt><trkpt lat="45.0300783" lon="7.944415"><ele>293.0</ele><time>2026-04-11T14:46:19.061Z</time></trkpt><trkpt lat="45.0301683" lon="7.9444367"><ele>293.0</ele><time>2026-04-11T14:46:21.06Z</time></trkpt><trkpt lat="45.0302583" lon="7.94446"><ele>294.4</ele><time>2026-04-11T14:46:23.06Z</time></trkpt><trkpt lat="45.0303433" lon="7.9444733"><ele>295.8</ele><time>2026-04-11T14:46:25.059Z</time></trkpt><trkpt lat="45.0304267" lon="7.9444817"><ele>297.2</ele><time>2026-04-11T14:46:27.062Z</time></trkpt><trkpt lat="45.03051" lon="7.9444867"><ele>298.6</ele><time>2026-04-11T14:46:29.061Z</time></trkpt><trkpt lat="45.03059" lon="7.9445033"><ele>300.0</ele><time>2026-04-11T14:46:31.059Z</time></trkpt><trkpt lat="45.03076" lon="7.9445183"><ele>301.0</ele><time>2026-04-11T14:46:35.058Z</time></trkpt><trkpt lat="45.0308433" lon="7.9445267"><ele>302.0</ele><time>2026-04-11T14:46:37.061Z</time></trkpt><trkpt lat="45.030925" lon="7.9445417"><ele>303.0</ele><time>2026-04-11T14:46:39.063Z</time></trkpt><trkpt lat="45.0310067" lon="7.9445533"><ele>304.0</ele><time>2026-04-11T14:46:41.06Z</time></trkpt><trkpt lat="45.0310867" lon="7.9445767"><ele>305.0</ele><time>2026-04-11T14:46:43.061Z</time></trkpt><trkpt lat="45.031165" lon="7.9445933"><ele>306.0</ele><time>2026-04-11T14:46:45.062Z</time></trkpt><trkpt lat="45.0312433" lon="7.944615"><ele>306.0</ele><time>2026-04-11T14:46:47.061Z</time></trkpt><trkpt lat="45.0313183" lon="7.9446317"><ele>306.0</ele><time>2026-04-11T14:46:49.06Z</time></trkpt><trkpt lat="45.0313883" lon="7.9446433"><ele>306.0</ele><time>2026-04-11T14:46:51.063Z</time></trkpt><trkpt lat="45.03146" lon="7.94466"><ele>306.0</ele><time>2026-04-11T14:46:53.063Z</time></trkpt><trkpt lat="45.0316033" lon="7.94471"><ele>306.0</ele><time>2026-04-11T14:46:57.062Z</time></trkpt><trkpt lat="45.0316833" lon="7.9447333"><ele>306.0</ele><time>2026-04-11T14:46:59.061Z</time></trkpt><trkpt lat="45.03177" lon="7.9447633"><ele>306.8</ele><time>2026-04-11T14:47:01.061Z</time></trkpt><trkpt lat="45.031855" lon="7.9448033"><ele>307.6</ele><time>2026-04-11T14:47:03.063Z</time></trkpt><trkpt lat="45.0319467" lon="7.9448417"><ele>308.4</ele><time>2026-04-11T14:47:05.06Z</time></trkpt><trkpt lat="45.0320483" lon="7.9448717"><ele>309.2</ele><time>2026-04-11T14:47:07.063Z</time></trkpt><trkpt lat="45.03215" lon="7.944895"><ele>310.0</ele><time>2026-04-11T14:47:09.062Z</time></trkpt><trkpt lat="45.0322467" lon="7.9449017"><ele>310.0</ele><time>2026-04-11T14:47:11.06Z</time></trkpt><trkpt lat="45.0323467" lon="7.9449117"><ele>310.0</ele><time>2026-04-11T14:47:13.062Z</time></trkpt><trkpt lat="45.03244" lon="7.9449317"><ele>310.0</ele><time>2026-04-11T14:47:15.063Z</time></trkpt><trkpt lat="45.0326317" lon="7.9449733"><ele>310.0</ele><time>2026-04-11T14:47:19.06Z</time></trkpt><trkpt lat="45.032725" lon="7.9449967"><ele>310.0</ele><time>2026-04-11T14:47:21.062Z</time></trkpt><trkpt lat="45.0328183" lon="7.945025"><ele>310.0</ele><time>2026-04-11T14:47:23.06Z</time></trkpt><trkpt lat="45.032905" lon="7.9450633"><ele>310.0</ele><time>2026-04-11T14:47:25.062Z</time></trkpt><trkpt lat="45.032985" lon="7.9451083"><ele>310.0</ele><time>2026-04-11T14:47:27.062Z</time></trkpt><trkpt lat="45.03306" lon="7.945175"><ele>310.0</ele><time>2026-04-11T14:47:29.06Z</time></trkpt><trkpt lat="45.033135" lon="7.94526"><ele>310.25</ele><time>2026-04-11T14:47:31.061Z</time></trkpt><trkpt lat="45.0332167" lon="7.9453433"><ele>310.5</ele><time>2026-04-11T14:47:33.061Z</time></trkpt><trkpt lat="45.0333083" lon="7.9454133"><ele>310.75</ele><time>2026-04-11T14:47:35.06Z</time></trkpt><trkpt lat="45.03341" lon="7.9454733"><ele>311.0</ele><time>2026-04-11T14:47:37.061Z</time></trkpt><trkpt lat="45.03363" lon="7.9454933"><ele>311.0</ele><time>2026-04-11T14:47:41.06Z</time></trkpt><trkpt lat="45.0337417" lon="7.9454767"><ele>311.0</ele><time>2026-04-11T14:47:43.061Z</time></trkpt><trkpt lat="45.0338583" lon="7.945455"><ele>311.0</ele><time>2026-04-11T14:47:45.063Z</time></trkpt><trkpt lat="45.0339717" lon="7.9454283"><ele>311.0</ele><time>2026-04-11T14:47:47.061Z</time></trkpt><trkpt lat="45.034085" lon="7.9454133"><ele>310.0</ele><time>2026-04-11T14:47:49.062Z</time></trkpt><trkpt lat="45.0342017" lon="7.94539"><ele>309.0</ele><time>2026-04-11T14:47:51.061Z</time></trkpt><trkpt lat="45.0343167" lon="7.9453683"><ele>308.0</ele><time>2026-04-11T14:47:53.058Z</time></trkpt><trkpt lat="45.0344317" lon="7.94535"><ele>307.0</ele><time>2026-04-11T14:47:55.061Z</time></trkpt><trkpt lat="45.0345433" lon="7.94533"><ele>307.0</ele><time>2026-04-11T14:47:57.061Z</time></trkpt><trkpt lat="45.0346483" lon="7.94531"><ele>307.0</ele><time>2026-04-11T14:47:59.064Z</time></trkpt><trkpt lat="45.0348467" lon="7.9452733"><ele>307.0</ele><time>2026-04-11T14:48:03.061Z</time></trkpt><trkpt lat="45.0349517" lon="7.9452533"><ele>307.0</ele><time>2026-04-11T14:48:05.061Z</time></trkpt><trkpt lat="45.03506" lon="7.945245"><ele>307.5</ele><time>2026-04-11T14:48:07.062Z</time></trkpt><trkpt lat="45.03518" lon="7.94526"><ele>308.0</ele><time>2026-04-11T14:48:09.063Z</time></trkpt><trkpt lat="45.0352433" lon="7.9452883"><ele>308.5</ele><time>2026-04-11T14:48:10.063Z</time></trkpt><trkpt lat="45.03531" lon="7.94533"><ele>309.0</ele><time>2026-04-11T14:48:11.062Z</time></trkpt><trkpt lat="45.0353733" lon="7.9453833"><ele>309.5</ele><time>2026-04-11T14:48:12.064Z</time></trkpt><trkpt lat="45.0354333" lon="7.9454433"><ele>310.0</ele><time>2026-04-11T14:48:13.062Z</time></trkpt><trkpt lat="45.035495" lon="7.945505"><ele>310.0</ele><time>2026-04-11T14:48:14.062Z</time></trkpt><trkpt lat="45.035555" lon="7.945565"><ele>310.0</ele><time>2026-04-11T14:48:15.062Z</time></trkpt><trkpt lat="45.035615" lon="7.9456267"><ele>310.0</ele><time>2026-04-11T14:48:16.063Z</time></trkpt><trkpt lat="45.035675" lon="7.9456917"><ele>310.0</ele><time>2026-04-11T14:48:17.062Z</time></trkpt><trkpt lat="45.0357283" lon="7.9457583"><ele>310.0</ele><time>2026-04-11T14:48:18.063Z</time></trkpt><trkpt lat="45.0357833" lon="7.945825"><ele>310.0</ele><time>2026-04-11T14:48:19.061Z</time></trkpt><trkpt lat="45.0358317" lon="7.945895"><ele>310.0</ele><time>2026-04-11T14:48:20.064Z</time></trkpt><trkpt lat="45.0359283" lon="7.9460367"><ele>309.8571428571429</ele><time>2026-04-11T14:48:22.061Z</time></trkpt><trkpt lat="45.0359783" lon="7.9461117"><ele>309.7142857142857</ele><time>2026-04-11T14:48:23.063Z</time></trkpt><trkpt lat="45.03603" lon="7.9461817"><ele>309.57142857142856</ele><time>2026-04-11T14:48:24.061Z</time></trkpt><trkpt lat="45.036085" lon="7.9462483"><ele>309.42857142857144</ele><time>2026-04-11T14:48:25.06Z</time></trkpt><trkpt lat="45.03614" lon="7.9463083"><ele>309.2857142857143</ele><time>2026-04-11T14:48:26.062Z</time></trkpt><trkpt lat="45.0361983" lon="7.9463683"><ele>309.14285714285717</ele><time>2026-04-11T14:48:27.064Z</time></trkpt><trkpt lat="45.0362533" lon="7.946425"><ele>309.0</ele><time>2026-04-11T14:48:28.062Z</time></trkpt><trkpt lat="45.03631" lon="7.9464783"><ele>309.0</ele><time>2026-04-11T14:48:29.06Z</time></trkpt><trkpt lat="45.03636" lon="7.9465333"><ele>309.0</ele><time>2026-04-11T14:48:30.062Z</time></trkpt><trkpt lat="45.036445" lon="7.9466383"><ele>309.0</ele><time>2026-04-11T14:48:32.06Z</time></trkpt><trkpt lat="45.0365383" lon="7.9467283"><ele>309.0</ele><time>2026-04-11T14:48:34.06Z</time></trkpt><trkpt lat="45.0366483" lon="7.9467667"><ele>309.0</ele><time>2026-04-11T14:48:36.061Z</time></trkpt><trkpt lat="45.0367633" lon="7.9467717"><ele>309.0</ele><time>2026-04-11T14:48:38.06Z</time></trkpt><trkpt lat="45.0368767" lon="7.9467817"><ele>309.0</ele><time>2026-04-11T14:48:40.061Z</time></trkpt><trkpt lat="45.03699" lon="7.9467883"><ele>309.0</ele><time>2026-04-11T14:48:42.061Z</time></trkpt><trkpt lat="45.0372167" lon="7.9467933"><ele>309.0</ele><time>2026-04-11T14:48:46.06Z</time></trkpt><trkpt lat="45.0373283" lon="7.9467817"><ele>309.0</ele><time>2026-04-11T14:48:48.062Z</time></trkpt><trkpt lat="45.037435" lon="7.946755"><ele>309.0</ele><time>2026-04-11T14:48:50.061Z</time></trkpt><trkpt lat="45.037535" lon="7.94671"><ele>309.0</ele><time>2026-04-11T14:48:52.061Z</time></trkpt><trkpt lat="45.0376317" lon="7.94665"><ele>309.0</ele><time>2026-04-11T14:48:54.06Z</time></trkpt><trkpt lat="45.03772" lon="7.9465767"><ele>310.8</ele><time>2026-04-11T14:48:56.063Z</time></trkpt><trkpt lat="45.0377967" lon="7.9465"><ele>312.59999999999997</ele><time>2026-04-11T14:48:58.062Z</time></trkpt><trkpt lat="45.0378583" lon="7.9463967"><ele>314.4</ele><time>2026-04-11T14:49:00.06Z</time></trkpt><trkpt lat="45.0378833" lon="7.94628"><ele>316.2</ele><time>2026-04-11T14:49:02.061Z</time></trkpt><trkpt lat="45.03789" lon="7.94617"><ele>318.0</ele><time>2026-04-11T14:49:04.063Z</time></trkpt><trkpt lat="45.03792" lon="7.945955"><ele>318.0</ele><time>2026-04-11T14:49:09.063Z</time></trkpt><trkpt lat="45.0380017" lon="7.945945"><ele>318.0</ele><time>2026-04-11T14:49:12.06Z</time></trkpt><trkpt lat="45.0380733" lon="7.9459617"><ele>318.0</ele><time>2026-04-11T14:49:14.062Z</time></trkpt><trkpt lat="45.0381433" lon="7.9459817"><ele>318.0</ele><time>2026-04-11T14:49:16.064Z</time></trkpt><trkpt lat="45.0382117" lon="7.9459883"><ele>318.0</ele><time>2026-04-11T14:49:18.06Z</time></trkpt><trkpt lat="45.0382833" lon="7.94598"><ele>318.0</ele><time>2026-04-11T14:49:20.061Z</time></trkpt><trkpt lat="45.03834" lon="7.94593"><ele>318.0</ele><time>2026-04-11T14:49:22.064Z</time></trkpt><trkpt lat="45.038385" lon="7.9458617"><ele>320.2</ele><time>2026-04-11T14:49:24.062Z</time></trkpt><trkpt lat="45.0384117" lon="7.9457683"><ele>322.4</ele><time>2026-04-11T14:49:26.064Z</time></trkpt><trkpt lat="45.0385167" lon="7.9456017"><ele>324.59999999999997</ele><time>2026-04-11T14:49:30.06Z</time></trkpt><trkpt lat="45.038585" lon="7.94555"><ele>326.8</ele><time>2026-04-11T14:49:32.063Z</time></trkpt><trkpt lat="45.03866" lon="7.9455067"><ele>329.0</ele><time>2026-04-11T14:49:34.062Z</time></trkpt><trkpt lat="45.0387617" lon="7.9454967"><ele>329.0</ele><time>2026-04-11T14:49:36.06Z</time></trkpt><trkpt lat="45.0388683" lon="7.9455217"><ele>329.0</ele><time>2026-04-11T14:49:38.062Z</time></trkpt><trkpt lat="45.0389767" lon="7.9455783"><ele>329.0</ele><time>2026-04-11T14:49:40.062Z</time></trkpt><trkpt lat="45.0390617" lon="7.94562"><ele>329.0</ele><time>2026-04-11T14:49:42.061Z</time></trkpt><trkpt lat="45.0391283" lon="7.9455967"><ele>329.0</ele><time>2026-04-11T14:49:44.06Z</time></trkpt><trkpt lat="45.0391667" lon="7.9455133"><ele>328.0</ele><time>2026-04-11T14:49:46.061Z</time></trkpt><trkpt lat="45.0391817" lon="7.9454083"><ele>327.0</ele><time>2026-04-11T14:49:48.061Z</time></trkpt><trkpt lat="45.0392183" lon="7.9451833"><ele>326.0</ele><time>2026-04-11T14:49:52.061Z</time></trkpt><trkpt lat="45.03924" lon="7.94505"><ele>325.0</ele><time>2026-04-11T14:49:54.061Z</time></trkpt><trkpt lat="45.0392483" lon="7.9448917"><ele>324.0</ele><time>2026-04-11T14:49:56.061Z</time></trkpt><trkpt lat="45.0392483" lon="7.9448017"><ele>323.6666666666667</ele><time>2026-04-11T14:49:57.059Z</time></trkpt><trkpt lat="45.039245" lon="7.9447067"><ele>323.3333333333333</ele><time>2026-04-11T14:49:58.06Z</time></trkpt><trkpt lat="45.0392433" lon="7.9446133"><ele>323.0</ele><time>2026-04-11T14:49:59.061Z</time></trkpt><trkpt lat="45.0392467" lon="7.9445233"><ele>322.66666666666663</ele><time>2026-04-11T14:50:00.06Z</time></trkpt><trkpt lat="45.03925" lon="7.9443583"><ele>322.3333333333333</ele><time>2026-04-11T14:50:02.061Z</time></trkpt><trkpt lat="45.03925" lon="7.9442283"><ele>322.0</ele><time>2026-04-11T14:50:04.063Z</time></trkpt><trkpt lat="45.039295" lon="7.94416"><ele>322.0</ele><time>2026-04-11T14:50:06.06Z</time></trkpt><trkpt lat="45.0393733" lon="7.9441883"><ele>322.0</ele><time>2026-04-11T14:50:08.061Z</time></trkpt><trkpt lat="45.03946" lon="7.94425"><ele>322.0</ele><time>2026-04-11T14:50:10.058Z</time></trkpt><trkpt lat="45.0396233" lon="7.944345"><ele>322.0</ele><time>2026-04-11T14:50:13.061Z</time></trkpt><trkpt lat="45.039685" lon="7.9443867"><ele>322.0</ele><time>2026-04-11T14:50:14.061Z</time></trkpt><trkpt lat="45.0397483" lon="7.9444383"><ele>322.0</ele><time>2026-04-11T14:50:15.061Z</time></trkpt><trkpt lat="45.03981" lon="7.9445083"><ele>322.0</ele><time>2026-04-11T14:50:16.06Z</time></trkpt><trkpt lat="45.0398667" lon="7.9445983"><ele>322.0</ele><time>2026-04-11T14:50:17.061Z</time></trkpt><trkpt lat="45.0399033" lon="7.944715"><ele>322.0</ele><time>2026-04-11T14:50:18.061Z</time></trkpt><trkpt lat="45.0399117" lon="7.944855"><ele>322.0</ele><time>2026-04-11T14:50:19.064Z</time></trkpt><trkpt lat="45.0399067" lon="7.9449967"><ele>322.40000000000003</ele><time>2026-04-11T14:50:20.062Z</time></trkpt><trkpt lat="45.0399033" lon="7.9451433"><ele>322.8</ele><time>2026-04-11T14:50:21.06Z</time></trkpt><trkpt lat="45.0399017" lon="7.9452933"><ele>323.2</ele><time>2026-04-11T14:50:22.062Z</time></trkpt><trkpt lat="45.0399033" lon="7.945445"><ele>323.6</ele><time>2026-04-11T14:50:23.06Z</time></trkpt><trkpt lat="45.0399183" lon="7.9455983"><ele>324.0</ele><time>2026-04-11T14:50:24.062Z</time></trkpt><trkpt lat="45.0399517" lon="7.9457467"><ele>321.4</ele><time>2026-04-11T14:50:25.063Z</time></trkpt><trkpt lat="45.0399967" lon="7.945885"><ele>318.79999999999995</ele><time>2026-04-11T14:50:26.064Z</time></trkpt><trkpt lat="45.0400367" lon="7.9460133"><ele>316.20000000000005</ele><time>2026-04-11T14:50:27.058Z</time></trkpt><trkpt lat="45.0400367" lon="7.9461567"><ele>313.6</ele><time>2026-04-11T14:50:28.062Z</time></trkpt><trkpt lat="45.0399833" lon="7.9462883"><ele>311.0</ele><time>2026-04-11T14:50:29.062Z</time></trkpt><trkpt lat="45.0399" lon="7.94638"><ele>311.0</ele><time>2026-04-11T14:50:30.061Z</time></trkpt><trkpt lat="45.03981" lon="7.9464433"><ele>311.0</ele><time>2026-04-11T14:50:31.062Z</time></trkpt><trkpt lat="45.0395967" lon="7.94652"><ele>311.0</ele><time>2026-04-11T14:50:33.064Z</time></trkpt><trkpt lat="45.0394967" lon="7.94658"><ele>311.0</ele><time>2026-04-11T14:50:34.062Z</time></trkpt><trkpt lat="45.0394183" lon="7.9466767"><ele>307.6</ele><time>2026-04-11T14:50:35.062Z</time></trkpt><trkpt lat="45.0393633" lon="7.946805"><ele>304.20000000000005</ele><time>2026-04-11T14:50:36.064Z</time></trkpt><trkpt lat="45.039325" lon="7.946945"><ele>300.79999999999995</ele><time>2026-04-11T14:50:37.063Z</time></trkpt><trkpt lat="45.0393" lon="7.9470883"><ele>297.4</ele><time>2026-04-11T14:50:38.062Z</time></trkpt><trkpt lat="45.0392817" lon="7.9472367"><ele>294.0</ele><time>2026-04-11T14:50:39.062Z</time></trkpt><trkpt lat="45.0392733" lon="7.947385"><ele>294.0</ele><time>2026-04-11T14:50:40.062Z</time></trkpt><trkpt lat="45.0392683" lon="7.947535"><ele>294.0</ele><time>2026-04-11T14:50:41.061Z</time></trkpt><trkpt lat="45.039255" lon="7.9476867"><ele>294.0</ele><time>2026-04-11T14:50:42.061Z</time></trkpt><trkpt lat="45.03922" lon="7.9478383"><ele>294.0</ele><time>2026-04-11T14:50:43.062Z</time></trkpt><trkpt lat="45.0391767" lon="7.9479883"><ele>294.0</ele><time>2026-04-11T14:50:44.063Z</time></trkpt><trkpt lat="45.0391433" lon="7.9481467"><ele>289.75</ele><time>2026-04-11T14:50:45.062Z</time></trkpt><trkpt lat="45.0391317" lon="7.9483183"><ele>285.5</ele><time>2026-04-11T14:50:46.061Z</time></trkpt><trkpt lat="45.03914" lon="7.9484933"><ele>281.25</ele><time>2026-04-11T14:50:47.059Z</time></trkpt><trkpt lat="45.03916" lon="7.948675"><ele>277.0</ele><time>2026-04-11T14:50:48.061Z</time></trkpt><trkpt lat="45.0391867" lon="7.9488583"><ele>275.0</ele><time>2026-04-11T14:50:49.062Z</time></trkpt><trkpt lat="45.039215" lon="7.949045"><ele>273.0</ele><time>2026-04-11T14:50:50.061Z</time></trkpt><trkpt lat="45.0392467" lon="7.949235"><ele>271.0</ele><time>2026-04-11T14:50:51.061Z</time></trkpt><trkpt lat="45.0392767" lon="7.9494283"><ele>269.0</ele><time>2026-04-11T14:50:52.06Z</time></trkpt><trkpt lat="45.0393267" lon="7.949805"><ele>268.25</ele><time>2026-04-11T14:50:54.058Z</time></trkpt><trkpt lat="45.0393283" lon="7.9500017"><ele>267.5</ele><time>2026-04-11T14:50:55.059Z</time></trkpt><trkpt lat="45.039305" lon="7.9502017"><ele>266.75</ele><time>2026-04-11T14:50:56.061Z</time></trkpt><trkpt lat="45.0392583" lon="7.9504"><ele>266.0</ele><time>2026-04-11T14:50:57.063Z</time></trkpt><trkpt lat="45.03919" lon="7.9505933"><ele>262.0</ele><time>2026-04-11T14:50:58.061Z</time></trkpt><trkpt lat="45.0391083" lon="7.9507833"><ele>258.0</ele><time>2026-04-11T14:50:59.059Z</time></trkpt><trkpt lat="45.039025" lon="7.950975"><ele>254.0</ele><time>2026-04-11T14:51:00.059Z</time></trkpt><trkpt lat="45.038945" lon="7.9511683"><ele>254.0</ele><time>2026-04-11T14:51:01.06Z</time></trkpt><trkpt lat="45.0388667" lon="7.9513617"><ele>254.0</ele><time>2026-04-11T14:51:02.062Z</time></trkpt><trkpt lat="45.0387933" lon="7.951555"><ele>254.0</ele><time>2026-04-11T14:51:03.061Z</time></trkpt><trkpt lat="45.03872" lon="7.951755"><ele>252.0</ele><time>2026-04-11T14:51:04.061Z</time></trkpt><trkpt lat="45.038655" lon="7.9519583"><ele>250.0</ele><time>2026-04-11T14:51:05.06Z</time></trkpt><trkpt lat="45.0386083" lon="7.95217"><ele>248.0</ele><time>2026-04-11T14:51:06.061Z</time></trkpt><trkpt lat="45.0385883" lon="7.95239"><ele>246.66666666666669</ele><time>2026-04-11T14:51:07.063Z</time></trkpt><trkpt lat="45.03859" lon="7.952615"><ele>245.33333333333331</ele><time>2026-04-11T14:51:08.06Z</time></trkpt><trkpt lat="45.03862" lon="7.952835"><ele>244.0</ele><time>2026-04-11T14:51:09.062Z</time></trkpt><trkpt lat="45.03867" lon="7.9530467"><ele>244.0</ele><time>2026-04-11T14:51:10.062Z</time></trkpt><trkpt lat="45.03873" lon="7.9532517"><ele>244.0</ele><time>2026-04-11T14:51:11.06Z</time></trkpt><trkpt lat="45.03878" lon="7.9534517"><ele>244.0</ele><time>2026-04-11T14:51:12.06Z</time></trkpt><trkpt lat="45.038825" lon="7.9536483"><ele>243.75</ele><time>2026-04-11T14:51:13.062Z</time></trkpt><trkpt lat="45.038905" lon="7.95399"><ele>243.5</ele><time>2026-04-11T14:51:15.063Z</time></trkpt><trkpt lat="45.03893" lon="7.95411"><ele>243.25</ele><time>2026-04-11T14:51:16.062Z</time></trkpt><trkpt lat="45.03895" lon="7.954215"><ele>243.0</ele><time>2026-04-11T14:51:17.061Z</time></trkpt><trkpt lat="45.0389233" lon="7.95435"><ele>242.83333333333334</ele><time>2026-04-11T14:51:19.063Z</time></trkpt><trkpt lat="45.0388317" lon="7.95446"><ele>242.66666666666669</ele><time>2026-04-11T14:51:21.064Z</time></trkpt><trkpt lat="45.03877" lon="7.9545283"><ele>242.5</ele><time>2026-04-11T14:51:22.064Z</time></trkpt><trkpt lat="45.038715" lon="7.9546017"><ele>242.33333333333334</ele><time>2026-04-11T14:51:23.061Z</time></trkpt><trkpt lat="45.0386617" lon="7.9546767"><ele>242.16666666666669</ele><time>2026-04-11T14:51:24.063Z</time></trkpt><trkpt lat="45.0386067" lon="7.9547483"><ele>242.0</ele><time>2026-04-11T14:51:25.062Z</time></trkpt><trkpt lat="45.0385517" lon="7.9548217"><ele>242.00000000000003</ele><time>2026-04-11T14:51:26.061Z</time></trkpt><trkpt lat="45.0384933" lon="7.9548933"><ele>242.0</ele><time>2026-04-11T14:51:27.063Z</time></trkpt><trkpt lat="45.038435" lon="7.9549683"><ele>242.0</ele><time>2026-04-11T14:51:28.063Z</time></trkpt><trkpt lat="45.03838" lon="7.9550433"><ele>242.0</ele><time>2026-04-11T14:51:29.06Z</time></trkpt><trkpt lat="45.0383233" lon="7.9551183"><ele>242.00000000000003</ele><time>2026-04-11T14:51:30.063Z</time></trkpt><trkpt lat="45.0382683" lon="7.9551967"><ele>242.0</ele><time>2026-04-11T14:51:31.062Z</time></trkpt><trkpt lat="45.038215" lon="7.955275"><ele>242.0</ele><time>2026-04-11T14:51:32.06Z</time></trkpt><trkpt lat="45.0381633" lon="7.9553567"><ele>242.0</ele><time>2026-04-11T14:51:33.062Z</time></trkpt><trkpt lat="45.0381117" lon="7.9554383"><ele>242.0</ele><time>2026-04-11T14:51:34.062Z</time></trkpt><trkpt lat="45.0380233" lon="7.9556133"><ele>242.0</ele><time>2026-04-11T14:51:36.063Z</time></trkpt><trkpt lat="45.03798" lon="7.9557017"><ele>242.0</ele><time>2026-04-11T14:51:37.063Z</time></trkpt><trkpt lat="45.0379417" lon="7.9557917"><ele>242.33333333333334</ele><time>2026-04-11T14:51:38.061Z</time></trkpt><trkpt lat="45.0379067" lon="7.9558833"><ele>242.66666666666669</ele><time>2026-04-11T14:51:39.062Z</time></trkpt><trkpt lat="45.0378733" lon="7.9559783"><ele>243.0</ele><time>2026-04-11T14:51:40.063Z</time></trkpt><trkpt lat="45.03784" lon="7.9560767"><ele>243.33333333333331</ele><time>2026-04-11T14:51:41.061Z</time></trkpt><trkpt lat="45.0378083" lon="7.95617"><ele>243.66666666666666</ele><time>2026-04-11T14:51:42.063Z</time></trkpt><trkpt lat="45.037775" lon="7.956265"><ele>244.0</ele><time>2026-04-11T14:51:43.062Z</time></trkpt><trkpt lat="45.0377383" lon="7.95636"><ele>243.99999999999997</ele><time>2026-04-11T14:51:44.061Z</time></trkpt><trkpt lat="45.0376983" lon="7.9564467"><ele>244.0</ele><time>2026-04-11T14:51:45.061Z</time></trkpt><trkpt lat="45.0376483" lon="7.9565233"><ele>243.99999999999997</ele><time>2026-04-11T14:51:46.062Z</time></trkpt><trkpt lat="45.037595" lon="7.956595"><ele>243.99999999999997</ele><time>2026-04-11T14:51:47.061Z</time></trkpt><trkpt lat="45.0375317" lon="7.95666"><ele>244.0</ele><time>2026-04-11T14:51:48.062Z</time></trkpt><trkpt lat="45.0374683" lon="7.9567233"><ele>243.99999999999997</ele><time>2026-04-11T14:51:49.057Z</time></trkpt><trkpt lat="45.03741" lon="7.956785"><ele>243.99999999999997</ele><time>2026-04-11T14:51:50.057Z</time></trkpt><trkpt lat="45.0373567" lon="7.9568483"><ele>244.25</ele><time>2026-04-11T14:51:51.059Z</time></trkpt><trkpt lat="45.0373067" lon="7.9569033"><ele>244.5</ele><time>2026-04-11T14:51:52.057Z</time></trkpt><trkpt lat="45.037225" lon="7.9569633"><ele>244.75</ele><time>2026-04-11T14:51:54.057Z</time></trkpt><trkpt lat="45.0371267" lon="7.9570233"><ele>245.0</ele><time>2026-04-11T14:51:56.056Z</time></trkpt><trkpt lat="45.036955" lon="7.9571567"><ele>245.0</ele><time>2026-04-11T14:51:59.059Z</time></trkpt><trkpt lat="45.0368933" lon="7.957205"><ele>245.0</ele><time>2026-04-11T14:52:00.054Z</time></trkpt><trkpt lat="45.0368267" lon="7.957245"><ele>245.0</ele><time>2026-04-11T14:52:01.057Z</time></trkpt><trkpt lat="45.0367617" lon="7.9572883"><ele>245.0</ele><time>2026-04-11T14:52:02.057Z</time></trkpt><trkpt lat="45.036695" lon="7.9573333"><ele>245.0</ele><time>2026-04-11T14:52:03.057Z</time></trkpt><trkpt lat="45.0366317" lon="7.95738"><ele>245.0</ele><time>2026-04-11T14:52:04.062Z</time></trkpt><trkpt lat="45.036565" lon="7.9574233"><ele>245.0</ele><time>2026-04-11T14:52:05.061Z</time></trkpt><trkpt lat="45.0364983" lon="7.9574667"><ele>244.42857142857144</ele><time>2026-04-11T14:52:06.06Z</time></trkpt><trkpt lat="45.0364283" lon="7.9575067"><ele>243.85714285714286</ele><time>2026-04-11T14:52:07.062Z</time></trkpt><trkpt lat="45.0363583" lon="7.9575467"><ele>243.28571428571428</ele><time>2026-04-11T14:52:08.063Z</time></trkpt><trkpt lat="45.03629" lon="7.9575883"><ele>242.71428571428572</ele><time>2026-04-11T14:52:09.063Z</time></trkpt><trkpt lat="45.0362233" lon="7.9576283"><ele>242.14285714285717</ele><time>2026-04-11T14:52:10.062Z</time></trkpt><trkpt lat="45.03616" lon="7.9576717"><ele>241.57142857142858</ele><time>2026-04-11T14:52:11.061Z</time></trkpt><trkpt lat="45.0361" lon="7.957715"><ele>241.0</ele><time>2026-04-11T14:52:12.063Z</time></trkpt><trkpt lat="45.0360383" lon="7.957775"><ele>241.16666666666666</ele><time>2026-04-11T14:52:13.059Z</time></trkpt><trkpt lat="45.0359767" lon="7.9578317"><ele>241.33333333333331</ele><time>2026-04-11T14:52:14.062Z</time></trkpt><trkpt lat="45.0359133" lon="7.95789"><ele>241.5</ele><time>2026-04-11T14:52:15.061Z</time></trkpt><trkpt lat="45.0358483" lon="7.957945"><ele>241.66666666666669</ele><time>2026-04-11T14:52:16.061Z</time></trkpt><trkpt lat="45.0357833" lon="7.957995"><ele>241.83333333333334</ele><time>2026-04-11T14:52:17.061Z</time></trkpt><trkpt lat="45.0356517" lon="7.958085"><ele>242.0</ele><time>2026-04-11T14:52:19.062Z</time></trkpt><trkpt lat="45.0355833" lon="7.9581317"><ele>242.0</ele><time>2026-04-11T14:52:20.062Z</time></trkpt><trkpt lat="45.0355117" lon="7.9581783"><ele>241.99999999999997</ele><time>2026-04-11T14:52:21.062Z</time></trkpt><trkpt lat="45.0354467" lon="7.958235"><ele>242.0</ele><time>2026-04-11T14:52:22.063Z</time></trkpt><trkpt lat="45.0353867" lon="7.958295"><ele>242.0</ele><time>2026-04-11T14:52:23.062Z</time></trkpt><trkpt lat="45.035335" lon="7.95837"><ele>241.99999999999997</ele><time>2026-04-11T14:52:24.062Z</time></trkpt><trkpt lat="45.0352933" lon="7.9584533"><ele>242.0</ele><time>2026-04-11T14:52:25.062Z</time></trkpt><trkpt lat="45.035255" lon="7.9585367"><ele>242.0</ele><time>2026-04-11T14:52:26.063Z</time></trkpt><trkpt lat="45.0352183" lon="7.95862"><ele>241.85714285714283</ele><time>2026-04-11T14:52:27.061Z</time></trkpt><trkpt lat="45.0351833" lon="7.9587067"><ele>241.7142857142857</ele><time>2026-04-11T14:52:28.062Z</time></trkpt><trkpt lat="45.0351483" lon="7.9587933"><ele>241.57142857142856</ele><time>2026-04-11T14:52:29.062Z</time></trkpt><trkpt lat="45.0351133" lon="7.9588783"><ele>241.42857142857144</ele><time>2026-04-11T14:52:30.061Z</time></trkpt><trkpt lat="45.0350683" lon="7.958955"><ele>241.2857142857143</ele><time>2026-04-11T14:52:31.061Z</time></trkpt><trkpt lat="45.0350217" lon="7.9590283"><ele>241.14285714285717</ele><time>2026-04-11T14:52:32.062Z</time></trkpt><trkpt lat="45.0349733" lon="7.9590933"><ele>241.0</ele><time>2026-04-11T14:52:33.062Z</time></trkpt><trkpt lat="45.034925" lon="7.95916"><ele>240.20000000000002</ele><time>2026-04-11T14:52:34.061Z</time></trkpt><trkpt lat="45.0348767" lon="7.959235"><ele>239.40000000000003</ele><time>2026-04-11T14:52:35.063Z</time></trkpt><trkpt lat="45.03483" lon="7.95932"><ele>238.6</ele><time>2026-04-11T14:52:36.063Z</time></trkpt><trkpt lat="45.034785" lon="7.9594067"><ele>237.8</ele><time>2026-04-11T14:52:37.06Z</time></trkpt><trkpt lat="45.0347467" lon="7.9594983"><ele>237.0</ele><time>2026-04-11T14:52:38.062Z</time></trkpt><trkpt lat="45.0346783" lon="7.9596917"><ele>236.99999999999997</ele><time>2026-04-11T14:52:40.062Z</time></trkpt><trkpt lat="45.03465" lon="7.9597883"><ele>237.0</ele><time>2026-04-11T14:52:41.061Z</time></trkpt><trkpt lat="45.03463" lon="7.95989"><ele>236.99999999999997</ele><time>2026-04-11T14:52:42.061Z</time></trkpt><trkpt lat="45.0346167" lon="7.9599917"><ele>236.99999999999997</ele><time>2026-04-11T14:52:43.062Z</time></trkpt><trkpt lat="45.0346133" lon="7.9601017"><ele>237.0</ele><time>2026-04-11T14:52:44.061Z</time></trkpt><trkpt lat="45.0346067" lon="7.9602033"><ele>236.99999999999997</ele><time>2026-04-11T14:52:45.064Z</time></trkpt><trkpt lat="45.034605" lon="7.96031"><ele>236.99999999999997</ele><time>2026-04-11T14:52:46.062Z</time></trkpt><trkpt lat="45.0345967" lon="7.9604133"><ele>236.85714285714283</ele><time>2026-04-11T14:52:47.06Z</time></trkpt><trkpt lat="45.0345917" lon="7.9605183"><ele>236.71428571428572</ele><time>2026-04-11T14:52:48.062Z</time></trkpt><trkpt lat="45.0345933" lon="7.960625"><ele>236.57142857142856</ele><time>2026-04-11T14:52:49.061Z</time></trkpt><trkpt lat="45.03461" lon="7.9607167"><ele>236.42857142857142</ele><time>2026-04-11T14:52:50.062Z</time></trkpt><trkpt lat="45.0346383" lon="7.9608"><ele>236.28571428571428</ele><time>2026-04-11T14:52:51.064Z</time></trkpt><trkpt lat="45.034675" lon="7.9608767"><ele>236.14285714285714</ele><time>2026-04-11T14:52:52.065Z</time></trkpt><trkpt lat="45.0347133" lon="7.9609517"><ele>236.0</ele><time>2026-04-11T14:52:53.062Z</time></trkpt><trkpt lat="45.0347517" lon="7.96103"><ele>235.83333333333334</ele><time>2026-04-11T14:52:54.063Z</time></trkpt><trkpt lat="45.0347933" lon="7.961105"><ele>235.66666666666669</ele><time>2026-04-11T14:52:55.063Z</time></trkpt><trkpt lat="45.0348383" lon="7.9611783"><ele>235.5</ele><time>2026-04-11T14:52:56.065Z</time></trkpt><trkpt lat="45.0348783" lon="7.9612517"><ele>235.33333333333331</ele><time>2026-04-11T14:52:57.065Z</time></trkpt><trkpt lat="45.0349217" lon="7.961325"><ele>235.16666666666666</ele><time>2026-04-11T14:52:58.063Z</time></trkpt><trkpt lat="45.034965" lon="7.9613967"><ele>235.0</ele><time>2026-04-11T14:52:59.063Z</time></trkpt><trkpt lat="45.035045" lon="7.9615383"><ele>235.0</ele><time>2026-04-11T14:53:01.062Z</time></trkpt><trkpt lat="45.035085" lon="7.9616183"><ele>234.99999999999997</ele><time>2026-04-11T14:53:02.061Z</time></trkpt><trkpt lat="45.0351267" lon="7.9616983"><ele>235.0</ele><time>2026-04-11T14:53:03.063Z</time></trkpt><trkpt lat="45.035165" lon="7.96178"><ele>235.0</ele><time>2026-04-11T14:53:04.06Z</time></trkpt><trkpt lat="45.0352033" lon="7.9618633"><ele>234.99999999999997</ele><time>2026-04-11T14:53:05.061Z</time></trkpt><trkpt lat="45.0352417" lon="7.9619517"><ele>235.0</ele><time>2026-04-11T14:53:06.062Z</time></trkpt><trkpt lat="45.0352817" lon="7.9620417"><ele>235.0</ele><time>2026-04-11T14:53:07.061Z</time></trkpt><trkpt lat="45.0353283" lon="7.962135"><ele>234.66666666666666</ele><time>2026-04-11T14:53:08.062Z</time></trkpt><trkpt lat="45.03538" lon="7.962225"><ele>234.33333333333331</ele><time>2026-04-11T14:53:09.061Z</time></trkpt><trkpt lat="45.035435" lon="7.962315"><ele>234.0</ele><time>2026-04-11T14:53:10.061Z</time></trkpt><trkpt lat="45.03549" lon="7.962405"><ele>233.66666666666669</ele><time>2026-04-11T14:53:11.06Z</time></trkpt><trkpt lat="45.0355417" lon="7.96249"><ele>233.33333333333334</ele><time>2026-04-11T14:53:12.057Z</time></trkpt><trkpt lat="45.03559" lon="7.962575"><ele>233.0</ele><time>2026-04-11T14:53:13.062Z</time></trkpt><trkpt lat="45.035645" lon="7.9626583"><ele>232.83333333333334</ele><time>2026-04-11T14:53:14.062Z</time></trkpt><trkpt lat="45.0357" lon="7.9627233"><ele>232.66666666666669</ele><time>2026-04-11T14:53:15.061Z</time></trkpt><trkpt lat="45.0357683" lon="7.96276"><ele>232.5</ele><time>2026-04-11T14:53:16.058Z</time></trkpt><trkpt lat="45.0358433" lon="7.9627683"><ele>232.33333333333331</ele><time>2026-04-11T14:53:17.059Z</time></trkpt><trkpt lat="45.035925" lon="7.9627567"><ele>232.16666666666666</ele><time>2026-04-11T14:53:18.061Z</time></trkpt><trkpt lat="45.0360067" lon="7.962745"><ele>232.0</ele><time>2026-04-11T14:53:19.063Z</time></trkpt><trkpt lat="45.0360917" lon="7.9627367"><ele>232.0</ele><time>2026-04-11T14:53:20.061Z</time></trkpt><trkpt lat="45.0362483" lon="7.962725"><ele>232.0</ele><time>2026-04-11T14:53:22.061Z</time></trkpt><trkpt lat="45.0363267" lon="7.962715"><ele>232.0</ele><time>2026-04-11T14:53:23.063Z</time></trkpt><trkpt lat="45.036405" lon="7.9627017"><ele>232.0</ele><time>2026-04-11T14:53:24.062Z</time></trkpt><trkpt lat="45.03648" lon="7.96269"><ele>232.0</ele><time>2026-04-11T14:53:25.062Z</time></trkpt><trkpt lat="45.0365567" lon="7.96267"><ele>231.99999999999997</ele><time>2026-04-11T14:53:26.063Z</time></trkpt><trkpt lat="45.0366317" lon="7.9626433"><ele>232.0</ele><time>2026-04-11T14:53:27.061Z</time></trkpt><trkpt lat="45.036705" lon="7.962615"><ele>232.0</ele><time>2026-04-11T14:53:28.059Z</time></trkpt><trkpt lat="45.0367767" lon="7.9625767"><ele>232.0</ele><time>2026-04-11T14:53:29.062Z</time></trkpt><trkpt lat="45.03685" lon="7.96254"><ele>231.99999999999997</ele><time>2026-04-11T14:53:30.06Z</time></trkpt><trkpt lat="45.0369217" lon="7.962505"><ele>232.0</ele><time>2026-04-11T14:53:31.061Z</time></trkpt><trkpt lat="45.0369933" lon="7.9624683"><ele>232.99999999999997</ele><time>2026-04-11T14:53:32.06Z</time></trkpt><trkpt lat="45.0370633" lon="7.96242"><ele>234.0</ele><time>2026-04-11T14:53:33.061Z</time></trkpt><trkpt lat="45.0371333" lon="7.96237"><ele>235.0</ele><time>2026-04-11T14:53:34.061Z</time></trkpt><trkpt lat="45.0372033" lon="7.96233"><ele>236.0</ele><time>2026-04-11T14:53:35.062Z</time></trkpt><trkpt lat="45.0372733" lon="7.96229"><ele>236.99999999999997</ele><time>2026-04-11T14:53:36.062Z</time></trkpt><trkpt lat="45.03734" lon="7.9622483"><ele>238.0</ele><time>2026-04-11T14:53:37.061Z</time></trkpt><trkpt lat="45.0374067" lon="7.962205"><ele>237.83333333333331</ele><time>2026-04-11T14:53:38.061Z</time></trkpt><trkpt lat="45.0374733" lon="7.9621633"><ele>237.66666666666666</ele><time>2026-04-11T14:53:39.063Z</time></trkpt><trkpt lat="45.0375417" lon="7.9621183"><ele>237.5</ele><time>2026-04-11T14:53:40.061Z</time></trkpt><trkpt lat="45.037605" lon="7.96207"><ele>237.33333333333331</ele><time>2026-04-11T14:53:41.06Z</time></trkpt><trkpt lat="45.0377283" lon="7.961965"><ele>237.16666666666666</ele><time>2026-04-11T14:53:43.062Z</time></trkpt><trkpt lat="45.0377867" lon="7.9619033"><ele>237.0</ele><time>2026-04-11T14:53:44.061Z</time></trkpt><trkpt lat="45.037845" lon="7.9618433"><ele>236.99999999999997</ele><time>2026-04-11T14:53:45.062Z</time></trkpt><trkpt lat="45.0379033" lon="7.96178"><ele>237.0</ele><time>2026-04-11T14:53:46.062Z</time></trkpt><trkpt lat="45.0379617" lon="7.9617183"><ele>236.99999999999997</ele><time>2026-04-11T14:53:47.061Z</time></trkpt><trkpt lat="45.0380183" lon="7.961655"><ele>236.99999999999997</ele><time>2026-04-11T14:53:48.06Z</time></trkpt><trkpt lat="45.0380767" lon="7.9615917"><ele>237.0</ele><time>2026-04-11T14:53:49.061Z</time></trkpt><trkpt lat="45.0381333" lon="7.9615367"><ele>236.99999999999997</ele><time>2026-04-11T14:53:50.06Z</time></trkpt><trkpt lat="45.0381917" lon="7.96149"><ele>236.99999999999997</ele><time>2026-04-11T14:53:51.062Z</time></trkpt><trkpt lat="45.0382483" lon="7.96145"><ele>237.0</ele><time>2026-04-11T14:53:52.06Z</time></trkpt><trkpt lat="45.0383467" lon="7.9614017"><ele>237.0</ele><time>2026-04-11T14:53:54.06Z</time></trkpt><trkpt lat="45.0384333" lon="7.96137"><ele>237.0</ele><time>2026-04-11T14:53:56.06Z</time></trkpt><trkpt lat="45.0385017" lon="7.961365"><ele>237.0</ele><time>2026-04-11T14:53:58.06Z</time></trkpt><trkpt lat="45.038565" lon="7.9613917"><ele>237.0</ele><time>2026-04-11T14:54:00.06Z</time></trkpt><trkpt lat="45.0385983" lon="7.9614883"><ele>237.0</ele><time>2026-04-11T14:54:02.062Z</time></trkpt><trkpt lat="45.0386167" lon="7.961795"><ele>237.0</ele><time>2026-04-11T14:54:06.062Z</time></trkpt><trkpt lat="45.0386283" lon="7.9619767"><ele>237.0</ele><time>2026-04-11T14:54:08.061Z</time></trkpt><trkpt lat="45.0386317" lon="7.9620717"><ele>237.0</ele><time>2026-04-11T14:54:09.064Z</time></trkpt><trkpt lat="45.0386383" lon="7.96217"><ele>237.0</ele><time>2026-04-11T14:54:10.063Z</time></trkpt><trkpt lat="45.0386433" lon="7.9622683"><ele>237.0</ele><time>2026-04-11T14:54:11.061Z</time></trkpt><trkpt lat="45.03865" lon="7.962365"><ele>237.0</ele><time>2026-04-11T14:54:12.062Z</time></trkpt><trkpt lat="45.0386583" lon="7.96246"><ele>236.85714285714283</ele><time>2026-04-11T14:54:13.06Z</time></trkpt><trkpt lat="45.038665" lon="7.9625583"><ele>236.71428571428572</ele><time>2026-04-11T14:54:14.061Z</time></trkpt><trkpt lat="45.0386733" lon="7.9626617"><ele>236.57142857142856</ele><time>2026-04-11T14:54:15.061Z</time></trkpt><trkpt lat="45.0386783" lon="7.9627633"><ele>236.42857142857142</ele><time>2026-04-11T14:54:16.061Z</time></trkpt><trkpt lat="45.03868" lon="7.9628667"><ele>236.28571428571428</ele><time>2026-04-11T14:54:17.062Z</time></trkpt><trkpt lat="45.0386833" lon="7.9629683"><ele>236.14285714285714</ele><time>2026-04-11T14:54:18.062Z</time></trkpt><trkpt lat="45.03869" lon="7.9630683"><ele>236.0</ele><time>2026-04-11T14:54:19.061Z</time></trkpt><trkpt lat="45.0386983" lon="7.9631683"><ele>236.00000000000003</ele><time>2026-04-11T14:54:20.061Z</time></trkpt><trkpt lat="45.038705" lon="7.96327"><ele>236.0</ele><time>2026-04-11T14:54:21.06Z</time></trkpt><trkpt lat="45.03871" lon="7.9633733"><ele>236.0</ele><time>2026-04-11T14:54:22.061Z</time></trkpt><trkpt lat="45.038715" lon="7.9634767"><ele>236.0</ele><time>2026-04-11T14:54:23.061Z</time></trkpt><trkpt lat="45.03873" lon="7.9636783"><ele>236.00000000000003</ele><time>2026-04-11T14:54:25.064Z</time></trkpt><trkpt lat="45.0387417" lon="7.9637783"><ele>236.0</ele><time>2026-04-11T14:54:26.062Z</time></trkpt><trkpt lat="45.038755" lon="7.9638783"><ele>236.0</ele><time>2026-04-11T14:54:27.062Z</time></trkpt><trkpt lat="45.0387717" lon="7.96398"><ele>236.0</ele><time>2026-04-11T14:54:28.06Z</time></trkpt><trkpt lat="45.0388" lon="7.9640767"><ele>236.0</ele><time>2026-04-11T14:54:29.061Z</time></trkpt><trkpt lat="45.03884" lon="7.9641683"><ele>236.0</ele><time>2026-04-11T14:54:30.061Z</time></trkpt><trkpt lat="45.0388933" lon="7.964245"><ele>236.0</ele><time>2026-04-11T14:54:31.062Z</time></trkpt><trkpt lat="45.03895" lon="7.9643083"><ele>236.0</ele><time>2026-04-11T14:54:32.061Z</time></trkpt><trkpt lat="45.03901" lon="7.9643617"><ele>236.0</ele><time>2026-04-11T14:54:33.06Z</time></trkpt><trkpt lat="45.03907" lon="7.96441"><ele>236.0</ele><time>2026-04-11T14:54:34.059Z</time></trkpt><trkpt lat="45.0391267" lon="7.9644617"><ele>236.0</ele><time>2026-04-11T14:54:35.062Z</time></trkpt><trkpt lat="45.0391833" lon="7.964515"><ele>236.0</ele><time>2026-04-11T14:54:36.061Z</time></trkpt><trkpt lat="45.0392367" lon="7.9645733"><ele>236.0</ele><time>2026-04-11T14:54:37.061Z</time></trkpt><trkpt lat="45.0392917" lon="7.9646317"><ele>236.0</ele><time>2026-04-11T14:54:38.06Z</time></trkpt><trkpt lat="45.0393483" lon="7.9646917"><ele>236.0</ele><time>2026-04-11T14:54:39.059Z</time></trkpt><trkpt lat="45.0394033" lon="7.96475"><ele>236.0</ele><time>2026-04-11T14:54:40.06Z</time></trkpt><trkpt lat="45.0394583" lon="7.96481"><ele>236.16666666666669</ele><time>2026-04-11T14:54:41.061Z</time></trkpt><trkpt lat="45.0395133" lon="7.9648733"><ele>236.33333333333334</ele><time>2026-04-11T14:54:42.062Z</time></trkpt><trkpt lat="45.039565" lon="7.9649417"><ele>236.5</ele><time>2026-04-11T14:54:43.06Z</time></trkpt><trkpt lat="45.0396133" lon="7.9650133"><ele>236.66666666666669</ele><time>2026-04-11T14:54:44.062Z</time></trkpt><trkpt lat="45.0397133" lon="7.9651517"><ele>236.83333333333334</ele><time>2026-04-11T14:54:46.062Z</time></trkpt><trkpt lat="45.039765" lon="7.9652183"><ele>237.0</ele><time>2026-04-11T14:54:47.062Z</time></trkpt><trkpt lat="45.039815" lon="7.9652883"><ele>237.2</ele><time>2026-04-11T14:54:48.061Z</time></trkpt><trkpt lat="45.039865" lon="7.9653567"><ele>237.39999999999998</ele><time>2026-04-11T14:54:49.061Z</time></trkpt><trkpt lat="45.0399117" lon="7.9654167"><ele>237.60000000000002</ele><time>2026-04-11T14:54:50.061Z</time></trkpt><trkpt lat="45.0400067" lon="7.9655333"><ele>237.8</ele><time>2026-04-11T14:54:52.063Z</time></trkpt><trkpt lat="45.04004" lon="7.96569"><ele>238.0</ele><time>2026-04-11T14:54:54.064Z</time></trkpt><trkpt lat="45.0400267" lon="7.9658"><ele>237.99999999999997</ele><time>2026-04-11T14:54:55.061Z</time></trkpt><trkpt lat="45.0399883" lon="7.9659"><ele>238.0</ele><time>2026-04-11T14:54:56.06Z</time></trkpt><trkpt lat="45.0399267" lon="7.96598"><ele>238.0</ele><time>2026-04-11T14:54:57.063Z</time></trkpt><trkpt lat="45.039855" lon="7.96605"><ele>238.0</ele><time>2026-04-11T14:54:58.063Z</time></trkpt><trkpt lat="45.0397867" lon="7.9661183"><ele>237.99999999999997</ele><time>2026-04-11T14:54:59.061Z</time></trkpt><trkpt lat="45.0397283" lon="7.9661983"><ele>238.0</ele><time>2026-04-11T14:55:00.061Z</time></trkpt><trkpt lat="45.039675" lon="7.966275"><ele>237.99999999999997</ele><time>2026-04-11T14:55:01.062Z</time></trkpt><trkpt lat="45.0396283" lon="7.9663483"><ele>238.0</ele><time>2026-04-11T14:55:02.062Z</time></trkpt><trkpt lat="45.0395917" lon="7.9664383"><ele>238.0</ele><time>2026-04-11T14:55:03.061Z</time></trkpt><trkpt lat="45.0395583" lon="7.966525"><ele>238.0</ele><time>2026-04-11T14:55:04.062Z</time></trkpt><trkpt lat="45.0395417" lon="7.96662"><ele>237.99999999999997</ele><time>2026-04-11T14:55:05.063Z</time></trkpt><trkpt lat="45.0395483" lon="7.966825"><ele>238.0</ele><time>2026-04-11T14:55:07.064Z</time></trkpt><trkpt lat="45.0395617" lon="7.9669233"><ele>238.16666666666666</ele><time>2026-04-11T14:55:08.061Z</time></trkpt><trkpt lat="45.039575" lon="7.9670217"><ele>238.33333333333331</ele><time>2026-04-11T14:55:09.061Z</time></trkpt><trkpt lat="45.0395917" lon="7.9671167"><ele>238.5</ele><time>2026-04-11T14:55:10.062Z</time></trkpt><trkpt lat="45.0396067" lon="7.967205"><ele>238.66666666666669</ele><time>2026-04-11T14:55:11.06Z</time></trkpt><trkpt lat="45.039625" lon="7.9672917"><ele>238.83333333333334</ele><time>2026-04-11T14:55:12.059Z</time></trkpt><trkpt lat="45.0396583" lon="7.96746"><ele>239.0</ele><time>2026-04-11T14:55:14.06Z</time></trkpt><trkpt lat="45.0396883" lon="7.9676233"><ele>239.5</ele><time>2026-04-11T14:55:16.062Z</time></trkpt><trkpt lat="45.0397167" lon="7.96778"><ele>240.0</ele><time>2026-04-11T14:55:18.061Z</time></trkpt><trkpt lat="45.039745" lon="7.9679467"><ele>240.5</ele><time>2026-04-11T14:55:20.061Z</time></trkpt><trkpt lat="45.0397717" lon="7.9681067"><ele>241.0</ele><time>2026-04-11T14:55:22.06Z</time></trkpt><trkpt lat="45.0397967" lon="7.9682583"><ele>242.0</ele><time>2026-04-11T14:55:24.061Z</time></trkpt><trkpt lat="45.0398167" lon="7.9684067"><ele>243.0</ele><time>2026-04-11T14:55:26.06Z</time></trkpt><trkpt lat="45.0398717" lon="7.9686817"><ele>244.0</ele><time>2026-04-11T14:55:30.064Z</time></trkpt><trkpt lat="45.0399" lon="7.96882"><ele>245.0</ele><time>2026-04-11T14:55:32.063Z</time></trkpt><trkpt lat="45.039925" lon="7.9689467"><ele>245.0</ele><time>2026-04-11T14:55:34.062Z</time></trkpt><trkpt lat="45.0399517" lon="7.9690733"><ele>245.0</ele><time>2026-04-11T14:55:36.063Z</time></trkpt><trkpt lat="45.0399833" lon="7.9692033"><ele>245.0</ele><time>2026-04-11T14:55:38.062Z</time></trkpt><trkpt lat="45.0400117" lon="7.9693417"><ele>245.0</ele><time>2026-04-11T14:55:40.061Z</time></trkpt><trkpt lat="45.0400433" lon="7.96947"><ele>245.0</ele><time>2026-04-11T14:55:42.06Z</time></trkpt><trkpt lat="45.040065" lon="7.96961"><ele>245.75</ele><time>2026-04-11T14:55:44.066Z</time></trkpt><trkpt lat="45.0400833" lon="7.9697517"><ele>246.5</ele><time>2026-04-11T14:55:46.059Z</time></trkpt><trkpt lat="45.0401067" lon="7.9698833"><ele>247.25</ele><time>2026-04-11T14:55:48.06Z</time></trkpt><trkpt lat="45.04015" lon="7.9701567"><ele>248.0</ele><time>2026-04-11T14:55:52.062Z</time></trkpt><trkpt lat="45.0401733" lon="7.9702883"><ele>250.8</ele><time>2026-04-11T14:55:54.06Z</time></trkpt><trkpt lat="45.040195" lon="7.970415"><ele>253.60000000000002</ele><time>2026-04-11T14:55:56.061Z</time></trkpt><trkpt lat="45.04022" lon="7.97054"><ele>256.4</ele><time>2026-04-11T14:55:58.061Z</time></trkpt><trkpt lat="45.0402433" lon="7.9706633"><ele>259.2</ele><time>2026-04-11T14:56:00.062Z</time></trkpt><trkpt lat="45.0402667" lon="7.9707833"><ele>262.0</ele><time>2026-04-11T14:56:02.06Z</time></trkpt><trkpt lat="45.0402883" lon="7.9709133"><ele>264.0</ele><time>2026-04-11T14:56:04.06Z</time></trkpt><trkpt lat="45.04031" lon="7.971045"><ele>266.0</ele><time>2026-04-11T14:56:06.063Z</time></trkpt><trkpt lat="45.0403317" lon="7.971185"><ele>268.0</ele><time>2026-04-11T14:56:08.062Z</time></trkpt><trkpt lat="45.0403567" lon="7.9713133"><ele>270.0</ele><time>2026-04-11T14:56:10.062Z</time></trkpt><trkpt lat="45.040405" lon="7.9715967"><ele>267.4</ele><time>2026-04-11T14:56:14.062Z</time></trkpt><trkpt lat="45.0404217" lon="7.9717317"><ele>264.8</ele><time>2026-04-11T14:56:16.062Z</time></trkpt><trkpt lat="45.0404417" lon="7.9718683"><ele>262.2</ele><time>2026-04-11T14:56:18.061Z</time></trkpt><trkpt lat="45.0404583" lon="7.97201"><ele>259.6</ele><time>2026-04-11T14:56:20.064Z</time></trkpt><trkpt lat="45.0404783" lon="7.9721483"><ele>257.0</ele><time>2026-04-11T14:56:22.061Z</time></trkpt><trkpt lat="45.0404983" lon="7.9722817"><ele>257.0</ele><time>2026-04-11T14:56:24.063Z</time></trkpt><trkpt lat="45.0405183" lon="7.9724283"><ele>257.0</ele><time>2026-04-11T14:56:26.06Z</time></trkpt><trkpt lat="45.0405383" lon="7.9725767"><ele>257.0</ele><time>2026-04-11T14:56:28.061Z</time></trkpt><trkpt lat="45.0405517" lon="7.9727217"><ele>257.0</ele><time>2026-04-11T14:56:30.061Z</time></trkpt><trkpt lat="45.0405683" lon="7.9728733"><ele>257.0</ele><time>2026-04-11T14:56:32.063Z</time></trkpt><trkpt lat="45.0406017" lon="7.9731783"><ele>256.0</ele><time>2026-04-11T14:56:36.062Z</time></trkpt><trkpt lat="45.0406183" lon="7.97333"><ele>255.0</ele><time>2026-04-11T14:56:38.062Z</time></trkpt><trkpt lat="45.0406333" lon="7.9734683"><ele>254.0</ele><time>2026-04-11T14:56:40.061Z</time></trkpt><trkpt lat="45.04065" lon="7.9736117"><ele>253.0</ele><time>2026-04-11T14:56:42.061Z</time></trkpt><trkpt lat="45.0406733" lon="7.97376"><ele>252.0</ele><time>2026-04-11T14:56:44.06Z</time></trkpt><trkpt lat="45.0406867" lon="7.9739017"><ele>254.8</ele><time>2026-04-11T14:56:46.061Z</time></trkpt><trkpt lat="45.0407033" lon="7.9740467"><ele>257.6</ele><time>2026-04-11T14:56:48.063Z</time></trkpt><trkpt lat="45.0407217" lon="7.9741883"><ele>260.40000000000003</ele><time>2026-04-11T14:56:50.062Z</time></trkpt><trkpt lat="45.0407367" lon="7.9743267"><ele>263.2</ele><time>2026-04-11T14:56:52.061Z</time></trkpt><trkpt lat="45.0407483" lon="7.9744617"><ele>266.0</ele><time>2026-04-11T14:56:54.062Z</time></trkpt><trkpt lat="45.040785" lon="7.974725"><ele>270.75</ele><time>2026-04-11T14:56:58.062Z</time></trkpt><trkpt lat="45.0408017" lon="7.9748417"><ele>275.5</ele><time>2026-04-11T14:57:00.061Z</time></trkpt><trkpt lat="45.04081" lon="7.9749367"><ele>280.25</ele><time>2026-04-11T14:57:02.062Z</time></trkpt><trkpt lat="45.0408533" lon="7.9750017"><ele>285.0</ele><time>2026-04-11T14:57:08.061Z</time></trkpt><trkpt lat="45.0408283" lon="7.97543"><ele>278.0</ele><time>2026-04-11T14:57:16.063Z</time></trkpt><trkpt lat="45.040855" lon="7.9761317"><ele>278.0</ele><time>2026-04-11T14:57:18.062Z</time></trkpt><trkpt lat="45.0408833" lon="7.9762583"><ele>278.0</ele><time>2026-04-11T14:57:19.061Z</time></trkpt><trkpt lat="45.040905" lon="7.976385"><ele>278.0</ele><time>2026-04-11T14:57:20.06Z</time></trkpt><trkpt lat="45.0409217" lon="7.9765467"><ele>278.0</ele><time>2026-04-11T14:57:21.063Z</time></trkpt><trkpt lat="45.0409483" lon="7.9766883"><ele>278.0</ele><time>2026-04-11T14:57:22.062Z</time></trkpt><trkpt lat="45.04097" lon="7.976815"><ele>274.2</ele><time>2026-04-11T14:57:23.061Z</time></trkpt><trkpt lat="45.0409933" lon="7.9769367"><ele>270.4</ele><time>2026-04-11T14:57:24.062Z</time></trkpt><trkpt lat="45.0410083" lon="7.97706"><ele>266.59999999999997</ele><time>2026-04-11T14:57:25.063Z</time></trkpt><trkpt lat="45.0410233" lon="7.9771833"><ele>262.8</ele><time>2026-04-11T14:57:26.062Z</time></trkpt><trkpt lat="45.0410417" lon="7.97731"><ele>259.0</ele><time>2026-04-11T14:57:27.061Z</time></trkpt><trkpt lat="45.0410667" lon="7.9774417"><ele>257.59999999999997</ele><time>2026-04-11T14:57:28.061Z</time></trkpt><trkpt lat="45.041085" lon="7.9775733"><ele>256.2</ele><time>2026-04-11T14:57:29.06Z</time></trkpt><trkpt lat="45.0411033" lon="7.9777017"><ele>254.79999999999998</ele><time>2026-04-11T14:57:30.061Z</time></trkpt><trkpt lat="45.0411217" lon="7.9778283"><ele>253.39999999999998</ele><time>2026-04-11T14:57:31.062Z</time></trkpt><trkpt lat="45.0411333" lon="7.9779517"><ele>252.0</ele><time>2026-04-11T14:57:32.06Z</time></trkpt><trkpt lat="45.04114" lon="7.9780733"><ele>252.0</ele><time>2026-04-11T14:57:33.061Z</time></trkpt><trkpt lat="45.0411367" lon="7.9781917"><ele>252.0</ele><time>2026-04-11T14:57:34.061Z</time></trkpt><trkpt lat="45.041115" lon="7.9783033"><ele>252.0</ele><time>2026-04-11T14:57:35.059Z</time></trkpt><trkpt lat="45.041085" lon="7.9784183"><ele>252.0</ele><time>2026-04-11T14:57:36.06Z</time></trkpt><trkpt lat="45.0410667" lon="7.97854"><ele>252.0</ele><time>2026-04-11T14:57:37.061Z</time></trkpt><trkpt lat="45.0411133" lon="7.9787783"><ele>253.28571428571428</ele><time>2026-04-11T14:57:39.063Z</time></trkpt><trkpt lat="45.0411683" lon="7.9788633"><ele>254.57142857142856</ele><time>2026-04-11T14:57:40.061Z</time></trkpt><trkpt lat="45.0412233" lon="7.97894"><ele>255.85714285714286</ele><time>2026-04-11T14:57:41.058Z</time></trkpt><trkpt lat="45.0412633" lon="7.97902"><ele>257.1428571428571</ele><time>2026-04-11T14:57:42.06Z</time></trkpt><trkpt lat="45.0412883" lon="7.9791067"><ele>258.42857142857144</ele><time>2026-04-11T14:57:43.062Z</time></trkpt><trkpt lat="45.0412933" lon="7.9791983"><ele>259.7142857142857</ele><time>2026-04-11T14:57:44.062Z</time></trkpt><trkpt lat="45.0412817" lon="7.97929"><ele>261.0</ele><time>2026-04-11T14:57:45.062Z</time></trkpt><trkpt lat="45.0412567" lon="7.979385"><ele>262.8333333333333</ele><time>2026-04-11T14:57:46.062Z</time></trkpt><trkpt lat="45.041225" lon="7.9794783"><ele>264.6666666666667</ele><time>2026-04-11T14:57:47.06Z</time></trkpt><trkpt lat="45.0411967" lon="7.9795683"><ele>266.5</ele><time>2026-04-11T14:57:48.061Z</time></trkpt><trkpt lat="45.04118" lon="7.979655"><ele>268.33333333333337</ele><time>2026-04-11T14:57:49.061Z</time></trkpt><trkpt lat="45.0411767" lon="7.9798083"><ele>270.1666666666667</ele><time>2026-04-11T14:57:51.06Z</time></trkpt><trkpt lat="45.0411933" lon="7.9799283"><ele>272.0</ele><time>2026-04-11T14:57:53.061Z</time></trkpt><trkpt lat="45.041215" lon="7.9800217"><ele>274.6</ele><time>2026-04-11T14:57:55.062Z</time></trkpt><trkpt lat="45.0412317" lon="7.9801467"><ele>277.2</ele><time>2026-04-11T14:57:58.061Z</time></trkpt><trkpt lat="45.0412667" lon="7.980395"><ele>279.8</ele><time>2026-04-11T14:58:04.062Z</time></trkpt><trkpt lat="45.04129" lon="7.9804967"><ele>282.4</ele><time>2026-04-11T14:58:07.061Z</time></trkpt><trkpt lat="45.041305" lon="7.980595"><ele>285.0</ele><time>2026-04-11T14:58:10.059Z</time></trkpt><trkpt lat="45.0413167" lon="7.9806967"><ele>285.0</ele><time>2026-04-11T14:58:13.065Z</time></trkpt><trkpt lat="45.041335" lon="7.9807883"><ele>285.0</ele><time>2026-04-11T14:58:16.064Z</time></trkpt><trkpt lat="45.04137" lon="7.9809"><ele>285.0</ele><time>2026-04-11T14:58:19.065Z</time></trkpt><trkpt lat="45.041425" lon="7.9811333"><ele>285.0</ele><time>2026-04-11T14:58:25.057Z</time></trkpt><trkpt lat="45.0414583" lon="7.9812283"><ele>285.0</ele><time>2026-04-11T14:58:28.061Z</time></trkpt><trkpt lat="45.0414967" lon="7.98133"><ele>287.0</ele><time>2026-04-11T14:58:31.062Z</time></trkpt><trkpt lat="45.0415267" lon="7.9814367"><ele>289.0</ele><time>2026-04-11T14:58:34.061Z</time></trkpt><trkpt lat="45.0415517" lon="7.9815533"><ele>291.0</ele><time>2026-04-11T14:58:37.062Z</time></trkpt><trkpt lat="45.04156" lon="7.9816633"><ele>293.0</ele><time>2026-04-11T14:58:40.059Z</time></trkpt><trkpt lat="45.0415667" lon="7.981875"><ele>295.0</ele><time>2026-04-11T14:58:47.059Z</time></trkpt><trkpt lat="45.0415517" lon="7.981965"><ele>295.16666666666663</ele><time>2026-04-11T14:58:50.063Z</time></trkpt><trkpt lat="45.0415333" lon="7.982055"><ele>295.3333333333333</ele><time>2026-04-11T14:58:53.06Z</time></trkpt><trkpt lat="45.0415017" lon="7.982155"><ele>295.5</ele><time>2026-04-11T14:58:57.062Z</time></trkpt><trkpt lat="45.0414633" lon="7.9822583"><ele>295.6666666666667</ele><time>2026-04-11T14:59:01.063Z</time></trkpt><trkpt lat="45.041405" lon="7.982425"><ele>295.83333333333337</ele><time>2026-04-11T14:59:07.061Z</time></trkpt><trkpt lat="45.041375" lon="7.98251"><ele>296.0</ele><time>2026-04-11T14:59:10.062Z</time></trkpt><trkpt lat="45.0413433" lon="7.9826017"><ele>295.40000000000003</ele><time>2026-04-11T14:59:13.062Z</time></trkpt><trkpt lat="45.0412967" lon="7.9826917"><ele>294.8</ele><time>2026-04-11T14:59:16.064Z</time></trkpt><trkpt lat="45.0412333" lon="7.9827683"><ele>294.20000000000005</ele><time>2026-04-11T14:59:19.063Z</time></trkpt><trkpt lat="45.041175" lon="7.982845"><ele>293.6</ele><time>2026-04-11T14:59:22.063Z</time></trkpt><trkpt lat="45.0410467" lon="7.982975"><ele>293.0</ele><time>2026-04-11T14:59:28.06Z</time></trkpt><trkpt lat="45.0409783" lon="7.9830267"><ele>293.0</ele><time>2026-04-11T14:59:31.062Z</time></trkpt><trkpt lat="45.0409133" lon="7.9830783"><ele>293.0</ele><time>2026-04-11T14:59:34.063Z</time></trkpt><trkpt lat="45.0408467" lon="7.98312"><ele>293.0</ele><time>2026-04-11T14:59:37.065Z</time></trkpt><trkpt lat="45.0407717" lon="7.9831483"><ele>293.0</ele><time>2026-04-11T14:59:40.061Z</time></trkpt><trkpt lat="45.04068" lon="7.9831767"><ele>293.0</ele><time>2026-04-11T14:59:43.062Z</time></trkpt><trkpt lat="45.0405467" lon="7.98322"><ele>293.4</ele><time>2026-04-11T14:59:47.06Z</time></trkpt><trkpt lat="45.040475" lon="7.9832583"><ele>293.8</ele><time>2026-04-11T14:59:49.063Z</time></trkpt><trkpt lat="45.0404" lon="7.9833033"><ele>294.2</ele><time>2026-04-11T14:59:51.061Z</time></trkpt><trkpt lat="45.0403133" lon="7.9833567"><ele>294.6</ele><time>2026-04-11T14:59:53.062Z</time></trkpt><trkpt lat="45.0402267" lon="7.98342"><ele>295.0</ele><time>2026-04-11T14:59:55.066Z</time></trkpt><trkpt lat="45.0401317" lon="7.9834883"><ele>295.0</ele><time>2026-04-11T14:59:57.064Z</time></trkpt><trkpt lat="45.0400367" lon="7.9835667"><ele>295.0</ele><time>2026-04-11T14:59:59.062Z</time></trkpt><trkpt lat="45.0399367" lon="7.9836467"><ele>295.0</ele><time>2026-04-11T15:00:01.058Z</time></trkpt><trkpt lat="45.0398333" lon="7.9837333"><ele>295.0</ele><time>2026-04-11T15:00:03.059Z</time></trkpt><trkpt lat="45.0397317" lon="7.983825"><ele>295.0</ele><time>2026-04-11T15:00:05.06Z</time></trkpt><trkpt lat="45.039545" lon="7.9839983"><ele>295.0</ele><time>2026-04-11T15:00:09.06Z</time></trkpt><trkpt lat="45.0394867" lon="7.984035"><ele>295.0</ele><time>2026-04-11T15:00:11.061Z</time></trkpt><trkpt lat="45.039435" lon="7.9841033"><ele>295.0</ele><time>2026-04-11T15:00:28.062Z</time></trkpt><trkpt lat="45.03929" lon="7.9842033"><ele>294.0</ele><time>2026-04-11T15:00:33.064Z</time></trkpt><trkpt lat="45.0392233" lon="7.984255"><ele>293.0</ele><time>2026-04-11T15:00:35.063Z</time></trkpt><trkpt lat="45.03915" lon="7.9843033"><ele>292.0</ele><time>2026-04-11T15:00:37.063Z</time></trkpt><trkpt lat="45.039075" lon="7.984355"><ele>291.0</ele><time>2026-04-11T15:00:39.065Z</time></trkpt><trkpt lat="45.0389917" lon="7.9844117"><ele>290.0</ele><time>2026-04-11T15:00:41.061Z</time></trkpt><trkpt lat="45.0388983" lon="7.98447"><ele>289.0</ele><time>2026-04-11T15:00:43.062Z</time></trkpt><trkpt lat="45.0388083" lon="7.98453"><ele>289.0</ele><time>2026-04-11T15:00:45.062Z</time></trkpt><trkpt lat="45.0387117" lon="7.9846"><ele>289.0</ele><time>2026-04-11T15:00:47.059Z</time></trkpt><trkpt lat="45.0386133" lon="7.9846933"><ele>289.0</ele><time>2026-04-11T15:00:49.06Z</time></trkpt><trkpt lat="45.038505" lon="7.9847983"><ele>289.0</ele><time>2026-04-11T15:00:51.062Z</time></trkpt><trkpt lat="45.0384467" lon="7.9848533"><ele>289.0</ele><time>2026-04-11T15:00:52.062Z</time></trkpt><trkpt lat="45.0383883" lon="7.98491"><ele>289.0</ele><time>2026-04-11T15:00:53.06Z</time></trkpt><trkpt lat="45.038325" lon="7.984965"><ele>289.0</ele><time>2026-04-11T15:00:54.062Z</time></trkpt><trkpt lat="45.038255" lon="7.985015"><ele>289.0</ele><time>2026-04-11T15:00:55.061Z</time></trkpt><trkpt lat="45.03818" lon="7.9850567"><ele>289.0</ele><time>2026-04-11T15:00:56.061Z</time></trkpt><trkpt lat="45.0381017" lon="7.9850783"><ele>289.0</ele><time>2026-04-11T15:00:57.062Z</time></trkpt><trkpt lat="45.0380217" lon="7.9850867"><ele>289.0</ele><time>2026-04-11T15:00:58.063Z</time></trkpt><trkpt lat="45.0379433" lon="7.985085"><ele>289.42857142857144</ele><time>2026-04-11T15:00:59.06Z</time></trkpt><trkpt lat="45.0378667" lon="7.9850867"><ele>289.85714285714283</ele><time>2026-04-11T15:01:00.06Z</time></trkpt><trkpt lat="45.0377917" lon="7.9850933"><ele>290.2857142857143</ele><time>2026-04-11T15:01:01.061Z</time></trkpt><trkpt lat="45.03772" lon="7.9851067"><ele>290.7142857142857</ele><time>2026-04-11T15:01:02.061Z</time></trkpt><trkpt lat="45.0376533" lon="7.98513"><ele>291.14285714285717</ele><time>2026-04-11T15:01:03.063Z</time></trkpt><trkpt lat="45.0375867" lon="7.9851583"><ele>291.57142857142856</ele><time>2026-04-11T15:01:04.061Z</time></trkpt><trkpt lat="45.037525" lon="7.9851933"><ele>292.0</ele><time>2026-04-11T15:01:05.062Z</time></trkpt><trkpt lat="45.0374667" lon="7.9852333"><ele>292.0</ele><time>2026-04-11T15:01:06.063Z</time></trkpt><trkpt lat="45.0374133" lon="7.9852817"><ele>292.0</ele><time>2026-04-11T15:01:07.063Z</time></trkpt><trkpt lat="45.0373583" lon="7.985335"><ele>292.0</ele><time>2026-04-11T15:01:08.062Z</time></trkpt><trkpt lat="45.037305" lon="7.98539"><ele>292.0</ele><time>2026-04-11T15:01:09.063Z</time></trkpt><trkpt lat="45.0372483" lon="7.9854483"><ele>292.0</ele><time>2026-04-11T15:01:10.062Z</time></trkpt><trkpt lat="45.0371367" lon="7.985565"><ele>292.0</ele><time>2026-04-11T15:01:12.063Z</time></trkpt><trkpt lat="45.037075" lon="7.985615"><ele>292.0</ele><time>2026-04-11T15:01:13.059Z</time></trkpt><trkpt lat="45.0370083" lon="7.98565"><ele>292.0</ele><time>2026-04-11T15:01:14.06Z</time></trkpt><trkpt lat="45.0369367" lon="7.98567"><ele>292.0</ele><time>2026-04-11T15:01:15.063Z</time></trkpt><trkpt lat="45.0368633" lon="7.98568"><ele>292.0</ele><time>2026-04-11T15:01:16.06Z</time></trkpt><trkpt lat="45.0367883" lon="7.9856767"><ele>292.0</ele><time>2026-04-11T15:01:17.062Z</time></trkpt><trkpt lat="45.0367133" lon="7.985675"><ele>292.0</ele><time>2026-04-11T15:01:18.061Z</time></trkpt><trkpt lat="45.036635" lon="7.9856767"><ele>292.0</ele><time>2026-04-11T15:01:19.062Z</time></trkpt><trkpt lat="45.0365583" lon="7.9856733"><ele>291.0</ele><time>2026-04-11T15:01:20.06Z</time></trkpt><trkpt lat="45.0364833" lon="7.985675"><ele>290.0</ele><time>2026-04-11T15:01:21.061Z</time></trkpt><trkpt lat="45.0364083" lon="7.9856817"><ele>289.0</ele><time>2026-04-11T15:01:22.062Z</time></trkpt><trkpt lat="45.0363317" lon="7.9856817"><ele>288.0</ele><time>2026-04-11T15:01:23.063Z</time></trkpt><trkpt lat="45.036255" lon="7.9856783"><ele>287.0</ele><time>2026-04-11T15:01:24.063Z</time></trkpt><trkpt lat="45.03618" lon="7.9856717"><ele>286.0</ele><time>2026-04-11T15:01:25.061Z</time></trkpt><trkpt lat="45.0361017" lon="7.9856567"><ele>286.0</ele><time>2026-04-11T15:01:26.061Z</time></trkpt><trkpt lat="45.0360267" lon="7.985635"><ele>286.0</ele><time>2026-04-11T15:01:27.061Z</time></trkpt><trkpt lat="45.0359567" lon="7.9856017"><ele>286.0</ele><time>2026-04-11T15:01:28.06Z</time></trkpt><trkpt lat="45.0358933" lon="7.9855583"><ele>286.0</ele><time>2026-04-11T15:01:29.059Z</time></trkpt><trkpt lat="45.0358267" lon="7.9855117"><ele>286.0</ele><time>2026-04-11T15:01:30.062Z</time></trkpt><trkpt lat="45.0357617" lon="7.9854583"><ele>286.0</ele><time>2026-04-11T15:01:31.061Z</time></trkpt><trkpt lat="45.0356467" lon="7.985315"><ele>285.16666666666663</ele><time>2026-04-11T15:01:33.062Z</time></trkpt><trkpt lat="45.0356" lon="7.9852317"><ele>284.3333333333333</ele><time>2026-04-11T15:01:34.062Z</time></trkpt><trkpt lat="45.035555" lon="7.9851467"><ele>283.5</ele><time>2026-04-11T15:01:35.061Z</time></trkpt><trkpt lat="45.0355017" lon="7.9850733"><ele>282.6666666666667</ele><time>2026-04-11T15:01:36.062Z</time></trkpt><trkpt lat="45.0354383" lon="7.9850167"><ele>281.83333333333337</ele><time>2026-04-11T15:01:37.061Z</time></trkpt><trkpt lat="45.03537" lon="7.984975"><ele>281.0</ele><time>2026-04-11T15:01:38.063Z</time></trkpt><trkpt lat="45.0352917" lon="7.9849433"><ele>281.0</ele><time>2026-04-11T15:01:39.061Z</time></trkpt><trkpt lat="45.035215" lon="7.9849133"><ele>281.0</ele><time>2026-04-11T15:01:40.063Z</time></trkpt><trkpt lat="45.0351383" lon="7.98488"><ele>281.0</ele><time>2026-04-11T15:01:41.061Z</time></trkpt><trkpt lat="45.0350617" lon="7.98485"><ele>281.0</ele><time>2026-04-11T15:01:42.061Z</time></trkpt><trkpt lat="45.03499" lon="7.9848217"><ele>281.0</ele><time>2026-04-11T15:01:43.061Z</time></trkpt><trkpt lat="45.0349183" lon="7.9847983"><ele>281.0</ele><time>2026-04-11T15:01:44.061Z</time></trkpt><trkpt lat="45.034845" lon="7.9847817"><ele>281.42857142857144</ele><time>2026-04-11T15:01:45.062Z</time></trkpt><trkpt lat="45.0347717" lon="7.984775"><ele>281.8571428571429</ele><time>2026-04-11T15:01:46.059Z</time></trkpt><trkpt lat="45.0346983" lon="7.9847817"><ele>282.2857142857143</ele><time>2026-04-11T15:01:47.06Z</time></trkpt><trkpt lat="45.0346267" lon="7.9848033"><ele>282.7142857142857</ele><time>2026-04-11T15:01:48.06Z</time></trkpt><trkpt lat="45.0345617" lon="7.9848333"><ele>283.1428571428571</ele><time>2026-04-11T15:01:49.062Z</time></trkpt><trkpt lat="45.0345" lon="7.9848717"><ele>283.57142857142856</ele><time>2026-04-11T15:01:50.061Z</time></trkpt><trkpt lat="45.0344383" lon="7.984915"><ele>284.0</ele><time>2026-04-11T15:01:51.062Z</time></trkpt><trkpt lat="45.0343267" lon="7.985005"><ele>283.6666666666667</ele><time>2026-04-11T15:01:53.061Z</time></trkpt><trkpt lat="45.03421" lon="7.985075"><ele>283.33333333333337</ele><time>2026-04-11T15:01:55.061Z</time></trkpt><trkpt lat="45.0341483" lon="7.9850933"><ele>283.0</ele><time>2026-04-11T15:01:56.061Z</time></trkpt><trkpt lat="45.0340817" lon="7.9851067"><ele>282.6666666666667</ele><time>2026-04-11T15:01:57.062Z</time></trkpt><trkpt lat="45.0340133" lon="7.9851183"><ele>282.3333333333333</ele><time>2026-04-11T15:01:58.061Z</time></trkpt><trkpt lat="45.03394" lon="7.9851233"><ele>282.0</ele><time>2026-04-11T15:01:59.06Z</time></trkpt><trkpt lat="45.03386" lon="7.9851217"><ele>281.8333333333333</ele><time>2026-04-11T15:02:00.061Z</time></trkpt><trkpt lat="45.033775" lon="7.98511"><ele>281.6666666666667</ele><time>2026-04-11T15:02:01.06Z</time></trkpt><trkpt lat="45.0336883" lon="7.9850917"><ele>281.5</ele><time>2026-04-11T15:02:02.06Z</time></trkpt><trkpt lat="45.0336033" lon="7.9850667"><ele>281.33333333333337</ele><time>2026-04-11T15:02:03.062Z</time></trkpt><trkpt lat="45.0335167" lon="7.9850267"><ele>281.1666666666667</ele><time>2026-04-11T15:02:04.06Z</time></trkpt><trkpt lat="45.0334333" lon="7.984975"><ele>281.0</ele><time>2026-04-11T15:02:05.06Z</time></trkpt><trkpt lat="45.0333517" lon="7.9849167"><ele>279.5</ele><time>2026-04-11T15:02:06.061Z</time></trkpt><trkpt lat="45.0332717" lon="7.9848533"><ele>278.0</ele><time>2026-04-11T15:02:07.061Z</time></trkpt><trkpt lat="45.0331933" lon="7.9847867"><ele>276.5</ele><time>2026-04-11T15:02:08.062Z</time></trkpt><trkpt lat="45.03312" lon="7.98472"><ele>275.0</ele><time>2026-04-11T15:02:09.062Z</time></trkpt><trkpt lat="45.033045" lon="7.984655"><ele>273.5</ele><time>2026-04-11T15:02:10.062Z</time></trkpt><trkpt lat="45.03297" lon="7.9845917"><ele>272.0</ele><time>2026-04-11T15:02:11.062Z</time></trkpt><trkpt lat="45.03289" lon="7.9845383"><ele>272.0</ele><time>2026-04-11T15:02:12.063Z</time></trkpt><trkpt lat="45.0328067" lon="7.9844967"><ele>272.0</ele><time>2026-04-11T15:02:13.06Z</time></trkpt><trkpt lat="45.03272" lon="7.9844833"><ele>272.0</ele><time>2026-04-11T15:02:14.059Z</time></trkpt><trkpt lat="45.03253" lon="7.9844967"><ele>272.0</ele><time>2026-04-11T15:02:16.059Z</time></trkpt><trkpt lat="45.032435" lon="7.9845083"><ele>272.0</ele><time>2026-04-11T15:02:17.062Z</time></trkpt><trkpt lat="45.03234" lon="7.9845233"><ele>272.0</ele><time>2026-04-11T15:02:18.064Z</time></trkpt><trkpt lat="45.0322467" lon="7.9845467"><ele>272.0</ele><time>2026-04-11T15:02:19.059Z</time></trkpt><trkpt lat="45.0321567" lon="7.9845783"><ele>272.0</ele><time>2026-04-11T15:02:20.061Z</time></trkpt><trkpt lat="45.0320717" lon="7.98462"><ele>272.0</ele><time>2026-04-11T15:02:21.062Z</time></trkpt><trkpt lat="45.0319867" lon="7.9846733"><ele>272.0</ele><time>2026-04-11T15:02:22.061Z</time></trkpt><trkpt lat="45.031905" lon="7.9847333"><ele>272.0</ele><time>2026-04-11T15:02:23.06Z</time></trkpt><trkpt lat="45.0318317" lon="7.9848017"><ele>272.0</ele><time>2026-04-11T15:02:24.062Z</time></trkpt><trkpt lat="45.031765" lon="7.9848733"><ele>272.0</ele><time>2026-04-11T15:02:25.061Z</time></trkpt><trkpt lat="45.031695" lon="7.98495"><ele>272.0</ele><time>2026-04-11T15:02:26.06Z</time></trkpt><trkpt lat="45.0316217" lon="7.985025"><ele>272.0</ele><time>2026-04-11T15:02:27.061Z</time></trkpt><trkpt lat="45.031545" lon="7.9851017"><ele>271.8</ele><time>2026-04-11T15:02:28.059Z</time></trkpt><trkpt lat="45.03146" lon="7.9851767"><ele>271.6</ele><time>2026-04-11T15:02:29.061Z</time></trkpt><trkpt lat="45.0313783" lon="7.9852533"><ele>271.40000000000003</ele><time>2026-04-11T15:02:30.063Z</time></trkpt><trkpt lat="45.0312967" lon="7.98533"><ele>271.2</ele><time>2026-04-11T15:02:31.06Z</time></trkpt><trkpt lat="45.03121" lon="7.9854067"><ele>271.0</ele><time>2026-04-11T15:02:32.059Z</time></trkpt><trkpt lat="45.0311267" lon="7.9854783"><ele>271.0</ele><time>2026-04-11T15:02:33.061Z</time></trkpt><trkpt lat="45.031045" lon="7.9855517"><ele>271.0</ele><time>2026-04-11T15:02:34.06Z</time></trkpt><trkpt lat="45.0309683" lon="7.9856267"><ele>271.0</ele><time>2026-04-11T15:02:35.061Z</time></trkpt><trkpt lat="45.0308417" lon="7.98578"><ele>271.0</ele><time>2026-04-11T15:02:37.06Z</time></trkpt><trkpt lat="45.0307933" lon="7.98586"><ele>271.0</ele><time>2026-04-11T15:02:38.062Z</time></trkpt><trkpt lat="45.0307517" lon="7.9859417"><ele>271.6</ele><time>2026-04-11T15:02:39.062Z</time></trkpt><trkpt lat="45.030715" lon="7.98602"><ele>272.20000000000005</ele><time>2026-04-11T15:02:40.06Z</time></trkpt><trkpt lat="45.030675" lon="7.9860933"><ele>272.79999999999995</ele><time>2026-04-11T15:02:41.059Z</time></trkpt><trkpt lat="45.0305967" lon="7.9862267"><ele>273.4</ele><time>2026-04-11T15:02:43.06Z</time></trkpt><trkpt lat="45.0305083" lon="7.9863467"><ele>274.0</ele><time>2026-04-11T15:02:45.062Z</time></trkpt><trkpt lat="45.0304217" lon="7.9864583"><ele>274.0</ele><time>2026-04-11T15:02:47.061Z</time></trkpt><trkpt lat="45.03031" lon="7.9865433"><ele>274.0</ele><time>2026-04-11T15:02:49.063Z</time></trkpt><trkpt lat="45.030245" lon="7.9865817"><ele>274.0</ele><time>2026-04-11T15:02:50.063Z</time></trkpt><trkpt lat="45.0301767" lon="7.9866217"><ele>274.0</ele><time>2026-04-11T15:02:51.061Z</time></trkpt><trkpt lat="45.0301083" lon="7.9866617"><ele>274.0</ele><time>2026-04-11T15:02:52.06Z</time></trkpt><trkpt lat="45.0300383" lon="7.9867017"><ele>274.0</ele><time>2026-04-11T15:02:53.061Z</time></trkpt><trkpt lat="45.0299667" lon="7.9867467"><ele>273.2</ele><time>2026-04-11T15:02:54.062Z</time></trkpt><trkpt lat="45.029895" lon="7.986795"><ele>272.4</ele><time>2026-04-11T15:02:55.062Z</time></trkpt><trkpt lat="45.02982" lon="7.9868433"><ele>271.6</ele><time>2026-04-11T15:02:56.059Z</time></trkpt><trkpt lat="45.0296733" lon="7.9869467"><ele>270.8</ele><time>2026-04-11T15:02:58.059Z</time></trkpt><trkpt lat="45.0295967" lon="7.9869967"><ele>270.0</ele><time>2026-04-11T15:02:59.06Z</time></trkpt><trkpt lat="45.0295217" lon="7.9870467"><ele>270.0</ele><time>2026-04-11T15:03:00.059Z</time></trkpt><trkpt lat="45.0294433" lon="7.98709"><ele>270.0</ele><time>2026-04-11T15:03:01.063Z</time></trkpt><trkpt lat="45.02936" lon="7.9871283"><ele>270.0</ele><time>2026-04-11T15:03:02.059Z</time></trkpt><trkpt lat="45.029275" lon="7.9871567"><ele>270.0</ele><time>2026-04-11T15:03:03.06Z</time></trkpt><trkpt lat="45.0291883" lon="7.98718"><ele>270.0</ele><time>2026-04-11T15:03:04.06Z</time></trkpt><trkpt lat="45.0291033" lon="7.9872017"><ele>270.0</ele><time>2026-04-11T15:03:05.061Z</time></trkpt><trkpt lat="45.0290217" lon="7.9872233"><ele>270.1666666666667</ele><time>2026-04-11T15:03:06.061Z</time></trkpt><trkpt lat="45.02894" lon="7.9872433"><ele>270.3333333333333</ele><time>2026-04-11T15:03:07.063Z</time></trkpt><trkpt lat="45.0288583" lon="7.9872583"><ele>270.5</ele><time>2026-04-11T15:03:08.061Z</time></trkpt><trkpt lat="45.0287783" lon="7.9872733"><ele>270.66666666666663</ele><time>2026-04-11T15:03:09.06Z</time></trkpt><trkpt lat="45.0286983" lon="7.987285"><ele>270.8333333333333</ele><time>2026-04-11T15:03:10.061Z</time></trkpt><trkpt lat="45.0286183" lon="7.987295"><ele>271.0</ele><time>2026-04-11T15:03:11.063Z</time></trkpt><trkpt lat="45.0285383" lon="7.9872983"><ele>271.0</ele><time>2026-04-11T15:03:12.061Z</time></trkpt><trkpt lat="45.0284617" lon="7.9872917"><ele>271.0</ele><time>2026-04-11T15:03:13.062Z</time></trkpt><trkpt lat="45.0283833" lon="7.9872833"><ele>271.0</ele><time>2026-04-11T15:03:14.061Z</time></trkpt><trkpt lat="45.028305" lon="7.9872733"><ele>271.0</ele><time>2026-04-11T15:03:15.062Z</time></trkpt><trkpt lat="45.0282267" lon="7.9872583"><ele>271.0</ele><time>2026-04-11T15:03:16.062Z</time></trkpt><trkpt lat="45.02815" lon="7.9872317"><ele>271.0</ele><time>2026-04-11T15:03:17.063Z</time></trkpt><trkpt lat="45.0279867" lon="7.98716"><ele>270.0</ele><time>2026-04-11T15:03:19.062Z</time></trkpt><trkpt lat="45.0279033" lon="7.9871233"><ele>269.0</ele><time>2026-04-11T15:03:20.062Z</time></trkpt><trkpt lat="45.02782" lon="7.987085"><ele>268.0</ele><time>2026-04-11T15:03:21.062Z</time></trkpt><trkpt lat="45.02774" lon="7.9870483"><ele>267.0</ele><time>2026-04-11T15:03:22.062Z</time></trkpt><trkpt lat="45.0276533" lon="7.9870133"><ele>266.0</ele><time>2026-04-11T15:03:23.061Z</time></trkpt><trkpt lat="45.0275683" lon="7.9869783"><ele>265.0</ele><time>2026-04-11T15:03:24.062Z</time></trkpt><trkpt lat="45.0274833" lon="7.9869483"><ele>265.0</ele><time>2026-04-11T15:03:25.061Z</time></trkpt><trkpt lat="45.0273967" lon="7.9869217"><ele>265.0</ele><time>2026-04-11T15:03:26.062Z</time></trkpt><trkpt lat="45.02731" lon="7.9868983"><ele>265.0</ele><time>2026-04-11T15:03:27.062Z</time></trkpt><trkpt lat="45.0272217" lon="7.986885"><ele>265.0</ele><time>2026-04-11T15:03:28.061Z</time></trkpt><trkpt lat="45.0271333" lon="7.986885"><ele>265.0</ele><time>2026-04-11T15:03:29.061Z</time></trkpt><trkpt lat="45.0270467" lon="7.9869"><ele>265.0</ele><time>2026-04-11T15:03:30.06Z</time></trkpt><trkpt lat="45.0269617" lon="7.986925"><ele>265.0</ele><time>2026-04-11T15:03:31.062Z</time></trkpt><trkpt lat="45.0268817" lon="7.98696"><ele>265.0</ele><time>2026-04-11T15:03:32.061Z</time></trkpt><trkpt lat="45.0268017" lon="7.9870033"><ele>265.0</ele><time>2026-04-11T15:03:33.062Z</time></trkpt><trkpt lat="45.0267217" lon="7.9870467"><ele>265.0</ele><time>2026-04-11T15:03:34.061Z</time></trkpt><trkpt lat="45.0266433" lon="7.987095"><ele>265.0</ele><time>2026-04-11T15:03:35.063Z</time></trkpt><trkpt lat="45.0265633" lon="7.98714"><ele>265.0</ele><time>2026-04-11T15:03:36.064Z</time></trkpt><trkpt lat="45.0264783" lon="7.9871817"><ele>266.4</ele><time>2026-04-11T15:03:37.06Z</time></trkpt><trkpt lat="45.026405" lon="7.9872233"><ele>267.8</ele><time>2026-04-11T15:03:38.06Z</time></trkpt><trkpt lat="45.0262517" lon="7.9873133"><ele>269.2</ele><time>2026-04-11T15:03:40.061Z</time></trkpt><trkpt lat="45.0261767" lon="7.9873633"><ele>270.6</ele><time>2026-04-11T15:03:41.06Z</time></trkpt><trkpt lat="45.0261033" lon="7.987415"><ele>272.0</ele><time>2026-04-11T15:03:42.06Z</time></trkpt><trkpt lat="45.0260383" lon="7.98747"><ele>270.83333333333337</ele><time>2026-04-11T15:03:43.06Z</time></trkpt><trkpt lat="45.0259717" lon="7.9875317"><ele>269.6666666666667</ele><time>2026-04-11T15:03:44.061Z</time></trkpt><trkpt lat="45.0259117" lon="7.9875983"><ele>268.5</ele><time>2026-04-11T15:03:45.062Z</time></trkpt><trkpt lat="45.0258483" lon="7.98767"><ele>267.3333333333333</ele><time>2026-04-11T15:03:46.061Z</time></trkpt><trkpt lat="45.02579" lon="7.9877483"><ele>266.16666666666663</ele><time>2026-04-11T15:03:47.061Z</time></trkpt><trkpt lat="45.0257333" lon="7.9878333"><ele>265.0</ele><time>2026-04-11T15:03:48.061Z</time></trkpt><trkpt lat="45.02568" lon="7.98792"><ele>265.8333333333333</ele><time>2026-04-11T15:03:49.062Z</time></trkpt><trkpt lat="45.0256317" lon="7.98801"><ele>266.66666666666663</ele><time>2026-04-11T15:03:50.059Z</time></trkpt><trkpt lat="45.025585" lon="7.9880983"><ele>267.5</ele><time>2026-04-11T15:03:51.062Z</time></trkpt><trkpt lat="45.0255417" lon="7.9881867"><ele>268.3333333333333</ele><time>2026-04-11T15:03:52.062Z</time></trkpt><trkpt lat="45.0254983" lon="7.9882767"><ele>269.1666666666667</ele><time>2026-04-11T15:03:53.062Z</time></trkpt><trkpt lat="45.025455" lon="7.9883617"><ele>270.0</ele><time>2026-04-11T15:03:54.062Z</time></trkpt><trkpt lat="45.0254117" lon="7.988445"><ele>270.0</ele><time>2026-04-11T15:03:55.063Z</time></trkpt><trkpt lat="45.0253633" lon="7.9885233"><ele>270.0</ele><time>2026-04-11T15:03:56.061Z</time></trkpt><trkpt lat="45.025315" lon="7.9885967"><ele>270.0</ele><time>2026-04-11T15:03:57.062Z</time></trkpt><trkpt lat="45.0252717" lon="7.9886617"><ele>270.0</ele><time>2026-04-11T15:03:58.064Z</time></trkpt><trkpt lat="45.0252167" lon="7.9887217"><ele>270.0</ele><time>2026-04-11T15:03:59.062Z</time></trkpt><trkpt lat="45.0250983" lon="7.98886"><ele>270.0</ele><time>2026-04-11T15:04:01.061Z</time></trkpt><trkpt lat="45.0250333" lon="7.9889183"><ele>269.3333333333333</ele><time>2026-04-11T15:04:02.059Z</time></trkpt><trkpt lat="45.02497" lon="7.9889717"><ele>268.6666666666667</ele><time>2026-04-11T15:04:03.06Z</time></trkpt><trkpt lat="45.0249017" lon="7.98903"><ele>268.0</ele><time>2026-04-11T15:04:04.062Z</time></trkpt><trkpt lat="45.0248283" lon="7.9890817"><ele>267.33333333333337</ele><time>2026-04-11T15:04:05.06Z</time></trkpt><trkpt lat="45.0247517" lon="7.989125"><ele>266.6666666666667</ele><time>2026-04-11T15:04:06.061Z</time></trkpt><trkpt lat="45.024675" lon="7.9891617"><ele>266.0</ele><time>2026-04-11T15:04:07.06Z</time></trkpt><trkpt lat="45.024595" lon="7.9891983"><ele>266.0</ele><time>2026-04-11T15:04:08.06Z</time></trkpt><trkpt lat="45.0245117" lon="7.9892183"><ele>266.0</ele><time>2026-04-11T15:04:09.06Z</time></trkpt><trkpt lat="45.0244283" lon="7.98922"><ele>266.0</ele><time>2026-04-11T15:04:10.058Z</time></trkpt><trkpt lat="45.024345" lon="7.9891867"><ele>266.0</ele><time>2026-04-11T15:04:11.061Z</time></trkpt><trkpt lat="45.024255" lon="7.9891083"><ele>266.0</ele><time>2026-04-11T15:04:12.059Z</time></trkpt><trkpt lat="45.0241533" lon="7.9890067"><ele>262.8</ele><time>2026-04-11T15:04:13.061Z</time></trkpt><trkpt lat="45.0240567" lon="7.9889133"><ele>259.6</ele><time>2026-04-11T15:04:14.06Z</time></trkpt><trkpt lat="45.0239633" lon="7.988835"><ele>256.4</ele><time>2026-04-11T15:04:15.062Z</time></trkpt><trkpt lat="45.0238683" lon="7.9887633"><ele>253.2</ele><time>2026-04-11T15:04:16.061Z</time></trkpt><trkpt lat="45.02377" lon="7.988695"><ele>250.0</ele><time>2026-04-11T15:04:17.059Z</time></trkpt><trkpt lat="45.0236717" lon="7.988635"><ele>250.0</ele><time>2026-04-11T15:04:18.062Z</time></trkpt><trkpt lat="45.0235717" lon="7.9885767"><ele>250.0</ele><time>2026-04-11T15:04:19.061Z</time></trkpt><trkpt lat="45.02347" lon="7.98852"><ele>250.0</ele><time>2026-04-11T15:04:20.061Z</time></trkpt><trkpt lat="45.023265" lon="7.9884067"><ele>250.0</ele><time>2026-04-11T15:04:22.059Z</time></trkpt><trkpt lat="45.0231617" lon="7.9883483"><ele>251.8</ele><time>2026-04-11T15:04:23.06Z</time></trkpt><trkpt lat="45.02306" lon="7.9882883"><ele>253.6</ele><time>2026-04-11T15:04:24.063Z</time></trkpt><trkpt lat="45.0229583" lon="7.98823"><ele>255.39999999999998</ele><time>2026-04-11T15:04:25.064Z</time></trkpt><trkpt lat="45.0228617" lon="7.98817"><ele>257.2</ele><time>2026-04-11T15:04:26.055Z</time></trkpt><trkpt lat="45.02277" lon="7.9881133"><ele>259.0</ele><time>2026-04-11T15:04:27.059Z</time></trkpt><trkpt lat="45.0226833" lon="7.988055"><ele>259.0</ele><time>2026-04-11T15:04:28.054Z</time></trkpt><trkpt lat="45.0225983" lon="7.9880033"><ele>259.0</ele><time>2026-04-11T15:04:29.059Z</time></trkpt><trkpt lat="45.0225183" lon="7.9879533"><ele>259.0</ele><time>2026-04-11T15:04:30.055Z</time></trkpt><trkpt lat="45.0224433" lon="7.9879067"><ele>259.0</ele><time>2026-04-11T15:04:31.065Z</time></trkpt><trkpt lat="45.0223717" lon="7.9878633"><ele>259.0</ele><time>2026-04-11T15:04:32.061Z</time></trkpt><trkpt lat="45.0223033" lon="7.9878283"><ele>259.0</ele><time>2026-04-11T15:04:33.064Z</time></trkpt><trkpt lat="45.0222333" lon="7.9878"><ele>260.0</ele><time>2026-04-11T15:04:34.063Z</time></trkpt><trkpt lat="45.022165" lon="7.9877833"><ele>261.0</ele><time>2026-04-11T15:04:35.059Z</time></trkpt><trkpt lat="45.0221017" lon="7.98778"><ele>262.0</ele><time>2026-04-11T15:04:36.061Z</time></trkpt><trkpt lat="45.0220383" lon="7.9877883"><ele>263.0</ele><time>2026-04-11T15:04:37.06Z</time></trkpt><trkpt lat="45.0219717" lon="7.9878067"><ele>264.0</ele><time>2026-04-11T15:04:38.061Z</time></trkpt><trkpt lat="45.0219083" lon="7.9878283"><ele>265.0</ele><time>2026-04-11T15:04:39.062Z</time></trkpt><trkpt lat="45.0218433" lon="7.9878567"><ele>266.0</ele><time>2026-04-11T15:04:40.062Z</time></trkpt><trkpt lat="45.0217833" lon="7.9878867"><ele>266.0</ele><time>2026-04-11T15:04:41.059Z</time></trkpt><trkpt lat="45.0216617" lon="7.9879417"><ele>266.0</ele><time>2026-04-11T15:04:43.062Z</time></trkpt><trkpt lat="45.02155" lon="7.9879917"><ele>266.0</ele><time>2026-04-11T15:04:45.059Z</time></trkpt><trkpt lat="45.0214333" lon="7.9880333"><ele>266.0</ele><time>2026-04-11T15:04:47.059Z</time></trkpt><trkpt lat="45.0213183" lon="7.98808"><ele>267.6</ele><time>2026-04-11T15:04:49.062Z</time></trkpt><trkpt lat="45.0212167" lon="7.9881133"><ele>269.20000000000005</ele><time>2026-04-11T15:04:51.06Z</time></trkpt><trkpt lat="45.02112" lon="7.9881417"><ele>270.79999999999995</ele><time>2026-04-11T15:04:53.063Z</time></trkpt><trkpt lat="45.02103" lon="7.9881567"><ele>272.4</ele><time>2026-04-11T15:04:55.057Z</time></trkpt><trkpt lat="45.0209433" lon="7.9881483"><ele>274.0</ele><time>2026-04-11T15:04:57.063Z</time></trkpt><trkpt lat="45.0208583" lon="7.9881233"><ele>274.2</ele><time>2026-04-11T15:04:59.06Z</time></trkpt><trkpt lat="45.0207783" lon="7.9880883"><ele>274.4</ele><time>2026-04-11T15:05:01.061Z</time></trkpt><trkpt lat="45.0206983" lon="7.98804"><ele>274.6</ele><time>2026-04-11T15:05:03.06Z</time></trkpt><trkpt lat="45.0205417" lon="7.9879683"><ele>274.8</ele><time>2026-04-11T15:05:07.06Z</time></trkpt><trkpt lat="45.0204617" lon="7.987935"><ele>275.0</ele><time>2026-04-11T15:05:09.061Z</time></trkpt><trkpt lat="45.02038" lon="7.9879033"><ele>275.0</ele><time>2026-04-11T15:05:11.059Z</time></trkpt><trkpt lat="45.02029" lon="7.9878717"><ele>275.0</ele><time>2026-04-11T15:05:13.059Z</time></trkpt><trkpt lat="45.02021" lon="7.9878367"><ele>275.0</ele><time>2026-04-11T15:05:15.06Z</time></trkpt><trkpt lat="45.0201283" lon="7.9877967"><ele>275.0</ele><time>2026-04-11T15:05:17.06Z</time></trkpt><trkpt lat="45.0200433" lon="7.987765"><ele>275.0</ele><time>2026-04-11T15:05:19.062Z</time></trkpt><trkpt lat="45.0199483" lon="7.987725"><ele>274.6666666666667</ele><time>2026-04-11T15:05:21.062Z</time></trkpt><trkpt lat="45.0198367" lon="7.9876917"><ele>274.3333333333333</ele><time>2026-04-11T15:05:23.065Z</time></trkpt><trkpt lat="45.019725" lon="7.9876783"><ele>274.0</ele><time>2026-04-11T15:05:25.059Z</time></trkpt><trkpt lat="45.0194817" lon="7.98773"><ele>274.0</ele><time>2026-04-11T15:05:29.061Z</time></trkpt><trkpt lat="45.01942" lon="7.9877633"><ele>274.0</ele><time>2026-04-11T15:05:30.06Z</time></trkpt><trkpt lat="45.0193067" lon="7.9878483"><ele>274.0</ele><time>2026-04-11T15:05:32.06Z</time></trkpt><trkpt lat="45.01925" lon="7.9879033"><ele>274.0</ele><time>2026-04-11T15:05:33.06Z</time></trkpt><trkpt lat="45.0191917" lon="7.9879633"><ele>274.0</ele><time>2026-04-11T15:05:34.06Z</time></trkpt><trkpt lat="45.019135" lon="7.988025"><ele>274.0</ele><time>2026-04-11T15:05:35.061Z</time></trkpt><trkpt lat="45.01908" lon="7.988095"><ele>274.14285714285717</ele><time>2026-04-11T15:05:36.06Z</time></trkpt><trkpt lat="45.0190267" lon="7.9881667"><ele>274.2857142857143</ele><time>2026-04-11T15:05:37.063Z</time></trkpt><trkpt lat="45.0189767" lon="7.9882417"><ele>274.42857142857144</ele><time>2026-04-11T15:05:38.061Z</time></trkpt><trkpt lat="45.0189317" lon="7.9883217"><ele>274.57142857142856</ele><time>2026-04-11T15:05:39.06Z</time></trkpt><trkpt lat="45.01889" lon="7.9884033"><ele>274.7142857142857</ele><time>2026-04-11T15:05:40.059Z</time></trkpt><trkpt lat="45.0188517" lon="7.9884883"><ele>274.8571428571429</ele><time>2026-04-11T15:05:41.061Z</time></trkpt><trkpt lat="45.01882" lon="7.9885733"><ele>275.0</ele><time>2026-04-11T15:05:42.06Z</time></trkpt><trkpt lat="45.0187867" lon="7.98866"><ele>275.0</ele><time>2026-04-11T15:05:43.063Z</time></trkpt><trkpt lat="45.018755" lon="7.9887483"><ele>275.0</ele><time>2026-04-11T15:05:44.061Z</time></trkpt><trkpt lat="45.0187233" lon="7.98884"><ele>275.0</ele><time>2026-04-11T15:05:45.063Z</time></trkpt><trkpt lat="45.0186933" lon="7.9889317"><ele>275.0</ele><time>2026-04-11T15:05:46.066Z</time></trkpt><trkpt lat="45.018625" lon="7.98912"><ele>275.0</ele><time>2026-04-11T15:05:48.061Z</time></trkpt><trkpt lat="45.01859" lon="7.989215"><ele>275.0</ele><time>2026-04-11T15:05:49.062Z</time></trkpt><trkpt lat="45.018555" lon="7.9893133"><ele>274.1666666666667</ele><time>2026-04-11T15:05:50.059Z</time></trkpt><trkpt lat="45.01852" lon="7.9894117"><ele>273.33333333333337</ele><time>2026-04-11T15:05:51.064Z</time></trkpt><trkpt lat="45.0184833" lon="7.9895133"><ele>272.5</ele><time>2026-04-11T15:05:52.06Z</time></trkpt><trkpt lat="45.0184467" lon="7.9896167"><ele>271.6666666666667</ele><time>2026-04-11T15:05:53.061Z</time></trkpt><trkpt lat="45.01841" lon="7.98972"><ele>270.8333333333333</ele><time>2026-04-11T15:05:54.062Z</time></trkpt><trkpt lat="45.0183733" lon="7.9898233"><ele>270.0</ele><time>2026-04-11T15:05:55.06Z</time></trkpt><trkpt lat="45.0183367" lon="7.9899267"><ele>269.0</ele><time>2026-04-11T15:05:56.057Z</time></trkpt><trkpt lat="45.0183" lon="7.9900317"><ele>268.0</ele><time>2026-04-11T15:05:57.06Z</time></trkpt><trkpt lat="45.0182633" lon="7.9901383"><ele>267.0</ele><time>2026-04-11T15:05:58.061Z</time></trkpt><trkpt lat="45.0182217" lon="7.9902417"><ele>266.0</ele><time>2026-04-11T15:05:59.061Z</time></trkpt><trkpt lat="45.01818" lon="7.990345"><ele>265.0</ele><time>2026-04-11T15:06:00.06Z</time></trkpt><trkpt lat="45.0181367" lon="7.9904483"><ele>264.0</ele><time>2026-04-11T15:06:01.06Z</time></trkpt><trkpt lat="45.0180917" lon="7.9905517"><ele>264.0</ele><time>2026-04-11T15:06:02.06Z</time></trkpt><trkpt lat="45.018045" lon="7.990655"><ele>264.0</ele><time>2026-04-11T15:06:03.063Z</time></trkpt><trkpt lat="45.018" lon="7.990755"><ele>264.0</ele><time>2026-04-11T15:06:04.062Z</time></trkpt><trkpt lat="45.017955" lon="7.9908533"><ele>264.0</ele><time>2026-04-11T15:06:05.059Z</time></trkpt><trkpt lat="45.0179117" lon="7.99095"><ele>264.0</ele><time>2026-04-11T15:06:06.06Z</time></trkpt><trkpt lat="45.0178683" lon="7.9910433"><ele>264.0</ele><time>2026-04-11T15:06:07.06Z</time></trkpt><trkpt lat="45.0177783" lon="7.99122"><ele>264.2857142857143</ele><time>2026-04-11T15:06:09.06Z</time></trkpt><trkpt lat="45.0177317" lon="7.9913083"><ele>264.57142857142856</ele><time>2026-04-11T15:06:10.061Z</time></trkpt><trkpt lat="45.0176867" lon="7.9913917"><ele>264.8571428571429</ele><time>2026-04-11T15:06:11.06Z</time></trkpt><trkpt lat="45.01764" lon="7.9914683"><ele>265.1428571428571</ele><time>2026-04-11T15:06:12.06Z</time></trkpt><trkpt lat="45.0175917" lon="7.99154"><ele>265.42857142857144</ele><time>2026-04-11T15:06:13.059Z</time></trkpt><trkpt lat="45.01754" lon="7.991605"><ele>265.7142857142857</ele><time>2026-04-11T15:06:14.059Z</time></trkpt><trkpt lat="45.0174867" lon="7.991665"><ele>266.0</ele><time>2026-04-11T15:06:15.062Z</time></trkpt><trkpt lat="45.0174317" lon="7.99172"><ele>266.57142857142856</ele><time>2026-04-11T15:06:16.059Z</time></trkpt><trkpt lat="45.0173767" lon="7.991775"><ele>267.1428571428571</ele><time>2026-04-11T15:06:17.06Z</time></trkpt><trkpt lat="45.0173217" lon="7.9918283"><ele>267.7142857142857</ele><time>2026-04-11T15:06:18.061Z</time></trkpt><trkpt lat="45.0172633" lon="7.9918833"><ele>268.2857142857143</ele><time>2026-04-11T15:06:19.059Z</time></trkpt><trkpt lat="45.0172067" lon="7.9919367"><ele>268.85714285714283</ele><time>2026-04-11T15:06:20.061Z</time></trkpt><trkpt lat="45.0171483" lon="7.99199"><ele>269.42857142857144</ele><time>2026-04-11T15:06:21.062Z</time></trkpt><trkpt lat="45.01709" lon="7.992045"><ele>270.0</ele><time>2026-04-11T15:06:22.059Z</time></trkpt><trkpt lat="45.0170317" lon="7.9920983"><ele>270.0</ele><time>2026-04-11T15:06:23.061Z</time></trkpt><trkpt lat="45.01697" lon="7.9921483"><ele>270.0</ele><time>2026-04-11T15:06:24.059Z</time></trkpt><trkpt lat="45.0169083" lon="7.9921967"><ele>270.0</ele><time>2026-04-11T15:06:25.059Z</time></trkpt><trkpt lat="45.0168467" lon="7.992245"><ele>270.0</ele><time>2026-04-11T15:06:26.058Z</time></trkpt><trkpt lat="45.0167867" lon="7.9922883"><ele>270.0</ele><time>2026-04-11T15:06:27.061Z</time></trkpt><trkpt lat="45.0167267" lon="7.99233"><ele>270.0</ele><time>2026-04-11T15:06:28.058Z</time></trkpt><trkpt lat="45.0165567" lon="7.9924533"><ele>270.0</ele><time>2026-04-11T15:06:31.061Z</time></trkpt><trkpt lat="45.016445" lon="7.9925267"><ele>270.0</ele><time>2026-04-11T15:06:33.063Z</time></trkpt><trkpt lat="45.0163317" lon="7.9925933"><ele>270.0</ele><time>2026-04-11T15:06:35.056Z</time></trkpt><trkpt lat="45.01621" lon="7.9926417"><ele>270.0</ele><time>2026-04-11T15:06:37.061Z</time></trkpt><trkpt lat="45.0161467" lon="7.9926633"><ele>270.0</ele><time>2026-04-11T15:06:38.061Z</time></trkpt><trkpt lat="45.0160817" lon="7.9926767"><ele>270.0</ele><time>2026-04-11T15:06:39.059Z</time></trkpt><trkpt lat="45.015955" lon="7.9927"><ele>270.0</ele><time>2026-04-11T15:06:41.06Z</time></trkpt><trkpt lat="45.01589" lon="7.9927083"><ele>270.0</ele><time>2026-04-11T15:06:42.061Z</time></trkpt><trkpt lat="45.0158217" lon="7.9927133"><ele>270.0</ele><time>2026-04-11T15:06:43.062Z</time></trkpt><trkpt lat="45.015755" lon="7.992715"><ele>270.0</ele><time>2026-04-11T15:06:44.058Z</time></trkpt><trkpt lat="45.0156883" lon="7.992715"><ele>270.0</ele><time>2026-04-11T15:06:45.064Z</time></trkpt><trkpt lat="45.0156217" lon="7.992715"><ele>269.3333333333333</ele><time>2026-04-11T15:06:46.063Z</time></trkpt><trkpt lat="45.015555" lon="7.99271"><ele>268.6666666666667</ele><time>2026-04-11T15:06:47.06Z</time></trkpt><trkpt lat="45.0154883" lon="7.9927067"><ele>268.0</ele><time>2026-04-11T15:06:48.063Z</time></trkpt><trkpt lat="45.0154167" lon="7.9927"><ele>267.33333333333337</ele><time>2026-04-11T15:06:49.061Z</time></trkpt><trkpt lat="45.01527" lon="7.99268"><ele>266.6666666666667</ele><time>2026-04-11T15:06:51.062Z</time></trkpt><trkpt lat="45.01519" lon="7.9926683"><ele>266.0</ele><time>2026-04-11T15:06:52.06Z</time></trkpt><trkpt lat="45.01511" lon="7.99265"><ele>266.0</ele><time>2026-04-11T15:06:53.061Z</time></trkpt><trkpt lat="45.0150267" lon="7.9926283"><ele>266.0</ele><time>2026-04-11T15:06:54.062Z</time></trkpt><trkpt lat="45.01494" lon="7.9926"><ele>266.0</ele><time>2026-04-11T15:06:55.06Z</time></trkpt><trkpt lat="45.0148533" lon="7.9925683"><ele>266.0</ele><time>2026-04-11T15:06:56.062Z</time></trkpt><trkpt lat="45.0147667" lon="7.9925367"><ele>266.0</ele><time>2026-04-11T15:06:57.063Z</time></trkpt><trkpt lat="45.0146783" lon="7.9925083"><ele>266.0</ele><time>2026-04-11T15:06:58.06Z</time></trkpt><trkpt lat="45.0145917" lon="7.9924767"><ele>266.2</ele><time>2026-04-11T15:06:59.06Z</time></trkpt><trkpt lat="45.0145017" lon="7.9924483"><ele>266.40000000000003</ele><time>2026-04-11T15:07:00.062Z</time></trkpt><trkpt lat="45.0144133" lon="7.9924183"><ele>266.6</ele><time>2026-04-11T15:07:01.06Z</time></trkpt><trkpt lat="45.014325" lon="7.9923883"><ele>266.8</ele><time>2026-04-11T15:07:02.062Z</time></trkpt><trkpt lat="45.0142367" lon="7.9923583"><ele>267.0</ele><time>2026-04-11T15:07:03.063Z</time></trkpt><trkpt lat="45.0141483" lon="7.9923317"><ele>266.0</ele><time>2026-04-11T15:07:04.06Z</time></trkpt><trkpt lat="45.0140583" lon="7.992305"><ele>265.0</ele><time>2026-04-11T15:07:05.059Z</time></trkpt><trkpt lat="45.013965" lon="7.992285"><ele>264.0</ele><time>2026-04-11T15:07:06.061Z</time></trkpt><trkpt lat="45.0138767" lon="7.9922633"><ele>263.0</ele><time>2026-04-11T15:07:07.054Z</time></trkpt><trkpt lat="45.0137883" lon="7.992235"><ele>262.0</ele><time>2026-04-11T15:07:08.055Z</time></trkpt><trkpt lat="45.0137" lon="7.9922067"><ele>262.0</ele><time>2026-04-11T15:07:09.054Z</time></trkpt><trkpt lat="45.0136133" lon="7.9921733"><ele>262.0</ele><time>2026-04-11T15:07:10.055Z</time></trkpt><trkpt lat="45.013445" lon="7.99207"><ele>262.0</ele><time>2026-04-11T15:07:12.054Z</time></trkpt><trkpt lat="45.01336" lon="7.9920083"><ele>262.0</ele><time>2026-04-11T15:07:13.055Z</time></trkpt><trkpt lat="45.01328" lon="7.991935"><ele>262.4</ele><time>2026-04-11T15:07:14.055Z</time></trkpt><trkpt lat="45.013205" lon="7.991845"><ele>262.79999999999995</ele><time>2026-04-11T15:07:15.055Z</time></trkpt><trkpt lat="45.0131367" lon="7.991745"><ele>263.2</ele><time>2026-04-11T15:07:16.056Z</time></trkpt><trkpt lat="45.0130733" lon="7.9916367"><ele>263.59999999999997</ele><time>2026-04-11T15:07:17.055Z</time></trkpt><trkpt lat="45.0130133" lon="7.9915183"><ele>264.0</ele><time>2026-04-11T15:07:18.054Z</time></trkpt><trkpt lat="45.0129567" lon="7.9913983"><ele>264.0</ele><time>2026-04-11T15:07:19.054Z</time></trkpt><trkpt lat="45.0129017" lon="7.9912683"><ele>264.0</ele><time>2026-04-11T15:07:20.057Z</time></trkpt><trkpt lat="45.012845" lon="7.99114"><ele>264.0</ele><time>2026-04-11T15:07:21.058Z</time></trkpt><trkpt lat="45.0127867" lon="7.9910117"><ele>264.0</ele><time>2026-04-11T15:07:22.06Z</time></trkpt><trkpt lat="45.012725" lon="7.99089"><ele>264.0</ele><time>2026-04-11T15:07:23.059Z</time></trkpt><trkpt lat="45.01266" lon="7.9907717"><ele>262.8</ele><time>2026-04-11T15:07:24.056Z</time></trkpt><trkpt lat="45.0125933" lon="7.99066"><ele>261.59999999999997</ele><time>2026-04-11T15:07:25.061Z</time></trkpt><trkpt lat="45.0125217" lon="7.9905517"><ele>260.4</ele><time>2026-04-11T15:07:26.06Z</time></trkpt><trkpt lat="45.012445" lon="7.9904617"><ele>259.2</ele><time>2026-04-11T15:07:27.062Z</time></trkpt><trkpt lat="45.0123583" lon="7.9903883"><ele>258.0</ele><time>2026-04-11T15:07:28.063Z</time></trkpt><trkpt lat="45.0122667" lon="7.9903283"><ele>257.5</ele><time>2026-04-11T15:07:29.06Z</time></trkpt><trkpt lat="45.0121683" lon="7.9902817"><ele>257.0</ele><time>2026-04-11T15:07:30.058Z</time></trkpt><trkpt lat="45.0120683" lon="7.9902467"><ele>256.5</ele><time>2026-04-11T15:07:31.062Z</time></trkpt><trkpt lat="45.0118517" lon="7.9901883"><ele>256.0</ele><time>2026-04-11T15:07:33.062Z</time></trkpt><trkpt lat="45.0117383" lon="7.9901617"><ele>255.33333333333331</ele><time>2026-04-11T15:07:34.06Z</time></trkpt><trkpt lat="45.011635" lon="7.9901417"><ele>254.66666666666666</ele><time>2026-04-11T15:07:35.06Z</time></trkpt><trkpt lat="45.0115533" lon="7.9901267"><ele>254.0</ele><time>2026-04-11T15:07:36.061Z</time></trkpt><trkpt lat="45.01148" lon="7.9901217"><ele>253.33333333333331</ele><time>2026-04-11T15:07:37.059Z</time></trkpt><trkpt lat="45.011415" lon="7.9901383"><ele>252.66666666666666</ele><time>2026-04-11T15:07:38.06Z</time></trkpt><trkpt lat="45.01132" lon="7.9902383"><ele>252.0</ele><time>2026-04-11T15:07:40.061Z</time></trkpt><trkpt lat="45.0112367" lon="7.9903483"><ele>252.0</ele><time>2026-04-11T15:07:42.06Z</time></trkpt><trkpt lat="45.0111367" lon="7.99044"><ele>252.0</ele><time>2026-04-11T15:07:44.055Z</time></trkpt><trkpt lat="45.0110317" lon="7.9905217"><ele>252.0</ele><time>2026-04-11T15:07:46.059Z</time></trkpt><trkpt lat="45.01092" lon="7.9905833"><ele>252.0</ele><time>2026-04-11T15:07:48.061Z</time></trkpt><trkpt lat="45.0107967" lon="7.990605"><ele>252.0</ele><time>2026-04-11T15:07:50.062Z</time></trkpt><trkpt lat="45.0107333" lon="7.990615"><ele>252.0</ele><time>2026-04-11T15:07:51.064Z</time></trkpt><trkpt lat="45.010605" lon="7.9906433"><ele>252.0</ele><time>2026-04-11T15:07:53.063Z</time></trkpt><trkpt lat="45.0104717" lon="7.9906733"><ele>252.0</ele><time>2026-04-11T15:07:55.06Z</time></trkpt><trkpt lat="45.0103567" lon="7.990695"><ele>252.0</ele><time>2026-04-11T15:07:57.061Z</time></trkpt><trkpt lat="45.0102683" lon="7.9907017"><ele>252.0</ele><time>2026-04-11T15:07:59.058Z</time></trkpt><trkpt lat="45.0101883" lon="7.990745"><ele>252.0</ele><time>2026-04-11T15:08:02.061Z</time></trkpt><trkpt lat="45.0101183" lon="7.9907833"><ele>252.0</ele><time>2026-04-11T15:08:05.058Z</time></trkpt><trkpt lat="45.010055" lon="7.9908367"><ele>252.0</ele><time>2026-04-11T15:08:08.06Z</time></trkpt><trkpt lat="45.009995" lon="7.990885"><ele>252.0</ele><time>2026-04-11T15:08:11.061Z</time></trkpt><trkpt lat="45.009925" lon="7.9909083"><ele>252.0</ele><time>2026-04-11T15:08:14.061Z</time></trkpt><trkpt lat="45.0097833" lon="7.990815"><ele>251.66666666666666</ele><time>2026-04-11T15:08:20.06Z</time></trkpt><trkpt lat="45.0097183" lon="7.9907333"><ele>251.33333333333331</ele><time>2026-04-11T15:08:24.061Z</time></trkpt><trkpt lat="45.0096717" lon="7.9906483"><ele>251.0</ele><time>2026-04-11T15:08:27.064Z</time></trkpt><trkpt lat="45.0096133" lon="7.9905817"><ele>250.66666666666666</ele><time>2026-04-11T15:08:31.06Z</time></trkpt><trkpt lat="45.0095617" lon="7.99052"><ele>250.33333333333331</ele><time>2026-04-11T15:08:35.059Z</time></trkpt><trkpt lat="45.0094483" lon="7.990445"><ele>250.0</ele><time>2026-04-11T15:08:46.06Z</time></trkpt><trkpt lat="45.009525" lon="7.9904567"><ele>250.0</ele><time>2026-04-11T15:08:53.059Z</time></trkpt><trkpt lat="45.0095933" lon="7.9905"><ele>250.0</ele><time>2026-04-11T15:08:58.062Z</time></trkpt><trkpt lat="45.009705" lon="7.99067"><ele>250.0</ele><time>2026-04-11T15:09:04.06Z</time></trkpt><trkpt lat="45.0097567" lon="7.9907283"><ele>250.0</ele><time>2026-04-11T15:09:06.061Z</time></trkpt><trkpt lat="45.0098217" lon="7.9907867"><ele>250.0</ele><time>2026-04-11T15:09:08.062Z</time></trkpt><trkpt lat="45.00989" lon="7.9908183"><ele>250.4</ele><time>2026-04-11T15:09:10.06Z</time></trkpt><trkpt lat="45.009975" lon="7.99085"><ele>250.8</ele><time>2026-04-11T15:09:13.062Z</time></trkpt><trkpt lat="45.0100517" lon="7.9908367"><ele>251.2</ele><time>2026-04-11T15:09:15.06Z</time></trkpt><trkpt lat="45.01014" lon="7.990785"><ele>251.6</ele><time>2026-04-11T15:09:17.06Z</time></trkpt><trkpt lat="45.0102217" lon="7.99074"><ele>252.0</ele><time>2026-04-11T15:09:19.061Z</time></trkpt><trkpt lat="45.010365" lon="7.9907317"><ele>252.0</ele><time>2026-04-11T15:09:24.061Z</time></trkpt><trkpt lat="45.0104183" lon="7.9908067"><ele>252.0</ele><time>2026-04-11T15:09:27.061Z</time></trkpt><trkpt lat="45.01041" lon="7.9909417"><ele>252.0</ele><time>2026-04-11T15:09:30.061Z</time></trkpt><trkpt lat="45.010355" lon="7.9910283"><ele>252.0</ele><time>2026-04-11T15:09:32.06Z</time></trkpt><trkpt lat="45.0102567" lon="7.99108"><ele>252.0</ele><time>2026-04-11T15:09:34.06Z</time></trkpt><trkpt lat="45.0101917" lon="7.9911067"><ele>252.0</ele><time>2026-04-11T15:09:35.059Z</time></trkpt><trkpt lat="45.01012" lon="7.99113"><ele>250.16666666666666</ele><time>2026-04-11T15:09:36.061Z</time></trkpt><trkpt lat="45.01005" lon="7.9911483"><ele>248.33333333333331</ele><time>2026-04-11T15:09:37.06Z</time></trkpt><trkpt lat="45.009985" lon="7.9911733"><ele>246.5</ele><time>2026-04-11T15:09:38.061Z</time></trkpt><trkpt lat="45.00992" lon="7.9911933"><ele>244.66666666666666</ele><time>2026-04-11T15:09:39.059Z</time></trkpt><trkpt lat="45.0098583" lon="7.9912167"><ele>242.83333333333331</ele><time>2026-04-11T15:09:40.061Z</time></trkpt><trkpt lat="45.00973" lon="7.9912617"><ele>241.0</ele><time>2026-04-11T15:09:42.059Z</time></trkpt><trkpt lat="45.0096583" lon="7.9912783"><ele>240.16666666666666</ele><time>2026-04-11T15:09:43.06Z</time></trkpt><trkpt lat="45.0095867" lon="7.9912783"><ele>239.33333333333331</ele><time>2026-04-11T15:09:44.06Z</time></trkpt><trkpt lat="45.0095083" lon="7.9912567"><ele>238.5</ele><time>2026-04-11T15:09:45.06Z</time></trkpt><trkpt lat="45.0094233" lon="7.9912167"><ele>237.66666666666669</ele><time>2026-04-11T15:09:46.062Z</time></trkpt><trkpt lat="45.0093383" lon="7.991175"><ele>236.83333333333334</ele><time>2026-04-11T15:09:47.061Z</time></trkpt><trkpt lat="45.0092583" lon="7.9911383"><ele>236.0</ele><time>2026-04-11T15:09:48.06Z</time></trkpt><trkpt lat="45.0091783" lon="7.9911083"><ele>234.42857142857142</ele><time>2026-04-11T15:09:49.061Z</time></trkpt><trkpt lat="45.0091" lon="7.9910833"><ele>232.8571428571429</ele><time>2026-04-11T15:09:50.06Z</time></trkpt><trkpt lat="45.009025" lon="7.99106"><ele>231.2857142857143</ele><time>2026-04-11T15:09:51.063Z</time></trkpt><trkpt lat="45.00895" lon="7.9910333"><ele>229.71428571428572</ele><time>2026-04-11T15:09:52.06Z</time></trkpt><trkpt lat="45.0088767" lon="7.9910083"><ele>228.14285714285717</ele><time>2026-04-11T15:09:53.06Z</time></trkpt><trkpt lat="45.0088067" lon="7.990985"><ele>226.5714285714286</ele><time>2026-04-11T15:09:54.062Z</time></trkpt><trkpt lat="45.008745" lon="7.9909633"><ele>225.00000000000003</ele><time>2026-04-11T15:09:55.062Z</time></trkpt><trkpt lat="45.0086833" lon="7.9909367"><ele>225.0</ele><time>2026-04-11T15:09:56.064Z</time></trkpt><trkpt lat="45.008565" lon="7.9908917"><ele>225.0</ele><time>2026-04-11T15:09:58.063Z</time></trkpt><trkpt lat="45.0084583" lon="7.990855"><ele>225.0</ele><time>2026-04-11T15:10:00.061Z</time></trkpt><trkpt lat="45.0083533" lon="7.99082"><ele>225.0</ele><time>2026-04-11T15:10:02.063Z</time></trkpt><trkpt lat="45.0081317" lon="7.9906983"><ele>225.4</ele><time>2026-04-11T15:10:06.061Z</time></trkpt><trkpt lat="45.0080317" lon="7.9906383"><ele>225.8</ele><time>2026-04-11T15:10:08.062Z</time></trkpt><trkpt lat="45.0079483" lon="7.9905417"><ele>226.2</ele><time>2026-04-11T15:10:10.061Z</time></trkpt><trkpt lat="45.007875" lon="7.9904017"><ele>226.6</ele><time>2026-04-11T15:10:12.061Z</time></trkpt><trkpt lat="45.0078317" lon="7.9903367"><ele>227.0</ele><time>2026-04-11T15:10:13.062Z</time></trkpt><trkpt lat="45.0077433" lon="7.9902233"><ele>227.0</ele><time>2026-04-11T15:10:15.063Z</time></trkpt><trkpt lat="45.0076533" lon="7.990125"><ele>227.0</ele><time>2026-04-11T15:10:17.061Z</time></trkpt><trkpt lat="45.007565" lon="7.99005"><ele>227.0</ele><time>2026-04-11T15:10:19.059Z</time></trkpt><trkpt lat="45.00748" lon="7.9899867"><ele>227.0</ele><time>2026-04-11T15:10:21.062Z</time></trkpt><trkpt lat="45.007395" lon="7.9899133"><ele>227.0</ele><time>2026-04-11T15:10:23.06Z</time></trkpt><trkpt lat="45.0072183" lon="7.9897883"><ele>225.8</ele><time>2026-04-11T15:10:27.061Z</time></trkpt><trkpt lat="45.007125" lon="7.9897"><ele>224.6</ele><time>2026-04-11T15:10:29.061Z</time></trkpt><trkpt lat="45.0070383" lon="7.989615"><ele>223.40000000000003</ele><time>2026-04-11T15:10:31.061Z</time></trkpt><trkpt lat="45.0069517" lon="7.9895217"><ele>222.20000000000002</ele><time>2026-04-11T15:10:33.062Z</time></trkpt><trkpt lat="45.0068767" lon="7.98943"><ele>221.0</ele><time>2026-04-11T15:10:35.06Z</time></trkpt><trkpt lat="45.006795" lon="7.9893383"><ele>221.0</ele><time>2026-04-11T15:10:37.06Z</time></trkpt><trkpt lat="45.0067167" lon="7.9892367"><ele>221.00000000000003</ele><time>2026-04-11T15:10:39.061Z</time></trkpt><trkpt lat="45.0066433" lon="7.98913"><ele>221.00000000000003</ele><time>2026-04-11T15:10:41.059Z</time></trkpt><trkpt lat="45.0065683" lon="7.9890317"><ele>221.0</ele><time>2026-04-11T15:10:43.062Z</time></trkpt><trkpt lat="45.0064617" lon="7.9889483"><ele>221.0</ele><time>2026-04-11T15:10:45.061Z</time></trkpt><trkpt lat="45.006325" lon="7.988905"><ele>221.50000000000003</ele><time>2026-04-11T15:10:47.061Z</time></trkpt><trkpt lat="45.00625" lon="7.9888917"><ele>222.0</ele><time>2026-04-11T15:10:48.061Z</time></trkpt><trkpt lat="45.0061683" lon="7.9888783"><ele>222.5</ele><time>2026-04-11T15:10:49.061Z</time></trkpt><trkpt lat="45.0060883" lon="7.988855"><ele>223.0</ele><time>2026-04-11T15:10:50.06Z</time></trkpt><trkpt lat="45.006" lon="7.9888167"><ele>223.50000000000003</ele><time>2026-04-11T15:10:51.062Z</time></trkpt><trkpt lat="45.0059133" lon="7.988775"><ele>224.0</ele><time>2026-04-11T15:10:52.059Z</time></trkpt><trkpt lat="45.0058333" lon="7.9887233"><ele>222.16666666666669</ele><time>2026-04-11T15:10:53.06Z</time></trkpt><trkpt lat="45.00575" lon="7.9886883"><ele>220.33333333333334</ele><time>2026-04-11T15:10:54.063Z</time></trkpt><trkpt lat="45.00568" lon="7.98866"><ele>218.5</ele><time>2026-04-11T15:10:55.06Z</time></trkpt><trkpt lat="45.0056167" lon="7.988635"><ele>216.66666666666669</ele><time>2026-04-11T15:10:56.059Z</time></trkpt><trkpt lat="45.0055333" lon="7.9885783"><ele>214.83333333333334</ele><time>2026-04-11T15:10:58.062Z</time></trkpt><trkpt lat="45.0054733" lon="7.98863"><ele>213.0</ele><time>2026-04-11T15:11:00.06Z</time></trkpt><trkpt lat="45.005505" lon="7.9887083"><ele>213.0</ele><time>2026-04-11T15:11:02.06Z</time></trkpt><trkpt lat="45.0055683" lon="7.9887517"><ele>213.0</ele><time>2026-04-11T15:11:03.061Z</time></trkpt><trkpt lat="45.0056283" lon="7.9888017"><ele>213.0</ele><time>2026-04-11T15:11:04.06Z</time></trkpt><trkpt lat="45.0056783" lon="7.9888583"><ele>213.0</ele><time>2026-04-11T15:11:05.059Z</time></trkpt><trkpt lat="45.0057783" lon="7.988965"><ele>213.0</ele><time>2026-04-11T15:11:07.061Z</time></trkpt><trkpt lat="45.005925" lon="7.98911"><ele>213.0</ele><time>2026-04-11T15:11:11.059Z</time></trkpt><trkpt lat="45.005915" lon="7.9892033"><ele>213.0</ele><time>2026-04-11T15:11:14.06Z</time></trkpt><trkpt lat="45.0058167" lon="7.9891667"><ele>213.0</ele><time>2026-04-11T15:11:17.061Z</time></trkpt><trkpt lat="45.00573" lon="7.989115"><ele>213.0</ele><time>2026-04-11T15:11:19.06Z</time></trkpt><trkpt lat="45.0056433" lon="7.9890533"><ele>213.0</ele><time>2026-04-11T15:11:21.061Z</time></trkpt><trkpt lat="45.0055567" lon="7.9890017"><ele>213.0</ele><time>2026-04-11T15:11:23.059Z</time></trkpt><trkpt lat="45.0054683" lon="7.9889433"><ele>213.0</ele><time>2026-04-11T15:11:25.06Z</time></trkpt><trkpt lat="45.00538" lon="7.9888717"><ele>213.0</ele><time>2026-04-11T15:11:27.061Z</time></trkpt><trkpt lat="45.0052833" lon="7.9887883"><ele>213.0</ele><time>2026-04-11T15:11:29.061Z</time></trkpt><trkpt lat="45.00509" lon="7.9885917"><ele>213.4</ele><time>2026-04-11T15:11:33.06Z</time></trkpt><trkpt lat="45.0049933" lon="7.988495"><ele>213.8</ele><time>2026-04-11T15:11:35.062Z</time></trkpt><trkpt lat="45.0049017" lon="7.988405"><ele>214.2</ele><time>2026-04-11T15:11:37.06Z</time></trkpt><trkpt lat="45.0048217" lon="7.9883183"><ele>214.6</ele><time>2026-04-11T15:11:39.063Z</time></trkpt><trkpt lat="45.00475" lon="7.9882483"><ele>215.0</ele><time>2026-04-11T15:11:41.059Z</time></trkpt><trkpt lat="45.0046833" lon="7.9882083"><ele>215.0</ele><time>2026-04-11T15:11:43.059Z</time></trkpt><trkpt lat="45.0046017" lon="7.9881817"><ele>215.0</ele><time>2026-04-11T15:11:46.062Z</time></trkpt><trkpt lat="45.00453" lon="7.9882367"><ele>215.0</ele><time>2026-04-11T15:11:48.061Z</time></trkpt><trkpt lat="45.0044717" lon="7.9883633"><ele>215.0</ele><time>2026-04-11T15:11:50.061Z</time></trkpt><trkpt lat="45.0043767" lon="7.9885917"><ele>215.0</ele><time>2026-04-11T15:11:53.058Z</time></trkpt><trkpt lat="45.00434" lon="7.98867"><ele>215.0</ele><time>2026-04-11T15:11:54.063Z</time></trkpt><trkpt lat="45.0043067" lon="7.9887467"><ele>215.0</ele><time>2026-04-11T15:11:55.063Z</time></trkpt><trkpt lat="45.0042467" lon="7.9888933"><ele>215.0</ele><time>2026-04-11T15:11:57.062Z</time></trkpt><trkpt lat="45.004195" lon="7.9890267"><ele>215.0</ele><time>2026-04-11T15:11:59.061Z</time></trkpt><trkpt lat="45.0041417" lon="7.98916"><ele>215.00000000000003</ele><time>2026-04-11T15:12:01.059Z</time></trkpt><trkpt lat="45.0040917" lon="7.9892817"><ele>215.0</ele><time>2026-04-11T15:12:03.063Z</time></trkpt><trkpt lat="45.004045" lon="7.9893917"><ele>215.0</ele><time>2026-04-11T15:12:05.06Z</time></trkpt><trkpt lat="45.0040033" lon="7.98949"><ele>215.0</ele><time>2026-04-11T15:12:07.061Z</time></trkpt><trkpt lat="45.003965" lon="7.98958"><ele>215.00000000000003</ele><time>2026-04-11T15:12:09.064Z</time></trkpt><trkpt lat="45.0039267" lon="7.9896683"><ele>215.0</ele><time>2026-04-11T15:12:11.062Z</time></trkpt><trkpt lat="45.00384" lon="7.98984"><ele>215.0</ele><time>2026-04-11T15:12:15.062Z</time></trkpt><trkpt lat="45.003805" lon="7.9899233"><ele>215.0</ele><time>2026-04-11T15:12:17.062Z</time></trkpt><trkpt lat="45.0037683" lon="7.99001"><ele>215.0</ele><time>2026-04-11T15:12:19.061Z</time></trkpt><trkpt lat="45.00373" lon="7.9900917"><ele>215.0</ele><time>2026-04-11T15:12:21.06Z</time></trkpt><trkpt lat="45.0036983" lon="7.9901817"><ele>215.0</ele><time>2026-04-11T15:12:23.06Z</time></trkpt><trkpt lat="45.0036817" lon="7.9902883"><ele>215.0</ele><time>2026-04-11T15:12:25.062Z</time></trkpt><trkpt lat="45.0036633" lon="7.9903767"><ele>215.0</ele><time>2026-04-11T15:12:27.063Z</time></trkpt><trkpt lat="45.0036467" lon="7.9904667"><ele>216.00000000000003</ele><time>2026-04-11T15:12:29.06Z</time></trkpt><trkpt lat="45.003635" lon="7.990565"><ele>217.0</ele><time>2026-04-11T15:12:31.065Z</time></trkpt><trkpt lat="45.0036367" lon="7.99066"><ele>218.0</ele><time>2026-04-11T15:12:33.065Z</time></trkpt><trkpt lat="45.0036367" lon="7.9908883"><ele>219.0</ele><time>2026-04-11T15:12:38.063Z</time></trkpt><trkpt lat="45.00364" lon="7.9909817"><ele>220.00000000000003</ele><time>2026-04-11T15:12:40.063Z</time></trkpt><trkpt lat="45.00364" lon="7.9910733"><ele>221.0</ele><time>2026-04-11T15:12:42.06Z</time></trkpt><trkpt lat="45.0036467" lon="7.9912067"><ele>221.33333333333334</ele><time>2026-04-11T15:12:45.063Z</time></trkpt><trkpt lat="45.0036433" lon="7.9912983"><ele>221.66666666666669</ele><time>2026-04-11T15:12:47.06Z</time></trkpt><trkpt lat="45.0036433" lon="7.99139"><ele>222.0</ele><time>2026-04-11T15:12:49.064Z</time></trkpt><trkpt lat="45.003645" lon="7.9914833"><ele>222.33333333333331</ele><time>2026-04-11T15:12:51.064Z</time></trkpt><trkpt lat="45.0036483" lon="7.9915767"><ele>222.66666666666666</ele><time>2026-04-11T15:12:53.062Z</time></trkpt><trkpt lat="45.00366" lon="7.9916683"><ele>223.0</ele><time>2026-04-11T15:12:55.062Z</time></trkpt><trkpt lat="45.0037083" lon="7.9918817"><ele>222.99999999999997</ele><time>2026-04-11T15:13:00.06Z</time></trkpt><trkpt lat="45.0037667" lon="7.9919817"><ele>223.0</ele><time>2026-04-11T15:13:03.061Z</time></trkpt><trkpt lat="45.00384" lon="7.9920367"><ele>223.0</ele><time>2026-04-11T15:13:06.063Z</time></trkpt><trkpt lat="45.0039133" lon="7.9921017"><ele>223.0</ele><time>2026-04-11T15:13:09.061Z</time></trkpt><trkpt lat="45.003995" lon="7.992155"><ele>222.99999999999997</ele><time>2026-04-11T15:13:12.059Z</time></trkpt><trkpt lat="45.0040767" lon="7.992205"><ele>223.0</ele><time>2026-04-11T15:13:15.061Z</time></trkpt><trkpt lat="45.0041533" lon="7.9922817"><ele>223.60000000000002</ele><time>2026-04-11T15:13:18.061Z</time></trkpt><trkpt lat="45.00418" lon="7.9924983"><ele>224.20000000000002</ele><time>2026-04-11T15:13:23.063Z</time></trkpt><trkpt lat="45.00416" lon="7.992635"><ele>224.8</ele><time>2026-04-11T15:13:26.061Z</time></trkpt><trkpt lat="45.0041617" lon="7.9927417"><ele>225.4</ele><time>2026-04-11T15:13:28.06Z</time></trkpt><trkpt lat="45.004185" lon="7.9928383"><ele>226.0</ele><time>2026-04-11T15:13:30.062Z</time></trkpt><trkpt lat="45.0042233" lon="7.99293"><ele>227.8</ele><time>2026-04-11T15:13:32.058Z</time></trkpt><trkpt lat="45.004265" lon="7.9930167"><ele>229.60000000000002</ele><time>2026-04-11T15:13:34.063Z</time></trkpt><trkpt lat="45.0043217" lon="7.993095"><ele>231.4</ele><time>2026-04-11T15:13:36.064Z</time></trkpt><trkpt lat="45.0043767" lon="7.9931867"><ele>233.2</ele><time>2026-04-11T15:13:38.063Z</time></trkpt><trkpt lat="45.0044333" lon="7.9932667"><ele>235.0</ele><time>2026-04-11T15:13:40.063Z</time></trkpt><trkpt lat="45.004515" lon="7.9934483"><ele>235.7142857142857</ele><time>2026-04-11T15:13:44.063Z</time></trkpt><trkpt lat="45.00454" lon="7.9935483"><ele>236.4285714285714</ele><time>2026-04-11T15:13:46.062Z</time></trkpt><trkpt lat="45.00455" lon="7.9936517"><ele>237.14285714285714</ele><time>2026-04-11T15:13:48.062Z</time></trkpt><trkpt lat="45.00455" lon="7.993755"><ele>237.85714285714283</ele><time>2026-04-11T15:13:50.061Z</time></trkpt><trkpt lat="45.0045467" lon="7.9938583"><ele>238.57142857142856</ele><time>2026-04-11T15:13:52.061Z</time></trkpt><trkpt lat="45.004535" lon="7.9939567"><ele>239.28571428571428</ele><time>2026-04-11T15:13:54.062Z</time></trkpt><trkpt lat="45.0045283" lon="7.9940583"><ele>240.0</ele><time>2026-04-11T15:13:56.058Z</time></trkpt><trkpt lat="45.0045167" lon="7.994155"><ele>241.16666666666666</ele><time>2026-04-11T15:13:58.064Z</time></trkpt><trkpt lat="45.0045017" lon="7.99425"><ele>242.33333333333331</ele><time>2026-04-11T15:14:00.062Z</time></trkpt><trkpt lat="45.0045" lon="7.9943617"><ele>243.5</ele><time>2026-04-11T15:14:02.061Z</time></trkpt><trkpt lat="45.0044867" lon="7.99457"><ele>244.66666666666666</ele><time>2026-04-11T15:14:06.062Z</time></trkpt><trkpt lat="45.0044917" lon="7.9946783"><ele>245.83333333333331</ele><time>2026-04-11T15:14:08.064Z</time></trkpt><trkpt lat="45.0044917" lon="7.9947833"><ele>247.0</ele><time>2026-04-11T15:14:10.063Z</time></trkpt><trkpt lat="45.0044917" lon="7.99489"><ele>246.99999999999997</ele><time>2026-04-11T15:14:12.062Z</time></trkpt><trkpt lat="45.00449" lon="7.9949933"><ele>247.0</ele><time>2026-04-11T15:14:14.061Z</time></trkpt><trkpt lat="45.00448" lon="7.995095"><ele>247.0</ele><time>2026-04-11T15:14:16.063Z</time></trkpt><trkpt lat="45.0044533" lon="7.9952"><ele>247.0</ele><time>2026-04-11T15:14:18.062Z</time></trkpt><trkpt lat="45.0044017" lon="7.9952883"><ele>246.99999999999997</ele><time>2026-04-11T15:14:20.063Z</time></trkpt><trkpt lat="45.00434" lon="7.99536"><ele>247.0</ele><time>2026-04-11T15:14:22.062Z</time></trkpt><trkpt lat="45.0042667" lon="7.9954033"><ele>247.39999999999998</ele><time>2026-04-11T15:14:24.063Z</time></trkpt><trkpt lat="45.004115" lon="7.9954333"><ele>247.79999999999998</ele><time>2026-04-11T15:14:28.061Z</time></trkpt><trkpt lat="45.004025" lon="7.99544"><ele>248.2</ele><time>2026-04-11T15:14:30.064Z</time></trkpt><trkpt lat="45.0039383" lon="7.9954617"><ele>248.6</ele><time>2026-04-11T15:14:32.061Z</time></trkpt><trkpt lat="45.0038467" lon="7.9954967"><ele>249.0</ele><time>2026-04-11T15:14:34.063Z</time></trkpt><trkpt lat="45.0037533" lon="7.99555"><ele>249.0</ele><time>2026-04-11T15:14:36.063Z</time></trkpt><trkpt lat="45.00368" lon="7.9956267"><ele>248.99999999999997</ele><time>2026-04-11T15:14:38.065Z</time></trkpt><trkpt lat="45.003625" lon="7.9957217"><ele>248.99999999999997</ele><time>2026-04-11T15:14:40.062Z</time></trkpt><trkpt lat="45.0035717" lon="7.9958233"><ele>249.0</ele><time>2026-04-11T15:14:42.063Z</time></trkpt><trkpt lat="45.0035083" lon="7.99592"><ele>249.0</ele><time>2026-04-11T15:14:44.064Z</time></trkpt><trkpt lat="45.00345" lon="7.9960217"><ele>250.79999999999998</ele><time>2026-04-11T15:14:46.064Z</time></trkpt><trkpt lat="45.0033417" lon="7.9962133"><ele>252.59999999999997</ele><time>2026-04-11T15:14:50.064Z</time></trkpt><trkpt lat="45.0032867" lon="7.9963083"><ele>254.4</ele><time>2026-04-11T15:14:52.063Z</time></trkpt><trkpt lat="45.0032333" lon="7.9964017"><ele>256.2</ele><time>2026-04-11T15:14:54.059Z</time></trkpt><trkpt lat="45.00319" lon="7.9965"><ele>258.0</ele><time>2026-04-11T15:14:56.061Z</time></trkpt><trkpt lat="45.0031633" lon="7.9966033"><ele>257.3333333333333</ele><time>2026-04-11T15:14:58.061Z</time></trkpt><trkpt lat="45.00317" lon="7.9967017"><ele>256.6666666666667</ele><time>2026-04-11T15:15:00.063Z</time></trkpt><trkpt lat="45.0032133" lon="7.99677"><ele>256.0</ele><time>2026-04-11T15:15:02.06Z</time></trkpt><trkpt lat="45.0032767" lon="7.996825"><ele>255.33333333333334</ele><time>2026-04-11T15:15:04.061Z</time></trkpt><trkpt lat="45.0033583" lon="7.9968683"><ele>254.66666666666669</ele><time>2026-04-11T15:15:06.06Z</time></trkpt><trkpt lat="45.0034467" lon="7.9969217"><ele>254.0</ele><time>2026-04-11T15:15:08.061Z</time></trkpt><trkpt lat="45.003605" lon="7.997055"><ele>253.2</ele><time>2026-04-11T15:15:12.06Z</time></trkpt><trkpt lat="45.0036767" lon="7.9971333"><ele>252.39999999999998</ele><time>2026-04-11T15:15:14.061Z</time></trkpt><trkpt lat="45.0037467" lon="7.99722"><ele>251.6</ele><time>2026-04-11T15:15:16.062Z</time></trkpt><trkpt lat="45.0038167" lon="7.9973033"><ele>250.8</ele><time>2026-04-11T15:15:18.061Z</time></trkpt><trkpt lat="45.0038767" lon="7.9973967"><ele>250.0</ele><time>2026-04-11T15:15:20.062Z</time></trkpt><trkpt lat="45.0039367" lon="7.997485"><ele>250.6</ele><time>2026-04-11T15:15:22.061Z</time></trkpt><trkpt lat="45.0040033" lon="7.9975717"><ele>251.2</ele><time>2026-04-11T15:15:24.061Z</time></trkpt><trkpt lat="45.0040767" lon="7.9976733"><ele>251.8</ele><time>2026-04-11T15:15:26.062Z</time></trkpt><trkpt lat="45.0041283" lon="7.9978083"><ele>252.4</ele><time>2026-04-11T15:15:28.061Z</time></trkpt><trkpt lat="45.0041683" lon="7.997985"><ele>253.0</ele><time>2026-04-11T15:15:30.06Z</time></trkpt><trkpt lat="45.00418" lon="7.9981983"><ele>252.99999999999997</ele><time>2026-04-11T15:15:32.06Z</time></trkpt><trkpt lat="45.0041717" lon="7.998315"><ele>253.0</ele><time>2026-04-11T15:15:33.06Z</time></trkpt><trkpt lat="45.0041533" lon="7.9984367"><ele>253.0</ele><time>2026-04-11T15:15:34.063Z</time></trkpt><trkpt lat="45.0041283" lon="7.9985567"><ele>253.0</ele><time>2026-04-11T15:15:35.06Z</time></trkpt><trkpt lat="45.0040983" lon="7.9986817"><ele>252.99999999999997</ele><time>2026-04-11T15:15:36.062Z</time></trkpt><trkpt lat="45.0040667" lon="7.9988083"><ele>253.0</ele><time>2026-04-11T15:15:37.061Z</time></trkpt><trkpt lat="45.0040367" lon="7.9989367"><ele>250.4</ele><time>2026-04-11T15:15:38.061Z</time></trkpt><trkpt lat="45.004" lon="7.999065"><ele>247.8</ele><time>2026-04-11T15:15:39.062Z</time></trkpt><trkpt lat="45.003965" lon="7.999195"><ele>245.2</ele><time>2026-04-11T15:15:40.06Z</time></trkpt><trkpt lat="45.00393" lon="7.9993283"><ele>242.6</ele><time>2026-04-11T15:15:41.061Z</time></trkpt><trkpt lat="45.0038967" lon="7.9994617"><ele>240.0</ele><time>2026-04-11T15:15:42.061Z</time></trkpt><trkpt lat="45.00386" lon="7.9995983"><ele>240.0</ele><time>2026-04-11T15:15:43.06Z</time></trkpt><trkpt lat="45.003825" lon="7.9997317"><ele>240.0</ele><time>2026-04-11T15:15:44.061Z</time></trkpt><trkpt lat="45.0037833" lon="7.99987"><ele>240.0</ele><time>2026-04-11T15:15:45.062Z</time></trkpt><trkpt lat="45.003745" lon="8.000005"><ele>240.0</ele><time>2026-04-11T15:15:46.059Z</time></trkpt><trkpt lat="45.0037033" lon="8.0001417"><ele>240.0</ele><time>2026-04-11T15:15:47.06Z</time></trkpt><trkpt lat="45.0036567" lon="8.0002817"><ele>240.0</ele><time>2026-04-11T15:15:48.061Z</time></trkpt><trkpt lat="45.003605" lon="8.0004183"><ele>240.0</ele><time>2026-04-11T15:15:49.063Z</time></trkpt><trkpt lat="45.003535" lon="8.0005517"><ele>240.0</ele><time>2026-04-11T15:15:50.06Z</time></trkpt><trkpt lat="45.0034633" lon="8.0006833"><ele>240.0</ele><time>2026-04-11T15:15:51.061Z</time></trkpt><trkpt lat="45.003295" lon="8.00091"><ele>237.57142857142858</ele><time>2026-04-11T15:15:53.061Z</time></trkpt><trkpt lat="45.0032167" lon="8.00099"><ele>235.14285714285714</ele><time>2026-04-11T15:15:54.061Z</time></trkpt><trkpt lat="45.0031433" lon="8.0010417"><ele>232.71428571428572</ele><time>2026-04-11T15:15:55.062Z</time></trkpt><trkpt lat="45.0030733" lon="8.001045"><ele>230.28571428571428</ele><time>2026-04-11T15:15:56.062Z</time></trkpt><trkpt lat="45.0030083" lon="8.0010283"><ele>227.85714285714283</ele><time>2026-04-11T15:15:57.062Z</time></trkpt><trkpt lat="45.0029733" lon="8.000945"><ele>225.42857142857142</ele><time>2026-04-11T15:15:58.061Z</time></trkpt><trkpt lat="45.0029583" lon="8.0008583"><ele>223.0</ele><time>2026-04-11T15:15:59.061Z</time></trkpt><trkpt lat="45.0029883" lon="8.000755"><ele>222.4</ele><time>2026-04-11T15:16:00.06Z</time></trkpt><trkpt lat="45.0030383" lon="8.0006483"><ele>221.8</ele><time>2026-04-11T15:16:01.063Z</time></trkpt><trkpt lat="45.0030817" lon="8.000535"><ele>221.2</ele><time>2026-04-11T15:16:02.062Z</time></trkpt><trkpt lat="45.0031017" lon="8.0004083"><ele>220.6</ele><time>2026-04-11T15:16:03.062Z</time></trkpt><trkpt lat="45.0030967" lon="8.0002717"><ele>220.0</ele><time>2026-04-11T15:16:04.062Z</time></trkpt><trkpt lat="45.003045" lon="8.0001517"><ele>220.0</ele><time>2026-04-11T15:16:05.062Z</time></trkpt><trkpt lat="45.00296" lon="8.00006"><ele>220.0</ele><time>2026-04-11T15:16:06.061Z</time></trkpt><trkpt lat="45.00286" lon="8.0000067"><ele>220.0</ele><time>2026-04-11T15:16:07.063Z</time></trkpt><trkpt lat="45.0027467" lon="8.0"><ele>220.0</ele><time>2026-04-11T15:16:08.061Z</time></trkpt><trkpt lat="45.0026333" lon="8.0000383"><ele>220.0</ele><time>2026-04-11T15:16:09.059Z</time></trkpt><trkpt lat="45.0025283" lon="8.0001233"><ele>222.33333333333331</ele><time>2026-04-11T15:16:10.06Z</time></trkpt><trkpt lat="45.002435" lon="8.00025"><ele>224.66666666666669</ele><time>2026-04-11T15:16:11.059Z</time></trkpt><trkpt lat="45.0023583" lon="8.0004"><ele>227.0</ele><time>2026-04-11T15:16:12.063Z</time></trkpt><trkpt lat="45.0022" lon="8.00072"><ele>223.75</ele><time>2026-04-11T15:16:14.061Z</time></trkpt><trkpt lat="45.0021183" lon="8.0008833"><ele>220.5</ele><time>2026-04-11T15:16:15.063Z</time></trkpt><trkpt lat="45.0020433" lon="8.001045"><ele>217.25</ele><time>2026-04-11T15:16:16.063Z</time></trkpt><trkpt lat="45.0019917" lon="8.001215"><ele>214.0</ele><time>2026-04-11T15:16:17.061Z</time></trkpt><trkpt lat="45.001975" lon="8.001395"><ele>214.0</ele><time>2026-04-11T15:16:18.06Z</time></trkpt><trkpt lat="45.0019867" lon="8.0015767"><ele>214.0</ele><time>2026-04-11T15:16:19.061Z</time></trkpt><trkpt lat="45.0020233" lon="8.0017617"><ele>214.0</ele><time>2026-04-11T15:16:20.061Z</time></trkpt><trkpt lat="45.002065" lon="8.0019517"><ele>214.0</ele><time>2026-04-11T15:16:21.062Z</time></trkpt><trkpt lat="45.0021117" lon="8.0021467"><ele>214.0</ele><time>2026-04-11T15:16:22.061Z</time></trkpt><trkpt lat="45.0021617" lon="8.0023417"><ele>214.0</ele><time>2026-04-11T15:16:23.061Z</time></trkpt><trkpt lat="45.0022117" lon="8.0025417"><ele>214.0</ele><time>2026-04-11T15:16:24.06Z</time></trkpt><trkpt lat="45.0022617" lon="8.0027367"><ele>214.0</ele><time>2026-04-11T15:16:25.06Z</time></trkpt><trkpt lat="45.0023117" lon="8.00293"><ele>214.0</ele><time>2026-04-11T15:16:26.062Z</time></trkpt><trkpt lat="45.00236" lon="8.0031217"><ele>214.0</ele><time>2026-04-11T15:16:27.062Z</time></trkpt><trkpt lat="45.0024067" lon="8.0033067"><ele>214.0</ele><time>2026-04-11T15:16:28.06Z</time></trkpt><trkpt lat="45.0024517" lon="8.0034883"><ele>214.0</ele><time>2026-04-11T15:16:29.06Z</time></trkpt><trkpt lat="45.0024983" lon="8.0036633"><ele>212.0</ele><time>2026-04-11T15:16:30.061Z</time></trkpt><trkpt lat="45.0025417" lon="8.00383"><ele>210.0</ele><time>2026-04-11T15:16:31.061Z</time></trkpt><trkpt lat="45.002585" lon="8.0039967"><ele>208.0</ele><time>2026-04-11T15:16:32.059Z</time></trkpt><trkpt lat="45.0026283" lon="8.0041633"><ele>206.0</ele><time>2026-04-11T15:16:33.061Z</time></trkpt><trkpt lat="45.0027117" lon="8.004495"><ele>204.5</ele><time>2026-04-11T15:16:35.06Z</time></trkpt><trkpt lat="45.0027517" lon="8.0046567"><ele>203.0</ele><time>2026-04-11T15:16:36.062Z</time></trkpt><trkpt lat="45.0027933" lon="8.0048167"><ele>201.5</ele><time>2026-04-11T15:16:37.062Z</time></trkpt><trkpt lat="45.002835" lon="8.0049733"><ele>200.0</ele><time>2026-04-11T15:16:38.06Z</time></trkpt><trkpt lat="45.002875" lon="8.005125"><ele>198.8</ele><time>2026-04-11T15:16:39.062Z</time></trkpt><trkpt lat="45.002915" lon="8.0052717"><ele>197.6</ele><time>2026-04-11T15:16:40.06Z</time></trkpt><trkpt lat="45.0029517" lon="8.0054167"><ele>196.39999999999998</ele><time>2026-04-11T15:16:41.055Z</time></trkpt><trkpt lat="45.0029883" lon="8.005555"><ele>195.2</ele><time>2026-04-11T15:16:42.06Z</time></trkpt><trkpt lat="45.0030233" lon="8.0056867"><ele>194.0</ele><time>2026-04-11T15:16:43.062Z</time></trkpt><trkpt lat="45.0030517" lon="8.0058133"><ele>193.83333333333334</ele><time>2026-04-11T15:16:44.06Z</time></trkpt><trkpt lat="45.0030683" lon="8.0059367"><ele>193.66666666666669</ele><time>2026-04-11T15:16:45.063Z</time></trkpt><trkpt lat="45.0030667" lon="8.00606"><ele>193.5</ele><time>2026-04-11T15:16:46.06Z</time></trkpt><trkpt lat="45.00305" lon="8.0061817"><ele>193.33333333333331</ele><time>2026-04-11T15:16:47.061Z</time></trkpt><trkpt lat="45.0030267" lon="8.006295"><ele>193.16666666666666</ele><time>2026-04-11T15:16:48.06Z</time></trkpt><trkpt lat="45.002975" lon="8.0063817"><ele>193.0</ele><time>2026-04-11T15:16:49.06Z</time></trkpt><trkpt lat="45.002895" lon="8.0064433"><ele>193.0</ele><time>2026-04-11T15:16:50.062Z</time></trkpt><trkpt lat="45.0028067" lon="8.0064983"><ele>193.0</ele><time>2026-04-11T15:16:51.063Z</time></trkpt><trkpt lat="45.0027183" lon="8.0065567"><ele>193.0</ele><time>2026-04-11T15:16:52.064Z</time></trkpt><trkpt lat="45.00263" lon="8.00662"><ele>193.0</ele><time>2026-04-11T15:16:53.062Z</time></trkpt><trkpt lat="45.0025483" lon="8.0066817"><ele>193.0</ele><time>2026-04-11T15:16:54.063Z</time></trkpt><trkpt lat="45.0023817" lon="8.0068067"><ele>193.0</ele><time>2026-04-11T15:16:56.063Z</time></trkpt><trkpt lat="45.0023" lon="8.0068667"><ele>193.0</ele><time>2026-04-11T15:16:57.063Z</time></trkpt><trkpt lat="45.0022183" lon="8.00693"><ele>193.0</ele><time>2026-04-11T15:16:58.062Z</time></trkpt><trkpt lat="45.0021383" lon="8.0069883"><ele>193.0</ele><time>2026-04-11T15:16:59.061Z</time></trkpt><trkpt lat="45.0020567" lon="8.0070467"><ele>193.0</ele><time>2026-04-11T15:17:00.061Z</time></trkpt><trkpt lat="45.0019783" lon="8.0071067"><ele>192.99999999999997</ele><time>2026-04-11T15:17:01.061Z</time></trkpt><trkpt lat="45.0019033" lon="8.007165"><ele>193.0</ele><time>2026-04-11T15:17:02.061Z</time></trkpt><trkpt lat="45.0018283" lon="8.0072217"><ele>193.0</ele><time>2026-04-11T15:17:03.061Z</time></trkpt><trkpt lat="45.0017517" lon="8.0072833"><ele>193.0</ele><time>2026-04-11T15:17:04.059Z</time></trkpt><trkpt lat="45.0016783" lon="8.007345"><ele>192.99999999999997</ele><time>2026-04-11T15:17:05.061Z</time></trkpt><trkpt lat="45.0016067" lon="8.0074083"><ele>193.0</ele><time>2026-04-11T15:17:06.06Z</time></trkpt><trkpt lat="45.0015383" lon="8.0074733"><ele>193.99999999999997</ele><time>2026-04-11T15:17:07.063Z</time></trkpt><trkpt lat="45.00147" lon="8.0075367"><ele>195.0</ele><time>2026-04-11T15:17:08.061Z</time></trkpt><trkpt lat="45.0014067" lon="8.0076"><ele>196.0</ele><time>2026-04-11T15:17:09.063Z</time></trkpt><trkpt lat="45.001345" lon="8.0076633"><ele>197.0</ele><time>2026-04-11T15:17:10.059Z</time></trkpt><trkpt lat="45.0012833" lon="8.007725"><ele>197.99999999999997</ele><time>2026-04-11T15:17:11.06Z</time></trkpt><trkpt lat="45.0012233" lon="8.0077883"><ele>199.0</ele><time>2026-04-11T15:17:12.06Z</time></trkpt><trkpt lat="45.0011633" lon="8.00785"><ele>198.99999999999997</ele><time>2026-04-11T15:17:13.059Z</time></trkpt><trkpt lat="45.001105" lon="8.0079067"><ele>199.0</ele><time>2026-04-11T15:17:14.061Z</time></trkpt><trkpt lat="45.0010467" lon="8.0079633"><ele>199.0</ele><time>2026-04-11T15:17:15.061Z</time></trkpt><trkpt lat="45.000925" lon="8.008075"><ele>199.0</ele><time>2026-04-11T15:17:17.06Z</time></trkpt><trkpt lat="45.0008633" lon="8.00812"><ele>198.99999999999997</ele><time>2026-04-11T15:17:18.061Z</time></trkpt><trkpt lat="45.0008017" lon="8.00816"><ele>199.0</ele><time>2026-04-11T15:17:19.062Z</time></trkpt><trkpt lat="45.0007367" lon="8.0081933"><ele>198.16666666666666</ele><time>2026-04-11T15:17:20.061Z</time></trkpt><trkpt lat="45.0006717" lon="8.0082133"><ele>197.33333333333331</ele><time>2026-04-11T15:17:21.059Z</time></trkpt><trkpt lat="45.0005467" lon="8.0082333"><ele>196.5</ele><time>2026-04-11T15:17:23.06Z</time></trkpt><trkpt lat="45.0004833" lon="8.0082383"><ele>195.66666666666669</ele><time>2026-04-11T15:17:24.06Z</time></trkpt><trkpt lat="45.0003633" lon="8.00824"><ele>194.83333333333334</ele><time>2026-04-11T15:17:26.059Z</time></trkpt><trkpt lat="45.0003" lon="8.0082467"><ele>194.0</ele><time>2026-04-11T15:17:27.062Z</time></trkpt><trkpt lat="45.0001783" lon="8.0082917"><ele>194.33333333333334</ele><time>2026-04-11T15:17:29.06Z</time></trkpt><trkpt lat="45.00008" lon="8.008405"><ele>194.66666666666669</ele><time>2026-04-11T15:17:31.06Z</time></trkpt><trkpt lat="45.0000333" lon="8.0084683"><ele>195.0</ele><time>2026-04-11T15:17:32.06Z</time></trkpt><trkpt lat="44.999985" lon="8.008535"><ele>195.33333333333331</ele><time>2026-04-11T15:17:33.064Z</time></trkpt><trkpt lat="44.99994" lon="8.0086017"><ele>195.66666666666666</ele><time>2026-04-11T15:17:34.061Z</time></trkpt><trkpt lat="44.9999" lon="8.0086717"><ele>196.0</ele><time>2026-04-11T15:17:35.062Z</time></trkpt><trkpt lat="44.9998583" lon="8.008745"><ele>195.99999999999997</ele><time>2026-04-11T15:17:36.061Z</time></trkpt><trkpt lat="44.9997767" lon="8.0088917"><ele>196.0</ele><time>2026-04-11T15:17:38.061Z</time></trkpt><trkpt lat="44.9997383" lon="8.0089667"><ele>196.0</ele><time>2026-04-11T15:17:39.062Z</time></trkpt><trkpt lat="44.9996983" lon="8.00904"><ele>196.0</ele><time>2026-04-11T15:17:40.06Z</time></trkpt><trkpt lat="44.9996567" lon="8.009115"><ele>195.99999999999997</ele><time>2026-04-11T15:17:41.06Z</time></trkpt><trkpt lat="44.9996133" lon="8.0091933"><ele>196.0</ele><time>2026-04-11T15:17:42.059Z</time></trkpt><trkpt lat="44.9995733" lon="8.0092717"><ele>196.28571428571428</ele><time>2026-04-11T15:17:43.061Z</time></trkpt><trkpt lat="44.999535" lon="8.00935"><ele>196.57142857142856</ele><time>2026-04-11T15:17:44.061Z</time></trkpt><trkpt lat="44.9995017" lon="8.00943"><ele>196.85714285714286</ele><time>2026-04-11T15:17:45.062Z</time></trkpt><trkpt lat="44.9994683" lon="8.009515"><ele>197.14285714285714</ele><time>2026-04-11T15:17:46.06Z</time></trkpt><trkpt lat="44.9994367" lon="8.0096"><ele>197.42857142857142</ele><time>2026-04-11T15:17:47.06Z</time></trkpt><trkpt lat="44.999405" lon="8.0096833"><ele>197.71428571428572</ele><time>2026-04-11T15:17:48.062Z</time></trkpt><trkpt lat="44.999375" lon="8.0097667"><ele>198.0</ele><time>2026-04-11T15:17:49.064Z</time></trkpt><trkpt lat="44.999345" lon="8.0098483"><ele>198.0</ele><time>2026-04-11T15:17:50.062Z</time></trkpt><trkpt lat="44.999315" lon="8.0099267"><ele>198.0</ele><time>2026-04-11T15:17:51.061Z</time></trkpt><trkpt lat="44.999285" lon="8.010005"><ele>198.0</ele><time>2026-04-11T15:17:52.061Z</time></trkpt><trkpt lat="44.9992567" lon="8.010085"><ele>198.0</ele><time>2026-04-11T15:17:53.059Z</time></trkpt><trkpt lat="44.99923" lon="8.0101683"><ele>198.0</ele><time>2026-04-11T15:17:54.06Z</time></trkpt><trkpt lat="44.9992067" lon="8.0102533"><ele>198.0</ele><time>2026-04-11T15:17:55.061Z</time></trkpt><trkpt lat="44.999175" lon="8.0104233"><ele>198.0</ele><time>2026-04-11T15:17:57.061Z</time></trkpt><trkpt lat="44.9991767" lon="8.0107733"><ele>198.2857142857143</ele><time>2026-04-11T15:18:01.06Z</time></trkpt><trkpt lat="44.999185" lon="8.0108617"><ele>198.57142857142856</ele><time>2026-04-11T15:18:02.062Z</time></trkpt><trkpt lat="44.9992117" lon="8.0110317"><ele>198.85714285714286</ele><time>2026-04-11T15:18:04.061Z</time></trkpt><trkpt lat="44.9992283" lon="8.0111217"><ele>199.14285714285717</ele><time>2026-04-11T15:18:05.06Z</time></trkpt><trkpt lat="44.9992433" lon="8.01121"><ele>199.42857142857144</ele><time>2026-04-11T15:18:06.06Z</time></trkpt><trkpt lat="44.99926" lon="8.0113"><ele>199.71428571428572</ele><time>2026-04-11T15:18:07.061Z</time></trkpt><trkpt lat="44.999275" lon="8.0113883"><ele>200.0</ele><time>2026-04-11T15:18:08.062Z</time></trkpt><trkpt lat="44.9992917" lon="8.0114767"><ele>200.00000000000003</ele><time>2026-04-11T15:18:09.061Z</time></trkpt><trkpt lat="44.9993067" lon="8.0115667"><ele>200.0</ele><time>2026-04-11T15:18:10.061Z</time></trkpt><trkpt lat="44.9993183" lon="8.01166"><ele>200.0</ele><time>2026-04-11T15:18:11.062Z</time></trkpt><trkpt lat="44.9993267" lon="8.01175"><ele>200.0</ele><time>2026-04-11T15:18:12.062Z</time></trkpt><trkpt lat="44.9993317" lon="8.0118433"><ele>200.0</ele><time>2026-04-11T15:18:13.063Z</time></trkpt><trkpt lat="44.999335" lon="8.011935"><ele>200.00000000000003</ele><time>2026-04-11T15:18:14.062Z</time></trkpt><trkpt lat="44.9993383" lon="8.0120267"><ele>200.0</ele><time>2026-04-11T15:18:15.058Z</time></trkpt><trkpt lat="44.9993383" lon="8.0121217"><ele>201.2</ele><time>2026-04-11T15:18:16.063Z</time></trkpt><trkpt lat="44.9993383" lon="8.0122133"><ele>202.4</ele><time>2026-04-11T15:18:17.061Z</time></trkpt><trkpt lat="44.9993417" lon="8.012305"><ele>203.60000000000002</ele><time>2026-04-11T15:18:18.06Z</time></trkpt><trkpt lat="44.999345" lon="8.0125767"><ele>204.8</ele><time>2026-04-11T15:18:21.064Z</time></trkpt><trkpt lat="44.9993467" lon="8.0126683"><ele>206.0</ele><time>2026-04-11T15:18:22.061Z</time></trkpt><trkpt lat="44.9993483" lon="8.01276"><ele>209.0</ele><time>2026-04-11T15:18:23.061Z</time></trkpt><trkpt lat="44.9993567" lon="8.0129367"><ele>212.0</ele><time>2026-04-11T15:18:25.06Z</time></trkpt><trkpt lat="44.999365" lon="8.0130933"><ele>215.0</ele><time>2026-04-11T15:18:27.064Z</time></trkpt><trkpt lat="44.9993667" lon="8.0132483"><ele>218.0</ele><time>2026-04-11T15:18:29.062Z</time></trkpt><trkpt lat="44.9993733" lon="8.0134183"><ele>218.60000000000002</ele><time>2026-04-11T15:18:31.063Z</time></trkpt><trkpt lat="44.9993667" lon="8.0135767"><ele>219.20000000000002</ele><time>2026-04-11T15:18:33.063Z</time></trkpt><trkpt lat="44.9993183" lon="8.0137"><ele>219.8</ele><time>2026-04-11T15:18:35.061Z</time></trkpt><trkpt lat="44.9992517" lon="8.0137883"><ele>220.4</ele><time>2026-04-11T15:18:37.062Z</time></trkpt><trkpt lat="44.999175" lon="8.0138567"><ele>221.0</ele><time>2026-04-11T15:18:39.063Z</time></trkpt><trkpt lat="44.9990417" lon="8.0140783"><ele>218.33333333333334</ele><time>2026-04-11T15:18:43.062Z</time></trkpt><trkpt lat="44.9989883" lon="8.0142417"><ele>215.66666666666669</ele><time>2026-04-11T15:18:45.062Z</time></trkpt><trkpt lat="44.9989633" lon="8.01433"><ele>213.0</ele><time>2026-04-11T15:18:46.06Z</time></trkpt><trkpt lat="44.9989417" lon="8.014425"><ele>210.33333333333331</ele><time>2026-04-11T15:18:47.061Z</time></trkpt><trkpt lat="44.99892" lon="8.0145267"><ele>207.66666666666666</ele><time>2026-04-11T15:18:48.062Z</time></trkpt><trkpt lat="44.9988967" lon="8.0146267"><ele>205.0</ele><time>2026-04-11T15:18:49.06Z</time></trkpt><trkpt lat="44.9988717" lon="8.0147233"><ele>204.99999999999997</ele><time>2026-04-11T15:18:50.062Z</time></trkpt><trkpt lat="44.99885" lon="8.014825"><ele>205.0</ele><time>2026-04-11T15:18:51.063Z</time></trkpt><trkpt lat="44.9988333" lon="8.0149417"><ele>205.0</ele><time>2026-04-11T15:18:52.062Z</time></trkpt><trkpt lat="44.99881" lon="8.0150583"><ele>205.0</ele><time>2026-04-11T15:18:53.06Z</time></trkpt><trkpt lat="44.9987817" lon="8.01517"><ele>204.99999999999997</ele><time>2026-04-11T15:18:54.062Z</time></trkpt><trkpt lat="44.99876" lon="8.0152867"><ele>205.0</ele><time>2026-04-11T15:18:55.061Z</time></trkpt><trkpt lat="44.9987417" lon="8.0154033"><ele>204.0</ele><time>2026-04-11T15:18:56.061Z</time></trkpt><trkpt lat="44.9987217" lon="8.0155167"><ele>203.0</ele><time>2026-04-11T15:18:57.06Z</time></trkpt><trkpt lat="44.9987067" lon="8.0156317"><ele>202.0</ele><time>2026-04-11T15:18:58.06Z</time></trkpt><trkpt lat="44.9986917" lon="8.015745"><ele>201.0</ele><time>2026-04-11T15:18:59.062Z</time></trkpt><trkpt lat="44.9986817" lon="8.015855"><ele>200.0</ele><time>2026-04-11T15:19:00.06Z</time></trkpt><trkpt lat="44.99867" lon="8.01607"><ele>198.66666666666669</ele><time>2026-04-11T15:19:02.06Z</time></trkpt><trkpt lat="44.9986667" lon="8.0161767"><ele>197.33333333333334</ele><time>2026-04-11T15:19:03.061Z</time></trkpt><trkpt lat="44.9986683" lon="8.0162867"><ele>196.0</ele><time>2026-04-11T15:19:04.061Z</time></trkpt><trkpt lat="44.9986667" lon="8.0163967"><ele>194.66666666666669</ele><time>2026-04-11T15:19:05.062Z</time></trkpt><trkpt lat="44.998665" lon="8.0165067"><ele>193.33333333333334</ele><time>2026-04-11T15:19:06.06Z</time></trkpt><trkpt lat="44.9986633" lon="8.016615"><ele>192.0</ele><time>2026-04-11T15:19:07.059Z</time></trkpt><trkpt lat="44.99866" lon="8.016725"><ele>191.57142857142856</ele><time>2026-04-11T15:19:08.059Z</time></trkpt><trkpt lat="44.9986583" lon="8.0168333"><ele>191.14285714285714</ele><time>2026-04-11T15:19:09.06Z</time></trkpt><trkpt lat="44.9986567" lon="8.01694"><ele>190.71428571428572</ele><time>2026-04-11T15:19:10.06Z</time></trkpt><trkpt lat="44.9986533" lon="8.0170433"><ele>190.28571428571428</ele><time>2026-04-11T15:19:11.059Z</time></trkpt><trkpt lat="44.99865" lon="8.0171417"><ele>189.85714285714286</ele><time>2026-04-11T15:19:12.061Z</time></trkpt><trkpt lat="44.998645" lon="8.01724"><ele>189.42857142857142</ele><time>2026-04-11T15:19:13.059Z</time></trkpt><trkpt lat="44.99864" lon="8.017335"><ele>189.0</ele><time>2026-04-11T15:19:14.062Z</time></trkpt><trkpt lat="44.99864" lon="8.0174317"><ele>188.71428571428572</ele><time>2026-04-11T15:19:15.058Z</time></trkpt><trkpt lat="44.9986383" lon="8.01753"><ele>188.42857142857144</ele><time>2026-04-11T15:19:16.059Z</time></trkpt><trkpt lat="44.9986383" lon="8.01763"><ele>188.14285714285714</ele><time>2026-04-11T15:19:17.06Z</time></trkpt><trkpt lat="44.998635" lon="8.01773"><ele>187.85714285714286</ele><time>2026-04-11T15:19:18.061Z</time></trkpt><trkpt lat="44.9986333" lon="8.0178283"><ele>187.57142857142858</ele><time>2026-04-11T15:19:19.063Z</time></trkpt><trkpt lat="44.9986283" lon="8.0179267"><ele>187.28571428571428</ele><time>2026-04-11T15:19:20.06Z</time></trkpt><trkpt lat="44.99862" lon="8.0180233"><ele>187.0</ele><time>2026-04-11T15:19:21.061Z</time></trkpt><trkpt lat="44.9986017" lon="8.0182183"><ele>187.0</ele><time>2026-04-11T15:19:23.058Z</time></trkpt><trkpt lat="44.9985917" lon="8.018315"><ele>187.0</ele><time>2026-04-11T15:19:24.06Z</time></trkpt><trkpt lat="44.99858" lon="8.0184117"><ele>187.0</ele><time>2026-04-11T15:19:25.061Z</time></trkpt><trkpt lat="44.9985683" lon="8.018505"><ele>187.0</ele><time>2026-04-11T15:19:26.061Z</time></trkpt><trkpt lat="44.998555" lon="8.0186"><ele>187.0</ele><time>2026-04-11T15:19:27.06Z</time></trkpt><trkpt lat="44.9985417" lon="8.0186933"><ele>187.0</ele><time>2026-04-11T15:19:28.06Z</time></trkpt><trkpt lat="44.9985283" lon="8.0187833"><ele>187.0</ele><time>2026-04-11T15:19:29.06Z</time></trkpt><trkpt lat="44.9985167" lon="8.018875"><ele>187.0</ele><time>2026-04-11T15:19:30.059Z</time></trkpt><trkpt lat="44.99851" lon="8.0189683"><ele>187.0</ele><time>2026-04-11T15:19:31.061Z</time></trkpt><trkpt lat="44.9985083" lon="8.0190617"><ele>187.0</ele><time>2026-04-11T15:19:32.06Z</time></trkpt><trkpt lat="44.9985083" lon="8.019155"><ele>187.0</ele><time>2026-04-11T15:19:33.06Z</time></trkpt><trkpt lat="44.9985117" lon="8.0192467"><ele>187.0</ele><time>2026-04-11T15:19:34.06Z</time></trkpt><trkpt lat="44.99852" lon="8.0193383"><ele>187.0</ele><time>2026-04-11T15:19:35.059Z</time></trkpt><trkpt lat="44.9985317" lon="8.0194283"><ele>187.0</ele><time>2026-04-11T15:19:36.06Z</time></trkpt><trkpt lat="44.9985483" lon="8.0196017"><ele>187.0</ele><time>2026-04-11T15:19:38.06Z</time></trkpt><trkpt lat="44.9985617" lon="8.0196917"><ele>187.0</ele><time>2026-04-11T15:19:39.062Z</time></trkpt><trkpt lat="44.9985767" lon="8.0198683"><ele>187.0</ele><time>2026-04-11T15:19:41.06Z</time></trkpt><trkpt lat="44.9985817" lon="8.0199583"><ele>187.0</ele><time>2026-04-11T15:19:42.06Z</time></trkpt><trkpt lat="44.9985767" lon="8.02014"><ele>187.0</ele><time>2026-04-11T15:19:44.061Z</time></trkpt><trkpt lat="44.99857" lon="8.02023"><ele>187.0</ele><time>2026-04-11T15:19:45.062Z</time></trkpt><trkpt lat="44.9985567" lon="8.0203183"><ele>187.0</ele><time>2026-04-11T15:19:46.062Z</time></trkpt><trkpt lat="44.9985317" lon="8.0204833"><ele>187.0</ele><time>2026-04-11T15:19:48.062Z</time></trkpt><trkpt lat="44.9985017" lon="8.0206433"><ele>187.0</ele><time>2026-04-11T15:19:50.062Z</time></trkpt><trkpt lat="44.99847" lon="8.0207967"><ele>187.0</ele><time>2026-04-11T15:19:52.06Z</time></trkpt><trkpt lat="44.998435" lon="8.0209417"><ele>187.0</ele><time>2026-04-11T15:19:54.061Z</time></trkpt><trkpt lat="44.9983883" lon="8.0210633"><ele>187.0</ele><time>2026-04-11T15:19:56.061Z</time></trkpt><trkpt lat="44.9983133" lon="8.0211083"><ele>187.0</ele><time>2026-04-11T15:19:58.06Z</time></trkpt><trkpt lat="44.9982117" lon="8.02108"><ele>187.0</ele><time>2026-04-11T15:20:00.059Z</time></trkpt><trkpt lat="44.9980917" lon="8.0210567"><ele>187.0</ele><time>2026-04-11T15:20:02.06Z</time></trkpt><trkpt lat="44.9979733" lon="8.02104"><ele>187.0</ele><time>2026-04-11T15:20:04.058Z</time></trkpt><trkpt lat="44.99773" lon="8.02102"><ele>187.0</ele><time>2026-04-11T15:20:08.061Z</time></trkpt><trkpt lat="44.997665" lon="8.0210183"><ele>187.0</ele><time>2026-04-11T15:20:09.061Z</time></trkpt><trkpt lat="44.9975983" lon="8.0210183"><ele>187.0</ele><time>2026-04-11T15:20:10.06Z</time></trkpt><trkpt lat="44.99753" lon="8.02102"><ele>187.0</ele><time>2026-04-11T15:20:11.06Z</time></trkpt><trkpt lat="44.997465" lon="8.021025"><ele>188.0</ele><time>2026-04-11T15:20:12.063Z</time></trkpt><trkpt lat="44.9973983" lon="8.0210283"><ele>189.0</ele><time>2026-04-11T15:20:13.061Z</time></trkpt><trkpt lat="44.9973333" lon="8.0210317"><ele>190.0</ele><time>2026-04-11T15:20:14.06Z</time></trkpt><trkpt lat="44.9972667" lon="8.021035"><ele>191.0</ele><time>2026-04-11T15:20:15.061Z</time></trkpt><trkpt lat="44.9972" lon="8.0210417"><ele>192.0</ele><time>2026-04-11T15:20:16.061Z</time></trkpt><trkpt lat="44.9971333" lon="8.0210433"><ele>193.0</ele><time>2026-04-11T15:20:17.059Z</time></trkpt><trkpt lat="44.9970683" lon="8.021045"><ele>194.0</ele><time>2026-04-11T15:20:18.06Z</time></trkpt><trkpt lat="44.9970017" lon="8.0210467"><ele>194.0</ele><time>2026-04-11T15:20:19.062Z</time></trkpt><trkpt lat="44.996935" lon="8.0210517"><ele>194.0</ele><time>2026-04-11T15:20:20.062Z</time></trkpt><trkpt lat="44.99687" lon="8.0210567"><ele>194.0</ele><time>2026-04-11T15:20:21.062Z</time></trkpt><trkpt lat="44.9968067" lon="8.0210617"><ele>194.0</ele><time>2026-04-11T15:20:22.062Z</time></trkpt><trkpt lat="44.99674" lon="8.0210633"><ele>194.0</ele><time>2026-04-11T15:20:23.06Z</time></trkpt><trkpt lat="44.9966767" lon="8.021065"><ele>194.0</ele><time>2026-04-11T15:20:24.062Z</time></trkpt><trkpt lat="44.9966117" lon="8.021065"><ele>194.0</ele><time>2026-04-11T15:20:25.061Z</time></trkpt><trkpt lat="44.99648" lon="8.0210767"><ele>193.42857142857142</ele><time>2026-04-11T15:20:27.063Z</time></trkpt><trkpt lat="44.99641" lon="8.0210817"><ele>192.85714285714286</ele><time>2026-04-11T15:20:28.061Z</time></trkpt><trkpt lat="44.99634" lon="8.021085"><ele>192.28571428571428</ele><time>2026-04-11T15:20:29.06Z</time></trkpt><trkpt lat="44.99627" lon="8.0210917"><ele>191.71428571428572</ele><time>2026-04-11T15:20:30.06Z</time></trkpt><trkpt lat="44.9962033" lon="8.0210983"><ele>191.14285714285717</ele><time>2026-04-11T15:20:31.061Z</time></trkpt><trkpt lat="44.996135" lon="8.021105"><ele>190.57142857142858</ele><time>2026-04-11T15:20:32.06Z</time></trkpt><trkpt lat="44.996065" lon="8.0211083"><ele>190.0</ele><time>2026-04-11T15:20:33.061Z</time></trkpt><trkpt lat="44.9959933" lon="8.0211167"><ele>190.0</ele><time>2026-04-11T15:20:34.061Z</time></trkpt><trkpt lat="44.99592" lon="8.0211233"><ele>190.0</ele><time>2026-04-11T15:20:35.059Z</time></trkpt><trkpt lat="44.9958467" lon="8.021125"><ele>190.0</ele><time>2026-04-11T15:20:36.062Z</time></trkpt><trkpt lat="44.9957817" lon="8.0211267"><ele>190.0</ele><time>2026-04-11T15:20:37.06Z</time></trkpt><trkpt lat="44.9956633" lon="8.0211317"><ele>190.0</ele><time>2026-04-11T15:20:39.061Z</time></trkpt><trkpt lat="44.9955483" lon="8.02114"><ele>190.0</ele><time>2026-04-11T15:20:41.061Z</time></trkpt><trkpt lat="44.9954267" lon="8.0211483"><ele>190.0</ele><time>2026-04-11T15:20:43.058Z</time></trkpt><trkpt lat="44.9953017" lon="8.0211617"><ele>190.0</ele><time>2026-04-11T15:20:45.062Z</time></trkpt><trkpt lat="44.9952367" lon="8.0211617"><ele>190.0</ele><time>2026-04-11T15:20:46.062Z</time></trkpt><trkpt lat="44.9950583" lon="8.0211533"><ele>190.0</ele><time>2026-04-11T15:20:49.062Z</time></trkpt><trkpt lat="44.994985" lon="8.0212"><ele>190.0</ele><time>2026-04-11T15:20:51.061Z</time></trkpt><trkpt lat="44.9949317" lon="8.0213033"><ele>189.8</ele><time>2026-04-11T15:20:53.06Z</time></trkpt><trkpt lat="44.994885" lon="8.0214283"><ele>189.6</ele><time>2026-04-11T15:20:55.061Z</time></trkpt><trkpt lat="44.99484" lon="8.0215733"><ele>189.39999999999998</ele><time>2026-04-11T15:20:57.063Z</time></trkpt><trkpt lat="44.994795" lon="8.0217167"><ele>189.2</ele><time>2026-04-11T15:20:59.06Z</time></trkpt><trkpt lat="44.9947367" lon="8.02186"><ele>189.0</ele><time>2026-04-11T15:21:01.062Z</time></trkpt><trkpt lat="44.9946867" lon="8.0220067"><ele>189.0</ele><time>2026-04-11T15:21:03.062Z</time></trkpt><trkpt lat="44.9946317" lon="8.0221483"><ele>189.0</ele><time>2026-04-11T15:21:05.06Z</time></trkpt><trkpt lat="44.99458" lon="8.0222933"><ele>189.0</ele><time>2026-04-11T15:21:07.063Z</time></trkpt><trkpt lat="44.9944833" lon="8.0225783"><ele>190.6</ele><time>2026-04-11T15:21:11.059Z</time></trkpt><trkpt lat="44.9944333" lon="8.0227167"><ele>192.2</ele><time>2026-04-11T15:21:13.061Z</time></trkpt><trkpt lat="44.9943867" lon="8.0228583"><ele>193.79999999999998</ele><time>2026-04-11T15:21:15.061Z</time></trkpt><trkpt lat="44.994345" lon="8.023"><ele>195.39999999999998</ele><time>2026-04-11T15:21:17.061Z</time></trkpt><trkpt lat="44.994305" lon="8.0231417"><ele>197.0</ele><time>2026-04-11T15:21:19.06Z</time></trkpt><trkpt lat="44.9942683" lon="8.0232883"><ele>196.39999999999998</ele><time>2026-04-11T15:21:21.06Z</time></trkpt><trkpt lat="44.9942283" lon="8.0234317"><ele>195.79999999999998</ele><time>2026-04-11T15:21:23.059Z</time></trkpt><trkpt lat="44.99419" lon="8.0235767"><ele>195.2</ele><time>2026-04-11T15:21:25.061Z</time></trkpt><trkpt lat="44.9941517" lon="8.0237217"><ele>194.6</ele><time>2026-04-11T15:21:27.06Z</time></trkpt><trkpt lat="44.9941183" lon="8.023865"><ele>194.0</ele><time>2026-04-11T15:21:29.06Z</time></trkpt><trkpt lat="44.994055" lon="8.0241683"><ele>194.0</ele><time>2026-04-11T15:21:33.061Z</time></trkpt><trkpt lat="44.9940333" lon="8.0243233"><ele>194.0</ele><time>2026-04-11T15:21:35.06Z</time></trkpt><trkpt lat="44.994015" lon="8.024475"><ele>194.0</ele><time>2026-04-11T15:21:37.063Z</time></trkpt><trkpt lat="44.9939983" lon="8.0246367"><ele>194.0</ele><time>2026-04-11T15:21:39.061Z</time></trkpt><trkpt lat="44.9939783" lon="8.0248017"><ele>194.0</ele><time>2026-04-11T15:21:41.061Z</time></trkpt><trkpt lat="44.99398" lon="8.02496"><ele>194.0</ele><time>2026-04-11T15:21:43.059Z</time></trkpt><trkpt lat="44.994" lon="8.0251133"><ele>194.0</ele><time>2026-04-11T15:21:45.061Z</time></trkpt><trkpt lat="44.994025" lon="8.025265"><ele>194.0</ele><time>2026-04-11T15:21:47.061Z</time></trkpt><trkpt lat="44.9940667" lon="8.025415"><ele>194.0</ele><time>2026-04-11T15:21:49.062Z</time></trkpt><trkpt lat="44.99411" lon="8.0255633"><ele>198.5</ele><time>2026-04-11T15:21:51.063Z</time></trkpt><trkpt lat="44.994215" lon="8.025845"><ele>203.0</ele><time>2026-04-11T15:21:55.062Z</time></trkpt><trkpt lat="44.99427" lon="8.02598"><ele>207.5</ele><time>2026-04-11T15:21:57.061Z</time></trkpt><trkpt lat="44.99433" lon="8.026115"><ele>212.0</ele><time>2026-04-11T15:21:59.06Z</time></trkpt><trkpt lat="44.9943817" lon="8.0262517"><ele>212.0</ele><time>2026-04-11T15:22:01.062Z</time></trkpt><trkpt lat="44.9944117" lon="8.026405"><ele>212.0</ele><time>2026-04-11T15:22:03.059Z</time></trkpt><trkpt lat="44.9944233" lon="8.0265617"><ele>212.0</ele><time>2026-04-11T15:22:05.06Z</time></trkpt><trkpt lat="44.9944167" lon="8.0267167"><ele>212.0</ele><time>2026-04-11T15:22:07.061Z</time></trkpt><trkpt lat="44.994415" lon="8.026875"><ele>212.0</ele><time>2026-04-11T15:22:09.063Z</time></trkpt><trkpt lat="44.9944267" lon="8.0270283"><ele>210.5</ele><time>2026-04-11T15:22:11.061Z</time></trkpt><trkpt lat="44.9944483" lon="8.0271733"><ele>209.0</ele><time>2026-04-11T15:22:13.061Z</time></trkpt><trkpt lat="44.9945333" lon="8.0274567"><ele>207.5</ele><time>2026-04-11T15:22:17.061Z</time></trkpt><trkpt lat="44.994575" lon="8.0276017"><ele>206.0</ele><time>2026-04-11T15:22:19.062Z</time></trkpt><trkpt lat="44.9946183" lon="8.027745"><ele>205.60000000000002</ele><time>2026-04-11T15:22:21.062Z</time></trkpt><trkpt lat="44.9946617" lon="8.027885"><ele>205.2</ele><time>2026-04-11T15:22:23.059Z</time></trkpt><trkpt lat="44.99471" lon="8.0280283"><ele>204.8</ele><time>2026-04-11T15:22:25.057Z</time></trkpt><trkpt lat="44.994755" lon="8.0281717"><ele>204.39999999999998</ele><time>2026-04-11T15:22:27.054Z</time></trkpt><trkpt lat="44.9947967" lon="8.02831"><ele>204.0</ele><time>2026-04-11T15:22:29.056Z</time></trkpt><trkpt lat="44.994835" lon="8.0284517"><ele>203.25</ele><time>2026-04-11T15:22:31.056Z</time></trkpt><trkpt lat="44.9948667" lon="8.0285967"><ele>202.5</ele><time>2026-04-11T15:22:33.054Z</time></trkpt><trkpt lat="44.99489" lon="8.0287433"><ele>201.75</ele><time>2026-04-11T15:22:35.056Z</time></trkpt><trkpt lat="44.9949433" lon="8.029035"><ele>201.0</ele><time>2026-04-11T15:22:39.063Z</time></trkpt><trkpt lat="44.9949683" lon="8.02918"><ele>201.0</ele><time>2026-04-11T15:22:41.059Z</time></trkpt><trkpt lat="44.9949883" lon="8.0293267"><ele>201.0</ele><time>2026-04-11T15:22:43.062Z</time></trkpt><trkpt lat="44.995015" lon="8.02947"><ele>201.0</ele><time>2026-04-11T15:22:45.06Z</time></trkpt><trkpt lat="44.9950417" lon="8.0296217"><ele>201.0</ele><time>2026-04-11T15:22:47.061Z</time></trkpt><trkpt lat="44.9950717" lon="8.0297683"><ele>201.0</ele><time>2026-04-11T15:22:49.062Z</time></trkpt><trkpt lat="44.9951167" lon="8.029895"><ele>201.0</ele><time>2026-04-11T15:22:51.063Z</time></trkpt><trkpt lat="44.9951867" lon="8.02998"><ele>201.0</ele><time>2026-04-11T15:22:53.062Z</time></trkpt><trkpt lat="44.9952783" lon="8.0300417"><ele>201.0</ele><time>2026-04-11T15:22:55.061Z</time></trkpt><trkpt lat="44.9953667" lon="8.0300817"><ele>201.0</ele><time>2026-04-11T15:22:57.056Z</time></trkpt><trkpt lat="44.9955533" lon="8.0301683"><ele>201.0</ele><time>2026-04-11T15:23:01.06Z</time></trkpt><trkpt lat="44.9956433" lon="8.030215"><ele>201.0</ele><time>2026-04-11T15:23:03.063Z</time></trkpt><trkpt lat="44.9957383" lon="8.0302417"><ele>201.0</ele><time>2026-04-11T15:23:05.059Z</time></trkpt><trkpt lat="44.99583" lon="8.03027"><ele>201.0</ele><time>2026-04-11T15:23:07.059Z</time></trkpt><trkpt lat="44.9959217" lon="8.030285"><ele>201.0</ele><time>2026-04-11T15:23:09.061Z</time></trkpt><trkpt lat="44.9960117" lon="8.0303067"><ele>202.0</ele><time>2026-04-11T15:23:11.062Z</time></trkpt><trkpt lat="44.9961067" lon="8.030315"><ele>203.0</ele><time>2026-04-11T15:23:13.059Z</time></trkpt><trkpt lat="44.9962" lon="8.03033"><ele>204.0</ele><time>2026-04-11T15:23:15.061Z</time></trkpt><trkpt lat="44.9962933" lon="8.0303317"><ele>205.0</ele><time>2026-04-11T15:23:17.059Z</time></trkpt><trkpt lat="44.9963817" lon="8.030335"><ele>206.0</ele><time>2026-04-11T15:23:19.06Z</time></trkpt><trkpt lat="44.9965483" lon="8.03036"><ele>205.99999999999997</ele><time>2026-04-11T15:23:23.059Z</time></trkpt><trkpt lat="44.996595" lon="8.03042"><ele>206.0</ele><time>2026-04-11T15:23:25.062Z</time></trkpt><trkpt lat="44.99661" lon="8.0305217"><ele>206.0</ele><time>2026-04-11T15:23:27.061Z</time></trkpt><trkpt lat="44.9966117" lon="8.0306233"><ele>206.0</ele><time>2026-04-11T15:23:29.059Z</time></trkpt><trkpt lat="44.99661" lon="8.0307317"><ele>206.0</ele><time>2026-04-11T15:23:31.061Z</time></trkpt><trkpt lat="44.9966117" lon="8.0308367"><ele>205.99999999999997</ele><time>2026-04-11T15:23:33.063Z</time></trkpt><trkpt lat="44.9966183" lon="8.0309367"><ele>206.0</ele><time>2026-04-11T15:23:35.059Z</time></trkpt><trkpt lat="44.9966233" lon="8.0310367"><ele>206.60000000000002</ele><time>2026-04-11T15:23:37.064Z</time></trkpt><trkpt lat="44.996625" lon="8.03114"><ele>207.2</ele><time>2026-04-11T15:23:39.062Z</time></trkpt><trkpt lat="44.996625" lon="8.03124"><ele>207.8</ele><time>2026-04-11T15:23:41.062Z</time></trkpt><trkpt lat="44.9966433" lon="8.0314717"><ele>208.39999999999998</ele><time>2026-04-11T15:23:46.061Z</time></trkpt><trkpt lat="44.996655" lon="8.031595"><ele>209.0</ele><time>2026-04-11T15:23:49.061Z</time></trkpt><trkpt lat="44.9966733" lon="8.0317117"><ele>214.0</ele><time>2026-04-11T15:23:52.062Z</time></trkpt><trkpt lat="44.99668" lon="8.0318333"><ele>219.0</ele><time>2026-04-11T15:23:55.057Z</time></trkpt><trkpt lat="44.9967017" lon="8.031965"><ele>223.99999999999997</ele><time>2026-04-11T15:23:58.061Z</time></trkpt><trkpt lat="44.9967217" lon="8.0320883"><ele>229.0</ele><time>2026-04-11T15:24:01.062Z</time></trkpt><trkpt lat="44.9967333" lon="8.0322"><ele>234.0</ele><time>2026-04-11T15:24:04.061Z</time></trkpt><trkpt lat="44.99677" lon="8.0323917"><ele>235.5</ele><time>2026-04-11T15:24:10.062Z</time></trkpt><trkpt lat="44.9967967" lon="8.0325033"><ele>237.0</ele><time>2026-04-11T15:24:14.059Z</time></trkpt><trkpt lat="44.9968367" lon="8.03259"><ele>238.5</ele><time>2026-04-11T15:24:17.06Z</time></trkpt><trkpt lat="44.9968836" lon="8.0326683"><ele>240.0</ele><time>2026-04-11T15:24:19.967Z</time></trkpt><trkpt lat="44.9969297" lon="8.0327374"><ele>241.5</ele><time>2026-04-11T15:24:23.06Z</time></trkpt><trkpt lat="44.9969857" lon="8.0328098"><ele>243.0</ele><time>2026-04-11T15:24:26.108Z</time></trkpt><trkpt lat="44.9970939" lon="8.0329342"><ele>243.0</ele><time>2026-04-11T15:24:32.076Z</time></trkpt><trkpt lat="44.9971408" lon="8.0330097"><ele>243.0</ele><time>2026-04-11T15:24:35.061Z</time></trkpt><trkpt lat="44.9971855" lon="8.0331055"><ele>243.0</ele><time>2026-04-11T15:24:38.057Z</time></trkpt><trkpt lat="44.997235" lon="8.03318"><ele>243.0</ele><time>2026-04-11T15:24:41.061Z</time></trkpt><trkpt lat="44.997285" lon="8.03325"><ele>243.0</ele><time>2026-04-11T15:24:44.061Z</time></trkpt><trkpt lat="44.997345" lon="8.0333067"><ele>243.0</ele><time>2026-04-11T15:24:47.059Z</time></trkpt><trkpt lat="44.99745" lon="8.0334367"><ele>242.66666666666666</ele><time>2026-04-11T15:24:53.059Z</time></trkpt><trkpt lat="44.9974983" lon="8.0335033"><ele>242.33333333333331</ele><time>2026-04-11T15:24:56.061Z</time></trkpt><trkpt lat="44.99755" lon="8.0335683"><ele>242.0</ele><time>2026-04-11T15:24:59.06Z</time></trkpt><trkpt lat="44.9976067" lon="8.0336333"><ele>241.66666666666666</ele><time>2026-04-11T15:25:02.059Z</time></trkpt><trkpt lat="44.9976583" lon="8.0337017"><ele>241.33333333333331</ele><time>2026-04-11T15:25:05.059Z</time></trkpt><trkpt lat="44.9977133" lon="8.0337533"><ele>241.0</ele><time>2026-04-11T15:25:08.061Z</time></trkpt><trkpt lat="44.99778" lon="8.0339017"><ele>241.16666666666666</ele><time>2026-04-11T15:25:14.06Z</time></trkpt><trkpt lat="44.9977483" lon="8.0340017"><ele>241.33333333333331</ele><time>2026-04-11T15:25:17.058Z</time></trkpt><trkpt lat="44.9976817" lon="8.0340767"><ele>241.5</ele><time>2026-04-11T15:25:20.065Z</time></trkpt><trkpt lat="44.9976017" lon="8.0340967"><ele>241.66666666666669</ele><time>2026-04-11T15:25:23.06Z</time></trkpt><trkpt lat="44.9975233" lon="8.034135"><ele>241.83333333333334</ele><time>2026-04-11T15:25:26.06Z</time></trkpt><trkpt lat="44.9974733" lon="8.0342067"><ele>242.0</ele><time>2026-04-11T15:25:29.06Z</time></trkpt><trkpt lat="44.99751" lon="8.034395"><ele>244.33333333333334</ele><time>2026-04-11T15:25:36.06Z</time></trkpt><trkpt lat="44.9975633" lon="8.03445"><ele>246.66666666666669</ele><time>2026-04-11T15:25:39.059Z</time></trkpt><trkpt lat="44.9976183" lon="8.0344983"><ele>249.0</ele><time>2026-04-11T15:25:42.062Z</time></trkpt><trkpt lat="44.9976783" lon="8.0345383"><ele>251.33333333333331</ele><time>2026-04-11T15:25:45.064Z</time></trkpt><trkpt lat="44.9977483" lon="8.034595"><ele>253.66666666666666</ele><time>2026-04-11T15:25:49.062Z</time></trkpt><trkpt lat="44.9978033" lon="8.0346483"><ele>256.0</ele><time>2026-04-11T15:25:52.06Z</time></trkpt><trkpt lat="44.997875" lon="8.034825"><ele>255.99999999999997</ele><time>2026-04-11T15:25:59.06Z</time></trkpt><trkpt lat="44.99783" lon="8.034895"><ele>256.0</ele><time>2026-04-11T15:26:02.063Z</time></trkpt><trkpt lat="44.9977583" lon="8.0348633"><ele>256.0</ele><time>2026-04-11T15:26:05.059Z</time></trkpt><trkpt lat="44.9976817" lon="8.034815"><ele>256.0</ele><time>2026-04-11T15:26:08.062Z</time></trkpt><trkpt lat="44.9976117" lon="8.034765"><ele>255.99999999999997</ele><time>2026-04-11T15:26:11.062Z</time></trkpt><trkpt lat="44.9975367" lon="8.03473"><ele>256.0</ele><time>2026-04-11T15:26:14.06Z</time></trkpt><trkpt lat="44.99741" lon="8.0346167"><ele>253.66666666666666</ele><time>2026-04-11T15:26:20.058Z</time></trkpt><trkpt lat="44.9973467" lon="8.0345633"><ele>251.33333333333331</ele><time>2026-04-11T15:26:23.062Z</time></trkpt><trkpt lat="44.9972883" lon="8.0345117"><ele>249.0</ele><time>2026-04-11T15:26:26.061Z</time></trkpt><trkpt lat="44.9972317" lon="8.03447"><ele>246.66666666666669</ele><time>2026-04-11T15:26:29.058Z</time></trkpt><trkpt lat="44.9971683" lon="8.034425"><ele>244.33333333333334</ele><time>2026-04-11T15:26:32.061Z</time></trkpt><trkpt lat="44.9971067" lon="8.0343817"><ele>242.0</ele><time>2026-04-11T15:26:35.06Z</time></trkpt><trkpt lat="44.9969617" lon="8.03432"><ele>242.00000000000003</ele><time>2026-04-11T15:26:41.061Z</time></trkpt><trkpt lat="44.9968833" lon="8.0343117"><ele>242.0</ele><time>2026-04-11T15:26:44.059Z</time></trkpt><trkpt lat="44.996815" lon="8.0343217"><ele>242.0</ele><time>2026-04-11T15:26:47.06Z</time></trkpt><trkpt lat="44.9967483" lon="8.0343617"><ele>242.0</ele><time>2026-04-11T15:26:50.061Z</time></trkpt><trkpt lat="44.99669" lon="8.03441"><ele>242.00000000000003</ele><time>2026-04-11T15:26:53.06Z</time></trkpt><trkpt lat="44.9966367" lon="8.03448"><ele>242.0</ele><time>2026-04-11T15:26:56.059Z</time></trkpt><trkpt lat="44.9965367" lon="8.034645"><ele>244.00000000000003</ele><time>2026-04-11T15:27:02.059Z</time></trkpt><trkpt lat="44.9964833" lon="8.03474"><ele>246.0</ele><time>2026-04-11T15:27:05.059Z</time></trkpt><trkpt lat="44.9964483" lon="8.0348433"><ele>248.0</ele><time>2026-04-11T15:27:08.062Z</time></trkpt><trkpt lat="44.9963983" lon="8.034955"><ele>250.0</ele><time>2026-04-11T15:27:11.06Z</time></trkpt><trkpt lat="44.996365" lon="8.0350367"><ele>252.00000000000003</ele><time>2026-04-11T15:27:13.06Z</time></trkpt><trkpt lat="44.9963233" lon="8.0351233"><ele>254.0</ele><time>2026-04-11T15:27:15.064Z</time></trkpt><trkpt lat="44.9962817" lon="8.0352217"><ele>256.5</ele><time>2026-04-11T15:27:17.06Z</time></trkpt><trkpt lat="44.9961817" lon="8.035425"><ele>259.0</ele><time>2026-04-11T15:27:21.064Z</time></trkpt><trkpt lat="44.9961233" lon="8.03553"><ele>261.5</ele><time>2026-04-11T15:27:23.063Z</time></trkpt><trkpt lat="44.9960633" lon="8.0356367"><ele>264.0</ele><time>2026-04-11T15:27:25.063Z</time></trkpt><trkpt lat="44.996005" lon="8.0357433"><ele>263.2</ele><time>2026-04-11T15:27:27.064Z</time></trkpt><trkpt lat="44.9959433" lon="8.035845"><ele>262.4</ele><time>2026-04-11T15:27:29.059Z</time></trkpt><trkpt lat="44.9958867" lon="8.03595"><ele>261.6</ele><time>2026-04-11T15:27:31.059Z</time></trkpt><trkpt lat="44.9958383" lon="8.0360633"><ele>260.8</ele><time>2026-04-11T15:27:33.061Z</time></trkpt><trkpt lat="44.995785" lon="8.0361733"><ele>260.0</ele><time>2026-04-11T15:27:35.061Z</time></trkpt><trkpt lat="44.9957317" lon="8.0362833"><ele>260.0</ele><time>2026-04-11T15:27:37.06Z</time></trkpt><trkpt lat="44.99568" lon="8.0363867"><ele>260.0</ele><time>2026-04-11T15:27:39.063Z</time></trkpt><trkpt lat="44.9955683" lon="8.0365483"><ele>260.0</ele><time>2026-04-11T15:27:43.061Z</time></trkpt><trkpt lat="44.9955017" lon="8.0366"><ele>260.0</ele><time>2026-04-11T15:27:45.06Z</time></trkpt><trkpt lat="44.9954383" lon="8.0366333"><ele>260.0</ele><time>2026-04-11T15:27:47.061Z</time></trkpt><trkpt lat="44.9953633" lon="8.0366767"><ele>259.4</ele><time>2026-04-11T15:27:49.065Z</time></trkpt><trkpt lat="44.9952833" lon="8.036725"><ele>258.8</ele><time>2026-04-11T15:27:51.064Z</time></trkpt><trkpt lat="44.995195" lon="8.036775"><ele>258.2</ele><time>2026-04-11T15:27:53.061Z</time></trkpt><trkpt lat="44.995105" lon="8.0368233"><ele>257.6</ele><time>2026-04-11T15:27:55.064Z</time></trkpt><trkpt lat="44.9950017" lon="8.0368733"><ele>257.0</ele><time>2026-04-11T15:27:57.063Z</time></trkpt><trkpt lat="44.9949" lon="8.03693"><ele>257.0</ele><time>2026-04-11T15:27:59.06Z</time></trkpt><trkpt lat="44.9948" lon="8.0369783"><ele>257.0</ele><time>2026-04-11T15:28:01.063Z</time></trkpt><trkpt lat="44.9945767" lon="8.0370517"><ele>257.0</ele><time>2026-04-11T15:28:05.062Z</time></trkpt><trkpt lat="44.9944667" lon="8.0370917"><ele>257.0</ele><time>2026-04-11T15:28:07.064Z</time></trkpt><trkpt lat="44.9943717" lon="8.0371667"><ele>257.0</ele><time>2026-04-11T15:28:09.063Z</time></trkpt><trkpt lat="44.9942933" lon="8.037275"><ele>257.0</ele><time>2026-04-11T15:28:11.06Z</time></trkpt><trkpt lat="44.9942217" lon="8.0373917"><ele>257.0</ele><time>2026-04-11T15:28:13.061Z</time></trkpt><trkpt lat="44.99415" lon="8.0374733"><ele>257.0</ele><time>2026-04-11T15:28:15.062Z</time></trkpt><trkpt lat="44.9940483" lon="8.0375133"><ele>257.0</ele><time>2026-04-11T15:28:17.061Z</time></trkpt><trkpt lat="44.9939317" lon="8.0375317"><ele>256.33333333333337</ele><time>2026-04-11T15:28:19.062Z</time></trkpt><trkpt lat="44.9938167" lon="8.037575"><ele>255.66666666666669</ele><time>2026-04-11T15:28:21.06Z</time></trkpt><trkpt lat="44.993715" lon="8.0376617"><ele>255.0</ele><time>2026-04-11T15:28:23.06Z</time></trkpt><trkpt lat="44.9935617" lon="8.0379033"><ele>255.0</ele><time>2026-04-11T15:28:27.062Z</time></trkpt><trkpt lat="44.9935133" lon="8.0380417"><ele>255.0</ele><time>2026-04-11T15:28:29.061Z</time></trkpt><trkpt lat="44.9934883" lon="8.0381917"><ele>255.0</ele><time>2026-04-11T15:28:31.06Z</time></trkpt><trkpt lat="44.993475" lon="8.0383467"><ele>255.0</ele><time>2026-04-11T15:28:33.061Z</time></trkpt><trkpt lat="44.99346" lon="8.0384983"><ele>255.0</ele><time>2026-04-11T15:28:35.059Z</time></trkpt><trkpt lat="44.9934517" lon="8.038645"><ele>254.8</ele><time>2026-04-11T15:28:37.062Z</time></trkpt><trkpt lat="44.9934433" lon="8.0387917"><ele>254.6</ele><time>2026-04-11T15:28:39.061Z</time></trkpt><trkpt lat="44.9934267" lon="8.03892"><ele>254.39999999999998</ele><time>2026-04-11T15:28:41.059Z</time></trkpt><trkpt lat="44.993395" lon="8.0390533"><ele>254.2</ele><time>2026-04-11T15:28:43.061Z</time></trkpt><trkpt lat="44.9933433" lon="8.0392017"><ele>254.0</ele><time>2026-04-11T15:28:45.061Z</time></trkpt><trkpt lat="44.9932067" lon="8.03948"><ele>254.0</ele><time>2026-04-11T15:28:49.062Z</time></trkpt><trkpt lat="44.9931283" lon="8.03959"><ele>253.99999999999997</ele><time>2026-04-11T15:28:51.062Z</time></trkpt><trkpt lat="44.9930617" lon="8.03971"><ele>253.99999999999997</ele><time>2026-04-11T15:28:53.06Z</time></trkpt><trkpt lat="44.9930117" lon="8.039875"><ele>254.0</ele><time>2026-04-11T15:28:55.059Z</time></trkpt><trkpt lat="44.9929933" lon="8.0399767"><ele>254.0</ele><time>2026-04-11T15:28:56.061Z</time></trkpt><trkpt lat="44.9929767" lon="8.04008"><ele>253.16666666666669</ele><time>2026-04-11T15:28:57.062Z</time></trkpt><trkpt lat="44.9929567" lon="8.0401833"><ele>252.33333333333334</ele><time>2026-04-11T15:28:58.06Z</time></trkpt><trkpt lat="44.9929367" lon="8.0402917"><ele>251.5</ele><time>2026-04-11T15:28:59.061Z</time></trkpt><trkpt lat="44.9929033" lon="8.0404067"><ele>250.66666666666669</ele><time>2026-04-11T15:29:00.061Z</time></trkpt><trkpt lat="44.9928717" lon="8.0405183"><ele>249.83333333333334</ele><time>2026-04-11T15:29:01.062Z</time></trkpt><trkpt lat="44.9928383" lon="8.0406267"><ele>249.0</ele><time>2026-04-11T15:29:02.059Z</time></trkpt><trkpt lat="44.9928083" lon="8.04074"><ele>246.2</ele><time>2026-04-11T15:29:03.062Z</time></trkpt><trkpt lat="44.9927767" lon="8.0408567"><ele>243.39999999999998</ele><time>2026-04-11T15:29:04.062Z</time></trkpt><trkpt lat="44.9927483" lon="8.04097"><ele>240.6</ele><time>2026-04-11T15:29:05.061Z</time></trkpt><trkpt lat="44.9927133" lon="8.0410817"><ele>237.8</ele><time>2026-04-11T15:29:06.059Z</time></trkpt><trkpt lat="44.9926467" lon="8.041305"><ele>235.0</ele><time>2026-04-11T15:29:08.059Z</time></trkpt><trkpt lat="44.992615" lon="8.0414117"><ele>234.99999999999997</ele><time>2026-04-11T15:29:09.063Z</time></trkpt><trkpt lat="44.9925717" lon="8.0415133"><ele>235.0</ele><time>2026-04-11T15:29:10.061Z</time></trkpt><trkpt lat="44.99252" lon="8.0416033"><ele>235.0</ele><time>2026-04-11T15:29:11.06Z</time></trkpt><trkpt lat="44.9924633" lon="8.041685"><ele>235.0</ele><time>2026-04-11T15:29:12.06Z</time></trkpt><trkpt lat="44.9923983" lon="8.0417617"><ele>234.99999999999997</ele><time>2026-04-11T15:29:13.063Z</time></trkpt><trkpt lat="44.9923317" lon="8.0418233"><ele>235.0</ele><time>2026-04-11T15:29:14.061Z</time></trkpt><trkpt lat="44.9922667" lon="8.04187"><ele>236.42857142857142</ele><time>2026-04-11T15:29:15.06Z</time></trkpt><trkpt lat="44.9922033" lon="8.0419183"><ele>237.85714285714283</ele><time>2026-04-11T15:29:16.062Z</time></trkpt><trkpt lat="44.99215" lon="8.0419817"><ele>239.28571428571428</ele><time>2026-04-11T15:29:17.06Z</time></trkpt><trkpt lat="44.9921067" lon="8.04206"><ele>240.71428571428572</ele><time>2026-04-11T15:29:18.059Z</time></trkpt><trkpt lat="44.9920733" lon="8.0421417"><ele>242.14285714285714</ele><time>2026-04-11T15:29:19.062Z</time></trkpt><trkpt lat="44.9920367" lon="8.042225"><ele>243.57142857142856</ele><time>2026-04-11T15:29:20.061Z</time></trkpt><trkpt lat="44.991995" lon="8.042305"><ele>245.0</ele><time>2026-04-11T15:29:21.06Z</time></trkpt><trkpt lat="44.9919567" lon="8.0423867"><ele>243.16666666666669</ele><time>2026-04-11T15:29:22.06Z</time></trkpt><trkpt lat="44.9919183" lon="8.0424717"><ele>241.33333333333334</ele><time>2026-04-11T15:29:23.059Z</time></trkpt><trkpt lat="44.9918783" lon="8.0425583"><ele>239.5</ele><time>2026-04-11T15:29:24.059Z</time></trkpt><trkpt lat="44.9918367" lon="8.0426433"><ele>237.66666666666669</ele><time>2026-04-11T15:29:25.061Z</time></trkpt><trkpt lat="44.9917967" lon="8.0427283"><ele>235.83333333333334</ele><time>2026-04-11T15:29:26.06Z</time></trkpt><trkpt lat="44.99176" lon="8.0428117"><ele>234.0</ele><time>2026-04-11T15:29:27.062Z</time></trkpt><trkpt lat="44.9916917" lon="8.0429733"><ele>235.6</ele><time>2026-04-11T15:29:29.059Z</time></trkpt><trkpt lat="44.9916567" lon="8.043055"><ele>237.2</ele><time>2026-04-11T15:29:30.062Z</time></trkpt><trkpt lat="44.991595" lon="8.043205"><ele>238.79999999999998</ele><time>2026-04-11T15:29:32.062Z</time></trkpt><trkpt lat="44.9915333" lon="8.04334"><ele>240.39999999999998</ele><time>2026-04-11T15:29:34.061Z</time></trkpt><trkpt lat="44.9914733" lon="8.0434617"><ele>242.0</ele><time>2026-04-11T15:29:36.061Z</time></trkpt><trkpt lat="44.9914117" lon="8.0435683"><ele>242.0</ele><time>2026-04-11T15:29:38.059Z</time></trkpt><trkpt lat="44.9913583" lon="8.04366"><ele>242.0</ele><time>2026-04-11T15:29:40.06Z</time></trkpt><trkpt lat="44.991305" lon="8.0437283"><ele>242.0</ele><time>2026-04-11T15:29:42.061Z</time></trkpt><trkpt lat="44.991225" lon="8.0437933"><ele>242.0</ele><time>2026-04-11T15:29:45.063Z</time></trkpt><trkpt lat="44.991145" lon="8.04384"><ele>242.0</ele><time>2026-04-11T15:29:48.065Z</time></trkpt><trkpt lat="44.9910233" lon="8.043915"><ele>242.0</ele><time>2026-04-11T15:29:52.063Z</time></trkpt><trkpt lat="44.9909617" lon="8.04396"><ele>241.99999999999997</ele><time>2026-04-11T15:29:54.062Z</time></trkpt><trkpt lat="44.9908983" lon="8.04401"><ele>242.0</ele><time>2026-04-11T15:29:56.062Z</time></trkpt><trkpt lat="44.99083" lon="8.0440517"><ele>242.0</ele><time>2026-04-11T15:29:58.063Z</time></trkpt><trkpt lat="44.9907667" lon="8.0440983"><ele>241.99999999999997</ele><time>2026-04-11T15:30:00.061Z</time></trkpt><trkpt lat="44.9907067" lon="8.044155"><ele>242.0</ele><time>2026-04-11T15:30:02.063Z</time></trkpt><trkpt lat="44.9906433" lon="8.0442233"><ele>242.0</ele><time>2026-04-11T15:30:04.063Z</time></trkpt><trkpt lat="44.9905767" lon="8.0443283"><ele>243.2</ele><time>2026-04-11T15:30:06.06Z</time></trkpt><trkpt lat="44.9905333" lon="8.04449"><ele>244.39999999999998</ele><time>2026-04-11T15:30:08.061Z</time></trkpt><trkpt lat="44.9905183" lon="8.0445867"><ele>245.60000000000002</ele><time>2026-04-11T15:30:09.061Z</time></trkpt><trkpt lat="44.9904883" lon="8.0447967"><ele>246.8</ele><time>2026-04-11T15:30:11.061Z</time></trkpt><trkpt lat="44.9904683" lon="8.044905"><ele>248.0</ele><time>2026-04-11T15:30:12.059Z</time></trkpt><trkpt lat="44.99044" lon="8.04501"><ele>245.66666666666669</ele><time>2026-04-11T15:30:13.064Z</time></trkpt><trkpt lat="44.9903933" lon="8.0451017"><ele>243.33333333333334</ele><time>2026-04-11T15:30:14.062Z</time></trkpt><trkpt lat="44.990335" lon="8.045175"><ele>241.0</ele><time>2026-04-11T15:30:15.063Z</time></trkpt><trkpt lat="44.9902567" lon="8.0452167"><ele>238.66666666666669</ele><time>2026-04-11T15:30:16.061Z</time></trkpt><trkpt lat="44.990195" lon="8.0452633"><ele>236.33333333333334</ele><time>2026-04-11T15:30:17.062Z</time></trkpt><trkpt lat="44.9901217" lon="8.045345"><ele>234.0</ele><time>2026-04-11T15:30:19.062Z</time></trkpt><trkpt lat="44.990045" lon="8.04543"><ele>234.2</ele><time>2026-04-11T15:30:21.063Z</time></trkpt><trkpt lat="44.98997" lon="8.0455267"><ele>234.39999999999998</ele><time>2026-04-11T15:30:23.061Z</time></trkpt><trkpt lat="44.989875" lon="8.0456367"><ele>234.6</ele><time>2026-04-11T15:30:25.06Z</time></trkpt><trkpt lat="44.98978" lon="8.0457533"><ele>234.8</ele><time>2026-04-11T15:30:27.061Z</time></trkpt><trkpt lat="44.9897317" lon="8.045815"><ele>235.0</ele><time>2026-04-11T15:30:28.061Z</time></trkpt><trkpt lat="44.98968" lon="8.045875"><ele>235.0</ele><time>2026-04-11T15:30:29.059Z</time></trkpt><trkpt lat="44.9895883" lon="8.0459867"><ele>235.0</ele><time>2026-04-11T15:30:31.062Z</time></trkpt><trkpt lat="44.9894067" lon="8.0462117"><ele>235.0</ele><time>2026-04-11T15:30:35.059Z</time></trkpt><trkpt lat="44.98936" lon="8.0462717"><ele>235.0</ele><time>2026-04-11T15:30:36.059Z</time></trkpt><trkpt lat="44.989315" lon="8.0463367"><ele>235.0</ele><time>2026-04-11T15:30:37.06Z</time></trkpt><trkpt lat="44.9892717" lon="8.046405"><ele>235.0</ele><time>2026-04-11T15:30:38.059Z</time></trkpt><trkpt lat="44.989185" lon="8.0465267"><ele>235.0</ele><time>2026-04-11T15:30:40.06Z</time></trkpt><trkpt lat="44.9891183" lon="8.0466383"><ele>235.0</ele><time>2026-04-11T15:30:42.063Z</time></trkpt><trkpt lat="44.98906" lon="8.04676"><ele>235.0</ele><time>2026-04-11T15:30:44.06Z</time></trkpt><trkpt lat="44.9889817" lon="8.0469"><ele>235.83333333333331</ele><time>2026-04-11T15:30:46.06Z</time></trkpt><trkpt lat="44.9888883" lon="8.0470283"><ele>236.66666666666666</ele><time>2026-04-11T15:30:48.06Z</time></trkpt><trkpt lat="44.9888267" lon="8.0470767"><ele>237.5</ele><time>2026-04-11T15:30:49.062Z</time></trkpt><trkpt lat="44.98876" lon="8.0471167"><ele>238.33333333333331</ele><time>2026-04-11T15:30:50.062Z</time></trkpt><trkpt lat="44.9886883" lon="8.0471467"><ele>239.16666666666666</ele><time>2026-04-11T15:30:51.062Z</time></trkpt><trkpt lat="44.9886217" lon="8.04719"><ele>240.0</ele><time>2026-04-11T15:30:52.061Z</time></trkpt><trkpt lat="44.9884817" lon="8.04729"><ele>240.0</ele><time>2026-04-11T15:30:54.062Z</time></trkpt><trkpt lat="44.9884167" lon="8.0473567"><ele>240.0</ele><time>2026-04-11T15:30:55.061Z</time></trkpt><trkpt lat="44.9883517" lon="8.047415"><ele>240.0</ele><time>2026-04-11T15:30:56.061Z</time></trkpt><trkpt lat="44.9882867" lon="8.0474667"><ele>240.0</ele><time>2026-04-11T15:30:57.059Z</time></trkpt><trkpt lat="44.9882217" lon="8.0475167"><ele>240.0</ele><time>2026-04-11T15:30:58.06Z</time></trkpt><trkpt lat="44.9881567" lon="8.0475617"><ele>240.0</ele><time>2026-04-11T15:30:59.059Z</time></trkpt><trkpt lat="44.9880883" lon="8.047605"><ele>239.5</ele><time>2026-04-11T15:31:00.061Z</time></trkpt><trkpt lat="44.9880167" lon="8.04765"><ele>239.0</ele><time>2026-04-11T15:31:01.058Z</time></trkpt><trkpt lat="44.98794" lon="8.0476917"><ele>238.5</ele><time>2026-04-11T15:31:02.061Z</time></trkpt><trkpt lat="44.9878583" lon="8.0477417"><ele>238.0</ele><time>2026-04-11T15:31:03.06Z</time></trkpt><trkpt lat="44.9877767" lon="8.047795"><ele>237.5</ele><time>2026-04-11T15:31:04.061Z</time></trkpt><trkpt lat="44.987695" lon="8.04785"><ele>237.0</ele><time>2026-04-11T15:31:05.059Z</time></trkpt><trkpt lat="44.9876133" lon="8.0479033"><ele>237.0</ele><time>2026-04-11T15:31:06.061Z</time></trkpt><trkpt lat="44.98753" lon="8.0479617"><ele>237.0</ele><time>2026-04-11T15:31:07.061Z</time></trkpt><trkpt lat="44.987445" lon="8.0480167"><ele>237.0</ele><time>2026-04-11T15:31:08.06Z</time></trkpt><trkpt lat="44.9873617" lon="8.0480683"><ele>237.0</ele><time>2026-04-11T15:31:09.063Z</time></trkpt><trkpt lat="44.9872767" lon="8.0481233"><ele>237.0</ele><time>2026-04-11T15:31:10.061Z</time></trkpt><trkpt lat="44.987195" lon="8.0481767"><ele>237.0</ele><time>2026-04-11T15:31:11.06Z</time></trkpt><trkpt lat="44.9871117" lon="8.0482333"><ele>237.0</ele><time>2026-04-11T15:31:12.06Z</time></trkpt><trkpt lat="44.98703" lon="8.0482967"><ele>237.0</ele><time>2026-04-11T15:31:13.059Z</time></trkpt><trkpt lat="44.98687" lon="8.0484333"><ele>237.0</ele><time>2026-04-11T15:31:15.061Z</time></trkpt><trkpt lat="44.9867917" lon="8.0485067"><ele>237.0</ele><time>2026-04-11T15:31:16.061Z</time></trkpt><trkpt lat="44.9867083" lon="8.0485817"><ele>237.0</ele><time>2026-04-11T15:31:17.059Z</time></trkpt><trkpt lat="44.9866217" lon="8.0486583"><ele>237.0</ele><time>2026-04-11T15:31:18.059Z</time></trkpt><trkpt lat="44.9865333" lon="8.04874"><ele>237.0</ele><time>2026-04-11T15:31:19.06Z</time></trkpt><trkpt lat="44.9864433" lon="8.04883"><ele>237.0</ele><time>2026-04-11T15:31:20.058Z</time></trkpt><trkpt lat="44.9863583" lon="8.0489267"><ele>234.25</ele><time>2026-04-11T15:31:21.061Z</time></trkpt><trkpt lat="44.9862733" lon="8.0490333"><ele>231.5</ele><time>2026-04-11T15:31:22.061Z</time></trkpt><trkpt lat="44.9861917" lon="8.0491417"><ele>228.75</ele><time>2026-04-11T15:31:23.059Z</time></trkpt><trkpt lat="44.9861117" lon="8.04925"><ele>226.0</ele><time>2026-04-11T15:31:24.058Z</time></trkpt><trkpt lat="44.98603" lon="8.0493617"><ele>226.0</ele><time>2026-04-11T15:31:25.061Z</time></trkpt><trkpt lat="44.9859467" lon="8.0494733"><ele>226.00000000000003</ele><time>2026-04-11T15:31:26.061Z</time></trkpt><trkpt lat="44.985865" lon="8.0495833"><ele>226.00000000000003</ele><time>2026-04-11T15:31:27.06Z</time></trkpt><trkpt lat="44.985785" lon="8.0496917"><ele>226.0</ele><time>2026-04-11T15:31:28.06Z</time></trkpt><trkpt lat="44.985705" lon="8.0497967"><ele>226.0</ele><time>2026-04-11T15:31:29.061Z</time></trkpt><trkpt lat="44.985625" lon="8.049895"><ele>223.4</ele><time>2026-04-11T15:31:30.059Z</time></trkpt><trkpt lat="44.9855483" lon="8.0499883"><ele>220.8</ele><time>2026-04-11T15:31:31.061Z</time></trkpt><trkpt lat="44.9854667" lon="8.0500783"><ele>218.20000000000002</ele><time>2026-04-11T15:31:32.061Z</time></trkpt><trkpt lat="44.9853883" lon="8.0501617"><ele>215.60000000000002</ele><time>2026-04-11T15:31:33.062Z</time></trkpt><trkpt lat="44.98532" lon="8.050245"><ele>213.0</ele><time>2026-04-11T15:31:34.061Z</time></trkpt><trkpt lat="44.9852017" lon="8.0504233"><ele>212.99999999999997</ele><time>2026-04-11T15:31:36.061Z</time></trkpt><trkpt lat="44.9851533" lon="8.0505133"><ele>213.0</ele><time>2026-04-11T15:31:37.059Z</time></trkpt><trkpt lat="44.9851133" lon="8.0506017"><ele>213.0</ele><time>2026-04-11T15:31:38.061Z</time></trkpt><trkpt lat="44.98508" lon="8.050695"><ele>213.0</ele><time>2026-04-11T15:31:39.06Z</time></trkpt><trkpt lat="44.9850483" lon="8.0507817"><ele>213.0</ele><time>2026-04-11T15:31:40.06Z</time></trkpt><trkpt lat="44.9850217" lon="8.0508683"><ele>212.99999999999997</ele><time>2026-04-11T15:31:41.06Z</time></trkpt><trkpt lat="44.9849983" lon="8.0509517"><ele>213.0</ele><time>2026-04-11T15:31:42.058Z</time></trkpt><trkpt lat="44.9849717" lon="8.051035"><ele>213.2</ele><time>2026-04-11T15:31:43.061Z</time></trkpt><trkpt lat="44.9849517" lon="8.05112"><ele>213.4</ele><time>2026-04-11T15:31:44.06Z</time></trkpt><trkpt lat="44.9849083" lon="8.05128"><ele>213.59999999999997</ele><time>2026-04-11T15:31:46.06Z</time></trkpt><trkpt lat="44.98486" lon="8.0514367"><ele>213.79999999999998</ele><time>2026-04-11T15:31:48.061Z</time></trkpt><trkpt lat="44.9848117" lon="8.051585"><ele>214.0</ele><time>2026-04-11T15:31:50.061Z</time></trkpt><trkpt lat="44.984765" lon="8.0517283"><ele>216.6</ele><time>2026-04-11T15:31:52.061Z</time></trkpt><trkpt lat="44.9847267" lon="8.0518583"><ele>219.2</ele><time>2026-04-11T15:31:54.062Z</time></trkpt><trkpt lat="44.98469" lon="8.0519783"><ele>221.79999999999998</ele><time>2026-04-11T15:31:56.059Z</time></trkpt><trkpt lat="44.9846117" lon="8.0521917"><ele>224.39999999999998</ele><time>2026-04-11T15:32:00.059Z</time></trkpt><trkpt lat="44.98458" lon="8.05229"><ele>227.0</ele><time>2026-04-11T15:32:02.06Z</time></trkpt><trkpt lat="44.98456" lon="8.0523867"><ele>228.00000000000003</ele><time>2026-04-11T15:32:04.062Z</time></trkpt><trkpt lat="44.9845467" lon="8.052505"><ele>229.0</ele><time>2026-04-11T15:32:06.061Z</time></trkpt><trkpt lat="44.9845217" lon="8.0526717"><ele>230.0</ele><time>2026-04-11T15:32:08.06Z</time></trkpt><trkpt lat="44.98451" lon="8.052775"><ele>231.0</ele><time>2026-04-11T15:32:09.059Z</time></trkpt><trkpt lat="44.9844967" lon="8.0528867"><ele>232.00000000000003</ele><time>2026-04-11T15:32:10.058Z</time></trkpt><trkpt lat="44.9844833" lon="8.0530067"><ele>233.0</ele><time>2026-04-11T15:32:11.059Z</time></trkpt><trkpt lat="44.9844667" lon="8.05313"><ele>233.0</ele><time>2026-04-11T15:32:12.061Z</time></trkpt><trkpt lat="44.9844467" lon="8.0532533"><ele>233.0</ele><time>2026-04-11T15:32:13.063Z</time></trkpt><trkpt lat="44.9844183" lon="8.0533767"><ele>233.0</ele><time>2026-04-11T15:32:14.06Z</time></trkpt><trkpt lat="44.98438" lon="8.0534967"><ele>233.0</ele><time>2026-04-11T15:32:15.061Z</time></trkpt><trkpt lat="44.9843317" lon="8.0536067"><ele>233.0</ele><time>2026-04-11T15:32:16.059Z</time></trkpt><trkpt lat="44.9842733" lon="8.0537033"><ele>230.8</ele><time>2026-04-11T15:32:17.059Z</time></trkpt><trkpt lat="44.98414" lon="8.0538333"><ele>228.60000000000002</ele><time>2026-04-11T15:32:19.059Z</time></trkpt><trkpt lat="44.9840667" lon="8.0538717"><ele>226.39999999999998</ele><time>2026-04-11T15:32:20.061Z</time></trkpt><trkpt lat="44.984" lon="8.053895"><ele>224.2</ele><time>2026-04-11T15:32:21.061Z</time></trkpt><trkpt lat="44.9839367" lon="8.053905"><ele>222.0</ele><time>2026-04-11T15:32:22.061Z</time></trkpt><trkpt lat="44.98383" lon="8.0538967"><ele>222.0</ele><time>2026-04-11T15:32:24.059Z</time></trkpt><trkpt lat="44.9837383" lon="8.053905"><ele>222.0</ele><time>2026-04-11T15:32:26.061Z</time></trkpt><trkpt lat="44.9836683" lon="8.0540133"><ele>222.0</ele><time>2026-04-11T15:32:28.059Z</time></trkpt><trkpt lat="44.9836417" lon="8.0540967"><ele>222.0</ele><time>2026-04-11T15:32:29.06Z</time></trkpt><trkpt lat="44.98363" lon="8.0541867"><ele>222.0</ele><time>2026-04-11T15:32:30.061Z</time></trkpt><trkpt lat="44.9836133" lon="8.0542817"><ele>222.0</ele><time>2026-04-11T15:32:31.059Z</time></trkpt><trkpt lat="44.9836067" lon="8.0543817"><ele>220.39999999999998</ele><time>2026-04-11T15:32:32.06Z</time></trkpt><trkpt lat="44.9836033" lon="8.0544917"><ele>218.79999999999998</ele><time>2026-04-11T15:32:33.061Z</time></trkpt><trkpt lat="44.98361" lon="8.0546133"><ele>217.2</ele><time>2026-04-11T15:32:34.061Z</time></trkpt><trkpt lat="44.9836333" lon="8.0547417"><ele>215.6</ele><time>2026-04-11T15:32:35.06Z</time></trkpt><trkpt lat="44.983665" lon="8.0548783"><ele>214.0</ele><time>2026-04-11T15:32:36.061Z</time></trkpt><trkpt lat="44.98371" lon="8.0550217"><ele>211.25</ele><time>2026-04-11T15:32:37.06Z</time></trkpt><trkpt lat="44.9837633" lon="8.0551617"><ele>208.5</ele><time>2026-04-11T15:32:38.063Z</time></trkpt><trkpt lat="44.9838733" lon="8.0554283"><ele>205.75</ele><time>2026-04-11T15:32:40.061Z</time></trkpt><trkpt lat="44.9839217" lon="8.0555417"><ele>203.0</ele><time>2026-04-11T15:32:41.059Z</time></trkpt><trkpt lat="44.9839667" lon="8.0556483"><ele>203.0</ele><time>2026-04-11T15:32:42.06Z</time></trkpt><trkpt lat="44.9840217" lon="8.055755"><ele>203.0</ele><time>2026-04-11T15:32:43.062Z</time></trkpt><trkpt lat="44.9840733" lon="8.0558617"><ele>203.0</ele><time>2026-04-11T15:32:44.059Z</time></trkpt><trkpt lat="44.98412" lon="8.0559733"><ele>203.0</ele><time>2026-04-11T15:32:45.059Z</time></trkpt><trkpt lat="44.9841567" lon="8.056095"><ele>203.0</ele><time>2026-04-11T15:32:46.059Z</time></trkpt><trkpt lat="44.9841917" lon="8.0562217"><ele>200.83333333333334</ele><time>2026-04-11T15:32:47.06Z</time></trkpt><trkpt lat="44.9842183" lon="8.05635"><ele>198.66666666666669</ele><time>2026-04-11T15:32:48.059Z</time></trkpt><trkpt lat="44.984245" lon="8.0564733"><ele>196.5</ele><time>2026-04-11T15:32:49.059Z</time></trkpt><trkpt lat="44.98427" lon="8.05659"><ele>194.33333333333334</ele><time>2026-04-11T15:32:50.059Z</time></trkpt><trkpt lat="44.9842917" lon="8.05669"><ele>192.16666666666669</ele><time>2026-04-11T15:32:51.061Z</time></trkpt><trkpt lat="44.9843217" lon="8.05683"><ele>190.0</ele><time>2026-04-11T15:32:53.06Z</time></trkpt><trkpt lat="44.9843217" lon="8.0569367"><ele>189.0</ele><time>2026-04-11T15:32:55.06Z</time></trkpt><trkpt lat="44.98425" lon="8.057025"><ele>188.0</ele><time>2026-04-11T15:32:57.06Z</time></trkpt><trkpt lat="44.9841383" lon="8.0570667"><ele>187.0</ele><time>2026-04-11T15:32:59.061Z</time></trkpt><trkpt lat="44.9840117" lon="8.0571167"><ele>186.0</ele><time>2026-04-11T15:33:01.06Z</time></trkpt><trkpt lat="44.9838983" lon="8.057165"><ele>186.0</ele><time>2026-04-11T15:33:03.061Z</time></trkpt><trkpt lat="44.9838" lon="8.0572167"><ele>186.0</ele><time>2026-04-11T15:33:05.062Z</time></trkpt><trkpt lat="44.9837033" lon="8.0572717"><ele>186.0</ele><time>2026-04-11T15:33:07.062Z</time></trkpt><trkpt lat="44.9836033" lon="8.057315"><ele>186.0</ele><time>2026-04-11T15:33:09.062Z</time></trkpt><trkpt lat="44.9834917" lon="8.0573567"><ele>186.0</ele><time>2026-04-11T15:33:11.06Z</time></trkpt><trkpt lat="44.9833733" lon="8.0573983"><ele>186.25</ele><time>2026-04-11T15:33:13.062Z</time></trkpt><trkpt lat="44.983255" lon="8.05743"><ele>186.5</ele><time>2026-04-11T15:33:15.059Z</time></trkpt><trkpt lat="44.9831367" lon="8.0574567"><ele>186.75</ele><time>2026-04-11T15:33:17.06Z</time></trkpt><trkpt lat="44.9830217" lon="8.0574667"><ele>187.0</ele><time>2026-04-11T15:33:19.06Z</time></trkpt><trkpt lat="44.982915" lon="8.0574667"><ele>187.0</ele><time>2026-04-11T15:33:21.062Z</time></trkpt><trkpt lat="44.98269" lon="8.057435"><ele>187.0</ele><time>2026-04-11T15:33:25.061Z</time></trkpt><trkpt lat="44.982575" lon="8.057405"><ele>187.0</ele><time>2026-04-11T15:33:27.06Z</time></trkpt><trkpt lat="44.9824533" lon="8.05738"><ele>187.5</ele><time>2026-04-11T15:33:29.06Z</time></trkpt><trkpt lat="44.9823417" lon="8.0573333"><ele>188.0</ele><time>2026-04-11T15:33:31.062Z</time></trkpt><trkpt lat="44.9822267" lon="8.0572883"><ele>188.5</ele><time>2026-04-11T15:33:33.059Z</time></trkpt><trkpt lat="44.982115" lon="8.0572517"><ele>189.0</ele><time>2026-04-11T15:33:35.061Z</time></trkpt><trkpt lat="44.9820067" lon="8.057215"><ele>189.0</ele><time>2026-04-11T15:33:37.061Z</time></trkpt><trkpt lat="44.9819033" lon="8.05718"><ele>189.0</ele><time>2026-04-11T15:33:39.061Z</time></trkpt><trkpt lat="44.9818033" lon="8.057145"><ele>189.0</ele><time>2026-04-11T15:33:41.059Z</time></trkpt><trkpt lat="44.98171" lon="8.057105"><ele>189.0</ele><time>2026-04-11T15:33:43.06Z</time></trkpt><trkpt lat="44.98153" lon="8.0570467"><ele>187.79999999999998</ele><time>2026-04-11T15:33:47.061Z</time></trkpt><trkpt lat="44.9814417" lon="8.057045"><ele>186.6</ele><time>2026-04-11T15:33:49.062Z</time></trkpt><trkpt lat="44.9813767" lon="8.057095"><ele>185.4</ele><time>2026-04-11T15:33:51.061Z</time></trkpt><trkpt lat="44.981325" lon="8.057225"><ele>184.2</ele><time>2026-04-11T15:33:53.063Z</time></trkpt><trkpt lat="44.9812733" lon="8.0573817"><ele>183.0</ele><time>2026-04-11T15:33:55.06Z</time></trkpt><trkpt lat="44.98122" lon="8.0575367"><ele>182.8</ele><time>2026-04-11T15:33:57.063Z</time></trkpt><trkpt lat="44.981165" lon="8.0576717"><ele>182.60000000000002</ele><time>2026-04-11T15:33:59.061Z</time></trkpt><trkpt lat="44.9811233" lon="8.0577983"><ele>182.39999999999998</ele><time>2026-04-11T15:34:01.061Z</time></trkpt><trkpt lat="44.9810817" lon="8.057925"><ele>182.2</ele><time>2026-04-11T15:34:03.062Z</time></trkpt><trkpt lat="44.9810417" lon="8.058045"><ele>182.0</ele><time>2026-04-11T15:34:05.062Z</time></trkpt><trkpt lat="44.98096" lon="8.058285"><ele>182.0</ele><time>2026-04-11T15:34:09.06Z</time></trkpt><trkpt lat="44.9809183" lon="8.0584"><ele>182.0</ele><time>2026-04-11T15:34:11.06Z</time></trkpt><trkpt lat="44.980875" lon="8.0585217"><ele>182.0</ele><time>2026-04-11T15:34:13.061Z</time></trkpt><trkpt lat="44.980835" lon="8.0586417"><ele>182.0</ele><time>2026-04-11T15:34:15.062Z</time></trkpt><trkpt lat="44.9807933" lon="8.0587533"><ele>182.0</ele><time>2026-04-11T15:34:17.059Z</time></trkpt><trkpt lat="44.980755" lon="8.0588683"><ele>182.0</ele><time>2026-04-11T15:34:19.061Z</time></trkpt><trkpt lat="44.9807083" lon="8.05899"><ele>182.0</ele><time>2026-04-11T15:34:21.063Z</time></trkpt><trkpt lat="44.9806667" lon="8.0591083"><ele>182.0</ele><time>2026-04-11T15:34:23.061Z</time></trkpt><trkpt lat="44.980625" lon="8.0592267"><ele>182.0</ele><time>2026-04-11T15:34:25.061Z</time></trkpt><trkpt lat="44.9805833" lon="8.059345"><ele>182.0</ele><time>2026-04-11T15:34:27.063Z</time></trkpt><trkpt lat="44.9804817" lon="8.0595567"><ele>182.28571428571428</ele><time>2026-04-11T15:34:31.06Z</time></trkpt><trkpt lat="44.9804183" lon="8.0596367"><ele>182.57142857142856</ele><time>2026-04-11T15:34:33.063Z</time></trkpt><trkpt lat="44.98035" lon="8.05969"><ele>182.85714285714286</ele><time>2026-04-11T15:34:35.061Z</time></trkpt><trkpt lat="44.9802883" lon="8.059735"><ele>183.14285714285714</ele><time>2026-04-11T15:34:37.06Z</time></trkpt><trkpt lat="44.9802283" lon="8.0597733"><ele>183.42857142857142</ele><time>2026-04-11T15:34:39.06Z</time></trkpt><trkpt lat="44.9801667" lon="8.0598083"><ele>183.71428571428572</ele><time>2026-04-11T15:34:41.059Z</time></trkpt><trkpt lat="44.9801067" lon="8.0598383"><ele>184.0</ele><time>2026-04-11T15:34:43.062Z</time></trkpt><trkpt lat="44.9800483" lon="8.0598783"><ele>183.79999999999998</ele><time>2026-04-11T15:34:45.063Z</time></trkpt><trkpt lat="44.9799933" lon="8.0599217"><ele>183.6</ele><time>2026-04-11T15:34:47.06Z</time></trkpt><trkpt lat="44.97993" lon="8.059955"><ele>183.4</ele><time>2026-04-11T15:34:49.061Z</time></trkpt><trkpt lat="44.9797733" lon="8.0600717"><ele>183.2</ele><time>2026-04-11T15:34:55.059Z</time></trkpt><trkpt lat="44.9797033" lon="8.0601483"><ele>183.0</ele><time>2026-04-11T15:34:58.06Z</time></trkpt><trkpt lat="44.9796467" lon="8.0601983"><ele>185.2</ele><time>2026-04-11T15:35:00.06Z</time></trkpt><trkpt lat="44.979575" lon="8.0602533"><ele>187.4</ele><time>2026-04-11T15:35:03.06Z</time></trkpt><trkpt lat="44.9795117" lon="8.0603167"><ele>189.6</ele><time>2026-04-11T15:35:06.062Z</time></trkpt><trkpt lat="44.9794483" lon="8.0603983"><ele>191.79999999999998</ele><time>2026-04-11T15:35:09.06Z</time></trkpt><trkpt lat="44.9793833" lon="8.06047"><ele>194.0</ele><time>2026-04-11T15:35:12.056Z</time></trkpt><trkpt lat="44.979265" lon="8.0606533"><ele>194.00000000000003</ele><time>2026-04-11T15:35:18.058Z</time></trkpt><trkpt lat="44.9792183" lon="8.060755"><ele>194.0</ele><time>2026-04-11T15:35:21.062Z</time></trkpt><trkpt lat="44.9791683" lon="8.0608533"><ele>194.0</ele><time>2026-04-11T15:35:24.059Z</time></trkpt><trkpt lat="44.9791267" lon="8.0609417"><ele>194.0</ele><time>2026-04-11T15:35:27.064Z</time></trkpt><trkpt lat="44.9790817" lon="8.06104"><ele>194.00000000000003</ele><time>2026-04-11T15:35:30.061Z</time></trkpt><trkpt lat="44.979035" lon="8.0611433"><ele>194.0</ele><time>2026-04-11T15:35:33.06Z</time></trkpt><trkpt lat="44.9789367" lon="8.0613583"><ele>195.16666666666669</ele><time>2026-04-11T15:35:39.061Z</time></trkpt><trkpt lat="44.9788883" lon="8.061435"><ele>196.33333333333334</ele><time>2026-04-11T15:35:42.059Z</time></trkpt><trkpt lat="44.9788267" lon="8.0614983"><ele>197.5</ele><time>2026-04-11T15:35:46.058Z</time></trkpt><trkpt lat="44.97878" lon="8.0615583"><ele>198.66666666666669</ele><time>2026-04-11T15:35:48.061Z</time></trkpt><trkpt lat="44.97871" lon="8.06163"><ele>199.83333333333334</ele><time>2026-04-11T15:35:50.061Z</time></trkpt><trkpt lat="44.9786117" lon="8.061695"><ele>201.0</ele><time>2026-04-11T15:35:52.061Z</time></trkpt><trkpt lat="44.9784933" lon="8.061745"><ele>200.4</ele><time>2026-04-11T15:35:54.061Z</time></trkpt><trkpt lat="44.978355" lon="8.0617667"><ele>199.8</ele><time>2026-04-11T15:35:56.062Z</time></trkpt><trkpt lat="44.9782883" lon="8.0617667"><ele>199.20000000000002</ele><time>2026-04-11T15:35:57.061Z</time></trkpt><trkpt lat="44.9781767" lon="8.0617633"><ele>198.60000000000002</ele><time>2026-04-11T15:35:59.061Z</time></trkpt><trkpt lat="44.97809" lon="8.061755"><ele>198.0</ele><time>2026-04-11T15:36:01.062Z</time></trkpt><trkpt lat="44.9780217" lon="8.0617483"><ele>198.0</ele><time>2026-04-11T15:36:03.06Z</time></trkpt><trkpt lat="44.977955" lon="8.0617317"><ele>198.0</ele><time>2026-04-11T15:36:07.061Z</time></trkpt><trkpt lat="44.9778883" lon="8.0617483"><ele>198.0</ele><time>2026-04-11T15:36:12.062Z</time></trkpt><trkpt lat="44.977815" lon="8.0617517"><ele>198.0</ele><time>2026-04-11T15:36:14.06Z</time></trkpt><trkpt lat="44.977715" lon="8.0617683"><ele>198.0</ele><time>2026-04-11T15:36:16.061Z</time></trkpt><trkpt lat="44.977505" lon="8.0617733"><ele>188.0</ele><time>2026-04-11T15:36:20.06Z</time></trkpt><trkpt lat="44.97743" lon="8.0617817"><ele>188.0</ele><time>2026-04-11T15:36:22.061Z</time></trkpt><trkpt lat="44.9773717" lon="8.0617433"><ele>188.0</ele><time>2026-04-11T15:36:25.062Z</time></trkpt><trkpt lat="44.9773617" lon="8.0616283"><ele>188.0</ele><time>2026-04-11T15:36:36.06Z</time></trkpt><trkpt lat="44.9774433" lon="8.061565"><ele>178.0</ele><time>2026-04-11T15:38:11.058Z</time></trkpt></trkseg><trkseg><trkpt lat="44.9774572" lon="8.0615921"><ele>178.0</ele><time>2026-04-12T05:33:57.066Z</time></trkpt><trkpt lat="44.9774683" lon="8.061495"><ele>178.0</ele><time>2026-04-12T05:39:13.065Z</time></trkpt><trkpt lat="44.9774635" lon="8.0614051"><ele>178.0</ele><time>2026-04-12T05:39:36.064Z</time></trkpt><trkpt lat="44.9774309" lon="8.0613225"><ele>178.0</ele><time>2026-04-12T05:40:05.063Z</time></trkpt><trkpt lat="44.9775028" lon="8.0612383"><ele>178.0</ele><time>2026-04-12T05:40:09.065Z</time></trkpt><trkpt lat="44.9775764" lon="8.0611851"><ele>178.0</ele><time>2026-04-12T05:40:12.103Z</time></trkpt><trkpt lat="44.9776571" lon="8.0611342"><ele>178.28571428571428</ele><time>2026-04-12T05:40:15.087Z</time></trkpt><trkpt lat="44.9777128" lon="8.0610671"><ele>178.57142857142856</ele><time>2026-04-12T05:40:17.063Z</time></trkpt><trkpt lat="44.977769" lon="8.0610003"><ele>178.85714285714283</ele><time>2026-04-12T05:40:19.062Z</time></trkpt><trkpt lat="44.9778221" lon="8.0609282"><ele>179.14285714285714</ele><time>2026-04-12T05:40:21.063Z</time></trkpt><trkpt lat="44.9778772" lon="8.0608619"><ele>179.42857142857144</ele><time>2026-04-12T05:40:23.083Z</time></trkpt><trkpt lat="44.9779344" lon="8.060793"><ele>179.7142857142857</ele><time>2026-04-12T05:40:25.064Z</time></trkpt><trkpt lat="44.9779995" lon="8.0607276"><ele>180.0</ele><time>2026-04-12T05:40:27.065Z</time></trkpt><trkpt lat="44.9780707" lon="8.0606638"><ele>180.0</ele><time>2026-04-12T05:40:29.065Z</time></trkpt><trkpt lat="44.9781431" lon="8.0605965"><ele>180.0</ele><time>2026-04-12T05:40:31.078Z</time></trkpt><trkpt lat="44.9782156" lon="8.0605211"><ele>180.0</ele><time>2026-04-12T05:40:33.063Z</time></trkpt><trkpt lat="44.9782883" lon="8.0604417"><ele>180.0</ele><time>2026-04-12T05:40:35.063Z</time></trkpt><trkpt lat="44.9783667" lon="8.06037"><ele>180.0</ele><time>2026-04-12T05:40:37.064Z</time></trkpt><trkpt lat="44.9784483" lon="8.0602967"><ele>180.4</ele><time>2026-04-12T05:40:39.064Z</time></trkpt><trkpt lat="44.9785283" lon="8.060225"><ele>180.8</ele><time>2026-04-12T05:40:41.063Z</time></trkpt><trkpt lat="44.9786117" lon="8.0601533"><ele>181.2</ele><time>2026-04-12T05:40:43.064Z</time></trkpt><trkpt lat="44.9786933" lon="8.0600817"><ele>181.6</ele><time>2026-04-12T05:40:45.069Z</time></trkpt><trkpt lat="44.978775" lon="8.0600083"><ele>182.0</ele><time>2026-04-12T05:40:47.061Z</time></trkpt><trkpt lat="44.978855" lon="8.0599367"><ele>182.0</ele><time>2026-04-12T05:40:49.061Z</time></trkpt><trkpt lat="44.9789383" lon="8.0598617"><ele>182.0</ele><time>2026-04-12T05:40:51.067Z</time></trkpt><trkpt lat="44.97902" lon="8.0597883"><ele>182.0</ele><time>2026-04-12T05:40:53.061Z</time></trkpt><trkpt lat="44.9791033" lon="8.05972"><ele>182.0</ele><time>2026-04-12T05:40:55.063Z</time></trkpt><trkpt lat="44.9791967" lon="8.0596583"><ele>182.0</ele><time>2026-04-12T05:40:57.062Z</time></trkpt><trkpt lat="44.979285" lon="8.0595983"><ele>182.2</ele><time>2026-04-12T05:40:59.063Z</time></trkpt><trkpt lat="44.979375" lon="8.0595367"><ele>182.39999999999998</ele><time>2026-04-12T05:41:01.062Z</time></trkpt><trkpt lat="44.979465" lon="8.0594817"><ele>182.60000000000002</ele><time>2026-04-12T05:41:03.063Z</time></trkpt><trkpt lat="44.9795517" lon="8.0594367"><ele>182.8</ele><time>2026-04-12T05:41:05.062Z</time></trkpt><trkpt lat="44.9796317" lon="8.0593917"><ele>183.0</ele><time>2026-04-12T05:41:07.063Z</time></trkpt><trkpt lat="44.9797117" lon="8.0593533"><ele>183.0</ele><time>2026-04-12T05:41:09.063Z</time></trkpt><trkpt lat="44.97979" lon="8.0593133"><ele>183.0</ele><time>2026-04-12T05:41:11.063Z</time></trkpt><trkpt lat="44.9798767" lon="8.0592717"><ele>183.0</ele><time>2026-04-12T05:41:13.065Z</time></trkpt><trkpt lat="44.97997" lon="8.0592283"><ele>183.0</ele><time>2026-04-12T05:41:15.065Z</time></trkpt><trkpt lat="44.9800633" lon="8.05918"><ele>183.0</ele><time>2026-04-12T05:41:17.064Z</time></trkpt><trkpt lat="44.9801583" lon="8.0591317"><ele>182.8</ele><time>2026-04-12T05:41:19.066Z</time></trkpt><trkpt lat="44.9802617" lon="8.0590867"><ele>182.60000000000002</ele><time>2026-04-12T05:41:21.064Z</time></trkpt><trkpt lat="44.9803633" lon="8.05904"><ele>182.39999999999998</ele><time>2026-04-12T05:41:23.063Z</time></trkpt><trkpt lat="44.980465" lon="8.058995"><ele>182.2</ele><time>2026-04-12T05:41:25.062Z</time></trkpt><trkpt lat="44.980565" lon="8.058945"><ele>182.0</ele><time>2026-04-12T05:41:27.064Z</time></trkpt><trkpt lat="44.98065" lon="8.058905"><ele>182.0</ele><time>2026-04-12T05:41:29.061Z</time></trkpt><trkpt lat="44.9807183" lon="8.0589033"><ele>182.0</ele><time>2026-04-12T05:41:31.062Z</time></trkpt><trkpt lat="44.980795" lon="8.05887"><ele>182.0</ele><time>2026-04-12T05:41:34.064Z</time></trkpt><trkpt lat="44.98084" lon="8.0587833"><ele>182.0</ele><time>2026-04-12T05:41:36.059Z</time></trkpt><trkpt lat="44.9808817" lon="8.0586617"><ele>182.0</ele><time>2026-04-12T05:41:38.064Z</time></trkpt><trkpt lat="44.9809267" lon="8.05853"><ele>182.0</ele><time>2026-04-12T05:41:40.062Z</time></trkpt><trkpt lat="44.9809733" lon="8.0583867"><ele>182.0</ele><time>2026-04-12T05:41:42.065Z</time></trkpt><trkpt lat="44.9810217" lon="8.058245"><ele>182.0</ele><time>2026-04-12T05:41:44.062Z</time></trkpt><trkpt lat="44.9810717" lon="8.0581017"><ele>182.0</ele><time>2026-04-12T05:41:46.061Z</time></trkpt><trkpt lat="44.9811267" lon="8.057965"><ele>182.0</ele><time>2026-04-12T05:41:48.064Z</time></trkpt><trkpt lat="44.9811817" lon="8.0578217"><ele>182.0</ele><time>2026-04-12T05:41:50.067Z</time></trkpt><trkpt lat="44.98123" lon="8.0576833"><ele>182.0</ele><time>2026-04-12T05:41:52.063Z</time></trkpt><trkpt lat="44.9812767" lon="8.0575433"><ele>182.0</ele><time>2026-04-12T05:41:54.064Z</time></trkpt><trkpt lat="44.9813267" lon="8.0574133"><ele>182.0</ele><time>2026-04-12T05:41:56.065Z</time></trkpt><trkpt lat="44.9813783" lon="8.0572867"><ele>182.0</ele><time>2026-04-12T05:41:58.066Z</time></trkpt><trkpt lat="44.9814383" lon="8.057165"><ele>182.2</ele><time>2026-04-12T05:42:00.062Z</time></trkpt><trkpt lat="44.9815183" lon="8.057075"><ele>182.39999999999998</ele><time>2026-04-12T05:42:02.064Z</time></trkpt><trkpt lat="44.9816167" lon="8.0570583"><ele>182.60000000000002</ele><time>2026-04-12T05:42:04.063Z</time></trkpt><trkpt lat="44.981715" lon="8.0570883"><ele>182.8</ele><time>2026-04-12T05:42:06.065Z</time></trkpt><trkpt lat="44.981815" lon="8.057125"><ele>183.0</ele><time>2026-04-12T05:42:08.065Z</time></trkpt><trkpt lat="44.9819217" lon="8.0571667"><ele>184.5</ele><time>2026-04-12T05:42:10.064Z</time></trkpt><trkpt lat="44.9820267" lon="8.057215"><ele>186.0</ele><time>2026-04-12T05:42:12.063Z</time></trkpt><trkpt lat="44.98214" lon="8.0572683"><ele>187.5</ele><time>2026-04-12T05:42:14.064Z</time></trkpt><trkpt lat="44.9822533" lon="8.0573117"><ele>189.0</ele><time>2026-04-12T05:42:16.063Z</time></trkpt><trkpt lat="44.9823667" lon="8.05736"><ele>189.0</ele><time>2026-04-12T05:42:18.064Z</time></trkpt><trkpt lat="44.982485" lon="8.0574083"><ele>189.0</ele><time>2026-04-12T05:42:20.061Z</time></trkpt><trkpt lat="44.9825983" lon="8.057455"><ele>189.0</ele><time>2026-04-12T05:42:22.064Z</time></trkpt><trkpt lat="44.9827133" lon="8.0574917"><ele>189.0</ele><time>2026-04-12T05:42:24.059Z</time></trkpt><trkpt lat="44.98283" lon="8.0575133"><ele>187.0</ele><time>2026-04-12T05:42:26.064Z</time></trkpt><trkpt lat="44.982945" lon="8.0575267"><ele>185.0</ele><time>2026-04-12T05:42:28.064Z</time></trkpt><trkpt lat="44.9830683" lon="8.05753"><ele>183.0</ele><time>2026-04-12T05:42:30.064Z</time></trkpt><trkpt lat="44.9831883" lon="8.0575233"><ele>181.0</ele><time>2026-04-12T05:42:32.065Z</time></trkpt><trkpt lat="44.9833083" lon="8.057495"><ele>181.0</ele><time>2026-04-12T05:42:34.06Z</time></trkpt><trkpt lat="44.9834267" lon="8.057455"><ele>181.0</ele><time>2026-04-12T05:42:36.062Z</time></trkpt><trkpt lat="44.98354" lon="8.0574083"><ele>181.0</ele><time>2026-04-12T05:42:38.063Z</time></trkpt><trkpt lat="44.9836517" lon="8.05736"><ele>181.0</ele><time>2026-04-12T05:42:40.064Z</time></trkpt><trkpt lat="44.9837617" lon="8.05731"><ele>181.5</ele><time>2026-04-12T05:42:42.065Z</time></trkpt><trkpt lat="44.9838683" lon="8.0572617"><ele>182.0</ele><time>2026-04-12T05:42:44.065Z</time></trkpt><trkpt lat="44.9839767" lon="8.0572033"><ele>182.5</ele><time>2026-04-12T05:42:46.064Z</time></trkpt><trkpt lat="44.9840867" lon="8.0571533"><ele>183.0</ele><time>2026-04-12T05:42:48.064Z</time></trkpt><trkpt lat="44.9841917" lon="8.057095"><ele>183.0</ele><time>2026-04-12T05:42:50.062Z</time></trkpt><trkpt lat="44.9843017" lon="8.057045"><ele>183.0</ele><time>2026-04-12T05:42:52.064Z</time></trkpt><trkpt lat="44.9844133" lon="8.057005"><ele>183.0</ele><time>2026-04-12T05:42:54.062Z</time></trkpt><trkpt lat="44.9845217" lon="8.05695"><ele>183.0</ele><time>2026-04-12T05:42:56.064Z</time></trkpt><trkpt lat="44.984635" lon="8.0569"><ele>183.0</ele><time>2026-04-12T05:42:58.065Z</time></trkpt><trkpt lat="44.9847483" lon="8.05685"><ele>183.0</ele><time>2026-04-12T05:43:00.064Z</time></trkpt><trkpt lat="44.9848617" lon="8.0568"><ele>183.0</ele><time>2026-04-12T05:43:02.064Z</time></trkpt><trkpt lat="44.984975" lon="8.0567483"><ele>183.0</ele><time>2026-04-12T05:43:04.062Z</time></trkpt><trkpt lat="44.9850883" lon="8.0567"><ele>182.75</ele><time>2026-04-12T05:43:06.063Z</time></trkpt><trkpt lat="44.9852017" lon="8.05665"><ele>182.5</ele><time>2026-04-12T05:43:08.064Z</time></trkpt><trkpt lat="44.9853167" lon="8.0565983"><ele>182.25</ele><time>2026-04-12T05:43:10.063Z</time></trkpt><trkpt lat="44.9854317" lon="8.0565483"><ele>182.0</ele><time>2026-04-12T05:43:12.064Z</time></trkpt><trkpt lat="44.98555" lon="8.0565133"><ele>182.25</ele><time>2026-04-12T05:43:14.065Z</time></trkpt><trkpt lat="44.9856683" lon="8.056485"><ele>182.5</ele><time>2026-04-12T05:43:16.065Z</time></trkpt><trkpt lat="44.985785" lon="8.0564717"><ele>182.75</ele><time>2026-04-12T05:43:18.063Z</time></trkpt><trkpt lat="44.9859" lon="8.0564883"><ele>183.0</ele><time>2026-04-12T05:43:20.066Z</time></trkpt><trkpt lat="44.9860117" lon="8.0565267"><ele>183.0</ele><time>2026-04-12T05:43:22.064Z</time></trkpt><trkpt lat="44.98612" lon="8.05659"><ele>183.0</ele><time>2026-04-12T05:43:24.064Z</time></trkpt><trkpt lat="44.9862217" lon="8.0566683"><ele>183.0</ele><time>2026-04-12T05:43:26.065Z</time></trkpt><trkpt lat="44.986315" lon="8.0567733"><ele>183.0</ele><time>2026-04-12T05:43:28.064Z</time></trkpt><trkpt lat="44.9863617" lon="8.056835"><ele>183.0</ele><time>2026-04-12T05:43:29.062Z</time></trkpt><trkpt lat="44.9864517" lon="8.0569583"><ele>183.14285714285714</ele><time>2026-04-12T05:43:31.063Z</time></trkpt><trkpt lat="44.9864967" lon="8.057025"><ele>183.28571428571428</ele><time>2026-04-12T05:43:32.063Z</time></trkpt><trkpt lat="44.98654" lon="8.05709"><ele>183.42857142857144</ele><time>2026-04-12T05:43:33.066Z</time></trkpt><trkpt lat="44.986585" lon="8.0571583"><ele>183.57142857142856</ele><time>2026-04-12T05:43:34.063Z</time></trkpt><trkpt lat="44.9866267" lon="8.057225"><ele>183.7142857142857</ele><time>2026-04-12T05:43:35.063Z</time></trkpt><trkpt lat="44.98667" lon="8.057295"><ele>183.85714285714286</ele><time>2026-04-12T05:43:36.065Z</time></trkpt><trkpt lat="44.9867133" lon="8.057365"><ele>184.0</ele><time>2026-04-12T05:43:37.063Z</time></trkpt><trkpt lat="44.9867567" lon="8.0574367"><ele>185.71428571428572</ele><time>2026-04-12T05:43:38.063Z</time></trkpt><trkpt lat="44.9868" lon="8.057505"><ele>187.42857142857142</ele><time>2026-04-12T05:43:39.064Z</time></trkpt><trkpt lat="44.9868433" lon="8.0575783"><ele>189.14285714285714</ele><time>2026-04-12T05:43:40.063Z</time></trkpt><trkpt lat="44.9868867" lon="8.0576467"><ele>190.85714285714286</ele><time>2026-04-12T05:43:41.062Z</time></trkpt><trkpt lat="44.9869333" lon="8.0577167"><ele>192.57142857142856</ele><time>2026-04-12T05:43:42.064Z</time></trkpt><trkpt lat="44.9869767" lon="8.0577883"><ele>194.28571428571428</ele><time>2026-04-12T05:43:43.065Z</time></trkpt><trkpt lat="44.98702" lon="8.0578567"><ele>196.0</ele><time>2026-04-12T05:43:44.062Z</time></trkpt><trkpt lat="44.9870633" lon="8.0579267"><ele>196.0</ele><time>2026-04-12T05:43:45.065Z</time></trkpt><trkpt lat="44.9871067" lon="8.0579967"><ele>196.0</ele><time>2026-04-12T05:43:46.062Z</time></trkpt><trkpt lat="44.9871533" lon="8.0580633"><ele>196.0</ele><time>2026-04-12T05:43:47.068Z</time></trkpt><trkpt lat="44.9871983" lon="8.05813"><ele>196.0</ele><time>2026-04-12T05:43:48.062Z</time></trkpt><trkpt lat="44.9872433" lon="8.0581967"><ele>196.0</ele><time>2026-04-12T05:43:49.064Z</time></trkpt><trkpt lat="44.9872867" lon="8.058265"><ele>196.0</ele><time>2026-04-12T05:43:50.065Z</time></trkpt><trkpt lat="44.9873317" lon="8.0583317"><ele>196.0</ele><time>2026-04-12T05:43:51.064Z</time></trkpt><trkpt lat="44.9873767" lon="8.0584"><ele>196.28571428571428</ele><time>2026-04-12T05:43:52.064Z</time></trkpt><trkpt lat="44.9874217" lon="8.058465"><ele>196.57142857142856</ele><time>2026-04-12T05:43:53.062Z</time></trkpt><trkpt lat="44.987465" lon="8.0585333"><ele>196.85714285714286</ele><time>2026-04-12T05:43:54.064Z</time></trkpt><trkpt lat="44.9875083" lon="8.0586"><ele>197.14285714285714</ele><time>2026-04-12T05:43:55.065Z</time></trkpt><trkpt lat="44.9875517" lon="8.0586683"><ele>197.42857142857142</ele><time>2026-04-12T05:43:56.064Z</time></trkpt><trkpt lat="44.9875967" lon="8.0587383"><ele>197.71428571428572</ele><time>2026-04-12T05:43:57.064Z</time></trkpt><trkpt lat="44.9876433" lon="8.0588067"><ele>198.0</ele><time>2026-04-12T05:43:58.069Z</time></trkpt><trkpt lat="44.987685" lon="8.0588767"><ele>198.0</ele><time>2026-04-12T05:43:59.064Z</time></trkpt><trkpt lat="44.9877283" lon="8.0589467"><ele>198.0</ele><time>2026-04-12T05:44:00.064Z</time></trkpt><trkpt lat="44.9877733" lon="8.059015"><ele>198.0</ele><time>2026-04-12T05:44:01.061Z</time></trkpt><trkpt lat="44.9878167" lon="8.0590833"><ele>198.0</ele><time>2026-04-12T05:44:02.062Z</time></trkpt><trkpt lat="44.98786" lon="8.0591533"><ele>198.0</ele><time>2026-04-12T05:44:03.064Z</time></trkpt><trkpt lat="44.9879033" lon="8.0592217"><ele>198.0</ele><time>2026-04-12T05:44:04.062Z</time></trkpt><trkpt lat="44.987945" lon="8.0592933"><ele>198.0</ele><time>2026-04-12T05:44:05.061Z</time></trkpt><trkpt lat="44.9879867" lon="8.0593633"><ele>195.66666666666666</ele><time>2026-04-12T05:44:06.064Z</time></trkpt><trkpt lat="44.98807" lon="8.059495"><ele>193.33333333333334</ele><time>2026-04-12T05:44:08.063Z</time></trkpt><trkpt lat="44.9881133" lon="8.05956"><ele>191.0</ele><time>2026-04-12T05:44:09.065Z</time></trkpt><trkpt lat="44.9881567" lon="8.0596283"><ele>188.66666666666669</ele><time>2026-04-12T05:44:10.064Z</time></trkpt><trkpt lat="44.9882017" lon="8.0596967"><ele>186.33333333333334</ele><time>2026-04-12T05:44:11.063Z</time></trkpt><trkpt lat="44.9882467" lon="8.059765"><ele>184.0</ele><time>2026-04-12T05:44:12.062Z</time></trkpt><trkpt lat="44.9882917" lon="8.0598317"><ele>184.0</ele><time>2026-04-12T05:44:13.063Z</time></trkpt><trkpt lat="44.9883333" lon="8.0599"><ele>184.0</ele><time>2026-04-12T05:44:14.061Z</time></trkpt><trkpt lat="44.988385" lon="8.0599917"><ele>184.0</ele><time>2026-04-12T05:44:17.063Z</time></trkpt><trkpt lat="44.9884417" lon="8.0600667"><ele>184.0</ele><time>2026-04-12T05:44:18.062Z</time></trkpt><trkpt lat="44.9885083" lon="8.06016"><ele>184.0</ele><time>2026-04-12T05:44:19.567Z</time></trkpt><trkpt lat="44.9885733" lon="8.06027"><ele>184.0</ele><time>2026-04-12T05:44:21.064Z</time></trkpt><trkpt lat="44.9886183" lon="8.0603467"><ele>184.14285714285714</ele><time>2026-04-12T05:44:22.064Z</time></trkpt><trkpt lat="44.9886683" lon="8.060425"><ele>184.28571428571428</ele><time>2026-04-12T05:44:23.068Z</time></trkpt><trkpt lat="44.9887167" lon="8.060505"><ele>184.42857142857142</ele><time>2026-04-12T05:44:24.069Z</time></trkpt><trkpt lat="44.9887633" lon="8.0605783"><ele>184.57142857142856</ele><time>2026-04-12T05:44:25.066Z</time></trkpt><trkpt lat="44.9888117" lon="8.06065"><ele>184.71428571428572</ele><time>2026-04-12T05:44:26.067Z</time></trkpt><trkpt lat="44.9888617" lon="8.0607217"><ele>184.85714285714283</ele><time>2026-04-12T05:44:27.069Z</time></trkpt><trkpt lat="44.98891" lon="8.0607933"><ele>185.0</ele><time>2026-04-12T05:44:28.067Z</time></trkpt><trkpt lat="44.9889583" lon="8.0608633"><ele>184.99999999999997</ele><time>2026-04-12T05:44:29.063Z</time></trkpt><trkpt lat="44.98901" lon="8.06093"><ele>185.0</ele><time>2026-04-12T05:44:30.063Z</time></trkpt><trkpt lat="44.9890633" lon="8.0609933"><ele>185.0</ele><time>2026-04-12T05:44:31.069Z</time></trkpt><trkpt lat="44.9891183" lon="8.06105"><ele>185.0</ele><time>2026-04-12T05:44:32.068Z</time></trkpt><trkpt lat="44.989175" lon="8.0611033"><ele>185.0</ele><time>2026-04-12T05:44:33.066Z</time></trkpt><trkpt lat="44.9892367" lon="8.0611517"><ele>184.99999999999997</ele><time>2026-04-12T05:44:34.068Z</time></trkpt><trkpt lat="44.9892967" lon="8.0611967"><ele>185.0</ele><time>2026-04-12T05:44:35.062Z</time></trkpt><trkpt lat="44.9893567" lon="8.0612317"><ele>185.5</ele><time>2026-04-12T05:44:36.068Z</time></trkpt><trkpt lat="44.9894783" lon="8.06129"><ele>186.0</ele><time>2026-04-12T05:44:38.065Z</time></trkpt><trkpt lat="44.98954" lon="8.06131"><ele>186.5</ele><time>2026-04-12T05:44:39.065Z</time></trkpt><trkpt lat="44.989605" lon="8.0613233"><ele>187.0</ele><time>2026-04-12T05:44:40.065Z</time></trkpt><trkpt lat="44.98967" lon="8.0613317"><ele>187.5</ele><time>2026-04-12T05:44:41.067Z</time></trkpt><trkpt lat="44.989735" lon="8.0613383"><ele>188.0</ele><time>2026-04-12T05:44:42.066Z</time></trkpt><trkpt lat="44.9898033" lon="8.06134"><ele>188.0</ele><time>2026-04-12T05:44:43.064Z</time></trkpt><trkpt lat="44.98987" lon="8.061335"><ele>188.0</ele><time>2026-04-12T05:44:44.066Z</time></trkpt><trkpt lat="44.9899367" lon="8.0613283"><ele>188.0</ele><time>2026-04-12T05:44:45.068Z</time></trkpt><trkpt lat="44.9900017" lon="8.0613217"><ele>188.0</ele><time>2026-04-12T05:44:46.064Z</time></trkpt><trkpt lat="44.9900667" lon="8.0613117"><ele>188.0</ele><time>2026-04-12T05:44:47.068Z</time></trkpt><trkpt lat="44.9901317" lon="8.0613017"><ele>188.0</ele><time>2026-04-12T05:44:48.067Z</time></trkpt><trkpt lat="44.9901983" lon="8.06129"><ele>188.0</ele><time>2026-04-12T05:44:49.069Z</time></trkpt><trkpt lat="44.9902617" lon="8.06128"><ele>187.71428571428572</ele><time>2026-04-12T05:44:50.065Z</time></trkpt><trkpt lat="44.990325" lon="8.0612683"><ele>187.42857142857142</ele><time>2026-04-12T05:44:51.068Z</time></trkpt><trkpt lat="44.9903883" lon="8.061255"><ele>187.14285714285717</ele><time>2026-04-12T05:44:52.065Z</time></trkpt><trkpt lat="44.9904533" lon="8.0612417"><ele>186.85714285714286</ele><time>2026-04-12T05:44:53.068Z</time></trkpt><trkpt lat="44.9905183" lon="8.06123"><ele>186.57142857142858</ele><time>2026-04-12T05:44:54.068Z</time></trkpt><trkpt lat="44.9905867" lon="8.06122"><ele>186.2857142857143</ele><time>2026-04-12T05:44:55.07Z</time></trkpt><trkpt lat="44.9906517" lon="8.0612083"><ele>186.0</ele><time>2026-04-12T05:44:56.065Z</time></trkpt><trkpt lat="44.9907183" lon="8.0611967"><ele>186.00000000000003</ele><time>2026-04-12T05:44:57.067Z</time></trkpt><trkpt lat="44.9907817" lon="8.0611867"><ele>186.0</ele><time>2026-04-12T05:44:58.065Z</time></trkpt><trkpt lat="44.9908483" lon="8.061175"><ele>186.0</ele><time>2026-04-12T05:44:59.063Z</time></trkpt><trkpt lat="44.9909117" lon="8.061165"><ele>186.0</ele><time>2026-04-12T05:45:00.064Z</time></trkpt><trkpt lat="44.9909767" lon="8.061155"><ele>186.0</ele><time>2026-04-12T05:45:01.063Z</time></trkpt><trkpt lat="44.9910433" lon="8.0611433"><ele>186.00000000000003</ele><time>2026-04-12T05:45:02.064Z</time></trkpt><trkpt lat="44.99111" lon="8.0611333"><ele>186.0</ele><time>2026-04-12T05:45:03.07Z</time></trkpt><trkpt lat="44.9911767" lon="8.06112"><ele>186.85714285714286</ele><time>2026-04-12T05:45:04.062Z</time></trkpt><trkpt lat="44.99124" lon="8.0611067"><ele>187.71428571428572</ele><time>2026-04-12T05:45:05.066Z</time></trkpt><trkpt lat="44.9913083" lon="8.061095"><ele>188.57142857142856</ele><time>2026-04-12T05:45:06.065Z</time></trkpt><trkpt lat="44.9913767" lon="8.0610833"><ele>189.42857142857144</ele><time>2026-04-12T05:45:07.064Z</time></trkpt><trkpt lat="44.9914417" lon="8.06107"><ele>190.28571428571428</ele><time>2026-04-12T05:45:08.065Z</time></trkpt><trkpt lat="44.9915083" lon="8.0610583"><ele>191.14285714285714</ele><time>2026-04-12T05:45:09.067Z</time></trkpt><trkpt lat="44.991575" lon="8.061045"><ele>192.0</ele><time>2026-04-12T05:45:10.065Z</time></trkpt><trkpt lat="44.99164" lon="8.0610367"><ele>190.99999999999997</ele><time>2026-04-12T05:45:11.067Z</time></trkpt><trkpt lat="44.991705" lon="8.061025"><ele>190.0</ele><time>2026-04-12T05:45:12.066Z</time></trkpt><trkpt lat="44.9917717" lon="8.0610117"><ele>189.0</ele><time>2026-04-12T05:45:13.065Z</time></trkpt><trkpt lat="44.9918367" lon="8.0609983"><ele>188.0</ele><time>2026-04-12T05:45:14.065Z</time></trkpt><trkpt lat="44.9919067" lon="8.0609917"><ele>187.0</ele><time>2026-04-12T05:45:15.066Z</time></trkpt><trkpt lat="44.9919717" lon="8.0609817"><ele>185.99999999999997</ele><time>2026-04-12T05:45:16.068Z</time></trkpt><trkpt lat="44.9920383" lon="8.0609717"><ele>185.0</ele><time>2026-04-12T05:45:17.065Z</time></trkpt><trkpt lat="44.9921017" lon="8.0609667"><ele>184.99999999999997</ele><time>2026-04-12T05:45:18.067Z</time></trkpt><trkpt lat="44.992165" lon="8.0609583"><ele>185.0</ele><time>2026-04-12T05:45:19.066Z</time></trkpt><trkpt lat="44.99223" lon="8.06095"><ele>185.0</ele><time>2026-04-12T05:45:20.067Z</time></trkpt><trkpt lat="44.992295" lon="8.0609417"><ele>185.0</ele><time>2026-04-12T05:45:21.072Z</time></trkpt><trkpt lat="44.9923583" lon="8.060935"><ele>185.0</ele><time>2026-04-12T05:45:22.073Z</time></trkpt><trkpt lat="44.992425" lon="8.0609267"><ele>184.99999999999997</ele><time>2026-04-12T05:45:23.064Z</time></trkpt><trkpt lat="44.9924883" lon="8.0609183"><ele>185.0</ele><time>2026-04-12T05:45:24.067Z</time></trkpt><trkpt lat="44.9925533" lon="8.0609117"><ele>184.99999999999997</ele><time>2026-04-12T05:45:25.071Z</time></trkpt><trkpt lat="44.9926167" lon="8.0609033"><ele>185.0</ele><time>2026-04-12T05:45:26.064Z</time></trkpt><trkpt lat="44.9926817" lon="8.0608933"><ele>185.0</ele><time>2026-04-12T05:45:27.064Z</time></trkpt><trkpt lat="44.9927483" lon="8.0608867"><ele>185.0</ele><time>2026-04-12T05:45:28.067Z</time></trkpt><trkpt lat="44.992815" lon="8.060875"><ele>185.0</ele><time>2026-04-12T05:45:29.064Z</time></trkpt><trkpt lat="44.9928833" lon="8.0608633"><ele>184.99999999999997</ele><time>2026-04-12T05:45:30.067Z</time></trkpt><trkpt lat="44.99295" lon="8.06085"><ele>185.0</ele><time>2026-04-12T05:45:31.067Z</time></trkpt><trkpt lat="44.9930183" lon="8.0608383"><ele>184.99999999999997</ele><time>2026-04-12T05:45:32.061Z</time></trkpt><trkpt lat="44.9930867" lon="8.0608267"><ele>185.0</ele><time>2026-04-12T05:45:33.064Z</time></trkpt><trkpt lat="44.9931517" lon="8.060815"><ele>185.0</ele><time>2026-04-12T05:45:34.072Z</time></trkpt><trkpt lat="44.99322" lon="8.0608033"><ele>185.0</ele><time>2026-04-12T05:45:35.066Z</time></trkpt><trkpt lat="44.9932867" lon="8.0607917"><ele>185.0</ele><time>2026-04-12T05:45:36.071Z</time></trkpt><trkpt lat="44.9933517" lon="8.0607767"><ele>184.99999999999997</ele><time>2026-04-12T05:45:37.068Z</time></trkpt><trkpt lat="44.9934183" lon="8.060765"><ele>185.0</ele><time>2026-04-12T05:45:38.065Z</time></trkpt><trkpt lat="44.9934867" lon="8.0607533"><ele>185.66666666666666</ele><time>2026-04-12T05:45:39.067Z</time></trkpt><trkpt lat="44.9935517" lon="8.0607383"><ele>186.33333333333331</ele><time>2026-04-12T05:45:40.065Z</time></trkpt><trkpt lat="44.993615" lon="8.0607267"><ele>187.0</ele><time>2026-04-12T05:45:41.064Z</time></trkpt><trkpt lat="44.9936783" lon="8.0607167"><ele>187.66666666666666</ele><time>2026-04-12T05:45:42.066Z</time></trkpt><trkpt lat="44.993805" lon="8.0606967"><ele>188.33333333333334</ele><time>2026-04-12T05:45:44.063Z</time></trkpt><trkpt lat="44.99387" lon="8.0606867"><ele>189.0</ele><time>2026-04-12T05:45:45.07Z</time></trkpt><trkpt lat="44.9939367" lon="8.0606733"><ele>189.0</ele><time>2026-04-12T05:45:46.068Z</time></trkpt><trkpt lat="44.994005" lon="8.0606583"><ele>189.0</ele><time>2026-04-12T05:45:47.066Z</time></trkpt><trkpt lat="44.9940733" lon="8.0606467"><ele>189.0</ele><time>2026-04-12T05:45:48.069Z</time></trkpt><trkpt lat="44.99414" lon="8.0606383"><ele>189.0</ele><time>2026-04-12T05:45:49.07Z</time></trkpt><trkpt lat="44.9942083" lon="8.0606267"><ele>189.0</ele><time>2026-04-12T05:45:50.066Z</time></trkpt><trkpt lat="44.9942783" lon="8.0606167"><ele>189.0</ele><time>2026-04-12T05:45:51.068Z</time></trkpt><trkpt lat="44.9943467" lon="8.0606017"><ele>189.0</ele><time>2026-04-12T05:45:52.069Z</time></trkpt><trkpt lat="44.9944133" lon="8.0605867"><ele>189.57142857142858</ele><time>2026-04-12T05:45:53.067Z</time></trkpt><trkpt lat="44.9944817" lon="8.0605733"><ele>190.14285714285714</ele><time>2026-04-12T05:45:54.069Z</time></trkpt><trkpt lat="44.9945467" lon="8.0605633"><ele>190.71428571428572</ele><time>2026-04-12T05:45:55.071Z</time></trkpt><trkpt lat="44.9946117" lon="8.0605517"><ele>191.28571428571428</ele><time>2026-04-12T05:45:56.066Z</time></trkpt><trkpt lat="44.99468" lon="8.0605433"><ele>191.85714285714286</ele><time>2026-04-12T05:45:57.069Z</time></trkpt><trkpt lat="44.9947467" lon="8.060535"><ele>192.42857142857144</ele><time>2026-04-12T05:45:58.074Z</time></trkpt><trkpt lat="44.994815" lon="8.060525"><ele>193.0</ele><time>2026-04-12T05:45:59.063Z</time></trkpt><trkpt lat="44.9948817" lon="8.0605167"><ele>193.00000000000003</ele><time>2026-04-12T05:46:00.057Z</time></trkpt><trkpt lat="44.99495" lon="8.0605067"><ele>193.0</ele><time>2026-04-12T05:46:01.069Z</time></trkpt><trkpt lat="44.9950167" lon="8.0604983"><ele>193.0</ele><time>2026-04-12T05:46:02.063Z</time></trkpt><trkpt lat="44.9950867" lon="8.0604883"><ele>193.0</ele><time>2026-04-12T05:46:03.061Z</time></trkpt><trkpt lat="44.9951533" lon="8.0604767"><ele>193.0</ele><time>2026-04-12T05:46:04.065Z</time></trkpt><trkpt lat="44.99522" lon="8.060465"><ele>193.00000000000003</ele><time>2026-04-12T05:46:05.069Z</time></trkpt><trkpt lat="44.99529" lon="8.0604533"><ele>193.0</ele><time>2026-04-12T05:46:06.067Z</time></trkpt><trkpt lat="44.9953583" lon="8.06044"><ele>192.57142857142858</ele><time>2026-04-12T05:46:07.066Z</time></trkpt><trkpt lat="44.9954267" lon="8.0604267"><ele>192.14285714285714</ele><time>2026-04-12T05:46:08.066Z</time></trkpt><trkpt lat="44.9954933" lon="8.060415"><ele>191.71428571428572</ele><time>2026-04-12T05:46:09.07Z</time></trkpt><trkpt lat="44.99556" lon="8.060405"><ele>191.28571428571428</ele><time>2026-04-12T05:46:10.07Z</time></trkpt><trkpt lat="44.9956267" lon="8.060395"><ele>190.85714285714286</ele><time>2026-04-12T05:46:11.069Z</time></trkpt><trkpt lat="44.9956933" lon="8.0603833"><ele>190.42857142857144</ele><time>2026-04-12T05:46:12.066Z</time></trkpt><trkpt lat="44.9957633" lon="8.0603733"><ele>190.0</ele><time>2026-04-12T05:46:13.072Z</time></trkpt><trkpt lat="44.99583" lon="8.06036"><ele>190.0</ele><time>2026-04-12T05:46:14.066Z</time></trkpt><trkpt lat="44.9959" lon="8.0603483"><ele>190.0</ele><time>2026-04-12T05:46:15.067Z</time></trkpt><trkpt lat="44.99597" lon="8.0603383"><ele>190.0</ele><time>2026-04-12T05:46:16.066Z</time></trkpt><trkpt lat="44.9960417" lon="8.0603267"><ele>190.0</ele><time>2026-04-12T05:46:17.066Z</time></trkpt><trkpt lat="44.9961133" lon="8.0603133"><ele>190.0</ele><time>2026-04-12T05:46:18.072Z</time></trkpt><trkpt lat="44.9961817" lon="8.060305"><ele>190.0</ele><time>2026-04-12T05:46:19.065Z</time></trkpt><trkpt lat="44.9962533" lon="8.0602933"><ele>190.0</ele><time>2026-04-12T05:46:20.065Z</time></trkpt><trkpt lat="44.9963233" lon="8.060285"><ele>190.0</ele><time>2026-04-12T05:46:21.067Z</time></trkpt><trkpt lat="44.9963917" lon="8.060275"><ele>190.0</ele><time>2026-04-12T05:46:22.063Z</time></trkpt><trkpt lat="44.9964617" lon="8.060265"><ele>190.0</ele><time>2026-04-12T05:46:23.059Z</time></trkpt><trkpt lat="44.9965317" lon="8.060255"><ele>190.0</ele><time>2026-04-12T05:46:24.067Z</time></trkpt><trkpt lat="44.9966" lon="8.0602417"><ele>190.0</ele><time>2026-04-12T05:46:25.063Z</time></trkpt><trkpt lat="44.9966683" lon="8.0602283"><ele>190.0</ele><time>2026-04-12T05:46:26.057Z</time></trkpt><trkpt lat="44.9967383" lon="8.060215"><ele>190.0</ele><time>2026-04-12T05:46:27.067Z</time></trkpt><trkpt lat="44.9968067" lon="8.0602033"><ele>190.0</ele><time>2026-04-12T05:46:28.058Z</time></trkpt><trkpt lat="44.9968767" lon="8.0601933"><ele>190.0</ele><time>2026-04-12T05:46:29.066Z</time></trkpt><trkpt lat="44.996945" lon="8.06018"><ele>190.0</ele><time>2026-04-12T05:46:30.066Z</time></trkpt><trkpt lat="44.9970117" lon="8.06017"><ele>190.0</ele><time>2026-04-12T05:46:31.058Z</time></trkpt><trkpt lat="44.9970783" lon="8.0601583"><ele>190.0</ele><time>2026-04-12T05:46:32.059Z</time></trkpt><trkpt lat="44.9971433" lon="8.0601483"><ele>190.0</ele><time>2026-04-12T05:46:33.063Z</time></trkpt><trkpt lat="44.9972133" lon="8.060135"><ele>190.0</ele><time>2026-04-12T05:46:34.07Z</time></trkpt><trkpt lat="44.9972817" lon="8.0601217"><ele>190.0</ele><time>2026-04-12T05:46:35.067Z</time></trkpt><trkpt lat="44.9973517" lon="8.06011"><ele>190.0</ele><time>2026-04-12T05:46:36.067Z</time></trkpt><trkpt lat="44.99742" lon="8.0600983"><ele>190.0</ele><time>2026-04-12T05:46:37.06Z</time></trkpt><trkpt lat="44.9974883" lon="8.0600883"><ele>190.0</ele><time>2026-04-12T05:46:38.068Z</time></trkpt><trkpt lat="44.997555" lon="8.0600783"><ele>190.0</ele><time>2026-04-12T05:46:39.07Z</time></trkpt><trkpt lat="44.99762" lon="8.0600683"><ele>190.0</ele><time>2026-04-12T05:46:40.068Z</time></trkpt><trkpt lat="44.997685" lon="8.0600567"><ele>190.0</ele><time>2026-04-12T05:46:41.069Z</time></trkpt><trkpt lat="44.99775" lon="8.0600467"><ele>190.16666666666669</ele><time>2026-04-12T05:46:42.058Z</time></trkpt><trkpt lat="44.9978133" lon="8.0600383"><ele>190.33333333333334</ele><time>2026-04-12T05:46:43.066Z</time></trkpt><trkpt lat="44.9978767" lon="8.0600283"><ele>190.5</ele><time>2026-04-12T05:46:44.067Z</time></trkpt><trkpt lat="44.9979417" lon="8.0600167"><ele>190.66666666666666</ele><time>2026-04-12T05:46:45.067Z</time></trkpt><trkpt lat="44.9980667" lon="8.0599917"><ele>190.83333333333331</ele><time>2026-04-12T05:46:47.066Z</time></trkpt><trkpt lat="44.9981317" lon="8.0599833"><ele>191.0</ele><time>2026-04-12T05:46:48.066Z</time></trkpt><trkpt lat="44.9981983" lon="8.0599733"><ele>191.0</ele><time>2026-04-12T05:46:49.069Z</time></trkpt><trkpt lat="44.9982633" lon="8.0599633"><ele>191.0</ele><time>2026-04-12T05:46:50.072Z</time></trkpt><trkpt lat="44.99839" lon="8.0599433"><ele>191.0</ele><time>2026-04-12T05:46:52.064Z</time></trkpt><trkpt lat="44.998455" lon="8.0599333"><ele>191.0</ele><time>2026-04-12T05:46:53.065Z</time></trkpt><trkpt lat="44.9985183" lon="8.0599217"><ele>191.0</ele><time>2026-04-12T05:46:54.064Z</time></trkpt><trkpt lat="44.9985833" lon="8.0599117"><ele>191.0</ele><time>2026-04-12T05:46:55.069Z</time></trkpt><trkpt lat="44.9986467" lon="8.0598983"><ele>192.0</ele><time>2026-04-12T05:46:56.065Z</time></trkpt><trkpt lat="44.99871" lon="8.0598867"><ele>193.0</ele><time>2026-04-12T05:46:57.062Z</time></trkpt><trkpt lat="44.9987733" lon="8.0598733"><ele>194.0</ele><time>2026-04-12T05:46:58.068Z</time></trkpt><trkpt lat="44.9988367" lon="8.059865"><ele>195.0</ele><time>2026-04-12T05:46:59.067Z</time></trkpt><trkpt lat="44.998905" lon="8.0598533"><ele>196.0</ele><time>2026-04-12T05:47:00.067Z</time></trkpt><trkpt lat="44.9989717" lon="8.0598417"><ele>197.0</ele><time>2026-04-12T05:47:01.064Z</time></trkpt><trkpt lat="44.9990367" lon="8.0598317"><ele>198.0</ele><time>2026-04-12T05:47:02.064Z</time></trkpt><trkpt lat="44.9991017" lon="8.05982"><ele>198.85714285714286</ele><time>2026-04-12T05:47:03.063Z</time></trkpt><trkpt lat="44.9991683" lon="8.0598067"><ele>199.7142857142857</ele><time>2026-04-12T05:47:04.069Z</time></trkpt><trkpt lat="44.999235" lon="8.059795"><ele>200.57142857142856</ele><time>2026-04-12T05:47:05.062Z</time></trkpt><trkpt lat="44.9993017" lon="8.0597833"><ele>201.42857142857144</ele><time>2026-04-12T05:47:06.066Z</time></trkpt><trkpt lat="44.9993667" lon="8.059775"><ele>202.28571428571428</ele><time>2026-04-12T05:47:07.06Z</time></trkpt><trkpt lat="44.999435" lon="8.059765"><ele>203.14285714285714</ele><time>2026-04-12T05:47:08.065Z</time></trkpt><trkpt lat="44.9995" lon="8.0597533"><ele>204.0</ele><time>2026-04-12T05:47:09.063Z</time></trkpt><trkpt lat="44.9995633" lon="8.0597417"><ele>204.0</ele><time>2026-04-12T05:47:10.066Z</time></trkpt><trkpt lat="44.9996283" lon="8.0597317"><ele>204.0</ele><time>2026-04-12T05:47:11.066Z</time></trkpt><trkpt lat="44.9996933" lon="8.0597167"><ele>204.0</ele><time>2026-04-12T05:47:12.068Z</time></trkpt><trkpt lat="44.99976" lon="8.059705"><ele>204.0</ele><time>2026-04-12T05:47:13.068Z</time></trkpt><trkpt lat="44.9998267" lon="8.0596917"><ele>204.0</ele><time>2026-04-12T05:47:14.066Z</time></trkpt><trkpt lat="44.9998917" lon="8.059675"><ele>204.0</ele><time>2026-04-12T05:47:15.063Z</time></trkpt><trkpt lat="44.9999567" lon="8.0596583"><ele>204.0</ele><time>2026-04-12T05:47:16.066Z</time></trkpt><trkpt lat="45.0000217" lon="8.0596467"><ele>204.0</ele><time>2026-04-12T05:47:17.065Z</time></trkpt><trkpt lat="45.00009" lon="8.05964"><ele>204.0</ele><time>2026-04-12T05:47:18.064Z</time></trkpt><trkpt lat="45.0001583" lon="8.059635"><ele>204.0</ele><time>2026-04-12T05:47:19.064Z</time></trkpt><trkpt lat="45.0002267" lon="8.05963"><ele>204.0</ele><time>2026-04-12T05:47:20.066Z</time></trkpt><trkpt lat="45.0002967" lon="8.0596283"><ele>204.0</ele><time>2026-04-12T05:47:21.067Z</time></trkpt><trkpt lat="45.000365" lon="8.059625"><ele>204.0</ele><time>2026-04-12T05:47:22.064Z</time></trkpt><trkpt lat="45.0004333" lon="8.0596283"><ele>204.0</ele><time>2026-04-12T05:47:23.065Z</time></trkpt><trkpt lat="45.0004967" lon="8.059635"><ele>204.0</ele><time>2026-04-12T05:47:24.069Z</time></trkpt><trkpt lat="45.0005667" lon="8.059645"><ele>204.0</ele><time>2026-04-12T05:47:25.063Z</time></trkpt><trkpt lat="45.0006383" lon="8.05966"><ele>204.0</ele><time>2026-04-12T05:47:26.065Z</time></trkpt><trkpt lat="45.0007067" lon="8.059675"><ele>204.0</ele><time>2026-04-12T05:47:27.062Z</time></trkpt><trkpt lat="45.000775" lon="8.0596917"><ele>204.0</ele><time>2026-04-12T05:47:28.066Z</time></trkpt><trkpt lat="45.000845" lon="8.0597117"><ele>204.0</ele><time>2026-04-12T05:47:29.066Z</time></trkpt><trkpt lat="45.000915" lon="8.05973"><ele>204.0</ele><time>2026-04-12T05:47:30.065Z</time></trkpt><trkpt lat="45.0009817" lon="8.059755"><ele>202.66666666666666</ele><time>2026-04-12T05:47:31.065Z</time></trkpt><trkpt lat="45.0010483" lon="8.0597833"><ele>201.33333333333331</ele><time>2026-04-12T05:47:32.065Z</time></trkpt><trkpt lat="45.0011683" lon="8.0598433"><ele>200.0</ele><time>2026-04-12T05:47:34.062Z</time></trkpt><trkpt lat="45.00123" lon="8.05988"><ele>198.66666666666666</ele><time>2026-04-12T05:47:35.064Z</time></trkpt><trkpt lat="45.0012933" lon="8.059915"><ele>197.33333333333331</ele><time>2026-04-12T05:47:36.066Z</time></trkpt><trkpt lat="45.00136" lon="8.0599517"><ele>196.0</ele><time>2026-04-12T05:47:37.062Z</time></trkpt><trkpt lat="45.001425" lon="8.0599867"><ele>195.85714285714286</ele><time>2026-04-12T05:47:38.07Z</time></trkpt><trkpt lat="45.0014883" lon="8.060025"><ele>195.71428571428572</ele><time>2026-04-12T05:47:39.066Z</time></trkpt><trkpt lat="45.00155" lon="8.0600583"><ele>195.57142857142856</ele><time>2026-04-12T05:47:40.071Z</time></trkpt><trkpt lat="45.0016133" lon="8.0600917"><ele>195.42857142857144</ele><time>2026-04-12T05:47:41.066Z</time></trkpt><trkpt lat="45.00168" lon="8.060125"><ele>195.28571428571428</ele><time>2026-04-12T05:47:42.069Z</time></trkpt><trkpt lat="45.001745" lon="8.0601617"><ele>195.14285714285714</ele><time>2026-04-12T05:47:43.065Z</time></trkpt><trkpt lat="45.00181" lon="8.060195"><ele>195.0</ele><time>2026-04-12T05:47:44.066Z</time></trkpt><trkpt lat="45.001875" lon="8.0602267"><ele>194.85714285714286</ele><time>2026-04-12T05:47:45.066Z</time></trkpt><trkpt lat="45.00194" lon="8.06026"><ele>194.71428571428572</ele><time>2026-04-12T05:47:46.068Z</time></trkpt><trkpt lat="45.002005" lon="8.0602967"><ele>194.57142857142856</ele><time>2026-04-12T05:47:47.063Z</time></trkpt><trkpt lat="45.0020717" lon="8.0603317"><ele>194.42857142857144</ele><time>2026-04-12T05:47:48.063Z</time></trkpt><trkpt lat="45.0021367" lon="8.060365"><ele>194.2857142857143</ele><time>2026-04-12T05:47:49.065Z</time></trkpt><trkpt lat="45.0022017" lon="8.0604017"><ele>194.14285714285714</ele><time>2026-04-12T05:47:50.07Z</time></trkpt><trkpt lat="45.002265" lon="8.0604367"><ele>194.0</ele><time>2026-04-12T05:47:51.066Z</time></trkpt><trkpt lat="45.00233" lon="8.0604733"><ele>194.0</ele><time>2026-04-12T05:47:52.066Z</time></trkpt><trkpt lat="45.0023967" lon="8.06051"><ele>194.0</ele><time>2026-04-12T05:47:53.064Z</time></trkpt><trkpt lat="45.0024633" lon="8.0605433"><ele>194.0</ele><time>2026-04-12T05:47:54.068Z</time></trkpt><trkpt lat="45.0025267" lon="8.0605767"><ele>194.0</ele><time>2026-04-12T05:47:55.07Z</time></trkpt><trkpt lat="45.0025933" lon="8.06061"><ele>194.0</ele><time>2026-04-12T05:47:56.069Z</time></trkpt><trkpt lat="45.0026583" lon="8.0606433"><ele>194.0</ele><time>2026-04-12T05:47:57.066Z</time></trkpt><trkpt lat="45.0027233" lon="8.0606783"><ele>194.0</ele><time>2026-04-12T05:47:58.073Z</time></trkpt><trkpt lat="45.00279" lon="8.0607133"><ele>194.42857142857142</ele><time>2026-04-12T05:47:59.067Z</time></trkpt><trkpt lat="45.002855" lon="8.0607483"><ele>194.85714285714286</ele><time>2026-04-12T05:48:00.064Z</time></trkpt><trkpt lat="45.00292" lon="8.0607833"><ele>195.28571428571428</ele><time>2026-04-12T05:48:01.069Z</time></trkpt><trkpt lat="45.002985" lon="8.060815"><ele>195.71428571428572</ele><time>2026-04-12T05:48:02.07Z</time></trkpt><trkpt lat="45.0030517" lon="8.0608483"><ele>196.14285714285717</ele><time>2026-04-12T05:48:03.066Z</time></trkpt><trkpt lat="45.0031183" lon="8.06088"><ele>196.57142857142858</ele><time>2026-04-12T05:48:04.066Z</time></trkpt><trkpt lat="45.0031817" lon="8.060915"><ele>197.0</ele><time>2026-04-12T05:48:05.061Z</time></trkpt><trkpt lat="45.0032433" lon="8.0609483"><ele>197.0</ele><time>2026-04-12T05:48:06.068Z</time></trkpt><trkpt lat="45.00331" lon="8.060985"><ele>197.0</ele><time>2026-04-12T05:48:07.068Z</time></trkpt><trkpt lat="45.003375" lon="8.0610183"><ele>197.0</ele><time>2026-04-12T05:48:08.064Z</time></trkpt><trkpt lat="45.0034417" lon="8.0610517"><ele>197.0</ele><time>2026-04-12T05:48:09.07Z</time></trkpt><trkpt lat="45.0035067" lon="8.0610867"><ele>197.0</ele><time>2026-04-12T05:48:10.062Z</time></trkpt><trkpt lat="45.0035733" lon="8.06112"><ele>197.0</ele><time>2026-04-12T05:48:11.062Z</time></trkpt><trkpt lat="45.00364" lon="8.0611533"><ele>197.0</ele><time>2026-04-12T05:48:12.063Z</time></trkpt><trkpt lat="45.003705" lon="8.0611833"><ele>197.14285714285714</ele><time>2026-04-12T05:48:13.064Z</time></trkpt><trkpt lat="45.0037717" lon="8.0612167"><ele>197.28571428571428</ele><time>2026-04-12T05:48:14.064Z</time></trkpt><trkpt lat="45.0038367" lon="8.061245"><ele>197.42857142857144</ele><time>2026-04-12T05:48:15.066Z</time></trkpt><trkpt lat="45.0039033" lon="8.0612717"><ele>197.57142857142856</ele><time>2026-04-12T05:48:16.07Z</time></trkpt><trkpt lat="45.00397" lon="8.0613"><ele>197.7142857142857</ele><time>2026-04-12T05:48:17.068Z</time></trkpt><trkpt lat="45.0040383" lon="8.0613233"><ele>197.85714285714286</ele><time>2026-04-12T05:48:18.063Z</time></trkpt><trkpt lat="45.0041067" lon="8.0613467"><ele>198.0</ele><time>2026-04-12T05:48:19.064Z</time></trkpt><trkpt lat="45.0041767" lon="8.0613683"><ele>198.0</ele><time>2026-04-12T05:48:20.062Z</time></trkpt><trkpt lat="45.0042467" lon="8.06139"><ele>198.0</ele><time>2026-04-12T05:48:21.062Z</time></trkpt><trkpt lat="45.0043167" lon="8.0614083"><ele>198.0</ele><time>2026-04-12T05:48:22.065Z</time></trkpt><trkpt lat="45.0043867" lon="8.06142"><ele>198.0</ele><time>2026-04-12T05:48:23.062Z</time></trkpt><trkpt lat="45.0044517" lon="8.06142"><ele>198.0</ele><time>2026-04-12T05:48:24.063Z</time></trkpt><trkpt lat="45.0045683" lon="8.061445"><ele>198.0</ele><time>2026-04-12T05:48:26.062Z</time></trkpt><trkpt lat="45.0046333" lon="8.0615433"><ele>197.42857142857144</ele><time>2026-04-12T05:48:28.063Z</time></trkpt><trkpt lat="45.0046067" lon="8.0616983"><ele>196.85714285714283</ele><time>2026-04-12T05:48:30.065Z</time></trkpt><trkpt lat="45.0045767" lon="8.061785"><ele>196.28571428571428</ele><time>2026-04-12T05:48:31.062Z</time></trkpt><trkpt lat="45.0045617" lon="8.061875"><ele>195.71428571428572</ele><time>2026-04-12T05:48:32.063Z</time></trkpt><trkpt lat="45.0045467" lon="8.061965"><ele>195.14285714285717</ele><time>2026-04-12T05:48:33.062Z</time></trkpt><trkpt lat="45.0045317" lon="8.062055"><ele>194.57142857142856</ele><time>2026-04-12T05:48:34.062Z</time></trkpt><trkpt lat="45.0045167" lon="8.0621467"><ele>194.0</ele><time>2026-04-12T05:48:35.062Z</time></trkpt><trkpt lat="45.0044983" lon="8.0622433"><ele>194.0</ele><time>2026-04-12T05:48:36.063Z</time></trkpt><trkpt lat="45.0044817" lon="8.0623417"><ele>194.0</ele><time>2026-04-12T05:48:37.065Z</time></trkpt><trkpt lat="45.0044683" lon="8.062445"><ele>194.0</ele><time>2026-04-12T05:48:38.063Z</time></trkpt><trkpt lat="45.0044583" lon="8.062545"><ele>194.0</ele><time>2026-04-12T05:48:39.062Z</time></trkpt><trkpt lat="45.0044517" lon="8.06264"><ele>194.0</ele><time>2026-04-12T05:48:40.063Z</time></trkpt><trkpt lat="45.0044483" lon="8.062735"><ele>194.0</ele><time>2026-04-12T05:48:41.064Z</time></trkpt><trkpt lat="45.0044467" lon="8.0628317"><ele>194.0</ele><time>2026-04-12T05:48:42.065Z</time></trkpt><trkpt lat="45.0044483" lon="8.0629317"><ele>193.85714285714286</ele><time>2026-04-12T05:48:43.062Z</time></trkpt><trkpt lat="45.0044533" lon="8.0630333"><ele>193.71428571428572</ele><time>2026-04-12T05:48:44.063Z</time></trkpt><trkpt lat="45.00446" lon="8.0631317"><ele>193.57142857142858</ele><time>2026-04-12T05:48:45.064Z</time></trkpt><trkpt lat="45.0044667" lon="8.0632283"><ele>193.42857142857144</ele><time>2026-04-12T05:48:46.063Z</time></trkpt><trkpt lat="45.0044767" lon="8.0633233"><ele>193.28571428571428</ele><time>2026-04-12T05:48:47.062Z</time></trkpt><trkpt lat="45.0044833" lon="8.0634167"><ele>193.14285714285717</ele><time>2026-04-12T05:48:48.063Z</time></trkpt><trkpt lat="45.00449" lon="8.0635083"><ele>193.0</ele><time>2026-04-12T05:48:49.065Z</time></trkpt><trkpt lat="45.0045" lon="8.0636017"><ele>193.0</ele><time>2026-04-12T05:48:50.062Z</time></trkpt><trkpt lat="45.00451" lon="8.0636933"><ele>193.0</ele><time>2026-04-12T05:48:51.062Z</time></trkpt><trkpt lat="45.0045267" lon="8.0638633"><ele>193.0</ele><time>2026-04-12T05:48:53.061Z</time></trkpt><trkpt lat="45.0045383" lon="8.0640183"><ele>193.0</ele><time>2026-04-12T05:48:55.062Z</time></trkpt><trkpt lat="45.0045733" lon="8.0641183"><ele>193.0</ele><time>2026-04-12T05:48:57.063Z</time></trkpt><trkpt lat="45.0046583" lon="8.064055"><ele>193.0</ele><time>2026-04-12T05:49:00.062Z</time></trkpt><trkpt lat="45.0046933" lon="8.0639317"><ele>193.0</ele><time>2026-04-12T05:49:02.064Z</time></trkpt><trkpt lat="45.0047333" lon="8.0637933"><ele>193.0</ele><time>2026-04-12T05:49:04.064Z</time></trkpt><trkpt lat="45.00479" lon="8.0636633"><ele>193.0</ele><time>2026-04-12T05:49:06.063Z</time></trkpt><trkpt lat="45.0048633" lon="8.0635517"><ele>193.0</ele><time>2026-04-12T05:49:08.064Z</time></trkpt><trkpt lat="45.0049583" lon="8.0634767"><ele>193.2</ele><time>2026-04-12T05:49:10.064Z</time></trkpt><trkpt lat="45.00506" lon="8.0634217"><ele>193.4</ele><time>2026-04-12T05:49:12.061Z</time></trkpt><trkpt lat="45.005165" lon="8.0633817"><ele>193.6</ele><time>2026-04-12T05:49:14.065Z</time></trkpt><trkpt lat="45.005265" lon="8.0633733"><ele>193.79999999999998</ele><time>2026-04-12T05:49:16.062Z</time></trkpt><trkpt lat="45.0053617" lon="8.0634033"><ele>194.0</ele><time>2026-04-12T05:49:18.063Z</time></trkpt><trkpt lat="45.0054517" lon="8.063445"><ele>194.0</ele><time>2026-04-12T05:49:20.062Z</time></trkpt><trkpt lat="45.005535" lon="8.0635"><ele>194.0</ele><time>2026-04-12T05:49:22.064Z</time></trkpt><trkpt lat="45.0056317" lon="8.0635233"><ele>194.0</ele><time>2026-04-12T05:49:24.063Z</time></trkpt><trkpt lat="45.00573" lon="8.0635183"><ele>194.0</ele><time>2026-04-12T05:49:26.062Z</time></trkpt><trkpt lat="45.0058217" lon="8.0635133"><ele>194.0</ele><time>2026-04-12T05:49:28.064Z</time></trkpt><trkpt lat="45.0059167" lon="8.0635033"><ele>194.75</ele><time>2026-04-12T05:49:30.062Z</time></trkpt><trkpt lat="45.00602" lon="8.0634917"><ele>195.5</ele><time>2026-04-12T05:49:32.062Z</time></trkpt><trkpt lat="45.0061333" lon="8.0634883"><ele>196.25</ele><time>2026-04-12T05:49:34.062Z</time></trkpt><trkpt lat="45.0062533" lon="8.0634967"><ele>197.0</ele><time>2026-04-12T05:49:36.062Z</time></trkpt><trkpt lat="45.0063667" lon="8.063515"><ele>197.0</ele><time>2026-04-12T05:49:38.064Z</time></trkpt><trkpt lat="45.0064733" lon="8.0635483"><ele>197.0</ele><time>2026-04-12T05:49:40.063Z</time></trkpt><trkpt lat="45.0065783" lon="8.063595"><ele>197.0</ele><time>2026-04-12T05:49:42.064Z</time></trkpt><trkpt lat="45.0066867" lon="8.06364"><ele>197.0</ele><time>2026-04-12T05:49:44.063Z</time></trkpt><trkpt lat="45.0067933" lon="8.063675"><ele>197.0</ele><time>2026-04-12T05:49:46.063Z</time></trkpt><trkpt lat="45.0069017" lon="8.063705"><ele>197.0</ele><time>2026-04-12T05:49:48.064Z</time></trkpt><trkpt lat="45.007005" lon="8.06373"><ele>197.0</ele><time>2026-04-12T05:49:50.063Z</time></trkpt><trkpt lat="45.0071117" lon="8.06377"><ele>197.0</ele><time>2026-04-12T05:49:52.063Z</time></trkpt><trkpt lat="45.0072183" lon="8.0638133"><ele>197.0</ele><time>2026-04-12T05:49:54.062Z</time></trkpt><trkpt lat="45.0073233" lon="8.0638567"><ele>197.0</ele><time>2026-04-12T05:49:56.063Z</time></trkpt><trkpt lat="45.0074217" lon="8.0639017"><ele>195.8</ele><time>2026-04-12T05:49:58.063Z</time></trkpt><trkpt lat="45.0075183" lon="8.06394"><ele>194.6</ele><time>2026-04-12T05:50:00.062Z</time></trkpt><trkpt lat="45.0076167" lon="8.0639767"><ele>193.4</ele><time>2026-04-12T05:50:02.063Z</time></trkpt><trkpt lat="45.0077167" lon="8.0640167"><ele>192.20000000000002</ele><time>2026-04-12T05:50:04.063Z</time></trkpt><trkpt lat="45.0078167" lon="8.0640467"><ele>191.0</ele><time>2026-04-12T05:50:06.062Z</time></trkpt><trkpt lat="45.00791" lon="8.06404"><ele>191.0</ele><time>2026-04-12T05:50:08.061Z</time></trkpt><trkpt lat="45.0079983" lon="8.064"><ele>191.0</ele><time>2026-04-12T05:50:10.063Z</time></trkpt><trkpt lat="45.0080917" lon="8.064"><ele>191.0</ele><time>2026-04-12T05:50:12.061Z</time></trkpt><trkpt lat="45.0081817" lon="8.0640167"><ele>191.0</ele><time>2026-04-12T05:50:14.063Z</time></trkpt><trkpt lat="45.0082683" lon="8.06403"><ele>191.0</ele><time>2026-04-12T05:50:16.063Z</time></trkpt><trkpt lat="45.0083567" lon="8.06405"><ele>191.0</ele><time>2026-04-12T05:50:18.064Z</time></trkpt><trkpt lat="45.008455" lon="8.064075"><ele>191.0</ele><time>2026-04-12T05:50:20.063Z</time></trkpt><trkpt lat="45.0085483" lon="8.0640983"><ele>191.0</ele><time>2026-04-12T05:50:22.061Z</time></trkpt><trkpt lat="45.0086333" lon="8.0641183"><ele>191.0</ele><time>2026-04-12T05:50:24.064Z</time></trkpt><trkpt lat="45.00872" lon="8.0641383"><ele>191.0</ele><time>2026-04-12T05:50:26.063Z</time></trkpt><trkpt lat="45.008805" lon="8.0641583"><ele>191.0</ele><time>2026-04-12T05:50:28.066Z</time></trkpt><trkpt lat="45.0088717" lon="8.0641933"><ele>191.0</ele><time>2026-04-12T05:50:30.065Z</time></trkpt><trkpt lat="45.0089433" lon="8.0642417"><ele>191.0</ele><time>2026-04-12T05:50:32.063Z</time></trkpt><trkpt lat="45.009025" lon="8.0642717"><ele>191.0</ele><time>2026-04-12T05:50:34.063Z</time></trkpt><trkpt lat="45.0091117" lon="8.0642867"><ele>191.0</ele><time>2026-04-12T05:50:36.063Z</time></trkpt><trkpt lat="45.009205" lon="8.0643017"><ele>191.0</ele><time>2026-04-12T05:50:38.062Z</time></trkpt><trkpt lat="45.009305" lon="8.0643183"><ele>191.4</ele><time>2026-04-12T05:50:40.063Z</time></trkpt><trkpt lat="45.0094067" lon="8.0643267"><ele>191.8</ele><time>2026-04-12T05:50:42.062Z</time></trkpt><trkpt lat="45.0095083" lon="8.0643367"><ele>192.20000000000002</ele><time>2026-04-12T05:50:44.062Z</time></trkpt><trkpt lat="45.00961" lon="8.064355"><ele>192.60000000000002</ele><time>2026-04-12T05:50:46.062Z</time></trkpt><trkpt lat="45.0097117" lon="8.0643717"><ele>193.0</ele><time>2026-04-12T05:50:48.063Z</time></trkpt><trkpt lat="45.00981" lon="8.0643967"><ele>193.0</ele><time>2026-04-12T05:50:50.062Z</time></trkpt><trkpt lat="45.00991" lon="8.0644267"><ele>193.0</ele><time>2026-04-12T05:50:52.063Z</time></trkpt><trkpt lat="45.0100067" lon="8.0644533"><ele>193.0</ele><time>2026-04-12T05:50:54.065Z</time></trkpt><trkpt lat="45.0101117" lon="8.0644833"><ele>193.0</ele><time>2026-04-12T05:50:56.063Z</time></trkpt><trkpt lat="45.01022" lon="8.0645183"><ele>193.0</ele><time>2026-04-12T05:50:58.064Z</time></trkpt><trkpt lat="45.0103233" lon="8.0645533"><ele>193.2</ele><time>2026-04-12T05:51:00.065Z</time></trkpt><trkpt lat="45.010425" lon="8.064585"><ele>193.4</ele><time>2026-04-12T05:51:02.062Z</time></trkpt><trkpt lat="45.0105233" lon="8.0646233"><ele>193.6</ele><time>2026-04-12T05:51:04.064Z</time></trkpt><trkpt lat="45.0106217" lon="8.06466"><ele>193.79999999999998</ele><time>2026-04-12T05:51:06.062Z</time></trkpt><trkpt lat="45.0107167" lon="8.0647"><ele>194.0</ele><time>2026-04-12T05:51:08.064Z</time></trkpt><trkpt lat="45.010815" lon="8.0647417"><ele>194.2</ele><time>2026-04-12T05:51:10.063Z</time></trkpt><trkpt lat="45.0109183" lon="8.0647817"><ele>194.39999999999998</ele><time>2026-04-12T05:51:12.063Z</time></trkpt><trkpt lat="45.01102" lon="8.064815"><ele>194.6</ele><time>2026-04-12T05:51:14.062Z</time></trkpt><trkpt lat="45.011125" lon="8.06485"><ele>194.8</ele><time>2026-04-12T05:51:16.063Z</time></trkpt><trkpt lat="45.0112317" lon="8.064885"><ele>195.0</ele><time>2026-04-12T05:51:18.063Z</time></trkpt><trkpt lat="45.0113383" lon="8.06492"><ele>195.0</ele><time>2026-04-12T05:51:20.062Z</time></trkpt><trkpt lat="45.01145" lon="8.0649517"><ele>195.0</ele><time>2026-04-12T05:51:22.062Z</time></trkpt><trkpt lat="45.0115517" lon="8.0649817"><ele>195.0</ele><time>2026-04-12T05:51:24.061Z</time></trkpt><trkpt lat="45.0116533" lon="8.0650167"><ele>195.0</ele><time>2026-04-12T05:51:26.062Z</time></trkpt><trkpt lat="45.0117567" lon="8.0650483"><ele>195.0</ele><time>2026-04-12T05:51:28.063Z</time></trkpt><trkpt lat="45.0118533" lon="8.0650833"><ele>195.0</ele><time>2026-04-12T05:51:30.062Z</time></trkpt><trkpt lat="45.01195" lon="8.0651217"><ele>195.0</ele><time>2026-04-12T05:51:32.062Z</time></trkpt><trkpt lat="45.01205" lon="8.0651517"><ele>195.0</ele><time>2026-04-12T05:51:34.061Z</time></trkpt><trkpt lat="45.012155" lon="8.0652"><ele>195.0</ele><time>2026-04-12T05:51:36.062Z</time></trkpt><trkpt lat="45.0122583" lon="8.06526"><ele>195.0</ele><time>2026-04-12T05:51:38.063Z</time></trkpt><trkpt lat="45.012365" lon="8.0653283"><ele>195.0</ele><time>2026-04-12T05:51:40.062Z</time></trkpt><trkpt lat="45.0124683" lon="8.0653983"><ele>195.0</ele><time>2026-04-12T05:51:42.062Z</time></trkpt><trkpt lat="45.0125717" lon="8.0654783"><ele>195.0</ele><time>2026-04-12T05:51:44.062Z</time></trkpt><trkpt lat="45.0126733" lon="8.0655483"><ele>195.0</ele><time>2026-04-12T05:51:46.062Z</time></trkpt><trkpt lat="45.012775" lon="8.0656217"><ele>195.5</ele><time>2026-04-12T05:51:48.062Z</time></trkpt><trkpt lat="45.012875" lon="8.0657"><ele>196.0</ele><time>2026-04-12T05:51:50.063Z</time></trkpt><trkpt lat="45.0129783" lon="8.0657733"><ele>196.5</ele><time>2026-04-12T05:51:52.061Z</time></trkpt><trkpt lat="45.0130767" lon="8.065845"><ele>197.0</ele><time>2026-04-12T05:51:54.063Z</time></trkpt><trkpt lat="45.0131767" lon="8.0659133"><ele>197.75</ele><time>2026-04-12T05:51:56.063Z</time></trkpt><trkpt lat="45.0132867" lon="8.06598"><ele>198.5</ele><time>2026-04-12T05:51:58.064Z</time></trkpt><trkpt lat="45.0133933" lon="8.06605"><ele>199.25</ele><time>2026-04-12T05:52:00.062Z</time></trkpt><trkpt lat="45.0135017" lon="8.0661117"><ele>200.0</ele><time>2026-04-12T05:52:02.063Z</time></trkpt><trkpt lat="45.0136083" lon="8.0661733"><ele>200.0</ele><time>2026-04-12T05:52:04.062Z</time></trkpt><trkpt lat="45.0137133" lon="8.0662383"><ele>200.0</ele><time>2026-04-12T05:52:06.062Z</time></trkpt><trkpt lat="45.0138217" lon="8.066305"><ele>200.0</ele><time>2026-04-12T05:52:08.063Z</time></trkpt><trkpt lat="45.0139333" lon="8.06637"><ele>200.0</ele><time>2026-04-12T05:52:10.062Z</time></trkpt><trkpt lat="45.014045" lon="8.0664333"><ele>199.71428571428572</ele><time>2026-04-12T05:52:12.064Z</time></trkpt><trkpt lat="45.0141617" lon="8.0664917"><ele>199.42857142857144</ele><time>2026-04-12T05:52:14.065Z</time></trkpt><trkpt lat="45.0142217" lon="8.0665217"><ele>199.14285714285717</ele><time>2026-04-12T05:52:15.065Z</time></trkpt><trkpt lat="45.0142817" lon="8.06655"><ele>198.85714285714286</ele><time>2026-04-12T05:52:16.064Z</time></trkpt><trkpt lat="45.0143433" lon="8.066575"><ele>198.57142857142856</ele><time>2026-04-12T05:52:17.063Z</time></trkpt><trkpt lat="45.0144067" lon="8.0666"><ele>198.2857142857143</ele><time>2026-04-12T05:52:18.064Z</time></trkpt><trkpt lat="45.0144683" lon="8.0666233"><ele>198.0</ele><time>2026-04-12T05:52:19.063Z</time></trkpt><trkpt lat="45.01453" lon="8.0666467"><ele>198.0</ele><time>2026-04-12T05:52:20.065Z</time></trkpt><trkpt lat="45.014645" lon="8.0666883"><ele>198.0</ele><time>2026-04-12T05:52:22.064Z</time></trkpt><trkpt lat="45.0147667" lon="8.06672"><ele>198.0</ele><time>2026-04-12T05:52:24.064Z</time></trkpt><trkpt lat="45.01483" lon="8.066735"><ele>198.0</ele><time>2026-04-12T05:52:25.064Z</time></trkpt><trkpt lat="45.014945" lon="8.0667733"><ele>198.0</ele><time>2026-04-12T05:52:27.066Z</time></trkpt><trkpt lat="45.0150633" lon="8.0668167"><ele>197.75</ele><time>2026-04-12T05:52:29.063Z</time></trkpt><trkpt lat="45.0151833" lon="8.0668567"><ele>197.5</ele><time>2026-04-12T05:52:31.063Z</time></trkpt><trkpt lat="45.0153033" lon="8.0669"><ele>197.25</ele><time>2026-04-12T05:52:33.063Z</time></trkpt><trkpt lat="45.015415" lon="8.06694"><ele>197.0</ele><time>2026-04-12T05:52:35.062Z</time></trkpt><trkpt lat="45.0155183" lon="8.0669783"><ele>197.0</ele><time>2026-04-12T05:52:37.062Z</time></trkpt><trkpt lat="45.0156" lon="8.0670183"><ele>197.0</ele><time>2026-04-12T05:52:39.065Z</time></trkpt><trkpt lat="45.0156117" lon="8.067135"><ele>197.0</ele><time>2026-04-12T05:52:42.065Z</time></trkpt><trkpt lat="45.0155983" lon="8.0672583"><ele>197.0</ele><time>2026-04-12T05:52:44.066Z</time></trkpt><trkpt lat="45.0155883" lon="8.067405"><ele>197.0</ele><time>2026-04-12T05:52:46.064Z</time></trkpt><trkpt lat="45.01558" lon="8.06756"><ele>197.2</ele><time>2026-04-12T05:52:48.063Z</time></trkpt><trkpt lat="45.0155733" lon="8.067715"><ele>197.39999999999998</ele><time>2026-04-12T05:52:50.065Z</time></trkpt><trkpt lat="45.0155667" lon="8.06787"><ele>197.60000000000002</ele><time>2026-04-12T05:52:52.063Z</time></trkpt><trkpt lat="45.01556" lon="8.0680233"><ele>197.8</ele><time>2026-04-12T05:52:54.064Z</time></trkpt><trkpt lat="45.015555" lon="8.0681783"><ele>198.0</ele><time>2026-04-12T05:52:56.063Z</time></trkpt><trkpt lat="45.0155533" lon="8.0683317"><ele>198.2</ele><time>2026-04-12T05:52:58.062Z</time></trkpt><trkpt lat="45.0155467" lon="8.06848"><ele>198.4</ele><time>2026-04-12T05:53:00.063Z</time></trkpt><trkpt lat="45.01554" lon="8.068635"><ele>198.6</ele><time>2026-04-12T05:53:02.063Z</time></trkpt><trkpt lat="45.015535" lon="8.0687933"><ele>198.79999999999998</ele><time>2026-04-12T05:53:04.065Z</time></trkpt><trkpt lat="45.0155317" lon="8.0689517"><ele>199.0</ele><time>2026-04-12T05:53:06.063Z</time></trkpt><trkpt lat="45.0155317" lon="8.06911"><ele>199.0</ele><time>2026-04-12T05:53:08.064Z</time></trkpt><trkpt lat="45.0155333" lon="8.0692717"><ele>199.0</ele><time>2026-04-12T05:53:10.064Z</time></trkpt><trkpt lat="45.0155433" lon="8.0694333"><ele>199.0</ele><time>2026-04-12T05:53:12.063Z</time></trkpt><trkpt lat="45.0155533" lon="8.0695933"><ele>199.0</ele><time>2026-04-12T05:53:14.063Z</time></trkpt><trkpt lat="45.0155633" lon="8.069755"><ele>199.0</ele><time>2026-04-12T05:53:16.065Z</time></trkpt><trkpt lat="45.0155733" lon="8.069915"><ele>199.0</ele><time>2026-04-12T05:53:18.061Z</time></trkpt><trkpt lat="45.0155883" lon="8.0700767"><ele>199.0</ele><time>2026-04-12T05:53:20.064Z</time></trkpt><trkpt lat="45.0156067" lon="8.0702433"><ele>199.0</ele><time>2026-04-12T05:53:22.064Z</time></trkpt><trkpt lat="45.0156317" lon="8.0704083"><ele>199.0</ele><time>2026-04-12T05:53:24.062Z</time></trkpt><trkpt lat="45.015665" lon="8.07057"><ele>199.0</ele><time>2026-04-12T05:53:26.064Z</time></trkpt><trkpt lat="45.0157017" lon="8.0707283"><ele>199.0</ele><time>2026-04-12T05:53:28.061Z</time></trkpt><trkpt lat="45.0157383" lon="8.0708867"><ele>199.0</ele><time>2026-04-12T05:53:30.062Z</time></trkpt><trkpt lat="45.01577" lon="8.0710467"><ele>199.5</ele><time>2026-04-12T05:53:32.063Z</time></trkpt><trkpt lat="45.0157867" lon="8.0712117"><ele>200.0</ele><time>2026-04-12T05:53:34.062Z</time></trkpt><trkpt lat="45.0157867" lon="8.0713783"><ele>200.5</ele><time>2026-04-12T05:53:36.063Z</time></trkpt><trkpt lat="45.0157783" lon="8.0715333"><ele>201.0</ele><time>2026-04-12T05:53:38.062Z</time></trkpt><trkpt lat="45.0157567" lon="8.0716867"><ele>201.0</ele><time>2026-04-12T05:53:40.065Z</time></trkpt><trkpt lat="45.01572" lon="8.0718317"><ele>201.0</ele><time>2026-04-12T05:53:42.063Z</time></trkpt><trkpt lat="45.015685" lon="8.0719783"><ele>201.0</ele><time>2026-04-12T05:53:44.063Z</time></trkpt><trkpt lat="45.0156583" lon="8.0721283"><ele>201.0</ele><time>2026-04-12T05:53:46.063Z</time></trkpt><trkpt lat="45.015625" lon="8.0722783"><ele>201.0</ele><time>2026-04-12T05:53:48.064Z</time></trkpt><trkpt lat="45.015585" lon="8.072425"><ele>201.25</ele><time>2026-04-12T05:53:50.065Z</time></trkpt><trkpt lat="45.0155367" lon="8.072575"><ele>201.5</ele><time>2026-04-12T05:53:52.064Z</time></trkpt><trkpt lat="45.0154767" lon="8.072715"><ele>201.75</ele><time>2026-04-12T05:53:54.065Z</time></trkpt><trkpt lat="45.0154117" lon="8.07285"><ele>202.0</ele><time>2026-04-12T05:53:56.063Z</time></trkpt><trkpt lat="45.0153433" lon="8.0729833"><ele>202.0</ele><time>2026-04-12T05:53:58.064Z</time></trkpt><trkpt lat="45.0152733" lon="8.07311"><ele>202.0</ele><time>2026-04-12T05:54:00.064Z</time></trkpt><trkpt lat="45.015215" lon="8.0732283"><ele>202.0</ele><time>2026-04-12T05:54:02.063Z</time></trkpt><trkpt lat="45.01515" lon="8.073345"><ele>202.0</ele><time>2026-04-12T05:54:04.063Z</time></trkpt><trkpt lat="45.0150867" lon="8.0734617"><ele>202.0</ele><time>2026-04-12T05:54:06.063Z</time></trkpt><trkpt lat="45.0150333" lon="8.073585"><ele>202.39999999999998</ele><time>2026-04-12T05:54:08.063Z</time></trkpt><trkpt lat="45.014985" lon="8.073715"><ele>202.79999999999998</ele><time>2026-04-12T05:54:10.062Z</time></trkpt><trkpt lat="45.0149333" lon="8.0738433"><ele>203.2</ele><time>2026-04-12T05:54:12.063Z</time></trkpt><trkpt lat="45.014875" lon="8.073975"><ele>203.6</ele><time>2026-04-12T05:54:14.063Z</time></trkpt><trkpt lat="45.0148217" lon="8.0741067"><ele>204.0</ele><time>2026-04-12T05:54:16.063Z</time></trkpt><trkpt lat="45.0147683" lon="8.0742383"><ele>204.2</ele><time>2026-04-12T05:54:18.065Z</time></trkpt><trkpt lat="45.014715" lon="8.074365"><ele>204.39999999999998</ele><time>2026-04-12T05:54:20.065Z</time></trkpt><trkpt lat="45.0146633" lon="8.0744967"><ele>204.6</ele><time>2026-04-12T05:54:22.063Z</time></trkpt><trkpt lat="45.0146167" lon="8.0746283"><ele>204.8</ele><time>2026-04-12T05:54:24.064Z</time></trkpt><trkpt lat="45.01457" lon="8.0747633"><ele>205.0</ele><time>2026-04-12T05:54:26.062Z</time></trkpt><trkpt lat="45.0145217" lon="8.0748967"><ele>205.2</ele><time>2026-04-12T05:54:28.062Z</time></trkpt><trkpt lat="45.0144767" lon="8.075035"><ele>205.4</ele><time>2026-04-12T05:54:30.065Z</time></trkpt><trkpt lat="45.0144283" lon="8.0751733"><ele>205.60000000000002</ele><time>2026-04-12T05:54:32.062Z</time></trkpt><trkpt lat="45.014375" lon="8.075305"><ele>205.8</ele><time>2026-04-12T05:54:34.066Z</time></trkpt><trkpt lat="45.014325" lon="8.07544"><ele>206.0</ele><time>2026-04-12T05:54:36.065Z</time></trkpt><trkpt lat="45.01428" lon="8.07557"><ele>206.0</ele><time>2026-04-12T05:54:38.064Z</time></trkpt><trkpt lat="45.014235" lon="8.0757067"><ele>206.0</ele><time>2026-04-12T05:54:40.058Z</time></trkpt><trkpt lat="45.0141983" lon="8.0758433"><ele>206.0</ele><time>2026-04-12T05:54:42.066Z</time></trkpt><trkpt lat="45.0141567" lon="8.075985"><ele>206.0</ele><time>2026-04-12T05:54:44.066Z</time></trkpt><trkpt lat="45.01412" lon="8.0761233"><ele>206.0</ele><time>2026-04-12T05:54:46.062Z</time></trkpt><trkpt lat="45.0140833" lon="8.0762667"><ele>206.0</ele><time>2026-04-12T05:54:48.064Z</time></trkpt><trkpt lat="45.01406" lon="8.076405"><ele>206.0</ele><time>2026-04-12T05:54:50.063Z</time></trkpt><trkpt lat="45.01404" lon="8.076545"><ele>206.0</ele><time>2026-04-12T05:54:52.064Z</time></trkpt><trkpt lat="45.01403" lon="8.0766767"><ele>206.0</ele><time>2026-04-12T05:54:54.063Z</time></trkpt><trkpt lat="45.0140267" lon="8.076805"><ele>206.0</ele><time>2026-04-12T05:54:56.065Z</time></trkpt><trkpt lat="45.0140283" lon="8.07693"><ele>206.33333333333334</ele><time>2026-04-12T05:54:58.063Z</time></trkpt><trkpt lat="45.0140317" lon="8.077055"><ele>206.66666666666669</ele><time>2026-04-12T05:55:00.062Z</time></trkpt><trkpt lat="45.01404" lon="8.0771783"><ele>207.0</ele><time>2026-04-12T05:55:02.065Z</time></trkpt><trkpt lat="45.01404" lon="8.0773017"><ele>207.33333333333331</ele><time>2026-04-12T05:55:04.063Z</time></trkpt><trkpt lat="45.0140267" lon="8.0774183"><ele>207.66666666666666</ele><time>2026-04-12T05:55:06.064Z</time></trkpt><trkpt lat="45.0139933" lon="8.077515"><ele>208.0</ele><time>2026-04-12T05:55:08.065Z</time></trkpt><trkpt lat="45.0139417" lon="8.0776"><ele>207.99999999999997</ele><time>2026-04-12T05:55:10.067Z</time></trkpt><trkpt lat="45.0138833" lon="8.0776783"><ele>208.0</ele><time>2026-04-12T05:55:12.065Z</time></trkpt><trkpt lat="45.01382" lon="8.077755"><ele>208.0</ele><time>2026-04-12T05:55:14.064Z</time></trkpt><trkpt lat="45.0137667" lon="8.077825"><ele>208.0</ele><time>2026-04-12T05:55:16.063Z</time></trkpt><trkpt lat="45.0137017" lon="8.0778967"><ele>207.99999999999997</ele><time>2026-04-12T05:55:18.02Z</time></trkpt><trkpt lat="45.0136117" lon="8.0779983"><ele>208.0</ele><time>2026-04-12T05:55:22.562Z</time></trkpt><trkpt lat="45.0135667" lon="8.0780617"><ele>208.0</ele><time>2026-04-12T05:55:24.064Z</time></trkpt><trkpt lat="45.013485" lon="8.0781467"><ele>208.0</ele><time>2026-04-12T05:55:26.064Z</time></trkpt><trkpt lat="45.013415" lon="8.0782333"><ele>208.0</ele><time>2026-04-12T05:55:28.064Z</time></trkpt><trkpt lat="45.0133483" lon="8.078315"><ele>208.0</ele><time>2026-04-12T05:55:30.063Z</time></trkpt><trkpt lat="45.0132733" lon="8.0784017"><ele>208.0</ele><time>2026-04-12T05:55:32.063Z</time></trkpt><trkpt lat="45.0132017" lon="8.0784917"><ele>208.8</ele><time>2026-04-12T05:55:34.065Z</time></trkpt><trkpt lat="45.0131333" lon="8.0785767"><ele>209.60000000000002</ele><time>2026-04-12T05:55:36.063Z</time></trkpt><trkpt lat="45.0130683" lon="8.07866"><ele>210.39999999999998</ele><time>2026-04-12T05:55:38.061Z</time></trkpt><trkpt lat="45.0129967" lon="8.0787467"><ele>211.2</ele><time>2026-04-12T05:55:40.062Z</time></trkpt><trkpt lat="45.0129233" lon="8.0788317"><ele>212.0</ele><time>2026-04-12T05:55:42.062Z</time></trkpt><trkpt lat="45.01285" lon="8.0789167"><ele>212.00000000000003</ele><time>2026-04-12T05:55:44.065Z</time></trkpt><trkpt lat="45.012775" lon="8.0789967"><ele>212.0</ele><time>2026-04-12T05:55:46.063Z</time></trkpt><trkpt lat="45.012705" lon="8.07907"><ele>212.0</ele><time>2026-04-12T05:55:48.062Z</time></trkpt><trkpt lat="45.012625" lon="8.0791333"><ele>212.0</ele><time>2026-04-12T05:55:50.062Z</time></trkpt><trkpt lat="45.01255" lon="8.0791883"><ele>212.00000000000003</ele><time>2026-04-12T05:55:52.063Z</time></trkpt><trkpt lat="45.0124783" lon="8.0792433"><ele>212.0</ele><time>2026-04-12T05:55:54.064Z</time></trkpt><trkpt lat="45.0123967" lon="8.0792967"><ele>212.66666666666669</ele><time>2026-04-12T05:55:56.064Z</time></trkpt><trkpt lat="45.01232" lon="8.07935"><ele>213.33333333333334</ele><time>2026-04-12T05:55:58.062Z</time></trkpt><trkpt lat="45.0122433" lon="8.0794033"><ele>214.0</ele><time>2026-04-12T05:56:00.064Z</time></trkpt><trkpt lat="45.0121733" lon="8.0794667"><ele>214.66666666666669</ele><time>2026-04-12T05:56:02.064Z</time></trkpt><trkpt lat="45.0121017" lon="8.0795417"><ele>215.33333333333334</ele><time>2026-04-12T05:56:04.064Z</time></trkpt><trkpt lat="45.0120367" lon="8.079615"><ele>216.0</ele><time>2026-04-12T05:56:06.062Z</time></trkpt><trkpt lat="45.011975" lon="8.0796917"><ele>216.0</ele><time>2026-04-12T05:56:08.064Z</time></trkpt><trkpt lat="45.0119233" lon="8.07976"><ele>216.0</ele><time>2026-04-12T05:56:10.063Z</time></trkpt><trkpt lat="45.0118733" lon="8.0798233"><ele>216.0</ele><time>2026-04-12T05:56:12.064Z</time></trkpt><trkpt lat="45.0117967" lon="8.0799"><ele>216.0</ele><time>2026-04-12T05:56:15.065Z</time></trkpt><trkpt lat="45.0117367" lon="8.0799617"><ele>216.0</ele><time>2026-04-12T05:56:17.063Z</time></trkpt><trkpt lat="45.0116733" lon="8.080015"><ele>216.0</ele><time>2026-04-12T05:56:19.064Z</time></trkpt><trkpt lat="45.011615" lon="8.0800783"><ele>216.71428571428572</ele><time>2026-04-12T05:56:21.067Z</time></trkpt><trkpt lat="45.01156" lon="8.0801433"><ele>217.42857142857142</ele><time>2026-04-12T05:56:23.062Z</time></trkpt><trkpt lat="45.0115067" lon="8.0801933"><ele>218.14285714285717</ele><time>2026-04-12T05:56:25.065Z</time></trkpt><trkpt lat="45.0114533" lon="8.0802433"><ele>218.85714285714286</ele><time>2026-04-12T05:56:27.064Z</time></trkpt><trkpt lat="45.0113717" lon="8.0803133"><ele>219.57142857142858</ele><time>2026-04-12T05:56:30.065Z</time></trkpt><trkpt lat="45.0113133" lon="8.0803583"><ele>220.2857142857143</ele><time>2026-04-12T05:56:32.062Z</time></trkpt><trkpt lat="45.0112583" lon="8.0804033"><ele>221.0</ele><time>2026-04-12T05:56:34.062Z</time></trkpt><trkpt lat="45.0111767" lon="8.0804683"><ele>221.00000000000003</ele><time>2026-04-12T05:56:37.064Z</time></trkpt><trkpt lat="45.0111033" lon="8.0805433"><ele>221.0</ele><time>2026-04-12T05:56:40.063Z</time></trkpt><trkpt lat="45.011035" lon="8.0806267"><ele>221.0</ele><time>2026-04-12T05:56:43.069Z</time></trkpt><trkpt lat="45.0109933" lon="8.080695"><ele>221.0</ele><time>2026-04-12T05:56:45.064Z</time></trkpt><trkpt lat="45.01094" lon="8.0808017"><ele>221.00000000000003</ele><time>2026-04-12T05:56:48.064Z</time></trkpt><trkpt lat="45.0109067" lon="8.0809083"><ele>221.0</ele><time>2026-04-12T05:56:51.065Z</time></trkpt><trkpt lat="45.01087" lon="8.081015"><ele>222.00000000000003</ele><time>2026-04-12T05:56:54.064Z</time></trkpt><trkpt lat="45.0108367" lon="8.08111"><ele>223.0</ele><time>2026-04-12T05:56:57.064Z</time></trkpt><trkpt lat="45.0108" lon="8.0812067"><ele>224.0</ele><time>2026-04-12T05:57:00.064Z</time></trkpt><trkpt lat="45.0107717" lon="8.0813183"><ele>225.0</ele><time>2026-04-12T05:57:03.063Z</time></trkpt><trkpt lat="45.0107367" lon="8.0814267"><ele>226.00000000000003</ele><time>2026-04-12T05:57:06.063Z</time></trkpt><trkpt lat="45.0106933" lon="8.0815183"><ele>227.0</ele><time>2026-04-12T05:57:09.063Z</time></trkpt><trkpt lat="45.0106633" lon="8.0816183"><ele>228.2857142857143</ele><time>2026-04-12T05:57:12.062Z</time></trkpt><trkpt lat="45.01062" lon="8.0817133"><ele>229.5714285714286</ele><time>2026-04-12T05:57:15.064Z</time></trkpt><trkpt lat="45.0105833" lon="8.0818017"><ele>230.85714285714286</ele><time>2026-04-12T05:57:18.064Z</time></trkpt><trkpt lat="45.0105433" lon="8.0818783"><ele>232.14285714285717</ele><time>2026-04-12T05:57:21.058Z</time></trkpt><trkpt lat="45.0104983" lon="8.0819517"><ele>233.42857142857144</ele><time>2026-04-12T05:57:24.063Z</time></trkpt><trkpt lat="45.0104517" lon="8.082025"><ele>234.71428571428572</ele><time>2026-04-12T05:57:27.058Z</time></trkpt><trkpt lat="45.010405" lon="8.0820983"><ele>236.0</ele><time>2026-04-12T05:57:30.063Z</time></trkpt><trkpt lat="45.0103567" lon="8.0821633"><ele>236.0</ele><time>2026-04-12T05:57:33.062Z</time></trkpt><trkpt lat="45.0103083" lon="8.0822217"><ele>236.0</ele><time>2026-04-12T05:57:36.062Z</time></trkpt><trkpt lat="45.0102533" lon="8.0822783"><ele>236.0</ele><time>2026-04-12T05:57:39.063Z</time></trkpt><trkpt lat="45.0102" lon="8.08234"><ele>236.0</ele><time>2026-04-12T05:57:42.064Z</time></trkpt><trkpt lat="45.0101417" lon="8.082425"><ele>236.0</ele><time>2026-04-12T05:57:46.061Z</time></trkpt><trkpt lat="45.0100867" lon="8.0824983"><ele>236.0</ele><time>2026-04-12T05:57:49.061Z</time></trkpt><trkpt lat="45.0100317" lon="8.0825767"><ele>236.0</ele><time>2026-04-12T05:57:52.063Z</time></trkpt><trkpt lat="45.0099783" lon="8.0826533"><ele>236.16666666666669</ele><time>2026-04-12T05:57:55.066Z</time></trkpt><trkpt lat="45.0099217" lon="8.08274"><ele>236.33333333333334</ele><time>2026-04-12T05:57:58.064Z</time></trkpt><trkpt lat="45.00987" lon="8.082835"><ele>236.5</ele><time>2026-04-12T05:58:01.062Z</time></trkpt><trkpt lat="45.0098217" lon="8.0829217"><ele>236.66666666666669</ele><time>2026-04-12T05:58:04.061Z</time></trkpt><trkpt lat="45.0097683" lon="8.0830033"><ele>236.83333333333334</ele><time>2026-04-12T05:58:07.062Z</time></trkpt><trkpt lat="45.00972" lon="8.083095"><ele>237.0</ele><time>2026-04-12T05:58:10.063Z</time></trkpt><trkpt lat="45.009665" lon="8.0831883"><ele>238.0</ele><time>2026-04-12T05:58:13.062Z</time></trkpt><trkpt lat="45.0096283" lon="8.0832833"><ele>239.0</ele><time>2026-04-12T05:58:16.063Z</time></trkpt><trkpt lat="45.0096117" lon="8.0833833"><ele>240.0</ele><time>2026-04-12T05:58:19.062Z</time></trkpt><trkpt lat="45.009605" lon="8.0834933"><ele>241.0</ele><time>2026-04-12T05:58:22.062Z</time></trkpt><trkpt lat="45.0096217" lon="8.0836033"><ele>242.0</ele><time>2026-04-12T05:58:25.063Z</time></trkpt><trkpt lat="45.009625" lon="8.0837133"><ele>243.0</ele><time>2026-04-12T05:58:28.061Z</time></trkpt><trkpt lat="45.0096183" lon="8.0838133"><ele>243.0</ele><time>2026-04-12T05:58:31.061Z</time></trkpt><trkpt lat="45.0096083" lon="8.083925"><ele>243.0</ele><time>2026-04-12T05:58:34.06Z</time></trkpt><trkpt lat="45.0095883" lon="8.084035"><ele>243.0</ele><time>2026-04-12T05:58:37.061Z</time></trkpt><trkpt lat="45.0095683" lon="8.0841367"><ele>243.0</ele><time>2026-04-12T05:58:40.065Z</time></trkpt><trkpt lat="45.0095417" lon="8.08422"><ele>243.0</ele><time>2026-04-12T05:58:43.065Z</time></trkpt><trkpt lat="45.0095233" lon="8.0843133"><ele>243.0</ele><time>2026-04-12T05:58:46.064Z</time></trkpt><trkpt lat="45.0095" lon="8.08442"><ele>243.0</ele><time>2026-04-12T05:58:50.062Z</time></trkpt><trkpt lat="45.009475" lon="8.0845183"><ele>244.42857142857142</ele><time>2026-04-12T05:58:54.064Z</time></trkpt><trkpt lat="45.0094533" lon="8.0846183"><ele>245.8571428571429</ele><time>2026-04-12T05:58:58.063Z</time></trkpt><trkpt lat="45.0094267" lon="8.08472"><ele>247.2857142857143</ele><time>2026-04-12T05:59:02.064Z</time></trkpt><trkpt lat="45.00939" lon="8.0847933"><ele>248.71428571428572</ele><time>2026-04-12T05:59:05.064Z</time></trkpt><trkpt lat="45.0093367" lon="8.0848833"><ele>250.14285714285717</ele><time>2026-04-12T05:59:09.064Z</time></trkpt><trkpt lat="45.0093067" lon="8.084975"><ele>251.5714285714286</ele><time>2026-04-12T05:59:12.063Z</time></trkpt><trkpt lat="45.0093033" lon="8.0850717"><ele>253.00000000000003</ele><time>2026-04-12T05:59:15.064Z</time></trkpt><trkpt lat="45.00932" lon="8.08516"><ele>255.99999999999997</ele><time>2026-04-12T05:59:18.064Z</time></trkpt><trkpt lat="45.0093533" lon="8.0852567"><ele>259.0</ele><time>2026-04-12T05:59:22.063Z</time></trkpt><trkpt lat="45.009405" lon="8.0853267"><ele>262.0</ele><time>2026-04-12T05:59:25.063Z</time></trkpt><trkpt lat="45.0094417" lon="8.085435"><ele>265.0</ele><time>2026-04-12T05:59:28.063Z</time></trkpt><trkpt lat="45.0094517" lon="8.0855267"><ele>268.0</ele><time>2026-04-12T06:00:01.057Z</time></trkpt><trkpt lat="45.0095067" lon="8.085635"><ele>271.0</ele><time>2026-04-12T06:00:04.064Z</time></trkpt><trkpt lat="45.0095333" lon="8.0857217"><ele>272.8333333333333</ele><time>2026-04-12T06:00:06.064Z</time></trkpt><trkpt lat="45.0095617" lon="8.085815"><ele>274.66666666666663</ele><time>2026-04-12T06:00:08.067Z</time></trkpt><trkpt lat="45.00961" lon="8.0859117"><ele>276.5</ele><time>2026-04-12T06:00:10.064Z</time></trkpt><trkpt lat="45.0096583" lon="8.08601"><ele>278.3333333333333</ele><time>2026-04-12T06:00:12.064Z</time></trkpt><trkpt lat="45.0096917" lon="8.08609"><ele>280.1666666666667</ele><time>2026-04-12T06:00:14.063Z</time></trkpt><trkpt lat="45.0097367" lon="8.086155"><ele>282.0</ele><time>2026-04-12T06:00:22.065Z</time></trkpt><trkpt lat="45.0098067" lon="8.08622"><ele>282.0</ele><time>2026-04-12T06:00:30.063Z</time></trkpt><trkpt lat="45.0099117" lon="8.08628"><ele>282.0</ele><time>2026-04-12T06:00:32.063Z</time></trkpt><trkpt lat="45.0099783" lon="8.086295"><ele>282.0</ele><time>2026-04-12T06:00:33.064Z</time></trkpt><trkpt lat="45.01005" lon="8.0863"><ele>282.0</ele><time>2026-04-12T06:00:34.064Z</time></trkpt><trkpt lat="45.0101233" lon="8.0863017"><ele>282.0</ele><time>2026-04-12T06:00:35.062Z</time></trkpt><trkpt lat="45.0101917" lon="8.0863"><ele>282.0</ele><time>2026-04-12T06:00:36.063Z</time></trkpt><trkpt lat="45.0102567" lon="8.0863"><ele>280.5</ele><time>2026-04-12T06:00:37.063Z</time></trkpt><trkpt lat="45.0103233" lon="8.0863033"><ele>279.0</ele><time>2026-04-12T06:00:38.066Z</time></trkpt><trkpt lat="45.0103883" lon="8.086315"><ele>277.5</ele><time>2026-04-12T06:00:39.065Z</time></trkpt><trkpt lat="45.010495" lon="8.0863633"><ele>276.0</ele><time>2026-04-12T06:00:41.062Z</time></trkpt><trkpt lat="45.0105683" lon="8.0864233"><ele>274.5</ele><time>2026-04-12T06:00:43.062Z</time></trkpt><trkpt lat="45.0106383" lon="8.086475"><ele>273.0</ele><time>2026-04-12T06:00:45.064Z</time></trkpt><trkpt lat="45.01072" lon="8.08649"><ele>273.0</ele><time>2026-04-12T06:00:47.066Z</time></trkpt><trkpt lat="45.0108117" lon="8.08651"><ele>273.0</ele><time>2026-04-12T06:00:49.065Z</time></trkpt><trkpt lat="45.0108967" lon="8.08657"><ele>273.0</ele><time>2026-04-12T06:00:51.065Z</time></trkpt><trkpt lat="45.0109617" lon="8.086685"><ele>273.0</ele><time>2026-04-12T06:00:53.065Z</time></trkpt><trkpt lat="45.0110017" lon="8.0868317"><ele>273.0</ele><time>2026-04-12T06:00:55.064Z</time></trkpt><trkpt lat="45.01103" lon="8.0869317"><ele>269.8333333333333</ele><time>2026-04-12T06:00:57.066Z</time></trkpt><trkpt lat="45.0110017" lon="8.0870183"><ele>266.6666666666667</ele><time>2026-04-12T06:01:00.063Z</time></trkpt><trkpt lat="45.0109117" lon="8.0869967"><ele>263.5</ele><time>2026-04-12T06:01:03.064Z</time></trkpt><trkpt lat="45.0108267" lon="8.0869783"><ele>260.33333333333337</ele><time>2026-04-12T06:01:05.063Z</time></trkpt><trkpt lat="45.01074" lon="8.086955"><ele>257.1666666666667</ele><time>2026-04-12T06:01:07.063Z</time></trkpt><trkpt lat="45.0106483" lon="8.0869117"><ele>254.0</ele><time>2026-04-12T06:01:09.063Z</time></trkpt><trkpt lat="45.0105617" lon="8.086865"><ele>254.0</ele><time>2026-04-12T06:01:11.061Z</time></trkpt><trkpt lat="45.0104817" lon="8.0868167"><ele>253.99999999999997</ele><time>2026-04-12T06:01:13.064Z</time></trkpt><trkpt lat="45.0104017" lon="8.0868067"><ele>253.99999999999997</ele><time>2026-04-12T06:01:16.563Z</time></trkpt><trkpt lat="45.0103267" lon="8.0867533"><ele>254.0</ele><time>2026-04-12T06:01:18.065Z</time></trkpt><trkpt lat="45.01019" lon="8.08669"><ele>254.0</ele><time>2026-04-12T06:01:20.061Z</time></trkpt><trkpt lat="45.0101083" lon="8.08666"><ele>254.0</ele><time>2026-04-12T06:01:22.062Z</time></trkpt><trkpt lat="45.0100017" lon="8.08663"><ele>253.99999999999997</ele><time>2026-04-12T06:01:25.564Z</time></trkpt><trkpt lat="45.0098883" lon="8.08663"><ele>253.99999999999997</ele><time>2026-04-12T06:01:28.064Z</time></trkpt><trkpt lat="45.0098033" lon="8.0866367"><ele>254.0</ele><time>2026-04-12T06:01:30.063Z</time></trkpt><trkpt lat="45.0097083" lon="8.0866717"><ele>254.0</ele><time>2026-04-12T06:01:32.064Z</time></trkpt><trkpt lat="45.0096233" lon="8.0867017"><ele>256.33333333333337</ele><time>2026-04-12T06:01:34.064Z</time></trkpt><trkpt lat="45.009545" lon="8.0867333"><ele>258.6666666666667</ele><time>2026-04-12T06:01:36.064Z</time></trkpt><trkpt lat="45.00947" lon="8.0867767"><ele>261.0</ele><time>2026-04-12T06:01:38.063Z</time></trkpt><trkpt lat="45.009395" lon="8.0868217"><ele>263.3333333333333</ele><time>2026-04-12T06:01:40.064Z</time></trkpt><trkpt lat="45.0093233" lon="8.08688"><ele>265.66666666666663</ele><time>2026-04-12T06:01:42.063Z</time></trkpt><trkpt lat="45.0092483" lon="8.086955"><ele>268.0</ele><time>2026-04-12T06:01:44.063Z</time></trkpt><trkpt lat="45.00916" lon="8.087035"><ele>273.5</ele><time>2026-04-12T06:01:46.063Z</time></trkpt><trkpt lat="45.0090633" lon="8.0871333"><ele>279.0</ele><time>2026-04-12T06:01:48.063Z</time></trkpt><trkpt lat="45.00901" lon="8.0871867"><ele>284.5</ele><time>2026-04-12T06:01:49.065Z</time></trkpt><trkpt lat="45.008955" lon="8.08724"><ele>290.0</ele><time>2026-04-12T06:01:50.064Z</time></trkpt><trkpt lat="45.0088967" lon="8.08729"><ele>295.5</ele><time>2026-04-12T06:01:51.066Z</time></trkpt><trkpt lat="45.0088417" lon="8.0873433"><ele>301.0</ele><time>2026-04-12T06:01:52.064Z</time></trkpt><trkpt lat="45.0087867" lon="8.0873967"><ele>297.57142857142856</ele><time>2026-04-12T06:01:53.063Z</time></trkpt><trkpt lat="45.008735" lon="8.0874567"><ele>294.1428571428571</ele><time>2026-04-12T06:01:54.063Z</time></trkpt><trkpt lat="45.00868" lon="8.0875217"><ele>290.7142857142857</ele><time>2026-04-12T06:01:55.064Z</time></trkpt><trkpt lat="45.0086267" lon="8.0875883"><ele>287.2857142857143</ele><time>2026-04-12T06:01:56.066Z</time></trkpt><trkpt lat="45.0085733" lon="8.087655"><ele>283.85714285714283</ele><time>2026-04-12T06:01:57.065Z</time></trkpt><trkpt lat="45.0085233" lon="8.0877183"><ele>280.42857142857144</ele><time>2026-04-12T06:01:58.064Z</time></trkpt><trkpt lat="45.00847" lon="8.0877767"><ele>277.0</ele><time>2026-04-12T06:01:59.061Z</time></trkpt><trkpt lat="45.0083683" lon="8.0878767"><ele>278.6</ele><time>2026-04-12T06:02:01.064Z</time></trkpt><trkpt lat="45.0082667" lon="8.0879517"><ele>280.2</ele><time>2026-04-12T06:02:03.063Z</time></trkpt><trkpt lat="45.0081683" lon="8.08801"><ele>281.8</ele><time>2026-04-12T06:02:05.062Z</time></trkpt><trkpt lat="45.0080733" lon="8.0880483"><ele>283.4</ele><time>2026-04-12T06:02:07.066Z</time></trkpt><trkpt lat="45.0079783" lon="8.0880783"><ele>285.0</ele><time>2026-04-12T06:02:09.064Z</time></trkpt><trkpt lat="45.0078933" lon="8.0880917"><ele>285.0</ele><time>2026-04-12T06:02:11.06Z</time></trkpt><trkpt lat="45.0078083" lon="8.088105"><ele>285.0</ele><time>2026-04-12T06:02:13.062Z</time></trkpt><trkpt lat="45.0077167" lon="8.088105"><ele>285.0</ele><time>2026-04-12T06:02:15.066Z</time></trkpt><trkpt lat="45.0076317" lon="8.088095"><ele>285.0</ele><time>2026-04-12T06:02:17.062Z</time></trkpt><trkpt lat="45.00755" lon="8.0880733"><ele>285.0</ele><time>2026-04-12T06:02:19.064Z</time></trkpt><trkpt lat="45.00746" lon="8.0880733"><ele>285.0</ele><time>2026-04-12T06:02:21.065Z</time></trkpt><trkpt lat="45.00737" lon="8.0880917"><ele>283.2</ele><time>2026-04-12T06:02:23.063Z</time></trkpt><trkpt lat="45.0072767" lon="8.08812"><ele>281.4</ele><time>2026-04-12T06:02:25.063Z</time></trkpt><trkpt lat="45.0071883" lon="8.0881583"><ele>279.6</ele><time>2026-04-12T06:02:27.066Z</time></trkpt><trkpt lat="45.00709" lon="8.0882"><ele>277.8</ele><time>2026-04-12T06:02:29.062Z</time></trkpt><trkpt lat="45.0069917" lon="8.08825"><ele>276.0</ele><time>2026-04-12T06:02:31.063Z</time></trkpt><trkpt lat="45.0068917" lon="8.088315"><ele>276.2</ele><time>2026-04-12T06:02:33.065Z</time></trkpt><trkpt lat="45.00679" lon="8.088385"><ele>276.40000000000003</ele><time>2026-04-12T06:02:35.062Z</time></trkpt><trkpt lat="45.00669" lon="8.0884533"><ele>276.6</ele><time>2026-04-12T06:02:37.062Z</time></trkpt><trkpt lat="45.006595" lon="8.088525"><ele>276.8</ele><time>2026-04-12T06:02:39.062Z</time></trkpt><trkpt lat="45.0065017" lon="8.0885917"><ele>277.0</ele><time>2026-04-12T06:02:41.062Z</time></trkpt><trkpt lat="45.0064033" lon="8.0886567"><ele>277.0</ele><time>2026-04-12T06:02:43.062Z</time></trkpt><trkpt lat="45.0063083" lon="8.08874"><ele>277.0</ele><time>2026-04-12T06:02:45.065Z</time></trkpt><trkpt lat="45.0062167" lon="8.088805"><ele>277.0</ele><time>2026-04-12T06:02:47.063Z</time></trkpt><trkpt lat="45.00613" lon="8.0888"><ele>277.0</ele><time>2026-04-12T06:02:49.063Z</time></trkpt><trkpt lat="45.0060567" lon="8.0887467"><ele>277.0</ele><time>2026-04-12T06:02:51.062Z</time></trkpt><trkpt lat="45.0059983" lon="8.0886817"><ele>277.0</ele><time>2026-04-12T06:02:53.064Z</time></trkpt><trkpt lat="45.0059283" lon="8.0886017"><ele>277.0</ele><time>2026-04-12T06:02:56.063Z</time></trkpt><trkpt lat="45.0058767" lon="8.08855"><ele>277.0</ele><time>2026-04-12T06:02:58.064Z</time></trkpt><trkpt lat="45.005825" lon="8.0884917"><ele>277.0</ele><time>2026-04-12T06:03:00.065Z</time></trkpt><trkpt lat="45.0057633" lon="8.0884283"><ele>277.0</ele><time>2026-04-12T06:03:02.063Z</time></trkpt><trkpt lat="45.0056933" lon="8.0883667"><ele>277.0</ele><time>2026-04-12T06:03:04.064Z</time></trkpt><trkpt lat="45.0056267" lon="8.0882867"><ele>276.0</ele><time>2026-04-12T06:03:06.063Z</time></trkpt><trkpt lat="45.0055433" lon="8.0882167"><ele>275.0</ele><time>2026-04-12T06:03:08.064Z</time></trkpt><trkpt lat="45.0054583" lon="8.0881617"><ele>274.0</ele><time>2026-04-12T06:03:10.064Z</time></trkpt><trkpt lat="45.0053683" lon="8.0881217"><ele>273.0</ele><time>2026-04-12T06:03:12.063Z</time></trkpt><trkpt lat="45.005285" lon="8.0880917"><ele>272.0</ele><time>2026-04-12T06:03:14.062Z</time></trkpt><trkpt lat="45.0052033" lon="8.088055"><ele>272.0</ele><time>2026-04-12T06:03:16.065Z</time></trkpt><trkpt lat="45.005135" lon="8.0880233"><ele>272.0</ele><time>2026-04-12T06:03:18.062Z</time></trkpt><trkpt lat="45.0050733" lon="8.08797"><ele>272.0</ele><time>2026-04-12T06:03:20.064Z</time></trkpt><trkpt lat="45.0050133" lon="8.08791"><ele>272.0</ele><time>2026-04-12T06:03:22.062Z</time></trkpt><trkpt lat="45.00496" lon="8.08785"><ele>272.0</ele><time>2026-04-12T06:03:24.064Z</time></trkpt><trkpt lat="45.0048883" lon="8.0877583"><ele>272.0</ele><time>2026-04-12T06:03:27.064Z</time></trkpt><trkpt lat="45.0048417" lon="8.0876867"><ele>272.85714285714283</ele><time>2026-04-12T06:03:29.062Z</time></trkpt><trkpt lat="45.0048067" lon="8.0876083"><ele>273.7142857142857</ele><time>2026-04-12T06:03:31.064Z</time></trkpt><trkpt lat="45.0047817" lon="8.0875117"><ele>274.57142857142856</ele><time>2026-04-12T06:03:33.065Z</time></trkpt><trkpt lat="45.00475" lon="8.08742"><ele>275.42857142857144</ele><time>2026-04-12T06:03:35.063Z</time></trkpt><trkpt lat="45.0047083" lon="8.0873333"><ele>276.2857142857143</ele><time>2026-04-12T06:03:37.062Z</time></trkpt><trkpt lat="45.0046567" lon="8.0872483"><ele>277.1428571428571</ele><time>2026-04-12T06:03:39.064Z</time></trkpt><trkpt lat="45.0046" lon="8.0871733"><ele>278.0</ele><time>2026-04-12T06:03:41.063Z</time></trkpt><trkpt lat="45.0045317" lon="8.087115"><ele>278.0</ele><time>2026-04-12T06:03:43.063Z</time></trkpt><trkpt lat="45.00445" lon="8.0870833"><ele>278.0</ele><time>2026-04-12T06:03:45.065Z</time></trkpt><trkpt lat="45.0043633" lon="8.087075"><ele>278.0</ele><time>2026-04-12T06:03:47.063Z</time></trkpt><trkpt lat="45.004285" lon="8.0870717"><ele>278.0</ele><time>2026-04-12T06:03:49.062Z</time></trkpt><trkpt lat="45.004205" lon="8.0870683"><ele>278.0</ele><time>2026-04-12T06:03:51.064Z</time></trkpt><trkpt lat="45.00414" lon="8.0870767"><ele>278.0</ele><time>2026-04-12T06:03:53.061Z</time></trkpt><trkpt lat="45.004065" lon="8.0870533"><ele>279.57142857142856</ele><time>2026-04-12T06:03:55.063Z</time></trkpt><trkpt lat="45.0039967" lon="8.0870133"><ele>281.14285714285717</ele><time>2026-04-12T06:03:57.065Z</time></trkpt><trkpt lat="45.003925" lon="8.08698"><ele>282.7142857142857</ele><time>2026-04-12T06:03:59.064Z</time></trkpt><trkpt lat="45.00385" lon="8.086945"><ele>284.2857142857143</ele><time>2026-04-12T06:04:01.065Z</time></trkpt><trkpt lat="45.003775" lon="8.086925"><ele>285.85714285714283</ele><time>2026-04-12T06:04:03.064Z</time></trkpt><trkpt lat="45.00371" lon="8.0869433"><ele>287.42857142857144</ele><time>2026-04-12T06:04:05.062Z</time></trkpt><trkpt lat="45.003645" lon="8.0869783"><ele>289.0</ele><time>2026-04-12T06:04:07.065Z</time></trkpt><trkpt lat="45.00356" lon="8.0870333"><ele>289.0</ele><time>2026-04-12T06:04:10.065Z</time></trkpt><trkpt lat="45.00351" lon="8.0870967"><ele>289.0</ele><time>2026-04-12T06:04:12.065Z</time></trkpt><trkpt lat="45.0034483" lon="8.0871483"><ele>289.0</ele><time>2026-04-12T06:04:14.066Z</time></trkpt><trkpt lat="45.00339" lon="8.087205"><ele>289.0</ele><time>2026-04-12T06:04:16.062Z</time></trkpt><trkpt lat="45.0033283" lon="8.087305"><ele>289.0</ele><time>2026-04-12T06:04:19.065Z</time></trkpt><trkpt lat="45.003285" lon="8.0874067"><ele>289.0</ele><time>2026-04-12T06:04:22.063Z</time></trkpt><trkpt lat="45.0033167" lon="8.0875317"><ele>288.8571428571429</ele><time>2026-04-12T06:04:25.065Z</time></trkpt><trkpt lat="45.0033417" lon="8.08763"><ele>288.7142857142857</ele><time>2026-04-12T06:04:27.06Z</time></trkpt><trkpt lat="45.0033767" lon="8.0877267"><ele>288.57142857142856</ele><time>2026-04-12T06:04:29.063Z</time></trkpt><trkpt lat="45.0034133" lon="8.0878183"><ele>288.42857142857144</ele><time>2026-04-12T06:04:31.062Z</time></trkpt><trkpt lat="45.0034567" lon="8.0879"><ele>288.2857142857143</ele><time>2026-04-12T06:04:33.065Z</time></trkpt><trkpt lat="45.0034967" lon="8.0879817"><ele>288.14285714285717</ele><time>2026-04-12T06:04:35.062Z</time></trkpt><trkpt lat="45.003535" lon="8.088065"><ele>288.0</ele><time>2026-04-12T06:04:37.066Z</time></trkpt><trkpt lat="45.003575" lon="8.088145"><ele>288.00000000000006</ele><time>2026-04-12T06:04:39.066Z</time></trkpt><trkpt lat="45.0036083" lon="8.0882267"><ele>288.0</ele><time>2026-04-12T06:04:41.064Z</time></trkpt><trkpt lat="45.0036417" lon="8.0883133"><ele>288.0</ele><time>2026-04-12T06:04:43.064Z</time></trkpt><trkpt lat="45.0036733" lon="8.088405"><ele>288.0</ele><time>2026-04-12T06:04:45.065Z</time></trkpt><trkpt lat="45.00369" lon="8.0885017"><ele>288.0</ele><time>2026-04-12T06:04:47.062Z</time></trkpt><trkpt lat="45.0037" lon="8.0886033"><ele>288.00000000000006</ele><time>2026-04-12T06:04:49.066Z</time></trkpt><trkpt lat="45.0037" lon="8.0886983"><ele>288.0</ele><time>2026-04-12T06:04:51.064Z</time></trkpt><trkpt lat="45.0036733" lon="8.088785"><ele>288.28571428571433</ele><time>2026-04-12T06:04:53.065Z</time></trkpt><trkpt lat="45.00363" lon="8.0888633"><ele>288.57142857142856</ele><time>2026-04-12T06:04:55.065Z</time></trkpt><trkpt lat="45.0035667" lon="8.0889283"><ele>288.8571428571429</ele><time>2026-04-12T06:04:57.066Z</time></trkpt><trkpt lat="45.0035083" lon="8.08898"><ele>289.14285714285717</ele><time>2026-04-12T06:04:59.064Z</time></trkpt><trkpt lat="45.0034467" lon="8.089025"><ele>289.42857142857144</ele><time>2026-04-12T06:05:01.065Z</time></trkpt><trkpt lat="45.0033817" lon="8.08907"><ele>289.7142857142857</ele><time>2026-04-12T06:05:03.064Z</time></trkpt><trkpt lat="45.00331" lon="8.08911"><ele>290.0</ele><time>2026-04-12T06:05:05.063Z</time></trkpt><trkpt lat="45.0032433" lon="8.0891517"><ele>290.0</ele><time>2026-04-12T06:05:07.063Z</time></trkpt><trkpt lat="45.0031733" lon="8.0891983"><ele>290.0</ele><time>2026-04-12T06:05:09.063Z</time></trkpt><trkpt lat="45.00311" lon="8.08925"><ele>290.0</ele><time>2026-04-12T06:05:11.061Z</time></trkpt><trkpt lat="45.003055" lon="8.08931"><ele>290.0</ele><time>2026-04-12T06:05:13.063Z</time></trkpt><trkpt lat="45.0030083" lon="8.08939"><ele>290.0</ele><time>2026-04-12T06:05:15.065Z</time></trkpt><trkpt lat="45.002965" lon="8.08948"><ele>290.0</ele><time>2026-04-12T06:05:17.064Z</time></trkpt><trkpt lat="45.0029333" lon="8.08958"><ele>290.0</ele><time>2026-04-12T06:05:19.062Z</time></trkpt><trkpt lat="45.0029217" lon="8.0896883"><ele>290.0</ele><time>2026-04-12T06:05:21.065Z</time></trkpt><trkpt lat="45.0029217" lon="8.0898067"><ele>290.0</ele><time>2026-04-12T06:05:23.063Z</time></trkpt><trkpt lat="45.0029433" lon="8.089925"><ele>290.0</ele><time>2026-04-12T06:05:25.061Z</time></trkpt><trkpt lat="45.0029617" lon="8.0900533"><ele>290.0</ele><time>2026-04-12T06:05:27.063Z</time></trkpt><trkpt lat="45.0029867" lon="8.0901867"><ele>290.0</ele><time>2026-04-12T06:05:29.062Z</time></trkpt><trkpt lat="45.003005" lon="8.0903333"><ele>289.1666666666667</ele><time>2026-04-12T06:05:31.064Z</time></trkpt><trkpt lat="45.0029967" lon="8.0904883"><ele>288.33333333333337</ele><time>2026-04-12T06:05:33.063Z</time></trkpt><trkpt lat="45.0029683" lon="8.0906517"><ele>287.5</ele><time>2026-04-12T06:05:35.062Z</time></trkpt><trkpt lat="45.0029467" lon="8.0907367"><ele>286.6666666666667</ele><time>2026-04-12T06:05:36.064Z</time></trkpt><trkpt lat="45.0029183" lon="8.0908167"><ele>285.8333333333333</ele><time>2026-04-12T06:05:37.063Z</time></trkpt><trkpt lat="45.00288" lon="8.0908983"><ele>285.0</ele><time>2026-04-12T06:05:38.065Z</time></trkpt><trkpt lat="45.002835" lon="8.0909717"><ele>284.7142857142857</ele><time>2026-04-12T06:05:39.064Z</time></trkpt><trkpt lat="45.0027933" lon="8.0910483"><ele>284.42857142857144</ele><time>2026-04-12T06:05:40.063Z</time></trkpt><trkpt lat="45.0027467" lon="8.0911233"><ele>284.14285714285717</ele><time>2026-04-12T06:05:41.062Z</time></trkpt><trkpt lat="45.0027" lon="8.0911983"><ele>283.8571428571429</ele><time>2026-04-12T06:05:42.063Z</time></trkpt><trkpt lat="45.0026483" lon="8.0912717"><ele>283.5714285714286</ele><time>2026-04-12T06:05:43.064Z</time></trkpt><trkpt lat="45.0025917" lon="8.09134"><ele>283.2857142857143</ele><time>2026-04-12T06:05:44.063Z</time></trkpt><trkpt lat="45.0025283" lon="8.091395"><ele>283.0</ele><time>2026-04-12T06:05:45.061Z</time></trkpt><trkpt lat="45.0024567" lon="8.0914367"><ele>280.8333333333333</ele><time>2026-04-12T06:05:46.063Z</time></trkpt><trkpt lat="45.00238" lon="8.0914667"><ele>278.66666666666663</ele><time>2026-04-12T06:05:47.062Z</time></trkpt><trkpt lat="45.002305" lon="8.09149"><ele>276.5</ele><time>2026-04-12T06:05:48.063Z</time></trkpt><trkpt lat="45.0022283" lon="8.091505"><ele>274.3333333333333</ele><time>2026-04-12T06:05:49.063Z</time></trkpt><trkpt lat="45.0021517" lon="8.0915183"><ele>272.1666666666667</ele><time>2026-04-12T06:05:50.061Z</time></trkpt><trkpt lat="45.002075" lon="8.091525"><ele>270.0</ele><time>2026-04-12T06:05:51.063Z</time></trkpt><trkpt lat="45.0019967" lon="8.091535"><ele>270.0</ele><time>2026-04-12T06:05:52.061Z</time></trkpt><trkpt lat="45.0019117" lon="8.0915417"><ele>270.0</ele><time>2026-04-12T06:05:53.063Z</time></trkpt><trkpt lat="45.00183" lon="8.0915517"><ele>270.0</ele><time>2026-04-12T06:05:54.062Z</time></trkpt><trkpt lat="45.001745" lon="8.09156"><ele>270.0</ele><time>2026-04-12T06:05:55.063Z</time></trkpt><trkpt lat="45.0016583" lon="8.0915617"><ele>270.0</ele><time>2026-04-12T06:05:56.063Z</time></trkpt><trkpt lat="45.00157" lon="8.0915583"><ele>270.0</ele><time>2026-04-12T06:05:57.065Z</time></trkpt><trkpt lat="45.0014833" lon="8.0915533"><ele>269.1666666666667</ele><time>2026-04-12T06:05:58.063Z</time></trkpt><trkpt lat="45.0013967" lon="8.0915617"><ele>268.3333333333333</ele><time>2026-04-12T06:05:59.061Z</time></trkpt><trkpt lat="45.0013117" lon="8.09158"><ele>267.5</ele><time>2026-04-12T06:06:00.064Z</time></trkpt><trkpt lat="45.00123" lon="8.0916067"><ele>266.66666666666663</ele><time>2026-04-12T06:06:01.062Z</time></trkpt><trkpt lat="45.0011517" lon="8.0916417"><ele>265.8333333333333</ele><time>2026-04-12T06:06:02.063Z</time></trkpt><trkpt lat="45.0010733" lon="8.091685"><ele>265.0</ele><time>2026-04-12T06:06:03.063Z</time></trkpt><trkpt lat="45.0009933" lon="8.0917267"><ele>269.0</ele><time>2026-04-12T06:06:04.063Z</time></trkpt><trkpt lat="45.0009117" lon="8.0917683"><ele>273.0</ele><time>2026-04-12T06:06:05.061Z</time></trkpt><trkpt lat="45.0008267" lon="8.091815"><ele>277.0</ele><time>2026-04-12T06:06:06.062Z</time></trkpt><trkpt lat="45.0007467" lon="8.091865"><ele>281.0</ele><time>2026-04-12T06:06:07.062Z</time></trkpt><trkpt lat="45.000665" lon="8.091915"><ele>285.0</ele><time>2026-04-12T06:06:08.064Z</time></trkpt><trkpt lat="45.0005867" lon="8.0919667"><ele>289.0</ele><time>2026-04-12T06:06:09.064Z</time></trkpt><trkpt lat="45.0005067" lon="8.092015"><ele>289.16666666666663</ele><time>2026-04-12T06:06:10.062Z</time></trkpt><trkpt lat="45.000425" lon="8.0920617"><ele>289.3333333333333</ele><time>2026-04-12T06:06:11.063Z</time></trkpt><trkpt lat="45.0003433" lon="8.09211"><ele>289.5</ele><time>2026-04-12T06:06:12.062Z</time></trkpt><trkpt lat="45.0002633" lon="8.0921617"><ele>289.6666666666667</ele><time>2026-04-12T06:06:13.063Z</time></trkpt><trkpt lat="45.00019" lon="8.092225"><ele>289.83333333333337</ele><time>2026-04-12T06:06:14.063Z</time></trkpt><trkpt lat="45.000125" lon="8.0923017"><ele>290.0</ele><time>2026-04-12T06:06:15.061Z</time></trkpt><trkpt lat="45.0000633" lon="8.0923867"><ele>290.0</ele><time>2026-04-12T06:06:16.062Z</time></trkpt><trkpt lat="45.000005" lon="8.0924733"><ele>290.0</ele><time>2026-04-12T06:06:17.063Z</time></trkpt><trkpt lat="44.99995" lon="8.0925533"><ele>290.0</ele><time>2026-04-12T06:06:18.062Z</time></trkpt><trkpt lat="44.9998983" lon="8.0926333"><ele>290.0</ele><time>2026-04-12T06:06:19.063Z</time></trkpt><trkpt lat="44.9998467" lon="8.0927067"><ele>290.0</ele><time>2026-04-12T06:06:20.063Z</time></trkpt><trkpt lat="44.9997933" lon="8.0927633"><ele>290.0</ele><time>2026-04-12T06:06:21.062Z</time></trkpt><trkpt lat="44.9997333" lon="8.0927983"><ele>290.0</ele><time>2026-04-12T06:06:22.063Z</time></trkpt><trkpt lat="44.99967" lon="8.092815"><ele>290.0</ele><time>2026-04-12T06:06:23.061Z</time></trkpt><trkpt lat="44.999605" lon="8.0928183"><ele>290.0</ele><time>2026-04-12T06:06:24.063Z</time></trkpt><trkpt lat="44.9994833" lon="8.09279"><ele>290.0</ele><time>2026-04-12T06:06:26.062Z</time></trkpt><trkpt lat="44.99937" lon="8.0927483"><ele>290.0</ele><time>2026-04-12T06:06:28.063Z</time></trkpt><trkpt lat="44.9992633" lon="8.0927067"><ele>290.0</ele><time>2026-04-12T06:06:30.061Z</time></trkpt><trkpt lat="44.9991583" lon="8.0926733"><ele>291.0</ele><time>2026-04-12T06:06:32.06Z</time></trkpt><trkpt lat="44.999055" lon="8.0926517"><ele>292.0</ele><time>2026-04-12T06:06:34.063Z</time></trkpt><trkpt lat="44.9989533" lon="8.0926383"><ele>293.0</ele><time>2026-04-12T06:06:36.064Z</time></trkpt><trkpt lat="44.9988617" lon="8.09264"><ele>294.0</ele><time>2026-04-12T06:06:38.059Z</time></trkpt><trkpt lat="44.9987717" lon="8.092665"><ele>295.0</ele><time>2026-04-12T06:06:40.063Z</time></trkpt><trkpt lat="44.998685" lon="8.09271"><ele>295.0</ele><time>2026-04-12T06:06:42.062Z</time></trkpt><trkpt lat="44.9986" lon="8.0927867"><ele>295.0</ele><time>2026-04-12T06:06:44.06Z</time></trkpt><trkpt lat="44.998525" lon="8.0928783"><ele>295.0</ele><time>2026-04-12T06:06:46.061Z</time></trkpt><trkpt lat="44.9984567" lon="8.0929717"><ele>295.0</ele><time>2026-04-12T06:06:48.063Z</time></trkpt><trkpt lat="44.9983867" lon="8.0930517"><ele>295.0</ele><time>2026-04-12T06:06:50.063Z</time></trkpt><trkpt lat="44.9983067" lon="8.0931067"><ele>295.8333333333333</ele><time>2026-04-12T06:06:52.063Z</time></trkpt><trkpt lat="44.9982233" lon="8.0931333"><ele>296.66666666666663</ele><time>2026-04-12T06:06:54.064Z</time></trkpt><trkpt lat="44.9981433" lon="8.0931183"><ele>297.5</ele><time>2026-04-12T06:06:56.063Z</time></trkpt><trkpt lat="44.9980683" lon="8.0930733"><ele>298.3333333333333</ele><time>2026-04-12T06:06:58.063Z</time></trkpt><trkpt lat="44.998" lon="8.0930183"><ele>299.1666666666667</ele><time>2026-04-12T06:07:00.063Z</time></trkpt><trkpt lat="44.9979467" lon="8.0929517"><ele>300.0</ele><time>2026-04-12T06:07:02.062Z</time></trkpt><trkpt lat="44.99789" lon="8.092885"><ele>299.99999999999994</ele><time>2026-04-12T06:07:04.061Z</time></trkpt><trkpt lat="44.99783" lon="8.0928217"><ele>300.0</ele><time>2026-04-12T06:07:06.064Z</time></trkpt><trkpt lat="44.9977733" lon="8.0927583"><ele>300.0</ele><time>2026-04-12T06:07:08.062Z</time></trkpt><trkpt lat="44.9977167" lon="8.09269"><ele>300.0</ele><time>2026-04-12T06:07:10.063Z</time></trkpt><trkpt lat="44.9976583" lon="8.0926317"><ele>300.0</ele><time>2026-04-12T06:07:12.061Z</time></trkpt><trkpt lat="44.997605" lon="8.0925667"><ele>299.99999999999994</ele><time>2026-04-12T06:07:14.063Z</time></trkpt><trkpt lat="44.9975533" lon="8.0925133"><ele>300.0</ele><time>2026-04-12T06:07:16.065Z</time></trkpt><trkpt lat="44.9975" lon="8.0924617"><ele>299.5</ele><time>2026-04-12T06:07:18.06Z</time></trkpt><trkpt lat="44.99745" lon="8.092405"><ele>299.0</ele><time>2026-04-12T06:07:20.063Z</time></trkpt><trkpt lat="44.99738" lon="8.0923217"><ele>298.5</ele><time>2026-04-12T06:07:23.063Z</time></trkpt><trkpt lat="44.9973083" lon="8.0922367"><ele>298.0</ele><time>2026-04-12T06:07:26.063Z</time></trkpt><trkpt lat="44.9972383" lon="8.092155"><ele>297.5</ele><time>2026-04-12T06:07:29.061Z</time></trkpt><trkpt lat="44.9971883" lon="8.0921"><ele>297.0</ele><time>2026-04-12T06:07:31.064Z</time></trkpt><trkpt lat="44.9971333" lon="8.0920433"><ele>297.0</ele><time>2026-04-12T06:07:33.064Z</time></trkpt><trkpt lat="44.9970833" lon="8.09198"><ele>297.0</ele><time>2026-04-12T06:07:35.062Z</time></trkpt><trkpt lat="44.9970383" lon="8.0919067"><ele>297.0</ele><time>2026-04-12T06:07:37.063Z</time></trkpt><trkpt lat="44.9970033" lon="8.091825"><ele>297.0</ele><time>2026-04-12T06:07:39.063Z</time></trkpt><trkpt lat="44.99697" lon="8.09174"><ele>297.0</ele><time>2026-04-12T06:07:41.062Z</time></trkpt><trkpt lat="44.99693" lon="8.09166"><ele>297.0</ele><time>2026-04-12T06:07:43.062Z</time></trkpt><trkpt lat="44.9968883" lon="8.09158"><ele>297.0</ele><time>2026-04-12T06:07:45.065Z</time></trkpt><trkpt lat="44.9968517" lon="8.0914883"><ele>297.1666666666667</ele><time>2026-04-12T06:07:47.063Z</time></trkpt><trkpt lat="44.9968167" lon="8.0914"><ele>297.3333333333333</ele><time>2026-04-12T06:07:49.065Z</time></trkpt><trkpt lat="44.9967783" lon="8.0913067"><ele>297.5</ele><time>2026-04-12T06:07:51.064Z</time></trkpt><trkpt lat="44.9967417" lon="8.0912133"><ele>297.66666666666663</ele><time>2026-04-12T06:07:53.061Z</time></trkpt><trkpt lat="44.9966983" lon="8.0911167"><ele>297.8333333333333</ele><time>2026-04-12T06:07:55.064Z</time></trkpt><trkpt lat="44.9966483" lon="8.0910217"><ele>298.0</ele><time>2026-04-12T06:07:57.066Z</time></trkpt><trkpt lat="44.99659" lon="8.090935"><ele>298.0</ele><time>2026-04-12T06:07:59.063Z</time></trkpt><trkpt lat="44.9965133" lon="8.0908717"><ele>298.0</ele><time>2026-04-12T06:08:01.065Z</time></trkpt><trkpt lat="44.99643" lon="8.0908317"><ele>298.0</ele><time>2026-04-12T06:08:03.062Z</time></trkpt><trkpt lat="44.9963383" lon="8.09082"><ele>298.0</ele><time>2026-04-12T06:08:05.062Z</time></trkpt><trkpt lat="44.9962417" lon="8.0908333"><ele>298.0</ele><time>2026-04-12T06:08:07.061Z</time></trkpt><trkpt lat="44.99614" lon="8.0908583"><ele>298.0</ele><time>2026-04-12T06:08:09.063Z</time></trkpt><trkpt lat="44.996035" lon="8.090875"><ele>298.0</ele><time>2026-04-12T06:08:11.064Z</time></trkpt><trkpt lat="44.9959367" lon="8.0908983"><ele>298.0</ele><time>2026-04-12T06:08:13.062Z</time></trkpt><trkpt lat="44.995835" lon="8.0909167"><ele>298.0</ele><time>2026-04-12T06:08:15.063Z</time></trkpt><trkpt lat="44.9957367" lon="8.0909317"><ele>298.0</ele><time>2026-04-12T06:08:17.061Z</time></trkpt><trkpt lat="44.995635" lon="8.0909467"><ele>298.0</ele><time>2026-04-12T06:08:19.064Z</time></trkpt><trkpt lat="44.9955383" lon="8.09096"><ele>298.0</ele><time>2026-04-12T06:08:21.065Z</time></trkpt><trkpt lat="44.9954383" lon="8.09097"><ele>298.0</ele><time>2026-04-12T06:08:23.064Z</time></trkpt><trkpt lat="44.9953383" lon="8.0909717"><ele>298.0</ele><time>2026-04-12T06:08:25.063Z</time></trkpt><trkpt lat="44.9952433" lon="8.0909583"><ele>298.0</ele><time>2026-04-12T06:08:27.065Z</time></trkpt><trkpt lat="44.9951417" lon="8.0909333"><ele>298.0</ele><time>2026-04-12T06:08:29.061Z</time></trkpt><trkpt lat="44.9950367" lon="8.0909017"><ele>298.0</ele><time>2026-04-12T06:08:31.063Z</time></trkpt><trkpt lat="44.99494" lon="8.0908733"><ele>298.0</ele><time>2026-04-12T06:08:33.065Z</time></trkpt><trkpt lat="44.99484" lon="8.0908467"><ele>298.0</ele><time>2026-04-12T06:08:35.063Z</time></trkpt><trkpt lat="44.994745" lon="8.0908183"><ele>298.0</ele><time>2026-04-12T06:08:37.062Z</time></trkpt><trkpt lat="44.994645" lon="8.0907967"><ele>299.0</ele><time>2026-04-12T06:08:39.062Z</time></trkpt><trkpt lat="44.9945433" lon="8.0907833"><ele>300.0</ele><time>2026-04-12T06:08:41.062Z</time></trkpt><trkpt lat="44.9944367" lon="8.0907817"><ele>301.0</ele><time>2026-04-12T06:08:43.061Z</time></trkpt><trkpt lat="44.9943183" lon="8.0907867"><ele>302.0</ele><time>2026-04-12T06:08:45.065Z</time></trkpt><trkpt lat="44.994255" lon="8.0907883"><ele>303.0</ele><time>2026-04-12T06:08:46.063Z</time></trkpt><trkpt lat="44.9941917" lon="8.0907917"><ele>303.14285714285717</ele><time>2026-04-12T06:08:47.064Z</time></trkpt><trkpt lat="44.9941233" lon="8.090795"><ele>303.2857142857143</ele><time>2026-04-12T06:08:48.062Z</time></trkpt><trkpt lat="44.9940567" lon="8.0907983"><ele>303.42857142857144</ele><time>2026-04-12T06:08:49.062Z</time></trkpt><trkpt lat="44.99399" lon="8.0908033"><ele>303.57142857142856</ele><time>2026-04-12T06:08:50.062Z</time></trkpt><trkpt lat="44.9939217" lon="8.0908067"><ele>303.7142857142857</ele><time>2026-04-12T06:08:51.064Z</time></trkpt><trkpt lat="44.993855" lon="8.090805"><ele>303.85714285714283</ele><time>2026-04-12T06:08:52.063Z</time></trkpt><trkpt lat="44.993785" lon="8.0908117"><ele>304.0</ele><time>2026-04-12T06:08:53.062Z</time></trkpt><trkpt lat="44.9937117" lon="8.0908183"><ele>304.0</ele><time>2026-04-12T06:08:54.063Z</time></trkpt><trkpt lat="44.9936367" lon="8.0908233"><ele>304.0</ele><time>2026-04-12T06:08:55.062Z</time></trkpt><trkpt lat="44.9935617" lon="8.0908283"><ele>304.0</ele><time>2026-04-12T06:08:56.062Z</time></trkpt><trkpt lat="44.9934817" lon="8.090835"><ele>304.0</ele><time>2026-04-12T06:08:57.065Z</time></trkpt><trkpt lat="44.9934033" lon="8.0908417"><ele>304.0</ele><time>2026-04-12T06:08:58.063Z</time></trkpt><trkpt lat="44.9933267" lon="8.0908483"><ele>304.0</ele><time>2026-04-12T06:08:59.062Z</time></trkpt><trkpt lat="44.99325" lon="8.0908517"><ele>303.16666666666663</ele><time>2026-04-12T06:09:00.061Z</time></trkpt><trkpt lat="44.99317" lon="8.0908567"><ele>302.3333333333333</ele><time>2026-04-12T06:09:01.062Z</time></trkpt><trkpt lat="44.9930867" lon="8.0908633"><ele>301.5</ele><time>2026-04-12T06:09:02.064Z</time></trkpt><trkpt lat="44.9930033" lon="8.0908733"><ele>300.6666666666667</ele><time>2026-04-12T06:09:03.064Z</time></trkpt><trkpt lat="44.9929167" lon="8.09088"><ele>299.83333333333337</ele><time>2026-04-12T06:09:04.063Z</time></trkpt><trkpt lat="44.9928317" lon="8.0908833"><ele>299.0</ele><time>2026-04-12T06:09:05.061Z</time></trkpt><trkpt lat="44.9927467" lon="8.09089"><ele>299.0</ele><time>2026-04-12T06:09:06.063Z</time></trkpt><trkpt lat="44.9926633" lon="8.0908933"><ele>299.0</ele><time>2026-04-12T06:09:07.064Z</time></trkpt><trkpt lat="44.9925767" lon="8.090895"><ele>299.0</ele><time>2026-04-12T06:09:08.062Z</time></trkpt><trkpt lat="44.9924917" lon="8.0908967"><ele>299.0</ele><time>2026-04-12T06:09:09.065Z</time></trkpt><trkpt lat="44.99241" lon="8.090905"><ele>299.0</ele><time>2026-04-12T06:09:10.062Z</time></trkpt><trkpt lat="44.9923233" lon="8.09091"><ele>299.0</ele><time>2026-04-12T06:09:11.062Z</time></trkpt><trkpt lat="44.9922383" lon="8.090915"><ele>298.5</ele><time>2026-04-12T06:09:12.062Z</time></trkpt><trkpt lat="44.992155" lon="8.09092"><ele>298.0</ele><time>2026-04-12T06:09:13.062Z</time></trkpt><trkpt lat="44.9920733" lon="8.0909233"><ele>297.5</ele><time>2026-04-12T06:09:14.062Z</time></trkpt><trkpt lat="44.991995" lon="8.0909283"><ele>297.0</ele><time>2026-04-12T06:09:15.063Z</time></trkpt><trkpt lat="44.9919217" lon="8.0909333"><ele>296.5</ele><time>2026-04-12T06:09:16.062Z</time></trkpt><trkpt lat="44.9918483" lon="8.090935"><ele>296.0</ele><time>2026-04-12T06:09:17.063Z</time></trkpt><trkpt lat="44.9917783" lon="8.09093"><ele>296.0</ele><time>2026-04-12T06:09:18.063Z</time></trkpt><trkpt lat="44.9917117" lon="8.09092"><ele>296.0</ele><time>2026-04-12T06:09:19.064Z</time></trkpt><trkpt lat="44.9916483" lon="8.0909067"><ele>296.0</ele><time>2026-04-12T06:09:20.063Z</time></trkpt><trkpt lat="44.9915317" lon="8.0908583"><ele>296.0</ele><time>2026-04-12T06:09:22.062Z</time></trkpt><trkpt lat="44.991425" lon="8.0907917"><ele>296.0</ele><time>2026-04-12T06:09:24.063Z</time></trkpt><trkpt lat="44.9913283" lon="8.09071"><ele>293.2</ele><time>2026-04-12T06:09:26.061Z</time></trkpt><trkpt lat="44.99124" lon="8.090625"><ele>290.40000000000003</ele><time>2026-04-12T06:09:28.064Z</time></trkpt><trkpt lat="44.9911617" lon="8.09054"><ele>287.6</ele><time>2026-04-12T06:09:30.062Z</time></trkpt><trkpt lat="44.9910883" lon="8.0904567"><ele>284.8</ele><time>2026-04-12T06:09:32.064Z</time></trkpt><trkpt lat="44.9910067" lon="8.0903817"><ele>282.0</ele><time>2026-04-12T06:09:34.061Z</time></trkpt><trkpt lat="44.9909083" lon="8.09034"><ele>284.1666666666667</ele><time>2026-04-12T06:09:36.062Z</time></trkpt><trkpt lat="44.9907983" lon="8.090355"><ele>286.3333333333333</ele><time>2026-04-12T06:09:38.063Z</time></trkpt><trkpt lat="44.9906933" lon="8.0904317"><ele>288.5</ele><time>2026-04-12T06:09:40.063Z</time></trkpt><trkpt lat="44.99064" lon="8.0904867"><ele>290.66666666666663</ele><time>2026-04-12T06:09:41.059Z</time></trkpt><trkpt lat="44.99058" lon="8.0905417"><ele>292.8333333333333</ele><time>2026-04-12T06:09:42.063Z</time></trkpt><trkpt lat="44.9905167" lon="8.0906033"><ele>295.0</ele><time>2026-04-12T06:09:43.061Z</time></trkpt><trkpt lat="44.990455" lon="8.0906617"><ele>295.0</ele><time>2026-04-12T06:09:44.061Z</time></trkpt><trkpt lat="44.99039" lon="8.090725"><ele>295.0</ele><time>2026-04-12T06:09:45.062Z</time></trkpt><trkpt lat="44.9903183" lon="8.0907833"><ele>295.0</ele><time>2026-04-12T06:09:46.063Z</time></trkpt><trkpt lat="44.9902467" lon="8.0908383"><ele>295.0</ele><time>2026-04-12T06:09:47.066Z</time></trkpt><trkpt lat="44.990175" lon="8.0908933"><ele>295.0</ele><time>2026-04-12T06:09:48.061Z</time></trkpt><trkpt lat="44.9901033" lon="8.0909433"><ele>295.0</ele><time>2026-04-12T06:09:49.062Z</time></trkpt><trkpt lat="44.99003" lon="8.090985"><ele>294.8571428571429</ele><time>2026-04-12T06:09:50.064Z</time></trkpt><trkpt lat="44.98996" lon="8.0910217"><ele>294.7142857142857</ele><time>2026-04-12T06:09:51.063Z</time></trkpt><trkpt lat="44.9898883" lon="8.0910633"><ele>294.57142857142856</ele><time>2026-04-12T06:09:52.063Z</time></trkpt><trkpt lat="44.9898183" lon="8.0911033"><ele>294.42857142857144</ele><time>2026-04-12T06:09:53.061Z</time></trkpt><trkpt lat="44.9897517" lon="8.0911467"><ele>294.2857142857143</ele><time>2026-04-12T06:09:54.063Z</time></trkpt><trkpt lat="44.9896817" lon="8.09118"><ele>294.14285714285717</ele><time>2026-04-12T06:09:55.062Z</time></trkpt><trkpt lat="44.9896133" lon="8.091195"><ele>294.0</ele><time>2026-04-12T06:09:56.064Z</time></trkpt><trkpt lat="44.9895483" lon="8.0911933"><ele>294.0</ele><time>2026-04-12T06:09:57.062Z</time></trkpt><trkpt lat="44.9894817" lon="8.091185"><ele>294.0</ele><time>2026-04-12T06:09:58.063Z</time></trkpt><trkpt lat="44.9893583" lon="8.0911433"><ele>294.0</ele><time>2026-04-12T06:10:00.064Z</time></trkpt><trkpt lat="44.9892517" lon="8.09112"><ele>294.0</ele><time>2026-04-12T06:10:02.063Z</time></trkpt><trkpt lat="44.98915" lon="8.0910867"><ele>294.0</ele><time>2026-04-12T06:10:04.063Z</time></trkpt><trkpt lat="44.9890517" lon="8.0910517"><ele>293.59999999999997</ele><time>2026-04-12T06:10:06.062Z</time></trkpt><trkpt lat="44.9889483" lon="8.0910117"><ele>293.2</ele><time>2026-04-12T06:10:08.062Z</time></trkpt><trkpt lat="44.988845" lon="8.09098"><ele>292.79999999999995</ele><time>2026-04-12T06:10:10.062Z</time></trkpt><trkpt lat="44.9887483" lon="8.09095"><ele>292.4</ele><time>2026-04-12T06:10:12.062Z</time></trkpt><trkpt lat="44.9886567" lon="8.0909233"><ele>292.0</ele><time>2026-04-12T06:10:14.063Z</time></trkpt><trkpt lat="44.9885667" lon="8.09089"><ele>292.0</ele><time>2026-04-12T06:10:16.062Z</time></trkpt><trkpt lat="44.9884833" lon="8.090865"><ele>292.0</ele><time>2026-04-12T06:10:18.063Z</time></trkpt><trkpt lat="44.988415" lon="8.0908583"><ele>292.0</ele><time>2026-04-12T06:10:20.061Z</time></trkpt><trkpt lat="44.9883317" lon="8.0908383"><ele>292.0</ele><time>2026-04-12T06:10:23.061Z</time></trkpt><trkpt lat="44.9882583" lon="8.0908233"><ele>292.0</ele><time>2026-04-12T06:10:25.061Z</time></trkpt><trkpt lat="44.9881367" lon="8.0907833"><ele>292.0</ele><time>2026-04-12T06:10:27.065Z</time></trkpt><trkpt lat="44.9880633" lon="8.0907633"><ele>291.0</ele><time>2026-04-12T06:10:28.062Z</time></trkpt><trkpt lat="44.987985" lon="8.0907417"><ele>290.0</ele><time>2026-04-12T06:10:29.062Z</time></trkpt><trkpt lat="44.9878983" lon="8.0907167"><ele>289.0</ele><time>2026-04-12T06:10:30.064Z</time></trkpt><trkpt lat="44.9878033" lon="8.0906783"><ele>288.0</ele><time>2026-04-12T06:10:31.063Z</time></trkpt><trkpt lat="44.98771" lon="8.0906267"><ele>287.0</ele><time>2026-04-12T06:10:32.064Z</time></trkpt><trkpt lat="44.9876183" lon="8.0905633"><ele>287.0</ele><time>2026-04-12T06:10:33.064Z</time></trkpt><trkpt lat="44.9875217" lon="8.0904933"><ele>287.0</ele><time>2026-04-12T06:10:34.062Z</time></trkpt><trkpt lat="44.987425" lon="8.0904167"><ele>287.0</ele><time>2026-04-12T06:10:35.063Z</time></trkpt><trkpt lat="44.9873317" lon="8.090325"><ele>287.0</ele><time>2026-04-12T06:10:36.062Z</time></trkpt><trkpt lat="44.98725" lon="8.0902217"><ele>287.0</ele><time>2026-04-12T06:10:37.064Z</time></trkpt><trkpt lat="44.9871683" lon="8.0901"><ele>288.0</ele><time>2026-04-12T06:10:38.063Z</time></trkpt><trkpt lat="44.9870933" lon="8.0899733"><ele>289.0</ele><time>2026-04-12T06:10:39.061Z</time></trkpt><trkpt lat="44.9870167" lon="8.08985"><ele>290.0</ele><time>2026-04-12T06:10:40.061Z</time></trkpt><trkpt lat="44.98695" lon="8.08973"><ele>291.0</ele><time>2026-04-12T06:10:41.061Z</time></trkpt><trkpt lat="44.98688" lon="8.0896117"><ele>289.0</ele><time>2026-04-12T06:10:42.062Z</time></trkpt><trkpt lat="44.98682" lon="8.0894933"><ele>287.0</ele><time>2026-04-12T06:10:43.062Z</time></trkpt><trkpt lat="44.9867583" lon="8.08938"><ele>285.0</ele><time>2026-04-12T06:10:44.062Z</time></trkpt><trkpt lat="44.9866817" lon="8.0892867"><ele>283.0</ele><time>2026-04-12T06:10:45.065Z</time></trkpt><trkpt lat="44.9866017" lon="8.0892117"><ele>281.0</ele><time>2026-04-12T06:10:46.064Z</time></trkpt><trkpt lat="44.9865133" lon="8.08916"><ele>281.0</ele><time>2026-04-12T06:10:47.061Z</time></trkpt><trkpt lat="44.986415" lon="8.08913"><ele>281.0</ele><time>2026-04-12T06:10:48.062Z</time></trkpt><trkpt lat="44.9863117" lon="8.0891117"><ele>281.0</ele><time>2026-04-12T06:10:49.059Z</time></trkpt><trkpt lat="44.9862067" lon="8.089095"><ele>281.0</ele><time>2026-04-12T06:10:50.062Z</time></trkpt><trkpt lat="44.9860983" lon="8.0890767"><ele>281.0</ele><time>2026-04-12T06:10:51.064Z</time></trkpt><trkpt lat="44.9859883" lon="8.0890517"><ele>280.5</ele><time>2026-04-12T06:10:52.063Z</time></trkpt><trkpt lat="44.9858767" lon="8.089015"><ele>280.0</ele><time>2026-04-12T06:10:53.061Z</time></trkpt><trkpt lat="44.985765" lon="8.08896"><ele>279.5</ele><time>2026-04-12T06:10:54.064Z</time></trkpt><trkpt lat="44.98566" lon="8.088895"><ele>279.0</ele><time>2026-04-12T06:10:55.062Z</time></trkpt><trkpt lat="44.9855567" lon="8.088815"><ele>281.25</ele><time>2026-04-12T06:10:56.062Z</time></trkpt><trkpt lat="44.9854533" lon="8.0887283"><ele>283.5</ele><time>2026-04-12T06:10:57.064Z</time></trkpt><trkpt lat="44.9853517" lon="8.0886317"><ele>285.75</ele><time>2026-04-12T06:10:58.062Z</time></trkpt><trkpt lat="44.9852483" lon="8.0885317"><ele>288.0</ele><time>2026-04-12T06:10:59.06Z</time></trkpt><trkpt lat="44.985145" lon="8.0884333"><ele>288.0</ele><time>2026-04-12T06:11:00.061Z</time></trkpt><trkpt lat="44.98504" lon="8.088325"><ele>288.0</ele><time>2026-04-12T06:11:01.062Z</time></trkpt><trkpt lat="44.9849433" lon="8.0882117"><ele>288.0</ele><time>2026-04-12T06:11:02.064Z</time></trkpt><trkpt lat="44.9848483" lon="8.0880917"><ele>288.0</ele><time>2026-04-12T06:11:03.065Z</time></trkpt><trkpt lat="44.984755" lon="8.087975"><ele>285.5</ele><time>2026-04-12T06:11:04.064Z</time></trkpt><trkpt lat="44.984655" lon="8.0878683"><ele>283.0</ele><time>2026-04-12T06:11:05.063Z</time></trkpt><trkpt lat="44.9845483" lon="8.0877717"><ele>280.5</ele><time>2026-04-12T06:11:06.065Z</time></trkpt><trkpt lat="44.9844367" lon="8.0877033"><ele>278.0</ele><time>2026-04-12T06:11:07.062Z</time></trkpt><trkpt lat="44.9843183" lon="8.0876517"><ele>278.0</ele><time>2026-04-12T06:11:08.063Z</time></trkpt><trkpt lat="44.9842" lon="8.0876233"><ele>278.0</ele><time>2026-04-12T06:11:09.061Z</time></trkpt><trkpt lat="44.9840783" lon="8.0876217"><ele>278.0</ele><time>2026-04-12T06:11:10.065Z</time></trkpt><trkpt lat="44.9839617" lon="8.0876383"><ele>278.0</ele><time>2026-04-12T06:11:11.062Z</time></trkpt><trkpt lat="44.9838483" lon="8.0876583"><ele>274.8</ele><time>2026-04-12T06:11:12.063Z</time></trkpt><trkpt lat="44.9837433" lon="8.087685"><ele>271.6</ele><time>2026-04-12T06:11:13.063Z</time></trkpt><trkpt lat="44.9836433" lon="8.0877117"><ele>268.4</ele><time>2026-04-12T06:11:14.064Z</time></trkpt><trkpt lat="44.9835517" lon="8.0877383"><ele>265.2</ele><time>2026-04-12T06:11:15.065Z</time></trkpt><trkpt lat="44.983465" lon="8.0877667"><ele>262.0</ele><time>2026-04-12T06:11:16.063Z</time></trkpt><trkpt lat="44.9833817" lon="8.0877917"><ele>262.8571428571429</ele><time>2026-04-12T06:11:17.063Z</time></trkpt><trkpt lat="44.9833017" lon="8.087815"><ele>263.7142857142857</ele><time>2026-04-12T06:11:18.064Z</time></trkpt><trkpt lat="44.9832267" lon="8.087835"><ele>264.57142857142856</ele><time>2026-04-12T06:11:19.066Z</time></trkpt><trkpt lat="44.983155" lon="8.08785"><ele>265.42857142857144</ele><time>2026-04-12T06:11:20.064Z</time></trkpt><trkpt lat="44.9830867" lon="8.0878583"><ele>266.2857142857143</ele><time>2026-04-12T06:11:21.063Z</time></trkpt><trkpt lat="44.9830183" lon="8.0878633"><ele>267.14285714285717</ele><time>2026-04-12T06:11:22.062Z</time></trkpt><trkpt lat="44.9829517" lon="8.0878667"><ele>268.0</ele><time>2026-04-12T06:11:23.065Z</time></trkpt><trkpt lat="44.982885" lon="8.087865"><ele>268.0</ele><time>2026-04-12T06:11:24.063Z</time></trkpt><trkpt lat="44.9827667" lon="8.0878467"><ele>268.0</ele><time>2026-04-12T06:11:26.062Z</time></trkpt><trkpt lat="44.9826633" lon="8.087805"><ele>268.0</ele><time>2026-04-12T06:11:28.063Z</time></trkpt><trkpt lat="44.982555" lon="8.087755"><ele>268.0</ele><time>2026-04-12T06:11:30.064Z</time></trkpt><trkpt lat="44.98245" lon="8.0876983"><ele>268.8</ele><time>2026-04-12T06:11:32.063Z</time></trkpt><trkpt lat="44.9823483" lon="8.0876433"><ele>269.6</ele><time>2026-04-12T06:11:34.064Z</time></trkpt><trkpt lat="44.9822483" lon="8.0876"><ele>270.4</ele><time>2026-04-12T06:11:36.063Z</time></trkpt><trkpt lat="44.98215" lon="8.0875483"><ele>271.2</ele><time>2026-04-12T06:11:38.064Z</time></trkpt><trkpt lat="44.9820517" lon="8.0875"><ele>272.0</ele><time>2026-04-12T06:11:40.064Z</time></trkpt><trkpt lat="44.9819417" lon="8.0874517"><ele>269.6</ele><time>2026-04-12T06:11:42.065Z</time></trkpt><trkpt lat="44.981835" lon="8.0874"><ele>267.2</ele><time>2026-04-12T06:11:44.065Z</time></trkpt><trkpt lat="44.9817283" lon="8.0873533"><ele>264.8</ele><time>2026-04-12T06:11:46.061Z</time></trkpt><trkpt lat="44.9816267" lon="8.0873133"><ele>262.4</ele><time>2026-04-12T06:11:48.064Z</time></trkpt><trkpt lat="44.9815217" lon="8.087275"><ele>260.0</ele><time>2026-04-12T06:11:50.065Z</time></trkpt><trkpt lat="44.9814183" lon="8.087235"><ele>259.2</ele><time>2026-04-12T06:11:52.065Z</time></trkpt><trkpt lat="44.9813133" lon="8.08719"><ele>258.4</ele><time>2026-04-12T06:11:54.064Z</time></trkpt><trkpt lat="44.9812117" lon="8.08715"><ele>257.6</ele><time>2026-04-12T06:11:56.064Z</time></trkpt><trkpt lat="44.9811167" lon="8.0871083"><ele>256.8</ele><time>2026-04-12T06:11:58.062Z</time></trkpt><trkpt lat="44.981025" lon="8.08707"><ele>256.0</ele><time>2026-04-12T06:12:00.062Z</time></trkpt><trkpt lat="44.98094" lon="8.0870367"><ele>255.99999999999997</ele><time>2026-04-12T06:12:02.062Z</time></trkpt><trkpt lat="44.98086" lon="8.0869833"><ele>256.0</ele><time>2026-04-12T06:12:04.064Z</time></trkpt><trkpt lat="44.9807883" lon="8.0869067"><ele>256.0</ele><time>2026-04-12T06:12:06.065Z</time></trkpt><trkpt lat="44.9807233" lon="8.0868183"><ele>256.0</ele><time>2026-04-12T06:12:08.064Z</time></trkpt><trkpt lat="44.980675" lon="8.0867217"><ele>255.99999999999997</ele><time>2026-04-12T06:12:10.064Z</time></trkpt><trkpt lat="44.9806333" lon="8.086615"><ele>256.0</ele><time>2026-04-12T06:12:12.064Z</time></trkpt><trkpt lat="44.9806033" lon="8.086495"><ele>258.8</ele><time>2026-04-12T06:12:14.065Z</time></trkpt><trkpt lat="44.9805833" lon="8.0863667"><ele>261.6</ele><time>2026-04-12T06:12:16.063Z</time></trkpt><trkpt lat="44.9805767" lon="8.086235"><ele>264.4</ele><time>2026-04-12T06:12:18.064Z</time></trkpt><trkpt lat="44.9805783" lon="8.0860933"><ele>267.2</ele><time>2026-04-12T06:12:20.063Z</time></trkpt><trkpt lat="44.9805817" lon="8.08594"><ele>270.0</ele><time>2026-04-12T06:12:22.062Z</time></trkpt><trkpt lat="44.9805867" lon="8.0857783"><ele>269.1666666666667</ele><time>2026-04-12T06:12:24.064Z</time></trkpt><trkpt lat="44.9805967" lon="8.0856033"><ele>268.3333333333333</ele><time>2026-04-12T06:12:26.064Z</time></trkpt><trkpt lat="44.9806" lon="8.0855133"><ele>267.5</ele><time>2026-04-12T06:12:27.063Z</time></trkpt><trkpt lat="44.9806033" lon="8.0854233"><ele>266.66666666666663</ele><time>2026-04-12T06:12:28.063Z</time></trkpt><trkpt lat="44.980605" lon="8.08533"><ele>265.8333333333333</ele><time>2026-04-12T06:12:29.063Z</time></trkpt><trkpt lat="44.9806033" lon="8.0852333"><ele>265.0</ele><time>2026-04-12T06:12:30.066Z</time></trkpt><trkpt lat="44.9805833" lon="8.08506"><ele>265.2</ele><time>2026-04-12T06:12:32.063Z</time></trkpt><trkpt lat="44.980545" lon="8.084895"><ele>265.4</ele><time>2026-04-12T06:12:34.064Z</time></trkpt><trkpt lat="44.9804933" lon="8.08474"><ele>265.6</ele><time>2026-04-12T06:12:36.063Z</time></trkpt><trkpt lat="44.9804267" lon="8.0845933"><ele>265.8</ele><time>2026-04-12T06:12:38.063Z</time></trkpt><trkpt lat="44.9803867" lon="8.0845233"><ele>266.0</ele><time>2026-04-12T06:12:39.064Z</time></trkpt><trkpt lat="44.9803083" lon="8.084395"><ele>266.0</ele><time>2026-04-12T06:12:41.062Z</time></trkpt><trkpt lat="44.980225" lon="8.0842733"><ele>266.0</ele><time>2026-04-12T06:12:43.063Z</time></trkpt><trkpt lat="44.9801467" lon="8.0841483"><ele>266.0</ele><time>2026-04-12T06:12:45.066Z</time></trkpt><trkpt lat="44.9800717" lon="8.0840317"><ele>266.0</ele><time>2026-04-12T06:12:47.062Z</time></trkpt><trkpt lat="44.9799967" lon="8.083905"><ele>267.8</ele><time>2026-04-12T06:12:49.063Z</time></trkpt><trkpt lat="44.9799183" lon="8.0837767"><ele>269.6</ele><time>2026-04-12T06:12:51.063Z</time></trkpt><trkpt lat="44.979835" lon="8.08365"><ele>271.4</ele><time>2026-04-12T06:12:53.064Z</time></trkpt><trkpt lat="44.9797467" lon="8.0835217"><ele>273.2</ele><time>2026-04-12T06:12:55.064Z</time></trkpt><trkpt lat="44.9796983" lon="8.0834617"><ele>275.0</ele><time>2026-04-12T06:12:56.063Z</time></trkpt><trkpt lat="44.9796483" lon="8.0834067"><ele>275.0</ele><time>2026-04-12T06:12:57.063Z</time></trkpt><trkpt lat="44.9795983" lon="8.08335"><ele>275.0</ele><time>2026-04-12T06:12:58.064Z</time></trkpt><trkpt lat="44.9794983" lon="8.083255"><ele>275.0</ele><time>2026-04-12T06:13:00.065Z</time></trkpt><trkpt lat="44.9794033" lon="8.0831633"><ele>275.0</ele><time>2026-04-12T06:13:02.063Z</time></trkpt><trkpt lat="44.979315" lon="8.0830783"><ele>275.0</ele><time>2026-04-12T06:13:04.062Z</time></trkpt><trkpt lat="44.979215" lon="8.0829983"><ele>273.6666666666667</ele><time>2026-04-12T06:13:06.062Z</time></trkpt><trkpt lat="44.9791067" lon="8.08291"><ele>272.33333333333337</ele><time>2026-04-12T06:13:08.064Z</time></trkpt><trkpt lat="44.9790433" lon="8.0828617"><ele>271.0</ele><time>2026-04-12T06:13:09.062Z</time></trkpt><trkpt lat="44.9789817" lon="8.0828067"><ele>269.6666666666667</ele><time>2026-04-12T06:13:10.062Z</time></trkpt><trkpt lat="44.978915" lon="8.0827483"><ele>268.3333333333333</ele><time>2026-04-12T06:13:11.061Z</time></trkpt><trkpt lat="44.9788483" lon="8.0826867"><ele>267.0</ele><time>2026-04-12T06:13:12.061Z</time></trkpt><trkpt lat="44.97878" lon="8.082615"><ele>267.0</ele><time>2026-04-12T06:13:13.065Z</time></trkpt><trkpt lat="44.9787083" lon="8.0825383"><ele>267.0</ele><time>2026-04-12T06:13:14.063Z</time></trkpt><trkpt lat="44.9786367" lon="8.0824583"><ele>267.0</ele><time>2026-04-12T06:13:15.062Z</time></trkpt><trkpt lat="44.9785633" lon="8.0823817"><ele>267.0</ele><time>2026-04-12T06:13:16.065Z</time></trkpt><trkpt lat="44.9784867" lon="8.0823117"><ele>267.0</ele><time>2026-04-12T06:13:17.065Z</time></trkpt><trkpt lat="44.9784133" lon="8.082245"><ele>265.3333333333333</ele><time>2026-04-12T06:13:18.063Z</time></trkpt><trkpt lat="44.9783383" lon="8.0821817"><ele>263.6666666666667</ele><time>2026-04-12T06:13:19.065Z</time></trkpt><trkpt lat="44.978265" lon="8.08212"><ele>262.0</ele><time>2026-04-12T06:13:20.062Z</time></trkpt><trkpt lat="44.978195" lon="8.0820567"><ele>260.33333333333337</ele><time>2026-04-12T06:13:21.063Z</time></trkpt><trkpt lat="44.97813" lon="8.0819967"><ele>258.6666666666667</ele><time>2026-04-12T06:13:22.059Z</time></trkpt><trkpt lat="44.9780667" lon="8.0819367"><ele>257.0</ele><time>2026-04-12T06:13:23.061Z</time></trkpt><trkpt lat="44.9780033" lon="8.08188"><ele>257.0</ele><time>2026-04-12T06:13:24.063Z</time></trkpt><trkpt lat="44.9779433" lon="8.0818283"><ele>257.0</ele><time>2026-04-12T06:13:25.065Z</time></trkpt><trkpt lat="44.9778833" lon="8.0817767"><ele>257.0</ele><time>2026-04-12T06:13:26.064Z</time></trkpt><trkpt lat="44.977825" lon="8.0817283"><ele>257.0</ele><time>2026-04-12T06:13:27.066Z</time></trkpt><trkpt lat="44.9777133" lon="8.081655"><ele>257.0</ele><time>2026-04-12T06:13:29.065Z</time></trkpt><trkpt lat="44.9776133" lon="8.0815717"><ele>257.0</ele><time>2026-04-12T06:13:31.062Z</time></trkpt><trkpt lat="44.9775233" lon="8.0814933"><ele>258.2</ele><time>2026-04-12T06:13:33.064Z</time></trkpt><trkpt lat="44.9774383" lon="8.0814283"><ele>259.4</ele><time>2026-04-12T06:13:35.062Z</time></trkpt><trkpt lat="44.9773683" lon="8.08136"><ele>260.6</ele><time>2026-04-12T06:13:37.063Z</time></trkpt><trkpt lat="44.97729" lon="8.0812967"><ele>261.8</ele><time>2026-04-12T06:13:39.063Z</time></trkpt><trkpt lat="44.977205" lon="8.0812533"><ele>263.0</ele><time>2026-04-12T06:13:41.065Z</time></trkpt><trkpt lat="44.977105" lon="8.0812467"><ele>263.0</ele><time>2026-04-12T06:13:43.065Z</time></trkpt><trkpt lat="44.9769967" lon="8.0812767"><ele>263.0</ele><time>2026-04-12T06:13:45.063Z</time></trkpt><trkpt lat="44.9768983" lon="8.0813417"><ele>263.0</ele><time>2026-04-12T06:13:47.061Z</time></trkpt><trkpt lat="44.9767983" lon="8.0814183"><ele>263.0</ele><time>2026-04-12T06:13:49.062Z</time></trkpt><trkpt lat="44.9766933" lon="8.0815067"><ele>262.0</ele><time>2026-04-12T06:13:51.065Z</time></trkpt><trkpt lat="44.97664" lon="8.081555"><ele>261.0</ele><time>2026-04-12T06:13:52.064Z</time></trkpt><trkpt lat="44.9765833" lon="8.0816067"><ele>260.0</ele><time>2026-04-12T06:13:53.063Z</time></trkpt><trkpt lat="44.9765267" lon="8.08167"><ele>259.0</ele><time>2026-04-12T06:13:54.062Z</time></trkpt><trkpt lat="44.9764683" lon="8.0817367"><ele>258.0</ele><time>2026-04-12T06:13:55.061Z</time></trkpt><trkpt lat="44.976405" lon="8.0818017"><ele>257.0</ele><time>2026-04-12T06:13:56.063Z</time></trkpt><trkpt lat="44.9763383" lon="8.0818583"><ele>256.0</ele><time>2026-04-12T06:13:57.064Z</time></trkpt><trkpt lat="44.97627" lon="8.0819133"><ele>255.99999999999997</ele><time>2026-04-12T06:13:58.063Z</time></trkpt><trkpt lat="44.976195" lon="8.08196"><ele>256.0</ele><time>2026-04-12T06:13:59.064Z</time></trkpt><trkpt lat="44.97612" lon="8.0819983"><ele>256.0</ele><time>2026-04-12T06:14:00.064Z</time></trkpt><trkpt lat="44.9760433" lon="8.082025"><ele>256.0</ele><time>2026-04-12T06:14:01.064Z</time></trkpt><trkpt lat="44.9759633" lon="8.0820483"><ele>255.99999999999997</ele><time>2026-04-12T06:14:02.064Z</time></trkpt><trkpt lat="44.9758867" lon="8.0820633"><ele>256.0</ele><time>2026-04-12T06:14:03.063Z</time></trkpt><trkpt lat="44.975815" lon="8.08207"><ele>256.0</ele><time>2026-04-12T06:14:04.065Z</time></trkpt><trkpt lat="44.9757" lon="8.0820767"><ele>256.0</ele><time>2026-04-12T06:14:06.064Z</time></trkpt><trkpt lat="44.97559" lon="8.0820617"><ele>256.0</ele><time>2026-04-12T06:14:08.06Z</time></trkpt><trkpt lat="44.9754717" lon="8.0820283"><ele>256.0</ele><time>2026-04-12T06:14:10.062Z</time></trkpt><trkpt lat="44.97541" lon="8.0820083"><ele>256.0</ele><time>2026-04-12T06:14:11.061Z</time></trkpt><trkpt lat="44.9753467" lon="8.0819883"><ele>255.99999999999997</ele><time>2026-04-12T06:14:12.063Z</time></trkpt><trkpt lat="44.9752783" lon="8.08197"><ele>256.0</ele><time>2026-04-12T06:14:13.061Z</time></trkpt><trkpt lat="44.9752117" lon="8.08195"><ele>256.0</ele><time>2026-04-12T06:14:14.063Z</time></trkpt><trkpt lat="44.9751483" lon="8.0819283"><ele>256.0</ele><time>2026-04-12T06:14:15.063Z</time></trkpt><trkpt lat="44.975085" lon="8.08191"><ele>255.99999999999997</ele><time>2026-04-12T06:14:16.065Z</time></trkpt><trkpt lat="44.9749733" lon="8.08187"><ele>256.0</ele><time>2026-04-12T06:14:18.064Z</time></trkpt><trkpt lat="44.9748583" lon="8.0818267"><ele>256.66666666666663</ele><time>2026-04-12T06:14:20.062Z</time></trkpt><trkpt lat="44.97474" lon="8.0817533"><ele>257.3333333333333</ele><time>2026-04-12T06:14:22.063Z</time></trkpt><trkpt lat="44.9746817" lon="8.0816933"><ele>258.0</ele><time>2026-04-12T06:14:23.063Z</time></trkpt><trkpt lat="44.9746283" lon="8.0816233"><ele>258.6666666666667</ele><time>2026-04-12T06:14:24.062Z</time></trkpt><trkpt lat="44.9745867" lon="8.0815517"><ele>259.33333333333337</ele><time>2026-04-12T06:14:25.066Z</time></trkpt><trkpt lat="44.9745383" lon="8.0814783"><ele>260.0</ele><time>2026-04-12T06:14:26.064Z</time></trkpt><trkpt lat="44.9744583" lon="8.08137"><ele>259.8</ele><time>2026-04-12T06:14:28.064Z</time></trkpt><trkpt lat="44.9743667" lon="8.081335"><ele>259.6</ele><time>2026-04-12T06:14:30.064Z</time></trkpt><trkpt lat="44.9742767" lon="8.0813933"><ele>259.4</ele><time>2026-04-12T06:14:32.064Z</time></trkpt><trkpt lat="44.9742117" lon="8.08153"><ele>259.2</ele><time>2026-04-12T06:14:34.064Z</time></trkpt><trkpt lat="44.974135" lon="8.0816567"><ele>259.0</ele><time>2026-04-12T06:14:36.064Z</time></trkpt><trkpt lat="44.9740533" lon="8.0817817"><ele>259.0</ele><time>2026-04-12T06:14:38.064Z</time></trkpt><trkpt lat="44.97396" lon="8.0819017"><ele>259.0</ele><time>2026-04-12T06:14:40.064Z</time></trkpt><trkpt lat="44.97391" lon="8.08196"><ele>259.0</ele><time>2026-04-12T06:14:41.065Z</time></trkpt><trkpt lat="44.973855" lon="8.0820133"><ele>259.0</ele><time>2026-04-12T06:14:42.064Z</time></trkpt><trkpt lat="44.9737933" lon="8.082055"><ele>259.0</ele><time>2026-04-12T06:14:43.064Z</time></trkpt><trkpt lat="44.9737283" lon="8.082075"><ele>259.0</ele><time>2026-04-12T06:14:44.065Z</time></trkpt><trkpt lat="44.97366" lon="8.08208"><ele>259.0</ele><time>2026-04-12T06:14:45.065Z</time></trkpt><trkpt lat="44.973595" lon="8.0820817"><ele>259.0</ele><time>2026-04-12T06:14:46.066Z</time></trkpt><trkpt lat="44.973525" lon="8.0820767"><ele>259.0</ele><time>2026-04-12T06:14:47.063Z</time></trkpt><trkpt lat="44.97345" lon="8.08208"><ele>259.0</ele><time>2026-04-12T06:14:48.066Z</time></trkpt><trkpt lat="44.9733717" lon="8.08209"><ele>259.0</ele><time>2026-04-12T06:14:49.066Z</time></trkpt><trkpt lat="44.9732917" lon="8.082095"><ele>259.0</ele><time>2026-04-12T06:14:50.069Z</time></trkpt><trkpt lat="44.9732167" lon="8.0821117"><ele>259.0</ele><time>2026-04-12T06:14:51.065Z</time></trkpt><trkpt lat="44.97315" lon="8.0821367"><ele>255.79999999999998</ele><time>2026-04-12T06:14:52.065Z</time></trkpt><trkpt lat="44.9730883" lon="8.08216"><ele>252.59999999999997</ele><time>2026-04-12T06:14:53.064Z</time></trkpt><trkpt lat="44.9729783" lon="8.0821733"><ele>249.4</ele><time>2026-04-12T06:14:55.064Z</time></trkpt><trkpt lat="44.972875" lon="8.0821067"><ele>246.2</ele><time>2026-04-12T06:14:57.065Z</time></trkpt><trkpt lat="44.97276" lon="8.082045"><ele>243.0</ele><time>2026-04-12T06:14:59.063Z</time></trkpt><trkpt lat="44.9726417" lon="8.082015"><ele>243.0</ele><time>2026-04-12T06:15:01.064Z</time></trkpt><trkpt lat="44.9725283" lon="8.0820067"><ele>243.0</ele><time>2026-04-12T06:15:03.064Z</time></trkpt><trkpt lat="44.9724183" lon="8.0820033"><ele>243.0</ele><time>2026-04-12T06:15:05.066Z</time></trkpt><trkpt lat="44.9723117" lon="8.0820283"><ele>243.0</ele><time>2026-04-12T06:15:07.063Z</time></trkpt><trkpt lat="44.97222" lon="8.0820933"><ele>243.0</ele><time>2026-04-12T06:15:09.064Z</time></trkpt><trkpt lat="44.9721383" lon="8.0821733"><ele>244.8</ele><time>2026-04-12T06:15:11.063Z</time></trkpt><trkpt lat="44.9720567" lon="8.0822317"><ele>246.60000000000002</ele><time>2026-04-12T06:15:13.062Z</time></trkpt><trkpt lat="44.971965" lon="8.08226"><ele>248.39999999999998</ele><time>2026-04-12T06:15:15.061Z</time></trkpt><trkpt lat="44.971875" lon="8.08228"><ele>250.2</ele><time>2026-04-12T06:15:17.06Z</time></trkpt><trkpt lat="44.9717833" lon="8.08229"><ele>252.0</ele><time>2026-04-12T06:15:19.064Z</time></trkpt><trkpt lat="44.9716967" lon="8.0822933"><ele>251.6</ele><time>2026-04-12T06:15:21.065Z</time></trkpt><trkpt lat="44.9716017" lon="8.0823017"><ele>251.2</ele><time>2026-04-12T06:15:23.062Z</time></trkpt><trkpt lat="44.9715017" lon="8.082315"><ele>250.8</ele><time>2026-04-12T06:15:25.064Z</time></trkpt><trkpt lat="44.971395" lon="8.082325"><ele>250.4</ele><time>2026-04-12T06:15:27.061Z</time></trkpt><trkpt lat="44.971285" lon="8.0823217"><ele>250.0</ele><time>2026-04-12T06:15:29.061Z</time></trkpt><trkpt lat="44.9712217" lon="8.0823167"><ele>250.0</ele><time>2026-04-12T06:15:30.059Z</time></trkpt><trkpt lat="44.9710983" lon="8.082305"><ele>250.0</ele><time>2026-04-12T06:15:32.062Z</time></trkpt><trkpt lat="44.9709883" lon="8.0822983"><ele>250.0</ele><time>2026-04-12T06:15:34.063Z</time></trkpt><trkpt lat="44.970895" lon="8.0823017"><ele>250.0</ele><time>2026-04-12T06:15:36.063Z</time></trkpt><trkpt lat="44.9708233" lon="8.082315"><ele>250.0</ele><time>2026-04-12T06:15:38.066Z</time></trkpt><trkpt lat="44.9707583" lon="8.08232"><ele>249.33333333333331</ele><time>2026-04-12T06:15:40.061Z</time></trkpt><trkpt lat="44.970685" lon="8.082315"><ele>248.66666666666666</ele><time>2026-04-12T06:15:42.064Z</time></trkpt><trkpt lat="44.970595" lon="8.082315"><ele>248.0</ele><time>2026-04-12T06:15:44.066Z</time></trkpt><trkpt lat="44.9705033" lon="8.082325"><ele>247.33333333333331</ele><time>2026-04-12T06:15:46.063Z</time></trkpt><trkpt lat="44.97041" lon="8.0823283"><ele>246.66666666666666</ele><time>2026-04-12T06:15:48.065Z</time></trkpt><trkpt lat="44.97032" lon="8.0823333"><ele>246.0</ele><time>2026-04-12T06:15:50.064Z</time></trkpt><trkpt lat="44.9702083" lon="8.0823483"><ele>246.00000000000003</ele><time>2026-04-12T06:15:52.061Z</time></trkpt><trkpt lat="44.9701417" lon="8.0823483"><ele>246.0</ele><time>2026-04-12T06:15:53.062Z</time></trkpt><trkpt lat="44.97007" lon="8.0823533"><ele>246.00000000000003</ele><time>2026-04-12T06:15:54.062Z</time></trkpt><trkpt lat="44.969995" lon="8.0823667"><ele>246.00000000000003</ele><time>2026-04-12T06:15:55.061Z</time></trkpt><trkpt lat="44.9699167" lon="8.08239"><ele>246.0</ele><time>2026-04-12T06:15:56.063Z</time></trkpt><trkpt lat="44.9698417" lon="8.0824183"><ele>246.00000000000003</ele><time>2026-04-12T06:15:57.063Z</time></trkpt><trkpt lat="44.9697717" lon="8.082455"><ele>246.00000000000003</ele><time>2026-04-12T06:15:58.061Z</time></trkpt><trkpt lat="44.9697017" lon="8.082495"><ele>246.5714285714286</ele><time>2026-04-12T06:15:59.062Z</time></trkpt><trkpt lat="44.9696383" lon="8.0825433"><ele>247.14285714285717</ele><time>2026-04-12T06:16:00.064Z</time></trkpt><trkpt lat="44.9695733" lon="8.0825833"><ele>247.71428571428572</ele><time>2026-04-12T06:16:01.065Z</time></trkpt><trkpt lat="44.969505" lon="8.0826267"><ele>248.2857142857143</ele><time>2026-04-12T06:16:02.063Z</time></trkpt><trkpt lat="44.9694333" lon="8.0826633"><ele>248.8571428571429</ele><time>2026-04-12T06:16:03.064Z</time></trkpt><trkpt lat="44.969365" lon="8.082695"><ele>249.42857142857142</ele><time>2026-04-12T06:16:04.061Z</time></trkpt><trkpt lat="44.9692967" lon="8.082725"><ele>250.0</ele><time>2026-04-12T06:16:05.063Z</time></trkpt><trkpt lat="44.96923" lon="8.0827533"><ele>249.42857142857142</ele><time>2026-04-12T06:16:06.064Z</time></trkpt><trkpt lat="44.9691617" lon="8.0827883"><ele>248.8571428571429</ele><time>2026-04-12T06:16:07.064Z</time></trkpt><trkpt lat="44.9691017" lon="8.0828267"><ele>248.2857142857143</ele><time>2026-04-12T06:16:08.062Z</time></trkpt><trkpt lat="44.96904" lon="8.0828683"><ele>247.71428571428572</ele><time>2026-04-12T06:16:09.062Z</time></trkpt><trkpt lat="44.9689767" lon="8.0829033"><ele>247.14285714285717</ele><time>2026-04-12T06:16:10.062Z</time></trkpt><trkpt lat="44.9689117" lon="8.0829367"><ele>246.5714285714286</ele><time>2026-04-12T06:16:11.063Z</time></trkpt><trkpt lat="44.9688433" lon="8.0829683"><ele>246.00000000000003</ele><time>2026-04-12T06:16:12.063Z</time></trkpt><trkpt lat="44.9687733" lon="8.0829983"><ele>246.0</ele><time>2026-04-12T06:16:13.063Z</time></trkpt><trkpt lat="44.968705" lon="8.083015"><ele>246.0</ele><time>2026-04-12T06:16:14.063Z</time></trkpt><trkpt lat="44.9686383" lon="8.0830217"><ele>246.0</ele><time>2026-04-12T06:16:15.062Z</time></trkpt><trkpt lat="44.96857" lon="8.083025"><ele>246.0</ele><time>2026-04-12T06:16:16.064Z</time></trkpt><trkpt lat="44.9684483" lon="8.0830017"><ele>246.0</ele><time>2026-04-12T06:16:18.061Z</time></trkpt><trkpt lat="44.968385" lon="8.0829867"><ele>246.0</ele><time>2026-04-12T06:16:19.062Z</time></trkpt><trkpt lat="44.96832" lon="8.08298"><ele>245.4</ele><time>2026-04-12T06:16:20.063Z</time></trkpt><trkpt lat="44.9682017" lon="8.08297"><ele>244.8</ele><time>2026-04-12T06:16:22.063Z</time></trkpt><trkpt lat="44.9680967" lon="8.08299"><ele>244.20000000000002</ele><time>2026-04-12T06:16:24.064Z</time></trkpt><trkpt lat="44.968" lon="8.08301"><ele>243.60000000000002</ele><time>2026-04-12T06:16:26.064Z</time></trkpt><trkpt lat="44.9679033" lon="8.0830633"><ele>243.0</ele><time>2026-04-12T06:16:28.063Z</time></trkpt><trkpt lat="44.9678017" lon="8.0831133"><ele>243.0</ele><time>2026-04-12T06:16:30.064Z</time></trkpt><trkpt lat="44.9676933" lon="8.0831817"><ele>243.0</ele><time>2026-04-12T06:16:32.064Z</time></trkpt><trkpt lat="44.9675867" lon="8.0832533"><ele>243.0</ele><time>2026-04-12T06:16:34.062Z</time></trkpt><trkpt lat="44.96753" lon="8.0832933"><ele>243.0</ele><time>2026-04-12T06:16:35.063Z</time></trkpt><trkpt lat="44.9674733" lon="8.083335"><ele>243.0</ele><time>2026-04-12T06:16:36.063Z</time></trkpt><trkpt lat="44.9674183" lon="8.083385"><ele>243.0</ele><time>2026-04-12T06:16:37.065Z</time></trkpt><trkpt lat="44.9673583" lon="8.0834333"><ele>243.71428571428572</ele><time>2026-04-12T06:16:38.063Z</time></trkpt><trkpt lat="44.9673" lon="8.0834783"><ele>244.42857142857144</ele><time>2026-04-12T06:16:39.064Z</time></trkpt><trkpt lat="44.9672433" lon="8.083525"><ele>245.14285714285717</ele><time>2026-04-12T06:16:40.062Z</time></trkpt><trkpt lat="44.9671883" lon="8.0835767"><ele>245.85714285714286</ele><time>2026-04-12T06:16:41.062Z</time></trkpt><trkpt lat="44.9671333" lon="8.0836383"><ele>246.5714285714286</ele><time>2026-04-12T06:16:42.063Z</time></trkpt><trkpt lat="44.9670783" lon="8.0837017"><ele>247.2857142857143</ele><time>2026-04-12T06:16:43.064Z</time></trkpt><trkpt lat="44.9670217" lon="8.083765"><ele>248.0</ele><time>2026-04-12T06:16:44.061Z</time></trkpt><trkpt lat="44.966965" lon="8.0838233"><ele>248.0</ele><time>2026-04-12T06:16:45.064Z</time></trkpt><trkpt lat="44.9669083" lon="8.08388"><ele>248.00000000000003</ele><time>2026-04-12T06:16:46.064Z</time></trkpt><trkpt lat="44.9668467" lon="8.08393"><ele>248.0</ele><time>2026-04-12T06:16:47.062Z</time></trkpt><trkpt lat="44.9667867" lon="8.0839783"><ele>248.0</ele><time>2026-04-12T06:16:48.063Z</time></trkpt><trkpt lat="44.966725" lon="8.084025"><ele>248.00000000000003</ele><time>2026-04-12T06:16:49.063Z</time></trkpt><trkpt lat="44.96667" lon="8.0840717"><ele>248.0</ele><time>2026-04-12T06:16:50.063Z</time></trkpt><trkpt lat="44.9666067" lon="8.0841117"><ele>248.0</ele><time>2026-04-12T06:16:51.064Z</time></trkpt><trkpt lat="44.9665433" lon="8.0841433"><ele>247.16666666666669</ele><time>2026-04-12T06:16:52.062Z</time></trkpt><trkpt lat="44.9664733" lon="8.0841683"><ele>246.33333333333334</ele><time>2026-04-12T06:16:53.062Z</time></trkpt><trkpt lat="44.9664033" lon="8.0841883"><ele>245.5</ele><time>2026-04-12T06:16:54.062Z</time></trkpt><trkpt lat="44.96634" lon="8.0842033"><ele>244.66666666666669</ele><time>2026-04-12T06:16:55.062Z</time></trkpt><trkpt lat="44.966275" lon="8.084215"><ele>243.83333333333334</ele><time>2026-04-12T06:16:56.062Z</time></trkpt><trkpt lat="44.9661617" lon="8.0842283"><ele>243.0</ele><time>2026-04-12T06:16:58.064Z</time></trkpt><trkpt lat="44.9660483" lon="8.0842717"><ele>243.0</ele><time>2026-04-12T06:17:00.06Z</time></trkpt><trkpt lat="44.9659383" lon="8.0843283"><ele>243.0</ele><time>2026-04-12T06:17:02.062Z</time></trkpt><trkpt lat="44.965835" lon="8.0843833"><ele>243.0</ele><time>2026-04-12T06:17:04.063Z</time></trkpt><trkpt lat="44.9657133" lon="8.0844183"><ele>243.0</ele><time>2026-04-12T06:17:06.065Z</time></trkpt><trkpt lat="44.9656483" lon="8.084425"><ele>243.0</ele><time>2026-04-12T06:17:07.064Z</time></trkpt><trkpt lat="44.96558" lon="8.08443"><ele>243.42857142857142</ele><time>2026-04-12T06:17:08.064Z</time></trkpt><trkpt lat="44.9655133" lon="8.0844283"><ele>243.8571428571429</ele><time>2026-04-12T06:17:09.064Z</time></trkpt><trkpt lat="44.96545" lon="8.0844183"><ele>244.2857142857143</ele><time>2026-04-12T06:17:10.062Z</time></trkpt><trkpt lat="44.9653733" lon="8.0843983"><ele>244.71428571428572</ele><time>2026-04-12T06:17:11.061Z</time></trkpt><trkpt lat="44.9653117" lon="8.0843683"><ele>245.14285714285717</ele><time>2026-04-12T06:17:12.063Z</time></trkpt><trkpt lat="44.9652483" lon="8.0843433"><ele>245.5714285714286</ele><time>2026-04-12T06:17:13.063Z</time></trkpt><trkpt lat="44.965185" lon="8.0843233"><ele>246.00000000000003</ele><time>2026-04-12T06:17:14.063Z</time></trkpt><trkpt lat="44.9650633" lon="8.0843067"><ele>245.4</ele><time>2026-04-12T06:17:16.062Z</time></trkpt><trkpt lat="44.964945" lon="8.0843267"><ele>244.8</ele><time>2026-04-12T06:17:18.063Z</time></trkpt><trkpt lat="44.9648367" lon="8.0843783"><ele>244.20000000000002</ele><time>2026-04-12T06:17:20.061Z</time></trkpt><trkpt lat="44.964725" lon="8.08446"><ele>243.60000000000002</ele><time>2026-04-12T06:17:22.064Z</time></trkpt><trkpt lat="44.9646733" lon="8.084515"><ele>243.0</ele><time>2026-04-12T06:17:23.062Z</time></trkpt><trkpt lat="44.964625" lon="8.0845767"><ele>243.0</ele><time>2026-04-12T06:17:24.063Z</time></trkpt><trkpt lat="44.964575" lon="8.084635"><ele>243.0</ele><time>2026-04-12T06:17:25.062Z</time></trkpt><trkpt lat="44.9645267" lon="8.0846983"><ele>243.0</ele><time>2026-04-12T06:17:26.063Z</time></trkpt><trkpt lat="44.9644767" lon="8.0847667"><ele>243.0</ele><time>2026-04-12T06:17:27.065Z</time></trkpt><trkpt lat="44.9644217" lon="8.0848383"><ele>243.0</ele><time>2026-04-12T06:17:28.063Z</time></trkpt><trkpt lat="44.96437" lon="8.0849067"><ele>243.0</ele><time>2026-04-12T06:17:29.061Z</time></trkpt><trkpt lat="44.964315" lon="8.0849733"><ele>243.0</ele><time>2026-04-12T06:17:30.062Z</time></trkpt><trkpt lat="44.964255" lon="8.0850267"><ele>242.71428571428572</ele><time>2026-04-12T06:17:31.066Z</time></trkpt><trkpt lat="44.9641917" lon="8.0850717"><ele>242.42857142857144</ele><time>2026-04-12T06:17:32.063Z</time></trkpt><trkpt lat="44.9641333" lon="8.085105"><ele>242.14285714285717</ele><time>2026-04-12T06:17:33.065Z</time></trkpt><trkpt lat="44.9640683" lon="8.085115"><ele>241.85714285714286</ele><time>2026-04-12T06:17:34.065Z</time></trkpt><trkpt lat="44.964" lon="8.0851167"><ele>241.5714285714286</ele><time>2026-04-12T06:17:35.062Z</time></trkpt><trkpt lat="44.9639333" lon="8.0851083"><ele>241.2857142857143</ele><time>2026-04-12T06:17:36.065Z</time></trkpt><trkpt lat="44.96387" lon="8.0850983"><ele>241.0</ele><time>2026-04-12T06:17:37.064Z</time></trkpt><trkpt lat="44.9638067" lon="8.08508"><ele>240.99999999999997</ele><time>2026-04-12T06:17:38.063Z</time></trkpt><trkpt lat="44.9636967" lon="8.0850167"><ele>241.0</ele><time>2026-04-12T06:17:40.062Z</time></trkpt><trkpt lat="44.9636333" lon="8.0849783"><ele>241.0</ele><time>2026-04-12T06:17:41.061Z</time></trkpt><trkpt lat="44.963575" lon="8.08493"><ele>241.0</ele><time>2026-04-12T06:17:42.062Z</time></trkpt><trkpt lat="44.9635217" lon="8.0848817"><ele>240.99999999999997</ele><time>2026-04-12T06:17:43.062Z</time></trkpt><trkpt lat="44.9634683" lon="8.08483"><ele>241.0</ele><time>2026-04-12T06:17:44.061Z</time></trkpt><trkpt lat="44.9633717" lon="8.084725"><ele>240.99999999999997</ele><time>2026-04-12T06:17:46.064Z</time></trkpt><trkpt lat="44.963275" lon="8.0846217"><ele>241.0</ele><time>2026-04-12T06:17:48.063Z</time></trkpt><trkpt lat="44.9631717" lon="8.08452"><ele>241.0</ele><time>2026-04-12T06:17:50.063Z</time></trkpt><trkpt lat="44.9631217" lon="8.084465"><ele>241.0</ele><time>2026-04-12T06:17:51.061Z</time></trkpt><trkpt lat="44.96307" lon="8.0844"><ele>240.99999999999997</ele><time>2026-04-12T06:17:52.061Z</time></trkpt><trkpt lat="44.963025" lon="8.0843367"><ele>241.0</ele><time>2026-04-12T06:17:53.061Z</time></trkpt><trkpt lat="44.9629783" lon="8.0842717"><ele>240.99999999999997</ele><time>2026-04-12T06:17:54.062Z</time></trkpt><trkpt lat="44.9629317" lon="8.0842"><ele>241.0</ele><time>2026-04-12T06:17:55.063Z</time></trkpt><trkpt lat="44.9628917" lon="8.0841283"><ele>241.0</ele><time>2026-04-12T06:17:56.064Z</time></trkpt><trkpt lat="44.9628233" lon="8.0839783"><ele>241.0</ele><time>2026-04-12T06:17:58.063Z</time></trkpt><trkpt lat="44.9627983" lon="8.0838933"><ele>240.99999999999997</ele><time>2026-04-12T06:17:59.062Z</time></trkpt><trkpt lat="44.9627767" lon="8.0838083"><ele>241.0</ele><time>2026-04-12T06:18:00.064Z</time></trkpt><trkpt lat="44.96271" lon="8.0836583"><ele>239.83333333333331</ele><time>2026-04-12T06:18:02.063Z</time></trkpt><trkpt lat="44.962615" lon="8.0835717"><ele>238.66666666666666</ele><time>2026-04-12T06:18:04.06Z</time></trkpt><trkpt lat="44.9624917" lon="8.0835383"><ele>237.5</ele><time>2026-04-12T06:18:06.06Z</time></trkpt><trkpt lat="44.96243" lon="8.08352"><ele>236.33333333333331</ele><time>2026-04-12T06:18:07.062Z</time></trkpt><trkpt lat="44.962365" lon="8.0835"><ele>235.16666666666666</ele><time>2026-04-12T06:18:08.062Z</time></trkpt><trkpt lat="44.962295" lon="8.083475"><ele>234.0</ele><time>2026-04-12T06:18:09.063Z</time></trkpt><trkpt lat="44.962225" lon="8.083445"><ele>233.57142857142858</ele><time>2026-04-12T06:18:10.063Z</time></trkpt><trkpt lat="44.962155" lon="8.0834133"><ele>233.14285714285717</ele><time>2026-04-12T06:18:11.061Z</time></trkpt><trkpt lat="44.96209" lon="8.0833767"><ele>232.71428571428572</ele><time>2026-04-12T06:18:12.06Z</time></trkpt><trkpt lat="44.9620267" lon="8.08334"><ele>232.28571428571428</ele><time>2026-04-12T06:18:13.064Z</time></trkpt><trkpt lat="44.96196" lon="8.083295"><ele>231.85714285714286</ele><time>2026-04-12T06:18:14.062Z</time></trkpt><trkpt lat="44.96189" lon="8.08324"><ele>231.42857142857144</ele><time>2026-04-12T06:18:15.064Z</time></trkpt><trkpt lat="44.96182" lon="8.0831833"><ele>231.0</ele><time>2026-04-12T06:18:16.062Z</time></trkpt><trkpt lat="44.961755" lon="8.083135"><ele>230.66666666666666</ele><time>2026-04-12T06:18:17.062Z</time></trkpt><trkpt lat="44.961695" lon="8.08308"><ele>230.33333333333331</ele><time>2026-04-12T06:18:18.063Z</time></trkpt><trkpt lat="44.9616367" lon="8.08303"><ele>230.0</ele><time>2026-04-12T06:18:19.063Z</time></trkpt><trkpt lat="44.9615833" lon="8.0829733"><ele>229.66666666666666</ele><time>2026-04-12T06:18:20.061Z</time></trkpt><trkpt lat="44.9615017" lon="8.0828417"><ele>229.33333333333331</ele><time>2026-04-12T06:18:22.064Z</time></trkpt><trkpt lat="44.9614483" lon="8.0826917"><ele>229.0</ele><time>2026-04-12T06:18:24.062Z</time></trkpt><trkpt lat="44.9614567" lon="8.0825517"><ele>228.6</ele><time>2026-04-12T06:18:26.063Z</time></trkpt><trkpt lat="44.9614917" lon="8.08239"><ele>228.2</ele><time>2026-04-12T06:18:28.063Z</time></trkpt><trkpt lat="44.9614967" lon="8.0822333"><ele>227.79999999999998</ele><time>2026-04-12T06:18:30.062Z</time></trkpt><trkpt lat="44.9614633" lon="8.0820883"><ele>227.39999999999998</ele><time>2026-04-12T06:18:32.061Z</time></trkpt><trkpt lat="44.96141" lon="8.081955"><ele>227.0</ele><time>2026-04-12T06:18:34.063Z</time></trkpt><trkpt lat="44.9613317" lon="8.0818333"><ele>227.0</ele><time>2026-04-12T06:18:36.063Z</time></trkpt><trkpt lat="44.9612283" lon="8.08174"><ele>227.0</ele><time>2026-04-12T06:18:38.062Z</time></trkpt><trkpt lat="44.9611133" lon="8.081665"><ele>227.0</ele><time>2026-04-12T06:18:40.063Z</time></trkpt><trkpt lat="44.9610533" lon="8.08163"><ele>227.0</ele><time>2026-04-12T06:18:41.062Z</time></trkpt><trkpt lat="44.9609517" lon="8.0815617"><ele>227.0</ele><time>2026-04-12T06:18:43.063Z</time></trkpt><trkpt lat="44.9608733" lon="8.0815433"><ele>227.0</ele><time>2026-04-12T06:18:45.064Z</time></trkpt><trkpt lat="44.96083" lon="8.0816267"><ele>227.0</ele><time>2026-04-12T06:18:47.061Z</time></trkpt><trkpt lat="44.960825" lon="8.08177"><ele>227.0</ele><time>2026-04-12T06:18:49.062Z</time></trkpt><trkpt lat="44.96087" lon="8.08193"><ele>227.0</ele><time>2026-04-12T06:18:51.063Z</time></trkpt><trkpt lat="44.960915" lon="8.082085"><ele>227.0</ele><time>2026-04-12T06:18:53.061Z</time></trkpt><trkpt lat="44.960935" lon="8.0822333"><ele>227.0</ele><time>2026-04-12T06:18:55.063Z</time></trkpt><trkpt lat="44.9609383" lon="8.0823783"><ele>227.0</ele><time>2026-04-12T06:18:57.063Z</time></trkpt><trkpt lat="44.9609383" lon="8.08252"><ele>227.0</ele><time>2026-04-12T06:18:59.062Z</time></trkpt><trkpt lat="44.9609117" lon="8.0826317"><ele>227.0</ele><time>2026-04-12T06:19:01.063Z</time></trkpt><trkpt lat="44.960855" lon="8.082685"><ele>227.0</ele><time>2026-04-12T06:19:03.063Z</time></trkpt><trkpt lat="44.9607617" lon="8.0826067"><ele>224.66666666666669</ele><time>2026-04-12T06:19:06.062Z</time></trkpt><trkpt lat="44.9606917" lon="8.0824867"><ele>222.33333333333334</ele><time>2026-04-12T06:19:08.062Z</time></trkpt><trkpt lat="44.960645" lon="8.082355"><ele>220.0</ele><time>2026-04-12T06:19:10.061Z</time></trkpt><trkpt lat="44.96061" lon="8.0822733"><ele>217.66666666666669</ele><time>2026-04-12T06:19:12.062Z</time></trkpt><trkpt lat="44.9606733" lon="8.0823283"><ele>215.33333333333334</ele><time>2026-04-12T06:19:24.061Z</time></trkpt><trkpt lat="44.960705" lon="8.0824417"><ele>213.0</ele><time>2026-04-12T06:19:28.064Z</time></trkpt><trkpt lat="44.9607367" lon="8.082535"><ele>211.8</ele><time>2026-04-12T06:19:30.062Z</time></trkpt><trkpt lat="44.9607733" lon="8.08264"><ele>210.60000000000002</ele><time>2026-04-12T06:19:32.062Z</time></trkpt><trkpt lat="44.9608133" lon="8.082745"><ele>209.39999999999998</ele><time>2026-04-12T06:19:34.063Z</time></trkpt><trkpt lat="44.9608583" lon="8.08286"><ele>208.2</ele><time>2026-04-12T06:19:36.063Z</time></trkpt><trkpt lat="44.9609" lon="8.0829817"><ele>207.0</ele><time>2026-04-12T06:19:38.064Z</time></trkpt><trkpt lat="44.9609467" lon="8.083105"><ele>210.0</ele><time>2026-04-12T06:19:40.063Z</time></trkpt><trkpt lat="44.9610033" lon="8.0832333"><ele>213.0</ele><time>2026-04-12T06:19:42.062Z</time></trkpt><trkpt lat="44.9610617" lon="8.0833467"><ele>216.0</ele><time>2026-04-12T06:19:44.063Z</time></trkpt><trkpt lat="44.961125" lon="8.0834617"><ele>219.0</ele><time>2026-04-12T06:19:46.061Z</time></trkpt><trkpt lat="44.9611917" lon="8.0835667"><ele>222.0</ele><time>2026-04-12T06:19:48.062Z</time></trkpt><trkpt lat="44.9612583" lon="8.083675"><ele>222.0</ele><time>2026-04-12T06:19:50.064Z</time></trkpt><trkpt lat="44.9613267" lon="8.0837717"><ele>222.0</ele><time>2026-04-12T06:19:52.062Z</time></trkpt><trkpt lat="44.9614" lon="8.0838717"><ele>222.0</ele><time>2026-04-12T06:19:54.063Z</time></trkpt><trkpt lat="44.9614717" lon="8.0839517"><ele>222.0</ele><time>2026-04-12T06:19:56.064Z</time></trkpt><trkpt lat="44.961535" lon="8.084035"><ele>222.0</ele><time>2026-04-12T06:19:58.063Z</time></trkpt><trkpt lat="44.9616083" lon="8.084115"><ele>222.8</ele><time>2026-04-12T06:20:00.062Z</time></trkpt><trkpt lat="44.961685" lon="8.0841967"><ele>223.6</ele><time>2026-04-12T06:20:02.063Z</time></trkpt><trkpt lat="44.96175" lon="8.0843033"><ele>224.40000000000003</ele><time>2026-04-12T06:20:04.062Z</time></trkpt><trkpt lat="44.9618233" lon="8.0844017"><ele>225.20000000000002</ele><time>2026-04-12T06:20:06.061Z</time></trkpt><trkpt lat="44.961905" lon="8.0845133"><ele>226.0</ele><time>2026-04-12T06:20:08.062Z</time></trkpt><trkpt lat="44.9619767" lon="8.0846167"><ele>225.99999999999997</ele><time>2026-04-12T06:20:10.064Z</time></trkpt><trkpt lat="44.962035" lon="8.0847183"><ele>226.0</ele><time>2026-04-12T06:20:12.062Z</time></trkpt><trkpt lat="44.9620967" lon="8.0848067"><ele>226.0</ele><time>2026-04-12T06:20:14.061Z</time></trkpt><trkpt lat="44.9621583" lon="8.0848917"><ele>226.0</ele><time>2026-04-12T06:20:16.061Z</time></trkpt><trkpt lat="44.962225" lon="8.0849783"><ele>225.99999999999997</ele><time>2026-04-12T06:20:18.061Z</time></trkpt><trkpt lat="44.96229" lon="8.08506"><ele>226.0</ele><time>2026-04-12T06:20:20.062Z</time></trkpt><trkpt lat="44.96235" lon="8.0851483"><ele>225.66666666666666</ele><time>2026-04-12T06:20:22.062Z</time></trkpt><trkpt lat="44.9624083" lon="8.0852417"><ele>225.33333333333331</ele><time>2026-04-12T06:20:24.063Z</time></trkpt><trkpt lat="44.9624617" lon="8.0853417"><ele>225.0</ele><time>2026-04-12T06:20:26.062Z</time></trkpt><trkpt lat="44.9625083" lon="8.0854467"><ele>224.66666666666669</ele><time>2026-04-12T06:20:28.062Z</time></trkpt><trkpt lat="44.9625467" lon="8.08556"><ele>224.33333333333334</ele><time>2026-04-12T06:20:30.062Z</time></trkpt><trkpt lat="44.96258" lon="8.0856733"><ele>224.0</ele><time>2026-04-12T06:20:32.062Z</time></trkpt><trkpt lat="44.962595" lon="8.0857833"><ele>224.0</ele><time>2026-04-12T06:20:34.062Z</time></trkpt><trkpt lat="44.9625833" lon="8.08589"><ele>224.0</ele><time>2026-04-12T06:20:36.061Z</time></trkpt><trkpt lat="44.9625683" lon="8.0859867"><ele>224.0</ele><time>2026-04-12T06:20:38.06Z</time></trkpt><trkpt lat="44.9625483" lon="8.0860783"><ele>224.0</ele><time>2026-04-12T06:20:40.063Z</time></trkpt><trkpt lat="44.96252" lon="8.0861733"><ele>224.0</ele><time>2026-04-12T06:20:42.063Z</time></trkpt><trkpt lat="44.9624933" lon="8.0862667"><ele>224.0</ele><time>2026-04-12T06:20:44.062Z</time></trkpt><trkpt lat="44.9624683" lon="8.0863583"><ele>224.0</ele><time>2026-04-12T06:20:46.068Z</time></trkpt><trkpt lat="44.962455" lon="8.0864467"><ele>224.66666666666669</ele><time>2026-04-12T06:20:48.062Z</time></trkpt><trkpt lat="44.962435" lon="8.0865367"><ele>225.33333333333334</ele><time>2026-04-12T06:20:50.06Z</time></trkpt><trkpt lat="44.962405" lon="8.0866533"><ele>226.0</ele><time>2026-04-12T06:20:53.062Z</time></trkpt><trkpt lat="44.9623783" lon="8.0867717"><ele>226.66666666666669</ele><time>2026-04-12T06:20:56.065Z</time></trkpt><trkpt lat="44.9623583" lon="8.0868933"><ele>227.33333333333334</ele><time>2026-04-12T06:20:59.06Z</time></trkpt><trkpt lat="44.9623467" lon="8.087005"><ele>228.0</ele><time>2026-04-12T06:21:02.065Z</time></trkpt><trkpt lat="44.9623367" lon="8.0871333"><ele>228.0</ele><time>2026-04-12T06:21:05.062Z</time></trkpt><trkpt lat="44.96232" lon="8.0872517"><ele>227.99999999999997</ele><time>2026-04-12T06:21:08.062Z</time></trkpt><trkpt lat="44.9623033" lon="8.0873617"><ele>228.0</ele><time>2026-04-12T06:21:11.06Z</time></trkpt><trkpt lat="44.9622883" lon="8.0874633"><ele>228.0</ele><time>2026-04-12T06:21:14.064Z</time></trkpt><trkpt lat="44.96228" lon="8.0875617"><ele>227.99999999999997</ele><time>2026-04-12T06:21:17.062Z</time></trkpt><trkpt lat="44.9622667" lon="8.0876567"><ele>228.0</ele><time>2026-04-12T06:21:20.064Z</time></trkpt><trkpt lat="44.9622517" lon="8.087755"><ele>228.0</ele><time>2026-04-12T06:21:23.062Z</time></trkpt><trkpt lat="44.9622667" lon="8.0878617"><ele>229.66666666666666</ele><time>2026-04-12T06:21:26.062Z</time></trkpt><trkpt lat="44.96226" lon="8.08796"><ele>231.33333333333331</ele><time>2026-04-12T06:21:29.064Z</time></trkpt><trkpt lat="44.96224" lon="8.0880633"><ele>233.0</ele><time>2026-04-12T06:21:32.064Z</time></trkpt><trkpt lat="44.9622417" lon="8.0881767"><ele>234.66666666666666</ele><time>2026-04-12T06:21:35.062Z</time></trkpt><trkpt lat="44.9622317" lon="8.0882867"><ele>236.33333333333331</ele><time>2026-04-12T06:21:38.064Z</time></trkpt><trkpt lat="44.962225" lon="8.088405"><ele>238.0</ele><time>2026-04-12T06:21:41.062Z</time></trkpt><trkpt lat="44.9622367" lon="8.0884983"><ele>238.8</ele><time>2026-04-12T06:21:43.064Z</time></trkpt><trkpt lat="44.962265" lon="8.0885933"><ele>239.60000000000002</ele><time>2026-04-12T06:21:45.06Z</time></trkpt><trkpt lat="44.9623183" lon="8.0887233"><ele>240.39999999999998</ele><time>2026-04-12T06:21:47.061Z</time></trkpt><trkpt lat="44.962385" lon="8.0888783"><ele>241.2</ele><time>2026-04-12T06:21:49.065Z</time></trkpt><trkpt lat="44.9624167" lon="8.0889717"><ele>242.0</ele><time>2026-04-12T06:21:50.063Z</time></trkpt><trkpt lat="44.9624483" lon="8.0890767"><ele>239.8</ele><time>2026-04-12T06:21:51.065Z</time></trkpt><trkpt lat="44.9624667" lon="8.0891983"><ele>237.6</ele><time>2026-04-12T06:21:52.063Z</time></trkpt><trkpt lat="44.9624683" lon="8.0893283"><ele>235.40000000000003</ele><time>2026-04-12T06:21:53.062Z</time></trkpt><trkpt lat="44.962435" lon="8.089465"><ele>233.20000000000002</ele><time>2026-04-12T06:21:54.062Z</time></trkpt><trkpt lat="44.9623933" lon="8.0896083"><ele>231.0</ele><time>2026-04-12T06:21:55.063Z</time></trkpt><trkpt lat="44.9623433" lon="8.0897533"><ele>231.0</ele><time>2026-04-12T06:21:56.062Z</time></trkpt><trkpt lat="44.9623017" lon="8.0899067"><ele>231.0</ele><time>2026-04-12T06:21:57.063Z</time></trkpt><trkpt lat="44.962275" lon="8.0900767"><ele>231.0</ele><time>2026-04-12T06:21:58.064Z</time></trkpt><trkpt lat="44.96227" lon="8.0902483"><ele>231.0</ele><time>2026-04-12T06:21:59.062Z</time></trkpt><trkpt lat="44.9622883" lon="8.0904117"><ele>228.60000000000002</ele><time>2026-04-12T06:22:00.062Z</time></trkpt><trkpt lat="44.96233" lon="8.0905633"><ele>226.20000000000002</ele><time>2026-04-12T06:22:01.065Z</time></trkpt><trkpt lat="44.9623833" lon="8.090705"><ele>223.79999999999998</ele><time>2026-04-12T06:22:02.063Z</time></trkpt><trkpt lat="44.9624417" lon="8.09083"><ele>221.39999999999998</ele><time>2026-04-12T06:22:03.063Z</time></trkpt><trkpt lat="44.9625017" lon="8.0909417"><ele>219.0</ele><time>2026-04-12T06:22:04.062Z</time></trkpt><trkpt lat="44.9625633" lon="8.0910467"><ele>219.5</ele><time>2026-04-12T06:22:05.062Z</time></trkpt><trkpt lat="44.9626233" lon="8.091145"><ele>220.0</ele><time>2026-04-12T06:22:06.062Z</time></trkpt><trkpt lat="44.9626767" lon="8.0912433"><ele>220.5</ele><time>2026-04-12T06:22:07.064Z</time></trkpt><trkpt lat="44.9627233" lon="8.0913333"><ele>221.0</ele><time>2026-04-12T06:22:08.064Z</time></trkpt><trkpt lat="44.9627617" lon="8.09141"><ele>221.5</ele><time>2026-04-12T06:22:09.064Z</time></trkpt><trkpt lat="44.96279" lon="8.0915483"><ele>222.0</ele><time>2026-04-12T06:22:11.063Z</time></trkpt><trkpt lat="44.96275" lon="8.0916533"><ele>222.0</ele><time>2026-04-12T06:22:13.064Z</time></trkpt><trkpt lat="44.962665" lon="8.091755"><ele>222.0</ele><time>2026-04-12T06:22:15.066Z</time></trkpt><trkpt lat="44.9625833" lon="8.09187"><ele>222.0</ele><time>2026-04-12T06:22:17.064Z</time></trkpt><trkpt lat="44.9624983" lon="8.091985"><ele>222.0</ele><time>2026-04-12T06:22:19.06Z</time></trkpt><trkpt lat="44.9624133" lon="8.0920967"><ele>220.39999999999998</ele><time>2026-04-12T06:22:21.074Z</time></trkpt><trkpt lat="44.9623317" lon="8.09222"><ele>218.79999999999998</ele><time>2026-04-12T06:22:23.063Z</time></trkpt><trkpt lat="44.9622533" lon="8.0923383"><ele>217.2</ele><time>2026-04-12T06:22:25.063Z</time></trkpt><trkpt lat="44.96218" lon="8.0924517"><ele>215.6</ele><time>2026-04-12T06:22:27.064Z</time></trkpt><trkpt lat="44.962115" lon="8.0925633"><ele>214.0</ele><time>2026-04-12T06:22:29.062Z</time></trkpt><trkpt lat="44.96205" lon="8.092675"><ele>214.0</ele><time>2026-04-12T06:22:31.063Z</time></trkpt><trkpt lat="44.9619767" lon="8.0927967"><ele>213.99999999999997</ele><time>2026-04-12T06:22:33.063Z</time></trkpt><trkpt lat="44.9618917" lon="8.0929233"><ele>213.99999999999997</ele><time>2026-04-12T06:22:35.063Z</time></trkpt><trkpt lat="44.9618483" lon="8.0929883"><ele>214.0</ele><time>2026-04-12T06:22:36.063Z</time></trkpt><trkpt lat="44.9618033" lon="8.0930533"><ele>214.0</ele><time>2026-04-12T06:22:37.065Z</time></trkpt><trkpt lat="44.9617133" lon="8.0931817"><ele>213.33333333333331</ele><time>2026-04-12T06:22:39.063Z</time></trkpt><trkpt lat="44.961665" lon="8.0932417"><ele>212.66666666666666</ele><time>2026-04-12T06:22:40.063Z</time></trkpt><trkpt lat="44.9615667" lon="8.0933583"><ele>212.0</ele><time>2026-04-12T06:22:42.063Z</time></trkpt><trkpt lat="44.9615183" lon="8.0934183"><ele>211.33333333333331</ele><time>2026-04-12T06:22:43.063Z</time></trkpt><trkpt lat="44.96147" lon="8.0934767"><ele>210.66666666666666</ele><time>2026-04-12T06:22:44.063Z</time></trkpt><trkpt lat="44.9614217" lon="8.09354"><ele>210.0</ele><time>2026-04-12T06:22:45.063Z</time></trkpt><trkpt lat="44.96137" lon="8.0935983"><ele>209.71428571428572</ele><time>2026-04-12T06:22:46.065Z</time></trkpt><trkpt lat="44.9613217" lon="8.0936633"><ele>209.42857142857144</ele><time>2026-04-12T06:22:47.062Z</time></trkpt><trkpt lat="44.9612717" lon="8.0937283"><ele>209.14285714285714</ele><time>2026-04-12T06:22:48.064Z</time></trkpt><trkpt lat="44.961225" lon="8.0937917"><ele>208.85714285714286</ele><time>2026-04-12T06:22:49.063Z</time></trkpt><trkpt lat="44.9611783" lon="8.0938567"><ele>208.57142857142858</ele><time>2026-04-12T06:22:50.063Z</time></trkpt><trkpt lat="44.9611333" lon="8.0939217"><ele>208.28571428571428</ele><time>2026-04-12T06:22:51.064Z</time></trkpt><trkpt lat="44.9610917" lon="8.0939917"><ele>208.0</ele><time>2026-04-12T06:22:52.061Z</time></trkpt><trkpt lat="44.9610483" lon="8.09406"><ele>208.57142857142856</ele><time>2026-04-12T06:22:53.06Z</time></trkpt><trkpt lat="44.961005" lon="8.09413"><ele>209.14285714285717</ele><time>2026-04-12T06:22:54.063Z</time></trkpt><trkpt lat="44.9609617" lon="8.0941983"><ele>209.71428571428572</ele><time>2026-04-12T06:22:55.063Z</time></trkpt><trkpt lat="44.96092" lon="8.0942717"><ele>210.28571428571428</ele><time>2026-04-12T06:22:56.063Z</time></trkpt><trkpt lat="44.96088" lon="8.0943433"><ele>210.85714285714283</ele><time>2026-04-12T06:22:57.064Z</time></trkpt><trkpt lat="44.960835" lon="8.0944083"><ele>211.42857142857144</ele><time>2026-04-12T06:22:58.065Z</time></trkpt><trkpt lat="44.9607867" lon="8.0944767"><ele>212.0</ele><time>2026-04-12T06:22:59.06Z</time></trkpt><trkpt lat="44.96074" lon="8.0945417"><ele>212.0</ele><time>2026-04-12T06:23:00.063Z</time></trkpt><trkpt lat="44.9606883" lon="8.0946033"><ele>212.0</ele><time>2026-04-12T06:23:01.065Z</time></trkpt><trkpt lat="44.96064" lon="8.094665"><ele>212.0</ele><time>2026-04-12T06:23:02.065Z</time></trkpt><trkpt lat="44.9605933" lon="8.0947283"><ele>212.0</ele><time>2026-04-12T06:23:03.065Z</time></trkpt><trkpt lat="44.96055" lon="8.0947983"><ele>212.0</ele><time>2026-04-12T06:23:04.062Z</time></trkpt><trkpt lat="44.9605117" lon="8.0948767"><ele>212.0</ele><time>2026-04-12T06:23:05.064Z</time></trkpt><trkpt lat="44.9604767" lon="8.0949617"><ele>212.0</ele><time>2026-04-12T06:23:06.064Z</time></trkpt><trkpt lat="44.9604433" lon="8.0950483"><ele>212.0</ele><time>2026-04-12T06:23:07.062Z</time></trkpt><trkpt lat="44.9604117" lon="8.095135"><ele>212.0</ele><time>2026-04-12T06:23:08.063Z</time></trkpt><trkpt lat="44.9603833" lon="8.0952233"><ele>212.0</ele><time>2026-04-12T06:23:09.063Z</time></trkpt><trkpt lat="44.9603533" lon="8.095315"><ele>212.0</ele><time>2026-04-12T06:23:10.065Z</time></trkpt><trkpt lat="44.96032" lon="8.0954067"><ele>212.0</ele><time>2026-04-12T06:23:11.063Z</time></trkpt><trkpt lat="44.960285" lon="8.0954967"><ele>212.0</ele><time>2026-04-12T06:23:12.062Z</time></trkpt><trkpt lat="44.9602533" lon="8.0955867"><ele>212.0</ele><time>2026-04-12T06:23:13.063Z</time></trkpt><trkpt lat="44.96022" lon="8.0956733"><ele>211.71428571428572</ele><time>2026-04-12T06:23:14.063Z</time></trkpt><trkpt lat="44.9601817" lon="8.09576"><ele>211.42857142857142</ele><time>2026-04-12T06:23:15.065Z</time></trkpt><trkpt lat="44.9601467" lon="8.095845"><ele>211.14285714285714</ele><time>2026-04-12T06:23:16.063Z</time></trkpt><trkpt lat="44.9601083" lon="8.09593"><ele>210.85714285714286</ele><time>2026-04-12T06:23:17.063Z</time></trkpt><trkpt lat="44.9600717" lon="8.0960133"><ele>210.57142857142856</ele><time>2026-04-12T06:23:18.063Z</time></trkpt><trkpt lat="44.96003" lon="8.0960933"><ele>210.28571428571428</ele><time>2026-04-12T06:23:19.064Z</time></trkpt><trkpt lat="44.9599867" lon="8.096175"><ele>210.0</ele><time>2026-04-12T06:23:20.062Z</time></trkpt><trkpt lat="44.9599483" lon="8.0962567"><ele>210.0</ele><time>2026-04-12T06:23:21.064Z</time></trkpt><trkpt lat="44.9598783" lon="8.096375"><ele>210.0</ele><time>2026-04-12T06:23:23.061Z</time></trkpt><trkpt lat="44.9598283" lon="8.0964533"><ele>210.0</ele><time>2026-04-12T06:26:36.061Z</time></trkpt><trkpt lat="44.9597783" lon="8.0965367"><ele>210.0</ele><time>2026-04-12T06:26:39.062Z</time></trkpt><trkpt lat="44.9597333" lon="8.09661"><ele>210.0</ele><time>2026-04-12T06:26:41.061Z</time></trkpt><trkpt lat="44.9596767" lon="8.0966883"><ele>210.0</ele><time>2026-04-12T06:26:43.062Z</time></trkpt><trkpt lat="44.9596033" lon="8.09678"><ele>210.2</ele><time>2026-04-12T06:26:45.064Z</time></trkpt><trkpt lat="44.9595217" lon="8.0968783"><ele>210.4</ele><time>2026-04-12T06:26:47.061Z</time></trkpt><trkpt lat="44.95944" lon="8.0969767"><ele>210.60000000000002</ele><time>2026-04-12T06:26:49.063Z</time></trkpt><trkpt lat="44.959355" lon="8.09708"><ele>210.8</ele><time>2026-04-12T06:26:51.063Z</time></trkpt><trkpt lat="44.95928" lon="8.0972067"><ele>211.0</ele><time>2026-04-12T06:26:53.061Z</time></trkpt><trkpt lat="44.959205" lon="8.0973417"><ele>210.85714285714286</ele><time>2026-04-12T06:26:55.062Z</time></trkpt><trkpt lat="44.9591683" lon="8.0974167"><ele>210.71428571428572</ele><time>2026-04-12T06:26:56.063Z</time></trkpt><trkpt lat="44.9591" lon="8.0975633"><ele>210.57142857142856</ele><time>2026-04-12T06:26:58.063Z</time></trkpt><trkpt lat="44.9590633" lon="8.0976383"><ele>210.42857142857144</ele><time>2026-04-12T06:26:59.063Z</time></trkpt><trkpt lat="44.9590267" lon="8.0977133"><ele>210.28571428571428</ele><time>2026-04-12T06:27:00.064Z</time></trkpt><trkpt lat="44.9589867" lon="8.097785"><ele>210.14285714285714</ele><time>2026-04-12T06:27:01.062Z</time></trkpt><trkpt lat="44.9589467" lon="8.0978567"><ele>210.0</ele><time>2026-04-12T06:27:02.062Z</time></trkpt><trkpt lat="44.9589033" lon="8.0979283"><ele>210.0</ele><time>2026-04-12T06:27:03.065Z</time></trkpt><trkpt lat="44.95886" lon="8.0979933"><ele>210.0</ele><time>2026-04-12T06:27:04.063Z</time></trkpt><trkpt lat="44.9587817" lon="8.0981283"><ele>210.0</ele><time>2026-04-12T06:27:06.062Z</time></trkpt><trkpt lat="44.9587117" lon="8.0982733"><ele>210.0</ele><time>2026-04-12T06:27:08.062Z</time></trkpt><trkpt lat="44.958645" lon="8.0984117"><ele>210.0</ele><time>2026-04-12T06:27:10.064Z</time></trkpt><trkpt lat="44.9585783" lon="8.0985583"><ele>210.25</ele><time>2026-04-12T06:27:12.062Z</time></trkpt><trkpt lat="44.9585133" lon="8.098705"><ele>210.5</ele><time>2026-04-12T06:27:14.065Z</time></trkpt><trkpt lat="44.9584617" lon="8.0988567"><ele>210.75</ele><time>2026-04-12T06:27:16.063Z</time></trkpt><trkpt lat="44.958415" lon="8.0990133"><ele>211.0</ele><time>2026-04-12T06:27:18.061Z</time></trkpt><trkpt lat="44.9583733" lon="8.0991717"><ele>210.14285714285714</ele><time>2026-04-12T06:27:20.063Z</time></trkpt><trkpt lat="44.9583533" lon="8.0992567"><ele>209.28571428571428</ele><time>2026-04-12T06:27:21.063Z</time></trkpt><trkpt lat="44.958335" lon="8.0993483"><ele>208.42857142857144</ele><time>2026-04-12T06:27:22.062Z</time></trkpt><trkpt lat="44.958315" lon="8.0994367"><ele>207.57142857142856</ele><time>2026-04-12T06:27:23.061Z</time></trkpt><trkpt lat="44.958295" lon="8.099525"><ele>206.7142857142857</ele><time>2026-04-12T06:27:24.063Z</time></trkpt><trkpt lat="44.9582733" lon="8.0996183"><ele>205.85714285714286</ele><time>2026-04-12T06:27:25.064Z</time></trkpt><trkpt lat="44.9582483" lon="8.0997083"><ele>205.0</ele><time>2026-04-12T06:27:26.063Z</time></trkpt><trkpt lat="44.9582217" lon="8.09979"><ele>205.5</ele><time>2026-04-12T06:27:27.064Z</time></trkpt><trkpt lat="44.9581717" lon="8.0999417"><ele>206.0</ele><time>2026-04-12T06:27:29.062Z</time></trkpt><trkpt lat="44.9581217" lon="8.1000933"><ele>206.5</ele><time>2026-04-12T06:27:31.063Z</time></trkpt><trkpt lat="44.9580833" lon="8.1002567"><ele>207.0</ele><time>2026-04-12T06:27:33.064Z</time></trkpt><trkpt lat="44.9580633" lon="8.1004183"><ele>207.0</ele><time>2026-04-12T06:27:35.063Z</time></trkpt><trkpt lat="44.9580667" lon="8.1005867"><ele>207.0</ele><time>2026-04-12T06:27:37.062Z</time></trkpt><trkpt lat="44.9580717" lon="8.100685"><ele>207.0</ele><time>2026-04-12T06:27:38.062Z</time></trkpt><trkpt lat="44.9580667" lon="8.1007883"><ele>207.0</ele><time>2026-04-12T06:27:39.066Z</time></trkpt><trkpt lat="44.9580567" lon="8.1008883"><ele>207.0</ele><time>2026-04-12T06:27:40.065Z</time></trkpt><trkpt lat="44.95805" lon="8.1009883"><ele>207.0</ele><time>2026-04-12T06:27:41.064Z</time></trkpt><trkpt lat="44.95804" lon="8.1010867"><ele>207.2857142857143</ele><time>2026-04-12T06:27:42.063Z</time></trkpt><trkpt lat="44.9580233" lon="8.1011817"><ele>207.57142857142858</ele><time>2026-04-12T06:27:43.063Z</time></trkpt><trkpt lat="44.958" lon="8.10127"><ele>207.85714285714286</ele><time>2026-04-12T06:27:44.062Z</time></trkpt><trkpt lat="44.95798" lon="8.1013567"><ele>208.14285714285717</ele><time>2026-04-12T06:27:45.063Z</time></trkpt><trkpt lat="44.9579583" lon="8.1014433"><ele>208.42857142857142</ele><time>2026-04-12T06:27:46.061Z</time></trkpt><trkpt lat="44.95794" lon="8.1015333"><ele>208.71428571428572</ele><time>2026-04-12T06:27:47.062Z</time></trkpt><trkpt lat="44.9579283" lon="8.1016233"><ele>209.0</ele><time>2026-04-12T06:27:48.063Z</time></trkpt><trkpt lat="44.957925" lon="8.1017183"><ele>209.00000000000003</ele><time>2026-04-12T06:27:49.064Z</time></trkpt><trkpt lat="44.9579217" lon="8.10181"><ele>209.0</ele><time>2026-04-12T06:27:50.062Z</time></trkpt><trkpt lat="44.9578767" lon="8.10198"><ele>209.0</ele><time>2026-04-12T06:27:52.063Z</time></trkpt><trkpt lat="44.9578467" lon="8.1020617"><ele>209.0</ele><time>2026-04-12T06:27:53.062Z</time></trkpt><trkpt lat="44.957815" lon="8.1021467"><ele>209.00000000000003</ele><time>2026-04-12T06:27:54.063Z</time></trkpt><trkpt lat="44.9577833" lon="8.102235"><ele>209.0</ele><time>2026-04-12T06:27:55.063Z</time></trkpt><trkpt lat="44.9577583" lon="8.102325"><ele>209.00000000000003</ele><time>2026-04-12T06:27:56.058Z</time></trkpt><trkpt lat="44.95773" lon="8.1024117"><ele>209.0</ele><time>2026-04-12T06:27:57.064Z</time></trkpt><trkpt lat="44.9576767" lon="8.102575"><ele>209.0</ele><time>2026-04-12T06:27:59.061Z</time></trkpt><trkpt lat="44.9576467" lon="8.10266"><ele>209.0</ele><time>2026-04-12T06:28:00.063Z</time></trkpt><trkpt lat="44.9576167" lon="8.1027383"><ele>209.00000000000003</ele><time>2026-04-12T06:28:01.062Z</time></trkpt><trkpt lat="44.9575917" lon="8.1028233"><ele>209.0</ele><time>2026-04-12T06:28:02.063Z</time></trkpt><trkpt lat="44.95754" lon="8.1029833"><ele>207.79999999999998</ele><time>2026-04-12T06:28:04.063Z</time></trkpt><trkpt lat="44.95749" lon="8.1031417"><ele>206.6</ele><time>2026-04-12T06:28:06.062Z</time></trkpt><trkpt lat="44.9574367" lon="8.1032967"><ele>205.4</ele><time>2026-04-12T06:28:08.063Z</time></trkpt><trkpt lat="44.9574017" lon="8.1033717"><ele>204.2</ele><time>2026-04-12T06:28:09.066Z</time></trkpt><trkpt lat="44.9573217" lon="8.103505"><ele>203.0</ele><time>2026-04-12T06:28:11.061Z</time></trkpt><trkpt lat="44.9572283" lon="8.1036183"><ele>203.0</ele><time>2026-04-12T06:28:13.061Z</time></trkpt><trkpt lat="44.95718" lon="8.1036767"><ele>203.0</ele><time>2026-04-12T06:28:14.063Z</time></trkpt><trkpt lat="44.957125" lon="8.1037333"><ele>203.0</ele><time>2026-04-12T06:28:15.064Z</time></trkpt><trkpt lat="44.9570717" lon="8.10379"><ele>203.0</ele><time>2026-04-12T06:28:16.062Z</time></trkpt><trkpt lat="44.95702" lon="8.1038517"><ele>203.0</ele><time>2026-04-12T06:28:17.062Z</time></trkpt><trkpt lat="44.9569683" lon="8.1039133"><ele>203.0</ele><time>2026-04-12T06:28:18.064Z</time></trkpt><trkpt lat="44.956915" lon="8.103975"><ele>203.0</ele><time>2026-04-12T06:28:19.062Z</time></trkpt><trkpt lat="44.9568583" lon="8.104035"><ele>202.57142857142858</ele><time>2026-04-12T06:28:20.063Z</time></trkpt><trkpt lat="44.956805" lon="8.1041"><ele>202.14285714285714</ele><time>2026-04-12T06:28:21.063Z</time></trkpt><trkpt lat="44.9567533" lon="8.1041633"><ele>201.71428571428572</ele><time>2026-04-12T06:28:22.061Z</time></trkpt><trkpt lat="44.9567" lon="8.1042217"><ele>201.28571428571428</ele><time>2026-04-12T06:28:23.063Z</time></trkpt><trkpt lat="44.9566517" lon="8.104295"><ele>200.85714285714286</ele><time>2026-04-12T06:28:24.062Z</time></trkpt><trkpt lat="44.9566" lon="8.10436"><ele>200.42857142857144</ele><time>2026-04-12T06:28:25.065Z</time></trkpt><trkpt lat="44.95655" lon="8.1044267"><ele>200.0</ele><time>2026-04-12T06:28:26.064Z</time></trkpt><trkpt lat="44.9565" lon="8.10449"><ele>200.00000000000003</ele><time>2026-04-12T06:28:27.066Z</time></trkpt><trkpt lat="44.9564467" lon="8.1045533"><ele>200.0</ele><time>2026-04-12T06:28:28.063Z</time></trkpt><trkpt lat="44.956395" lon="8.1046183"><ele>200.0</ele><time>2026-04-12T06:28:29.062Z</time></trkpt><trkpt lat="44.9563433" lon="8.1046883"><ele>200.0</ele><time>2026-04-12T06:28:30.063Z</time></trkpt><trkpt lat="44.95629" lon="8.10476"><ele>200.0</ele><time>2026-04-12T06:28:31.062Z</time></trkpt><trkpt lat="44.9562417" lon="8.1048317"><ele>200.00000000000003</ele><time>2026-04-12T06:28:32.063Z</time></trkpt><trkpt lat="44.9561933" lon="8.1049017"><ele>200.0</ele><time>2026-04-12T06:28:33.065Z</time></trkpt><trkpt lat="44.9561467" lon="8.1049783"><ele>200.57142857142858</ele><time>2026-04-12T06:28:34.063Z</time></trkpt><trkpt lat="44.9561033" lon="8.1050583"><ele>201.14285714285714</ele><time>2026-04-12T06:28:35.063Z</time></trkpt><trkpt lat="44.9560617" lon="8.10514"><ele>201.71428571428572</ele><time>2026-04-12T06:28:36.064Z</time></trkpt><trkpt lat="44.9560267" lon="8.1052233"><ele>202.28571428571428</ele><time>2026-04-12T06:28:37.062Z</time></trkpt><trkpt lat="44.95599" lon="8.1053083"><ele>202.85714285714286</ele><time>2026-04-12T06:28:38.062Z</time></trkpt><trkpt lat="44.955955" lon="8.1053933"><ele>203.42857142857144</ele><time>2026-04-12T06:28:39.063Z</time></trkpt><trkpt lat="44.955925" lon="8.1054817"><ele>204.0</ele><time>2026-04-12T06:28:40.063Z</time></trkpt><trkpt lat="44.9558983" lon="8.1055717"><ele>204.0</ele><time>2026-04-12T06:28:41.061Z</time></trkpt><trkpt lat="44.9558717" lon="8.1056583"><ele>204.0</ele><time>2026-04-12T06:28:42.062Z</time></trkpt><trkpt lat="44.9558517" lon="8.1057483"><ele>204.0</ele><time>2026-04-12T06:28:43.061Z</time></trkpt><trkpt lat="44.955825" lon="8.1059183"><ele>204.0</ele><time>2026-04-12T06:28:45.062Z</time></trkpt><trkpt lat="44.9557983" lon="8.1060883"><ele>204.0</ele><time>2026-04-12T06:28:47.061Z</time></trkpt><trkpt lat="44.95578" lon="8.10626"><ele>202.79999999999998</ele><time>2026-04-12T06:28:49.064Z</time></trkpt><trkpt lat="44.9557667" lon="8.106435"><ele>201.6</ele><time>2026-04-12T06:28:51.062Z</time></trkpt><trkpt lat="44.9557633" lon="8.106605"><ele>200.4</ele><time>2026-04-12T06:28:53.061Z</time></trkpt><trkpt lat="44.9557783" lon="8.1067517"><ele>199.2</ele><time>2026-04-12T06:28:55.066Z</time></trkpt><trkpt lat="44.955815" lon="8.1068583"><ele>198.0</ele><time>2026-04-12T06:28:57.064Z</time></trkpt><trkpt lat="44.95586" lon="8.106945"><ele>198.0</ele><time>2026-04-12T06:28:59.063Z</time></trkpt><trkpt lat="44.9559067" lon="8.1070217"><ele>198.0</ele><time>2026-04-12T06:29:01.065Z</time></trkpt><trkpt lat="44.95594" lon="8.1070983"><ele>198.0</ele><time>2026-04-12T06:29:03.065Z</time></trkpt><trkpt lat="44.9559633" lon="8.1072017"><ele>198.0</ele><time>2026-04-12T06:29:06.063Z</time></trkpt><trkpt lat="44.9559167" lon="8.1073"><ele>198.0</ele><time>2026-04-12T06:29:09.065Z</time></trkpt><trkpt lat="44.9558483" lon="8.1073417"><ele>198.0</ele><time>2026-04-12T06:29:11.061Z</time></trkpt><trkpt lat="44.9557717" lon="8.107385"><ele>198.66666666666666</ele><time>2026-04-12T06:29:13.062Z</time></trkpt><trkpt lat="44.9556917" lon="8.1074417"><ele>199.33333333333331</ele><time>2026-04-12T06:29:15.065Z</time></trkpt><trkpt lat="44.95561" lon="8.1075017"><ele>200.0</ele><time>2026-04-12T06:29:17.061Z</time></trkpt><trkpt lat="44.9555383" lon="8.1075683"><ele>200.66666666666666</ele><time>2026-04-12T06:29:19.063Z</time></trkpt><trkpt lat="44.9554667" lon="8.10763"><ele>201.33333333333331</ele><time>2026-04-12T06:29:21.064Z</time></trkpt><trkpt lat="44.9553833" lon="8.1076783"><ele>202.0</ele><time>2026-04-12T06:29:23.062Z</time></trkpt><trkpt lat="44.95529" lon="8.10772"><ele>202.0</ele><time>2026-04-12T06:29:25.064Z</time></trkpt><trkpt lat="44.9552" lon="8.107765"><ele>202.0</ele><time>2026-04-12T06:29:27.064Z</time></trkpt><trkpt lat="44.9551067" lon="8.1078283"><ele>202.0</ele><time>2026-04-12T06:29:29.063Z</time></trkpt><trkpt lat="44.9550083" lon="8.1078867"><ele>202.0</ele><time>2026-04-12T06:29:31.064Z</time></trkpt><trkpt lat="44.9548967" lon="8.10796"><ele>202.0</ele><time>2026-04-12T06:29:33.064Z</time></trkpt><trkpt lat="44.9548383" lon="8.1080017"><ele>201.42857142857142</ele><time>2026-04-12T06:29:34.064Z</time></trkpt><trkpt lat="44.954775" lon="8.1080467"><ele>200.85714285714283</ele><time>2026-04-12T06:29:35.064Z</time></trkpt><trkpt lat="44.954715" lon="8.1080917"><ele>200.28571428571428</ele><time>2026-04-12T06:29:36.062Z</time></trkpt><trkpt lat="44.95465" lon="8.10814"><ele>199.71428571428572</ele><time>2026-04-12T06:29:37.063Z</time></trkpt><trkpt lat="44.9545783" lon="8.1081883"><ele>199.14285714285714</ele><time>2026-04-12T06:29:38.063Z</time></trkpt><trkpt lat="44.9545117" lon="8.1082367"><ele>198.57142857142858</ele><time>2026-04-12T06:29:39.063Z</time></trkpt><trkpt lat="44.9544433" lon="8.1082767"><ele>198.0</ele><time>2026-04-12T06:29:40.063Z</time></trkpt><trkpt lat="44.9543767" lon="8.1083167"><ele>198.16666666666666</ele><time>2026-04-12T06:29:41.063Z</time></trkpt><trkpt lat="44.9543133" lon="8.108355"><ele>198.33333333333331</ele><time>2026-04-12T06:29:42.062Z</time></trkpt><trkpt lat="44.954255" lon="8.108395"><ele>198.5</ele><time>2026-04-12T06:29:43.063Z</time></trkpt><trkpt lat="44.9542017" lon="8.108445"><ele>198.66666666666666</ele><time>2026-04-12T06:29:44.062Z</time></trkpt><trkpt lat="44.9541517" lon="8.1085033"><ele>198.83333333333331</ele><time>2026-04-12T06:29:45.064Z</time></trkpt><trkpt lat="44.9540667" lon="8.1086233"><ele>199.0</ele><time>2026-04-12T06:29:47.063Z</time></trkpt><trkpt lat="44.9539967" lon="8.1087483"><ele>199.0</ele><time>2026-04-12T06:29:49.063Z</time></trkpt><trkpt lat="44.9539283" lon="8.1088817"><ele>199.0</ele><time>2026-04-12T06:29:51.063Z</time></trkpt><trkpt lat="44.9538333" lon="8.1089867"><ele>199.0</ele><time>2026-04-12T06:29:53.064Z</time></trkpt><trkpt lat="44.9537717" lon="8.1090283"><ele>199.0</ele><time>2026-04-12T06:29:54.065Z</time></trkpt><trkpt lat="44.9537083" lon="8.109075"><ele>199.0</ele><time>2026-04-12T06:29:55.065Z</time></trkpt><trkpt lat="44.9536417" lon="8.109125"><ele>198.85714285714283</ele><time>2026-04-12T06:29:56.064Z</time></trkpt><trkpt lat="44.953575" lon="8.109175"><ele>198.71428571428572</ele><time>2026-04-12T06:29:57.065Z</time></trkpt><trkpt lat="44.9535067" lon="8.1092217"><ele>198.57142857142856</ele><time>2026-04-12T06:29:58.063Z</time></trkpt><trkpt lat="44.95344" lon="8.1092683"><ele>198.42857142857142</ele><time>2026-04-12T06:29:59.06Z</time></trkpt><trkpt lat="44.95337" lon="8.1093133"><ele>198.28571428571428</ele><time>2026-04-12T06:30:00.063Z</time></trkpt><trkpt lat="44.9533017" lon="8.1093583"><ele>198.14285714285714</ele><time>2026-04-12T06:30:01.063Z</time></trkpt><trkpt lat="44.9532383" lon="8.1094033"><ele>198.0</ele><time>2026-04-12T06:30:02.063Z</time></trkpt><trkpt lat="44.953175" lon="8.1094483"><ele>198.0</ele><time>2026-04-12T06:30:03.064Z</time></trkpt><trkpt lat="44.953115" lon="8.1094917"><ele>198.0</ele><time>2026-04-12T06:30:04.062Z</time></trkpt><trkpt lat="44.953055" lon="8.1095333"><ele>198.0</ele><time>2026-04-12T06:30:05.064Z</time></trkpt><trkpt lat="44.9529917" lon="8.1095783"><ele>198.0</ele><time>2026-04-12T06:30:06.063Z</time></trkpt><trkpt lat="44.9529317" lon="8.1096217"><ele>198.0</ele><time>2026-04-12T06:30:07.062Z</time></trkpt><trkpt lat="44.95287" lon="8.1096633"><ele>198.0</ele><time>2026-04-12T06:30:08.063Z</time></trkpt><trkpt lat="44.9528083" lon="8.1097"><ele>198.0</ele><time>2026-04-12T06:30:09.065Z</time></trkpt><trkpt lat="44.9527433" lon="8.1097333"><ele>198.0</ele><time>2026-04-12T06:30:10.063Z</time></trkpt><trkpt lat="44.9526733" lon="8.1097517"><ele>198.0</ele><time>2026-04-12T06:30:11.063Z</time></trkpt><trkpt lat="44.9526033" lon="8.1097667"><ele>198.0</ele><time>2026-04-12T06:30:12.062Z</time></trkpt><trkpt lat="44.9525333" lon="8.1097767"><ele>198.0</ele><time>2026-04-12T06:30:13.062Z</time></trkpt><trkpt lat="44.9524617" lon="8.1097867"><ele>198.0</ele><time>2026-04-12T06:30:14.064Z</time></trkpt><trkpt lat="44.9523917" lon="8.1098"><ele>198.0</ele><time>2026-04-12T06:30:15.063Z</time></trkpt><trkpt lat="44.9523267" lon="8.1098167"><ele>198.0</ele><time>2026-04-12T06:30:16.062Z</time></trkpt><trkpt lat="44.95226" lon="8.1098317"><ele>197.42857142857144</ele><time>2026-04-12T06:30:17.063Z</time></trkpt><trkpt lat="44.9521917" lon="8.1098483"><ele>196.85714285714283</ele><time>2026-04-12T06:30:18.063Z</time></trkpt><trkpt lat="44.952125" lon="8.109865"><ele>196.28571428571428</ele><time>2026-04-12T06:30:19.063Z</time></trkpt><trkpt lat="44.952055" lon="8.109885"><ele>195.71428571428572</ele><time>2026-04-12T06:30:20.063Z</time></trkpt><trkpt lat="44.9519883" lon="8.1099133"><ele>195.14285714285717</ele><time>2026-04-12T06:30:21.063Z</time></trkpt><trkpt lat="44.9519267" lon="8.1099483"><ele>194.57142857142856</ele><time>2026-04-12T06:30:22.063Z</time></trkpt><trkpt lat="44.9518667" lon="8.10999"><ele>194.0</ele><time>2026-04-12T06:30:23.063Z</time></trkpt><trkpt lat="44.9518133" lon="8.1100433"><ele>194.50000000000003</ele><time>2026-04-12T06:30:24.064Z</time></trkpt><trkpt lat="44.9517167" lon="8.1101467"><ele>195.0</ele><time>2026-04-12T06:30:26.063Z</time></trkpt><trkpt lat="44.951615" lon="8.110255"><ele>195.5</ele><time>2026-04-12T06:30:28.063Z</time></trkpt><trkpt lat="44.9515633" lon="8.1103067"><ele>196.0</ele><time>2026-04-12T06:30:29.063Z</time></trkpt><trkpt lat="44.9515083" lon="8.1103583"><ele>196.50000000000003</ele><time>2026-04-12T06:30:30.063Z</time></trkpt><trkpt lat="44.9514517" lon="8.1104133"><ele>197.0</ele><time>2026-04-12T06:30:31.064Z</time></trkpt><trkpt lat="44.951395" lon="8.110475"><ele>197.0</ele><time>2026-04-12T06:30:32.063Z</time></trkpt><trkpt lat="44.9513333" lon="8.11054"><ele>197.0</ele><time>2026-04-12T06:30:33.064Z</time></trkpt><trkpt lat="44.9512733" lon="8.1106033"><ele>197.0</ele><time>2026-04-12T06:30:34.063Z</time></trkpt><trkpt lat="44.9512133" lon="8.1106633"><ele>197.0</ele><time>2026-04-12T06:30:35.064Z</time></trkpt><trkpt lat="44.9511533" lon="8.1107167"><ele>197.0</ele><time>2026-04-12T06:30:36.064Z</time></trkpt><trkpt lat="44.9510967" lon="8.1107667"><ele>197.0</ele><time>2026-04-12T06:30:37.063Z</time></trkpt><trkpt lat="44.9510433" lon="8.110815"><ele>197.0</ele><time>2026-04-12T06:30:38.063Z</time></trkpt><trkpt lat="44.9509417" lon="8.11091"><ele>196.66666666666669</ele><time>2026-04-12T06:30:40.063Z</time></trkpt><trkpt lat="44.9508533" lon="8.1109883"><ele>196.33333333333334</ele><time>2026-04-12T06:30:42.065Z</time></trkpt><trkpt lat="44.950805" lon="8.1110583"><ele>196.0</ele><time>2026-04-12T06:30:44.061Z</time></trkpt><trkpt lat="44.9508183" lon="8.11119"><ele>195.66666666666669</ele><time>2026-04-12T06:30:47.061Z</time></trkpt><trkpt lat="44.9508633" lon="8.1112833"><ele>195.33333333333334</ele><time>2026-04-12T06:30:49.057Z</time></trkpt><trkpt lat="44.9509167" lon="8.11138"><ele>195.0</ele><time>2026-04-12T06:30:51.066Z</time></trkpt><trkpt lat="44.950975" lon="8.1114867"><ele>197.6</ele><time>2026-04-12T06:30:53.062Z</time></trkpt><trkpt lat="44.9510333" lon="8.111585"><ele>200.2</ele><time>2026-04-12T06:30:55.064Z</time></trkpt><trkpt lat="44.9511017" lon="8.11169"><ele>202.8</ele><time>2026-04-12T06:30:57.063Z</time></trkpt><trkpt lat="44.9511583" lon="8.1118017"><ele>205.4</ele><time>2026-04-12T06:30:59.063Z</time></trkpt><trkpt lat="44.9512133" lon="8.1119033"><ele>208.0</ele><time>2026-04-12T06:31:01.065Z</time></trkpt><trkpt lat="44.9512717" lon="8.1120083"><ele>208.0</ele><time>2026-04-12T06:31:03.065Z</time></trkpt><trkpt lat="44.9513367" lon="8.1121"><ele>208.0</ele><time>2026-04-12T06:31:05.064Z</time></trkpt><trkpt lat="44.9513833" lon="8.112225"><ele>208.0</ele><time>2026-04-12T06:31:07.062Z</time></trkpt><trkpt lat="44.9514233" lon="8.1123533"><ele>208.0</ele><time>2026-04-12T06:31:09.063Z</time></trkpt><trkpt lat="44.95147" lon="8.11247"><ele>208.0</ele><time>2026-04-12T06:31:11.063Z</time></trkpt><trkpt lat="44.9515267" lon="8.1125883"><ele>206.8</ele><time>2026-04-12T06:31:13.062Z</time></trkpt><trkpt lat="44.9515833" lon="8.11271"><ele>205.60000000000002</ele><time>2026-04-12T06:31:15.064Z</time></trkpt><trkpt lat="44.951645" lon="8.1128367"><ele>204.39999999999998</ele><time>2026-04-12T06:31:17.062Z</time></trkpt><trkpt lat="44.95171" lon="8.1129617"><ele>203.2</ele><time>2026-04-12T06:31:19.061Z</time></trkpt><trkpt lat="44.9517767" lon="8.11309"><ele>202.0</ele><time>2026-04-12T06:31:21.063Z</time></trkpt><trkpt lat="44.9518367" lon="8.1132083"><ele>205.5</ele><time>2026-04-12T06:31:23.063Z</time></trkpt><trkpt lat="44.9519033" lon="8.1133333"><ele>209.0</ele><time>2026-04-12T06:31:25.064Z</time></trkpt><trkpt lat="44.9519767" lon="8.11346"><ele>212.5</ele><time>2026-04-12T06:31:27.063Z</time></trkpt><trkpt lat="44.9520533" lon="8.113585"><ele>216.0</ele><time>2026-04-12T06:31:29.062Z</time></trkpt><trkpt lat="44.9521267" lon="8.1137"><ele>216.0</ele><time>2026-04-12T06:31:31.063Z</time></trkpt><trkpt lat="44.9522033" lon="8.1138133"><ele>216.0</ele><time>2026-04-12T06:31:33.064Z</time></trkpt><trkpt lat="44.952285" lon="8.1139283"><ele>216.0</ele><time>2026-04-12T06:31:35.063Z</time></trkpt><trkpt lat="44.952365" lon="8.1140417"><ele>216.0</ele><time>2026-04-12T06:31:37.065Z</time></trkpt><trkpt lat="44.9524333" lon="8.1141783"><ele>217.25</ele><time>2026-04-12T06:31:39.064Z</time></trkpt><trkpt lat="44.9524917" lon="8.1143183"><ele>218.5</ele><time>2026-04-12T06:31:41.064Z</time></trkpt><trkpt lat="44.9525467" lon="8.114465"><ele>219.75</ele><time>2026-04-12T06:31:43.063Z</time></trkpt><trkpt lat="44.9525867" lon="8.11461"><ele>221.0</ele><time>2026-04-12T06:31:45.064Z</time></trkpt><trkpt lat="44.9526367" lon="8.1147533"><ele>221.0</ele><time>2026-04-12T06:31:47.061Z</time></trkpt><trkpt lat="44.952685" lon="8.114895"><ele>221.00000000000003</ele><time>2026-04-12T06:31:49.062Z</time></trkpt><trkpt lat="44.9527267" lon="8.1150333"><ele>221.00000000000003</ele><time>2026-04-12T06:31:51.065Z</time></trkpt><trkpt lat="44.952765" lon="8.115175"><ele>221.0</ele><time>2026-04-12T06:31:53.062Z</time></trkpt><trkpt lat="44.9527983" lon="8.11532"><ele>221.0</ele><time>2026-04-12T06:31:55.065Z</time></trkpt><trkpt lat="44.95281" lon="8.1154717"><ele>218.8</ele><time>2026-04-12T06:31:57.062Z</time></trkpt><trkpt lat="44.9528083" lon="8.1156117"><ele>216.60000000000002</ele><time>2026-04-12T06:31:59.063Z</time></trkpt><trkpt lat="44.9527967" lon="8.1157467"><ele>214.4</ele><time>2026-04-12T06:32:01.064Z</time></trkpt><trkpt lat="44.9527867" lon="8.1158883"><ele>212.2</ele><time>2026-04-12T06:32:03.062Z</time></trkpt><trkpt lat="44.9527917" lon="8.1160267"><ele>210.0</ele><time>2026-04-12T06:32:05.063Z</time></trkpt><trkpt lat="44.952815" lon="8.116155"><ele>209.8</ele><time>2026-04-12T06:32:07.063Z</time></trkpt><trkpt lat="44.9528417" lon="8.116285"><ele>209.6</ele><time>2026-04-12T06:32:09.066Z</time></trkpt><trkpt lat="44.95287" lon="8.11642"><ele>209.39999999999998</ele><time>2026-04-12T06:32:11.062Z</time></trkpt><trkpt lat="44.9528783" lon="8.1165667"><ele>209.2</ele><time>2026-04-12T06:32:13.063Z</time></trkpt><trkpt lat="44.952865" lon="8.11671"><ele>209.0</ele><time>2026-04-12T06:32:15.062Z</time></trkpt><trkpt lat="44.952845" lon="8.11684"><ele>212.0</ele><time>2026-04-12T06:32:17.061Z</time></trkpt><trkpt lat="44.9528283" lon="8.11697"><ele>215.0</ele><time>2026-04-12T06:32:19.064Z</time></trkpt><trkpt lat="44.9528217" lon="8.1170933"><ele>217.99999999999997</ele><time>2026-04-12T06:32:21.061Z</time></trkpt><trkpt lat="44.9528133" lon="8.1172167"><ele>221.0</ele><time>2026-04-12T06:32:23.065Z</time></trkpt><trkpt lat="44.952805" lon="8.1173383"><ele>224.0</ele><time>2026-04-12T06:32:25.062Z</time></trkpt><trkpt lat="44.9528" lon="8.117475"><ele>224.79999999999998</ele><time>2026-04-12T06:32:27.061Z</time></trkpt><trkpt lat="44.9528067" lon="8.1176083"><ele>225.59999999999997</ele><time>2026-04-12T06:32:29.063Z</time></trkpt><trkpt lat="44.9528133" lon="8.117745"><ele>226.4</ele><time>2026-04-12T06:32:31.065Z</time></trkpt><trkpt lat="44.952835" lon="8.1178733"><ele>227.2</ele><time>2026-04-12T06:32:33.065Z</time></trkpt><trkpt lat="44.952865" lon="8.117995"><ele>228.0</ele><time>2026-04-12T06:32:35.064Z</time></trkpt><trkpt lat="44.9528983" lon="8.1181067"><ele>228.0</ele><time>2026-04-12T06:32:37.063Z</time></trkpt><trkpt lat="44.95293" lon="8.1182133"><ele>228.0</ele><time>2026-04-12T06:32:39.064Z</time></trkpt><trkpt lat="44.9529683" lon="8.1183167"><ele>228.0</ele><time>2026-04-12T06:32:41.06Z</time></trkpt><trkpt lat="44.9530067" lon="8.118405"><ele>228.0</ele><time>2026-04-12T06:32:43.065Z</time></trkpt><trkpt lat="44.9530467" lon="8.1184933"><ele>228.0</ele><time>2026-04-12T06:32:45.064Z</time></trkpt><trkpt lat="44.9530817" lon="8.118585"><ele>228.0</ele><time>2026-04-12T06:32:47.065Z</time></trkpt><trkpt lat="44.9531217" lon="8.1186767"><ele>228.0</ele><time>2026-04-12T06:32:49.065Z</time></trkpt><trkpt lat="44.95316" lon="8.118765"><ele>228.0</ele><time>2026-04-12T06:32:51.064Z</time></trkpt><trkpt lat="44.953205" lon="8.11886"><ele>228.0</ele><time>2026-04-12T06:32:53.064Z</time></trkpt><trkpt lat="44.95324" lon="8.1189433"><ele>228.0</ele><time>2026-04-12T06:32:55.065Z</time></trkpt><trkpt lat="44.9532917" lon="8.119025"><ele>228.0</ele><time>2026-04-12T06:32:57.063Z</time></trkpt><trkpt lat="44.9533317" lon="8.1191167"><ele>228.0</ele><time>2026-04-12T06:32:59.063Z</time></trkpt><trkpt lat="44.9533833" lon="8.1192017"><ele>228.0</ele><time>2026-04-12T06:33:01.063Z</time></trkpt><trkpt lat="44.9534433" lon="8.1192933"><ele>228.0</ele><time>2026-04-12T06:33:03.064Z</time></trkpt><trkpt lat="44.953505" lon="8.1193767"><ele>228.0</ele><time>2026-04-12T06:33:05.061Z</time></trkpt><trkpt lat="44.953565" lon="8.1194383"><ele>228.0</ele><time>2026-04-12T06:33:07.062Z</time></trkpt><trkpt lat="44.9536333" lon="8.1194783"><ele>228.0</ele><time>2026-04-12T06:33:09.064Z</time></trkpt><trkpt lat="44.9537033" lon="8.11949"><ele>228.0</ele><time>2026-04-12T06:33:11.063Z</time></trkpt><trkpt lat="44.9537883" lon="8.1194883"><ele>228.0</ele><time>2026-04-12T06:33:14.064Z</time></trkpt><trkpt lat="44.953825" lon="8.1195783"><ele>228.0</ele><time>2026-04-12T06:33:18.062Z</time></trkpt><trkpt lat="44.953755" lon="8.119655"><ele>228.0</ele><time>2026-04-12T06:33:21.062Z</time></trkpt><trkpt lat="44.9536933" lon="8.119705"><ele>228.0</ele><time>2026-04-12T06:33:23.062Z</time></trkpt><trkpt lat="44.9536267" lon="8.1197583"><ele>228.0</ele><time>2026-04-12T06:33:25.062Z</time></trkpt><trkpt lat="44.9535583" lon="8.119805"><ele>228.0</ele><time>2026-04-12T06:33:27.066Z</time></trkpt><trkpt lat="44.95349" lon="8.1198367"><ele>228.0</ele><time>2026-04-12T06:33:29.062Z</time></trkpt><trkpt lat="44.9534133" lon="8.1198583"><ele>228.0</ele><time>2026-04-12T06:33:31.062Z</time></trkpt><trkpt lat="44.9533333" lon="8.11985"><ele>228.0</ele><time>2026-04-12T06:33:33.062Z</time></trkpt><trkpt lat="44.953265" lon="8.1198483"><ele>228.0</ele><time>2026-04-12T06:33:35.063Z</time></trkpt><trkpt lat="44.9531833" lon="8.1198317"><ele>228.0</ele><time>2026-04-12T06:33:38.063Z</time></trkpt><trkpt lat="44.953095" lon="8.1198033"><ele>228.0</ele><time>2026-04-12T06:33:41.061Z</time></trkpt><trkpt lat="44.9530133" lon="8.1197583"><ele>228.0</ele><time>2026-04-12T06:33:44.062Z</time></trkpt><trkpt lat="44.9529567" lon="8.119715"><ele>228.0</ele><time>2026-04-12T06:33:46.064Z</time></trkpt><trkpt lat="44.9528833" lon="8.1196367"><ele>228.0</ele><time>2026-04-12T06:33:49.063Z</time></trkpt><trkpt lat="44.95283" lon="8.1195717"><ele>228.0</ele><time>2026-04-12T06:33:51.062Z</time></trkpt><trkpt lat="44.952765" lon="8.1195267"><ele>228.0</ele><time>2026-04-12T06:33:53.06Z</time></trkpt><trkpt lat="44.9526917" lon="8.1194617"><ele>228.0</ele><time>2026-04-12T06:33:56.062Z</time></trkpt><trkpt lat="44.952615" lon="8.1194283"><ele>228.83333333333334</ele><time>2026-04-12T06:33:59.063Z</time></trkpt><trkpt lat="44.9525333" lon="8.1194583"><ele>229.66666666666669</ele><time>2026-04-12T06:34:03.059Z</time></trkpt><trkpt lat="44.9524717" lon="8.1195283"><ele>230.5</ele><time>2026-04-12T06:34:06.062Z</time></trkpt><trkpt lat="44.9524167" lon="8.1195867"><ele>231.33333333333334</ele><time>2026-04-12T06:34:09.063Z</time></trkpt><trkpt lat="44.95237" lon="8.1196733"><ele>232.16666666666669</ele><time>2026-04-12T06:34:12.063Z</time></trkpt><trkpt lat="44.9523383" lon="8.1197667"><ele>233.0</ele><time>2026-04-12T06:34:15.063Z</time></trkpt><trkpt lat="44.9523067" lon="8.119885"><ele>234.28571428571428</ele><time>2026-04-12T06:34:18.063Z</time></trkpt><trkpt lat="44.9522767" lon="8.1199733"><ele>235.57142857142856</ele><time>2026-04-12T06:34:20.063Z</time></trkpt><trkpt lat="44.9522583" lon="8.1200667"><ele>236.85714285714283</ele><time>2026-04-12T06:34:22.061Z</time></trkpt><trkpt lat="44.9522533" lon="8.1201667"><ele>238.14285714285714</ele><time>2026-04-12T06:34:24.064Z</time></trkpt><trkpt lat="44.9522517" lon="8.120295"><ele>239.4285714285714</ele><time>2026-04-12T06:34:26.062Z</time></trkpt><trkpt lat="44.9522367" lon="8.1204017"><ele>240.7142857142857</ele><time>2026-04-12T06:34:28.063Z</time></trkpt><trkpt lat="44.9522133" lon="8.120495"><ele>242.0</ele><time>2026-04-12T06:34:31.065Z</time></trkpt><trkpt lat="44.9521983" lon="8.1206"><ele>242.00000000000003</ele><time>2026-04-12T06:34:34.063Z</time></trkpt><trkpt lat="44.9521883" lon="8.1207167"><ele>242.0</ele><time>2026-04-12T06:34:37.06Z</time></trkpt><trkpt lat="44.9521667" lon="8.1208283"><ele>242.0</ele><time>2026-04-12T06:34:40.062Z</time></trkpt><trkpt lat="44.9521417" lon="8.1209333"><ele>242.0</ele><time>2026-04-12T06:34:43.063Z</time></trkpt><trkpt lat="44.9521083" lon="8.1210433"><ele>242.00000000000003</ele><time>2026-04-12T06:34:46.064Z</time></trkpt><trkpt lat="44.9520683" lon="8.1211333"><ele>242.0</ele><time>2026-04-12T06:34:49.064Z</time></trkpt><trkpt lat="44.9520183" lon="8.1212167"><ele>242.16666666666669</ele><time>2026-04-12T06:34:52.061Z</time></trkpt><trkpt lat="44.9519617" lon="8.1213167"><ele>242.33333333333334</ele><time>2026-04-12T06:34:55.062Z</time></trkpt><trkpt lat="44.9519233" lon="8.1214233"><ele>242.5</ele><time>2026-04-12T06:34:58.063Z</time></trkpt><trkpt lat="44.95187" lon="8.121515"><ele>242.66666666666669</ele><time>2026-04-12T06:35:01.062Z</time></trkpt><trkpt lat="44.9518183" lon="8.1215883"><ele>242.83333333333334</ele><time>2026-04-12T06:35:03.064Z</time></trkpt><trkpt lat="44.9517617" lon="8.12166"><ele>243.0</ele><time>2026-04-12T06:35:05.073Z</time></trkpt><trkpt lat="44.9516967" lon="8.1217383"><ele>243.0</ele><time>2026-04-12T06:35:07.063Z</time></trkpt><trkpt lat="44.951625" lon="8.121815"><ele>243.0</ele><time>2026-04-12T06:35:09.062Z</time></trkpt><trkpt lat="44.9515433" lon="8.121865"><ele>243.0</ele><time>2026-04-12T06:35:11.063Z</time></trkpt><trkpt lat="44.9514567" lon="8.1218883"><ele>243.0</ele><time>2026-04-12T06:35:13.063Z</time></trkpt><trkpt lat="44.9513767" lon="8.1218917"><ele>243.0</ele><time>2026-04-12T06:35:15.063Z</time></trkpt><trkpt lat="44.9513033" lon="8.1218833"><ele>243.0</ele><time>2026-04-12T06:35:17.062Z</time></trkpt><trkpt lat="44.9512333" lon="8.12187"><ele>243.0</ele><time>2026-04-12T06:35:19.063Z</time></trkpt><trkpt lat="44.95117" lon="8.12183"><ele>243.0</ele><time>2026-04-12T06:35:21.068Z</time></trkpt><trkpt lat="44.9511233" lon="8.1217583"><ele>243.0</ele><time>2026-04-12T06:35:23.061Z</time></trkpt><trkpt lat="44.95108" lon="8.1216667"><ele>243.0</ele><time>2026-04-12T06:35:25.062Z</time></trkpt><trkpt lat="44.9510267" lon="8.121595"><ele>243.0</ele><time>2026-04-12T06:35:27.064Z</time></trkpt><trkpt lat="44.9509683" lon="8.121545"><ele>243.0</ele><time>2026-04-12T06:35:30.062Z</time></trkpt><trkpt lat="44.9508933" lon="8.1214483"><ele>242.28571428571428</ele><time>2026-04-12T06:35:33.066Z</time></trkpt><trkpt lat="44.9508783" lon="8.121355"><ele>241.57142857142858</ele><time>2026-04-12T06:35:35.064Z</time></trkpt><trkpt lat="44.9508467" lon="8.1212567"><ele>240.85714285714286</ele><time>2026-04-12T06:35:37.062Z</time></trkpt><trkpt lat="44.950805" lon="8.12116"><ele>240.14285714285714</ele><time>2026-04-12T06:35:39.062Z</time></trkpt><trkpt lat="44.950785" lon="8.121055"><ele>239.42857142857144</ele><time>2026-04-12T06:35:41.061Z</time></trkpt><trkpt lat="44.95078" lon="8.1209533"><ele>238.71428571428572</ele><time>2026-04-12T06:35:43.062Z</time></trkpt><trkpt lat="44.950785" lon="8.1208583"><ele>238.0</ele><time>2026-04-12T06:35:45.065Z</time></trkpt><trkpt lat="44.9507867" lon="8.1207617"><ele>238.83333333333331</ele><time>2026-04-12T06:35:47.063Z</time></trkpt><trkpt lat="44.9507783" lon="8.1206683"><ele>239.66666666666666</ele><time>2026-04-12T06:35:49.065Z</time></trkpt><trkpt lat="44.95074" lon="8.12058"><ele>240.5</ele><time>2026-04-12T06:35:51.062Z</time></trkpt><trkpt lat="44.950685" lon="8.120495"><ele>241.33333333333331</ele><time>2026-04-12T06:35:53.062Z</time></trkpt><trkpt lat="44.9506267" lon="8.1204217"><ele>242.16666666666666</ele><time>2026-04-12T06:35:55.065Z</time></trkpt><trkpt lat="44.9505567" lon="8.1203533"><ele>243.0</ele><time>2026-04-12T06:35:57.063Z</time></trkpt><trkpt lat="44.9504817" lon="8.1203033"><ele>243.0</ele><time>2026-04-12T06:35:59.064Z</time></trkpt><trkpt lat="44.9504033" lon="8.1202833"><ele>243.0</ele><time>2026-04-12T06:36:01.062Z</time></trkpt><trkpt lat="44.9503283" lon="8.1202833"><ele>243.0</ele><time>2026-04-12T06:36:03.062Z</time></trkpt><trkpt lat="44.9502467" lon="8.120255"><ele>243.0</ele><time>2026-04-12T06:36:05.059Z</time></trkpt><trkpt lat="44.950185" lon="8.1201883"><ele>243.0</ele><time>2026-04-12T06:36:07.064Z</time></trkpt><trkpt lat="44.9501483" lon="8.1200967"><ele>243.0</ele><time>2026-04-12T06:36:09.063Z</time></trkpt><trkpt lat="44.9501067" lon="8.1199983"><ele>243.0</ele><time>2026-04-12T06:36:11.063Z</time></trkpt><trkpt lat="44.9500617" lon="8.1199083"><ele>243.0</ele><time>2026-04-12T06:36:13.063Z</time></trkpt><trkpt lat="44.950005" lon="8.119865"><ele>243.0</ele><time>2026-04-12T06:36:15.065Z</time></trkpt><trkpt lat="44.949945" lon="8.119895"><ele>243.0</ele><time>2026-04-12T06:36:17.064Z</time></trkpt><trkpt lat="44.9499083" lon="8.1200083"><ele>243.0</ele><time>2026-04-12T06:36:20.062Z</time></trkpt><trkpt lat="44.9498967" lon="8.1201383"><ele>243.0</ele><time>2026-04-12T06:36:23.063Z</time></trkpt><trkpt lat="44.9498917" lon="8.1202533"><ele>245.33333333333334</ele><time>2026-04-12T06:36:26.065Z</time></trkpt><trkpt lat="44.9498883" lon="8.120365"><ele>247.66666666666669</ele><time>2026-04-12T06:36:29.064Z</time></trkpt><trkpt lat="44.9498783" lon="8.1204833"><ele>250.0</ele><time>2026-04-12T06:36:32.066Z</time></trkpt><trkpt lat="44.94986" lon="8.1205733"><ele>252.33333333333334</ele><time>2026-04-12T06:36:34.061Z</time></trkpt><trkpt lat="44.949805" lon="8.1206867"><ele>254.66666666666669</ele><time>2026-04-12T06:36:37.063Z</time></trkpt><trkpt lat="44.9497467" lon="8.1207667"><ele>257.0</ele><time>2026-04-12T06:36:39.065Z</time></trkpt><trkpt lat="44.94967" lon="8.1208583"><ele>258.5</ele><time>2026-04-12T06:36:41.064Z</time></trkpt><trkpt lat="44.94958" lon="8.1209567"><ele>260.0</ele><time>2026-04-12T06:36:43.064Z</time></trkpt><trkpt lat="44.9494867" lon="8.1210617"><ele>261.5</ele><time>2026-04-12T06:36:45.065Z</time></trkpt><trkpt lat="44.9494383" lon="8.1211233"><ele>263.0</ele><time>2026-04-12T06:36:46.063Z</time></trkpt><trkpt lat="44.94939" lon="8.1211817"><ele>264.5</ele><time>2026-04-12T06:36:47.062Z</time></trkpt><trkpt lat="44.94934" lon="8.1212383"><ele>266.0</ele><time>2026-04-12T06:36:48.063Z</time></trkpt><trkpt lat="44.9492533" lon="8.1213517"><ele>265.40000000000003</ele><time>2026-04-12T06:36:50.064Z</time></trkpt><trkpt lat="44.9491683" lon="8.121455"><ele>264.8</ele><time>2026-04-12T06:36:52.065Z</time></trkpt><trkpt lat="44.9490817" lon="8.1215533"><ele>264.20000000000005</ele><time>2026-04-12T06:36:54.061Z</time></trkpt><trkpt lat="44.9489717" lon="8.1216483"><ele>263.6</ele><time>2026-04-12T06:36:56.064Z</time></trkpt><trkpt lat="44.9489033" lon="8.121695"><ele>263.0</ele><time>2026-04-12T06:36:57.063Z</time></trkpt><trkpt lat="44.9488283" lon="8.12174"><ele>263.0</ele><time>2026-04-12T06:36:58.064Z</time></trkpt><trkpt lat="44.9487533" lon="8.1217883"><ele>263.0</ele><time>2026-04-12T06:36:59.063Z</time></trkpt><trkpt lat="44.948675" lon="8.1218333"><ele>263.0</ele><time>2026-04-12T06:37:00.062Z</time></trkpt><trkpt lat="44.9485983" lon="8.121885"><ele>263.0</ele><time>2026-04-12T06:37:01.064Z</time></trkpt><trkpt lat="44.9485267" lon="8.1219433"><ele>263.0</ele><time>2026-04-12T06:37:02.063Z</time></trkpt><trkpt lat="44.9484533" lon="8.122005"><ele>263.0</ele><time>2026-04-12T06:37:03.063Z</time></trkpt><trkpt lat="44.9483867" lon="8.1220733"><ele>262.5</ele><time>2026-04-12T06:37:04.063Z</time></trkpt><trkpt lat="44.9483217" lon="8.1221417"><ele>262.0</ele><time>2026-04-12T06:37:05.063Z</time></trkpt><trkpt lat="44.9482583" lon="8.1222067"><ele>261.5</ele><time>2026-04-12T06:37:06.064Z</time></trkpt><trkpt lat="44.948185" lon="8.12227"><ele>261.0</ele><time>2026-04-12T06:37:07.063Z</time></trkpt><trkpt lat="44.94812" lon="8.1223367"><ele>260.5</ele><time>2026-04-12T06:37:08.063Z</time></trkpt><trkpt lat="44.94806" lon="8.1223917"><ele>260.0</ele><time>2026-04-12T06:37:09.064Z</time></trkpt><trkpt lat="44.9479967" lon="8.12243"><ele>260.00000000000006</ele><time>2026-04-12T06:37:10.064Z</time></trkpt><trkpt lat="44.94793" lon="8.1224483"><ele>260.0</ele><time>2026-04-12T06:37:11.061Z</time></trkpt><trkpt lat="44.9478633" lon="8.1224517"><ele>260.0</ele><time>2026-04-12T06:37:12.062Z</time></trkpt><trkpt lat="44.9477967" lon="8.1224533"><ele>260.0</ele><time>2026-04-12T06:37:13.058Z</time></trkpt><trkpt lat="44.9477317" lon="8.1224517"><ele>260.0</ele><time>2026-04-12T06:37:14.064Z</time></trkpt><trkpt lat="44.9476583" lon="8.122455"><ele>260.00000000000006</ele><time>2026-04-12T06:37:15.064Z</time></trkpt><trkpt lat="44.9475917" lon="8.122465"><ele>260.0</ele><time>2026-04-12T06:37:16.061Z</time></trkpt><trkpt lat="44.9475283" lon="8.12248"><ele>259.42857142857144</ele><time>2026-04-12T06:37:17.063Z</time></trkpt><trkpt lat="44.9474583" lon="8.122495"><ele>258.8571428571429</ele><time>2026-04-12T06:37:18.062Z</time></trkpt><trkpt lat="44.9473917" lon="8.1225183"><ele>258.2857142857143</ele><time>2026-04-12T06:37:19.066Z</time></trkpt><trkpt lat="44.9473283" lon="8.122545"><ele>257.7142857142857</ele><time>2026-04-12T06:37:20.062Z</time></trkpt><trkpt lat="44.9472683" lon="8.1225733"><ele>257.1428571428571</ele><time>2026-04-12T06:37:21.064Z</time></trkpt><trkpt lat="44.9472033" lon="8.1226"><ele>256.57142857142856</ele><time>2026-04-12T06:37:22.064Z</time></trkpt><trkpt lat="44.9471383" lon="8.12262"><ele>256.0</ele><time>2026-04-12T06:37:23.063Z</time></trkpt><trkpt lat="44.9470717" lon="8.1226267"><ele>256.0</ele><time>2026-04-12T06:37:24.064Z</time></trkpt><trkpt lat="44.9470033" lon="8.1226233"><ele>255.99999999999997</ele><time>2026-04-12T06:37:25.062Z</time></trkpt><trkpt lat="44.9469333" lon="8.122615"><ele>256.0</ele><time>2026-04-12T06:37:26.063Z</time></trkpt><trkpt lat="44.9468517" lon="8.1226"><ele>256.0</ele><time>2026-04-12T06:37:27.063Z</time></trkpt><trkpt lat="44.9467783" lon="8.1225883"><ele>255.99999999999997</ele><time>2026-04-12T06:37:28.063Z</time></trkpt><trkpt lat="44.946705" lon="8.1225767"><ele>256.0</ele><time>2026-04-12T06:37:29.064Z</time></trkpt><trkpt lat="44.946625" lon="8.12256"><ele>256.0</ele><time>2026-04-12T06:37:30.065Z</time></trkpt><trkpt lat="44.9465483" lon="8.1225567"><ele>255.49999999999997</ele><time>2026-04-12T06:37:31.067Z</time></trkpt><trkpt lat="44.9464767" lon="8.1225467"><ele>255.0</ele><time>2026-04-12T06:37:32.064Z</time></trkpt><trkpt lat="44.9464083" lon="8.1225233"><ele>254.5</ele><time>2026-04-12T06:37:33.069Z</time></trkpt><trkpt lat="44.9463433" lon="8.1224983"><ele>254.0</ele><time>2026-04-12T06:37:34.062Z</time></trkpt><trkpt lat="44.9462267" lon="8.1225233"><ele>253.49999999999997</ele><time>2026-04-12T06:37:36.06Z</time></trkpt><trkpt lat="44.9461717" lon="8.1225683"><ele>253.0</ele><time>2026-04-12T06:37:37.062Z</time></trkpt><trkpt lat="44.946115" lon="8.1226167"><ele>252.99999999999997</ele><time>2026-04-12T06:37:38.063Z</time></trkpt><trkpt lat="44.9460683" lon="8.12268"><ele>253.0</ele><time>2026-04-12T06:37:39.064Z</time></trkpt><trkpt lat="44.9460267" lon="8.1228483"><ele>253.0</ele><time>2026-04-12T06:37:41.062Z</time></trkpt><trkpt lat="44.94601" lon="8.1229467"><ele>253.0</ele><time>2026-04-12T06:37:42.065Z</time></trkpt><trkpt lat="44.9459817" lon="8.1230433"><ele>252.99999999999997</ele><time>2026-04-12T06:37:43.063Z</time></trkpt><trkpt lat="44.9459483" lon="8.1231417"><ele>253.0</ele><time>2026-04-12T06:37:44.062Z</time></trkpt><trkpt lat="44.94591" lon="8.1232333"><ele>252.99999999999997</ele><time>2026-04-12T06:37:45.066Z</time></trkpt><trkpt lat="44.945865" lon="8.1233183"><ele>253.0</ele><time>2026-04-12T06:37:46.063Z</time></trkpt><trkpt lat="44.9458133" lon="8.1233933"><ele>253.0</ele><time>2026-04-12T06:37:47.061Z</time></trkpt><trkpt lat="44.9457617" lon="8.1234617"><ele>253.0</ele><time>2026-04-12T06:37:48.064Z</time></trkpt><trkpt lat="44.94571" lon="8.123535"><ele>252.99999999999997</ele><time>2026-04-12T06:37:49.064Z</time></trkpt><trkpt lat="44.9456583" lon="8.123605"><ele>253.0</ele><time>2026-04-12T06:37:50.061Z</time></trkpt><trkpt lat="44.945565" lon="8.1236883"><ele>253.0</ele><time>2026-04-12T06:37:52.062Z</time></trkpt><trkpt lat="44.9454583" lon="8.123685"><ele>253.0</ele><time>2026-04-12T06:37:54.063Z</time></trkpt><trkpt lat="44.9453533" lon="8.1236083"><ele>253.0</ele><time>2026-04-12T06:37:56.064Z</time></trkpt><trkpt lat="44.9452517" lon="8.123555"><ele>253.0</ele><time>2026-04-12T06:37:58.064Z</time></trkpt><trkpt lat="44.9451633" lon="8.1235367"><ele>253.0</ele><time>2026-04-12T06:38:00.064Z</time></trkpt><trkpt lat="44.9450717" lon="8.123545"><ele>252.2</ele><time>2026-04-12T06:38:02.066Z</time></trkpt><trkpt lat="44.94498" lon="8.1235867"><ele>251.4</ele><time>2026-04-12T06:38:04.064Z</time></trkpt><trkpt lat="44.944895" lon="8.123645"><ele>250.59999999999997</ele><time>2026-04-12T06:38:06.065Z</time></trkpt><trkpt lat="44.9447767" lon="8.1236933"><ele>249.79999999999998</ele><time>2026-04-12T06:38:08.063Z</time></trkpt><trkpt lat="44.9446783" lon="8.1237483"><ele>249.0</ele><time>2026-04-12T06:38:10.063Z</time></trkpt><trkpt lat="44.9445867" lon="8.123785"><ele>249.0</ele><time>2026-04-12T06:38:12.062Z</time></trkpt><trkpt lat="44.9444983" lon="8.1238083"><ele>248.99999999999997</ele><time>2026-04-12T06:38:14.062Z</time></trkpt><trkpt lat="44.9444017" lon="8.1238217"><ele>248.99999999999997</ele><time>2026-04-12T06:38:16.063Z</time></trkpt><trkpt lat="44.9442983" lon="8.1238317"><ele>249.0</ele><time>2026-04-12T06:38:18.062Z</time></trkpt><trkpt lat="44.9442033" lon="8.12384"><ele>249.0</ele><time>2026-04-12T06:38:20.062Z</time></trkpt><trkpt lat="44.94411" lon="8.1238567"><ele>249.16666666666666</ele><time>2026-04-12T06:38:22.061Z</time></trkpt><trkpt lat="44.94402" lon="8.12388"><ele>249.33333333333331</ele><time>2026-04-12T06:38:24.064Z</time></trkpt><trkpt lat="44.94394" lon="8.1239"><ele>249.5</ele><time>2026-04-12T06:38:26.064Z</time></trkpt><trkpt lat="44.9438717" lon="8.1239217"><ele>249.66666666666666</ele><time>2026-04-12T06:38:28.064Z</time></trkpt><trkpt lat="44.943805" lon="8.1239367"><ele>249.83333333333331</ele><time>2026-04-12T06:38:30.063Z</time></trkpt><trkpt lat="44.9437233" lon="8.1239717"><ele>250.0</ele><time>2026-04-12T06:38:33.063Z</time></trkpt><trkpt lat="44.94366" lon="8.1240083"><ele>249.99999999999997</ele><time>2026-04-12T06:38:36.064Z</time></trkpt><trkpt lat="44.9435967" lon="8.1240433"><ele>250.0</ele><time>2026-04-12T06:38:39.063Z</time></trkpt><trkpt lat="44.94353" lon="8.1240733"><ele>250.0</ele><time>2026-04-12T06:38:42.063Z</time></trkpt><trkpt lat="44.9434683" lon="8.12412"><ele>250.0</ele><time>2026-04-12T06:38:45.065Z</time></trkpt><trkpt lat="44.9433883" lon="8.1241833"><ele>249.99999999999997</ele><time>2026-04-12T06:38:48.062Z</time></trkpt><trkpt lat="44.9433283" lon="8.124235"><ele>250.0</ele><time>2026-04-12T06:38:50.063Z</time></trkpt><trkpt lat="44.94326" lon="8.1242933"><ele>250.83333333333331</ele><time>2026-04-12T06:38:52.061Z</time></trkpt><trkpt lat="44.94319" lon="8.1243533"><ele>251.66666666666666</ele><time>2026-04-12T06:38:54.065Z</time></trkpt><trkpt lat="44.9431067" lon="8.124415"><ele>252.5</ele><time>2026-04-12T06:38:56.065Z</time></trkpt><trkpt lat="44.9430267" lon="8.1244767"><ele>253.33333333333331</ele><time>2026-04-12T06:38:58.065Z</time></trkpt><trkpt lat="44.9429433" lon="8.1245267"><ele>254.16666666666666</ele><time>2026-04-12T06:39:00.061Z</time></trkpt><trkpt lat="44.9428617" lon="8.1245717"><ele>255.0</ele><time>2026-04-12T06:39:02.064Z</time></trkpt><trkpt lat="44.94278" lon="8.1246317"><ele>255.0</ele><time>2026-04-12T06:39:04.063Z</time></trkpt><trkpt lat="44.9426967" lon="8.1247167"><ele>255.0</ele><time>2026-04-12T06:39:06.063Z</time></trkpt><trkpt lat="44.942615" lon="8.1248317"><ele>255.0</ele><time>2026-04-12T06:39:08.063Z</time></trkpt><trkpt lat="44.9425683" lon="8.1248983"><ele>255.0</ele><time>2026-04-12T06:39:09.062Z</time></trkpt><trkpt lat="44.9425233" lon="8.1249717"><ele>255.0</ele><time>2026-04-12T06:39:10.063Z</time></trkpt><trkpt lat="44.942475" lon="8.1250483"><ele>255.0</ele><time>2026-04-12T06:39:11.061Z</time></trkpt><trkpt lat="44.942425" lon="8.125125"><ele>254.5</ele><time>2026-04-12T06:39:12.062Z</time></trkpt><trkpt lat="44.94237" lon="8.1251983"><ele>254.0</ele><time>2026-04-12T06:39:13.063Z</time></trkpt><trkpt lat="44.9423083" lon="8.1252733"><ele>253.5</ele><time>2026-04-12T06:39:14.063Z</time></trkpt><trkpt lat="44.9422467" lon="8.1253433"><ele>253.0</ele><time>2026-04-12T06:39:15.063Z</time></trkpt><trkpt lat="44.9421817" lon="8.1254083"><ele>252.5</ele><time>2026-04-12T06:39:16.063Z</time></trkpt><trkpt lat="44.94211" lon="8.1254717"><ele>252.0</ele><time>2026-04-12T06:39:17.061Z</time></trkpt><trkpt lat="44.94204" lon="8.1255317"><ele>252.0</ele><time>2026-04-12T06:39:18.063Z</time></trkpt><trkpt lat="44.94197" lon="8.12559"><ele>252.0</ele><time>2026-04-12T06:39:19.062Z</time></trkpt><trkpt lat="44.9419017" lon="8.125645"><ele>252.0</ele><time>2026-04-12T06:39:20.063Z</time></trkpt><trkpt lat="44.9418283" lon="8.1256983"><ele>252.0</ele><time>2026-04-12T06:39:21.063Z</time></trkpt><trkpt lat="44.941755" lon="8.125745"><ele>252.0</ele><time>2026-04-12T06:39:22.063Z</time></trkpt><trkpt lat="44.94168" lon="8.125785"><ele>252.0</ele><time>2026-04-12T06:39:23.064Z</time></trkpt><trkpt lat="44.9416017" lon="8.1258167"><ele>252.16666666666666</ele><time>2026-04-12T06:39:24.065Z</time></trkpt><trkpt lat="44.941525" lon="8.125845"><ele>252.33333333333331</ele><time>2026-04-12T06:39:25.062Z</time></trkpt><trkpt lat="44.9414467" lon="8.1258717"><ele>252.5</ele><time>2026-04-12T06:39:26.062Z</time></trkpt><trkpt lat="44.9413717" lon="8.1258967"><ele>252.66666666666666</ele><time>2026-04-12T06:39:27.061Z</time></trkpt><trkpt lat="44.9413" lon="8.125925"><ele>252.83333333333331</ele><time>2026-04-12T06:39:28.062Z</time></trkpt><trkpt lat="44.94123" lon="8.1259567"><ele>253.0</ele><time>2026-04-12T06:39:29.063Z</time></trkpt><trkpt lat="44.9411633" lon="8.12599"><ele>253.0</ele><time>2026-04-12T06:39:30.064Z</time></trkpt><trkpt lat="44.941105" lon="8.1260267"><ele>253.0</ele><time>2026-04-12T06:39:31.065Z</time></trkpt><trkpt lat="44.9410067" lon="8.1260717"><ele>253.0</ele><time>2026-04-12T06:39:33.062Z</time></trkpt><trkpt lat="44.9409067" lon="8.126095"><ele>253.0</ele><time>2026-04-12T06:39:35.062Z</time></trkpt><trkpt lat="44.940815" lon="8.1261233"><ele>253.0</ele><time>2026-04-12T06:39:37.105Z</time></trkpt><trkpt lat="44.94072" lon="8.12617"><ele>253.2</ele><time>2026-04-12T06:39:39.065Z</time></trkpt><trkpt lat="44.94064" lon="8.1262367"><ele>253.4</ele><time>2026-04-12T06:39:41.065Z</time></trkpt><trkpt lat="44.9405617" lon="8.1263183"><ele>253.59999999999997</ele><time>2026-04-12T06:39:43.063Z</time></trkpt><trkpt lat="44.940485" lon="8.1263983"><ele>253.79999999999998</ele><time>2026-04-12T06:39:45.063Z</time></trkpt><trkpt lat="44.9404" lon="8.1265133"><ele>254.0</ele><time>2026-04-12T06:39:47.061Z</time></trkpt><trkpt lat="44.9403583" lon="8.1265867"><ele>253.00000000000003</ele><time>2026-04-12T06:39:48.063Z</time></trkpt><trkpt lat="44.940325" lon="8.126685"><ele>252.0</ele><time>2026-04-12T06:39:49.062Z</time></trkpt><trkpt lat="44.940305" lon="8.126785"><ele>251.0</ele><time>2026-04-12T06:39:50.063Z</time></trkpt><trkpt lat="44.94029" lon="8.1268783"><ele>250.0</ele><time>2026-04-12T06:39:51.062Z</time></trkpt><trkpt lat="44.9402717" lon="8.1269683"><ele>249.00000000000003</ele><time>2026-04-12T06:39:52.064Z</time></trkpt><trkpt lat="44.9402467" lon="8.127055"><ele>248.0</ele><time>2026-04-12T06:39:53.061Z</time></trkpt><trkpt lat="44.940195" lon="8.12722"><ele>248.0</ele><time>2026-04-12T06:39:55.062Z</time></trkpt><trkpt lat="44.9401433" lon="8.1273767"><ele>248.0</ele><time>2026-04-12T06:39:57.063Z</time></trkpt><trkpt lat="44.940095" lon="8.1275317"><ele>248.0</ele><time>2026-04-12T06:39:59.063Z</time></trkpt><trkpt lat="44.940035" lon="8.1276533"><ele>248.0</ele><time>2026-04-12T06:40:01.064Z</time></trkpt><trkpt lat="44.9399683" lon="8.1277483"><ele>248.0</ele><time>2026-04-12T06:40:03.066Z</time></trkpt><trkpt lat="44.9398833" lon="8.1278383"><ele>248.8</ele><time>2026-04-12T06:40:05.063Z</time></trkpt><trkpt lat="44.9398117" lon="8.1279217"><ele>249.60000000000002</ele><time>2026-04-12T06:40:07.064Z</time></trkpt><trkpt lat="44.9397333" lon="8.1279867"><ele>250.39999999999998</ele><time>2026-04-12T06:40:09.062Z</time></trkpt><trkpt lat="44.9396533" lon="8.1280617"><ele>251.2</ele><time>2026-04-12T06:40:11.062Z</time></trkpt><trkpt lat="44.939585" lon="8.1281717"><ele>252.0</ele><time>2026-04-12T06:40:13.063Z</time></trkpt><trkpt lat="44.9395333" lon="8.1283067"><ele>252.2</ele><time>2026-04-12T06:40:15.062Z</time></trkpt><trkpt lat="44.939485" lon="8.128455"><ele>252.39999999999998</ele><time>2026-04-12T06:40:17.061Z</time></trkpt><trkpt lat="44.9394367" lon="8.12862"><ele>252.60000000000002</ele><time>2026-04-12T06:40:19.064Z</time></trkpt><trkpt lat="44.9393817" lon="8.1287467"><ele>252.8</ele><time>2026-04-12T06:40:21.064Z</time></trkpt><trkpt lat="44.9393483" lon="8.1288233"><ele>253.0</ele><time>2026-04-12T06:40:23.062Z</time></trkpt><trkpt lat="44.9392533" lon="8.1289117"><ele>252.66666666666666</ele><time>2026-04-12T06:40:25.062Z</time></trkpt><trkpt lat="44.9391533" lon="8.1289833"><ele>252.33333333333331</ele><time>2026-04-12T06:40:26.062Z</time></trkpt><trkpt lat="44.939075" lon="8.129045"><ele>252.0</ele><time>2026-04-12T06:40:27.064Z</time></trkpt><trkpt lat="44.939005" lon="8.12911"><ele>251.66666666666669</ele><time>2026-04-12T06:40:28.064Z</time></trkpt><trkpt lat="44.9389417" lon="8.12917"><ele>251.33333333333334</ele><time>2026-04-12T06:40:29.062Z</time></trkpt><trkpt lat="44.9388733" lon="8.1292383"><ele>251.0</ele><time>2026-04-12T06:40:30.063Z</time></trkpt><trkpt lat="44.938805" lon="8.1293"><ele>250.99999999999997</ele><time>2026-04-12T06:40:31.062Z</time></trkpt><trkpt lat="44.9387417" lon="8.1293617"><ele>251.0</ele><time>2026-04-12T06:40:32.064Z</time></trkpt><trkpt lat="44.9386833" lon="8.1294283"><ele>250.99999999999997</ele><time>2026-04-12T06:40:33.065Z</time></trkpt><trkpt lat="44.93863" lon="8.1294967"><ele>250.99999999999997</ele><time>2026-04-12T06:40:34.062Z</time></trkpt><trkpt lat="44.93858" lon="8.1295683"><ele>251.0</ele><time>2026-04-12T06:40:35.061Z</time></trkpt><trkpt lat="44.9385417" lon="8.129645"><ele>250.99999999999997</ele><time>2026-04-12T06:40:36.062Z</time></trkpt><trkpt lat="44.9385067" lon="8.12973"><ele>250.99999999999997</ele><time>2026-04-12T06:40:37.062Z</time></trkpt><trkpt lat="44.9384783" lon="8.1298183"><ele>251.28571428571425</ele><time>2026-04-12T06:40:38.063Z</time></trkpt><trkpt lat="44.9384517" lon="8.129905"><ele>251.57142857142856</ele><time>2026-04-12T06:40:39.063Z</time></trkpt><trkpt lat="44.9384283" lon="8.12999"><ele>251.85714285714286</ele><time>2026-04-12T06:40:40.063Z</time></trkpt><trkpt lat="44.938405" lon="8.1300767"><ele>252.14285714285714</ele><time>2026-04-12T06:40:41.064Z</time></trkpt><trkpt lat="44.93838" lon="8.13016"><ele>252.42857142857144</ele><time>2026-04-12T06:40:42.065Z</time></trkpt><trkpt lat="44.9383567" lon="8.130245"><ele>252.71428571428575</ele><time>2026-04-12T06:40:43.062Z</time></trkpt><trkpt lat="44.9383117" lon="8.1304"><ele>253.00000000000003</ele><time>2026-04-12T06:40:45.063Z</time></trkpt><trkpt lat="44.93826" lon="8.1305433"><ele>253.0</ele><time>2026-04-12T06:40:47.063Z</time></trkpt><trkpt lat="44.938195" lon="8.1306417"><ele>253.0</ele><time>2026-04-12T06:40:49.063Z</time></trkpt><trkpt lat="44.9381267" lon="8.1307317"><ele>253.0</ele><time>2026-04-12T06:40:51.065Z</time></trkpt><trkpt lat="44.93807" lon="8.1308433"><ele>253.0</ele><time>2026-04-12T06:40:53.062Z</time></trkpt><trkpt lat="44.9380233" lon="8.130965"><ele>253.0</ele><time>2026-04-12T06:40:55.063Z</time></trkpt><trkpt lat="44.93797" lon="8.1311317"><ele>253.14285714285717</ele><time>2026-04-12T06:40:57.065Z</time></trkpt><trkpt lat="44.937945" lon="8.1312267"><ele>253.28571428571428</ele><time>2026-04-12T06:40:58.063Z</time></trkpt><trkpt lat="44.9379217" lon="8.13133"><ele>253.42857142857144</ele><time>2026-04-12T06:40:59.064Z</time></trkpt><trkpt lat="44.9379" lon="8.1314333"><ele>253.57142857142858</ele><time>2026-04-12T06:41:00.063Z</time></trkpt><trkpt lat="44.9378667" lon="8.1315283"><ele>253.71428571428572</ele><time>2026-04-12T06:41:01.065Z</time></trkpt><trkpt lat="44.9378317" lon="8.131615"><ele>253.85714285714286</ele><time>2026-04-12T06:41:02.063Z</time></trkpt><trkpt lat="44.9378" lon="8.1316967"><ele>254.0</ele><time>2026-04-12T06:41:03.063Z</time></trkpt><trkpt lat="44.9377717" lon="8.1317767"><ele>252.50000000000003</ele><time>2026-04-12T06:41:04.063Z</time></trkpt><trkpt lat="44.937745" lon="8.1318583"><ele>251.0</ele><time>2026-04-12T06:41:05.062Z</time></trkpt><trkpt lat="44.937695" lon="8.1320217"><ele>249.5</ele><time>2026-04-12T06:41:07.063Z</time></trkpt><trkpt lat="44.9376633" lon="8.132105"><ele>248.0</ele><time>2026-04-12T06:41:08.063Z</time></trkpt><trkpt lat="44.93763" lon="8.1321967"><ele>246.50000000000003</ele><time>2026-04-12T06:41:09.065Z</time></trkpt><trkpt lat="44.937585" lon="8.1322983"><ele>245.0</ele><time>2026-04-12T06:41:10.063Z</time></trkpt><trkpt lat="44.9375317" lon="8.1324083"><ele>244.83333333333334</ele><time>2026-04-12T06:41:11.062Z</time></trkpt><trkpt lat="44.93747" lon="8.1325117"><ele>244.66666666666669</ele><time>2026-04-12T06:41:12.062Z</time></trkpt><trkpt lat="44.9374083" lon="8.132605"><ele>244.5</ele><time>2026-04-12T06:41:13.062Z</time></trkpt><trkpt lat="44.9373633" lon="8.132695"><ele>244.33333333333331</ele><time>2026-04-12T06:41:14.062Z</time></trkpt><trkpt lat="44.9373417" lon="8.13281"><ele>244.16666666666666</ele><time>2026-04-12T06:41:15.063Z</time></trkpt><trkpt lat="44.937315" lon="8.13291"><ele>244.0</ele><time>2026-04-12T06:41:16.064Z</time></trkpt><trkpt lat="44.9372833" lon="8.13302"><ele>243.99999999999997</ele><time>2026-04-12T06:41:17.061Z</time></trkpt><trkpt lat="44.93724" lon="8.1331333"><ele>244.0</ele><time>2026-04-12T06:41:18.062Z</time></trkpt><trkpt lat="44.9371833" lon="8.133225"><ele>244.0</ele><time>2026-04-12T06:41:19.062Z</time></trkpt><trkpt lat="44.93712" lon="8.1333067"><ele>244.0</ele><time>2026-04-12T06:41:20.063Z</time></trkpt><trkpt lat="44.937055" lon="8.1333833"><ele>243.99999999999997</ele><time>2026-04-12T06:41:21.062Z</time></trkpt><trkpt lat="44.9369817" lon="8.1334617"><ele>244.0</ele><time>2026-04-12T06:41:22.063Z</time></trkpt><trkpt lat="44.936895" lon="8.133535"><ele>242.2</ele><time>2026-04-12T06:41:23.061Z</time></trkpt><trkpt lat="44.936805" lon="8.1336117"><ele>240.39999999999998</ele><time>2026-04-12T06:41:24.063Z</time></trkpt><trkpt lat="44.9367083" lon="8.1336833"><ele>238.6</ele><time>2026-04-12T06:41:25.063Z</time></trkpt><trkpt lat="44.9366067" lon="8.1337467"><ele>236.8</ele><time>2026-04-12T06:41:26.063Z</time></trkpt><trkpt lat="44.9365033" lon="8.1338033"><ele>235.0</ele><time>2026-04-12T06:41:27.062Z</time></trkpt><trkpt lat="44.936395" lon="8.1338483"><ele>234.2</ele><time>2026-04-12T06:41:28.062Z</time></trkpt><trkpt lat="44.9362817" lon="8.1338867"><ele>233.4</ele><time>2026-04-12T06:41:29.062Z</time></trkpt><trkpt lat="44.9361783" lon="8.1339367"><ele>232.60000000000002</ele><time>2026-04-12T06:41:30.061Z</time></trkpt><trkpt lat="44.93608" lon="8.134"><ele>231.8</ele><time>2026-04-12T06:41:31.062Z</time></trkpt><trkpt lat="44.9359833" lon="8.1340733"><ele>231.0</ele><time>2026-04-12T06:41:32.063Z</time></trkpt><trkpt lat="44.9358933" lon="8.1341383"><ele>230.83333333333334</ele><time>2026-04-12T06:41:33.064Z</time></trkpt><trkpt lat="44.935805" lon="8.13419"><ele>230.66666666666669</ele><time>2026-04-12T06:41:34.063Z</time></trkpt><trkpt lat="44.9357217" lon="8.13423"><ele>230.5</ele><time>2026-04-12T06:41:35.063Z</time></trkpt><trkpt lat="44.9356517" lon="8.1342717"><ele>230.33333333333334</ele><time>2026-04-12T06:41:36.063Z</time></trkpt><trkpt lat="44.9355833" lon="8.1343083"><ele>230.16666666666669</ele><time>2026-04-12T06:41:37.063Z</time></trkpt><trkpt lat="44.9355167" lon="8.1343383"><ele>230.0</ele><time>2026-04-12T06:41:38.063Z</time></trkpt><trkpt lat="44.93545" lon="8.13437"><ele>229.99999999999997</ele><time>2026-04-12T06:41:39.064Z</time></trkpt><trkpt lat="44.9353867" lon="8.1343967"><ele>230.0</ele><time>2026-04-12T06:41:40.062Z</time></trkpt><trkpt lat="44.9353183" lon="8.1344133"><ele>229.99999999999997</ele><time>2026-04-12T06:41:41.06Z</time></trkpt><trkpt lat="44.9352483" lon="8.134425"><ele>229.99999999999997</ele><time>2026-04-12T06:41:42.063Z</time></trkpt><trkpt lat="44.9351783" lon="8.1344217"><ele>230.0</ele><time>2026-04-12T06:41:43.065Z</time></trkpt><trkpt lat="44.9351083" lon="8.1344033"><ele>229.99999999999997</ele><time>2026-04-12T06:41:44.066Z</time></trkpt><trkpt lat="44.935045" lon="8.1343733"><ele>229.99999999999997</ele><time>2026-04-12T06:41:45.064Z</time></trkpt><trkpt lat="44.934985" lon="8.134335"><ele>230.50000000000003</ele><time>2026-04-12T06:41:46.065Z</time></trkpt><trkpt lat="44.9349233" lon="8.134295"><ele>231.0</ele><time>2026-04-12T06:41:47.063Z</time></trkpt><trkpt lat="44.9348633" lon="8.1342633"><ele>231.5</ele><time>2026-04-12T06:41:48.063Z</time></trkpt><trkpt lat="44.9347483" lon="8.1342517"><ele>232.0</ele><time>2026-04-12T06:41:50.061Z</time></trkpt><trkpt lat="44.9346583" lon="8.1343017"><ele>232.50000000000003</ele><time>2026-04-12T06:41:52.064Z</time></trkpt><trkpt lat="44.9346017" lon="8.1343417"><ele>233.0</ele><time>2026-04-12T06:41:53.061Z</time></trkpt><trkpt lat="44.9345467" lon="8.1343933"><ele>233.0</ele><time>2026-04-12T06:41:54.061Z</time></trkpt><trkpt lat="44.9344933" lon="8.13445"><ele>233.0</ele><time>2026-04-12T06:41:55.063Z</time></trkpt><trkpt lat="44.9344117" lon="8.1345567"><ele>233.0</ele><time>2026-04-12T06:41:57.063Z</time></trkpt><trkpt lat="44.934335" lon="8.1346583"><ele>233.0</ele><time>2026-04-12T06:41:59.062Z</time></trkpt><trkpt lat="44.93426" lon="8.1347717"><ele>233.0</ele><time>2026-04-12T06:42:01.062Z</time></trkpt><trkpt lat="44.9341767" lon="8.1348983"><ele>233.71428571428572</ele><time>2026-04-12T06:42:03.064Z</time></trkpt><trkpt lat="44.93413" lon="8.1349583"><ele>234.42857142857142</ele><time>2026-04-12T06:42:04.061Z</time></trkpt><trkpt lat="44.9340783" lon="8.1350167"><ele>235.14285714285714</ele><time>2026-04-12T06:42:05.064Z</time></trkpt><trkpt lat="44.9340333" lon="8.1350883"><ele>235.85714285714286</ele><time>2026-04-12T06:42:06.061Z</time></trkpt><trkpt lat="44.9339867" lon="8.1351633"><ele>236.57142857142856</ele><time>2026-04-12T06:42:07.064Z</time></trkpt><trkpt lat="44.9339417" lon="8.1352383"><ele>237.28571428571428</ele><time>2026-04-12T06:42:08.063Z</time></trkpt><trkpt lat="44.9339083" lon="8.1353217"><ele>238.0</ele><time>2026-04-12T06:42:09.064Z</time></trkpt><trkpt lat="44.9338883" lon="8.13541"><ele>237.99999999999997</ele><time>2026-04-12T06:42:10.063Z</time></trkpt><trkpt lat="44.9338733" lon="8.1355033"><ele>238.0</ele><time>2026-04-12T06:42:11.061Z</time></trkpt><trkpt lat="44.9338567" lon="8.1356"><ele>238.0</ele><time>2026-04-12T06:42:12.061Z</time></trkpt><trkpt lat="44.9338333" lon="8.1356967"><ele>238.0</ele><time>2026-04-12T06:42:13.062Z</time></trkpt><trkpt lat="44.933805" lon="8.1357817"><ele>237.99999999999997</ele><time>2026-04-12T06:42:14.063Z</time></trkpt><trkpt lat="44.9337767" lon="8.1358667"><ele>238.0</ele><time>2026-04-12T06:42:15.064Z</time></trkpt><trkpt lat="44.933755" lon="8.136035"><ele>237.0</ele><time>2026-04-12T06:42:17.061Z</time></trkpt><trkpt lat="44.9337467" lon="8.1361233"><ele>236.0</ele><time>2026-04-12T06:42:18.063Z</time></trkpt><trkpt lat="44.9337433" lon="8.1362167"><ele>235.0</ele><time>2026-04-12T06:42:19.063Z</time></trkpt><trkpt lat="44.9337483" lon="8.1363117"><ele>234.0</ele><time>2026-04-12T06:42:20.063Z</time></trkpt><trkpt lat="44.9337717" lon="8.1364017"><ele>233.0</ele><time>2026-04-12T06:42:21.063Z</time></trkpt><trkpt lat="44.9338017" lon="8.13649"><ele>232.0</ele><time>2026-04-12T06:42:22.062Z</time></trkpt><trkpt lat="44.9338367" lon="8.1365783"><ele>231.0</ele><time>2026-04-12T06:42:23.06Z</time></trkpt><trkpt lat="44.9338683" lon="8.136665"><ele>230.83333333333334</ele><time>2026-04-12T06:42:24.061Z</time></trkpt><trkpt lat="44.9339017" lon="8.1367533"><ele>230.66666666666669</ele><time>2026-04-12T06:42:25.062Z</time></trkpt><trkpt lat="44.9339217" lon="8.1368467"><ele>230.5</ele><time>2026-04-12T06:42:26.063Z</time></trkpt><trkpt lat="44.9339333" lon="8.1369417"><ele>230.33333333333334</ele><time>2026-04-12T06:42:27.062Z</time></trkpt><trkpt lat="44.9339383" lon="8.1370317"><ele>230.16666666666669</ele><time>2026-04-12T06:42:28.062Z</time></trkpt><trkpt lat="44.93397" lon="8.1371933"><ele>230.0</ele><time>2026-04-12T06:42:30.062Z</time></trkpt><trkpt lat="44.9340433" lon="8.1373333"><ele>230.28571428571425</ele><time>2026-04-12T06:42:32.062Z</time></trkpt><trkpt lat="44.93409" lon="8.1373933"><ele>230.57142857142856</ele><time>2026-04-12T06:42:33.061Z</time></trkpt><trkpt lat="44.93414" lon="8.13745"><ele>230.85714285714286</ele><time>2026-04-12T06:42:34.056Z</time></trkpt><trkpt lat="44.9341933" lon="8.1375033"><ele>231.14285714285714</ele><time>2026-04-12T06:42:35.063Z</time></trkpt><trkpt lat="44.9342517" lon="8.1375683"><ele>231.42857142857144</ele><time>2026-04-12T06:42:36.063Z</time></trkpt><trkpt lat="44.93431" lon="8.1376433"><ele>231.71428571428575</ele><time>2026-04-12T06:42:37.062Z</time></trkpt><trkpt lat="44.9343617" lon="8.137725"><ele>232.00000000000003</ele><time>2026-04-12T06:42:38.063Z</time></trkpt><trkpt lat="44.934405" lon="8.1378167"><ele>229.99999999999997</ele><time>2026-04-12T06:42:39.063Z</time></trkpt><trkpt lat="44.93443" lon="8.1379217"><ele>228.0</ele><time>2026-04-12T06:42:40.063Z</time></trkpt><trkpt lat="44.9344333" lon="8.1380433"><ele>226.0</ele><time>2026-04-12T06:42:41.061Z</time></trkpt><trkpt lat="44.9344367" lon="8.1381633"><ele>224.0</ele><time>2026-04-12T06:42:42.062Z</time></trkpt><trkpt lat="44.9344317" lon="8.13829"><ele>221.99999999999997</ele><time>2026-04-12T06:42:43.062Z</time></trkpt><trkpt lat="44.9344283" lon="8.1384217"><ele>220.0</ele><time>2026-04-12T06:42:44.063Z</time></trkpt><trkpt lat="44.9344317" lon="8.138555"><ele>219.99999999999997</ele><time>2026-04-12T06:42:45.063Z</time></trkpt><trkpt lat="44.9344433" lon="8.1386833"><ele>220.0</ele><time>2026-04-12T06:42:46.062Z</time></trkpt><trkpt lat="44.934455" lon="8.1388083"><ele>220.0</ele><time>2026-04-12T06:42:47.062Z</time></trkpt><trkpt lat="44.93447" lon="8.1389317"><ele>220.0</ele><time>2026-04-12T06:42:48.062Z</time></trkpt><trkpt lat="44.934485" lon="8.13905"><ele>219.99999999999997</ele><time>2026-04-12T06:42:49.064Z</time></trkpt><trkpt lat="44.9344967" lon="8.1391567"><ele>220.0</ele><time>2026-04-12T06:42:50.062Z</time></trkpt><trkpt lat="44.93451" lon="8.1392517"><ele>220.8</ele><time>2026-04-12T06:42:51.064Z</time></trkpt><trkpt lat="44.9345367" lon="8.139415"><ele>221.6</ele><time>2026-04-12T06:42:53.062Z</time></trkpt><trkpt lat="44.934555" lon="8.1395667"><ele>222.39999999999998</ele><time>2026-04-12T06:42:55.064Z</time></trkpt><trkpt lat="44.9345767" lon="8.13972"><ele>223.2</ele><time>2026-04-12T06:42:57.065Z</time></trkpt><trkpt lat="44.9345867" lon="8.139875"><ele>224.0</ele><time>2026-04-12T06:42:59.062Z</time></trkpt><trkpt lat="44.93458" lon="8.140035"><ele>224.2</ele><time>2026-04-12T06:43:01.062Z</time></trkpt><trkpt lat="44.9345583" lon="8.140185"><ele>224.39999999999998</ele><time>2026-04-12T06:43:03.064Z</time></trkpt><trkpt lat="44.9345217" lon="8.1403183"><ele>224.6</ele><time>2026-04-12T06:43:05.062Z</time></trkpt><trkpt lat="44.934475" lon="8.14045"><ele>224.8</ele><time>2026-04-12T06:43:07.065Z</time></trkpt><trkpt lat="44.9344117" lon="8.1406033"><ele>225.0</ele><time>2026-04-12T06:43:09.064Z</time></trkpt><trkpt lat="44.93437" lon="8.1406883"><ele>225.6</ele><time>2026-04-12T06:43:10.063Z</time></trkpt><trkpt lat="44.9343217" lon="8.1407783"><ele>226.2</ele><time>2026-04-12T06:43:11.062Z</time></trkpt><trkpt lat="44.9342617" lon="8.1408667"><ele>226.8</ele><time>2026-04-12T06:43:12.063Z</time></trkpt><trkpt lat="44.9341917" lon="8.1409533"><ele>227.4</ele><time>2026-04-12T06:43:13.063Z</time></trkpt><trkpt lat="44.9341183" lon="8.1410383"><ele>228.0</ele><time>2026-04-12T06:43:14.061Z</time></trkpt><trkpt lat="44.9340383" lon="8.14112"><ele>228.0</ele><time>2026-04-12T06:43:15.065Z</time></trkpt><trkpt lat="44.9339583" lon="8.1412"><ele>228.0</ele><time>2026-04-12T06:43:16.063Z</time></trkpt><trkpt lat="44.9338783" lon="8.1412733"><ele>228.0</ele><time>2026-04-12T06:43:17.061Z</time></trkpt><trkpt lat="44.9338033" lon="8.141345"><ele>228.0</ele><time>2026-04-12T06:43:18.062Z</time></trkpt><trkpt lat="44.933735" lon="8.1414233"><ele>228.0</ele><time>2026-04-12T06:43:19.065Z</time></trkpt><trkpt lat="44.9336667" lon="8.1415083"><ele>226.60000000000002</ele><time>2026-04-12T06:43:20.063Z</time></trkpt><trkpt lat="44.9336" lon="8.141595"><ele>225.20000000000002</ele><time>2026-04-12T06:43:21.065Z</time></trkpt><trkpt lat="44.9335333" lon="8.141685"><ele>223.8</ele><time>2026-04-12T06:43:22.058Z</time></trkpt><trkpt lat="44.9334683" lon="8.1417783"><ele>222.4</ele><time>2026-04-12T06:43:23.061Z</time></trkpt><trkpt lat="44.9334117" lon="8.1418817"><ele>221.0</ele><time>2026-04-12T06:43:24.064Z</time></trkpt><trkpt lat="44.93337" lon="8.1419967"><ele>221.0</ele><time>2026-04-12T06:43:25.065Z</time></trkpt><trkpt lat="44.9333333" lon="8.1421283"><ele>221.00000000000003</ele><time>2026-04-12T06:43:26.064Z</time></trkpt><trkpt lat="44.933295" lon="8.1422633"><ele>221.00000000000003</ele><time>2026-04-12T06:43:27.066Z</time></trkpt><trkpt lat="44.9332517" lon="8.1423933"><ele>221.0</ele><time>2026-04-12T06:43:28.064Z</time></trkpt><trkpt lat="44.93321" lon="8.14252"><ele>221.0</ele><time>2026-04-12T06:43:29.062Z</time></trkpt><trkpt lat="44.9331567" lon="8.142635"><ele>220.33333333333334</ele><time>2026-04-12T06:43:30.064Z</time></trkpt><trkpt lat="44.9330983" lon="8.14274"><ele>219.66666666666669</ele><time>2026-04-12T06:43:31.066Z</time></trkpt><trkpt lat="44.9330333" lon="8.142835"><ele>219.0</ele><time>2026-04-12T06:43:32.062Z</time></trkpt><trkpt lat="44.9329667" lon="8.142925"><ele>218.33333333333331</ele><time>2026-04-12T06:43:33.063Z</time></trkpt><trkpt lat="44.932915" lon="8.14302"><ele>217.66666666666666</ele><time>2026-04-12T06:43:34.065Z</time></trkpt><trkpt lat="44.93288" lon="8.143125"><ele>217.0</ele><time>2026-04-12T06:43:35.062Z</time></trkpt><trkpt lat="44.9328533" lon="8.1432367"><ele>216.49999999999997</ele><time>2026-04-12T06:43:36.062Z</time></trkpt><trkpt lat="44.9328333" lon="8.14335"><ele>216.0</ele><time>2026-04-12T06:43:37.064Z</time></trkpt><trkpt lat="44.9328117" lon="8.1434617"><ele>215.5</ele><time>2026-04-12T06:43:38.063Z</time></trkpt><trkpt lat="44.9327817" lon="8.1435767"><ele>215.0</ele><time>2026-04-12T06:43:39.067Z</time></trkpt><trkpt lat="44.9327383" lon="8.1436883"><ele>214.49999999999997</ele><time>2026-04-12T06:43:40.062Z</time></trkpt><trkpt lat="44.932685" lon="8.1437883"><ele>214.0</ele><time>2026-04-12T06:43:41.061Z</time></trkpt><trkpt lat="44.9326233" lon="8.143885"><ele>213.99999999999997</ele><time>2026-04-12T06:43:42.064Z</time></trkpt><trkpt lat="44.9325567" lon="8.1439733"><ele>214.0</ele><time>2026-04-12T06:43:43.061Z</time></trkpt><trkpt lat="44.9324833" lon="8.144055"><ele>214.0</ele><time>2026-04-12T06:43:44.063Z</time></trkpt><trkpt lat="44.9324117" lon="8.144125"><ele>214.0</ele><time>2026-04-12T06:43:45.064Z</time></trkpt><trkpt lat="44.93234" lon="8.1441983"><ele>213.99999999999997</ele><time>2026-04-12T06:43:46.061Z</time></trkpt><trkpt lat="44.9322717" lon="8.1442633"><ele>214.0</ele><time>2026-04-12T06:43:47.062Z</time></trkpt><trkpt lat="44.9322033" lon="8.144325"><ele>214.33333333333331</ele><time>2026-04-12T06:43:48.061Z</time></trkpt><trkpt lat="44.9321433" lon="8.1443833"><ele>214.66666666666666</ele><time>2026-04-12T06:43:49.063Z</time></trkpt><trkpt lat="44.9320883" lon="8.1444417"><ele>215.0</ele><time>2026-04-12T06:43:50.066Z</time></trkpt><trkpt lat="44.9320383" lon="8.1445"><ele>215.33333333333331</ele><time>2026-04-12T06:43:51.065Z</time></trkpt><trkpt lat="44.9319733" lon="8.1446483"><ele>215.66666666666666</ele><time>2026-04-12T06:43:53.066Z</time></trkpt><trkpt lat="44.9319517" lon="8.1447333"><ele>216.0</ele><time>2026-04-12T06:43:54.062Z</time></trkpt><trkpt lat="44.93191" lon="8.1449033"><ele>215.0</ele><time>2026-04-12T06:43:56.063Z</time></trkpt><trkpt lat="44.9318917" lon="8.14499"><ele>214.0</ele><time>2026-04-12T06:43:57.064Z</time></trkpt><trkpt lat="44.9318767" lon="8.1450817"><ele>213.0</ele><time>2026-04-12T06:43:58.062Z</time></trkpt><trkpt lat="44.93186" lon="8.1451767"><ele>212.0</ele><time>2026-04-12T06:43:59.063Z</time></trkpt><trkpt lat="44.9318467" lon="8.14528"><ele>211.0</ele><time>2026-04-12T06:44:00.063Z</time></trkpt><trkpt lat="44.9318267" lon="8.145385"><ele>210.0</ele><time>2026-04-12T06:44:01.063Z</time></trkpt><trkpt lat="44.9318133" lon="8.1455017"><ele>209.0</ele><time>2026-04-12T06:44:02.063Z</time></trkpt><trkpt lat="44.931805" lon="8.1456233"><ele>209.2</ele><time>2026-04-12T06:44:03.063Z</time></trkpt><trkpt lat="44.9318" lon="8.1457517"><ele>209.39999999999998</ele><time>2026-04-12T06:44:04.062Z</time></trkpt><trkpt lat="44.9318067" lon="8.1458917"><ele>209.6</ele><time>2026-04-12T06:44:05.062Z</time></trkpt><trkpt lat="44.93182" lon="8.1460333"><ele>209.8</ele><time>2026-04-12T06:44:06.065Z</time></trkpt><trkpt lat="44.93184" lon="8.1461817"><ele>210.0</ele><time>2026-04-12T06:44:07.064Z</time></trkpt><trkpt lat="44.9318617" lon="8.1463433"><ele>210.0</ele><time>2026-04-12T06:44:08.062Z</time></trkpt><trkpt lat="44.9318883" lon="8.1465167"><ele>210.0</ele><time>2026-04-12T06:44:09.064Z</time></trkpt><trkpt lat="44.9319083" lon="8.1466983"><ele>210.0</ele><time>2026-04-12T06:44:10.066Z</time></trkpt><trkpt lat="44.931925" lon="8.14689"><ele>210.0</ele><time>2026-04-12T06:44:11.062Z</time></trkpt><trkpt lat="44.93193" lon="8.14708"><ele>207.75</ele><time>2026-04-12T06:44:12.065Z</time></trkpt><trkpt lat="44.9319167" lon="8.1472667"><ele>205.5</ele><time>2026-04-12T06:44:13.062Z</time></trkpt><trkpt lat="44.931885" lon="8.1474333"><ele>203.25</ele><time>2026-04-12T06:44:14.063Z</time></trkpt><trkpt lat="44.9318433" lon="8.1475817"><ele>201.0</ele><time>2026-04-12T06:44:15.064Z</time></trkpt><trkpt lat="44.9317883" lon="8.1477083"><ele>201.66666666666666</ele><time>2026-04-12T06:44:16.064Z</time></trkpt><trkpt lat="44.931735" lon="8.147815"><ele>202.33333333333331</ele><time>2026-04-12T06:44:17.063Z</time></trkpt><trkpt lat="44.9316867" lon="8.147915"><ele>203.0</ele><time>2026-04-12T06:44:18.062Z</time></trkpt><trkpt lat="44.93164" lon="8.14802"><ele>203.66666666666666</ele><time>2026-04-12T06:44:19.059Z</time></trkpt><trkpt lat="44.931595" lon="8.148115"><ele>204.33333333333331</ele><time>2026-04-12T06:44:20.061Z</time></trkpt><trkpt lat="44.93155" lon="8.1482067"><ele>205.0</ele><time>2026-04-12T06:44:21.062Z</time></trkpt><trkpt lat="44.9315033" lon="8.1482867"><ele>205.99999999999997</ele><time>2026-04-12T06:44:22.062Z</time></trkpt><trkpt lat="44.9314583" lon="8.1483633"><ele>207.0</ele><time>2026-04-12T06:44:23.063Z</time></trkpt><trkpt lat="44.9314083" lon="8.1484467"><ele>208.0</ele><time>2026-04-12T06:44:24.063Z</time></trkpt><trkpt lat="44.9313583" lon="8.1485433"><ele>209.0</ele><time>2026-04-12T06:44:25.062Z</time></trkpt><trkpt lat="44.9313" lon="8.1486367"><ele>209.99999999999997</ele><time>2026-04-12T06:44:26.061Z</time></trkpt><trkpt lat="44.9312433" lon="8.148735"><ele>211.0</ele><time>2026-04-12T06:44:27.063Z</time></trkpt><trkpt lat="44.9311967" lon="8.1488433"><ele>210.99999999999997</ele><time>2026-04-12T06:44:28.062Z</time></trkpt><trkpt lat="44.93116" lon="8.1489567"><ele>211.0</ele><time>2026-04-12T06:44:29.063Z</time></trkpt><trkpt lat="44.93113" lon="8.1490733"><ele>211.0</ele><time>2026-04-12T06:44:30.064Z</time></trkpt><trkpt lat="44.931105" lon="8.149185"><ele>211.0</ele><time>2026-04-12T06:44:31.062Z</time></trkpt><trkpt lat="44.9310833" lon="8.149305"><ele>210.99999999999997</ele><time>2026-04-12T06:44:32.063Z</time></trkpt><trkpt lat="44.9310633" lon="8.149425"><ele>211.0</ele><time>2026-04-12T06:44:33.065Z</time></trkpt><trkpt lat="44.9310483" lon="8.1495467"><ele>209.16666666666666</ele><time>2026-04-12T06:44:34.061Z</time></trkpt><trkpt lat="44.9310333" lon="8.1496717"><ele>207.33333333333331</ele><time>2026-04-12T06:44:35.063Z</time></trkpt><trkpt lat="44.9310183" lon="8.1497983"><ele>205.5</ele><time>2026-04-12T06:44:36.065Z</time></trkpt><trkpt lat="44.931005" lon="8.1499217"><ele>203.66666666666669</ele><time>2026-04-12T06:44:37.064Z</time></trkpt><trkpt lat="44.9309933" lon="8.1500417"><ele>201.83333333333334</ele><time>2026-04-12T06:44:38.064Z</time></trkpt><trkpt lat="44.9309833" lon="8.15016"><ele>200.0</ele><time>2026-04-12T06:44:39.063Z</time></trkpt><trkpt lat="44.930975" lon="8.1502817"><ele>199.83333333333334</ele><time>2026-04-12T06:44:40.064Z</time></trkpt><trkpt lat="44.9309633" lon="8.1503983"><ele>199.66666666666669</ele><time>2026-04-12T06:44:41.063Z</time></trkpt><trkpt lat="44.9309467" lon="8.1505133"><ele>199.5</ele><time>2026-04-12T06:44:42.063Z</time></trkpt><trkpt lat="44.93093" lon="8.1506267"><ele>199.33333333333331</ele><time>2026-04-12T06:44:43.063Z</time></trkpt><trkpt lat="44.9309067" lon="8.1507367"><ele>199.16666666666666</ele><time>2026-04-12T06:44:44.064Z</time></trkpt><trkpt lat="44.9308833" lon="8.1508417"><ele>199.0</ele><time>2026-04-12T06:44:45.063Z</time></trkpt><trkpt lat="44.930855" lon="8.1509433"><ele>200.85714285714283</ele><time>2026-04-12T06:44:46.062Z</time></trkpt><trkpt lat="44.9308233" lon="8.15104"><ele>202.71428571428572</ele><time>2026-04-12T06:44:47.062Z</time></trkpt><trkpt lat="44.9307983" lon="8.151135"><ele>204.57142857142856</ele><time>2026-04-12T06:44:48.063Z</time></trkpt><trkpt lat="44.93078" lon="8.1512333"><ele>206.42857142857142</ele><time>2026-04-12T06:44:49.063Z</time></trkpt><trkpt lat="44.93077" lon="8.1513317"><ele>208.28571428571428</ele><time>2026-04-12T06:44:50.065Z</time></trkpt><trkpt lat="44.9307617" lon="8.15143"><ele>210.14285714285714</ele><time>2026-04-12T06:44:51.063Z</time></trkpt><trkpt lat="44.9307533" lon="8.15153"><ele>212.0</ele><time>2026-04-12T06:44:52.064Z</time></trkpt><trkpt lat="44.9307483" lon="8.1516267"><ele>212.39999999999998</ele><time>2026-04-12T06:44:53.063Z</time></trkpt><trkpt lat="44.9307417" lon="8.15172"><ele>212.79999999999998</ele><time>2026-04-12T06:44:54.063Z</time></trkpt><trkpt lat="44.9307333" lon="8.15181"><ele>213.2</ele><time>2026-04-12T06:44:55.063Z</time></trkpt><trkpt lat="44.9307367" lon="8.1519817"><ele>213.6</ele><time>2026-04-12T06:44:57.062Z</time></trkpt><trkpt lat="44.9307633" lon="8.1521333"><ele>214.0</ele><time>2026-04-12T06:44:59.062Z</time></trkpt><trkpt lat="44.930805" lon="8.1522717"><ele>214.75</ele><time>2026-04-12T06:45:01.063Z</time></trkpt><trkpt lat="44.93086" lon="8.1524067"><ele>215.5</ele><time>2026-04-12T06:45:03.063Z</time></trkpt><trkpt lat="44.9309367" lon="8.1525233"><ele>216.25</ele><time>2026-04-12T06:45:05.062Z</time></trkpt><trkpt lat="44.9310167" lon="8.1526417"><ele>217.0</ele><time>2026-04-12T06:45:07.062Z</time></trkpt><trkpt lat="44.9311017" lon="8.1527567"><ele>215.6</ele><time>2026-04-12T06:45:09.066Z</time></trkpt><trkpt lat="44.9311867" lon="8.1528883"><ele>214.2</ele><time>2026-04-12T06:45:11.062Z</time></trkpt><trkpt lat="44.9312067" lon="8.1529833"><ele>212.8</ele><time>2026-04-12T06:45:12.063Z</time></trkpt><trkpt lat="44.9312217" lon="8.1530767"><ele>211.4</ele><time>2026-04-12T06:45:13.063Z</time></trkpt><trkpt lat="44.9312017" lon="8.153235"><ele>210.0</ele><time>2026-04-12T06:45:15.063Z</time></trkpt><trkpt lat="44.9311583" lon="8.1533767"><ele>209.4</ele><time>2026-04-12T06:45:17.062Z</time></trkpt><trkpt lat="44.9311233" lon="8.1535133"><ele>208.8</ele><time>2026-04-12T06:45:19.063Z</time></trkpt><trkpt lat="44.9310967" lon="8.15365"><ele>208.2</ele><time>2026-04-12T06:45:21.065Z</time></trkpt><trkpt lat="44.9310617" lon="8.1537983"><ele>207.6</ele><time>2026-04-12T06:45:23.062Z</time></trkpt><trkpt lat="44.9310217" lon="8.1539567"><ele>207.0</ele><time>2026-04-12T06:45:25.064Z</time></trkpt><trkpt lat="44.9309783" lon="8.1541267"><ele>207.0</ele><time>2026-04-12T06:45:27.064Z</time></trkpt><trkpt lat="44.9309533" lon="8.1542183"><ele>207.0</ele><time>2026-04-12T06:45:28.063Z</time></trkpt><trkpt lat="44.9309283" lon="8.1543133"><ele>207.0</ele><time>2026-04-12T06:45:29.063Z</time></trkpt><trkpt lat="44.9308983" lon="8.1544083"><ele>207.0</ele><time>2026-04-12T06:45:30.065Z</time></trkpt><trkpt lat="44.930865" lon="8.1545083"><ele>207.0</ele><time>2026-04-12T06:45:31.065Z</time></trkpt><trkpt lat="44.930825" lon="8.1546083"><ele>207.0</ele><time>2026-04-12T06:45:32.063Z</time></trkpt><trkpt lat="44.9307783" lon="8.154705"><ele>207.66666666666666</ele><time>2026-04-12T06:45:33.064Z</time></trkpt><trkpt lat="44.930725" lon="8.1547967"><ele>208.33333333333331</ele><time>2026-04-12T06:45:34.064Z</time></trkpt><trkpt lat="44.93067" lon="8.1548917"><ele>209.0</ele><time>2026-04-12T06:45:35.063Z</time></trkpt><trkpt lat="44.9306167" lon="8.1549933"><ele>209.66666666666666</ele><time>2026-04-12T06:45:36.062Z</time></trkpt><trkpt lat="44.9305717" lon="8.1551033"><ele>210.33333333333331</ele><time>2026-04-12T06:45:37.064Z</time></trkpt><trkpt lat="44.93053" lon="8.155215"><ele>211.0</ele><time>2026-04-12T06:45:38.064Z</time></trkpt><trkpt lat="44.9304933" lon="8.1553317"><ele>210.99999999999997</ele><time>2026-04-12T06:45:39.063Z</time></trkpt><trkpt lat="44.9304567" lon="8.1554483"><ele>211.0</ele><time>2026-04-12T06:45:40.065Z</time></trkpt><trkpt lat="44.93042" lon="8.1555617"><ele>211.0</ele><time>2026-04-12T06:45:41.063Z</time></trkpt><trkpt lat="44.93039" lon="8.1556767"><ele>211.0</ele><time>2026-04-12T06:45:42.066Z</time></trkpt><trkpt lat="44.9303667" lon="8.155795"><ele>210.99999999999997</ele><time>2026-04-12T06:45:43.063Z</time></trkpt><trkpt lat="44.9303583" lon="8.15591"><ele>211.0</ele><time>2026-04-12T06:45:44.065Z</time></trkpt><trkpt lat="44.9303617" lon="8.15602"><ele>210.28571428571428</ele><time>2026-04-12T06:45:45.059Z</time></trkpt><trkpt lat="44.9303783" lon="8.156125"><ele>209.57142857142858</ele><time>2026-04-12T06:45:46.063Z</time></trkpt><trkpt lat="44.9303983" lon="8.156225"><ele>208.85714285714283</ele><time>2026-04-12T06:45:47.064Z</time></trkpt><trkpt lat="44.9304167" lon="8.1563217"><ele>208.14285714285714</ele><time>2026-04-12T06:45:48.065Z</time></trkpt><trkpt lat="44.9304317" lon="8.156415"><ele>207.42857142857142</ele><time>2026-04-12T06:45:49.064Z</time></trkpt><trkpt lat="44.9304467" lon="8.1565083"><ele>206.7142857142857</ele><time>2026-04-12T06:45:50.062Z</time></trkpt><trkpt lat="44.930465" lon="8.156605"><ele>206.0</ele><time>2026-04-12T06:45:51.065Z</time></trkpt><trkpt lat="44.9304783" lon="8.156705"><ele>205.99999999999997</ele><time>2026-04-12T06:45:52.063Z</time></trkpt><trkpt lat="44.930485" lon="8.15681"><ele>206.0</ele><time>2026-04-12T06:45:53.063Z</time></trkpt><trkpt lat="44.9304817" lon="8.1569167"><ele>206.0</ele><time>2026-04-12T06:45:54.063Z</time></trkpt><trkpt lat="44.9304733" lon="8.1570183"><ele>206.0</ele><time>2026-04-12T06:45:55.064Z</time></trkpt><trkpt lat="44.9304533" lon="8.157115"><ele>206.0</ele><time>2026-04-12T06:45:56.064Z</time></trkpt><trkpt lat="44.930415" lon="8.1572083"><ele>205.99999999999997</ele><time>2026-04-12T06:45:57.063Z</time></trkpt><trkpt lat="44.9303683" lon="8.1572967"><ele>206.0</ele><time>2026-04-12T06:45:58.064Z</time></trkpt><trkpt lat="44.9303167" lon="8.157375"><ele>206.00000000000003</ele><time>2026-04-12T06:45:59.062Z</time></trkpt><trkpt lat="44.93026" lon="8.157455"><ele>206.0</ele><time>2026-04-12T06:46:00.064Z</time></trkpt><trkpt lat="44.930205" lon="8.15754"><ele>206.0</ele><time>2026-04-12T06:46:01.063Z</time></trkpt><trkpt lat="44.9301467" lon="8.1576233"><ele>206.0</ele><time>2026-04-12T06:46:02.062Z</time></trkpt><trkpt lat="44.9300883" lon="8.157715"><ele>206.00000000000003</ele><time>2026-04-12T06:46:03.064Z</time></trkpt><trkpt lat="44.930025" lon="8.1577933"><ele>206.0</ele><time>2026-04-12T06:46:04.065Z</time></trkpt><trkpt lat="44.92996" lon="8.157875"><ele>205.83333333333334</ele><time>2026-04-12T06:46:05.063Z</time></trkpt><trkpt lat="44.9298883" lon="8.1579533"><ele>205.66666666666669</ele><time>2026-04-12T06:46:06.062Z</time></trkpt><trkpt lat="44.9298167" lon="8.1580317"><ele>205.5</ele><time>2026-04-12T06:46:07.064Z</time></trkpt><trkpt lat="44.9297467" lon="8.158115"><ele>205.33333333333331</ele><time>2026-04-12T06:46:08.063Z</time></trkpt><trkpt lat="44.9296783" lon="8.1581917"><ele>205.16666666666666</ele><time>2026-04-12T06:46:09.064Z</time></trkpt><trkpt lat="44.9296183" lon="8.1582683"><ele>205.0</ele><time>2026-04-12T06:46:10.063Z</time></trkpt><trkpt lat="44.9295583" lon="8.1583433"><ele>204.99999999999997</ele><time>2026-04-12T06:46:11.062Z</time></trkpt><trkpt lat="44.9294917" lon="8.158405"><ele>205.0</ele><time>2026-04-12T06:46:12.062Z</time></trkpt><trkpt lat="44.9294167" lon="8.1584583"><ele>205.0</ele><time>2026-04-12T06:46:13.062Z</time></trkpt><trkpt lat="44.9293483" lon="8.1585133"><ele>205.0</ele><time>2026-04-12T06:46:14.063Z</time></trkpt><trkpt lat="44.9292833" lon="8.1585617"><ele>204.99999999999997</ele><time>2026-04-12T06:46:15.064Z</time></trkpt><trkpt lat="44.9292217" lon="8.1586067"><ele>205.0</ele><time>2026-04-12T06:46:16.062Z</time></trkpt><trkpt lat="44.9291633" lon="8.1586617"><ele>205.0</ele><time>2026-04-12T06:46:17.063Z</time></trkpt><trkpt lat="44.9291067" lon="8.158725"><ele>205.0</ele><time>2026-04-12T06:46:18.063Z</time></trkpt><trkpt lat="44.92906" lon="8.1587967"><ele>205.0</ele><time>2026-04-12T06:46:19.064Z</time></trkpt><trkpt lat="44.9290217" lon="8.158875"><ele>205.0</ele><time>2026-04-12T06:46:20.063Z</time></trkpt><trkpt lat="44.9289833" lon="8.1589567"><ele>205.0</ele><time>2026-04-12T06:46:21.063Z</time></trkpt><trkpt lat="44.9289417" lon="8.159045"><ele>205.0</ele><time>2026-04-12T06:46:22.063Z</time></trkpt><trkpt lat="44.9289" lon="8.159135"><ele>205.0</ele><time>2026-04-12T06:46:23.063Z</time></trkpt><trkpt lat="44.9288617" lon="8.1592217"><ele>204.57142857142858</ele><time>2026-04-12T06:46:24.062Z</time></trkpt><trkpt lat="44.9288217" lon="8.1593033"><ele>204.14285714285714</ele><time>2026-04-12T06:46:25.065Z</time></trkpt><trkpt lat="44.9287783" lon="8.1593817"><ele>203.71428571428572</ele><time>2026-04-12T06:46:26.064Z</time></trkpt><trkpt lat="44.928745" lon="8.1594583"><ele>203.28571428571428</ele><time>2026-04-12T06:46:27.061Z</time></trkpt><trkpt lat="44.9287133" lon="8.15954"><ele>202.85714285714283</ele><time>2026-04-12T06:46:28.063Z</time></trkpt><trkpt lat="44.9286783" lon="8.1596183"><ele>202.42857142857142</ele><time>2026-04-12T06:46:29.062Z</time></trkpt><trkpt lat="44.9286433" lon="8.1596933"><ele>202.0</ele><time>2026-04-12T06:46:30.063Z</time></trkpt><trkpt lat="44.928605" lon="8.15977"><ele>202.0</ele><time>2026-04-12T06:46:31.063Z</time></trkpt><trkpt lat="44.928565" lon="8.15984"><ele>202.0</ele><time>2026-04-12T06:46:32.062Z</time></trkpt><trkpt lat="44.9284917" lon="8.15997"><ele>202.0</ele><time>2026-04-12T06:46:34.064Z</time></trkpt><trkpt lat="44.9284083" lon="8.1600867"><ele>202.0</ele><time>2026-04-12T06:46:36.063Z</time></trkpt><trkpt lat="44.9282967" lon="8.1601617"><ele>202.0</ele><time>2026-04-12T06:46:38.062Z</time></trkpt><trkpt lat="44.9282233" lon="8.1601567"><ele>202.85714285714286</ele><time>2026-04-12T06:46:39.063Z</time></trkpt><trkpt lat="44.9281517" lon="8.1601433"><ele>203.71428571428572</ele><time>2026-04-12T06:46:40.063Z</time></trkpt><trkpt lat="44.9280817" lon="8.1601333"><ele>204.57142857142856</ele><time>2026-04-12T06:46:41.062Z</time></trkpt><trkpt lat="44.92801" lon="8.16014"><ele>205.42857142857144</ele><time>2026-04-12T06:46:42.062Z</time></trkpt><trkpt lat="44.927935" lon="8.1601717"><ele>206.2857142857143</ele><time>2026-04-12T06:46:43.063Z</time></trkpt><trkpt lat="44.92789" lon="8.160235"><ele>207.14285714285714</ele><time>2026-04-12T06:46:44.061Z</time></trkpt><trkpt lat="44.9278583" lon="8.1603217"><ele>208.0</ele><time>2026-04-12T06:46:45.063Z</time></trkpt><trkpt lat="44.9278183" lon="8.1604183"><ele>207.99999999999997</ele><time>2026-04-12T06:46:46.063Z</time></trkpt><trkpt lat="44.9277717" lon="8.1605267"><ele>208.0</ele><time>2026-04-12T06:46:47.062Z</time></trkpt><trkpt lat="44.92773" lon="8.1606083"><ele>208.0</ele><time>2026-04-12T06:46:48.063Z</time></trkpt><trkpt lat="44.9276817" lon="8.16068"><ele>208.0</ele><time>2026-04-12T06:46:49.063Z</time></trkpt><trkpt lat="44.9276317" lon="8.160745"><ele>207.99999999999997</ele><time>2026-04-12T06:46:50.063Z</time></trkpt><trkpt lat="44.92753" lon="8.1608433"><ele>208.0</ele><time>2026-04-12T06:46:52.063Z</time></trkpt><trkpt lat="44.927445" lon="8.160905"><ele>207.33333333333331</ele><time>2026-04-12T06:46:54.062Z</time></trkpt><trkpt lat="44.9273817" lon="8.1609933"><ele>206.66666666666666</ele><time>2026-04-12T06:46:56.063Z</time></trkpt><trkpt lat="44.92733" lon="8.1611517"><ele>206.0</ele><time>2026-04-12T06:46:58.064Z</time></trkpt><trkpt lat="44.9273167" lon="8.161245"><ele>205.33333333333331</ele><time>2026-04-12T06:46:59.062Z</time></trkpt><trkpt lat="44.9273133" lon="8.16135"><ele>204.66666666666666</ele><time>2026-04-12T06:47:00.065Z</time></trkpt><trkpt lat="44.92732" lon="8.1614583"><ele>204.0</ele><time>2026-04-12T06:47:01.062Z</time></trkpt><trkpt lat="44.92733" lon="8.1615817"><ele>204.0</ele><time>2026-04-12T06:47:02.061Z</time></trkpt><trkpt lat="44.9273383" lon="8.1617117"><ele>204.0</ele><time>2026-04-12T06:47:03.062Z</time></trkpt><trkpt lat="44.927345" lon="8.16185"><ele>204.0</ele><time>2026-04-12T06:47:04.063Z</time></trkpt><trkpt lat="44.9273467" lon="8.1619983"><ele>204.0</ele><time>2026-04-12T06:47:05.066Z</time></trkpt><trkpt lat="44.92735" lon="8.1621467"><ele>204.0</ele><time>2026-04-12T06:47:06.064Z</time></trkpt><trkpt lat="44.927355" lon="8.1623"><ele>202.0</ele><time>2026-04-12T06:47:07.063Z</time></trkpt><trkpt lat="44.927355" lon="8.1624483"><ele>200.0</ele><time>2026-04-12T06:47:08.063Z</time></trkpt><trkpt lat="44.92735" lon="8.162575"><ele>198.0</ele><time>2026-04-12T06:47:09.063Z</time></trkpt><trkpt lat="44.9273483" lon="8.1626917"><ele>196.0</ele><time>2026-04-12T06:47:10.063Z</time></trkpt><trkpt lat="44.9273433" lon="8.1628017"><ele>194.0</ele><time>2026-04-12T06:47:11.062Z</time></trkpt><trkpt lat="44.9273217" lon="8.1629067"><ele>192.0</ele><time>2026-04-12T06:47:12.064Z</time></trkpt><trkpt lat="44.9272717" lon="8.16301"><ele>192.0</ele><time>2026-04-12T06:47:13.063Z</time></trkpt><trkpt lat="44.927195" lon="8.1630967"><ele>192.0</ele><time>2026-04-12T06:47:14.063Z</time></trkpt><trkpt lat="44.927105" lon="8.1631533"><ele>192.0</ele><time>2026-04-12T06:47:15.063Z</time></trkpt><trkpt lat="44.9270083" lon="8.163185"><ele>192.0</ele><time>2026-04-12T06:47:16.063Z</time></trkpt><trkpt lat="44.9269117" lon="8.1632083"><ele>192.0</ele><time>2026-04-12T06:47:17.062Z</time></trkpt><trkpt lat="44.926825" lon="8.1632483"><ele>189.6</ele><time>2026-04-12T06:47:18.063Z</time></trkpt><trkpt lat="44.9267433" lon="8.1633117"><ele>187.2</ele><time>2026-04-12T06:47:19.063Z</time></trkpt><trkpt lat="44.926665" lon="8.163395"><ele>184.8</ele><time>2026-04-12T06:47:20.063Z</time></trkpt><trkpt lat="44.9265967" lon="8.1634917"><ele>182.4</ele><time>2026-04-12T06:47:21.063Z</time></trkpt><trkpt lat="44.926525" lon="8.1635933"><ele>180.0</ele><time>2026-04-12T06:47:22.065Z</time></trkpt><trkpt lat="44.9264367" lon="8.1636883"><ele>180.0</ele><time>2026-04-12T06:47:23.062Z</time></trkpt><trkpt lat="44.9263417" lon="8.163775"><ele>180.0</ele><time>2026-04-12T06:47:24.063Z</time></trkpt><trkpt lat="44.926245" lon="8.1638567"><ele>180.0</ele><time>2026-04-12T06:47:25.062Z</time></trkpt><trkpt lat="44.9261467" lon="8.1639433"><ele>180.0</ele><time>2026-04-12T06:47:26.064Z</time></trkpt><trkpt lat="44.9260517" lon="8.1640333"><ele>178.25</ele><time>2026-04-12T06:47:27.064Z</time></trkpt><trkpt lat="44.9259567" lon="8.1641233"><ele>176.5</ele><time>2026-04-12T06:47:28.063Z</time></trkpt><trkpt lat="44.9258583" lon="8.1642033"><ele>174.75</ele><time>2026-04-12T06:47:29.062Z</time></trkpt><trkpt lat="44.9257583" lon="8.1642817"><ele>173.0</ele><time>2026-04-12T06:47:30.064Z</time></trkpt><trkpt lat="44.9256533" lon="8.164355"><ele>173.0</ele><time>2026-04-12T06:47:31.061Z</time></trkpt><trkpt lat="44.9255433" lon="8.1644233"><ele>173.0</ele><time>2026-04-12T06:47:32.063Z</time></trkpt><trkpt lat="44.925435" lon="8.1644967"><ele>173.0</ele><time>2026-04-12T06:47:33.063Z</time></trkpt><trkpt lat="44.9253317" lon="8.1645783"><ele>173.0</ele><time>2026-04-12T06:47:34.063Z</time></trkpt><trkpt lat="44.9252317" lon="8.1646617"><ele>173.0</ele><time>2026-04-12T06:47:35.062Z</time></trkpt><trkpt lat="44.92515" lon="8.1647383"><ele>173.0</ele><time>2026-04-12T06:47:36.062Z</time></trkpt><trkpt lat="44.9250867" lon="8.1648283"><ele>173.0</ele><time>2026-04-12T06:47:37.061Z</time></trkpt><trkpt lat="44.9250483" lon="8.1649383"><ele>173.0</ele><time>2026-04-12T06:47:38.061Z</time></trkpt><trkpt lat="44.925045" lon="8.165055"><ele>173.0</ele><time>2026-04-12T06:47:39.063Z</time></trkpt><trkpt lat="44.925075" lon="8.1651617"><ele>173.0</ele><time>2026-04-12T06:47:40.061Z</time></trkpt><trkpt lat="44.92513" lon="8.1652383"><ele>171.85714285714286</ele><time>2026-04-12T06:47:41.062Z</time></trkpt><trkpt lat="44.9251983" lon="8.1652733"><ele>170.71428571428572</ele><time>2026-04-12T06:47:42.062Z</time></trkpt><trkpt lat="44.9252617" lon="8.1652533"><ele>169.57142857142858</ele><time>2026-04-12T06:47:43.063Z</time></trkpt><trkpt lat="44.9253167" lon="8.1652083"><ele>168.42857142857144</ele><time>2026-04-12T06:47:44.063Z</time></trkpt><trkpt lat="44.9253767" lon="8.1651517"><ele>167.28571428571428</ele><time>2026-04-12T06:47:45.064Z</time></trkpt><trkpt lat="44.9254417" lon="8.165085"><ele>166.14285714285717</ele><time>2026-04-12T06:47:46.065Z</time></trkpt><trkpt lat="44.9255183" lon="8.165025"><ele>165.0</ele><time>2026-04-12T06:47:47.065Z</time></trkpt><trkpt lat="44.92561" lon="8.1649767"><ele>165.0</ele><time>2026-04-12T06:47:48.064Z</time></trkpt><trkpt lat="44.9257067" lon="8.1649467"><ele>165.0</ele><time>2026-04-12T06:47:49.064Z</time></trkpt><trkpt lat="44.9258067" lon="8.16494"><ele>165.0</ele><time>2026-04-12T06:47:50.062Z</time></trkpt><trkpt lat="44.9259067" lon="8.1649567"><ele>165.0</ele><time>2026-04-12T06:47:51.064Z</time></trkpt><trkpt lat="44.926005" lon="8.164985"><ele>165.0</ele><time>2026-04-12T06:47:52.065Z</time></trkpt><trkpt lat="44.926105" lon="8.1650267"><ele>164.8</ele><time>2026-04-12T06:47:53.061Z</time></trkpt><trkpt lat="44.9262017" lon="8.165085"><ele>164.6</ele><time>2026-04-12T06:47:54.063Z</time></trkpt><trkpt lat="44.9262917" lon="8.1651583"><ele>164.39999999999998</ele><time>2026-04-12T06:47:55.063Z</time></trkpt><trkpt lat="44.9263733" lon="8.1652517"><ele>164.2</ele><time>2026-04-12T06:47:56.064Z</time></trkpt><trkpt lat="44.9264383" lon="8.16537"><ele>164.0</ele><time>2026-04-12T06:47:57.064Z</time></trkpt><trkpt lat="44.9264867" lon="8.16551"><ele>164.0</ele><time>2026-04-12T06:47:58.066Z</time></trkpt><trkpt lat="44.9265083" lon="8.165665"><ele>164.0</ele><time>2026-04-12T06:47:59.062Z</time></trkpt><trkpt lat="44.926505" lon="8.1658233"><ele>164.0</ele><time>2026-04-12T06:48:00.063Z</time></trkpt><trkpt lat="44.9264767" lon="8.16597"><ele>164.0</ele><time>2026-04-12T06:48:01.063Z</time></trkpt><trkpt lat="44.9264333" lon="8.16611"><ele>164.0</ele><time>2026-04-12T06:48:02.062Z</time></trkpt><trkpt lat="44.9263933" lon="8.1662517"><ele>161.25</ele><time>2026-04-12T06:48:03.064Z</time></trkpt><trkpt lat="44.926355" lon="8.1663967"><ele>158.5</ele><time>2026-04-12T06:48:04.062Z</time></trkpt><trkpt lat="44.92631" lon="8.16655"><ele>155.75</ele><time>2026-04-12T06:48:05.063Z</time></trkpt><trkpt lat="44.9262583" lon="8.1667017"><ele>153.0</ele><time>2026-04-12T06:48:06.064Z</time></trkpt><trkpt lat="44.9262083" lon="8.16685"><ele>151.25</ele><time>2026-04-12T06:48:07.065Z</time></trkpt><trkpt lat="44.9261633" lon="8.1670017"><ele>149.5</ele><time>2026-04-12T06:48:08.064Z</time></trkpt><trkpt lat="44.926145" lon="8.1671667"><ele>147.75</ele><time>2026-04-12T06:48:09.064Z</time></trkpt><trkpt lat="44.9261433" lon="8.1673333"><ele>146.0</ele><time>2026-04-12T06:48:10.063Z</time></trkpt><trkpt lat="44.92616" lon="8.1675"><ele>145.2</ele><time>2026-04-12T06:48:11.061Z</time></trkpt><trkpt lat="44.92619" lon="8.1676683"><ele>144.39999999999998</ele><time>2026-04-12T06:48:12.062Z</time></trkpt><trkpt lat="44.9262267" lon="8.1678317"><ele>143.6</ele><time>2026-04-12T06:48:13.062Z</time></trkpt><trkpt lat="44.926255" lon="8.1679783"><ele>142.79999999999998</ele><time>2026-04-12T06:48:14.063Z</time></trkpt><trkpt lat="44.9262783" lon="8.1680983"><ele>142.0</ele><time>2026-04-12T06:48:15.064Z</time></trkpt><trkpt lat="44.9262933" lon="8.1681933"><ele>141.4</ele><time>2026-04-12T06:48:16.063Z</time></trkpt><trkpt lat="44.9263167" lon="8.1683333"><ele>140.79999999999998</ele><time>2026-04-12T06:48:18.062Z</time></trkpt><trkpt lat="44.9263783" lon="8.1683933"><ele>140.2</ele><time>2026-04-12T06:48:20.062Z</time></trkpt><trkpt lat="44.9264683" lon="8.1683717"><ele>139.6</ele><time>2026-04-12T06:48:22.063Z</time></trkpt><trkpt lat="44.9265767" lon="8.168295"><ele>139.0</ele><time>2026-04-12T06:48:24.063Z</time></trkpt><trkpt lat="44.9266333" lon="8.1682533"><ele>139.0</ele><time>2026-04-12T06:48:25.063Z</time></trkpt><trkpt lat="44.92669" lon="8.1682067"><ele>139.0</ele><time>2026-04-12T06:48:26.065Z</time></trkpt><trkpt lat="44.9267483" lon="8.1681617"><ele>139.0</ele><time>2026-04-12T06:48:27.064Z</time></trkpt><trkpt lat="44.9268083" lon="8.168115"><ele>139.0</ele><time>2026-04-12T06:48:28.064Z</time></trkpt><trkpt lat="44.9268667" lon="8.168065"><ele>139.0</ele><time>2026-04-12T06:48:29.062Z</time></trkpt><trkpt lat="44.926925" lon="8.1680133"><ele>139.0</ele><time>2026-04-12T06:48:30.063Z</time></trkpt><trkpt lat="44.9269817" lon="8.1679633"><ele>139.0</ele><time>2026-04-12T06:48:31.063Z</time></trkpt><trkpt lat="44.92704" lon="8.1679133"><ele>139.28571428571428</ele><time>2026-04-12T06:48:32.063Z</time></trkpt><trkpt lat="44.9270967" lon="8.1678633"><ele>139.57142857142858</ele><time>2026-04-12T06:48:33.062Z</time></trkpt><trkpt lat="44.9271533" lon="8.167815"><ele>139.85714285714286</ele><time>2026-04-12T06:48:34.063Z</time></trkpt><trkpt lat="44.927215" lon="8.167765"><ele>140.14285714285714</ele><time>2026-04-12T06:48:35.062Z</time></trkpt><trkpt lat="44.9272733" lon="8.1677167"><ele>140.42857142857142</ele><time>2026-04-12T06:48:36.062Z</time></trkpt><trkpt lat="44.92733" lon="8.1676683"><ele>140.71428571428572</ele><time>2026-04-12T06:48:37.064Z</time></trkpt><trkpt lat="44.9273867" lon="8.1676167"><ele>141.0</ele><time>2026-04-12T06:48:38.063Z</time></trkpt><trkpt lat="44.9274433" lon="8.1675683"><ele>141.0</ele><time>2026-04-12T06:48:39.064Z</time></trkpt><trkpt lat="44.9274983" lon="8.1675233"><ele>141.0</ele><time>2026-04-12T06:48:40.062Z</time></trkpt><trkpt lat="44.9275983" lon="8.16743"><ele>141.0</ele><time>2026-04-12T06:48:42.063Z</time></trkpt><trkpt lat="44.9277183" lon="8.1674317"><ele>141.0</ele><time>2026-04-12T06:48:44.062Z</time></trkpt><trkpt lat="44.92777" lon="8.1675"><ele>141.0</ele><time>2026-04-12T06:48:45.065Z</time></trkpt><trkpt lat="44.9278083" lon="8.1675867"><ele>141.0</ele><time>2026-04-12T06:48:46.063Z</time></trkpt><trkpt lat="44.9278433" lon="8.1676717"><ele>140.71428571428572</ele><time>2026-04-12T06:48:47.062Z</time></trkpt><trkpt lat="44.9278833" lon="8.1677483"><ele>140.42857142857142</ele><time>2026-04-12T06:48:48.061Z</time></trkpt><trkpt lat="44.927925" lon="8.1678233"><ele>140.14285714285714</ele><time>2026-04-12T06:48:49.063Z</time></trkpt><trkpt lat="44.9279683" lon="8.167895"><ele>139.85714285714286</ele><time>2026-04-12T06:48:50.064Z</time></trkpt><trkpt lat="44.9280117" lon="8.167975"><ele>139.57142857142858</ele><time>2026-04-12T06:48:51.063Z</time></trkpt><trkpt lat="44.9280583" lon="8.16806"><ele>139.28571428571428</ele><time>2026-04-12T06:48:52.063Z</time></trkpt><trkpt lat="44.9281067" lon="8.1681433"><ele>139.0</ele><time>2026-04-12T06:48:53.062Z</time></trkpt><trkpt lat="44.928155" lon="8.1682267"><ele>138.66666666666669</ele><time>2026-04-12T06:48:54.064Z</time></trkpt><trkpt lat="44.9282033" lon="8.16831"><ele>138.33333333333334</ele><time>2026-04-12T06:48:55.065Z</time></trkpt><trkpt lat="44.9282483" lon="8.1683933"><ele>138.0</ele><time>2026-04-12T06:48:56.062Z</time></trkpt><trkpt lat="44.9282967" lon="8.1684783"><ele>137.66666666666666</ele><time>2026-04-12T06:48:57.063Z</time></trkpt><trkpt lat="44.9283417" lon="8.16856"><ele>137.33333333333331</ele><time>2026-04-12T06:48:58.062Z</time></trkpt><trkpt lat="44.928385" lon="8.168645"><ele>137.0</ele><time>2026-04-12T06:48:59.064Z</time></trkpt><trkpt lat="44.92843" lon="8.1687317"><ele>137.00000000000003</ele><time>2026-04-12T06:49:00.063Z</time></trkpt><trkpt lat="44.928475" lon="8.1688167"><ele>137.0</ele><time>2026-04-12T06:49:01.062Z</time></trkpt><trkpt lat="44.9285217" lon="8.1688967"><ele>137.0</ele><time>2026-04-12T06:49:02.064Z</time></trkpt><trkpt lat="44.9285683" lon="8.1689767"><ele>137.0</ele><time>2026-04-12T06:49:03.062Z</time></trkpt><trkpt lat="44.9286133" lon="8.1690567"><ele>137.0</ele><time>2026-04-12T06:49:04.062Z</time></trkpt><trkpt lat="44.92866" lon="8.169135"><ele>137.00000000000003</ele><time>2026-04-12T06:49:05.062Z</time></trkpt><trkpt lat="44.9287017" lon="8.1692083"><ele>137.0</ele><time>2026-04-12T06:49:06.063Z</time></trkpt><trkpt lat="44.9287433" lon="8.169285"><ele>137.00000000000003</ele><time>2026-04-12T06:49:07.062Z</time></trkpt><trkpt lat="44.9287833" lon="8.16936"><ele>137.0</ele><time>2026-04-12T06:49:08.063Z</time></trkpt><trkpt lat="44.9288233" lon="8.1694383"><ele>137.0</ele><time>2026-04-12T06:49:09.063Z</time></trkpt><trkpt lat="44.928865" lon="8.16952"><ele>137.0</ele><time>2026-04-12T06:49:10.064Z</time></trkpt><trkpt lat="44.9289033" lon="8.1696033"><ele>137.0</ele><time>2026-04-12T06:49:11.063Z</time></trkpt><trkpt lat="44.9289433" lon="8.1696867"><ele>137.00000000000003</ele><time>2026-04-12T06:49:12.063Z</time></trkpt><trkpt lat="44.9289883" lon="8.169765"><ele>137.0</ele><time>2026-04-12T06:49:13.064Z</time></trkpt><trkpt lat="44.9290333" lon="8.1698433"><ele>136.57142857142858</ele><time>2026-04-12T06:49:14.063Z</time></trkpt><trkpt lat="44.9290717" lon="8.1699267"><ele>136.14285714285714</ele><time>2026-04-12T06:49:15.064Z</time></trkpt><trkpt lat="44.9290967" lon="8.17002"><ele>135.71428571428572</ele><time>2026-04-12T06:49:16.063Z</time></trkpt><trkpt lat="44.9290983" lon="8.1701167"><ele>135.28571428571428</ele><time>2026-04-12T06:49:17.062Z</time></trkpt><trkpt lat="44.9290783" lon="8.1702133"><ele>134.85714285714286</ele><time>2026-04-12T06:49:18.063Z</time></trkpt><trkpt lat="44.929045" lon="8.170305"><ele>134.42857142857144</ele><time>2026-04-12T06:49:19.064Z</time></trkpt><trkpt lat="44.9290067" lon="8.1703917"><ele>134.0</ele><time>2026-04-12T06:49:20.064Z</time></trkpt><trkpt lat="44.9289683" lon="8.17048"><ele>134.0</ele><time>2026-04-12T06:49:21.064Z</time></trkpt><trkpt lat="44.9289317" lon="8.17057"><ele>134.0</ele><time>2026-04-12T06:49:22.064Z</time></trkpt><trkpt lat="44.9288917" lon="8.1706617"><ele>134.0</ele><time>2026-04-12T06:49:23.061Z</time></trkpt><trkpt lat="44.9288483" lon="8.170755"><ele>134.0</ele><time>2026-04-12T06:49:24.062Z</time></trkpt><trkpt lat="44.9288083" lon="8.1708483"><ele>134.0</ele><time>2026-04-12T06:49:25.062Z</time></trkpt><trkpt lat="44.9287717" lon="8.170945"><ele>134.0</ele><time>2026-04-12T06:49:26.064Z</time></trkpt><trkpt lat="44.9287367" lon="8.1710383"><ele>134.0</ele><time>2026-04-12T06:49:27.062Z</time></trkpt><trkpt lat="44.9287033" lon="8.1711333"><ele>134.0</ele><time>2026-04-12T06:49:28.064Z</time></trkpt><trkpt lat="44.9286717" lon="8.171225"><ele>134.0</ele><time>2026-04-12T06:49:29.061Z</time></trkpt><trkpt lat="44.92864" lon="8.1713167"><ele>134.0</ele><time>2026-04-12T06:49:30.061Z</time></trkpt><trkpt lat="44.9286083" lon="8.171405"><ele>134.0</ele><time>2026-04-12T06:49:31.063Z</time></trkpt><trkpt lat="44.9285767" lon="8.1714933"><ele>134.0</ele><time>2026-04-12T06:49:32.063Z</time></trkpt><trkpt lat="44.9285467" lon="8.1715767"><ele>134.0</ele><time>2026-04-12T06:49:33.064Z</time></trkpt><trkpt lat="44.9285183" lon="8.17166"><ele>134.0</ele><time>2026-04-12T06:49:34.062Z</time></trkpt><trkpt lat="44.9284867" lon="8.171745"><ele>134.0</ele><time>2026-04-12T06:49:35.061Z</time></trkpt><trkpt lat="44.9284517" lon="8.1718283"><ele>134.0</ele><time>2026-04-12T06:49:36.062Z</time></trkpt><trkpt lat="44.928415" lon="8.1719117"><ele>134.0</ele><time>2026-04-12T06:49:37.064Z</time></trkpt><trkpt lat="44.9283833" lon="8.1719983"><ele>134.0</ele><time>2026-04-12T06:49:38.063Z</time></trkpt><trkpt lat="44.9283517" lon="8.1720867"><ele>134.0</ele><time>2026-04-12T06:49:39.063Z</time></trkpt><trkpt lat="44.9283183" lon="8.1721783"><ele>134.0</ele><time>2026-04-12T06:49:40.064Z</time></trkpt><trkpt lat="44.9282833" lon="8.1722667"><ele>134.0</ele><time>2026-04-12T06:49:41.065Z</time></trkpt><trkpt lat="44.9282467" lon="8.172355"><ele>134.0</ele><time>2026-04-12T06:49:42.062Z</time></trkpt><trkpt lat="44.9282117" lon="8.1724433"><ele>134.0</ele><time>2026-04-12T06:49:43.062Z</time></trkpt><trkpt lat="44.9281767" lon="8.17253"><ele>134.0</ele><time>2026-04-12T06:49:44.066Z</time></trkpt><trkpt lat="44.92814" lon="8.1726117"><ele>134.0</ele><time>2026-04-12T06:49:45.063Z</time></trkpt><trkpt lat="44.9281083" lon="8.172695"><ele>134.0</ele><time>2026-04-12T06:49:46.062Z</time></trkpt><trkpt lat="44.928075" lon="8.17278"><ele>134.0</ele><time>2026-04-12T06:49:47.062Z</time></trkpt><trkpt lat="44.92804" lon="8.1728617"><ele>134.5</ele><time>2026-04-12T06:49:48.064Z</time></trkpt><trkpt lat="44.9280017" lon="8.1729333"><ele>135.0</ele><time>2026-04-12T06:49:49.063Z</time></trkpt><trkpt lat="44.927915" lon="8.1730567"><ele>135.5</ele><time>2026-04-12T06:49:51.064Z</time></trkpt><trkpt lat="44.9278617" lon="8.1731067"><ele>136.0</ele><time>2026-04-12T06:49:52.064Z</time></trkpt><trkpt lat="44.9278" lon="8.1731433"><ele>136.5</ele><time>2026-04-12T06:49:53.062Z</time></trkpt><trkpt lat="44.9277317" lon="8.1731617"><ele>137.0</ele><time>2026-04-12T06:49:54.062Z</time></trkpt><trkpt lat="44.92766" lon="8.1731617"><ele>137.00000000000003</ele><time>2026-04-12T06:49:55.064Z</time></trkpt><trkpt lat="44.9275917" lon="8.1731417"><ele>137.0</ele><time>2026-04-12T06:49:56.062Z</time></trkpt><trkpt lat="44.9275267" lon="8.1731017"><ele>137.0</ele><time>2026-04-12T06:49:57.062Z</time></trkpt><trkpt lat="44.9274717" lon="8.1730483"><ele>137.0</ele><time>2026-04-12T06:49:58.061Z</time></trkpt><trkpt lat="44.9274167" lon="8.1729883"><ele>137.0</ele><time>2026-04-12T06:49:59.062Z</time></trkpt><trkpt lat="44.9273633" lon="8.172925"><ele>137.00000000000003</ele><time>2026-04-12T06:50:00.063Z</time></trkpt><trkpt lat="44.9273083" lon="8.1728733"><ele>137.0</ele><time>2026-04-12T06:50:01.06Z</time></trkpt><trkpt lat="44.9271867" lon="8.1728317"><ele>136.85714285714286</ele><time>2026-04-12T06:50:03.065Z</time></trkpt><trkpt lat="44.9271217" lon="8.172845"><ele>136.71428571428572</ele><time>2026-04-12T06:50:04.057Z</time></trkpt><trkpt lat="44.9270567" lon="8.17289"><ele>136.57142857142856</ele><time>2026-04-12T06:50:05.058Z</time></trkpt><trkpt lat="44.9269967" lon="8.1729533"><ele>136.42857142857144</ele><time>2026-04-12T06:50:06.058Z</time></trkpt><trkpt lat="44.9269417" lon="8.17303"><ele>136.28571428571428</ele><time>2026-04-12T06:50:07.056Z</time></trkpt><trkpt lat="44.9268883" lon="8.1731083"><ele>136.14285714285714</ele><time>2026-04-12T06:50:08.061Z</time></trkpt><trkpt lat="44.926835" lon="8.1731967"><ele>136.0</ele><time>2026-04-12T06:50:09.062Z</time></trkpt><trkpt lat="44.926785" lon="8.1732783"><ele>135.99999999999997</ele><time>2026-04-12T06:50:10.062Z</time></trkpt><trkpt lat="44.9267367" lon="8.1733583"><ele>136.0</ele><time>2026-04-12T06:50:11.061Z</time></trkpt><trkpt lat="44.9266867" lon="8.173435"><ele>136.0</ele><time>2026-04-12T06:50:12.062Z</time></trkpt><trkpt lat="44.9266383" lon="8.1735133"><ele>136.0</ele><time>2026-04-12T06:50:13.064Z</time></trkpt><trkpt lat="44.9265883" lon="8.1735883"><ele>136.0</ele><time>2026-04-12T06:50:14.059Z</time></trkpt><trkpt lat="44.9265417" lon="8.1736667"><ele>135.99999999999997</ele><time>2026-04-12T06:50:15.062Z</time></trkpt><trkpt lat="44.9264933" lon="8.1737483"><ele>136.0</ele><time>2026-04-12T06:50:16.061Z</time></trkpt><trkpt lat="44.926445" lon="8.17383"><ele>135.99999999999997</ele><time>2026-04-12T06:50:17.061Z</time></trkpt><trkpt lat="44.926395" lon="8.1739083"><ele>136.0</ele><time>2026-04-12T06:50:18.065Z</time></trkpt><trkpt lat="44.9263433" lon="8.1739783"><ele>136.0</ele><time>2026-04-12T06:50:19.063Z</time></trkpt><trkpt lat="44.9262867" lon="8.1740417"><ele>136.0</ele><time>2026-04-12T06:50:20.058Z</time></trkpt><trkpt lat="44.926225" lon="8.1741017"><ele>136.0</ele><time>2026-04-12T06:50:21.062Z</time></trkpt><trkpt lat="44.92616" lon="8.1741517"><ele>135.99999999999997</ele><time>2026-04-12T06:50:22.062Z</time></trkpt><trkpt lat="44.926095" lon="8.1742"><ele>136.0</ele><time>2026-04-12T06:50:23.061Z</time></trkpt><trkpt lat="44.9260283" lon="8.174245"><ele>136.0</ele><time>2026-04-12T06:50:24.063Z</time></trkpt><trkpt lat="44.9259583" lon="8.1742883"><ele>136.0</ele><time>2026-04-12T06:50:25.063Z</time></trkpt><trkpt lat="44.9258917" lon="8.174335"><ele>136.0</ele><time>2026-04-12T06:50:26.061Z</time></trkpt><trkpt lat="44.925825" lon="8.17439"><ele>136.0</ele><time>2026-04-12T06:50:27.063Z</time></trkpt><trkpt lat="44.9257617" lon="8.1744467"><ele>136.0</ele><time>2026-04-12T06:50:28.063Z</time></trkpt><trkpt lat="44.9257017" lon="8.1745117"><ele>136.0</ele><time>2026-04-12T06:50:29.062Z</time></trkpt><trkpt lat="44.9256467" lon="8.1745833"><ele>135.66666666666669</ele><time>2026-04-12T06:50:30.063Z</time></trkpt><trkpt lat="44.9255967" lon="8.17466"><ele>135.33333333333334</ele><time>2026-04-12T06:50:31.063Z</time></trkpt><trkpt lat="44.9255533" lon="8.1747433"><ele>135.0</ele><time>2026-04-12T06:50:32.061Z</time></trkpt><trkpt lat="44.9255133" lon="8.1748333"><ele>134.66666666666666</ele><time>2026-04-12T06:50:33.062Z</time></trkpt><trkpt lat="44.925475" lon="8.1749267"><ele>134.33333333333331</ele><time>2026-04-12T06:50:34.062Z</time></trkpt><trkpt lat="44.9254417" lon="8.1750217"><ele>134.0</ele><time>2026-04-12T06:50:35.061Z</time></trkpt><trkpt lat="44.9254117" lon="8.1751217"><ele>134.0</ele><time>2026-04-12T06:50:36.062Z</time></trkpt><trkpt lat="44.925385" lon="8.1752233"><ele>134.0</ele><time>2026-04-12T06:50:37.065Z</time></trkpt><trkpt lat="44.9253633" lon="8.1753267"><ele>134.0</ele><time>2026-04-12T06:50:38.063Z</time></trkpt><trkpt lat="44.9253417" lon="8.17543"><ele>134.0</ele><time>2026-04-12T06:50:39.063Z</time></trkpt><trkpt lat="44.9253217" lon="8.1755333"><ele>134.0</ele><time>2026-04-12T06:50:40.063Z</time></trkpt><trkpt lat="44.925305" lon="8.1756367"><ele>134.0</ele><time>2026-04-12T06:50:41.059Z</time></trkpt><trkpt lat="44.9252883" lon="8.1757417"><ele>134.16666666666666</ele><time>2026-04-12T06:50:42.062Z</time></trkpt><trkpt lat="44.92527" lon="8.1758467"><ele>134.33333333333331</ele><time>2026-04-12T06:50:43.061Z</time></trkpt><trkpt lat="44.9252483" lon="8.1759533"><ele>134.5</ele><time>2026-04-12T06:50:44.062Z</time></trkpt><trkpt lat="44.9252283" lon="8.1760583"><ele>134.66666666666666</ele><time>2026-04-12T06:50:45.062Z</time></trkpt><trkpt lat="44.9252" lon="8.17616"><ele>134.83333333333334</ele><time>2026-04-12T06:50:46.062Z</time></trkpt><trkpt lat="44.9251667" lon="8.1762567"><ele>135.0</ele><time>2026-04-12T06:50:47.061Z</time></trkpt><trkpt lat="44.92513" lon="8.1763533"><ele>135.0</ele><time>2026-04-12T06:50:48.063Z</time></trkpt><trkpt lat="44.9250883" lon="8.1764417"><ele>135.0</ele><time>2026-04-12T06:50:49.061Z</time></trkpt><trkpt lat="44.925045" lon="8.176525"><ele>135.0</ele><time>2026-04-12T06:50:50.062Z</time></trkpt><trkpt lat="44.925" lon="8.1766067"><ele>135.0</ele><time>2026-04-12T06:50:51.062Z</time></trkpt><trkpt lat="44.9249533" lon="8.1766883"><ele>135.0</ele><time>2026-04-12T06:50:52.062Z</time></trkpt><trkpt lat="44.92491" lon="8.17677"><ele>135.0</ele><time>2026-04-12T06:50:53.061Z</time></trkpt><trkpt lat="44.9248617" lon="8.17685"><ele>135.0</ele><time>2026-04-12T06:50:54.063Z</time></trkpt><trkpt lat="44.9248117" lon="8.1769233"><ele>134.5</ele><time>2026-04-12T06:50:55.061Z</time></trkpt><trkpt lat="44.9247567" lon="8.176995"><ele>134.0</ele><time>2026-04-12T06:50:56.063Z</time></trkpt><trkpt lat="44.9246967" lon="8.177065"><ele>133.5</ele><time>2026-04-12T06:50:57.064Z</time></trkpt><trkpt lat="44.9246383" lon="8.1771317"><ele>133.0</ele><time>2026-04-12T06:50:58.063Z</time></trkpt><trkpt lat="44.92458" lon="8.1771983"><ele>132.5</ele><time>2026-04-12T06:50:59.062Z</time></trkpt><trkpt lat="44.9245217" lon="8.1772683"><ele>132.0</ele><time>2026-04-12T06:51:00.062Z</time></trkpt><trkpt lat="44.92446" lon="8.1773367"><ele>131.83333333333334</ele><time>2026-04-12T06:51:01.062Z</time></trkpt><trkpt lat="44.9243983" lon="8.177405"><ele>131.66666666666666</ele><time>2026-04-12T06:51:02.062Z</time></trkpt><trkpt lat="44.9243367" lon="8.1774717"><ele>131.5</ele><time>2026-04-12T06:51:03.061Z</time></trkpt><trkpt lat="44.9242767" lon="8.1775383"><ele>131.33333333333331</ele><time>2026-04-12T06:51:04.066Z</time></trkpt><trkpt lat="44.92422" lon="8.1776033"><ele>131.16666666666666</ele><time>2026-04-12T06:51:05.063Z</time></trkpt><trkpt lat="44.9241617" lon="8.1776717"><ele>131.0</ele><time>2026-04-12T06:51:06.061Z</time></trkpt><trkpt lat="44.9241017" lon="8.1777433"><ele>131.0</ele><time>2026-04-12T06:51:07.06Z</time></trkpt><trkpt lat="44.9240417" lon="8.1778133"><ele>131.0</ele><time>2026-04-12T06:51:08.062Z</time></trkpt><trkpt lat="44.92398" lon="8.1778833"><ele>131.0</ele><time>2026-04-12T06:51:09.061Z</time></trkpt><trkpt lat="44.92392" lon="8.1779517"><ele>131.0</ele><time>2026-04-12T06:51:10.062Z</time></trkpt><trkpt lat="44.92386" lon="8.17802"><ele>131.0</ele><time>2026-04-12T06:51:11.061Z</time></trkpt><trkpt lat="44.9237983" lon="8.1780883"><ele>131.0</ele><time>2026-04-12T06:51:12.061Z</time></trkpt><trkpt lat="44.923735" lon="8.178155"><ele>131.5</ele><time>2026-04-12T06:51:13.062Z</time></trkpt><trkpt lat="44.9236667" lon="8.178215"><ele>132.0</ele><time>2026-04-12T06:51:14.062Z</time></trkpt><trkpt lat="44.923595" lon="8.178265"><ele>132.5</ele><time>2026-04-12T06:51:15.063Z</time></trkpt><trkpt lat="44.92352" lon="8.1783083"><ele>133.0</ele><time>2026-04-12T06:51:16.063Z</time></trkpt><trkpt lat="44.9234467" lon="8.178345"><ele>133.5</ele><time>2026-04-12T06:51:17.061Z</time></trkpt><trkpt lat="44.9233733" lon="8.1783817"><ele>134.0</ele><time>2026-04-12T06:51:18.062Z</time></trkpt><trkpt lat="44.9233" lon="8.1784183"><ele>134.0</ele><time>2026-04-12T06:51:19.062Z</time></trkpt><trkpt lat="44.9232267" lon="8.1784567"><ele>134.0</ele><time>2026-04-12T06:51:20.062Z</time></trkpt><trkpt lat="44.9231533" lon="8.178495"><ele>134.0</ele><time>2026-04-12T06:51:21.063Z</time></trkpt><trkpt lat="44.9230833" lon="8.1785317"><ele>134.0</ele><time>2026-04-12T06:51:22.063Z</time></trkpt><trkpt lat="44.9230117" lon="8.1785683"><ele>134.0</ele><time>2026-04-12T06:51:23.062Z</time></trkpt><trkpt lat="44.92294" lon="8.178605"><ele>134.0</ele><time>2026-04-12T06:51:24.063Z</time></trkpt><trkpt lat="44.9228683" lon="8.17864"><ele>134.0</ele><time>2026-04-12T06:51:25.058Z</time></trkpt><trkpt lat="44.9227967" lon="8.1786733"><ele>134.0</ele><time>2026-04-12T06:51:26.062Z</time></trkpt><trkpt lat="44.9227267" lon="8.178705"><ele>134.0</ele><time>2026-04-12T06:51:27.062Z</time></trkpt><trkpt lat="44.9226517" lon="8.1787333"><ele>134.0</ele><time>2026-04-12T06:51:28.061Z</time></trkpt><trkpt lat="44.9225767" lon="8.17876"><ele>134.0</ele><time>2026-04-12T06:51:29.062Z</time></trkpt><trkpt lat="44.9225017" lon="8.1787867"><ele>134.0</ele><time>2026-04-12T06:51:30.065Z</time></trkpt><trkpt lat="44.9224267" lon="8.1788133"><ele>133.33333333333331</ele><time>2026-04-12T06:51:31.063Z</time></trkpt><trkpt lat="44.922355" lon="8.1788417"><ele>132.66666666666666</ele><time>2026-04-12T06:51:32.063Z</time></trkpt><trkpt lat="44.92228" lon="8.1788683"><ele>132.0</ele><time>2026-04-12T06:51:33.062Z</time></trkpt><trkpt lat="44.9222067" lon="8.1788983"><ele>131.33333333333334</ele><time>2026-04-12T06:51:34.064Z</time></trkpt><trkpt lat="44.9221317" lon="8.1789333"><ele>130.66666666666669</ele><time>2026-04-12T06:51:35.063Z</time></trkpt><trkpt lat="44.9220567" lon="8.1789667"><ele>130.0</ele><time>2026-04-12T06:51:36.063Z</time></trkpt><trkpt lat="44.9219817" lon="8.1790067"><ele>130.16666666666669</ele><time>2026-04-12T06:51:37.063Z</time></trkpt><trkpt lat="44.9219083" lon="8.1790467"><ele>130.33333333333334</ele><time>2026-04-12T06:51:38.063Z</time></trkpt><trkpt lat="44.9218333" lon="8.1790883"><ele>130.5</ele><time>2026-04-12T06:51:39.063Z</time></trkpt><trkpt lat="44.921755" lon="8.1791267"><ele>130.66666666666666</ele><time>2026-04-12T06:51:40.063Z</time></trkpt><trkpt lat="44.9216733" lon="8.1791617"><ele>130.83333333333331</ele><time>2026-04-12T06:51:41.061Z</time></trkpt><trkpt lat="44.9215917" lon="8.1791983"><ele>131.0</ele><time>2026-04-12T06:51:42.061Z</time></trkpt><trkpt lat="44.92151" lon="8.179235"><ele>131.0</ele><time>2026-04-12T06:51:43.061Z</time></trkpt><trkpt lat="44.9214233" lon="8.17927"><ele>131.0</ele><time>2026-04-12T06:51:44.063Z</time></trkpt><trkpt lat="44.9213367" lon="8.1793"><ele>131.0</ele><time>2026-04-12T06:51:45.063Z</time></trkpt><trkpt lat="44.9212533" lon="8.1793333"><ele>131.0</ele><time>2026-04-12T06:51:46.063Z</time></trkpt><trkpt lat="44.9211733" lon="8.17937"><ele>131.0</ele><time>2026-04-12T06:51:47.06Z</time></trkpt><trkpt lat="44.92109" lon="8.1794083"><ele>131.0</ele><time>2026-04-12T06:51:48.063Z</time></trkpt><trkpt lat="44.9210067" lon="8.1794467"><ele>131.0</ele><time>2026-04-12T06:51:49.06Z</time></trkpt><trkpt lat="44.9209233" lon="8.1794833"><ele>131.0</ele><time>2026-04-12T06:51:50.062Z</time></trkpt><trkpt lat="44.9208383" lon="8.17952"><ele>131.0</ele><time>2026-04-12T06:51:51.06Z</time></trkpt><trkpt lat="44.920755" lon="8.1795583"><ele>131.0</ele><time>2026-04-12T06:51:52.064Z</time></trkpt><trkpt lat="44.9206717" lon="8.1795967"><ele>131.0</ele><time>2026-04-12T06:51:53.06Z</time></trkpt><trkpt lat="44.9205883" lon="8.17963"><ele>131.0</ele><time>2026-04-12T06:51:54.062Z</time></trkpt><trkpt lat="44.9205067" lon="8.1796683"><ele>131.16666666666666</ele><time>2026-04-12T06:51:55.062Z</time></trkpt><trkpt lat="44.9204217" lon="8.179705"><ele>131.33333333333331</ele><time>2026-04-12T06:51:56.064Z</time></trkpt><trkpt lat="44.9203367" lon="8.1797383"><ele>131.5</ele><time>2026-04-12T06:51:57.062Z</time></trkpt><trkpt lat="44.9202567" lon="8.17977"><ele>131.66666666666666</ele><time>2026-04-12T06:51:58.065Z</time></trkpt><trkpt lat="44.920175" lon="8.1798033"><ele>131.83333333333334</ele><time>2026-04-12T06:51:59.064Z</time></trkpt><trkpt lat="44.920095" lon="8.1798383"><ele>132.0</ele><time>2026-04-12T06:52:00.062Z</time></trkpt><trkpt lat="44.9200183" lon="8.1798733"><ele>132.0</ele><time>2026-04-12T06:52:01.063Z</time></trkpt><trkpt lat="44.9199417" lon="8.1799083"><ele>132.0</ele><time>2026-04-12T06:52:02.064Z</time></trkpt><trkpt lat="44.9198617" lon="8.1799467"><ele>132.0</ele><time>2026-04-12T06:52:03.066Z</time></trkpt><trkpt lat="44.9197783" lon="8.1799833"><ele>132.0</ele><time>2026-04-12T06:52:04.064Z</time></trkpt><trkpt lat="44.919695" lon="8.180025"><ele>132.0</ele><time>2026-04-12T06:52:05.064Z</time></trkpt><trkpt lat="44.91961" lon="8.1800667"><ele>132.0</ele><time>2026-04-12T06:52:06.063Z</time></trkpt><trkpt lat="44.9195267" lon="8.1801083"><ele>132.0</ele><time>2026-04-12T06:52:07.062Z</time></trkpt><trkpt lat="44.919445" lon="8.1801517"><ele>132.0</ele><time>2026-04-12T06:52:08.063Z</time></trkpt><trkpt lat="44.9193633" lon="8.1801967"><ele>132.0</ele><time>2026-04-12T06:52:09.062Z</time></trkpt><trkpt lat="44.9192833" lon="8.1802383"><ele>132.0</ele><time>2026-04-12T06:52:10.065Z</time></trkpt><trkpt lat="44.9192033" lon="8.1802817"><ele>132.0</ele><time>2026-04-12T06:52:11.062Z</time></trkpt><trkpt lat="44.9191217" lon="8.1803267"><ele>132.0</ele><time>2026-04-12T06:52:12.064Z</time></trkpt><trkpt lat="44.91904" lon="8.1803717"><ele>131.66666666666666</ele><time>2026-04-12T06:52:13.064Z</time></trkpt><trkpt lat="44.9189583" lon="8.1804183"><ele>131.33333333333334</ele><time>2026-04-12T06:52:14.064Z</time></trkpt><trkpt lat="44.9188783" lon="8.1804633"><ele>131.0</ele><time>2026-04-12T06:52:15.064Z</time></trkpt><trkpt lat="44.9187967" lon="8.1805033"><ele>130.66666666666669</ele><time>2026-04-12T06:52:16.062Z</time></trkpt><trkpt lat="44.9187183" lon="8.1805433"><ele>130.33333333333334</ele><time>2026-04-12T06:52:17.062Z</time></trkpt><trkpt lat="44.9186417" lon="8.18059"><ele>130.0</ele><time>2026-04-12T06:52:18.063Z</time></trkpt><trkpt lat="44.9185617" lon="8.1806367"><ele>130.0</ele><time>2026-04-12T06:52:19.062Z</time></trkpt><trkpt lat="44.9184817" lon="8.1806817"><ele>130.0</ele><time>2026-04-12T06:52:20.063Z</time></trkpt><trkpt lat="44.9183983" lon="8.180725"><ele>130.0</ele><time>2026-04-12T06:52:21.065Z</time></trkpt><trkpt lat="44.9183167" lon="8.1807683"><ele>130.0</ele><time>2026-04-12T06:52:22.065Z</time></trkpt><trkpt lat="44.9182367" lon="8.1808167"><ele>130.0</ele><time>2026-04-12T06:52:23.061Z</time></trkpt><trkpt lat="44.918155" lon="8.1808617"><ele>130.0</ele><time>2026-04-12T06:52:24.064Z</time></trkpt><trkpt lat="44.918075" lon="8.1809017"><ele>130.16666666666669</ele><time>2026-04-12T06:52:25.063Z</time></trkpt><trkpt lat="44.9179967" lon="8.180945"><ele>130.33333333333334</ele><time>2026-04-12T06:52:26.063Z</time></trkpt><trkpt lat="44.9179183" lon="8.18099"><ele>130.5</ele><time>2026-04-12T06:52:27.064Z</time></trkpt><trkpt lat="44.9178383" lon="8.1810417"><ele>130.66666666666666</ele><time>2026-04-12T06:52:28.063Z</time></trkpt><trkpt lat="44.91776" lon="8.1810933"><ele>130.83333333333331</ele><time>2026-04-12T06:52:29.064Z</time></trkpt><trkpt lat="44.91768" lon="8.1811433"><ele>131.0</ele><time>2026-04-12T06:52:30.064Z</time></trkpt><trkpt lat="44.9175983" lon="8.1811933"><ele>131.0</ele><time>2026-04-12T06:52:31.064Z</time></trkpt><trkpt lat="44.9175183" lon="8.1812383"><ele>131.0</ele><time>2026-04-12T06:52:32.062Z</time></trkpt><trkpt lat="44.9174383" lon="8.1812817"><ele>131.0</ele><time>2026-04-12T06:52:33.06Z</time></trkpt><trkpt lat="44.9173583" lon="8.1813233"><ele>131.0</ele><time>2026-04-12T06:52:34.062Z</time></trkpt><trkpt lat="44.9172817" lon="8.1813667"><ele>131.0</ele><time>2026-04-12T06:52:35.062Z</time></trkpt><trkpt lat="44.9172033" lon="8.1814117"><ele>131.0</ele><time>2026-04-12T06:52:36.064Z</time></trkpt><trkpt lat="44.917125" lon="8.181455"><ele>131.0</ele><time>2026-04-12T06:52:37.063Z</time></trkpt><trkpt lat="44.9170433" lon="8.1814983"><ele>131.0</ele><time>2026-04-12T06:52:38.064Z</time></trkpt><trkpt lat="44.9169617" lon="8.18154"><ele>131.0</ele><time>2026-04-12T06:52:39.063Z</time></trkpt><trkpt lat="44.91688" lon="8.1815833"><ele>131.0</ele><time>2026-04-12T06:52:40.062Z</time></trkpt><trkpt lat="44.9167983" lon="8.1816267"><ele>131.0</ele><time>2026-04-12T06:52:41.063Z</time></trkpt><trkpt lat="44.9167183" lon="8.1816667"><ele>131.0</ele><time>2026-04-12T06:52:42.062Z</time></trkpt><trkpt lat="44.9166383" lon="8.1817067"><ele>130.75</ele><time>2026-04-12T06:52:43.063Z</time></trkpt><trkpt lat="44.9165583" lon="8.181745"><ele>130.5</ele><time>2026-04-12T06:52:44.063Z</time></trkpt><trkpt lat="44.9164767" lon="8.1817817"><ele>130.25</ele><time>2026-04-12T06:52:45.063Z</time></trkpt><trkpt lat="44.9164817" lon="8.1819017"><ele>130.0</ele><time>2026-04-12T06:52:46.076Z</time></trkpt><trkpt lat="44.9162817" lon="8.1819767"><ele>130.0</ele><time>2026-04-12T06:52:48.562Z</time></trkpt><trkpt lat="44.916125" lon="8.1820117"><ele>130.0</ele><time>2026-04-12T06:52:50.061Z</time></trkpt><trkpt lat="44.9160333" lon="8.1820417"><ele>130.0</ele><time>2026-04-12T06:52:51.062Z</time></trkpt><trkpt lat="44.9159483" lon="8.1820783"><ele>130.0</ele><time>2026-04-12T06:52:52.062Z</time></trkpt><trkpt lat="44.9158617" lon="8.182115"><ele>130.0</ele><time>2026-04-12T06:52:53.063Z</time></trkpt><trkpt lat="44.915775" lon="8.1821483"><ele>129.75</ele><time>2026-04-12T06:52:54.062Z</time></trkpt><trkpt lat="44.91569" lon="8.1821767"><ele>129.5</ele><time>2026-04-12T06:52:55.063Z</time></trkpt><trkpt lat="44.9155083" lon="8.182175"><ele>129.25</ele><time>2026-04-12T06:52:57.563Z</time></trkpt><trkpt lat="44.915375" lon="8.1822217"><ele>129.0</ele><time>2026-04-12T06:52:58.564Z</time></trkpt><trkpt lat="44.9152233" lon="8.182265"><ele>129.0</ele><time>2026-04-12T06:53:00.064Z</time></trkpt><trkpt lat="44.91513" lon="8.1822833"><ele>129.0</ele><time>2026-04-12T06:53:01.06Z</time></trkpt><trkpt lat="44.9150383" lon="8.1822933"><ele>129.0</ele><time>2026-04-12T06:53:02.062Z</time></trkpt><trkpt lat="44.9149467" lon="8.182305"><ele>129.0</ele><time>2026-04-12T06:53:03.062Z</time></trkpt><trkpt lat="44.9148617" lon="8.1823167"><ele>129.0</ele><time>2026-04-12T06:53:04.059Z</time></trkpt><trkpt lat="44.9147733" lon="8.1823283"><ele>129.16666666666666</ele><time>2026-04-12T06:53:05.062Z</time></trkpt><trkpt lat="44.9146817" lon="8.1823367"><ele>129.33333333333334</ele><time>2026-04-12T06:53:06.062Z</time></trkpt><trkpt lat="44.9145933" lon="8.1823383"><ele>129.5</ele><time>2026-04-12T06:53:07.062Z</time></trkpt><trkpt lat="44.914505" lon="8.182335"><ele>129.66666666666669</ele><time>2026-04-12T06:53:08.063Z</time></trkpt><trkpt lat="44.9144167" lon="8.18233"><ele>129.83333333333334</ele><time>2026-04-12T06:53:09.062Z</time></trkpt><trkpt lat="44.91433" lon="8.18232"><ele>130.0</ele><time>2026-04-12T06:53:10.063Z</time></trkpt><trkpt lat="44.914245" lon="8.1823033"><ele>129.66666666666669</ele><time>2026-04-12T06:53:11.062Z</time></trkpt><trkpt lat="44.9141583" lon="8.182285"><ele>129.33333333333334</ele><time>2026-04-12T06:53:12.062Z</time></trkpt><trkpt lat="44.9140717" lon="8.1822683"><ele>129.0</ele><time>2026-04-12T06:53:13.064Z</time></trkpt><trkpt lat="44.9139883" lon="8.1822517"><ele>128.66666666666666</ele><time>2026-04-12T06:53:14.063Z</time></trkpt><trkpt lat="44.913905" lon="8.18223"><ele>128.33333333333331</ele><time>2026-04-12T06:53:15.065Z</time></trkpt><trkpt lat="44.9138183" lon="8.182205"><ele>128.0</ele><time>2026-04-12T06:53:16.064Z</time></trkpt><trkpt lat="44.913735" lon="8.1821817"><ele>127.99999999999999</ele><time>2026-04-12T06:53:17.061Z</time></trkpt><trkpt lat="44.9136533" lon="8.1821567"><ele>128.0</ele><time>2026-04-12T06:53:18.064Z</time></trkpt><trkpt lat="44.91357" lon="8.18213"><ele>128.0</ele><time>2026-04-12T06:53:19.073Z</time></trkpt><trkpt lat="44.913485" lon="8.1821083"><ele>128.0</ele><time>2026-04-12T06:53:20.062Z</time></trkpt><trkpt lat="44.9134" lon="8.182085"><ele>127.99999999999999</ele><time>2026-04-12T06:53:21.061Z</time></trkpt><trkpt lat="44.913315" lon="8.1820617"><ele>128.0</ele><time>2026-04-12T06:53:22.063Z</time></trkpt><trkpt lat="44.9132283" lon="8.1820367"><ele>128.16666666666666</ele><time>2026-04-12T06:53:23.061Z</time></trkpt><trkpt lat="44.9131433" lon="8.1820117"><ele>128.33333333333331</ele><time>2026-04-12T06:53:24.064Z</time></trkpt><trkpt lat="44.9130567" lon="8.18199"><ele>128.5</ele><time>2026-04-12T06:53:25.066Z</time></trkpt><trkpt lat="44.9129733" lon="8.1819683"><ele>128.66666666666666</ele><time>2026-04-12T06:53:26.062Z</time></trkpt><trkpt lat="44.91289" lon="8.1819433"><ele>128.83333333333334</ele><time>2026-04-12T06:53:27.064Z</time></trkpt><trkpt lat="44.912805" lon="8.1819133"><ele>129.0</ele><time>2026-04-12T06:53:28.064Z</time></trkpt><trkpt lat="44.9127217" lon="8.1818867"><ele>129.0</ele><time>2026-04-12T06:53:29.06Z</time></trkpt><trkpt lat="44.9126367" lon="8.1818617"><ele>129.0</ele><time>2026-04-12T06:53:30.063Z</time></trkpt><trkpt lat="44.9125533" lon="8.1818383"><ele>129.0</ele><time>2026-04-12T06:53:31.064Z</time></trkpt><trkpt lat="44.91247" lon="8.181815"><ele>129.0</ele><time>2026-04-12T06:53:32.063Z</time></trkpt><trkpt lat="44.912385" lon="8.1817917"><ele>129.0</ele><time>2026-04-12T06:53:33.067Z</time></trkpt><trkpt lat="44.9123" lon="8.1817733"><ele>129.0</ele><time>2026-04-12T06:53:34.063Z</time></trkpt><trkpt lat="44.912215" lon="8.18176"><ele>129.0</ele><time>2026-04-12T06:53:35.061Z</time></trkpt><trkpt lat="44.91213" lon="8.1817583"><ele>129.0</ele><time>2026-04-12T06:53:36.063Z</time></trkpt><trkpt lat="44.9120417" lon="8.18176"><ele>129.0</ele><time>2026-04-12T06:53:37.062Z</time></trkpt><trkpt lat="44.911955" lon="8.1817617"><ele>129.0</ele><time>2026-04-12T06:53:38.062Z</time></trkpt><trkpt lat="44.9118667" lon="8.1817683"><ele>129.0</ele><time>2026-04-12T06:53:39.062Z</time></trkpt><trkpt lat="44.9117733" lon="8.1817783"><ele>129.0</ele><time>2026-04-12T06:53:40.063Z</time></trkpt><trkpt lat="44.9116817" lon="8.181795"><ele>129.5</ele><time>2026-04-12T06:53:41.064Z</time></trkpt><trkpt lat="44.9115917" lon="8.1818167"><ele>130.0</ele><time>2026-04-12T06:53:42.061Z</time></trkpt><trkpt lat="44.9115083" lon="8.1818467"><ele>130.5</ele><time>2026-04-12T06:53:43.064Z</time></trkpt><trkpt lat="44.91143" lon="8.1818817"><ele>131.0</ele><time>2026-04-12T06:53:44.063Z</time></trkpt><trkpt lat="44.9113483" lon="8.1819133"><ele>131.5</ele><time>2026-04-12T06:53:45.063Z</time></trkpt><trkpt lat="44.91127" lon="8.1819533"><ele>132.0</ele><time>2026-04-12T06:53:46.063Z</time></trkpt><trkpt lat="44.911195" lon="8.1819983"><ele>132.0</ele><time>2026-04-12T06:53:47.061Z</time></trkpt><trkpt lat="44.9111217" lon="8.1820517"><ele>132.0</ele><time>2026-04-12T06:53:48.062Z</time></trkpt><trkpt lat="44.9110467" lon="8.1821067"><ele>132.0</ele><time>2026-04-12T06:53:49.065Z</time></trkpt><trkpt lat="44.9109733" lon="8.1821633"><ele>132.0</ele><time>2026-04-12T06:53:50.061Z</time></trkpt><trkpt lat="44.9109" lon="8.1822183"><ele>132.0</ele><time>2026-04-12T06:53:51.062Z</time></trkpt><trkpt lat="44.9108283" lon="8.1822667"><ele>132.0</ele><time>2026-04-12T06:53:52.062Z</time></trkpt><trkpt lat="44.9107567" lon="8.1823117"><ele>131.83333333333334</ele><time>2026-04-12T06:53:53.062Z</time></trkpt><trkpt lat="44.9106833" lon="8.182355"><ele>131.66666666666666</ele><time>2026-04-12T06:53:54.064Z</time></trkpt><trkpt lat="44.910615" lon="8.1823967"><ele>131.5</ele><time>2026-04-12T06:53:55.063Z</time></trkpt><trkpt lat="44.910545" lon="8.182435"><ele>131.33333333333331</ele><time>2026-04-12T06:53:56.064Z</time></trkpt><trkpt lat="44.910475" lon="8.1824733"><ele>131.16666666666666</ele><time>2026-04-12T06:53:57.064Z</time></trkpt><trkpt lat="44.9104067" lon="8.1825117"><ele>131.0</ele><time>2026-04-12T06:53:58.063Z</time></trkpt><trkpt lat="44.9103383" lon="8.1825467"><ele>131.0</ele><time>2026-04-12T06:53:59.063Z</time></trkpt><trkpt lat="44.91027" lon="8.1825817"><ele>131.0</ele><time>2026-04-12T06:54:00.063Z</time></trkpt><trkpt lat="44.9101983" lon="8.1826133"><ele>131.0</ele><time>2026-04-12T06:54:01.064Z</time></trkpt><trkpt lat="44.9101283" lon="8.182645"><ele>131.0</ele><time>2026-04-12T06:54:02.064Z</time></trkpt><trkpt lat="44.9100567" lon="8.1826733"><ele>131.0</ele><time>2026-04-12T06:54:03.063Z</time></trkpt><trkpt lat="44.909985" lon="8.1827017"><ele>131.0</ele><time>2026-04-12T06:54:04.061Z</time></trkpt><trkpt lat="44.909915" lon="8.18273"><ele>131.0</ele><time>2026-04-12T06:54:05.064Z</time></trkpt><trkpt lat="44.9098417" lon="8.1827583"><ele>130.85714285714286</ele><time>2026-04-12T06:54:06.063Z</time></trkpt><trkpt lat="44.9097683" lon="8.1827817"><ele>130.71428571428572</ele><time>2026-04-12T06:54:07.065Z</time></trkpt><trkpt lat="44.9096967" lon="8.1828067"><ele>130.57142857142858</ele><time>2026-04-12T06:54:08.065Z</time></trkpt><trkpt lat="44.909625" lon="8.1828333"><ele>130.42857142857144</ele><time>2026-04-12T06:54:09.064Z</time></trkpt><trkpt lat="44.909555" lon="8.1828617"><ele>130.28571428571428</ele><time>2026-04-12T06:54:10.063Z</time></trkpt><trkpt lat="44.9094833" lon="8.1828917"><ele>130.14285714285717</ele><time>2026-04-12T06:54:11.063Z</time></trkpt><trkpt lat="44.9094133" lon="8.1829233"><ele>130.0</ele><time>2026-04-12T06:54:12.063Z</time></trkpt><trkpt lat="44.909345" lon="8.1829533"><ele>130.0</ele><time>2026-04-12T06:54:13.063Z</time></trkpt><trkpt lat="44.9092783" lon="8.1829833"><ele>130.0</ele><time>2026-04-12T06:54:14.066Z</time></trkpt><trkpt lat="44.9092133" lon="8.183015"><ele>130.0</ele><time>2026-04-12T06:54:15.062Z</time></trkpt><trkpt lat="44.9090933" lon="8.1830667"><ele>130.0</ele><time>2026-04-12T06:54:17.063Z</time></trkpt><trkpt lat="44.9089967" lon="8.1831133"><ele>130.0</ele><time>2026-04-12T06:54:19.063Z</time></trkpt><trkpt lat="44.9089233" lon="8.18314"><ele>130.0</ele><time>2026-04-12T06:54:21.063Z</time></trkpt><trkpt lat="44.90885" lon="8.183135"><ele>130.0</ele><time>2026-04-12T06:54:23.062Z</time></trkpt><trkpt lat="44.908775" lon="8.1831733"><ele>130.0</ele><time>2026-04-12T06:54:25.06Z</time></trkpt><trkpt lat="44.9087717" lon="8.1833"><ele>130.0</ele><time>2026-04-12T06:54:27.064Z</time></trkpt><trkpt lat="44.9088117" lon="8.1834283"><ele>130.0</ele><time>2026-04-12T06:54:29.063Z</time></trkpt><trkpt lat="44.9088417" lon="8.183545"><ele>130.0</ele><time>2026-04-12T06:54:31.062Z</time></trkpt><trkpt lat="44.9088717" lon="8.1836483"><ele>130.0</ele><time>2026-04-12T06:54:33.063Z</time></trkpt><trkpt lat="44.9089083" lon="8.1837683"><ele>129.75</ele><time>2026-04-12T06:54:35.061Z</time></trkpt><trkpt lat="44.9089617" lon="8.1839117"><ele>129.5</ele><time>2026-04-12T06:54:37.061Z</time></trkpt><trkpt lat="44.9090217" lon="8.1840617"><ele>129.25</ele><time>2026-04-12T06:54:39.063Z</time></trkpt><trkpt lat="44.9090733" lon="8.1842133"><ele>129.0</ele><time>2026-04-12T06:54:41.062Z</time></trkpt><trkpt lat="44.909125" lon="8.1843633"><ele>129.33333333333334</ele><time>2026-04-12T06:54:43.065Z</time></trkpt><trkpt lat="44.909175" lon="8.1845033"><ele>129.66666666666666</ele><time>2026-04-12T06:54:45.065Z</time></trkpt><trkpt lat="44.90922" lon="8.1846317"><ele>130.0</ele><time>2026-04-12T06:54:47.062Z</time></trkpt><trkpt lat="44.9092317" lon="8.1847267"><ele>130.33333333333331</ele><time>2026-04-12T06:54:49.064Z</time></trkpt><trkpt lat="44.90919" lon="8.1847933"><ele>130.66666666666666</ele><time>2026-04-12T06:54:51.066Z</time></trkpt><trkpt lat="44.9091267" lon="8.1848467"><ele>131.0</ele><time>2026-04-12T06:54:53.061Z</time></trkpt><trkpt lat="44.9090767" lon="8.1849283"><ele>131.8</ele><time>2026-04-12T06:54:55.064Z</time></trkpt><trkpt lat="44.9090317" lon="8.1850233"><ele>132.6</ele><time>2026-04-12T06:54:57.065Z</time></trkpt><trkpt lat="44.9089617" lon="8.1851167"><ele>133.4</ele><time>2026-04-12T06:54:59.061Z</time></trkpt><trkpt lat="44.9088817" lon="8.1852067"><ele>134.2</ele><time>2026-04-12T06:55:01.063Z</time></trkpt><trkpt lat="44.908795" lon="8.1853017"><ele>135.0</ele><time>2026-04-12T06:55:03.064Z</time></trkpt><trkpt lat="44.9087083" lon="8.1853967"><ele>135.0</ele><time>2026-04-12T06:55:05.062Z</time></trkpt><trkpt lat="44.90862" lon="8.1854983"><ele>135.0</ele><time>2026-04-12T06:55:07.063Z</time></trkpt><trkpt lat="44.9085283" lon="8.1855917"><ele>135.0</ele><time>2026-04-12T06:55:09.063Z</time></trkpt><trkpt lat="44.9084483" lon="8.1856883"><ele>135.0</ele><time>2026-04-12T06:55:11.063Z</time></trkpt><trkpt lat="44.9083733" lon="8.1857733"><ele>135.0</ele><time>2026-04-12T06:55:13.063Z</time></trkpt><trkpt lat="44.9083" lon="8.1858483"><ele>134.8</ele><time>2026-04-12T06:55:15.062Z</time></trkpt><trkpt lat="44.90825" lon="8.1859567"><ele>134.6</ele><time>2026-04-12T06:55:17.062Z</time></trkpt><trkpt lat="44.9082333" lon="8.1860733"><ele>134.4</ele><time>2026-04-12T06:55:19.063Z</time></trkpt><trkpt lat="44.9082117" lon="8.1861817"><ele>134.2</ele><time>2026-04-12T06:55:21.064Z</time></trkpt><trkpt lat="44.9081983" lon="8.18632"><ele>134.0</ele><time>2026-04-12T06:55:23.062Z</time></trkpt><trkpt lat="44.90818" lon="8.186475"><ele>134.5</ele><time>2026-04-12T06:55:25.063Z</time></trkpt><trkpt lat="44.90816" lon="8.1866333"><ele>135.0</ele><time>2026-04-12T06:55:27.064Z</time></trkpt><trkpt lat="44.908145" lon="8.1867967"><ele>135.5</ele><time>2026-04-12T06:55:29.062Z</time></trkpt><trkpt lat="44.908145" lon="8.1869533"><ele>136.0</ele><time>2026-04-12T06:55:31.063Z</time></trkpt><trkpt lat="44.9081733" lon="8.1871267"><ele>136.0</ele><time>2026-04-12T06:55:33.062Z</time></trkpt><trkpt lat="44.90819" lon="8.1872133"><ele>136.0</ele><time>2026-04-12T06:55:34.062Z</time></trkpt><trkpt lat="44.9082067" lon="8.1873033"><ele>136.0</ele><time>2026-04-12T06:55:35.063Z</time></trkpt><trkpt lat="44.9082417" lon="8.1874717"><ele>136.0</ele><time>2026-04-12T06:55:37.062Z</time></trkpt><trkpt lat="44.90827" lon="8.187645"><ele>136.0</ele><time>2026-04-12T06:55:39.065Z</time></trkpt><trkpt lat="44.90829" lon="8.1878167"><ele>135.6</ele><time>2026-04-12T06:55:41.062Z</time></trkpt><trkpt lat="44.9082983" lon="8.1879967"><ele>135.2</ele><time>2026-04-12T06:55:43.063Z</time></trkpt><trkpt lat="44.9083033" lon="8.18809"><ele>134.8</ele><time>2026-04-12T06:55:44.063Z</time></trkpt><trkpt lat="44.9083033" lon="8.1881817"><ele>134.4</ele><time>2026-04-12T06:55:45.063Z</time></trkpt><trkpt lat="44.9082917" lon="8.1883467"><ele>134.0</ele><time>2026-04-12T06:55:47.062Z</time></trkpt><trkpt lat="44.9082217" lon="8.18846"><ele>133.4</ele><time>2026-04-12T06:55:49.064Z</time></trkpt><trkpt lat="44.9081133" lon="8.18851"><ele>132.8</ele><time>2026-04-12T06:55:51.063Z</time></trkpt><trkpt lat="44.9079967" lon="8.1885483"><ele>132.2</ele><time>2026-04-12T06:55:53.062Z</time></trkpt><trkpt lat="44.907935" lon="8.1885667"><ele>131.6</ele><time>2026-04-12T06:55:54.066Z</time></trkpt><trkpt lat="44.9078167" lon="8.1886117"><ele>131.0</ele><time>2026-04-12T06:55:56.065Z</time></trkpt><trkpt lat="44.9077583" lon="8.1886483"><ele>131.0</ele><time>2026-04-12T06:55:57.063Z</time></trkpt><trkpt lat="44.9076517" lon="8.18874"><ele>131.0</ele><time>2026-04-12T06:55:59.062Z</time></trkpt><trkpt lat="44.9075533" lon="8.1888383"><ele>131.0</ele><time>2026-04-12T06:56:01.062Z</time></trkpt><trkpt lat="44.9074817" lon="8.1889683"><ele>131.0</ele><time>2026-04-12T06:56:03.063Z</time></trkpt><trkpt lat="44.907465" lon="8.189055"><ele>131.0</ele><time>2026-04-12T06:56:04.062Z</time></trkpt><trkpt lat="44.907465" lon="8.1891467"><ele>131.16666666666666</ele><time>2026-04-12T06:56:05.063Z</time></trkpt><trkpt lat="44.907495" lon="8.1893167"><ele>131.33333333333331</ele><time>2026-04-12T06:56:07.062Z</time></trkpt><trkpt lat="44.907525" lon="8.1894883"><ele>131.5</ele><time>2026-04-12T06:56:09.065Z</time></trkpt><trkpt lat="44.9075367" lon="8.1895767"><ele>131.66666666666666</ele><time>2026-04-12T06:56:10.062Z</time></trkpt><trkpt lat="44.90755" lon="8.1896667"><ele>131.83333333333334</ele><time>2026-04-12T06:56:11.062Z</time></trkpt><trkpt lat="44.907555" lon="8.1897583"><ele>132.0</ele><time>2026-04-12T06:56:12.063Z</time></trkpt><trkpt lat="44.9075583" lon="8.18985"><ele>132.0</ele><time>2026-04-12T06:56:13.063Z</time></trkpt><trkpt lat="44.9075517" lon="8.1899417"><ele>132.0</ele><time>2026-04-12T06:56:14.062Z</time></trkpt><trkpt lat="44.9075417" lon="8.190035"><ele>132.0</ele><time>2026-04-12T06:56:15.064Z</time></trkpt><trkpt lat="44.90753" lon="8.1901317"><ele>132.0</ele><time>2026-04-12T06:56:16.062Z</time></trkpt><trkpt lat="44.90752" lon="8.1902283"><ele>132.0</ele><time>2026-04-12T06:56:17.061Z</time></trkpt><trkpt lat="44.90751" lon="8.1903267"><ele>132.0</ele><time>2026-04-12T06:56:18.063Z</time></trkpt><trkpt lat="44.9074967" lon="8.1904233"><ele>132.0</ele><time>2026-04-12T06:56:19.064Z</time></trkpt><trkpt lat="44.90748" lon="8.1905167"><ele>132.0</ele><time>2026-04-12T06:56:20.063Z</time></trkpt><trkpt lat="44.90746" lon="8.190605"><ele>132.0</ele><time>2026-04-12T06:56:21.064Z</time></trkpt><trkpt lat="44.907405" lon="8.1907383"><ele>132.0</ele><time>2026-04-12T06:56:23.061Z</time></trkpt><trkpt lat="44.9073133" lon="8.1908633"><ele>132.0</ele><time>2026-04-12T06:56:25.063Z</time></trkpt><trkpt lat="44.90728" lon="8.1909483"><ele>132.0</ele><time>2026-04-12T06:56:26.063Z</time></trkpt><trkpt lat="44.90726" lon="8.1910433"><ele>132.0</ele><time>2026-04-12T06:56:27.062Z</time></trkpt><trkpt lat="44.9072467" lon="8.1911367"><ele>131.85714285714286</ele><time>2026-04-12T06:56:28.062Z</time></trkpt><trkpt lat="44.9072317" lon="8.1912317"><ele>131.71428571428572</ele><time>2026-04-12T06:56:29.061Z</time></trkpt><trkpt lat="44.9072017" lon="8.19132"><ele>131.57142857142858</ele><time>2026-04-12T06:56:30.065Z</time></trkpt><trkpt lat="44.9071667" lon="8.191405"><ele>131.42857142857144</ele><time>2026-04-12T06:56:31.062Z</time></trkpt><trkpt lat="44.90713" lon="8.19149"><ele>131.2857142857143</ele><time>2026-04-12T06:56:32.063Z</time></trkpt><trkpt lat="44.9070933" lon="8.1915733"><ele>131.14285714285714</ele><time>2026-04-12T06:56:33.061Z</time></trkpt><trkpt lat="44.9070533" lon="8.1916533"><ele>131.0</ele><time>2026-04-12T06:56:34.063Z</time></trkpt><trkpt lat="44.9070167" lon="8.1917367"><ele>130.71428571428572</ele><time>2026-04-12T06:56:35.061Z</time></trkpt><trkpt lat="44.9069817" lon="8.19182"><ele>130.42857142857144</ele><time>2026-04-12T06:56:36.063Z</time></trkpt><trkpt lat="44.9069467" lon="8.191905"><ele>130.14285714285714</ele><time>2026-04-12T06:56:37.062Z</time></trkpt><trkpt lat="44.9069083" lon="8.191995"><ele>129.85714285714286</ele><time>2026-04-12T06:56:38.062Z</time></trkpt><trkpt lat="44.90687" lon="8.1920817"><ele>129.57142857142856</ele><time>2026-04-12T06:56:39.063Z</time></trkpt><trkpt lat="44.90683" lon="8.19217"><ele>129.28571428571428</ele><time>2026-04-12T06:56:40.063Z</time></trkpt><trkpt lat="44.9067917" lon="8.192255"><ele>129.0</ele><time>2026-04-12T06:56:41.062Z</time></trkpt><trkpt lat="44.90675" lon="8.1923383"><ele>129.28571428571428</ele><time>2026-04-12T06:56:42.062Z</time></trkpt><trkpt lat="44.9067083" lon="8.1924217"><ele>129.57142857142856</ele><time>2026-04-12T06:56:43.061Z</time></trkpt><trkpt lat="44.9066667" lon="8.192505"><ele>129.85714285714286</ele><time>2026-04-12T06:56:44.063Z</time></trkpt><trkpt lat="44.9066267" lon="8.1925883"><ele>130.14285714285714</ele><time>2026-04-12T06:56:45.067Z</time></trkpt><trkpt lat="44.9065883" lon="8.1926767"><ele>130.42857142857144</ele><time>2026-04-12T06:56:46.062Z</time></trkpt><trkpt lat="44.90655" lon="8.1927633"><ele>130.71428571428572</ele><time>2026-04-12T06:56:47.061Z</time></trkpt><trkpt lat="44.9065117" lon="8.1928483"><ele>131.0</ele><time>2026-04-12T06:56:48.063Z</time></trkpt><trkpt lat="44.9064733" lon="8.1929367"><ele>131.0</ele><time>2026-04-12T06:56:49.063Z</time></trkpt><trkpt lat="44.9064367" lon="8.1930233"><ele>131.0</ele><time>2026-04-12T06:56:50.064Z</time></trkpt><trkpt lat="44.9063983" lon="8.1931133"><ele>131.0</ele><time>2026-04-12T06:56:51.062Z</time></trkpt><trkpt lat="44.9063583" lon="8.1932"><ele>131.0</ele><time>2026-04-12T06:56:52.062Z</time></trkpt><trkpt lat="44.90632" lon="8.193285"><ele>131.0</ele><time>2026-04-12T06:56:53.061Z</time></trkpt><trkpt lat="44.9062817" lon="8.1933667"><ele>131.0</ele><time>2026-04-12T06:56:54.063Z</time></trkpt><trkpt lat="44.9062467" lon="8.1934467"><ele>131.0</ele><time>2026-04-12T06:56:55.063Z</time></trkpt><trkpt lat="44.9062133" lon="8.1935233"><ele>132.0</ele><time>2026-04-12T06:56:56.063Z</time></trkpt><trkpt lat="44.9061517" lon="8.1936717"><ele>133.0</ele><time>2026-04-12T06:56:58.064Z</time></trkpt><trkpt lat="44.906095" lon="8.19382"><ele>134.0</ele><time>2026-04-12T06:57:00.063Z</time></trkpt><trkpt lat="44.9060417" lon="8.1939617"><ele>135.0</ele><time>2026-04-12T06:57:02.062Z</time></trkpt><trkpt lat="44.9059933" lon="8.1941067"><ele>135.8</ele><time>2026-04-12T06:57:04.061Z</time></trkpt><trkpt lat="44.905945" lon="8.1942433"><ele>136.6</ele><time>2026-04-12T06:57:06.064Z</time></trkpt><trkpt lat="44.9058883" lon="8.1943767"><ele>137.4</ele><time>2026-04-12T06:57:08.063Z</time></trkpt><trkpt lat="44.9058267" lon="8.1945017"><ele>138.2</ele><time>2026-04-12T06:57:10.061Z</time></trkpt><trkpt lat="44.9057733" lon="8.1946267"><ele>139.0</ele><time>2026-04-12T06:57:12.063Z</time></trkpt><trkpt lat="44.9057267" lon="8.19475"><ele>139.8</ele><time>2026-04-12T06:57:14.062Z</time></trkpt><trkpt lat="44.9056717" lon="8.1948717"><ele>140.60000000000002</ele><time>2026-04-12T06:57:16.062Z</time></trkpt><trkpt lat="44.9056167" lon="8.1949867"><ele>141.4</ele><time>2026-04-12T06:57:18.062Z</time></trkpt><trkpt lat="44.90556" lon="8.1951033"><ele>142.20000000000002</ele><time>2026-04-12T06:57:20.061Z</time></trkpt><trkpt lat="44.905505" lon="8.19522"><ele>143.0</ele><time>2026-04-12T06:57:22.062Z</time></trkpt><trkpt lat="44.9054483" lon="8.1953383"><ele>143.0</ele><time>2026-04-12T06:57:24.063Z</time></trkpt><trkpt lat="44.9054033" lon="8.19547"><ele>143.0</ele><time>2026-04-12T06:57:26.063Z</time></trkpt><trkpt lat="44.9053583" lon="8.1955933"><ele>143.0</ele><time>2026-04-12T06:57:28.063Z</time></trkpt><trkpt lat="44.9053117" lon="8.1957133"><ele>143.0</ele><time>2026-04-12T06:57:30.061Z</time></trkpt><trkpt lat="44.9052683" lon="8.1958367"><ele>143.0</ele><time>2026-04-12T06:57:32.065Z</time></trkpt><trkpt lat="44.9052217" lon="8.1959567"><ele>143.6</ele><time>2026-04-12T06:57:34.063Z</time></trkpt><trkpt lat="44.9051767" lon="8.1960767"><ele>144.20000000000002</ele><time>2026-04-12T06:57:36.063Z</time></trkpt><trkpt lat="44.905135" lon="8.1962033"><ele>144.8</ele><time>2026-04-12T06:57:38.062Z</time></trkpt><trkpt lat="44.9050917" lon="8.1963283"><ele>145.4</ele><time>2026-04-12T06:57:40.063Z</time></trkpt><trkpt lat="44.9050383" lon="8.1964317"><ele>146.0</ele><time>2026-04-12T06:57:42.065Z</time></trkpt><trkpt lat="44.904985" lon="8.1965417"><ele>146.0</ele><time>2026-04-12T06:57:44.064Z</time></trkpt><trkpt lat="44.9049783" lon="8.1966817"><ele>146.0</ele><time>2026-04-12T06:57:46.063Z</time></trkpt><trkpt lat="44.9049683" lon="8.1968133"><ele>146.0</ele><time>2026-04-12T06:57:48.061Z</time></trkpt><trkpt lat="44.90494" lon="8.1969367"><ele>146.0</ele><time>2026-04-12T06:57:50.063Z</time></trkpt><trkpt lat="44.90491" lon="8.1970533"><ele>146.0</ele><time>2026-04-12T06:57:52.063Z</time></trkpt><trkpt lat="44.9048817" lon="8.197175"><ele>146.0</ele><time>2026-04-12T06:57:54.065Z</time></trkpt><trkpt lat="44.9048483" lon="8.197295"><ele>146.0</ele><time>2026-04-12T06:57:56.063Z</time></trkpt><trkpt lat="44.90481" lon="8.19741"><ele>146.0</ele><time>2026-04-12T06:57:58.061Z</time></trkpt><trkpt lat="44.9047717" lon="8.1975217"><ele>146.0</ele><time>2026-04-12T06:58:00.063Z</time></trkpt><trkpt lat="44.90474" lon="8.1976383"><ele>146.0</ele><time>2026-04-12T06:58:02.062Z</time></trkpt><trkpt lat="44.904705" lon="8.197755"><ele>146.0</ele><time>2026-04-12T06:58:04.064Z</time></trkpt><trkpt lat="44.9046767" lon="8.197865"><ele>146.16666666666666</ele><time>2026-04-12T06:58:06.065Z</time></trkpt><trkpt lat="44.9046417" lon="8.1979767"><ele>146.33333333333331</ele><time>2026-04-12T06:58:08.062Z</time></trkpt><trkpt lat="44.9046083" lon="8.1980917"><ele>146.5</ele><time>2026-04-12T06:58:10.063Z</time></trkpt><trkpt lat="44.9045733" lon="8.1982117"><ele>146.66666666666666</ele><time>2026-04-12T06:58:12.064Z</time></trkpt><trkpt lat="44.9045283" lon="8.1983183"><ele>146.83333333333334</ele><time>2026-04-12T06:58:14.062Z</time></trkpt><trkpt lat="44.904475" lon="8.1984283"><ele>147.0</ele><time>2026-04-12T06:58:16.063Z</time></trkpt><trkpt lat="44.9044067" lon="8.19854"><ele>147.6</ele><time>2026-04-12T06:58:18.063Z</time></trkpt><trkpt lat="44.904325" lon="8.1986433"><ele>148.2</ele><time>2026-04-12T06:58:20.063Z</time></trkpt><trkpt lat="44.9042433" lon="8.1987433"><ele>148.8</ele><time>2026-04-12T06:58:22.064Z</time></trkpt><trkpt lat="44.9041517" lon="8.1988433"><ele>149.4</ele><time>2026-04-12T06:58:24.065Z</time></trkpt><trkpt lat="44.9040567" lon="8.19893"><ele>150.0</ele><time>2026-04-12T06:58:26.062Z</time></trkpt><trkpt lat="44.9039567" lon="8.1989967"><ele>150.0</ele><time>2026-04-12T06:58:28.063Z</time></trkpt><trkpt lat="44.9038533" lon="8.19908"><ele>150.0</ele><time>2026-04-12T06:58:30.063Z</time></trkpt><trkpt lat="44.90376" lon="8.1992033"><ele>150.0</ele><time>2026-04-12T06:58:32.064Z</time></trkpt><trkpt lat="44.9037033" lon="8.1992567"><ele>150.0</ele><time>2026-04-12T06:58:33.063Z</time></trkpt><trkpt lat="44.9036433" lon="8.1993"><ele>150.0</ele><time>2026-04-12T06:58:34.063Z</time></trkpt><trkpt lat="44.90358" lon="8.1993367"><ele>150.0</ele><time>2026-04-12T06:58:35.063Z</time></trkpt><trkpt lat="44.9035167" lon="8.1993783"><ele>150.0</ele><time>2026-04-12T06:58:36.065Z</time></trkpt><trkpt lat="44.9034483" lon="8.1994217"><ele>150.0</ele><time>2026-04-12T06:58:37.066Z</time></trkpt><trkpt lat="44.9033733" lon="8.199465"><ele>150.0</ele><time>2026-04-12T06:58:38.064Z</time></trkpt><trkpt lat="44.9032933" lon="8.19951"><ele>150.0</ele><time>2026-04-12T06:58:39.063Z</time></trkpt><trkpt lat="44.9032083" lon="8.1995583"><ele>150.0</ele><time>2026-04-12T06:58:40.062Z</time></trkpt><trkpt lat="44.9031183" lon="8.1996133"><ele>150.0</ele><time>2026-04-12T06:58:41.064Z</time></trkpt><trkpt lat="44.903025" lon="8.19967"><ele>150.0</ele><time>2026-04-12T06:58:42.063Z</time></trkpt><trkpt lat="44.9029267" lon="8.1997267"><ele>150.0</ele><time>2026-04-12T06:58:43.064Z</time></trkpt><trkpt lat="44.902825" lon="8.199775"><ele>150.0</ele><time>2026-04-12T06:58:44.064Z</time></trkpt><trkpt lat="44.9027167" lon="8.199815"><ele>150.0</ele><time>2026-04-12T06:58:45.062Z</time></trkpt><trkpt lat="44.9026033" lon="8.1998467"><ele>147.75</ele><time>2026-04-12T06:58:46.062Z</time></trkpt><trkpt lat="44.9024817" lon="8.19988"><ele>145.5</ele><time>2026-04-12T06:58:47.062Z</time></trkpt><trkpt lat="44.9023583" lon="8.1999133"><ele>143.25</ele><time>2026-04-12T06:58:48.063Z</time></trkpt><trkpt lat="44.9022367" lon="8.19995"><ele>141.0</ele><time>2026-04-12T06:58:49.063Z</time></trkpt><trkpt lat="44.9021233" lon="8.199985"><ele>141.0</ele><time>2026-04-12T06:58:50.062Z</time></trkpt><trkpt lat="44.9020217" lon="8.200005"><ele>141.0</ele><time>2026-04-12T06:58:51.063Z</time></trkpt><trkpt lat="44.9019333" lon="8.2000167"><ele>141.0</ele><time>2026-04-12T06:58:52.064Z</time></trkpt><trkpt lat="44.9018533" lon="8.2000233"><ele>141.0</ele><time>2026-04-12T06:58:53.062Z</time></trkpt><trkpt lat="44.9017833" lon="8.2000267"><ele>141.0</ele><time>2026-04-12T06:58:54.062Z</time></trkpt><trkpt lat="44.90172" lon="8.2000267"><ele>141.0</ele><time>2026-04-12T06:58:55.064Z</time></trkpt><trkpt lat="44.9016133" lon="8.2000133"><ele>140.4</ele><time>2026-04-12T06:58:57.065Z</time></trkpt><trkpt lat="44.90154" lon="8.1999583"><ele>139.8</ele><time>2026-04-12T06:58:59.063Z</time></trkpt><trkpt lat="44.9015017" lon="8.19983"><ele>139.20000000000002</ele><time>2026-04-12T06:59:01.065Z</time></trkpt><trkpt lat="44.9014683" lon="8.199685"><ele>138.6</ele><time>2026-04-12T06:59:03.062Z</time></trkpt><trkpt lat="44.9014383" lon="8.19953"><ele>138.0</ele><time>2026-04-12T06:59:05.063Z</time></trkpt><trkpt lat="44.90141" lon="8.1993683"><ele>138.0</ele><time>2026-04-12T06:59:07.064Z</time></trkpt><trkpt lat="44.901375" lon="8.1992067"><ele>138.0</ele><time>2026-04-12T06:59:09.063Z</time></trkpt><trkpt lat="44.90135" lon="8.1990533"><ele>138.0</ele><time>2026-04-12T06:59:11.062Z</time></trkpt><trkpt lat="44.9013383" lon="8.1989117"><ele>138.0</ele><time>2026-04-12T06:59:13.063Z</time></trkpt><trkpt lat="44.901335" lon="8.19877"><ele>138.0</ele><time>2026-04-12T06:59:15.064Z</time></trkpt><trkpt lat="44.9013317" lon="8.1986367"><ele>138.33333333333334</ele><time>2026-04-12T06:59:17.062Z</time></trkpt><trkpt lat="44.9013217" lon="8.1985"><ele>138.66666666666666</ele><time>2026-04-12T06:59:19.063Z</time></trkpt><trkpt lat="44.9013117" lon="8.1983733"><ele>139.0</ele><time>2026-04-12T06:59:21.062Z</time></trkpt><trkpt lat="44.901295" lon="8.198265"><ele>139.33333333333331</ele><time>2026-04-12T06:59:23.062Z</time></trkpt><trkpt lat="44.9012733" lon="8.1981667"><ele>139.66666666666666</ele><time>2026-04-12T06:59:25.062Z</time></trkpt><trkpt lat="44.9012633" lon="8.1980633"><ele>140.0</ele><time>2026-04-12T06:59:27.062Z</time></trkpt><trkpt lat="44.901255" lon="8.197955"><ele>140.33333333333331</ele><time>2026-04-12T06:59:29.062Z</time></trkpt><trkpt lat="44.9012517" lon="8.19785"><ele>140.66666666666666</ele><time>2026-04-12T06:59:31.062Z</time></trkpt><trkpt lat="44.901245" lon="8.1977383"><ele>141.0</ele><time>2026-04-12T06:59:33.063Z</time></trkpt><trkpt lat="44.901235" lon="8.197625"><ele>141.33333333333334</ele><time>2026-04-12T06:59:35.064Z</time></trkpt><trkpt lat="44.90122" lon="8.1975133"><ele>141.66666666666669</ele><time>2026-04-12T06:59:37.064Z</time></trkpt><trkpt lat="44.9012067" lon="8.1974033"><ele>142.0</ele><time>2026-04-12T06:59:39.063Z</time></trkpt><trkpt lat="44.9011917" lon="8.1972917"><ele>142.14285714285714</ele><time>2026-04-12T06:59:41.063Z</time></trkpt><trkpt lat="44.9011717" lon="8.1971833"><ele>142.28571428571428</ele><time>2026-04-12T06:59:43.062Z</time></trkpt><trkpt lat="44.9011533" lon="8.1970783"><ele>142.42857142857142</ele><time>2026-04-12T06:59:45.063Z</time></trkpt><trkpt lat="44.9011267" lon="8.19698"><ele>142.57142857142856</ele><time>2026-04-12T06:59:47.064Z</time></trkpt><trkpt lat="44.90109" lon="8.1968983"><ele>142.71428571428572</ele><time>2026-04-12T06:59:49.064Z</time></trkpt><trkpt lat="44.9010283" lon="8.196875"><ele>142.85714285714283</ele><time>2026-04-12T06:59:51.063Z</time></trkpt><trkpt lat="44.9009567" lon="8.196925"><ele>143.0</ele><time>2026-04-12T06:59:53.062Z</time></trkpt><trkpt lat="44.9008767" lon="8.19699"><ele>142.6</ele><time>2026-04-12T06:59:55.062Z</time></trkpt><trkpt lat="44.9007933" lon="8.1970517"><ele>142.20000000000002</ele><time>2026-04-12T06:59:57.065Z</time></trkpt><trkpt lat="44.90071" lon="8.1971067"><ele>141.8</ele><time>2026-04-12T06:59:59.063Z</time></trkpt><trkpt lat="44.9006133" lon="8.1971567"><ele>141.4</ele><time>2026-04-12T07:00:01.059Z</time></trkpt><trkpt lat="44.9005133" lon="8.197205"><ele>141.0</ele><time>2026-04-12T07:00:03.064Z</time></trkpt><trkpt lat="44.900415" lon="8.1972633"><ele>141.0</ele><time>2026-04-12T07:00:05.063Z</time></trkpt><trkpt lat="44.9003333" lon="8.1973333"><ele>141.0</ele><time>2026-04-12T07:00:07.063Z</time></trkpt><trkpt lat="44.9002917" lon="8.197425"><ele>141.0</ele><time>2026-04-12T07:00:09.065Z</time></trkpt><trkpt lat="44.9002933" lon="8.1975317"><ele>141.0</ele><time>2026-04-12T07:00:11.064Z</time></trkpt><trkpt lat="44.9003117" lon="8.1976317"><ele>141.0</ele><time>2026-04-12T07:00:13.064Z</time></trkpt><trkpt lat="44.90033" lon="8.197735"><ele>141.0</ele><time>2026-04-12T07:00:15.064Z</time></trkpt><trkpt lat="44.9003433" lon="8.1978317"><ele>141.0</ele><time>2026-04-12T07:00:17.062Z</time></trkpt><trkpt lat="44.90036" lon="8.1979333"><ele>141.0</ele><time>2026-04-12T07:00:19.065Z</time></trkpt><trkpt lat="44.9003867" lon="8.1980333"><ele>141.0</ele><time>2026-04-12T07:00:21.064Z</time></trkpt><trkpt lat="44.9004083" lon="8.1981333"><ele>141.0</ele><time>2026-04-12T07:00:23.064Z</time></trkpt><trkpt lat="44.9004267" lon="8.1982383"><ele>141.0</ele><time>2026-04-12T07:00:25.063Z</time></trkpt><trkpt lat="44.9004483" lon="8.1983483"><ele>141.0</ele><time>2026-04-12T07:00:27.063Z</time></trkpt><trkpt lat="44.9004817" lon="8.198455"><ele>140.66666666666666</ele><time>2026-04-12T07:00:29.063Z</time></trkpt><trkpt lat="44.9005383" lon="8.19853"><ele>140.33333333333334</ele><time>2026-04-12T07:00:31.063Z</time></trkpt><trkpt lat="44.9006133" lon="8.19859"><ele>140.0</ele><time>2026-04-12T07:00:33.063Z</time></trkpt><trkpt lat="44.9006733" lon="8.1986717"><ele>139.66666666666669</ele><time>2026-04-12T07:00:35.063Z</time></trkpt><trkpt lat="44.9006933" lon="8.19877"><ele>139.33333333333334</ele><time>2026-04-12T07:00:37.064Z</time></trkpt><trkpt lat="44.900715" lon="8.1988783"><ele>139.0</ele><time>2026-04-12T07:00:39.066Z</time></trkpt><trkpt lat="44.9007367" lon="8.1989867"><ele>138.83333333333334</ele><time>2026-04-12T07:00:41.062Z</time></trkpt><trkpt lat="44.90076" lon="8.199095"><ele>138.66666666666669</ele><time>2026-04-12T07:00:43.066Z</time></trkpt><trkpt lat="44.9007817" lon="8.1992083"><ele>138.5</ele><time>2026-04-12T07:00:46.062Z</time></trkpt><trkpt lat="44.9008033" lon="8.1993083"><ele>138.33333333333334</ele><time>2026-04-12T07:00:50.066Z</time></trkpt><trkpt lat="44.90072" lon="8.199355"><ele>138.16666666666666</ele><time>2026-04-12T07:00:56.064Z</time></trkpt><trkpt lat="44.9006467" lon="8.1993767"><ele>138.0</ele><time>2026-04-12T07:00:58.063Z</time></trkpt><trkpt lat="44.9005733" lon="8.1993967"><ele>138.0</ele><time>2026-04-12T07:01:00.061Z</time></trkpt><trkpt lat="44.90047" lon="8.199415"><ele>138.0</ele><time>2026-04-12T07:01:02.063Z</time></trkpt><trkpt lat="44.900385" lon="8.1994383"><ele>138.0</ele><time>2026-04-12T07:01:04.064Z</time></trkpt><trkpt lat="44.9003067" lon="8.1994533"><ele>138.0</ele><time>2026-04-12T07:01:06.063Z</time></trkpt><trkpt lat="44.900225" lon="8.199485"><ele>138.0</ele><time>2026-04-12T07:01:08.063Z</time></trkpt><trkpt lat="44.9001467" lon="8.1995167"><ele>138.0</ele><time>2026-04-12T07:01:10.063Z</time></trkpt><trkpt lat="44.90008" lon="8.1995467"><ele>137.83333333333334</ele><time>2026-04-12T07:01:12.064Z</time></trkpt><trkpt lat="44.90003" lon="8.199635"><ele>137.66666666666666</ele><time>2026-04-12T07:01:15.063Z</time></trkpt><trkpt lat="44.9000033" lon="8.1997683"><ele>137.5</ele><time>2026-04-12T07:01:18.067Z</time></trkpt><trkpt lat="44.8999917" lon="8.1998783"><ele>137.33333333333331</ele><time>2026-04-12T07:01:20.065Z</time></trkpt><trkpt lat="44.8999933" lon="8.199985"><ele>137.16666666666666</ele><time>2026-04-12T07:01:22.061Z</time></trkpt><trkpt lat="44.9000083" lon="8.20009"><ele>137.0</ele><time>2026-04-12T07:01:24.062Z</time></trkpt><trkpt lat="44.9000267" lon="8.2001917"><ele>137.14285714285717</ele><time>2026-04-12T07:01:26.062Z</time></trkpt><trkpt lat="44.90006" lon="8.2003"><ele>137.28571428571428</ele><time>2026-04-12T07:01:28.062Z</time></trkpt><trkpt lat="44.900095" lon="8.2003967"><ele>137.42857142857144</ele><time>2026-04-12T07:01:30.064Z</time></trkpt><trkpt lat="44.9001183" lon="8.20048"><ele>137.57142857142858</ele><time>2026-04-12T07:01:32.062Z</time></trkpt><trkpt lat="44.9001333" lon="8.2005667"><ele>137.71428571428572</ele><time>2026-04-12T07:01:34.061Z</time></trkpt><trkpt lat="44.9001483" lon="8.200665"><ele>137.85714285714286</ele><time>2026-04-12T07:01:36.063Z</time></trkpt><trkpt lat="44.900165" lon="8.200765"><ele>138.0</ele><time>2026-04-12T07:01:38.062Z</time></trkpt><trkpt lat="44.90018" lon="8.2008567"><ele>138.28571428571428</ele><time>2026-04-12T07:01:40.063Z</time></trkpt><trkpt lat="44.9001933" lon="8.2009517"><ele>138.57142857142858</ele><time>2026-04-12T07:01:42.063Z</time></trkpt><trkpt lat="44.9002067" lon="8.2010467"><ele>138.85714285714286</ele><time>2026-04-12T07:01:44.063Z</time></trkpt><trkpt lat="44.9002183" lon="8.2011467"><ele>139.14285714285714</ele><time>2026-04-12T07:01:46.062Z</time></trkpt><trkpt lat="44.9002317" lon="8.2012533"><ele>139.42857142857144</ele><time>2026-04-12T07:01:48.062Z</time></trkpt><trkpt lat="44.900245" lon="8.2013633"><ele>139.71428571428572</ele><time>2026-04-12T07:01:50.063Z</time></trkpt><trkpt lat="44.9002583" lon="8.2014667"><ele>140.0</ele><time>2026-04-12T07:01:52.063Z</time></trkpt><trkpt lat="44.90027" lon="8.201555"><ele>139.33333333333331</ele><time>2026-04-12T07:01:54.064Z</time></trkpt><trkpt lat="44.9002833" lon="8.2016683"><ele>138.66666666666666</ele><time>2026-04-12T07:01:56.064Z</time></trkpt><trkpt lat="44.900305" lon="8.201775"><ele>138.0</ele><time>2026-04-12T07:01:58.061Z</time></trkpt><trkpt lat="44.9003283" lon="8.20189"><ele>137.33333333333334</ele><time>2026-04-12T07:02:00.064Z</time></trkpt><trkpt lat="44.90035" lon="8.2020133"><ele>136.66666666666669</ele><time>2026-04-12T07:02:02.065Z</time></trkpt><trkpt lat="44.900385" lon="8.2021383"><ele>136.0</ele><time>2026-04-12T07:02:04.062Z</time></trkpt><trkpt lat="44.9004217" lon="8.2022633"><ele>135.4</ele><time>2026-04-12T07:02:06.062Z</time></trkpt><trkpt lat="44.9004583" lon="8.20239"><ele>134.8</ele><time>2026-04-12T07:02:08.062Z</time></trkpt><trkpt lat="44.90049" lon="8.2025167"><ele>134.20000000000002</ele><time>2026-04-12T07:02:10.063Z</time></trkpt><trkpt lat="44.9005417" lon="8.20264"><ele>133.6</ele><time>2026-04-12T07:02:12.063Z</time></trkpt><trkpt lat="44.9005883" lon="8.202765"><ele>133.0</ele><time>2026-04-12T07:02:14.063Z</time></trkpt><trkpt lat="44.900605" lon="8.20291"><ele>133.0</ele><time>2026-04-12T07:02:16.063Z</time></trkpt><trkpt lat="44.9006183" lon="8.2030583"><ele>133.0</ele><time>2026-04-12T07:02:18.062Z</time></trkpt><trkpt lat="44.9006517" lon="8.2031983"><ele>133.0</ele><time>2026-04-12T07:02:20.064Z</time></trkpt><trkpt lat="44.90073" lon="8.2032867"><ele>133.0</ele><time>2026-04-12T07:02:22.067Z</time></trkpt><trkpt lat="44.9007933" lon="8.2033567"><ele>133.0</ele><time>2026-04-12T07:02:24.062Z</time></trkpt><trkpt lat="44.9008783" lon="8.203345"><ele>133.6</ele><time>2026-04-12T07:02:27.062Z</time></trkpt><trkpt lat="44.9009283" lon="8.2032517"><ele>134.20000000000002</ele><time>2026-04-12T07:02:29.062Z</time></trkpt><trkpt lat="44.9009683" lon="8.203135"><ele>134.8</ele><time>2026-04-12T07:02:31.062Z</time></trkpt><trkpt lat="44.9009983" lon="8.2030083"><ele>135.4</ele><time>2026-04-12T07:02:33.064Z</time></trkpt><trkpt lat="44.9010233" lon="8.202875"><ele>136.0</ele><time>2026-04-12T07:02:35.06Z</time></trkpt><trkpt lat="44.9010533" lon="8.2027367"><ele>136.0</ele><time>2026-04-12T07:02:37.062Z</time></trkpt><trkpt lat="44.9010817" lon="8.2026283"><ele>136.0</ele><time>2026-04-12T07:02:39.063Z</time></trkpt><trkpt lat="44.9011633" lon="8.20272"><ele>136.0</ele><time>2026-04-12T07:02:54.063Z</time></trkpt><trkpt lat="44.9012217" lon="8.2028017"><ele>136.0</ele><time>2026-04-12T07:02:56.061Z</time></trkpt><trkpt lat="44.901265" lon="8.20289"><ele>136.0</ele><time>2026-04-12T07:02:58.061Z</time></trkpt><trkpt lat="44.9012967" lon="8.202975"><ele>136.0</ele><time>2026-04-12T07:03:00.065Z</time></trkpt><trkpt lat="44.90131" lon="8.203085"><ele>136.0</ele><time>2026-04-12T07:03:02.062Z</time></trkpt><trkpt lat="44.901275" lon="8.203185"><ele>136.0</ele><time>2026-04-12T07:03:04.063Z</time></trkpt><trkpt lat="44.901205" lon="8.2032917"><ele>136.0</ele><time>2026-04-12T07:03:06.063Z</time></trkpt><trkpt lat="44.9011283" lon="8.2034183"><ele>136.0</ele><time>2026-04-12T07:03:08.063Z</time></trkpt><trkpt lat="44.9010583" lon="8.2035483"><ele>136.0</ele><time>2026-04-12T07:03:10.064Z</time></trkpt><trkpt lat="44.900985" lon="8.2036783"><ele>136.0</ele><time>2026-04-12T07:03:12.064Z</time></trkpt><trkpt lat="44.9009267" lon="8.2038267"><ele>136.0</ele><time>2026-04-12T07:03:14.062Z</time></trkpt><trkpt lat="44.9008567" lon="8.2039417"><ele>136.0</ele><time>2026-04-12T07:03:16.062Z</time></trkpt><trkpt lat="44.9007867" lon="8.2040583"><ele>136.0</ele><time>2026-04-12T07:03:18.062Z</time></trkpt><trkpt lat="44.9007167" lon="8.20419"><ele>135.4</ele><time>2026-04-12T07:03:20.062Z</time></trkpt><trkpt lat="44.9006583" lon="8.2042467"><ele>134.8</ele><time>2026-04-12T07:03:21.062Z</time></trkpt><trkpt lat="44.9005533" lon="8.20432"><ele>134.20000000000002</ele><time>2026-04-12T07:03:23.062Z</time></trkpt><trkpt lat="44.900455" lon="8.2043633"><ele>133.6</ele><time>2026-04-12T07:03:25.062Z</time></trkpt><trkpt lat="44.90037" lon="8.204395"><ele>133.0</ele><time>2026-04-12T07:03:27.062Z</time></trkpt><trkpt lat="44.900295" lon="8.20446"><ele>133.0</ele><time>2026-04-12T07:03:29.061Z</time></trkpt><trkpt lat="44.9002167" lon="8.2045033"><ele>133.0</ele><time>2026-04-12T07:03:31.062Z</time></trkpt><trkpt lat="44.9001417" lon="8.2045367"><ele>133.0</ele><time>2026-04-12T07:03:33.062Z</time></trkpt><trkpt lat="44.9000617" lon="8.20457"><ele>133.0</ele><time>2026-04-12T07:03:36.063Z</time></trkpt><trkpt lat="44.9000067" lon="8.20451"><ele>133.0</ele><time>2026-04-12T07:03:39.062Z</time></trkpt><trkpt lat="44.89999" lon="8.2044083"><ele>133.0</ele><time>2026-04-12T07:03:41.06Z</time></trkpt><trkpt lat="44.8999833" lon="8.2042783"><ele>132.83333333333334</ele><time>2026-04-12T07:03:43.064Z</time></trkpt><trkpt lat="44.89998" lon="8.2041333"><ele>132.66666666666669</ele><time>2026-04-12T07:03:45.063Z</time></trkpt><trkpt lat="44.8999867" lon="8.2039917"><ele>132.5</ele><time>2026-04-12T07:03:47.061Z</time></trkpt><trkpt lat="44.8999833" lon="8.20387"><ele>132.33333333333334</ele><time>2026-04-12T07:03:49.062Z</time></trkpt><trkpt lat="44.8999683" lon="8.20376"><ele>132.16666666666666</ele><time>2026-04-12T07:03:51.062Z</time></trkpt><trkpt lat="44.89995" lon="8.2036583"><ele>132.0</ele><time>2026-04-12T07:03:53.063Z</time></trkpt><trkpt lat="44.8999317" lon="8.203555"><ele>132.16666666666666</ele><time>2026-04-12T07:03:55.065Z</time></trkpt><trkpt lat="44.8998967" lon="8.2034467"><ele>132.33333333333334</ele><time>2026-04-12T07:03:57.062Z</time></trkpt><trkpt lat="44.8998633" lon="8.2033367"><ele>132.5</ele><time>2026-04-12T07:03:59.063Z</time></trkpt><trkpt lat="44.8998417" lon="8.20321"><ele>132.66666666666669</ele><time>2026-04-12T07:04:01.062Z</time></trkpt><trkpt lat="44.8998183" lon="8.2030883"><ele>132.83333333333334</ele><time>2026-04-12T07:04:03.061Z</time></trkpt><trkpt lat="44.8997983" lon="8.2029667"><ele>133.0</ele><time>2026-04-12T07:04:05.062Z</time></trkpt><trkpt lat="44.8997767" lon="8.20285"><ele>133.0</ele><time>2026-04-12T07:04:07.062Z</time></trkpt><trkpt lat="44.8997617" lon="8.2027267"><ele>133.0</ele><time>2026-04-12T07:04:09.062Z</time></trkpt><trkpt lat="44.8997517" lon="8.2025967"><ele>133.0</ele><time>2026-04-12T07:04:11.062Z</time></trkpt><trkpt lat="44.8997467" lon="8.2024667"><ele>133.0</ele><time>2026-04-12T07:04:13.063Z</time></trkpt><trkpt lat="44.899715" lon="8.2023517"><ele>133.0</ele><time>2026-04-12T07:04:15.063Z</time></trkpt><trkpt lat="44.8996833" lon="8.20223"><ele>133.5</ele><time>2026-04-12T07:04:17.062Z</time></trkpt><trkpt lat="44.8996633" lon="8.2021"><ele>134.0</ele><time>2026-04-12T07:04:19.062Z</time></trkpt><trkpt lat="44.89963" lon="8.201985"><ele>134.5</ele><time>2026-04-12T07:04:21.063Z</time></trkpt><trkpt lat="44.89962" lon="8.201865"><ele>135.0</ele><time>2026-04-12T07:04:23.063Z</time></trkpt><trkpt lat="44.8996033" lon="8.2017567"><ele>135.5</ele><time>2026-04-12T07:04:25.064Z</time></trkpt><trkpt lat="44.8995983" lon="8.2016633"><ele>136.0</ele><time>2026-04-12T07:04:27.064Z</time></trkpt><trkpt lat="44.8995783" lon="8.20156"><ele>136.5</ele><time>2026-04-12T07:04:29.061Z</time></trkpt><trkpt lat="44.8995567" lon="8.201455"><ele>137.0</ele><time>2026-04-12T07:04:31.064Z</time></trkpt><trkpt lat="44.8995367" lon="8.2013517"><ele>137.5</ele><time>2026-04-12T07:04:33.064Z</time></trkpt><trkpt lat="44.8995317" lon="8.201255"><ele>138.0</ele><time>2026-04-12T07:04:35.062Z</time></trkpt><trkpt lat="44.89952" lon="8.2011633"><ele>138.5</ele><time>2026-04-12T07:04:37.064Z</time></trkpt><trkpt lat="44.8995083" lon="8.2010483"><ele>139.0</ele><time>2026-04-12T07:04:39.064Z</time></trkpt><trkpt lat="44.899495" lon="8.2009183"><ele>139.0</ele><time>2026-04-12T07:04:41.061Z</time></trkpt><trkpt lat="44.8994633" lon="8.20079"><ele>139.0</ele><time>2026-04-12T07:04:43.064Z</time></trkpt><trkpt lat="44.8994383" lon="8.2006633"><ele>139.0</ele><time>2026-04-12T07:04:45.063Z</time></trkpt><trkpt lat="44.8994233" lon="8.2005317"><ele>139.0</ele><time>2026-04-12T07:04:47.064Z</time></trkpt><trkpt lat="44.89941" lon="8.2003967"><ele>139.0</ele><time>2026-04-12T07:04:49.063Z</time></trkpt><trkpt lat="44.8993917" lon="8.2002617"><ele>139.0</ele><time>2026-04-12T07:04:51.062Z</time></trkpt><trkpt lat="44.8993883" lon="8.2001183"><ele>139.0</ele><time>2026-04-12T07:04:53.061Z</time></trkpt><trkpt lat="44.89938" lon="8.1999783"><ele>139.0</ele><time>2026-04-12T07:04:55.064Z</time></trkpt><trkpt lat="44.89935" lon="8.1998433"><ele>139.0</ele><time>2026-04-12T07:04:57.064Z</time></trkpt><trkpt lat="44.8993167" lon="8.1997167"><ele>139.0</ele><time>2026-04-12T07:04:59.06Z</time></trkpt><trkpt lat="44.8992817" lon="8.1995917"><ele>139.14285714285714</ele><time>2026-04-12T07:05:01.064Z</time></trkpt><trkpt lat="44.8992617" lon="8.19948"><ele>139.28571428571428</ele><time>2026-04-12T07:05:03.065Z</time></trkpt><trkpt lat="44.8991917" lon="8.1994683"><ele>139.42857142857144</ele><time>2026-04-12T07:05:09.063Z</time></trkpt><trkpt lat="44.89914" lon="8.19953"><ele>139.57142857142856</ele><time>2026-04-12T07:05:10.062Z</time></trkpt><trkpt lat="44.899085" lon="8.1995867"><ele>139.71428571428572</ele><time>2026-04-12T07:05:11.062Z</time></trkpt><trkpt lat="44.8990233" lon="8.1996483"><ele>139.85714285714286</ele><time>2026-04-12T07:05:12.064Z</time></trkpt><trkpt lat="44.8989567" lon="8.1997117"><ele>140.0</ele><time>2026-04-12T07:05:13.065Z</time></trkpt><trkpt lat="44.8988933" lon="8.199765"><ele>140.0</ele><time>2026-04-12T07:05:14.066Z</time></trkpt><trkpt lat="44.898835" lon="8.1998183"><ele>140.0</ele><time>2026-04-12T07:05:15.062Z</time></trkpt><trkpt lat="44.8987183" lon="8.1998883"><ele>140.0</ele><time>2026-04-12T07:05:17.068Z</time></trkpt><trkpt lat="44.8986017" lon="8.1999383"><ele>140.0</ele><time>2026-04-12T07:05:19.064Z</time></trkpt><trkpt lat="44.8985317" lon="8.2000133"><ele>140.0</ele><time>2026-04-12T07:05:21.066Z</time></trkpt><trkpt lat="44.8985183" lon="8.20015"><ele>140.0</ele><time>2026-04-12T07:05:23.062Z</time></trkpt><trkpt lat="44.89854" lon="8.2002917"><ele>140.0</ele><time>2026-04-12T07:05:25.062Z</time></trkpt><trkpt lat="44.8985617" lon="8.2004283"><ele>140.0</ele><time>2026-04-12T07:05:27.062Z</time></trkpt><trkpt lat="44.89858" lon="8.2005683"><ele>140.0</ele><time>2026-04-12T07:05:29.058Z</time></trkpt><trkpt lat="44.8985983" lon="8.2007167"><ele>140.0</ele><time>2026-04-12T07:05:31.066Z</time></trkpt><trkpt lat="44.89861" lon="8.200875"><ele>139.5</ele><time>2026-04-12T07:05:33.064Z</time></trkpt><trkpt lat="44.8986283" lon="8.2010233"><ele>139.0</ele><time>2026-04-12T07:05:35.062Z</time></trkpt><trkpt lat="44.89867" lon="8.2011617"><ele>138.5</ele><time>2026-04-12T07:05:37.058Z</time></trkpt><trkpt lat="44.898725" lon="8.201315"><ele>138.0</ele><time>2026-04-12T07:05:39.062Z</time></trkpt><trkpt lat="44.8987767" lon="8.20147"><ele>137.4</ele><time>2026-04-12T07:05:41.062Z</time></trkpt><trkpt lat="44.898815" lon="8.2016333"><ele>136.8</ele><time>2026-04-12T07:05:43.062Z</time></trkpt><trkpt lat="44.898855" lon="8.2017967"><ele>136.2</ele><time>2026-04-12T07:05:45.063Z</time></trkpt><trkpt lat="44.89889" lon="8.2019383"><ele>135.6</ele><time>2026-04-12T07:05:47.061Z</time></trkpt><trkpt lat="44.8989267" lon="8.2020183"><ele>135.0</ele><time>2026-04-12T07:05:49.063Z</time></trkpt><trkpt lat="44.8989433" lon="8.202135"><ele>135.0</ele><time>2026-04-12T07:05:53.062Z</time></trkpt><trkpt lat="44.898955" lon="8.2022283"><ele>135.0</ele><time>2026-04-12T07:05:56.061Z</time></trkpt><trkpt lat="44.8989683" lon="8.2023167"><ele>135.0</ele><time>2026-04-12T07:06:00.061Z</time></trkpt><trkpt lat="44.8988717" lon="8.202335"><ele>135.0</ele><time>2026-04-12T07:06:12.061Z</time></trkpt><trkpt lat="44.8988617" lon="8.2024533"><ele>135.0</ele><time>2026-04-12T07:06:21.063Z</time></trkpt><trkpt lat="44.89889" lon="8.2025717"><ele>135.0</ele><time>2026-04-12T07:06:30.061Z</time></trkpt><trkpt lat="44.898925" lon="8.2027"><ele>134.66666666666666</ele><time>2026-04-12T07:06:33.064Z</time></trkpt><trkpt lat="44.8989483" lon="8.20281"><ele>134.33333333333334</ele><time>2026-04-12T07:06:35.064Z</time></trkpt><trkpt lat="44.89896" lon="8.2029267"><ele>134.0</ele><time>2026-04-12T07:06:37.065Z</time></trkpt><trkpt lat="44.89897" lon="8.2030217"><ele>133.66666666666669</ele><time>2026-04-12T07:06:39.063Z</time></trkpt><trkpt lat="44.8989417" lon="8.2031183"><ele>133.33333333333334</ele><time>2026-04-12T07:06:41.062Z</time></trkpt><trkpt lat="44.89898" lon="8.2032433"><ele>133.0</ele><time>2026-04-12T07:06:44.064Z</time></trkpt><trkpt lat="44.8990033" lon="8.2033267"><ele>133.0</ele><time>2026-04-12T07:06:46.063Z</time></trkpt><trkpt lat="44.8990383" lon="8.2034167"><ele>133.0</ele><time>2026-04-12T07:06:48.063Z</time></trkpt><trkpt lat="44.8989783" lon="8.2035733"><ele>133.0</ele><time>2026-04-12T07:06:50.063Z</time></trkpt><trkpt lat="44.898985" lon="8.2036717"><ele>133.0</ele><time>2026-04-12T07:06:52.062Z</time></trkpt><trkpt lat="44.8989733" lon="8.203795"><ele>133.0</ele><time>2026-04-12T07:06:54.063Z</time></trkpt><trkpt lat="44.8989133" lon="8.203905"><ele>133.0</ele><time>2026-04-12T07:06:56.064Z</time></trkpt><trkpt lat="44.8988233" lon="8.2039783"><ele>133.0</ele><time>2026-04-12T07:06:57.063Z</time></trkpt><trkpt lat="44.89881" lon="8.2040833"><ele>133.0</ele><time>2026-04-12T07:06:59.063Z</time></trkpt><trkpt lat="44.8988167" lon="8.2042083"><ele>133.0</ele><time>2026-04-12T07:07:01.063Z</time></trkpt><trkpt lat="44.8987617" lon="8.2042933"><ele>133.0</ele><time>2026-04-12T07:07:03.064Z</time></trkpt><trkpt lat="44.8987683" lon="8.2044217"><ele>133.0</ele><time>2026-04-12T07:07:05.062Z</time></trkpt><trkpt lat="44.8987367" lon="8.2045133"><ele>132.66666666666669</ele><time>2026-04-12T07:07:07.063Z</time></trkpt><trkpt lat="44.8986717" lon="8.2045683"><ele>132.33333333333334</ele><time>2026-04-12T07:07:08.064Z</time></trkpt><trkpt lat="44.8985833" lon="8.2046367"><ele>132.0</ele><time>2026-04-12T07:07:10.063Z</time></trkpt><trkpt lat="44.8984983" lon="8.2046483"><ele>131.66666666666666</ele><time>2026-04-12T07:07:11.063Z</time></trkpt><trkpt lat="44.8983967" lon="8.2046683"><ele>131.33333333333331</ele><time>2026-04-12T07:07:12.063Z</time></trkpt><trkpt lat="44.8983233" lon="8.20469"><ele>131.0</ele><time>2026-04-12T07:07:13.062Z</time></trkpt><trkpt lat="44.8982617" lon="8.20471"><ele>130.6</ele><time>2026-04-12T07:07:14.063Z</time></trkpt><trkpt lat="44.8981467" lon="8.2047667"><ele>130.2</ele><time>2026-04-12T07:07:16.066Z</time></trkpt><trkpt lat="44.8980583" lon="8.2048283"><ele>129.8</ele><time>2026-04-12T07:07:18.059Z</time></trkpt><trkpt lat="44.897985" lon="8.204875"><ele>129.4</ele><time>2026-04-12T07:07:20.061Z</time></trkpt><trkpt lat="44.8979217" lon="8.2049067"><ele>129.0</ele><time>2026-04-12T07:07:22.063Z</time></trkpt><trkpt lat="44.897995" lon="8.204835"><ele>129.0</ele><time>2026-04-12T07:07:35.061Z</time></trkpt><trkpt lat="44.8980667" lon="8.2047817"><ele>129.0</ele><time>2026-04-12T07:07:37.062Z</time></trkpt><trkpt lat="44.8981333" lon="8.2047333"><ele>129.0</ele><time>2026-04-12T07:07:39.062Z</time></trkpt><trkpt lat="44.89819" lon="8.2046717"><ele>129.0</ele><time>2026-04-12T07:07:42.062Z</time></trkpt><trkpt lat="44.89825" lon="8.204625"><ele>129.0</ele><time>2026-04-12T07:07:47.063Z</time></trkpt><trkpt lat="44.89831" lon="8.2047633"><ele>129.0</ele><time>2026-04-12T07:07:55.063Z</time></trkpt><trkpt lat="44.89836" lon="8.204915"><ele>128.2</ele><time>2026-04-12T07:07:57.062Z</time></trkpt><trkpt lat="44.8983667" lon="8.2050483"><ele>127.4</ele><time>2026-04-12T07:07:59.062Z</time></trkpt><trkpt lat="44.898355" lon="8.2051683"><ele>126.6</ele><time>2026-04-12T07:08:01.065Z</time></trkpt><trkpt lat="44.89836" lon="8.2053167"><ele>125.8</ele><time>2026-04-12T07:08:03.064Z</time></trkpt><trkpt lat="44.8983767" lon="8.2055033"><ele>125.0</ele><time>2026-04-12T07:08:05.061Z</time></trkpt><trkpt lat="44.8984067" lon="8.2055983"><ele>125.16666666666666</ele><time>2026-04-12T07:08:06.062Z</time></trkpt><trkpt lat="44.8984383" lon="8.2057333"><ele>125.33333333333333</ele><time>2026-04-12T07:08:08.064Z</time></trkpt><trkpt lat="44.89845" lon="8.20585"><ele>125.5</ele><time>2026-04-12T07:08:10.063Z</time></trkpt><trkpt lat="44.89847" lon="8.2059733"><ele>125.66666666666666</ele><time>2026-04-12T07:08:14.063Z</time></trkpt><trkpt lat="44.898475" lon="8.206095"><ele>125.83333333333333</ele><time>2026-04-12T07:08:17.063Z</time></trkpt><trkpt lat="44.8984183" lon="8.2061867"><ele>126.0</ele><time>2026-04-12T07:08:19.062Z</time></trkpt><trkpt lat="44.8983533" lon="8.20628"><ele>125.6</ele><time>2026-04-12T07:08:21.064Z</time></trkpt><trkpt lat="44.8983133" lon="8.206395"><ele>125.19999999999999</ele><time>2026-04-12T07:08:23.062Z</time></trkpt><trkpt lat="44.8983267" lon="8.2064933"><ele>124.80000000000001</ele><time>2026-04-12T07:08:25.064Z</time></trkpt><trkpt lat="44.89835" lon="8.2066017"><ele>124.4</ele><time>2026-04-12T07:08:27.065Z</time></trkpt><trkpt lat="44.898355" lon="8.2067317"><ele>124.0</ele><time>2026-04-12T07:08:29.061Z</time></trkpt><trkpt lat="44.8984067" lon="8.20688"><ele>124.00000000000001</ele><time>2026-04-12T07:08:31.062Z</time></trkpt><trkpt lat="44.8984333" lon="8.2069617"><ele>124.0</ele><time>2026-04-12T07:08:32.062Z</time></trkpt><trkpt lat="44.8984583" lon="8.2070933"><ele>124.0</ele><time>2026-04-12T07:08:34.063Z</time></trkpt><trkpt lat="44.89849" lon="8.2071917"><ele>124.0</ele><time>2026-04-12T07:08:36.062Z</time></trkpt><trkpt lat="44.898525" lon="8.207295"><ele>124.00000000000001</ele><time>2026-04-12T07:08:38.062Z</time></trkpt><trkpt lat="44.8985733" lon="8.2074"><ele>124.0</ele><time>2026-04-12T07:08:40.061Z</time></trkpt><trkpt lat="44.898615" lon="8.2075"><ele>123.83333333333334</ele><time>2026-04-12T07:08:42.063Z</time></trkpt><trkpt lat="44.8986417" lon="8.207625"><ele>123.66666666666667</ele><time>2026-04-12T07:08:44.061Z</time></trkpt><trkpt lat="44.8986367" lon="8.20775"><ele>123.5</ele><time>2026-04-12T07:08:46.062Z</time></trkpt><trkpt lat="44.898595" lon="8.2078533"><ele>123.33333333333334</ele><time>2026-04-12T07:08:48.063Z</time></trkpt><trkpt lat="44.8985367" lon="8.2079167"><ele>123.16666666666667</ele><time>2026-04-12T07:08:50.063Z</time></trkpt><trkpt lat="44.89847" lon="8.20793"><ele>123.0</ele><time>2026-04-12T07:08:52.062Z</time></trkpt><trkpt lat="44.8983883" lon="8.2078333"><ele>123.0</ele><time>2026-04-12T07:08:54.062Z</time></trkpt><trkpt lat="44.8983283" lon="8.2077217"><ele>123.0</ele><time>2026-04-12T07:08:56.061Z</time></trkpt><trkpt lat="44.8982667" lon="8.2076183"><ele>123.0</ele><time>2026-04-12T07:08:58.061Z</time></trkpt><trkpt lat="44.8982133" lon="8.207515"><ele>123.0</ele><time>2026-04-12T07:09:00.063Z</time></trkpt><trkpt lat="44.8981667" lon="8.2074267"><ele>123.0</ele><time>2026-04-12T07:09:02.064Z</time></trkpt><trkpt lat="44.8981217" lon="8.2073383"><ele>123.0</ele><time>2026-04-12T07:09:04.063Z</time></trkpt><trkpt lat="44.89807" lon="8.2072483"><ele>123.0</ele><time>2026-04-12T07:09:06.064Z</time></trkpt><trkpt lat="44.8980183" lon="8.2071617"><ele>123.0</ele><time>2026-04-12T07:09:09.064Z</time></trkpt><trkpt lat="44.89796" lon="8.2070667"><ele>123.0</ele><time>2026-04-12T07:09:13.061Z</time></trkpt><trkpt lat="44.8979167" lon="8.2069983"><ele>123.0</ele><time>2026-04-12T07:09:15.063Z</time></trkpt><trkpt lat="44.8978733" lon="8.2069283"><ele>123.0</ele><time>2026-04-12T07:09:17.06Z</time></trkpt><trkpt lat="44.897825" lon="8.20685"><ele>123.0</ele><time>2026-04-12T07:09:19.064Z</time></trkpt><trkpt lat="44.89776" lon="8.20679"><ele>123.0</ele><time>2026-04-12T07:09:21.061Z</time></trkpt><trkpt lat="44.8976967" lon="8.2067283"><ele>123.0</ele><time>2026-04-12T07:09:24.062Z</time></trkpt><trkpt lat="44.897625" lon="8.2067283"><ele>123.0</ele><time>2026-04-12T07:09:27.062Z</time></trkpt><trkpt lat="44.89754" lon="8.2067833"><ele>123.0</ele><time>2026-04-12T07:09:30.062Z</time></trkpt><trkpt lat="44.8974683" lon="8.2068217"><ele>123.0</ele><time>2026-04-12T07:09:32.062Z</time></trkpt><trkpt lat="44.8973867" lon="8.2068933"><ele>123.0</ele><time>2026-04-12T07:09:34.062Z</time></trkpt><trkpt lat="44.8972933" lon="8.206955"><ele>122.60000000000001</ele><time>2026-04-12T07:09:36.062Z</time></trkpt><trkpt lat="44.89718" lon="8.2070133"><ele>122.20000000000002</ele><time>2026-04-12T07:09:38.062Z</time></trkpt><trkpt lat="44.8970733" lon="8.2070817"><ele>121.8</ele><time>2026-04-12T07:09:40.062Z</time></trkpt><trkpt lat="44.8969733" lon="8.207155"><ele>121.4</ele><time>2026-04-12T07:09:42.063Z</time></trkpt><trkpt lat="44.8969133" lon="8.207215"><ele>121.0</ele><time>2026-04-12T07:09:43.06Z</time></trkpt><trkpt lat="44.8968417" lon="8.2072767"><ele>121.00000000000001</ele><time>2026-04-12T07:09:44.061Z</time></trkpt><trkpt lat="44.896775" lon="8.20733"><ele>121.0</ele><time>2026-04-12T07:09:45.064Z</time></trkpt><trkpt lat="44.8967083" lon="8.2073733"><ele>121.0</ele><time>2026-04-12T07:09:46.063Z</time></trkpt><trkpt lat="44.8966333" lon="8.2074367"><ele>121.0</ele><time>2026-04-12T07:09:47.059Z</time></trkpt><trkpt lat="44.89656" lon="8.20748"><ele>121.00000000000001</ele><time>2026-04-12T07:09:48.062Z</time></trkpt><trkpt lat="44.8964733" lon="8.2075867"><ele>121.0</ele><time>2026-04-12T07:09:50.062Z</time></trkpt><trkpt lat="44.89643" lon="8.2076833"><ele>121.00000000000001</ele><time>2026-04-12T07:09:51.06Z</time></trkpt><trkpt lat="44.896405" lon="8.2077817"><ele>121.0</ele><time>2026-04-12T07:09:52.062Z</time></trkpt><trkpt lat="44.8963933" lon="8.20787"><ele>121.0</ele><time>2026-04-12T07:09:53.062Z</time></trkpt><trkpt lat="44.8963883" lon="8.20796"><ele>121.0</ele><time>2026-04-12T07:09:54.061Z</time></trkpt><trkpt lat="44.8963833" lon="8.2081467"><ele>121.00000000000001</ele><time>2026-04-12T07:09:56.063Z</time></trkpt><trkpt lat="44.8963983" lon="8.2082367"><ele>121.0</ele><time>2026-04-12T07:09:57.063Z</time></trkpt><trkpt lat="44.8964117" lon="8.2083267"><ele>120.33333333333334</ele><time>2026-04-12T07:09:58.06Z</time></trkpt><trkpt lat="44.896425" lon="8.2084167"><ele>119.66666666666667</ele><time>2026-04-12T07:09:59.062Z</time></trkpt><trkpt lat="44.89642" lon="8.208515"><ele>119.0</ele><time>2026-04-12T07:10:00.063Z</time></trkpt><trkpt lat="44.8964367" lon="8.2086933"><ele>118.33333333333334</ele><time>2026-04-12T07:10:02.062Z</time></trkpt><trkpt lat="44.89644" lon="8.2087833"><ele>117.66666666666667</ele><time>2026-04-12T07:10:03.061Z</time></trkpt><trkpt lat="44.8964467" lon="8.208875"><ele>117.0</ele><time>2026-04-12T07:10:04.062Z</time></trkpt><trkpt lat="44.8964517" lon="8.209035"><ele>117.0</ele><time>2026-04-12T07:10:06.063Z</time></trkpt><trkpt lat="44.89644" lon="8.2091967"><ele>116.99999999999999</ele><time>2026-04-12T07:10:08.061Z</time></trkpt><trkpt lat="44.8964183" lon="8.20934"><ele>116.99999999999999</ele><time>2026-04-12T07:10:10.062Z</time></trkpt><trkpt lat="44.8963133" lon="8.2094083"><ele>117.0</ele><time>2026-04-12T07:10:12.063Z</time></trkpt><trkpt lat="44.896225" lon="8.209435"><ele>117.0</ele><time>2026-04-12T07:10:14.063Z</time></trkpt><trkpt lat="44.8961467" lon="8.20946"><ele>117.0</ele><time>2026-04-12T07:10:16.062Z</time></trkpt><trkpt lat="44.8960633" lon="8.2094667"><ele>116.99999999999999</ele><time>2026-04-12T07:10:18.063Z</time></trkpt><trkpt lat="44.8959683" lon="8.2094767"><ele>116.99999999999999</ele><time>2026-04-12T07:10:20.064Z</time></trkpt><trkpt lat="44.8958683" lon="8.209495"><ele>117.0</ele><time>2026-04-12T07:10:22.063Z</time></trkpt><trkpt lat="44.895775" lon="8.2095317"><ele>117.0</ele><time>2026-04-12T07:10:24.062Z</time></trkpt><trkpt lat="44.8956833" lon="8.2095583"><ele>117.6</ele><time>2026-04-12T07:10:26.063Z</time></trkpt><trkpt lat="44.8955833" lon="8.2095833"><ele>118.19999999999999</ele><time>2026-04-12T07:10:28.062Z</time></trkpt><trkpt lat="44.895485" lon="8.2096083"><ele>118.8</ele><time>2026-04-12T07:10:30.062Z</time></trkpt><trkpt lat="44.8953767" lon="8.2096267"><ele>119.4</ele><time>2026-04-12T07:10:32.061Z</time></trkpt><trkpt lat="44.8952683" lon="8.2096517"><ele>120.0</ele><time>2026-04-12T07:10:34.062Z</time></trkpt><trkpt lat="44.8951583" lon="8.2096717"><ele>119.33333333333333</ele><time>2026-04-12T07:10:36.062Z</time></trkpt><trkpt lat="44.8950417" lon="8.209695"><ele>118.66666666666666</ele><time>2026-04-12T07:10:38.062Z</time></trkpt><trkpt lat="44.8949167" lon="8.2097233"><ele>118.0</ele><time>2026-04-12T07:10:40.06Z</time></trkpt><trkpt lat="44.8948517" lon="8.2097383"><ele>117.33333333333333</ele><time>2026-04-12T07:10:41.062Z</time></trkpt><trkpt lat="44.8947867" lon="8.2097533"><ele>116.66666666666666</ele><time>2026-04-12T07:10:42.06Z</time></trkpt><trkpt lat="44.8947167" lon="8.2097683"><ele>116.0</ele><time>2026-04-12T07:10:43.063Z</time></trkpt><trkpt lat="44.894645" lon="8.2097833"><ele>115.99999999999999</ele><time>2026-04-12T07:10:44.065Z</time></trkpt><trkpt lat="44.89457" lon="8.2098"><ele>116.0</ele><time>2026-04-12T07:10:45.064Z</time></trkpt><trkpt lat="44.8944933" lon="8.209815"><ele>116.0</ele><time>2026-04-12T07:10:46.063Z</time></trkpt><trkpt lat="44.8944133" lon="8.2098317"><ele>116.0</ele><time>2026-04-12T07:10:47.062Z</time></trkpt><trkpt lat="44.894335" lon="8.2098517"><ele>115.99999999999999</ele><time>2026-04-12T07:10:48.062Z</time></trkpt><trkpt lat="44.894255" lon="8.20987"><ele>116.0</ele><time>2026-04-12T07:10:49.059Z</time></trkpt><trkpt lat="44.89418" lon="8.20989"><ele>116.49999999999999</ele><time>2026-04-12T07:10:50.062Z</time></trkpt><trkpt lat="44.8941033" lon="8.2099083"><ele>117.0</ele><time>2026-04-12T07:10:51.063Z</time></trkpt><trkpt lat="44.8940267" lon="8.209925"><ele>117.5</ele><time>2026-04-12T07:10:52.061Z</time></trkpt><trkpt lat="44.8939483" lon="8.2099433"><ele>118.0</ele><time>2026-04-12T07:10:53.06Z</time></trkpt><trkpt lat="44.8938717" lon="8.2099567"><ele>118.49999999999999</ele><time>2026-04-12T07:10:54.061Z</time></trkpt><trkpt lat="44.8937933" lon="8.20997"><ele>119.0</ele><time>2026-04-12T07:10:55.063Z</time></trkpt><trkpt lat="44.8937167" lon="8.2099867"><ele>118.99999999999999</ele><time>2026-04-12T07:10:56.063Z</time></trkpt><trkpt lat="44.8936433" lon="8.2100067"><ele>119.0</ele><time>2026-04-12T07:10:57.063Z</time></trkpt><trkpt lat="44.8935683" lon="8.210025"><ele>119.0</ele><time>2026-04-12T07:10:58.062Z</time></trkpt><trkpt lat="44.893495" lon="8.2100433"><ele>119.0</ele><time>2026-04-12T07:10:59.062Z</time></trkpt><trkpt lat="44.8934167" lon="8.2100617"><ele>118.99999999999999</ele><time>2026-04-12T07:11:00.062Z</time></trkpt><trkpt lat="44.8933417" lon="8.2100767"><ele>119.0</ele><time>2026-04-12T07:11:01.061Z</time></trkpt><trkpt lat="44.8932683" lon="8.2100983"><ele>119.14285714285714</ele><time>2026-04-12T07:11:02.062Z</time></trkpt><trkpt lat="44.8931917" lon="8.210115"><ele>119.28571428571428</ele><time>2026-04-12T07:11:03.064Z</time></trkpt><trkpt lat="44.8931167" lon="8.21013"><ele>119.42857142857143</ele><time>2026-04-12T07:11:04.064Z</time></trkpt><trkpt lat="44.893045" lon="8.2101467"><ele>119.57142857142857</ele><time>2026-04-12T07:11:05.067Z</time></trkpt><trkpt lat="44.8929717" lon="8.21016"><ele>119.71428571428571</ele><time>2026-04-12T07:11:06.061Z</time></trkpt><trkpt lat="44.8929" lon="8.2101833"><ele>119.85714285714286</ele><time>2026-04-12T07:11:07.063Z</time></trkpt><trkpt lat="44.8928267" lon="8.210205"><ele>120.0</ele><time>2026-04-12T07:11:08.062Z</time></trkpt><trkpt lat="44.892755" lon="8.2102233"><ele>120.0</ele><time>2026-04-12T07:11:09.062Z</time></trkpt><trkpt lat="44.892685" lon="8.2102383"><ele>120.0</ele><time>2026-04-12T07:11:10.062Z</time></trkpt><trkpt lat="44.89262" lon="8.21025"><ele>120.0</ele><time>2026-04-12T07:11:11.062Z</time></trkpt><trkpt lat="44.8924967" lon="8.21027"><ele>120.0</ele><time>2026-04-12T07:11:13.062Z</time></trkpt><trkpt lat="44.892385" lon="8.210285"><ele>120.0</ele><time>2026-04-12T07:11:15.062Z</time></trkpt><trkpt lat="44.89232" lon="8.2102817"><ele>120.0</ele><time>2026-04-12T07:11:16.062Z</time></trkpt><trkpt lat="44.892255" lon="8.2102883"><ele>119.8</ele><time>2026-04-12T07:11:17.06Z</time></trkpt><trkpt lat="44.89215" lon="8.2103267"><ele>119.6</ele><time>2026-04-12T07:11:19.061Z</time></trkpt><trkpt lat="44.8920367" lon="8.2103867"><ele>119.4</ele><time>2026-04-12T07:11:21.064Z</time></trkpt><trkpt lat="44.8919567" lon="8.21041"><ele>119.2</ele><time>2026-04-12T07:11:22.061Z</time></trkpt><trkpt lat="44.891875" lon="8.21043"><ele>119.0</ele><time>2026-04-12T07:11:23.062Z</time></trkpt><trkpt lat="44.8918033" lon="8.2104467"><ele>118.66666666666666</ele><time>2026-04-12T07:11:24.062Z</time></trkpt><trkpt lat="44.89173" lon="8.2104667"><ele>118.33333333333333</ele><time>2026-04-12T07:11:25.063Z</time></trkpt><trkpt lat="44.8916533" lon="8.21048"><ele>118.0</ele><time>2026-04-12T07:11:26.062Z</time></trkpt><trkpt lat="44.89158" lon="8.210495"><ele>117.66666666666666</ele><time>2026-04-12T07:11:27.062Z</time></trkpt><trkpt lat="44.8915033" lon="8.21051"><ele>117.33333333333333</ele><time>2026-04-12T07:11:28.062Z</time></trkpt><trkpt lat="44.8914267" lon="8.2105267"><ele>117.0</ele><time>2026-04-12T07:11:29.059Z</time></trkpt><trkpt lat="44.8913517" lon="8.21055"><ele>117.0</ele><time>2026-04-12T07:11:30.06Z</time></trkpt><trkpt lat="44.891275" lon="8.21057"><ele>117.0</ele><time>2026-04-12T07:11:31.062Z</time></trkpt><trkpt lat="44.8911967" lon="8.210585"><ele>117.0</ele><time>2026-04-12T07:11:32.062Z</time></trkpt><trkpt lat="44.8911183" lon="8.2106017"><ele>117.0</ele><time>2026-04-12T07:11:33.064Z</time></trkpt><trkpt lat="44.89104" lon="8.2106183"><ele>117.0</ele><time>2026-04-12T07:11:34.063Z</time></trkpt><trkpt lat="44.8909633" lon="8.2106383"><ele>117.0</ele><time>2026-04-12T07:11:35.062Z</time></trkpt><trkpt lat="44.8908817" lon="8.2106567"><ele>117.33333333333333</ele><time>2026-04-12T07:11:36.063Z</time></trkpt><trkpt lat="44.8908" lon="8.210675"><ele>117.66666666666666</ele><time>2026-04-12T07:11:37.063Z</time></trkpt><trkpt lat="44.8907217" lon="8.2106917"><ele>118.0</ele><time>2026-04-12T07:11:38.063Z</time></trkpt><trkpt lat="44.8906433" lon="8.2107083"><ele>118.33333333333333</ele><time>2026-04-12T07:11:39.065Z</time></trkpt><trkpt lat="44.8905667" lon="8.2107233"><ele>118.66666666666666</ele><time>2026-04-12T07:11:40.064Z</time></trkpt><trkpt lat="44.8904883" lon="8.2107383"><ele>119.0</ele><time>2026-04-12T07:11:41.063Z</time></trkpt><trkpt lat="44.8904117" lon="8.210755"><ele>118.99999999999999</ele><time>2026-04-12T07:11:42.062Z</time></trkpt><trkpt lat="44.8903317" lon="8.2107717"><ele>119.0</ele><time>2026-04-12T07:11:43.064Z</time></trkpt><trkpt lat="44.8902533" lon="8.2107867"><ele>119.0</ele><time>2026-04-12T07:11:44.064Z</time></trkpt><trkpt lat="44.890175" lon="8.210805"><ele>119.0</ele><time>2026-04-12T07:11:45.063Z</time></trkpt><trkpt lat="44.8900983" lon="8.21082"><ele>118.99999999999999</ele><time>2026-04-12T07:11:46.063Z</time></trkpt><trkpt lat="44.8900233" lon="8.2108367"><ele>119.0</ele><time>2026-04-12T07:11:47.063Z</time></trkpt><trkpt lat="44.88995" lon="8.21085"><ele>118.71428571428572</ele><time>2026-04-12T07:11:48.063Z</time></trkpt><trkpt lat="44.8898767" lon="8.2108717"><ele>118.42857142857143</ele><time>2026-04-12T07:11:49.063Z</time></trkpt><trkpt lat="44.889805" lon="8.21089"><ele>118.14285714285714</ele><time>2026-04-12T07:11:50.062Z</time></trkpt><trkpt lat="44.8897317" lon="8.210905"><ele>117.85714285714286</ele><time>2026-04-12T07:11:51.062Z</time></trkpt><trkpt lat="44.88966" lon="8.2109233"><ele>117.57142857142858</ele><time>2026-04-12T07:11:52.061Z</time></trkpt><trkpt lat="44.8895917" lon="8.2109417"><ele>117.28571428571429</ele><time>2026-04-12T07:11:53.063Z</time></trkpt><trkpt lat="44.88952" lon="8.2109633"><ele>117.0</ele><time>2026-04-12T07:11:54.063Z</time></trkpt><trkpt lat="44.8894467" lon="8.21098"><ele>117.0</ele><time>2026-04-12T07:11:55.062Z</time></trkpt><trkpt lat="44.889375" lon="8.2109967"><ele>117.00000000000001</ele><time>2026-04-12T07:11:56.062Z</time></trkpt><trkpt lat="44.8893033" lon="8.2110117"><ele>117.0</ele><time>2026-04-12T07:11:57.064Z</time></trkpt><trkpt lat="44.889235" lon="8.211025"><ele>117.0</ele><time>2026-04-12T07:11:58.063Z</time></trkpt><trkpt lat="44.8891667" lon="8.21104"><ele>117.00000000000001</ele><time>2026-04-12T07:11:59.062Z</time></trkpt><trkpt lat="44.8890983" lon="8.2110567"><ele>117.0</ele><time>2026-04-12T07:12:00.063Z</time></trkpt><trkpt lat="44.8890283" lon="8.2110717"><ele>117.0</ele><time>2026-04-12T07:12:01.061Z</time></trkpt><trkpt lat="44.8889583" lon="8.2110867"><ele>117.0</ele><time>2026-04-12T07:12:02.063Z</time></trkpt><trkpt lat="44.8888933" lon="8.2111"><ele>117.00000000000001</ele><time>2026-04-12T07:12:03.063Z</time></trkpt><trkpt lat="44.88883" lon="8.21111"><ele>117.0</ele><time>2026-04-12T07:12:04.062Z</time></trkpt><trkpt lat="44.8887617" lon="8.2111283"><ele>117.0</ele><time>2026-04-12T07:12:05.062Z</time></trkpt><trkpt lat="44.888695" lon="8.211145"><ele>117.00000000000001</ele><time>2026-04-12T07:12:06.063Z</time></trkpt><trkpt lat="44.8886267" lon="8.2111633"><ele>117.0</ele><time>2026-04-12T07:12:07.063Z</time></trkpt><trkpt lat="44.8885567" lon="8.2111783"><ele>117.0</ele><time>2026-04-12T07:12:08.061Z</time></trkpt><trkpt lat="44.8884883" lon="8.2111967"><ele>117.33333333333333</ele><time>2026-04-12T07:12:09.063Z</time></trkpt><trkpt lat="44.8884183" lon="8.2112117"><ele>117.66666666666666</ele><time>2026-04-12T07:12:10.063Z</time></trkpt><trkpt lat="44.8883533" lon="8.211225"><ele>118.0</ele><time>2026-04-12T07:12:11.062Z</time></trkpt><trkpt lat="44.8882883" lon="8.21124"><ele>118.33333333333333</ele><time>2026-04-12T07:12:12.062Z</time></trkpt><trkpt lat="44.888225" lon="8.2112567"><ele>118.66666666666666</ele><time>2026-04-12T07:12:13.063Z</time></trkpt><trkpt lat="44.888105" lon="8.2112917"><ele>119.0</ele><time>2026-04-12T07:12:15.064Z</time></trkpt><trkpt lat="44.8880433" lon="8.2113117"><ele>119.0</ele><time>2026-04-12T07:12:16.063Z</time></trkpt><trkpt lat="44.8879233" lon="8.211345"><ele>119.0</ele><time>2026-04-12T07:12:18.063Z</time></trkpt><trkpt lat="44.8878017" lon="8.21138"><ele>119.0</ele><time>2026-04-12T07:12:20.062Z</time></trkpt><trkpt lat="44.8876783" lon="8.21141"><ele>119.0</ele><time>2026-04-12T07:12:22.063Z</time></trkpt><trkpt lat="44.887615" lon="8.211425"><ele>119.0</ele><time>2026-04-12T07:12:23.062Z</time></trkpt><trkpt lat="44.8874917" lon="8.2114533"><ele>118.25</ele><time>2026-04-12T07:12:25.061Z</time></trkpt><trkpt lat="44.8873717" lon="8.21149"><ele>117.5</ele><time>2026-04-12T07:12:27.062Z</time></trkpt><trkpt lat="44.8872533" lon="8.2115117"><ele>116.75</ele><time>2026-04-12T07:12:29.062Z</time></trkpt><trkpt lat="44.8871417" lon="8.2115383"><ele>116.0</ele><time>2026-04-12T07:12:31.063Z</time></trkpt><trkpt lat="44.8870267" lon="8.2115217"><ele>115.99999999999999</ele><time>2026-04-12T07:12:33.063Z</time></trkpt><trkpt lat="44.88693" lon="8.2114417"><ele>116.0</ele><time>2026-04-12T07:12:35.062Z</time></trkpt><trkpt lat="44.8868567" lon="8.21145"><ele>116.0</ele><time>2026-04-12T07:12:37.063Z</time></trkpt><trkpt lat="44.8868083" lon="8.2115217"><ele>116.0</ele><time>2026-04-12T07:12:39.065Z</time></trkpt><trkpt lat="44.8867483" lon="8.2115833"><ele>115.99999999999999</ele><time>2026-04-12T07:12:40.064Z</time></trkpt><trkpt lat="44.886685" lon="8.211635"><ele>116.0</ele><time>2026-04-12T07:12:41.063Z</time></trkpt><trkpt lat="44.8866133" lon="8.211675"><ele>115.85714285714288</ele><time>2026-04-12T07:12:42.063Z</time></trkpt><trkpt lat="44.8865367" lon="8.2117"><ele>115.71428571428572</ele><time>2026-04-12T07:12:43.062Z</time></trkpt><trkpt lat="44.8864617" lon="8.2117167"><ele>115.57142857142857</ele><time>2026-04-12T07:12:44.062Z</time></trkpt><trkpt lat="44.8863933" lon="8.2117367"><ele>115.42857142857143</ele><time>2026-04-12T07:12:45.061Z</time></trkpt><trkpt lat="44.886325" lon="8.211755"><ele>115.28571428571428</ele><time>2026-04-12T07:12:46.062Z</time></trkpt><trkpt lat="44.8862567" lon="8.2117733"><ele>115.14285714285712</ele><time>2026-04-12T07:12:47.061Z</time></trkpt><trkpt lat="44.8861883" lon="8.2117933"><ele>114.99999999999999</ele><time>2026-04-12T07:12:48.061Z</time></trkpt><trkpt lat="44.8861217" lon="8.2118133"><ele>114.99999999999999</ele><time>2026-04-12T07:12:49.061Z</time></trkpt><trkpt lat="44.886055" lon="8.2118333"><ele>115.0</ele><time>2026-04-12T07:12:50.064Z</time></trkpt><trkpt lat="44.8859917" lon="8.2118583"><ele>114.99999999999999</ele><time>2026-04-12T07:12:51.063Z</time></trkpt><trkpt lat="44.8859283" lon="8.2118833"><ele>114.99999999999999</ele><time>2026-04-12T07:12:52.062Z</time></trkpt><trkpt lat="44.885865" lon="8.211905"><ele>115.0</ele><time>2026-04-12T07:12:53.062Z</time></trkpt><trkpt lat="44.8857983" lon="8.2119233"><ele>114.99999999999999</ele><time>2026-04-12T07:12:54.062Z</time></trkpt><trkpt lat="44.88573" lon="8.2119383"><ele>114.99999999999999</ele><time>2026-04-12T07:12:55.062Z</time></trkpt><trkpt lat="44.885665" lon="8.21195"><ele>114.7142857142857</ele><time>2026-04-12T07:12:56.061Z</time></trkpt><trkpt lat="44.8855983" lon="8.21196"><ele>114.42857142857142</ele><time>2026-04-12T07:12:57.063Z</time></trkpt><trkpt lat="44.8855317" lon="8.2119717"><ele>114.14285714285714</ele><time>2026-04-12T07:12:58.06Z</time></trkpt><trkpt lat="44.885465" lon="8.2119833"><ele>113.85714285714285</ele><time>2026-04-12T07:12:59.06Z</time></trkpt><trkpt lat="44.8853983" lon="8.212"><ele>113.57142857142856</ele><time>2026-04-12T07:13:00.061Z</time></trkpt><trkpt lat="44.8853333" lon="8.2120183"><ele>113.28571428571429</ele><time>2026-04-12T07:13:01.063Z</time></trkpt><trkpt lat="44.8852633" lon="8.2120367"><ele>113.0</ele><time>2026-04-12T07:13:02.063Z</time></trkpt><trkpt lat="44.885195" lon="8.212055"><ele>113.0</ele><time>2026-04-12T07:13:03.063Z</time></trkpt><trkpt lat="44.885125" lon="8.2120717"><ele>113.0</ele><time>2026-04-12T07:13:04.063Z</time></trkpt><trkpt lat="44.8850567" lon="8.21209"><ele>113.0</ele><time>2026-04-12T07:13:05.061Z</time></trkpt><trkpt lat="44.8849883" lon="8.2121067"><ele>113.0</ele><time>2026-04-12T07:13:06.062Z</time></trkpt><trkpt lat="44.88492" lon="8.2121267"><ele>113.0</ele><time>2026-04-12T07:13:07.063Z</time></trkpt><trkpt lat="44.8848517" lon="8.2121433"><ele>113.0</ele><time>2026-04-12T07:13:08.062Z</time></trkpt><trkpt lat="44.884785" lon="8.2121567"><ele>113.0</ele><time>2026-04-12T07:13:09.062Z</time></trkpt><trkpt lat="44.8847167" lon="8.2121733"><ele>113.0</ele><time>2026-04-12T07:13:10.063Z</time></trkpt><trkpt lat="44.8846467" lon="8.2121917"><ele>113.0</ele><time>2026-04-12T07:13:11.062Z</time></trkpt><trkpt lat="44.8845783" lon="8.21221"><ele>113.0</ele><time>2026-04-12T07:13:12.063Z</time></trkpt><trkpt lat="44.88451" lon="8.2122333"><ele>113.0</ele><time>2026-04-12T07:13:13.064Z</time></trkpt><trkpt lat="44.8844433" lon="8.2122517"><ele>113.0</ele><time>2026-04-12T07:13:14.063Z</time></trkpt><trkpt lat="44.884375" lon="8.2122667"><ele>113.0</ele><time>2026-04-12T07:13:15.061Z</time></trkpt><trkpt lat="44.8843083" lon="8.212285"><ele>113.0</ele><time>2026-04-12T07:13:16.065Z</time></trkpt><trkpt lat="44.8842417" lon="8.21231"><ele>113.0</ele><time>2026-04-12T07:13:17.061Z</time></trkpt><trkpt lat="44.8841767" lon="8.2123367"><ele>113.0</ele><time>2026-04-12T07:13:18.063Z</time></trkpt><trkpt lat="44.8841083" lon="8.21236"><ele>113.0</ele><time>2026-04-12T07:13:19.062Z</time></trkpt><trkpt lat="44.8840383" lon="8.2123833"><ele>113.0</ele><time>2026-04-12T07:13:20.063Z</time></trkpt><trkpt lat="44.88397" lon="8.212405"><ele>113.0</ele><time>2026-04-12T07:13:21.063Z</time></trkpt><trkpt lat="44.8838967" lon="8.21242"><ele>113.0</ele><time>2026-04-12T07:13:22.062Z</time></trkpt><trkpt lat="44.8838283" lon="8.2124367"><ele>113.0</ele><time>2026-04-12T07:13:23.062Z</time></trkpt><trkpt lat="44.8837617" lon="8.212455"><ele>112.99999999999999</ele><time>2026-04-12T07:13:24.063Z</time></trkpt><trkpt lat="44.8836933" lon="8.2124667"><ele>113.0</ele><time>2026-04-12T07:13:25.062Z</time></trkpt><trkpt lat="44.883625" lon="8.2124967"><ele>113.0</ele><time>2026-04-12T07:13:26.062Z</time></trkpt><trkpt lat="44.88356" lon="8.2125483"><ele>113.0</ele><time>2026-04-12T07:13:27.063Z</time></trkpt><trkpt lat="44.8835167" lon="8.2126383"><ele>112.99999999999999</ele><time>2026-04-12T07:13:28.063Z</time></trkpt><trkpt lat="44.8834883" lon="8.21275"><ele>113.0</ele><time>2026-04-12T07:13:29.062Z</time></trkpt><trkpt lat="44.8834767" lon="8.2128717"><ele>112.99999999999999</ele><time>2026-04-12T07:13:30.063Z</time></trkpt><trkpt lat="44.8834783" lon="8.2129983"><ele>113.0</ele><time>2026-04-12T07:13:31.063Z</time></trkpt><trkpt lat="44.8834883" lon="8.2131267"><ele>113.0</ele><time>2026-04-12T07:13:32.062Z</time></trkpt><trkpt lat="44.883495" lon="8.2132517"><ele>113.0</ele><time>2026-04-12T07:13:33.063Z</time></trkpt><trkpt lat="44.8834967" lon="8.2133733"><ele>112.99999999999999</ele><time>2026-04-12T07:13:34.061Z</time></trkpt><trkpt lat="44.8834933" lon="8.2134983"><ele>113.0</ele><time>2026-04-12T07:13:35.061Z</time></trkpt><trkpt lat="44.8834817" lon="8.2136183"><ele>113.16666666666666</ele><time>2026-04-12T07:13:36.061Z</time></trkpt><trkpt lat="44.883465" lon="8.213735"><ele>113.33333333333333</ele><time>2026-04-12T07:13:37.063Z</time></trkpt><trkpt lat="44.8834517" lon="8.2138517"><ele>113.5</ele><time>2026-04-12T07:13:38.064Z</time></trkpt><trkpt lat="44.8834417" lon="8.2139683"><ele>113.66666666666666</ele><time>2026-04-12T07:13:39.063Z</time></trkpt><trkpt lat="44.8834383" lon="8.214085"><ele>113.83333333333333</ele><time>2026-04-12T07:13:40.062Z</time></trkpt><trkpt lat="44.8834433" lon="8.214205"><ele>114.0</ele><time>2026-04-12T07:13:41.062Z</time></trkpt><trkpt lat="44.88345" lon="8.2143167"><ele>114.0</ele><time>2026-04-12T07:13:42.063Z</time></trkpt><trkpt lat="44.88346" lon="8.2144283"><ele>114.0</ele><time>2026-04-12T07:13:43.064Z</time></trkpt><trkpt lat="44.883475" lon="8.2145383"><ele>114.0</ele><time>2026-04-12T07:13:44.064Z</time></trkpt><trkpt lat="44.8834867" lon="8.21465"><ele>114.0</ele><time>2026-04-12T07:13:45.063Z</time></trkpt><trkpt lat="44.8834967" lon="8.21476"><ele>114.0</ele><time>2026-04-12T07:13:46.063Z</time></trkpt><trkpt lat="44.8835067" lon="8.2148733"><ele>114.0</ele><time>2026-04-12T07:13:47.063Z</time></trkpt><trkpt lat="44.883515" lon="8.214985"><ele>113.83333333333333</ele><time>2026-04-12T07:13:48.062Z</time></trkpt><trkpt lat="44.8835183" lon="8.215095"><ele>113.66666666666666</ele><time>2026-04-12T07:13:49.063Z</time></trkpt><trkpt lat="44.88351" lon="8.2152033"><ele>113.5</ele><time>2026-04-12T07:13:50.061Z</time></trkpt><trkpt lat="44.8834933" lon="8.215305"><ele>113.33333333333333</ele><time>2026-04-12T07:13:51.063Z</time></trkpt><trkpt lat="44.8834717" lon="8.2154083"><ele>113.16666666666666</ele><time>2026-04-12T07:13:52.062Z</time></trkpt><trkpt lat="44.88345" lon="8.2155117"><ele>113.0</ele><time>2026-04-12T07:13:53.062Z</time></trkpt><trkpt lat="44.883435" lon="8.2156183"><ele>113.33333333333333</ele><time>2026-04-12T07:13:54.062Z</time></trkpt><trkpt lat="44.8834183" lon="8.2157267"><ele>113.66666666666666</ele><time>2026-04-12T07:13:55.062Z</time></trkpt><trkpt lat="44.883405" lon="8.215835"><ele>114.0</ele><time>2026-04-12T07:13:56.062Z</time></trkpt><trkpt lat="44.8833917" lon="8.2159417"><ele>114.33333333333334</ele><time>2026-04-12T07:13:57.064Z</time></trkpt><trkpt lat="44.883385" lon="8.21605"><ele>114.66666666666667</ele><time>2026-04-12T07:13:58.062Z</time></trkpt><trkpt lat="44.8833817" lon="8.2161583"><ele>115.0</ele><time>2026-04-12T07:13:59.062Z</time></trkpt><trkpt lat="44.8833783" lon="8.21627"><ele>115.00000000000001</ele><time>2026-04-12T07:14:00.063Z</time></trkpt><trkpt lat="44.8833733" lon="8.2163783"><ele>115.0</ele><time>2026-04-12T07:14:01.061Z</time></trkpt><trkpt lat="44.883365" lon="8.216485"><ele>115.0</ele><time>2026-04-12T07:14:02.063Z</time></trkpt><trkpt lat="44.8833533" lon="8.21659"><ele>115.0</ele><time>2026-04-12T07:14:03.062Z</time></trkpt><trkpt lat="44.883335" lon="8.216695"><ele>115.00000000000001</ele><time>2026-04-12T07:14:04.063Z</time></trkpt><trkpt lat="44.8833117" lon="8.2167983"><ele>115.0</ele><time>2026-04-12T07:14:05.062Z</time></trkpt><trkpt lat="44.8832833" lon="8.2169"><ele>115.00000000000001</ele><time>2026-04-12T07:14:06.063Z</time></trkpt><trkpt lat="44.88325" lon="8.2169967"><ele>115.0</ele><time>2026-04-12T07:14:07.063Z</time></trkpt><trkpt lat="44.8832167" lon="8.2170933"><ele>115.0</ele><time>2026-04-12T07:14:08.063Z</time></trkpt><trkpt lat="44.8831817" lon="8.2171867"><ele>115.0</ele><time>2026-04-12T07:14:09.063Z</time></trkpt><trkpt lat="44.8831417" lon="8.2172817"><ele>115.00000000000001</ele><time>2026-04-12T07:14:10.064Z</time></trkpt><trkpt lat="44.883105" lon="8.217375"><ele>115.0</ele><time>2026-04-12T07:14:11.063Z</time></trkpt><trkpt lat="44.8830667" lon="8.2174683"><ele>114.83333333333334</ele><time>2026-04-12T07:14:12.063Z</time></trkpt><trkpt lat="44.8830317" lon="8.217565"><ele>114.66666666666667</ele><time>2026-04-12T07:14:13.064Z</time></trkpt><trkpt lat="44.883" lon="8.217665"><ele>114.5</ele><time>2026-04-12T07:14:14.063Z</time></trkpt><trkpt lat="44.8829667" lon="8.2177633"><ele>114.33333333333334</ele><time>2026-04-12T07:14:15.065Z</time></trkpt><trkpt lat="44.882935" lon="8.2178617"><ele>114.16666666666667</ele><time>2026-04-12T07:14:16.062Z</time></trkpt><trkpt lat="44.8829067" lon="8.2179617"><ele>114.0</ele><time>2026-04-12T07:14:17.062Z</time></trkpt><trkpt lat="44.8828783" lon="8.2180617"><ele>114.16666666666667</ele><time>2026-04-12T07:14:18.063Z</time></trkpt><trkpt lat="44.8828483" lon="8.2181617"><ele>114.33333333333334</ele><time>2026-04-12T07:14:19.063Z</time></trkpt><trkpt lat="44.8828167" lon="8.218265"><ele>114.5</ele><time>2026-04-12T07:14:20.063Z</time></trkpt><trkpt lat="44.8827883" lon="8.21837"><ele>114.66666666666667</ele><time>2026-04-12T07:14:21.061Z</time></trkpt><trkpt lat="44.8827633" lon="8.218475"><ele>114.83333333333334</ele><time>2026-04-12T07:14:22.063Z</time></trkpt><trkpt lat="44.88274" lon="8.21858"><ele>115.0</ele><time>2026-04-12T07:14:23.061Z</time></trkpt><trkpt lat="44.8827133" lon="8.218685"><ele>115.00000000000001</ele><time>2026-04-12T07:14:24.062Z</time></trkpt><trkpt lat="44.8826867" lon="8.21879"><ele>115.0</ele><time>2026-04-12T07:14:25.063Z</time></trkpt><trkpt lat="44.8826617" lon="8.2188917"><ele>115.0</ele><time>2026-04-12T07:14:26.063Z</time></trkpt><trkpt lat="44.882635" lon="8.2189983"><ele>115.0</ele><time>2026-04-12T07:14:27.062Z</time></trkpt><trkpt lat="44.8826083" lon="8.2191017"><ele>115.00000000000001</ele><time>2026-04-12T07:14:28.062Z</time></trkpt><trkpt lat="44.8825817" lon="8.2192067"><ele>115.0</ele><time>2026-04-12T07:14:29.062Z</time></trkpt><trkpt lat="44.8825517" lon="8.21931"><ele>115.50000000000001</ele><time>2026-04-12T07:14:30.062Z</time></trkpt><trkpt lat="44.8825133" lon="8.2194117"><ele>116.0</ele><time>2026-04-12T07:14:31.062Z</time></trkpt><trkpt lat="44.8824783" lon="8.2195117"><ele>116.5</ele><time>2026-04-12T07:14:32.064Z</time></trkpt><trkpt lat="44.8824467" lon="8.2196133"><ele>117.0</ele><time>2026-04-12T07:14:33.063Z</time></trkpt><trkpt lat="44.882415" lon="8.2197133"><ele>117.50000000000001</ele><time>2026-04-12T07:14:34.062Z</time></trkpt><trkpt lat="44.8823833" lon="8.2198167"><ele>118.0</ele><time>2026-04-12T07:14:35.063Z</time></trkpt><trkpt lat="44.88235" lon="8.2199167"><ele>118.00000000000001</ele><time>2026-04-12T07:14:36.065Z</time></trkpt><trkpt lat="44.88232" lon="8.2200217"><ele>118.0</ele><time>2026-04-12T07:14:37.063Z</time></trkpt><trkpt lat="44.8823" lon="8.2201317"><ele>118.0</ele><time>2026-04-12T07:14:38.062Z</time></trkpt><trkpt lat="44.8822867" lon="8.2202433"><ele>118.0</ele><time>2026-04-12T07:14:39.063Z</time></trkpt><trkpt lat="44.8822783" lon="8.220355"><ele>118.00000000000001</ele><time>2026-04-12T07:14:40.062Z</time></trkpt><trkpt lat="44.8822683" lon="8.2204667"><ele>118.0</ele><time>2026-04-12T07:14:41.062Z</time></trkpt><trkpt lat="44.8822617" lon="8.2205817"><ele>118.00000000000001</ele><time>2026-04-12T07:14:42.064Z</time></trkpt><trkpt lat="44.8822567" lon="8.220695"><ele>118.0</ele><time>2026-04-12T07:14:43.062Z</time></trkpt><trkpt lat="44.882255" lon="8.2208067"><ele>118.0</ele><time>2026-04-12T07:14:44.063Z</time></trkpt><trkpt lat="44.8822533" lon="8.2209167"><ele>118.0</ele><time>2026-04-12T07:14:45.062Z</time></trkpt><trkpt lat="44.8822517" lon="8.2210267"><ele>118.00000000000001</ele><time>2026-04-12T07:14:46.061Z</time></trkpt><trkpt lat="44.88225" lon="8.221135"><ele>118.0</ele><time>2026-04-12T07:14:47.061Z</time></trkpt><trkpt lat="44.882245" lon="8.221245"><ele>118.00000000000001</ele><time>2026-04-12T07:14:48.062Z</time></trkpt><trkpt lat="44.8822383" lon="8.2213517"><ele>118.0</ele><time>2026-04-12T07:14:49.062Z</time></trkpt><trkpt lat="44.8822367" lon="8.2214567"><ele>118.0</ele><time>2026-04-12T07:14:50.063Z</time></trkpt><trkpt lat="44.88223" lon="8.221565"><ele>118.0</ele><time>2026-04-12T07:14:51.062Z</time></trkpt><trkpt lat="44.8822233" lon="8.2216733"><ele>118.00000000000001</ele><time>2026-04-12T07:14:52.062Z</time></trkpt><trkpt lat="44.8822183" lon="8.22178"><ele>118.0</ele><time>2026-04-12T07:14:53.06Z</time></trkpt><trkpt lat="44.8822133" lon="8.2218883"><ele>117.85714285714286</ele><time>2026-04-12T07:14:54.06Z</time></trkpt><trkpt lat="44.8822067" lon="8.2219933"><ele>117.71428571428572</ele><time>2026-04-12T07:14:55.063Z</time></trkpt><trkpt lat="44.8822" lon="8.2220933"><ele>117.57142857142858</ele><time>2026-04-12T07:14:56.062Z</time></trkpt><trkpt lat="44.8821933" lon="8.2221933"><ele>117.42857142857143</ele><time>2026-04-12T07:14:57.063Z</time></trkpt><trkpt lat="44.8821867" lon="8.2222933"><ele>117.2857142857143</ele><time>2026-04-12T07:14:58.065Z</time></trkpt><trkpt lat="44.88218" lon="8.2223933"><ele>117.14285714285715</ele><time>2026-04-12T07:14:59.062Z</time></trkpt><trkpt lat="44.8821867" lon="8.2224933"><ele>117.0</ele><time>2026-04-12T07:15:00.061Z</time></trkpt><trkpt lat="44.8822083" lon="8.22258"><ele>116.8</ele><time>2026-04-12T07:15:01.063Z</time></trkpt><trkpt lat="44.88232" lon="8.2226717"><ele>116.6</ele><time>2026-04-12T07:15:03.064Z</time></trkpt><trkpt lat="44.882385" lon="8.2226733"><ele>116.39999999999999</ele><time>2026-04-12T07:15:04.062Z</time></trkpt><trkpt lat="44.8825017" lon="8.2227167"><ele>116.19999999999999</ele><time>2026-04-12T07:15:06.063Z</time></trkpt><trkpt lat="44.8825483" lon="8.2228533"><ele>116.0</ele><time>2026-04-12T07:15:08.062Z</time></trkpt><trkpt lat="44.88254" lon="8.2229433"><ele>116.00000000000001</ele><time>2026-04-12T07:15:09.063Z</time></trkpt><trkpt lat="44.8825233" lon="8.2230383"><ele>116.0</ele><time>2026-04-12T07:15:10.061Z</time></trkpt><trkpt lat="44.8825083" lon="8.2231267"><ele>116.00000000000001</ele><time>2026-04-12T07:15:11.062Z</time></trkpt><trkpt lat="44.882495" lon="8.2232167"><ele>116.00000000000001</ele><time>2026-04-12T07:15:12.062Z</time></trkpt><trkpt lat="44.882485" lon="8.2233083"><ele>116.0</ele><time>2026-04-12T07:15:13.064Z</time></trkpt><trkpt lat="44.882475" lon="8.2234033"><ele>116.00000000000001</ele><time>2026-04-12T07:15:14.062Z</time></trkpt><trkpt lat="44.882465" lon="8.2234967"><ele>116.00000000000001</ele><time>2026-04-12T07:15:15.064Z</time></trkpt><trkpt lat="44.8824533" lon="8.2235867"><ele>115.99999999999999</ele><time>2026-04-12T07:15:16.064Z</time></trkpt><trkpt lat="44.8824383" lon="8.2236783"><ele>116.0</ele><time>2026-04-12T07:15:17.062Z</time></trkpt><trkpt lat="44.88242" lon="8.2237667"><ele>116.0</ele><time>2026-04-12T07:15:18.063Z</time></trkpt><trkpt lat="44.8824017" lon="8.2238533"><ele>116.0</ele><time>2026-04-12T07:15:19.063Z</time></trkpt><trkpt lat="44.8823517" lon="8.2240167"><ele>115.99999999999999</ele><time>2026-04-12T07:15:21.063Z</time></trkpt><trkpt lat="44.8822933" lon="8.2241667"><ele>116.0</ele><time>2026-04-12T07:15:23.063Z</time></trkpt><trkpt lat="44.8822183" lon="8.2242867"><ele>116.0</ele><time>2026-04-12T07:15:25.062Z</time></trkpt><trkpt lat="44.8821433" lon="8.224395"><ele>116.0</ele><time>2026-04-12T07:15:27.065Z</time></trkpt><trkpt lat="44.8820767" lon="8.2245167"><ele>116.0</ele><time>2026-04-12T07:15:29.062Z</time></trkpt><trkpt lat="44.88202" lon="8.224645"><ele>116.0</ele><time>2026-04-12T07:15:31.063Z</time></trkpt><trkpt lat="44.8819567" lon="8.2247767"><ele>116.0</ele><time>2026-04-12T07:15:33.063Z</time></trkpt><trkpt lat="44.8818883" lon="8.224905"><ele>116.25</ele><time>2026-04-12T07:15:35.063Z</time></trkpt><trkpt lat="44.8818133" lon="8.22503"><ele>116.5</ele><time>2026-04-12T07:15:37.063Z</time></trkpt><trkpt lat="44.8817417" lon="8.2251567"><ele>116.75</ele><time>2026-04-12T07:15:39.062Z</time></trkpt><trkpt lat="44.8816683" lon="8.22528"><ele>117.0</ele><time>2026-04-12T07:15:41.062Z</time></trkpt><trkpt lat="44.8815933" lon="8.225405"><ele>117.0</ele><time>2026-04-12T07:15:43.065Z</time></trkpt><trkpt lat="44.8815217" lon="8.2255333"><ele>117.0</ele><time>2026-04-12T07:15:45.062Z</time></trkpt><trkpt lat="44.88145" lon="8.2256633"><ele>117.0</ele><time>2026-04-12T07:15:47.063Z</time></trkpt><trkpt lat="44.881375" lon="8.2257917"><ele>117.0</ele><time>2026-04-12T07:15:49.063Z</time></trkpt><trkpt lat="44.8813033" lon="8.2259167"><ele>117.0</ele><time>2026-04-12T07:15:51.063Z</time></trkpt><trkpt lat="44.8812417" lon="8.2260567"><ele>117.0</ele><time>2026-04-12T07:15:53.062Z</time></trkpt><trkpt lat="44.8812" lon="8.2262067"><ele>117.0</ele><time>2026-04-12T07:15:55.063Z</time></trkpt><trkpt lat="44.8811717" lon="8.226365"><ele>117.0</ele><time>2026-04-12T07:15:57.063Z</time></trkpt><trkpt lat="44.8811617" lon="8.2265283"><ele>117.19999999999999</ele><time>2026-04-12T07:15:59.061Z</time></trkpt><trkpt lat="44.8811567" lon="8.2267"><ele>117.39999999999999</ele><time>2026-04-12T07:16:01.061Z</time></trkpt><trkpt lat="44.8811517" lon="8.226875"><ele>117.60000000000001</ele><time>2026-04-12T07:16:03.063Z</time></trkpt><trkpt lat="44.8811433" lon="8.2270533"><ele>117.80000000000001</ele><time>2026-04-12T07:16:05.062Z</time></trkpt><trkpt lat="44.8811383" lon="8.2271467"><ele>118.0</ele><time>2026-04-12T07:16:06.063Z</time></trkpt><trkpt lat="44.8811333" lon="8.2272383"><ele>117.85714285714286</ele><time>2026-04-12T07:16:07.062Z</time></trkpt><trkpt lat="44.8811317" lon="8.2273317"><ele>117.71428571428572</ele><time>2026-04-12T07:16:08.064Z</time></trkpt><trkpt lat="44.88113" lon="8.227425"><ele>117.57142857142858</ele><time>2026-04-12T07:16:09.064Z</time></trkpt><trkpt lat="44.881125" lon="8.22752"><ele>117.42857142857143</ele><time>2026-04-12T07:16:10.062Z</time></trkpt><trkpt lat="44.8811217" lon="8.227615"><ele>117.2857142857143</ele><time>2026-04-12T07:16:11.062Z</time></trkpt><trkpt lat="44.8811183" lon="8.2277133"><ele>117.14285714285715</ele><time>2026-04-12T07:16:12.064Z</time></trkpt><trkpt lat="44.8811133" lon="8.2278083"><ele>117.0</ele><time>2026-04-12T07:16:13.063Z</time></trkpt><trkpt lat="44.8811117" lon="8.2279067"><ele>117.0</ele><time>2026-04-12T07:16:14.063Z</time></trkpt><trkpt lat="44.8811067" lon="8.2280017"><ele>117.00000000000001</ele><time>2026-04-12T07:16:15.062Z</time></trkpt><trkpt lat="44.8811017" lon="8.2280983"><ele>117.0</ele><time>2026-04-12T07:16:16.062Z</time></trkpt><trkpt lat="44.8811" lon="8.228195"><ele>117.0</ele><time>2026-04-12T07:16:17.063Z</time></trkpt><trkpt lat="44.8811" lon="8.2282867"><ele>117.00000000000001</ele><time>2026-04-12T07:16:18.061Z</time></trkpt><trkpt lat="44.8811067" lon="8.2283767"><ele>117.0</ele><time>2026-04-12T07:16:19.061Z</time></trkpt><trkpt lat="44.8811183" lon="8.2284667"><ele>117.0</ele><time>2026-04-12T07:16:20.065Z</time></trkpt><trkpt lat="44.881135" lon="8.2285583"><ele>117.0</ele><time>2026-04-12T07:16:21.064Z</time></trkpt><trkpt lat="44.8811583" lon="8.2286467"><ele>117.0</ele><time>2026-04-12T07:16:22.062Z</time></trkpt><trkpt lat="44.8811783" lon="8.228735"><ele>117.0</ele><time>2026-04-12T07:16:23.062Z</time></trkpt><trkpt lat="44.8811967" lon="8.22882"><ele>117.0</ele><time>2026-04-12T07:16:24.065Z</time></trkpt><trkpt lat="44.881205" lon="8.2289917"><ele>117.0</ele><time>2026-04-12T07:16:26.064Z</time></trkpt><trkpt lat="44.8811583" lon="8.2291117"><ele>117.0</ele><time>2026-04-12T07:16:28.062Z</time></trkpt><trkpt lat="44.8810933" lon="8.229185"><ele>117.19999999999999</ele><time>2026-04-12T07:16:30.063Z</time></trkpt><trkpt lat="44.8810133" lon="8.2292233"><ele>117.39999999999999</ele><time>2026-04-12T07:16:32.063Z</time></trkpt><trkpt lat="44.8809483" lon="8.2292233"><ele>117.60000000000001</ele><time>2026-04-12T07:16:33.062Z</time></trkpt><trkpt lat="44.88083" lon="8.2292317"><ele>117.80000000000001</ele><time>2026-04-12T07:16:35.061Z</time></trkpt><trkpt lat="44.8807217" lon="8.2292417"><ele>118.0</ele><time>2026-04-12T07:16:37.062Z</time></trkpt><trkpt lat="44.8806017" lon="8.22924"><ele>118.2</ele><time>2026-04-12T07:16:39.062Z</time></trkpt><trkpt lat="44.8804783" lon="8.2292417"><ele>118.4</ele><time>2026-04-12T07:16:41.062Z</time></trkpt><trkpt lat="44.8803583" lon="8.2292533"><ele>118.60000000000001</ele><time>2026-04-12T07:16:43.065Z</time></trkpt><trkpt lat="44.880295" lon="8.22926"><ele>118.80000000000001</ele><time>2026-04-12T07:16:44.061Z</time></trkpt><trkpt lat="44.8801717" lon="8.2292683"><ele>119.0</ele><time>2026-04-12T07:16:46.062Z</time></trkpt><trkpt lat="44.8801083" lon="8.2292717"><ele>118.75</ele><time>2026-04-12T07:16:47.066Z</time></trkpt><trkpt lat="44.87999" lon="8.22928"><ele>118.5</ele><time>2026-04-12T07:16:49.063Z</time></trkpt><trkpt lat="44.8798717" lon="8.22929"><ele>118.25</ele><time>2026-04-12T07:16:51.063Z</time></trkpt><trkpt lat="44.87975" lon="8.229305"><ele>118.0</ele><time>2026-04-12T07:16:53.064Z</time></trkpt><trkpt lat="44.87963" lon="8.2293183"><ele>118.0</ele><time>2026-04-12T07:16:55.062Z</time></trkpt><trkpt lat="44.87951" lon="8.2293317"><ele>118.00000000000001</ele><time>2026-04-12T07:16:57.063Z</time></trkpt><trkpt lat="44.8794467" lon="8.2293367"><ele>118.00000000000001</ele><time>2026-04-12T07:16:58.063Z</time></trkpt><trkpt lat="44.8793233" lon="8.2293483"><ele>118.0</ele><time>2026-04-12T07:17:00.062Z</time></trkpt><trkpt lat="44.8792033" lon="8.229355"><ele>118.0</ele><time>2026-04-12T07:17:02.063Z</time></trkpt><trkpt lat="44.8790833" lon="8.2293617"><ele>118.4</ele><time>2026-04-12T07:17:04.061Z</time></trkpt><trkpt lat="44.8789617" lon="8.2293667"><ele>118.80000000000001</ele><time>2026-04-12T07:17:06.059Z</time></trkpt><trkpt lat="44.8788983" lon="8.2293717"><ele>119.2</ele><time>2026-04-12T07:17:07.062Z</time></trkpt><trkpt lat="44.87878" lon="8.2293833"><ele>119.6</ele><time>2026-04-12T07:17:09.062Z</time></trkpt><trkpt lat="44.8786567" lon="8.2293983"><ele>120.0</ele><time>2026-04-12T07:17:11.061Z</time></trkpt><trkpt lat="44.8785333" lon="8.2294133"><ele>120.2</ele><time>2026-04-12T07:17:13.062Z</time></trkpt><trkpt lat="44.8784083" lon="8.22943"><ele>120.4</ele><time>2026-04-12T07:17:15.063Z</time></trkpt><trkpt lat="44.878345" lon="8.2294367"><ele>120.6</ele><time>2026-04-12T07:17:16.062Z</time></trkpt><trkpt lat="44.8782233" lon="8.2294467"><ele>120.8</ele><time>2026-04-12T07:17:18.061Z</time></trkpt><trkpt lat="44.8781017" lon="8.2294617"><ele>121.0</ele><time>2026-04-12T07:17:20.063Z</time></trkpt><trkpt lat="44.8779817" lon="8.229475"><ele>121.0</ele><time>2026-04-12T07:17:22.063Z</time></trkpt><trkpt lat="44.8778633" lon="8.2295017"><ele>121.0</ele><time>2026-04-12T07:17:24.061Z</time></trkpt><trkpt lat="44.87775" lon="8.22952"><ele>121.0</ele><time>2026-04-12T07:17:26.062Z</time></trkpt><trkpt lat="44.8776383" lon="8.229535"><ele>121.0</ele><time>2026-04-12T07:17:28.063Z</time></trkpt><trkpt lat="44.8775383" lon="8.2295583"><ele>121.0</ele><time>2026-04-12T07:17:30.063Z</time></trkpt><trkpt lat="44.87747" lon="8.2296583"><ele>121.6</ele><time>2026-04-12T07:17:32.062Z</time></trkpt><trkpt lat="44.877415" lon="8.22979"><ele>122.19999999999999</ele><time>2026-04-12T07:17:34.062Z</time></trkpt><trkpt lat="44.8773317" lon="8.2299017"><ele>122.80000000000001</ele><time>2026-04-12T07:17:36.062Z</time></trkpt><trkpt lat="44.8772483" lon="8.23003"><ele>123.4</ele><time>2026-04-12T07:17:38.062Z</time></trkpt><trkpt lat="44.8772067" lon="8.2301"><ele>124.0</ele><time>2026-04-12T07:17:39.061Z</time></trkpt><trkpt lat="44.8771367" lon="8.230235"><ele>124.00000000000001</ele><time>2026-04-12T07:17:41.061Z</time></trkpt><trkpt lat="44.87709" lon="8.2303433"><ele>124.0</ele><time>2026-04-12T07:17:43.064Z</time></trkpt><trkpt lat="44.8770883" lon="8.2304417"><ele>124.0</ele><time>2026-04-12T07:17:46.062Z</time></trkpt><trkpt lat="44.8770317" lon="8.2305083"><ele>124.0</ele><time>2026-04-12T07:17:49.061Z</time></trkpt><trkpt lat="44.8769967" lon="8.2305867"><ele>124.00000000000001</ele><time>2026-04-12T07:17:51.063Z</time></trkpt><trkpt lat="44.876965" lon="8.230715"><ele>124.0</ele><time>2026-04-12T07:17:53.061Z</time></trkpt><trkpt lat="44.8769317" lon="8.230865"><ele>124.5</ele><time>2026-04-12T07:17:55.066Z</time></trkpt><trkpt lat="44.876885" lon="8.2310117"><ele>125.0</ele><time>2026-04-12T07:17:57.063Z</time></trkpt><trkpt lat="44.8768233" lon="8.2311583"><ele>125.5</ele><time>2026-04-12T07:17:59.061Z</time></trkpt><trkpt lat="44.8767617" lon="8.2313017"><ele>126.0</ele><time>2026-04-12T07:18:01.062Z</time></trkpt><trkpt lat="44.8766983" lon="8.2314417"><ele>126.0</ele><time>2026-04-12T07:18:03.063Z</time></trkpt><trkpt lat="44.8766367" lon="8.2315817"><ele>126.0</ele><time>2026-04-12T07:18:05.061Z</time></trkpt><trkpt lat="44.87658" lon="8.2317217"><ele>126.0</ele><time>2026-04-12T07:18:07.061Z</time></trkpt><trkpt lat="44.8765283" lon="8.23185"><ele>126.0</ele><time>2026-04-12T07:18:09.062Z</time></trkpt><trkpt lat="44.8764517" lon="8.23192"><ele>126.0</ele><time>2026-04-12T07:18:11.059Z</time></trkpt><trkpt lat="44.87634" lon="8.231915"><ele>126.0</ele><time>2026-04-12T07:18:13.063Z</time></trkpt><trkpt lat="44.8762233" lon="8.2318967"><ele>126.0</ele><time>2026-04-12T07:18:15.062Z</time></trkpt><trkpt lat="44.8761583" lon="8.2318867"><ele>126.0</ele><time>2026-04-12T07:18:16.061Z</time></trkpt><trkpt lat="44.876095" lon="8.2318833"><ele>126.0</ele><time>2026-04-12T07:18:17.061Z</time></trkpt><trkpt lat="44.87603" lon="8.2318817"><ele>126.0</ele><time>2026-04-12T07:18:18.061Z</time></trkpt><trkpt lat="44.875965" lon="8.2318767"><ele>126.0</ele><time>2026-04-12T07:18:19.063Z</time></trkpt><trkpt lat="44.8759" lon="8.2318717"><ele>126.0</ele><time>2026-04-12T07:18:20.06Z</time></trkpt><trkpt lat="44.875835" lon="8.2318683"><ele>126.0</ele><time>2026-04-12T07:18:21.061Z</time></trkpt><trkpt lat="44.8757683" lon="8.2318617"><ele>126.0</ele><time>2026-04-12T07:18:22.063Z</time></trkpt><trkpt lat="44.8756983" lon="8.2318583"><ele>126.0</ele><time>2026-04-12T07:18:23.061Z</time></trkpt><trkpt lat="44.87563" lon="8.2318583"><ele>126.0</ele><time>2026-04-12T07:18:24.062Z</time></trkpt><trkpt lat="44.8755583" lon="8.2318583"><ele>126.0</ele><time>2026-04-12T07:18:25.062Z</time></trkpt><trkpt lat="44.8754867" lon="8.2318567"><ele>126.0</ele><time>2026-04-12T07:18:26.061Z</time></trkpt><trkpt lat="44.8754167" lon="8.2318533"><ele>126.0</ele><time>2026-04-12T07:18:27.062Z</time></trkpt><trkpt lat="44.875345" lon="8.2318467"><ele>126.0</ele><time>2026-04-12T07:18:28.062Z</time></trkpt><trkpt lat="44.8752733" lon="8.2318417"><ele>126.0</ele><time>2026-04-12T07:18:29.061Z</time></trkpt><trkpt lat="44.8752017" lon="8.2318417"><ele>126.0</ele><time>2026-04-12T07:18:30.062Z</time></trkpt><trkpt lat="44.87513" lon="8.2318383"><ele>126.0</ele><time>2026-04-12T07:18:31.062Z</time></trkpt><trkpt lat="44.8750617" lon="8.2318367"><ele>126.0</ele><time>2026-04-12T07:18:32.063Z</time></trkpt><trkpt lat="44.8749933" lon="8.2318367"><ele>126.0</ele><time>2026-04-12T07:18:33.061Z</time></trkpt><trkpt lat="44.87493" lon="8.2318367"><ele>126.0</ele><time>2026-04-12T07:18:34.063Z</time></trkpt><trkpt lat="44.874865" lon="8.2318383"><ele>126.6</ele><time>2026-04-12T07:18:35.061Z</time></trkpt><trkpt lat="44.8748017" lon="8.2318417"><ele>127.19999999999999</ele><time>2026-04-12T07:18:36.061Z</time></trkpt><trkpt lat="44.8747383" lon="8.2318467"><ele>127.80000000000001</ele><time>2026-04-12T07:18:37.06Z</time></trkpt><trkpt lat="44.8746183" lon="8.2318517"><ele>128.4</ele><time>2026-04-12T07:18:39.062Z</time></trkpt><trkpt lat="44.8744983" lon="8.2318517"><ele>129.0</ele><time>2026-04-12T07:18:41.061Z</time></trkpt><trkpt lat="44.8743783" lon="8.2318567"><ele>128.5</ele><time>2026-04-12T07:18:43.06Z</time></trkpt><trkpt lat="44.8742617" lon="8.23186"><ele>128.0</ele><time>2026-04-12T07:18:45.062Z</time></trkpt><trkpt lat="44.8741483" lon="8.2318417"><ele>127.5</ele><time>2026-04-12T07:18:47.063Z</time></trkpt><trkpt lat="44.8740333" lon="8.23182"><ele>127.0</ele><time>2026-04-12T07:18:49.064Z</time></trkpt><trkpt lat="44.8739183" lon="8.2318033"><ele>127.0</ele><time>2026-04-12T07:18:51.063Z</time></trkpt><trkpt lat="44.8738017" lon="8.2317783"><ele>127.0</ele><time>2026-04-12T07:18:53.062Z</time></trkpt><trkpt lat="44.873685" lon="8.2317567"><ele>127.0</ele><time>2026-04-12T07:18:55.062Z</time></trkpt><trkpt lat="44.87357" lon="8.2317317"><ele>127.0</ele><time>2026-04-12T07:18:57.062Z</time></trkpt><trkpt lat="44.8734533" lon="8.2317183"><ele>127.39999999999999</ele><time>2026-04-12T07:18:59.061Z</time></trkpt><trkpt lat="44.87339" lon="8.2317133"><ele>127.79999999999998</ele><time>2026-04-12T07:19:00.063Z</time></trkpt><trkpt lat="44.873265" lon="8.2316967"><ele>128.2</ele><time>2026-04-12T07:19:02.064Z</time></trkpt><trkpt lat="44.8732017" lon="8.2316867"><ele>128.6</ele><time>2026-04-12T07:19:03.063Z</time></trkpt><trkpt lat="44.8730783" lon="8.2316683"><ele>129.0</ele><time>2026-04-12T07:19:05.063Z</time></trkpt><trkpt lat="44.8729567" lon="8.2316467"><ele>129.0</ele><time>2026-04-12T07:19:07.062Z</time></trkpt><trkpt lat="44.872835" lon="8.2316283"><ele>129.0</ele><time>2026-04-12T07:19:09.064Z</time></trkpt><trkpt lat="44.8727083" lon="8.2316117"><ele>129.0</ele><time>2026-04-12T07:19:11.06Z</time></trkpt><trkpt lat="44.872585" lon="8.2315933"><ele>129.0</ele><time>2026-04-12T07:19:13.063Z</time></trkpt><trkpt lat="44.8724633" lon="8.2315717"><ele>128.83333333333334</ele><time>2026-04-12T07:19:15.062Z</time></trkpt><trkpt lat="44.8724" lon="8.23156"><ele>128.66666666666666</ele><time>2026-04-12T07:19:16.062Z</time></trkpt><trkpt lat="44.8722767" lon="8.23154"><ele>128.5</ele><time>2026-04-12T07:19:18.062Z</time></trkpt><trkpt lat="44.8721517" lon="8.2315183"><ele>128.33333333333331</ele><time>2026-04-12T07:19:20.063Z</time></trkpt><trkpt lat="44.8720883" lon="8.2315083"><ele>128.16666666666666</ele><time>2026-04-12T07:19:21.062Z</time></trkpt><trkpt lat="44.872025" lon="8.2314983"><ele>128.0</ele><time>2026-04-12T07:19:22.061Z</time></trkpt><trkpt lat="44.871905" lon="8.231485"><ele>129.75</ele><time>2026-04-12T07:19:24.061Z</time></trkpt><trkpt lat="44.871785" lon="8.2314683"><ele>131.5</ele><time>2026-04-12T07:19:26.063Z</time></trkpt><trkpt lat="44.8716667" lon="8.231445"><ele>133.25</ele><time>2026-04-12T07:19:28.063Z</time></trkpt><trkpt lat="44.871555" lon="8.23143"><ele>135.0</ele><time>2026-04-12T07:19:30.061Z</time></trkpt><trkpt lat="44.871445" lon="8.2314083"><ele>135.75</ele><time>2026-04-12T07:19:32.062Z</time></trkpt><trkpt lat="44.8713267" lon="8.2313883"><ele>136.5</ele><time>2026-04-12T07:19:34.064Z</time></trkpt><trkpt lat="44.871205" lon="8.2313683"><ele>137.25</ele><time>2026-04-12T07:19:36.061Z</time></trkpt><trkpt lat="44.871085" lon="8.2313433"><ele>138.0</ele><time>2026-04-12T07:19:38.063Z</time></trkpt><trkpt lat="44.870965" lon="8.2313217"><ele>138.20000000000002</ele><time>2026-04-12T07:19:40.062Z</time></trkpt><trkpt lat="44.8709017" lon="8.2313133"><ele>138.4</ele><time>2026-04-12T07:19:41.062Z</time></trkpt><trkpt lat="44.870775" lon="8.2312917"><ele>138.60000000000002</ele><time>2026-04-12T07:19:43.063Z</time></trkpt><trkpt lat="44.87065" lon="8.2312717"><ele>138.8</ele><time>2026-04-12T07:19:45.063Z</time></trkpt><trkpt lat="44.8705267" lon="8.2312517"><ele>139.0</ele><time>2026-04-12T07:19:47.063Z</time></trkpt><trkpt lat="44.8704067" lon="8.2312317"><ele>139.0</ele><time>2026-04-12T07:19:49.062Z</time></trkpt><trkpt lat="44.8703433" lon="8.2312217"><ele>139.0</ele><time>2026-04-12T07:19:50.064Z</time></trkpt><trkpt lat="44.8702217" lon="8.2311967"><ele>139.0</ele><time>2026-04-12T07:19:52.063Z</time></trkpt><trkpt lat="44.8700983" lon="8.2311783"><ele>139.0</ele><time>2026-04-12T07:19:54.061Z</time></trkpt><trkpt lat="44.8699767" lon="8.2311583"><ele>139.0</ele><time>2026-04-12T07:19:56.062Z</time></trkpt><trkpt lat="44.8699133" lon="8.23115"><ele>138.0</ele><time>2026-04-12T07:19:57.063Z</time></trkpt><trkpt lat="44.86985" lon="8.23114"><ele>137.0</ele><time>2026-04-12T07:19:58.062Z</time></trkpt><trkpt lat="44.86973" lon="8.23112"><ele>136.0</ele><time>2026-04-12T07:20:00.061Z</time></trkpt><trkpt lat="44.8696067" lon="8.2310983"><ele>135.0</ele><time>2026-04-12T07:20:02.061Z</time></trkpt><trkpt lat="44.869485" lon="8.231075"><ele>134.0</ele><time>2026-04-12T07:20:04.064Z</time></trkpt><trkpt lat="44.8693617" lon="8.2310533"><ele>134.0</ele><time>2026-04-12T07:20:06.063Z</time></trkpt><trkpt lat="44.8692417" lon="8.231035"><ele>134.0</ele><time>2026-04-12T07:20:08.063Z</time></trkpt><trkpt lat="44.86912" lon="8.2310267"><ele>134.0</ele><time>2026-04-12T07:20:10.061Z</time></trkpt><trkpt lat="44.8690017" lon="8.2310267"><ele>134.0</ele><time>2026-04-12T07:20:12.061Z</time></trkpt><trkpt lat="44.86888" lon="8.231045"><ele>134.0</ele><time>2026-04-12T07:20:14.062Z</time></trkpt><trkpt lat="44.8687583" lon="8.23107"><ele>134.0</ele><time>2026-04-12T07:20:16.062Z</time></trkpt><trkpt lat="44.8686383" lon="8.2311033"><ele>134.0</ele><time>2026-04-12T07:20:18.062Z</time></trkpt><trkpt lat="44.868515" lon="8.2311467"><ele>134.0</ele><time>2026-04-12T07:20:20.062Z</time></trkpt><trkpt lat="44.86845" lon="8.2311633"><ele>134.0</ele><time>2026-04-12T07:20:21.062Z</time></trkpt><trkpt lat="44.8683867" lon="8.2311783"><ele>134.0</ele><time>2026-04-12T07:20:22.06Z</time></trkpt><trkpt lat="44.8683217" lon="8.23119"><ele>134.0</ele><time>2026-04-12T07:20:23.058Z</time></trkpt><trkpt lat="44.8682567" lon="8.2312"><ele>134.0</ele><time>2026-04-12T07:20:24.058Z</time></trkpt><trkpt lat="44.86813" lon="8.2311883"><ele>134.0</ele><time>2026-04-12T07:20:26.062Z</time></trkpt><trkpt lat="44.8680117" lon="8.23114"><ele>134.0</ele><time>2026-04-12T07:20:28.063Z</time></trkpt><trkpt lat="44.8679" lon="8.2310817"><ele>134.0</ele><time>2026-04-12T07:20:30.063Z</time></trkpt><trkpt lat="44.867795" lon="8.2310067"><ele>134.0</ele><time>2026-04-12T07:20:32.063Z</time></trkpt><trkpt lat="44.8676983" lon="8.2309133"><ele>134.0</ele><time>2026-04-12T07:20:34.064Z</time></trkpt><trkpt lat="44.8676017" lon="8.2308133"><ele>134.0</ele><time>2026-04-12T07:20:36.061Z</time></trkpt><trkpt lat="44.8675083" lon="8.230715"><ele>135.25</ele><time>2026-04-12T07:20:38.064Z</time></trkpt><trkpt lat="44.867415" lon="8.230615"><ele>136.5</ele><time>2026-04-12T07:20:40.063Z</time></trkpt><trkpt lat="44.86732" lon="8.2305217"><ele>137.75</ele><time>2026-04-12T07:20:42.062Z</time></trkpt><trkpt lat="44.8672167" lon="8.2304483"><ele>139.0</ele><time>2026-04-12T07:20:44.059Z</time></trkpt><trkpt lat="44.8671083" lon="8.2303883"><ele>139.0</ele><time>2026-04-12T07:20:46.061Z</time></trkpt><trkpt lat="44.8670083" lon="8.230345"><ele>139.0</ele><time>2026-04-12T07:20:48.057Z</time></trkpt><trkpt lat="44.8668983" lon="8.2303217"><ele>139.0</ele><time>2026-04-12T07:20:50.062Z</time></trkpt><trkpt lat="44.866785" lon="8.2302683"><ele>139.0</ele><time>2026-04-12T07:20:52.062Z</time></trkpt><trkpt lat="44.8667317" lon="8.2302167"><ele>139.0</ele><time>2026-04-12T07:20:53.062Z</time></trkpt><trkpt lat="44.8666883" lon="8.2301517"><ele>139.0</ele><time>2026-04-12T07:20:54.065Z</time></trkpt><trkpt lat="44.8666183" lon="8.230015"><ele>139.0</ele><time>2026-04-12T07:20:56.062Z</time></trkpt><trkpt lat="44.866555" lon="8.22987"><ele>139.0</ele><time>2026-04-12T07:20:58.063Z</time></trkpt><trkpt lat="44.8664967" lon="8.2297267"><ele>139.0</ele><time>2026-04-12T07:21:00.061Z</time></trkpt><trkpt lat="44.86644" lon="8.2295933"><ele>139.0</ele><time>2026-04-12T07:21:02.063Z</time></trkpt><trkpt lat="44.8663883" lon="8.2294567"><ele>139.0</ele><time>2026-04-12T07:21:04.061Z</time></trkpt><trkpt lat="44.8663317" lon="8.2293233"><ele>139.0</ele><time>2026-04-12T07:21:06.062Z</time></trkpt><trkpt lat="44.8662683" lon="8.2291917"><ele>139.0</ele><time>2026-04-12T07:21:08.063Z</time></trkpt><trkpt lat="44.86621" lon="8.229065"><ele>139.0</ele><time>2026-04-12T07:21:10.064Z</time></trkpt><trkpt lat="44.86615" lon="8.22894"><ele>138.25</ele><time>2026-04-12T07:21:12.062Z</time></trkpt><trkpt lat="44.8660917" lon="8.22881"><ele>137.5</ele><time>2026-04-12T07:21:14.065Z</time></trkpt><trkpt lat="44.8660317" lon="8.2286783"><ele>136.75</ele><time>2026-04-12T07:21:16.061Z</time></trkpt><trkpt lat="44.8659717" lon="8.2285383"><ele>136.0</ele><time>2026-04-12T07:21:18.06Z</time></trkpt><trkpt lat="44.8659133" lon="8.2283967"><ele>136.0</ele><time>2026-04-12T07:21:20.062Z</time></trkpt><trkpt lat="44.8658533" lon="8.2282583"><ele>136.0</ele><time>2026-04-12T07:21:22.06Z</time></trkpt><trkpt lat="44.8657967" lon="8.22812"><ele>136.0</ele><time>2026-04-12T07:21:24.062Z</time></trkpt><trkpt lat="44.865735" lon="8.227985"><ele>136.0</ele><time>2026-04-12T07:21:26.061Z</time></trkpt><trkpt lat="44.8656817" lon="8.227845"><ele>137.5</ele><time>2026-04-12T07:21:28.068Z</time></trkpt><trkpt lat="44.8656233" lon="8.2277083"><ele>139.0</ele><time>2026-04-12T07:21:30.061Z</time></trkpt><trkpt lat="44.86556" lon="8.22756"><ele>140.5</ele><time>2026-04-12T07:21:32.063Z</time></trkpt><trkpt lat="44.8655067" lon="8.2274217"><ele>142.0</ele><time>2026-04-12T07:21:34.061Z</time></trkpt><trkpt lat="44.865455" lon="8.22729"><ele>144.4</ele><time>2026-04-12T07:21:36.061Z</time></trkpt><trkpt lat="44.8654067" lon="8.227165"><ele>146.79999999999998</ele><time>2026-04-12T07:21:38.062Z</time></trkpt><trkpt lat="44.8653567" lon="8.2270483"><ele>149.2</ele><time>2026-04-12T07:21:40.064Z</time></trkpt><trkpt lat="44.8653017" lon="8.2269283"><ele>151.6</ele><time>2026-04-12T07:21:42.063Z</time></trkpt><trkpt lat="44.8652383" lon="8.226795"><ele>154.0</ele><time>2026-04-12T07:21:44.062Z</time></trkpt><trkpt lat="44.8652033" lon="8.22672"><ele>154.0</ele><time>2026-04-12T07:21:45.063Z</time></trkpt><trkpt lat="44.8651667" lon="8.2266467"><ele>154.0</ele><time>2026-04-12T07:21:46.064Z</time></trkpt><trkpt lat="44.86513" lon="8.2265733"><ele>154.0</ele><time>2026-04-12T07:21:47.063Z</time></trkpt><trkpt lat="44.8650933" lon="8.2265"><ele>154.0</ele><time>2026-04-12T07:21:48.063Z</time></trkpt><trkpt lat="44.8650167" lon="8.226365"><ele>154.0</ele><time>2026-04-12T07:21:50.063Z</time></trkpt><trkpt lat="44.8649417" lon="8.2262283"><ele>154.0</ele><time>2026-04-12T07:21:52.061Z</time></trkpt><trkpt lat="44.8648683" lon="8.2260967"><ele>153.2</ele><time>2026-04-12T07:21:54.062Z</time></trkpt><trkpt lat="44.8647933" lon="8.2259667"><ele>152.4</ele><time>2026-04-12T07:21:56.061Z</time></trkpt><trkpt lat="44.864715" lon="8.2258333"><ele>151.6</ele><time>2026-04-12T07:21:58.062Z</time></trkpt><trkpt lat="44.8646733" lon="8.225765"><ele>150.8</ele><time>2026-04-12T07:21:59.06Z</time></trkpt><trkpt lat="44.86463" lon="8.2257"><ele>150.0</ele><time>2026-04-12T07:22:00.059Z</time></trkpt><trkpt lat="44.8645433" lon="8.2255733"><ele>150.0</ele><time>2026-04-12T07:22:02.063Z</time></trkpt><trkpt lat="44.864465" lon="8.22545"><ele>150.0</ele><time>2026-04-12T07:22:04.063Z</time></trkpt><trkpt lat="44.8643833" lon="8.225325"><ele>150.0</ele><time>2026-04-12T07:22:06.063Z</time></trkpt><trkpt lat="44.8643067" lon="8.2252"><ele>150.0</ele><time>2026-04-12T07:22:08.061Z</time></trkpt><trkpt lat="44.8642283" lon="8.2250733"><ele>148.8</ele><time>2026-04-12T07:22:10.062Z</time></trkpt><trkpt lat="44.86414" lon="8.22494"><ele>147.6</ele><time>2026-04-12T07:22:12.064Z</time></trkpt><trkpt lat="44.8640983" lon="8.2248717"><ele>146.4</ele><time>2026-04-12T07:22:13.063Z</time></trkpt><trkpt lat="44.86402" lon="8.2247333"><ele>145.2</ele><time>2026-04-12T07:22:15.064Z</time></trkpt><trkpt lat="44.8639767" lon="8.2246633"><ele>144.0</ele><time>2026-04-12T07:22:16.063Z</time></trkpt><trkpt lat="44.863935" lon="8.22459"><ele>144.00000000000003</ele><time>2026-04-12T07:22:17.061Z</time></trkpt><trkpt lat="44.86389" lon="8.2245183"><ele>144.0</ele><time>2026-04-12T07:22:18.061Z</time></trkpt><trkpt lat="44.8638433" lon="8.2244483"><ele>144.0</ele><time>2026-04-12T07:22:19.062Z</time></trkpt><trkpt lat="44.8637983" lon="8.2243783"><ele>144.0</ele><time>2026-04-12T07:22:20.062Z</time></trkpt><trkpt lat="44.8637567" lon="8.2243083"><ele>144.0</ele><time>2026-04-12T07:22:21.064Z</time></trkpt><trkpt lat="44.863715" lon="8.224235"><ele>144.00000000000003</ele><time>2026-04-12T07:22:22.061Z</time></trkpt><trkpt lat="44.8636733" lon="8.2241583"><ele>144.0</ele><time>2026-04-12T07:22:23.063Z</time></trkpt><trkpt lat="44.86363" lon="8.2240833"><ele>144.00000000000003</ele><time>2026-04-12T07:22:24.064Z</time></trkpt><trkpt lat="44.8635867" lon="8.2240083"><ele>144.0</ele><time>2026-04-12T07:22:25.061Z</time></trkpt><trkpt lat="44.8635433" lon="8.2239317"><ele>144.0</ele><time>2026-04-12T07:22:26.061Z</time></trkpt><trkpt lat="44.8635" lon="8.22386"><ele>144.0</ele><time>2026-04-12T07:22:27.062Z</time></trkpt><trkpt lat="44.8634567" lon="8.2237817"><ele>144.0</ele><time>2026-04-12T07:22:28.061Z</time></trkpt><trkpt lat="44.8634117" lon="8.223705"><ele>144.00000000000003</ele><time>2026-04-12T07:22:29.062Z</time></trkpt><trkpt lat="44.863365" lon="8.223635"><ele>144.0</ele><time>2026-04-12T07:22:30.064Z</time></trkpt><trkpt lat="44.8633183" lon="8.223565"><ele>144.42857142857144</ele><time>2026-04-12T07:22:31.063Z</time></trkpt><trkpt lat="44.8632717" lon="8.2234967"><ele>144.85714285714286</ele><time>2026-04-12T07:22:32.063Z</time></trkpt><trkpt lat="44.8632267" lon="8.223425"><ele>145.28571428571428</ele><time>2026-04-12T07:22:33.064Z</time></trkpt><trkpt lat="44.8631817" lon="8.22335"><ele>145.71428571428572</ele><time>2026-04-12T07:22:34.061Z</time></trkpt><trkpt lat="44.8631367" lon="8.223275"><ele>146.14285714285714</ele><time>2026-04-12T07:22:35.061Z</time></trkpt><trkpt lat="44.8630917" lon="8.2231983"><ele>146.57142857142858</ele><time>2026-04-12T07:22:36.062Z</time></trkpt><trkpt lat="44.863045" lon="8.2231283"><ele>147.0</ele><time>2026-04-12T07:22:37.062Z</time></trkpt><trkpt lat="44.8629967" lon="8.2230533"><ele>147.0</ele><time>2026-04-12T07:22:38.064Z</time></trkpt><trkpt lat="44.8629533" lon="8.22298"><ele>147.0</ele><time>2026-04-12T07:22:39.063Z</time></trkpt><trkpt lat="44.8629067" lon="8.2229083"><ele>147.0</ele><time>2026-04-12T07:22:40.064Z</time></trkpt><trkpt lat="44.8628583" lon="8.2228383"><ele>147.0</ele><time>2026-04-12T07:22:41.06Z</time></trkpt><trkpt lat="44.862815" lon="8.2227717"><ele>147.0</ele><time>2026-04-12T07:22:42.062Z</time></trkpt><trkpt lat="44.86277" lon="8.2227067"><ele>147.0</ele><time>2026-04-12T07:22:43.063Z</time></trkpt><trkpt lat="44.8627267" lon="8.2226417"><ele>147.0</ele><time>2026-04-12T07:22:44.063Z</time></trkpt><trkpt lat="44.8626833" lon="8.222575"><ele>147.0</ele><time>2026-04-12T07:22:45.063Z</time></trkpt><trkpt lat="44.8626383" lon="8.2225033"><ele>147.0</ele><time>2026-04-12T07:22:46.063Z</time></trkpt><trkpt lat="44.8625983" lon="8.2224317"><ele>147.0</ele><time>2026-04-12T07:22:47.062Z</time></trkpt><trkpt lat="44.8625567" lon="8.222365"><ele>147.0</ele><time>2026-04-12T07:22:48.061Z</time></trkpt><trkpt lat="44.8624767" lon="8.22224"><ele>147.0</ele><time>2026-04-12T07:22:50.062Z</time></trkpt><trkpt lat="44.8623983" lon="8.222115"><ele>147.0</ele><time>2026-04-12T07:22:52.062Z</time></trkpt><trkpt lat="44.8623183" lon="8.2219883"><ele>146.0</ele><time>2026-04-12T07:22:54.062Z</time></trkpt><trkpt lat="44.862235" lon="8.22187"><ele>145.0</ele><time>2026-04-12T07:22:56.062Z</time></trkpt><trkpt lat="44.862145" lon="8.221755"><ele>144.0</ele><time>2026-04-12T07:22:58.062Z</time></trkpt><trkpt lat="44.8620617" lon="8.2216367"><ele>143.0</ele><time>2026-04-12T07:23:00.063Z</time></trkpt><trkpt lat="44.8620033" lon="8.2215233"><ele>144.66666666666666</ele><time>2026-04-12T07:23:02.063Z</time></trkpt><trkpt lat="44.8620083" lon="8.221415"><ele>146.33333333333331</ele><time>2026-04-12T07:23:04.064Z</time></trkpt><trkpt lat="44.8620533" lon="8.2213133"><ele>148.0</ele><time>2026-04-12T07:23:06.062Z</time></trkpt><trkpt lat="44.8620867" lon="8.221205"><ele>149.66666666666666</ele><time>2026-04-12T07:23:08.062Z</time></trkpt><trkpt lat="44.8620617" lon="8.2211233"><ele>151.33333333333334</ele><time>2026-04-12T07:23:10.061Z</time></trkpt><trkpt lat="44.8620067" lon="8.2210583"><ele>153.0</ele><time>2026-04-12T07:23:12.061Z</time></trkpt><trkpt lat="44.8619583" lon="8.22098"><ele>153.0</ele><time>2026-04-12T07:23:14.063Z</time></trkpt><trkpt lat="44.8619083" lon="8.220905"><ele>153.0</ele><time>2026-04-12T07:23:16.062Z</time></trkpt><trkpt lat="44.86185" lon="8.2208233"><ele>153.0</ele><time>2026-04-12T07:23:18.062Z</time></trkpt><trkpt lat="44.8617917" lon="8.2207333"><ele>153.0</ele><time>2026-04-12T07:23:20.063Z</time></trkpt><trkpt lat="44.8617267" lon="8.2206367"><ele>153.0</ele><time>2026-04-12T07:23:22.062Z</time></trkpt><trkpt lat="44.86166" lon="8.2205367"><ele>153.0</ele><time>2026-04-12T07:23:24.062Z</time></trkpt><trkpt lat="44.86159" lon="8.2204367"><ele>151.20000000000002</ele><time>2026-04-12T07:23:26.063Z</time></trkpt><trkpt lat="44.8615233" lon="8.22033"><ele>149.4</ele><time>2026-04-12T07:23:28.061Z</time></trkpt><trkpt lat="44.8614617" lon="8.2202217"><ele>147.60000000000002</ele><time>2026-04-12T07:23:30.063Z</time></trkpt><trkpt lat="44.8614017" lon="8.2201183"><ele>145.8</ele><time>2026-04-12T07:23:32.061Z</time></trkpt><trkpt lat="44.8613417" lon="8.2200167"><ele>144.0</ele><time>2026-04-12T07:23:34.063Z</time></trkpt><trkpt lat="44.86128" lon="8.2199117"><ele>146.0</ele><time>2026-04-12T07:23:36.064Z</time></trkpt><trkpt lat="44.8612183" lon="8.2198083"><ele>148.0</ele><time>2026-04-12T07:23:38.062Z</time></trkpt><trkpt lat="44.8611517" lon="8.2197"><ele>150.0</ele><time>2026-04-12T07:23:40.06Z</time></trkpt><trkpt lat="44.8610883" lon="8.2195833"><ele>152.0</ele><time>2026-04-12T07:23:42.063Z</time></trkpt><trkpt lat="44.8610283" lon="8.2194633"><ele>154.0</ele><time>2026-04-12T07:23:44.061Z</time></trkpt><trkpt lat="44.8609633" lon="8.219345"><ele>152.4</ele><time>2026-04-12T07:23:46.062Z</time></trkpt><trkpt lat="44.8609017" lon="8.2192283"><ele>150.8</ele><time>2026-04-12T07:23:48.064Z</time></trkpt><trkpt lat="44.8608433" lon="8.2191017"><ele>149.2</ele><time>2026-04-12T07:23:50.063Z</time></trkpt><trkpt lat="44.8607867" lon="8.2189733"><ele>147.6</ele><time>2026-04-12T07:23:52.062Z</time></trkpt><trkpt lat="44.86073" lon="8.218845"><ele>146.0</ele><time>2026-04-12T07:23:54.063Z</time></trkpt><trkpt lat="44.860675" lon="8.2187183"><ele>146.0</ele><time>2026-04-12T07:23:56.06Z</time></trkpt><trkpt lat="44.860625" lon="8.2185883"><ele>146.0</ele><time>2026-04-12T07:23:58.063Z</time></trkpt><trkpt lat="44.860575" lon="8.218445"><ele>146.0</ele><time>2026-04-12T07:24:00.062Z</time></trkpt><trkpt lat="44.8605217" lon="8.218305"><ele>146.0</ele><time>2026-04-12T07:24:02.062Z</time></trkpt><trkpt lat="44.8604733" lon="8.21816"><ele>146.0</ele><time>2026-04-12T07:24:04.061Z</time></trkpt><trkpt lat="44.8604267" lon="8.21801"><ele>148.0</ele><time>2026-04-12T07:24:06.062Z</time></trkpt><trkpt lat="44.8603833" lon="8.2178617"><ele>150.0</ele><time>2026-04-12T07:24:08.062Z</time></trkpt><trkpt lat="44.86034" lon="8.2177083"><ele>152.0</ele><time>2026-04-12T07:24:10.063Z</time></trkpt><trkpt lat="44.8602983" lon="8.2175633"><ele>154.0</ele><time>2026-04-12T07:24:12.062Z</time></trkpt><trkpt lat="44.86026" lon="8.2174167"><ele>156.0</ele><time>2026-04-12T07:24:14.061Z</time></trkpt><trkpt lat="44.86022" lon="8.2172733"><ele>158.0</ele><time>2026-04-12T07:24:16.061Z</time></trkpt><trkpt lat="44.8601833" lon="8.2171267"><ele>160.0</ele><time>2026-04-12T07:24:18.061Z</time></trkpt><trkpt lat="44.8601417" lon="8.216985"><ele>162.0</ele><time>2026-04-12T07:24:20.066Z</time></trkpt><trkpt lat="44.8601033" lon="8.216845"><ele>164.0</ele><time>2026-04-12T07:24:22.06Z</time></trkpt><trkpt lat="44.8600717" lon="8.2167133"><ele>161.2</ele><time>2026-04-12T07:24:24.061Z</time></trkpt><trkpt lat="44.8600383" lon="8.2165817"><ele>158.39999999999998</ele><time>2026-04-12T07:24:26.064Z</time></trkpt><trkpt lat="44.8600017" lon="8.21645"><ele>155.6</ele><time>2026-04-12T07:24:28.062Z</time></trkpt><trkpt lat="44.85996" lon="8.2163133"><ele>152.8</ele><time>2026-04-12T07:24:30.062Z</time></trkpt><trkpt lat="44.8599167" lon="8.21617"><ele>150.0</ele><time>2026-04-12T07:24:32.066Z</time></trkpt><trkpt lat="44.859875" lon="8.2160233"><ele>150.0</ele><time>2026-04-12T07:24:34.062Z</time></trkpt><trkpt lat="44.859835" lon="8.2158767"><ele>150.0</ele><time>2026-04-12T07:24:36.061Z</time></trkpt><trkpt lat="44.859795" lon="8.2157283"><ele>150.0</ele><time>2026-04-12T07:24:38.061Z</time></trkpt><trkpt lat="44.859765" lon="8.2155617"><ele>150.0</ele><time>2026-04-12T07:24:40.061Z</time></trkpt><trkpt lat="44.85975" lon="8.215475"><ele>150.0</ele><time>2026-04-12T07:24:41.062Z</time></trkpt><trkpt lat="44.8597333" lon="8.2153867"><ele>150.28571428571428</ele><time>2026-04-12T07:24:42.061Z</time></trkpt><trkpt lat="44.8597133" lon="8.215295"><ele>150.57142857142856</ele><time>2026-04-12T07:24:43.062Z</time></trkpt><trkpt lat="44.8596933" lon="8.2152017"><ele>150.85714285714283</ele><time>2026-04-12T07:24:44.062Z</time></trkpt><trkpt lat="44.85967" lon="8.2151117"><ele>151.14285714285714</ele><time>2026-04-12T07:24:45.063Z</time></trkpt><trkpt lat="44.8596417" lon="8.2150233"><ele>151.42857142857144</ele><time>2026-04-12T07:24:46.062Z</time></trkpt><trkpt lat="44.8596133" lon="8.2149367"><ele>151.7142857142857</ele><time>2026-04-12T07:24:47.061Z</time></trkpt><trkpt lat="44.8595867" lon="8.214855"><ele>152.0</ele><time>2026-04-12T07:24:48.063Z</time></trkpt><trkpt lat="44.8595567" lon="8.2147733"><ele>154.25</ele><time>2026-04-12T07:24:49.063Z</time></trkpt><trkpt lat="44.8594983" lon="8.2146217"><ele>156.5</ele><time>2026-04-12T07:24:51.063Z</time></trkpt><trkpt lat="44.8594467" lon="8.21448"><ele>158.75</ele><time>2026-04-12T07:24:53.062Z</time></trkpt><trkpt lat="44.85939" lon="8.214345"><ele>161.0</ele><time>2026-04-12T07:24:55.062Z</time></trkpt><trkpt lat="44.8593367" lon="8.2142183"><ele>158.25</ele><time>2026-04-12T07:24:57.063Z</time></trkpt><trkpt lat="44.8592783" lon="8.2140833"><ele>155.5</ele><time>2026-04-12T07:24:59.061Z</time></trkpt><trkpt lat="44.8592183" lon="8.2139517"><ele>152.75</ele><time>2026-04-12T07:25:01.062Z</time></trkpt><trkpt lat="44.859155" lon="8.213815"><ele>150.0</ele><time>2026-04-12T07:25:03.062Z</time></trkpt><trkpt lat="44.8590883" lon="8.2136783"><ele>150.0</ele><time>2026-04-12T07:25:05.061Z</time></trkpt><trkpt lat="44.85902" lon="8.2135433"><ele>150.0</ele><time>2026-04-12T07:25:07.063Z</time></trkpt><trkpt lat="44.858955" lon="8.2134117"><ele>150.0</ele><time>2026-04-12T07:25:09.062Z</time></trkpt><trkpt lat="44.8588983" lon="8.2132733"><ele>150.0</ele><time>2026-04-12T07:25:11.061Z</time></trkpt><trkpt lat="44.85886" lon="8.2131183"><ele>150.0</ele><time>2026-04-12T07:25:13.062Z</time></trkpt><trkpt lat="44.8588417" lon="8.2129567"><ele>150.0</ele><time>2026-04-12T07:25:15.063Z</time></trkpt><trkpt lat="44.85883" lon="8.2128"><ele>150.0</ele><time>2026-04-12T07:25:17.061Z</time></trkpt><trkpt lat="44.8588217" lon="8.2126417"><ele>150.0</ele><time>2026-04-12T07:25:19.063Z</time></trkpt><trkpt lat="44.8588117" lon="8.212485"><ele>150.0</ele><time>2026-04-12T07:25:21.063Z</time></trkpt><trkpt lat="44.8587983" lon="8.2123333"><ele>150.0</ele><time>2026-04-12T07:25:23.062Z</time></trkpt><trkpt lat="44.858775" lon="8.2121833"><ele>150.0</ele><time>2026-04-12T07:25:25.064Z</time></trkpt><trkpt lat="44.8587517" lon="8.2120367"><ele>150.0</ele><time>2026-04-12T07:25:27.061Z</time></trkpt><trkpt lat="44.85873" lon="8.2118917"><ele>150.0</ele><time>2026-04-12T07:25:29.061Z</time></trkpt><trkpt lat="44.85872" lon="8.2117467"><ele>149.83333333333334</ele><time>2026-04-12T07:25:31.061Z</time></trkpt><trkpt lat="44.8587383" lon="8.211605"><ele>149.66666666666666</ele><time>2026-04-12T07:25:33.061Z</time></trkpt><trkpt lat="44.858765" lon="8.2114867"><ele>149.5</ele><time>2026-04-12T07:25:35.061Z</time></trkpt><trkpt lat="44.85876" lon="8.2113867"><ele>149.33333333333331</ele><time>2026-04-12T07:25:37.063Z</time></trkpt><trkpt lat="44.8586933" lon="8.2113417"><ele>149.16666666666666</ele><time>2026-04-12T07:25:39.063Z</time></trkpt><trkpt lat="44.8586" lon="8.2113467"><ele>149.0</ele><time>2026-04-12T07:25:41.061Z</time></trkpt><trkpt lat="44.8585017" lon="8.211345"><ele>151.2</ele><time>2026-04-12T07:25:43.065Z</time></trkpt><trkpt lat="44.8584017" lon="8.2113483"><ele>153.4</ele><time>2026-04-12T07:25:45.063Z</time></trkpt><trkpt lat="44.8582933" lon="8.21135"><ele>155.6</ele><time>2026-04-12T07:25:47.062Z</time></trkpt><trkpt lat="44.8581733" lon="8.2113317"><ele>157.8</ele><time>2026-04-12T07:25:49.064Z</time></trkpt><trkpt lat="44.8581067" lon="8.2113183"><ele>160.0</ele><time>2026-04-12T07:25:50.062Z</time></trkpt><trkpt lat="44.8580433" lon="8.2112983"><ele>160.0</ele><time>2026-04-12T07:25:51.063Z</time></trkpt><trkpt lat="44.8579783" lon="8.2112717"><ele>160.0</ele><time>2026-04-12T07:25:52.063Z</time></trkpt><trkpt lat="44.857915" lon="8.2112533"><ele>160.0</ele><time>2026-04-12T07:25:53.061Z</time></trkpt><trkpt lat="44.8578517" lon="8.21124"><ele>160.0</ele><time>2026-04-12T07:25:54.062Z</time></trkpt><trkpt lat="44.8577883" lon="8.2112233"><ele>160.0</ele><time>2026-04-12T07:25:55.064Z</time></trkpt><trkpt lat="44.8576733" lon="8.2111633"><ele>160.0</ele><time>2026-04-12T07:25:57.062Z</time></trkpt><trkpt lat="44.8575583" lon="8.2111117"><ele>158.5</ele><time>2026-04-12T07:25:59.061Z</time></trkpt><trkpt lat="44.8574483" lon="8.211065"><ele>157.0</ele><time>2026-04-12T07:26:01.062Z</time></trkpt><trkpt lat="44.8573467" lon="8.2109983"><ele>155.5</ele><time>2026-04-12T07:26:03.064Z</time></trkpt><trkpt lat="44.8572417" lon="8.21092"><ele>154.0</ele><time>2026-04-12T07:26:05.063Z</time></trkpt><trkpt lat="44.8571283" lon="8.21085"><ele>154.0</ele><time>2026-04-12T07:26:07.061Z</time></trkpt><trkpt lat="44.8570683" lon="8.2108183"><ele>154.0</ele><time>2026-04-12T07:26:08.063Z</time></trkpt><trkpt lat="44.8570083" lon="8.210785"><ele>154.0</ele><time>2026-04-12T07:26:09.064Z</time></trkpt><trkpt lat="44.8569483" lon="8.2107517"><ele>154.0</ele><time>2026-04-12T07:26:10.063Z</time></trkpt><trkpt lat="44.8568283" lon="8.2106967"><ele>154.0</ele><time>2026-04-12T07:26:12.063Z</time></trkpt><trkpt lat="44.8567667" lon="8.2106683"><ele>154.0</ele><time>2026-04-12T07:26:13.063Z</time></trkpt><trkpt lat="44.85671" lon="8.2106283"><ele>154.0</ele><time>2026-04-12T07:26:14.062Z</time></trkpt><trkpt lat="44.85661" lon="8.21052"><ele>153.66666666666669</ele><time>2026-04-12T07:26:16.062Z</time></trkpt><trkpt lat="44.8565633" lon="8.2104533"><ele>153.33333333333334</ele><time>2026-04-12T07:26:17.063Z</time></trkpt><trkpt lat="44.8564833" lon="8.2103117"><ele>153.0</ele><time>2026-04-12T07:26:19.063Z</time></trkpt><trkpt lat="44.856445" lon="8.2102383"><ele>152.66666666666666</ele><time>2026-04-12T07:26:20.062Z</time></trkpt><trkpt lat="44.8564017" lon="8.2101683"><ele>152.33333333333331</ele><time>2026-04-12T07:26:21.065Z</time></trkpt><trkpt lat="44.856355" lon="8.2101017"><ele>152.0</ele><time>2026-04-12T07:26:22.063Z</time></trkpt><trkpt lat="44.8563033" lon="8.2100433"><ele>152.0</ele><time>2026-04-12T07:26:23.061Z</time></trkpt><trkpt lat="44.856255" lon="8.2099833"><ele>152.0</ele><time>2026-04-12T07:26:24.063Z</time></trkpt><trkpt lat="44.856205" lon="8.2099233"><ele>152.0</ele><time>2026-04-12T07:26:25.063Z</time></trkpt><trkpt lat="44.85615" lon="8.2098633"><ele>152.0</ele><time>2026-04-12T07:26:26.061Z</time></trkpt><trkpt lat="44.856095" lon="8.2098033"><ele>152.0</ele><time>2026-04-12T07:26:27.061Z</time></trkpt><trkpt lat="44.8560417" lon="8.2097467"><ele>152.0</ele><time>2026-04-12T07:26:28.063Z</time></trkpt><trkpt lat="44.8559867" lon="8.2096967"><ele>152.0</ele><time>2026-04-12T07:26:29.061Z</time></trkpt><trkpt lat="44.8559333" lon="8.2096483"><ele>152.0</ele><time>2026-04-12T07:26:30.063Z</time></trkpt><trkpt lat="44.85588" lon="8.209595"><ele>152.0</ele><time>2026-04-12T07:26:31.064Z</time></trkpt><trkpt lat="44.85583" lon="8.2095383"><ele>152.0</ele><time>2026-04-12T07:26:32.061Z</time></trkpt><trkpt lat="44.85578" lon="8.2094783"><ele>152.0</ele><time>2026-04-12T07:26:33.06Z</time></trkpt><trkpt lat="44.8557333" lon="8.2094167"><ele>152.0</ele><time>2026-04-12T07:26:34.06Z</time></trkpt><trkpt lat="44.8556867" lon="8.2093567"><ele>152.0</ele><time>2026-04-12T07:26:35.061Z</time></trkpt><trkpt lat="44.855635" lon="8.209305"><ele>152.0</ele><time>2026-04-12T07:26:36.065Z</time></trkpt><trkpt lat="44.85558" lon="8.2092533"><ele>152.0</ele><time>2026-04-12T07:26:37.063Z</time></trkpt><trkpt lat="44.8554633" lon="8.2091817"><ele>152.0</ele><time>2026-04-12T07:26:39.063Z</time></trkpt><trkpt lat="44.8553433" lon="8.209115"><ele>152.0</ele><time>2026-04-12T07:26:41.062Z</time></trkpt><trkpt lat="44.8552833" lon="8.2090867"><ele>152.0</ele><time>2026-04-12T07:26:42.063Z</time></trkpt><trkpt lat="44.85522" lon="8.2090583"><ele>152.0</ele><time>2026-04-12T07:26:43.063Z</time></trkpt><trkpt lat="44.8551583" lon="8.2090283"><ele>152.33333333333331</ele><time>2026-04-12T07:26:44.061Z</time></trkpt><trkpt lat="44.8550983" lon="8.208995"><ele>152.66666666666666</ele><time>2026-04-12T07:26:45.064Z</time></trkpt><trkpt lat="44.8550367" lon="8.208965"><ele>153.0</ele><time>2026-04-12T07:26:46.063Z</time></trkpt><trkpt lat="44.8549767" lon="8.2089333"><ele>153.33333333333334</ele><time>2026-04-12T07:26:47.063Z</time></trkpt><trkpt lat="44.8548617" lon="8.2088617"><ele>153.66666666666669</ele><time>2026-04-12T07:26:49.062Z</time></trkpt><trkpt lat="44.8547583" lon="8.2087783"><ele>154.0</ele><time>2026-04-12T07:26:51.064Z</time></trkpt><trkpt lat="44.8547067" lon="8.2087267"><ele>156.5</ele><time>2026-04-12T07:26:52.062Z</time></trkpt><trkpt lat="44.8546133" lon="8.2086233"><ele>159.0</ele><time>2026-04-12T07:26:54.064Z</time></trkpt><trkpt lat="44.854515" lon="8.2085217"><ele>161.5</ele><time>2026-04-12T07:26:56.061Z</time></trkpt><trkpt lat="44.854415" lon="8.2084317"><ele>164.0</ele><time>2026-04-12T07:26:58.063Z</time></trkpt><trkpt lat="44.85432" lon="8.2083283"><ele>164.2</ele><time>2026-04-12T07:27:00.062Z</time></trkpt><trkpt lat="44.8542217" lon="8.20822"><ele>164.39999999999998</ele><time>2026-04-12T07:27:02.064Z</time></trkpt><trkpt lat="44.8541717" lon="8.2081617"><ele>164.6</ele><time>2026-04-12T07:27:03.063Z</time></trkpt><trkpt lat="44.8540783" lon="8.208055"><ele>164.8</ele><time>2026-04-12T07:27:05.061Z</time></trkpt><trkpt lat="44.8539767" lon="8.2079483"><ele>165.0</ele><time>2026-04-12T07:27:07.062Z</time></trkpt><trkpt lat="44.8539217" lon="8.2078983"><ele>165.0</ele><time>2026-04-12T07:27:08.062Z</time></trkpt><trkpt lat="44.8538133" lon="8.2078067"><ele>165.0</ele><time>2026-04-12T07:27:10.063Z</time></trkpt><trkpt lat="44.85371" lon="8.2077233"><ele>165.0</ele><time>2026-04-12T07:27:12.06Z</time></trkpt><trkpt lat="44.8536067" lon="8.207645"><ele>165.0</ele><time>2026-04-12T07:27:14.061Z</time></trkpt><trkpt lat="44.8535133" lon="8.20756"><ele>164.2</ele><time>2026-04-12T07:27:16.061Z</time></trkpt><trkpt lat="44.8534267" lon="8.207475"><ele>163.4</ele><time>2026-04-12T07:27:18.063Z</time></trkpt><trkpt lat="44.8533467" lon="8.2073867"><ele>162.60000000000002</ele><time>2026-04-12T07:27:20.063Z</time></trkpt><trkpt lat="44.85327" lon="8.2072767"><ele>161.8</ele><time>2026-04-12T07:27:22.064Z</time></trkpt><trkpt lat="44.8531983" lon="8.2071483"><ele>161.0</ele><time>2026-04-12T07:27:24.063Z</time></trkpt><trkpt lat="44.85313" lon="8.207015"><ele>161.0</ele><time>2026-04-12T07:27:26.062Z</time></trkpt><trkpt lat="44.8530567" lon="8.206885"><ele>161.0</ele><time>2026-04-12T07:27:28.063Z</time></trkpt><trkpt lat="44.8529833" lon="8.20676"><ele>161.0</ele><time>2026-04-12T07:27:30.061Z</time></trkpt><trkpt lat="44.8529067" lon="8.2066467"><ele>161.0</ele><time>2026-04-12T07:27:32.063Z</time></trkpt><trkpt lat="44.852815" lon="8.20655"><ele>161.0</ele><time>2026-04-12T07:27:34.062Z</time></trkpt><trkpt lat="44.85271" lon="8.2064667"><ele>161.0</ele><time>2026-04-12T07:27:36.065Z</time></trkpt><trkpt lat="44.8526017" lon="8.2064"><ele>161.0</ele><time>2026-04-12T07:27:38.063Z</time></trkpt><trkpt lat="44.8524883" lon="8.20634"><ele>161.0</ele><time>2026-04-12T07:27:40.063Z</time></trkpt><trkpt lat="44.8523733" lon="8.20627"><ele>161.0</ele><time>2026-04-12T07:27:42.061Z</time></trkpt><trkpt lat="44.85227" lon="8.2061867"><ele>161.0</ele><time>2026-04-12T07:27:44.062Z</time></trkpt><trkpt lat="44.8521817" lon="8.206085"><ele>161.0</ele><time>2026-04-12T07:27:46.062Z</time></trkpt><trkpt lat="44.8520867" lon="8.2059867"><ele>161.0</ele><time>2026-04-12T07:27:48.063Z</time></trkpt><trkpt lat="44.8519933" lon="8.2058783"><ele>161.0</ele><time>2026-04-12T07:27:50.063Z</time></trkpt><trkpt lat="44.8519033" lon="8.2057633"><ele>161.0</ele><time>2026-04-12T07:27:52.064Z</time></trkpt><trkpt lat="44.8518183" lon="8.2056433"><ele>161.0</ele><time>2026-04-12T07:27:54.064Z</time></trkpt><trkpt lat="44.8517383" lon="8.2055183"><ele>161.0</ele><time>2026-04-12T07:27:56.064Z</time></trkpt><trkpt lat="44.851665" lon="8.2053783"><ele>161.5</ele><time>2026-04-12T07:27:58.063Z</time></trkpt><trkpt lat="44.8515933" lon="8.20523"><ele>162.0</ele><time>2026-04-12T07:28:00.063Z</time></trkpt><trkpt lat="44.8515283" lon="8.20509"><ele>162.5</ele><time>2026-04-12T07:28:02.061Z</time></trkpt><trkpt lat="44.8514667" lon="8.2049467"><ele>163.0</ele><time>2026-04-12T07:28:04.063Z</time></trkpt><trkpt lat="44.8514083" lon="8.2047933"><ele>164.75</ele><time>2026-04-12T07:28:06.063Z</time></trkpt><trkpt lat="44.8513483" lon="8.2046467"><ele>166.5</ele><time>2026-04-12T07:28:08.06Z</time></trkpt><trkpt lat="44.8512933" lon="8.2044967"><ele>168.25</ele><time>2026-04-12T07:28:10.065Z</time></trkpt><trkpt lat="44.8512367" lon="8.204345"><ele>170.0</ele><time>2026-04-12T07:28:12.063Z</time></trkpt><trkpt lat="44.85118" lon="8.2041983"><ele>170.0</ele><time>2026-04-12T07:28:14.063Z</time></trkpt><trkpt lat="44.8511183" lon="8.204055"><ele>170.0</ele><time>2026-04-12T07:28:16.061Z</time></trkpt><trkpt lat="44.8510283" lon="8.2039417"><ele>170.0</ele><time>2026-04-12T07:28:18.062Z</time></trkpt><trkpt lat="44.85092" lon="8.2038867"><ele>170.0</ele><time>2026-04-12T07:28:20.063Z</time></trkpt><trkpt lat="44.8508033" lon="8.203895"><ele>170.5</ele><time>2026-04-12T07:28:22.063Z</time></trkpt><trkpt lat="44.8506917" lon="8.20393"><ele>171.0</ele><time>2026-04-12T07:28:24.064Z</time></trkpt><trkpt lat="44.850585" lon="8.2039733"><ele>171.5</ele><time>2026-04-12T07:28:26.063Z</time></trkpt><trkpt lat="44.8504833" lon="8.2040417"><ele>172.0</ele><time>2026-04-12T07:28:28.062Z</time></trkpt><trkpt lat="44.850375" lon="8.2041233"><ele>170.57142857142858</ele><time>2026-04-12T07:28:30.061Z</time></trkpt><trkpt lat="44.8503167" lon="8.2041633"><ele>169.14285714285714</ele><time>2026-04-12T07:28:31.063Z</time></trkpt><trkpt lat="44.8502533" lon="8.2042017"><ele>167.71428571428572</ele><time>2026-04-12T07:28:32.064Z</time></trkpt><trkpt lat="44.850185" lon="8.204235"><ele>166.28571428571428</ele><time>2026-04-12T07:28:33.065Z</time></trkpt><trkpt lat="44.8501183" lon="8.2042667"><ele>164.85714285714286</ele><time>2026-04-12T07:28:34.064Z</time></trkpt><trkpt lat="44.85005" lon="8.2042917"><ele>163.42857142857144</ele><time>2026-04-12T07:28:35.062Z</time></trkpt><trkpt lat="44.84998" lon="8.2043067"><ele>162.0</ele><time>2026-04-12T07:28:36.066Z</time></trkpt><trkpt lat="44.84991" lon="8.20431"><ele>162.0</ele><time>2026-04-12T07:28:37.065Z</time></trkpt><trkpt lat="44.84984" lon="8.2043017"><ele>162.0</ele><time>2026-04-12T07:28:38.064Z</time></trkpt><trkpt lat="44.8497733" lon="8.2042817"><ele>162.0</ele><time>2026-04-12T07:28:39.067Z</time></trkpt><trkpt lat="44.84971" lon="8.204255"><ele>162.0</ele><time>2026-04-12T07:28:40.064Z</time></trkpt><trkpt lat="44.8496433" lon="8.204225"><ele>162.0</ele><time>2026-04-12T07:28:41.061Z</time></trkpt><trkpt lat="44.84958" lon="8.20419"><ele>162.0</ele><time>2026-04-12T07:28:42.063Z</time></trkpt><trkpt lat="44.84952" lon="8.20415"><ele>162.0</ele><time>2026-04-12T07:28:43.064Z</time></trkpt><trkpt lat="44.8494633" lon="8.2041033"><ele>162.0</ele><time>2026-04-12T07:28:44.064Z</time></trkpt><trkpt lat="44.8494033" lon="8.2040533"><ele>162.0</ele><time>2026-04-12T07:28:45.063Z</time></trkpt><trkpt lat="44.8493467" lon="8.2040033"><ele>162.0</ele><time>2026-04-12T07:28:46.063Z</time></trkpt><trkpt lat="44.8492933" lon="8.203945"><ele>162.0</ele><time>2026-04-12T07:28:47.062Z</time></trkpt><trkpt lat="44.8492433" lon="8.2038833"><ele>162.0</ele><time>2026-04-12T07:28:48.063Z</time></trkpt><trkpt lat="44.849195" lon="8.2038183"><ele>162.0</ele><time>2026-04-12T07:28:49.062Z</time></trkpt><trkpt lat="44.8491483" lon="8.203755"><ele>162.0</ele><time>2026-04-12T07:28:50.063Z</time></trkpt><trkpt lat="44.8491017" lon="8.2036933"><ele>162.42857142857144</ele><time>2026-04-12T07:28:51.063Z</time></trkpt><trkpt lat="44.8490533" lon="8.20363"><ele>162.85714285714286</ele><time>2026-04-12T07:28:52.063Z</time></trkpt><trkpt lat="44.8490083" lon="8.2035667"><ele>163.28571428571428</ele><time>2026-04-12T07:28:53.06Z</time></trkpt><trkpt lat="44.8489267" lon="8.2034433"><ele>163.71428571428572</ele><time>2026-04-12T07:28:55.064Z</time></trkpt><trkpt lat="44.8488833" lon="8.2033767"><ele>164.14285714285714</ele><time>2026-04-12T07:28:56.064Z</time></trkpt><trkpt lat="44.8488383" lon="8.20331"><ele>164.57142857142858</ele><time>2026-04-12T07:28:57.064Z</time></trkpt><trkpt lat="44.8487933" lon="8.2032433"><ele>165.0</ele><time>2026-04-12T07:28:58.064Z</time></trkpt><trkpt lat="44.8487483" lon="8.2031783"><ele>164.0</ele><time>2026-04-12T07:28:59.062Z</time></trkpt><trkpt lat="44.8486633" lon="8.2030483"><ele>163.0</ele><time>2026-04-12T07:29:01.064Z</time></trkpt><trkpt lat="44.848615" lon="8.20298"><ele>162.0</ele><time>2026-04-12T07:29:02.061Z</time></trkpt><trkpt lat="44.8485683" lon="8.2029133"><ele>161.0</ele><time>2026-04-12T07:29:03.062Z</time></trkpt><trkpt lat="44.8485267" lon="8.20284"><ele>160.0</ele><time>2026-04-12T07:29:04.061Z</time></trkpt><trkpt lat="44.84849" lon="8.20276"><ele>159.0</ele><time>2026-04-12T07:29:05.062Z</time></trkpt><trkpt lat="44.8484533" lon="8.2026767"><ele>159.0</ele><time>2026-04-12T07:29:06.058Z</time></trkpt><trkpt lat="44.8484183" lon="8.2025917"><ele>159.0</ele><time>2026-04-12T07:29:07.063Z</time></trkpt><trkpt lat="44.8483817" lon="8.202505"><ele>159.0</ele><time>2026-04-12T07:29:08.062Z</time></trkpt><trkpt lat="44.848345" lon="8.2024167"><ele>159.0</ele><time>2026-04-12T07:29:09.065Z</time></trkpt><trkpt lat="44.8483083" lon="8.2023283"><ele>159.0</ele><time>2026-04-12T07:29:10.063Z</time></trkpt><trkpt lat="44.8482683" lon="8.2022417"><ele>159.0</ele><time>2026-04-12T07:29:11.064Z</time></trkpt><trkpt lat="44.8482283" lon="8.2021517"><ele>159.0</ele><time>2026-04-12T07:29:12.063Z</time></trkpt><trkpt lat="44.8481917" lon="8.2020617"><ele>160.0</ele><time>2026-04-12T07:29:13.062Z</time></trkpt><trkpt lat="44.8481533" lon="8.2019717"><ele>161.0</ele><time>2026-04-12T07:29:14.062Z</time></trkpt><trkpt lat="44.8481183" lon="8.20188"><ele>162.0</ele><time>2026-04-12T07:29:15.063Z</time></trkpt><trkpt lat="44.84808" lon="8.2017933"><ele>163.0</ele><time>2026-04-12T07:29:16.062Z</time></trkpt><trkpt lat="44.8480383" lon="8.20171"><ele>164.0</ele><time>2026-04-12T07:29:17.061Z</time></trkpt><trkpt lat="44.84799" lon="8.2016333"><ele>165.0</ele><time>2026-04-12T07:29:18.062Z</time></trkpt><trkpt lat="44.84794" lon="8.201565"><ele>166.0</ele><time>2026-04-12T07:29:19.064Z</time></trkpt><trkpt lat="44.8478917" lon="8.2015017"><ele>165.7142857142857</ele><time>2026-04-12T07:29:20.063Z</time></trkpt><trkpt lat="44.8478383" lon="8.2014383"><ele>165.42857142857144</ele><time>2026-04-12T07:29:21.064Z</time></trkpt><trkpt lat="44.8477883" lon="8.2013733"><ele>165.14285714285714</ele><time>2026-04-12T07:29:22.062Z</time></trkpt><trkpt lat="44.847735" lon="8.2013133"><ele>164.85714285714283</ele><time>2026-04-12T07:29:23.061Z</time></trkpt><trkpt lat="44.8476833" lon="8.2012467"><ele>164.57142857142856</ele><time>2026-04-12T07:29:24.063Z</time></trkpt><trkpt lat="44.8476333" lon="8.2011783"><ele>164.28571428571428</ele><time>2026-04-12T07:29:25.063Z</time></trkpt><trkpt lat="44.8475883" lon="8.2011033"><ele>164.0</ele><time>2026-04-12T07:29:26.062Z</time></trkpt><trkpt lat="44.8475433" lon="8.2010283"><ele>163.99999999999997</ele><time>2026-04-12T07:29:27.062Z</time></trkpt><trkpt lat="44.8475033" lon="8.2009483"><ele>164.0</ele><time>2026-04-12T07:29:28.062Z</time></trkpt><trkpt lat="44.8474667" lon="8.2008667"><ele>164.0</ele><time>2026-04-12T07:29:29.062Z</time></trkpt><trkpt lat="44.8474317" lon="8.2007817"><ele>164.0</ele><time>2026-04-12T07:29:30.062Z</time></trkpt><trkpt lat="44.8473983" lon="8.2006967"><ele>164.0</ele><time>2026-04-12T07:29:31.063Z</time></trkpt><trkpt lat="44.8473717" lon="8.20061"><ele>163.99999999999997</ele><time>2026-04-12T07:29:32.064Z</time></trkpt><trkpt lat="44.847345" lon="8.20052"><ele>164.0</ele><time>2026-04-12T07:29:33.063Z</time></trkpt><trkpt lat="44.84732" lon="8.2004283"><ele>163.85714285714283</ele><time>2026-04-12T07:29:34.065Z</time></trkpt><trkpt lat="44.847295" lon="8.2003367"><ele>163.71428571428572</ele><time>2026-04-12T07:29:35.059Z</time></trkpt><trkpt lat="44.84727" lon="8.2002433"><ele>163.57142857142856</ele><time>2026-04-12T07:29:36.062Z</time></trkpt><trkpt lat="44.847245" lon="8.20015"><ele>163.42857142857142</ele><time>2026-04-12T07:29:37.063Z</time></trkpt><trkpt lat="44.8472183" lon="8.200055"><ele>163.28571428571428</ele><time>2026-04-12T07:29:38.064Z</time></trkpt><trkpt lat="44.8471917" lon="8.1999633"><ele>163.14285714285714</ele><time>2026-04-12T07:29:39.067Z</time></trkpt><trkpt lat="44.847165" lon="8.199875"><ele>163.0</ele><time>2026-04-12T07:29:40.063Z</time></trkpt><trkpt lat="44.8471383" lon="8.1997883"><ele>161.20000000000002</ele><time>2026-04-12T07:29:41.063Z</time></trkpt><trkpt lat="44.84712" lon="8.1997033"><ele>159.4</ele><time>2026-04-12T07:29:42.063Z</time></trkpt><trkpt lat="44.8471017" lon="8.1996183"><ele>157.60000000000002</ele><time>2026-04-12T07:29:43.063Z</time></trkpt><trkpt lat="44.847055" lon="8.199465"><ele>155.8</ele><time>2026-04-12T07:29:45.065Z</time></trkpt><trkpt lat="44.8470017" lon="8.1993133"><ele>154.0</ele><time>2026-04-12T07:29:47.062Z</time></trkpt><trkpt lat="44.846935" lon="8.199185"><ele>154.0</ele><time>2026-04-12T07:29:49.064Z</time></trkpt><trkpt lat="44.8468583" lon="8.1990767"><ele>154.0</ele><time>2026-04-12T07:29:51.064Z</time></trkpt><trkpt lat="44.8467717" lon="8.1989767"><ele>154.0</ele><time>2026-04-12T07:29:53.063Z</time></trkpt><trkpt lat="44.8466833" lon="8.1988783"><ele>154.0</ele><time>2026-04-12T07:29:55.063Z</time></trkpt><trkpt lat="44.846595" lon="8.1988017"><ele>154.0</ele><time>2026-04-12T07:29:57.063Z</time></trkpt><trkpt lat="44.8464983" lon="8.1987367"><ele>153.2</ele><time>2026-04-12T07:29:59.06Z</time></trkpt><trkpt lat="44.8463967" lon="8.1986683"><ele>152.4</ele><time>2026-04-12T07:30:01.063Z</time></trkpt><trkpt lat="44.8462867" lon="8.198635"><ele>151.6</ele><time>2026-04-12T07:30:03.062Z</time></trkpt><trkpt lat="44.8461817" lon="8.19866"><ele>150.8</ele><time>2026-04-12T07:30:05.062Z</time></trkpt><trkpt lat="44.8460917" lon="8.1987483"><ele>150.0</ele><time>2026-04-12T07:30:07.063Z</time></trkpt><trkpt lat="44.8460133" lon="8.1988517"><ele>152.4</ele><time>2026-04-12T07:30:09.063Z</time></trkpt><trkpt lat="44.84594" lon="8.1989467"><ele>154.8</ele><time>2026-04-12T07:30:11.063Z</time></trkpt><trkpt lat="44.8458617" lon="8.199035"><ele>157.2</ele><time>2026-04-12T07:30:13.063Z</time></trkpt><trkpt lat="44.84578" lon="8.199115"><ele>159.6</ele><time>2026-04-12T07:30:15.062Z</time></trkpt><trkpt lat="44.84569" lon="8.1991833"><ele>162.0</ele><time>2026-04-12T07:30:17.063Z</time></trkpt><trkpt lat="44.8455933" lon="8.199235"><ele>162.0</ele><time>2026-04-12T07:30:19.064Z</time></trkpt><trkpt lat="44.8454917" lon="8.1992867"><ele>162.0</ele><time>2026-04-12T07:30:21.065Z</time></trkpt><trkpt lat="44.8453933" lon="8.1993417"><ele>162.0</ele><time>2026-04-12T07:30:23.062Z</time></trkpt><trkpt lat="44.8452983" lon="8.1994"><ele>162.0</ele><time>2026-04-12T07:30:25.064Z</time></trkpt><trkpt lat="44.8452033" lon="8.1994583"><ele>162.0</ele><time>2026-04-12T07:30:27.063Z</time></trkpt><trkpt lat="44.8451117" lon="8.1995183"><ele>161.6</ele><time>2026-04-12T07:30:29.063Z</time></trkpt><trkpt lat="44.8450267" lon="8.199585"><ele>161.2</ele><time>2026-04-12T07:30:31.061Z</time></trkpt><trkpt lat="44.844945" lon="8.1996533"><ele>160.8</ele><time>2026-04-12T07:30:33.064Z</time></trkpt><trkpt lat="44.844865" lon="8.1997267"><ele>160.4</ele><time>2026-04-12T07:30:35.062Z</time></trkpt><trkpt lat="44.844795" lon="8.1998017"><ele>160.0</ele><time>2026-04-12T07:30:37.061Z</time></trkpt><trkpt lat="44.8447283" lon="8.1998783"><ele>160.66666666666669</ele><time>2026-04-12T07:30:39.062Z</time></trkpt><trkpt lat="44.84466" lon="8.1999533"><ele>161.33333333333334</ele><time>2026-04-12T07:30:41.061Z</time></trkpt><trkpt lat="44.844595" lon="8.2000267"><ele>162.0</ele><time>2026-04-12T07:30:43.062Z</time></trkpt><trkpt lat="44.844535" lon="8.2000967"><ele>162.66666666666666</ele><time>2026-04-12T07:30:45.063Z</time></trkpt><trkpt lat="44.84448" lon="8.2001667"><ele>163.33333333333331</ele><time>2026-04-12T07:30:47.061Z</time></trkpt><trkpt lat="44.8444283" lon="8.2002367"><ele>164.0</ele><time>2026-04-12T07:30:49.063Z</time></trkpt><trkpt lat="44.8443733" lon="8.2003083"><ele>164.0</ele><time>2026-04-12T07:30:51.062Z</time></trkpt><trkpt lat="44.8443217" lon="8.2003833"><ele>164.0</ele><time>2026-04-12T07:30:53.063Z</time></trkpt><trkpt lat="44.8442667" lon="8.2004583"><ele>164.0</ele><time>2026-04-12T07:30:55.066Z</time></trkpt><trkpt lat="44.844215" lon="8.20054"><ele>164.0</ele><time>2026-04-12T07:30:57.062Z</time></trkpt><trkpt lat="44.8441617" lon="8.2006283"><ele>164.0</ele><time>2026-04-12T07:30:59.062Z</time></trkpt><trkpt lat="44.8441117" lon="8.2007183"><ele>164.0</ele><time>2026-04-12T07:31:01.063Z</time></trkpt><trkpt lat="44.8440667" lon="8.2008033"><ele>164.85714285714283</ele><time>2026-04-12T07:31:03.064Z</time></trkpt><trkpt lat="44.8440217" lon="8.20089"><ele>165.71428571428572</ele><time>2026-04-12T07:31:05.061Z</time></trkpt><trkpt lat="44.8439817" lon="8.200985"><ele>166.57142857142856</ele><time>2026-04-12T07:31:07.062Z</time></trkpt><trkpt lat="44.8439483" lon="8.20108"><ele>167.42857142857142</ele><time>2026-04-12T07:31:09.063Z</time></trkpt><trkpt lat="44.843915" lon="8.2011683"><ele>168.28571428571428</ele><time>2026-04-12T07:31:11.063Z</time></trkpt><trkpt lat="44.8438833" lon="8.20126"><ele>169.14285714285714</ele><time>2026-04-12T07:31:13.063Z</time></trkpt><trkpt lat="44.8438533" lon="8.20135"><ele>170.0</ele><time>2026-04-12T07:31:15.064Z</time></trkpt><trkpt lat="44.8438233" lon="8.2014433"><ele>171.71428571428572</ele><time>2026-04-12T07:31:17.063Z</time></trkpt><trkpt lat="44.8437967" lon="8.20153"><ele>173.42857142857142</ele><time>2026-04-12T07:31:19.064Z</time></trkpt><trkpt lat="44.8437633" lon="8.2016117"><ele>175.14285714285714</ele><time>2026-04-12T07:31:21.061Z</time></trkpt><trkpt lat="44.84372" lon="8.2016883"><ele>176.85714285714286</ele><time>2026-04-12T07:31:23.061Z</time></trkpt><trkpt lat="44.8436717" lon="8.2017483"><ele>178.57142857142856</ele><time>2026-04-12T07:31:25.062Z</time></trkpt><trkpt lat="44.84362" lon="8.2018017"><ele>180.28571428571428</ele><time>2026-04-12T07:31:27.063Z</time></trkpt><trkpt lat="44.843565" lon="8.2018517"><ele>182.0</ele><time>2026-04-12T07:31:29.062Z</time></trkpt><trkpt lat="44.8435067" lon="8.2018967"><ele>180.85714285714286</ele><time>2026-04-12T07:31:31.064Z</time></trkpt><trkpt lat="44.843445" lon="8.2019367"><ele>179.71428571428572</ele><time>2026-04-12T07:31:33.062Z</time></trkpt><trkpt lat="44.8433783" lon="8.201975"><ele>178.57142857142856</ele><time>2026-04-12T07:31:35.062Z</time></trkpt><trkpt lat="44.8433133" lon="8.202015"><ele>177.42857142857144</ele><time>2026-04-12T07:31:37.063Z</time></trkpt><trkpt lat="44.8432433" lon="8.20205"><ele>176.28571428571428</ele><time>2026-04-12T07:31:39.065Z</time></trkpt><trkpt lat="44.8431767" lon="8.2020917"><ele>175.14285714285714</ele><time>2026-04-12T07:31:41.061Z</time></trkpt><trkpt lat="44.8431117" lon="8.2021317"><ele>174.0</ele><time>2026-04-12T07:31:43.064Z</time></trkpt><trkpt lat="44.8430467" lon="8.2021667"><ele>174.0</ele><time>2026-04-12T07:31:45.064Z</time></trkpt><trkpt lat="44.8429817" lon="8.202195"><ele>174.0</ele><time>2026-04-12T07:31:47.062Z</time></trkpt><trkpt lat="44.8429183" lon="8.2022233"><ele>174.0</ele><time>2026-04-12T07:31:49.063Z</time></trkpt><trkpt lat="44.84285" lon="8.20225"><ele>174.0</ele><time>2026-04-12T07:31:51.062Z</time></trkpt><trkpt lat="44.8427767" lon="8.2022683"><ele>174.0</ele><time>2026-04-12T07:31:53.061Z</time></trkpt><trkpt lat="44.84271" lon="8.202295"><ele>174.0</ele><time>2026-04-12T07:31:55.061Z</time></trkpt><trkpt lat="44.8426367" lon="8.2023767"><ele>174.0</ele><time>2026-04-12T07:31:58.062Z</time></trkpt><trkpt lat="44.8426167" lon="8.202465"><ele>175.57142857142856</ele><time>2026-04-12T07:32:00.064Z</time></trkpt><trkpt lat="44.8426383" lon="8.2025567"><ele>177.14285714285714</ele><time>2026-04-12T07:32:02.062Z</time></trkpt><trkpt lat="44.8426867" lon="8.2026333"><ele>178.71428571428572</ele><time>2026-04-12T07:32:04.061Z</time></trkpt><trkpt lat="44.8427483" lon="8.202665"><ele>180.28571428571428</ele><time>2026-04-12T07:32:06.063Z</time></trkpt><trkpt lat="44.8428167" lon="8.202675"><ele>181.85714285714286</ele><time>2026-04-12T07:32:08.064Z</time></trkpt><trkpt lat="44.8428833" lon="8.202675"><ele>183.42857142857142</ele><time>2026-04-12T07:32:10.062Z</time></trkpt><trkpt lat="44.8429517" lon="8.20268"><ele>185.0</ele><time>2026-04-12T07:32:12.062Z</time></trkpt><trkpt lat="44.8430183" lon="8.2027067"><ele>184.99999999999997</ele><time>2026-04-12T07:32:14.063Z</time></trkpt><trkpt lat="44.8430817" lon="8.20275"><ele>185.0</ele><time>2026-04-12T07:32:16.063Z</time></trkpt><trkpt lat="44.843145" lon="8.2028017"><ele>185.0</ele><time>2026-04-12T07:32:18.062Z</time></trkpt><trkpt lat="44.8432017" lon="8.2028567"><ele>185.0</ele><time>2026-04-12T07:32:20.062Z</time></trkpt><trkpt lat="44.8432533" lon="8.202925"><ele>185.0</ele><time>2026-04-12T07:32:22.063Z</time></trkpt><trkpt lat="44.8432983" lon="8.2029967"><ele>184.99999999999997</ele><time>2026-04-12T07:32:24.062Z</time></trkpt><trkpt lat="44.843345" lon="8.2030983"><ele>185.0</ele><time>2026-04-12T07:32:27.065Z</time></trkpt><trkpt lat="44.8433683" lon="8.20319"><ele>186.83333333333331</ele><time>2026-04-12T07:32:29.063Z</time></trkpt><trkpt lat="44.8433783" lon="8.2032867"><ele>188.66666666666666</ele><time>2026-04-12T07:32:31.063Z</time></trkpt><trkpt lat="44.84335" lon="8.2034133"><ele>190.5</ele><time>2026-04-12T07:32:34.062Z</time></trkpt><trkpt lat="44.8433283" lon="8.2035033"><ele>192.33333333333331</ele><time>2026-04-12T07:32:37.063Z</time></trkpt><trkpt lat="44.8432833" lon="8.2036067"><ele>194.16666666666666</ele><time>2026-04-12T07:32:40.063Z</time></trkpt><trkpt lat="44.8432283" lon="8.2036817"><ele>196.0</ele><time>2026-04-12T07:32:42.063Z</time></trkpt><trkpt lat="44.8431667" lon="8.2037533"><ele>195.99999999999997</ele><time>2026-04-12T07:32:44.062Z</time></trkpt><trkpt lat="44.8431083" lon="8.20383"><ele>196.0</ele><time>2026-04-12T07:32:46.061Z</time></trkpt><trkpt lat="44.843065" lon="8.2039117"><ele>196.0</ele><time>2026-04-12T07:32:48.063Z</time></trkpt><trkpt lat="44.8430117" lon="8.203995"><ele>196.0</ele><time>2026-04-12T07:32:50.063Z</time></trkpt><trkpt lat="44.842955" lon="8.204075"><ele>195.99999999999997</ele><time>2026-04-12T07:32:52.064Z</time></trkpt><trkpt lat="44.8428967" lon="8.2041533"><ele>196.0</ele><time>2026-04-12T07:32:54.064Z</time></trkpt><trkpt lat="44.8428333" lon="8.2042317"><ele>195.20000000000002</ele><time>2026-04-12T07:32:56.063Z</time></trkpt><trkpt lat="44.8427717" lon="8.20432"><ele>194.4</ele><time>2026-04-12T07:32:58.063Z</time></trkpt><trkpt lat="44.8427033" lon="8.2044133"><ele>193.6</ele><time>2026-04-12T07:33:00.062Z</time></trkpt><trkpt lat="44.8426383" lon="8.2045133"><ele>192.8</ele><time>2026-04-12T07:33:02.064Z</time></trkpt><trkpt lat="44.8425683" lon="8.2046"><ele>192.0</ele><time>2026-04-12T07:33:04.064Z</time></trkpt><trkpt lat="44.8425033" lon="8.2046683"><ele>192.57142857142856</ele><time>2026-04-12T07:33:06.064Z</time></trkpt><trkpt lat="44.8424433" lon="8.2047317"><ele>193.14285714285714</ele><time>2026-04-12T07:33:08.063Z</time></trkpt><trkpt lat="44.84238" lon="8.2047867"><ele>193.71428571428572</ele><time>2026-04-12T07:33:10.063Z</time></trkpt><trkpt lat="44.8423183" lon="8.2048433"><ele>194.28571428571428</ele><time>2026-04-12T07:33:12.065Z</time></trkpt><trkpt lat="44.8422633" lon="8.2048967"><ele>194.85714285714286</ele><time>2026-04-12T07:33:14.063Z</time></trkpt><trkpt lat="44.84221" lon="8.204955"><ele>195.42857142857142</ele><time>2026-04-12T07:33:16.062Z</time></trkpt><trkpt lat="44.84216" lon="8.2050233"><ele>196.0</ele><time>2026-04-12T07:33:18.063Z</time></trkpt><trkpt lat="44.8421033" lon="8.2050967"><ele>196.0</ele><time>2026-04-12T07:33:20.063Z</time></trkpt><trkpt lat="44.8420367" lon="8.20516"><ele>196.0</ele><time>2026-04-12T07:33:22.063Z</time></trkpt><trkpt lat="44.841945" lon="8.205235"><ele>196.0</ele><time>2026-04-12T07:33:24.063Z</time></trkpt><trkpt lat="44.8418383" lon="8.2053117"><ele>196.0</ele><time>2026-04-12T07:33:26.063Z</time></trkpt><trkpt lat="44.8417317" lon="8.2053917"><ele>196.0</ele><time>2026-04-12T07:33:28.064Z</time></trkpt><trkpt lat="44.8416183" lon="8.2054517"><ele>195.60000000000002</ele><time>2026-04-12T07:33:30.058Z</time></trkpt><trkpt lat="44.8415117" lon="8.2055183"><ele>195.2</ele><time>2026-04-12T07:33:32.064Z</time></trkpt><trkpt lat="44.8414217" lon="8.2055967"><ele>194.8</ele><time>2026-04-12T07:33:34.064Z</time></trkpt><trkpt lat="44.8413517" lon="8.2056833"><ele>194.39999999999998</ele><time>2026-04-12T07:33:36.065Z</time></trkpt><trkpt lat="44.84127" lon="8.2057867"><ele>194.0</ele><time>2026-04-12T07:33:38.064Z</time></trkpt><trkpt lat="44.8411867" lon="8.205885"><ele>194.0</ele><time>2026-04-12T07:33:40.065Z</time></trkpt><trkpt lat="44.841105" lon="8.2059883"><ele>194.0</ele><time>2026-04-12T07:33:42.069Z</time></trkpt><trkpt lat="44.841035" lon="8.2060917"><ele>194.0</ele><time>2026-04-12T07:33:44.065Z</time></trkpt><trkpt lat="44.8409617" lon="8.206185"><ele>194.0</ele><time>2026-04-12T07:33:46.063Z</time></trkpt><trkpt lat="44.8408833" lon="8.2062667"><ele>194.0</ele><time>2026-04-12T07:33:48.063Z</time></trkpt><trkpt lat="44.8408017" lon="8.2063283"><ele>194.33333333333334</ele><time>2026-04-12T07:33:50.063Z</time></trkpt><trkpt lat="44.8407233" lon="8.2063717"><ele>194.66666666666669</ele><time>2026-04-12T07:33:52.064Z</time></trkpt><trkpt lat="44.84065" lon="8.20641"><ele>195.0</ele><time>2026-04-12T07:33:54.062Z</time></trkpt><trkpt lat="44.84058" lon="8.2064367"><ele>195.33333333333331</ele><time>2026-04-12T07:33:56.064Z</time></trkpt><trkpt lat="44.8405167" lon="8.2064617"><ele>195.66666666666666</ele><time>2026-04-12T07:33:58.063Z</time></trkpt><trkpt lat="44.8404517" lon="8.2064833"><ele>196.0</ele><time>2026-04-12T07:34:00.063Z</time></trkpt><trkpt lat="44.84037" lon="8.2065117"><ele>196.0</ele><time>2026-04-12T07:34:03.062Z</time></trkpt><trkpt lat="44.8402933" lon="8.2065167"><ele>196.0</ele><time>2026-04-12T07:34:06.066Z</time></trkpt><trkpt lat="44.84022" lon="8.20649"><ele>196.0</ele><time>2026-04-12T07:34:09.063Z</time></trkpt><trkpt lat="44.8401567" lon="8.2064867"><ele>196.0</ele><time>2026-04-12T07:34:12.062Z</time></trkpt><trkpt lat="44.8400883" lon="8.2064683"><ele>196.0</ele><time>2026-04-12T07:34:15.066Z</time></trkpt><trkpt lat="44.840015" lon="8.20646"><ele>196.0</ele><time>2026-04-12T07:34:18.062Z</time></trkpt><trkpt lat="44.83993" lon="8.206445"><ele>196.0</ele><time>2026-04-12T07:34:22.065Z</time></trkpt><trkpt lat="44.8398483" lon="8.206425"><ele>199.71428571428572</ele><time>2026-04-12T07:34:26.062Z</time></trkpt><trkpt lat="44.8397867" lon="8.206405"><ele>203.42857142857144</ele><time>2026-04-12T07:34:29.062Z</time></trkpt><trkpt lat="44.8397233" lon="8.2063883"><ele>207.14285714285714</ele><time>2026-04-12T07:34:32.064Z</time></trkpt><trkpt lat="44.8396567" lon="8.20634"><ele>210.85714285714286</ele><time>2026-04-12T07:34:36.061Z</time></trkpt><trkpt lat="44.8395867" lon="8.206305"><ele>214.57142857142858</ele><time>2026-04-12T07:34:40.061Z</time></trkpt><trkpt lat="44.839525" lon="8.20628"><ele>218.28571428571428</ele><time>2026-04-12T07:34:43.064Z</time></trkpt><trkpt lat="44.8394533" lon="8.2062567"><ele>222.0</ele><time>2026-04-12T07:34:46.064Z</time></trkpt><trkpt lat="44.8393733" lon="8.2062417"><ele>222.83333333333334</ele><time>2026-04-12T07:34:49.063Z</time></trkpt><trkpt lat="44.8392883" lon="8.20622"><ele>223.66666666666669</ele><time>2026-04-12T07:34:52.065Z</time></trkpt><trkpt lat="44.8392017" lon="8.2062"><ele>224.5</ele><time>2026-04-12T07:34:55.061Z</time></trkpt><trkpt lat="44.839115" lon="8.2061883"><ele>225.33333333333334</ele><time>2026-04-12T07:34:58.064Z</time></trkpt><trkpt lat="44.839025" lon="8.20618"><ele>226.16666666666669</ele><time>2026-04-12T07:35:01.063Z</time></trkpt><trkpt lat="44.8389567" lon="8.2061783"><ele>227.0</ele><time>2026-04-12T07:35:03.071Z</time></trkpt><trkpt lat="44.8388683" lon="8.2061933"><ele>227.00000000000003</ele><time>2026-04-12T07:35:06.062Z</time></trkpt><trkpt lat="44.8387733" lon="8.2061867"><ele>227.0</ele><time>2026-04-12T07:35:09.064Z</time></trkpt><trkpt lat="44.8386883" lon="8.2061967"><ele>227.0</ele><time>2026-04-12T07:35:12.062Z</time></trkpt><trkpt lat="44.83861" lon="8.2061983"><ele>227.0</ele><time>2026-04-12T07:35:16.064Z</time></trkpt><trkpt lat="44.8385317" lon="8.2062083"><ele>227.00000000000003</ele><time>2026-04-12T07:35:19.063Z</time></trkpt><trkpt lat="44.8384617" lon="8.206195"><ele>227.0</ele><time>2026-04-12T07:35:22.061Z</time></trkpt><trkpt lat="44.83839" lon="8.2061933"><ele>228.00000000000003</ele><time>2026-04-12T07:35:25.063Z</time></trkpt><trkpt lat="44.8383167" lon="8.206195"><ele>229.0</ele><time>2026-04-12T07:35:28.063Z</time></trkpt><trkpt lat="44.8382417" lon="8.2061967"><ele>230.0</ele><time>2026-04-12T07:35:31.064Z</time></trkpt><trkpt lat="44.8381617" lon="8.2062083"><ele>231.0</ele><time>2026-04-12T07:35:34.063Z</time></trkpt><trkpt lat="44.8380967" lon="8.2062133"><ele>232.00000000000003</ele><time>2026-04-12T07:35:36.062Z</time></trkpt><trkpt lat="44.83802" lon="8.2062217"><ele>233.0</ele><time>2026-04-12T07:35:38.062Z</time></trkpt><trkpt lat="44.8379283" lon="8.2062167"><ele>233.0</ele><time>2026-04-12T07:35:40.064Z</time></trkpt><trkpt lat="44.8378367" lon="8.2062083"><ele>233.0</ele><time>2026-04-12T07:35:42.064Z</time></trkpt><trkpt lat="44.837745" lon="8.2061967"><ele>233.0</ele><time>2026-04-12T07:35:44.063Z</time></trkpt><trkpt lat="44.8376483" lon="8.2061917"><ele>233.0</ele><time>2026-04-12T07:35:46.062Z</time></trkpt><trkpt lat="44.8375567" lon="8.2061833"><ele>233.0</ele><time>2026-04-12T07:35:48.063Z</time></trkpt><trkpt lat="44.8374633" lon="8.2061867"><ele>233.16666666666669</ele><time>2026-04-12T07:35:50.062Z</time></trkpt><trkpt lat="44.8373767" lon="8.2062283"><ele>233.33333333333334</ele><time>2026-04-12T07:35:52.064Z</time></trkpt><trkpt lat="44.8373183" lon="8.2063283"><ele>233.5</ele><time>2026-04-12T07:35:54.064Z</time></trkpt><trkpt lat="44.83729" lon="8.206445"><ele>233.66666666666669</ele><time>2026-04-12T07:35:56.063Z</time></trkpt><trkpt lat="44.8372933" lon="8.2065667"><ele>233.83333333333334</ele><time>2026-04-12T07:35:58.063Z</time></trkpt><trkpt lat="44.8373083" lon="8.206695"><ele>234.0</ele><time>2026-04-12T07:36:00.065Z</time></trkpt><trkpt lat="44.8373217" lon="8.2068283"><ele>232.0</ele><time>2026-04-12T07:36:02.064Z</time></trkpt><trkpt lat="44.8373333" lon="8.206975"><ele>229.99999999999997</ele><time>2026-04-12T07:36:04.063Z</time></trkpt><trkpt lat="44.8373617" lon="8.2071317"><ele>227.99999999999997</ele><time>2026-04-12T07:36:06.058Z</time></trkpt><trkpt lat="44.8373733" lon="8.20722"><ele>226.0</ele><time>2026-04-12T07:36:07.057Z</time></trkpt><trkpt lat="44.83737" lon="8.20738"><ele>224.0</ele><time>2026-04-12T07:36:09.063Z</time></trkpt><trkpt lat="44.8373033" lon="8.207465"><ele>224.00000000000003</ele><time>2026-04-12T07:36:11.066Z</time></trkpt><trkpt lat="44.83721" lon="8.207485"><ele>224.0</ele><time>2026-04-12T07:36:13.063Z</time></trkpt><trkpt lat="44.8371283" lon="8.2074683"><ele>224.0</ele><time>2026-04-12T07:36:15.06Z</time></trkpt><trkpt lat="44.8370567" lon="8.2074267"><ele>224.0</ele><time>2026-04-12T07:36:17.061Z</time></trkpt><trkpt lat="44.8369767" lon="8.207385"><ele>224.00000000000003</ele><time>2026-04-12T07:36:19.062Z</time></trkpt><trkpt lat="44.8369017" lon="8.207345"><ele>224.0</ele><time>2026-04-12T07:36:21.063Z</time></trkpt><trkpt lat="44.836815" lon="8.207305"><ele>226.0</ele><time>2026-04-12T07:36:23.062Z</time></trkpt><trkpt lat="44.8367267" lon="8.20727"><ele>227.99999999999997</ele><time>2026-04-12T07:36:25.064Z</time></trkpt><trkpt lat="44.8366417" lon="8.2072383"><ele>229.99999999999997</ele><time>2026-04-12T07:36:27.066Z</time></trkpt><trkpt lat="44.836555" lon="8.2072083"><ele>232.0</ele><time>2026-04-12T07:36:29.063Z</time></trkpt><trkpt lat="44.83647" lon="8.207175"><ele>234.0</ele><time>2026-04-12T07:36:31.064Z</time></trkpt><trkpt lat="44.8363817" lon="8.2071333"><ele>234.0</ele><time>2026-04-12T07:36:33.062Z</time></trkpt><trkpt lat="44.8362917" lon="8.2070883"><ele>234.0</ele><time>2026-04-12T07:36:35.061Z</time></trkpt><trkpt lat="44.83621" lon="8.2070533"><ele>234.0</ele><time>2026-04-12T07:36:37.064Z</time></trkpt><trkpt lat="44.836135" lon="8.2070067"><ele>234.0</ele><time>2026-04-12T07:36:39.066Z</time></trkpt><trkpt lat="44.8360567" lon="8.2069783"><ele>234.0</ele><time>2026-04-12T07:36:41.06Z</time></trkpt><trkpt lat="44.8359867" lon="8.20693"><ele>234.0</ele><time>2026-04-12T07:36:43.062Z</time></trkpt><trkpt lat="44.8359083" lon="8.20688"><ele>233.33333333333334</ele><time>2026-04-12T07:36:45.064Z</time></trkpt><trkpt lat="44.8358367" lon="8.2068367"><ele>232.66666666666669</ele><time>2026-04-12T07:36:47.062Z</time></trkpt><trkpt lat="44.83577" lon="8.2067883"><ele>232.0</ele><time>2026-04-12T07:36:49.065Z</time></trkpt><trkpt lat="44.835695" lon="8.2067333"><ele>231.33333333333334</ele><time>2026-04-12T07:36:51.063Z</time></trkpt><trkpt lat="44.8356117" lon="8.206675"><ele>230.66666666666669</ele><time>2026-04-12T07:36:53.062Z</time></trkpt><trkpt lat="44.83553" lon="8.206615"><ele>230.0</ele><time>2026-04-12T07:36:55.063Z</time></trkpt><trkpt lat="44.8354467" lon="8.2065417"><ele>230.8</ele><time>2026-04-12T07:36:57.063Z</time></trkpt><trkpt lat="44.8353533" lon="8.2064633"><ele>231.6</ele><time>2026-04-12T07:36:59.062Z</time></trkpt><trkpt lat="44.83526" lon="8.2063833"><ele>232.39999999999998</ele><time>2026-04-12T07:37:01.065Z</time></trkpt><trkpt lat="44.8351667" lon="8.2062983"><ele>233.2</ele><time>2026-04-12T07:37:03.065Z</time></trkpt><trkpt lat="44.8350833" lon="8.2062033"><ele>234.0</ele><time>2026-04-12T07:37:05.061Z</time></trkpt><trkpt lat="44.8349917" lon="8.2061217"><ele>234.0</ele><time>2026-04-12T07:37:07.064Z</time></trkpt><trkpt lat="44.83489" lon="8.2060533"><ele>234.0</ele><time>2026-04-12T07:37:09.065Z</time></trkpt><trkpt lat="44.8348317" lon="8.2060183"><ele>234.0</ele><time>2026-04-12T07:37:10.063Z</time></trkpt><trkpt lat="44.8347717" lon="8.2059817"><ele>234.0</ele><time>2026-04-12T07:37:11.064Z</time></trkpt><trkpt lat="44.8347117" lon="8.20595"><ele>234.0</ele><time>2026-04-12T07:37:12.063Z</time></trkpt><trkpt lat="44.8345983" lon="8.2058983"><ele>234.0</ele><time>2026-04-12T07:37:14.064Z</time></trkpt><trkpt lat="44.834485" lon="8.20585"><ele>234.0</ele><time>2026-04-12T07:37:16.061Z</time></trkpt><trkpt lat="44.834375" lon="8.2057933"><ele>233.99999999999997</ele><time>2026-04-12T07:37:18.062Z</time></trkpt><trkpt lat="44.8342733" lon="8.2057417"><ele>233.99999999999997</ele><time>2026-04-12T07:37:20.063Z</time></trkpt><trkpt lat="44.8341667" lon="8.20569"><ele>234.0</ele><time>2026-04-12T07:37:22.063Z</time></trkpt><trkpt lat="44.8340633" lon="8.20564"><ele>234.0</ele><time>2026-04-12T07:37:24.064Z</time></trkpt><trkpt lat="44.833965" lon="8.2055967"><ele>232.66666666666666</ele><time>2026-04-12T07:37:26.063Z</time></trkpt><trkpt lat="44.8338717" lon="8.2055467"><ele>231.33333333333331</ele><time>2026-04-12T07:37:28.063Z</time></trkpt><trkpt lat="44.8338033" lon="8.205485"><ele>230.0</ele><time>2026-04-12T07:37:30.063Z</time></trkpt><trkpt lat="44.833765" lon="8.205405"><ele>228.66666666666666</ele><time>2026-04-12T07:37:32.061Z</time></trkpt><trkpt lat="44.83377" lon="8.2052917"><ele>227.33333333333331</ele><time>2026-04-12T07:37:34.061Z</time></trkpt><trkpt lat="44.8338283" lon="8.2051667"><ele>226.0</ele><time>2026-04-12T07:37:36.062Z</time></trkpt><trkpt lat="44.8339083" lon="8.2050517"><ele>226.0</ele><time>2026-04-12T07:37:38.062Z</time></trkpt><trkpt lat="44.8340067" lon="8.20496"><ele>226.0</ele><time>2026-04-12T07:37:40.062Z</time></trkpt><trkpt lat="44.8341033" lon="8.2048733"><ele>226.0</ele><time>2026-04-12T07:37:42.062Z</time></trkpt><trkpt lat="44.834205" lon="8.20478"><ele>226.0</ele><time>2026-04-12T07:37:44.064Z</time></trkpt><trkpt lat="44.8343033" lon="8.2046817"><ele>226.0</ele><time>2026-04-12T07:37:46.064Z</time></trkpt><trkpt lat="44.8344017" lon="8.2045817"><ele>226.00000000000003</ele><time>2026-04-12T07:37:48.062Z</time></trkpt><trkpt lat="44.8344983" lon="8.2044867"><ele>226.00000000000003</ele><time>2026-04-12T07:37:50.063Z</time></trkpt><trkpt lat="44.8345983" lon="8.20439"><ele>226.0</ele><time>2026-04-12T07:37:52.064Z</time></trkpt><trkpt lat="44.8346517" lon="8.2043417"><ele>226.0</ele><time>2026-04-12T07:37:53.062Z</time></trkpt><trkpt lat="44.8347617" lon="8.2042433"><ele>226.0</ele><time>2026-04-12T07:37:55.063Z</time></trkpt><trkpt lat="44.8348167" lon="8.204185"><ele>226.0</ele><time>2026-04-12T07:37:56.063Z</time></trkpt><trkpt lat="44.8348733" lon="8.2041233"><ele>226.0</ele><time>2026-04-12T07:37:57.063Z</time></trkpt><trkpt lat="44.83493" lon="8.2040583"><ele>226.0</ele><time>2026-04-12T07:37:58.062Z</time></trkpt><trkpt lat="44.83499" lon="8.2039917"><ele>226.0</ele><time>2026-04-12T07:37:59.064Z</time></trkpt><trkpt lat="44.83505" lon="8.2039233"><ele>226.0</ele><time>2026-04-12T07:38:00.062Z</time></trkpt><trkpt lat="44.83511" lon="8.2038567"><ele>226.0</ele><time>2026-04-12T07:38:01.061Z</time></trkpt><trkpt lat="44.8351717" lon="8.2037883"><ele>226.33333333333331</ele><time>2026-04-12T07:38:02.062Z</time></trkpt><trkpt lat="44.835235" lon="8.2037167"><ele>226.66666666666666</ele><time>2026-04-12T07:38:03.065Z</time></trkpt><trkpt lat="44.835295" lon="8.2036417"><ele>227.0</ele><time>2026-04-12T07:38:04.06Z</time></trkpt><trkpt lat="44.8353517" lon="8.2035633"><ele>227.33333333333331</ele><time>2026-04-12T07:38:05.063Z</time></trkpt><trkpt lat="44.835405" lon="8.2034783"><ele>227.66666666666666</ele><time>2026-04-12T07:38:06.062Z</time></trkpt><trkpt lat="44.8354517" lon="8.2033883"><ele>228.0</ele><time>2026-04-12T07:38:07.063Z</time></trkpt><trkpt lat="44.83549" lon="8.20329"><ele>228.0</ele><time>2026-04-12T07:38:08.062Z</time></trkpt><trkpt lat="44.83552" lon="8.20319"><ele>227.99999999999997</ele><time>2026-04-12T07:38:09.063Z</time></trkpt><trkpt lat="44.8355417" lon="8.2030883"><ele>228.0</ele><time>2026-04-12T07:38:10.061Z</time></trkpt><trkpt lat="44.8355583" lon="8.2029883"><ele>228.0</ele><time>2026-04-12T07:38:11.063Z</time></trkpt><trkpt lat="44.8355733" lon="8.2028867"><ele>227.99999999999997</ele><time>2026-04-12T07:38:12.063Z</time></trkpt><trkpt lat="44.8355883" lon="8.202785"><ele>228.0</ele><time>2026-04-12T07:38:13.062Z</time></trkpt><trkpt lat="44.8356" lon="8.2026833"><ele>228.0</ele><time>2026-04-12T07:38:14.063Z</time></trkpt><trkpt lat="44.8356083" lon="8.2025883"><ele>227.85714285714283</ele><time>2026-04-12T07:38:15.062Z</time></trkpt><trkpt lat="44.8356133" lon="8.2024917"><ele>227.7142857142857</ele><time>2026-04-12T07:38:16.062Z</time></trkpt><trkpt lat="44.8356183" lon="8.2023917"><ele>227.57142857142856</ele><time>2026-04-12T07:38:17.062Z</time></trkpt><trkpt lat="44.83562" lon="8.2022967"><ele>227.42857142857144</ele><time>2026-04-12T07:38:18.062Z</time></trkpt><trkpt lat="44.8356183" lon="8.202205"><ele>227.2857142857143</ele><time>2026-04-12T07:38:19.063Z</time></trkpt><trkpt lat="44.8356133" lon="8.2021083"><ele>227.14285714285717</ele><time>2026-04-12T07:38:20.062Z</time></trkpt><trkpt lat="44.835605" lon="8.2020083"><ele>227.0</ele><time>2026-04-12T07:38:21.063Z</time></trkpt><trkpt lat="44.8355967" lon="8.20191"><ele>227.0</ele><time>2026-04-12T07:38:22.063Z</time></trkpt><trkpt lat="44.8355883" lon="8.2018133"><ele>227.00000000000003</ele><time>2026-04-12T07:38:23.064Z</time></trkpt><trkpt lat="44.8355783" lon="8.2017183"><ele>227.0</ele><time>2026-04-12T07:38:24.063Z</time></trkpt><trkpt lat="44.835565" lon="8.2016283"><ele>227.0</ele><time>2026-04-12T07:38:25.061Z</time></trkpt><trkpt lat="44.8355517" lon="8.2015367"><ele>227.00000000000003</ele><time>2026-04-12T07:38:26.062Z</time></trkpt><trkpt lat="44.8355433" lon="8.20144"><ele>227.0</ele><time>2026-04-12T07:38:27.065Z</time></trkpt><trkpt lat="44.8355383" lon="8.201345"><ele>227.0</ele><time>2026-04-12T07:38:28.061Z</time></trkpt><trkpt lat="44.83553" lon="8.2012517"><ele>227.0</ele><time>2026-04-12T07:38:29.062Z</time></trkpt><trkpt lat="44.83552" lon="8.2011617"><ele>227.0</ele><time>2026-04-12T07:38:30.063Z</time></trkpt><trkpt lat="44.8355" lon="8.200985"><ele>227.0</ele><time>2026-04-12T07:38:32.062Z</time></trkpt><trkpt lat="44.835495" lon="8.2008133"><ele>227.0</ele><time>2026-04-12T07:38:34.06Z</time></trkpt><trkpt lat="44.8354967" lon="8.20065"><ele>227.0</ele><time>2026-04-12T07:38:36.062Z</time></trkpt><trkpt lat="44.8354983" lon="8.2005017"><ele>226.0</ele><time>2026-04-12T07:38:38.062Z</time></trkpt><trkpt lat="44.8355017" lon="8.2003617"><ele>225.0</ele><time>2026-04-12T07:38:40.061Z</time></trkpt><trkpt lat="44.835515" lon="8.2002367"><ele>224.0</ele><time>2026-04-12T07:38:42.062Z</time></trkpt><trkpt lat="44.83554" lon="8.2001033"><ele>223.0</ele><time>2026-04-12T07:38:44.063Z</time></trkpt><trkpt lat="44.83553" lon="8.1999467"><ele>222.0</ele><time>2026-04-12T07:38:46.064Z</time></trkpt><trkpt lat="44.8354917" lon="8.19978"><ele>221.28571428571428</ele><time>2026-04-12T07:38:48.063Z</time></trkpt><trkpt lat="44.8354633" lon="8.1996933"><ele>220.57142857142858</ele><time>2026-04-12T07:38:49.062Z</time></trkpt><trkpt lat="44.83544" lon="8.1996033"><ele>219.85714285714286</ele><time>2026-04-12T07:38:50.063Z</time></trkpt><trkpt lat="44.83542" lon="8.1995067"><ele>219.14285714285714</ele><time>2026-04-12T07:38:51.061Z</time></trkpt><trkpt lat="44.8354067" lon="8.19941"><ele>218.42857142857144</ele><time>2026-04-12T07:38:52.064Z</time></trkpt><trkpt lat="44.835395" lon="8.19931"><ele>217.71428571428572</ele><time>2026-04-12T07:38:53.064Z</time></trkpt><trkpt lat="44.835385" lon="8.1992083"><ele>217.0</ele><time>2026-04-12T07:38:54.065Z</time></trkpt><trkpt lat="44.8353733" lon="8.1991067"><ele>217.0</ele><time>2026-04-12T07:38:55.063Z</time></trkpt><trkpt lat="44.83536" lon="8.1990083"><ele>217.0</ele><time>2026-04-12T07:38:56.063Z</time></trkpt><trkpt lat="44.8353433" lon="8.1989133"><ele>217.0</ele><time>2026-04-12T07:38:57.062Z</time></trkpt><trkpt lat="44.8353267" lon="8.198815"><ele>217.0</ele><time>2026-04-12T07:38:58.062Z</time></trkpt><trkpt lat="44.8353067" lon="8.198715"><ele>217.0</ele><time>2026-04-12T07:38:59.061Z</time></trkpt><trkpt lat="44.8352867" lon="8.1986167"><ele>217.0</ele><time>2026-04-12T07:39:00.062Z</time></trkpt><trkpt lat="44.8352683" lon="8.1985167"><ele>217.0</ele><time>2026-04-12T07:39:01.061Z</time></trkpt><trkpt lat="44.8352467" lon="8.1984217"><ele>216.0</ele><time>2026-04-12T07:39:02.062Z</time></trkpt><trkpt lat="44.8352317" lon="8.1983267"><ele>215.0</ele><time>2026-04-12T07:39:03.064Z</time></trkpt><trkpt lat="44.835215" lon="8.19823"><ele>214.0</ele><time>2026-04-12T07:39:04.065Z</time></trkpt><trkpt lat="44.8352" lon="8.1981367"><ele>213.0</ele><time>2026-04-12T07:39:05.061Z</time></trkpt><trkpt lat="44.835185" lon="8.198045"><ele>212.0</ele><time>2026-04-12T07:39:06.061Z</time></trkpt><trkpt lat="44.83517" lon="8.1979517"><ele>211.0</ele><time>2026-04-12T07:39:07.063Z</time></trkpt><trkpt lat="44.8351483" lon="8.1978617"><ele>210.0</ele><time>2026-04-12T07:39:08.062Z</time></trkpt><trkpt lat="44.8351283" lon="8.1977717"><ele>212.4</ele><time>2026-04-12T07:39:09.063Z</time></trkpt><trkpt lat="44.8351083" lon="8.197685"><ele>214.8</ele><time>2026-04-12T07:39:10.062Z</time></trkpt><trkpt lat="44.8350883" lon="8.1976"><ele>217.2</ele><time>2026-04-12T07:39:11.061Z</time></trkpt><trkpt lat="44.8350467" lon="8.1974417"><ele>219.6</ele><time>2026-04-12T07:39:13.063Z</time></trkpt><trkpt lat="44.8350083" lon="8.1972933"><ele>222.0</ele><time>2026-04-12T07:39:15.061Z</time></trkpt><trkpt lat="44.8349717" lon="8.1971583"><ele>222.0</ele><time>2026-04-12T07:39:17.063Z</time></trkpt><trkpt lat="44.834935" lon="8.1970333"><ele>222.0</ele><time>2026-04-12T07:39:19.063Z</time></trkpt><trkpt lat="44.834895" lon="8.1969183"><ele>222.0</ele><time>2026-04-12T07:39:21.063Z</time></trkpt><trkpt lat="44.8348583" lon="8.196805"><ele>222.0</ele><time>2026-04-12T07:39:23.062Z</time></trkpt><trkpt lat="44.8348167" lon="8.1967033"><ele>222.0</ele><time>2026-04-12T07:39:25.063Z</time></trkpt><trkpt lat="44.83478" lon="8.1966033"><ele>222.0</ele><time>2026-04-12T07:39:27.064Z</time></trkpt><trkpt lat="44.8347467" lon="8.1965"><ele>221.16666666666666</ele><time>2026-04-12T07:39:29.06Z</time></trkpt><trkpt lat="44.83471" lon="8.1964067"><ele>220.33333333333331</ele><time>2026-04-12T07:39:31.064Z</time></trkpt><trkpt lat="44.8346767" lon="8.1963117"><ele>219.5</ele><time>2026-04-12T07:39:33.065Z</time></trkpt><trkpt lat="44.834635" lon="8.19622"><ele>218.66666666666666</ele><time>2026-04-12T07:39:35.061Z</time></trkpt><trkpt lat="44.834595" lon="8.1961267"><ele>217.83333333333331</ele><time>2026-04-12T07:39:37.062Z</time></trkpt><trkpt lat="44.83455" lon="8.1960367"><ele>217.0</ele><time>2026-04-12T07:39:39.062Z</time></trkpt><trkpt lat="44.8344933" lon="8.1959467"><ele>216.99999999999997</ele><time>2026-04-12T07:39:41.062Z</time></trkpt><trkpt lat="44.83444" lon="8.1958567"><ele>217.0</ele><time>2026-04-12T07:39:43.064Z</time></trkpt><trkpt lat="44.83438" lon="8.19577"><ele>217.0</ele><time>2026-04-12T07:39:45.062Z</time></trkpt><trkpt lat="44.8343167" lon="8.19569"><ele>217.0</ele><time>2026-04-12T07:39:47.063Z</time></trkpt><trkpt lat="44.8342533" lon="8.1956183"><ele>216.99999999999997</ele><time>2026-04-12T07:39:49.062Z</time></trkpt><trkpt lat="44.834185" lon="8.1955483"><ele>217.0</ele><time>2026-04-12T07:39:51.064Z</time></trkpt><trkpt lat="44.834125" lon="8.19548"><ele>218.66666666666666</ele><time>2026-04-12T07:39:53.063Z</time></trkpt><trkpt lat="44.8340667" lon="8.19542"><ele>220.33333333333331</ele><time>2026-04-12T07:39:55.063Z</time></trkpt><trkpt lat="44.8340017" lon="8.1953567"><ele>222.0</ele><time>2026-04-12T07:39:57.065Z</time></trkpt><trkpt lat="44.8339517" lon="8.195285"><ele>223.66666666666669</ele><time>2026-04-12T07:39:59.062Z</time></trkpt><trkpt lat="44.8339067" lon="8.1952117"><ele>225.33333333333334</ele><time>2026-04-12T07:40:01.064Z</time></trkpt><trkpt lat="44.8338683" lon="8.1951233"><ele>227.0</ele><time>2026-04-12T07:40:03.064Z</time></trkpt><trkpt lat="44.833825" lon="8.195015"><ele>227.0</ele><time>2026-04-12T07:40:05.064Z</time></trkpt><trkpt lat="44.833775" lon="8.1949017"><ele>227.0</ele><time>2026-04-12T07:40:07.062Z</time></trkpt><trkpt lat="44.833725" lon="8.1947917"><ele>227.0</ele><time>2026-04-12T07:40:09.065Z</time></trkpt><trkpt lat="44.8336717" lon="8.1946783"><ele>227.0</ele><time>2026-04-12T07:40:11.06Z</time></trkpt><trkpt lat="44.8336133" lon="8.19457"><ele>227.0</ele><time>2026-04-12T07:40:13.064Z</time></trkpt><trkpt lat="44.8335733" lon="8.1944417"><ele>227.00000000000003</ele><time>2026-04-12T07:40:15.063Z</time></trkpt><trkpt lat="44.833515" lon="8.1942983"><ele>227.0</ele><time>2026-04-12T07:40:17.062Z</time></trkpt><trkpt lat="44.8334867" lon="8.1942133"><ele>227.0</ele><time>2026-04-12T07:40:18.064Z</time></trkpt><trkpt lat="44.8334617" lon="8.1941267"><ele>227.0</ele><time>2026-04-12T07:40:19.063Z</time></trkpt><trkpt lat="44.83344" lon="8.1940367"><ele>227.00000000000003</ele><time>2026-04-12T07:40:20.063Z</time></trkpt><trkpt lat="44.83342" lon="8.1939433"><ele>227.0</ele><time>2026-04-12T07:40:21.064Z</time></trkpt><trkpt lat="44.8334" lon="8.193845"><ele>226.66666666666669</ele><time>2026-04-12T07:40:22.063Z</time></trkpt><trkpt lat="44.8333783" lon="8.1937417"><ele>226.33333333333334</ele><time>2026-04-12T07:40:23.062Z</time></trkpt><trkpt lat="44.8333617" lon="8.1936333"><ele>226.0</ele><time>2026-04-12T07:40:24.063Z</time></trkpt><trkpt lat="44.8333417" lon="8.1935233"><ele>225.66666666666669</ele><time>2026-04-12T07:40:25.063Z</time></trkpt><trkpt lat="44.8333183" lon="8.1934133"><ele>225.33333333333334</ele><time>2026-04-12T07:40:26.062Z</time></trkpt><trkpt lat="44.833295" lon="8.1933033"><ele>225.0</ele><time>2026-04-12T07:40:27.064Z</time></trkpt><trkpt lat="44.8332767" lon="8.19319"><ele>225.66666666666666</ele><time>2026-04-12T07:40:28.065Z</time></trkpt><trkpt lat="44.833265" lon="8.1930783"><ele>226.33333333333331</ele><time>2026-04-12T07:40:29.062Z</time></trkpt><trkpt lat="44.8332683" lon="8.1929667"><ele>227.0</ele><time>2026-04-12T07:40:30.063Z</time></trkpt><trkpt lat="44.8332767" lon="8.192855"><ele>227.66666666666666</ele><time>2026-04-12T07:40:31.065Z</time></trkpt><trkpt lat="44.8332767" lon="8.1927483"><ele>228.33333333333331</ele><time>2026-04-12T07:40:32.062Z</time></trkpt><trkpt lat="44.833275" lon="8.1926467"><ele>229.0</ele><time>2026-04-12T07:40:33.064Z</time></trkpt><trkpt lat="44.83327" lon="8.19255"><ele>229.0</ele><time>2026-04-12T07:40:34.062Z</time></trkpt><trkpt lat="44.8332683" lon="8.192455"><ele>228.99999999999997</ele><time>2026-04-12T07:40:35.062Z</time></trkpt><trkpt lat="44.833265" lon="8.1922817"><ele>228.99999999999997</ele><time>2026-04-12T07:40:37.064Z</time></trkpt><trkpt lat="44.8332783" lon="8.1921167"><ele>229.0</ele><time>2026-04-12T07:40:39.063Z</time></trkpt><trkpt lat="44.8333233" lon="8.191985"><ele>229.0</ele><time>2026-04-12T07:40:41.065Z</time></trkpt><trkpt lat="44.8333767" lon="8.1918583"><ele>228.79999999999998</ele><time>2026-04-12T07:40:43.064Z</time></trkpt><trkpt lat="44.83343" lon="8.1917217"><ele>228.59999999999997</ele><time>2026-04-12T07:40:45.063Z</time></trkpt><trkpt lat="44.8334733" lon="8.1915833"><ele>228.4</ele><time>2026-04-12T07:40:47.063Z</time></trkpt><trkpt lat="44.8335233" lon="8.1914417"><ele>228.2</ele><time>2026-04-12T07:40:49.061Z</time></trkpt><trkpt lat="44.83357" lon="8.1913"><ele>228.0</ele><time>2026-04-12T07:40:51.062Z</time></trkpt><trkpt lat="44.8336133" lon="8.1911583"><ele>228.0</ele><time>2026-04-12T07:40:53.061Z</time></trkpt><trkpt lat="44.8336483" lon="8.1910167"><ele>228.0</ele><time>2026-04-12T07:40:55.063Z</time></trkpt><trkpt lat="44.8336917" lon="8.1908783"><ele>228.0</ele><time>2026-04-12T07:40:57.063Z</time></trkpt><trkpt lat="44.8337233" lon="8.1907233"><ele>228.0</ele><time>2026-04-12T07:40:59.06Z</time></trkpt><trkpt lat="44.8337517" lon="8.190575"><ele>228.0</ele><time>2026-04-12T07:41:01.063Z</time></trkpt><trkpt lat="44.8337867" lon="8.19042"><ele>228.60000000000002</ele><time>2026-04-12T07:41:03.063Z</time></trkpt><trkpt lat="44.8338067" lon="8.1902717"><ele>229.20000000000002</ele><time>2026-04-12T07:41:05.059Z</time></trkpt><trkpt lat="44.833825" lon="8.19013"><ele>229.8</ele><time>2026-04-12T07:41:07.058Z</time></trkpt><trkpt lat="44.8338467" lon="8.1899867"><ele>230.4</ele><time>2026-04-12T07:41:09.062Z</time></trkpt><trkpt lat="44.8338783" lon="8.1898517"><ele>231.0</ele><time>2026-04-12T07:41:11.062Z</time></trkpt><trkpt lat="44.8339017" lon="8.1897117"><ele>231.20000000000002</ele><time>2026-04-12T07:41:13.061Z</time></trkpt><trkpt lat="44.83393" lon="8.1895667"><ele>231.40000000000003</ele><time>2026-04-12T07:41:15.062Z</time></trkpt><trkpt lat="44.8339467" lon="8.189425"><ele>231.6</ele><time>2026-04-12T07:41:17.062Z</time></trkpt><trkpt lat="44.8339617" lon="8.1892767"><ele>231.8</ele><time>2026-04-12T07:41:19.063Z</time></trkpt><trkpt lat="44.83397" lon="8.18913"><ele>232.0</ele><time>2026-04-12T07:41:21.063Z</time></trkpt><trkpt lat="44.8339583" lon="8.18898"><ele>232.6</ele><time>2026-04-12T07:41:23.062Z</time></trkpt><trkpt lat="44.8339517" lon="8.1888233"><ele>233.2</ele><time>2026-04-12T07:41:25.062Z</time></trkpt><trkpt lat="44.8339533" lon="8.1887317"><ele>233.8</ele><time>2026-04-12T07:41:26.063Z</time></trkpt><trkpt lat="44.8339183" lon="8.1885717"><ele>234.4</ele><time>2026-04-12T07:41:28.063Z</time></trkpt><trkpt lat="44.8338517" lon="8.1884317"><ele>235.0</ele><time>2026-04-12T07:41:30.063Z</time></trkpt><trkpt lat="44.833785" lon="8.188335"><ele>234.99999999999997</ele><time>2026-04-12T07:41:32.064Z</time></trkpt><trkpt lat="44.8337117" lon="8.1882517"><ele>235.0</ele><time>2026-04-12T07:41:34.062Z</time></trkpt><trkpt lat="44.8336467" lon="8.1881883"><ele>235.0</ele><time>2026-04-12T07:41:36.063Z</time></trkpt><trkpt lat="44.833585" lon="8.1881367"><ele>235.0</ele><time>2026-04-12T07:41:38.061Z</time></trkpt><trkpt lat="44.8335333" lon="8.1880833"><ele>234.99999999999997</ele><time>2026-04-12T07:41:40.064Z</time></trkpt><trkpt lat="44.8334633" lon="8.1880267"><ele>235.0</ele><time>2026-04-12T07:41:43.062Z</time></trkpt><trkpt lat="44.833405" lon="8.1879583"><ele>235.7142857142857</ele><time>2026-04-12T07:41:46.065Z</time></trkpt><trkpt lat="44.833365" lon="8.1878767"><ele>236.4285714285714</ele><time>2026-04-12T07:41:49.065Z</time></trkpt><trkpt lat="44.8333617" lon="8.1877783"><ele>237.14285714285714</ele><time>2026-04-12T07:41:52.062Z</time></trkpt><trkpt lat="44.8333967" lon="8.1876917"><ele>237.85714285714283</ele><time>2026-04-12T07:41:54.065Z</time></trkpt><trkpt lat="44.8334467" lon="8.1876167"><ele>238.57142857142856</ele><time>2026-04-12T07:41:56.063Z</time></trkpt><trkpt lat="44.8334883" lon="8.1875417"><ele>239.28571428571428</ele><time>2026-04-12T07:41:58.064Z</time></trkpt><trkpt lat="44.833525" lon="8.1874583"><ele>240.0</ele><time>2026-04-12T07:42:00.064Z</time></trkpt><trkpt lat="44.8335617" lon="8.1873767"><ele>239.85714285714286</ele><time>2026-04-12T07:42:02.062Z</time></trkpt><trkpt lat="44.8336" lon="8.1872667"><ele>239.71428571428572</ele><time>2026-04-12T07:42:05.064Z</time></trkpt><trkpt lat="44.8336083" lon="8.1871667"><ele>239.57142857142858</ele><time>2026-04-12T07:42:08.064Z</time></trkpt><trkpt lat="44.8335883" lon="8.1870783"><ele>239.42857142857144</ele><time>2026-04-12T07:42:11.066Z</time></trkpt><trkpt lat="44.833545" lon="8.1869767"><ele>239.28571428571428</ele><time>2026-04-12T07:42:14.062Z</time></trkpt><trkpt lat="44.8335067" lon="8.186905"><ele>239.14285714285717</ele><time>2026-04-12T07:42:16.062Z</time></trkpt><trkpt lat="44.833465" lon="8.18682"><ele>239.00000000000003</ele><time>2026-04-12T07:42:18.064Z</time></trkpt><trkpt lat="44.833415" lon="8.1867"><ele>239.50000000000003</ele><time>2026-04-12T07:42:20.062Z</time></trkpt><trkpt lat="44.833355" lon="8.186535"><ele>240.0</ele><time>2026-04-12T07:42:22.066Z</time></trkpt><trkpt lat="44.83332" lon="8.1864467"><ele>240.5</ele><time>2026-04-12T07:42:23.063Z</time></trkpt><trkpt lat="44.8332817" lon="8.1863567"><ele>241.0</ele><time>2026-04-12T07:42:24.062Z</time></trkpt><trkpt lat="44.8332367" lon="8.18626"><ele>241.50000000000003</ele><time>2026-04-12T07:42:25.062Z</time></trkpt><trkpt lat="44.833205" lon="8.18615"><ele>242.0</ele><time>2026-04-12T07:42:26.062Z</time></trkpt><trkpt lat="44.8331783" lon="8.186025"><ele>241.00000000000003</ele><time>2026-04-12T07:42:27.065Z</time></trkpt><trkpt lat="44.8331617" lon="8.1858933"><ele>240.0</ele><time>2026-04-12T07:42:28.064Z</time></trkpt><trkpt lat="44.83314" lon="8.1857683"><ele>239.0</ele><time>2026-04-12T07:42:29.062Z</time></trkpt><trkpt lat="44.8331067" lon="8.185655"><ele>238.0</ele><time>2026-04-12T07:42:30.064Z</time></trkpt><trkpt lat="44.8330533" lon="8.1855733"><ele>237.00000000000003</ele><time>2026-04-12T07:42:31.063Z</time></trkpt><trkpt lat="44.8329933" lon="8.18554"><ele>236.0</ele><time>2026-04-12T07:42:32.064Z</time></trkpt><trkpt lat="44.83291" lon="8.18552"><ele>236.0</ele><time>2026-04-12T07:42:33.063Z</time></trkpt><trkpt lat="44.83283" lon="8.1855883"><ele>236.00000000000003</ele><time>2026-04-12T07:42:34.062Z</time></trkpt><trkpt lat="44.8328" lon="8.18573"><ele>236.00000000000003</ele><time>2026-04-12T07:42:35.063Z</time></trkpt><trkpt lat="44.832775" lon="8.1858667"><ele>236.0</ele><time>2026-04-12T07:42:36.065Z</time></trkpt><trkpt lat="44.8327517" lon="8.1860033"><ele>236.0</ele><time>2026-04-12T07:42:37.062Z</time></trkpt><trkpt lat="44.8327183" lon="8.1861317"><ele>236.00000000000003</ele><time>2026-04-12T07:42:38.064Z</time></trkpt><trkpt lat="44.8326733" lon="8.1862583"><ele>236.0</ele><time>2026-04-12T07:42:39.063Z</time></trkpt><trkpt lat="44.832635" lon="8.1863833"><ele>236.0</ele><time>2026-04-12T07:42:40.065Z</time></trkpt><trkpt lat="44.8326117" lon="8.1865167"><ele>236.0</ele><time>2026-04-12T07:42:41.063Z</time></trkpt><trkpt lat="44.8326317" lon="8.186635"><ele>236.00000000000003</ele><time>2026-04-12T07:42:42.063Z</time></trkpt><trkpt lat="44.832655" lon="8.1867233"><ele>236.0</ele><time>2026-04-12T07:42:43.063Z</time></trkpt><trkpt lat="44.832635" lon="8.1868167"><ele>233.66666666666669</ele><time>2026-04-12T07:42:45.062Z</time></trkpt><trkpt lat="44.8325683" lon="8.186695"><ele>231.33333333333334</ele><time>2026-04-12T07:42:48.064Z</time></trkpt><trkpt lat="44.832545" lon="8.1865967"><ele>229.0</ele><time>2026-04-12T07:42:49.063Z</time></trkpt><trkpt lat="44.8325217" lon="8.1864933"><ele>226.66666666666669</ele><time>2026-04-12T07:42:50.064Z</time></trkpt><trkpt lat="44.8325" lon="8.1863817"><ele>224.33333333333334</ele><time>2026-04-12T07:42:51.063Z</time></trkpt><trkpt lat="44.83248" lon="8.1862617"><ele>222.0</ele><time>2026-04-12T07:42:52.062Z</time></trkpt><trkpt lat="44.8324633" lon="8.18614"><ele>221.6</ele><time>2026-04-12T07:42:53.062Z</time></trkpt><trkpt lat="44.832455" lon="8.1860133"><ele>221.2</ele><time>2026-04-12T07:42:54.061Z</time></trkpt><trkpt lat="44.8324517" lon="8.1858817"><ele>220.8</ele><time>2026-04-12T07:42:55.064Z</time></trkpt><trkpt lat="44.8324483" lon="8.185745"><ele>220.4</ele><time>2026-04-12T07:42:56.062Z</time></trkpt><trkpt lat="44.8324533" lon="8.1856033"><ele>220.0</ele><time>2026-04-12T07:42:57.062Z</time></trkpt><trkpt lat="44.832465" lon="8.1854567"><ele>218.4</ele><time>2026-04-12T07:42:58.062Z</time></trkpt><trkpt lat="44.8324867" lon="8.185305"><ele>216.8</ele><time>2026-04-12T07:42:59.061Z</time></trkpt><trkpt lat="44.8325083" lon="8.1851517"><ele>215.2</ele><time>2026-04-12T07:43:00.061Z</time></trkpt><trkpt lat="44.8325283" lon="8.1850017"><ele>213.6</ele><time>2026-04-12T07:43:01.062Z</time></trkpt><trkpt lat="44.8325517" lon="8.1848683"><ele>212.0</ele><time>2026-04-12T07:43:02.061Z</time></trkpt><trkpt lat="44.8325683" lon="8.1847533"><ele>209.0</ele><time>2026-04-12T07:43:03.062Z</time></trkpt><trkpt lat="44.832575" lon="8.184655"><ele>206.0</ele><time>2026-04-12T07:43:04.065Z</time></trkpt><trkpt lat="44.832525" lon="8.184535"><ele>203.0</ele><time>2026-04-12T07:43:06.063Z</time></trkpt><trkpt lat="44.8324217" lon="8.1846"><ele>200.0</ele><time>2026-04-12T07:43:08.061Z</time></trkpt><trkpt lat="44.8323933" lon="8.1846833"><ele>197.0</ele><time>2026-04-12T07:43:09.064Z</time></trkpt><trkpt lat="44.83233" lon="8.1848167"><ele>197.00000000000003</ele><time>2026-04-12T07:43:11.062Z</time></trkpt><trkpt lat="44.8322467" lon="8.1847733"><ele>197.0</ele><time>2026-04-12T07:43:13.065Z</time></trkpt><trkpt lat="44.8322317" lon="8.18463"><ele>197.0</ele><time>2026-04-12T07:43:15.062Z</time></trkpt><trkpt lat="44.8322533" lon="8.18453"><ele>197.0</ele><time>2026-04-12T07:43:16.064Z</time></trkpt><trkpt lat="44.8322733" lon="8.1844233"><ele>197.00000000000003</ele><time>2026-04-12T07:43:17.064Z</time></trkpt><trkpt lat="44.8322983" lon="8.184315"><ele>197.0</ele><time>2026-04-12T07:43:18.059Z</time></trkpt><trkpt lat="44.8323083" lon="8.184205"><ele>197.00000000000003</ele><time>2026-04-12T07:43:19.063Z</time></trkpt><trkpt lat="44.8322883" lon="8.1841033"><ele>197.0</ele><time>2026-04-12T07:43:20.064Z</time></trkpt><trkpt lat="44.8322383" lon="8.1840333"><ele>197.0</ele><time>2026-04-12T07:43:21.062Z</time></trkpt><trkpt lat="44.8321617" lon="8.184035"><ele>197.0</ele><time>2026-04-12T07:43:22.062Z</time></trkpt><trkpt lat="44.83209" lon="8.184065"><ele>197.00000000000003</ele><time>2026-04-12T07:43:23.062Z</time></trkpt><trkpt lat="44.8320117" lon="8.1840917"><ele>197.0</ele><time>2026-04-12T07:43:24.063Z</time></trkpt><trkpt lat="44.8319317" lon="8.18409"><ele>197.00000000000003</ele><time>2026-04-12T07:43:25.063Z</time></trkpt><trkpt lat="44.8318567" lon="8.1840517"><ele>197.0</ele><time>2026-04-12T07:43:26.063Z</time></trkpt><trkpt lat="44.8317817" lon="8.184"><ele>197.0</ele><time>2026-04-12T07:43:27.064Z</time></trkpt><trkpt lat="44.83171" lon="8.1839367"><ele>197.0</ele><time>2026-04-12T07:43:28.064Z</time></trkpt><trkpt lat="44.83165" lon="8.1838567"><ele>197.00000000000003</ele><time>2026-04-12T07:43:29.061Z</time></trkpt><trkpt lat="44.8315867" lon="8.1837817"><ele>197.0</ele><time>2026-04-12T07:43:30.061Z</time></trkpt><trkpt lat="44.8315133" lon="8.1837283"><ele>197.6</ele><time>2026-04-12T07:43:31.062Z</time></trkpt><trkpt lat="44.8314333" lon="8.183715"><ele>198.2</ele><time>2026-04-12T07:43:32.063Z</time></trkpt><trkpt lat="44.831355" lon="8.1837483"><ele>198.8</ele><time>2026-04-12T07:43:33.062Z</time></trkpt><trkpt lat="44.8312767" lon="8.183825"><ele>199.4</ele><time>2026-04-12T07:43:34.062Z</time></trkpt><trkpt lat="44.8311983" lon="8.1838967"><ele>200.0</ele><time>2026-04-12T07:43:35.062Z</time></trkpt><trkpt lat="44.8311183" lon="8.1839783"><ele>199.8</ele><time>2026-04-12T07:43:36.063Z</time></trkpt><trkpt lat="44.8310417" lon="8.1840567"><ele>199.6</ele><time>2026-04-12T07:43:37.062Z</time></trkpt><trkpt lat="44.8309583" lon="8.1841417"><ele>199.39999999999998</ele><time>2026-04-12T07:43:38.062Z</time></trkpt><trkpt lat="44.8308733" lon="8.1842283"><ele>199.2</ele><time>2026-04-12T07:43:39.063Z</time></trkpt><trkpt lat="44.8307867" lon="8.18432"><ele>199.0</ele><time>2026-04-12T07:43:40.061Z</time></trkpt><trkpt lat="44.8306983" lon="8.1844133"><ele>198.25</ele><time>2026-04-12T07:43:41.061Z</time></trkpt><trkpt lat="44.8306083" lon="8.18451"><ele>197.5</ele><time>2026-04-12T07:43:42.064Z</time></trkpt><trkpt lat="44.83052" lon="8.18461"><ele>196.75</ele><time>2026-04-12T07:43:43.064Z</time></trkpt><trkpt lat="44.8304217" lon="8.1847033"><ele>196.0</ele><time>2026-04-12T07:43:44.061Z</time></trkpt><trkpt lat="44.8303167" lon="8.1847833"><ele>196.0</ele><time>2026-04-12T07:43:45.063Z</time></trkpt><trkpt lat="44.830205" lon="8.184845"><ele>196.0</ele><time>2026-04-12T07:43:46.062Z</time></trkpt><trkpt lat="44.830085" lon="8.18489"><ele>196.0</ele><time>2026-04-12T07:43:47.062Z</time></trkpt><trkpt lat="44.8299633" lon="8.1849183"><ele>196.0</ele><time>2026-04-12T07:43:48.063Z</time></trkpt><trkpt lat="44.8298383" lon="8.1849383"><ele>192.75</ele><time>2026-04-12T07:43:49.062Z</time></trkpt><trkpt lat="44.8297133" lon="8.1849483"><ele>189.5</ele><time>2026-04-12T07:43:50.062Z</time></trkpt><trkpt lat="44.8295867" lon="8.1849517"><ele>186.25</ele><time>2026-04-12T07:43:51.064Z</time></trkpt><trkpt lat="44.8294583" lon="8.1849633"><ele>183.0</ele><time>2026-04-12T07:43:52.061Z</time></trkpt><trkpt lat="44.8293333" lon="8.18498"><ele>181.5</ele><time>2026-04-12T07:43:53.062Z</time></trkpt><trkpt lat="44.8292083" lon="8.1850133"><ele>180.0</ele><time>2026-04-12T07:43:54.064Z</time></trkpt><trkpt lat="44.8290933" lon="8.185075"><ele>178.5</ele><time>2026-04-12T07:43:55.064Z</time></trkpt><trkpt lat="44.8289817" lon="8.185165"><ele>177.0</ele><time>2026-04-12T07:43:56.064Z</time></trkpt><trkpt lat="44.8288733" lon="8.1852567"><ele>177.0</ele><time>2026-04-12T07:43:57.063Z</time></trkpt><trkpt lat="44.8287717" lon="8.1853367"><ele>177.0</ele><time>2026-04-12T07:43:58.065Z</time></trkpt><trkpt lat="44.8286717" lon="8.1853917"><ele>177.0</ele><time>2026-04-12T07:43:59.063Z</time></trkpt><trkpt lat="44.828575" lon="8.1854133"><ele>177.0</ele><time>2026-04-12T07:44:00.06Z</time></trkpt><trkpt lat="44.8284833" lon="8.1854033"><ele>177.0</ele><time>2026-04-12T07:44:01.062Z</time></trkpt><trkpt lat="44.8284" lon="8.1853883"><ele>175.83333333333334</ele><time>2026-04-12T07:44:02.063Z</time></trkpt><trkpt lat="44.8283267" lon="8.1853683"><ele>174.66666666666666</ele><time>2026-04-12T07:44:03.063Z</time></trkpt><trkpt lat="44.8282633" lon="8.1853483"><ele>173.5</ele><time>2026-04-12T07:44:04.065Z</time></trkpt><trkpt lat="44.82816" lon="8.1853083"><ele>172.33333333333331</ele><time>2026-04-12T07:44:06.063Z</time></trkpt><trkpt lat="44.82811" lon="8.1852333"><ele>171.16666666666666</ele><time>2026-04-12T07:44:08.066Z</time></trkpt><trkpt lat="44.82812" lon="8.1851267"><ele>170.0</ele><time>2026-04-12T07:44:10.062Z</time></trkpt><trkpt lat="44.8281433" lon="8.1850067"><ele>170.0</ele><time>2026-04-12T07:44:12.063Z</time></trkpt><trkpt lat="44.8281683" lon="8.184875"><ele>170.0</ele><time>2026-04-12T07:44:14.063Z</time></trkpt><trkpt lat="44.8281967" lon="8.1847383"><ele>170.0</ele><time>2026-04-12T07:44:16.062Z</time></trkpt><trkpt lat="44.82822" lon="8.1845967"><ele>170.0</ele><time>2026-04-12T07:44:18.064Z</time></trkpt><trkpt lat="44.828235" lon="8.184445"><ele>170.0</ele><time>2026-04-12T07:44:20.064Z</time></trkpt><trkpt lat="44.828245" lon="8.1842867"><ele>170.75</ele><time>2026-04-12T07:44:22.063Z</time></trkpt><trkpt lat="44.828255" lon="8.18412"><ele>171.5</ele><time>2026-04-12T07:44:24.063Z</time></trkpt><trkpt lat="44.82826" lon="8.18395"><ele>172.25</ele><time>2026-04-12T07:44:26.066Z</time></trkpt><trkpt lat="44.8282633" lon="8.18378"><ele>173.0</ele><time>2026-04-12T07:44:28.066Z</time></trkpt><trkpt lat="44.8282633" lon="8.1836067"><ele>173.0</ele><time>2026-04-12T07:44:30.063Z</time></trkpt><trkpt lat="44.8282667" lon="8.1834267"><ele>173.0</ele><time>2026-04-12T07:44:32.062Z</time></trkpt><trkpt lat="44.8282683" lon="8.1833367"><ele>173.0</ele><time>2026-04-12T07:44:33.065Z</time></trkpt><trkpt lat="44.8282667" lon="8.1832417"><ele>173.0</ele><time>2026-04-12T07:44:34.063Z</time></trkpt><trkpt lat="44.8282667" lon="8.1831467"><ele>173.0</ele><time>2026-04-12T07:44:35.063Z</time></trkpt><trkpt lat="44.8282683" lon="8.1830517"><ele>173.0</ele><time>2026-04-12T07:44:36.063Z</time></trkpt><trkpt lat="44.8282717" lon="8.1829583"><ele>172.57142857142856</ele><time>2026-04-12T07:44:37.066Z</time></trkpt><trkpt lat="44.828275" lon="8.1828667"><ele>172.14285714285717</ele><time>2026-04-12T07:44:38.064Z</time></trkpt><trkpt lat="44.82828" lon="8.1827717"><ele>171.71428571428572</ele><time>2026-04-12T07:44:39.063Z</time></trkpt><trkpt lat="44.8282833" lon="8.1826783"><ele>171.28571428571428</ele><time>2026-04-12T07:44:40.063Z</time></trkpt><trkpt lat="44.82829" lon="8.1825867"><ele>170.85714285714283</ele><time>2026-04-12T07:44:41.062Z</time></trkpt><trkpt lat="44.8282967" lon="8.1824967"><ele>170.42857142857144</ele><time>2026-04-12T07:44:42.062Z</time></trkpt><trkpt lat="44.8283033" lon="8.1824017"><ele>170.0</ele><time>2026-04-12T07:44:43.064Z</time></trkpt><trkpt lat="44.82831" lon="8.182305"><ele>170.0</ele><time>2026-04-12T07:44:44.062Z</time></trkpt><trkpt lat="44.82832" lon="8.18221"><ele>170.0</ele><time>2026-04-12T07:44:45.064Z</time></trkpt><trkpt lat="44.828335" lon="8.1821117"><ele>170.0</ele><time>2026-04-12T07:44:46.062Z</time></trkpt><trkpt lat="44.8283517" lon="8.1820133"><ele>170.0</ele><time>2026-04-12T07:44:47.062Z</time></trkpt><trkpt lat="44.8283683" lon="8.1819133"><ele>170.0</ele><time>2026-04-12T07:44:48.062Z</time></trkpt><trkpt lat="44.8283883" lon="8.1818167"><ele>170.0</ele><time>2026-04-12T07:44:49.063Z</time></trkpt><trkpt lat="44.8284083" lon="8.1817183"><ele>170.0</ele><time>2026-04-12T07:44:50.065Z</time></trkpt><trkpt lat="44.8284283" lon="8.18162"><ele>170.0</ele><time>2026-04-12T07:44:51.063Z</time></trkpt><trkpt lat="44.8284483" lon="8.18152"><ele>170.0</ele><time>2026-04-12T07:44:52.063Z</time></trkpt><trkpt lat="44.8284683" lon="8.18142"><ele>170.0</ele><time>2026-04-12T07:44:53.063Z</time></trkpt><trkpt lat="44.82849" lon="8.1813167"><ele>170.0</ele><time>2026-04-12T07:44:54.063Z</time></trkpt><trkpt lat="44.8285133" lon="8.1812133"><ele>170.0</ele><time>2026-04-12T07:44:55.064Z</time></trkpt><trkpt lat="44.8285367" lon="8.181105"><ele>170.0</ele><time>2026-04-12T07:44:56.062Z</time></trkpt><trkpt lat="44.8285583" lon="8.180995"><ele>169.83333333333331</ele><time>2026-04-12T07:44:57.063Z</time></trkpt><trkpt lat="44.82858" lon="8.180885"><ele>169.66666666666666</ele><time>2026-04-12T07:44:58.062Z</time></trkpt><trkpt lat="44.8286" lon="8.1807683"><ele>169.5</ele><time>2026-04-12T07:44:59.063Z</time></trkpt><trkpt lat="44.8286217" lon="8.18065"><ele>169.33333333333334</ele><time>2026-04-12T07:45:00.063Z</time></trkpt><trkpt lat="44.8286433" lon="8.1805267"><ele>169.16666666666669</ele><time>2026-04-12T07:45:01.063Z</time></trkpt><trkpt lat="44.8286667" lon="8.1804017"><ele>169.0</ele><time>2026-04-12T07:45:02.064Z</time></trkpt><trkpt lat="44.8286933" lon="8.1802767"><ele>169.0</ele><time>2026-04-12T07:45:03.063Z</time></trkpt><trkpt lat="44.8287183" lon="8.180145"><ele>169.0</ele><time>2026-04-12T07:45:04.063Z</time></trkpt><trkpt lat="44.8287417" lon="8.1800083"><ele>169.0</ele><time>2026-04-12T07:45:05.063Z</time></trkpt><trkpt lat="44.8287617" lon="8.17987"><ele>169.0</ele><time>2026-04-12T07:45:06.063Z</time></trkpt><trkpt lat="44.82878" lon="8.17973"><ele>169.0</ele><time>2026-04-12T07:45:07.066Z</time></trkpt><trkpt lat="44.828795" lon="8.1795883"><ele>166.79999999999998</ele><time>2026-04-12T07:45:08.065Z</time></trkpt><trkpt lat="44.8288033" lon="8.179445"><ele>164.6</ele><time>2026-04-12T07:45:09.065Z</time></trkpt><trkpt lat="44.8288" lon="8.1793"><ele>162.4</ele><time>2026-04-12T07:45:10.062Z</time></trkpt><trkpt lat="44.828785" lon="8.1791533"><ele>160.2</ele><time>2026-04-12T07:45:11.064Z</time></trkpt><trkpt lat="44.8287617" lon="8.1790083"><ele>158.0</ele><time>2026-04-12T07:45:12.065Z</time></trkpt><trkpt lat="44.828725" lon="8.1788717"><ele>157.6</ele><time>2026-04-12T07:45:13.065Z</time></trkpt><trkpt lat="44.8286717" lon="8.178745"><ele>157.20000000000002</ele><time>2026-04-12T07:45:14.062Z</time></trkpt><trkpt lat="44.8286067" lon="8.178625"><ele>156.8</ele><time>2026-04-12T07:45:15.061Z</time></trkpt><trkpt lat="44.8285333" lon="8.1785133"><ele>156.4</ele><time>2026-04-12T07:45:16.063Z</time></trkpt><trkpt lat="44.82845" lon="8.178415"><ele>156.0</ele><time>2026-04-12T07:45:17.063Z</time></trkpt><trkpt lat="44.8283617" lon="8.1783283"><ele>156.0</ele><time>2026-04-12T07:45:18.062Z</time></trkpt><trkpt lat="44.8282667" lon="8.1782483"><ele>156.0</ele><time>2026-04-12T07:45:19.062Z</time></trkpt><trkpt lat="44.82817" lon="8.17817"><ele>156.0</ele><time>2026-04-12T07:45:20.063Z</time></trkpt><trkpt lat="44.82807" lon="8.178095"><ele>156.0</ele><time>2026-04-12T07:45:21.064Z</time></trkpt><trkpt lat="44.8279717" lon="8.17802"><ele>156.0</ele><time>2026-04-12T07:45:22.063Z</time></trkpt><trkpt lat="44.8278783" lon="8.17794"><ele>155.4</ele><time>2026-04-12T07:45:23.061Z</time></trkpt><trkpt lat="44.8277933" lon="8.177845"><ele>154.8</ele><time>2026-04-12T07:45:24.065Z</time></trkpt><trkpt lat="44.8277183" lon="8.177745"><ele>154.20000000000002</ele><time>2026-04-12T07:45:25.063Z</time></trkpt><trkpt lat="44.8276567" lon="8.17764"><ele>153.6</ele><time>2026-04-12T07:45:26.062Z</time></trkpt><trkpt lat="44.8276167" lon="8.1775483"><ele>153.0</ele><time>2026-04-12T07:45:27.064Z</time></trkpt><trkpt lat="44.8275983" lon="8.17746"><ele>150.20000000000002</ele><time>2026-04-12T07:45:28.063Z</time></trkpt><trkpt lat="44.82766" lon="8.1773167"><ele>147.4</ele><time>2026-04-12T07:45:30.063Z</time></trkpt><trkpt lat="44.8277833" lon="8.1772667"><ele>144.60000000000002</ele><time>2026-04-12T07:45:32.063Z</time></trkpt><trkpt lat="44.8278633" lon="8.1772617"><ele>141.8</ele><time>2026-04-12T07:45:33.063Z</time></trkpt><trkpt lat="44.8279467" lon="8.1772617"><ele>139.0</ele><time>2026-04-12T07:45:34.063Z</time></trkpt><trkpt lat="44.82803" lon="8.1772667"><ele>139.0</ele><time>2026-04-12T07:45:35.064Z</time></trkpt><trkpt lat="44.828115" lon="8.1772783"><ele>139.0</ele><time>2026-04-12T07:45:36.062Z</time></trkpt><trkpt lat="44.8282017" lon="8.1772933"><ele>139.0</ele><time>2026-04-12T07:45:37.063Z</time></trkpt><trkpt lat="44.8282867" lon="8.177315"><ele>139.0</ele><time>2026-04-12T07:45:38.064Z</time></trkpt><trkpt lat="44.828365" lon="8.1773383"><ele>139.0</ele><time>2026-04-12T07:45:39.065Z</time></trkpt><trkpt lat="44.828435" lon="8.1773667"><ele>139.0</ele><time>2026-04-12T07:45:40.064Z</time></trkpt><trkpt lat="44.828535" lon="8.177405"><ele>139.0</ele><time>2026-04-12T07:45:42.064Z</time></trkpt><trkpt lat="44.8285583" lon="8.1773217"><ele>139.0</ele><time>2026-04-12T07:45:53.064Z</time></trkpt><trkpt lat="44.828475" lon="8.1772683"><ele>139.0</ele><time>2026-04-12T07:45:56.063Z</time></trkpt><trkpt lat="44.8284217" lon="8.17716"><ele>139.0</ele><time>2026-04-12T07:45:58.065Z</time></trkpt><trkpt lat="44.828375" lon="8.1769967"><ele>139.0</ele><time>2026-04-12T07:46:00.062Z</time></trkpt><trkpt lat="44.82834" lon="8.1769"><ele>139.0</ele><time>2026-04-12T07:46:01.063Z</time></trkpt><trkpt lat="44.8283017" lon="8.1767983"><ele>139.0</ele><time>2026-04-12T07:46:02.063Z</time></trkpt><trkpt lat="44.828265" lon="8.1766917"><ele>139.0</ele><time>2026-04-12T07:46:03.062Z</time></trkpt><trkpt lat="44.8282183" lon="8.1765883"><ele>139.0</ele><time>2026-04-12T07:46:04.063Z</time></trkpt><trkpt lat="44.8281817" lon="8.1764717"><ele>139.0</ele><time>2026-04-12T07:46:05.061Z</time></trkpt><trkpt lat="44.8281467" lon="8.17636"><ele>139.0</ele><time>2026-04-12T07:46:06.062Z</time></trkpt><trkpt lat="44.8281117" lon="8.17625"><ele>138.0</ele><time>2026-04-12T07:46:07.063Z</time></trkpt><trkpt lat="44.8280817" lon="8.1761483"><ele>137.0</ele><time>2026-04-12T07:46:08.063Z</time></trkpt><trkpt lat="44.8280567" lon="8.1760533"><ele>136.0</ele><time>2026-04-12T07:46:09.064Z</time></trkpt><trkpt lat="44.8280183" lon="8.1758983"><ele>135.0</ele><time>2026-04-12T07:46:11.064Z</time></trkpt><trkpt lat="44.8279767" lon="8.1757833"><ele>134.0</ele><time>2026-04-12T07:46:13.065Z</time></trkpt><trkpt lat="44.827915" lon="8.1756717"><ele>133.75</ele><time>2026-04-12T07:46:15.063Z</time></trkpt><trkpt lat="44.8278217" lon="8.175585"><ele>133.5</ele><time>2026-04-12T07:46:17.062Z</time></trkpt><trkpt lat="44.827715" lon="8.1755167"><ele>133.25</ele><time>2026-04-12T07:46:19.064Z</time></trkpt><trkpt lat="44.8276067" lon="8.1754317"><ele>133.0</ele><time>2026-04-12T07:46:21.063Z</time></trkpt><trkpt lat="44.8275233" lon="8.175305"><ele>133.0</ele><time>2026-04-12T07:46:23.062Z</time></trkpt><trkpt lat="44.8275033" lon="8.175215"><ele>133.0</ele><time>2026-04-12T07:46:24.063Z</time></trkpt><trkpt lat="44.827495" lon="8.1751167"><ele>133.0</ele><time>2026-04-12T07:46:25.064Z</time></trkpt><trkpt lat="44.8274983" lon="8.1750133"><ele>133.0</ele><time>2026-04-12T07:46:26.064Z</time></trkpt><trkpt lat="44.82751" lon="8.17491"><ele>133.0</ele><time>2026-04-12T07:46:27.065Z</time></trkpt><trkpt lat="44.827525" lon="8.1748"><ele>133.0</ele><time>2026-04-12T07:46:28.064Z</time></trkpt><trkpt lat="44.8275433" lon="8.1746883"><ele>133.0</ele><time>2026-04-12T07:46:29.063Z</time></trkpt><trkpt lat="44.8275583" lon="8.1745767"><ele>132.28571428571428</ele><time>2026-04-12T07:46:30.064Z</time></trkpt><trkpt lat="44.8275733" lon="8.1744683"><ele>131.57142857142856</ele><time>2026-04-12T07:46:31.064Z</time></trkpt><trkpt lat="44.8275833" lon="8.1743617"><ele>130.85714285714286</ele><time>2026-04-12T07:46:32.061Z</time></trkpt><trkpt lat="44.827595" lon="8.174255"><ele>130.14285714285714</ele><time>2026-04-12T07:46:33.065Z</time></trkpt><trkpt lat="44.82761" lon="8.1741517"><ele>129.42857142857142</ele><time>2026-04-12T07:46:34.063Z</time></trkpt><trkpt lat="44.8276283" lon="8.1740533"><ele>128.71428571428572</ele><time>2026-04-12T07:46:35.062Z</time></trkpt><trkpt lat="44.8276483" lon="8.1739567"><ele>128.0</ele><time>2026-04-12T07:46:36.062Z</time></trkpt><trkpt lat="44.8276667" lon="8.1738667"><ele>127.57142857142857</ele><time>2026-04-12T07:46:37.061Z</time></trkpt><trkpt lat="44.827685" lon="8.17378"><ele>127.14285714285714</ele><time>2026-04-12T07:46:38.063Z</time></trkpt><trkpt lat="44.8277067" lon="8.1736933"><ele>126.71428571428571</ele><time>2026-04-12T07:46:39.062Z</time></trkpt><trkpt lat="44.8277283" lon="8.1736033"><ele>126.28571428571428</ele><time>2026-04-12T07:46:40.062Z</time></trkpt><trkpt lat="44.8277533" lon="8.17351"><ele>125.85714285714286</ele><time>2026-04-12T07:46:41.062Z</time></trkpt><trkpt lat="44.827785" lon="8.1734183"><ele>125.42857142857142</ele><time>2026-04-12T07:46:42.062Z</time></trkpt><trkpt lat="44.827815" lon="8.173325"><ele>125.0</ele><time>2026-04-12T07:46:43.065Z</time></trkpt><trkpt lat="44.8278467" lon="8.1732267"><ele>125.33333333333333</ele><time>2026-04-12T07:46:44.062Z</time></trkpt><trkpt lat="44.8278767" lon="8.173125"><ele>125.66666666666666</ele><time>2026-04-12T07:46:45.062Z</time></trkpt><trkpt lat="44.8279083" lon="8.1730283"><ele>126.0</ele><time>2026-04-12T07:46:46.065Z</time></trkpt><trkpt lat="44.8279433" lon="8.1729317"><ele>126.33333333333334</ele><time>2026-04-12T07:46:47.062Z</time></trkpt><trkpt lat="44.8279767" lon="8.1728333"><ele>126.66666666666667</ele><time>2026-04-12T07:46:48.064Z</time></trkpt><trkpt lat="44.8280133" lon="8.172735"><ele>127.0</ele><time>2026-04-12T07:46:49.063Z</time></trkpt><trkpt lat="44.8280483" lon="8.1726367"><ele>127.00000000000001</ele><time>2026-04-12T07:46:50.062Z</time></trkpt><trkpt lat="44.8280833" lon="8.1725383"><ele>127.0</ele><time>2026-04-12T07:46:51.062Z</time></trkpt><trkpt lat="44.828115" lon="8.1724417"><ele>127.0</ele><time>2026-04-12T07:46:52.066Z</time></trkpt><trkpt lat="44.8281467" lon="8.17235"><ele>127.0</ele><time>2026-04-12T07:46:53.064Z</time></trkpt><trkpt lat="44.8281783" lon="8.1722567"><ele>127.00000000000001</ele><time>2026-04-12T07:46:54.063Z</time></trkpt><trkpt lat="44.828205" lon="8.1721683"><ele>127.0</ele><time>2026-04-12T07:46:55.062Z</time></trkpt><trkpt lat="44.8282533" lon="8.17203"><ele>127.00000000000001</ele><time>2026-04-12T07:46:57.063Z</time></trkpt><trkpt lat="44.8282933" lon="8.1719317"><ele>127.0</ele><time>2026-04-12T07:47:00.062Z</time></trkpt><trkpt lat="44.828335" lon="8.1718417"><ele>127.0</ele><time>2026-04-12T07:47:20.064Z</time></trkpt><trkpt lat="44.8283767" lon="8.1717433"><ele>127.0</ele><time>2026-04-12T07:47:22.065Z</time></trkpt><trkpt lat="44.8284217" lon="8.1716167"><ele>127.00000000000001</ele><time>2026-04-12T07:47:24.065Z</time></trkpt><trkpt lat="44.828465" lon="8.1714817"><ele>127.0</ele><time>2026-04-12T07:47:26.063Z</time></trkpt><trkpt lat="44.8285117" lon="8.1713567"><ele>127.0</ele><time>2026-04-12T07:47:28.065Z</time></trkpt><trkpt lat="44.8285433" lon="8.171225"><ele>126.99999999999999</ele><time>2026-04-12T07:47:30.063Z</time></trkpt><trkpt lat="44.8285717" lon="8.17109"><ele>126.99999999999999</ele><time>2026-04-12T07:47:32.065Z</time></trkpt><trkpt lat="44.8285917" lon="8.1709433"><ele>127.0</ele><time>2026-04-12T07:47:34.061Z</time></trkpt><trkpt lat="44.8286033" lon="8.17079"><ele>127.0</ele><time>2026-04-12T07:47:36.063Z</time></trkpt><trkpt lat="44.8286183" lon="8.1706283"><ele>127.0</ele><time>2026-04-12T07:47:38.062Z</time></trkpt><trkpt lat="44.8286283" lon="8.17054"><ele>127.0</ele><time>2026-04-12T07:47:39.063Z</time></trkpt><trkpt lat="44.8286433" lon="8.170365"><ele>127.0</ele><time>2026-04-12T07:47:41.064Z</time></trkpt><trkpt lat="44.82865" lon="8.1702717"><ele>127.0</ele><time>2026-04-12T07:47:42.061Z</time></trkpt><trkpt lat="44.8286583" lon="8.17018"><ele>127.0</ele><time>2026-04-12T07:47:43.064Z</time></trkpt><trkpt lat="44.8286667" lon="8.1700883"><ele>127.0</ele><time>2026-04-12T07:47:44.061Z</time></trkpt><trkpt lat="44.8286733" lon="8.17"><ele>127.0</ele><time>2026-04-12T07:47:45.064Z</time></trkpt><trkpt lat="44.82868" lon="8.1699083"><ele>127.0</ele><time>2026-04-12T07:47:46.062Z</time></trkpt><trkpt lat="44.8286883" lon="8.1698183"><ele>127.0</ele><time>2026-04-12T07:47:47.063Z</time></trkpt><trkpt lat="44.8286983" lon="8.16973"><ele>127.0</ele><time>2026-04-12T07:47:48.063Z</time></trkpt><trkpt lat="44.8287083" lon="8.16964"><ele>127.0</ele><time>2026-04-12T07:47:49.063Z</time></trkpt><trkpt lat="44.82871" lon="8.1695467"><ele>127.0</ele><time>2026-04-12T07:47:50.065Z</time></trkpt><trkpt lat="44.8287" lon="8.1694517"><ele>127.0</ele><time>2026-04-12T07:47:51.063Z</time></trkpt><trkpt lat="44.8286783" lon="8.1693583"><ele>127.0</ele><time>2026-04-12T07:47:52.062Z</time></trkpt><trkpt lat="44.8286517" lon="8.1692717"><ele>127.0</ele><time>2026-04-12T07:47:53.062Z</time></trkpt><trkpt lat="44.82862" lon="8.1691817"><ele>127.0</ele><time>2026-04-12T07:47:54.064Z</time></trkpt><trkpt lat="44.8285883" lon="8.1690917"><ele>127.0</ele><time>2026-04-12T07:47:55.063Z</time></trkpt><trkpt lat="44.828555" lon="8.1690067"><ele>127.0</ele><time>2026-04-12T07:47:56.064Z</time></trkpt><trkpt lat="44.82852" lon="8.1689183"><ele>127.0</ele><time>2026-04-12T07:47:57.064Z</time></trkpt><trkpt lat="44.8284883" lon="8.1688333"><ele>127.0</ele><time>2026-04-12T07:47:58.063Z</time></trkpt><trkpt lat="44.828455" lon="8.1687467"><ele>127.0</ele><time>2026-04-12T07:47:59.063Z</time></trkpt><trkpt lat="44.8284233" lon="8.1686617"><ele>126.85714285714286</ele><time>2026-04-12T07:48:00.063Z</time></trkpt><trkpt lat="44.828395" lon="8.1685733"><ele>126.71428571428571</ele><time>2026-04-12T07:48:01.065Z</time></trkpt><trkpt lat="44.8283683" lon="8.168485"><ele>126.57142857142857</ele><time>2026-04-12T07:48:02.064Z</time></trkpt><trkpt lat="44.82834" lon="8.1683967"><ele>126.42857142857143</ele><time>2026-04-12T07:48:03.062Z</time></trkpt><trkpt lat="44.82831" lon="8.1683067"><ele>126.28571428571428</ele><time>2026-04-12T07:48:04.063Z</time></trkpt><trkpt lat="44.82828" lon="8.1682183"><ele>126.14285714285714</ele><time>2026-04-12T07:48:05.063Z</time></trkpt><trkpt lat="44.8282517" lon="8.16813"><ele>126.0</ele><time>2026-04-12T07:48:06.06Z</time></trkpt><trkpt lat="44.828225" lon="8.1680433"><ele>126.0</ele><time>2026-04-12T07:48:07.062Z</time></trkpt><trkpt lat="44.8281983" lon="8.167955"><ele>126.0</ele><time>2026-04-12T07:48:08.062Z</time></trkpt><trkpt lat="44.8281767" lon="8.1678683"><ele>126.0</ele><time>2026-04-12T07:48:09.064Z</time></trkpt><trkpt lat="44.8281617" lon="8.1677817"><ele>126.0</ele><time>2026-04-12T07:48:10.063Z</time></trkpt><trkpt lat="44.8281533" lon="8.16762"><ele>126.0</ele><time>2026-04-12T07:48:12.064Z</time></trkpt><trkpt lat="44.8280467" lon="8.1673817"><ele>126.0</ele><time>2026-04-12T07:48:16.568Z</time></trkpt><trkpt lat="44.8280033" lon="8.167245"><ele>126.0</ele><time>2026-04-12T07:48:17.562Z</time></trkpt><trkpt lat="44.8279483" lon="8.1671033"><ele>126.0</ele><time>2026-04-12T07:48:19.068Z</time></trkpt><trkpt lat="44.8279067" lon="8.167025"><ele>126.0</ele><time>2026-04-12T07:48:20.065Z</time></trkpt><trkpt lat="44.8278633" lon="8.1669367"><ele>126.0</ele><time>2026-04-12T07:48:21.064Z</time></trkpt><trkpt lat="44.827815" lon="8.166865"><ele>126.0</ele><time>2026-04-12T07:48:22.064Z</time></trkpt><trkpt lat="44.827765" lon="8.1667983"><ele>126.0</ele><time>2026-04-12T07:48:23.064Z</time></trkpt><trkpt lat="44.8277117" lon="8.1667367"><ele>126.0</ele><time>2026-04-12T07:48:24.061Z</time></trkpt><trkpt lat="44.827655" lon="8.1666767"><ele>126.0</ele><time>2026-04-12T07:48:25.065Z</time></trkpt><trkpt lat="44.8275933" lon="8.1666217"><ele>126.0</ele><time>2026-04-12T07:48:26.068Z</time></trkpt><trkpt lat="44.82753" lon="8.1665733"><ele>126.0</ele><time>2026-04-12T07:48:27.066Z</time></trkpt><trkpt lat="44.8274683" lon="8.1665283"><ele>126.0</ele><time>2026-04-12T07:48:28.064Z</time></trkpt><trkpt lat="44.82741" lon="8.1664783"><ele>126.0</ele><time>2026-04-12T07:48:29.062Z</time></trkpt><trkpt lat="44.8273533" lon="8.1664233"><ele>126.14285714285714</ele><time>2026-04-12T07:48:30.062Z</time></trkpt><trkpt lat="44.827295" lon="8.1663683"><ele>126.28571428571428</ele><time>2026-04-12T07:48:31.068Z</time></trkpt><trkpt lat="44.8272367" lon="8.16631"><ele>126.42857142857143</ele><time>2026-04-12T07:48:32.063Z</time></trkpt><trkpt lat="44.8271817" lon="8.1662483"><ele>126.57142857142857</ele><time>2026-04-12T07:48:33.063Z</time></trkpt><trkpt lat="44.827125" lon="8.1661867"><ele>126.71428571428571</ele><time>2026-04-12T07:48:34.063Z</time></trkpt><trkpt lat="44.82707" lon="8.166125"><ele>126.85714285714286</ele><time>2026-04-12T07:48:35.064Z</time></trkpt><trkpt lat="44.8270167" lon="8.1660567"><ele>127.0</ele><time>2026-04-12T07:48:36.064Z</time></trkpt><trkpt lat="44.8269683" lon="8.16599"><ele>127.00000000000001</ele><time>2026-04-12T07:48:37.066Z</time></trkpt><trkpt lat="44.826925" lon="8.16592"><ele>127.0</ele><time>2026-04-12T07:48:38.063Z</time></trkpt><trkpt lat="44.826885" lon="8.16585"><ele>127.0</ele><time>2026-04-12T07:48:39.063Z</time></trkpt><trkpt lat="44.8268433" lon="8.1657833"><ele>127.0</ele><time>2026-04-12T07:48:40.064Z</time></trkpt><trkpt lat="44.8267633" lon="8.1656417"><ele>127.00000000000001</ele><time>2026-04-12T07:48:42.063Z</time></trkpt><trkpt lat="44.8266967" lon="8.1654983"><ele>127.0</ele><time>2026-04-12T07:48:44.063Z</time></trkpt><trkpt lat="44.8266367" lon="8.16535"><ele>127.00000000000001</ele><time>2026-04-12T07:48:46.064Z</time></trkpt><trkpt lat="44.826585" lon="8.1651967"><ele>127.0</ele><time>2026-04-12T07:48:48.064Z</time></trkpt><trkpt lat="44.8265333" lon="8.1650367"><ele>127.0</ele><time>2026-04-12T07:48:50.065Z</time></trkpt><trkpt lat="44.8265067" lon="8.1649517"><ele>127.0</ele><time>2026-04-12T07:48:51.064Z</time></trkpt><trkpt lat="44.8264833" lon="8.1648617"><ele>127.00000000000001</ele><time>2026-04-12T07:48:52.066Z</time></trkpt><trkpt lat="44.8264633" lon="8.1647733"><ele>127.0</ele><time>2026-04-12T07:48:53.063Z</time></trkpt><trkpt lat="44.8264467" lon="8.164685"><ele>127.00000000000001</ele><time>2026-04-12T07:48:54.065Z</time></trkpt><trkpt lat="44.8264333" lon="8.1645917"><ele>127.0</ele><time>2026-04-12T07:48:55.065Z</time></trkpt><trkpt lat="44.8264167" lon="8.1644983"><ele>127.0</ele><time>2026-04-12T07:48:56.065Z</time></trkpt><trkpt lat="44.8264" lon="8.1644017"><ele>127.0</ele><time>2026-04-12T07:48:57.068Z</time></trkpt><trkpt lat="44.82639" lon="8.1643083"><ele>127.00000000000001</ele><time>2026-04-12T07:48:58.063Z</time></trkpt><trkpt lat="44.82638" lon="8.16422"><ele>127.0</ele><time>2026-04-12T07:48:59.065Z</time></trkpt><trkpt lat="44.8263617" lon="8.164045"><ele>126.6</ele><time>2026-04-12T07:49:01.061Z</time></trkpt><trkpt lat="44.8263433" lon="8.1638783"><ele>126.19999999999999</ele><time>2026-04-12T07:49:03.066Z</time></trkpt><trkpt lat="44.826325" lon="8.1637067"><ele>125.8</ele><time>2026-04-12T07:49:05.062Z</time></trkpt><trkpt lat="44.8263017" lon="8.1635333"><ele>125.4</ele><time>2026-04-12T07:49:07.066Z</time></trkpt><trkpt lat="44.82629" lon="8.163445"><ele>125.0</ele><time>2026-04-12T07:49:08.062Z</time></trkpt><trkpt lat="44.82628" lon="8.163355"><ele>125.0</ele><time>2026-04-12T07:49:09.063Z</time></trkpt><trkpt lat="44.82626" lon="8.16318"><ele>125.0</ele><time>2026-04-12T07:49:11.063Z</time></trkpt><trkpt lat="44.8262317" lon="8.1630167"><ele>125.0</ele><time>2026-04-12T07:49:13.063Z</time></trkpt><trkpt lat="44.826215" lon="8.1628617"><ele>125.0</ele><time>2026-04-12T07:49:15.065Z</time></trkpt><trkpt lat="44.826245" lon="8.1627283"><ele>125.0</ele><time>2026-04-12T07:49:17.064Z</time></trkpt><trkpt lat="44.82632" lon="8.1626367"><ele>125.0</ele><time>2026-04-12T07:49:19.063Z</time></trkpt><trkpt lat="44.82641" lon="8.1625333"><ele>125.0</ele><time>2026-04-12T07:49:21.064Z</time></trkpt><trkpt lat="44.8265067" lon="8.1624283"><ele>125.0</ele><time>2026-04-12T07:49:23.062Z</time></trkpt><trkpt lat="44.8265567" lon="8.1623717"><ele>125.0</ele><time>2026-04-12T07:49:24.061Z</time></trkpt><trkpt lat="44.8266083" lon="8.16232"><ele>125.0</ele><time>2026-04-12T07:49:25.064Z</time></trkpt><trkpt lat="44.8267033" lon="8.1622067"><ele>125.0</ele><time>2026-04-12T07:49:27.062Z</time></trkpt><trkpt lat="44.8267983" lon="8.1620917"><ele>125.0</ele><time>2026-04-12T07:49:29.062Z</time></trkpt><trkpt lat="44.8268917" lon="8.1619833"><ele>125.0</ele><time>2026-04-12T07:49:31.064Z</time></trkpt><trkpt lat="44.826985" lon="8.161875"><ele>125.0</ele><time>2026-04-12T07:49:33.064Z</time></trkpt><trkpt lat="44.8270817" lon="8.1617617"><ele>125.0</ele><time>2026-04-12T07:49:35.062Z</time></trkpt><trkpt lat="44.82713" lon="8.1617033"><ele>125.0</ele><time>2026-04-12T07:49:36.063Z</time></trkpt><trkpt lat="44.8272183" lon="8.1615817"><ele>125.0</ele><time>2026-04-12T07:49:38.061Z</time></trkpt><trkpt lat="44.8272683" lon="8.1614267"><ele>125.0</ele><time>2026-04-12T07:49:40.065Z</time></trkpt><trkpt lat="44.8273017" lon="8.1612583"><ele>125.0</ele><time>2026-04-12T07:49:42.066Z</time></trkpt><trkpt lat="44.8273767" lon="8.1611233"><ele>125.0</ele><time>2026-04-12T07:49:44.061Z</time></trkpt><trkpt lat="44.8274667" lon="8.16101"><ele>125.0</ele><time>2026-04-12T07:49:46.063Z</time></trkpt><trkpt lat="44.8275483" lon="8.160905"><ele>125.0</ele><time>2026-04-12T07:49:48.064Z</time></trkpt><trkpt lat="44.8276283" lon="8.1608183"><ele>125.0</ele><time>2026-04-12T07:49:50.061Z</time></trkpt><trkpt lat="44.8277117" lon="8.160715"><ele>125.0</ele><time>2026-04-12T07:49:52.063Z</time></trkpt><trkpt lat="44.8277967" lon="8.1606017"><ele>125.0</ele><time>2026-04-12T07:49:54.061Z</time></trkpt><trkpt lat="44.82788" lon="8.160495"><ele>125.0</ele><time>2026-04-12T07:49:56.064Z</time></trkpt><trkpt lat="44.8279633" lon="8.16039"><ele>124.8</ele><time>2026-04-12T07:49:58.067Z</time></trkpt><trkpt lat="44.8280467" lon="8.160285"><ele>124.6</ele><time>2026-04-12T07:50:00.064Z</time></trkpt><trkpt lat="44.8281283" lon="8.1601817"><ele>124.4</ele><time>2026-04-12T07:50:02.061Z</time></trkpt><trkpt lat="44.8282083" lon="8.1600817"><ele>124.2</ele><time>2026-04-12T07:50:04.066Z</time></trkpt><trkpt lat="44.8282767" lon="8.15998"><ele>124.0</ele><time>2026-04-12T07:50:06.062Z</time></trkpt><trkpt lat="44.82834" lon="8.1598783"><ele>124.0</ele><time>2026-04-12T07:50:08.061Z</time></trkpt><trkpt lat="44.8284117" lon="8.1598267"><ele>124.0</ele><time>2026-04-12T07:50:10.07Z</time></trkpt><trkpt lat="44.82848" lon="8.15988"><ele>124.0</ele><time>2026-04-12T07:50:12.063Z</time></trkpt><trkpt lat="44.828545" lon="8.159985"><ele>124.0</ele><time>2026-04-12T07:50:14.067Z</time></trkpt><trkpt lat="44.8286167" lon="8.1601017"><ele>124.0</ele><time>2026-04-12T07:50:16.069Z</time></trkpt><trkpt lat="44.8286867" lon="8.1602317"><ele>124.0</ele><time>2026-04-12T07:50:18.067Z</time></trkpt><trkpt lat="44.8287617" lon="8.16036"><ele>124.0</ele><time>2026-04-12T07:50:20.065Z</time></trkpt><trkpt lat="44.8288333" lon="8.160485"><ele>124.0</ele><time>2026-04-12T07:50:22.063Z</time></trkpt><trkpt lat="44.828905" lon="8.1605483"><ele>124.0</ele><time>2026-04-12T07:50:24.063Z</time></trkpt><trkpt lat="44.828975" lon="8.1605567"><ele>124.0</ele><time>2026-04-12T07:50:26.063Z</time></trkpt><trkpt lat="44.8290367" lon="8.1604833"><ele>124.0</ele><time>2026-04-12T07:50:43.065Z</time></trkpt><trkpt lat="44.829095" lon="8.1604067"><ele>124.0</ele><time>2026-04-12T07:51:03.587Z</time></trkpt><trkpt lat="44.829145" lon="8.1603083"><ele>124.0</ele><time>2026-04-12T07:52:20.062Z</time></trkpt><trkpt lat="44.8292567" lon="8.1601567"><ele>124.0</ele><time>2026-04-12T07:52:24.063Z</time></trkpt><trkpt lat="44.8292617" lon="8.1600533"><ele>124.0</ele><time>2026-04-12T07:52:26.061Z</time></trkpt><trkpt lat="44.8292467" lon="8.1599583"><ele>124.16666666666667</ele><time>2026-04-12T07:52:28.063Z</time></trkpt><trkpt lat="44.8292117" lon="8.159865"><ele>124.33333333333334</ele><time>2026-04-12T07:52:31.066Z</time></trkpt><trkpt lat="44.8291767" lon="8.159755"><ele>124.5</ele><time>2026-04-12T07:52:34.062Z</time></trkpt><trkpt lat="44.82913" lon="8.1596517"><ele>124.66666666666666</ele><time>2026-04-12T07:52:37.064Z</time></trkpt><trkpt lat="44.82907" lon="8.1595533"><ele>124.83333333333333</ele><time>2026-04-12T07:52:40.063Z</time></trkpt><trkpt lat="44.829015" lon="8.1594717"><ele>125.0</ele><time>2026-04-12T07:52:42.061Z</time></trkpt><trkpt lat="44.8289567" lon="8.159385"><ele>125.0</ele><time>2026-04-12T07:52:44.064Z</time></trkpt><trkpt lat="44.8289033" lon="8.1592933"><ele>125.0</ele><time>2026-04-12T07:52:46.064Z</time></trkpt><trkpt lat="44.82884" lon="8.1591933"><ele>125.0</ele><time>2026-04-12T07:52:48.061Z</time></trkpt><trkpt lat="44.8287783" lon="8.15909"><ele>125.0</ele><time>2026-04-12T07:52:50.062Z</time></trkpt><trkpt lat="44.8287083" lon="8.1589833"><ele>125.0</ele><time>2026-04-12T07:52:52.062Z</time></trkpt><trkpt lat="44.828645" lon="8.1588817"><ele>125.2</ele><time>2026-04-12T07:52:54.065Z</time></trkpt><trkpt lat="44.8285783" lon="8.1587817"><ele>125.4</ele><time>2026-04-12T07:52:56.065Z</time></trkpt><trkpt lat="44.82851" lon="8.158675"><ele>125.6</ele><time>2026-04-12T07:52:58.065Z</time></trkpt><trkpt lat="44.8284383" lon="8.1585583"><ele>125.8</ele><time>2026-04-12T07:53:00.062Z</time></trkpt><trkpt lat="44.82837" lon="8.1584367"><ele>126.0</ele><time>2026-04-12T07:53:02.067Z</time></trkpt><trkpt lat="44.8282983" lon="8.1583217"><ele>126.0</ele><time>2026-04-12T07:53:04.063Z</time></trkpt><trkpt lat="44.828225" lon="8.1582067"><ele>126.0</ele><time>2026-04-12T07:53:06.066Z</time></trkpt><trkpt lat="44.82815" lon="8.158085"><ele>126.0</ele><time>2026-04-12T07:53:08.063Z</time></trkpt><trkpt lat="44.828075" lon="8.1579667"><ele>126.0</ele><time>2026-04-12T07:53:10.066Z</time></trkpt><trkpt lat="44.828" lon="8.157845"><ele>125.75</ele><time>2026-04-12T07:53:12.068Z</time></trkpt><trkpt lat="44.8279317" lon="8.1577117"><ele>125.5</ele><time>2026-04-12T07:53:14.063Z</time></trkpt><trkpt lat="44.82786" lon="8.1575883"><ele>125.25</ele><time>2026-04-12T07:53:16.066Z</time></trkpt><trkpt lat="44.8277867" lon="8.1574633"><ele>125.0</ele><time>2026-04-12T07:53:18.064Z</time></trkpt><trkpt lat="44.827705" lon="8.1573367"><ele>125.0</ele><time>2026-04-12T07:53:20.07Z</time></trkpt><trkpt lat="44.827625" lon="8.157205"><ele>125.0</ele><time>2026-04-12T07:53:22.065Z</time></trkpt><trkpt lat="44.8275483" lon="8.157065"><ele>125.0</ele><time>2026-04-12T07:53:24.064Z</time></trkpt><trkpt lat="44.82747" lon="8.1569317"><ele>125.0</ele><time>2026-04-12T07:53:26.062Z</time></trkpt><trkpt lat="44.8273917" lon="8.1568033"><ele>125.0</ele><time>2026-04-12T07:53:28.056Z</time></trkpt><trkpt lat="44.827315" lon="8.1566733"><ele>125.0</ele><time>2026-04-12T07:53:30.062Z</time></trkpt><trkpt lat="44.8272367" lon="8.1565433"><ele>125.0</ele><time>2026-04-12T07:53:32.062Z</time></trkpt><trkpt lat="44.8271633" lon="8.1564317"><ele>125.0</ele><time>2026-04-12T07:53:34.062Z</time></trkpt><trkpt lat="44.82708" lon="8.1563033"><ele>125.25</ele><time>2026-04-12T07:53:36.062Z</time></trkpt><trkpt lat="44.8270017" lon="8.1561717"><ele>125.5</ele><time>2026-04-12T07:53:38.06Z</time></trkpt><trkpt lat="44.8269267" lon="8.1560433"><ele>125.75</ele><time>2026-04-12T07:53:40.062Z</time></trkpt><trkpt lat="44.8268483" lon="8.15591"><ele>126.0</ele><time>2026-04-12T07:53:42.061Z</time></trkpt><trkpt lat="44.82677" lon="8.1557767"><ele>126.19999999999999</ele><time>2026-04-12T07:53:44.065Z</time></trkpt><trkpt lat="44.8266917" lon="8.1556417"><ele>126.39999999999999</ele><time>2026-04-12T07:53:46.062Z</time></trkpt><trkpt lat="44.82665" lon="8.155575"><ele>126.6</ele><time>2026-04-12T07:53:47.064Z</time></trkpt><trkpt lat="44.8265717" lon="8.155435"><ele>126.8</ele><time>2026-04-12T07:53:49.063Z</time></trkpt><trkpt lat="44.82649" lon="8.1553033"><ele>127.0</ele><time>2026-04-12T07:53:51.065Z</time></trkpt><trkpt lat="44.8264067" lon="8.15517"><ele>127.0</ele><time>2026-04-12T07:53:53.063Z</time></trkpt><trkpt lat="44.8263267" lon="8.15504"><ele>127.0</ele><time>2026-04-12T07:53:55.063Z</time></trkpt><trkpt lat="44.8262467" lon="8.1549083"><ele>127.0</ele><time>2026-04-12T07:53:57.063Z</time></trkpt><trkpt lat="44.8261683" lon="8.154775"><ele>127.0</ele><time>2026-04-12T07:53:59.064Z</time></trkpt><trkpt lat="44.8260867" lon="8.1546367"><ele>126.83333333333334</ele><time>2026-04-12T07:54:01.061Z</time></trkpt><trkpt lat="44.8260433" lon="8.1545717"><ele>126.66666666666667</ele><time>2026-04-12T07:54:02.063Z</time></trkpt><trkpt lat="44.8259633" lon="8.15444"><ele>126.5</ele><time>2026-04-12T07:54:04.065Z</time></trkpt><trkpt lat="44.82592" lon="8.1543733"><ele>126.33333333333334</ele><time>2026-04-12T07:54:05.063Z</time></trkpt><trkpt lat="44.825875" lon="8.1543083"><ele>126.16666666666667</ele><time>2026-04-12T07:54:06.063Z</time></trkpt><trkpt lat="44.8257917" lon="8.1541783"><ele>126.0</ele><time>2026-04-12T07:54:08.063Z</time></trkpt><trkpt lat="44.82575" lon="8.1541117"><ele>126.0</ele><time>2026-04-12T07:54:09.067Z</time></trkpt><trkpt lat="44.82571" lon="8.1540417"><ele>126.0</ele><time>2026-04-12T07:54:10.063Z</time></trkpt><trkpt lat="44.8256267" lon="8.15391"><ele>126.0</ele><time>2026-04-12T07:54:12.066Z</time></trkpt><trkpt lat="44.8255483" lon="8.1537733"><ele>126.0</ele><time>2026-04-12T07:54:14.067Z</time></trkpt><trkpt lat="44.8254717" lon="8.1536383"><ele>126.0</ele><time>2026-04-12T07:54:16.066Z</time></trkpt><trkpt lat="44.825395" lon="8.1535083"><ele>126.0</ele><time>2026-04-12T07:54:18.064Z</time></trkpt><trkpt lat="44.82532" lon="8.1533717"><ele>126.0</ele><time>2026-04-12T07:54:20.065Z</time></trkpt><trkpt lat="44.8252417" lon="8.153245"><ele>126.0</ele><time>2026-04-12T07:54:22.064Z</time></trkpt><trkpt lat="44.8251617" lon="8.1531133"><ele>126.0</ele><time>2026-04-12T07:54:24.067Z</time></trkpt><trkpt lat="44.82508" lon="8.152985"><ele>126.19999999999999</ele><time>2026-04-12T07:54:26.066Z</time></trkpt><trkpt lat="44.824995" lon="8.15286"><ele>126.39999999999999</ele><time>2026-04-12T07:54:28.06Z</time></trkpt><trkpt lat="44.8249133" lon="8.1527317"><ele>126.6</ele><time>2026-04-12T07:54:30.061Z</time></trkpt><trkpt lat="44.8248317" lon="8.1526017"><ele>126.8</ele><time>2026-04-12T07:54:32.063Z</time></trkpt><trkpt lat="44.82479" lon="8.152535"><ele>127.0</ele><time>2026-04-12T07:54:33.063Z</time></trkpt><trkpt lat="44.8247083" lon="8.1524067"><ele>127.14285714285714</ele><time>2026-04-12T07:54:35.064Z</time></trkpt><trkpt lat="44.8246283" lon="8.1522717"><ele>127.28571428571428</ele><time>2026-04-12T07:54:37.065Z</time></trkpt><trkpt lat="44.8245883" lon="8.1522017"><ele>127.42857142857142</ele><time>2026-04-12T07:54:38.062Z</time></trkpt><trkpt lat="44.8245467" lon="8.1521333"><ele>127.57142857142857</ele><time>2026-04-12T07:54:39.061Z</time></trkpt><trkpt lat="44.824505" lon="8.1520633"><ele>127.7142857142857</ele><time>2026-04-12T07:54:40.063Z</time></trkpt><trkpt lat="44.8244617" lon="8.1519933"><ele>127.85714285714285</ele><time>2026-04-12T07:54:41.063Z</time></trkpt><trkpt lat="44.82442" lon="8.1519217"><ele>128.0</ele><time>2026-04-12T07:54:42.064Z</time></trkpt><trkpt lat="44.8243733" lon="8.1518517"><ele>128.0</ele><time>2026-04-12T07:54:43.061Z</time></trkpt><trkpt lat="44.8243283" lon="8.15178"><ele>127.99999999999999</ele><time>2026-04-12T07:54:44.064Z</time></trkpt><trkpt lat="44.824285" lon="8.1517083"><ele>128.0</ele><time>2026-04-12T07:54:45.065Z</time></trkpt><trkpt lat="44.8242417" lon="8.1516333"><ele>128.0</ele><time>2026-04-12T07:54:46.064Z</time></trkpt><trkpt lat="44.8241983" lon="8.15156"><ele>127.99999999999999</ele><time>2026-04-12T07:54:47.063Z</time></trkpt><trkpt lat="44.8241533" lon="8.15149"><ele>128.0</ele><time>2026-04-12T07:54:48.061Z</time></trkpt><trkpt lat="44.8241083" lon="8.1514217"><ele>128.0</ele><time>2026-04-12T07:54:49.062Z</time></trkpt><trkpt lat="44.824065" lon="8.1513483"><ele>127.85714285714285</ele><time>2026-04-12T07:54:50.067Z</time></trkpt><trkpt lat="44.8240233" lon="8.1512783"><ele>127.7142857142857</ele><time>2026-04-12T07:54:51.065Z</time></trkpt><trkpt lat="44.82398" lon="8.1512083"><ele>127.57142857142857</ele><time>2026-04-12T07:54:52.066Z</time></trkpt><trkpt lat="44.823935" lon="8.1511367"><ele>127.42857142857142</ele><time>2026-04-12T07:54:53.065Z</time></trkpt><trkpt lat="44.8238917" lon="8.1510583"><ele>127.28571428571428</ele><time>2026-04-12T07:54:54.062Z</time></trkpt><trkpt lat="44.82385" lon="8.1509867"><ele>127.14285714285714</ele><time>2026-04-12T07:54:55.062Z</time></trkpt><trkpt lat="44.8238067" lon="8.15092"><ele>127.0</ele><time>2026-04-12T07:54:56.063Z</time></trkpt><trkpt lat="44.8237617" lon="8.1508517"><ele>127.0</ele><time>2026-04-12T07:54:57.064Z</time></trkpt><trkpt lat="44.8237183" lon="8.15078"><ele>127.0</ele><time>2026-04-12T07:54:58.066Z</time></trkpt><trkpt lat="44.8236733" lon="8.15071"><ele>127.0</ele><time>2026-04-12T07:54:59.061Z</time></trkpt><trkpt lat="44.8236317" lon="8.1506383"><ele>127.0</ele><time>2026-04-12T07:55:00.066Z</time></trkpt><trkpt lat="44.823585" lon="8.15057"><ele>127.0</ele><time>2026-04-12T07:55:01.063Z</time></trkpt><trkpt lat="44.8235417" lon="8.1504967"><ele>127.0</ele><time>2026-04-12T07:55:02.063Z</time></trkpt><trkpt lat="44.8235" lon="8.150425"><ele>127.0</ele><time>2026-04-12T07:55:03.063Z</time></trkpt><trkpt lat="44.8234567" lon="8.1503567"><ele>127.00000000000001</ele><time>2026-04-12T07:55:04.062Z</time></trkpt><trkpt lat="44.823415" lon="8.1502867"><ele>127.0</ele><time>2026-04-12T07:55:05.061Z</time></trkpt><trkpt lat="44.82337" lon="8.150215"><ele>127.0</ele><time>2026-04-12T07:55:06.063Z</time></trkpt><trkpt lat="44.8233283" lon="8.1501417"><ele>127.0</ele><time>2026-04-12T07:55:07.063Z</time></trkpt><trkpt lat="44.8232867" lon="8.1500717"><ele>127.00000000000001</ele><time>2026-04-12T07:55:08.064Z</time></trkpt><trkpt lat="44.8232467" lon="8.1499983"><ele>127.0</ele><time>2026-04-12T07:55:09.064Z</time></trkpt><trkpt lat="44.8231733" lon="8.1498633"><ele>127.0</ele><time>2026-04-12T07:55:11.06Z</time></trkpt><trkpt lat="44.8230983" lon="8.1497383"><ele>127.0</ele><time>2026-04-12T07:55:13.062Z</time></trkpt><trkpt lat="44.8230217" lon="8.1496117"><ele>127.0</ele><time>2026-04-12T07:55:15.066Z</time></trkpt><trkpt lat="44.8229383" lon="8.1494817"><ele>127.0</ele><time>2026-04-12T07:55:17.063Z</time></trkpt><trkpt lat="44.8228617" lon="8.1493467"><ele>127.00000000000001</ele><time>2026-04-12T07:55:19.071Z</time></trkpt><trkpt lat="44.8227833" lon="8.1492133"><ele>127.0</ele><time>2026-04-12T07:55:21.063Z</time></trkpt><trkpt lat="44.822745" lon="8.1491417"><ele>127.0</ele><time>2026-04-12T07:55:22.06Z</time></trkpt><trkpt lat="44.822705" lon="8.1490683"><ele>127.0</ele><time>2026-04-12T07:55:23.066Z</time></trkpt><trkpt lat="44.8226667" lon="8.1489967"><ele>127.00000000000001</ele><time>2026-04-12T07:55:24.063Z</time></trkpt><trkpt lat="44.8225983" lon="8.148855"><ele>127.0</ele><time>2026-04-12T07:55:26.063Z</time></trkpt><trkpt lat="44.8225617" lon="8.1487783"><ele>127.0</ele><time>2026-04-12T07:55:27.062Z</time></trkpt><trkpt lat="44.822525" lon="8.1487"><ele>127.0</ele><time>2026-04-12T07:55:28.065Z</time></trkpt><trkpt lat="44.82249" lon="8.148625"><ele>127.0</ele><time>2026-04-12T07:55:29.068Z</time></trkpt><trkpt lat="44.8224517" lon="8.1485517"><ele>127.0</ele><time>2026-04-12T07:55:30.064Z</time></trkpt><trkpt lat="44.8224117" lon="8.1484783"><ele>127.0</ele><time>2026-04-12T07:55:31.065Z</time></trkpt><trkpt lat="44.8223733" lon="8.148405"><ele>127.0</ele><time>2026-04-12T07:55:32.061Z</time></trkpt><trkpt lat="44.822335" lon="8.1483333"><ele>127.0</ele><time>2026-04-12T07:55:33.062Z</time></trkpt><trkpt lat="44.822295" lon="8.1482617"><ele>127.42857142857143</ele><time>2026-04-12T07:55:34.063Z</time></trkpt><trkpt lat="44.822255" lon="8.14819"><ele>127.85714285714286</ele><time>2026-04-12T07:55:35.063Z</time></trkpt><trkpt lat="44.82221" lon="8.14812"><ele>128.28571428571428</ele><time>2026-04-12T07:55:36.062Z</time></trkpt><trkpt lat="44.822165" lon="8.1480483"><ele>128.71428571428572</ele><time>2026-04-12T07:55:37.062Z</time></trkpt><trkpt lat="44.8221233" lon="8.147975"><ele>129.14285714285714</ele><time>2026-04-12T07:55:38.063Z</time></trkpt><trkpt lat="44.82208" lon="8.1479017"><ele>129.57142857142858</ele><time>2026-04-12T07:55:39.067Z</time></trkpt><trkpt lat="44.8220333" lon="8.1478317"><ele>130.0</ele><time>2026-04-12T07:55:40.063Z</time></trkpt><trkpt lat="44.821985" lon="8.14777"><ele>130.0</ele><time>2026-04-12T07:55:41.064Z</time></trkpt><trkpt lat="44.8218717" lon="8.1477067"><ele>130.0</ele><time>2026-04-12T07:55:43.066Z</time></trkpt><trkpt lat="44.82175" lon="8.1477233"><ele>130.0</ele><time>2026-04-12T07:55:45.066Z</time></trkpt><trkpt lat="44.82163" lon="8.1477717"><ele>130.0</ele><time>2026-04-12T07:55:47.062Z</time></trkpt><trkpt lat="44.8215283" lon="8.1478267"><ele>129.25</ele><time>2026-04-12T07:55:49.063Z</time></trkpt><trkpt lat="44.8214333" lon="8.1478883"><ele>128.5</ele><time>2026-04-12T07:55:51.065Z</time></trkpt><trkpt lat="44.8213183" lon="8.1479283"><ele>127.75</ele><time>2026-04-12T07:55:53.063Z</time></trkpt><trkpt lat="44.8211967" lon="8.1479417"><ele>127.0</ele><time>2026-04-12T07:55:55.062Z</time></trkpt><trkpt lat="44.821075" lon="8.1479583"><ele>127.00000000000001</ele><time>2026-04-12T07:55:57.063Z</time></trkpt><trkpt lat="44.82095" lon="8.1479817"><ele>127.0</ele><time>2026-04-12T07:55:59.062Z</time></trkpt><trkpt lat="44.8208867" lon="8.1479983"><ele>127.0</ele><time>2026-04-12T07:56:00.061Z</time></trkpt><trkpt lat="44.8208233" lon="8.148015"><ele>127.0</ele><time>2026-04-12T07:56:01.062Z</time></trkpt><trkpt lat="44.8206983" lon="8.1480367"><ele>127.00000000000001</ele><time>2026-04-12T07:56:03.061Z</time></trkpt><trkpt lat="44.8206333" lon="8.148045"><ele>127.0</ele><time>2026-04-12T07:56:04.064Z</time></trkpt><trkpt lat="44.8205683" lon="8.1480517"><ele>127.0</ele><time>2026-04-12T07:56:05.063Z</time></trkpt><trkpt lat="44.8204467" lon="8.1480717"><ele>126.99999999999999</ele><time>2026-04-12T07:56:07.062Z</time></trkpt><trkpt lat="44.820325" lon="8.148095"><ele>126.99999999999999</ele><time>2026-04-12T07:56:09.062Z</time></trkpt><trkpt lat="44.8202017" lon="8.14811"><ele>127.0</ele><time>2026-04-12T07:56:11.062Z</time></trkpt><trkpt lat="44.8201383" lon="8.1481183"><ele>127.0</ele><time>2026-04-12T07:56:12.061Z</time></trkpt><trkpt lat="44.82007" lon="8.14813"><ele>127.14285714285714</ele><time>2026-04-12T07:56:13.061Z</time></trkpt><trkpt lat="44.820005" lon="8.1481383"><ele>127.28571428571428</ele><time>2026-04-12T07:56:14.064Z</time></trkpt><trkpt lat="44.81994" lon="8.1481517"><ele>127.42857142857142</ele><time>2026-04-12T07:56:15.064Z</time></trkpt><trkpt lat="44.819875" lon="8.1481617"><ele>127.57142857142857</ele><time>2026-04-12T07:56:16.061Z</time></trkpt><trkpt lat="44.81981" lon="8.1481733"><ele>127.7142857142857</ele><time>2026-04-12T07:56:17.062Z</time></trkpt><trkpt lat="44.8197433" lon="8.1481833"><ele>127.85714285714285</ele><time>2026-04-12T07:56:18.063Z</time></trkpt><trkpt lat="44.8196783" lon="8.1481917"><ele>128.0</ele><time>2026-04-12T07:56:19.063Z</time></trkpt><trkpt lat="44.8196117" lon="8.1482"><ele>127.99999999999999</ele><time>2026-04-12T07:56:20.064Z</time></trkpt><trkpt lat="44.8195483" lon="8.14821"><ele>128.0</ele><time>2026-04-12T07:56:21.063Z</time></trkpt><trkpt lat="44.8194233" lon="8.1482317"><ele>128.0</ele><time>2026-04-12T07:56:23.064Z</time></trkpt><trkpt lat="44.8192983" lon="8.148255"><ele>128.0</ele><time>2026-04-12T07:56:25.062Z</time></trkpt><trkpt lat="44.8192333" lon="8.1482667"><ele>127.99999999999999</ele><time>2026-04-12T07:56:26.061Z</time></trkpt><trkpt lat="44.8191667" lon="8.1482767"><ele>128.0</ele><time>2026-04-12T07:56:27.065Z</time></trkpt><trkpt lat="44.8191017" lon="8.14829"><ele>128.28571428571428</ele><time>2026-04-12T07:56:28.061Z</time></trkpt><trkpt lat="44.8190383" lon="8.1483017"><ele>128.57142857142856</ele><time>2026-04-12T07:56:29.064Z</time></trkpt><trkpt lat="44.8189717" lon="8.1483133"><ele>128.85714285714286</ele><time>2026-04-12T07:56:30.063Z</time></trkpt><trkpt lat="44.8189067" lon="8.1483267"><ele>129.14285714285714</ele><time>2026-04-12T07:56:31.065Z</time></trkpt><trkpt lat="44.8188417" lon="8.148335"><ele>129.42857142857144</ele><time>2026-04-12T07:56:32.066Z</time></trkpt><trkpt lat="44.8187767" lon="8.1483417"><ele>129.71428571428572</ele><time>2026-04-12T07:56:33.065Z</time></trkpt><trkpt lat="44.8187117" lon="8.1483417"><ele>130.0</ele><time>2026-04-12T07:56:34.063Z</time></trkpt><trkpt lat="44.8186467" lon="8.1483317"><ele>130.00000000000003</ele><time>2026-04-12T07:56:35.064Z</time></trkpt><trkpt lat="44.8185833" lon="8.1483117"><ele>130.0</ele><time>2026-04-12T07:56:36.063Z</time></trkpt><trkpt lat="44.81852" lon="8.148275"><ele>130.0</ele><time>2026-04-12T07:56:37.063Z</time></trkpt><trkpt lat="44.818465" lon="8.1482233"><ele>130.0</ele><time>2026-04-12T07:56:38.065Z</time></trkpt><trkpt lat="44.818415" lon="8.1481583"><ele>130.0</ele><time>2026-04-12T07:56:39.061Z</time></trkpt><trkpt lat="44.8183717" lon="8.1480883"><ele>130.00000000000003</ele><time>2026-04-12T07:56:40.063Z</time></trkpt><trkpt lat="44.818335" lon="8.14801"><ele>130.0</ele><time>2026-04-12T07:56:41.06Z</time></trkpt><trkpt lat="44.8182967" lon="8.1479317"><ele>129.57142857142858</ele><time>2026-04-12T07:56:42.06Z</time></trkpt><trkpt lat="44.8182583" lon="8.1478533"><ele>129.14285714285714</ele><time>2026-04-12T07:56:43.065Z</time></trkpt><trkpt lat="44.8182183" lon="8.1477733"><ele>128.71428571428572</ele><time>2026-04-12T07:56:44.063Z</time></trkpt><trkpt lat="44.818175" lon="8.1476967"><ele>128.28571428571428</ele><time>2026-04-12T07:56:45.06Z</time></trkpt><trkpt lat="44.8181333" lon="8.1476183"><ele>127.85714285714286</ele><time>2026-04-12T07:56:46.064Z</time></trkpt><trkpt lat="44.818095" lon="8.1475367"><ele>127.42857142857143</ele><time>2026-04-12T07:56:47.063Z</time></trkpt><trkpt lat="44.818055" lon="8.14746"><ele>127.0</ele><time>2026-04-12T07:56:48.066Z</time></trkpt><trkpt lat="44.8180167" lon="8.1473817"><ele>127.28571428571429</ele><time>2026-04-12T07:56:49.068Z</time></trkpt><trkpt lat="44.8179783" lon="8.147305"><ele>127.57142857142856</ele><time>2026-04-12T07:56:50.063Z</time></trkpt><trkpt lat="44.8179417" lon="8.1472283"><ele>127.85714285714285</ele><time>2026-04-12T07:56:51.062Z</time></trkpt><trkpt lat="44.8179033" lon="8.1471517"><ele>128.14285714285714</ele><time>2026-04-12T07:56:52.065Z</time></trkpt><trkpt lat="44.817865" lon="8.1470783"><ele>128.42857142857142</ele><time>2026-04-12T07:56:53.068Z</time></trkpt><trkpt lat="44.8178267" lon="8.1470067"><ele>128.7142857142857</ele><time>2026-04-12T07:56:54.063Z</time></trkpt><trkpt lat="44.8177917" lon="8.1469317"><ele>129.0</ele><time>2026-04-12T07:56:55.066Z</time></trkpt><trkpt lat="44.8177533" lon="8.146855"><ele>129.0</ele><time>2026-04-12T07:56:56.062Z</time></trkpt><trkpt lat="44.8177167" lon="8.14678"><ele>129.0</ele><time>2026-04-12T07:56:57.062Z</time></trkpt><trkpt lat="44.817645" lon="8.146635"><ele>129.0</ele><time>2026-04-12T07:56:59.062Z</time></trkpt><trkpt lat="44.8176083" lon="8.1465617"><ele>129.0</ele><time>2026-04-12T07:57:00.061Z</time></trkpt><trkpt lat="44.81757" lon="8.14649"><ele>129.0</ele><time>2026-04-12T07:57:01.064Z</time></trkpt><trkpt lat="44.8175333" lon="8.146415"><ele>129.0</ele><time>2026-04-12T07:57:02.064Z</time></trkpt><trkpt lat="44.817455" lon="8.146275"><ele>128.99999999999997</ele><time>2026-04-12T07:57:04.062Z</time></trkpt><trkpt lat="44.8174167" lon="8.1462033"><ele>129.0</ele><time>2026-04-12T07:57:05.063Z</time></trkpt><trkpt lat="44.81738" lon="8.14613"><ele>129.0</ele><time>2026-04-12T07:57:06.062Z</time></trkpt><trkpt lat="44.8173417" lon="8.1460567"><ele>129.0</ele><time>2026-04-12T07:57:07.067Z</time></trkpt><trkpt lat="44.8173017" lon="8.1459867"><ele>129.0</ele><time>2026-04-12T07:57:08.063Z</time></trkpt><trkpt lat="44.81726" lon="8.1459133"><ele>128.99999999999997</ele><time>2026-04-12T07:57:09.065Z</time></trkpt><trkpt lat="44.81722" lon="8.1458417"><ele>129.0</ele><time>2026-04-12T07:57:10.062Z</time></trkpt><trkpt lat="44.8171817" lon="8.14577"><ele>128.7142857142857</ele><time>2026-04-12T07:57:11.062Z</time></trkpt><trkpt lat="44.8171433" lon="8.1456967"><ele>128.42857142857142</ele><time>2026-04-12T07:57:12.067Z</time></trkpt><trkpt lat="44.8171067" lon="8.14562"><ele>128.14285714285714</ele><time>2026-04-12T07:57:13.062Z</time></trkpt><trkpt lat="44.81707" lon="8.145545"><ele>127.85714285714285</ele><time>2026-04-12T07:57:14.065Z</time></trkpt><trkpt lat="44.8170317" lon="8.14547"><ele>127.57142857142856</ele><time>2026-04-12T07:57:15.064Z</time></trkpt><trkpt lat="44.8169933" lon="8.1453967"><ele>127.28571428571429</ele><time>2026-04-12T07:57:16.064Z</time></trkpt><trkpt lat="44.8169567" lon="8.1453233"><ele>127.0</ele><time>2026-04-12T07:57:17.067Z</time></trkpt><trkpt lat="44.81692" lon="8.1452483"><ele>127.0</ele><time>2026-04-12T07:57:18.065Z</time></trkpt><trkpt lat="44.816885" lon="8.1451733"><ele>127.0</ele><time>2026-04-12T07:57:19.063Z</time></trkpt><trkpt lat="44.8168467" lon="8.1451017"><ele>127.0</ele><time>2026-04-12T07:57:20.063Z</time></trkpt><trkpt lat="44.81681" lon="8.1450283"><ele>127.0</ele><time>2026-04-12T07:57:21.061Z</time></trkpt><trkpt lat="44.8167717" lon="8.1449567"><ele>127.0</ele><time>2026-04-12T07:57:22.064Z</time></trkpt><trkpt lat="44.81673" lon="8.1448833"><ele>127.0</ele><time>2026-04-12T07:57:23.063Z</time></trkpt><trkpt lat="44.81669" lon="8.1448133"><ele>127.0</ele><time>2026-04-12T07:57:24.063Z</time></trkpt><trkpt lat="44.8166517" lon="8.1447383"><ele>127.39999999999999</ele><time>2026-04-12T07:57:25.065Z</time></trkpt><trkpt lat="44.81658" lon="8.1445967"><ele>127.79999999999998</ele><time>2026-04-12T07:57:27.063Z</time></trkpt><trkpt lat="44.8165217" lon="8.1444533"><ele>128.2</ele><time>2026-04-12T07:57:29.064Z</time></trkpt><trkpt lat="44.8164717" lon="8.1442967"><ele>128.6</ele><time>2026-04-12T07:57:31.063Z</time></trkpt><trkpt lat="44.81645" lon="8.1442133"><ele>129.0</ele><time>2026-04-12T07:57:32.065Z</time></trkpt><trkpt lat="44.816415" lon="8.1440433"><ele>128.99999999999997</ele><time>2026-04-12T07:57:34.065Z</time></trkpt><trkpt lat="44.8163967" lon="8.1439583"><ele>129.0</ele><time>2026-04-12T07:57:35.063Z</time></trkpt><trkpt lat="44.8163783" lon="8.1438733"><ele>129.0</ele><time>2026-04-12T07:57:36.066Z</time></trkpt><trkpt lat="44.8163633" lon="8.1437867"><ele>129.0</ele><time>2026-04-12T07:57:37.062Z</time></trkpt><trkpt lat="44.8163483" lon="8.1437"><ele>129.0</ele><time>2026-04-12T07:57:38.061Z</time></trkpt><trkpt lat="44.8163367" lon="8.1436117"><ele>128.99999999999997</ele><time>2026-04-12T07:57:39.067Z</time></trkpt><trkpt lat="44.8163317" lon="8.1434367"><ele>129.0</ele><time>2026-04-12T07:57:41.064Z</time></trkpt><trkpt lat="44.81636" lon="8.143265"><ele>128.85714285714283</ele><time>2026-04-12T07:57:43.064Z</time></trkpt><trkpt lat="44.8163883" lon="8.14318"><ele>128.71428571428572</ele><time>2026-04-12T07:57:44.064Z</time></trkpt><trkpt lat="44.8164183" lon="8.1430983"><ele>128.57142857142856</ele><time>2026-04-12T07:57:45.06Z</time></trkpt><trkpt lat="44.8164517" lon="8.1430217"><ele>128.42857142857142</ele><time>2026-04-12T07:57:46.062Z</time></trkpt><trkpt lat="44.816485" lon="8.142945"><ele>128.28571428571428</ele><time>2026-04-12T07:57:47.062Z</time></trkpt><trkpt lat="44.81652" lon="8.1428683"><ele>128.14285714285714</ele><time>2026-04-12T07:57:48.062Z</time></trkpt><trkpt lat="44.816555" lon="8.1427933"><ele>128.0</ele><time>2026-04-12T07:57:49.064Z</time></trkpt><trkpt lat="44.81659" lon="8.1427133"><ele>127.99999999999999</ele><time>2026-04-12T07:57:50.063Z</time></trkpt><trkpt lat="44.8166583" lon="8.142565"><ele>128.0</ele><time>2026-04-12T07:57:52.061Z</time></trkpt><trkpt lat="44.8167233" lon="8.1424117"><ele>128.0</ele><time>2026-04-12T07:57:54.065Z</time></trkpt><trkpt lat="44.816755" lon="8.1423333"><ele>128.0</ele><time>2026-04-12T07:57:55.068Z</time></trkpt><trkpt lat="44.8167867" lon="8.1422533"><ele>127.99999999999999</ele><time>2026-04-12T07:57:56.07Z</time></trkpt><trkpt lat="44.81682" lon="8.1421767"><ele>128.0</ele><time>2026-04-12T07:57:57.064Z</time></trkpt><trkpt lat="44.8168783" lon="8.14202"><ele>128.0</ele><time>2026-04-12T07:57:59.066Z</time></trkpt><trkpt lat="44.81691" lon="8.1419433"><ele>128.0</ele><time>2026-04-12T07:58:00.062Z</time></trkpt><trkpt lat="44.81697" lon="8.1417933"><ele>128.0</ele><time>2026-04-12T07:58:02.065Z</time></trkpt><trkpt lat="44.8170233" lon="8.1416467"><ele>128.0</ele><time>2026-04-12T07:58:04.063Z</time></trkpt><trkpt lat="44.81707" lon="8.14147"><ele>128.0</ele><time>2026-04-12T07:58:06.065Z</time></trkpt><trkpt lat="44.8170567" lon="8.1413017"><ele>128.0</ele><time>2026-04-12T07:58:08.064Z</time></trkpt><trkpt lat="44.8170317" lon="8.1411317"><ele>128.0</ele><time>2026-04-12T07:58:10.066Z</time></trkpt><trkpt lat="44.81698" lon="8.1409767"><ele>128.0</ele><time>2026-04-12T07:58:12.062Z</time></trkpt><trkpt lat="44.816935" lon="8.1408183"><ele>128.0</ele><time>2026-04-12T07:58:14.062Z</time></trkpt><trkpt lat="44.81691" lon="8.140735"><ele>128.0</ele><time>2026-04-12T07:58:15.064Z</time></trkpt><trkpt lat="44.816855" lon="8.1405767"><ele>128.20000000000002</ele><time>2026-04-12T07:58:17.064Z</time></trkpt><trkpt lat="44.8168017" lon="8.1404167"><ele>128.4</ele><time>2026-04-12T07:58:19.062Z</time></trkpt><trkpt lat="44.816775" lon="8.1403333"><ele>128.60000000000002</ele><time>2026-04-12T07:58:20.061Z</time></trkpt><trkpt lat="44.816725" lon="8.140175"><ele>128.8</ele><time>2026-04-12T07:58:22.061Z</time></trkpt><trkpt lat="44.8166683" lon="8.1400183"><ele>129.0</ele><time>2026-04-12T07:58:24.063Z</time></trkpt><trkpt lat="44.81664" lon="8.1399383"><ele>129.0</ele><time>2026-04-12T07:58:25.063Z</time></trkpt><trkpt lat="44.8166133" lon="8.1398567"><ele>129.0</ele><time>2026-04-12T07:58:26.06Z</time></trkpt><trkpt lat="44.816585" lon="8.139775"><ele>129.0</ele><time>2026-04-12T07:58:27.063Z</time></trkpt><trkpt lat="44.8165317" lon="8.1396167"><ele>129.0</ele><time>2026-04-12T07:58:29.063Z</time></trkpt><trkpt lat="44.8164767" lon="8.1394633"><ele>129.0</ele><time>2026-04-12T07:58:31.063Z</time></trkpt><trkpt lat="44.8164267" lon="8.1393117"><ele>129.0</ele><time>2026-04-12T07:58:33.065Z</time></trkpt><trkpt lat="44.8163783" lon="8.1391483"><ele>129.0</ele><time>2026-04-12T07:58:35.063Z</time></trkpt><trkpt lat="44.8163533" lon="8.139065"><ele>129.0</ele><time>2026-04-12T07:58:36.069Z</time></trkpt><trkpt lat="44.8163283" lon="8.1389833"><ele>129.0</ele><time>2026-04-12T07:58:37.062Z</time></trkpt><trkpt lat="44.8163033" lon="8.1389"><ele>129.0</ele><time>2026-04-12T07:58:38.063Z</time></trkpt><trkpt lat="44.8162467" lon="8.1387517"><ele>129.0</ele><time>2026-04-12T07:58:40.064Z</time></trkpt><trkpt lat="44.8161833" lon="8.1386183"><ele>129.0</ele><time>2026-04-12T07:58:42.062Z</time></trkpt><trkpt lat="44.8161033" lon="8.1385233"><ele>129.0</ele><time>2026-04-12T07:58:44.064Z</time></trkpt><trkpt lat="44.815995" lon="8.1384883"><ele>129.0</ele><time>2026-04-12T07:58:46.062Z</time></trkpt><trkpt lat="44.8158733" lon="8.138485"><ele>129.0</ele><time>2026-04-12T07:58:48.064Z</time></trkpt><trkpt lat="44.81581" lon="8.1384883"><ele>129.0</ele><time>2026-04-12T07:58:49.063Z</time></trkpt><trkpt lat="44.815685" lon="8.1385"><ele>129.0</ele><time>2026-04-12T07:58:51.065Z</time></trkpt><trkpt lat="44.8156217" lon="8.138505"><ele>129.0</ele><time>2026-04-12T07:58:52.069Z</time></trkpt><trkpt lat="44.8155583" lon="8.1385117"><ele>129.0</ele><time>2026-04-12T07:58:53.063Z</time></trkpt><trkpt lat="44.815495" lon="8.1385133"><ele>129.0</ele><time>2026-04-12T07:58:54.063Z</time></trkpt><trkpt lat="44.8154283" lon="8.1385183"><ele>129.0</ele><time>2026-04-12T07:58:55.063Z</time></trkpt><trkpt lat="44.815365" lon="8.1385217"><ele>129.0</ele><time>2026-04-12T07:58:56.062Z</time></trkpt><trkpt lat="44.8153" lon="8.138525"><ele>129.0</ele><time>2026-04-12T07:58:57.065Z</time></trkpt><trkpt lat="44.8152367" lon="8.13853"><ele>129.0</ele><time>2026-04-12T07:58:58.064Z</time></trkpt><trkpt lat="44.81517" lon="8.1385317"><ele>128.99999999999997</ele><time>2026-04-12T07:58:59.065Z</time></trkpt><trkpt lat="44.8151017" lon="8.1385317"><ele>129.0</ele><time>2026-04-12T07:59:00.064Z</time></trkpt><trkpt lat="44.815035" lon="8.1385283"><ele>129.0</ele><time>2026-04-12T07:59:01.066Z</time></trkpt><trkpt lat="44.8149683" lon="8.1385183"><ele>129.0</ele><time>2026-04-12T07:59:02.067Z</time></trkpt><trkpt lat="44.8149033" lon="8.1385017"><ele>129.0</ele><time>2026-04-12T07:59:03.065Z</time></trkpt><trkpt lat="44.8148383" lon="8.1384783"><ele>128.99999999999997</ele><time>2026-04-12T07:59:04.062Z</time></trkpt><trkpt lat="44.814775" lon="8.1384467"><ele>129.0</ele><time>2026-04-12T07:59:05.064Z</time></trkpt><trkpt lat="44.814715" lon="8.13841"><ele>128.99999999999997</ele><time>2026-04-12T07:59:06.064Z</time></trkpt><trkpt lat="44.814655" lon="8.1383717"><ele>129.0</ele><time>2026-04-12T07:59:07.066Z</time></trkpt><trkpt lat="44.8145983" lon="8.1383283"><ele>129.0</ele><time>2026-04-12T07:59:08.061Z</time></trkpt><trkpt lat="44.81454" lon="8.138285"><ele>129.0</ele><time>2026-04-12T07:59:09.064Z</time></trkpt><trkpt lat="44.81448" lon="8.13824"><ele>129.0</ele><time>2026-04-12T07:59:10.066Z</time></trkpt><trkpt lat="44.8144217" lon="8.1381917"><ele>128.99999999999997</ele><time>2026-04-12T07:59:11.061Z</time></trkpt><trkpt lat="44.8143633" lon="8.1381383"><ele>129.0</ele><time>2026-04-12T07:59:12.063Z</time></trkpt><trkpt lat="44.8143067" lon="8.1380817"><ele>129.14285714285714</ele><time>2026-04-12T07:59:13.065Z</time></trkpt><trkpt lat="44.8142517" lon="8.1380283"><ele>129.28571428571428</ele><time>2026-04-12T07:59:14.061Z</time></trkpt><trkpt lat="44.8141983" lon="8.1379767"><ele>129.42857142857144</ele><time>2026-04-12T07:59:15.063Z</time></trkpt><trkpt lat="44.8141467" lon="8.1379183"><ele>129.57142857142856</ele><time>2026-04-12T07:59:16.063Z</time></trkpt><trkpt lat="44.8140917" lon="8.1378617"><ele>129.71428571428572</ele><time>2026-04-12T07:59:17.062Z</time></trkpt><trkpt lat="44.8140367" lon="8.137805"><ele>129.85714285714286</ele><time>2026-04-12T07:59:18.066Z</time></trkpt><trkpt lat="44.81398" lon="8.13775"><ele>130.0</ele><time>2026-04-12T07:59:19.065Z</time></trkpt><trkpt lat="44.81392" lon="8.1376983"><ele>130.00000000000003</ele><time>2026-04-12T07:59:20.065Z</time></trkpt><trkpt lat="44.81386" lon="8.137645"><ele>130.0</ele><time>2026-04-12T07:59:21.064Z</time></trkpt><trkpt lat="44.8138" lon="8.13759"><ele>130.0</ele><time>2026-04-12T07:59:22.062Z</time></trkpt><trkpt lat="44.81374" lon="8.1375383"><ele>130.0</ele><time>2026-04-12T07:59:23.065Z</time></trkpt><trkpt lat="44.8136783" lon="8.1374867"><ele>130.0</ele><time>2026-04-12T07:59:24.062Z</time></trkpt><trkpt lat="44.81362" lon="8.1374283"><ele>130.00000000000003</ele><time>2026-04-12T07:59:25.063Z</time></trkpt><trkpt lat="44.8135617" lon="8.1373733"><ele>130.0</ele><time>2026-04-12T07:59:26.064Z</time></trkpt><trkpt lat="44.8135033" lon="8.1373167"><ele>130.14285714285717</ele><time>2026-04-12T07:59:27.066Z</time></trkpt><trkpt lat="44.813445" lon="8.13726"><ele>130.28571428571428</ele><time>2026-04-12T07:59:28.059Z</time></trkpt><trkpt lat="44.8133867" lon="8.1372083"><ele>130.42857142857144</ele><time>2026-04-12T07:59:29.062Z</time></trkpt><trkpt lat="44.8133283" lon="8.137155"><ele>130.57142857142858</ele><time>2026-04-12T07:59:30.064Z</time></trkpt><trkpt lat="44.8132717" lon="8.137105"><ele>130.71428571428572</ele><time>2026-04-12T07:59:31.064Z</time></trkpt><trkpt lat="44.813215" lon="8.137055"><ele>130.85714285714286</ele><time>2026-04-12T07:59:32.065Z</time></trkpt><trkpt lat="44.8131567" lon="8.1370083"><ele>131.0</ele><time>2026-04-12T07:59:33.063Z</time></trkpt><trkpt lat="44.8130967" lon="8.1369567"><ele>131.0</ele><time>2026-04-12T07:59:34.063Z</time></trkpt><trkpt lat="44.8130383" lon="8.136905"><ele>131.0</ele><time>2026-04-12T07:59:35.063Z</time></trkpt><trkpt lat="44.81298" lon="8.136855"><ele>131.0</ele><time>2026-04-12T07:59:36.064Z</time></trkpt><trkpt lat="44.8129217" lon="8.1368067"><ele>131.0</ele><time>2026-04-12T07:59:37.061Z</time></trkpt><trkpt lat="44.8128633" lon="8.1367567"><ele>131.0</ele><time>2026-04-12T07:59:38.063Z</time></trkpt><trkpt lat="44.812805" lon="8.1367083"><ele>131.0</ele><time>2026-04-12T07:59:39.063Z</time></trkpt><trkpt lat="44.8127483" lon="8.1366633"><ele>131.0</ele><time>2026-04-12T07:59:40.065Z</time></trkpt><trkpt lat="44.8126867" lon="8.1366133"><ele>130.85714285714286</ele><time>2026-04-12T07:59:41.065Z</time></trkpt><trkpt lat="44.81263" lon="8.1365633"><ele>130.71428571428572</ele><time>2026-04-12T07:59:42.064Z</time></trkpt><trkpt lat="44.8125717" lon="8.136515"><ele>130.57142857142858</ele><time>2026-04-12T07:59:43.064Z</time></trkpt><trkpt lat="44.8125133" lon="8.13647"><ele>130.42857142857144</ele><time>2026-04-12T07:59:44.064Z</time></trkpt><trkpt lat="44.812455" lon="8.1364233"><ele>130.28571428571428</ele><time>2026-04-12T07:59:45.066Z</time></trkpt><trkpt lat="44.8123967" lon="8.136375"><ele>130.14285714285717</ele><time>2026-04-12T07:59:46.062Z</time></trkpt><trkpt lat="44.8123383" lon="8.1363267"><ele>130.0</ele><time>2026-04-12T07:59:47.064Z</time></trkpt><trkpt lat="44.8122783" lon="8.1362783"><ele>130.00000000000003</ele><time>2026-04-12T07:59:48.065Z</time></trkpt><trkpt lat="44.81222" lon="8.1362367"><ele>130.0</ele><time>2026-04-12T07:59:49.061Z</time></trkpt><trkpt lat="44.8121617" lon="8.13619"><ele>130.0</ele><time>2026-04-12T07:59:50.066Z</time></trkpt><trkpt lat="44.812105" lon="8.136145"><ele>130.0</ele><time>2026-04-12T07:59:51.065Z</time></trkpt><trkpt lat="44.8120483" lon="8.1361"><ele>130.0</ele><time>2026-04-12T07:59:52.06Z</time></trkpt><trkpt lat="44.8119917" lon="8.136055"><ele>130.00000000000003</ele><time>2026-04-12T07:59:53.062Z</time></trkpt><trkpt lat="44.8119333" lon="8.1360117"><ele>130.0</ele><time>2026-04-12T07:59:54.06Z</time></trkpt><trkpt lat="44.811875" lon="8.1359667"><ele>130.00000000000003</ele><time>2026-04-12T07:59:55.064Z</time></trkpt><trkpt lat="44.8118183" lon="8.13592"><ele>130.0</ele><time>2026-04-12T07:59:56.064Z</time></trkpt><trkpt lat="44.81176" lon="8.1358767"><ele>130.0</ele><time>2026-04-12T07:59:57.065Z</time></trkpt><trkpt lat="44.8116983" lon="8.1358333"><ele>130.0</ele><time>2026-04-12T07:59:58.065Z</time></trkpt><trkpt lat="44.8116383" lon="8.1357917"><ele>130.0</ele><time>2026-04-12T07:59:59.063Z</time></trkpt><trkpt lat="44.81158" lon="8.1357517"><ele>130.00000000000003</ele><time>2026-04-12T08:00:00.057Z</time></trkpt><trkpt lat="44.81152" lon="8.1357083"><ele>130.0</ele><time>2026-04-12T08:00:01.06Z</time></trkpt><trkpt lat="44.8114617" lon="8.1356683"><ele>130.00000000000003</ele><time>2026-04-12T08:00:02.061Z</time></trkpt><trkpt lat="44.8114033" lon="8.1356267"><ele>130.0</ele><time>2026-04-12T08:00:03.068Z</time></trkpt><trkpt lat="44.8113433" lon="8.1355867"><ele>130.0</ele><time>2026-04-12T08:00:04.066Z</time></trkpt><trkpt lat="44.8112817" lon="8.1355467"><ele>130.0</ele><time>2026-04-12T08:00:05.065Z</time></trkpt><trkpt lat="44.8112217" lon="8.1355067"><ele>130.0</ele><time>2026-04-12T08:00:06.064Z</time></trkpt><trkpt lat="44.8111617" lon="8.1354683"><ele>130.00000000000003</ele><time>2026-04-12T08:00:07.064Z</time></trkpt><trkpt lat="44.8111017" lon="8.1354267"><ele>130.0</ele><time>2026-04-12T08:00:08.063Z</time></trkpt><trkpt lat="44.81104" lon="8.1353867"><ele>129.85714285714286</ele><time>2026-04-12T08:00:09.065Z</time></trkpt><trkpt lat="44.8109783" lon="8.1353483"><ele>129.71428571428572</ele><time>2026-04-12T08:00:10.064Z</time></trkpt><trkpt lat="44.81092" lon="8.1353083"><ele>129.57142857142856</ele><time>2026-04-12T08:00:11.064Z</time></trkpt><trkpt lat="44.81086" lon="8.1352683"><ele>129.42857142857144</ele><time>2026-04-12T08:00:12.061Z</time></trkpt><trkpt lat="44.8108" lon="8.1352283"><ele>129.28571428571428</ele><time>2026-04-12T08:00:13.064Z</time></trkpt><trkpt lat="44.81074" lon="8.1351917"><ele>129.14285714285714</ele><time>2026-04-12T08:00:14.061Z</time></trkpt><trkpt lat="44.8106783" lon="8.1351517"><ele>129.0</ele><time>2026-04-12T08:00:15.063Z</time></trkpt><trkpt lat="44.8106183" lon="8.1351133"><ele>128.99999999999997</ele><time>2026-04-12T08:00:16.065Z</time></trkpt><trkpt lat="44.810555" lon="8.1350783"><ele>129.0</ele><time>2026-04-12T08:00:17.064Z</time></trkpt><trkpt lat="44.8104933" lon="8.1350383"><ele>129.0</ele><time>2026-04-12T08:00:18.062Z</time></trkpt><trkpt lat="44.8104317" lon="8.1350017"><ele>129.0</ele><time>2026-04-12T08:00:19.065Z</time></trkpt><trkpt lat="44.81037" lon="8.1349633"><ele>129.0</ele><time>2026-04-12T08:00:20.062Z</time></trkpt><trkpt lat="44.81031" lon="8.1349233"><ele>128.99999999999997</ele><time>2026-04-12T08:00:21.063Z</time></trkpt><trkpt lat="44.8102483" lon="8.1348817"><ele>129.0</ele><time>2026-04-12T08:00:22.063Z</time></trkpt><trkpt lat="44.8101867" lon="8.1348433"><ele>129.14285714285714</ele><time>2026-04-12T08:00:23.064Z</time></trkpt><trkpt lat="44.8101267" lon="8.134805"><ele>129.28571428571428</ele><time>2026-04-12T08:00:24.062Z</time></trkpt><trkpt lat="44.810065" lon="8.1347667"><ele>129.42857142857144</ele><time>2026-04-12T08:00:25.064Z</time></trkpt><trkpt lat="44.8100033" lon="8.1347317"><ele>129.57142857142856</ele><time>2026-04-12T08:00:26.063Z</time></trkpt><trkpt lat="44.8099417" lon="8.1346967"><ele>129.71428571428572</ele><time>2026-04-12T08:00:27.066Z</time></trkpt><trkpt lat="44.8098783" lon="8.1346617"><ele>129.85714285714286</ele><time>2026-04-12T08:00:28.069Z</time></trkpt><trkpt lat="44.8098167" lon="8.1346267"><ele>130.0</ele><time>2026-04-12T08:00:29.063Z</time></trkpt><trkpt lat="44.8097533" lon="8.13459"><ele>130.00000000000003</ele><time>2026-04-12T08:00:30.062Z</time></trkpt><trkpt lat="44.8096917" lon="8.1345567"><ele>130.0</ele><time>2026-04-12T08:00:31.062Z</time></trkpt><trkpt lat="44.8096317" lon="8.1345233"><ele>130.0</ele><time>2026-04-12T08:00:32.06Z</time></trkpt><trkpt lat="44.80957" lon="8.1344917"><ele>130.0</ele><time>2026-04-12T08:00:33.064Z</time></trkpt><trkpt lat="44.8095083" lon="8.1344583"><ele>130.0</ele><time>2026-04-12T08:00:34.062Z</time></trkpt><trkpt lat="44.8094467" lon="8.1344267"><ele>130.00000000000003</ele><time>2026-04-12T08:00:35.063Z</time></trkpt><trkpt lat="44.8093867" lon="8.1343933"><ele>130.0</ele><time>2026-04-12T08:00:36.065Z</time></trkpt><trkpt lat="44.8093267" lon="8.13436"><ele>129.71428571428572</ele><time>2026-04-12T08:00:37.067Z</time></trkpt><trkpt lat="44.809265" lon="8.1343267"><ele>129.42857142857144</ele><time>2026-04-12T08:00:38.064Z</time></trkpt><trkpt lat="44.8092033" lon="8.134295"><ele>129.14285714285714</ele><time>2026-04-12T08:00:39.063Z</time></trkpt><trkpt lat="44.80914" lon="8.1342633"><ele>128.85714285714286</ele><time>2026-04-12T08:00:40.063Z</time></trkpt><trkpt lat="44.8090783" lon="8.1342367"><ele>128.57142857142856</ele><time>2026-04-12T08:00:41.061Z</time></trkpt><trkpt lat="44.8090167" lon="8.1342083"><ele>128.28571428571428</ele><time>2026-04-12T08:00:42.063Z</time></trkpt><trkpt lat="44.8089533" lon="8.1341783"><ele>128.0</ele><time>2026-04-12T08:00:43.064Z</time></trkpt><trkpt lat="44.8088917" lon="8.1341517"><ele>128.0</ele><time>2026-04-12T08:00:44.065Z</time></trkpt><trkpt lat="44.8088283" lon="8.134125"><ele>127.99999999999999</ele><time>2026-04-12T08:00:45.067Z</time></trkpt><trkpt lat="44.808765" lon="8.1340983"><ele>128.0</ele><time>2026-04-12T08:00:46.063Z</time></trkpt><trkpt lat="44.8087033" lon="8.13407"><ele>128.0</ele><time>2026-04-12T08:00:47.062Z</time></trkpt><trkpt lat="44.8086433" lon="8.1340417"><ele>127.99999999999999</ele><time>2026-04-12T08:00:48.067Z</time></trkpt><trkpt lat="44.80858" lon="8.1340133"><ele>128.0</ele><time>2026-04-12T08:00:49.061Z</time></trkpt><trkpt lat="44.8085167" lon="8.13399"><ele>128.0</ele><time>2026-04-12T08:00:50.061Z</time></trkpt><trkpt lat="44.8084533" lon="8.1339683"><ele>128.0</ele><time>2026-04-12T08:00:51.063Z</time></trkpt><trkpt lat="44.80839" lon="8.1339433"><ele>127.99999999999999</ele><time>2026-04-12T08:00:52.065Z</time></trkpt><trkpt lat="44.8083267" lon="8.133915"><ele>128.0</ele><time>2026-04-12T08:00:53.061Z</time></trkpt><trkpt lat="44.8082633" lon="8.1338867"><ele>128.0</ele><time>2026-04-12T08:00:54.062Z</time></trkpt><trkpt lat="44.8082033" lon="8.1338583"><ele>127.99999999999999</ele><time>2026-04-12T08:00:55.068Z</time></trkpt><trkpt lat="44.8081417" lon="8.1338317"><ele>128.0</ele><time>2026-04-12T08:00:56.069Z</time></trkpt><trkpt lat="44.808025" lon="8.13378"><ele>128.0</ele><time>2026-04-12T08:00:58.066Z</time></trkpt><trkpt lat="44.80794" lon="8.1337117"><ele>127.99999999999999</ele><time>2026-04-12T08:01:00.062Z</time></trkpt><trkpt lat="44.8079167" lon="8.1335933"><ele>128.0</ele><time>2026-04-12T08:01:02.063Z</time></trkpt><trkpt lat="44.8079233" lon="8.1334267"><ele>128.0</ele><time>2026-04-12T08:01:04.062Z</time></trkpt><trkpt lat="44.8079267" lon="8.1333333"><ele>128.0</ele><time>2026-04-12T08:01:05.063Z</time></trkpt><trkpt lat="44.8079367" lon="8.133235"><ele>127.99999999999999</ele><time>2026-04-12T08:01:06.064Z</time></trkpt><trkpt lat="44.8079517" lon="8.1331383"><ele>128.0</ele><time>2026-04-12T08:01:07.062Z</time></trkpt><trkpt lat="44.8079567" lon="8.1329917"><ele>128.0</ele><time>2026-04-12T08:01:09.063Z</time></trkpt><trkpt lat="44.8079183" lon="8.1329133"><ele>128.0</ele><time>2026-04-12T08:01:11.064Z</time></trkpt><trkpt lat="44.8078367" lon="8.1329033"><ele>128.0</ele><time>2026-04-12T08:01:13.065Z</time></trkpt><trkpt lat="44.807745" lon="8.1329517"><ele>128.0</ele><time>2026-04-12T08:01:15.062Z</time></trkpt><trkpt lat="44.8076383" lon="8.1329967"><ele>128.0</ele><time>2026-04-12T08:01:17.066Z</time></trkpt><trkpt lat="44.8075233" lon="8.13303"><ele>128.16666666666666</ele><time>2026-04-12T08:01:19.063Z</time></trkpt><trkpt lat="44.8074" lon="8.13303"><ele>128.33333333333331</ele><time>2026-04-12T08:01:21.063Z</time></trkpt><trkpt lat="44.8072767" lon="8.1330117"><ele>128.5</ele><time>2026-04-12T08:01:23.067Z</time></trkpt><trkpt lat="44.8072083" lon="8.133005"><ele>128.66666666666666</ele><time>2026-04-12T08:01:24.067Z</time></trkpt><trkpt lat="44.8071433" lon="8.1330033"><ele>128.83333333333334</ele><time>2026-04-12T08:01:25.064Z</time></trkpt><trkpt lat="44.80708" lon="8.1330017"><ele>129.0</ele><time>2026-04-12T08:01:26.062Z</time></trkpt><trkpt lat="44.8070167" lon="8.1329983"><ele>128.99999999999997</ele><time>2026-04-12T08:01:27.064Z</time></trkpt><trkpt lat="44.8069533" lon="8.132985"><ele>129.0</ele><time>2026-04-12T08:01:28.063Z</time></trkpt><trkpt lat="44.80689" lon="8.132965"><ele>129.0</ele><time>2026-04-12T08:01:29.061Z</time></trkpt><trkpt lat="44.806825" lon="8.1329417"><ele>129.0</ele><time>2026-04-12T08:01:30.064Z</time></trkpt><trkpt lat="44.80676" lon="8.1329117"><ele>129.0</ele><time>2026-04-12T08:01:31.063Z</time></trkpt><trkpt lat="44.806695" lon="8.13288"><ele>128.99999999999997</ele><time>2026-04-12T08:01:32.066Z</time></trkpt><trkpt lat="44.8066333" lon="8.1328467"><ele>129.0</ele><time>2026-04-12T08:01:33.062Z</time></trkpt><trkpt lat="44.8065717" lon="8.1328117"><ele>128.99999999999997</ele><time>2026-04-12T08:01:34.065Z</time></trkpt><trkpt lat="44.8065083" lon="8.1327767"><ele>129.0</ele><time>2026-04-12T08:01:35.064Z</time></trkpt><trkpt lat="44.8064467" lon="8.1327433"><ele>129.0</ele><time>2026-04-12T08:01:36.063Z</time></trkpt><trkpt lat="44.8063833" lon="8.13271"><ele>129.0</ele><time>2026-04-12T08:01:37.068Z</time></trkpt><trkpt lat="44.8063217" lon="8.1326767"><ele>129.0</ele><time>2026-04-12T08:01:38.062Z</time></trkpt><trkpt lat="44.80626" lon="8.13265"><ele>128.99999999999997</ele><time>2026-04-12T08:01:39.069Z</time></trkpt><trkpt lat="44.8061983" lon="8.1326233"><ele>129.0</ele><time>2026-04-12T08:01:40.064Z</time></trkpt><trkpt lat="44.806135" lon="8.132595"><ele>128.99999999999997</ele><time>2026-04-12T08:01:41.062Z</time></trkpt><trkpt lat="44.8060733" lon="8.1325683"><ele>129.0</ele><time>2026-04-12T08:01:42.063Z</time></trkpt><trkpt lat="44.8060133" lon="8.1325383"><ele>129.0</ele><time>2026-04-12T08:01:43.064Z</time></trkpt><trkpt lat="44.8059533" lon="8.1325033"><ele>129.0</ele><time>2026-04-12T08:01:44.066Z</time></trkpt><trkpt lat="44.805895" lon="8.1324683"><ele>129.0</ele><time>2026-04-12T08:01:45.065Z</time></trkpt><trkpt lat="44.8058367" lon="8.1324283"><ele>128.99999999999997</ele><time>2026-04-12T08:01:46.067Z</time></trkpt><trkpt lat="44.8057817" lon="8.1323833"><ele>129.0</ele><time>2026-04-12T08:01:47.069Z</time></trkpt><trkpt lat="44.805725" lon="8.1323367"><ele>128.7142857142857</ele><time>2026-04-12T08:01:48.065Z</time></trkpt><trkpt lat="44.8056683" lon="8.1322967"><ele>128.42857142857142</ele><time>2026-04-12T08:01:49.062Z</time></trkpt><trkpt lat="44.8056067" lon="8.132265"><ele>128.14285714285714</ele><time>2026-04-12T08:01:50.066Z</time></trkpt><trkpt lat="44.8055433" lon="8.132235"><ele>127.85714285714285</ele><time>2026-04-12T08:01:51.07Z</time></trkpt><trkpt lat="44.8054767" lon="8.1322117"><ele>127.57142857142856</ele><time>2026-04-12T08:01:52.063Z</time></trkpt><trkpt lat="44.8054117" lon="8.1321933"><ele>127.28571428571429</ele><time>2026-04-12T08:01:53.061Z</time></trkpt><trkpt lat="44.8053467" lon="8.1321783"><ele>127.0</ele><time>2026-04-12T08:01:54.063Z</time></trkpt><trkpt lat="44.8052833" lon="8.1321583"><ele>127.0</ele><time>2026-04-12T08:01:55.062Z</time></trkpt><trkpt lat="44.8052217" lon="8.1321383"><ele>127.0</ele><time>2026-04-12T08:01:56.065Z</time></trkpt><trkpt lat="44.80516" lon="8.13212"><ele>127.0</ele><time>2026-04-12T08:01:57.066Z</time></trkpt><trkpt lat="44.8050983" lon="8.1321"><ele>127.0</ele><time>2026-04-12T08:01:58.065Z</time></trkpt><trkpt lat="44.8050367" lon="8.1320767"><ele>127.0</ele><time>2026-04-12T08:01:59.062Z</time></trkpt><trkpt lat="44.804975" lon="8.1320517"><ele>127.0</ele><time>2026-04-12T08:02:00.063Z</time></trkpt><trkpt lat="44.8049117" lon="8.1320267"><ele>127.0</ele><time>2026-04-12T08:02:01.061Z</time></trkpt><trkpt lat="44.8047933" lon="8.13197"><ele>127.28571428571429</ele><time>2026-04-12T08:02:03.066Z</time></trkpt><trkpt lat="44.8047333" lon="8.1319417"><ele>127.57142857142856</ele><time>2026-04-12T08:02:04.069Z</time></trkpt><trkpt lat="44.8046717" lon="8.1319183"><ele>127.85714285714285</ele><time>2026-04-12T08:02:05.06Z</time></trkpt><trkpt lat="44.8046083" lon="8.1318983"><ele>128.14285714285714</ele><time>2026-04-12T08:02:06.064Z</time></trkpt><trkpt lat="44.8045417" lon="8.1318717"><ele>128.42857142857142</ele><time>2026-04-12T08:02:07.062Z</time></trkpt><trkpt lat="44.8044783" lon="8.1318333"><ele>128.7142857142857</ele><time>2026-04-12T08:02:08.062Z</time></trkpt><trkpt lat="44.8044183" lon="8.1317967"><ele>129.0</ele><time>2026-04-12T08:02:09.061Z</time></trkpt><trkpt lat="44.8043567" lon="8.131765"><ele>128.99999999999997</ele><time>2026-04-12T08:02:10.064Z</time></trkpt><trkpt lat="44.8042933" lon="8.131735"><ele>129.0</ele><time>2026-04-12T08:02:11.061Z</time></trkpt><trkpt lat="44.80423" lon="8.131705"><ele>129.0</ele><time>2026-04-12T08:02:12.065Z</time></trkpt><trkpt lat="44.804165" lon="8.131675"><ele>129.0</ele><time>2026-04-12T08:02:13.062Z</time></trkpt><trkpt lat="44.8040983" lon="8.1316417"><ele>129.0</ele><time>2026-04-12T08:02:14.063Z</time></trkpt><trkpt lat="44.8040317" lon="8.13161"><ele>128.99999999999997</ele><time>2026-04-12T08:02:15.064Z</time></trkpt><trkpt lat="44.803965" lon="8.13158"><ele>129.0</ele><time>2026-04-12T08:02:16.063Z</time></trkpt><trkpt lat="44.8038967" lon="8.131545"><ele>128.99999999999997</ele><time>2026-04-12T08:02:17.065Z</time></trkpt><trkpt lat="44.80383" lon="8.1315083"><ele>129.0</ele><time>2026-04-12T08:02:18.063Z</time></trkpt><trkpt lat="44.803765" lon="8.1314683"><ele>129.0</ele><time>2026-04-12T08:02:19.067Z</time></trkpt><trkpt lat="44.8037017" lon="8.1314317"><ele>129.0</ele><time>2026-04-12T08:02:20.063Z</time></trkpt><trkpt lat="44.8036383" lon="8.1313983"><ele>129.0</ele><time>2026-04-12T08:02:21.065Z</time></trkpt><trkpt lat="44.8035733" lon="8.13137"><ele>128.99999999999997</ele><time>2026-04-12T08:02:22.061Z</time></trkpt><trkpt lat="44.8035067" lon="8.131345"><ele>129.0</ele><time>2026-04-12T08:02:23.06Z</time></trkpt><trkpt lat="44.80344" lon="8.1313283"><ele>128.99999999999997</ele><time>2026-04-12T08:02:24.062Z</time></trkpt><trkpt lat="44.8033717" lon="8.1313117"><ele>129.0</ele><time>2026-04-12T08:02:25.066Z</time></trkpt><trkpt lat="44.8033083" lon="8.1312867"><ele>129.0</ele><time>2026-04-12T08:02:26.064Z</time></trkpt><trkpt lat="44.8032433" lon="8.1312567"><ele>129.0</ele><time>2026-04-12T08:02:27.062Z</time></trkpt><trkpt lat="44.8031767" lon="8.13123"><ele>129.0</ele><time>2026-04-12T08:02:28.062Z</time></trkpt><trkpt lat="44.8031117" lon="8.1311967"><ele>128.99999999999997</ele><time>2026-04-12T08:02:29.062Z</time></trkpt><trkpt lat="44.8030483" lon="8.1311583"><ele>129.0</ele><time>2026-04-12T08:02:30.063Z</time></trkpt><trkpt lat="44.802985" lon="8.1311183"><ele>128.99999999999997</ele><time>2026-04-12T08:02:31.062Z</time></trkpt><trkpt lat="44.8029217" lon="8.13108"><ele>129.0</ele><time>2026-04-12T08:02:32.061Z</time></trkpt><trkpt lat="44.8028533" lon="8.1310417"><ele>129.0</ele><time>2026-04-12T08:02:33.061Z</time></trkpt><trkpt lat="44.8027883" lon="8.1310067"><ele>129.0</ele><time>2026-04-12T08:02:34.063Z</time></trkpt><trkpt lat="44.802725" lon="8.1309783"><ele>129.0</ele><time>2026-04-12T08:02:35.062Z</time></trkpt><trkpt lat="44.8026617" lon="8.1309533"><ele>128.99999999999997</ele><time>2026-04-12T08:02:36.063Z</time></trkpt><trkpt lat="44.8025933" lon="8.1309333"><ele>129.0</ele><time>2026-04-12T08:02:37.062Z</time></trkpt><trkpt lat="44.802525" lon="8.1309283"><ele>129.14285714285714</ele><time>2026-04-12T08:02:38.063Z</time></trkpt><trkpt lat="44.8024583" lon="8.1309333"><ele>129.28571428571428</ele><time>2026-04-12T08:02:39.062Z</time></trkpt><trkpt lat="44.8023883" lon="8.13094"><ele>129.42857142857144</ele><time>2026-04-12T08:02:40.062Z</time></trkpt><trkpt lat="44.80232" lon="8.1309417"><ele>129.57142857142856</ele><time>2026-04-12T08:02:41.062Z</time></trkpt><trkpt lat="44.80225" lon="8.1309367"><ele>129.71428571428572</ele><time>2026-04-12T08:02:42.065Z</time></trkpt><trkpt lat="44.80218" lon="8.1309233"><ele>129.85714285714286</ele><time>2026-04-12T08:02:43.067Z</time></trkpt><trkpt lat="44.8021133" lon="8.1309067"><ele>130.0</ele><time>2026-04-12T08:02:44.066Z</time></trkpt><trkpt lat="44.8020517" lon="8.130885"><ele>130.0</ele><time>2026-04-12T08:02:45.065Z</time></trkpt><trkpt lat="44.8019883" lon="8.130865"><ele>130.0</ele><time>2026-04-12T08:02:46.061Z</time></trkpt><trkpt lat="44.8018717" lon="8.13084"><ele>130.0</ele><time>2026-04-12T08:02:48.06Z</time></trkpt><trkpt lat="44.8017567" lon="8.1308833"><ele>130.0</ele><time>2026-04-12T08:02:50.06Z</time></trkpt><trkpt lat="44.8017017" lon="8.13093"><ele>130.0</ele><time>2026-04-12T08:02:51.064Z</time></trkpt><trkpt lat="44.801645" lon="8.1309817"><ele>130.0</ele><time>2026-04-12T08:02:52.06Z</time></trkpt><trkpt lat="44.8015917" lon="8.1310317"><ele>130.2</ele><time>2026-04-12T08:02:53.062Z</time></trkpt><trkpt lat="44.8014833" lon="8.1311167"><ele>130.4</ele><time>2026-04-12T08:02:55.063Z</time></trkpt><trkpt lat="44.80137" lon="8.1311817"><ele>130.6</ele><time>2026-04-12T08:02:57.062Z</time></trkpt><trkpt lat="44.8013083" lon="8.1312017"><ele>130.8</ele><time>2026-04-12T08:02:58.061Z</time></trkpt><trkpt lat="44.8011867" lon="8.1312167"><ele>131.0</ele><time>2026-04-12T08:03:00.064Z</time></trkpt><trkpt lat="44.8010717" lon="8.1312"><ele>130.8</ele><time>2026-04-12T08:03:02.064Z</time></trkpt><trkpt lat="44.8009583" lon="8.1311717"><ele>130.6</ele><time>2026-04-12T08:03:04.063Z</time></trkpt><trkpt lat="44.8008367" lon="8.1311383"><ele>130.4</ele><time>2026-04-12T08:03:06.064Z</time></trkpt><trkpt lat="44.8007167" lon="8.1311"><ele>130.2</ele><time>2026-04-12T08:03:08.062Z</time></trkpt><trkpt lat="44.800655" lon="8.1310817"><ele>130.0</ele><time>2026-04-12T08:03:09.061Z</time></trkpt><trkpt lat="44.8005917" lon="8.1310683"><ele>130.0</ele><time>2026-04-12T08:03:10.067Z</time></trkpt><trkpt lat="44.8004667" lon="8.131055"><ele>130.0</ele><time>2026-04-12T08:03:12.063Z</time></trkpt><trkpt lat="44.8004017" lon="8.1310467"><ele>130.0</ele><time>2026-04-12T08:03:13.061Z</time></trkpt><trkpt lat="44.8003367" lon="8.13103"><ele>130.0</ele><time>2026-04-12T08:03:14.062Z</time></trkpt><trkpt lat="44.8002717" lon="8.1310083"><ele>130.0</ele><time>2026-04-12T08:03:15.063Z</time></trkpt><trkpt lat="44.8002083" lon="8.13098"><ele>130.0</ele><time>2026-04-12T08:03:16.063Z</time></trkpt><trkpt lat="44.8000917" lon="8.13091"><ele>129.75</ele><time>2026-04-12T08:03:18.062Z</time></trkpt><trkpt lat="44.7999967" lon="8.1308167"><ele>129.5</ele><time>2026-04-12T08:03:20.062Z</time></trkpt><trkpt lat="44.7999" lon="8.1307167"><ele>129.25</ele><time>2026-04-12T08:03:22.064Z</time></trkpt><trkpt lat="44.799795" lon="8.1306333"><ele>129.0</ele><time>2026-04-12T08:03:24.069Z</time></trkpt><trkpt lat="44.7996833" lon="8.130575"><ele>129.0</ele><time>2026-04-12T08:03:26.067Z</time></trkpt><trkpt lat="44.799565" lon="8.130545"><ele>129.0</ele><time>2026-04-12T08:03:28.065Z</time></trkpt><trkpt lat="44.7994483" lon="8.130515"><ele>129.0</ele><time>2026-04-12T08:03:30.057Z</time></trkpt><trkpt lat="44.7993317" lon="8.1304717"><ele>129.0</ele><time>2026-04-12T08:03:32.062Z</time></trkpt><trkpt lat="44.7992217" lon="8.1304533"><ele>129.4</ele><time>2026-04-12T08:03:34.07Z</time></trkpt><trkpt lat="44.7991233" lon="8.1304333"><ele>129.8</ele><time>2026-04-12T08:03:36.063Z</time></trkpt><trkpt lat="44.79903" lon="8.1304"><ele>130.2</ele><time>2026-04-12T08:03:38.063Z</time></trkpt><trkpt lat="44.7989333" lon="8.130365"><ele>130.6</ele><time>2026-04-12T08:03:40.064Z</time></trkpt><trkpt lat="44.798845" lon="8.1303483"><ele>131.0</ele><time>2026-04-12T08:03:42.064Z</time></trkpt><trkpt lat="44.79876" lon="8.1303617"><ele>131.0</ele><time>2026-04-12T08:03:44.063Z</time></trkpt><trkpt lat="44.798685" lon="8.1304"><ele>131.0</ele><time>2026-04-12T08:03:46.061Z</time></trkpt><trkpt lat="44.7986067" lon="8.130445"><ele>131.0</ele><time>2026-04-12T08:03:48.063Z</time></trkpt><trkpt lat="44.79853" lon="8.1304817"><ele>131.0</ele><time>2026-04-12T08:03:50.065Z</time></trkpt><trkpt lat="44.7984367" lon="8.130475"><ele>131.0</ele><time>2026-04-12T08:03:52.063Z</time></trkpt><trkpt lat="44.798345" lon="8.130425"><ele>131.0</ele><time>2026-04-12T08:03:54.062Z</time></trkpt><trkpt lat="44.798245" lon="8.130375"><ele>131.0</ele><time>2026-04-12T08:03:56.064Z</time></trkpt><trkpt lat="44.7981433" lon="8.13031"><ele>131.0</ele><time>2026-04-12T08:03:58.063Z</time></trkpt><trkpt lat="44.798045" lon="8.1302467"><ele>131.0</ele><time>2026-04-12T08:04:00.065Z</time></trkpt><trkpt lat="44.7979633" lon="8.130195"><ele>131.0</ele><time>2026-04-12T08:04:02.067Z</time></trkpt><trkpt lat="44.7978883" lon="8.1301383"><ele>131.0</ele><time>2026-04-12T08:04:04.062Z</time></trkpt><trkpt lat="44.7978167" lon="8.1300917"><ele>131.0</ele><time>2026-04-12T08:04:06.061Z</time></trkpt><trkpt lat="44.79774" lon="8.130075"><ele>131.0</ele><time>2026-04-12T08:04:08.066Z</time></trkpt><trkpt lat="44.7976667" lon="8.1300833"><ele>131.0</ele><time>2026-04-12T08:04:10.062Z</time></trkpt><trkpt lat="44.79759" lon="8.1300983"><ele>131.0</ele><time>2026-04-12T08:04:12.063Z</time></trkpt><trkpt lat="44.7975033" lon="8.13007"><ele>131.0</ele><time>2026-04-12T08:04:14.06Z</time></trkpt><trkpt lat="44.7974267" lon="8.1300067"><ele>131.0</ele><time>2026-04-12T08:04:16.067Z</time></trkpt><trkpt lat="44.79736" lon="8.1300067"><ele>131.0</ele><time>2026-04-12T08:04:19.064Z</time></trkpt><trkpt lat="44.7973867" lon="8.1301267"><ele>131.0</ele><time>2026-04-12T08:04:23.065Z</time></trkpt><trkpt lat="44.7974367" lon="8.1302033"><ele>131.0</ele><time>2026-04-12T08:04:25.064Z</time></trkpt><trkpt lat="44.7974983" lon="8.13028"><ele>131.0</ele><time>2026-04-12T08:04:27.062Z</time></trkpt><trkpt lat="44.797575" lon="8.1303567"><ele>131.0</ele><time>2026-04-12T08:04:29.062Z</time></trkpt><trkpt lat="44.7976583" lon="8.1304383"><ele>131.0</ele><time>2026-04-12T08:04:31.065Z</time></trkpt><trkpt lat="44.7977433" lon="8.13053"><ele>131.0</ele><time>2026-04-12T08:04:33.064Z</time></trkpt><trkpt lat="44.7978067" lon="8.1306483"><ele>131.0</ele><time>2026-04-12T08:04:35.066Z</time></trkpt><trkpt lat="44.7978267" lon="8.130795"><ele>131.0</ele><time>2026-04-12T08:04:37.063Z</time></trkpt><trkpt lat="44.79782" lon="8.130925"><ele>131.0</ele><time>2026-04-12T08:04:39.063Z</time></trkpt><trkpt lat="44.7977933" lon="8.1310783"><ele>131.0</ele><time>2026-04-12T08:04:41.067Z</time></trkpt><trkpt lat="44.7977583" lon="8.1312167"><ele>131.25</ele><time>2026-04-12T08:04:43.068Z</time></trkpt><trkpt lat="44.7977117" lon="8.1313583"><ele>131.5</ele><time>2026-04-12T08:04:45.065Z</time></trkpt><trkpt lat="44.7976583" lon="8.1314933"><ele>131.75</ele><time>2026-04-12T08:04:47.062Z</time></trkpt><trkpt lat="44.7975833" lon="8.1316083"><ele>132.0</ele><time>2026-04-12T08:04:49.067Z</time></trkpt><trkpt lat="44.797475" lon="8.1316833"><ele>132.2</ele><time>2026-04-12T08:04:51.065Z</time></trkpt><trkpt lat="44.79736" lon="8.13174"><ele>132.39999999999998</ele><time>2026-04-12T08:04:53.064Z</time></trkpt><trkpt lat="44.797245" lon="8.1318"><ele>132.60000000000002</ele><time>2026-04-12T08:04:55.066Z</time></trkpt><trkpt lat="44.7971833" lon="8.1318333"><ele>132.8</ele><time>2026-04-12T08:04:56.064Z</time></trkpt><trkpt lat="44.797065" lon="8.1318967"><ele>133.0</ele><time>2026-04-12T08:04:58.064Z</time></trkpt><trkpt lat="44.7969533" lon="8.1319617"><ele>133.0</ele><time>2026-04-12T08:05:00.065Z</time></trkpt><trkpt lat="44.7968367" lon="8.1320267"><ele>133.0</ele><time>2026-04-12T08:05:02.065Z</time></trkpt><trkpt lat="44.7967267" lon="8.13209"><ele>133.0</ele><time>2026-04-12T08:05:04.066Z</time></trkpt><trkpt lat="44.7966167" lon="8.1321567"><ele>133.0</ele><time>2026-04-12T08:05:06.066Z</time></trkpt><trkpt lat="44.7965" lon="8.132215"><ele>132.85714285714286</ele><time>2026-04-12T08:05:08.077Z</time></trkpt><trkpt lat="44.79644" lon="8.1322467"><ele>132.71428571428572</ele><time>2026-04-12T08:05:09.066Z</time></trkpt><trkpt lat="44.7963233" lon="8.1323067"><ele>132.57142857142856</ele><time>2026-04-12T08:05:11.066Z</time></trkpt><trkpt lat="44.7962633" lon="8.1323383"><ele>132.42857142857144</ele><time>2026-04-12T08:05:12.066Z</time></trkpt><trkpt lat="44.7962033" lon="8.13237"><ele>132.28571428571428</ele><time>2026-04-12T08:05:13.066Z</time></trkpt><trkpt lat="44.7961433" lon="8.1324033"><ele>132.14285714285714</ele><time>2026-04-12T08:05:14.063Z</time></trkpt><trkpt lat="44.7960833" lon="8.1324367"><ele>132.0</ele><time>2026-04-12T08:05:15.064Z</time></trkpt><trkpt lat="44.7960233" lon="8.13247"><ele>131.83333333333334</ele><time>2026-04-12T08:05:16.065Z</time></trkpt><trkpt lat="44.7959633" lon="8.132505"><ele>131.66666666666666</ele><time>2026-04-12T08:05:17.063Z</time></trkpt><trkpt lat="44.7959017" lon="8.1325383"><ele>131.5</ele><time>2026-04-12T08:05:18.062Z</time></trkpt><trkpt lat="44.7958433" lon="8.1325717"><ele>131.33333333333331</ele><time>2026-04-12T08:05:19.065Z</time></trkpt><trkpt lat="44.79573" lon="8.1326383"><ele>131.16666666666666</ele><time>2026-04-12T08:05:21.061Z</time></trkpt><trkpt lat="44.79567" lon="8.13267"><ele>131.0</ele><time>2026-04-12T08:05:22.067Z</time></trkpt><trkpt lat="44.7955517" lon="8.1327383"><ele>131.0</ele><time>2026-04-12T08:05:24.063Z</time></trkpt><trkpt lat="44.7954383" lon="8.1328067"><ele>131.0</ele><time>2026-04-12T08:05:26.063Z</time></trkpt><trkpt lat="44.7953217" lon="8.1328733"><ele>131.0</ele><time>2026-04-12T08:05:28.064Z</time></trkpt><trkpt lat="44.7952617" lon="8.132905"><ele>131.0</ele><time>2026-04-12T08:05:29.064Z</time></trkpt><trkpt lat="44.7952017" lon="8.13294"><ele>131.0</ele><time>2026-04-12T08:05:30.062Z</time></trkpt><trkpt lat="44.7951417" lon="8.1329733"><ele>131.0</ele><time>2026-04-12T08:05:31.062Z</time></trkpt><trkpt lat="44.7950817" lon="8.1330067"><ele>131.4</ele><time>2026-04-12T08:05:32.063Z</time></trkpt><trkpt lat="44.794965" lon="8.1330783"><ele>131.8</ele><time>2026-04-12T08:05:34.063Z</time></trkpt><trkpt lat="44.7948483" lon="8.1331433"><ele>132.20000000000002</ele><time>2026-04-12T08:05:36.063Z</time></trkpt><trkpt lat="44.7947317" lon="8.1332083"><ele>132.6</ele><time>2026-04-12T08:05:38.063Z</time></trkpt><trkpt lat="44.7946733" lon="8.1332433"><ele>133.0</ele><time>2026-04-12T08:05:39.067Z</time></trkpt><trkpt lat="44.7945567" lon="8.1333083"><ele>133.0</ele><time>2026-04-12T08:05:41.062Z</time></trkpt><trkpt lat="44.7944983" lon="8.1333417"><ele>133.0</ele><time>2026-04-12T08:05:42.059Z</time></trkpt><trkpt lat="44.7944383" lon="8.1333733"><ele>133.0</ele><time>2026-04-12T08:05:43.064Z</time></trkpt><trkpt lat="44.7943783" lon="8.1334067"><ele>133.0</ele><time>2026-04-12T08:05:44.062Z</time></trkpt><trkpt lat="44.7942617" lon="8.133475"><ele>133.0</ele><time>2026-04-12T08:05:46.062Z</time></trkpt><trkpt lat="44.7942017" lon="8.1335117"><ele>133.0</ele><time>2026-04-12T08:05:47.064Z</time></trkpt><trkpt lat="44.794145" lon="8.1335533"><ele>133.0</ele><time>2026-04-12T08:05:48.062Z</time></trkpt><trkpt lat="44.7940367" lon="8.13364"><ele>132.85714285714286</ele><time>2026-04-12T08:05:50.062Z</time></trkpt><trkpt lat="44.79398" lon="8.133685"><ele>132.71428571428572</ele><time>2026-04-12T08:05:51.065Z</time></trkpt><trkpt lat="44.7939233" lon="8.1337317"><ele>132.57142857142856</ele><time>2026-04-12T08:05:52.064Z</time></trkpt><trkpt lat="44.7938683" lon="8.1337783"><ele>132.42857142857144</ele><time>2026-04-12T08:05:53.064Z</time></trkpt><trkpt lat="44.79381" lon="8.1338233"><ele>132.28571428571428</ele><time>2026-04-12T08:05:54.062Z</time></trkpt><trkpt lat="44.7937533" lon="8.1338717"><ele>132.14285714285714</ele><time>2026-04-12T08:05:55.062Z</time></trkpt><trkpt lat="44.793695" lon="8.1339183"><ele>132.0</ele><time>2026-04-12T08:05:56.064Z</time></trkpt><trkpt lat="44.7936367" lon="8.133965"><ele>132.0</ele><time>2026-04-12T08:05:57.065Z</time></trkpt><trkpt lat="44.7935817" lon="8.1340117"><ele>132.0</ele><time>2026-04-12T08:05:58.064Z</time></trkpt><trkpt lat="44.7935267" lon="8.1340583"><ele>132.0</ele><time>2026-04-12T08:05:59.064Z</time></trkpt><trkpt lat="44.7934717" lon="8.134105"><ele>132.0</ele><time>2026-04-12T08:06:00.064Z</time></trkpt><trkpt lat="44.793365" lon="8.1341983"><ele>132.0</ele><time>2026-04-12T08:06:02.069Z</time></trkpt><trkpt lat="44.7932567" lon="8.1342917"><ele>132.0</ele><time>2026-04-12T08:06:04.063Z</time></trkpt><trkpt lat="44.7932" lon="8.13434"><ele>132.33333333333334</ele><time>2026-04-12T08:06:05.063Z</time></trkpt><trkpt lat="44.7931433" lon="8.1343883"><ele>132.66666666666666</ele><time>2026-04-12T08:06:06.06Z</time></trkpt><trkpt lat="44.793085" lon="8.1344367"><ele>133.0</ele><time>2026-04-12T08:06:07.063Z</time></trkpt><trkpt lat="44.7930283" lon="8.1344833"><ele>133.33333333333331</ele><time>2026-04-12T08:06:08.065Z</time></trkpt><trkpt lat="44.7929717" lon="8.13453"><ele>133.66666666666666</ele><time>2026-04-12T08:06:09.063Z</time></trkpt><trkpt lat="44.7929167" lon="8.1345767"><ele>134.0</ele><time>2026-04-12T08:06:10.065Z</time></trkpt><trkpt lat="44.79281" lon="8.1346667"><ele>134.0</ele><time>2026-04-12T08:06:12.064Z</time></trkpt><trkpt lat="44.7927033" lon="8.1347583"><ele>134.0</ele><time>2026-04-12T08:06:14.063Z</time></trkpt><trkpt lat="44.7926483" lon="8.1348033"><ele>134.0</ele><time>2026-04-12T08:06:15.063Z</time></trkpt><trkpt lat="44.7925417" lon="8.134895"><ele>134.0</ele><time>2026-04-12T08:06:17.063Z</time></trkpt><trkpt lat="44.7924317" lon="8.1349817"><ele>134.0</ele><time>2026-04-12T08:06:19.062Z</time></trkpt><trkpt lat="44.792375" lon="8.1350317"><ele>133.71428571428572</ele><time>2026-04-12T08:06:20.064Z</time></trkpt><trkpt lat="44.79232" lon="8.1350783"><ele>133.42857142857142</ele><time>2026-04-12T08:06:21.064Z</time></trkpt><trkpt lat="44.79226" lon="8.135125"><ele>133.14285714285714</ele><time>2026-04-12T08:06:22.062Z</time></trkpt><trkpt lat="44.7922017" lon="8.1351717"><ele>132.85714285714286</ele><time>2026-04-12T08:06:23.064Z</time></trkpt><trkpt lat="44.7921433" lon="8.1352167"><ele>132.57142857142858</ele><time>2026-04-12T08:06:24.064Z</time></trkpt><trkpt lat="44.7920883" lon="8.1352633"><ele>132.28571428571428</ele><time>2026-04-12T08:06:25.061Z</time></trkpt><trkpt lat="44.7920317" lon="8.13531"><ele>132.0</ele><time>2026-04-12T08:06:26.063Z</time></trkpt><trkpt lat="44.7919767" lon="8.1353533"><ele>132.0</ele><time>2026-04-12T08:06:27.064Z</time></trkpt><trkpt lat="44.79192" lon="8.1353983"><ele>132.0</ele><time>2026-04-12T08:06:28.062Z</time></trkpt><trkpt lat="44.791865" lon="8.1354433"><ele>132.0</ele><time>2026-04-12T08:06:29.062Z</time></trkpt><trkpt lat="44.79176" lon="8.135535"><ele>132.0</ele><time>2026-04-12T08:06:31.064Z</time></trkpt><trkpt lat="44.791705" lon="8.13558"><ele>132.0</ele><time>2026-04-12T08:06:32.063Z</time></trkpt><trkpt lat="44.79165" lon="8.1356267"><ele>132.0</ele><time>2026-04-12T08:06:33.065Z</time></trkpt><trkpt lat="44.791595" lon="8.1356733"><ele>132.0</ele><time>2026-04-12T08:06:34.068Z</time></trkpt><trkpt lat="44.7914867" lon="8.1357667"><ele>132.2</ele><time>2026-04-12T08:06:36.066Z</time></trkpt><trkpt lat="44.7913783" lon="8.1358583"><ele>132.39999999999998</ele><time>2026-04-12T08:06:38.062Z</time></trkpt><trkpt lat="44.7912717" lon="8.1359483"><ele>132.60000000000002</ele><time>2026-04-12T08:06:40.06Z</time></trkpt><trkpt lat="44.79117" lon="8.1360417"><ele>132.8</ele><time>2026-04-12T08:06:42.063Z</time></trkpt><trkpt lat="44.791115" lon="8.1360867"><ele>133.0</ele><time>2026-04-12T08:06:43.06Z</time></trkpt><trkpt lat="44.79106" lon="8.13613"><ele>133.33333333333334</ele><time>2026-04-12T08:06:44.066Z</time></trkpt><trkpt lat="44.791005" lon="8.1361767"><ele>133.66666666666669</ele><time>2026-04-12T08:06:45.069Z</time></trkpt><trkpt lat="44.7909483" lon="8.1362217"><ele>134.0</ele><time>2026-04-12T08:06:46.065Z</time></trkpt><trkpt lat="44.7908933" lon="8.1362683"><ele>134.33333333333334</ele><time>2026-04-12T08:06:47.058Z</time></trkpt><trkpt lat="44.7908383" lon="8.136315"><ele>134.66666666666666</ele><time>2026-04-12T08:06:48.06Z</time></trkpt><trkpt lat="44.7907817" lon="8.1363617"><ele>135.0</ele><time>2026-04-12T08:06:49.063Z</time></trkpt><trkpt lat="44.7906717" lon="8.136455"><ele>135.0</ele><time>2026-04-12T08:06:51.066Z</time></trkpt><trkpt lat="44.7906167" lon="8.1365"><ele>135.0</ele><time>2026-04-12T08:06:52.066Z</time></trkpt><trkpt lat="44.7905617" lon="8.1365467"><ele>135.0</ele><time>2026-04-12T08:06:53.061Z</time></trkpt><trkpt lat="44.790505" lon="8.1365933"><ele>135.0</ele><time>2026-04-12T08:06:54.062Z</time></trkpt><trkpt lat="44.79045" lon="8.1366417"><ele>135.0</ele><time>2026-04-12T08:06:55.06Z</time></trkpt><trkpt lat="44.7903917" lon="8.13669"><ele>135.0</ele><time>2026-04-12T08:06:56.066Z</time></trkpt><trkpt lat="44.7903333" lon="8.1367383"><ele>135.0</ele><time>2026-04-12T08:06:57.062Z</time></trkpt><trkpt lat="44.790275" lon="8.1367867"><ele>135.14285714285714</ele><time>2026-04-12T08:06:58.069Z</time></trkpt><trkpt lat="44.7902167" lon="8.136835"><ele>135.28571428571428</ele><time>2026-04-12T08:06:59.063Z</time></trkpt><trkpt lat="44.790155" lon="8.1368833"><ele>135.42857142857142</ele><time>2026-04-12T08:07:00.063Z</time></trkpt><trkpt lat="44.7900967" lon="8.13693"><ele>135.57142857142856</ele><time>2026-04-12T08:07:01.063Z</time></trkpt><trkpt lat="44.79004" lon="8.136975"><ele>135.71428571428572</ele><time>2026-04-12T08:07:02.066Z</time></trkpt><trkpt lat="44.7899833" lon="8.1370217"><ele>135.85714285714283</ele><time>2026-04-12T08:07:03.064Z</time></trkpt><trkpt lat="44.789925" lon="8.1370683"><ele>136.0</ele><time>2026-04-12T08:07:04.065Z</time></trkpt><trkpt lat="44.78987" lon="8.1371167"><ele>135.99999999999997</ele><time>2026-04-12T08:07:05.063Z</time></trkpt><trkpt lat="44.789815" lon="8.137165"><ele>136.0</ele><time>2026-04-12T08:07:06.064Z</time></trkpt><trkpt lat="44.7897583" lon="8.1372133"><ele>136.0</ele><time>2026-04-12T08:07:07.062Z</time></trkpt><trkpt lat="44.7897033" lon="8.1372617"><ele>136.0</ele><time>2026-04-12T08:07:08.063Z</time></trkpt><trkpt lat="44.7896467" lon="8.13731"><ele>136.0</ele><time>2026-04-12T08:07:09.065Z</time></trkpt><trkpt lat="44.78959" lon="8.1373567"><ele>135.99999999999997</ele><time>2026-04-12T08:07:10.065Z</time></trkpt><trkpt lat="44.789535" lon="8.1374033"><ele>136.0</ele><time>2026-04-12T08:07:11.061Z</time></trkpt><trkpt lat="44.7894267" lon="8.1374967"><ele>135.99999999999997</ele><time>2026-04-12T08:07:13.063Z</time></trkpt><trkpt lat="44.7893717" lon="8.13754"><ele>136.0</ele><time>2026-04-12T08:07:14.065Z</time></trkpt><trkpt lat="44.7893167" lon="8.1375883"><ele>136.0</ele><time>2026-04-12T08:07:15.063Z</time></trkpt><trkpt lat="44.7892583" lon="8.1376333"><ele>136.0</ele><time>2026-04-12T08:07:16.063Z</time></trkpt><trkpt lat="44.7892017" lon="8.1376817"><ele>136.0</ele><time>2026-04-12T08:07:17.066Z</time></trkpt><trkpt lat="44.789145" lon="8.1377267"><ele>135.99999999999997</ele><time>2026-04-12T08:07:18.064Z</time></trkpt><trkpt lat="44.78909" lon="8.1377717"><ele>136.0</ele><time>2026-04-12T08:07:19.062Z</time></trkpt><trkpt lat="44.7890333" lon="8.1378183"><ele>135.99999999999997</ele><time>2026-04-12T08:07:20.066Z</time></trkpt><trkpt lat="44.7889767" lon="8.137865"><ele>136.0</ele><time>2026-04-12T08:07:21.063Z</time></trkpt><trkpt lat="44.7889183" lon="8.1379133"><ele>136.0</ele><time>2026-04-12T08:07:22.062Z</time></trkpt><trkpt lat="44.78886" lon="8.13796"><ele>136.0</ele><time>2026-04-12T08:07:23.064Z</time></trkpt><trkpt lat="44.788805" lon="8.1380067"><ele>136.0</ele><time>2026-04-12T08:07:24.059Z</time></trkpt><trkpt lat="44.7887483" lon="8.1380533"><ele>135.99999999999997</ele><time>2026-04-12T08:07:25.065Z</time></trkpt><trkpt lat="44.7886933" lon="8.1380983"><ele>136.0</ele><time>2026-04-12T08:07:26.062Z</time></trkpt><trkpt lat="44.7885867" lon="8.1381883"><ele>136.14285714285714</ele><time>2026-04-12T08:07:28.072Z</time></trkpt><trkpt lat="44.7885317" lon="8.1382333"><ele>136.28571428571428</ele><time>2026-04-12T08:07:29.06Z</time></trkpt><trkpt lat="44.7884733" lon="8.1382783"><ele>136.42857142857144</ele><time>2026-04-12T08:07:30.066Z</time></trkpt><trkpt lat="44.7884167" lon="8.13832"><ele>136.57142857142856</ele><time>2026-04-12T08:07:31.062Z</time></trkpt><trkpt lat="44.7883583" lon="8.1383617"><ele>136.71428571428572</ele><time>2026-04-12T08:07:32.062Z</time></trkpt><trkpt lat="44.7883017" lon="8.1384067"><ele>136.85714285714286</ele><time>2026-04-12T08:07:33.066Z</time></trkpt><trkpt lat="44.7882417" lon="8.1384483"><ele>137.0</ele><time>2026-04-12T08:07:34.065Z</time></trkpt><trkpt lat="44.7881833" lon="8.1384867"><ele>137.00000000000003</ele><time>2026-04-12T08:07:35.063Z</time></trkpt><trkpt lat="44.788125" lon="8.1385267"><ele>137.0</ele><time>2026-04-12T08:07:36.061Z</time></trkpt><trkpt lat="44.7880683" lon="8.1385683"><ele>137.0</ele><time>2026-04-12T08:07:37.067Z</time></trkpt><trkpt lat="44.78801" lon="8.13861"><ele>137.0</ele><time>2026-04-12T08:07:38.063Z</time></trkpt><trkpt lat="44.7879517" lon="8.1386517"><ele>137.0</ele><time>2026-04-12T08:07:39.062Z</time></trkpt><trkpt lat="44.7878917" lon="8.1386917"><ele>137.00000000000003</ele><time>2026-04-12T08:07:40.065Z</time></trkpt><trkpt lat="44.78783" lon="8.1387333"><ele>137.0</ele><time>2026-04-12T08:07:41.063Z</time></trkpt><trkpt lat="44.7877717" lon="8.1387767"><ele>137.00000000000003</ele><time>2026-04-12T08:07:42.062Z</time></trkpt><trkpt lat="44.787715" lon="8.1388217"><ele>137.0</ele><time>2026-04-12T08:07:43.063Z</time></trkpt><trkpt lat="44.7876583" lon="8.138865"><ele>137.0</ele><time>2026-04-12T08:07:44.064Z</time></trkpt><trkpt lat="44.7876" lon="8.13891"><ele>137.0</ele><time>2026-04-12T08:07:45.066Z</time></trkpt><trkpt lat="44.78754" lon="8.1389533"><ele>137.0</ele><time>2026-04-12T08:07:46.059Z</time></trkpt><trkpt lat="44.7874817" lon="8.1389933"><ele>137.00000000000003</ele><time>2026-04-12T08:07:47.063Z</time></trkpt><trkpt lat="44.7874233" lon="8.1390367"><ele>137.0</ele><time>2026-04-12T08:07:48.062Z</time></trkpt><trkpt lat="44.787365" lon="8.1390817"><ele>137.00000000000003</ele><time>2026-04-12T08:07:49.066Z</time></trkpt><trkpt lat="44.787305" lon="8.1391217"><ele>137.0</ele><time>2026-04-12T08:07:50.061Z</time></trkpt><trkpt lat="44.7872467" lon="8.1391617"><ele>137.0</ele><time>2026-04-12T08:07:51.064Z</time></trkpt><trkpt lat="44.78719" lon="8.1392033"><ele>137.0</ele><time>2026-04-12T08:07:52.064Z</time></trkpt><trkpt lat="44.78713" lon="8.1392417"><ele>137.0</ele><time>2026-04-12T08:07:53.063Z</time></trkpt><trkpt lat="44.7870683" lon="8.1392783"><ele>137.00000000000003</ele><time>2026-04-12T08:07:54.061Z</time></trkpt><trkpt lat="44.7870083" lon="8.1393133"><ele>137.0</ele><time>2026-04-12T08:07:55.062Z</time></trkpt><trkpt lat="44.7869467" lon="8.13935"><ele>137.00000000000003</ele><time>2026-04-12T08:07:56.065Z</time></trkpt><trkpt lat="44.7868867" lon="8.1393833"><ele>137.0</ele><time>2026-04-12T08:07:57.063Z</time></trkpt><trkpt lat="44.7868217" lon="8.139415"><ele>137.0</ele><time>2026-04-12T08:07:58.062Z</time></trkpt><trkpt lat="44.7867567" lon="8.139445"><ele>137.0</ele><time>2026-04-12T08:07:59.065Z</time></trkpt><trkpt lat="44.7866933" lon="8.1394717"><ele>137.0</ele><time>2026-04-12T08:08:00.064Z</time></trkpt><trkpt lat="44.78663" lon="8.1395"><ele>137.00000000000003</ele><time>2026-04-12T08:08:01.065Z</time></trkpt><trkpt lat="44.7865667" lon="8.139525"><ele>137.0</ele><time>2026-04-12T08:08:02.064Z</time></trkpt><trkpt lat="44.7865033" lon="8.1395517"><ele>136.85714285714286</ele><time>2026-04-12T08:08:03.064Z</time></trkpt><trkpt lat="44.7864417" lon="8.1395767"><ele>136.71428571428572</ele><time>2026-04-12T08:08:04.065Z</time></trkpt><trkpt lat="44.78638" lon="8.1395983"><ele>136.57142857142856</ele><time>2026-04-12T08:08:05.063Z</time></trkpt><trkpt lat="44.786315" lon="8.1396183"><ele>136.42857142857144</ele><time>2026-04-12T08:08:06.066Z</time></trkpt><trkpt lat="44.78625" lon="8.139635"><ele>136.28571428571428</ele><time>2026-04-12T08:08:07.065Z</time></trkpt><trkpt lat="44.7861867" lon="8.13965"><ele>136.14285714285714</ele><time>2026-04-12T08:08:08.065Z</time></trkpt><trkpt lat="44.7861233" lon="8.1396633"><ele>136.0</ele><time>2026-04-12T08:08:09.065Z</time></trkpt><trkpt lat="44.7860017" lon="8.1396867"><ele>136.0</ele><time>2026-04-12T08:08:11.063Z</time></trkpt><trkpt lat="44.785885" lon="8.1397083"><ele>136.0</ele><time>2026-04-12T08:08:13.062Z</time></trkpt><trkpt lat="44.7857683" lon="8.13972"><ele>136.0</ele><time>2026-04-12T08:08:15.065Z</time></trkpt><trkpt lat="44.7856517" lon="8.139725"><ele>136.0</ele><time>2026-04-12T08:08:17.061Z</time></trkpt><trkpt lat="44.7855333" lon="8.1397233"><ele>135.99999999999997</ele><time>2026-04-12T08:08:19.066Z</time></trkpt><trkpt lat="44.78547" lon="8.1397233"><ele>136.0</ele><time>2026-04-12T08:08:20.062Z</time></trkpt><trkpt lat="44.7854033" lon="8.13972"><ele>136.0</ele><time>2026-04-12T08:08:21.062Z</time></trkpt><trkpt lat="44.7853383" lon="8.139715"><ele>136.0</ele><time>2026-04-12T08:08:22.065Z</time></trkpt><trkpt lat="44.785275" lon="8.1397033"><ele>136.0</ele><time>2026-04-12T08:08:23.063Z</time></trkpt><trkpt lat="44.7851517" lon="8.1396783"><ele>135.99999999999997</ele><time>2026-04-12T08:08:25.064Z</time></trkpt><trkpt lat="44.7850883" lon="8.139665"><ele>136.0</ele><time>2026-04-12T08:08:26.065Z</time></trkpt><trkpt lat="44.7850233" lon="8.1396517"><ele>135.99999999999997</ele><time>2026-04-12T08:08:27.064Z</time></trkpt><trkpt lat="44.78496" lon="8.1396333"><ele>136.0</ele><time>2026-04-12T08:08:28.065Z</time></trkpt><trkpt lat="44.784895" lon="8.1396167"><ele>136.0</ele><time>2026-04-12T08:08:29.063Z</time></trkpt><trkpt lat="44.78483" lon="8.1396017"><ele>136.0</ele><time>2026-04-12T08:08:30.064Z</time></trkpt><trkpt lat="44.784765" lon="8.139585"><ele>136.0</ele><time>2026-04-12T08:08:31.064Z</time></trkpt><trkpt lat="44.7847033" lon="8.1395667"><ele>135.99999999999997</ele><time>2026-04-12T08:08:32.063Z</time></trkpt><trkpt lat="44.7846417" lon="8.1395467"><ele>136.0</ele><time>2026-04-12T08:08:33.062Z</time></trkpt><trkpt lat="44.78458" lon="8.1395233"><ele>136.0</ele><time>2026-04-12T08:08:34.068Z</time></trkpt><trkpt lat="44.7845167" lon="8.1394967"><ele>136.0</ele><time>2026-04-12T08:08:35.061Z</time></trkpt><trkpt lat="44.7844533" lon="8.13947"><ele>136.0</ele><time>2026-04-12T08:08:36.062Z</time></trkpt><trkpt lat="44.784335" lon="8.1394133"><ele>136.0</ele><time>2026-04-12T08:08:38.061Z</time></trkpt><trkpt lat="44.784275" lon="8.13938"><ele>136.0</ele><time>2026-04-12T08:08:39.061Z</time></trkpt><trkpt lat="44.784215" lon="8.139345"><ele>136.0</ele><time>2026-04-12T08:08:40.063Z</time></trkpt><trkpt lat="44.784155" lon="8.1393083"><ele>135.99999999999997</ele><time>2026-04-12T08:08:41.062Z</time></trkpt><trkpt lat="44.7840933" lon="8.13927"><ele>136.0</ele><time>2026-04-12T08:08:42.063Z</time></trkpt><trkpt lat="44.78403" lon="8.1392283"><ele>136.0</ele><time>2026-04-12T08:08:43.066Z</time></trkpt><trkpt lat="44.783965" lon="8.1391867"><ele>136.0</ele><time>2026-04-12T08:08:44.065Z</time></trkpt><trkpt lat="44.7839017" lon="8.1391467"><ele>136.0</ele><time>2026-04-12T08:08:45.066Z</time></trkpt><trkpt lat="44.7838417" lon="8.13911"><ele>135.99999999999997</ele><time>2026-04-12T08:08:46.063Z</time></trkpt><trkpt lat="44.78378" lon="8.1390717"><ele>136.0</ele><time>2026-04-12T08:08:47.063Z</time></trkpt><trkpt lat="44.7837217" lon="8.1390333"><ele>136.0</ele><time>2026-04-12T08:08:48.064Z</time></trkpt><trkpt lat="44.7836633" lon="8.138995"><ele>136.0</ele><time>2026-04-12T08:08:49.065Z</time></trkpt><trkpt lat="44.783605" lon="8.1389567"><ele>136.0</ele><time>2026-04-12T08:08:50.065Z</time></trkpt><trkpt lat="44.783545" lon="8.1389183"><ele>136.0</ele><time>2026-04-12T08:08:51.067Z</time></trkpt><trkpt lat="44.7834867" lon="8.1388767"><ele>136.0</ele><time>2026-04-12T08:08:52.062Z</time></trkpt><trkpt lat="44.7833733" lon="8.1387933"><ele>136.0</ele><time>2026-04-12T08:08:54.063Z</time></trkpt><trkpt lat="44.78326" lon="8.1387217"><ele>136.33333333333334</ele><time>2026-04-12T08:08:56.062Z</time></trkpt><trkpt lat="44.7832" lon="8.1386833"><ele>136.66666666666669</ele><time>2026-04-12T08:08:57.063Z</time></trkpt><trkpt lat="44.7831433" lon="8.1386417"><ele>137.0</ele><time>2026-04-12T08:08:58.062Z</time></trkpt><trkpt lat="44.7830833" lon="8.1386"><ele>137.33333333333334</ele><time>2026-04-12T08:08:59.062Z</time></trkpt><trkpt lat="44.783025" lon="8.1385583"><ele>137.66666666666666</ele><time>2026-04-12T08:09:00.063Z</time></trkpt><trkpt lat="44.7829667" lon="8.138515"><ele>138.0</ele><time>2026-04-12T08:09:01.062Z</time></trkpt><trkpt lat="44.782855" lon="8.138435"><ele>138.0</ele><time>2026-04-12T08:09:03.063Z</time></trkpt><trkpt lat="44.782745" lon="8.1383617"><ele>138.0</ele><time>2026-04-12T08:09:05.06Z</time></trkpt><trkpt lat="44.7826333" lon="8.1382833"><ele>138.0</ele><time>2026-04-12T08:09:07.061Z</time></trkpt><trkpt lat="44.782575" lon="8.138245"><ele>138.0</ele><time>2026-04-12T08:09:08.067Z</time></trkpt><trkpt lat="44.7825167" lon="8.1382067"><ele>138.0</ele><time>2026-04-12T08:09:09.063Z</time></trkpt><trkpt lat="44.7824583" lon="8.1381667"><ele>138.0</ele><time>2026-04-12T08:09:10.061Z</time></trkpt><trkpt lat="44.7824" lon="8.1381283"><ele>137.71428571428572</ele><time>2026-04-12T08:09:11.06Z</time></trkpt><trkpt lat="44.7823417" lon="8.13809"><ele>137.42857142857144</ele><time>2026-04-12T08:09:12.06Z</time></trkpt><trkpt lat="44.7822833" lon="8.13805"><ele>137.14285714285714</ele><time>2026-04-12T08:09:13.062Z</time></trkpt><trkpt lat="44.782225" lon="8.1380133"><ele>136.85714285714286</ele><time>2026-04-12T08:09:14.063Z</time></trkpt><trkpt lat="44.7821667" lon="8.1379767"><ele>136.57142857142856</ele><time>2026-04-12T08:09:15.063Z</time></trkpt><trkpt lat="44.7821083" lon="8.1379383"><ele>136.28571428571428</ele><time>2026-04-12T08:09:16.069Z</time></trkpt><trkpt lat="44.78205" lon="8.1379"><ele>136.0</ele><time>2026-04-12T08:09:17.061Z</time></trkpt><trkpt lat="44.7819917" lon="8.1378633"><ele>135.99999999999997</ele><time>2026-04-12T08:09:18.061Z</time></trkpt><trkpt lat="44.7819333" lon="8.137825"><ele>136.0</ele><time>2026-04-12T08:09:19.061Z</time></trkpt><trkpt lat="44.781875" lon="8.1377867"><ele>136.0</ele><time>2026-04-12T08:09:20.063Z</time></trkpt><trkpt lat="44.781815" lon="8.1377467"><ele>136.0</ele><time>2026-04-12T08:09:21.064Z</time></trkpt><trkpt lat="44.7817567" lon="8.1377067"><ele>136.0</ele><time>2026-04-12T08:09:22.061Z</time></trkpt><trkpt lat="44.7817" lon="8.1376667"><ele>135.99999999999997</ele><time>2026-04-12T08:09:23.063Z</time></trkpt><trkpt lat="44.7816417" lon="8.1376283"><ele>136.0</ele><time>2026-04-12T08:09:24.065Z</time></trkpt><trkpt lat="44.78153" lon="8.1375483"><ele>136.16666666666669</ele><time>2026-04-12T08:09:26.062Z</time></trkpt><trkpt lat="44.7814167" lon="8.13747"><ele>136.33333333333334</ele><time>2026-04-12T08:09:28.063Z</time></trkpt><trkpt lat="44.7813567" lon="8.13743"><ele>136.5</ele><time>2026-04-12T08:09:29.061Z</time></trkpt><trkpt lat="44.7813" lon="8.137385"><ele>136.66666666666666</ele><time>2026-04-12T08:09:30.065Z</time></trkpt><trkpt lat="44.781245" lon="8.137335"><ele>136.83333333333331</ele><time>2026-04-12T08:09:31.067Z</time></trkpt><trkpt lat="44.7811933" lon="8.13728"><ele>137.0</ele><time>2026-04-12T08:09:32.065Z</time></trkpt><trkpt lat="44.7811083" lon="8.13715"><ele>136.71428571428572</ele><time>2026-04-12T08:09:34.065Z</time></trkpt><trkpt lat="44.7810717" lon="8.1370717"><ele>136.42857142857144</ele><time>2026-04-12T08:09:35.061Z</time></trkpt><trkpt lat="44.781045" lon="8.13699"><ele>136.14285714285714</ele><time>2026-04-12T08:09:36.06Z</time></trkpt><trkpt lat="44.7810317" lon="8.1369017"><ele>135.85714285714286</ele><time>2026-04-12T08:09:37.059Z</time></trkpt><trkpt lat="44.7810167" lon="8.1368117"><ele>135.57142857142856</ele><time>2026-04-12T08:09:38.063Z</time></trkpt><trkpt lat="44.7810033" lon="8.13672"><ele>135.28571428571428</ele><time>2026-04-12T08:09:39.063Z</time></trkpt><trkpt lat="44.7809933" lon="8.136625"><ele>135.0</ele><time>2026-04-12T08:09:40.066Z</time></trkpt><trkpt lat="44.7809833" lon="8.1365283"><ele>136.0</ele><time>2026-04-12T08:09:41.062Z</time></trkpt><trkpt lat="44.7809733" lon="8.1364317"><ele>137.0</ele><time>2026-04-12T08:09:42.063Z</time></trkpt><trkpt lat="44.7809633" lon="8.136335"><ele>138.0</ele><time>2026-04-12T08:09:43.062Z</time></trkpt><trkpt lat="44.7809517" lon="8.1362383"><ele>139.0</ele><time>2026-04-12T08:09:44.063Z</time></trkpt><trkpt lat="44.78094" lon="8.1361433"><ele>140.0</ele><time>2026-04-12T08:09:45.065Z</time></trkpt><trkpt lat="44.78093" lon="8.13605"><ele>141.0</ele><time>2026-04-12T08:09:46.062Z</time></trkpt><trkpt lat="44.78092" lon="8.1359567"><ele>142.0</ele><time>2026-04-12T08:09:47.061Z</time></trkpt><trkpt lat="44.7809067" lon="8.1358633"><ele>142.0</ele><time>2026-04-12T08:09:48.065Z</time></trkpt><trkpt lat="44.7808933" lon="8.13577"><ele>142.0</ele><time>2026-04-12T08:09:49.064Z</time></trkpt><trkpt lat="44.7808817" lon="8.1356767"><ele>142.0</ele><time>2026-04-12T08:09:50.063Z</time></trkpt><trkpt lat="44.7808683" lon="8.1355867"><ele>142.0</ele><time>2026-04-12T08:09:51.063Z</time></trkpt><trkpt lat="44.7808567" lon="8.135495"><ele>142.0</ele><time>2026-04-12T08:09:52.062Z</time></trkpt><trkpt lat="44.780845" lon="8.135405"><ele>142.0</ele><time>2026-04-12T08:09:53.063Z</time></trkpt><trkpt lat="44.7808333" lon="8.135315"><ele>142.0</ele><time>2026-04-12T08:09:54.067Z</time></trkpt><trkpt lat="44.7808217" lon="8.1352233"><ele>141.71428571428572</ele><time>2026-04-12T08:09:55.062Z</time></trkpt><trkpt lat="44.7808117" lon="8.1351317"><ele>141.42857142857142</ele><time>2026-04-12T08:09:56.065Z</time></trkpt><trkpt lat="44.7808" lon="8.13504"><ele>141.14285714285714</ele><time>2026-04-12T08:09:57.065Z</time></trkpt><trkpt lat="44.7807883" lon="8.1349517"><ele>140.85714285714286</ele><time>2026-04-12T08:09:58.064Z</time></trkpt><trkpt lat="44.780775" lon="8.1348617"><ele>140.57142857142856</ele><time>2026-04-12T08:09:59.068Z</time></trkpt><trkpt lat="44.7807617" lon="8.13477"><ele>140.28571428571428</ele><time>2026-04-12T08:10:00.065Z</time></trkpt><trkpt lat="44.7807483" lon="8.1346767"><ele>140.0</ele><time>2026-04-12T08:10:01.063Z</time></trkpt><trkpt lat="44.7807383" lon="8.1345833"><ele>139.85714285714286</ele><time>2026-04-12T08:10:02.063Z</time></trkpt><trkpt lat="44.780725" lon="8.1344883"><ele>139.71428571428572</ele><time>2026-04-12T08:10:03.065Z</time></trkpt><trkpt lat="44.7807133" lon="8.134395"><ele>139.57142857142856</ele><time>2026-04-12T08:10:04.063Z</time></trkpt><trkpt lat="44.7807" lon="8.1343033"><ele>139.42857142857144</ele><time>2026-04-12T08:10:05.063Z</time></trkpt><trkpt lat="44.78069" lon="8.1342117"><ele>139.28571428571428</ele><time>2026-04-12T08:10:06.061Z</time></trkpt><trkpt lat="44.7806783" lon="8.1341183"><ele>139.14285714285714</ele><time>2026-04-12T08:10:07.063Z</time></trkpt><trkpt lat="44.7806683" lon="8.1340267"><ele>139.0</ele><time>2026-04-12T08:10:08.062Z</time></trkpt><trkpt lat="44.7806583" lon="8.1339367"><ele>138.71428571428572</ele><time>2026-04-12T08:10:09.064Z</time></trkpt><trkpt lat="44.7806483" lon="8.1338467"><ele>138.42857142857144</ele><time>2026-04-12T08:10:10.066Z</time></trkpt><trkpt lat="44.7806367" lon="8.133755"><ele>138.14285714285717</ele><time>2026-04-12T08:10:11.062Z</time></trkpt><trkpt lat="44.7806233" lon="8.133665"><ele>137.85714285714286</ele><time>2026-04-12T08:10:12.065Z</time></trkpt><trkpt lat="44.7806117" lon="8.133575"><ele>137.57142857142858</ele><time>2026-04-12T08:10:13.065Z</time></trkpt><trkpt lat="44.7806017" lon="8.133485"><ele>137.2857142857143</ele><time>2026-04-12T08:10:14.062Z</time></trkpt><trkpt lat="44.78059" lon="8.133395"><ele>137.0</ele><time>2026-04-12T08:10:15.063Z</time></trkpt><trkpt lat="44.780565" lon="8.13322"><ele>136.83333333333331</ele><time>2026-04-12T08:10:17.059Z</time></trkpt><trkpt lat="44.7805517" lon="8.13313"><ele>136.66666666666666</ele><time>2026-04-12T08:10:18.062Z</time></trkpt><trkpt lat="44.78054" lon="8.1330383"><ele>136.5</ele><time>2026-04-12T08:10:19.061Z</time></trkpt><trkpt lat="44.78053" lon="8.1329483"><ele>136.33333333333334</ele><time>2026-04-12T08:10:20.063Z</time></trkpt><trkpt lat="44.78052" lon="8.13286"><ele>136.16666666666669</ele><time>2026-04-12T08:10:21.066Z</time></trkpt><trkpt lat="44.7804967" lon="8.132685"><ele>136.0</ele><time>2026-04-12T08:10:23.062Z</time></trkpt><trkpt lat="44.7804783" lon="8.1325117"><ele>136.0</ele><time>2026-04-12T08:10:25.064Z</time></trkpt><trkpt lat="44.7804683" lon="8.1324217"><ele>136.0</ele><time>2026-04-12T08:10:26.063Z</time></trkpt><trkpt lat="44.7804583" lon="8.1323317"><ele>136.0</ele><time>2026-04-12T08:10:27.061Z</time></trkpt><trkpt lat="44.7804467" lon="8.1322433"><ele>136.0</ele><time>2026-04-12T08:10:28.064Z</time></trkpt><trkpt lat="44.7804217" lon="8.13208"><ele>136.0</ele><time>2026-04-12T08:10:30.064Z</time></trkpt><trkpt lat="44.7804017" lon="8.1319183"><ele>136.0</ele><time>2026-04-12T08:10:32.066Z</time></trkpt><trkpt lat="44.7803783" lon="8.13175"><ele>135.99999999999997</ele><time>2026-04-12T08:10:34.06Z</time></trkpt><trkpt lat="44.7803683" lon="8.1316617"><ele>136.0</ele><time>2026-04-12T08:10:35.061Z</time></trkpt><trkpt lat="44.7803583" lon="8.1315717"><ele>136.0</ele><time>2026-04-12T08:10:36.065Z</time></trkpt><trkpt lat="44.7803483" lon="8.1314817"><ele>136.0</ele><time>2026-04-12T08:10:37.063Z</time></trkpt><trkpt lat="44.7803417" lon="8.1313917"><ele>136.0</ele><time>2026-04-12T08:10:38.061Z</time></trkpt><trkpt lat="44.7803383" lon="8.1312983"><ele>135.99999999999997</ele><time>2026-04-12T08:10:39.063Z</time></trkpt><trkpt lat="44.7803367" lon="8.131205"><ele>136.0</ele><time>2026-04-12T08:10:40.062Z</time></trkpt><trkpt lat="44.7803367" lon="8.1311133"><ele>136.0</ele><time>2026-04-12T08:10:41.063Z</time></trkpt><trkpt lat="44.7803383" lon="8.13102"><ele>136.0</ele><time>2026-04-12T08:10:42.066Z</time></trkpt><trkpt lat="44.7803417" lon="8.1309283"><ele>136.0</ele><time>2026-04-12T08:10:43.061Z</time></trkpt><trkpt lat="44.780345" lon="8.1308383"><ele>136.0</ele><time>2026-04-12T08:10:44.071Z</time></trkpt><trkpt lat="44.7803517" lon="8.13075"><ele>136.0</ele><time>2026-04-12T08:10:45.062Z</time></trkpt><trkpt lat="44.7803717" lon="8.13058"><ele>136.0</ele><time>2026-04-12T08:10:47.068Z</time></trkpt><trkpt lat="44.7803983" lon="8.1304167"><ele>136.0</ele><time>2026-04-12T08:10:49.064Z</time></trkpt><trkpt lat="44.7804367" lon="8.1302517"><ele>136.0</ele><time>2026-04-12T08:10:51.064Z</time></trkpt><trkpt lat="44.7804983" lon="8.1301"><ele>136.0</ele><time>2026-04-12T08:10:53.062Z</time></trkpt><trkpt lat="44.7805367" lon="8.1300267"><ele>136.0</ele><time>2026-04-12T08:10:54.061Z</time></trkpt><trkpt lat="44.7805767" lon="8.1298683"><ele>136.0</ele><time>2026-04-12T08:10:56.063Z</time></trkpt><trkpt lat="44.7805483" lon="8.1297033"><ele>136.7142857142857</ele><time>2026-04-12T08:10:58.063Z</time></trkpt><trkpt lat="44.78051" lon="8.1296267"><ele>137.42857142857142</ele><time>2026-04-12T08:10:59.066Z</time></trkpt><trkpt lat="44.7804667" lon="8.129555"><ele>138.14285714285714</ele><time>2026-04-12T08:11:00.061Z</time></trkpt><trkpt lat="44.7804183" lon="8.1294867"><ele>138.85714285714283</ele><time>2026-04-12T08:11:01.064Z</time></trkpt><trkpt lat="44.7803667" lon="8.1294233"><ele>139.57142857142856</ele><time>2026-04-12T08:11:02.066Z</time></trkpt><trkpt lat="44.7803133" lon="8.129365"><ele>140.28571428571428</ele><time>2026-04-12T08:11:03.062Z</time></trkpt><trkpt lat="44.78026" lon="8.1293083"><ele>141.0</ele><time>2026-04-12T08:11:04.059Z</time></trkpt><trkpt lat="44.780205" lon="8.1292533"><ele>140.85714285714286</ele><time>2026-04-12T08:11:05.06Z</time></trkpt><trkpt lat="44.780145" lon="8.129205"><ele>140.71428571428572</ele><time>2026-04-12T08:11:06.062Z</time></trkpt><trkpt lat="44.7800833" lon="8.1291617"><ele>140.57142857142856</ele><time>2026-04-12T08:11:07.065Z</time></trkpt><trkpt lat="44.78002" lon="8.1291267"><ele>140.42857142857144</ele><time>2026-04-12T08:11:08.063Z</time></trkpt><trkpt lat="44.779955" lon="8.1291"><ele>140.28571428571428</ele><time>2026-04-12T08:11:09.063Z</time></trkpt><trkpt lat="44.77989" lon="8.1290783"><ele>140.14285714285714</ele><time>2026-04-12T08:11:10.065Z</time></trkpt><trkpt lat="44.779825" lon="8.129055"><ele>140.0</ele><time>2026-04-12T08:11:11.06Z</time></trkpt><trkpt lat="44.7797633" lon="8.12903"><ele>140.0</ele><time>2026-04-12T08:11:12.061Z</time></trkpt><trkpt lat="44.7797033" lon="8.129"><ele>140.0</ele><time>2026-04-12T08:11:13.065Z</time></trkpt><trkpt lat="44.7795833" lon="8.12894"><ele>140.0</ele><time>2026-04-12T08:11:15.064Z</time></trkpt><trkpt lat="44.77952" lon="8.12891"><ele>140.0</ele><time>2026-04-12T08:11:16.063Z</time></trkpt><trkpt lat="44.7794583" lon="8.1288817"><ele>140.0</ele><time>2026-04-12T08:11:17.063Z</time></trkpt><trkpt lat="44.7793983" lon="8.1288517"><ele>140.0</ele><time>2026-04-12T08:11:18.063Z</time></trkpt><trkpt lat="44.7792833" lon="8.1287933"><ele>139.5</ele><time>2026-04-12T08:11:20.062Z</time></trkpt><trkpt lat="44.7791717" lon="8.1287333"><ele>139.0</ele><time>2026-04-12T08:11:22.061Z</time></trkpt><trkpt lat="44.779055" lon="8.1286767"><ele>138.5</ele><time>2026-04-12T08:11:24.067Z</time></trkpt><trkpt lat="44.7789383" lon="8.12862"><ele>138.0</ele><time>2026-04-12T08:11:26.065Z</time></trkpt><trkpt lat="44.778825" lon="8.1285667"><ele>138.0</ele><time>2026-04-12T08:11:28.063Z</time></trkpt><trkpt lat="44.77872" lon="8.1285067"><ele>138.0</ele><time>2026-04-12T08:11:30.066Z</time></trkpt><trkpt lat="44.7786283" lon="8.1284367"><ele>138.0</ele><time>2026-04-12T08:11:32.062Z</time></trkpt><trkpt lat="44.778535" lon="8.1283533"><ele>138.0</ele><time>2026-04-12T08:11:34.065Z</time></trkpt><trkpt lat="44.7784783" lon="8.1283083"><ele>138.0</ele><time>2026-04-12T08:11:35.065Z</time></trkpt><trkpt lat="44.778415" lon="8.1282733"><ele>138.0</ele><time>2026-04-12T08:11:36.066Z</time></trkpt><trkpt lat="44.7783483" lon="8.1282433"><ele>138.0</ele><time>2026-04-12T08:11:37.067Z</time></trkpt><trkpt lat="44.77828" lon="8.1282117"><ele>138.0</ele><time>2026-04-12T08:11:38.069Z</time></trkpt><trkpt lat="44.77821" lon="8.1281833"><ele>138.0</ele><time>2026-04-12T08:11:39.064Z</time></trkpt><trkpt lat="44.7781417" lon="8.128165"><ele>138.0</ele><time>2026-04-12T08:11:40.065Z</time></trkpt><trkpt lat="44.7780767" lon="8.1281467"><ele>138.0</ele><time>2026-04-12T08:11:41.061Z</time></trkpt><trkpt lat="44.7779567" lon="8.12811"><ele>138.0</ele><time>2026-04-12T08:11:43.069Z</time></trkpt><trkpt lat="44.7778417" lon="8.1280733"><ele>138.0</ele><time>2026-04-12T08:11:45.064Z</time></trkpt><trkpt lat="44.7777283" lon="8.1280383"><ele>138.0</ele><time>2026-04-12T08:11:47.062Z</time></trkpt><trkpt lat="44.7776133" lon="8.1280267"><ele>138.0</ele><time>2026-04-12T08:11:49.065Z</time></trkpt><trkpt lat="44.7774917" lon="8.1280433"><ele>138.0</ele><time>2026-04-12T08:11:51.073Z</time></trkpt><trkpt lat="44.77737" lon="8.1280667"><ele>138.0</ele><time>2026-04-12T08:11:53.065Z</time></trkpt><trkpt lat="44.77725" lon="8.1280933"><ele>138.0</ele><time>2026-04-12T08:11:55.067Z</time></trkpt><trkpt lat="44.77713" lon="8.1281233"><ele>138.0</ele><time>2026-04-12T08:11:57.063Z</time></trkpt><trkpt lat="44.7770183" lon="8.128145"><ele>138.0</ele><time>2026-04-12T08:11:59.063Z</time></trkpt><trkpt lat="44.7769117" lon="8.1281783"><ele>138.0</ele><time>2026-04-12T08:12:01.066Z</time></trkpt><trkpt lat="44.77681" lon="8.1282"><ele>138.0</ele><time>2026-04-12T08:12:03.068Z</time></trkpt><trkpt lat="44.7767033" lon="8.12823"><ele>138.0</ele><time>2026-04-12T08:12:05.063Z</time></trkpt><trkpt lat="44.7766417" lon="8.1282533"><ele>138.0</ele><time>2026-04-12T08:12:06.067Z</time></trkpt><trkpt lat="44.7765267" lon="8.1282783"><ele>138.25</ele><time>2026-04-12T08:12:08.066Z</time></trkpt><trkpt lat="44.7764133" lon="8.128265"><ele>138.5</ele><time>2026-04-12T08:12:10.065Z</time></trkpt><trkpt lat="44.7762983" lon="8.1282283"><ele>138.75</ele><time>2026-04-12T08:12:12.061Z</time></trkpt><trkpt lat="44.7761867" lon="8.1281733"><ele>139.0</ele><time>2026-04-12T08:12:14.065Z</time></trkpt><trkpt lat="44.7760817" lon="8.1280983"><ele>138.75</ele><time>2026-04-12T08:12:16.069Z</time></trkpt><trkpt lat="44.7759783" lon="8.1280133"><ele>138.5</ele><time>2026-04-12T08:12:18.069Z</time></trkpt><trkpt lat="44.77588" lon="8.1279183"><ele>138.25</ele><time>2026-04-12T08:12:20.062Z</time></trkpt><trkpt lat="44.77578" lon="8.1278217"><ele>138.0</ele><time>2026-04-12T08:12:22.062Z</time></trkpt><trkpt lat="44.7756767" lon="8.127725"><ele>138.0</ele><time>2026-04-12T08:12:24.062Z</time></trkpt><trkpt lat="44.7755767" lon="8.12763"><ele>138.0</ele><time>2026-04-12T08:12:26.061Z</time></trkpt><trkpt lat="44.775475" lon="8.127535"><ele>138.0</ele><time>2026-04-12T08:12:28.062Z</time></trkpt><trkpt lat="44.77537" lon="8.1274383"><ele>138.0</ele><time>2026-04-12T08:12:30.065Z</time></trkpt><trkpt lat="44.7752633" lon="8.1273483"><ele>138.0</ele><time>2026-04-12T08:12:32.063Z</time></trkpt><trkpt lat="44.7751583" lon="8.1272467"><ele>138.0</ele><time>2026-04-12T08:12:34.06Z</time></trkpt><trkpt lat="44.775055" lon="8.1271467"><ele>138.0</ele><time>2026-04-12T08:12:36.066Z</time></trkpt><trkpt lat="44.7750017" lon="8.1270983"><ele>138.0</ele><time>2026-04-12T08:12:37.062Z</time></trkpt><trkpt lat="44.7748983" lon="8.127"><ele>138.0</ele><time>2026-04-12T08:12:39.064Z</time></trkpt><trkpt lat="44.774845" lon="8.12695"><ele>138.0</ele><time>2026-04-12T08:12:40.064Z</time></trkpt><trkpt lat="44.7747917" lon="8.1269"><ele>138.0</ele><time>2026-04-12T08:12:41.063Z</time></trkpt><trkpt lat="44.7747383" lon="8.1268483"><ele>138.0</ele><time>2026-04-12T08:12:42.06Z</time></trkpt><trkpt lat="44.774685" lon="8.1267983"><ele>138.0</ele><time>2026-04-12T08:12:43.062Z</time></trkpt><trkpt lat="44.7746333" lon="8.126745"><ele>138.0</ele><time>2026-04-12T08:12:44.063Z</time></trkpt><trkpt lat="44.77458" lon="8.126695"><ele>138.0</ele><time>2026-04-12T08:12:45.064Z</time></trkpt><trkpt lat="44.774475" lon="8.1265967"><ele>138.0</ele><time>2026-04-12T08:12:47.064Z</time></trkpt><trkpt lat="44.7743717" lon="8.1265"><ele>137.66666666666666</ele><time>2026-04-12T08:12:49.063Z</time></trkpt><trkpt lat="44.7742683" lon="8.1264017"><ele>137.33333333333334</ele><time>2026-04-12T08:12:51.064Z</time></trkpt><trkpt lat="44.7741633" lon="8.1263033"><ele>137.0</ele><time>2026-04-12T08:12:53.063Z</time></trkpt><trkpt lat="44.7741083" lon="8.126255"><ele>136.66666666666669</ele><time>2026-04-12T08:12:54.064Z</time></trkpt><trkpt lat="44.7740533" lon="8.126205"><ele>136.33333333333334</ele><time>2026-04-12T08:12:55.066Z</time></trkpt><trkpt lat="44.7739983" lon="8.1261533"><ele>136.0</ele><time>2026-04-12T08:12:56.067Z</time></trkpt><trkpt lat="44.7738967" lon="8.126055"><ele>136.0</ele><time>2026-04-12T08:12:58.067Z</time></trkpt><trkpt lat="44.7738017" lon="8.1259667"><ele>136.0</ele><time>2026-04-12T08:13:00.063Z</time></trkpt><trkpt lat="44.7737267" lon="8.125885"><ele>136.0</ele><time>2026-04-12T08:13:02.059Z</time></trkpt><trkpt lat="44.773685" lon="8.1257783"><ele>136.0</ele><time>2026-04-12T08:13:04.061Z</time></trkpt><trkpt lat="44.7736333" lon="8.1256283"><ele>136.0</ele><time>2026-04-12T08:13:06.063Z</time></trkpt><trkpt lat="44.7735917" lon="8.1255533"><ele>136.14285714285714</ele><time>2026-04-12T08:13:07.062Z</time></trkpt><trkpt lat="44.7735433" lon="8.125475"><ele>136.28571428571428</ele><time>2026-04-12T08:13:08.066Z</time></trkpt><trkpt lat="44.7734917" lon="8.1254"><ele>136.42857142857144</ele><time>2026-04-12T08:13:09.066Z</time></trkpt><trkpt lat="44.773445" lon="8.12533"><ele>136.57142857142856</ele><time>2026-04-12T08:13:10.063Z</time></trkpt><trkpt lat="44.7733967" lon="8.1252617"><ele>136.71428571428572</ele><time>2026-04-12T08:13:11.061Z</time></trkpt><trkpt lat="44.77335" lon="8.1251933"><ele>136.85714285714286</ele><time>2026-04-12T08:13:12.061Z</time></trkpt><trkpt lat="44.7733033" lon="8.1251217"><ele>137.0</ele><time>2026-04-12T08:13:13.061Z</time></trkpt><trkpt lat="44.7732567" lon="8.1250517"><ele>137.00000000000003</ele><time>2026-04-12T08:13:14.065Z</time></trkpt><trkpt lat="44.7732117" lon="8.1249817"><ele>137.0</ele><time>2026-04-12T08:13:15.064Z</time></trkpt><trkpt lat="44.7731633" lon="8.1249117"><ele>137.0</ele><time>2026-04-12T08:13:16.063Z</time></trkpt><trkpt lat="44.7731167" lon="8.1248417"><ele>137.0</ele><time>2026-04-12T08:13:17.065Z</time></trkpt><trkpt lat="44.7730667" lon="8.124775"><ele>137.0</ele><time>2026-04-12T08:13:18.062Z</time></trkpt><trkpt lat="44.77302" lon="8.1247083"><ele>137.00000000000003</ele><time>2026-04-12T08:13:19.064Z</time></trkpt><trkpt lat="44.7729717" lon="8.1246417"><ele>137.0</ele><time>2026-04-12T08:13:20.063Z</time></trkpt><trkpt lat="44.7729217" lon="8.124575"><ele>137.00000000000003</ele><time>2026-04-12T08:13:21.063Z</time></trkpt><trkpt lat="44.77287" lon="8.12451"><ele>137.0</ele><time>2026-04-12T08:13:22.064Z</time></trkpt><trkpt lat="44.77282" lon="8.1244433"><ele>137.0</ele><time>2026-04-12T08:13:23.061Z</time></trkpt><trkpt lat="44.7727667" lon="8.12438"><ele>137.0</ele><time>2026-04-12T08:13:24.065Z</time></trkpt><trkpt lat="44.7727117" lon="8.1243183"><ele>137.0</ele><time>2026-04-12T08:13:25.062Z</time></trkpt><trkpt lat="44.7726583" lon="8.124255"><ele>137.00000000000003</ele><time>2026-04-12T08:13:26.064Z</time></trkpt><trkpt lat="44.772605" lon="8.1241933"><ele>137.0</ele><time>2026-04-12T08:13:27.064Z</time></trkpt><trkpt lat="44.7725517" lon="8.1241383"><ele>137.14285714285717</ele><time>2026-04-12T08:13:28.066Z</time></trkpt><trkpt lat="44.772495" lon="8.1240867"><ele>137.28571428571428</ele><time>2026-04-12T08:13:29.062Z</time></trkpt><trkpt lat="44.772435" lon="8.1240383"><ele>137.42857142857144</ele><time>2026-04-12T08:13:30.064Z</time></trkpt><trkpt lat="44.7723767" lon="8.1239967"><ele>137.57142857142858</ele><time>2026-04-12T08:13:31.062Z</time></trkpt><trkpt lat="44.7723183" lon="8.1239567"><ele>137.71428571428572</ele><time>2026-04-12T08:13:32.063Z</time></trkpt><trkpt lat="44.7722617" lon="8.123915"><ele>137.85714285714286</ele><time>2026-04-12T08:13:33.067Z</time></trkpt><trkpt lat="44.7722067" lon="8.1238667"><ele>138.0</ele><time>2026-04-12T08:13:34.06Z</time></trkpt><trkpt lat="44.7721517" lon="8.1238117"><ele>138.14285714285714</ele><time>2026-04-12T08:13:35.064Z</time></trkpt><trkpt lat="44.7720983" lon="8.12375"><ele>138.2857142857143</ele><time>2026-04-12T08:13:36.067Z</time></trkpt><trkpt lat="44.7720467" lon="8.1236883"><ele>138.42857142857144</ele><time>2026-04-12T08:13:37.063Z</time></trkpt><trkpt lat="44.771995" lon="8.12363"><ele>138.57142857142858</ele><time>2026-04-12T08:13:38.063Z</time></trkpt><trkpt lat="44.7719433" lon="8.1235733"><ele>138.71428571428572</ele><time>2026-04-12T08:13:39.062Z</time></trkpt><trkpt lat="44.77189" lon="8.12352"><ele>138.85714285714286</ele><time>2026-04-12T08:13:40.064Z</time></trkpt><trkpt lat="44.7718367" lon="8.1234683"><ele>139.0</ele><time>2026-04-12T08:13:41.063Z</time></trkpt><trkpt lat="44.7717833" lon="8.1234117"><ele>139.28571428571428</ele><time>2026-04-12T08:13:42.062Z</time></trkpt><trkpt lat="44.77173" lon="8.123355"><ele>139.57142857142858</ele><time>2026-04-12T08:13:43.062Z</time></trkpt><trkpt lat="44.77168" lon="8.123295"><ele>139.85714285714286</ele><time>2026-04-12T08:13:44.067Z</time></trkpt><trkpt lat="44.7716283" lon="8.123235"><ele>140.14285714285714</ele><time>2026-04-12T08:13:45.065Z</time></trkpt><trkpt lat="44.7715767" lon="8.1231717"><ele>140.42857142857142</ele><time>2026-04-12T08:13:46.065Z</time></trkpt><trkpt lat="44.771525" lon="8.12311"><ele>140.71428571428572</ele><time>2026-04-12T08:13:47.066Z</time></trkpt><trkpt lat="44.7714717" lon="8.1230517"><ele>141.0</ele><time>2026-04-12T08:13:48.063Z</time></trkpt><trkpt lat="44.77142" lon="8.1229917"><ele>141.0</ele><time>2026-04-12T08:13:49.061Z</time></trkpt><trkpt lat="44.7713667" lon="8.1229317"><ele>141.0</ele><time>2026-04-12T08:13:50.069Z</time></trkpt><trkpt lat="44.7713133" lon="8.1228717"><ele>141.0</ele><time>2026-04-12T08:13:51.07Z</time></trkpt><trkpt lat="44.771265" lon="8.12281"><ele>141.0</ele><time>2026-04-12T08:13:52.066Z</time></trkpt><trkpt lat="44.7712183" lon="8.1227417"><ele>141.0</ele><time>2026-04-12T08:13:53.061Z</time></trkpt><trkpt lat="44.77117" lon="8.1226767"><ele>141.0</ele><time>2026-04-12T08:13:54.062Z</time></trkpt><trkpt lat="44.7711217" lon="8.1226167"><ele>141.0</ele><time>2026-04-12T08:13:55.063Z</time></trkpt><trkpt lat="44.7710717" lon="8.12256"><ele>140.83333333333334</ele><time>2026-04-12T08:13:56.065Z</time></trkpt><trkpt lat="44.7710217" lon="8.1225033"><ele>140.66666666666666</ele><time>2026-04-12T08:13:57.068Z</time></trkpt><trkpt lat="44.7709217" lon="8.1223967"><ele>140.5</ele><time>2026-04-12T08:13:59.067Z</time></trkpt><trkpt lat="44.7708717" lon="8.1223383"><ele>140.33333333333331</ele><time>2026-04-12T08:14:00.064Z</time></trkpt><trkpt lat="44.77082" lon="8.12228"><ele>140.16666666666666</ele><time>2026-04-12T08:14:01.066Z</time></trkpt><trkpt lat="44.7707667" lon="8.12222"><ele>140.0</ele><time>2026-04-12T08:14:02.063Z</time></trkpt><trkpt lat="44.770715" lon="8.1221617"><ele>139.83333333333331</ele><time>2026-04-12T08:14:03.062Z</time></trkpt><trkpt lat="44.7706617" lon="8.1221033"><ele>139.66666666666666</ele><time>2026-04-12T08:14:04.062Z</time></trkpt><trkpt lat="44.77061" lon="8.1220467"><ele>139.5</ele><time>2026-04-12T08:14:05.061Z</time></trkpt><trkpt lat="44.77056" lon="8.12199"><ele>139.33333333333334</ele><time>2026-04-12T08:14:06.065Z</time></trkpt><trkpt lat="44.7704633" lon="8.121875"><ele>139.16666666666669</ele><time>2026-04-12T08:14:08.067Z</time></trkpt><trkpt lat="44.770415" lon="8.1218167"><ele>139.0</ele><time>2026-04-12T08:14:09.064Z</time></trkpt><trkpt lat="44.7703233" lon="8.121705"><ele>139.0</ele><time>2026-04-12T08:14:11.063Z</time></trkpt><trkpt lat="44.770275" lon="8.121645"><ele>139.0</ele><time>2026-04-12T08:14:12.06Z</time></trkpt><trkpt lat="44.7702233" lon="8.1215867"><ele>139.0</ele><time>2026-04-12T08:14:13.064Z</time></trkpt><trkpt lat="44.7701733" lon="8.121525"><ele>139.0</ele><time>2026-04-12T08:14:14.064Z</time></trkpt><trkpt lat="44.7701217" lon="8.1214683"><ele>139.0</ele><time>2026-04-12T08:14:15.063Z</time></trkpt><trkpt lat="44.7700717" lon="8.1214117"><ele>139.0</ele><time>2026-04-12T08:14:16.062Z</time></trkpt><trkpt lat="44.76997" lon="8.1213"><ele>139.16666666666669</ele><time>2026-04-12T08:14:18.064Z</time></trkpt><trkpt lat="44.7699183" lon="8.1212417"><ele>139.33333333333334</ele><time>2026-04-12T08:14:19.067Z</time></trkpt><trkpt lat="44.769865" lon="8.1211867"><ele>139.5</ele><time>2026-04-12T08:14:20.065Z</time></trkpt><trkpt lat="44.76981" lon="8.12113"><ele>139.66666666666666</ele><time>2026-04-12T08:14:21.06Z</time></trkpt><trkpt lat="44.7697567" lon="8.1210717"><ele>139.83333333333331</ele><time>2026-04-12T08:14:22.06Z</time></trkpt><trkpt lat="44.7697033" lon="8.1210183"><ele>140.0</ele><time>2026-04-12T08:14:23.063Z</time></trkpt><trkpt lat="44.7696017" lon="8.120905"><ele>140.0</ele><time>2026-04-12T08:14:25.07Z</time></trkpt><trkpt lat="44.76955" lon="8.12085"><ele>140.0</ele><time>2026-04-12T08:14:26.059Z</time></trkpt><trkpt lat="44.7694983" lon="8.1207933"><ele>140.0</ele><time>2026-04-12T08:14:27.068Z</time></trkpt><trkpt lat="44.7694483" lon="8.1207367"><ele>140.0</ele><time>2026-04-12T08:14:28.064Z</time></trkpt><trkpt lat="44.7693983" lon="8.12068"><ele>140.0</ele><time>2026-04-12T08:14:29.064Z</time></trkpt><trkpt lat="44.7693" lon="8.120565"><ele>140.0</ele><time>2026-04-12T08:14:31.065Z</time></trkpt><trkpt lat="44.7692483" lon="8.12051"><ele>140.0</ele><time>2026-04-12T08:14:32.062Z</time></trkpt><trkpt lat="44.7691967" lon="8.12045"><ele>140.0</ele><time>2026-04-12T08:14:33.062Z</time></trkpt><trkpt lat="44.7691467" lon="8.12039"><ele>140.0</ele><time>2026-04-12T08:14:34.062Z</time></trkpt><trkpt lat="44.7690967" lon="8.1203333"><ele>140.0</ele><time>2026-04-12T08:14:35.062Z</time></trkpt><trkpt lat="44.7689983" lon="8.1202167"><ele>140.0</ele><time>2026-04-12T08:14:37.062Z</time></trkpt><trkpt lat="44.76895" lon="8.1201583"><ele>140.0</ele><time>2026-04-12T08:14:38.063Z</time></trkpt><trkpt lat="44.7689" lon="8.1201017"><ele>140.0</ele><time>2026-04-12T08:14:39.064Z</time></trkpt><trkpt lat="44.76885" lon="8.120045"><ele>140.0</ele><time>2026-04-12T08:14:40.066Z</time></trkpt><trkpt lat="44.7688033" lon="8.119985"><ele>140.0</ele><time>2026-04-12T08:14:41.062Z</time></trkpt><trkpt lat="44.768705" lon="8.119875"><ele>140.0</ele><time>2026-04-12T08:14:43.066Z</time></trkpt><trkpt lat="44.7686033" lon="8.1197683"><ele>140.0</ele><time>2026-04-12T08:14:45.065Z</time></trkpt><trkpt lat="44.76855" lon="8.119715"><ele>140.0</ele><time>2026-04-12T08:14:46.064Z</time></trkpt><trkpt lat="44.7684983" lon="8.1196583"><ele>140.0</ele><time>2026-04-12T08:14:47.062Z</time></trkpt><trkpt lat="44.7684483" lon="8.1196033"><ele>140.0</ele><time>2026-04-12T08:14:48.063Z</time></trkpt><trkpt lat="44.768395" lon="8.1195483"><ele>140.0</ele><time>2026-04-12T08:14:49.062Z</time></trkpt><trkpt lat="44.7683433" lon="8.1194933"><ele>140.0</ele><time>2026-04-12T08:14:50.064Z</time></trkpt><trkpt lat="44.7682917" lon="8.1194383"><ele>140.0</ele><time>2026-04-12T08:14:51.063Z</time></trkpt><trkpt lat="44.7682383" lon="8.11938"><ele>140.0</ele><time>2026-04-12T08:14:52.067Z</time></trkpt><trkpt lat="44.768185" lon="8.119325"><ele>140.0</ele><time>2026-04-12T08:14:53.063Z</time></trkpt><trkpt lat="44.7681317" lon="8.1192667"><ele>140.0</ele><time>2026-04-12T08:14:54.063Z</time></trkpt><trkpt lat="44.76808" lon="8.1192067"><ele>140.0</ele><time>2026-04-12T08:14:55.064Z</time></trkpt><trkpt lat="44.76803" lon="8.11915"><ele>140.0</ele><time>2026-04-12T08:14:56.063Z</time></trkpt><trkpt lat="44.7679317" lon="8.1190483"><ele>140.0</ele><time>2026-04-12T08:14:58.063Z</time></trkpt><trkpt lat="44.767845" lon="8.1189317"><ele>140.0</ele><time>2026-04-12T08:15:00.064Z</time></trkpt><trkpt lat="44.7677433" lon="8.1188483"><ele>140.0</ele><time>2026-04-12T08:15:02.063Z</time></trkpt><trkpt lat="44.7676217" lon="8.11882"><ele>140.0</ele><time>2026-04-12T08:15:04.063Z</time></trkpt><trkpt lat="44.7674967" lon="8.1187967"><ele>140.0</ele><time>2026-04-12T08:15:06.063Z</time></trkpt><trkpt lat="44.767375" lon="8.1187683"><ele>140.0</ele><time>2026-04-12T08:15:08.066Z</time></trkpt><trkpt lat="44.7672483" lon="8.1187417"><ele>140.0</ele><time>2026-04-12T08:15:10.066Z</time></trkpt><trkpt lat="44.7671817" lon="8.1187333"><ele>140.0</ele><time>2026-04-12T08:15:11.062Z</time></trkpt><trkpt lat="44.767115" lon="8.118725"><ele>140.0</ele><time>2026-04-12T08:15:12.062Z</time></trkpt><trkpt lat="44.76705" lon="8.1187083"><ele>140.0</ele><time>2026-04-12T08:15:13.065Z</time></trkpt><trkpt lat="44.7669867" lon="8.118685"><ele>140.0</ele><time>2026-04-12T08:15:14.064Z</time></trkpt><trkpt lat="44.76692" lon="8.118665"><ele>140.0</ele><time>2026-04-12T08:15:15.061Z</time></trkpt><trkpt lat="44.766855" lon="8.118645"><ele>140.0</ele><time>2026-04-12T08:15:16.061Z</time></trkpt><trkpt lat="44.7667883" lon="8.118625"><ele>140.14285714285714</ele><time>2026-04-12T08:15:17.062Z</time></trkpt><trkpt lat="44.7667217" lon="8.1186067"><ele>140.28571428571428</ele><time>2026-04-12T08:15:18.068Z</time></trkpt><trkpt lat="44.7666567" lon="8.118585"><ele>140.42857142857144</ele><time>2026-04-12T08:15:19.064Z</time></trkpt><trkpt lat="44.76659" lon="8.1185633"><ele>140.57142857142856</ele><time>2026-04-12T08:15:20.059Z</time></trkpt><trkpt lat="44.7665267" lon="8.1185467"><ele>140.71428571428572</ele><time>2026-04-12T08:15:21.065Z</time></trkpt><trkpt lat="44.76646" lon="8.11853"><ele>140.85714285714286</ele><time>2026-04-12T08:15:22.063Z</time></trkpt><trkpt lat="44.7663917" lon="8.1185117"><ele>141.0</ele><time>2026-04-12T08:15:23.061Z</time></trkpt><trkpt lat="44.7663233" lon="8.1184917"><ele>141.0</ele><time>2026-04-12T08:15:24.066Z</time></trkpt><trkpt lat="44.7662583" lon="8.1184717"><ele>141.0</ele><time>2026-04-12T08:15:25.062Z</time></trkpt><trkpt lat="44.7661917" lon="8.1184533"><ele>141.0</ele><time>2026-04-12T08:15:26.062Z</time></trkpt><trkpt lat="44.7661267" lon="8.11844"><ele>141.0</ele><time>2026-04-12T08:15:27.064Z</time></trkpt><trkpt lat="44.7660583" lon="8.1184283"><ele>141.0</ele><time>2026-04-12T08:15:28.062Z</time></trkpt><trkpt lat="44.7659917" lon="8.11842"><ele>141.0</ele><time>2026-04-12T08:15:29.065Z</time></trkpt><trkpt lat="44.765925" lon="8.1184167"><ele>141.0</ele><time>2026-04-12T08:15:30.066Z</time></trkpt><trkpt lat="44.7658583" lon="8.1184167"><ele>141.0</ele><time>2026-04-12T08:15:31.067Z</time></trkpt><trkpt lat="44.7657917" lon="8.1184133"><ele>141.0</ele><time>2026-04-12T08:15:32.065Z</time></trkpt><trkpt lat="44.7657283" lon="8.1183967"><ele>141.0</ele><time>2026-04-12T08:15:33.066Z</time></trkpt><trkpt lat="44.7656667" lon="8.1183733"><ele>141.0</ele><time>2026-04-12T08:15:34.067Z</time></trkpt><trkpt lat="44.76555" lon="8.1183133"><ele>141.0</ele><time>2026-04-12T08:15:36.062Z</time></trkpt><trkpt lat="44.7654433" lon="8.1182333"><ele>141.0</ele><time>2026-04-12T08:15:38.063Z</time></trkpt><trkpt lat="44.7653417" lon="8.1181333"><ele>140.85714285714286</ele><time>2026-04-12T08:15:40.063Z</time></trkpt><trkpt lat="44.7652917" lon="8.1180783"><ele>140.71428571428572</ele><time>2026-04-12T08:15:41.062Z</time></trkpt><trkpt lat="44.7652417" lon="8.1180217"><ele>140.57142857142856</ele><time>2026-04-12T08:15:42.061Z</time></trkpt><trkpt lat="44.7651883" lon="8.1179683"><ele>140.42857142857144</ele><time>2026-04-12T08:15:43.06Z</time></trkpt><trkpt lat="44.765135" lon="8.1179183"><ele>140.28571428571428</ele><time>2026-04-12T08:15:44.063Z</time></trkpt><trkpt lat="44.7650817" lon="8.11787"><ele>140.14285714285714</ele><time>2026-04-12T08:15:45.063Z</time></trkpt><trkpt lat="44.7649783" lon="8.117775"><ele>140.0</ele><time>2026-04-12T08:15:47.065Z</time></trkpt><trkpt lat="44.7648733" lon="8.117685"><ele>140.0</ele><time>2026-04-12T08:15:49.067Z</time></trkpt><trkpt lat="44.7647683" lon="8.1176083"><ele>140.0</ele><time>2026-04-12T08:15:51.063Z</time></trkpt><trkpt lat="44.76467" lon="8.11754"><ele>140.0</ele><time>2026-04-12T08:15:53.064Z</time></trkpt><trkpt lat="44.764565" lon="8.117475"><ele>140.0</ele><time>2026-04-12T08:15:55.065Z</time></trkpt><trkpt lat="44.7644567" lon="8.11742"><ele>140.25</ele><time>2026-04-12T08:15:57.068Z</time></trkpt><trkpt lat="44.7643467" lon="8.1173683"><ele>140.5</ele><time>2026-04-12T08:15:59.061Z</time></trkpt><trkpt lat="44.764235" lon="8.1173183"><ele>140.75</ele><time>2026-04-12T08:16:01.06Z</time></trkpt><trkpt lat="44.7641333" lon="8.117255"><ele>141.0</ele><time>2026-04-12T08:16:03.064Z</time></trkpt><trkpt lat="44.7640517" lon="8.1171483"><ele>141.0</ele><time>2026-04-12T08:16:05.06Z</time></trkpt><trkpt lat="44.7640117" lon="8.117"><ele>141.0</ele><time>2026-04-12T08:16:07.068Z</time></trkpt><trkpt lat="44.7640067" lon="8.116835"><ele>141.0</ele><time>2026-04-12T08:16:09.068Z</time></trkpt><trkpt lat="44.76401" lon="8.1166633"><ele>141.0</ele><time>2026-04-12T08:16:11.063Z</time></trkpt><trkpt lat="44.7640133" lon="8.1165017"><ele>141.0</ele><time>2026-04-12T08:16:13.062Z</time></trkpt><trkpt lat="44.7640067" lon="8.11634"><ele>141.0</ele><time>2026-04-12T08:16:15.064Z</time></trkpt><trkpt lat="44.7639967" lon="8.11618"><ele>141.0</ele><time>2026-04-12T08:16:17.062Z</time></trkpt><trkpt lat="44.7639967" lon="8.1160083"><ele>141.0</ele><time>2026-04-12T08:16:19.065Z</time></trkpt><trkpt lat="44.7639883" lon="8.1158333"><ele>140.75</ele><time>2026-04-12T08:16:21.07Z</time></trkpt><trkpt lat="44.7639817" lon="8.1156583"><ele>140.5</ele><time>2026-04-12T08:16:23.061Z</time></trkpt><trkpt lat="44.763975" lon="8.1154883"><ele>140.25</ele><time>2026-04-12T08:16:25.065Z</time></trkpt><trkpt lat="44.7639683" lon="8.1153217"><ele>140.0</ele><time>2026-04-12T08:16:27.065Z</time></trkpt><trkpt lat="44.7639567" lon="8.1151517"><ele>140.0</ele><time>2026-04-12T08:16:29.065Z</time></trkpt><trkpt lat="44.7639317" lon="8.1149783"><ele>140.0</ele><time>2026-04-12T08:16:31.065Z</time></trkpt><trkpt lat="44.763865" lon="8.114835"><ele>140.0</ele><time>2026-04-12T08:16:33.066Z</time></trkpt><trkpt lat="44.763765" lon="8.1147367"><ele>140.0</ele><time>2026-04-12T08:16:35.061Z</time></trkpt><trkpt lat="44.7636533" lon="8.11467"><ele>140.16666666666666</ele><time>2026-04-12T08:16:37.067Z</time></trkpt><trkpt lat="44.7635433" lon="8.1145933"><ele>140.33333333333331</ele><time>2026-04-12T08:16:39.066Z</time></trkpt><trkpt lat="44.7634867" lon="8.1145517"><ele>140.5</ele><time>2026-04-12T08:16:40.065Z</time></trkpt><trkpt lat="44.76343" lon="8.1145083"><ele>140.66666666666666</ele><time>2026-04-12T08:16:41.063Z</time></trkpt><trkpt lat="44.7633717" lon="8.1144683"><ele>140.83333333333334</ele><time>2026-04-12T08:16:42.063Z</time></trkpt><trkpt lat="44.7632617" lon="8.11439"><ele>141.0</ele><time>2026-04-12T08:16:44.064Z</time></trkpt><trkpt lat="44.7631533" lon="8.1143083"><ele>141.0</ele><time>2026-04-12T08:16:46.063Z</time></trkpt><trkpt lat="44.763095" lon="8.11427"><ele>141.0</ele><time>2026-04-12T08:16:47.063Z</time></trkpt><trkpt lat="44.763035" lon="8.1142317"><ele>141.0</ele><time>2026-04-12T08:16:48.065Z</time></trkpt><trkpt lat="44.7629717" lon="8.1141917"><ele>141.0</ele><time>2026-04-12T08:16:49.064Z</time></trkpt><trkpt lat="44.7629167" lon="8.1141467"><ele>141.0</ele><time>2026-04-12T08:16:50.064Z</time></trkpt><trkpt lat="44.762855" lon="8.11411"><ele>141.0</ele><time>2026-04-12T08:16:51.064Z</time></trkpt><trkpt lat="44.76274" lon="8.1140467"><ele>141.28571428571428</ele><time>2026-04-12T08:16:53.062Z</time></trkpt><trkpt lat="44.76268" lon="8.11401"><ele>141.57142857142856</ele><time>2026-04-12T08:16:54.063Z</time></trkpt><trkpt lat="44.76262" lon="8.1139683"><ele>141.85714285714283</ele><time>2026-04-12T08:16:55.062Z</time></trkpt><trkpt lat="44.7625617" lon="8.1139267"><ele>142.14285714285714</ele><time>2026-04-12T08:16:56.06Z</time></trkpt><trkpt lat="44.7625033" lon="8.113885"><ele>142.42857142857142</ele><time>2026-04-12T08:16:57.063Z</time></trkpt><trkpt lat="44.762445" lon="8.11384"><ele>142.7142857142857</ele><time>2026-04-12T08:16:58.064Z</time></trkpt><trkpt lat="44.7623833" lon="8.1137917"><ele>143.0</ele><time>2026-04-12T08:16:59.062Z</time></trkpt><trkpt lat="44.7623233" lon="8.1137467"><ele>142.99999999999997</ele><time>2026-04-12T08:17:00.062Z</time></trkpt><trkpt lat="44.762265" lon="8.1137017"><ele>143.0</ele><time>2026-04-12T08:17:01.063Z</time></trkpt><trkpt lat="44.762205" lon="8.1136583"><ele>143.0</ele><time>2026-04-12T08:17:02.064Z</time></trkpt><trkpt lat="44.7621483" lon="8.1136117"><ele>143.0</ele><time>2026-04-12T08:17:03.064Z</time></trkpt><trkpt lat="44.7620917" lon="8.1135683"><ele>143.0</ele><time>2026-04-12T08:17:04.062Z</time></trkpt><trkpt lat="44.762035" lon="8.113525"><ele>142.99999999999997</ele><time>2026-04-12T08:17:05.064Z</time></trkpt><trkpt lat="44.7619767" lon="8.11348"><ele>143.0</ele><time>2026-04-12T08:17:06.064Z</time></trkpt><trkpt lat="44.7619183" lon="8.113435"><ele>142.85714285714283</ele><time>2026-04-12T08:17:07.061Z</time></trkpt><trkpt lat="44.7618583" lon="8.1133933"><ele>142.71428571428572</ele><time>2026-04-12T08:17:08.062Z</time></trkpt><trkpt lat="44.7617983" lon="8.1133517"><ele>142.57142857142856</ele><time>2026-04-12T08:17:09.065Z</time></trkpt><trkpt lat="44.761735" lon="8.1133117"><ele>142.42857142857142</ele><time>2026-04-12T08:17:10.064Z</time></trkpt><trkpt lat="44.7616733" lon="8.1132717"><ele>142.28571428571428</ele><time>2026-04-12T08:17:11.062Z</time></trkpt><trkpt lat="44.7616117" lon="8.1132317"><ele>142.14285714285714</ele><time>2026-04-12T08:17:12.062Z</time></trkpt><trkpt lat="44.7615517" lon="8.11319"><ele>142.0</ele><time>2026-04-12T08:17:13.061Z</time></trkpt><trkpt lat="44.761495" lon="8.1131467"><ele>142.0</ele><time>2026-04-12T08:17:14.061Z</time></trkpt><trkpt lat="44.7614367" lon="8.1131017"><ele>142.0</ele><time>2026-04-12T08:17:15.063Z</time></trkpt><trkpt lat="44.7613767" lon="8.1130567"><ele>142.0</ele><time>2026-04-12T08:17:16.064Z</time></trkpt><trkpt lat="44.7613183" lon="8.1130117"><ele>142.0</ele><time>2026-04-12T08:17:17.061Z</time></trkpt><trkpt lat="44.7612617" lon="8.1129683"><ele>142.0</ele><time>2026-04-12T08:17:18.065Z</time></trkpt><trkpt lat="44.761205" lon="8.112925"><ele>142.0</ele><time>2026-04-12T08:17:19.062Z</time></trkpt><trkpt lat="44.7611483" lon="8.112885"><ele>142.0</ele><time>2026-04-12T08:17:20.064Z</time></trkpt><trkpt lat="44.7610933" lon="8.1128417"><ele>141.85714285714286</ele><time>2026-04-12T08:17:21.061Z</time></trkpt><trkpt lat="44.7609833" lon="8.1127617"><ele>141.7142857142857</ele><time>2026-04-12T08:17:23.064Z</time></trkpt><trkpt lat="44.7609267" lon="8.1127183"><ele>141.57142857142856</ele><time>2026-04-12T08:17:24.061Z</time></trkpt><trkpt lat="44.76087" lon="8.1126767"><ele>141.42857142857142</ele><time>2026-04-12T08:17:25.071Z</time></trkpt><trkpt lat="44.76081" lon="8.11264"><ele>141.28571428571428</ele><time>2026-04-12T08:17:26.063Z</time></trkpt><trkpt lat="44.7607517" lon="8.112605"><ele>141.14285714285714</ele><time>2026-04-12T08:17:27.066Z</time></trkpt><trkpt lat="44.7606917" lon="8.11257"><ele>141.0</ele><time>2026-04-12T08:17:28.061Z</time></trkpt><trkpt lat="44.760635" lon="8.11253"><ele>141.0</ele><time>2026-04-12T08:17:29.061Z</time></trkpt><trkpt lat="44.76058" lon="8.1124867"><ele>141.0</ele><time>2026-04-12T08:17:30.065Z</time></trkpt><trkpt lat="44.7605217" lon="8.1124417"><ele>141.0</ele><time>2026-04-12T08:17:31.061Z</time></trkpt><trkpt lat="44.7604633" lon="8.112395"><ele>141.0</ele><time>2026-04-12T08:17:32.063Z</time></trkpt><trkpt lat="44.7604083" lon="8.1123483"><ele>141.0</ele><time>2026-04-12T08:17:33.063Z</time></trkpt><trkpt lat="44.760355" lon="8.1122983"><ele>141.0</ele><time>2026-04-12T08:17:34.069Z</time></trkpt><trkpt lat="44.7602583" lon="8.1121883"><ele>141.0</ele><time>2026-04-12T08:17:36.063Z</time></trkpt><trkpt lat="44.7602083" lon="8.1121283"><ele>141.0</ele><time>2026-04-12T08:17:37.061Z</time></trkpt><trkpt lat="44.7601567" lon="8.112065"><ele>141.0</ele><time>2026-04-12T08:17:38.065Z</time></trkpt><trkpt lat="44.760105" lon="8.1120017"><ele>141.0</ele><time>2026-04-12T08:17:39.063Z</time></trkpt><trkpt lat="44.760055" lon="8.1119417"><ele>141.0</ele><time>2026-04-12T08:17:40.063Z</time></trkpt><trkpt lat="44.7600033" lon="8.1118817"><ele>141.0</ele><time>2026-04-12T08:17:41.064Z</time></trkpt><trkpt lat="44.7599533" lon="8.1118217"><ele>141.0</ele><time>2026-04-12T08:17:42.062Z</time></trkpt><trkpt lat="44.7599033" lon="8.11176"><ele>141.0</ele><time>2026-04-12T08:17:43.06Z</time></trkpt><trkpt lat="44.759855" lon="8.111695"><ele>141.0</ele><time>2026-04-12T08:17:44.061Z</time></trkpt><trkpt lat="44.75981" lon="8.1116317"><ele>141.0</ele><time>2026-04-12T08:17:45.062Z</time></trkpt><trkpt lat="44.7597617" lon="8.11157"><ele>141.0</ele><time>2026-04-12T08:17:46.062Z</time></trkpt><trkpt lat="44.7597133" lon="8.1115117"><ele>141.0</ele><time>2026-04-12T08:17:47.061Z</time></trkpt><trkpt lat="44.7596217" lon="8.1113967"><ele>141.0</ele><time>2026-04-12T08:17:49.062Z</time></trkpt><trkpt lat="44.759575" lon="8.111335"><ele>141.0</ele><time>2026-04-12T08:17:50.064Z</time></trkpt><trkpt lat="44.7595283" lon="8.1112717"><ele>141.0</ele><time>2026-04-12T08:17:51.061Z</time></trkpt><trkpt lat="44.7594817" lon="8.1112083"><ele>141.0</ele><time>2026-04-12T08:17:52.067Z</time></trkpt><trkpt lat="44.759435" lon="8.1111467"><ele>141.0</ele><time>2026-04-12T08:17:53.061Z</time></trkpt><trkpt lat="44.7593883" lon="8.1110833"><ele>141.0</ele><time>2026-04-12T08:17:54.061Z</time></trkpt><trkpt lat="44.7593417" lon="8.1110183"><ele>141.0</ele><time>2026-04-12T08:17:55.061Z</time></trkpt><trkpt lat="44.7592967" lon="8.110955"><ele>141.0</ele><time>2026-04-12T08:17:56.062Z</time></trkpt><trkpt lat="44.7592533" lon="8.11089"><ele>141.0</ele><time>2026-04-12T08:17:57.065Z</time></trkpt><trkpt lat="44.7592067" lon="8.1108217"><ele>141.0</ele><time>2026-04-12T08:17:58.061Z</time></trkpt><trkpt lat="44.75916" lon="8.1107617"><ele>141.16666666666666</ele><time>2026-04-12T08:17:59.065Z</time></trkpt><trkpt lat="44.7591133" lon="8.1107"><ele>141.33333333333334</ele><time>2026-04-12T08:18:00.063Z</time></trkpt><trkpt lat="44.7590183" lon="8.1105833"><ele>141.5</ele><time>2026-04-12T08:18:02.064Z</time></trkpt><trkpt lat="44.7589667" lon="8.1105267"><ele>141.66666666666669</ele><time>2026-04-12T08:18:03.063Z</time></trkpt><trkpt lat="44.758915" lon="8.1104667"><ele>141.83333333333334</ele><time>2026-04-12T08:18:04.066Z</time></trkpt><trkpt lat="44.758865" lon="8.1104117"><ele>142.0</ele><time>2026-04-12T08:18:05.061Z</time></trkpt><trkpt lat="44.7588133" lon="8.1103583"><ele>142.0</ele><time>2026-04-12T08:18:06.062Z</time></trkpt><trkpt lat="44.7587583" lon="8.1103067"><ele>142.0</ele><time>2026-04-12T08:18:07.065Z</time></trkpt><trkpt lat="44.7587067" lon="8.110255"><ele>142.0</ele><time>2026-04-12T08:18:08.065Z</time></trkpt><trkpt lat="44.758605" lon="8.1101683"><ele>142.0</ele><time>2026-04-12T08:18:10.061Z</time></trkpt><trkpt lat="44.7584983" lon="8.11009"><ele>142.0</ele><time>2026-04-12T08:18:12.064Z</time></trkpt><trkpt lat="44.75839" lon="8.1100117"><ele>142.16666666666669</ele><time>2026-04-12T08:18:14.063Z</time></trkpt><trkpt lat="44.75833" lon="8.109975"><ele>142.33333333333334</ele><time>2026-04-12T08:18:15.064Z</time></trkpt><trkpt lat="44.758265" lon="8.1099433"><ele>142.5</ele><time>2026-04-12T08:18:16.063Z</time></trkpt><trkpt lat="44.7582033" lon="8.1099167"><ele>142.66666666666666</ele><time>2026-04-12T08:18:17.064Z</time></trkpt><trkpt lat="44.75814" lon="8.1098917"><ele>142.83333333333331</ele><time>2026-04-12T08:18:18.064Z</time></trkpt><trkpt lat="44.7580167" lon="8.1098433"><ele>143.0</ele><time>2026-04-12T08:18:20.064Z</time></trkpt><trkpt lat="44.7579533" lon="8.1098183"><ele>143.16666666666666</ele><time>2026-04-12T08:18:21.064Z</time></trkpt><trkpt lat="44.7578867" lon="8.1097933"><ele>143.33333333333331</ele><time>2026-04-12T08:18:22.063Z</time></trkpt><trkpt lat="44.7578233" lon="8.109775"><ele>143.5</ele><time>2026-04-12T08:18:23.061Z</time></trkpt><trkpt lat="44.75776" lon="8.1097617"><ele>143.66666666666666</ele><time>2026-04-12T08:18:24.062Z</time></trkpt><trkpt lat="44.7576367" lon="8.10975"><ele>143.83333333333334</ele><time>2026-04-12T08:18:26.062Z</time></trkpt><trkpt lat="44.7575233" lon="8.10975"><ele>144.0</ele><time>2026-04-12T08:18:28.064Z</time></trkpt><trkpt lat="44.7574233" lon="8.1097183"><ele>143.6</ele><time>2026-04-12T08:18:30.066Z</time></trkpt><trkpt lat="44.757365" lon="8.1096233"><ele>143.2</ele><time>2026-04-12T08:18:32.064Z</time></trkpt><trkpt lat="44.7573817" lon="8.10949"><ele>142.79999999999998</ele><time>2026-04-12T08:18:34.063Z</time></trkpt><trkpt lat="44.75744" lon="8.1093467"><ele>142.4</ele><time>2026-04-12T08:18:36.066Z</time></trkpt><trkpt lat="44.7574917" lon="8.1091983"><ele>142.0</ele><time>2026-04-12T08:18:38.063Z</time></trkpt><trkpt lat="44.7575483" lon="8.109045"><ele>141.79999999999998</ele><time>2026-04-12T08:18:40.064Z</time></trkpt><trkpt lat="44.75758" lon="8.1089683"><ele>141.6</ele><time>2026-04-12T08:18:41.062Z</time></trkpt><trkpt lat="44.7576383" lon="8.10882"><ele>141.39999999999998</ele><time>2026-04-12T08:18:43.062Z</time></trkpt><trkpt lat="44.7576933" lon="8.1086733"><ele>141.2</ele><time>2026-04-12T08:18:45.066Z</time></trkpt><trkpt lat="44.7577467" lon="8.108525"><ele>141.0</ele><time>2026-04-12T08:18:47.069Z</time></trkpt><trkpt lat="44.7578017" lon="8.1083717"><ele>141.2</ele><time>2026-04-12T08:18:49.061Z</time></trkpt><trkpt lat="44.757835" lon="8.1082133"><ele>141.39999999999998</ele><time>2026-04-12T08:18:51.066Z</time></trkpt><trkpt lat="44.7578033" lon="8.1080733"><ele>141.6</ele><time>2026-04-12T08:18:53.062Z</time></trkpt><trkpt lat="44.757725" lon="8.1079783"><ele>141.79999999999998</ele><time>2026-04-12T08:18:55.062Z</time></trkpt><trkpt lat="44.7576233" lon="8.107905"><ele>142.0</ele><time>2026-04-12T08:18:57.064Z</time></trkpt><trkpt lat="44.7575317" lon="8.1077833"><ele>142.0</ele><time>2026-04-12T08:18:59.064Z</time></trkpt><trkpt lat="44.7574867" lon="8.1077"><ele>142.0</ele><time>2026-04-12T08:19:00.067Z</time></trkpt><trkpt lat="44.757445" lon="8.1076133"><ele>142.0</ele><time>2026-04-12T08:19:01.062Z</time></trkpt><trkpt lat="44.7574067" lon="8.107525"><ele>142.0</ele><time>2026-04-12T08:19:02.063Z</time></trkpt><trkpt lat="44.7573683" lon="8.10744"><ele>142.0</ele><time>2026-04-12T08:19:03.065Z</time></trkpt><trkpt lat="44.7573317" lon="8.10735"><ele>142.0</ele><time>2026-04-12T08:19:04.065Z</time></trkpt><trkpt lat="44.7573" lon="8.10726"><ele>142.0</ele><time>2026-04-12T08:19:05.063Z</time></trkpt><trkpt lat="44.7572767" lon="8.1071633"><ele>142.0</ele><time>2026-04-12T08:19:06.062Z</time></trkpt><trkpt lat="44.75726" lon="8.107065"><ele>142.0</ele><time>2026-04-12T08:19:07.062Z</time></trkpt><trkpt lat="44.7572517" lon="8.10697"><ele>142.0</ele><time>2026-04-12T08:19:08.063Z</time></trkpt><trkpt lat="44.7572433" lon="8.106795"><ele>142.0</ele><time>2026-04-12T08:19:10.065Z</time></trkpt><trkpt lat="44.7571967" lon="8.1066367"><ele>142.0</ele><time>2026-04-12T08:19:12.064Z</time></trkpt><trkpt lat="44.757105" lon="8.1065217"><ele>142.0</ele><time>2026-04-12T08:19:14.062Z</time></trkpt><trkpt lat="44.7570133" lon="8.1064067"><ele>142.0</ele><time>2026-04-12T08:19:16.063Z</time></trkpt><trkpt lat="44.7569433" lon="8.1062633"><ele>142.0</ele><time>2026-04-12T08:19:18.065Z</time></trkpt><trkpt lat="44.756885" lon="8.1061117"><ele>142.0</ele><time>2026-04-12T08:19:20.063Z</time></trkpt><trkpt lat="44.7568183" lon="8.1059583"><ele>141.66666666666669</ele><time>2026-04-12T08:19:22.065Z</time></trkpt><trkpt lat="44.7567817" lon="8.1058833"><ele>141.33333333333334</ele><time>2026-04-12T08:19:23.07Z</time></trkpt><trkpt lat="44.756745" lon="8.105805"><ele>141.0</ele><time>2026-04-12T08:19:24.07Z</time></trkpt><trkpt lat="44.756675" lon="8.1056633"><ele>140.66666666666666</ele><time>2026-04-12T08:19:26.064Z</time></trkpt><trkpt lat="44.756615" lon="8.1055167"><ele>140.33333333333331</ele><time>2026-04-12T08:19:28.064Z</time></trkpt><trkpt lat="44.7565833" lon="8.10544"><ele>140.0</ele><time>2026-04-12T08:19:29.065Z</time></trkpt><trkpt lat="44.7565483" lon="8.105365"><ele>140.0</ele><time>2026-04-12T08:19:30.068Z</time></trkpt><trkpt lat="44.7565133" lon="8.1052867"><ele>140.0</ele><time>2026-04-12T08:19:31.065Z</time></trkpt><trkpt lat="44.7564783" lon="8.1052117"><ele>140.0</ele><time>2026-04-12T08:19:32.065Z</time></trkpt><trkpt lat="44.7564433" lon="8.105135"><ele>140.0</ele><time>2026-04-12T08:19:33.067Z</time></trkpt><trkpt lat="44.7563733" lon="8.1049867"><ele>140.0</ele><time>2026-04-12T08:19:35.063Z</time></trkpt><trkpt lat="44.7563" lon="8.1048533"><ele>140.0</ele><time>2026-04-12T08:19:37.065Z</time></trkpt><trkpt lat="44.756215" lon="8.104725"><ele>140.0</ele><time>2026-04-12T08:19:39.623Z</time></trkpt><trkpt lat="44.7561583" lon="8.1046283"><ele>140.0</ele><time>2026-04-12T08:19:41.563Z</time></trkpt><trkpt lat="44.7561" lon="8.1045483"><ele>140.0</ele><time>2026-04-12T08:19:43.067Z</time></trkpt><trkpt lat="44.75603" lon="8.10447"><ele>140.0</ele><time>2026-04-12T08:19:45.063Z</time></trkpt><trkpt lat="44.75595" lon="8.10438"><ele>140.0</ele><time>2026-04-12T08:19:47.066Z</time></trkpt><trkpt lat="44.7558617" lon="8.1043717"><ele>140.16666666666666</ele><time>2026-04-12T08:19:50.561Z</time></trkpt><trkpt lat="44.7558017" lon="8.1044133"><ele>140.33333333333331</ele><time>2026-04-12T08:19:51.562Z</time></trkpt><trkpt lat="44.7557217" lon="8.1044417"><ele>140.5</ele><time>2026-04-12T08:19:53.063Z</time></trkpt><trkpt lat="44.7555867" lon="8.1044583"><ele>140.66666666666666</ele><time>2026-04-12T08:19:55.063Z</time></trkpt><trkpt lat="44.7555183" lon="8.1044517"><ele>140.83333333333334</ele><time>2026-04-12T08:19:56.065Z</time></trkpt><trkpt lat="44.7554417" lon="8.1044383"><ele>141.0</ele><time>2026-04-12T08:19:57.063Z</time></trkpt><trkpt lat="44.7553667" lon="8.1044283"><ele>141.0</ele><time>2026-04-12T08:19:58.066Z</time></trkpt><trkpt lat="44.755295" lon="8.1044183"><ele>141.0</ele><time>2026-04-12T08:19:59.066Z</time></trkpt><trkpt lat="44.7552233" lon="8.104405"><ele>141.0</ele><time>2026-04-12T08:20:00.063Z</time></trkpt><trkpt lat="44.75516" lon="8.104395"><ele>141.0</ele><time>2026-04-12T08:20:01.066Z</time></trkpt><trkpt lat="44.755095" lon="8.1043867"><ele>141.0</ele><time>2026-04-12T08:20:02.063Z</time></trkpt><trkpt lat="44.7549717" lon="8.10437"><ele>141.0</ele><time>2026-04-12T08:20:04.06Z</time></trkpt><trkpt lat="44.754855" lon="8.1043517"><ele>140.8</ele><time>2026-04-12T08:20:06.061Z</time></trkpt><trkpt lat="44.7547517" lon="8.1043383"><ele>140.6</ele><time>2026-04-12T08:20:08.062Z</time></trkpt><trkpt lat="44.75466" lon="8.104335"><ele>140.4</ele><time>2026-04-12T08:20:10.064Z</time></trkpt><trkpt lat="44.7545717" lon="8.1043433"><ele>140.2</ele><time>2026-04-12T08:20:12.066Z</time></trkpt><trkpt lat="44.754475" lon="8.104355"><ele>140.0</ele><time>2026-04-12T08:20:14.062Z</time></trkpt><trkpt lat="44.75437" lon="8.1043733"><ele>140.6</ele><time>2026-04-12T08:20:16.065Z</time></trkpt><trkpt lat="44.75426" lon="8.1043967"><ele>141.2</ele><time>2026-04-12T08:20:18.065Z</time></trkpt><trkpt lat="44.7541467" lon="8.1044117"><ele>141.8</ele><time>2026-04-12T08:20:20.065Z</time></trkpt><trkpt lat="44.7540367" lon="8.1044233"><ele>142.4</ele><time>2026-04-12T08:20:22.069Z</time></trkpt><trkpt lat="44.7539233" lon="8.1044417"><ele>143.0</ele><time>2026-04-12T08:20:24.063Z</time></trkpt><trkpt lat="44.7538033" lon="8.1044617"><ele>143.0</ele><time>2026-04-12T08:20:26.066Z</time></trkpt><trkpt lat="44.75368" lon="8.1044833"><ele>143.0</ele><time>2026-04-12T08:20:28.062Z</time></trkpt><trkpt lat="44.7535667" lon="8.1045117"><ele>143.0</ele><time>2026-04-12T08:20:30.063Z</time></trkpt><trkpt lat="44.75346" lon="8.1045317"><ele>143.0</ele><time>2026-04-12T08:20:32.063Z</time></trkpt><trkpt lat="44.7533567" lon="8.1045467"><ele>143.8</ele><time>2026-04-12T08:20:34.068Z</time></trkpt><trkpt lat="44.7532567" lon="8.1045633"><ele>144.60000000000002</ele><time>2026-04-12T08:20:36.063Z</time></trkpt><trkpt lat="44.75315" lon="8.1045667"><ele>145.39999999999998</ele><time>2026-04-12T08:20:38.066Z</time></trkpt><trkpt lat="44.753045" lon="8.1045383"><ele>146.2</ele><time>2026-04-12T08:20:40.062Z</time></trkpt><trkpt lat="44.752955" lon="8.1044583"><ele>147.0</ele><time>2026-04-12T08:20:42.062Z</time></trkpt><trkpt lat="44.7528867" lon="8.104325"><ele>147.0</ele><time>2026-04-12T08:20:44.06Z</time></trkpt><trkpt lat="44.7528267" lon="8.10418"><ele>147.0</ele><time>2026-04-12T08:20:46.063Z</time></trkpt><trkpt lat="44.7527583" lon="8.104035"><ele>147.0</ele><time>2026-04-12T08:20:48.064Z</time></trkpt><trkpt lat="44.75272" lon="8.1039633"><ele>147.0</ele><time>2026-04-12T08:20:49.063Z</time></trkpt><trkpt lat="44.75268" lon="8.10389"><ele>147.0</ele><time>2026-04-12T08:20:50.064Z</time></trkpt><trkpt lat="44.7526383" lon="8.10382"><ele>147.0</ele><time>2026-04-12T08:20:51.066Z</time></trkpt><trkpt lat="44.7525983" lon="8.1037467"><ele>147.0</ele><time>2026-04-12T08:20:52.065Z</time></trkpt><trkpt lat="44.7525617" lon="8.1036733"><ele>147.0</ele><time>2026-04-12T08:20:53.064Z</time></trkpt><trkpt lat="44.7524867" lon="8.1035333"><ele>147.0</ele><time>2026-04-12T08:20:55.065Z</time></trkpt><trkpt lat="44.75241" lon="8.1033983"><ele>147.0</ele><time>2026-04-12T08:20:57.065Z</time></trkpt><trkpt lat="44.7523183" lon="8.10328"><ele>147.0</ele><time>2026-04-12T08:20:59.06Z</time></trkpt><trkpt lat="44.7522633" lon="8.10323"><ele>146.57142857142858</ele><time>2026-04-12T08:21:00.062Z</time></trkpt><trkpt lat="44.752205" lon="8.1031917"><ele>146.14285714285714</ele><time>2026-04-12T08:21:01.064Z</time></trkpt><trkpt lat="44.7521433" lon="8.1031633"><ele>145.71428571428572</ele><time>2026-04-12T08:21:02.064Z</time></trkpt><trkpt lat="44.75208" lon="8.10314"><ele>145.28571428571428</ele><time>2026-04-12T08:21:03.063Z</time></trkpt><trkpt lat="44.7520167" lon="8.103125"><ele>144.85714285714286</ele><time>2026-04-12T08:21:04.061Z</time></trkpt><trkpt lat="44.7519533" lon="8.1031133"><ele>144.42857142857144</ele><time>2026-04-12T08:21:05.063Z</time></trkpt><trkpt lat="44.75189" lon="8.1031033"><ele>144.0</ele><time>2026-04-12T08:21:06.062Z</time></trkpt><trkpt lat="44.7518217" lon="8.1030933"><ele>144.0</ele><time>2026-04-12T08:21:07.062Z</time></trkpt><trkpt lat="44.7517583" lon="8.103085"><ele>144.0</ele><time>2026-04-12T08:21:08.062Z</time></trkpt><trkpt lat="44.751695" lon="8.1030767"><ele>144.0</ele><time>2026-04-12T08:21:09.067Z</time></trkpt><trkpt lat="44.7516283" lon="8.103075"><ele>144.0</ele><time>2026-04-12T08:21:10.064Z</time></trkpt><trkpt lat="44.7515617" lon="8.1030667"><ele>144.0</ele><time>2026-04-12T08:21:11.061Z</time></trkpt><trkpt lat="44.7514383" lon="8.10304"><ele>144.0</ele><time>2026-04-12T08:21:13.065Z</time></trkpt><trkpt lat="44.751315" lon="8.1030067"><ele>144.0</ele><time>2026-04-12T08:21:15.065Z</time></trkpt><trkpt lat="44.7512" lon="8.10296"><ele>144.0</ele><time>2026-04-12T08:21:17.063Z</time></trkpt><trkpt lat="44.7510883" lon="8.1028767"><ele>144.0</ele><time>2026-04-12T08:21:19.063Z</time></trkpt><trkpt lat="44.7510333" lon="8.1028233"><ele>144.0</ele><time>2026-04-12T08:21:20.065Z</time></trkpt><trkpt lat="44.7509817" lon="8.1027617"><ele>144.0</ele><time>2026-04-12T08:21:21.064Z</time></trkpt><trkpt lat="44.7509317" lon="8.102695"><ele>144.0</ele><time>2026-04-12T08:21:22.066Z</time></trkpt><trkpt lat="44.75089" lon="8.1026233"><ele>144.57142857142858</ele><time>2026-04-12T08:21:23.064Z</time></trkpt><trkpt lat="44.7508533" lon="8.1025433"><ele>145.14285714285714</ele><time>2026-04-12T08:21:24.063Z</time></trkpt><trkpt lat="44.7508233" lon="8.1024567"><ele>145.71428571428572</ele><time>2026-04-12T08:21:25.064Z</time></trkpt><trkpt lat="44.7507983" lon="8.1023683"><ele>146.28571428571428</ele><time>2026-04-12T08:21:26.063Z</time></trkpt><trkpt lat="44.7507767" lon="8.1022783"><ele>146.85714285714286</ele><time>2026-04-12T08:21:27.063Z</time></trkpt><trkpt lat="44.7507483" lon="8.1021917"><ele>147.42857142857144</ele><time>2026-04-12T08:21:28.062Z</time></trkpt><trkpt lat="44.7507183" lon="8.1021067"><ele>148.0</ele><time>2026-04-12T08:21:29.063Z</time></trkpt><trkpt lat="44.75069" lon="8.10202"><ele>148.0</ele><time>2026-04-12T08:21:30.066Z</time></trkpt><trkpt lat="44.7506633" lon="8.1019333"><ele>148.0</ele><time>2026-04-12T08:21:31.065Z</time></trkpt><trkpt lat="44.7506333" lon="8.1018483"><ele>148.0</ele><time>2026-04-12T08:21:32.062Z</time></trkpt><trkpt lat="44.750605" lon="8.101765"><ele>148.0</ele><time>2026-04-12T08:21:33.064Z</time></trkpt><trkpt lat="44.7505783" lon="8.1016817"><ele>148.0</ele><time>2026-04-12T08:21:34.062Z</time></trkpt><trkpt lat="44.750555" lon="8.1015967"><ele>148.0</ele><time>2026-04-12T08:21:35.062Z</time></trkpt><trkpt lat="44.7505333" lon="8.1015117"><ele>148.0</ele><time>2026-04-12T08:21:36.065Z</time></trkpt><trkpt lat="44.7505083" lon="8.101425"><ele>148.5</ele><time>2026-04-12T08:21:37.066Z</time></trkpt><trkpt lat="44.7504767" lon="8.1013483"><ele>149.0</ele><time>2026-04-12T08:21:38.063Z</time></trkpt><trkpt lat="44.7504317" lon="8.10128"><ele>149.5</ele><time>2026-04-12T08:21:39.066Z</time></trkpt><trkpt lat="44.7503783" lon="8.1012267"><ele>150.0</ele><time>2026-04-12T08:21:40.063Z</time></trkpt><trkpt lat="44.7503183" lon="8.10118"><ele>150.5</ele><time>2026-04-12T08:21:41.066Z</time></trkpt><trkpt lat="44.75026" lon="8.101135"><ele>151.0</ele><time>2026-04-12T08:21:42.066Z</time></trkpt><trkpt lat="44.7501517" lon="8.1010567"><ele>151.0</ele><time>2026-04-12T08:21:44.062Z</time></trkpt><trkpt lat="44.7500533" lon="8.100955"><ele>151.0</ele><time>2026-04-12T08:21:46.063Z</time></trkpt><trkpt lat="44.749975" lon="8.1008183"><ele>151.0</ele><time>2026-04-12T08:21:48.062Z</time></trkpt><trkpt lat="44.749905" lon="8.1006767"><ele>151.0</ele><time>2026-04-12T08:21:50.064Z</time></trkpt><trkpt lat="44.749845" lon="8.1005233"><ele>150.66666666666669</ele><time>2026-04-12T08:21:52.066Z</time></trkpt><trkpt lat="44.7498233" lon="8.10035"><ele>150.33333333333334</ele><time>2026-04-12T08:21:54.064Z</time></trkpt><trkpt lat="44.7498083" lon="8.1002583"><ele>150.0</ele><time>2026-04-12T08:21:55.063Z</time></trkpt><trkpt lat="44.7497833" lon="8.10017"><ele>149.66666666666666</ele><time>2026-04-12T08:21:56.063Z</time></trkpt><trkpt lat="44.7497483" lon="8.1000883"><ele>149.33333333333331</ele><time>2026-04-12T08:21:57.065Z</time></trkpt><trkpt lat="44.7497083" lon="8.100005"><ele>149.0</ele><time>2026-04-12T08:21:58.062Z</time></trkpt><trkpt lat="44.74967" lon="8.0999233"><ele>149.16666666666666</ele><time>2026-04-12T08:21:59.064Z</time></trkpt><trkpt lat="44.749635" lon="8.09984"><ele>149.33333333333331</ele><time>2026-04-12T08:22:00.063Z</time></trkpt><trkpt lat="44.749595" lon="8.09976"><ele>149.5</ele><time>2026-04-12T08:22:01.065Z</time></trkpt><trkpt lat="44.7494883" lon="8.099665"><ele>149.66666666666666</ele><time>2026-04-12T08:22:03.067Z</time></trkpt><trkpt lat="44.749425" lon="8.099645"><ele>149.83333333333334</ele><time>2026-04-12T08:22:04.063Z</time></trkpt><trkpt lat="44.7493633" lon="8.099625"><ele>150.0</ele><time>2026-04-12T08:22:05.062Z</time></trkpt><trkpt lat="44.7493017" lon="8.0995917"><ele>150.0</ele><time>2026-04-12T08:22:06.063Z</time></trkpt><trkpt lat="44.7492483" lon="8.0995417"><ele>150.0</ele><time>2026-04-12T08:22:07.063Z</time></trkpt><trkpt lat="44.7491983" lon="8.0994783"><ele>150.0</ele><time>2026-04-12T08:22:08.068Z</time></trkpt><trkpt lat="44.7491517" lon="8.099415"><ele>150.0</ele><time>2026-04-12T08:22:09.067Z</time></trkpt><trkpt lat="44.7491017" lon="8.09935"><ele>150.0</ele><time>2026-04-12T08:22:10.067Z</time></trkpt><trkpt lat="44.74905" lon="8.0992883"><ele>150.0</ele><time>2026-04-12T08:22:11.062Z</time></trkpt><trkpt lat="44.748955" lon="8.099175"><ele>149.6</ele><time>2026-04-12T08:22:13.065Z</time></trkpt><trkpt lat="44.7488633" lon="8.09906"><ele>149.2</ele><time>2026-04-12T08:22:15.067Z</time></trkpt><trkpt lat="44.7487783" lon="8.0989483"><ele>148.8</ele><time>2026-04-12T08:22:17.062Z</time></trkpt><trkpt lat="44.7487067" lon="8.0988467"><ele>148.4</ele><time>2026-04-12T08:22:19.065Z</time></trkpt><trkpt lat="44.7486267" lon="8.09875"><ele>148.0</ele><time>2026-04-12T08:22:21.064Z</time></trkpt><trkpt lat="44.74855" lon="8.0986667"><ele>148.0</ele><time>2026-04-12T08:22:23.066Z</time></trkpt><trkpt lat="44.7484817" lon="8.0985883"><ele>148.0</ele><time>2026-04-12T08:22:25.063Z</time></trkpt><trkpt lat="44.7484117" lon="8.0985017"><ele>148.0</ele><time>2026-04-12T08:22:27.062Z</time></trkpt><trkpt lat="44.7483383" lon="8.0984183"><ele>148.0</ele><time>2026-04-12T08:22:29.062Z</time></trkpt><trkpt lat="44.7482633" lon="8.0983367"><ele>148.0</ele><time>2026-04-12T08:22:31.063Z</time></trkpt><trkpt lat="44.7481883" lon="8.098245"><ele>148.0</ele><time>2026-04-12T08:22:33.069Z</time></trkpt><trkpt lat="44.7481117" lon="8.0981617"><ele>148.0</ele><time>2026-04-12T08:22:35.064Z</time></trkpt><trkpt lat="44.7480217" lon="8.0980633"><ele>148.0</ele><time>2026-04-12T08:22:37.064Z</time></trkpt><trkpt lat="44.747935" lon="8.0979633"><ele>148.0</ele><time>2026-04-12T08:22:39.064Z</time></trkpt><trkpt lat="44.74785" lon="8.0978717"><ele>148.0</ele><time>2026-04-12T08:22:41.062Z</time></trkpt><trkpt lat="44.7477717" lon="8.09778"><ele>148.0</ele><time>2026-04-12T08:22:43.067Z</time></trkpt><trkpt lat="44.747685" lon="8.0976917"><ele>148.0</ele><time>2026-04-12T08:22:45.065Z</time></trkpt><trkpt lat="44.747595" lon="8.0976"><ele>148.0</ele><time>2026-04-12T08:22:47.068Z</time></trkpt><trkpt lat="44.74751" lon="8.097505"><ele>148.0</ele><time>2026-04-12T08:22:49.066Z</time></trkpt><trkpt lat="44.74743" lon="8.0974133"><ele>148.0</ele><time>2026-04-12T08:22:51.069Z</time></trkpt><trkpt lat="44.747355" lon="8.0973217"><ele>148.0</ele><time>2026-04-12T08:22:53.063Z</time></trkpt><trkpt lat="44.7472783" lon="8.09723"><ele>148.0</ele><time>2026-04-12T08:22:55.063Z</time></trkpt><trkpt lat="44.7471933" lon="8.0971317"><ele>148.0</ele><time>2026-04-12T08:22:57.064Z</time></trkpt><trkpt lat="44.7471067" lon="8.0970267"><ele>148.0</ele><time>2026-04-12T08:22:59.065Z</time></trkpt><trkpt lat="44.7470217" lon="8.0969283"><ele>148.0</ele><time>2026-04-12T08:23:01.065Z</time></trkpt><trkpt lat="44.746935" lon="8.0968167"><ele>148.25</ele><time>2026-04-12T08:23:03.067Z</time></trkpt><trkpt lat="44.74684" lon="8.0967067"><ele>148.5</ele><time>2026-04-12T08:23:05.064Z</time></trkpt><trkpt lat="44.74674" lon="8.0966"><ele>148.75</ele><time>2026-04-12T08:23:07.067Z</time></trkpt><trkpt lat="44.7466483" lon="8.0964833"><ele>149.0</ele><time>2026-04-12T08:23:09.062Z</time></trkpt><trkpt lat="44.7465667" lon="8.0963517"><ele>149.0</ele><time>2026-04-12T08:23:11.065Z</time></trkpt><trkpt lat="44.7465317" lon="8.0962767"><ele>149.0</ele><time>2026-04-12T08:23:12.061Z</time></trkpt><trkpt lat="44.74646" lon="8.09614"><ele>149.0</ele><time>2026-04-12T08:23:14.064Z</time></trkpt><trkpt lat="44.7464117" lon="8.0960817"><ele>149.0</ele><time>2026-04-12T08:23:15.064Z</time></trkpt><trkpt lat="44.7462933" lon="8.0960267"><ele>149.0</ele><time>2026-04-12T08:23:17.064Z</time></trkpt><trkpt lat="44.74623" lon="8.09602"><ele>149.0</ele><time>2026-04-12T08:23:18.065Z</time></trkpt><trkpt lat="44.746165" lon="8.0960233"><ele>149.0</ele><time>2026-04-12T08:23:19.064Z</time></trkpt><trkpt lat="44.7461" lon="8.0960317"><ele>149.0</ele><time>2026-04-12T08:23:20.064Z</time></trkpt><trkpt lat="44.7460367" lon="8.0960433"><ele>149.0</ele><time>2026-04-12T08:23:21.064Z</time></trkpt><trkpt lat="44.7459667" lon="8.0960567"><ele>149.0</ele><time>2026-04-12T08:23:22.063Z</time></trkpt><trkpt lat="44.7458983" lon="8.09607"><ele>149.0</ele><time>2026-04-12T08:23:23.065Z</time></trkpt><trkpt lat="44.74583" lon="8.0960817"><ele>149.0</ele><time>2026-04-12T08:23:24.064Z</time></trkpt><trkpt lat="44.7457617" lon="8.09609"><ele>149.0</ele><time>2026-04-12T08:23:25.065Z</time></trkpt><trkpt lat="44.7456967" lon="8.0960967"><ele>149.0</ele><time>2026-04-12T08:23:26.066Z</time></trkpt><trkpt lat="44.7456333" lon="8.096105"><ele>149.0</ele><time>2026-04-12T08:23:27.063Z</time></trkpt><trkpt lat="44.74557" lon="8.09611"><ele>149.0</ele><time>2026-04-12T08:23:28.067Z</time></trkpt><trkpt lat="44.7455067" lon="8.0960983"><ele>149.0</ele><time>2026-04-12T08:23:29.064Z</time></trkpt><trkpt lat="44.745445" lon="8.0960683"><ele>149.0</ele><time>2026-04-12T08:23:30.063Z</time></trkpt><trkpt lat="44.7453417" lon="8.0959717"><ele>149.0</ele><time>2026-04-12T08:23:32.062Z</time></trkpt><trkpt lat="44.74524" lon="8.0958683"><ele>149.16666666666666</ele><time>2026-04-12T08:23:34.066Z</time></trkpt><trkpt lat="44.7451867" lon="8.095815"><ele>149.33333333333331</ele><time>2026-04-12T08:23:35.061Z</time></trkpt><trkpt lat="44.745135" lon="8.0957617"><ele>149.5</ele><time>2026-04-12T08:23:36.063Z</time></trkpt><trkpt lat="44.7450317" lon="8.0956617"><ele>149.66666666666666</ele><time>2026-04-12T08:23:38.063Z</time></trkpt><trkpt lat="44.74498" lon="8.095605"><ele>149.83333333333334</ele><time>2026-04-12T08:23:39.065Z</time></trkpt><trkpt lat="44.7449283" lon="8.0955483"><ele>150.0</ele><time>2026-04-12T08:23:40.066Z</time></trkpt><trkpt lat="44.7448767" lon="8.0954917"><ele>150.28571428571428</ele><time>2026-04-12T08:23:41.064Z</time></trkpt><trkpt lat="44.7448217" lon="8.0954333"><ele>150.57142857142856</ele><time>2026-04-12T08:23:42.063Z</time></trkpt><trkpt lat="44.7447667" lon="8.0953783"><ele>150.85714285714283</ele><time>2026-04-12T08:23:43.064Z</time></trkpt><trkpt lat="44.7447117" lon="8.095325"><ele>151.14285714285714</ele><time>2026-04-12T08:23:44.067Z</time></trkpt><trkpt lat="44.7446567" lon="8.095275"><ele>151.42857142857144</ele><time>2026-04-12T08:23:45.062Z</time></trkpt><trkpt lat="44.7446033" lon="8.095225"><ele>151.7142857142857</ele><time>2026-04-12T08:23:46.062Z</time></trkpt><trkpt lat="44.74455" lon="8.0951683"><ele>152.0</ele><time>2026-04-12T08:23:47.06Z</time></trkpt><trkpt lat="44.7444967" lon="8.09511"><ele>152.0</ele><time>2026-04-12T08:23:48.062Z</time></trkpt><trkpt lat="44.7444417" lon="8.0950533"><ele>152.0</ele><time>2026-04-12T08:23:49.064Z</time></trkpt><trkpt lat="44.7443867" lon="8.0949983"><ele>152.0</ele><time>2026-04-12T08:23:50.063Z</time></trkpt><trkpt lat="44.7443283" lon="8.0949467"><ele>152.0</ele><time>2026-04-12T08:23:51.063Z</time></trkpt><trkpt lat="44.74427" lon="8.0948933"><ele>152.0</ele><time>2026-04-12T08:23:52.062Z</time></trkpt><trkpt lat="44.744215" lon="8.0948417"><ele>152.0</ele><time>2026-04-12T08:23:53.064Z</time></trkpt><trkpt lat="44.74416" lon="8.094785"><ele>152.0</ele><time>2026-04-12T08:23:54.062Z</time></trkpt><trkpt lat="44.744105" lon="8.0947267"><ele>151.57142857142856</ele><time>2026-04-12T08:23:55.066Z</time></trkpt><trkpt lat="44.7440483" lon="8.0946733"><ele>151.14285714285717</ele><time>2026-04-12T08:23:56.064Z</time></trkpt><trkpt lat="44.7439933" lon="8.0946233"><ele>150.71428571428572</ele><time>2026-04-12T08:23:57.066Z</time></trkpt><trkpt lat="44.7439367" lon="8.0945733"><ele>150.28571428571428</ele><time>2026-04-12T08:23:58.065Z</time></trkpt><trkpt lat="44.74388" lon="8.0945233"><ele>149.85714285714283</ele><time>2026-04-12T08:23:59.064Z</time></trkpt><trkpt lat="44.7438233" lon="8.09447"><ele>149.42857142857142</ele><time>2026-04-12T08:24:00.061Z</time></trkpt><trkpt lat="44.7437667" lon="8.0944183"><ele>149.0</ele><time>2026-04-12T08:24:01.064Z</time></trkpt><trkpt lat="44.7437117" lon="8.0943683"><ele>149.0</ele><time>2026-04-12T08:24:02.063Z</time></trkpt><trkpt lat="44.743655" lon="8.0943167"><ele>149.0</ele><time>2026-04-12T08:24:03.065Z</time></trkpt><trkpt lat="44.7436" lon="8.0942667"><ele>149.0</ele><time>2026-04-12T08:24:04.062Z</time></trkpt><trkpt lat="44.743545" lon="8.0942183"><ele>149.0</ele><time>2026-04-12T08:24:05.066Z</time></trkpt><trkpt lat="44.74349" lon="8.094165"><ele>149.0</ele><time>2026-04-12T08:24:06.066Z</time></trkpt><trkpt lat="44.7434333" lon="8.09411"><ele>149.0</ele><time>2026-04-12T08:24:07.064Z</time></trkpt><trkpt lat="44.7433783" lon="8.0940583"><ele>149.0</ele><time>2026-04-12T08:24:08.064Z</time></trkpt><trkpt lat="44.7433233" lon="8.094005"><ele>148.85714285714286</ele><time>2026-04-12T08:24:09.066Z</time></trkpt><trkpt lat="44.74327" lon="8.0939517"><ele>148.7142857142857</ele><time>2026-04-12T08:24:10.068Z</time></trkpt><trkpt lat="44.7432133" lon="8.0938967"><ele>148.57142857142856</ele><time>2026-04-12T08:24:11.061Z</time></trkpt><trkpt lat="44.7431567" lon="8.0938433"><ele>148.42857142857142</ele><time>2026-04-12T08:24:12.062Z</time></trkpt><trkpt lat="44.7431" lon="8.09379"><ele>148.28571428571428</ele><time>2026-04-12T08:24:13.063Z</time></trkpt><trkpt lat="44.743045" lon="8.0937333"><ele>148.14285714285714</ele><time>2026-04-12T08:24:14.062Z</time></trkpt><trkpt lat="44.7429933" lon="8.09368"><ele>148.0</ele><time>2026-04-12T08:24:15.065Z</time></trkpt><trkpt lat="44.7429417" lon="8.0936267"><ele>148.0</ele><time>2026-04-12T08:24:16.066Z</time></trkpt><trkpt lat="44.7428883" lon="8.093575"><ele>148.0</ele><time>2026-04-12T08:24:17.059Z</time></trkpt><trkpt lat="44.7428333" lon="8.0935217"><ele>148.0</ele><time>2026-04-12T08:24:18.062Z</time></trkpt><trkpt lat="44.742775" lon="8.0934717"><ele>148.0</ele><time>2026-04-12T08:24:19.064Z</time></trkpt><trkpt lat="44.7427183" lon="8.0934217"><ele>148.0</ele><time>2026-04-12T08:24:20.063Z</time></trkpt><trkpt lat="44.7426617" lon="8.0933717"><ele>148.0</ele><time>2026-04-12T08:24:21.066Z</time></trkpt><trkpt lat="44.7426067" lon="8.09332"><ele>148.0</ele><time>2026-04-12T08:24:22.063Z</time></trkpt><trkpt lat="44.7425533" lon="8.0932667"><ele>149.0</ele><time>2026-04-12T08:24:23.065Z</time></trkpt><trkpt lat="44.7425017" lon="8.0932117"><ele>150.0</ele><time>2026-04-12T08:24:24.062Z</time></trkpt><trkpt lat="44.7424483" lon="8.0931567"><ele>151.0</ele><time>2026-04-12T08:24:25.069Z</time></trkpt><trkpt lat="44.742395" lon="8.0931033"><ele>152.0</ele><time>2026-04-12T08:24:26.063Z</time></trkpt><trkpt lat="44.7423417" lon="8.0930467"><ele>153.0</ele><time>2026-04-12T08:24:27.066Z</time></trkpt><trkpt lat="44.7422883" lon="8.0929917"><ele>154.0</ele><time>2026-04-12T08:24:28.061Z</time></trkpt><trkpt lat="44.7422317" lon="8.0929383"><ele>155.0</ele><time>2026-04-12T08:24:29.061Z</time></trkpt><trkpt lat="44.7421783" lon="8.0928883"><ele>155.0</ele><time>2026-04-12T08:24:30.065Z</time></trkpt><trkpt lat="44.7421233" lon="8.0928367"><ele>155.0</ele><time>2026-04-12T08:24:31.069Z</time></trkpt><trkpt lat="44.74207" lon="8.0927867"><ele>155.0</ele><time>2026-04-12T08:24:32.064Z</time></trkpt><trkpt lat="44.7420167" lon="8.09273"><ele>155.0</ele><time>2026-04-12T08:24:33.064Z</time></trkpt><trkpt lat="44.74196" lon="8.09268"><ele>155.0</ele><time>2026-04-12T08:24:34.062Z</time></trkpt><trkpt lat="44.7419033" lon="8.09263"><ele>155.0</ele><time>2026-04-12T08:24:35.065Z</time></trkpt><trkpt lat="44.741845" lon="8.0925833"><ele>155.0</ele><time>2026-04-12T08:24:36.062Z</time></trkpt><trkpt lat="44.7417433" lon="8.092485"><ele>154.8</ele><time>2026-04-12T08:24:38.063Z</time></trkpt><trkpt lat="44.7416433" lon="8.09239"><ele>154.6</ele><time>2026-04-12T08:24:40.062Z</time></trkpt><trkpt lat="44.7415383" lon="8.09229"><ele>154.4</ele><time>2026-04-12T08:24:42.065Z</time></trkpt><trkpt lat="44.7414833" lon="8.0922433"><ele>154.2</ele><time>2026-04-12T08:24:43.065Z</time></trkpt><trkpt lat="44.7414283" lon="8.0921967"><ele>154.0</ele><time>2026-04-12T08:24:44.066Z</time></trkpt><trkpt lat="44.7413233" lon="8.09211"><ele>154.0</ele><time>2026-04-12T08:24:46.064Z</time></trkpt><trkpt lat="44.7412217" lon="8.0920233"><ele>154.0</ele><time>2026-04-12T08:24:48.069Z</time></trkpt><trkpt lat="44.7411167" lon="8.09195"><ele>154.0</ele><time>2026-04-12T08:24:50.061Z</time></trkpt><trkpt lat="44.7410067" lon="8.0919"><ele>154.0</ele><time>2026-04-12T08:24:52.063Z</time></trkpt><trkpt lat="44.7408917" lon="8.0919217"><ele>154.0</ele><time>2026-04-12T08:24:54.065Z</time></trkpt><trkpt lat="44.740795" lon="8.0919783"><ele>154.0</ele><time>2026-04-12T08:24:56.063Z</time></trkpt><trkpt lat="44.74071" lon="8.0920367"><ele>154.0</ele><time>2026-04-12T08:24:58.063Z</time></trkpt><trkpt lat="44.7406333" lon="8.0920617"><ele>154.0</ele><time>2026-04-12T08:25:00.064Z</time></trkpt><trkpt lat="44.74057" lon="8.0920617"><ele>154.0</ele><time>2026-04-12T08:25:02.063Z</time></trkpt><trkpt lat="44.740505" lon="8.092075"><ele>154.0</ele><time>2026-04-12T08:25:05.062Z</time></trkpt><trkpt lat="44.7404233" lon="8.0921083"><ele>154.0</ele><time>2026-04-12T08:25:24.063Z</time></trkpt><trkpt lat="44.74035" lon="8.092135"><ele>154.0</ele><time>2026-04-12T08:25:26.062Z</time></trkpt><trkpt lat="44.7402667" lon="8.0921917"><ele>154.0</ele><time>2026-04-12T08:25:28.063Z</time></trkpt><trkpt lat="44.7401783" lon="8.0922733"><ele>154.0</ele><time>2026-04-12T08:25:30.061Z</time></trkpt><trkpt lat="44.74009" lon="8.0923567"><ele>154.0</ele><time>2026-04-12T08:25:32.061Z</time></trkpt><trkpt lat="44.73999" lon="8.0924417"><ele>154.25</ele><time>2026-04-12T08:25:34.062Z</time></trkpt><trkpt lat="44.7398833" lon="8.0925117"><ele>154.5</ele><time>2026-04-12T08:25:36.063Z</time></trkpt><trkpt lat="44.7397767" lon="8.0925767"><ele>154.75</ele><time>2026-04-12T08:25:38.063Z</time></trkpt><trkpt lat="44.7396683" lon="8.0926467"><ele>155.0</ele><time>2026-04-12T08:25:40.063Z</time></trkpt><trkpt lat="44.7395617" lon="8.092715"><ele>155.0</ele><time>2026-04-12T08:25:42.063Z</time></trkpt><trkpt lat="44.7394567" lon="8.09279"><ele>155.0</ele><time>2026-04-12T08:25:44.069Z</time></trkpt><trkpt lat="44.7393517" lon="8.0928617"><ele>155.0</ele><time>2026-04-12T08:25:46.064Z</time></trkpt><trkpt lat="44.739245" lon="8.0929317"><ele>155.0</ele><time>2026-04-12T08:25:48.066Z</time></trkpt><trkpt lat="44.73914" lon="8.0930017"><ele>155.75</ele><time>2026-04-12T08:25:50.062Z</time></trkpt><trkpt lat="44.7390333" lon="8.0930683"><ele>156.5</ele><time>2026-04-12T08:25:52.063Z</time></trkpt><trkpt lat="44.73893" lon="8.0931383"><ele>157.25</ele><time>2026-04-12T08:25:54.063Z</time></trkpt><trkpt lat="44.7388217" lon="8.0932067"><ele>158.0</ele><time>2026-04-12T08:25:56.067Z</time></trkpt><trkpt lat="44.73871" lon="8.093275"><ele>158.25</ele><time>2026-04-12T08:25:58.063Z</time></trkpt><trkpt lat="44.7385967" lon="8.0933467"><ele>158.5</ele><time>2026-04-12T08:26:00.063Z</time></trkpt><trkpt lat="44.7384883" lon="8.09342"><ele>158.75</ele><time>2026-04-12T08:26:02.06Z</time></trkpt><trkpt lat="44.7383767" lon="8.0934883"><ele>159.0</ele><time>2026-04-12T08:26:04.064Z</time></trkpt><trkpt lat="44.73826" lon="8.0935467"><ele>159.5</ele><time>2026-04-12T08:26:06.066Z</time></trkpt><trkpt lat="44.7381433" lon="8.093595"><ele>160.0</ele><time>2026-04-12T08:26:08.065Z</time></trkpt><trkpt lat="44.738025" lon="8.09364"><ele>160.5</ele><time>2026-04-12T08:26:10.064Z</time></trkpt><trkpt lat="44.737905" lon="8.093685"><ele>161.0</ele><time>2026-04-12T08:26:12.065Z</time></trkpt><trkpt lat="44.737785" lon="8.09372"><ele>161.25</ele><time>2026-04-12T08:26:14.061Z</time></trkpt><trkpt lat="44.7376667" lon="8.09376"><ele>161.5</ele><time>2026-04-12T08:26:16.062Z</time></trkpt><trkpt lat="44.7375483" lon="8.0938017"><ele>161.75</ele><time>2026-04-12T08:26:18.065Z</time></trkpt><trkpt lat="44.7374333" lon="8.0938417"><ele>162.0</ele><time>2026-04-12T08:26:20.065Z</time></trkpt><trkpt lat="44.7373183" lon="8.0938833"><ele>162.0</ele><time>2026-04-12T08:26:22.068Z</time></trkpt><trkpt lat="44.7372" lon="8.0939183"><ele>162.0</ele><time>2026-04-12T08:26:24.064Z</time></trkpt><trkpt lat="44.7370817" lon="8.09395"><ele>162.0</ele><time>2026-04-12T08:26:26.066Z</time></trkpt><trkpt lat="44.7369667" lon="8.0939717"><ele>162.0</ele><time>2026-04-12T08:26:28.063Z</time></trkpt><trkpt lat="44.7368483" lon="8.0939883"><ele>163.0</ele><time>2026-04-12T08:26:30.065Z</time></trkpt><trkpt lat="44.73673" lon="8.0940033"><ele>164.0</ele><time>2026-04-12T08:26:32.065Z</time></trkpt><trkpt lat="44.7366117" lon="8.0940167"><ele>165.0</ele><time>2026-04-12T08:26:34.062Z</time></trkpt><trkpt lat="44.7364933" lon="8.0940317"><ele>166.0</ele><time>2026-04-12T08:26:36.064Z</time></trkpt><trkpt lat="44.7363733" lon="8.0940467"><ele>166.0</ele><time>2026-04-12T08:26:38.064Z</time></trkpt><trkpt lat="44.7362483" lon="8.0940633"><ele>166.0</ele><time>2026-04-12T08:26:40.07Z</time></trkpt><trkpt lat="44.736125" lon="8.09409"><ele>166.0</ele><time>2026-04-12T08:26:42.066Z</time></trkpt><trkpt lat="44.7360067" lon="8.0941217"><ele>166.0</ele><time>2026-04-12T08:26:44.065Z</time></trkpt><trkpt lat="44.73589" lon="8.0941533"><ele>165.60000000000002</ele><time>2026-04-12T08:26:46.061Z</time></trkpt><trkpt lat="44.73577" lon="8.0941833"><ele>165.2</ele><time>2026-04-12T08:26:48.066Z</time></trkpt><trkpt lat="44.7356517" lon="8.094215"><ele>164.8</ele><time>2026-04-12T08:26:50.06Z</time></trkpt><trkpt lat="44.7355883" lon="8.09423"><ele>164.39999999999998</ele><time>2026-04-12T08:26:51.066Z</time></trkpt><trkpt lat="44.7354667" lon="8.0942633"><ele>164.0</ele><time>2026-04-12T08:26:53.063Z</time></trkpt><trkpt lat="44.7353517" lon="8.0942967"><ele>164.0</ele><time>2026-04-12T08:26:55.066Z</time></trkpt><trkpt lat="44.7352367" lon="8.0943283"><ele>164.0</ele><time>2026-04-12T08:26:57.066Z</time></trkpt><trkpt lat="44.7351183" lon="8.0943617"><ele>164.0</ele><time>2026-04-12T08:26:59.065Z</time></trkpt><trkpt lat="44.7350017" lon="8.0944"><ele>164.0</ele><time>2026-04-12T08:27:01.064Z</time></trkpt><trkpt lat="44.7348817" lon="8.0944367"><ele>163.6</ele><time>2026-04-12T08:27:03.067Z</time></trkpt><trkpt lat="44.7347567" lon="8.094455"><ele>163.2</ele><time>2026-04-12T08:27:05.065Z</time></trkpt><trkpt lat="44.7346933" lon="8.0944583"><ele>162.79999999999998</ele><time>2026-04-12T08:27:06.066Z</time></trkpt><trkpt lat="44.7345717" lon="8.0944467"><ele>162.39999999999998</ele><time>2026-04-12T08:27:08.062Z</time></trkpt><trkpt lat="44.7344533" lon="8.0944233"><ele>162.0</ele><time>2026-04-12T08:27:10.065Z</time></trkpt><trkpt lat="44.7343333" lon="8.0943833"><ele>162.0</ele><time>2026-04-12T08:27:12.063Z</time></trkpt><trkpt lat="44.7342717" lon="8.0943633"><ele>162.0</ele><time>2026-04-12T08:27:13.066Z</time></trkpt><trkpt lat="44.7341533" lon="8.0943233"><ele>162.0</ele><time>2026-04-12T08:27:15.063Z</time></trkpt><trkpt lat="44.7340883" lon="8.094305"><ele>162.0</ele><time>2026-04-12T08:27:16.063Z</time></trkpt><trkpt lat="44.7340267" lon="8.0942867"><ele>162.0</ele><time>2026-04-12T08:27:17.059Z</time></trkpt><trkpt lat="44.7339633" lon="8.0942717"><ele>162.0</ele><time>2026-04-12T08:27:18.061Z</time></trkpt><trkpt lat="44.7338983" lon="8.0942533"><ele>162.0</ele><time>2026-04-12T08:27:19.064Z</time></trkpt><trkpt lat="44.7338333" lon="8.094235"><ele>162.0</ele><time>2026-04-12T08:27:20.062Z</time></trkpt><trkpt lat="44.7337683" lon="8.094215"><ele>162.0</ele><time>2026-04-12T08:27:21.064Z</time></trkpt><trkpt lat="44.7337067" lon="8.094195"><ele>162.0</ele><time>2026-04-12T08:27:22.063Z</time></trkpt><trkpt lat="44.733645" lon="8.0941767"><ele>162.0</ele><time>2026-04-12T08:27:23.062Z</time></trkpt><trkpt lat="44.7335833" lon="8.094155"><ele>162.0</ele><time>2026-04-12T08:27:24.062Z</time></trkpt><trkpt lat="44.7334617" lon="8.0941217"><ele>162.0</ele><time>2026-04-12T08:27:26.063Z</time></trkpt><trkpt lat="44.7333433" lon="8.094095"><ele>162.5</ele><time>2026-04-12T08:27:28.063Z</time></trkpt><trkpt lat="44.7332233" lon="8.0940817"><ele>163.0</ele><time>2026-04-12T08:27:30.064Z</time></trkpt><trkpt lat="44.7331" lon="8.0940833"><ele>163.5</ele><time>2026-04-12T08:27:32.063Z</time></trkpt><trkpt lat="44.732975" lon="8.09409"><ele>164.0</ele><time>2026-04-12T08:27:34.063Z</time></trkpt><trkpt lat="44.7328533" lon="8.0941033"><ele>164.0</ele><time>2026-04-12T08:27:36.067Z</time></trkpt><trkpt lat="44.73273" lon="8.094115"><ele>164.0</ele><time>2026-04-12T08:27:38.064Z</time></trkpt><trkpt lat="44.732665" lon="8.0941183"><ele>164.0</ele><time>2026-04-12T08:27:39.064Z</time></trkpt><trkpt lat="44.7325433" lon="8.09413"><ele>164.0</ele><time>2026-04-12T08:27:41.063Z</time></trkpt><trkpt lat="44.73248" lon="8.094135"><ele>164.0</ele><time>2026-04-12T08:27:42.063Z</time></trkpt><trkpt lat="44.732415" lon="8.0941383"><ele>164.0</ele><time>2026-04-12T08:27:43.062Z</time></trkpt><trkpt lat="44.7322933" lon="8.09415"><ele>164.39999999999998</ele><time>2026-04-12T08:27:45.066Z</time></trkpt><trkpt lat="44.73217" lon="8.09416"><ele>164.8</ele><time>2026-04-12T08:27:47.061Z</time></trkpt><trkpt lat="44.7321067" lon="8.094165"><ele>165.2</ele><time>2026-04-12T08:27:48.062Z</time></trkpt><trkpt lat="44.7320433" lon="8.09417"><ele>165.60000000000002</ele><time>2026-04-12T08:27:49.063Z</time></trkpt><trkpt lat="44.73192" lon="8.0941833"><ele>166.0</ele><time>2026-04-12T08:27:51.063Z</time></trkpt><trkpt lat="44.7317967" lon="8.0941933"><ele>167.0</ele><time>2026-04-12T08:27:53.064Z</time></trkpt><trkpt lat="44.7316767" lon="8.0942083"><ele>168.0</ele><time>2026-04-12T08:27:55.062Z</time></trkpt><trkpt lat="44.7315583" lon="8.0942217"><ele>169.0</ele><time>2026-04-12T08:27:57.065Z</time></trkpt><trkpt lat="44.73144" lon="8.0942317"><ele>170.0</ele><time>2026-04-12T08:27:59.063Z</time></trkpt><trkpt lat="44.7313217" lon="8.09424"><ele>170.0</ele><time>2026-04-12T08:28:01.061Z</time></trkpt><trkpt lat="44.7312017" lon="8.09425"><ele>170.0</ele><time>2026-04-12T08:28:03.063Z</time></trkpt><trkpt lat="44.73108" lon="8.0942633"><ele>170.0</ele><time>2026-04-12T08:28:05.063Z</time></trkpt><trkpt lat="44.7309617" lon="8.0942783"><ele>170.0</ele><time>2026-04-12T08:28:07.064Z</time></trkpt><trkpt lat="44.7308383" lon="8.0942917"><ele>169.75</ele><time>2026-04-12T08:28:09.064Z</time></trkpt><trkpt lat="44.73072" lon="8.094305"><ele>169.5</ele><time>2026-04-12T08:28:11.067Z</time></trkpt><trkpt lat="44.7306033" lon="8.094315"><ele>169.25</ele><time>2026-04-12T08:28:13.062Z</time></trkpt><trkpt lat="44.7304883" lon="8.0942933"><ele>169.0</ele><time>2026-04-12T08:28:15.065Z</time></trkpt><trkpt lat="44.7304167" lon="8.0941817"><ele>169.79999999999998</ele><time>2026-04-12T08:28:17.062Z</time></trkpt><trkpt lat="44.7304" lon="8.0940217"><ele>170.6</ele><time>2026-04-12T08:28:19.067Z</time></trkpt><trkpt lat="44.730415" lon="8.0938767"><ele>171.4</ele><time>2026-04-12T08:28:21.063Z</time></trkpt><trkpt lat="44.7304233" lon="8.0937467"><ele>172.2</ele><time>2026-04-12T08:28:23.064Z</time></trkpt><trkpt lat="44.7304233" lon="8.0936383"><ele>173.0</ele><time>2026-04-12T08:28:25.064Z</time></trkpt><trkpt lat="44.7304233" lon="8.09351"><ele>173.0</ele><time>2026-04-12T08:28:28.06Z</time></trkpt><trkpt lat="44.730435" lon="8.09339"><ele>173.0</ele><time>2026-04-12T08:28:31.056Z</time></trkpt><trkpt lat="44.730435" lon="8.0932967"><ele>173.0</ele><time>2026-04-12T08:28:34.061Z</time></trkpt><trkpt lat="44.7304617" lon="8.0931983"><ele>173.0</ele><time>2026-04-12T08:28:37.061Z</time></trkpt><trkpt lat="44.7305083" lon="8.093105"><ele>173.0</ele><time>2026-04-12T08:28:40.056Z</time></trkpt><trkpt lat="44.73056" lon="8.093045"><ele>173.0</ele><time>2026-04-12T08:28:42.059Z</time></trkpt><trkpt lat="44.7306183" lon="8.09299"><ele>173.0</ele><time>2026-04-12T08:28:44.061Z</time></trkpt><trkpt lat="44.7306967" lon="8.0929417"><ele>173.5</ele><time>2026-04-12T08:28:47.061Z</time></trkpt><trkpt lat="44.7307783" lon="8.0929067"><ele>174.0</ele><time>2026-04-12T08:28:50.062Z</time></trkpt><trkpt lat="44.7308533" lon="8.0928767"><ele>174.5</ele><time>2026-04-12T08:28:53.062Z</time></trkpt><trkpt lat="44.7309233" lon="8.09284"><ele>175.0</ele><time>2026-04-12T08:28:56.064Z</time></trkpt><trkpt lat="44.73099" lon="8.0927967"><ele>175.5</ele><time>2026-04-12T08:28:59.061Z</time></trkpt><trkpt lat="44.7310717" lon="8.09274"><ele>176.0</ele><time>2026-04-12T08:29:02.062Z</time></trkpt><trkpt lat="44.73114" lon="8.0926733"><ele>176.0</ele><time>2026-04-12T08:29:05.06Z</time></trkpt><trkpt lat="44.7312083" lon="8.0926083"><ele>176.0</ele><time>2026-04-12T08:29:08.06Z</time></trkpt><trkpt lat="44.7312783" lon="8.09253"><ele>176.0</ele><time>2026-04-12T08:29:11.061Z</time></trkpt><trkpt lat="44.7313283" lon="8.09247"><ele>176.0</ele><time>2026-04-12T08:29:13.065Z</time></trkpt><trkpt lat="44.7313783" lon="8.0924083"><ele>176.0</ele><time>2026-04-12T08:29:15.066Z</time></trkpt><trkpt lat="44.731425" lon="8.0923467"><ele>176.0</ele><time>2026-04-12T08:29:17.065Z</time></trkpt><trkpt lat="44.7314917" lon="8.0922633"><ele>178.33333333333331</ele><time>2026-04-12T08:29:20.061Z</time></trkpt><trkpt lat="44.73156" lon="8.0921833"><ele>180.66666666666666</ele><time>2026-04-12T08:29:23.063Z</time></trkpt><trkpt lat="44.731635" lon="8.0921033"><ele>183.0</ele><time>2026-04-12T08:29:26.064Z</time></trkpt><trkpt lat="44.7316867" lon="8.0920417"><ele>185.33333333333334</ele><time>2026-04-12T08:29:28.067Z</time></trkpt><trkpt lat="44.731735" lon="8.0919783"><ele>187.66666666666669</ele><time>2026-04-12T08:29:30.068Z</time></trkpt><trkpt lat="44.731815" lon="8.0919133"><ele>190.0</ele><time>2026-04-12T08:29:33.062Z</time></trkpt><trkpt lat="44.7318933" lon="8.0918717"><ele>190.5</ele><time>2026-04-12T08:29:36.063Z</time></trkpt><trkpt lat="44.731975" lon="8.0918467"><ele>191.0</ele><time>2026-04-12T08:29:39.063Z</time></trkpt><trkpt lat="44.7320533" lon="8.0918367"><ele>191.5</ele><time>2026-04-12T08:29:42.063Z</time></trkpt><trkpt lat="44.7321283" lon="8.0918233"><ele>192.0</ele><time>2026-04-12T08:29:45.064Z</time></trkpt><trkpt lat="44.7322033" lon="8.0917983"><ele>192.49999999999997</ele><time>2026-04-12T08:29:48.064Z</time></trkpt><trkpt lat="44.7322717" lon="8.0917817"><ele>193.0</ele><time>2026-04-12T08:29:51.064Z</time></trkpt><trkpt lat="44.732335" lon="8.0917567"><ele>193.00000000000003</ele><time>2026-04-12T08:29:54.063Z</time></trkpt><trkpt lat="44.7324017" lon="8.09173"><ele>193.0</ele><time>2026-04-12T08:29:57.064Z</time></trkpt><trkpt lat="44.73246" lon="8.09168"><ele>193.0</ele><time>2026-04-12T08:30:00.063Z</time></trkpt><trkpt lat="44.7325133" lon="8.09162"><ele>193.0</ele><time>2026-04-12T08:30:03.065Z</time></trkpt><trkpt lat="44.73257" lon="8.091565"><ele>193.0</ele><time>2026-04-12T08:30:06.063Z</time></trkpt><trkpt lat="44.732615" lon="8.0914917"><ele>193.00000000000003</ele><time>2026-04-12T08:30:09.064Z</time></trkpt><trkpt lat="44.7326633" lon="8.091415"><ele>193.0</ele><time>2026-04-12T08:30:12.063Z</time></trkpt><trkpt lat="44.7327083" lon="8.0913417"><ele>193.2857142857143</ele><time>2026-04-12T08:30:15.064Z</time></trkpt><trkpt lat="44.7327567" lon="8.0912633"><ele>193.57142857142858</ele><time>2026-04-12T08:30:18.063Z</time></trkpt><trkpt lat="44.7328033" lon="8.09119"><ele>193.85714285714286</ele><time>2026-04-12T08:30:21.063Z</time></trkpt><trkpt lat="44.732855" lon="8.0911183"><ele>194.14285714285717</ele><time>2026-04-12T08:30:24.061Z</time></trkpt><trkpt lat="44.7329067" lon="8.0910467"><ele>194.42857142857142</ele><time>2026-04-12T08:30:27.066Z</time></trkpt><trkpt lat="44.732955" lon="8.0909767"><ele>194.71428571428572</ele><time>2026-04-12T08:30:30.063Z</time></trkpt><trkpt lat="44.7330033" lon="8.0909133"><ele>195.0</ele><time>2026-04-12T08:30:33.064Z</time></trkpt><trkpt lat="44.733055" lon="8.0908517"><ele>195.0</ele><time>2026-04-12T08:30:36.064Z</time></trkpt><trkpt lat="44.7331183" lon="8.09078"><ele>195.0</ele><time>2026-04-12T08:30:39.063Z</time></trkpt><trkpt lat="44.73318" lon="8.090715"><ele>195.0</ele><time>2026-04-12T08:30:42.061Z</time></trkpt><trkpt lat="44.7332433" lon="8.090655"><ele>195.0</ele><time>2026-04-12T08:30:45.065Z</time></trkpt><trkpt lat="44.7333033" lon="8.0905767"><ele>195.0</ele><time>2026-04-12T08:30:48.062Z</time></trkpt><trkpt lat="44.733365" lon="8.0904933"><ele>195.0</ele><time>2026-04-12T08:30:51.064Z</time></trkpt><trkpt lat="44.7334267" lon="8.0904083"><ele>197.66666666666666</ele><time>2026-04-12T08:30:54.065Z</time></trkpt><trkpt lat="44.7335017" lon="8.0903417"><ele>200.33333333333331</ele><time>2026-04-12T08:30:57.063Z</time></trkpt><trkpt lat="44.7335717" lon="8.0902667"><ele>203.0</ele><time>2026-04-12T08:31:00.063Z</time></trkpt><trkpt lat="44.7336417" lon="8.09019"><ele>205.66666666666666</ele><time>2026-04-12T08:31:03.065Z</time></trkpt><trkpt lat="44.73371" lon="8.09011"><ele>208.33333333333331</ele><time>2026-04-12T08:31:06.063Z</time></trkpt><trkpt lat="44.7337633" lon="8.09006"><ele>211.0</ele><time>2026-04-12T08:31:08.063Z</time></trkpt><trkpt lat="44.7338417" lon="8.0900033"><ele>210.99999999999997</ele><time>2026-04-12T08:31:11.062Z</time></trkpt><trkpt lat="44.733925" lon="8.0899617"><ele>211.0</ele><time>2026-04-12T08:31:14.064Z</time></trkpt><trkpt lat="44.7340033" lon="8.0899517"><ele>211.0</ele><time>2026-04-12T08:31:17.061Z</time></trkpt><trkpt lat="44.73408" lon="8.0899483"><ele>211.0</ele><time>2026-04-12T08:31:20.062Z</time></trkpt><trkpt lat="44.7341617" lon="8.0899767"><ele>210.99999999999997</ele><time>2026-04-12T08:31:23.06Z</time></trkpt><trkpt lat="44.7342367" lon="8.0900217"><ele>211.0</ele><time>2026-04-12T08:31:26.065Z</time></trkpt><trkpt lat="44.7343133" lon="8.0900617"><ele>210.99999999999997</ele><time>2026-04-12T08:31:29.061Z</time></trkpt><trkpt lat="44.734385" lon="8.0901"><ele>211.0</ele><time>2026-04-12T08:31:32.065Z</time></trkpt><trkpt lat="44.7344633" lon="8.090135"><ele>211.0</ele><time>2026-04-12T08:31:35.062Z</time></trkpt><trkpt lat="44.7345417" lon="8.0901683"><ele>211.0</ele><time>2026-04-12T08:31:38.066Z</time></trkpt><trkpt lat="44.734625" lon="8.0901817"><ele>210.99999999999997</ele><time>2026-04-12T08:31:41.063Z</time></trkpt><trkpt lat="44.7347083" lon="8.09018"><ele>211.0</ele><time>2026-04-12T08:31:44.066Z</time></trkpt><trkpt lat="44.734775" lon="8.09016"><ele>211.42857142857144</ele><time>2026-04-12T08:31:46.064Z</time></trkpt><trkpt lat="44.734835" lon="8.0901183"><ele>211.85714285714286</ele><time>2026-04-12T08:31:48.061Z</time></trkpt><trkpt lat="44.73489" lon="8.09006"><ele>212.28571428571428</ele><time>2026-04-12T08:31:50.063Z</time></trkpt><trkpt lat="44.73494" lon="8.0899933"><ele>212.71428571428572</ele><time>2026-04-12T08:31:52.063Z</time></trkpt><trkpt lat="44.734985" lon="8.0899183"><ele>213.14285714285714</ele><time>2026-04-12T08:31:54.063Z</time></trkpt><trkpt lat="44.73503" lon="8.0898383"><ele>213.57142857142858</ele><time>2026-04-12T08:31:56.063Z</time></trkpt><trkpt lat="44.7350717" lon="8.0897583"><ele>214.0</ele><time>2026-04-12T08:31:58.063Z</time></trkpt><trkpt lat="44.735115" lon="8.0896833"><ele>215.16666666666666</ele><time>2026-04-12T08:32:00.063Z</time></trkpt><trkpt lat="44.7351583" lon="8.089615"><ele>216.33333333333331</ele><time>2026-04-12T08:32:02.062Z</time></trkpt><trkpt lat="44.735225" lon="8.0895267"><ele>217.5</ele><time>2026-04-12T08:32:05.066Z</time></trkpt><trkpt lat="44.7352967" lon="8.089445"><ele>218.66666666666669</ele><time>2026-04-12T08:32:08.063Z</time></trkpt><trkpt lat="44.73538" lon="8.08939"><ele>219.83333333333334</ele><time>2026-04-12T08:32:11.062Z</time></trkpt><trkpt lat="44.7354667" lon="8.08934"><ele>221.0</ele><time>2026-04-12T08:32:14.066Z</time></trkpt><trkpt lat="44.735525" lon="8.0893017"><ele>221.00000000000003</ele><time>2026-04-12T08:32:16.063Z</time></trkpt><trkpt lat="44.73561" lon="8.0892467"><ele>221.0</ele><time>2026-04-12T08:32:19.064Z</time></trkpt><trkpt lat="44.7356683" lon="8.0892083"><ele>221.0</ele><time>2026-04-12T08:32:21.064Z</time></trkpt><trkpt lat="44.7357267" lon="8.0891683"><ele>221.0</ele><time>2026-04-12T08:32:23.063Z</time></trkpt><trkpt lat="44.7358133" lon="8.089115"><ele>221.0</ele><time>2026-04-12T08:32:26.063Z</time></trkpt><trkpt lat="44.735875" lon="8.0890817"><ele>221.00000000000003</ele><time>2026-04-12T08:32:28.063Z</time></trkpt><trkpt lat="44.7359317" lon="8.0890367"><ele>221.0</ele><time>2026-04-12T08:32:30.064Z</time></trkpt><trkpt lat="44.7359933" lon="8.0889467"><ele>222.42857142857144</ele><time>2026-04-12T08:32:33.063Z</time></trkpt><trkpt lat="44.7360217" lon="8.0888617"><ele>223.85714285714286</ele><time>2026-04-12T08:32:35.061Z</time></trkpt><trkpt lat="44.736035" lon="8.0887733"><ele>225.28571428571428</ele><time>2026-04-12T08:32:37.065Z</time></trkpt><trkpt lat="44.736025" lon="8.0886817"><ele>226.71428571428572</ele><time>2026-04-12T08:32:39.063Z</time></trkpt><trkpt lat="44.73599" lon="8.088595"><ele>228.14285714285714</ele><time>2026-04-12T08:32:41.062Z</time></trkpt><trkpt lat="44.73594" lon="8.0884833"><ele>229.57142857142858</ele><time>2026-04-12T08:32:44.063Z</time></trkpt><trkpt lat="44.7359267" lon="8.088395"><ele>231.0</ele><time>2026-04-12T08:32:46.063Z</time></trkpt><trkpt lat="44.73592" lon="8.0882917"><ele>230.83333333333334</ele><time>2026-04-12T08:32:48.065Z</time></trkpt><trkpt lat="44.7358933" lon="8.088195"><ele>230.66666666666669</ele><time>2026-04-12T08:32:50.062Z</time></trkpt><trkpt lat="44.7358517" lon="8.0881283"><ele>230.5</ele><time>2026-04-12T08:32:52.063Z</time></trkpt><trkpt lat="44.7357917" lon="8.0880483"><ele>230.33333333333334</ele><time>2026-04-12T08:32:55.064Z</time></trkpt><trkpt lat="44.7357333" lon="8.0879783"><ele>230.16666666666669</ele><time>2026-04-12T08:32:58.06Z</time></trkpt><trkpt lat="44.73567" lon="8.0879067"><ele>230.0</ele><time>2026-04-12T08:33:01.062Z</time></trkpt><trkpt lat="44.7356033" lon="8.0878517"><ele>229.99999999999997</ele><time>2026-04-12T08:33:04.061Z</time></trkpt><trkpt lat="44.73554" lon="8.0878183"><ele>230.0</ele><time>2026-04-12T08:33:07.063Z</time></trkpt><trkpt lat="44.7354617" lon="8.087795"><ele>229.99999999999997</ele><time>2026-04-12T08:33:11.062Z</time></trkpt><trkpt lat="44.7353817" lon="8.0877517"><ele>229.99999999999997</ele><time>2026-04-12T08:33:15.063Z</time></trkpt><trkpt lat="44.73532" lon="8.087725"><ele>230.0</ele><time>2026-04-12T08:33:18.062Z</time></trkpt><trkpt lat="44.735245" lon="8.0877067"><ele>229.99999999999997</ele><time>2026-04-12T08:33:23.061Z</time></trkpt><trkpt lat="44.7351817" lon="8.0876767"><ele>229.99999999999997</ele><time>2026-04-12T08:33:27.063Z</time></trkpt><trkpt lat="44.7351083" lon="8.087655"><ele>231.57142857142856</ele><time>2026-04-12T08:33:31.063Z</time></trkpt><trkpt lat="44.7350467" lon="8.0876183"><ele>233.14285714285714</ele><time>2026-04-12T08:33:35.062Z</time></trkpt><trkpt lat="44.734985" lon="8.087595"><ele>234.71428571428572</ele><time>2026-04-12T08:33:39.063Z</time></trkpt><trkpt lat="44.7349167" lon="8.0875667"><ele>236.28571428571428</ele><time>2026-04-12T08:33:43.066Z</time></trkpt><trkpt lat="44.7348533" lon="8.08754"><ele>237.8571428571429</ele><time>2026-04-12T08:33:47.063Z</time></trkpt><trkpt lat="44.734795" lon="8.087475"><ele>239.42857142857144</ele><time>2026-04-12T08:33:51.065Z</time></trkpt><trkpt lat="44.734725" lon="8.0874183"><ele>241.0</ele><time>2026-04-12T08:33:55.062Z</time></trkpt><trkpt lat="44.7346717" lon="8.0873533"><ele>241.0</ele><time>2026-04-12T08:33:59.063Z</time></trkpt><trkpt lat="44.7346133" lon="8.0872917"><ele>241.00000000000003</ele><time>2026-04-12T08:34:03.065Z</time></trkpt><trkpt lat="44.7345517" lon="8.087225"><ele>241.0</ele><time>2026-04-12T08:34:07.059Z</time></trkpt><trkpt lat="44.7344833" lon="8.08717"><ele>241.0</ele><time>2026-04-12T08:34:11.061Z</time></trkpt><trkpt lat="44.7344283" lon="8.0871017"><ele>241.00000000000003</ele><time>2026-04-12T08:34:15.061Z</time></trkpt><trkpt lat="44.7343817" lon="8.0870333"><ele>241.0</ele><time>2026-04-12T08:34:19.062Z</time></trkpt><trkpt lat="44.734315" lon="8.086985"><ele>241.0</ele><time>2026-04-12T08:34:23.063Z</time></trkpt><trkpt lat="44.7342633" lon="8.0869167"><ele>243.42857142857144</ele><time>2026-04-12T08:34:27.062Z</time></trkpt><trkpt lat="44.7342167" lon="8.0868567"><ele>245.8571428571429</ele><time>2026-04-12T08:34:30.061Z</time></trkpt><trkpt lat="44.7341567" lon="8.086815"><ele>248.28571428571428</ele><time>2026-04-12T08:34:34.061Z</time></trkpt><trkpt lat="44.734095" lon="8.0867767"><ele>250.71428571428572</ele><time>2026-04-12T08:34:38.062Z</time></trkpt><trkpt lat="44.734025" lon="8.0867483"><ele>253.14285714285714</ele><time>2026-04-12T08:34:42.062Z</time></trkpt><trkpt lat="44.7339583" lon="8.0867167"><ele>255.57142857142856</ele><time>2026-04-12T08:34:46.06Z</time></trkpt><trkpt lat="44.7338817" lon="8.0866817"><ele>258.0</ele><time>2026-04-12T08:34:50.062Z</time></trkpt><trkpt lat="44.73381" lon="8.0866467"><ele>257.99999999999994</ele><time>2026-04-12T08:34:54.062Z</time></trkpt><trkpt lat="44.7337367" lon="8.086635"><ele>258.0</ele><time>2026-04-12T08:34:58.062Z</time></trkpt><trkpt lat="44.73367" lon="8.0865917"><ele>258.0</ele><time>2026-04-12T08:35:02.066Z</time></trkpt><trkpt lat="44.7335967" lon="8.0865617"><ele>258.0</ele><time>2026-04-12T08:35:06.061Z</time></trkpt><trkpt lat="44.7335183" lon="8.08653"><ele>258.0</ele><time>2026-04-12T08:35:10.064Z</time></trkpt><trkpt lat="44.73345" lon="8.0865133"><ele>257.99999999999994</ele><time>2026-04-12T08:35:13.061Z</time></trkpt><trkpt lat="44.7333867" lon="8.086475"><ele>258.0</ele><time>2026-04-12T08:35:16.061Z</time></trkpt><trkpt lat="44.73331" lon="8.0864467"><ele>258.0</ele><time>2026-04-12T08:35:19.061Z</time></trkpt><trkpt lat="44.7332233" lon="8.0864217"><ele>258.0</ele><time>2026-04-12T08:35:22.068Z</time></trkpt><trkpt lat="44.7331333" lon="8.0863917"><ele>258.0</ele><time>2026-04-12T08:35:25.061Z</time></trkpt><trkpt lat="44.7330467" lon="8.0863533"><ele>258.0</ele><time>2026-04-12T08:35:28.06Z</time></trkpt><trkpt lat="44.73296" lon="8.0863333"><ele>258.0</ele><time>2026-04-12T08:35:31.063Z</time></trkpt><trkpt lat="44.732875" lon="8.0863233"><ele>258.0</ele><time>2026-04-12T08:35:34.064Z</time></trkpt><trkpt lat="44.7328083" lon="8.0862917"><ele>258.0</ele><time>2026-04-12T08:35:37.063Z</time></trkpt><trkpt lat="44.7327317" lon="8.086295"><ele>258.0</ele><time>2026-04-12T08:35:40.058Z</time></trkpt><trkpt lat="44.7326" lon="8.08628"><ele>258.0</ele><time>2026-04-12T08:35:45.095Z</time></trkpt><trkpt lat="44.732525" lon="8.0862817"><ele>258.0</ele><time>2026-04-12T08:35:48.065Z</time></trkpt><trkpt lat="44.7324467" lon="8.0862683"><ele>258.0</ele><time>2026-04-12T08:35:51.072Z</time></trkpt><trkpt lat="44.7323617" lon="8.086275"><ele>258.0</ele><time>2026-04-12T08:35:54.063Z</time></trkpt><trkpt lat="44.7322833" lon="8.08629"><ele>259.5</ele><time>2026-04-12T08:35:57.06Z</time></trkpt><trkpt lat="44.7322" lon="8.0862717"><ele>261.0</ele><time>2026-04-12T08:36:00.057Z</time></trkpt><trkpt lat="44.7321083" lon="8.0862717"><ele>262.5</ele><time>2026-04-12T08:36:03.056Z</time></trkpt><trkpt lat="44.7320217" lon="8.0862817"><ele>264.0</ele><time>2026-04-12T08:36:06.055Z</time></trkpt><trkpt lat="44.7319383" lon="8.0862817"><ele>265.5</ele><time>2026-04-12T08:36:09.066Z</time></trkpt><trkpt lat="44.7318533" lon="8.0862917"><ele>267.0</ele><time>2026-04-12T08:36:12.057Z</time></trkpt><trkpt lat="44.7317717" lon="8.0863017"><ele>267.1666666666667</ele><time>2026-04-12T08:36:15.057Z</time></trkpt><trkpt lat="44.731695" lon="8.08631"><ele>267.3333333333333</ele><time>2026-04-12T08:36:18.059Z</time></trkpt><trkpt lat="44.7316217" lon="8.0863383"><ele>267.5</ele><time>2026-04-12T08:36:21.064Z</time></trkpt><trkpt lat="44.7315367" lon="8.0863567"><ele>267.66666666666663</ele><time>2026-04-12T08:36:24.062Z</time></trkpt><trkpt lat="44.731455" lon="8.0864167"><ele>267.8333333333333</ele><time>2026-04-12T08:36:27.066Z</time></trkpt><trkpt lat="44.7313917" lon="8.086445"><ele>268.0</ele><time>2026-04-12T08:36:29.062Z</time></trkpt><trkpt lat="44.7313183" lon="8.086465"><ele>268.0</ele><time>2026-04-12T08:36:31.065Z</time></trkpt><trkpt lat="44.7312283" lon="8.0865"><ele>268.0</ele><time>2026-04-12T08:36:33.064Z</time></trkpt><trkpt lat="44.7311183" lon="8.0865483"><ele>268.0</ele><time>2026-04-12T08:36:35.058Z</time></trkpt><trkpt lat="44.7309983" lon="8.086595"><ele>268.0</ele><time>2026-04-12T08:36:37.062Z</time></trkpt><trkpt lat="44.7309333" lon="8.0866167"><ele>268.0</ele><time>2026-04-12T08:36:38.063Z</time></trkpt><trkpt lat="44.7308617" lon="8.08663"><ele>269.0</ele><time>2026-04-12T08:36:39.063Z</time></trkpt><trkpt lat="44.730795" lon="8.08664"><ele>270.0</ele><time>2026-04-12T08:36:40.061Z</time></trkpt><trkpt lat="44.7307183" lon="8.0866467"><ele>271.0</ele><time>2026-04-12T08:36:41.062Z</time></trkpt><trkpt lat="44.7306433" lon="8.0866533"><ele>272.0</ele><time>2026-04-12T08:36:42.058Z</time></trkpt><trkpt lat="44.7305717" lon="8.0866533"><ele>273.0</ele><time>2026-04-12T08:36:43.063Z</time></trkpt><trkpt lat="44.730495" lon="8.08666"><ele>274.0</ele><time>2026-04-12T08:36:44.061Z</time></trkpt><trkpt lat="44.7304183" lon="8.0866633"><ele>275.0</ele><time>2026-04-12T08:36:45.069Z</time></trkpt><trkpt lat="44.73034" lon="8.0866633"><ele>275.0</ele><time>2026-04-12T08:36:46.066Z</time></trkpt><trkpt lat="44.73026" lon="8.0866517"><ele>275.0</ele><time>2026-04-12T08:36:47.062Z</time></trkpt><trkpt lat="44.7301817" lon="8.0866383"><ele>275.0</ele><time>2026-04-12T08:36:48.064Z</time></trkpt><trkpt lat="44.7301017" lon="8.0866217"><ele>275.0</ele><time>2026-04-12T08:36:49.065Z</time></trkpt><trkpt lat="44.7300233" lon="8.086605"><ele>275.0</ele><time>2026-04-12T08:36:50.064Z</time></trkpt><trkpt lat="44.7299467" lon="8.0865883"><ele>275.0</ele><time>2026-04-12T08:36:51.062Z</time></trkpt><trkpt lat="44.7298617" lon="8.086575"><ele>272.0</ele><time>2026-04-12T08:36:52.063Z</time></trkpt><trkpt lat="44.729775" lon="8.0865683"><ele>269.0</ele><time>2026-04-12T08:36:53.062Z</time></trkpt><trkpt lat="44.7296867" lon="8.0865583"><ele>266.0</ele><time>2026-04-12T08:36:54.066Z</time></trkpt><trkpt lat="44.7295967" lon="8.08655"><ele>263.0</ele><time>2026-04-12T08:36:55.067Z</time></trkpt><trkpt lat="44.7295033" lon="8.0865417"><ele>260.0</ele><time>2026-04-12T08:36:56.066Z</time></trkpt><trkpt lat="44.7294067" lon="8.086535"><ele>258.4</ele><time>2026-04-12T08:36:57.064Z</time></trkpt><trkpt lat="44.7293033" lon="8.0865217"><ele>256.8</ele><time>2026-04-12T08:36:58.063Z</time></trkpt><trkpt lat="44.729205" lon="8.086505"><ele>255.2</ele><time>2026-04-12T08:36:59.06Z</time></trkpt><trkpt lat="44.7291083" lon="8.0864833"><ele>253.6</ele><time>2026-04-12T08:37:00.065Z</time></trkpt><trkpt lat="44.7290117" lon="8.0864617"><ele>252.0</ele><time>2026-04-12T08:37:01.063Z</time></trkpt><trkpt lat="44.7289167" lon="8.0864317"><ele>252.0</ele><time>2026-04-12T08:37:02.061Z</time></trkpt><trkpt lat="44.7288267" lon="8.086395"><ele>252.0</ele><time>2026-04-12T08:37:03.065Z</time></trkpt><trkpt lat="44.72874" lon="8.0863483"><ele>252.0</ele><time>2026-04-12T08:37:04.062Z</time></trkpt><trkpt lat="44.7286567" lon="8.0862883"><ele>252.0</ele><time>2026-04-12T08:37:05.063Z</time></trkpt><trkpt lat="44.7285667" lon="8.08623"><ele>252.0</ele><time>2026-04-12T08:37:06.066Z</time></trkpt><trkpt lat="44.728485" lon="8.0861733"><ele>253.0</ele><time>2026-04-12T08:37:07.064Z</time></trkpt><trkpt lat="44.7284083" lon="8.0861167"><ele>254.0</ele><time>2026-04-12T08:37:08.066Z</time></trkpt><trkpt lat="44.7283317" lon="8.0860533"><ele>255.0</ele><time>2026-04-12T08:37:09.062Z</time></trkpt><trkpt lat="44.7282583" lon="8.0859933"><ele>256.0</ele><time>2026-04-12T08:37:10.069Z</time></trkpt><trkpt lat="44.7281867" lon="8.0859333"><ele>257.0</ele><time>2026-04-12T08:37:11.061Z</time></trkpt><trkpt lat="44.7281167" lon="8.085875"><ele>258.0</ele><time>2026-04-12T08:37:12.062Z</time></trkpt><trkpt lat="44.7280517" lon="8.0858183"><ele>257.99999999999994</ele><time>2026-04-12T08:37:13.064Z</time></trkpt><trkpt lat="44.727985" lon="8.0857717"><ele>258.0</ele><time>2026-04-12T08:37:14.062Z</time></trkpt><trkpt lat="44.7279167" lon="8.08573"><ele>258.0</ele><time>2026-04-12T08:37:15.064Z</time></trkpt><trkpt lat="44.7278533" lon="8.0856917"><ele>258.0</ele><time>2026-04-12T08:37:16.061Z</time></trkpt><trkpt lat="44.7277917" lon="8.08566"><ele>258.0</ele><time>2026-04-12T08:37:17.063Z</time></trkpt><trkpt lat="44.7277317" lon="8.0856283"><ele>257.99999999999994</ele><time>2026-04-12T08:37:18.061Z</time></trkpt><trkpt lat="44.7276717" lon="8.0856"><ele>258.0</ele><time>2026-04-12T08:37:19.062Z</time></trkpt><trkpt lat="44.7275583" lon="8.08554"><ele>258.2</ele><time>2026-04-12T08:37:21.063Z</time></trkpt><trkpt lat="44.7274517" lon="8.0854767"><ele>258.4</ele><time>2026-04-12T08:37:23.065Z</time></trkpt><trkpt lat="44.727355" lon="8.08542"><ele>258.59999999999997</ele><time>2026-04-12T08:37:25.063Z</time></trkpt><trkpt lat="44.7272583" lon="8.08537"><ele>258.8</ele><time>2026-04-12T08:37:27.062Z</time></trkpt><trkpt lat="44.7271583" lon="8.085325"><ele>259.0</ele><time>2026-04-12T08:37:29.064Z</time></trkpt><trkpt lat="44.7270633" lon="8.085275"><ele>259.0</ele><time>2026-04-12T08:37:31.065Z</time></trkpt><trkpt lat="44.7269683" lon="8.0852283"><ele>259.0</ele><time>2026-04-12T08:37:33.061Z</time></trkpt><trkpt lat="44.7268767" lon="8.0851833"><ele>259.0</ele><time>2026-04-12T08:37:35.066Z</time></trkpt><trkpt lat="44.726785" lon="8.0851433"><ele>259.0</ele><time>2026-04-12T08:37:37.067Z</time></trkpt><trkpt lat="44.7266983" lon="8.0851033"><ele>259.0</ele><time>2026-04-12T08:37:39.063Z</time></trkpt><trkpt lat="44.7265983" lon="8.0850617"><ele>259.59999999999997</ele><time>2026-04-12T08:37:41.063Z</time></trkpt><trkpt lat="44.7265083" lon="8.0850217"><ele>260.2</ele><time>2026-04-12T08:37:43.063Z</time></trkpt><trkpt lat="44.7264183" lon="8.08499"><ele>260.79999999999995</ele><time>2026-04-12T08:37:45.067Z</time></trkpt><trkpt lat="44.726335" lon="8.0849467"><ele>261.4</ele><time>2026-04-12T08:37:47.062Z</time></trkpt><trkpt lat="44.726245" lon="8.084905"><ele>262.0</ele><time>2026-04-12T08:37:49.064Z</time></trkpt><trkpt lat="44.726155" lon="8.084855"><ele>262.0</ele><time>2026-04-12T08:37:51.063Z</time></trkpt><trkpt lat="44.7260717" lon="8.0848133"><ele>262.0</ele><time>2026-04-12T08:37:53.066Z</time></trkpt><trkpt lat="44.7259817" lon="8.08477"><ele>262.0</ele><time>2026-04-12T08:37:55.064Z</time></trkpt><trkpt lat="44.7258917" lon="8.0847267"><ele>262.0</ele><time>2026-04-12T08:37:57.068Z</time></trkpt><trkpt lat="44.725805" lon="8.084685"><ele>262.0</ele><time>2026-04-12T08:37:59.061Z</time></trkpt><trkpt lat="44.7257217" lon="8.0846383"><ele>262.0</ele><time>2026-04-12T08:38:01.063Z</time></trkpt><trkpt lat="44.725655" lon="8.08458"><ele>262.0</ele><time>2026-04-12T08:38:03.064Z</time></trkpt><trkpt lat="44.7256017" lon="8.0844817"><ele>262.0</ele><time>2026-04-12T08:38:06.063Z</time></trkpt><trkpt lat="44.725555" lon="8.084385"><ele>262.0</ele><time>2026-04-12T08:38:10.064Z</time></trkpt><trkpt lat="44.72551" lon="8.0843183"><ele>262.0</ele><time>2026-04-12T08:38:13.063Z</time></trkpt><trkpt lat="44.7254683" lon="8.0842233"><ele>262.0</ele><time>2026-04-12T08:38:27.063Z</time></trkpt><trkpt lat="44.72543" lon="8.0840983"><ele>259.8</ele><time>2026-04-12T08:38:30.062Z</time></trkpt><trkpt lat="44.7253883" lon="8.0839717"><ele>257.6</ele><time>2026-04-12T08:38:32.064Z</time></trkpt><trkpt lat="44.7253367" lon="8.083835"><ele>255.40000000000003</ele><time>2026-04-12T08:38:34.062Z</time></trkpt><trkpt lat="44.7252833" lon="8.08369"><ele>253.20000000000002</ele><time>2026-04-12T08:38:36.063Z</time></trkpt><trkpt lat="44.7252317" lon="8.0835333"><ele>251.0</ele><time>2026-04-12T08:38:38.065Z</time></trkpt><trkpt lat="44.7252017" lon="8.08345"><ele>253.4285714285714</ele><time>2026-04-12T08:38:39.067Z</time></trkpt><trkpt lat="44.7251767" lon="8.083365"><ele>255.85714285714283</ele><time>2026-04-12T08:38:40.062Z</time></trkpt><trkpt lat="44.7251533" lon="8.083275"><ele>258.2857142857143</ele><time>2026-04-12T08:38:41.062Z</time></trkpt><trkpt lat="44.725135" lon="8.0831833"><ele>260.71428571428567</ele><time>2026-04-12T08:38:42.066Z</time></trkpt><trkpt lat="44.7251183" lon="8.08309"><ele>263.1428571428571</ele><time>2026-04-12T08:38:43.064Z</time></trkpt><trkpt lat="44.7251033" lon="8.0829917"><ele>265.57142857142856</ele><time>2026-04-12T08:38:44.065Z</time></trkpt><trkpt lat="44.72509" lon="8.0828933"><ele>268.0</ele><time>2026-04-12T08:38:45.066Z</time></trkpt><trkpt lat="44.7250767" lon="8.082785"><ele>268.0</ele><time>2026-04-12T08:38:46.06Z</time></trkpt><trkpt lat="44.7250667" lon="8.08268"><ele>268.0</ele><time>2026-04-12T08:38:47.064Z</time></trkpt><trkpt lat="44.725055" lon="8.0825667"><ele>268.0</ele><time>2026-04-12T08:38:48.066Z</time></trkpt><trkpt lat="44.7250467" lon="8.0824517"><ele>268.0</ele><time>2026-04-12T08:38:49.063Z</time></trkpt><trkpt lat="44.7250467" lon="8.0823367"><ele>268.0</ele><time>2026-04-12T08:38:50.064Z</time></trkpt><trkpt lat="44.7250433" lon="8.082215"><ele>268.0</ele><time>2026-04-12T08:38:51.07Z</time></trkpt><trkpt lat="44.7250417" lon="8.0820917"><ele>267.5</ele><time>2026-04-12T08:38:52.065Z</time></trkpt><trkpt lat="44.7250433" lon="8.0819683"><ele>267.0</ele><time>2026-04-12T08:38:53.065Z</time></trkpt><trkpt lat="44.7250517" lon="8.0818517"><ele>266.5</ele><time>2026-04-12T08:38:54.065Z</time></trkpt><trkpt lat="44.725055" lon="8.0817383"><ele>266.0</ele><time>2026-04-12T08:38:55.065Z</time></trkpt><trkpt lat="44.7250517" lon="8.0816283"><ele>265.5</ele><time>2026-04-12T08:38:56.066Z</time></trkpt><trkpt lat="44.7250467" lon="8.0815267"><ele>265.0</ele><time>2026-04-12T08:38:57.064Z</time></trkpt><trkpt lat="44.7250467" lon="8.0814367"><ele>264.4</ele><time>2026-04-12T08:38:58.064Z</time></trkpt><trkpt lat="44.7250617" lon="8.081285"><ele>263.8</ele><time>2026-04-12T08:39:00.064Z</time></trkpt><trkpt lat="44.7251" lon="8.0811583"><ele>263.2</ele><time>2026-04-12T08:39:02.064Z</time></trkpt><trkpt lat="44.7251517" lon="8.0810517"><ele>262.6</ele><time>2026-04-12T08:39:04.064Z</time></trkpt><trkpt lat="44.7252383" lon="8.080985"><ele>262.0</ele><time>2026-04-12T08:39:06.064Z</time></trkpt><trkpt lat="44.7253117" lon="8.08092"><ele>261.7142857142857</ele><time>2026-04-12T08:39:08.063Z</time></trkpt><trkpt lat="44.7253767" lon="8.0808483"><ele>261.42857142857144</ele><time>2026-04-12T08:39:10.066Z</time></trkpt><trkpt lat="44.7254267" lon="8.08078"><ele>261.14285714285717</ele><time>2026-04-12T08:39:13.064Z</time></trkpt><trkpt lat="44.7254967" lon="8.0807217"><ele>260.8571428571429</ele><time>2026-04-12T08:39:17.064Z</time></trkpt><trkpt lat="44.7255533" lon="8.0806633"><ele>260.57142857142856</ele><time>2026-04-12T08:39:21.064Z</time></trkpt><trkpt lat="44.7256217" lon="8.0806417"><ele>260.28571428571433</ele><time>2026-04-12T08:39:57.067Z</time></trkpt><trkpt lat="44.7256917" lon="8.080675"><ele>260.0</ele><time>2026-04-12T08:40:01.063Z</time></trkpt><trkpt lat="44.725755" lon="8.0806867"><ele>260.14285714285717</ele><time>2026-04-12T08:40:04.064Z</time></trkpt><trkpt lat="44.7258283" lon="8.0806783"><ele>260.2857142857143</ele><time>2026-04-12T08:40:07.065Z</time></trkpt><trkpt lat="44.7258983" lon="8.0806567"><ele>260.42857142857144</ele><time>2026-04-12T08:40:10.064Z</time></trkpt><trkpt lat="44.7259733" lon="8.0806367"><ele>260.57142857142856</ele><time>2026-04-12T08:40:13.066Z</time></trkpt><trkpt lat="44.7260383" lon="8.080615"><ele>260.7142857142857</ele><time>2026-04-12T08:40:16.064Z</time></trkpt><trkpt lat="44.72611" lon="8.080575"><ele>260.8571428571429</ele><time>2026-04-12T08:40:19.063Z</time></trkpt><trkpt lat="44.7261867" lon="8.0805517"><ele>261.0</ele><time>2026-04-12T08:40:22.066Z</time></trkpt><trkpt lat="44.7262717" lon="8.0805033"><ele>261.0</ele><time>2026-04-12T08:40:25.07Z</time></trkpt><trkpt lat="44.7263617" lon="8.08049"><ele>261.0</ele><time>2026-04-12T08:40:28.062Z</time></trkpt><trkpt lat="44.72645" lon="8.0804867"><ele>261.0</ele><time>2026-04-12T08:40:31.065Z</time></trkpt><trkpt lat="44.7265383" lon="8.080485"><ele>261.0</ele><time>2026-04-12T08:40:34.063Z</time></trkpt><trkpt lat="44.7266283" lon="8.080475"><ele>261.0</ele><time>2026-04-12T08:40:37.064Z</time></trkpt><trkpt lat="44.7267217" lon="8.0804617"><ele>261.0</ele><time>2026-04-12T08:40:40.063Z</time></trkpt><trkpt lat="44.7268167" lon="8.08045"><ele>261.0</ele><time>2026-04-12T08:40:43.062Z</time></trkpt><trkpt lat="44.72688" lon="8.0804467"><ele>261.0</ele><time>2026-04-12T08:40:45.063Z</time></trkpt><trkpt lat="44.726965" lon="8.08048"><ele>261.0</ele><time>2026-04-12T08:40:48.063Z</time></trkpt><trkpt lat="44.7270433" lon="8.0805417"><ele>261.0</ele><time>2026-04-12T08:40:51.062Z</time></trkpt><trkpt lat="44.72709" lon="8.080605"><ele>261.0</ele><time>2026-04-12T08:40:53.061Z</time></trkpt><trkpt lat="44.7271667" lon="8.0806767"><ele>260.1666666666667</ele><time>2026-04-12T08:40:56.064Z</time></trkpt><trkpt lat="44.727235" lon="8.0807467"><ele>259.3333333333333</ele><time>2026-04-12T08:40:59.064Z</time></trkpt><trkpt lat="44.7272017" lon="8.0806383"><ele>258.5</ele><time>2026-04-12T08:41:07.063Z</time></trkpt><trkpt lat="44.727145" lon="8.0805817"><ele>257.66666666666663</ele><time>2026-04-12T08:41:09.062Z</time></trkpt><trkpt lat="44.7270933" lon="8.080525"><ele>256.8333333333333</ele><time>2026-04-12T08:41:11.064Z</time></trkpt><trkpt lat="44.7270167" lon="8.0804617"><ele>256.0</ele><time>2026-04-12T08:41:14.062Z</time></trkpt><trkpt lat="44.72694" lon="8.080415"><ele>256.7142857142857</ele><time>2026-04-12T08:41:17.063Z</time></trkpt><trkpt lat="44.7268717" lon="8.0803983"><ele>257.4285714285714</ele><time>2026-04-12T08:41:19.064Z</time></trkpt><trkpt lat="44.7268" lon="8.080405"><ele>258.1428571428571</ele><time>2026-04-12T08:41:21.063Z</time></trkpt><trkpt lat="44.7267217" lon="8.0804133"><ele>258.85714285714283</ele><time>2026-04-12T08:41:23.06Z</time></trkpt><trkpt lat="44.72664" lon="8.0804133"><ele>259.57142857142856</ele><time>2026-04-12T08:41:25.062Z</time></trkpt><trkpt lat="44.7265683" lon="8.0804233"><ele>260.2857142857143</ele><time>2026-04-12T08:41:27.064Z</time></trkpt><trkpt lat="44.726495" lon="8.080445"><ele>261.0</ele><time>2026-04-12T08:41:29.063Z</time></trkpt><trkpt lat="44.7264017" lon="8.08047"><ele>261.0</ele><time>2026-04-12T08:41:32.063Z</time></trkpt><trkpt lat="44.7263383" lon="8.0804833"><ele>261.0</ele><time>2026-04-12T08:41:34.064Z</time></trkpt><trkpt lat="44.726225" lon="8.0805"><ele>261.0</ele><time>2026-04-12T08:41:36.062Z</time></trkpt><trkpt lat="44.7261583" lon="8.0805167"><ele>261.0</ele><time>2026-04-12T08:41:37.064Z</time></trkpt><trkpt lat="44.7260833" lon="8.0805383"><ele>261.0</ele><time>2026-04-12T08:41:38.063Z</time></trkpt><trkpt lat="44.7260033" lon="8.0805517"><ele>261.0</ele><time>2026-04-12T08:41:39.065Z</time></trkpt><trkpt lat="44.7258717" lon="8.0805733"><ele>260.0</ele><time>2026-04-12T08:41:40.06Z</time></trkpt><trkpt lat="44.7257817" lon="8.0805883"><ele>259.0</ele><time>2026-04-12T08:41:41.063Z</time></trkpt><trkpt lat="44.725705" lon="8.0806017"><ele>258.0</ele><time>2026-04-12T08:41:42.063Z</time></trkpt><trkpt lat="44.7255867" lon="8.08061"><ele>257.0</ele><time>2026-04-12T08:41:44.064Z</time></trkpt><trkpt lat="44.7254883" lon="8.080605"><ele>256.0</ele><time>2026-04-12T08:41:46.063Z</time></trkpt><trkpt lat="44.7253933" lon="8.0805983"><ele>256.0</ele><time>2026-04-12T08:41:48.062Z</time></trkpt><trkpt lat="44.72532" lon="8.0805867"><ele>255.99999999999997</ele><time>2026-04-12T08:41:50.062Z</time></trkpt><trkpt lat="44.7252467" lon="8.0805883"><ele>256.0</ele><time>2026-04-12T08:41:52.061Z</time></trkpt><trkpt lat="44.7251817" lon="8.080555"><ele>256.0</ele><time>2026-04-12T08:41:54.061Z</time></trkpt><trkpt lat="44.7251183" lon="8.0805167"><ele>255.99999999999997</ele><time>2026-04-12T08:41:56.06Z</time></trkpt><trkpt lat="44.72504" lon="8.0804833"><ele>256.0</ele><time>2026-04-12T08:41:58.062Z</time></trkpt><trkpt lat="44.724965" lon="8.0804417"><ele>256.0</ele><time>2026-04-12T08:42:00.065Z</time></trkpt><trkpt lat="44.7248917" lon="8.0803833"><ele>254.83333333333331</ele><time>2026-04-12T08:42:02.063Z</time></trkpt><trkpt lat="44.7248183" lon="8.08032"><ele>253.66666666666666</ele><time>2026-04-12T08:42:04.064Z</time></trkpt><trkpt lat="44.72474" lon="8.0802583"><ele>252.5</ele><time>2026-04-12T08:42:06.06Z</time></trkpt><trkpt lat="44.7246617" lon="8.0801867"><ele>251.33333333333331</ele><time>2026-04-12T08:42:08.062Z</time></trkpt><trkpt lat="44.7245883" lon="8.080125"><ele>250.16666666666666</ele><time>2026-04-12T08:42:10.063Z</time></trkpt><trkpt lat="44.7245117" lon="8.08008"><ele>249.0</ele><time>2026-04-12T08:42:12.062Z</time></trkpt><trkpt lat="44.7244383" lon="8.0800517"><ele>249.28571428571428</ele><time>2026-04-12T08:42:14.063Z</time></trkpt><trkpt lat="44.7243733" lon="8.0800433"><ele>249.57142857142856</ele><time>2026-04-12T08:42:16.062Z</time></trkpt><trkpt lat="44.72431" lon="8.0800433"><ele>249.85714285714283</ele><time>2026-04-12T08:42:18.061Z</time></trkpt><trkpt lat="44.7242417" lon="8.0800617"><ele>250.1428571428571</ele><time>2026-04-12T08:42:20.062Z</time></trkpt><trkpt lat="44.7241667" lon="8.0801033"><ele>250.42857142857142</ele><time>2026-04-12T08:42:22.066Z</time></trkpt><trkpt lat="44.72409" lon="8.0801567"><ele>250.71428571428567</ele><time>2026-04-12T08:42:24.063Z</time></trkpt><trkpt lat="44.72402" lon="8.0802"><ele>250.99999999999997</ele><time>2026-04-12T08:42:26.066Z</time></trkpt><trkpt lat="44.7239667" lon="8.0802533"><ele>251.00000000000003</ele><time>2026-04-12T08:42:28.064Z</time></trkpt><trkpt lat="44.7239117" lon="8.0803267"><ele>251.0</ele><time>2026-04-12T08:42:39.063Z</time></trkpt><trkpt lat="44.7239767" lon="8.08034"><ele>251.0</ele><time>2026-04-12T08:44:05.061Z</time></trkpt><trkpt lat="44.7240483" lon="8.0802617"><ele>251.0</ele><time>2026-04-12T08:44:08.063Z</time></trkpt><trkpt lat="44.7241233" lon="8.0802017"><ele>251.00000000000003</ele><time>2026-04-12T08:44:11.063Z</time></trkpt><trkpt lat="44.7242133" lon="8.0801617"><ele>251.0</ele><time>2026-04-12T08:44:14.061Z</time></trkpt><trkpt lat="44.7242817" lon="8.0801467"><ele>251.00000000000003</ele><time>2026-04-12T08:44:16.061Z</time></trkpt><trkpt lat="44.7243533" lon="8.0801433"><ele>251.0</ele><time>2026-04-12T08:44:18.06Z</time></trkpt><trkpt lat="44.7244183" lon="8.080145"><ele>251.0</ele><time>2026-04-12T08:44:20.062Z</time></trkpt><trkpt lat="44.724505" lon="8.0801783"><ele>251.0</ele><time>2026-04-12T08:44:23.06Z</time></trkpt><trkpt lat="44.7245633" lon="8.0802167"><ele>251.00000000000003</ele><time>2026-04-12T08:44:25.064Z</time></trkpt><trkpt lat="44.7246283" lon="8.0802933"><ele>251.0</ele><time>2026-04-12T08:44:28.062Z</time></trkpt><trkpt lat="44.7246067" lon="8.0803933"><ele>250.71428571428567</ele><time>2026-04-12T08:44:32.062Z</time></trkpt><trkpt lat="44.72454" lon="8.0804267"><ele>250.42857142857142</ele><time>2026-04-12T08:44:35.061Z</time></trkpt><trkpt lat="44.7244817" lon="8.08038"><ele>250.1428571428571</ele><time>2026-04-12T08:44:38.062Z</time></trkpt><trkpt lat="44.724485" lon="8.08029"><ele>249.85714285714283</ele><time>2026-04-12T08:44:58.06Z</time></trkpt><trkpt lat="44.7244117" lon="8.080275"><ele>249.57142857142856</ele><time>2026-04-12T08:45:05.062Z</time></trkpt><trkpt lat="44.7244958" lon="8.0803717"><ele>249.28571428571428</ele><time>2026-04-12T09:11:07.069Z</time></trkpt><trkpt lat="44.7245489" lon="8.0803225"><ele>249.0</ele><time>2026-04-12T09:11:10.095Z</time></trkpt><trkpt lat="44.7245519" lon="8.0802191"><ele>249.0</ele><time>2026-04-12T09:11:13.078Z</time></trkpt><trkpt lat="44.7245682" lon="8.0801236"><ele>249.0</ele><time>2026-04-12T09:11:16.065Z</time></trkpt><trkpt lat="44.7246166" lon="8.0800472"><ele>249.0</ele><time>2026-04-12T09:11:20.06Z</time></trkpt><trkpt lat="44.7245956" lon="8.0801461"><ele>249.0</ele><time>2026-04-12T09:13:08.061Z</time></trkpt><trkpt lat="44.7245406" lon="8.0801007"><ele>249.0</ele><time>2026-04-12T09:13:11.061Z</time></trkpt><trkpt lat="44.7244599" lon="8.0800888"><ele>249.0</ele><time>2026-04-12T09:13:14.105Z</time></trkpt><trkpt lat="44.7243801" lon="8.0801619"><ele>249.5</ele><time>2026-04-12T09:13:16.062Z</time></trkpt><trkpt lat="44.7242907" lon="8.0802478"><ele>250.0</ele><time>2026-04-12T09:13:18.12Z</time></trkpt><trkpt lat="44.7241176" lon="8.0802245"><ele>250.5</ele><time>2026-04-12T09:13:19.063Z</time></trkpt><trkpt lat="44.7239961" lon="8.0802401"><ele>251.0</ele><time>2026-04-12T09:13:20.065Z</time></trkpt><trkpt lat="44.7239211" lon="8.0802817"><ele>250.99999999999997</ele><time>2026-04-12T09:13:21.062Z</time></trkpt><trkpt lat="44.7238625" lon="8.0803324"><ele>251.0</ele><time>2026-04-12T09:13:22.066Z</time></trkpt><trkpt lat="44.7238081" lon="8.0803873"><ele>250.99999999999997</ele><time>2026-04-12T09:13:23.065Z</time></trkpt><trkpt lat="44.7237569" lon="8.0804472"><ele>250.99999999999997</ele><time>2026-04-12T09:13:24.064Z</time></trkpt><trkpt lat="44.7237097" lon="8.0805127"><ele>251.0</ele><time>2026-04-12T09:13:25.064Z</time></trkpt><trkpt lat="44.7236661" lon="8.0805869"><ele>250.99999999999997</ele><time>2026-04-12T09:13:26.066Z</time></trkpt><trkpt lat="44.7236284" lon="8.0806685"><ele>250.99999999999997</ele><time>2026-04-12T09:13:27.066Z</time></trkpt><trkpt lat="44.723595" lon="8.0807603"><ele>249.99999999999997</ele><time>2026-04-12T09:13:28.063Z</time></trkpt><trkpt lat="44.7235678" lon="8.080855"><ele>249.0</ele><time>2026-04-12T09:13:29.066Z</time></trkpt><trkpt lat="44.7235444" lon="8.0809545"><ele>247.99999999999997</ele><time>2026-04-12T09:13:30.064Z</time></trkpt><trkpt lat="44.7235229" lon="8.0810526"><ele>246.99999999999997</ele><time>2026-04-12T09:13:31.064Z</time></trkpt><trkpt lat="44.723498" lon="8.0811485"><ele>246.0</ele><time>2026-04-12T09:13:32.066Z</time></trkpt><trkpt lat="44.7234758" lon="8.081241"><ele>244.99999999999997</ele><time>2026-04-12T09:13:33.066Z</time></trkpt><trkpt lat="44.7234543" lon="8.0813369"><ele>243.99999999999997</ele><time>2026-04-12T09:13:34.065Z</time></trkpt><trkpt lat="44.7234317" lon="8.0814287"><ele>243.99999999999997</ele><time>2026-04-12T09:13:35.064Z</time></trkpt><trkpt lat="44.7234099" lon="8.0815216"><ele>244.0</ele><time>2026-04-12T09:13:36.06Z</time></trkpt><trkpt lat="44.7233913" lon="8.0816159"><ele>243.99999999999997</ele><time>2026-04-12T09:13:37.059Z</time></trkpt><trkpt lat="44.7233757" lon="8.0817109"><ele>243.99999999999997</ele><time>2026-04-12T09:13:38.064Z</time></trkpt><trkpt lat="44.7233578" lon="8.0818042"><ele>244.0</ele><time>2026-04-12T09:13:39.064Z</time></trkpt><trkpt lat="44.7233395" lon="8.0818934"><ele>243.99999999999997</ele><time>2026-04-12T09:13:40.064Z</time></trkpt><trkpt lat="44.7233223" lon="8.0819805"><ele>243.99999999999997</ele><time>2026-04-12T09:13:41.065Z</time></trkpt><trkpt lat="44.7232954" lon="8.0821436"><ele>245.2</ele><time>2026-04-12T09:13:43.07Z</time></trkpt><trkpt lat="44.7232664" lon="8.0822961"><ele>246.39999999999998</ele><time>2026-04-12T09:13:45.072Z</time></trkpt><trkpt lat="44.7232107" lon="8.0824273"><ele>247.6</ele><time>2026-04-12T09:13:47.063Z</time></trkpt><trkpt lat="44.7231434" lon="8.0825414"><ele>248.8</ele><time>2026-04-12T09:13:49.062Z</time></trkpt><trkpt lat="44.7230724" lon="8.0826469"><ele>250.0</ele><time>2026-04-12T09:13:51.063Z</time></trkpt><trkpt lat="44.722997" lon="8.0827412"><ele>248.6</ele><time>2026-04-12T09:13:53.063Z</time></trkpt><trkpt lat="44.722915" lon="8.0828167"><ele>247.2</ele><time>2026-04-12T09:13:55.063Z</time></trkpt><trkpt lat="44.7228367" lon="8.0828917"><ele>245.8</ele><time>2026-04-12T09:13:57.063Z</time></trkpt><trkpt lat="44.7227567" lon="8.0829683"><ele>244.4</ele><time>2026-04-12T09:13:59.061Z</time></trkpt><trkpt lat="44.7226867" lon="8.0830317"><ele>243.0</ele><time>2026-04-12T09:14:01.063Z</time></trkpt><trkpt lat="44.7226117" lon="8.083085"><ele>243.0</ele><time>2026-04-12T09:14:03.062Z</time></trkpt><trkpt lat="44.722535" lon="8.0831383"><ele>243.0</ele><time>2026-04-12T09:14:05.062Z</time></trkpt><trkpt lat="44.722475" lon="8.0831917"><ele>243.0</ele><time>2026-04-12T09:14:07.061Z</time></trkpt><trkpt lat="44.72239" lon="8.083255"><ele>243.0</ele><time>2026-04-12T09:14:10.06Z</time></trkpt><trkpt lat="44.72232" lon="8.0833283"><ele>243.0</ele><time>2026-04-12T09:14:13.062Z</time></trkpt><trkpt lat="44.722255" lon="8.0834067"><ele>243.0</ele><time>2026-04-12T09:14:16.063Z</time></trkpt><trkpt lat="44.722195" lon="8.08349"><ele>245.5</ele><time>2026-04-12T09:14:19.063Z</time></trkpt><trkpt lat="44.72213" lon="8.0835767"><ele>248.0</ele><time>2026-04-12T09:14:22.064Z</time></trkpt><trkpt lat="44.7220667" lon="8.0836617"><ele>250.5</ele><time>2026-04-12T09:14:25.064Z</time></trkpt><trkpt lat="44.7220083" lon="8.08375"><ele>253.0</ele><time>2026-04-12T09:14:28.062Z</time></trkpt><trkpt lat="44.7219433" lon="8.0838283"><ele>255.5</ele><time>2026-04-12T09:14:31.065Z</time></trkpt><trkpt lat="44.7218683" lon="8.083885"><ele>258.0</ele><time>2026-04-12T09:14:34.064Z</time></trkpt><trkpt lat="44.72178" lon="8.0839167"><ele>258.3333333333333</ele><time>2026-04-12T09:14:37.062Z</time></trkpt><trkpt lat="44.7216967" lon="8.0839033"><ele>258.6666666666667</ele><time>2026-04-12T09:14:40.062Z</time></trkpt><trkpt lat="44.7216117" lon="8.0838817"><ele>259.0</ele><time>2026-04-12T09:14:43.06Z</time></trkpt><trkpt lat="44.72155" lon="8.0838617"><ele>259.33333333333337</ele><time>2026-04-12T09:14:45.064Z</time></trkpt><trkpt lat="44.7214633" lon="8.0838367"><ele>259.6666666666667</ele><time>2026-04-12T09:14:48.063Z</time></trkpt><trkpt lat="44.7213817" lon="8.0838083"><ele>260.0</ele><time>2026-04-12T09:14:51.065Z</time></trkpt><trkpt lat="44.721295" lon="8.083815"><ele>260.00000000000006</ele><time>2026-04-12T09:14:54.061Z</time></trkpt><trkpt lat="44.7212267" lon="8.0838033"><ele>260.0</ele><time>2026-04-12T09:14:56.061Z</time></trkpt><trkpt lat="44.7211617" lon="8.0837833"><ele>260.0</ele><time>2026-04-12T09:14:58.061Z</time></trkpt><trkpt lat="44.7210883" lon="8.0837617"><ele>260.0</ele><time>2026-04-12T09:15:00.064Z</time></trkpt><trkpt lat="44.721015" lon="8.0837433"><ele>260.0</ele><time>2026-04-12T09:15:02.061Z</time></trkpt><trkpt lat="44.7209467" lon="8.08373"><ele>260.00000000000006</ele><time>2026-04-12T09:15:04.061Z</time></trkpt><trkpt lat="44.72088" lon="8.08371"><ele>260.0</ele><time>2026-04-12T09:15:06.064Z</time></trkpt><trkpt lat="44.7208083" lon="8.0836983"><ele>260.5714285714286</ele><time>2026-04-12T09:15:08.063Z</time></trkpt><trkpt lat="44.7207417" lon="8.0836933"><ele>261.14285714285717</ele><time>2026-04-12T09:15:10.059Z</time></trkpt><trkpt lat="44.7206717" lon="8.0837033"><ele>261.7142857142857</ele><time>2026-04-12T09:15:12.063Z</time></trkpt><trkpt lat="44.7206017" lon="8.0837217"><ele>262.28571428571433</ele><time>2026-04-12T09:15:14.064Z</time></trkpt><trkpt lat="44.7205333" lon="8.0837517"><ele>262.8571428571429</ele><time>2026-04-12T09:15:16.063Z</time></trkpt><trkpt lat="44.72047" lon="8.0837983"><ele>263.42857142857144</ele><time>2026-04-12T09:15:18.063Z</time></trkpt><trkpt lat="44.72041" lon="8.0838483"><ele>264.0</ele><time>2026-04-12T09:15:20.062Z</time></trkpt><trkpt lat="44.7203583" lon="8.08391"><ele>264.0</ele><time>2026-04-12T09:15:22.062Z</time></trkpt><trkpt lat="44.720315" lon="8.0839817"><ele>264.0</ele><time>2026-04-12T09:15:24.065Z</time></trkpt><trkpt lat="44.7202717" lon="8.0840583"><ele>264.0</ele><time>2026-04-12T09:15:26.06Z</time></trkpt><trkpt lat="44.72022" lon="8.084125"><ele>264.0</ele><time>2026-04-12T09:15:28.063Z</time></trkpt><trkpt lat="44.7201717" lon="8.0841917"><ele>264.0</ele><time>2026-04-12T09:15:30.062Z</time></trkpt><trkpt lat="44.7201167" lon="8.0842383"><ele>264.0</ele><time>2026-04-12T09:15:32.062Z</time></trkpt><trkpt lat="44.7200383" lon="8.0843"><ele>264.0</ele><time>2026-04-12T09:15:35.059Z</time></trkpt><trkpt lat="44.7199783" lon="8.0843433"><ele>265.2857142857143</ele><time>2026-04-12T09:15:37.065Z</time></trkpt><trkpt lat="44.719915" lon="8.0843917"><ele>266.57142857142856</ele><time>2026-04-12T09:15:39.065Z</time></trkpt><trkpt lat="44.7198467" lon="8.0844333"><ele>267.8571428571429</ele><time>2026-04-12T09:15:41.057Z</time></trkpt><trkpt lat="44.7197767" lon="8.0844767"><ele>269.1428571428571</ele><time>2026-04-12T09:15:43.06Z</time></trkpt><trkpt lat="44.7197117" lon="8.08451"><ele>270.42857142857144</ele><time>2026-04-12T09:15:45.062Z</time></trkpt><trkpt lat="44.7196467" lon="8.0845433"><ele>271.7142857142857</ele><time>2026-04-12T09:15:47.063Z</time></trkpt><trkpt lat="44.7195833" lon="8.0845683"><ele>273.0</ele><time>2026-04-12T09:15:49.063Z</time></trkpt><trkpt lat="44.7195183" lon="8.0845917"><ele>273.0</ele><time>2026-04-12T09:15:51.062Z</time></trkpt><trkpt lat="44.7194517" lon="8.0846033"><ele>273.0</ele><time>2026-04-12T09:15:53.06Z</time></trkpt><trkpt lat="44.7193833" lon="8.0846183"><ele>273.0</ele><time>2026-04-12T09:15:55.064Z</time></trkpt><trkpt lat="44.7193083" lon="8.0846333"><ele>273.0</ele><time>2026-04-12T09:15:57.062Z</time></trkpt><trkpt lat="44.719235" lon="8.084645"><ele>273.0</ele><time>2026-04-12T09:15:59.062Z</time></trkpt><trkpt lat="44.71916" lon="8.0846533"><ele>273.0</ele><time>2026-04-12T09:16:01.062Z</time></trkpt><trkpt lat="44.719085" lon="8.0846633"><ele>273.0</ele><time>2026-04-12T09:16:03.063Z</time></trkpt><trkpt lat="44.719005" lon="8.08467"><ele>272.8333333333333</ele><time>2026-04-12T09:16:05.063Z</time></trkpt><trkpt lat="44.7189317" lon="8.0846767"><ele>272.6666666666667</ele><time>2026-04-12T09:16:07.064Z</time></trkpt><trkpt lat="44.7188567" lon="8.0846867"><ele>272.5</ele><time>2026-04-12T09:16:09.064Z</time></trkpt><trkpt lat="44.7187833" lon="8.0846867"><ele>272.33333333333337</ele><time>2026-04-12T09:16:11.064Z</time></trkpt><trkpt lat="44.7186967" lon="8.0847067"><ele>272.1666666666667</ele><time>2026-04-12T09:16:13.064Z</time></trkpt><trkpt lat="44.7186067" lon="8.084715"><ele>272.0</ele><time>2026-04-12T09:16:15.068Z</time></trkpt><trkpt lat="44.71852" lon="8.0847233"><ele>273.4</ele><time>2026-04-12T09:16:17.065Z</time></trkpt><trkpt lat="44.718425" lon="8.084735"><ele>274.79999999999995</ele><time>2026-04-12T09:16:19.064Z</time></trkpt><trkpt lat="44.71833" lon="8.084745"><ele>276.2</ele><time>2026-04-12T09:16:21.062Z</time></trkpt><trkpt lat="44.7182383" lon="8.0847583"><ele>277.59999999999997</ele><time>2026-04-12T09:16:23.06Z</time></trkpt><trkpt lat="44.7181467" lon="8.0847683"><ele>279.0</ele><time>2026-04-12T09:16:25.064Z</time></trkpt><trkpt lat="44.7180633" lon="8.0847767"><ele>279.0</ele><time>2026-04-12T09:16:27.065Z</time></trkpt><trkpt lat="44.7179833" lon="8.08478"><ele>279.0</ele><time>2026-04-12T09:16:29.064Z</time></trkpt><trkpt lat="44.7179017" lon="8.084795"><ele>279.0</ele><time>2026-04-12T09:16:31.062Z</time></trkpt><trkpt lat="44.7178167" lon="8.0848017"><ele>279.0</ele><time>2026-04-12T09:16:33.064Z</time></trkpt><trkpt lat="44.7177333" lon="8.0848083"><ele>279.0</ele><time>2026-04-12T09:16:35.061Z</time></trkpt><trkpt lat="44.7176517" lon="8.0848233"><ele>279.0</ele><time>2026-04-12T09:16:37.065Z</time></trkpt><trkpt lat="44.71757" lon="8.08485"><ele>279.6666666666667</ele><time>2026-04-12T09:16:39.063Z</time></trkpt><trkpt lat="44.7174867" lon="8.084875"><ele>280.3333333333333</ele><time>2026-04-12T09:16:41.064Z</time></trkpt><trkpt lat="44.7174067" lon="8.084895"><ele>281.0</ele><time>2026-04-12T09:16:43.061Z</time></trkpt><trkpt lat="44.7173267" lon="8.08492"><ele>281.66666666666663</ele><time>2026-04-12T09:16:45.062Z</time></trkpt><trkpt lat="44.7172483" lon="8.0849533"><ele>282.3333333333333</ele><time>2026-04-12T09:16:47.061Z</time></trkpt><trkpt lat="44.7171717" lon="8.0849917"><ele>283.0</ele><time>2026-04-12T09:16:49.059Z</time></trkpt><trkpt lat="44.7170983" lon="8.0850217"><ele>283.0</ele><time>2026-04-12T09:16:51.063Z</time></trkpt><trkpt lat="44.7170217" lon="8.0850433"><ele>283.0</ele><time>2026-04-12T09:16:53.062Z</time></trkpt><trkpt lat="44.7169433" lon="8.085065"><ele>283.0</ele><time>2026-04-12T09:16:55.063Z</time></trkpt><trkpt lat="44.71686" lon="8.0850633"><ele>283.0</ele><time>2026-04-12T09:16:57.062Z</time></trkpt><trkpt lat="44.7167783" lon="8.0850533"><ele>283.0</ele><time>2026-04-12T09:16:59.063Z</time></trkpt><trkpt lat="44.7167" lon="8.0850367"><ele>283.0</ele><time>2026-04-12T09:17:01.063Z</time></trkpt><trkpt lat="44.7166233" lon="8.0850167"><ele>284.5</ele><time>2026-04-12T09:17:03.065Z</time></trkpt><trkpt lat="44.7165483" lon="8.0849817"><ele>286.0</ele><time>2026-04-12T09:17:05.064Z</time></trkpt><trkpt lat="44.7164783" lon="8.0849383"><ele>287.5</ele><time>2026-04-12T09:17:07.065Z</time></trkpt><trkpt lat="44.7164117" lon="8.0848967"><ele>289.0</ele><time>2026-04-12T09:17:09.065Z</time></trkpt><trkpt lat="44.7163433" lon="8.0848483"><ele>290.5</ele><time>2026-04-12T09:17:11.063Z</time></trkpt><trkpt lat="44.71628" lon="8.0848017"><ele>292.0</ele><time>2026-04-12T09:17:13.063Z</time></trkpt><trkpt lat="44.7162067" lon="8.08476"><ele>292.0</ele><time>2026-04-12T09:17:15.064Z</time></trkpt><trkpt lat="44.7161283" lon="8.0847217"><ele>292.0</ele><time>2026-04-12T09:17:17.063Z</time></trkpt><trkpt lat="44.7160567" lon="8.0846717"><ele>292.0</ele><time>2026-04-12T09:17:19.064Z</time></trkpt><trkpt lat="44.7159833" lon="8.084625"><ele>292.0</ele><time>2026-04-12T09:17:21.066Z</time></trkpt><trkpt lat="44.715915" lon="8.0845933"><ele>292.0</ele><time>2026-04-12T09:17:23.062Z</time></trkpt><trkpt lat="44.7158467" lon="8.0845833"><ele>292.0</ele><time>2026-04-12T09:17:25.065Z</time></trkpt><trkpt lat="44.71578" lon="8.084575"><ele>292.0</ele><time>2026-04-12T09:17:27.064Z</time></trkpt><trkpt lat="44.7157017" lon="8.0845767"><ele>292.0</ele><time>2026-04-12T09:17:29.062Z</time></trkpt><trkpt lat="44.715625" lon="8.0846"><ele>292.0</ele><time>2026-04-12T09:17:31.064Z</time></trkpt><trkpt lat="44.71555" lon="8.0846433"><ele>292.0</ele><time>2026-04-12T09:17:33.066Z</time></trkpt><trkpt lat="44.71548" lon="8.0846967"><ele>292.0</ele><time>2026-04-12T09:17:35.066Z</time></trkpt><trkpt lat="44.71541" lon="8.0847683"><ele>292.0</ele><time>2026-04-12T09:17:37.065Z</time></trkpt><trkpt lat="44.7153417" lon="8.0848367"><ele>292.0</ele><time>2026-04-12T09:17:39.064Z</time></trkpt><trkpt lat="44.7152617" lon="8.08491"><ele>292.0</ele><time>2026-04-12T09:17:41.061Z</time></trkpt><trkpt lat="44.7151767" lon="8.0849867"><ele>292.0</ele><time>2026-04-12T09:17:43.063Z</time></trkpt><trkpt lat="44.7150833" lon="8.0850467"><ele>292.0</ele><time>2026-04-12T09:17:45.064Z</time></trkpt><trkpt lat="44.71498" lon="8.0850933"><ele>292.0</ele><time>2026-04-12T09:17:47.064Z</time></trkpt><trkpt lat="44.714885" lon="8.0851283"><ele>293.4</ele><time>2026-04-12T09:17:49.062Z</time></trkpt><trkpt lat="44.7147917" lon="8.085175"><ele>294.79999999999995</ele><time>2026-04-12T09:17:51.065Z</time></trkpt><trkpt lat="44.7146933" lon="8.0852217"><ele>296.2</ele><time>2026-04-12T09:17:53.065Z</time></trkpt><trkpt lat="44.7145917" lon="8.08529"><ele>297.59999999999997</ele><time>2026-04-12T09:17:55.057Z</time></trkpt><trkpt lat="44.7145" lon="8.085385"><ele>299.0</ele><time>2026-04-12T09:17:57.064Z</time></trkpt><trkpt lat="44.7144067" lon="8.0854917"><ele>297.25</ele><time>2026-04-12T09:17:59.061Z</time></trkpt><trkpt lat="44.714325" lon="8.0856117"><ele>295.5</ele><time>2026-04-12T09:18:01.063Z</time></trkpt><trkpt lat="44.71425" lon="8.0857367"><ele>293.75</ele><time>2026-04-12T09:18:03.063Z</time></trkpt><trkpt lat="44.714175" lon="8.0858767"><ele>292.0</ele><time>2026-04-12T09:18:05.061Z</time></trkpt><trkpt lat="44.7141067" lon="8.086025"><ele>292.0</ele><time>2026-04-12T09:18:07.063Z</time></trkpt><trkpt lat="44.714075" lon="8.0861017"><ele>292.0</ele><time>2026-04-12T09:18:08.064Z</time></trkpt><trkpt lat="44.71404" lon="8.08618"><ele>292.0</ele><time>2026-04-12T09:18:09.065Z</time></trkpt><trkpt lat="44.714005" lon="8.0862617"><ele>292.0</ele><time>2026-04-12T09:18:10.063Z</time></trkpt><trkpt lat="44.7139733" lon="8.08634"><ele>292.0</ele><time>2026-04-12T09:18:11.062Z</time></trkpt><trkpt lat="44.7139417" lon="8.0864167"><ele>292.0</ele><time>2026-04-12T09:18:12.063Z</time></trkpt><trkpt lat="44.713875" lon="8.086565"><ele>292.0</ele><time>2026-04-12T09:18:14.064Z</time></trkpt><trkpt lat="44.7138433" lon="8.0866433"><ele>290.75</ele><time>2026-04-12T09:18:15.062Z</time></trkpt><trkpt lat="44.71377" lon="8.08678"><ele>289.5</ele><time>2026-04-12T09:18:17.064Z</time></trkpt><trkpt lat="44.713655" lon="8.0869917"><ele>288.25</ele><time>2026-04-12T09:18:20.064Z</time></trkpt><trkpt lat="44.71364" lon="8.0871333"><ele>287.0</ele><time>2026-04-12T09:18:23.064Z</time></trkpt><trkpt lat="44.7135883" lon="8.0872433"><ele>287.2857142857143</ele><time>2026-04-12T09:18:24.564Z</time></trkpt><trkpt lat="44.7135417" lon="8.0873683"><ele>287.57142857142856</ele><time>2026-04-12T09:18:26.066Z</time></trkpt><trkpt lat="44.7135017" lon="8.0874583"><ele>287.8571428571429</ele><time>2026-04-12T09:18:27.066Z</time></trkpt><trkpt lat="44.7134617" lon="8.0875433"><ele>288.1428571428571</ele><time>2026-04-12T09:18:28.068Z</time></trkpt><trkpt lat="44.7134267" lon="8.087625"><ele>288.42857142857144</ele><time>2026-04-12T09:18:29.066Z</time></trkpt><trkpt lat="44.7133933" lon="8.0877067"><ele>288.7142857142857</ele><time>2026-04-12T09:18:30.065Z</time></trkpt><trkpt lat="44.7133633" lon="8.0877883"><ele>289.0</ele><time>2026-04-12T09:18:31.063Z</time></trkpt><trkpt lat="44.7133317" lon="8.0878667"><ele>289.0</ele><time>2026-04-12T09:18:32.067Z</time></trkpt><trkpt lat="44.7133" lon="8.087945"><ele>289.0</ele><time>2026-04-12T09:18:33.064Z</time></trkpt><trkpt lat="44.71324" lon="8.0880967"><ele>289.0</ele><time>2026-04-12T09:18:35.065Z</time></trkpt><trkpt lat="44.7131833" lon="8.08825"><ele>289.0</ele><time>2026-04-12T09:18:37.065Z</time></trkpt><trkpt lat="44.7131283" lon="8.0884017"><ele>289.0</ele><time>2026-04-12T09:18:39.064Z</time></trkpt><trkpt lat="44.7130717" lon="8.0885517"><ele>290.0</ele><time>2026-04-12T09:18:41.063Z</time></trkpt><trkpt lat="44.7130067" lon="8.0886933"><ele>291.0</ele><time>2026-04-12T09:18:43.064Z</time></trkpt><trkpt lat="44.712935" lon="8.0888233"><ele>292.0</ele><time>2026-04-12T09:18:45.064Z</time></trkpt><trkpt lat="44.7128633" lon="8.08895"><ele>293.0</ele><time>2026-04-12T09:18:47.062Z</time></trkpt><trkpt lat="44.7127933" lon="8.0890617"><ele>294.1666666666667</ele><time>2026-04-12T09:18:49.067Z</time></trkpt><trkpt lat="44.7127267" lon="8.0891683"><ele>295.33333333333337</ele><time>2026-04-12T09:18:51.067Z</time></trkpt><trkpt lat="44.7126683" lon="8.08926"><ele>296.5</ele><time>2026-04-12T09:18:53.063Z</time></trkpt><trkpt lat="44.7126083" lon="8.08934"><ele>297.6666666666667</ele><time>2026-04-12T09:18:55.063Z</time></trkpt><trkpt lat="44.7125483" lon="8.0894217"><ele>298.8333333333333</ele><time>2026-04-12T09:18:57.066Z</time></trkpt><trkpt lat="44.71249" lon="8.0895033"><ele>300.0</ele><time>2026-04-12T09:18:59.064Z</time></trkpt><trkpt lat="44.7124333" lon="8.0895867"><ele>300.0</ele><time>2026-04-12T09:19:01.059Z</time></trkpt><trkpt lat="44.71238" lon="8.0896733"><ele>300.0</ele><time>2026-04-12T09:19:03.065Z</time></trkpt><trkpt lat="44.7123267" lon="8.0897567"><ele>300.0</ele><time>2026-04-12T09:19:05.062Z</time></trkpt><trkpt lat="44.7122733" lon="8.0898367"><ele>300.0</ele><time>2026-04-12T09:19:07.065Z</time></trkpt><trkpt lat="44.712225" lon="8.0899183"><ele>300.0</ele><time>2026-04-12T09:19:09.065Z</time></trkpt><trkpt lat="44.7121783" lon="8.0899967"><ele>300.0</ele><time>2026-04-12T09:19:11.063Z</time></trkpt><trkpt lat="44.71213" lon="8.0900817"><ele>299.71428571428567</ele><time>2026-04-12T09:19:13.063Z</time></trkpt><trkpt lat="44.7120817" lon="8.0901633"><ele>299.42857142857144</ele><time>2026-04-12T09:19:15.066Z</time></trkpt><trkpt lat="44.7120383" lon="8.0902517"><ele>299.1428571428571</ele><time>2026-04-12T09:19:17.063Z</time></trkpt><trkpt lat="44.7119967" lon="8.0903383"><ele>298.85714285714283</ele><time>2026-04-12T09:19:19.066Z</time></trkpt><trkpt lat="44.7119533" lon="8.090415"><ele>298.57142857142856</ele><time>2026-04-12T09:19:21.065Z</time></trkpt><trkpt lat="44.71191" lon="8.0905017"><ele>298.2857142857143</ele><time>2026-04-12T09:19:23.063Z</time></trkpt><trkpt lat="44.711865" lon="8.0905917"><ele>298.0</ele><time>2026-04-12T09:19:25.063Z</time></trkpt><trkpt lat="44.7118167" lon="8.0906867"><ele>299.5</ele><time>2026-04-12T09:19:27.062Z</time></trkpt><trkpt lat="44.71176" lon="8.090775"><ele>301.0</ele><time>2026-04-12T09:19:29.061Z</time></trkpt><trkpt lat="44.7117017" lon="8.0908567"><ele>302.5</ele><time>2026-04-12T09:19:31.062Z</time></trkpt><trkpt lat="44.7116367" lon="8.090935"><ele>304.0</ele><time>2026-04-12T09:19:33.063Z</time></trkpt><trkpt lat="44.7115683" lon="8.091005"><ele>305.5</ele><time>2026-04-12T09:19:35.063Z</time></trkpt><trkpt lat="44.7114967" lon="8.091075"><ele>307.0</ele><time>2026-04-12T09:19:37.064Z</time></trkpt><trkpt lat="44.7114233" lon="8.09114"><ele>307.0</ele><time>2026-04-12T09:19:39.067Z</time></trkpt><trkpt lat="44.7113433" lon="8.0911983"><ele>307.0</ele><time>2026-04-12T09:19:41.061Z</time></trkpt><trkpt lat="44.71126" lon="8.0912433"><ele>307.0</ele><time>2026-04-12T09:19:43.065Z</time></trkpt><trkpt lat="44.7111767" lon="8.09128"><ele>307.0</ele><time>2026-04-12T09:19:45.064Z</time></trkpt><trkpt lat="44.7110917" lon="8.091305"><ele>307.0</ele><time>2026-04-12T09:19:47.065Z</time></trkpt><trkpt lat="44.711005" lon="8.0913217"><ele>307.0</ele><time>2026-04-12T09:19:49.062Z</time></trkpt><trkpt lat="44.7109133" lon="8.0913317"><ele>306.4</ele><time>2026-04-12T09:19:51.063Z</time></trkpt><trkpt lat="44.7108183" lon="8.091315"><ele>305.79999999999995</ele><time>2026-04-12T09:19:53.062Z</time></trkpt><trkpt lat="44.71073" lon="8.091285"><ele>305.2</ele><time>2026-04-12T09:19:55.065Z</time></trkpt><trkpt lat="44.7106433" lon="8.0912467"><ele>304.59999999999997</ele><time>2026-04-12T09:19:57.064Z</time></trkpt><trkpt lat="44.7105617" lon="8.0912"><ele>304.0</ele><time>2026-04-12T09:19:59.062Z</time></trkpt><trkpt lat="44.7104817" lon="8.0911483"><ele>304.0</ele><time>2026-04-12T09:20:01.062Z</time></trkpt><trkpt lat="44.7104017" lon="8.0910967"><ele>304.0</ele><time>2026-04-12T09:20:03.063Z</time></trkpt><trkpt lat="44.71032" lon="8.09104"><ele>304.0</ele><time>2026-04-12T09:20:05.062Z</time></trkpt><trkpt lat="44.71024" lon="8.0909833"><ele>304.0</ele><time>2026-04-12T09:20:07.062Z</time></trkpt><trkpt lat="44.7101617" lon="8.0909217"><ele>304.0</ele><time>2026-04-12T09:20:09.063Z</time></trkpt><trkpt lat="44.7100867" lon="8.0908617"><ele>304.0</ele><time>2026-04-12T09:20:11.062Z</time></trkpt><trkpt lat="44.71001" lon="8.0908017"><ele>303.8333333333333</ele><time>2026-04-12T09:20:13.063Z</time></trkpt><trkpt lat="44.7099383" lon="8.090745"><ele>303.66666666666663</ele><time>2026-04-12T09:20:15.063Z</time></trkpt><trkpt lat="44.7098667" lon="8.0906867"><ele>303.5</ele><time>2026-04-12T09:20:17.063Z</time></trkpt><trkpt lat="44.7097917" lon="8.09064"><ele>303.3333333333333</ele><time>2026-04-12T09:20:19.06Z</time></trkpt><trkpt lat="44.7097083" lon="8.0906183"><ele>303.1666666666667</ele><time>2026-04-12T09:20:21.063Z</time></trkpt><trkpt lat="44.7096167" lon="8.0906067"><ele>303.0</ele><time>2026-04-12T09:20:23.064Z</time></trkpt><trkpt lat="44.709525" lon="8.0905933"><ele>303.0</ele><time>2026-04-12T09:20:25.064Z</time></trkpt><trkpt lat="44.7094217" lon="8.0905933"><ele>303.0</ele><time>2026-04-12T09:20:27.064Z</time></trkpt><trkpt lat="44.70931" lon="8.0905783"><ele>303.0</ele><time>2026-04-12T09:20:29.063Z</time></trkpt><trkpt lat="44.7091933" lon="8.09054"><ele>303.0</ele><time>2026-04-12T09:20:31.064Z</time></trkpt><trkpt lat="44.7090783" lon="8.0904833"><ele>306.4</ele><time>2026-04-12T09:20:33.065Z</time></trkpt><trkpt lat="44.7089633" lon="8.0904283"><ele>309.8</ele><time>2026-04-12T09:20:35.061Z</time></trkpt><trkpt lat="44.70885" lon="8.0903667"><ele>313.2</ele><time>2026-04-12T09:20:37.064Z</time></trkpt><trkpt lat="44.7087317" lon="8.0903017"><ele>316.6</ele><time>2026-04-12T09:20:39.063Z</time></trkpt><trkpt lat="44.708675" lon="8.0902567"><ele>320.0</ele><time>2026-04-12T09:20:40.063Z</time></trkpt><trkpt lat="44.70862" lon="8.09021"><ele>319.33333333333337</ele><time>2026-04-12T09:20:41.062Z</time></trkpt><trkpt lat="44.7085233" lon="8.09009"><ele>318.6666666666667</ele><time>2026-04-12T09:20:43.061Z</time></trkpt><trkpt lat="44.70848" lon="8.09002"><ele>318.0</ele><time>2026-04-12T09:20:44.06Z</time></trkpt><trkpt lat="44.7084317" lon="8.08995"><ele>317.3333333333333</ele><time>2026-04-12T09:20:45.06Z</time></trkpt><trkpt lat="44.7083833" lon="8.0898817"><ele>316.66666666666663</ele><time>2026-04-12T09:20:46.063Z</time></trkpt><trkpt lat="44.7083317" lon="8.0898183"><ele>316.0</ele><time>2026-04-12T09:20:47.062Z</time></trkpt><trkpt lat="44.70828" lon="8.0897533"><ele>317.42857142857144</ele><time>2026-04-12T09:20:48.065Z</time></trkpt><trkpt lat="44.7082233" lon="8.0896967"><ele>318.8571428571429</ele><time>2026-04-12T09:20:49.065Z</time></trkpt><trkpt lat="44.7081617" lon="8.0896433"><ele>320.28571428571433</ele><time>2026-04-12T09:20:50.063Z</time></trkpt><trkpt lat="44.7081" lon="8.0895967"><ele>321.7142857142857</ele><time>2026-04-12T09:20:51.064Z</time></trkpt><trkpt lat="44.7080383" lon="8.0895533"><ele>323.1428571428571</ele><time>2026-04-12T09:20:52.063Z</time></trkpt><trkpt lat="44.7079733" lon="8.0895167"><ele>324.5714285714286</ele><time>2026-04-12T09:20:53.061Z</time></trkpt><trkpt lat="44.7079067" lon="8.08948"><ele>326.0</ele><time>2026-04-12T09:20:54.064Z</time></trkpt><trkpt lat="44.70784" lon="8.0894467"><ele>326.0</ele><time>2026-04-12T09:20:55.066Z</time></trkpt><trkpt lat="44.7077733" lon="8.0894117"><ele>326.0</ele><time>2026-04-12T09:20:56.06Z</time></trkpt><trkpt lat="44.7077067" lon="8.089375"><ele>326.0</ele><time>2026-04-12T09:20:57.064Z</time></trkpt><trkpt lat="44.7076467" lon="8.0893217"><ele>326.0</ele><time>2026-04-12T09:20:58.064Z</time></trkpt><trkpt lat="44.7075917" lon="8.0892583"><ele>326.0</ele><time>2026-04-12T09:20:59.063Z</time></trkpt><trkpt lat="44.7075417" lon="8.0891883"><ele>326.0</ele><time>2026-04-12T09:21:00.062Z</time></trkpt><trkpt lat="44.7074967" lon="8.0891133"><ele>326.0</ele><time>2026-04-12T09:21:01.065Z</time></trkpt><trkpt lat="44.7074533" lon="8.089035"><ele>325.5714285714286</ele><time>2026-04-12T09:21:02.064Z</time></trkpt><trkpt lat="44.7074133" lon="8.0889533"><ele>325.1428571428571</ele><time>2026-04-12T09:21:03.064Z</time></trkpt><trkpt lat="44.70737" lon="8.0888717"><ele>324.7142857142857</ele><time>2026-04-12T09:21:04.063Z</time></trkpt><trkpt lat="44.707325" lon="8.0887917"><ele>324.28571428571433</ele><time>2026-04-12T09:21:05.064Z</time></trkpt><trkpt lat="44.7072833" lon="8.08871"><ele>323.8571428571429</ele><time>2026-04-12T09:21:06.062Z</time></trkpt><trkpt lat="44.7072433" lon="8.0886217"><ele>323.42857142857144</ele><time>2026-04-12T09:21:07.063Z</time></trkpt><trkpt lat="44.7072" lon="8.088535"><ele>323.0</ele><time>2026-04-12T09:21:08.064Z</time></trkpt><trkpt lat="44.7071583" lon="8.0884533"><ele>323.00000000000006</ele><time>2026-04-12T09:21:09.057Z</time></trkpt><trkpt lat="44.7071233" lon="8.0883667"><ele>323.0</ele><time>2026-04-12T09:21:10.07Z</time></trkpt><trkpt lat="44.7070967" lon="8.088275"><ele>323.0</ele><time>2026-04-12T09:21:11.063Z</time></trkpt><trkpt lat="44.7070733" lon="8.0881817"><ele>323.0</ele><time>2026-04-12T09:21:12.063Z</time></trkpt><trkpt lat="44.70706" lon="8.088085"><ele>323.0</ele><time>2026-04-12T09:21:13.063Z</time></trkpt><trkpt lat="44.70706" lon="8.0879817"><ele>323.00000000000006</ele><time>2026-04-12T09:21:14.061Z</time></trkpt><trkpt lat="44.7070717" lon="8.0878883"><ele>323.0</ele><time>2026-04-12T09:21:15.065Z</time></trkpt><trkpt lat="44.7070967" lon="8.0877933"><ele>322.5714285714286</ele><time>2026-04-12T09:21:16.063Z</time></trkpt><trkpt lat="44.70713" lon="8.0877083"><ele>322.14285714285717</ele><time>2026-04-12T09:21:17.064Z</time></trkpt><trkpt lat="44.7071667" lon="8.0876283"><ele>321.7142857142857</ele><time>2026-04-12T09:21:18.063Z</time></trkpt><trkpt lat="44.7072083" lon="8.0875533"><ele>321.28571428571433</ele><time>2026-04-12T09:21:19.065Z</time></trkpt><trkpt lat="44.7072467" lon="8.0874717"><ele>320.8571428571429</ele><time>2026-04-12T09:21:20.062Z</time></trkpt><trkpt lat="44.7072817" lon="8.0873867"><ele>320.42857142857144</ele><time>2026-04-12T09:21:21.064Z</time></trkpt><trkpt lat="44.7073167" lon="8.087305"><ele>320.0</ele><time>2026-04-12T09:21:22.063Z</time></trkpt><trkpt lat="44.7073467" lon="8.0872233"><ele>319.57142857142856</ele><time>2026-04-12T09:21:23.063Z</time></trkpt><trkpt lat="44.7073567" lon="8.08713"><ele>319.14285714285717</ele><time>2026-04-12T09:21:24.063Z</time></trkpt><trkpt lat="44.70735" lon="8.0870333"><ele>318.7142857142857</ele><time>2026-04-12T09:21:25.061Z</time></trkpt><trkpt lat="44.7073317" lon="8.0869383"><ele>318.2857142857143</ele><time>2026-04-12T09:21:26.067Z</time></trkpt><trkpt lat="44.7073" lon="8.0868467"><ele>317.85714285714283</ele><time>2026-04-12T09:21:27.065Z</time></trkpt><trkpt lat="44.7072617" lon="8.08676"><ele>317.42857142857144</ele><time>2026-04-12T09:21:28.065Z</time></trkpt><trkpt lat="44.7072167" lon="8.0866817"><ele>317.0</ele><time>2026-04-12T09:21:29.063Z</time></trkpt><trkpt lat="44.7071683" lon="8.0866067"><ele>317.14285714285717</ele><time>2026-04-12T09:21:30.066Z</time></trkpt><trkpt lat="44.70712" lon="8.086535"><ele>317.2857142857143</ele><time>2026-04-12T09:21:31.065Z</time></trkpt><trkpt lat="44.7070717" lon="8.086465"><ele>317.42857142857144</ele><time>2026-04-12T09:21:32.062Z</time></trkpt><trkpt lat="44.70702" lon="8.0863967"><ele>317.57142857142856</ele><time>2026-04-12T09:21:33.064Z</time></trkpt><trkpt lat="44.70697" lon="8.086325"><ele>317.7142857142857</ele><time>2026-04-12T09:21:34.063Z</time></trkpt><trkpt lat="44.7069217" lon="8.0862517"><ele>317.85714285714283</ele><time>2026-04-12T09:21:35.06Z</time></trkpt><trkpt lat="44.7068717" lon="8.0861817"><ele>318.0</ele><time>2026-04-12T09:21:36.065Z</time></trkpt><trkpt lat="44.70682" lon="8.0861183"><ele>318.0</ele><time>2026-04-12T09:21:37.064Z</time></trkpt><trkpt lat="44.70677" lon="8.0860517"><ele>318.0</ele><time>2026-04-12T09:21:38.064Z</time></trkpt><trkpt lat="44.7067167" lon="8.0859817"><ele>318.0</ele><time>2026-04-12T09:21:39.062Z</time></trkpt><trkpt lat="44.7066683" lon="8.0859083"><ele>318.0</ele><time>2026-04-12T09:21:40.06Z</time></trkpt><trkpt lat="44.70662" lon="8.0858367"><ele>318.0</ele><time>2026-04-12T09:21:41.063Z</time></trkpt><trkpt lat="44.7065767" lon="8.0857583"><ele>318.0</ele><time>2026-04-12T09:21:42.063Z</time></trkpt><trkpt lat="44.706535" lon="8.0856783"><ele>318.0</ele><time>2026-04-12T09:21:43.063Z</time></trkpt><trkpt lat="44.7064917" lon="8.0855967"><ele>316.7142857142857</ele><time>2026-04-12T09:21:44.062Z</time></trkpt><trkpt lat="44.706455" lon="8.08551"><ele>315.42857142857144</ele><time>2026-04-12T09:21:45.066Z</time></trkpt><trkpt lat="44.7064233" lon="8.085415"><ele>314.14285714285717</ele><time>2026-04-12T09:21:46.066Z</time></trkpt><trkpt lat="44.70639" lon="8.0853283"><ele>312.8571428571429</ele><time>2026-04-12T09:21:47.065Z</time></trkpt><trkpt lat="44.70636" lon="8.0852283"><ele>311.57142857142856</ele><time>2026-04-12T09:21:48.064Z</time></trkpt><trkpt lat="44.7063283" lon="8.0851383"><ele>310.28571428571433</ele><time>2026-04-12T09:21:49.063Z</time></trkpt><trkpt lat="44.7062933" lon="8.085045"><ele>309.0</ele><time>2026-04-12T09:21:50.062Z</time></trkpt><trkpt lat="44.7062633" lon="8.0849533"><ele>308.00000000000006</ele><time>2026-04-12T09:21:51.063Z</time></trkpt><trkpt lat="44.7062317" lon="8.0848633"><ele>307.0</ele><time>2026-04-12T09:21:52.062Z</time></trkpt><trkpt lat="44.7062017" lon="8.0847733"><ele>306.0</ele><time>2026-04-12T09:21:53.062Z</time></trkpt><trkpt lat="44.70617" lon="8.0846817"><ele>305.0</ele><time>2026-04-12T09:21:54.064Z</time></trkpt><trkpt lat="44.7061383" lon="8.08459"><ele>304.0</ele><time>2026-04-12T09:21:55.064Z</time></trkpt><trkpt lat="44.7061067" lon="8.0845"><ele>303.00000000000006</ele><time>2026-04-12T09:21:56.063Z</time></trkpt><trkpt lat="44.7060733" lon="8.0844117"><ele>302.0</ele><time>2026-04-12T09:21:57.065Z</time></trkpt><trkpt lat="44.706045" lon="8.0843217"><ele>304.14285714285717</ele><time>2026-04-12T09:21:58.064Z</time></trkpt><trkpt lat="44.7060167" lon="8.0842317"><ele>306.2857142857143</ele><time>2026-04-12T09:21:59.064Z</time></trkpt><trkpt lat="44.70599" lon="8.084135"><ele>308.42857142857144</ele><time>2026-04-12T09:22:00.062Z</time></trkpt><trkpt lat="44.7059617" lon="8.0840417"><ele>310.57142857142856</ele><time>2026-04-12T09:22:01.063Z</time></trkpt><trkpt lat="44.7059267" lon="8.0839567"><ele>312.7142857142857</ele><time>2026-04-12T09:22:02.062Z</time></trkpt><trkpt lat="44.7058967" lon="8.0838717"><ele>314.8571428571429</ele><time>2026-04-12T09:22:03.064Z</time></trkpt><trkpt lat="44.705865" lon="8.083785"><ele>317.0</ele><time>2026-04-12T09:22:04.063Z</time></trkpt><trkpt lat="44.7058317" lon="8.0836983"><ele>317.0</ele><time>2026-04-12T09:22:05.061Z</time></trkpt><trkpt lat="44.7057933" lon="8.0836183"><ele>317.0</ele><time>2026-04-12T09:22:06.063Z</time></trkpt><trkpt lat="44.7057583" lon="8.0835333"><ele>317.0</ele><time>2026-04-12T09:22:07.065Z</time></trkpt><trkpt lat="44.7057233" lon="8.0834483"><ele>317.0</ele><time>2026-04-12T09:22:08.062Z</time></trkpt><trkpt lat="44.70569" lon="8.083365"><ele>317.0</ele><time>2026-04-12T09:22:09.065Z</time></trkpt><trkpt lat="44.7056467" lon="8.083285"><ele>317.0</ele><time>2026-04-12T09:22:10.063Z</time></trkpt><trkpt lat="44.7056033" lon="8.0832067"><ele>317.0</ele><time>2026-04-12T09:22:11.063Z</time></trkpt><trkpt lat="44.70556" lon="8.0831283"><ele>315.6666666666667</ele><time>2026-04-12T09:22:12.065Z</time></trkpt><trkpt lat="44.70552" lon="8.08305"><ele>314.33333333333337</ele><time>2026-04-12T09:22:13.063Z</time></trkpt><trkpt lat="44.7054717" lon="8.08297"><ele>313.0</ele><time>2026-04-12T09:22:14.062Z</time></trkpt><trkpt lat="44.705425" lon="8.0828883"><ele>311.6666666666667</ele><time>2026-04-12T09:22:15.059Z</time></trkpt><trkpt lat="44.7053717" lon="8.0828083"><ele>310.3333333333333</ele><time>2026-04-12T09:22:16.063Z</time></trkpt><trkpt lat="44.7053167" lon="8.0827217"><ele>309.0</ele><time>2026-04-12T09:22:17.062Z</time></trkpt><trkpt lat="44.7052617" lon="8.0826367"><ele>308.8333333333333</ele><time>2026-04-12T09:22:18.065Z</time></trkpt><trkpt lat="44.705205" lon="8.0825483"><ele>308.6666666666667</ele><time>2026-04-12T09:22:19.064Z</time></trkpt><trkpt lat="44.7051483" lon="8.0824583"><ele>308.5</ele><time>2026-04-12T09:22:20.063Z</time></trkpt><trkpt lat="44.7050917" lon="8.0823667"><ele>308.33333333333337</ele><time>2026-04-12T09:22:21.066Z</time></trkpt><trkpt lat="44.7050367" lon="8.0822717"><ele>308.1666666666667</ele><time>2026-04-12T09:22:22.064Z</time></trkpt><trkpt lat="44.7049817" lon="8.08218"><ele>308.0</ele><time>2026-04-12T09:22:23.063Z</time></trkpt><trkpt lat="44.704925" lon="8.0820883"><ele>308.0</ele><time>2026-04-12T09:22:24.065Z</time></trkpt><trkpt lat="44.70487" lon="8.081995"><ele>308.0</ele><time>2026-04-12T09:22:25.063Z</time></trkpt><trkpt lat="44.7048133" lon="8.0819083"><ele>308.0</ele><time>2026-04-12T09:22:26.067Z</time></trkpt><trkpt lat="44.7047567" lon="8.0818183"><ele>308.0</ele><time>2026-04-12T09:22:27.063Z</time></trkpt><trkpt lat="44.7047017" lon="8.0817267"><ele>308.0</ele><time>2026-04-12T09:22:28.065Z</time></trkpt><trkpt lat="44.7046483" lon="8.0816333"><ele>308.0</ele><time>2026-04-12T09:22:29.063Z</time></trkpt><trkpt lat="44.7045883" lon="8.0815417"><ele>309.83333333333337</ele><time>2026-04-12T09:22:30.065Z</time></trkpt><trkpt lat="44.704525" lon="8.08145"><ele>311.6666666666667</ele><time>2026-04-12T09:22:31.064Z</time></trkpt><trkpt lat="44.7044633" lon="8.081355"><ele>313.5</ele><time>2026-04-12T09:22:32.065Z</time></trkpt><trkpt lat="44.704405" lon="8.0812617"><ele>315.3333333333333</ele><time>2026-04-12T09:22:33.065Z</time></trkpt><trkpt lat="44.70435" lon="8.0811667"><ele>317.16666666666663</ele><time>2026-04-12T09:22:34.066Z</time></trkpt><trkpt lat="44.704295" lon="8.0810733"><ele>319.0</ele><time>2026-04-12T09:22:35.064Z</time></trkpt><trkpt lat="44.7042433" lon="8.0809783"><ele>319.0</ele><time>2026-04-12T09:22:36.064Z</time></trkpt><trkpt lat="44.7041967" lon="8.08088"><ele>319.0</ele><time>2026-04-12T09:22:37.065Z</time></trkpt><trkpt lat="44.7041633" lon="8.0807717"><ele>319.0</ele><time>2026-04-12T09:22:38.063Z</time></trkpt><trkpt lat="44.704145" lon="8.08065"><ele>319.0</ele><time>2026-04-12T09:22:39.065Z</time></trkpt><trkpt lat="44.7041317" lon="8.080525"><ele>319.0</ele><time>2026-04-12T09:22:40.066Z</time></trkpt><trkpt lat="44.7041283" lon="8.0803983"><ele>319.0</ele><time>2026-04-12T09:22:41.064Z</time></trkpt><trkpt lat="44.70414" lon="8.08027"><ele>318.59999999999997</ele><time>2026-04-12T09:22:42.064Z</time></trkpt><trkpt lat="44.7041783" lon="8.0801533"><ele>318.2</ele><time>2026-04-12T09:22:43.064Z</time></trkpt><trkpt lat="44.7042233" lon="8.08004"><ele>317.79999999999995</ele><time>2026-04-12T09:22:44.062Z</time></trkpt><trkpt lat="44.704275" lon="8.0799267"><ele>317.4</ele><time>2026-04-12T09:22:45.063Z</time></trkpt><trkpt lat="44.7043317" lon="8.0798183"><ele>317.0</ele><time>2026-04-12T09:22:46.061Z</time></trkpt><trkpt lat="44.7043833" lon="8.07971"><ele>313.4</ele><time>2026-04-12T09:22:47.061Z</time></trkpt><trkpt lat="44.7044433" lon="8.0796033"><ele>309.79999999999995</ele><time>2026-04-12T09:22:48.065Z</time></trkpt><trkpt lat="44.7045017" lon="8.0794933"><ele>306.2</ele><time>2026-04-12T09:22:49.065Z</time></trkpt><trkpt lat="44.7045617" lon="8.0793817"><ele>302.59999999999997</ele><time>2026-04-12T09:22:50.059Z</time></trkpt><trkpt lat="44.7046233" lon="8.0792683"><ele>299.0</ele><time>2026-04-12T09:22:51.064Z</time></trkpt><trkpt lat="44.704685" lon="8.0791517"><ele>300.2</ele><time>2026-04-12T09:22:52.065Z</time></trkpt><trkpt lat="44.704745" lon="8.079035"><ele>301.4</ele><time>2026-04-12T09:22:53.062Z</time></trkpt><trkpt lat="44.7048067" lon="8.0789167"><ele>302.6</ele><time>2026-04-12T09:22:54.064Z</time></trkpt><trkpt lat="44.7048633" lon="8.0787967"><ele>303.8</ele><time>2026-04-12T09:22:55.063Z</time></trkpt><trkpt lat="44.70492" lon="8.078675"><ele>305.0</ele><time>2026-04-12T09:22:56.062Z</time></trkpt><trkpt lat="44.7049683" lon="8.0785533"><ele>305.0</ele><time>2026-04-12T09:22:57.064Z</time></trkpt><trkpt lat="44.705005" lon="8.0784167"><ele>305.0</ele><time>2026-04-12T09:22:58.061Z</time></trkpt><trkpt lat="44.7050233" lon="8.0782733"><ele>305.0</ele><time>2026-04-12T09:22:59.064Z</time></trkpt><trkpt lat="44.7050283" lon="8.0781233"><ele>305.0</ele><time>2026-04-12T09:23:00.063Z</time></trkpt><trkpt lat="44.705025" lon="8.0779733"><ele>305.0</ele><time>2026-04-12T09:23:01.064Z</time></trkpt><trkpt lat="44.7050167" lon="8.0778267"><ele>304.6</ele><time>2026-04-12T09:23:02.064Z</time></trkpt><trkpt lat="44.7050083" lon="8.07768"><ele>304.2</ele><time>2026-04-12T09:23:03.066Z</time></trkpt><trkpt lat="44.7050017" lon="8.0775367"><ele>303.8</ele><time>2026-04-12T09:23:04.063Z</time></trkpt><trkpt lat="44.7049983" lon="8.0773933"><ele>303.4</ele><time>2026-04-12T09:23:05.063Z</time></trkpt><trkpt lat="44.7049967" lon="8.07725"><ele>303.0</ele><time>2026-04-12T09:23:06.064Z</time></trkpt><trkpt lat="44.7049983" lon="8.0771083"><ele>303.0</ele><time>2026-04-12T09:23:07.06Z</time></trkpt><trkpt lat="44.7050017" lon="8.076965"><ele>303.0</ele><time>2026-04-12T09:23:08.064Z</time></trkpt><trkpt lat="44.7050167" lon="8.0768233"><ele>303.0</ele><time>2026-04-12T09:23:09.064Z</time></trkpt><trkpt lat="44.7050483" lon="8.0766867"><ele>303.0</ele><time>2026-04-12T09:23:10.064Z</time></trkpt><trkpt lat="44.7050967" lon="8.0765567"><ele>303.0</ele><time>2026-04-12T09:23:11.064Z</time></trkpt><trkpt lat="44.7051567" lon="8.0764317"><ele>302.8</ele><time>2026-04-12T09:23:12.063Z</time></trkpt><trkpt lat="44.7052183" lon="8.0763067"><ele>302.6</ele><time>2026-04-12T09:23:13.063Z</time></trkpt><trkpt lat="44.7052733" lon="8.0761767"><ele>302.4</ele><time>2026-04-12T09:23:14.061Z</time></trkpt><trkpt lat="44.70532" lon="8.0760383"><ele>302.2</ele><time>2026-04-12T09:23:15.064Z</time></trkpt><trkpt lat="44.7053617" lon="8.075895"><ele>302.0</ele><time>2026-04-12T09:23:16.063Z</time></trkpt><trkpt lat="44.7053983" lon="8.0757483"><ele>298.25</ele><time>2026-04-12T09:23:17.063Z</time></trkpt><trkpt lat="44.7054333" lon="8.0756"><ele>294.5</ele><time>2026-04-12T09:23:18.065Z</time></trkpt><trkpt lat="44.7054667" lon="8.0754517"><ele>290.75</ele><time>2026-04-12T09:23:19.062Z</time></trkpt><trkpt lat="44.7055" lon="8.0752967"><ele>287.0</ele><time>2026-04-12T09:23:20.062Z</time></trkpt><trkpt lat="44.7055333" lon="8.0751417"><ele>287.0</ele><time>2026-04-12T09:23:21.064Z</time></trkpt><trkpt lat="44.705565" lon="8.0749883"><ele>287.0</ele><time>2026-04-12T09:23:22.062Z</time></trkpt><trkpt lat="44.7055967" lon="8.07483"><ele>287.0</ele><time>2026-04-12T09:23:23.064Z</time></trkpt><trkpt lat="44.705625" lon="8.07467"><ele>287.0</ele><time>2026-04-12T09:23:24.061Z</time></trkpt><trkpt lat="44.7056417" lon="8.0745083"><ele>286.5</ele><time>2026-04-12T09:23:25.062Z</time></trkpt><trkpt lat="44.7056517" lon="8.074345"><ele>286.0</ele><time>2026-04-12T09:23:26.062Z</time></trkpt><trkpt lat="44.70566" lon="8.0741833"><ele>285.5</ele><time>2026-04-12T09:23:27.065Z</time></trkpt><trkpt lat="44.70566" lon="8.0740233"><ele>285.0</ele><time>2026-04-12T09:23:28.062Z</time></trkpt><trkpt lat="44.7056583" lon="8.0738633"><ele>284.25</ele><time>2026-04-12T09:23:29.062Z</time></trkpt><trkpt lat="44.7056583" lon="8.0737"><ele>283.5</ele><time>2026-04-12T09:23:30.062Z</time></trkpt><trkpt lat="44.7056617" lon="8.07354"><ele>282.75</ele><time>2026-04-12T09:23:31.065Z</time></trkpt><trkpt lat="44.7056633" lon="8.0733817"><ele>282.0</ele><time>2026-04-12T09:23:32.062Z</time></trkpt><trkpt lat="44.7056633" lon="8.0732217"><ele>281.75</ele><time>2026-04-12T09:23:33.063Z</time></trkpt><trkpt lat="44.705665" lon="8.0730617"><ele>281.5</ele><time>2026-04-12T09:23:34.061Z</time></trkpt><trkpt lat="44.70567" lon="8.0729033"><ele>281.25</ele><time>2026-04-12T09:23:35.06Z</time></trkpt><trkpt lat="44.7056833" lon="8.0727433"><ele>281.0</ele><time>2026-04-12T09:23:36.062Z</time></trkpt><trkpt lat="44.7057017" lon="8.0725867"><ele>280.25</ele><time>2026-04-12T09:23:37.062Z</time></trkpt><trkpt lat="44.7057217" lon="8.0724283"><ele>279.5</ele><time>2026-04-12T09:23:38.062Z</time></trkpt><trkpt lat="44.7057467" lon="8.072275"><ele>278.75</ele><time>2026-04-12T09:23:39.064Z</time></trkpt><trkpt lat="44.705775" lon="8.0721217"><ele>278.0</ele><time>2026-04-12T09:23:40.062Z</time></trkpt><trkpt lat="44.7058067" lon="8.07197"><ele>278.0</ele><time>2026-04-12T09:23:41.063Z</time></trkpt><trkpt lat="44.7058317" lon="8.071815"><ele>278.0</ele><time>2026-04-12T09:23:42.061Z</time></trkpt><trkpt lat="44.7058483" lon="8.07166"><ele>278.0</ele><time>2026-04-12T09:23:43.065Z</time></trkpt><trkpt lat="44.7058533" lon="8.0715033"><ele>278.0</ele><time>2026-04-12T09:23:44.063Z</time></trkpt><trkpt lat="44.7058483" lon="8.07135"><ele>278.0</ele><time>2026-04-12T09:23:45.065Z</time></trkpt><trkpt lat="44.7058333" lon="8.07119"><ele>277.4</ele><time>2026-04-12T09:23:46.062Z</time></trkpt><trkpt lat="44.705815" lon="8.0710383"><ele>276.8</ele><time>2026-04-12T09:23:47.061Z</time></trkpt><trkpt lat="44.7058067" lon="8.0708883"><ele>276.2</ele><time>2026-04-12T09:23:48.062Z</time></trkpt><trkpt lat="44.7058167" lon="8.0707433"><ele>275.6</ele><time>2026-04-12T09:23:49.064Z</time></trkpt><trkpt lat="44.7058583" lon="8.0706117"><ele>275.0</ele><time>2026-04-12T09:23:50.063Z</time></trkpt><trkpt lat="44.7059283" lon="8.0705017"><ele>274.4</ele><time>2026-04-12T09:23:51.064Z</time></trkpt><trkpt lat="44.7060183" lon="8.0704167"><ele>273.8</ele><time>2026-04-12T09:23:52.061Z</time></trkpt><trkpt lat="44.70612" lon="8.07036"><ele>273.2</ele><time>2026-04-12T09:23:53.062Z</time></trkpt><trkpt lat="44.706225" lon="8.07031"><ele>272.6</ele><time>2026-04-12T09:23:54.062Z</time></trkpt><trkpt lat="44.7063267" lon="8.0702583"><ele>272.0</ele><time>2026-04-12T09:23:55.061Z</time></trkpt><trkpt lat="44.7064317" lon="8.0702083"><ele>272.0</ele><time>2026-04-12T09:23:56.068Z</time></trkpt><trkpt lat="44.70654" lon="8.070155"><ele>272.0</ele><time>2026-04-12T09:23:57.065Z</time></trkpt><trkpt lat="44.7066483" lon="8.0700967"><ele>272.0</ele><time>2026-04-12T09:23:58.062Z</time></trkpt><trkpt lat="44.706755" lon="8.0700233"><ele>272.0</ele><time>2026-04-12T09:23:59.062Z</time></trkpt><trkpt lat="44.7068517" lon="8.0699283"><ele>272.0</ele><time>2026-04-12T09:24:00.062Z</time></trkpt><trkpt lat="44.706935" lon="8.06981"><ele>272.0</ele><time>2026-04-12T09:24:01.064Z</time></trkpt><trkpt lat="44.7070117" lon="8.069675"><ele>272.0</ele><time>2026-04-12T09:24:02.062Z</time></trkpt><trkpt lat="44.7070833" lon="8.0695333"><ele>272.0</ele><time>2026-04-12T09:24:03.061Z</time></trkpt><trkpt lat="44.70715" lon="8.0693833"><ele>272.0</ele><time>2026-04-12T09:24:04.062Z</time></trkpt><trkpt lat="44.7072133" lon="8.0692283"><ele>272.0</ele><time>2026-04-12T09:24:05.062Z</time></trkpt><trkpt lat="44.7072667" lon="8.0690667"><ele>272.0</ele><time>2026-04-12T09:24:06.062Z</time></trkpt><trkpt lat="44.7073133" lon="8.0689033"><ele>272.0</ele><time>2026-04-12T09:24:07.063Z</time></trkpt><trkpt lat="44.707355" lon="8.0687367"><ele>269.25</ele><time>2026-04-12T09:24:08.062Z</time></trkpt><trkpt lat="44.7073917" lon="8.0685667"><ele>266.5</ele><time>2026-04-12T09:24:09.064Z</time></trkpt><trkpt lat="44.707425" lon="8.0683933"><ele>263.75</ele><time>2026-04-12T09:24:10.063Z</time></trkpt><trkpt lat="44.70746" lon="8.068225"><ele>261.0</ele><time>2026-04-12T09:24:11.062Z</time></trkpt><trkpt lat="44.7074933" lon="8.0680717"><ele>259.6</ele><time>2026-04-12T09:24:12.063Z</time></trkpt><trkpt lat="44.7075317" lon="8.0679367"><ele>258.20000000000005</ele><time>2026-04-12T09:24:13.061Z</time></trkpt><trkpt lat="44.7075867" lon="8.0678117"><ele>256.79999999999995</ele><time>2026-04-12T09:24:14.062Z</time></trkpt><trkpt lat="44.707655" lon="8.0677083"><ele>255.39999999999998</ele><time>2026-04-12T09:24:15.065Z</time></trkpt><trkpt lat="44.7077417" lon="8.0676333"><ele>254.0</ele><time>2026-04-12T09:24:16.062Z</time></trkpt><trkpt lat="44.7078367" lon="8.0675933"><ele>254.0</ele><time>2026-04-12T09:24:17.062Z</time></trkpt><trkpt lat="44.70794" lon="8.0675833"><ele>253.99999999999997</ele><time>2026-04-12T09:24:18.063Z</time></trkpt><trkpt lat="44.7080433" lon="8.0675833"><ele>253.99999999999997</ele><time>2026-04-12T09:24:19.062Z</time></trkpt><trkpt lat="44.7081517" lon="8.0675783"><ele>254.0</ele><time>2026-04-12T09:24:20.065Z</time></trkpt><trkpt lat="44.7082583" lon="8.0675633"><ele>254.0</ele><time>2026-04-12T09:24:21.063Z</time></trkpt><trkpt lat="44.708365" lon="8.06753"><ele>254.0</ele><time>2026-04-12T09:24:22.062Z</time></trkpt><trkpt lat="44.7084683" lon="8.06748"><ele>253.99999999999997</ele><time>2026-04-12T09:24:23.063Z</time></trkpt><trkpt lat="44.7085683" lon="8.0674167"><ele>253.99999999999997</ele><time>2026-04-12T09:24:24.062Z</time></trkpt><trkpt lat="44.7086683" lon="8.0673467"><ele>254.0</ele><time>2026-04-12T09:24:25.063Z</time></trkpt><trkpt lat="44.7087683" lon="8.067275"><ele>254.0</ele><time>2026-04-12T09:24:26.061Z</time></trkpt><trkpt lat="44.70887" lon="8.0672"><ele>252.5</ele><time>2026-04-12T09:24:27.063Z</time></trkpt><trkpt lat="44.70897" lon="8.0671183"><ele>251.0</ele><time>2026-04-12T09:24:28.063Z</time></trkpt><trkpt lat="44.7090633" lon="8.0670217"><ele>249.5</ele><time>2026-04-12T09:24:29.063Z</time></trkpt><trkpt lat="44.7091433" lon="8.066905"><ele>248.0</ele><time>2026-04-12T09:24:30.062Z</time></trkpt><trkpt lat="44.709215" lon="8.0667717"><ele>248.0</ele><time>2026-04-12T09:24:31.061Z</time></trkpt><trkpt lat="44.7092767" lon="8.0666217"><ele>248.0</ele><time>2026-04-12T09:24:32.061Z</time></trkpt><trkpt lat="44.7093333" lon="8.0664683"><ele>248.0</ele><time>2026-04-12T09:24:33.063Z</time></trkpt><trkpt lat="44.7093833" lon="8.0663117"><ele>248.0</ele><time>2026-04-12T09:24:34.063Z</time></trkpt><trkpt lat="44.7094367" lon="8.0661583"><ele>247.5</ele><time>2026-04-12T09:24:35.06Z</time></trkpt><trkpt lat="44.7094883" lon="8.0660017"><ele>247.0</ele><time>2026-04-12T09:24:36.062Z</time></trkpt><trkpt lat="44.7095333" lon="8.0658417"><ele>246.5</ele><time>2026-04-12T09:24:37.06Z</time></trkpt><trkpt lat="44.7095733" lon="8.0656783"><ele>246.0</ele><time>2026-04-12T09:24:38.061Z</time></trkpt><trkpt lat="44.7096017" lon="8.0655083"><ele>246.0</ele><time>2026-04-12T09:24:39.062Z</time></trkpt><trkpt lat="44.7096133" lon="8.065335"><ele>246.0</ele><time>2026-04-12T09:24:40.063Z</time></trkpt><trkpt lat="44.7096117" lon="8.0651633"><ele>246.0</ele><time>2026-04-12T09:24:41.061Z</time></trkpt><trkpt lat="44.709605" lon="8.0649917"><ele>246.0</ele><time>2026-04-12T09:24:42.061Z</time></trkpt><trkpt lat="44.7095983" lon="8.06482"><ele>244.25</ele><time>2026-04-12T09:24:43.065Z</time></trkpt><trkpt lat="44.70959" lon="8.0646483"><ele>242.5</ele><time>2026-04-12T09:24:44.063Z</time></trkpt><trkpt lat="44.7095783" lon="8.0644783"><ele>240.75</ele><time>2026-04-12T09:24:45.062Z</time></trkpt><trkpt lat="44.7095683" lon="8.0643083"><ele>239.0</ele><time>2026-04-12T09:24:46.062Z</time></trkpt><trkpt lat="44.70956" lon="8.0641333"><ele>238.0</ele><time>2026-04-12T09:24:47.062Z</time></trkpt><trkpt lat="44.709545" lon="8.0639583"><ele>237.0</ele><time>2026-04-12T09:24:48.063Z</time></trkpt><trkpt lat="44.7095467" lon="8.063785"><ele>236.0</ele><time>2026-04-12T09:24:49.062Z</time></trkpt><trkpt lat="44.70958" lon="8.06362"><ele>235.0</ele><time>2026-04-12T09:24:50.065Z</time></trkpt><trkpt lat="44.70964" lon="8.0634783"><ele>235.0</ele><time>2026-04-12T09:24:51.065Z</time></trkpt><trkpt lat="44.7097217" lon="8.0633667"><ele>235.0</ele><time>2026-04-12T09:24:52.062Z</time></trkpt><trkpt lat="44.70981" lon="8.063265"><ele>235.0</ele><time>2026-04-12T09:24:53.062Z</time></trkpt><trkpt lat="44.70989" lon="8.0631617"><ele>235.0</ele><time>2026-04-12T09:24:54.062Z</time></trkpt><trkpt lat="44.7099567" lon="8.0630617"><ele>235.0</ele><time>2026-04-12T09:24:55.061Z</time></trkpt><trkpt lat="44.7100033" lon="8.062945"><ele>233.0</ele><time>2026-04-12T09:24:56.062Z</time></trkpt><trkpt lat="44.7100167" lon="8.06282"><ele>231.0</ele><time>2026-04-12T09:24:57.064Z</time></trkpt><trkpt lat="44.7099983" lon="8.0626867"><ele>229.0</ele><time>2026-04-12T09:24:58.063Z</time></trkpt><trkpt lat="44.70994" lon="8.06259"><ele>227.0</ele><time>2026-04-12T09:24:59.061Z</time></trkpt><trkpt lat="44.7098617" lon="8.0625183"><ele>225.0</ele><time>2026-04-12T09:25:00.062Z</time></trkpt><trkpt lat="44.7097683" lon="8.062465"><ele>225.0</ele><time>2026-04-12T09:25:01.059Z</time></trkpt><trkpt lat="44.7096683" lon="8.0624633"><ele>225.0</ele><time>2026-04-12T09:25:02.062Z</time></trkpt><trkpt lat="44.70957" lon="8.0624867"><ele>225.0</ele><time>2026-04-12T09:25:03.063Z</time></trkpt><trkpt lat="44.70947" lon="8.06252"><ele>225.0</ele><time>2026-04-12T09:25:04.064Z</time></trkpt><trkpt lat="44.7093867" lon="8.0625967"><ele>225.0</ele><time>2026-04-12T09:25:05.062Z</time></trkpt><trkpt lat="44.7093267" lon="8.0627083"><ele>223.2</ele><time>2026-04-12T09:25:06.063Z</time></trkpt><trkpt lat="44.7092883" lon="8.0628467"><ele>221.4</ele><time>2026-04-12T09:25:07.061Z</time></trkpt><trkpt lat="44.709265" lon="8.062995"><ele>219.60000000000002</ele><time>2026-04-12T09:25:08.064Z</time></trkpt><trkpt lat="44.7092433" lon="8.063145"><ele>217.8</ele><time>2026-04-12T09:25:09.064Z</time></trkpt><trkpt lat="44.7092217" lon="8.0632967"><ele>216.0</ele><time>2026-04-12T09:25:10.063Z</time></trkpt><trkpt lat="44.7091983" lon="8.0634483"><ele>216.0</ele><time>2026-04-12T09:25:11.062Z</time></trkpt><trkpt lat="44.7091717" lon="8.0635967"><ele>216.00000000000003</ele><time>2026-04-12T09:25:12.061Z</time></trkpt><trkpt lat="44.709145" lon="8.063745"><ele>216.00000000000003</ele><time>2026-04-12T09:25:13.065Z</time></trkpt><trkpt lat="44.7091233" lon="8.0638933"><ele>216.0</ele><time>2026-04-12T09:25:14.062Z</time></trkpt><trkpt lat="44.709105" lon="8.064045"><ele>216.0</ele><time>2026-04-12T09:25:15.061Z</time></trkpt><trkpt lat="44.7090933" lon="8.0641967"><ele>216.60000000000002</ele><time>2026-04-12T09:25:16.064Z</time></trkpt><trkpt lat="44.7090783" lon="8.064345"><ele>217.20000000000002</ele><time>2026-04-12T09:25:17.062Z</time></trkpt><trkpt lat="44.709065" lon="8.064495"><ele>217.79999999999998</ele><time>2026-04-12T09:25:18.063Z</time></trkpt><trkpt lat="44.7090533" lon="8.0646433"><ele>218.39999999999998</ele><time>2026-04-12T09:25:19.065Z</time></trkpt><trkpt lat="44.709045" lon="8.0647917"><ele>219.0</ele><time>2026-04-12T09:25:20.063Z</time></trkpt><trkpt lat="44.7090317" lon="8.064935"><ele>220.0</ele><time>2026-04-12T09:25:21.063Z</time></trkpt><trkpt lat="44.70899" lon="8.0650717"><ele>220.99999999999997</ele><time>2026-04-12T09:25:22.065Z</time></trkpt><trkpt lat="44.7089267" lon="8.06519"><ele>221.99999999999997</ele><time>2026-04-12T09:25:23.065Z</time></trkpt><trkpt lat="44.708845" lon="8.0652783"><ele>223.0</ele><time>2026-04-12T09:25:24.065Z</time></trkpt><trkpt lat="44.7087383" lon="8.0653183"><ele>224.0</ele><time>2026-04-12T09:25:25.065Z</time></trkpt><trkpt lat="44.7086267" lon="8.06533"><ele>220.25</ele><time>2026-04-12T09:25:26.056Z</time></trkpt><trkpt lat="44.7085167" lon="8.0653017"><ele>216.5</ele><time>2026-04-12T09:25:27.065Z</time></trkpt><trkpt lat="44.7084117" lon="8.0652383"><ele>212.75</ele><time>2026-04-12T09:25:28.065Z</time></trkpt><trkpt lat="44.70831" lon="8.0651533"><ele>209.0</ele><time>2026-04-12T09:25:29.064Z</time></trkpt><trkpt lat="44.7082117" lon="8.0650733"><ele>209.0</ele><time>2026-04-12T09:25:30.062Z</time></trkpt><trkpt lat="44.708105" lon="8.0650083"><ele>209.0</ele><time>2026-04-12T09:25:31.062Z</time></trkpt><trkpt lat="44.7079933" lon="8.0649683"><ele>209.0</ele><time>2026-04-12T09:25:32.064Z</time></trkpt><trkpt lat="44.7078783" lon="8.06494"><ele>209.0</ele><time>2026-04-12T09:25:33.066Z</time></trkpt><trkpt lat="44.7077633" lon="8.064915"><ele>206.0</ele><time>2026-04-12T09:25:34.066Z</time></trkpt><trkpt lat="44.7076483" lon="8.064895"><ele>203.0</ele><time>2026-04-12T09:25:35.062Z</time></trkpt><trkpt lat="44.7075333" lon="8.0648667"><ele>200.0</ele><time>2026-04-12T09:25:36.063Z</time></trkpt><trkpt lat="44.707415" lon="8.0648433"><ele>197.0</ele><time>2026-04-12T09:25:37.06Z</time></trkpt><trkpt lat="44.7072967" lon="8.0648183"><ele>197.0</ele><time>2026-04-12T09:25:38.062Z</time></trkpt><trkpt lat="44.7071767" lon="8.0647917"><ele>197.0</ele><time>2026-04-12T09:25:39.065Z</time></trkpt><trkpt lat="44.7070583" lon="8.06475"><ele>197.0</ele><time>2026-04-12T09:25:40.062Z</time></trkpt><trkpt lat="44.7069467" lon="8.0646767"><ele>197.0</ele><time>2026-04-12T09:25:41.061Z</time></trkpt><trkpt lat="44.7068467" lon="8.0645733"><ele>196.5</ele><time>2026-04-12T09:25:42.064Z</time></trkpt><trkpt lat="44.70676" lon="8.064445"><ele>196.0</ele><time>2026-04-12T09:25:43.065Z</time></trkpt><trkpt lat="44.706685" lon="8.0643133"><ele>195.5</ele><time>2026-04-12T09:25:44.063Z</time></trkpt><trkpt lat="44.7066083" lon="8.064205"><ele>195.0</ele><time>2026-04-12T09:25:45.064Z</time></trkpt><trkpt lat="44.7065217" lon="8.0641383"><ele>195.0</ele><time>2026-04-12T09:25:46.062Z</time></trkpt><trkpt lat="44.70643" lon="8.0641217"><ele>195.0</ele><time>2026-04-12T09:25:47.064Z</time></trkpt><trkpt lat="44.7063417" lon="8.0641617"><ele>195.0</ele><time>2026-04-12T09:25:48.064Z</time></trkpt><trkpt lat="44.7062633" lon="8.0642367"><ele>195.0</ele><time>2026-04-12T09:25:49.062Z</time></trkpt><trkpt lat="44.7062067" lon="8.06435"><ele>195.0</ele><time>2026-04-12T09:25:50.063Z</time></trkpt><trkpt lat="44.7061667" lon="8.0644783"><ele>195.0</ele><time>2026-04-12T09:25:51.063Z</time></trkpt><trkpt lat="44.7061467" lon="8.0646217"><ele>195.0</ele><time>2026-04-12T09:25:52.064Z</time></trkpt><trkpt lat="44.70614" lon="8.0647667"><ele>195.0</ele><time>2026-04-12T09:25:53.063Z</time></trkpt><trkpt lat="44.7061333" lon="8.0649133"><ele>195.0</ele><time>2026-04-12T09:25:54.065Z</time></trkpt><trkpt lat="44.7061283" lon="8.06506"><ele>195.0</ele><time>2026-04-12T09:25:55.064Z</time></trkpt><trkpt lat="44.7061283" lon="8.0652083"><ele>197.2</ele><time>2026-04-12T09:25:56.063Z</time></trkpt><trkpt lat="44.7061333" lon="8.0653533"><ele>199.4</ele><time>2026-04-12T09:25:57.064Z</time></trkpt><trkpt lat="44.7061417" lon="8.0655"><ele>201.60000000000002</ele><time>2026-04-12T09:25:58.063Z</time></trkpt><trkpt lat="44.7061467" lon="8.0656417"><ele>203.8</ele><time>2026-04-12T09:25:59.063Z</time></trkpt><trkpt lat="44.70614" lon="8.06578"><ele>206.0</ele><time>2026-04-12T09:26:00.061Z</time></trkpt><trkpt lat="44.7061083" lon="8.0659083"><ele>203.4</ele><time>2026-04-12T09:26:01.061Z</time></trkpt><trkpt lat="44.7060467" lon="8.0660167"><ele>200.8</ele><time>2026-04-12T09:26:02.063Z</time></trkpt><trkpt lat="44.7059633" lon="8.0661017"><ele>198.20000000000002</ele><time>2026-04-12T09:26:03.065Z</time></trkpt><trkpt lat="44.7058667" lon="8.0661517"><ele>195.60000000000002</ele><time>2026-04-12T09:26:04.064Z</time></trkpt><trkpt lat="44.7057667" lon="8.066155"><ele>193.0</ele><time>2026-04-12T09:26:05.063Z</time></trkpt><trkpt lat="44.7056717" lon="8.0661133"><ele>193.0</ele><time>2026-04-12T09:26:06.063Z</time></trkpt><trkpt lat="44.7055867" lon="8.0660317"><ele>193.0</ele><time>2026-04-12T09:26:07.063Z</time></trkpt><trkpt lat="44.7055117" lon="8.0659217"><ele>193.0</ele><time>2026-04-12T09:26:08.063Z</time></trkpt><trkpt lat="44.7054417" lon="8.06581"><ele>193.0</ele><time>2026-04-12T09:26:09.065Z</time></trkpt><trkpt lat="44.70537" lon="8.0656933"><ele>193.0</ele><time>2026-04-12T09:26:10.063Z</time></trkpt><trkpt lat="44.7052983" lon="8.0655783"><ele>191.8</ele><time>2026-04-12T09:26:11.063Z</time></trkpt><trkpt lat="44.705225" lon="8.065465"><ele>190.60000000000002</ele><time>2026-04-12T09:26:12.064Z</time></trkpt><trkpt lat="44.70515" lon="8.06535"><ele>189.39999999999998</ele><time>2026-04-12T09:26:13.062Z</time></trkpt><trkpt lat="44.7050767" lon="8.0652283"><ele>188.2</ele><time>2026-04-12T09:26:14.064Z</time></trkpt><trkpt lat="44.7049983" lon="8.0651083"><ele>187.0</ele><time>2026-04-12T09:26:15.065Z</time></trkpt><trkpt lat="44.7049183" lon="8.0649867"><ele>185.0</ele><time>2026-04-12T09:26:16.062Z</time></trkpt><trkpt lat="44.7048383" lon="8.0648667"><ele>183.0</ele><time>2026-04-12T09:26:17.062Z</time></trkpt><trkpt lat="44.7047517" lon="8.0647617"><ele>181.0</ele><time>2026-04-12T09:26:18.062Z</time></trkpt><trkpt lat="44.704655" lon="8.0646683"><ele>179.0</ele><time>2026-04-12T09:26:19.063Z</time></trkpt><trkpt lat="44.7045483" lon="8.0646017"><ele>179.0</ele><time>2026-04-12T09:26:20.064Z</time></trkpt><trkpt lat="44.7044333" lon="8.0645667"><ele>179.0</ele><time>2026-04-12T09:26:21.063Z</time></trkpt><trkpt lat="44.7043133" lon="8.064555"><ele>179.0</ele><time>2026-04-12T09:26:22.065Z</time></trkpt><trkpt lat="44.704195" lon="8.0645617"><ele>179.0</ele><time>2026-04-12T09:26:23.062Z</time></trkpt><trkpt lat="44.7040783" lon="8.06457"><ele>179.5</ele><time>2026-04-12T09:26:24.063Z</time></trkpt><trkpt lat="44.7039583" lon="8.0645783"><ele>180.0</ele><time>2026-04-12T09:26:25.065Z</time></trkpt><trkpt lat="44.7038367" lon="8.0645833"><ele>180.5</ele><time>2026-04-12T09:26:26.064Z</time></trkpt><trkpt lat="44.7037167" lon="8.06459"><ele>181.0</ele><time>2026-04-12T09:26:27.064Z</time></trkpt><trkpt lat="44.7035967" lon="8.0646033"><ele>179.75</ele><time>2026-04-12T09:26:28.063Z</time></trkpt><trkpt lat="44.7034783" lon="8.0646133"><ele>178.5</ele><time>2026-04-12T09:26:29.064Z</time></trkpt><trkpt lat="44.703355" lon="8.0646017"><ele>177.25</ele><time>2026-04-12T09:26:30.065Z</time></trkpt><trkpt lat="44.7032367" lon="8.06456"><ele>176.0</ele><time>2026-04-12T09:26:31.063Z</time></trkpt><trkpt lat="44.703125" lon="8.0644933"><ele>176.0</ele><time>2026-04-12T09:26:32.062Z</time></trkpt><trkpt lat="44.7030183" lon="8.0644133"><ele>176.0</ele><time>2026-04-12T09:26:33.063Z</time></trkpt><trkpt lat="44.7029117" lon="8.0643283"><ele>176.0</ele><time>2026-04-12T09:26:34.063Z</time></trkpt><trkpt lat="44.702805" lon="8.0642383"><ele>176.0</ele><time>2026-04-12T09:26:35.063Z</time></trkpt><trkpt lat="44.7026967" lon="8.0641517"><ele>174.5</ele><time>2026-04-12T09:26:36.065Z</time></trkpt><trkpt lat="44.70259" lon="8.06407"><ele>173.0</ele><time>2026-04-12T09:26:37.065Z</time></trkpt><trkpt lat="44.702485" lon="8.06399"><ele>171.5</ele><time>2026-04-12T09:26:38.063Z</time></trkpt><trkpt lat="44.70238" lon="8.0639083"><ele>170.0</ele><time>2026-04-12T09:26:39.063Z</time></trkpt><trkpt lat="44.7022717" lon="8.0638333"><ele>170.0</ele><time>2026-04-12T09:26:40.064Z</time></trkpt><trkpt lat="44.7021633" lon="8.063765"><ele>170.0</ele><time>2026-04-12T09:26:41.057Z</time></trkpt><trkpt lat="44.7020567" lon="8.0637017"><ele>170.0</ele><time>2026-04-12T09:26:42.061Z</time></trkpt><trkpt lat="44.7019517" lon="8.06364"><ele>170.0</ele><time>2026-04-12T09:26:43.064Z</time></trkpt><trkpt lat="44.7018467" lon="8.0635883"><ele>170.0</ele><time>2026-04-12T09:26:44.063Z</time></trkpt><trkpt lat="44.701745" lon="8.0635367"><ele>170.0</ele><time>2026-04-12T09:26:45.065Z</time></trkpt><trkpt lat="44.7016467" lon="8.063485"><ele>170.0</ele><time>2026-04-12T09:26:46.064Z</time></trkpt><trkpt lat="44.7015483" lon="8.0634367"><ele>170.0</ele><time>2026-04-12T09:26:47.064Z</time></trkpt><trkpt lat="44.7014517" lon="8.0633883"><ele>170.0</ele><time>2026-04-12T09:26:48.063Z</time></trkpt><trkpt lat="44.701355" lon="8.0633433"><ele>170.0</ele><time>2026-04-12T09:26:49.064Z</time></trkpt><trkpt lat="44.701265" lon="8.0633"><ele>170.0</ele><time>2026-04-12T09:26:50.064Z</time></trkpt><trkpt lat="44.7011783" lon="8.063255"><ele>170.0</ele><time>2026-04-12T09:26:51.063Z</time></trkpt><trkpt lat="44.701095" lon="8.0632067"><ele>170.0</ele><time>2026-04-12T09:26:52.063Z</time></trkpt><trkpt lat="44.7010133" lon="8.063155"><ele>170.0</ele><time>2026-04-12T09:26:53.063Z</time></trkpt><trkpt lat="44.700935" lon="8.0631067"><ele>169.83333333333331</ele><time>2026-04-12T09:26:54.06Z</time></trkpt><trkpt lat="44.7008583" lon="8.0630567"><ele>169.66666666666666</ele><time>2026-04-12T09:26:55.063Z</time></trkpt><trkpt lat="44.700785" lon="8.063"><ele>169.5</ele><time>2026-04-12T09:26:56.064Z</time></trkpt><trkpt lat="44.7007217" lon="8.0629333"><ele>169.33333333333334</ele><time>2026-04-12T09:26:57.063Z</time></trkpt><trkpt lat="44.7006633" lon="8.06285"><ele>169.16666666666669</ele><time>2026-04-12T09:26:58.066Z</time></trkpt><trkpt lat="44.7006233" lon="8.06276"><ele>169.0</ele><time>2026-04-12T09:26:59.066Z</time></trkpt><trkpt lat="44.7005967" lon="8.0626617"><ele>169.0</ele><time>2026-04-12T09:27:00.064Z</time></trkpt><trkpt lat="44.7005783" lon="8.0625633"><ele>169.0</ele><time>2026-04-12T09:27:01.063Z</time></trkpt><trkpt lat="44.7005717" lon="8.06246"><ele>169.0</ele><time>2026-04-12T09:27:02.064Z</time></trkpt><trkpt lat="44.7005667" lon="8.0623583"><ele>169.0</ele><time>2026-04-12T09:27:03.065Z</time></trkpt><trkpt lat="44.7005617" lon="8.0622517"><ele>169.0</ele><time>2026-04-12T09:27:04.064Z</time></trkpt><trkpt lat="44.7005517" lon="8.062145"><ele>169.0</ele><time>2026-04-12T09:27:05.063Z</time></trkpt><trkpt lat="44.7005433" lon="8.0620433"><ele>169.0</ele><time>2026-04-12T09:27:06.065Z</time></trkpt><trkpt lat="44.7005333" lon="8.0619383"><ele>169.57142857142858</ele><time>2026-04-12T09:27:07.062Z</time></trkpt><trkpt lat="44.700525" lon="8.0618333"><ele>170.14285714285714</ele><time>2026-04-12T09:27:08.063Z</time></trkpt><trkpt lat="44.7005167" lon="8.0617267"><ele>170.71428571428572</ele><time>2026-04-12T09:27:09.063Z</time></trkpt><trkpt lat="44.7005067" lon="8.06162"><ele>171.28571428571428</ele><time>2026-04-12T09:27:10.065Z</time></trkpt><trkpt lat="44.7005" lon="8.061515"><ele>171.85714285714286</ele><time>2026-04-12T09:27:11.062Z</time></trkpt><trkpt lat="44.70049" lon="8.0614133"><ele>172.42857142857142</ele><time>2026-04-12T09:27:12.065Z</time></trkpt><trkpt lat="44.70048" lon="8.0613133"><ele>173.0</ele><time>2026-04-12T09:27:13.064Z</time></trkpt><trkpt lat="44.700465" lon="8.0612233"><ele>174.16666666666666</ele><time>2026-04-12T09:27:14.063Z</time></trkpt><trkpt lat="44.70045" lon="8.0611367"><ele>175.33333333333331</ele><time>2026-04-12T09:27:15.065Z</time></trkpt><trkpt lat="44.7004317" lon="8.06105"><ele>176.5</ele><time>2026-04-12T09:27:16.062Z</time></trkpt><trkpt lat="44.70041" lon="8.0609633"><ele>177.66666666666666</ele><time>2026-04-12T09:27:17.063Z</time></trkpt><trkpt lat="44.7003533" lon="8.0608083"><ele>178.83333333333334</ele><time>2026-04-12T09:27:19.062Z</time></trkpt><trkpt lat="44.7002933" lon="8.0606683"><ele>180.0</ele><time>2026-04-12T09:27:21.064Z</time></trkpt><trkpt lat="44.7002333" lon="8.0605317"><ele>180.2</ele><time>2026-04-12T09:27:23.063Z</time></trkpt><trkpt lat="44.7001783" lon="8.060395"><ele>180.4</ele><time>2026-04-12T09:27:25.066Z</time></trkpt><trkpt lat="44.7001233" lon="8.0602633"><ele>180.60000000000002</ele><time>2026-04-12T09:27:27.066Z</time></trkpt><trkpt lat="44.7000583" lon="8.0601317"><ele>180.8</ele><time>2026-04-12T09:27:29.06Z</time></trkpt><trkpt lat="44.6999933" lon="8.0600067"><ele>181.0</ele><time>2026-04-12T09:27:31.067Z</time></trkpt><trkpt lat="44.6999283" lon="8.0598817"><ele>182.20000000000002</ele><time>2026-04-12T09:27:33.064Z</time></trkpt><trkpt lat="44.6998667" lon="8.0597517"><ele>183.4</ele><time>2026-04-12T09:27:35.062Z</time></trkpt><trkpt lat="44.6998017" lon="8.0596267"><ele>184.6</ele><time>2026-04-12T09:27:37.064Z</time></trkpt><trkpt lat="44.6997383" lon="8.0595"><ele>185.8</ele><time>2026-04-12T09:27:39.065Z</time></trkpt><trkpt lat="44.6996767" lon="8.0593717"><ele>187.0</ele><time>2026-04-12T09:27:41.061Z</time></trkpt><trkpt lat="44.699615" lon="8.0592467"><ele>187.0</ele><time>2026-04-12T09:27:43.063Z</time></trkpt><trkpt lat="44.6995583" lon="8.0591267"><ele>187.0</ele><time>2026-04-12T09:27:45.065Z</time></trkpt><trkpt lat="44.6995" lon="8.0590133"><ele>187.0</ele><time>2026-04-12T09:27:47.064Z</time></trkpt><trkpt lat="44.6994433" lon="8.0589033"><ele>187.0</ele><time>2026-04-12T09:27:49.065Z</time></trkpt><trkpt lat="44.6993917" lon="8.0587933"><ele>187.0</ele><time>2026-04-12T09:27:51.063Z</time></trkpt><trkpt lat="44.699335" lon="8.0586833"><ele>187.0</ele><time>2026-04-12T09:27:53.062Z</time></trkpt><trkpt lat="44.6992783" lon="8.05857"><ele>187.0</ele><time>2026-04-12T09:27:55.066Z</time></trkpt><trkpt lat="44.6992267" lon="8.0584617"><ele>187.0</ele><time>2026-04-12T09:27:57.066Z</time></trkpt><trkpt lat="44.699175" lon="8.0583517"><ele>187.0</ele><time>2026-04-12T09:27:59.062Z</time></trkpt><trkpt lat="44.6991233" lon="8.0582433"><ele>187.0</ele><time>2026-04-12T09:28:01.062Z</time></trkpt><trkpt lat="44.6990667" lon="8.0581367"><ele>188.0</ele><time>2026-04-12T09:28:03.065Z</time></trkpt><trkpt lat="44.6990083" lon="8.058035"><ele>189.0</ele><time>2026-04-12T09:28:05.065Z</time></trkpt><trkpt lat="44.6989533" lon="8.0579267"><ele>190.0</ele><time>2026-04-12T09:28:07.063Z</time></trkpt><trkpt lat="44.698895" lon="8.057825"><ele>191.0</ele><time>2026-04-12T09:28:09.062Z</time></trkpt><trkpt lat="44.6988433" lon="8.0577217"><ele>192.0</ele><time>2026-04-12T09:28:11.063Z</time></trkpt><trkpt lat="44.6987833" lon="8.05761"><ele>192.0</ele><time>2026-04-12T09:28:13.063Z</time></trkpt><trkpt lat="44.6987333" lon="8.0574933"><ele>192.0</ele><time>2026-04-12T09:28:15.064Z</time></trkpt><trkpt lat="44.69869" lon="8.0573833"><ele>192.0</ele><time>2026-04-12T09:28:17.065Z</time></trkpt><trkpt lat="44.6986367" lon="8.0572717"><ele>192.0</ele><time>2026-04-12T09:28:19.064Z</time></trkpt><trkpt lat="44.6985883" lon="8.0571633"><ele>192.0</ele><time>2026-04-12T09:28:21.066Z</time></trkpt><trkpt lat="44.69854" lon="8.05706"><ele>191.83333333333334</ele><time>2026-04-12T09:28:23.064Z</time></trkpt><trkpt lat="44.6984867" lon="8.05696"><ele>191.66666666666666</ele><time>2026-04-12T09:28:25.064Z</time></trkpt><trkpt lat="44.6984333" lon="8.0568583"><ele>191.5</ele><time>2026-04-12T09:28:27.066Z</time></trkpt><trkpt lat="44.6983817" lon="8.05676"><ele>191.33333333333331</ele><time>2026-04-12T09:28:29.062Z</time></trkpt><trkpt lat="44.6983417" lon="8.056655"><ele>191.16666666666666</ele><time>2026-04-12T09:28:31.065Z</time></trkpt><trkpt lat="44.6983" lon="8.05655"><ele>191.0</ele><time>2026-04-12T09:28:33.062Z</time></trkpt><trkpt lat="44.6982583" lon="8.056445"><ele>191.83333333333331</ele><time>2026-04-12T09:28:35.064Z</time></trkpt><trkpt lat="44.698225" lon="8.0563433"><ele>192.66666666666666</ele><time>2026-04-12T09:28:37.064Z</time></trkpt><trkpt lat="44.6981867" lon="8.05624"><ele>193.5</ele><time>2026-04-12T09:28:39.066Z</time></trkpt><trkpt lat="44.6981467" lon="8.0561317"><ele>194.33333333333331</ele><time>2026-04-12T09:28:41.063Z</time></trkpt><trkpt lat="44.6981083" lon="8.0560267"><ele>195.16666666666666</ele><time>2026-04-12T09:28:43.063Z</time></trkpt><trkpt lat="44.698075" lon="8.0559233"><ele>196.0</ele><time>2026-04-12T09:28:45.061Z</time></trkpt><trkpt lat="44.69804" lon="8.0558167"><ele>197.16666666666666</ele><time>2026-04-12T09:28:47.063Z</time></trkpt><trkpt lat="44.698" lon="8.0557133"><ele>198.33333333333331</ele><time>2026-04-12T09:28:49.062Z</time></trkpt><trkpt lat="44.6979583" lon="8.05561"><ele>199.5</ele><time>2026-04-12T09:28:51.062Z</time></trkpt><trkpt lat="44.6979183" lon="8.05551"><ele>200.66666666666669</ele><time>2026-04-12T09:28:53.063Z</time></trkpt><trkpt lat="44.6978783" lon="8.05541"><ele>201.83333333333334</ele><time>2026-04-12T09:28:55.063Z</time></trkpt><trkpt lat="44.6978383" lon="8.05531"><ele>203.0</ele><time>2026-04-12T09:28:57.062Z</time></trkpt><trkpt lat="44.6978017" lon="8.0552083"><ele>203.00000000000003</ele><time>2026-04-12T09:28:59.06Z</time></trkpt><trkpt lat="44.6977667" lon="8.055105"><ele>203.0</ele><time>2026-04-12T09:29:01.065Z</time></trkpt><trkpt lat="44.697735" lon="8.055005"><ele>203.0</ele><time>2026-04-12T09:29:03.061Z</time></trkpt><trkpt lat="44.6977033" lon="8.0549067"><ele>203.0</ele><time>2026-04-12T09:29:05.063Z</time></trkpt><trkpt lat="44.6976567" lon="8.054815"><ele>203.00000000000003</ele><time>2026-04-12T09:29:07.064Z</time></trkpt><trkpt lat="44.6976083" lon="8.0547217"><ele>203.0</ele><time>2026-04-12T09:29:09.063Z</time></trkpt><trkpt lat="44.6975567" lon="8.0546367"><ele>202.83333333333334</ele><time>2026-04-12T09:29:11.062Z</time></trkpt><trkpt lat="44.6975" lon="8.054555"><ele>202.66666666666669</ele><time>2026-04-12T09:29:13.066Z</time></trkpt><trkpt lat="44.6974383" lon="8.0544833"><ele>202.5</ele><time>2026-04-12T09:29:15.065Z</time></trkpt><trkpt lat="44.6973633" lon="8.0544233"><ele>202.33333333333331</ele><time>2026-04-12T09:29:17.063Z</time></trkpt><trkpt lat="44.69729" lon="8.0543817"><ele>202.16666666666666</ele><time>2026-04-12T09:29:19.062Z</time></trkpt><trkpt lat="44.6972133" lon="8.0543433"><ele>202.0</ele><time>2026-04-12T09:29:21.062Z</time></trkpt><trkpt lat="44.6971383" lon="8.0543233"><ele>201.99999999999997</ele><time>2026-04-12T09:29:23.061Z</time></trkpt><trkpt lat="44.6970617" lon="8.0543067"><ele>202.0</ele><time>2026-04-12T09:29:25.064Z</time></trkpt><trkpt lat="44.6969833" lon="8.0542883"><ele>202.0</ele><time>2026-04-12T09:29:27.063Z</time></trkpt><trkpt lat="44.6969033" lon="8.054265"><ele>202.0</ele><time>2026-04-12T09:29:29.064Z</time></trkpt><trkpt lat="44.696825" lon="8.0542483"><ele>201.99999999999997</ele><time>2026-04-12T09:29:31.06Z</time></trkpt><trkpt lat="44.696745" lon="8.05424"><ele>202.0</ele><time>2026-04-12T09:29:33.062Z</time></trkpt><trkpt lat="44.696665" lon="8.0542183"><ele>202.33333333333331</ele><time>2026-04-12T09:29:35.061Z</time></trkpt><trkpt lat="44.6965867" lon="8.0542017"><ele>202.66666666666666</ele><time>2026-04-12T09:29:37.062Z</time></trkpt><trkpt lat="44.6965083" lon="8.0541833"><ele>203.0</ele><time>2026-04-12T09:29:39.063Z</time></trkpt><trkpt lat="44.69643" lon="8.0541717"><ele>203.33333333333331</ele><time>2026-04-12T09:29:41.061Z</time></trkpt><trkpt lat="44.696355" lon="8.05416"><ele>203.66666666666666</ele><time>2026-04-12T09:29:43.066Z</time></trkpt><trkpt lat="44.6962767" lon="8.0541517"><ele>204.0</ele><time>2026-04-12T09:29:45.064Z</time></trkpt><trkpt lat="44.6962017" lon="8.0541417"><ele>204.0</ele><time>2026-04-12T09:29:47.061Z</time></trkpt><trkpt lat="44.696125" lon="8.05413"><ele>204.0</ele><time>2026-04-12T09:29:49.057Z</time></trkpt><trkpt lat="44.69605" lon="8.054115"><ele>204.0</ele><time>2026-04-12T09:29:51.064Z</time></trkpt><trkpt lat="44.69597" lon="8.0540883"><ele>204.0</ele><time>2026-04-12T09:29:53.062Z</time></trkpt><trkpt lat="44.6958983" lon="8.0540533"><ele>204.0</ele><time>2026-04-12T09:29:55.064Z</time></trkpt><trkpt lat="44.6958217" lon="8.0540317"><ele>204.0</ele><time>2026-04-12T09:29:57.064Z</time></trkpt><trkpt lat="44.6957433" lon="8.054005"><ele>204.16666666666666</ele><time>2026-04-12T09:29:59.06Z</time></trkpt><trkpt lat="44.6956683" lon="8.0539783"><ele>204.33333333333331</ele><time>2026-04-12T09:30:01.062Z</time></trkpt><trkpt lat="44.6955967" lon="8.0539433"><ele>204.5</ele><time>2026-04-12T09:30:03.062Z</time></trkpt><trkpt lat="44.695525" lon="8.0539"><ele>204.66666666666666</ele><time>2026-04-12T09:30:05.062Z</time></trkpt><trkpt lat="44.6954533" lon="8.0538517"><ele>204.83333333333331</ele><time>2026-04-12T09:30:07.066Z</time></trkpt><trkpt lat="44.6953833" lon="8.0537967"><ele>205.0</ele><time>2026-04-12T09:30:09.062Z</time></trkpt><trkpt lat="44.6953083" lon="8.053735"><ele>206.16666666666666</ele><time>2026-04-12T09:30:11.063Z</time></trkpt><trkpt lat="44.69524" lon="8.0536783"><ele>207.33333333333331</ele><time>2026-04-12T09:30:13.061Z</time></trkpt><trkpt lat="44.6951717" lon="8.0536333"><ele>208.5</ele><time>2026-04-12T09:30:15.063Z</time></trkpt><trkpt lat="44.6950983" lon="8.0535783"><ele>209.66666666666669</ele><time>2026-04-12T09:30:17.061Z</time></trkpt><trkpt lat="44.69503" lon="8.0535117"><ele>210.83333333333334</ele><time>2026-04-12T09:30:19.066Z</time></trkpt><trkpt lat="44.6949567" lon="8.053455"><ele>212.0</ele><time>2026-04-12T09:30:21.064Z</time></trkpt><trkpt lat="44.694885" lon="8.0534033"><ele>212.00000000000003</ele><time>2026-04-12T09:30:23.06Z</time></trkpt><trkpt lat="44.694815" lon="8.0533517"><ele>212.0</ele><time>2026-04-12T09:30:25.063Z</time></trkpt><trkpt lat="44.6947433" lon="8.0533"><ele>212.0</ele><time>2026-04-12T09:30:27.064Z</time></trkpt><trkpt lat="44.6946733" lon="8.0532467"><ele>212.0</ele><time>2026-04-12T09:30:29.065Z</time></trkpt><trkpt lat="44.6946067" lon="8.053195"><ele>212.00000000000003</ele><time>2026-04-12T09:30:31.063Z</time></trkpt><trkpt lat="44.69454" lon="8.0531383"><ele>212.0</ele><time>2026-04-12T09:30:33.063Z</time></trkpt><trkpt lat="44.6944717" lon="8.0530867"><ele>212.83333333333334</ele><time>2026-04-12T09:30:35.063Z</time></trkpt><trkpt lat="44.694405" lon="8.0530417"><ele>213.66666666666669</ele><time>2026-04-12T09:30:37.061Z</time></trkpt><trkpt lat="44.694335" lon="8.0530033"><ele>214.5</ele><time>2026-04-12T09:30:39.063Z</time></trkpt><trkpt lat="44.6942633" lon="8.052965"><ele>215.33333333333331</ele><time>2026-04-12T09:30:41.06Z</time></trkpt><trkpt lat="44.6941883" lon="8.0529383"><ele>216.16666666666666</ele><time>2026-04-12T09:30:43.065Z</time></trkpt><trkpt lat="44.694115" lon="8.0529017"><ele>217.0</ele><time>2026-04-12T09:30:45.064Z</time></trkpt><trkpt lat="44.69404" lon="8.0528717"><ele>216.99999999999997</ele><time>2026-04-12T09:30:47.062Z</time></trkpt><trkpt lat="44.6939633" lon="8.052855"><ele>217.0</ele><time>2026-04-12T09:30:49.061Z</time></trkpt><trkpt lat="44.6938833" lon="8.0528367"><ele>217.0</ele><time>2026-04-12T09:30:51.062Z</time></trkpt><trkpt lat="44.6938017" lon="8.052825"><ele>217.0</ele><time>2026-04-12T09:30:53.062Z</time></trkpt><trkpt lat="44.69372" lon="8.0528167"><ele>216.99999999999997</ele><time>2026-04-12T09:30:55.062Z</time></trkpt><trkpt lat="44.6936417" lon="8.052815"><ele>217.0</ele><time>2026-04-12T09:30:57.062Z</time></trkpt><trkpt lat="44.6935617" lon="8.0528083"><ele>217.83333333333331</ele><time>2026-04-12T09:30:59.066Z</time></trkpt><trkpt lat="44.693485" lon="8.0528033"><ele>218.66666666666666</ele><time>2026-04-12T09:31:01.062Z</time></trkpt><trkpt lat="44.6934033" lon="8.0527983"><ele>219.5</ele><time>2026-04-12T09:31:03.064Z</time></trkpt><trkpt lat="44.6933267" lon="8.0527917"><ele>220.33333333333331</ele><time>2026-04-12T09:31:05.063Z</time></trkpt><trkpt lat="44.69325" lon="8.0527867"><ele>221.16666666666666</ele><time>2026-04-12T09:31:07.061Z</time></trkpt><trkpt lat="44.6931717" lon="8.052775"><ele>222.0</ele><time>2026-04-12T09:31:09.062Z</time></trkpt><trkpt lat="44.6930917" lon="8.0527683"><ele>222.0</ele><time>2026-04-12T09:31:11.062Z</time></trkpt><trkpt lat="44.693015" lon="8.0527617"><ele>222.0</ele><time>2026-04-12T09:31:13.062Z</time></trkpt><trkpt lat="44.6929383" lon="8.052745"><ele>222.0</ele><time>2026-04-12T09:31:15.063Z</time></trkpt><trkpt lat="44.6928583" lon="8.05273"><ele>222.0</ele><time>2026-04-12T09:31:17.062Z</time></trkpt><trkpt lat="44.6927783" lon="8.0527283"><ele>222.0</ele><time>2026-04-12T09:31:19.065Z</time></trkpt><trkpt lat="44.6927017" lon="8.05272"><ele>222.0</ele><time>2026-04-12T09:31:21.064Z</time></trkpt><trkpt lat="44.692625" lon="8.0527083"><ele>222.66666666666666</ele><time>2026-04-12T09:31:23.062Z</time></trkpt><trkpt lat="44.6925483" lon="8.0526883"><ele>223.33333333333331</ele><time>2026-04-12T09:31:25.058Z</time></trkpt><trkpt lat="44.692475" lon="8.05264"><ele>224.0</ele><time>2026-04-12T09:31:27.064Z</time></trkpt><trkpt lat="44.69241" lon="8.05257"><ele>224.66666666666666</ele><time>2026-04-12T09:31:29.063Z</time></trkpt><trkpt lat="44.692355" lon="8.052485"><ele>225.33333333333331</ele><time>2026-04-12T09:31:31.065Z</time></trkpt><trkpt lat="44.6923217" lon="8.0523867"><ele>226.0</ele><time>2026-04-12T09:31:33.063Z</time></trkpt><trkpt lat="44.6923033" lon="8.0522733"><ele>227.33333333333331</ele><time>2026-04-12T09:31:35.061Z</time></trkpt><trkpt lat="44.6922983" lon="8.0521517"><ele>228.66666666666666</ele><time>2026-04-12T09:31:37.063Z</time></trkpt><trkpt lat="44.692315" lon="8.0520317"><ele>230.0</ele><time>2026-04-12T09:31:39.065Z</time></trkpt><trkpt lat="44.69235" lon="8.0519217"><ele>231.33333333333331</ele><time>2026-04-12T09:31:41.062Z</time></trkpt><trkpt lat="44.6924083" lon="8.0518267"><ele>232.66666666666666</ele><time>2026-04-12T09:31:43.062Z</time></trkpt><trkpt lat="44.6924733" lon="8.0517633"><ele>234.0</ele><time>2026-04-12T09:31:45.065Z</time></trkpt><trkpt lat="44.6925433" lon="8.051705"><ele>234.0</ele><time>2026-04-12T09:31:47.063Z</time></trkpt><trkpt lat="44.6926183" lon="8.0516517"><ele>234.0</ele><time>2026-04-12T09:31:49.062Z</time></trkpt><trkpt lat="44.692695" lon="8.0516033"><ele>234.0</ele><time>2026-04-12T09:31:51.066Z</time></trkpt><trkpt lat="44.6927683" lon="8.051555"><ele>234.0</ele><time>2026-04-12T09:31:53.063Z</time></trkpt><trkpt lat="44.6928433" lon="8.0514983"><ele>234.0</ele><time>2026-04-12T09:31:55.065Z</time></trkpt><trkpt lat="44.6929183" lon="8.0514433"><ele>234.0</ele><time>2026-04-12T09:31:57.065Z</time></trkpt><trkpt lat="44.6929933" lon="8.0513867"><ele>234.5</ele><time>2026-04-12T09:31:59.065Z</time></trkpt><trkpt lat="44.6930633" lon="8.0513317"><ele>235.0</ele><time>2026-04-12T09:32:01.062Z</time></trkpt><trkpt lat="44.6931317" lon="8.051275"><ele>235.5</ele><time>2026-04-12T09:32:03.063Z</time></trkpt><trkpt lat="44.6932" lon="8.0511933"><ele>236.0</ele><time>2026-04-12T09:32:05.061Z</time></trkpt><trkpt lat="44.6932633" lon="8.0511067"><ele>236.5</ele><time>2026-04-12T09:32:07.06Z</time></trkpt><trkpt lat="44.6933233" lon="8.051015"><ele>237.0</ele><time>2026-04-12T09:32:09.063Z</time></trkpt><trkpt lat="44.6933867" lon="8.0509167"><ele>237.0</ele><time>2026-04-12T09:32:11.063Z</time></trkpt><trkpt lat="44.69344" lon="8.0508167"><ele>237.0</ele><time>2026-04-12T09:32:13.065Z</time></trkpt><trkpt lat="44.6934967" lon="8.05072"><ele>237.0</ele><time>2026-04-12T09:32:15.065Z</time></trkpt><trkpt lat="44.6935567" lon="8.05063"><ele>237.0</ele><time>2026-04-12T09:32:17.063Z</time></trkpt><trkpt lat="44.6936167" lon="8.050535"><ele>237.0</ele><time>2026-04-12T09:32:19.063Z</time></trkpt><trkpt lat="44.693675" lon="8.0504433"><ele>237.0</ele><time>2026-04-12T09:32:21.065Z</time></trkpt><trkpt lat="44.6937383" lon="8.05036"><ele>238.0</ele><time>2026-04-12T09:32:23.062Z</time></trkpt><trkpt lat="44.6938" lon="8.0502783"><ele>239.0</ele><time>2026-04-12T09:32:25.063Z</time></trkpt><trkpt lat="44.6938583" lon="8.050195"><ele>240.0</ele><time>2026-04-12T09:32:27.065Z</time></trkpt><trkpt lat="44.693915" lon="8.0501117"><ele>241.0</ele><time>2026-04-12T09:32:29.064Z</time></trkpt><trkpt lat="44.6939667" lon="8.0500183"><ele>242.0</ele><time>2026-04-12T09:32:31.067Z</time></trkpt><trkpt lat="44.6940183" lon="8.0499333"><ele>243.0</ele><time>2026-04-12T09:32:33.063Z</time></trkpt><trkpt lat="44.6940717" lon="8.0498417"><ele>243.4</ele><time>2026-04-12T09:32:35.063Z</time></trkpt><trkpt lat="44.6941217" lon="8.0497433"><ele>243.8</ele><time>2026-04-12T09:32:37.063Z</time></trkpt><trkpt lat="44.6941683" lon="8.0496417"><ele>244.2</ele><time>2026-04-12T09:32:39.065Z</time></trkpt><trkpt lat="44.6941983" lon="8.0495183"><ele>244.6</ele><time>2026-04-12T09:32:41.064Z</time></trkpt><trkpt lat="44.6942283" lon="8.04939"><ele>245.0</ele><time>2026-04-12T09:32:43.066Z</time></trkpt><trkpt lat="44.6942667" lon="8.049265"><ele>245.00000000000003</ele><time>2026-04-12T09:32:45.065Z</time></trkpt><trkpt lat="44.6943117" lon="8.04913"><ele>245.0</ele><time>2026-04-12T09:32:47.063Z</time></trkpt><trkpt lat="44.69439" lon="8.0489967"><ele>245.0</ele><time>2026-04-12T09:32:49.065Z</time></trkpt><trkpt lat="44.6944367" lon="8.0489367"><ele>245.0</ele><time>2026-04-12T09:32:50.064Z</time></trkpt><trkpt lat="44.69449" lon="8.0488833"><ele>245.00000000000003</ele><time>2026-04-12T09:32:51.063Z</time></trkpt><trkpt lat="44.6945483" lon="8.0488317"><ele>245.0</ele><time>2026-04-12T09:32:52.065Z</time></trkpt><trkpt lat="44.69461" lon="8.0487817"><ele>243.33333333333334</ele><time>2026-04-12T09:32:53.063Z</time></trkpt><trkpt lat="44.6946733" lon="8.048735"><ele>241.66666666666669</ele><time>2026-04-12T09:32:54.065Z</time></trkpt><trkpt lat="44.6947417" lon="8.048685"><ele>240.0</ele><time>2026-04-12T09:32:55.066Z</time></trkpt><trkpt lat="44.6948117" lon="8.0486367"><ele>238.33333333333331</ele><time>2026-04-12T09:32:56.063Z</time></trkpt><trkpt lat="44.6948817" lon="8.0485867"><ele>236.66666666666666</ele><time>2026-04-12T09:32:57.065Z</time></trkpt><trkpt lat="44.6949483" lon="8.0485367"><ele>235.0</ele><time>2026-04-12T09:32:58.064Z</time></trkpt><trkpt lat="44.6950183" lon="8.04848"><ele>234.99999999999997</ele><time>2026-04-12T09:32:59.064Z</time></trkpt><trkpt lat="44.6950883" lon="8.04842"><ele>235.0</ele><time>2026-04-12T09:33:00.063Z</time></trkpt><trkpt lat="44.6951617" lon="8.0483567"><ele>235.0</ele><time>2026-04-12T09:33:01.065Z</time></trkpt><trkpt lat="44.695235" lon="8.0482883"><ele>235.0</ele><time>2026-04-12T09:33:02.065Z</time></trkpt><trkpt lat="44.6953083" lon="8.0482167"><ele>234.99999999999997</ele><time>2026-04-12T09:33:03.065Z</time></trkpt><trkpt lat="44.695385" lon="8.0481417"><ele>235.0</ele><time>2026-04-12T09:33:04.065Z</time></trkpt><trkpt lat="44.6954617" lon="8.0480667"><ele>233.2</ele><time>2026-04-12T09:33:05.063Z</time></trkpt><trkpt lat="44.6955383" lon="8.04799"><ele>231.4</ele><time>2026-04-12T09:33:06.064Z</time></trkpt><trkpt lat="44.6956167" lon="8.04791"><ele>229.60000000000002</ele><time>2026-04-12T09:33:07.063Z</time></trkpt><trkpt lat="44.6956917" lon="8.047825"><ele>227.8</ele><time>2026-04-12T09:33:08.062Z</time></trkpt><trkpt lat="44.69577" lon="8.0477417"><ele>226.0</ele><time>2026-04-12T09:33:09.065Z</time></trkpt><trkpt lat="44.6958467" lon="8.0476583"><ele>226.0</ele><time>2026-04-12T09:33:10.063Z</time></trkpt><trkpt lat="44.6959233" lon="8.04757"><ele>226.00000000000003</ele><time>2026-04-12T09:33:11.063Z</time></trkpt><trkpt lat="44.696005" lon="8.047485"><ele>226.00000000000003</ele><time>2026-04-12T09:33:12.064Z</time></trkpt><trkpt lat="44.6960867" lon="8.0474033"><ele>226.0</ele><time>2026-04-12T09:33:13.064Z</time></trkpt><trkpt lat="44.696175" lon="8.047325"><ele>226.0</ele><time>2026-04-12T09:33:14.064Z</time></trkpt><trkpt lat="44.69626" lon="8.0472483"><ele>224.60000000000002</ele><time>2026-04-12T09:33:15.066Z</time></trkpt><trkpt lat="44.69635" lon="8.04718"><ele>223.20000000000002</ele><time>2026-04-12T09:33:16.062Z</time></trkpt><trkpt lat="44.6964417" lon="8.04711"><ele>221.79999999999998</ele><time>2026-04-12T09:33:17.063Z</time></trkpt><trkpt lat="44.6965317" lon="8.0470383"><ele>220.39999999999998</ele><time>2026-04-12T09:33:18.062Z</time></trkpt><trkpt lat="44.6966217" lon="8.046965"><ele>219.0</ele><time>2026-04-12T09:33:19.065Z</time></trkpt><trkpt lat="44.6967083" lon="8.0468833"><ele>219.0</ele><time>2026-04-12T09:33:20.066Z</time></trkpt><trkpt lat="44.696795" lon="8.0467983"><ele>218.99999999999997</ele><time>2026-04-12T09:33:21.063Z</time></trkpt><trkpt lat="44.69688" lon="8.0467167"><ele>218.99999999999997</ele><time>2026-04-12T09:33:22.064Z</time></trkpt><trkpt lat="44.69697" lon="8.0466533"><ele>219.0</ele><time>2026-04-12T09:33:23.062Z</time></trkpt><trkpt lat="44.6970633" lon="8.0466267"><ele>219.0</ele><time>2026-04-12T09:33:24.064Z</time></trkpt><trkpt lat="44.6971567" lon="8.04664"><ele>217.79999999999998</ele><time>2026-04-12T09:33:25.062Z</time></trkpt><trkpt lat="44.69724" lon="8.0467033"><ele>216.59999999999997</ele><time>2026-04-12T09:33:26.063Z</time></trkpt><trkpt lat="44.6973017" lon="8.04681"><ele>215.4</ele><time>2026-04-12T09:33:27.062Z</time></trkpt><trkpt lat="44.6973517" lon="8.0469333"><ele>214.2</ele><time>2026-04-12T09:33:28.063Z</time></trkpt><trkpt lat="44.6974067" lon="8.0470617"><ele>213.0</ele><time>2026-04-12T09:33:29.062Z</time></trkpt><trkpt lat="44.6974733" lon="8.0471717"><ele>213.0</ele><time>2026-04-12T09:33:30.062Z</time></trkpt><trkpt lat="44.697555" lon="8.047255"><ele>213.0</ele><time>2026-04-12T09:33:31.063Z</time></trkpt><trkpt lat="44.6976467" lon="8.0473117"><ele>213.0</ele><time>2026-04-12T09:33:32.062Z</time></trkpt><trkpt lat="44.6977483" lon="8.0473417"><ele>213.0</ele><time>2026-04-12T09:33:33.065Z</time></trkpt><trkpt lat="44.6978483" lon="8.0473333"><ele>213.0</ele><time>2026-04-12T09:33:34.059Z</time></trkpt><trkpt lat="44.69795" lon="8.0472983"><ele>212.0</ele><time>2026-04-12T09:33:35.063Z</time></trkpt><trkpt lat="44.69805" lon="8.0472433"><ele>211.0</ele><time>2026-04-12T09:33:36.061Z</time></trkpt><trkpt lat="44.698145" lon="8.047175"><ele>210.0</ele><time>2026-04-12T09:33:37.063Z</time></trkpt><trkpt lat="44.698235" lon="8.0470933"><ele>209.0</ele><time>2026-04-12T09:33:38.063Z</time></trkpt><trkpt lat="44.69832" lon="8.0470033"><ele>208.0</ele><time>2026-04-12T09:33:39.063Z</time></trkpt><trkpt lat="44.698405" lon="8.04692"><ele>208.0</ele><time>2026-04-12T09:33:40.063Z</time></trkpt><trkpt lat="44.6984967" lon="8.0468433"><ele>208.0</ele><time>2026-04-12T09:33:41.061Z</time></trkpt><trkpt lat="44.6985933" lon="8.0467733"><ele>208.0</ele><time>2026-04-12T09:33:42.063Z</time></trkpt><trkpt lat="44.6986883" lon="8.0467167"><ele>208.0</ele><time>2026-04-12T09:33:43.062Z</time></trkpt><trkpt lat="44.69879" lon="8.046685"><ele>208.0</ele><time>2026-04-12T09:33:44.064Z</time></trkpt><trkpt lat="44.6988933" lon="8.0466717"><ele>209.4</ele><time>2026-04-12T09:33:45.063Z</time></trkpt><trkpt lat="44.698995" lon="8.04665"><ele>210.8</ele><time>2026-04-12T09:33:46.064Z</time></trkpt><trkpt lat="44.699095" lon="8.0466167"><ele>212.2</ele><time>2026-04-12T09:33:47.062Z</time></trkpt><trkpt lat="44.6991967" lon="8.046575"><ele>213.6</ele><time>2026-04-12T09:33:48.063Z</time></trkpt><trkpt lat="44.6993" lon="8.0465283"><ele>215.0</ele><time>2026-04-12T09:33:49.065Z</time></trkpt><trkpt lat="44.6994017" lon="8.04648"><ele>211.4</ele><time>2026-04-12T09:33:50.062Z</time></trkpt><trkpt lat="44.6995033" lon="8.0464433"><ele>207.8</ele><time>2026-04-12T09:33:51.062Z</time></trkpt><trkpt lat="44.69961" lon="8.046435"><ele>204.2</ele><time>2026-04-12T09:33:52.063Z</time></trkpt><trkpt lat="44.6997117" lon="8.0464433"><ele>200.6</ele><time>2026-04-12T09:33:53.062Z</time></trkpt><trkpt lat="44.6998017" lon="8.0464533"><ele>197.0</ele><time>2026-04-12T09:33:54.061Z</time></trkpt><trkpt lat="44.69989" lon="8.0464433"><ele>197.0</ele><time>2026-04-12T09:33:55.063Z</time></trkpt><trkpt lat="44.69996" lon="8.0463733"><ele>197.0</ele><time>2026-04-12T09:33:56.062Z</time></trkpt><trkpt lat="44.7000183" lon="8.0462783"><ele>197.0</ele><time>2026-04-12T09:33:57.064Z</time></trkpt><trkpt lat="44.7000333" lon="8.046145"><ele>197.0</ele><time>2026-04-12T09:33:58.062Z</time></trkpt><trkpt lat="44.7000117" lon="8.0460117"><ele>197.0</ele><time>2026-04-12T09:33:59.062Z</time></trkpt><trkpt lat="44.6999567" lon="8.0458967"><ele>197.0</ele><time>2026-04-12T09:34:00.065Z</time></trkpt><trkpt lat="44.6998833" lon="8.0458017"><ele>197.0</ele><time>2026-04-12T09:34:01.062Z</time></trkpt><trkpt lat="44.6997917" lon="8.0457267"><ele>197.0</ele><time>2026-04-12T09:34:02.063Z</time></trkpt><trkpt lat="44.6997017" lon="8.045665"><ele>197.0</ele><time>2026-04-12T09:34:03.063Z</time></trkpt><trkpt lat="44.6996" lon="8.0456183"><ele>197.0</ele><time>2026-04-12T09:34:04.066Z</time></trkpt><trkpt lat="44.6995017" lon="8.0455767"><ele>194.39999999999998</ele><time>2026-04-12T09:34:05.062Z</time></trkpt><trkpt lat="44.6993983" lon="8.04555"><ele>191.79999999999998</ele><time>2026-04-12T09:34:06.06Z</time></trkpt><trkpt lat="44.6992917" lon="8.045535"><ele>189.2</ele><time>2026-04-12T09:34:07.062Z</time></trkpt><trkpt lat="44.6991833" lon="8.0455417"><ele>186.6</ele><time>2026-04-12T09:34:08.063Z</time></trkpt><trkpt lat="44.6990733" lon="8.0455667"><ele>184.0</ele><time>2026-04-12T09:34:09.063Z</time></trkpt><trkpt lat="44.6989633" lon="8.045595"><ele>184.0</ele><time>2026-04-12T09:34:10.062Z</time></trkpt><trkpt lat="44.698855" lon="8.0456267"><ele>184.0</ele><time>2026-04-12T09:34:11.063Z</time></trkpt><trkpt lat="44.6987467" lon="8.0456467"><ele>184.0</ele><time>2026-04-12T09:34:12.062Z</time></trkpt><trkpt lat="44.6986383" lon="8.0456283"><ele>184.0</ele><time>2026-04-12T09:34:13.061Z</time></trkpt><trkpt lat="44.69854" lon="8.0455667"><ele>184.0</ele><time>2026-04-12T09:34:14.062Z</time></trkpt><trkpt lat="44.6984583" lon="8.0454617"><ele>185.0</ele><time>2026-04-12T09:34:15.058Z</time></trkpt><trkpt lat="44.6984033" lon="8.0453267"><ele>186.0</ele><time>2026-04-12T09:34:16.063Z</time></trkpt><trkpt lat="44.698365" lon="8.0451783"><ele>187.0</ele><time>2026-04-12T09:34:17.061Z</time></trkpt><trkpt lat="44.6983217" lon="8.0450317"><ele>188.0</ele><time>2026-04-12T09:34:18.063Z</time></trkpt><trkpt lat="44.6982717" lon="8.0448933"><ele>189.0</ele><time>2026-04-12T09:34:19.061Z</time></trkpt><trkpt lat="44.6982067" lon="8.0447717"><ele>188.0</ele><time>2026-04-12T09:34:20.062Z</time></trkpt><trkpt lat="44.6981317" lon="8.0446733"><ele>187.0</ele><time>2026-04-12T09:34:21.061Z</time></trkpt><trkpt lat="44.6980433" lon="8.0445983"><ele>186.0</ele><time>2026-04-12T09:34:22.062Z</time></trkpt><trkpt lat="44.6979483" lon="8.04455"><ele>185.0</ele><time>2026-04-12T09:34:23.062Z</time></trkpt><trkpt lat="44.6978367" lon="8.0445433"><ele>184.0</ele><time>2026-04-12T09:34:24.063Z</time></trkpt><trkpt lat="44.69773" lon="8.0445483"><ele>184.0</ele><time>2026-04-12T09:34:25.062Z</time></trkpt><trkpt lat="44.697625" lon="8.0445667"><ele>184.0</ele><time>2026-04-12T09:34:26.062Z</time></trkpt><trkpt lat="44.6975167" lon="8.0445933"><ele>184.0</ele><time>2026-04-12T09:34:27.063Z</time></trkpt><trkpt lat="44.6974167" lon="8.0446067"><ele>184.0</ele><time>2026-04-12T09:34:28.064Z</time></trkpt><trkpt lat="44.69733" lon="8.044595"><ele>184.0</ele><time>2026-04-12T09:34:29.064Z</time></trkpt><trkpt lat="44.697255" lon="8.0445667"><ele>184.0</ele><time>2026-04-12T09:34:30.063Z</time></trkpt><trkpt lat="44.6972033" lon="8.0444833"><ele>184.0</ele><time>2026-04-12T09:34:31.065Z</time></trkpt><trkpt lat="44.69718" lon="8.04438"><ele>184.0</ele><time>2026-04-12T09:34:32.065Z</time></trkpt><trkpt lat="44.6971833" lon="8.0442717"><ele>184.0</ele><time>2026-04-12T09:34:33.067Z</time></trkpt><trkpt lat="44.6972417" lon="8.0441617"><ele>184.0</ele><time>2026-04-12T09:34:34.063Z</time></trkpt><trkpt lat="44.6972933" lon="8.0440633"><ele>184.0</ele><time>2026-04-12T09:34:35.064Z</time></trkpt><trkpt lat="44.69736" lon="8.043975"><ele>182.79999999999998</ele><time>2026-04-12T09:34:36.063Z</time></trkpt><trkpt lat="44.6974383" lon="8.043905"><ele>181.6</ele><time>2026-04-12T09:34:37.064Z</time></trkpt><trkpt lat="44.6975317" lon="8.0438767"><ele>180.4</ele><time>2026-04-12T09:34:38.062Z</time></trkpt><trkpt lat="44.6976283" lon="8.0438717"><ele>179.2</ele><time>2026-04-12T09:34:39.063Z</time></trkpt><trkpt lat="44.6977317" lon="8.0438717"><ele>178.0</ele><time>2026-04-12T09:34:40.063Z</time></trkpt><trkpt lat="44.6978317" lon="8.043865"><ele>177.2</ele><time>2026-04-12T09:34:41.065Z</time></trkpt><trkpt lat="44.6979333" lon="8.0438583"><ele>176.4</ele><time>2026-04-12T09:34:42.064Z</time></trkpt><trkpt lat="44.698035" lon="8.0438517"><ele>175.6</ele><time>2026-04-12T09:34:43.062Z</time></trkpt><trkpt lat="44.6981333" lon="8.0438467"><ele>174.79999999999998</ele><time>2026-04-12T09:34:44.065Z</time></trkpt><trkpt lat="44.6982367" lon="8.0438383"><ele>174.0</ele><time>2026-04-12T09:34:45.066Z</time></trkpt><trkpt lat="44.6983367" lon="8.0438267"><ele>174.0</ele><time>2026-04-12T09:34:46.064Z</time></trkpt><trkpt lat="44.6984367" lon="8.0438117"><ele>174.0</ele><time>2026-04-12T09:34:47.063Z</time></trkpt><trkpt lat="44.698535" lon="8.0437883"><ele>174.0</ele><time>2026-04-12T09:34:48.062Z</time></trkpt><trkpt lat="44.69864" lon="8.0437583"><ele>174.0</ele><time>2026-04-12T09:34:49.064Z</time></trkpt><trkpt lat="44.69874" lon="8.043715"><ele>174.0</ele><time>2026-04-12T09:34:50.065Z</time></trkpt><trkpt lat="44.698835" lon="8.0436683"><ele>173.2</ele><time>2026-04-12T09:34:51.063Z</time></trkpt><trkpt lat="44.6989283" lon="8.0436167"><ele>172.39999999999998</ele><time>2026-04-12T09:34:52.063Z</time></trkpt><trkpt lat="44.69902" lon="8.043565"><ele>171.6</ele><time>2026-04-12T09:34:53.066Z</time></trkpt><trkpt lat="44.6991117" lon="8.0435183"><ele>170.8</ele><time>2026-04-12T09:34:54.063Z</time></trkpt><trkpt lat="44.699205" lon="8.0434833"><ele>170.0</ele><time>2026-04-12T09:34:55.064Z</time></trkpt><trkpt lat="44.6993" lon="8.043465"><ele>170.0</ele><time>2026-04-12T09:34:56.062Z</time></trkpt><trkpt lat="44.699395" lon="8.0434633"><ele>170.0</ele><time>2026-04-12T09:34:57.064Z</time></trkpt><trkpt lat="44.6994883" lon="8.0434717"><ele>170.0</ele><time>2026-04-12T09:34:58.064Z</time></trkpt><trkpt lat="44.699585" lon="8.0434817"><ele>170.0</ele><time>2026-04-12T09:34:59.064Z</time></trkpt><trkpt lat="44.699685" lon="8.0434867"><ele>170.0</ele><time>2026-04-12T09:35:00.064Z</time></trkpt><trkpt lat="44.6997833" lon="8.0434817"><ele>170.2</ele><time>2026-04-12T09:35:01.066Z</time></trkpt><trkpt lat="44.69988" lon="8.0434617"><ele>170.4</ele><time>2026-04-12T09:35:02.063Z</time></trkpt><trkpt lat="44.6999733" lon="8.0434183"><ele>170.60000000000002</ele><time>2026-04-12T09:35:03.062Z</time></trkpt><trkpt lat="44.7000617" lon="8.043365"><ele>170.8</ele><time>2026-04-12T09:35:04.062Z</time></trkpt><trkpt lat="44.70015" lon="8.043305"><ele>171.0</ele><time>2026-04-12T09:35:05.062Z</time></trkpt><trkpt lat="44.7002283" lon="8.04323"><ele>169.8</ele><time>2026-04-12T09:35:06.063Z</time></trkpt><trkpt lat="44.7002833" lon="8.0431317"><ele>168.60000000000002</ele><time>2026-04-12T09:35:07.062Z</time></trkpt><trkpt lat="44.700315" lon="8.04301"><ele>167.4</ele><time>2026-04-12T09:35:08.061Z</time></trkpt><trkpt lat="44.7003133" lon="8.04288"><ele>166.2</ele><time>2026-04-12T09:35:09.061Z</time></trkpt><trkpt lat="44.7003117" lon="8.0427533"><ele>165.0</ele><time>2026-04-12T09:35:10.062Z</time></trkpt><trkpt lat="44.7003167" lon="8.0426283"><ele>165.0</ele><time>2026-04-12T09:35:11.063Z</time></trkpt><trkpt lat="44.7003333" lon="8.0425033"><ele>165.0</ele><time>2026-04-12T09:35:12.063Z</time></trkpt><trkpt lat="44.70035" lon="8.0423783"><ele>165.0</ele><time>2026-04-12T09:35:13.062Z</time></trkpt><trkpt lat="44.7003633" lon="8.042255"><ele>165.0</ele><time>2026-04-12T09:35:14.062Z</time></trkpt><trkpt lat="44.7003767" lon="8.042135"><ele>165.0</ele><time>2026-04-12T09:35:15.065Z</time></trkpt><trkpt lat="44.7003883" lon="8.0420233"><ele>165.0</ele><time>2026-04-12T09:35:16.064Z</time></trkpt><trkpt lat="44.7004017" lon="8.041915"><ele>164.83333333333334</ele><time>2026-04-12T09:35:17.064Z</time></trkpt><trkpt lat="44.7004133" lon="8.0418033"><ele>164.66666666666666</ele><time>2026-04-12T09:35:18.062Z</time></trkpt><trkpt lat="44.7004283" lon="8.0416917"><ele>164.5</ele><time>2026-04-12T09:35:19.064Z</time></trkpt><trkpt lat="44.7004417" lon="8.0415783"><ele>164.33333333333331</ele><time>2026-04-12T09:35:20.064Z</time></trkpt><trkpt lat="44.7004517" lon="8.04146"><ele>164.16666666666666</ele><time>2026-04-12T09:35:21.064Z</time></trkpt><trkpt lat="44.7004583" lon="8.0413433"><ele>164.0</ele><time>2026-04-12T09:35:22.063Z</time></trkpt><trkpt lat="44.70047" lon="8.04123"><ele>164.0</ele><time>2026-04-12T09:35:23.062Z</time></trkpt><trkpt lat="44.7004833" lon="8.0411267"><ele>164.0</ele><time>2026-04-12T09:35:24.064Z</time></trkpt><trkpt lat="44.7004933" lon="8.041025"><ele>164.0</ele><time>2026-04-12T09:35:25.062Z</time></trkpt><trkpt lat="44.7005067" lon="8.0409217"><ele>164.0</ele><time>2026-04-12T09:35:26.061Z</time></trkpt><trkpt lat="44.700525" lon="8.0408233"><ele>164.0</ele><time>2026-04-12T09:35:27.065Z</time></trkpt><trkpt lat="44.70055" lon="8.0407117"><ele>164.0</ele><time>2026-04-12T09:35:28.065Z</time></trkpt><trkpt lat="44.7005667" lon="8.0406083"><ele>164.83333333333331</ele><time>2026-04-12T09:35:29.063Z</time></trkpt><trkpt lat="44.7005817" lon="8.0405017"><ele>165.66666666666666</ele><time>2026-04-12T09:35:30.063Z</time></trkpt><trkpt lat="44.70059" lon="8.0404017"><ele>166.5</ele><time>2026-04-12T09:35:31.063Z</time></trkpt><trkpt lat="44.7006017" lon="8.0403"><ele>167.33333333333334</ele><time>2026-04-12T09:35:32.063Z</time></trkpt><trkpt lat="44.7006167" lon="8.04021"><ele>168.16666666666669</ele><time>2026-04-12T09:35:33.064Z</time></trkpt><trkpt lat="44.7006683" lon="8.0400617"><ele>169.0</ele><time>2026-04-12T09:35:35.062Z</time></trkpt><trkpt lat="44.7007217" lon="8.03991"><ele>169.5</ele><time>2026-04-12T09:35:37.063Z</time></trkpt><trkpt lat="44.7007483" lon="8.039825"><ele>170.0</ele><time>2026-04-12T09:35:38.062Z</time></trkpt><trkpt lat="44.7007833" lon="8.0397417"><ele>170.5</ele><time>2026-04-12T09:35:39.063Z</time></trkpt><trkpt lat="44.7008167" lon="8.0396633"><ele>171.0</ele><time>2026-04-12T09:35:40.063Z</time></trkpt><trkpt lat="44.7008733" lon="8.0395117"><ele>171.5</ele><time>2026-04-12T09:35:42.063Z</time></trkpt><trkpt lat="44.7009167" lon="8.03937"><ele>172.0</ele><time>2026-04-12T09:35:44.062Z</time></trkpt><trkpt lat="44.70095" lon="8.0392367"><ele>172.39999999999998</ele><time>2026-04-12T09:35:46.063Z</time></trkpt><trkpt lat="44.7009817" lon="8.0390883"><ele>172.79999999999998</ele><time>2026-04-12T09:35:48.062Z</time></trkpt><trkpt lat="44.7010133" lon="8.0389383"><ele>173.2</ele><time>2026-04-12T09:35:50.066Z</time></trkpt><trkpt lat="44.7010533" lon="8.0388"><ele>173.6</ele><time>2026-04-12T09:35:52.063Z</time></trkpt><trkpt lat="44.7010767" lon="8.0386617"><ele>174.0</ele><time>2026-04-12T09:35:54.063Z</time></trkpt><trkpt lat="44.7011017" lon="8.0385317"><ele>174.0</ele><time>2026-04-12T09:35:56.065Z</time></trkpt><trkpt lat="44.70112" lon="8.0384117"><ele>174.0</ele><time>2026-04-12T09:35:58.061Z</time></trkpt><trkpt lat="44.7011317" lon="8.0383017"><ele>174.0</ele><time>2026-04-12T09:36:00.063Z</time></trkpt><trkpt lat="44.70115" lon="8.038185"><ele>174.0</ele><time>2026-04-12T09:36:02.062Z</time></trkpt><trkpt lat="44.7011533" lon="8.0380367"><ele>174.0</ele><time>2026-04-12T09:36:04.063Z</time></trkpt><trkpt lat="44.7011483" lon="8.03789"><ele>174.0</ele><time>2026-04-12T09:36:06.062Z</time></trkpt><trkpt lat="44.7011267" lon="8.0377617"><ele>174.0</ele><time>2026-04-12T09:36:08.062Z</time></trkpt><trkpt lat="44.701145" lon="8.03763"><ele>174.0</ele><time>2026-04-12T09:36:10.063Z</time></trkpt><trkpt lat="44.7011317" lon="8.0375383"><ele>174.0</ele><time>2026-04-12T09:36:12.063Z</time></trkpt><trkpt lat="44.7010983" lon="8.0374317"><ele>174.0</ele><time>2026-04-12T09:36:15.065Z</time></trkpt><trkpt lat="44.7010767" lon="8.0373383"><ele>174.0</ele><time>2026-04-12T09:36:17.065Z</time></trkpt><trkpt lat="44.7010633" lon="8.037235"><ele>174.42857142857142</ele><time>2026-04-12T09:36:19.061Z</time></trkpt><trkpt lat="44.7010517" lon="8.0371433"><ele>174.85714285714286</ele><time>2026-04-12T09:36:21.063Z</time></trkpt><trkpt lat="44.7010483" lon="8.0370483"><ele>175.28571428571428</ele><time>2026-04-12T09:36:23.062Z</time></trkpt><trkpt lat="44.7010483" lon="8.036955"><ele>175.71428571428572</ele><time>2026-04-12T09:36:25.062Z</time></trkpt><trkpt lat="44.7010383" lon="8.03686"><ele>176.14285714285714</ele><time>2026-04-12T09:36:27.061Z</time></trkpt><trkpt lat="44.7010367" lon="8.036755"><ele>176.57142857142858</ele><time>2026-04-12T09:36:29.062Z</time></trkpt><trkpt lat="44.7010417" lon="8.036645"><ele>177.0</ele><time>2026-04-12T09:36:31.063Z</time></trkpt><trkpt lat="44.7010483" lon="8.03654"><ele>177.33333333333334</ele><time>2026-04-12T09:36:33.063Z</time></trkpt><trkpt lat="44.7010433" lon="8.0364233"><ele>177.66666666666666</ele><time>2026-04-12T09:36:36.064Z</time></trkpt><trkpt lat="44.7010117" lon="8.0363233"><ele>178.0</ele><time>2026-04-12T09:36:41.061Z</time></trkpt><trkpt lat="44.70092" lon="8.036255"><ele>178.33333333333331</ele><time>2026-04-12T09:36:44.063Z</time></trkpt><trkpt lat="44.7008483" lon="8.036205"><ele>178.66666666666666</ele><time>2026-04-12T09:36:46.063Z</time></trkpt><trkpt lat="44.7007833" lon="8.0361333"><ele>179.0</ele><time>2026-04-12T09:36:48.063Z</time></trkpt><trkpt lat="44.700715" lon="8.036105"><ele>179.00000000000003</ele><time>2026-04-12T09:36:50.062Z</time></trkpt><trkpt lat="44.7006533" lon="8.036135"><ele>179.0</ele><time>2026-04-12T09:36:52.063Z</time></trkpt><trkpt lat="44.7006" lon="8.0362"><ele>179.0</ele><time>2026-04-12T09:36:54.062Z</time></trkpt><trkpt lat="44.7005517" lon="8.03629"><ele>179.0</ele><time>2026-04-12T09:36:57.062Z</time></trkpt><trkpt lat="44.700515" lon="8.0364"><ele>179.0</ele><time>2026-04-12T09:37:04.062Z</time></trkpt><trkpt lat="44.70048" lon="8.0365"><ele>179.00000000000003</ele><time>2026-04-12T09:37:07.061Z</time></trkpt><trkpt lat="44.70046" lon="8.03659"><ele>179.0</ele><time>2026-04-12T09:37:09.062Z</time></trkpt><trkpt lat="44.7004333" lon="8.0366967"><ele>178.66666666666666</ele><time>2026-04-12T09:37:11.064Z</time></trkpt><trkpt lat="44.7004033" lon="8.036805"><ele>178.33333333333331</ele><time>2026-04-12T09:37:13.061Z</time></trkpt><trkpt lat="44.7003683" lon="8.0369067"><ele>178.0</ele><time>2026-04-12T09:37:15.063Z</time></trkpt><trkpt lat="44.7003283" lon="8.0370033"><ele>177.66666666666666</ele><time>2026-04-12T09:37:17.062Z</time></trkpt><trkpt lat="44.700315" lon="8.0371017"><ele>177.33333333333334</ele><time>2026-04-12T09:37:19.062Z</time></trkpt><trkpt lat="44.70028" lon="8.03719"><ele>177.0</ele><time>2026-04-12T09:37:21.063Z</time></trkpt><trkpt lat="44.7002633" lon="8.03732"><ele>177.16666666666666</ele><time>2026-04-12T09:37:24.062Z</time></trkpt><trkpt lat="44.7001817" lon="8.0373817"><ele>177.33333333333334</ele><time>2026-04-12T09:37:27.063Z</time></trkpt><trkpt lat="44.7001083" lon="8.037425"><ele>177.5</ele><time>2026-04-12T09:37:29.064Z</time></trkpt><trkpt lat="44.70002" lon="8.0374467"><ele>177.66666666666669</ele><time>2026-04-12T09:37:31.062Z</time></trkpt><trkpt lat="44.699925" lon="8.037475"><ele>177.83333333333334</ele><time>2026-04-12T09:37:33.064Z</time></trkpt><trkpt lat="44.6998383" lon="8.0375033"><ele>178.0</ele><time>2026-04-12T09:37:35.063Z</time></trkpt><trkpt lat="44.6997567" lon="8.0374983"><ele>178.0</ele><time>2026-04-12T09:37:37.063Z</time></trkpt><trkpt lat="44.6996767" lon="8.037495"><ele>178.0</ele><time>2026-04-12T09:37:39.06Z</time></trkpt><trkpt lat="44.6996067" lon="8.037455"><ele>178.0</ele><time>2026-04-12T09:37:41.062Z</time></trkpt><trkpt lat="44.6995633" lon="8.0373367"><ele>178.0</ele><time>2026-04-12T09:37:43.062Z</time></trkpt><trkpt lat="44.6995533" lon="8.0372167"><ele>178.0</ele><time>2026-04-12T09:37:45.063Z</time></trkpt><trkpt lat="44.6995567" lon="8.0371017"><ele>178.0</ele><time>2026-04-12T09:37:47.061Z</time></trkpt><trkpt lat="44.6995733" lon="8.03699"><ele>178.0</ele><time>2026-04-12T09:37:49.062Z</time></trkpt><trkpt lat="44.6995933" lon="8.036885"><ele>178.0</ele><time>2026-04-12T09:37:51.062Z</time></trkpt><trkpt lat="44.699615" lon="8.0367733"><ele>178.0</ele><time>2026-04-12T09:37:53.062Z</time></trkpt><trkpt lat="44.6996533" lon="8.0366717"><ele>178.0</ele><time>2026-04-12T09:37:55.063Z</time></trkpt><trkpt lat="44.6997183" lon="8.0365617"><ele>178.0</ele><time>2026-04-12T09:37:57.064Z</time></trkpt><trkpt lat="44.6997667" lon="8.03645"><ele>178.0</ele><time>2026-04-12T09:37:59.065Z</time></trkpt><trkpt lat="44.6997917" lon="8.0363617"><ele>178.33333333333334</ele><time>2026-04-12T09:38:01.065Z</time></trkpt><trkpt lat="44.699785" lon="8.03625"><ele>178.66666666666669</ele><time>2026-04-12T09:38:04.064Z</time></trkpt><trkpt lat="44.6996917" lon="8.0361883"><ele>179.0</ele><time>2026-04-12T09:38:07.067Z</time></trkpt><trkpt lat="44.6996017" lon="8.0361633"><ele>179.33333333333334</ele><time>2026-04-12T09:38:09.067Z</time></trkpt><trkpt lat="44.6995383" lon="8.0361367"><ele>179.66666666666666</ele><time>2026-04-12T09:38:11.063Z</time></trkpt><trkpt lat="44.6994617" lon="8.036105"><ele>180.0</ele><time>2026-04-12T09:38:13.065Z</time></trkpt><trkpt lat="44.6993767" lon="8.0360517"><ele>179.16666666666666</ele><time>2026-04-12T09:38:15.064Z</time></trkpt><trkpt lat="44.6992883" lon="8.0360083"><ele>178.33333333333334</ele><time>2026-04-12T09:38:17.062Z</time></trkpt><trkpt lat="44.6991917" lon="8.036035"><ele>177.5</ele><time>2026-04-12T09:38:19.066Z</time></trkpt><trkpt lat="44.6990767" lon="8.0360517"><ele>176.66666666666669</ele><time>2026-04-12T09:38:21.064Z</time></trkpt><trkpt lat="44.6990117" lon="8.0360567"><ele>175.83333333333334</ele><time>2026-04-12T09:38:22.063Z</time></trkpt><trkpt lat="44.6989483" lon="8.0360567"><ele>175.0</ele><time>2026-04-12T09:38:23.063Z</time></trkpt><trkpt lat="44.6988417" lon="8.03605"><ele>175.0</ele><time>2026-04-12T09:38:25.065Z</time></trkpt><trkpt lat="44.6987467" lon="8.0360467"><ele>175.0</ele><time>2026-04-12T09:38:27.065Z</time></trkpt><trkpt lat="44.6986567" lon="8.0360533"><ele>175.0</ele><time>2026-04-12T09:38:29.061Z</time></trkpt><trkpt lat="44.698575" lon="8.036045"><ele>175.0</ele><time>2026-04-12T09:38:31.064Z</time></trkpt><trkpt lat="44.6984983" lon="8.036045"><ele>175.0</ele><time>2026-04-12T09:38:33.065Z</time></trkpt><trkpt lat="44.6984383" lon="8.03601"><ele>175.0</ele><time>2026-04-12T09:38:35.066Z</time></trkpt><trkpt lat="44.6983733" lon="8.036055"><ele>174.83333333333334</ele><time>2026-04-12T09:38:37.057Z</time></trkpt><trkpt lat="44.698335" lon="8.0361483"><ele>174.66666666666669</ele><time>2026-04-12T09:38:39.062Z</time></trkpt><trkpt lat="44.6983" lon="8.036235"><ele>174.5</ele><time>2026-04-12T09:38:41.061Z</time></trkpt><trkpt lat="44.6982783" lon="8.0363367"><ele>174.33333333333334</ele><time>2026-04-12T09:38:44.062Z</time></trkpt><trkpt lat="44.69829" lon="8.036455"><ele>174.16666666666666</ele><time>2026-04-12T09:38:47.061Z</time></trkpt><trkpt lat="44.6982917" lon="8.0365683"><ele>174.0</ele><time>2026-04-12T09:38:50.062Z</time></trkpt><trkpt lat="44.69828" lon="8.0366817"><ele>174.0</ele><time>2026-04-12T09:38:53.061Z</time></trkpt><trkpt lat="44.6982733" lon="8.0368167"><ele>174.0</ele><time>2026-04-12T09:38:56.065Z</time></trkpt><trkpt lat="44.6982733" lon="8.03694"><ele>174.0</ele><time>2026-04-12T09:38:58.063Z</time></trkpt><trkpt lat="44.6982567" lon="8.0370683"><ele>174.0</ele><time>2026-04-12T09:39:00.062Z</time></trkpt><trkpt lat="44.6982517" lon="8.03719"><ele>174.0</ele><time>2026-04-12T09:39:02.063Z</time></trkpt><trkpt lat="44.6981817" lon="8.0372317"><ele>174.0</ele><time>2026-04-12T09:39:05.061Z</time></trkpt><trkpt lat="44.69812" lon="8.0371683"><ele>174.0</ele><time>2026-04-12T09:39:07.062Z</time></trkpt><trkpt lat="44.6980633" lon="8.0370967"><ele>174.0</ele><time>2026-04-12T09:39:09.066Z</time></trkpt><trkpt lat="44.69799" lon="8.0370233"><ele>174.0</ele><time>2026-04-12T09:39:11.061Z</time></trkpt><trkpt lat="44.6978867" lon="8.0369533"><ele>174.0</ele><time>2026-04-12T09:39:13.059Z</time></trkpt><trkpt lat="44.697815" lon="8.0368933"><ele>174.0</ele><time>2026-04-12T09:39:15.064Z</time></trkpt><trkpt lat="44.6977417" lon="8.0368633"><ele>174.0</ele><time>2026-04-12T09:39:17.063Z</time></trkpt><trkpt lat="44.697665" lon="8.036825"><ele>174.0</ele><time>2026-04-12T09:39:19.065Z</time></trkpt><trkpt lat="44.697595" lon="8.036735"><ele>174.0</ele><time>2026-04-12T09:39:22.064Z</time></trkpt><trkpt lat="44.6975783" lon="8.0366117"><ele>174.0</ele><time>2026-04-12T09:39:24.062Z</time></trkpt><trkpt lat="44.6975517" lon="8.036455"><ele>174.0</ele><time>2026-04-12T09:39:26.063Z</time></trkpt><trkpt lat="44.69752" lon="8.0363"><ele>174.0</ele><time>2026-04-12T09:39:28.062Z</time></trkpt><trkpt lat="44.6975" lon="8.0361433"><ele>174.0</ele><time>2026-04-12T09:39:30.061Z</time></trkpt><trkpt lat="44.69748" lon="8.035975"><ele>174.0</ele><time>2026-04-12T09:39:32.063Z</time></trkpt><trkpt lat="44.697455" lon="8.0358217"><ele>174.0</ele><time>2026-04-12T09:39:34.066Z</time></trkpt><trkpt lat="44.6975" lon="8.0357133"><ele>174.0</ele><time>2026-04-12T09:39:35.063Z</time></trkpt><trkpt lat="44.6974783" lon="8.0355617"><ele>174.0</ele><time>2026-04-12T09:39:37.062Z</time></trkpt><trkpt lat="44.6974467" lon="8.0354283"><ele>174.6</ele><time>2026-04-12T09:39:39.063Z</time></trkpt><trkpt lat="44.6974083" lon="8.0353067"><ele>175.2</ele><time>2026-04-12T09:39:41.064Z</time></trkpt><trkpt lat="44.6973917" lon="8.035165"><ele>175.79999999999998</ele><time>2026-04-12T09:39:43.063Z</time></trkpt><trkpt lat="44.6973817" lon="8.0350333"><ele>176.39999999999998</ele><time>2026-04-12T09:39:45.063Z</time></trkpt><trkpt lat="44.6974" lon="8.0348817"><ele>177.0</ele><time>2026-04-12T09:39:47.064Z</time></trkpt><trkpt lat="44.69736" lon="8.0347867"><ele>177.0</ele><time>2026-04-12T09:39:49.062Z</time></trkpt><trkpt lat="44.6972867" lon="8.034755"><ele>177.0</ele><time>2026-04-12T09:39:51.064Z</time></trkpt><trkpt lat="44.6972167" lon="8.0347417"><ele>177.0</ele><time>2026-04-12T09:39:53.062Z</time></trkpt><trkpt lat="44.6971683" lon="8.0348367"><ele>177.0</ele><time>2026-04-12T09:39:56.063Z</time></trkpt><trkpt lat="44.697145" lon="8.0349467"><ele>177.0</ele><time>2026-04-12T09:39:58.063Z</time></trkpt><trkpt lat="44.6971217" lon="8.03508"><ele>177.0</ele><time>2026-04-12T09:40:00.065Z</time></trkpt><trkpt lat="44.6971017" lon="8.03523"><ele>177.0</ele><time>2026-04-12T09:40:02.061Z</time></trkpt><trkpt lat="44.69709" lon="8.0353667"><ele>177.0</ele><time>2026-04-12T09:40:04.063Z</time></trkpt><trkpt lat="44.6970717" lon="8.0354817"><ele>177.0</ele><time>2026-04-12T09:40:06.064Z</time></trkpt><trkpt lat="44.6970683" lon="8.0355733"><ele>177.0</ele><time>2026-04-12T09:40:08.062Z</time></trkpt><trkpt lat="44.6969483" lon="8.03557"><ele>177.0</ele><time>2026-04-12T09:40:12.063Z</time></trkpt><trkpt lat="44.6968633" lon="8.0355733"><ele>177.0</ele><time>2026-04-12T09:40:13.063Z</time></trkpt><trkpt lat="44.69675" lon="8.03555"><ele>177.0</ele><time>2026-04-12T09:40:15.063Z</time></trkpt><trkpt lat="44.69662" lon="8.03554"><ele>177.0</ele><time>2026-04-12T09:40:17.061Z</time></trkpt><trkpt lat="44.6965183" lon="8.035485"><ele>177.0</ele><time>2026-04-12T09:40:19.064Z</time></trkpt><trkpt lat="44.6964633" lon="8.0354183"><ele>177.0</ele><time>2026-04-12T09:40:21.061Z</time></trkpt><trkpt lat="44.6964767" lon="8.0353067"><ele>177.0</ele><time>2026-04-12T09:40:23.061Z</time></trkpt><trkpt lat="44.696485" lon="8.0352167"><ele>177.0</ele><time>2026-04-12T09:40:24.063Z</time></trkpt><trkpt lat="44.6964967" lon="8.0351233"><ele>177.0</ele><time>2026-04-12T09:40:25.062Z</time></trkpt><trkpt lat="44.69652" lon="8.0349633"><ele>177.0</ele><time>2026-04-12T09:40:27.064Z</time></trkpt><trkpt lat="44.6965433" lon="8.034805"><ele>177.0</ele><time>2026-04-12T09:40:29.062Z</time></trkpt><trkpt lat="44.6965533" lon="8.03467"><ele>177.0</ele><time>2026-04-12T09:40:31.063Z</time></trkpt><trkpt lat="44.6965967" lon="8.0345033"><ele>177.0</ele><time>2026-04-12T09:40:33.065Z</time></trkpt><trkpt lat="44.6965917" lon="8.0344117"><ele>177.0</ele><time>2026-04-12T09:40:34.062Z</time></trkpt><trkpt lat="44.696585" lon="8.0342583"><ele>177.0</ele><time>2026-04-12T09:40:36.061Z</time></trkpt><trkpt lat="44.6965883" lon="8.0341133"><ele>177.0</ele><time>2026-04-12T09:40:38.061Z</time></trkpt><trkpt lat="44.6966133" lon="8.03398"><ele>176.8</ele><time>2026-04-12T09:40:40.063Z</time></trkpt><trkpt lat="44.6966433" lon="8.0338633"><ele>176.6</ele><time>2026-04-12T09:40:42.064Z</time></trkpt><trkpt lat="44.6966617" lon="8.033745"><ele>176.4</ele><time>2026-04-12T09:40:44.064Z</time></trkpt><trkpt lat="44.6966767" lon="8.0336133"><ele>176.20000000000002</ele><time>2026-04-12T09:40:46.063Z</time></trkpt><trkpt lat="44.6966783" lon="8.0334717"><ele>176.0</ele><time>2026-04-12T09:40:48.063Z</time></trkpt><trkpt lat="44.6966933" lon="8.0333467"><ele>175.16666666666666</ele><time>2026-04-12T09:40:50.063Z</time></trkpt><trkpt lat="44.6967" lon="8.03322"><ele>174.33333333333331</ele><time>2026-04-12T09:40:52.064Z</time></trkpt><trkpt lat="44.696715" lon="8.033095"><ele>173.5</ele><time>2026-04-12T09:40:54.063Z</time></trkpt><trkpt lat="44.6967267" lon="8.0329733"><ele>172.66666666666666</ele><time>2026-04-12T09:40:56.064Z</time></trkpt><trkpt lat="44.6967317" lon="8.0328617"><ele>171.83333333333334</ele><time>2026-04-12T09:40:58.063Z</time></trkpt><trkpt lat="44.696695" lon="8.0327733"><ele>171.0</ele><time>2026-04-12T09:41:00.063Z</time></trkpt><trkpt lat="44.6966317" lon="8.0326983"><ele>171.0</ele><time>2026-04-12T09:41:02.063Z</time></trkpt><trkpt lat="44.6965683" lon="8.0326417"><ele>171.0</ele><time>2026-04-12T09:41:04.064Z</time></trkpt><trkpt lat="44.6964917" lon="8.0325783"><ele>171.0</ele><time>2026-04-12T09:41:06.063Z</time></trkpt><trkpt lat="44.6964267" lon="8.03251"><ele>171.0</ele><time>2026-04-12T09:41:08.064Z</time></trkpt><trkpt lat="44.6963617" lon="8.03241"><ele>171.0</ele><time>2026-04-12T09:41:10.062Z</time></trkpt><trkpt lat="44.6962933" lon="8.03232"><ele>171.0</ele><time>2026-04-12T09:41:12.063Z</time></trkpt><trkpt lat="44.6962317" lon="8.0322067"><ele>170.5</ele><time>2026-04-12T09:41:14.064Z</time></trkpt><trkpt lat="44.6961733" lon="8.032085"><ele>170.0</ele><time>2026-04-12T09:41:16.064Z</time></trkpt><trkpt lat="44.6961167" lon="8.0319467"><ele>169.5</ele><time>2026-04-12T09:41:18.062Z</time></trkpt><trkpt lat="44.696105" lon="8.031785"><ele>169.0</ele><time>2026-04-12T09:41:20.064Z</time></trkpt><trkpt lat="44.6961867" lon="8.03166"><ele>169.28571428571428</ele><time>2026-04-12T09:41:22.063Z</time></trkpt><trkpt lat="44.6962283" lon="8.0315867"><ele>169.57142857142856</ele><time>2026-04-12T09:41:23.061Z</time></trkpt><trkpt lat="44.6962583" lon="8.031495"><ele>169.85714285714283</ele><time>2026-04-12T09:41:24.06Z</time></trkpt><trkpt lat="44.6962667" lon="8.0313917"><ele>170.14285714285714</ele><time>2026-04-12T09:41:25.063Z</time></trkpt><trkpt lat="44.6962617" lon="8.0312833"><ele>170.42857142857142</ele><time>2026-04-12T09:41:26.061Z</time></trkpt><trkpt lat="44.6962367" lon="8.0311833"><ele>170.7142857142857</ele><time>2026-04-12T09:41:27.063Z</time></trkpt><trkpt lat="44.6961967" lon="8.0310933"><ele>171.0</ele><time>2026-04-12T09:41:28.061Z</time></trkpt><trkpt lat="44.696155" lon="8.0310033"><ele>170.99999999999997</ele><time>2026-04-12T09:41:29.062Z</time></trkpt><trkpt lat="44.6961183" lon="8.0309117"><ele>171.0</ele><time>2026-04-12T09:41:30.063Z</time></trkpt><trkpt lat="44.6960833" lon="8.0308233"><ele>171.0</ele><time>2026-04-12T09:41:31.065Z</time></trkpt><trkpt lat="44.6960383" lon="8.0307367"><ele>171.0</ele><time>2026-04-12T09:41:32.063Z</time></trkpt><trkpt lat="44.6959917" lon="8.0306533"><ele>171.0</ele><time>2026-04-12T09:41:33.064Z</time></trkpt><trkpt lat="44.6959467" lon="8.0305717"><ele>170.99999999999997</ele><time>2026-04-12T09:41:34.065Z</time></trkpt><trkpt lat="44.6959033" lon="8.0304867"><ele>171.0</ele><time>2026-04-12T09:41:35.062Z</time></trkpt><trkpt lat="44.69586" lon="8.0304017"><ele>171.14285714285714</ele><time>2026-04-12T09:41:36.063Z</time></trkpt><trkpt lat="44.6958167" lon="8.0303167"><ele>171.28571428571428</ele><time>2026-04-12T09:41:37.065Z</time></trkpt><trkpt lat="44.6957783" lon="8.03023"><ele>171.42857142857144</ele><time>2026-04-12T09:41:38.062Z</time></trkpt><trkpt lat="44.6957483" lon="8.0301383"><ele>171.57142857142856</ele><time>2026-04-12T09:41:39.063Z</time></trkpt><trkpt lat="44.695725" lon="8.0300433"><ele>171.71428571428572</ele><time>2026-04-12T09:41:40.063Z</time></trkpt><trkpt lat="44.69571" lon="8.0299433"><ele>171.85714285714286</ele><time>2026-04-12T09:41:41.063Z</time></trkpt><trkpt lat="44.6956933" lon="8.029845"><ele>172.0</ele><time>2026-04-12T09:41:42.065Z</time></trkpt><trkpt lat="44.695675" lon="8.0297517"><ele>172.00000000000003</ele><time>2026-04-12T09:41:43.063Z</time></trkpt><trkpt lat="44.6956583" lon="8.029655"><ele>172.0</ele><time>2026-04-12T09:41:44.066Z</time></trkpt><trkpt lat="44.6956433" lon="8.0295583"><ele>172.0</ele><time>2026-04-12T09:41:45.063Z</time></trkpt><trkpt lat="44.6956317" lon="8.0294583"><ele>172.0</ele><time>2026-04-12T09:41:46.062Z</time></trkpt><trkpt lat="44.6956133" lon="8.0293683"><ele>172.0</ele><time>2026-04-12T09:41:47.061Z</time></trkpt><trkpt lat="44.6955933" lon="8.0292817"><ele>172.00000000000003</ele><time>2026-04-12T09:41:48.062Z</time></trkpt><trkpt lat="44.695575" lon="8.0291933"><ele>172.0</ele><time>2026-04-12T09:41:49.058Z</time></trkpt><trkpt lat="44.69556" lon="8.029105"><ele>172.00000000000003</ele><time>2026-04-12T09:41:50.059Z</time></trkpt><trkpt lat="44.6955417" lon="8.02902"><ele>172.0</ele><time>2026-04-12T09:41:51.059Z</time></trkpt><trkpt lat="44.69552" lon="8.028935"><ele>172.0</ele><time>2026-04-12T09:41:52.056Z</time></trkpt><trkpt lat="44.6955267" lon="8.0288467"><ele>172.0</ele><time>2026-04-12T09:41:53.056Z</time></trkpt><trkpt lat="44.695515" lon="8.0287233"><ele>172.0</ele><time>2026-04-12T09:41:55.056Z</time></trkpt><trkpt lat="44.695515" lon="8.028625"><ele>172.00000000000003</ele><time>2026-04-12T09:41:59.057Z</time></trkpt><trkpt lat="44.6954983" lon="8.028495"><ele>172.0</ele><time>2026-04-12T09:42:02.061Z</time></trkpt><trkpt lat="44.695475" lon="8.0283583"><ele>172.0</ele><time>2026-04-12T09:42:04.056Z</time></trkpt><trkpt lat="44.6954517" lon="8.0282033"><ele>172.0</ele><time>2026-04-12T09:42:06.057Z</time></trkpt><trkpt lat="44.6954233" lon="8.0280583"><ele>172.0</ele><time>2026-04-12T09:42:08.061Z</time></trkpt><trkpt lat="44.6953983" lon="8.02792"><ele>172.0</ele><time>2026-04-12T09:42:10.06Z</time></trkpt><trkpt lat="44.6953783" lon="8.027755"><ele>172.0</ele><time>2026-04-12T09:42:12.061Z</time></trkpt><trkpt lat="44.6953533" lon="8.0275833"><ele>172.0</ele><time>2026-04-12T09:42:14.063Z</time></trkpt><trkpt lat="44.6953333" lon="8.0274983"><ele>172.0</ele><time>2026-04-12T09:42:15.064Z</time></trkpt><trkpt lat="44.6953017" lon="8.02732"><ele>172.0</ele><time>2026-04-12T09:42:17.064Z</time></trkpt><trkpt lat="44.69528" lon="8.0272267"><ele>172.0</ele><time>2026-04-12T09:42:18.063Z</time></trkpt><trkpt lat="44.6952767" lon="8.0271283"><ele>172.0</ele><time>2026-04-12T09:42:19.058Z</time></trkpt><trkpt lat="44.6952817" lon="8.027025"><ele>172.0</ele><time>2026-04-12T09:42:20.061Z</time></trkpt><trkpt lat="44.6952433" lon="8.026875"><ele>172.0</ele><time>2026-04-12T09:42:22.064Z</time></trkpt><trkpt lat="44.6952017" lon="8.026745"><ele>172.0</ele><time>2026-04-12T09:42:24.062Z</time></trkpt><trkpt lat="44.6951633" lon="8.0265917"><ele>172.0</ele><time>2026-04-12T09:42:26.062Z</time></trkpt><trkpt lat="44.695115" lon="8.0264317"><ele>172.0</ele><time>2026-04-12T09:42:28.062Z</time></trkpt><trkpt lat="44.695045" lon="8.0262817"><ele>172.16666666666669</ele><time>2026-04-12T09:42:30.059Z</time></trkpt><trkpt lat="44.6950117" lon="8.0262017"><ele>172.33333333333334</ele><time>2026-04-12T09:42:31.063Z</time></trkpt><trkpt lat="44.6949483" lon="8.0260533"><ele>172.5</ele><time>2026-04-12T09:42:33.061Z</time></trkpt><trkpt lat="44.694915" lon="8.0259767"><ele>172.66666666666666</ele><time>2026-04-12T09:42:34.064Z</time></trkpt><trkpt lat="44.6948767" lon="8.0259033"><ele>172.83333333333331</ele><time>2026-04-12T09:42:35.062Z</time></trkpt><trkpt lat="44.6948333" lon="8.0258333"><ele>173.0</ele><time>2026-04-12T09:42:36.063Z</time></trkpt><trkpt lat="44.6947933" lon="8.0257533"><ele>173.0</ele><time>2026-04-12T09:42:37.063Z</time></trkpt><trkpt lat="44.6947583" lon="8.0256683"><ele>173.0</ele><time>2026-04-12T09:42:38.061Z</time></trkpt><trkpt lat="44.6947267" lon="8.0255833"><ele>173.0</ele><time>2026-04-12T09:42:39.063Z</time></trkpt><trkpt lat="44.694695" lon="8.0254967"><ele>173.0</ele><time>2026-04-12T09:42:40.063Z</time></trkpt><trkpt lat="44.694655" lon="8.0254183"><ele>173.0</ele><time>2026-04-12T09:42:41.061Z</time></trkpt><trkpt lat="44.6946167" lon="8.0253333"><ele>173.0</ele><time>2026-04-12T09:42:42.062Z</time></trkpt><trkpt lat="44.69458" lon="8.02525"><ele>173.0</ele><time>2026-04-12T09:42:43.062Z</time></trkpt><trkpt lat="44.694545" lon="8.0251683"><ele>173.0</ele><time>2026-04-12T09:42:44.062Z</time></trkpt><trkpt lat="44.6945117" lon="8.025085"><ele>173.0</ele><time>2026-04-12T09:42:45.063Z</time></trkpt><trkpt lat="44.6944767" lon="8.025005"><ele>173.0</ele><time>2026-04-12T09:42:46.061Z</time></trkpt><trkpt lat="44.6944383" lon="8.0249267"><ele>173.0</ele><time>2026-04-12T09:42:47.062Z</time></trkpt><trkpt lat="44.6943983" lon="8.0248483"><ele>173.0</ele><time>2026-04-12T09:42:48.064Z</time></trkpt><trkpt lat="44.69436" lon="8.02477"><ele>173.0</ele><time>2026-04-12T09:42:49.062Z</time></trkpt><trkpt lat="44.6943333" lon="8.0246817"><ele>173.0</ele><time>2026-04-12T09:42:50.061Z</time></trkpt><trkpt lat="44.6942983" lon="8.0245967"><ele>172.85714285714286</ele><time>2026-04-12T09:42:51.063Z</time></trkpt><trkpt lat="44.6942583" lon="8.024515"><ele>172.71428571428572</ele><time>2026-04-12T09:42:52.063Z</time></trkpt><trkpt lat="44.6942183" lon="8.0244367"><ele>172.57142857142858</ele><time>2026-04-12T09:42:53.062Z</time></trkpt><trkpt lat="44.6941817" lon="8.0243567"><ele>172.42857142857144</ele><time>2026-04-12T09:42:54.064Z</time></trkpt><trkpt lat="44.694145" lon="8.02428"><ele>172.28571428571428</ele><time>2026-04-12T09:42:55.063Z</time></trkpt><trkpt lat="44.6941067" lon="8.024205"><ele>172.14285714285717</ele><time>2026-04-12T09:42:56.062Z</time></trkpt><trkpt lat="44.6940667" lon="8.0241317"><ele>172.0</ele><time>2026-04-12T09:42:57.064Z</time></trkpt><trkpt lat="44.6940333" lon="8.0240517"><ele>172.00000000000003</ele><time>2026-04-12T09:42:58.061Z</time></trkpt><trkpt lat="44.6940017" lon="8.0239683"><ele>172.0</ele><time>2026-04-12T09:42:59.062Z</time></trkpt><trkpt lat="44.693965" lon="8.0238867"><ele>172.0</ele><time>2026-04-12T09:43:00.061Z</time></trkpt><trkpt lat="44.6939283" lon="8.023805"><ele>172.0</ele><time>2026-04-12T09:43:01.062Z</time></trkpt><trkpt lat="44.6938933" lon="8.0237233"><ele>172.0</ele><time>2026-04-12T09:43:02.064Z</time></trkpt><trkpt lat="44.69386" lon="8.0236383"><ele>172.00000000000003</ele><time>2026-04-12T09:43:03.062Z</time></trkpt><trkpt lat="44.693825" lon="8.023555"><ele>172.0</ele><time>2026-04-12T09:43:04.062Z</time></trkpt><trkpt lat="44.6937883" lon="8.0234717"><ele>172.00000000000003</ele><time>2026-04-12T09:43:05.062Z</time></trkpt><trkpt lat="44.69375" lon="8.0233883"><ele>172.0</ele><time>2026-04-12T09:43:06.062Z</time></trkpt><trkpt lat="44.6937133" lon="8.023305"><ele>172.0</ele><time>2026-04-12T09:43:07.064Z</time></trkpt><trkpt lat="44.693675" lon="8.0232233"><ele>172.0</ele><time>2026-04-12T09:43:08.061Z</time></trkpt><trkpt lat="44.6936383" lon="8.0231417"><ele>172.0</ele><time>2026-04-12T09:43:09.064Z</time></trkpt><trkpt lat="44.6936067" lon="8.02306"><ele>172.00000000000003</ele><time>2026-04-12T09:43:10.063Z</time></trkpt><trkpt lat="44.69357" lon="8.0229783"><ele>172.0</ele><time>2026-04-12T09:43:11.062Z</time></trkpt><trkpt lat="44.6935333" lon="8.0228983"><ele>172.14285714285717</ele><time>2026-04-12T09:43:12.062Z</time></trkpt><trkpt lat="44.6934983" lon="8.0228117"><ele>172.28571428571428</ele><time>2026-04-12T09:43:13.063Z</time></trkpt><trkpt lat="44.6934583" lon="8.02273"><ele>172.42857142857144</ele><time>2026-04-12T09:43:14.061Z</time></trkpt><trkpt lat="44.6934233" lon="8.022645"><ele>172.57142857142858</ele><time>2026-04-12T09:43:15.061Z</time></trkpt><trkpt lat="44.6933883" lon="8.02256"><ele>172.71428571428572</ele><time>2026-04-12T09:43:16.062Z</time></trkpt><trkpt lat="44.6933483" lon="8.02248"><ele>172.85714285714286</ele><time>2026-04-12T09:43:17.062Z</time></trkpt><trkpt lat="44.693305" lon="8.0224"><ele>173.0</ele><time>2026-04-12T09:43:18.064Z</time></trkpt><trkpt lat="44.6932633" lon="8.0223183"><ele>173.0</ele><time>2026-04-12T09:43:19.064Z</time></trkpt><trkpt lat="44.69323" lon="8.0222317"><ele>173.0</ele><time>2026-04-12T09:43:20.063Z</time></trkpt><trkpt lat="44.6931983" lon="8.0221417"><ele>173.0</ele><time>2026-04-12T09:43:21.063Z</time></trkpt><trkpt lat="44.693165" lon="8.0220567"><ele>173.0</ele><time>2026-04-12T09:43:22.063Z</time></trkpt><trkpt lat="44.6931283" lon="8.021975"><ele>173.0</ele><time>2026-04-12T09:43:23.062Z</time></trkpt><trkpt lat="44.6930867" lon="8.0218967"><ele>173.0</ele><time>2026-04-12T09:43:24.063Z</time></trkpt><trkpt lat="44.6930467" lon="8.02182"><ele>173.0</ele><time>2026-04-12T09:43:25.064Z</time></trkpt><trkpt lat="44.6930117" lon="8.021745"><ele>173.16666666666666</ele><time>2026-04-12T09:43:26.063Z</time></trkpt><trkpt lat="44.6929417" lon="8.0215983"><ele>173.33333333333331</ele><time>2026-04-12T09:43:28.062Z</time></trkpt><trkpt lat="44.6928683" lon="8.0214567"><ele>173.5</ele><time>2026-04-12T09:43:30.061Z</time></trkpt><trkpt lat="44.692825" lon="8.02139"><ele>173.66666666666666</ele><time>2026-04-12T09:43:31.064Z</time></trkpt><trkpt lat="44.692785" lon="8.0213183"><ele>173.83333333333334</ele><time>2026-04-12T09:43:32.061Z</time></trkpt><trkpt lat="44.6927483" lon="8.0212383"><ele>174.0</ele><time>2026-04-12T09:43:33.063Z</time></trkpt><trkpt lat="44.6926833" lon="8.0210883"><ele>174.0</ele><time>2026-04-12T09:43:35.062Z</time></trkpt><trkpt lat="44.6926467" lon="8.0210133"><ele>174.0</ele><time>2026-04-12T09:43:36.062Z</time></trkpt><trkpt lat="44.69261" lon="8.0209367"><ele>174.0</ele><time>2026-04-12T09:43:37.063Z</time></trkpt><trkpt lat="44.692575" lon="8.0208583"><ele>174.0</ele><time>2026-04-12T09:43:38.063Z</time></trkpt><trkpt lat="44.692545" lon="8.02078"><ele>174.0</ele><time>2026-04-12T09:43:39.061Z</time></trkpt><trkpt lat="44.69251" lon="8.0207033"><ele>174.0</ele><time>2026-04-12T09:43:40.063Z</time></trkpt><trkpt lat="44.692465" lon="8.0206383"><ele>174.0</ele><time>2026-04-12T09:43:41.062Z</time></trkpt><trkpt lat="44.6924317" lon="8.0205583"><ele>174.0</ele><time>2026-04-12T09:43:42.061Z</time></trkpt><trkpt lat="44.6923933" lon="8.0204817"><ele>174.0</ele><time>2026-04-12T09:43:43.063Z</time></trkpt><trkpt lat="44.6923583" lon="8.020405"><ele>174.0</ele><time>2026-04-12T09:43:44.062Z</time></trkpt><trkpt lat="44.6923217" lon="8.0203317"><ele>174.0</ele><time>2026-04-12T09:43:45.061Z</time></trkpt><trkpt lat="44.692275" lon="8.0202633"><ele>174.0</ele><time>2026-04-12T09:43:46.064Z</time></trkpt><trkpt lat="44.692245" lon="8.0201767"><ele>174.0</ele><time>2026-04-12T09:43:47.065Z</time></trkpt><trkpt lat="44.6922117" lon="8.020095"><ele>174.0</ele><time>2026-04-12T09:43:48.065Z</time></trkpt><trkpt lat="44.69218" lon="8.0200183"><ele>173.83333333333334</ele><time>2026-04-12T09:43:49.066Z</time></trkpt><trkpt lat="44.6921133" lon="8.0198633"><ele>173.66666666666666</ele><time>2026-04-12T09:43:51.063Z</time></trkpt><trkpt lat="44.692075" lon="8.0197867"><ele>173.5</ele><time>2026-04-12T09:43:52.065Z</time></trkpt><trkpt lat="44.6920333" lon="8.0197083"><ele>173.33333333333331</ele><time>2026-04-12T09:43:53.065Z</time></trkpt><trkpt lat="44.6919917" lon="8.01963"><ele>173.16666666666666</ele><time>2026-04-12T09:43:54.063Z</time></trkpt><trkpt lat="44.691955" lon="8.0195483"><ele>173.0</ele><time>2026-04-12T09:43:55.064Z</time></trkpt><trkpt lat="44.6919183" lon="8.0194633"><ele>173.28571428571428</ele><time>2026-04-12T09:43:56.063Z</time></trkpt><trkpt lat="44.6918833" lon="8.0193817"><ele>173.57142857142858</ele><time>2026-04-12T09:43:57.063Z</time></trkpt><trkpt lat="44.6918483" lon="8.019295"><ele>173.85714285714286</ele><time>2026-04-12T09:43:58.063Z</time></trkpt><trkpt lat="44.6918133" lon="8.0192133"><ele>174.14285714285714</ele><time>2026-04-12T09:43:59.061Z</time></trkpt><trkpt lat="44.6917717" lon="8.0191433"><ele>174.42857142857144</ele><time>2026-04-12T09:44:00.062Z</time></trkpt><trkpt lat="44.691735" lon="8.0190633"><ele>174.71428571428572</ele><time>2026-04-12T09:44:01.063Z</time></trkpt><trkpt lat="44.6916983" lon="8.018985"><ele>175.0</ele><time>2026-04-12T09:44:02.063Z</time></trkpt><trkpt lat="44.6916617" lon="8.018905"><ele>175.0</ele><time>2026-04-12T09:44:03.063Z</time></trkpt><trkpt lat="44.691625" lon="8.0188217"><ele>175.0</ele><time>2026-04-12T09:44:04.063Z</time></trkpt><trkpt lat="44.6915917" lon="8.0187367"><ele>175.0</ele><time>2026-04-12T09:44:05.064Z</time></trkpt><trkpt lat="44.6915583" lon="8.0186533"><ele>175.0</ele><time>2026-04-12T09:44:06.062Z</time></trkpt><trkpt lat="44.6915233" lon="8.0185733"><ele>175.0</ele><time>2026-04-12T09:44:07.062Z</time></trkpt><trkpt lat="44.6914917" lon="8.0184917"><ele>175.0</ele><time>2026-04-12T09:44:08.061Z</time></trkpt><trkpt lat="44.69146" lon="8.01841"><ele>175.0</ele><time>2026-04-12T09:44:09.062Z</time></trkpt><trkpt lat="44.6914217" lon="8.01833"><ele>174.42857142857142</ele><time>2026-04-12T09:44:10.063Z</time></trkpt><trkpt lat="44.6913883" lon="8.01825"><ele>173.85714285714286</ele><time>2026-04-12T09:44:11.061Z</time></trkpt><trkpt lat="44.6913517" lon="8.0181683"><ele>173.28571428571428</ele><time>2026-04-12T09:44:12.063Z</time></trkpt><trkpt lat="44.691315" lon="8.0180883"><ele>172.71428571428572</ele><time>2026-04-12T09:44:13.066Z</time></trkpt><trkpt lat="44.6912767" lon="8.0180083"><ele>172.14285714285714</ele><time>2026-04-12T09:44:14.063Z</time></trkpt><trkpt lat="44.6912383" lon="8.0179317"><ele>171.57142857142856</ele><time>2026-04-12T09:44:15.062Z</time></trkpt><trkpt lat="44.6912017" lon="8.01785"><ele>171.0</ele><time>2026-04-12T09:44:16.063Z</time></trkpt><trkpt lat="44.6911683" lon="8.01777"><ele>171.0</ele><time>2026-04-12T09:44:17.062Z</time></trkpt><trkpt lat="44.6911333" lon="8.01769"><ele>171.0</ele><time>2026-04-12T09:44:18.063Z</time></trkpt><trkpt lat="44.6910983" lon="8.0176133"><ele>171.0</ele><time>2026-04-12T09:44:19.063Z</time></trkpt><trkpt lat="44.6910467" lon="8.0174817"><ele>171.0</ele><time>2026-04-12T09:44:21.062Z</time></trkpt><trkpt lat="44.690995" lon="8.017355"><ele>171.0</ele><time>2026-04-12T09:44:23.062Z</time></trkpt><trkpt lat="44.6909333" lon="8.01721"><ele>170.83333333333334</ele><time>2026-04-12T09:44:25.064Z</time></trkpt><trkpt lat="44.6908667" lon="8.0170683"><ele>170.66666666666666</ele><time>2026-04-12T09:44:27.063Z</time></trkpt><trkpt lat="44.6908283" lon="8.0169967"><ele>170.5</ele><time>2026-04-12T09:44:28.063Z</time></trkpt><trkpt lat="44.6907567" lon="8.0168567"><ele>170.33333333333331</ele><time>2026-04-12T09:44:30.062Z</time></trkpt><trkpt lat="44.690725" lon="8.0167783"><ele>170.16666666666666</ele><time>2026-04-12T09:44:31.063Z</time></trkpt><trkpt lat="44.6906917" lon="8.0166967"><ele>170.0</ele><time>2026-04-12T09:44:32.06Z</time></trkpt><trkpt lat="44.6906533" lon="8.01662"><ele>170.2857142857143</ele><time>2026-04-12T09:44:33.064Z</time></trkpt><trkpt lat="44.690615" lon="8.0165433"><ele>170.57142857142856</ele><time>2026-04-12T09:44:34.064Z</time></trkpt><trkpt lat="44.6905783" lon="8.0164667"><ele>170.85714285714286</ele><time>2026-04-12T09:44:35.062Z</time></trkpt><trkpt lat="44.6905417" lon="8.0163833"><ele>171.14285714285717</ele><time>2026-04-12T09:44:36.063Z</time></trkpt><trkpt lat="44.6905083" lon="8.0163017"><ele>171.42857142857144</ele><time>2026-04-12T09:44:37.064Z</time></trkpt><trkpt lat="44.6904733" lon="8.01622"><ele>171.71428571428572</ele><time>2026-04-12T09:44:38.064Z</time></trkpt><trkpt lat="44.69044" lon="8.016135"><ele>172.0</ele><time>2026-04-12T09:44:39.064Z</time></trkpt><trkpt lat="44.690405" lon="8.0160517"><ele>172.00000000000003</ele><time>2026-04-12T09:44:40.065Z</time></trkpt><trkpt lat="44.690365" lon="8.0159733"><ele>172.0</ele><time>2026-04-12T09:44:41.062Z</time></trkpt><trkpt lat="44.6903333" lon="8.0158933"><ele>172.0</ele><time>2026-04-12T09:44:42.063Z</time></trkpt><trkpt lat="44.6903" lon="8.0158133"><ele>172.0</ele><time>2026-04-12T09:44:43.064Z</time></trkpt><trkpt lat="44.6902633" lon="8.0157333"><ele>172.0</ele><time>2026-04-12T09:44:44.065Z</time></trkpt><trkpt lat="44.6902317" lon="8.015655"><ele>172.00000000000003</ele><time>2026-04-12T09:44:45.066Z</time></trkpt><trkpt lat="44.690195" lon="8.0155783"><ele>172.0</ele><time>2026-04-12T09:44:46.064Z</time></trkpt><trkpt lat="44.6901617" lon="8.0155017"><ele>172.00000000000003</ele><time>2026-04-12T09:44:47.064Z</time></trkpt><trkpt lat="44.6901267" lon="8.015425"><ele>172.0</ele><time>2026-04-12T09:44:48.064Z</time></trkpt><trkpt lat="44.6900917" lon="8.0153483"><ele>172.0</ele><time>2026-04-12T09:44:49.064Z</time></trkpt><trkpt lat="44.6900533" lon="8.01527"><ele>172.0</ele><time>2026-04-12T09:44:50.062Z</time></trkpt><trkpt lat="44.690015" lon="8.0151917"><ele>172.0</ele><time>2026-04-12T09:44:51.064Z</time></trkpt><trkpt lat="44.6899767" lon="8.0151167"><ele>172.00000000000003</ele><time>2026-04-12T09:44:52.065Z</time></trkpt><trkpt lat="44.68994" lon="8.0150383"><ele>172.0</ele><time>2026-04-12T09:44:53.065Z</time></trkpt><trkpt lat="44.6899067" lon="8.0149567"><ele>172.0</ele><time>2026-04-12T09:44:54.063Z</time></trkpt><trkpt lat="44.6898433" lon="8.0148083"><ele>172.0</ele><time>2026-04-12T09:44:56.065Z</time></trkpt><trkpt lat="44.689805" lon="8.0147333"><ele>172.0</ele><time>2026-04-12T09:44:57.064Z</time></trkpt><trkpt lat="44.6897667" lon="8.0146583"><ele>172.0</ele><time>2026-04-12T09:44:58.062Z</time></trkpt><trkpt lat="44.6896967" lon="8.0145083"><ele>172.0</ele><time>2026-04-12T09:45:00.062Z</time></trkpt><trkpt lat="44.689665" lon="8.0144283"><ele>172.0</ele><time>2026-04-12T09:45:01.064Z</time></trkpt><trkpt lat="44.68963" lon="8.01435"><ele>172.00000000000003</ele><time>2026-04-12T09:45:02.062Z</time></trkpt><trkpt lat="44.6895933" lon="8.01427"><ele>172.0</ele><time>2026-04-12T09:45:03.064Z</time></trkpt><trkpt lat="44.6895567" lon="8.0141917"><ele>172.0</ele><time>2026-04-12T09:45:04.064Z</time></trkpt><trkpt lat="44.68952" lon="8.0141117"><ele>172.0</ele><time>2026-04-12T09:45:05.062Z</time></trkpt><trkpt lat="44.689485" lon="8.0140367"><ele>172.0</ele><time>2026-04-12T09:45:06.064Z</time></trkpt><trkpt lat="44.6894483" lon="8.01396"><ele>172.00000000000003</ele><time>2026-04-12T09:45:07.063Z</time></trkpt><trkpt lat="44.6894133" lon="8.01388"><ele>172.0</ele><time>2026-04-12T09:45:08.061Z</time></trkpt><trkpt lat="44.6893783" lon="8.0137967"><ele>172.2857142857143</ele><time>2026-04-12T09:45:09.065Z</time></trkpt><trkpt lat="44.6893433" lon="8.0137133"><ele>172.57142857142858</ele><time>2026-04-12T09:45:10.063Z</time></trkpt><trkpt lat="44.6893083" lon="8.0136283"><ele>172.85714285714286</ele><time>2026-04-12T09:45:11.061Z</time></trkpt><trkpt lat="44.6892733" lon="8.0135433"><ele>173.14285714285717</ele><time>2026-04-12T09:45:12.063Z</time></trkpt><trkpt lat="44.6892383" lon="8.0134567"><ele>173.42857142857144</ele><time>2026-04-12T09:45:13.063Z</time></trkpt><trkpt lat="44.6892033" lon="8.013375"><ele>173.71428571428572</ele><time>2026-04-12T09:45:14.067Z</time></trkpt><trkpt lat="44.68917" lon="8.0132917"><ele>174.0</ele><time>2026-04-12T09:45:15.063Z</time></trkpt><trkpt lat="44.689135" lon="8.0132083"><ele>174.0</ele><time>2026-04-12T09:45:16.065Z</time></trkpt><trkpt lat="44.6890967" lon="8.0131283"><ele>174.0</ele><time>2026-04-12T09:45:17.061Z</time></trkpt><trkpt lat="44.6890617" lon="8.0130467"><ele>174.0</ele><time>2026-04-12T09:45:18.063Z</time></trkpt><trkpt lat="44.6890267" lon="8.012965"><ele>174.0</ele><time>2026-04-12T09:45:19.064Z</time></trkpt><trkpt lat="44.68899" lon="8.012885"><ele>174.0</ele><time>2026-04-12T09:45:20.063Z</time></trkpt><trkpt lat="44.6889483" lon="8.01281"><ele>174.0</ele><time>2026-04-12T09:45:21.065Z</time></trkpt><trkpt lat="44.688905" lon="8.012735"><ele>174.0</ele><time>2026-04-12T09:45:22.063Z</time></trkpt><trkpt lat="44.6888633" lon="8.0126583"><ele>174.0</ele><time>2026-04-12T09:45:23.061Z</time></trkpt><trkpt lat="44.6888267" lon="8.0125817"><ele>174.0</ele><time>2026-04-12T09:45:24.064Z</time></trkpt><trkpt lat="44.6887917" lon="8.0125017"><ele>174.0</ele><time>2026-04-12T09:45:25.062Z</time></trkpt><trkpt lat="44.688755" lon="8.01242"><ele>174.0</ele><time>2026-04-12T09:45:26.063Z</time></trkpt><trkpt lat="44.688715" lon="8.0123383"><ele>174.0</ele><time>2026-04-12T09:45:27.065Z</time></trkpt><trkpt lat="44.6886767" lon="8.0122583"><ele>174.0</ele><time>2026-04-12T09:45:28.063Z</time></trkpt><trkpt lat="44.68864" lon="8.012175"><ele>174.0</ele><time>2026-04-12T09:45:29.061Z</time></trkpt><trkpt lat="44.6886067" lon="8.01209"><ele>174.16666666666666</ele><time>2026-04-12T09:45:30.063Z</time></trkpt><trkpt lat="44.6885717" lon="8.0120083"><ele>174.33333333333334</ele><time>2026-04-12T09:45:31.065Z</time></trkpt><trkpt lat="44.688535" lon="8.0119333"><ele>174.5</ele><time>2026-04-12T09:45:32.062Z</time></trkpt><trkpt lat="44.6884667" lon="8.0117817"><ele>174.66666666666669</ele><time>2026-04-12T09:45:34.062Z</time></trkpt><trkpt lat="44.6884283" lon="8.0117033"><ele>174.83333333333334</ele><time>2026-04-12T09:45:35.062Z</time></trkpt><trkpt lat="44.68839" lon="8.0116283"><ele>175.0</ele><time>2026-04-12T09:45:36.063Z</time></trkpt><trkpt lat="44.688355" lon="8.0115483"><ele>175.0</ele><time>2026-04-12T09:45:37.063Z</time></trkpt><trkpt lat="44.68832" lon="8.0114683"><ele>175.0</ele><time>2026-04-12T09:45:38.065Z</time></trkpt><trkpt lat="44.6882833" lon="8.011385"><ele>175.0</ele><time>2026-04-12T09:45:39.063Z</time></trkpt><trkpt lat="44.688245" lon="8.0113017"><ele>175.0</ele><time>2026-04-12T09:45:40.064Z</time></trkpt><trkpt lat="44.688205" lon="8.0112183"><ele>175.0</ele><time>2026-04-12T09:45:41.063Z</time></trkpt><trkpt lat="44.6881633" lon="8.0111367"><ele>175.0</ele><time>2026-04-12T09:45:42.063Z</time></trkpt><trkpt lat="44.6881283" lon="8.0110567"><ele>175.0</ele><time>2026-04-12T09:45:43.062Z</time></trkpt><trkpt lat="44.68809" lon="8.0109767"><ele>175.0</ele><time>2026-04-12T09:45:44.061Z</time></trkpt><trkpt lat="44.68805" lon="8.010895"><ele>175.0</ele><time>2026-04-12T09:45:45.063Z</time></trkpt><trkpt lat="44.68801" lon="8.0108117"><ele>175.0</ele><time>2026-04-12T09:45:46.062Z</time></trkpt><trkpt lat="44.687975" lon="8.010725"><ele>175.0</ele><time>2026-04-12T09:45:47.063Z</time></trkpt><trkpt lat="44.68794" lon="8.0106367"><ele>175.0</ele><time>2026-04-12T09:45:48.064Z</time></trkpt><trkpt lat="44.6879017" lon="8.0105517"><ele>175.0</ele><time>2026-04-12T09:45:49.061Z</time></trkpt><trkpt lat="44.687865" lon="8.0104667"><ele>175.0</ele><time>2026-04-12T09:45:50.062Z</time></trkpt><trkpt lat="44.6878317" lon="8.0103867"><ele>175.14285714285714</ele><time>2026-04-12T09:45:51.064Z</time></trkpt><trkpt lat="44.687795" lon="8.0103083"><ele>175.28571428571428</ele><time>2026-04-12T09:45:52.063Z</time></trkpt><trkpt lat="44.68776" lon="8.010225"><ele>175.42857142857144</ele><time>2026-04-12T09:45:53.063Z</time></trkpt><trkpt lat="44.68772" lon="8.0101417"><ele>175.57142857142856</ele><time>2026-04-12T09:45:54.063Z</time></trkpt><trkpt lat="44.6876767" lon="8.010055"><ele>175.71428571428572</ele><time>2026-04-12T09:45:55.062Z</time></trkpt><trkpt lat="44.6876367" lon="8.0099733"><ele>175.85714285714286</ele><time>2026-04-12T09:45:56.062Z</time></trkpt><trkpt lat="44.6875983" lon="8.0098933"><ele>176.0</ele><time>2026-04-12T09:45:57.066Z</time></trkpt><trkpt lat="44.6875633" lon="8.009815"><ele>176.0</ele><time>2026-04-12T09:45:58.063Z</time></trkpt><trkpt lat="44.6875317" lon="8.009735"><ele>176.0</ele><time>2026-04-12T09:45:59.062Z</time></trkpt><trkpt lat="44.6874967" lon="8.00965"><ele>176.0</ele><time>2026-04-12T09:46:00.064Z</time></trkpt><trkpt lat="44.687455" lon="8.00957"><ele>176.0</ele><time>2026-04-12T09:46:01.064Z</time></trkpt><trkpt lat="44.6874183" lon="8.009485"><ele>176.0</ele><time>2026-04-12T09:46:02.065Z</time></trkpt><trkpt lat="44.6873817" lon="8.0094"><ele>176.0</ele><time>2026-04-12T09:46:03.058Z</time></trkpt><trkpt lat="44.68734" lon="8.0093183"><ele>176.0</ele><time>2026-04-12T09:46:04.063Z</time></trkpt><trkpt lat="44.6873033" lon="8.0092367"><ele>176.0</ele><time>2026-04-12T09:46:05.064Z</time></trkpt><trkpt lat="44.687265" lon="8.00915"><ele>176.0</ele><time>2026-04-12T09:46:06.063Z</time></trkpt><trkpt lat="44.68723" lon="8.00907"><ele>176.0</ele><time>2026-04-12T09:46:07.063Z</time></trkpt><trkpt lat="44.6871917" lon="8.0089917"><ele>176.0</ele><time>2026-04-12T09:46:08.062Z</time></trkpt><trkpt lat="44.687155" lon="8.0089117"><ele>176.0</ele><time>2026-04-12T09:46:09.065Z</time></trkpt><trkpt lat="44.6871183" lon="8.00883"><ele>176.0</ele><time>2026-04-12T09:46:10.062Z</time></trkpt><trkpt lat="44.6870783" lon="8.0087517"><ele>176.0</ele><time>2026-04-12T09:46:11.063Z</time></trkpt><trkpt lat="44.6870333" lon="8.0086717"><ele>176.0</ele><time>2026-04-12T09:46:12.065Z</time></trkpt><trkpt lat="44.6869933" lon="8.008595"><ele>176.0</ele><time>2026-04-12T09:46:13.062Z</time></trkpt><trkpt lat="44.6869583" lon="8.0085167"><ele>176.0</ele><time>2026-04-12T09:46:14.063Z</time></trkpt><trkpt lat="44.6869183" lon="8.0084367"><ele>176.0</ele><time>2026-04-12T09:46:15.064Z</time></trkpt><trkpt lat="44.6868817" lon="8.008355"><ele>176.0</ele><time>2026-04-12T09:46:16.063Z</time></trkpt><trkpt lat="44.686845" lon="8.0082717"><ele>176.0</ele><time>2026-04-12T09:46:17.063Z</time></trkpt><trkpt lat="44.686805" lon="8.0081917"><ele>176.0</ele><time>2026-04-12T09:46:18.063Z</time></trkpt><trkpt lat="44.686765" lon="8.0081067"><ele>176.0</ele><time>2026-04-12T09:46:19.062Z</time></trkpt><trkpt lat="44.6867267" lon="8.0080283"><ele>176.0</ele><time>2026-04-12T09:46:20.062Z</time></trkpt><trkpt lat="44.6866867" lon="8.007955"><ele>176.0</ele><time>2026-04-12T09:46:21.063Z</time></trkpt><trkpt lat="44.686645" lon="8.0078767"><ele>176.0</ele><time>2026-04-12T09:46:22.063Z</time></trkpt><trkpt lat="44.6866" lon="8.0078017"><ele>176.0</ele><time>2026-04-12T09:46:23.062Z</time></trkpt><trkpt lat="44.6865533" lon="8.0077267"><ele>176.0</ele><time>2026-04-12T09:46:24.063Z</time></trkpt><trkpt lat="44.6865067" lon="8.0076567"><ele>176.0</ele><time>2026-04-12T09:46:25.065Z</time></trkpt><trkpt lat="44.68646" lon="8.007585"><ele>176.0</ele><time>2026-04-12T09:46:26.065Z</time></trkpt><trkpt lat="44.6864083" lon="8.0075067"><ele>176.0</ele><time>2026-04-12T09:46:27.063Z</time></trkpt><trkpt lat="44.6863567" lon="8.0074267"><ele>176.0</ele><time>2026-04-12T09:46:28.063Z</time></trkpt><trkpt lat="44.6863017" lon="8.00735"><ele>176.0</ele><time>2026-04-12T09:46:29.061Z</time></trkpt><trkpt lat="44.6862483" lon="8.0072717"><ele>176.0</ele><time>2026-04-12T09:46:30.065Z</time></trkpt><trkpt lat="44.6861967" lon="8.0072083"><ele>176.0</ele><time>2026-04-12T09:46:31.064Z</time></trkpt><trkpt lat="44.6861383" lon="8.0071417"><ele>175.85714285714286</ele><time>2026-04-12T09:46:32.063Z</time></trkpt><trkpt lat="44.6860817" lon="8.0070783"><ele>175.71428571428572</ele><time>2026-04-12T09:46:33.064Z</time></trkpt><trkpt lat="44.6860267" lon="8.0070167"><ele>175.57142857142856</ele><time>2026-04-12T09:46:34.064Z</time></trkpt><trkpt lat="44.6859667" lon="8.0069533"><ele>175.42857142857144</ele><time>2026-04-12T09:46:35.062Z</time></trkpt><trkpt lat="44.6859083" lon="8.006895"><ele>175.28571428571428</ele><time>2026-04-12T09:46:36.063Z</time></trkpt><trkpt lat="44.6858533" lon="8.00684"><ele>175.14285714285714</ele><time>2026-04-12T09:46:37.063Z</time></trkpt><trkpt lat="44.6857983" lon="8.0067867"><ele>175.0</ele><time>2026-04-12T09:46:38.063Z</time></trkpt><trkpt lat="44.68574" lon="8.0067367"><ele>175.0</ele><time>2026-04-12T09:46:39.064Z</time></trkpt><trkpt lat="44.6856833" lon="8.0066933"><ele>175.0</ele><time>2026-04-12T09:46:40.062Z</time></trkpt><trkpt lat="44.685625" lon="8.00665"><ele>175.0</ele><time>2026-04-12T09:46:41.061Z</time></trkpt><trkpt lat="44.6855633" lon="8.0066017"><ele>175.0</ele><time>2026-04-12T09:46:42.062Z</time></trkpt><trkpt lat="44.6855017" lon="8.0065533"><ele>175.0</ele><time>2026-04-12T09:46:43.063Z</time></trkpt><trkpt lat="44.6854383" lon="8.0065017"><ele>175.0</ele><time>2026-04-12T09:46:44.063Z</time></trkpt><trkpt lat="44.6853783" lon="8.0064533"><ele>175.0</ele><time>2026-04-12T09:46:45.065Z</time></trkpt><trkpt lat="44.6853183" lon="8.0064067"><ele>175.0</ele><time>2026-04-12T09:46:46.063Z</time></trkpt><trkpt lat="44.6852567" lon="8.0063683"><ele>175.0</ele><time>2026-04-12T09:46:47.061Z</time></trkpt><trkpt lat="44.6851933" lon="8.0063233"><ele>175.0</ele><time>2026-04-12T09:46:48.065Z</time></trkpt><trkpt lat="44.6851317" lon="8.0062767"><ele>175.0</ele><time>2026-04-12T09:46:49.063Z</time></trkpt><trkpt lat="44.6850667" lon="8.0062317"><ele>175.0</ele><time>2026-04-12T09:46:50.062Z</time></trkpt><trkpt lat="44.6850033" lon="8.0061867"><ele>175.0</ele><time>2026-04-12T09:46:51.064Z</time></trkpt><trkpt lat="44.6849417" lon="8.0061483"><ele>175.0</ele><time>2026-04-12T09:46:52.063Z</time></trkpt><trkpt lat="44.684885" lon="8.0061083"><ele>175.0</ele><time>2026-04-12T09:46:53.064Z</time></trkpt><trkpt lat="44.6848267" lon="8.0060683"><ele>175.0</ele><time>2026-04-12T09:46:54.064Z</time></trkpt><trkpt lat="44.68477" lon="8.0060233"><ele>175.0</ele><time>2026-04-12T09:46:55.063Z</time></trkpt><trkpt lat="44.6846717" lon="8.0059083"><ele>175.0</ele><time>2026-04-12T09:46:57.062Z</time></trkpt><trkpt lat="44.6846233" lon="8.005835"><ele>175.0</ele><time>2026-04-12T09:46:58.063Z</time></trkpt><trkpt lat="44.6845767" lon="8.0057667"><ele>175.0</ele><time>2026-04-12T09:46:59.062Z</time></trkpt><trkpt lat="44.6845233" lon="8.0057033"><ele>175.0</ele><time>2026-04-12T09:47:00.062Z</time></trkpt><trkpt lat="44.6844717" lon="8.0056483"><ele>175.0</ele><time>2026-04-12T09:47:01.063Z</time></trkpt><trkpt lat="44.68442" lon="8.0055917"><ele>175.0</ele><time>2026-04-12T09:47:02.063Z</time></trkpt><trkpt lat="44.6843667" lon="8.0055333"><ele>175.0</ele><time>2026-04-12T09:47:03.065Z</time></trkpt><trkpt lat="44.684315" lon="8.0054733"><ele>175.0</ele><time>2026-04-12T09:47:04.062Z</time></trkpt><trkpt lat="44.684265" lon="8.0054117"><ele>175.0</ele><time>2026-04-12T09:47:05.063Z</time></trkpt><trkpt lat="44.684215" lon="8.00535"><ele>175.0</ele><time>2026-04-12T09:47:06.065Z</time></trkpt><trkpt lat="44.6841683" lon="8.005285"><ele>175.14285714285714</ele><time>2026-04-12T09:47:07.061Z</time></trkpt><trkpt lat="44.684125" lon="8.005215"><ele>175.28571428571428</ele><time>2026-04-12T09:47:08.062Z</time></trkpt><trkpt lat="44.68408" lon="8.0051433"><ele>175.42857142857144</ele><time>2026-04-12T09:47:09.063Z</time></trkpt><trkpt lat="44.6840383" lon="8.0050733"><ele>175.57142857142856</ele><time>2026-04-12T09:47:10.064Z</time></trkpt><trkpt lat="44.683995" lon="8.005"><ele>175.71428571428572</ele><time>2026-04-12T09:47:11.063Z</time></trkpt><trkpt lat="44.683955" lon="8.0049283"><ele>175.85714285714286</ele><time>2026-04-12T09:47:12.062Z</time></trkpt><trkpt lat="44.6839117" lon="8.0048583"><ele>176.0</ele><time>2026-04-12T09:47:13.063Z</time></trkpt><trkpt lat="44.68387" lon="8.0047917"><ele>176.0</ele><time>2026-04-12T09:47:14.062Z</time></trkpt><trkpt lat="44.68383" lon="8.0047183"><ele>176.0</ele><time>2026-04-12T09:47:15.063Z</time></trkpt><trkpt lat="44.683785" lon="8.0046467"><ele>176.0</ele><time>2026-04-12T09:47:16.062Z</time></trkpt><trkpt lat="44.6837417" lon="8.0045767"><ele>176.0</ele><time>2026-04-12T09:47:17.06Z</time></trkpt><trkpt lat="44.6837" lon="8.0045017"><ele>176.0</ele><time>2026-04-12T09:47:18.062Z</time></trkpt><trkpt lat="44.6836583" lon="8.0044233"><ele>176.0</ele><time>2026-04-12T09:47:19.062Z</time></trkpt><trkpt lat="44.68362" lon="8.0043467"><ele>176.0</ele><time>2026-04-12T09:47:20.063Z</time></trkpt><trkpt lat="44.6835833" lon="8.004265"><ele>175.85714285714286</ele><time>2026-04-12T09:47:21.063Z</time></trkpt><trkpt lat="44.683545" lon="8.0041833"><ele>175.71428571428572</ele><time>2026-04-12T09:47:22.063Z</time></trkpt><trkpt lat="44.683505" lon="8.0041033"><ele>175.57142857142856</ele><time>2026-04-12T09:47:23.063Z</time></trkpt><trkpt lat="44.6834667" lon="8.0040217"><ele>175.42857142857144</ele><time>2026-04-12T09:47:24.063Z</time></trkpt><trkpt lat="44.6834267" lon="8.0039383"><ele>175.28571428571428</ele><time>2026-04-12T09:47:25.064Z</time></trkpt><trkpt lat="44.6833867" lon="8.003855"><ele>175.14285714285714</ele><time>2026-04-12T09:47:26.061Z</time></trkpt><trkpt lat="44.6833483" lon="8.0037767"><ele>175.0</ele><time>2026-04-12T09:47:27.065Z</time></trkpt><trkpt lat="44.68331" lon="8.0036933"><ele>175.0</ele><time>2026-04-12T09:47:28.065Z</time></trkpt><trkpt lat="44.6832767" lon="8.0036117"><ele>175.0</ele><time>2026-04-12T09:47:29.063Z</time></trkpt><trkpt lat="44.6832417" lon="8.0035267"><ele>175.0</ele><time>2026-04-12T09:47:30.064Z</time></trkpt><trkpt lat="44.6832033" lon="8.0034433"><ele>175.0</ele><time>2026-04-12T09:47:31.06Z</time></trkpt><trkpt lat="44.683165" lon="8.003365"><ele>175.0</ele><time>2026-04-12T09:47:32.065Z</time></trkpt><trkpt lat="44.6831283" lon="8.0032867"><ele>175.0</ele><time>2026-04-12T09:47:33.064Z</time></trkpt><trkpt lat="44.6830883" lon="8.0032083"><ele>175.0</ele><time>2026-04-12T09:47:34.062Z</time></trkpt><trkpt lat="44.68305" lon="8.003125"><ele>174.57142857142858</ele><time>2026-04-12T09:47:35.062Z</time></trkpt><trkpt lat="44.68301" lon="8.003045"><ele>174.14285714285714</ele><time>2026-04-12T09:47:36.063Z</time></trkpt><trkpt lat="44.6829717" lon="8.00297"><ele>173.71428571428572</ele><time>2026-04-12T09:47:37.065Z</time></trkpt><trkpt lat="44.682935" lon="8.0028917"><ele>173.28571428571428</ele><time>2026-04-12T09:47:38.064Z</time></trkpt><trkpt lat="44.682895" lon="8.0028133"><ele>172.85714285714286</ele><time>2026-04-12T09:47:39.064Z</time></trkpt><trkpt lat="44.6828567" lon="8.002735"><ele>172.42857142857144</ele><time>2026-04-12T09:47:40.062Z</time></trkpt><trkpt lat="44.6828217" lon="8.002655"><ele>172.0</ele><time>2026-04-12T09:47:41.063Z</time></trkpt><trkpt lat="44.6827833" lon="8.0025767"><ele>172.42857142857144</ele><time>2026-04-12T09:47:42.064Z</time></trkpt><trkpt lat="44.6827467" lon="8.0024983"><ele>172.85714285714286</ele><time>2026-04-12T09:47:43.065Z</time></trkpt><trkpt lat="44.6827083" lon="8.0024183"><ele>173.28571428571428</ele><time>2026-04-12T09:47:44.062Z</time></trkpt><trkpt lat="44.68267" lon="8.002335"><ele>173.71428571428572</ele><time>2026-04-12T09:47:45.063Z</time></trkpt><trkpt lat="44.68263" lon="8.0022533"><ele>174.14285714285714</ele><time>2026-04-12T09:47:46.064Z</time></trkpt><trkpt lat="44.68259" lon="8.0021733"><ele>174.57142857142858</ele><time>2026-04-12T09:47:47.063Z</time></trkpt><trkpt lat="44.68255" lon="8.0020917"><ele>175.0</ele><time>2026-04-12T09:47:48.064Z</time></trkpt><trkpt lat="44.6825133" lon="8.00201"><ele>175.0</ele><time>2026-04-12T09:47:49.064Z</time></trkpt><trkpt lat="44.6824783" lon="8.0019267"><ele>175.0</ele><time>2026-04-12T09:47:50.063Z</time></trkpt><trkpt lat="44.6824417" lon="8.00184"><ele>175.0</ele><time>2026-04-12T09:47:51.064Z</time></trkpt><trkpt lat="44.6824" lon="8.00176"><ele>175.0</ele><time>2026-04-12T09:47:52.065Z</time></trkpt><trkpt lat="44.6823583" lon="8.00168"><ele>175.0</ele><time>2026-04-12T09:47:53.063Z</time></trkpt><trkpt lat="44.6823183" lon="8.0016017"><ele>175.0</ele><time>2026-04-12T09:47:54.062Z</time></trkpt><trkpt lat="44.6822783" lon="8.001525"><ele>175.0</ele><time>2026-04-12T09:47:55.063Z</time></trkpt><trkpt lat="44.6822367" lon="8.0014483"><ele>175.0</ele><time>2026-04-12T09:47:56.061Z</time></trkpt><trkpt lat="44.6821983" lon="8.0013717"><ele>175.0</ele><time>2026-04-12T09:47:57.064Z</time></trkpt><trkpt lat="44.6821583" lon="8.0012933"><ele>175.0</ele><time>2026-04-12T09:47:58.062Z</time></trkpt><trkpt lat="44.68212" lon="8.0012167"><ele>175.0</ele><time>2026-04-12T09:47:59.063Z</time></trkpt><trkpt lat="44.6820833" lon="8.0011333"><ele>175.0</ele><time>2026-04-12T09:48:00.063Z</time></trkpt><trkpt lat="44.682045" lon="8.0010483"><ele>175.0</ele><time>2026-04-12T09:48:01.064Z</time></trkpt><trkpt lat="44.6820067" lon="8.000965"><ele>175.0</ele><time>2026-04-12T09:48:02.063Z</time></trkpt><trkpt lat="44.6819633" lon="8.0008833"><ele>175.28571428571428</ele><time>2026-04-12T09:48:03.062Z</time></trkpt><trkpt lat="44.6819233" lon="8.0008017"><ele>175.57142857142856</ele><time>2026-04-12T09:48:04.064Z</time></trkpt><trkpt lat="44.6818817" lon="8.0007183"><ele>175.85714285714286</ele><time>2026-04-12T09:48:05.062Z</time></trkpt><trkpt lat="44.6818417" lon="8.0006333"><ele>176.14285714285714</ele><time>2026-04-12T09:48:06.062Z</time></trkpt><trkpt lat="44.6818" lon="8.0005517"><ele>176.42857142857142</ele><time>2026-04-12T09:48:07.063Z</time></trkpt><trkpt lat="44.6817583" lon="8.0004667"><ele>176.71428571428572</ele><time>2026-04-12T09:48:08.062Z</time></trkpt><trkpt lat="44.6817183" lon="8.0003817"><ele>177.0</ele><time>2026-04-12T09:48:09.063Z</time></trkpt><trkpt lat="44.681675" lon="8.0002983"><ele>177.0</ele><time>2026-04-12T09:48:10.064Z</time></trkpt><trkpt lat="44.6816367" lon="8.0002117"><ele>177.0</ele><time>2026-04-12T09:48:11.061Z</time></trkpt><trkpt lat="44.6815933" lon="8.0001267"><ele>177.0</ele><time>2026-04-12T09:48:12.062Z</time></trkpt><trkpt lat="44.6815533" lon="8.0000383"><ele>177.0</ele><time>2026-04-12T09:48:13.061Z</time></trkpt><trkpt lat="44.6815133" lon="7.99995"><ele>177.0</ele><time>2026-04-12T09:48:14.063Z</time></trkpt><trkpt lat="44.68147" lon="7.9998633"><ele>177.0</ele><time>2026-04-12T09:48:15.064Z</time></trkpt><trkpt lat="44.68143" lon="7.9997733"><ele>177.0</ele><time>2026-04-12T09:48:16.062Z</time></trkpt><trkpt lat="44.6813867" lon="7.9996833"><ele>177.0</ele><time>2026-04-12T09:48:17.062Z</time></trkpt><trkpt lat="44.6813417" lon="7.9995933"><ele>177.0</ele><time>2026-04-12T09:48:18.064Z</time></trkpt><trkpt lat="44.6812967" lon="7.9995033"><ele>177.0</ele><time>2026-04-12T09:48:19.063Z</time></trkpt><trkpt lat="44.681255" lon="7.999415"><ele>177.0</ele><time>2026-04-12T09:48:20.064Z</time></trkpt><trkpt lat="44.68121" lon="7.9993267"><ele>177.0</ele><time>2026-04-12T09:48:21.064Z</time></trkpt><trkpt lat="44.6811667" lon="7.9992417"><ele>177.0</ele><time>2026-04-12T09:48:22.062Z</time></trkpt><trkpt lat="44.6811233" lon="7.999155"><ele>176.85714285714286</ele><time>2026-04-12T09:48:23.061Z</time></trkpt><trkpt lat="44.68108" lon="7.9990683"><ele>176.7142857142857</ele><time>2026-04-12T09:48:24.063Z</time></trkpt><trkpt lat="44.6810367" lon="7.9989783"><ele>176.57142857142856</ele><time>2026-04-12T09:48:25.062Z</time></trkpt><trkpt lat="44.6809933" lon="7.9988917"><ele>176.42857142857144</ele><time>2026-04-12T09:48:26.063Z</time></trkpt><trkpt lat="44.68095" lon="7.9988083"><ele>176.28571428571428</ele><time>2026-04-12T09:48:27.063Z</time></trkpt><trkpt lat="44.68091" lon="7.9987267"><ele>176.14285714285714</ele><time>2026-04-12T09:48:28.062Z</time></trkpt><trkpt lat="44.6808667" lon="7.998645"><ele>176.0</ele><time>2026-04-12T09:48:29.062Z</time></trkpt><trkpt lat="44.6808267" lon="7.9985617"><ele>176.0</ele><time>2026-04-12T09:48:30.058Z</time></trkpt><trkpt lat="44.68079" lon="7.9984817"><ele>176.0</ele><time>2026-04-12T09:48:31.064Z</time></trkpt><trkpt lat="44.6807567" lon="7.9984033"><ele>176.0</ele><time>2026-04-12T09:48:32.064Z</time></trkpt><trkpt lat="44.6807183" lon="7.9983233"><ele>176.0</ele><time>2026-04-12T09:48:33.064Z</time></trkpt><trkpt lat="44.6806817" lon="7.998245"><ele>176.0</ele><time>2026-04-12T09:48:34.063Z</time></trkpt><trkpt lat="44.6806433" lon="7.9981617"><ele>176.0</ele><time>2026-04-12T09:48:35.062Z</time></trkpt><trkpt lat="44.6806033" lon="7.998075"><ele>176.0</ele><time>2026-04-12T09:48:36.063Z</time></trkpt><trkpt lat="44.6805633" lon="7.9979917"><ele>176.14285714285714</ele><time>2026-04-12T09:48:37.063Z</time></trkpt><trkpt lat="44.6805217" lon="7.9979067"><ele>176.28571428571428</ele><time>2026-04-12T09:48:38.062Z</time></trkpt><trkpt lat="44.6804817" lon="7.99782"><ele>176.42857142857144</ele><time>2026-04-12T09:48:39.065Z</time></trkpt><trkpt lat="44.6804383" lon="7.997735"><ele>176.57142857142856</ele><time>2026-04-12T09:48:40.063Z</time></trkpt><trkpt lat="44.6803933" lon="7.99765"><ele>176.7142857142857</ele><time>2026-04-12T09:48:41.063Z</time></trkpt><trkpt lat="44.6803483" lon="7.99756"><ele>176.85714285714286</ele><time>2026-04-12T09:48:42.063Z</time></trkpt><trkpt lat="44.6803083" lon="7.9974733"><ele>177.0</ele><time>2026-04-12T09:48:43.062Z</time></trkpt><trkpt lat="44.6802667" lon="7.9973867"><ele>177.2857142857143</ele><time>2026-04-12T09:48:44.063Z</time></trkpt><trkpt lat="44.6802233" lon="7.9973017"><ele>177.57142857142856</ele><time>2026-04-12T09:48:45.062Z</time></trkpt><trkpt lat="44.6801817" lon="7.9972167"><ele>177.85714285714286</ele><time>2026-04-12T09:48:46.063Z</time></trkpt><trkpt lat="44.6801367" lon="7.9971333"><ele>178.14285714285717</ele><time>2026-04-12T09:48:47.061Z</time></trkpt><trkpt lat="44.6800933" lon="7.997045"><ele>178.42857142857144</ele><time>2026-04-12T09:48:48.062Z</time></trkpt><trkpt lat="44.68005" lon="7.9969617"><ele>178.71428571428572</ele><time>2026-04-12T09:48:49.062Z</time></trkpt><trkpt lat="44.68001" lon="7.9968783"><ele>179.0</ele><time>2026-04-12T09:48:50.062Z</time></trkpt><trkpt lat="44.67997" lon="7.9967883"><ele>179.0</ele><time>2026-04-12T09:48:51.062Z</time></trkpt><trkpt lat="44.6799283" lon="7.9966983"><ele>179.0</ele><time>2026-04-12T09:48:52.063Z</time></trkpt><trkpt lat="44.6798867" lon="7.99661"><ele>179.0</ele><time>2026-04-12T09:48:53.063Z</time></trkpt><trkpt lat="44.6798417" lon="7.9965233"><ele>179.0</ele><time>2026-04-12T09:48:54.064Z</time></trkpt><trkpt lat="44.6798" lon="7.996435"><ele>179.0</ele><time>2026-04-12T09:48:55.063Z</time></trkpt><trkpt lat="44.679755" lon="7.9963483"><ele>179.0</ele><time>2026-04-12T09:48:56.062Z</time></trkpt><trkpt lat="44.67971" lon="7.996265"><ele>179.14285714285717</ele><time>2026-04-12T09:48:57.063Z</time></trkpt><trkpt lat="44.6796667" lon="7.9961833"><ele>179.28571428571428</ele><time>2026-04-12T09:48:58.063Z</time></trkpt><trkpt lat="44.679625" lon="7.9961"><ele>179.42857142857144</ele><time>2026-04-12T09:48:59.061Z</time></trkpt><trkpt lat="44.6795867" lon="7.9960217"><ele>179.57142857142858</ele><time>2026-04-12T09:49:00.065Z</time></trkpt><trkpt lat="44.6795467" lon="7.99594"><ele>179.71428571428572</ele><time>2026-04-12T09:49:01.063Z</time></trkpt><trkpt lat="44.6795067" lon="7.9958567"><ele>179.85714285714286</ele><time>2026-04-12T09:49:02.062Z</time></trkpt><trkpt lat="44.67947" lon="7.9957717"><ele>180.0</ele><time>2026-04-12T09:49:03.062Z</time></trkpt><trkpt lat="44.679425" lon="7.9956867"><ele>180.14285714285714</ele><time>2026-04-12T09:49:04.062Z</time></trkpt><trkpt lat="44.679385" lon="7.9956017"><ele>180.2857142857143</ele><time>2026-04-12T09:49:05.062Z</time></trkpt><trkpt lat="44.6793433" lon="7.9955167"><ele>180.42857142857144</ele><time>2026-04-12T09:49:06.062Z</time></trkpt><trkpt lat="44.6793" lon="7.99543"><ele>180.57142857142856</ele><time>2026-04-12T09:49:07.062Z</time></trkpt><trkpt lat="44.6792567" lon="7.995345"><ele>180.71428571428572</ele><time>2026-04-12T09:49:08.063Z</time></trkpt><trkpt lat="44.679215" lon="7.99526"><ele>180.85714285714286</ele><time>2026-04-12T09:49:09.063Z</time></trkpt><trkpt lat="44.6791717" lon="7.9951733"><ele>181.0</ele><time>2026-04-12T09:49:10.061Z</time></trkpt><trkpt lat="44.67913" lon="7.9950883"><ele>181.0</ele><time>2026-04-12T09:49:11.06Z</time></trkpt><trkpt lat="44.6790917" lon="7.9950017"><ele>181.0</ele><time>2026-04-12T09:49:12.063Z</time></trkpt><trkpt lat="44.67905" lon="7.994915"><ele>181.0</ele><time>2026-04-12T09:49:13.063Z</time></trkpt><trkpt lat="44.6790117" lon="7.9948283"><ele>181.0</ele><time>2026-04-12T09:49:14.063Z</time></trkpt><trkpt lat="44.67897" lon="7.99474"><ele>181.0</ele><time>2026-04-12T09:49:15.063Z</time></trkpt><trkpt lat="44.6789267" lon="7.994655"><ele>181.0</ele><time>2026-04-12T09:49:16.064Z</time></trkpt><trkpt lat="44.6788833" lon="7.9945683"><ele>181.0</ele><time>2026-04-12T09:49:17.061Z</time></trkpt><trkpt lat="44.6788417" lon="7.9944817"><ele>181.0</ele><time>2026-04-12T09:49:18.062Z</time></trkpt><trkpt lat="44.6787983" lon="7.994395"><ele>181.0</ele><time>2026-04-12T09:49:19.064Z</time></trkpt><trkpt lat="44.678755" lon="7.9943133"><ele>181.0</ele><time>2026-04-12T09:49:20.063Z</time></trkpt><trkpt lat="44.678715" lon="7.99423"><ele>181.0</ele><time>2026-04-12T09:49:21.063Z</time></trkpt><trkpt lat="44.6786733" lon="7.9941483"><ele>181.0</ele><time>2026-04-12T09:49:22.064Z</time></trkpt><trkpt lat="44.6786317" lon="7.9940617"><ele>181.0</ele><time>2026-04-12T09:49:23.063Z</time></trkpt><trkpt lat="44.6785933" lon="7.9939767"><ele>181.0</ele><time>2026-04-12T09:49:24.061Z</time></trkpt><trkpt lat="44.6785533" lon="7.9938917"><ele>180.85714285714286</ele><time>2026-04-12T09:49:25.061Z</time></trkpt><trkpt lat="44.678515" lon="7.9938083"><ele>180.71428571428572</ele><time>2026-04-12T09:49:26.062Z</time></trkpt><trkpt lat="44.6784767" lon="7.9937283"><ele>180.57142857142856</ele><time>2026-04-12T09:49:27.063Z</time></trkpt><trkpt lat="44.6784367" lon="7.9936467"><ele>180.42857142857144</ele><time>2026-04-12T09:49:28.064Z</time></trkpt><trkpt lat="44.6783983" lon="7.9935633"><ele>180.2857142857143</ele><time>2026-04-12T09:49:29.061Z</time></trkpt><trkpt lat="44.6783633" lon="7.9934817"><ele>180.14285714285714</ele><time>2026-04-12T09:49:30.063Z</time></trkpt><trkpt lat="44.6783283" lon="7.9934017"><ele>180.0</ele><time>2026-04-12T09:49:31.063Z</time></trkpt><trkpt lat="44.6782883" lon="7.9933167"><ele>179.7142857142857</ele><time>2026-04-12T09:49:32.062Z</time></trkpt><trkpt lat="44.6782467" lon="7.9932333"><ele>179.42857142857144</ele><time>2026-04-12T09:49:33.065Z</time></trkpt><trkpt lat="44.678205" lon="7.9931517"><ele>179.14285714285714</ele><time>2026-04-12T09:49:34.064Z</time></trkpt><trkpt lat="44.6781667" lon="7.9930667"><ele>178.85714285714283</ele><time>2026-04-12T09:49:35.062Z</time></trkpt><trkpt lat="44.678125" lon="7.9929833"><ele>178.57142857142856</ele><time>2026-04-12T09:49:36.063Z</time></trkpt><trkpt lat="44.67808" lon="7.992905"><ele>178.28571428571428</ele><time>2026-04-12T09:49:37.063Z</time></trkpt><trkpt lat="44.6780367" lon="7.9928217"><ele>178.0</ele><time>2026-04-12T09:49:38.063Z</time></trkpt><trkpt lat="44.6779933" lon="7.992735"><ele>177.99999999999997</ele><time>2026-04-12T09:49:39.063Z</time></trkpt><trkpt lat="44.6779467" lon="7.9926517"><ele>178.0</ele><time>2026-04-12T09:49:40.064Z</time></trkpt><trkpt lat="44.6779" lon="7.9925683"><ele>178.0</ele><time>2026-04-12T09:49:41.062Z</time></trkpt><trkpt lat="44.6778517" lon="7.9924883"><ele>178.0</ele><time>2026-04-12T09:49:42.06Z</time></trkpt><trkpt lat="44.6778033" lon="7.9924117"><ele>178.0</ele><time>2026-04-12T09:49:43.063Z</time></trkpt><trkpt lat="44.6777617" lon="7.9923333"><ele>177.99999999999997</ele><time>2026-04-12T09:49:44.062Z</time></trkpt><trkpt lat="44.6777133" lon="7.992255"><ele>178.0</ele><time>2026-04-12T09:49:45.062Z</time></trkpt><trkpt lat="44.6776667" lon="7.9921783"><ele>177.99999999999997</ele><time>2026-04-12T09:49:46.058Z</time></trkpt><trkpt lat="44.6776233" lon="7.9921"><ele>178.0</ele><time>2026-04-12T09:49:47.063Z</time></trkpt><trkpt lat="44.6775817" lon="7.99202"><ele>178.0</ele><time>2026-04-12T09:49:48.062Z</time></trkpt><trkpt lat="44.6775417" lon="7.9919417"><ele>178.0</ele><time>2026-04-12T09:49:49.063Z</time></trkpt><trkpt lat="44.6774983" lon="7.991865"><ele>178.0</ele><time>2026-04-12T09:49:50.061Z</time></trkpt><trkpt lat="44.6774567" lon="7.991785"><ele>177.99999999999997</ele><time>2026-04-12T09:49:51.063Z</time></trkpt><trkpt lat="44.67741" lon="7.991705"><ele>178.0</ele><time>2026-04-12T09:49:52.063Z</time></trkpt><trkpt lat="44.6773617" lon="7.9916283"><ele>177.99999999999997</ele><time>2026-04-12T09:49:53.061Z</time></trkpt><trkpt lat="44.6773167" lon="7.991545"><ele>178.0</ele><time>2026-04-12T09:49:54.062Z</time></trkpt><trkpt lat="44.6772733" lon="7.9914633"><ele>178.0</ele><time>2026-04-12T09:49:55.061Z</time></trkpt><trkpt lat="44.67723" lon="7.99138"><ele>178.0</ele><time>2026-04-12T09:49:56.063Z</time></trkpt><trkpt lat="44.6771883" lon="7.9912967"><ele>178.0</ele><time>2026-04-12T09:49:57.064Z</time></trkpt><trkpt lat="44.6771467" lon="7.991215"><ele>177.99999999999997</ele><time>2026-04-12T09:49:58.065Z</time></trkpt><trkpt lat="44.6771083" lon="7.9911333"><ele>178.0</ele><time>2026-04-12T09:49:59.062Z</time></trkpt><trkpt lat="44.6770683" lon="7.9910567"><ele>178.0</ele><time>2026-04-12T09:50:00.065Z</time></trkpt><trkpt lat="44.67703" lon="7.9909833"><ele>178.0</ele><time>2026-04-12T09:50:01.062Z</time></trkpt><trkpt lat="44.67699" lon="7.9909117"><ele>178.0</ele><time>2026-04-12T09:50:02.064Z</time></trkpt><trkpt lat="44.6769483" lon="7.99084"><ele>178.0</ele><time>2026-04-12T09:50:03.062Z</time></trkpt><trkpt lat="44.6768833" lon="7.9907117"><ele>178.0</ele><time>2026-04-12T09:50:05.063Z</time></trkpt><trkpt lat="44.6768483" lon="7.9906283"><ele>178.0</ele><time>2026-04-12T09:50:07.064Z</time></trkpt><trkpt lat="44.6768033" lon="7.9905117"><ele>178.60000000000002</ele><time>2026-04-12T09:50:10.062Z</time></trkpt><trkpt lat="44.6767683" lon="7.990395"><ele>179.20000000000002</ele><time>2026-04-12T09:50:12.062Z</time></trkpt><trkpt lat="44.6767083" lon="7.9902933"><ele>179.8</ele><time>2026-04-12T09:50:14.065Z</time></trkpt><trkpt lat="44.6766217" lon="7.9902317"><ele>180.4</ele><time>2026-04-12T09:50:16.064Z</time></trkpt><trkpt lat="44.676515" lon="7.9901983"><ele>181.0</ele><time>2026-04-12T09:50:18.063Z</time></trkpt><trkpt lat="44.6763967" lon="7.990135"><ele>181.0</ele><time>2026-04-12T09:50:20.063Z</time></trkpt><trkpt lat="44.6763383" lon="7.9901"><ele>181.0</ele><time>2026-04-12T09:50:21.061Z</time></trkpt><trkpt lat="44.67628" lon="7.9900583"><ele>181.0</ele><time>2026-04-12T09:50:22.062Z</time></trkpt><trkpt lat="44.6762167" lon="7.99001"><ele>181.0</ele><time>2026-04-12T09:50:23.063Z</time></trkpt><trkpt lat="44.6761517" lon="7.9899633"><ele>181.0</ele><time>2026-04-12T09:50:24.061Z</time></trkpt><trkpt lat="44.6760867" lon="7.98992"><ele>181.0</ele><time>2026-04-12T09:50:25.063Z</time></trkpt><trkpt lat="44.6760217" lon="7.98988"><ele>181.0</ele><time>2026-04-12T09:50:26.057Z</time></trkpt><trkpt lat="44.6759567" lon="7.98984"><ele>181.14285714285714</ele><time>2026-04-12T09:50:27.062Z</time></trkpt><trkpt lat="44.6758917" lon="7.9898017"><ele>181.28571428571428</ele><time>2026-04-12T09:50:28.063Z</time></trkpt><trkpt lat="44.6758283" lon="7.9897617"><ele>181.42857142857144</ele><time>2026-04-12T09:50:29.06Z</time></trkpt><trkpt lat="44.6757633" lon="7.9897217"><ele>181.57142857142856</ele><time>2026-04-12T09:50:30.062Z</time></trkpt><trkpt lat="44.6756983" lon="7.9896833"><ele>181.71428571428572</ele><time>2026-04-12T09:50:31.061Z</time></trkpt><trkpt lat="44.6756317" lon="7.9896433"><ele>181.85714285714286</ele><time>2026-04-12T09:50:32.061Z</time></trkpt><trkpt lat="44.6755667" lon="7.9896017"><ele>182.0</ele><time>2026-04-12T09:50:33.063Z</time></trkpt><trkpt lat="44.6754983" lon="7.98956"><ele>182.0</ele><time>2026-04-12T09:50:34.061Z</time></trkpt><trkpt lat="44.6754317" lon="7.9895183"><ele>182.0</ele><time>2026-04-12T09:50:35.063Z</time></trkpt><trkpt lat="44.6753633" lon="7.9894783"><ele>182.0</ele><time>2026-04-12T09:50:36.061Z</time></trkpt><trkpt lat="44.6752967" lon="7.989435"><ele>182.0</ele><time>2026-04-12T09:50:37.065Z</time></trkpt><trkpt lat="44.67523" lon="7.989395"><ele>182.0</ele><time>2026-04-12T09:50:38.061Z</time></trkpt><trkpt lat="44.6751633" lon="7.9893517"><ele>182.0</ele><time>2026-04-12T09:50:39.062Z</time></trkpt><trkpt lat="44.6750967" lon="7.9893117"><ele>182.0</ele><time>2026-04-12T09:50:40.061Z</time></trkpt><trkpt lat="44.6750317" lon="7.989275"><ele>182.14285714285714</ele><time>2026-04-12T09:50:41.061Z</time></trkpt><trkpt lat="44.674965" lon="7.98924"><ele>182.28571428571428</ele><time>2026-04-12T09:50:42.062Z</time></trkpt><trkpt lat="44.6748983" lon="7.989205"><ele>182.42857142857144</ele><time>2026-04-12T09:50:43.062Z</time></trkpt><trkpt lat="44.6748333" lon="7.9891733"><ele>182.57142857142856</ele><time>2026-04-12T09:50:44.062Z</time></trkpt><trkpt lat="44.674765" lon="7.9891417"><ele>182.71428571428572</ele><time>2026-04-12T09:50:45.063Z</time></trkpt><trkpt lat="44.6746967" lon="7.9891117"><ele>182.85714285714286</ele><time>2026-04-12T09:50:46.062Z</time></trkpt><trkpt lat="44.674625" lon="7.989085"><ele>183.0</ele><time>2026-04-12T09:50:47.061Z</time></trkpt><trkpt lat="44.67455" lon="7.989065"><ele>183.0</ele><time>2026-04-12T09:50:48.061Z</time></trkpt><trkpt lat="44.6744817" lon="7.98905"><ele>183.0</ele><time>2026-04-12T09:50:49.061Z</time></trkpt><trkpt lat="44.6744083" lon="7.9890333"><ele>183.0</ele><time>2026-04-12T09:50:50.063Z</time></trkpt><trkpt lat="44.674335" lon="7.9890233"><ele>183.0</ele><time>2026-04-12T09:50:51.063Z</time></trkpt><trkpt lat="44.6742633" lon="7.9890117"><ele>183.0</ele><time>2026-04-12T09:50:52.062Z</time></trkpt><trkpt lat="44.6741917" lon="7.9890033"><ele>183.0</ele><time>2026-04-12T09:50:53.063Z</time></trkpt><trkpt lat="44.6741183" lon="7.9889983"><ele>183.0</ele><time>2026-04-12T09:50:54.062Z</time></trkpt><trkpt lat="44.6740433" lon="7.9889883"><ele>183.14285714285714</ele><time>2026-04-12T09:50:55.063Z</time></trkpt><trkpt lat="44.67397" lon="7.9889817"><ele>183.28571428571428</ele><time>2026-04-12T09:50:56.062Z</time></trkpt><trkpt lat="44.6738967" lon="7.9889767"><ele>183.42857142857144</ele><time>2026-04-12T09:50:57.064Z</time></trkpt><trkpt lat="44.673825" lon="7.9889733"><ele>183.57142857142856</ele><time>2026-04-12T09:50:58.063Z</time></trkpt><trkpt lat="44.6737517" lon="7.9889733"><ele>183.7142857142857</ele><time>2026-04-12T09:50:59.063Z</time></trkpt><trkpt lat="44.6736767" lon="7.9889717"><ele>183.85714285714286</ele><time>2026-04-12T09:51:00.062Z</time></trkpt><trkpt lat="44.673605" lon="7.98897"><ele>184.0</ele><time>2026-04-12T09:51:01.062Z</time></trkpt><trkpt lat="44.6735333" lon="7.9889633"><ele>183.71428571428572</ele><time>2026-04-12T09:51:02.061Z</time></trkpt><trkpt lat="44.67346" lon="7.9889583"><ele>183.42857142857142</ele><time>2026-04-12T09:51:03.064Z</time></trkpt><trkpt lat="44.6733867" lon="7.9889567"><ele>183.14285714285714</ele><time>2026-04-12T09:51:04.063Z</time></trkpt><trkpt lat="44.6733133" lon="7.9889567"><ele>182.85714285714286</ele><time>2026-04-12T09:51:05.062Z</time></trkpt><trkpt lat="44.6732433" lon="7.9889533"><ele>182.57142857142856</ele><time>2026-04-12T09:51:06.061Z</time></trkpt><trkpt lat="44.6731733" lon="7.9889467"><ele>182.28571428571428</ele><time>2026-04-12T09:51:07.062Z</time></trkpt><trkpt lat="44.6731033" lon="7.9889367"><ele>182.0</ele><time>2026-04-12T09:51:08.062Z</time></trkpt><trkpt lat="44.673035" lon="7.9889233"><ele>182.0</ele><time>2026-04-12T09:51:09.064Z</time></trkpt><trkpt lat="44.6729667" lon="7.9889"><ele>182.0</ele><time>2026-04-12T09:51:10.063Z</time></trkpt><trkpt lat="44.6728967" lon="7.988875"><ele>182.0</ele><time>2026-04-12T09:51:11.062Z</time></trkpt><trkpt lat="44.6728267" lon="7.9888417"><ele>182.0</ele><time>2026-04-12T09:51:12.062Z</time></trkpt><trkpt lat="44.6727583" lon="7.98881"><ele>182.0</ele><time>2026-04-12T09:51:13.064Z</time></trkpt><trkpt lat="44.672695" lon="7.9887767"><ele>182.0</ele><time>2026-04-12T09:51:14.065Z</time></trkpt><trkpt lat="44.67263" lon="7.9887417"><ele>182.0</ele><time>2026-04-12T09:51:15.064Z</time></trkpt><trkpt lat="44.6725683" lon="7.9887017"><ele>182.0</ele><time>2026-04-12T09:51:16.062Z</time></trkpt><trkpt lat="44.6725083" lon="7.9886633"><ele>182.0</ele><time>2026-04-12T09:51:17.064Z</time></trkpt><trkpt lat="44.6724483" lon="7.9886217"><ele>182.0</ele><time>2026-04-12T09:51:18.062Z</time></trkpt><trkpt lat="44.6723883" lon="7.9885817"><ele>182.0</ele><time>2026-04-12T09:51:19.061Z</time></trkpt><trkpt lat="44.6723267" lon="7.9885433"><ele>182.0</ele><time>2026-04-12T09:51:20.062Z</time></trkpt><trkpt lat="44.6722617" lon="7.98851"><ele>182.0</ele><time>2026-04-12T09:51:21.064Z</time></trkpt><trkpt lat="44.6721917" lon="7.9884783"><ele>182.0</ele><time>2026-04-12T09:51:22.064Z</time></trkpt><trkpt lat="44.6721217" lon="7.9884467"><ele>182.0</ele><time>2026-04-12T09:51:23.063Z</time></trkpt><trkpt lat="44.6720517" lon="7.9884117"><ele>182.0</ele><time>2026-04-12T09:51:24.064Z</time></trkpt><trkpt lat="44.6719817" lon="7.9883733"><ele>182.0</ele><time>2026-04-12T09:51:25.061Z</time></trkpt><trkpt lat="44.67191" lon="7.9883367"><ele>182.0</ele><time>2026-04-12T09:51:26.064Z</time></trkpt><trkpt lat="44.6718383" lon="7.9882933"><ele>182.0</ele><time>2026-04-12T09:51:27.064Z</time></trkpt><trkpt lat="44.6717667" lon="7.9882583"><ele>182.0</ele><time>2026-04-12T09:51:28.064Z</time></trkpt><trkpt lat="44.6717017" lon="7.9882083"><ele>182.42857142857142</ele><time>2026-04-12T09:51:29.062Z</time></trkpt><trkpt lat="44.6716383" lon="7.988155"><ele>182.85714285714286</ele><time>2026-04-12T09:51:30.063Z</time></trkpt><trkpt lat="44.671575" lon="7.9881033"><ele>183.28571428571428</ele><time>2026-04-12T09:51:31.063Z</time></trkpt><trkpt lat="44.6715133" lon="7.98805"><ele>183.71428571428572</ele><time>2026-04-12T09:51:32.063Z</time></trkpt><trkpt lat="44.671455" lon="7.9879933"><ele>184.14285714285714</ele><time>2026-04-12T09:51:33.065Z</time></trkpt><trkpt lat="44.671395" lon="7.9879283"><ele>184.57142857142856</ele><time>2026-04-12T09:51:34.062Z</time></trkpt><trkpt lat="44.6713367" lon="7.9878683"><ele>185.0</ele><time>2026-04-12T09:51:35.062Z</time></trkpt><trkpt lat="44.6712783" lon="7.9878083"><ele>185.0</ele><time>2026-04-12T09:51:36.062Z</time></trkpt><trkpt lat="44.6712183" lon="7.9877483"><ele>185.0</ele><time>2026-04-12T09:51:37.062Z</time></trkpt><trkpt lat="44.6711633" lon="7.9876967"><ele>185.0</ele><time>2026-04-12T09:51:38.063Z</time></trkpt><trkpt lat="44.6711067" lon="7.987655"><ele>185.0</ele><time>2026-04-12T09:51:39.063Z</time></trkpt><trkpt lat="44.67099" lon="7.987595"><ele>185.0</ele><time>2026-04-12T09:51:41.063Z</time></trkpt><trkpt lat="44.6709267" lon="7.9875667"><ele>185.0</ele><time>2026-04-12T09:51:42.061Z</time></trkpt><trkpt lat="44.6708633" lon="7.9875367"><ele>184.7142857142857</ele><time>2026-04-12T09:51:43.064Z</time></trkpt><trkpt lat="44.670795" lon="7.9875083"><ele>184.42857142857142</ele><time>2026-04-12T09:51:44.062Z</time></trkpt><trkpt lat="44.6707283" lon="7.98748"><ele>184.14285714285714</ele><time>2026-04-12T09:51:45.066Z</time></trkpt><trkpt lat="44.67066" lon="7.9874517"><ele>183.85714285714283</ele><time>2026-04-12T09:51:46.063Z</time></trkpt><trkpt lat="44.67059" lon="7.9874267"><ele>183.57142857142858</ele><time>2026-04-12T09:51:47.062Z</time></trkpt><trkpt lat="44.6705217" lon="7.9874067"><ele>183.28571428571428</ele><time>2026-04-12T09:51:48.064Z</time></trkpt><trkpt lat="44.6704567" lon="7.9873817"><ele>183.0</ele><time>2026-04-12T09:51:49.06Z</time></trkpt><trkpt lat="44.67039" lon="7.9873517"><ele>183.0</ele><time>2026-04-12T09:51:50.063Z</time></trkpt><trkpt lat="44.6703233" lon="7.9873183"><ele>183.0</ele><time>2026-04-12T09:51:51.065Z</time></trkpt><trkpt lat="44.670255" lon="7.9872867"><ele>183.0</ele><time>2026-04-12T09:51:52.064Z</time></trkpt><trkpt lat="44.6701867" lon="7.9872583"><ele>183.0</ele><time>2026-04-12T09:51:53.063Z</time></trkpt><trkpt lat="44.6701183" lon="7.9872267"><ele>183.0</ele><time>2026-04-12T09:51:54.063Z</time></trkpt><trkpt lat="44.6700533" lon="7.9871933"><ele>183.0</ele><time>2026-04-12T09:51:55.064Z</time></trkpt><trkpt lat="44.6699883" lon="7.9871667"><ele>183.0</ele><time>2026-04-12T09:51:56.064Z</time></trkpt><trkpt lat="44.66992" lon="7.9871467"><ele>183.28571428571428</ele><time>2026-04-12T09:51:57.065Z</time></trkpt><trkpt lat="44.6698517" lon="7.9871333"><ele>183.57142857142858</ele><time>2026-04-12T09:51:58.064Z</time></trkpt><trkpt lat="44.6697817" lon="7.98712"><ele>183.85714285714283</ele><time>2026-04-12T09:51:59.062Z</time></trkpt><trkpt lat="44.6697133" lon="7.987105"><ele>184.14285714285714</ele><time>2026-04-12T09:52:00.061Z</time></trkpt><trkpt lat="44.6696433" lon="7.987095"><ele>184.42857142857142</ele><time>2026-04-12T09:52:01.062Z</time></trkpt><trkpt lat="44.669575" lon="7.9870817"><ele>184.7142857142857</ele><time>2026-04-12T09:52:02.062Z</time></trkpt><trkpt lat="44.6695033" lon="7.9870667"><ele>185.0</ele><time>2026-04-12T09:52:03.066Z</time></trkpt><trkpt lat="44.6694317" lon="7.9870533"><ele>185.14285714285714</ele><time>2026-04-12T09:52:04.06Z</time></trkpt><trkpt lat="44.6693583" lon="7.98704"><ele>185.28571428571428</ele><time>2026-04-12T09:52:05.06Z</time></trkpt><trkpt lat="44.669285" lon="7.9870283"><ele>185.42857142857144</ele><time>2026-04-12T09:52:06.064Z</time></trkpt><trkpt lat="44.669215" lon="7.9870167"><ele>185.57142857142856</ele><time>2026-04-12T09:52:07.062Z</time></trkpt><trkpt lat="44.6691433" lon="7.9870067"><ele>185.71428571428572</ele><time>2026-04-12T09:52:08.063Z</time></trkpt><trkpt lat="44.66907" lon="7.9869983"><ele>185.85714285714286</ele><time>2026-04-12T09:52:09.065Z</time></trkpt><trkpt lat="44.6689983" lon="7.9869867"><ele>186.0</ele><time>2026-04-12T09:52:10.063Z</time></trkpt><trkpt lat="44.6689267" lon="7.9869717"><ele>186.0</ele><time>2026-04-12T09:52:11.063Z</time></trkpt><trkpt lat="44.6688567" lon="7.9869567"><ele>186.0</ele><time>2026-04-12T09:52:12.062Z</time></trkpt><trkpt lat="44.6687883" lon="7.9869417"><ele>186.0</ele><time>2026-04-12T09:52:13.063Z</time></trkpt><trkpt lat="44.6687267" lon="7.98692"><ele>186.0</ele><time>2026-04-12T09:52:14.061Z</time></trkpt><trkpt lat="44.6686117" lon="7.9868733"><ele>186.0</ele><time>2026-04-12T09:52:16.062Z</time></trkpt><trkpt lat="44.66852" lon="7.9868183"><ele>186.0</ele><time>2026-04-12T09:52:18.061Z</time></trkpt><trkpt lat="44.6684483" lon="7.98678"><ele>186.60000000000002</ele><time>2026-04-12T09:52:20.06Z</time></trkpt><trkpt lat="44.6683617" lon="7.9867517"><ele>187.2</ele><time>2026-04-12T09:52:22.061Z</time></trkpt><trkpt lat="44.6682667" lon="7.986715"><ele>187.8</ele><time>2026-04-12T09:52:24.062Z</time></trkpt><trkpt lat="44.6681617" lon="7.9867333"><ele>188.39999999999998</ele><time>2026-04-12T09:52:26.064Z</time></trkpt><trkpt lat="44.6680617" lon="7.9868267"><ele>189.0</ele><time>2026-04-12T09:52:28.063Z</time></trkpt><trkpt lat="44.6680233" lon="7.9868983"><ele>189.0</ele><time>2026-04-12T09:52:29.063Z</time></trkpt><trkpt lat="44.6679583" lon="7.9870367"><ele>189.0</ele><time>2026-04-12T09:52:31.063Z</time></trkpt><trkpt lat="44.667895" lon="7.9871783"><ele>189.0</ele><time>2026-04-12T09:52:33.064Z</time></trkpt><trkpt lat="44.6678317" lon="7.98731"><ele>189.0</ele><time>2026-04-12T09:52:35.061Z</time></trkpt><trkpt lat="44.667765" lon="7.9874433"><ele>188.6</ele><time>2026-04-12T09:52:37.064Z</time></trkpt><trkpt lat="44.6676967" lon="7.9875867"><ele>188.2</ele><time>2026-04-12T09:52:39.061Z</time></trkpt><trkpt lat="44.6676617" lon="7.9876617"><ele>187.79999999999998</ele><time>2026-04-12T09:52:40.063Z</time></trkpt><trkpt lat="44.667585" lon="7.9877967"><ele>187.39999999999998</ele><time>2026-04-12T09:52:42.062Z</time></trkpt><trkpt lat="44.667515" lon="7.9879383"><ele>187.0</ele><time>2026-04-12T09:52:44.061Z</time></trkpt><trkpt lat="44.667475" lon="7.9880067"><ele>187.0</ele><time>2026-04-12T09:52:45.062Z</time></trkpt><trkpt lat="44.667435" lon="7.9880817"><ele>187.0</ele><time>2026-04-12T09:52:46.063Z</time></trkpt><trkpt lat="44.667395" lon="7.988155"><ele>187.0</ele><time>2026-04-12T09:52:47.062Z</time></trkpt><trkpt lat="44.66732" lon="7.9882967"><ele>187.0</ele><time>2026-04-12T09:52:49.062Z</time></trkpt><trkpt lat="44.6672483" lon="7.98844"><ele>187.0</ele><time>2026-04-12T09:52:51.066Z</time></trkpt><trkpt lat="44.66718" lon="7.9885617"><ele>187.39999999999998</ele><time>2026-04-12T09:52:53.06Z</time></trkpt><trkpt lat="44.667115" lon="7.9886617"><ele>187.79999999999998</ele><time>2026-04-12T09:52:55.064Z</time></trkpt><trkpt lat="44.6670633" lon="7.9887617"><ele>188.2</ele><time>2026-04-12T09:52:57.066Z</time></trkpt><trkpt lat="44.6670083" lon="7.9888733"><ele>188.6</ele><time>2026-04-12T09:52:59.063Z</time></trkpt><trkpt lat="44.66694" lon="7.9889917"><ele>189.0</ele><time>2026-04-12T09:53:01.062Z</time></trkpt><trkpt lat="44.66686" lon="7.98911"><ele>188.75</ele><time>2026-04-12T09:53:03.065Z</time></trkpt><trkpt lat="44.666785" lon="7.989235"><ele>188.5</ele><time>2026-04-12T09:53:05.063Z</time></trkpt><trkpt lat="44.6667117" lon="7.9893517"><ele>188.25</ele><time>2026-04-12T09:53:07.061Z</time></trkpt><trkpt lat="44.6666317" lon="7.9894567"><ele>188.0</ele><time>2026-04-12T09:53:09.064Z</time></trkpt><trkpt lat="44.6665533" lon="7.9895717"><ele>188.0</ele><time>2026-04-12T09:53:11.063Z</time></trkpt><trkpt lat="44.6664717" lon="7.9896767"><ele>188.0</ele><time>2026-04-12T09:53:13.063Z</time></trkpt><trkpt lat="44.666385" lon="7.9897717"><ele>188.0</ele><time>2026-04-12T09:53:15.065Z</time></trkpt><trkpt lat="44.666295" lon="7.9898583"><ele>188.0</ele><time>2026-04-12T09:53:17.062Z</time></trkpt><trkpt lat="44.6662083" lon="7.9899633"><ele>188.0</ele><time>2026-04-12T09:53:19.064Z</time></trkpt><trkpt lat="44.6661233" lon="7.9900733"><ele>188.0</ele><time>2026-04-12T09:53:21.064Z</time></trkpt><trkpt lat="44.66604" lon="7.9901767"><ele>188.0</ele><time>2026-04-12T09:53:23.062Z</time></trkpt><trkpt lat="44.6659633" lon="7.9902717"><ele>188.0</ele><time>2026-04-12T09:53:25.063Z</time></trkpt><trkpt lat="44.6658817" lon="7.9903267"><ele>188.0</ele><time>2026-04-12T09:53:27.063Z</time></trkpt><trkpt lat="44.665795" lon="7.9902967"><ele>188.0</ele><time>2026-04-12T09:53:29.064Z</time></trkpt><trkpt lat="44.66572" lon="7.99022"><ele>188.0</ele><time>2026-04-12T09:53:31.062Z</time></trkpt><trkpt lat="44.6656367" lon="7.9901283"><ele>188.0</ele><time>2026-04-12T09:53:33.064Z</time></trkpt><trkpt lat="44.66555" lon="7.9901117"><ele>188.0</ele><time>2026-04-12T09:53:35.062Z</time></trkpt><trkpt lat="44.665475" lon="7.9901433"><ele>188.0</ele><time>2026-04-12T09:53:37.061Z</time></trkpt><trkpt lat="44.6654133" lon="7.9901633"><ele>188.0</ele><time>2026-04-12T09:53:39.066Z</time></trkpt><trkpt lat="44.66535" lon="7.99005"><ele>188.0</ele><time>2026-04-12T09:53:42.064Z</time></trkpt><trkpt lat="44.6653083" lon="7.9899233"><ele>189.2</ele><time>2026-04-12T09:53:44.064Z</time></trkpt><trkpt lat="44.66526" lon="7.9897883"><ele>190.4</ele><time>2026-04-12T09:53:46.063Z</time></trkpt><trkpt lat="44.6651983" lon="7.9896667"><ele>191.6</ele><time>2026-04-12T09:53:48.064Z</time></trkpt><trkpt lat="44.6651183" lon="7.9895517"><ele>192.79999999999998</ele><time>2026-04-12T09:53:50.062Z</time></trkpt><trkpt lat="44.6650283" lon="7.98945"><ele>194.0</ele><time>2026-04-12T09:53:52.062Z</time></trkpt><trkpt lat="44.6649267" lon="7.9893733"><ele>194.0</ele><time>2026-04-12T09:53:54.063Z</time></trkpt><trkpt lat="44.6648267" lon="7.9892983"><ele>194.0</ele><time>2026-04-12T09:53:56.062Z</time></trkpt><trkpt lat="44.664725" lon="7.989225"><ele>194.0</ele><time>2026-04-12T09:53:58.064Z</time></trkpt><trkpt lat="44.664625" lon="7.989145"><ele>194.0</ele><time>2026-04-12T09:54:00.064Z</time></trkpt><trkpt lat="44.6645233" lon="7.9890667"><ele>193.79999999999998</ele><time>2026-04-12T09:54:02.062Z</time></trkpt><trkpt lat="44.664425" lon="7.9890017"><ele>193.6</ele><time>2026-04-12T09:54:04.062Z</time></trkpt><trkpt lat="44.6643267" lon="7.9889433"><ele>193.4</ele><time>2026-04-12T09:54:06.063Z</time></trkpt><trkpt lat="44.6642267" lon="7.9888983"><ele>193.2</ele><time>2026-04-12T09:54:08.061Z</time></trkpt><trkpt lat="44.6641283" lon="7.9888533"><ele>193.0</ele><time>2026-04-12T09:54:10.062Z</time></trkpt><trkpt lat="44.6640333" lon="7.988795"><ele>193.0</ele><time>2026-04-12T09:54:12.066Z</time></trkpt><trkpt lat="44.6639433" lon="7.98871"><ele>193.0</ele><time>2026-04-12T09:54:14.061Z</time></trkpt><trkpt lat="44.66386" lon="7.98861"><ele>193.0</ele><time>2026-04-12T09:54:16.064Z</time></trkpt><trkpt lat="44.6637883" lon="7.9885083"><ele>193.0</ele><time>2026-04-12T09:54:18.063Z</time></trkpt><trkpt lat="44.66372" lon="7.9884083"><ele>193.0</ele><time>2026-04-12T09:54:20.061Z</time></trkpt><trkpt lat="44.6636483" lon="7.9883067"><ele>192.8</ele><time>2026-04-12T09:54:22.063Z</time></trkpt><trkpt lat="44.6635683" lon="7.9882083"><ele>192.60000000000002</ele><time>2026-04-12T09:54:24.061Z</time></trkpt><trkpt lat="44.663485" lon="7.98812"><ele>192.39999999999998</ele><time>2026-04-12T09:54:26.062Z</time></trkpt><trkpt lat="44.663405" lon="7.9880217"><ele>192.2</ele><time>2026-04-12T09:54:28.061Z</time></trkpt><trkpt lat="44.6633417" lon="7.9879233"><ele>192.0</ele><time>2026-04-12T09:54:30.062Z</time></trkpt><trkpt lat="44.6633" lon="7.98781"><ele>192.0</ele><time>2026-04-12T09:54:32.062Z</time></trkpt><trkpt lat="44.6632617" lon="7.9877317"><ele>192.0</ele><time>2026-04-12T09:54:34.063Z</time></trkpt><trkpt lat="44.6631967" lon="7.9877567"><ele>192.0</ele><time>2026-04-12T09:54:37.063Z</time></trkpt><trkpt lat="44.663145" lon="7.9878267"><ele>192.0</ele><time>2026-04-12T09:54:39.064Z</time></trkpt><trkpt lat="44.66308" lon="7.9879083"><ele>192.0</ele><time>2026-04-12T09:54:41.063Z</time></trkpt><trkpt lat="44.6630133" lon="7.9879883"><ele>192.0</ele><time>2026-04-12T09:54:43.057Z</time></trkpt><trkpt lat="44.6629433" lon="7.9880717"><ele>192.0</ele><time>2026-04-12T09:54:45.063Z</time></trkpt><trkpt lat="44.6628717" lon="7.9881533"><ele>192.0</ele><time>2026-04-12T09:54:47.062Z</time></trkpt><trkpt lat="44.6628" lon="7.9882417"><ele>192.0</ele><time>2026-04-12T09:54:49.065Z</time></trkpt><trkpt lat="44.66272" lon="7.9883417"><ele>192.0</ele><time>2026-04-12T09:54:51.064Z</time></trkpt><trkpt lat="44.6626383" lon="7.988445"><ele>192.0</ele><time>2026-04-12T09:54:53.063Z</time></trkpt><trkpt lat="44.6625633" lon="7.9885583"><ele>192.2</ele><time>2026-04-12T09:54:55.064Z</time></trkpt><trkpt lat="44.6624767" lon="7.988665"><ele>192.39999999999998</ele><time>2026-04-12T09:54:57.066Z</time></trkpt><trkpt lat="44.6624033" lon="7.9887733"><ele>192.60000000000002</ele><time>2026-04-12T09:54:59.063Z</time></trkpt><trkpt lat="44.6623333" lon="7.9888967"><ele>192.8</ele><time>2026-04-12T09:55:01.063Z</time></trkpt><trkpt lat="44.66226" lon="7.9890133"><ele>193.0</ele><time>2026-04-12T09:55:03.063Z</time></trkpt><trkpt lat="44.662185" lon="7.9891267"><ele>192.8</ele><time>2026-04-12T09:55:05.064Z</time></trkpt><trkpt lat="44.66211" lon="7.9892417"><ele>192.60000000000002</ele><time>2026-04-12T09:55:07.064Z</time></trkpt><trkpt lat="44.662035" lon="7.9893533"><ele>192.39999999999998</ele><time>2026-04-12T09:55:09.062Z</time></trkpt><trkpt lat="44.66196" lon="7.9894667"><ele>192.2</ele><time>2026-04-12T09:55:11.062Z</time></trkpt><trkpt lat="44.6618867" lon="7.9895817"><ele>192.0</ele><time>2026-04-12T09:55:13.065Z</time></trkpt><trkpt lat="44.661805" lon="7.9896933"><ele>192.2</ele><time>2026-04-12T09:55:15.062Z</time></trkpt><trkpt lat="44.6617233" lon="7.9898"><ele>192.39999999999998</ele><time>2026-04-12T09:55:17.062Z</time></trkpt><trkpt lat="44.66164" lon="7.9898983"><ele>192.60000000000002</ele><time>2026-04-12T09:55:19.063Z</time></trkpt><trkpt lat="44.6615533" lon="7.989995"><ele>192.8</ele><time>2026-04-12T09:55:21.064Z</time></trkpt><trkpt lat="44.6614683" lon="7.9901017"><ele>193.0</ele><time>2026-04-12T09:55:23.062Z</time></trkpt><trkpt lat="44.6613817" lon="7.99021"><ele>193.0</ele><time>2026-04-12T09:55:25.064Z</time></trkpt><trkpt lat="44.66129" lon="7.9903117"><ele>193.0</ele><time>2026-04-12T09:55:27.064Z</time></trkpt><trkpt lat="44.6612017" lon="7.9904133"><ele>193.0</ele><time>2026-04-12T09:55:29.062Z</time></trkpt><trkpt lat="44.6611133" lon="7.9905233"><ele>193.0</ele><time>2026-04-12T09:55:31.064Z</time></trkpt><trkpt lat="44.6610217" lon="7.990635"><ele>193.75</ele><time>2026-04-12T09:55:33.063Z</time></trkpt><trkpt lat="44.6609333" lon="7.990745"><ele>194.5</ele><time>2026-04-12T09:55:35.061Z</time></trkpt><trkpt lat="44.660845" lon="7.9908567"><ele>195.25</ele><time>2026-04-12T09:55:37.064Z</time></trkpt><trkpt lat="44.660755" lon="7.9909633"><ele>196.0</ele><time>2026-04-12T09:55:39.065Z</time></trkpt><trkpt lat="44.6606633" lon="7.99107"><ele>196.0</ele><time>2026-04-12T09:55:41.06Z</time></trkpt><trkpt lat="44.660575" lon="7.9911767"><ele>196.0</ele><time>2026-04-12T09:55:43.061Z</time></trkpt><trkpt lat="44.6604867" lon="7.9912833"><ele>196.0</ele><time>2026-04-12T09:55:45.063Z</time></trkpt><trkpt lat="44.66039" lon="7.99139"><ele>196.0</ele><time>2026-04-12T09:55:47.063Z</time></trkpt><trkpt lat="44.6602967" lon="7.991485"><ele>196.60000000000002</ele><time>2026-04-12T09:55:49.063Z</time></trkpt><trkpt lat="44.6601983" lon="7.99157"><ele>197.2</ele><time>2026-04-12T09:55:51.061Z</time></trkpt><trkpt lat="44.6600967" lon="7.9916367"><ele>197.8</ele><time>2026-04-12T09:55:53.062Z</time></trkpt><trkpt lat="44.659995" lon="7.991695"><ele>198.39999999999998</ele><time>2026-04-12T09:55:55.062Z</time></trkpt><trkpt lat="44.6598967" lon="7.99174"><ele>199.0</ele><time>2026-04-12T09:55:57.063Z</time></trkpt><trkpt lat="44.6598033" lon="7.99178"><ele>199.0</ele><time>2026-04-12T09:55:59.061Z</time></trkpt><trkpt lat="44.65971" lon="7.991825"><ele>199.0</ele><time>2026-04-12T09:56:01.062Z</time></trkpt><trkpt lat="44.6596117" lon="7.99187"><ele>199.0</ele><time>2026-04-12T09:56:03.064Z</time></trkpt><trkpt lat="44.6595133" lon="7.9919217"><ele>199.0</ele><time>2026-04-12T09:56:05.061Z</time></trkpt><trkpt lat="44.6594133" lon="7.9919733"><ele>199.0</ele><time>2026-04-12T09:56:07.062Z</time></trkpt><trkpt lat="44.6593067" lon="7.99201"><ele>200.0</ele><time>2026-04-12T09:56:09.063Z</time></trkpt><trkpt lat="44.6591917" lon="7.992035"><ele>201.0</ele><time>2026-04-12T09:56:11.061Z</time></trkpt><trkpt lat="44.659075" lon="7.99205"><ele>202.0</ele><time>2026-04-12T09:56:13.061Z</time></trkpt><trkpt lat="44.6589583" lon="7.9920533"><ele>203.0</ele><time>2026-04-12T09:56:15.063Z</time></trkpt><trkpt lat="44.6588483" lon="7.992045"><ele>203.0</ele><time>2026-04-12T09:56:17.063Z</time></trkpt><trkpt lat="44.65874" lon="7.9920317"><ele>203.0</ele><time>2026-04-12T09:56:19.062Z</time></trkpt><trkpt lat="44.6586283" lon="7.9920183"><ele>203.0</ele><time>2026-04-12T09:56:21.062Z</time></trkpt><trkpt lat="44.6585267" lon="7.9919983"><ele>203.0</ele><time>2026-04-12T09:56:23.06Z</time></trkpt><trkpt lat="44.6584217" lon="7.9919883"><ele>203.0</ele><time>2026-04-12T09:56:25.063Z</time></trkpt><trkpt lat="44.6583167" lon="7.991965"><ele>203.2</ele><time>2026-04-12T09:56:27.062Z</time></trkpt><trkpt lat="44.6582167" lon="7.991955"><ele>203.4</ele><time>2026-04-12T09:56:29.063Z</time></trkpt><trkpt lat="44.6581183" lon="7.9919567"><ele>203.6</ele><time>2026-04-12T09:56:31.062Z</time></trkpt><trkpt lat="44.6580267" lon="7.99195"><ele>203.79999999999998</ele><time>2026-04-12T09:56:33.062Z</time></trkpt><trkpt lat="44.657925" lon="7.9919533"><ele>204.0</ele><time>2026-04-12T09:56:35.063Z</time></trkpt><trkpt lat="44.65782" lon="7.9919783"><ele>204.2</ele><time>2026-04-12T09:56:37.065Z</time></trkpt><trkpt lat="44.6577233" lon="7.99202"><ele>204.39999999999998</ele><time>2026-04-12T09:56:39.062Z</time></trkpt><trkpt lat="44.6576267" lon="7.9920717"><ele>204.6</ele><time>2026-04-12T09:56:41.062Z</time></trkpt><trkpt lat="44.657535" lon="7.9921317"><ele>204.8</ele><time>2026-04-12T09:56:43.063Z</time></trkpt><trkpt lat="44.6574417" lon="7.9921933"><ele>205.0</ele><time>2026-04-12T09:56:45.062Z</time></trkpt><trkpt lat="44.6573483" lon="7.9922533"><ele>205.0</ele><time>2026-04-12T09:56:47.061Z</time></trkpt><trkpt lat="44.6572567" lon="7.9923067"><ele>205.0</ele><time>2026-04-12T09:56:49.061Z</time></trkpt><trkpt lat="44.657165" lon="7.9923583"><ele>205.0</ele><time>2026-04-12T09:56:51.063Z</time></trkpt><trkpt lat="44.6570783" lon="7.9924283"><ele>205.0</ele><time>2026-04-12T09:56:53.062Z</time></trkpt><trkpt lat="44.6570017" lon="7.9925133"><ele>205.0</ele><time>2026-04-12T09:56:55.062Z</time></trkpt><trkpt lat="44.6569267" lon="7.99261"><ele>206.4</ele><time>2026-04-12T09:56:57.065Z</time></trkpt><trkpt lat="44.6568583" lon="7.99272"><ele>207.8</ele><time>2026-04-12T09:56:59.062Z</time></trkpt><trkpt lat="44.6567917" lon="7.9928267"><ele>209.2</ele><time>2026-04-12T09:57:01.063Z</time></trkpt><trkpt lat="44.6567317" lon="7.9929367"><ele>210.6</ele><time>2026-04-12T09:57:03.063Z</time></trkpt><trkpt lat="44.65667" lon="7.9930417"><ele>212.0</ele><time>2026-04-12T09:57:05.063Z</time></trkpt><trkpt lat="44.6566033" lon="7.9931433"><ele>212.0</ele><time>2026-04-12T09:57:07.063Z</time></trkpt><trkpt lat="44.6565333" lon="7.9932417"><ele>212.0</ele><time>2026-04-12T09:57:09.064Z</time></trkpt><trkpt lat="44.6564667" lon="7.9933367"><ele>212.0</ele><time>2026-04-12T09:57:11.062Z</time></trkpt><trkpt lat="44.6563983" lon="7.993435"><ele>212.0</ele><time>2026-04-12T09:57:13.063Z</time></trkpt><trkpt lat="44.6563333" lon="7.99353"><ele>212.0</ele><time>2026-04-12T09:57:15.064Z</time></trkpt><trkpt lat="44.6562667" lon="7.9936183"><ele>212.33333333333334</ele><time>2026-04-12T09:57:17.061Z</time></trkpt><trkpt lat="44.6561933" lon="7.99369"><ele>212.66666666666669</ele><time>2026-04-12T09:57:19.062Z</time></trkpt><trkpt lat="44.65612" lon="7.99375"><ele>213.0</ele><time>2026-04-12T09:57:21.062Z</time></trkpt><trkpt lat="44.65605" lon="7.9938067"><ele>213.33333333333331</ele><time>2026-04-12T09:57:23.061Z</time></trkpt><trkpt lat="44.655975" lon="7.993865"><ele>213.66666666666666</ele><time>2026-04-12T09:57:25.062Z</time></trkpt><trkpt lat="44.6559083" lon="7.9939233"><ele>214.0</ele><time>2026-04-12T09:57:27.066Z</time></trkpt><trkpt lat="44.65584" lon="7.993985"><ele>214.33333333333331</ele><time>2026-04-12T09:57:29.064Z</time></trkpt><trkpt lat="44.6557717" lon="7.9940517"><ele>214.66666666666666</ele><time>2026-04-12T09:57:31.061Z</time></trkpt><trkpt lat="44.65571" lon="7.9941333"><ele>215.0</ele><time>2026-04-12T09:57:33.063Z</time></trkpt><trkpt lat="44.6556633" lon="7.9942117"><ele>215.33333333333331</ele><time>2026-04-12T09:57:35.058Z</time></trkpt><trkpt lat="44.65561" lon="7.9942967"><ele>215.66666666666666</ele><time>2026-04-12T09:57:37.063Z</time></trkpt><trkpt lat="44.6555617" lon="7.99438"><ele>216.0</ele><time>2026-04-12T09:57:39.061Z</time></trkpt><trkpt lat="44.655515" lon="7.994455"><ele>216.33333333333334</ele><time>2026-04-12T09:57:41.063Z</time></trkpt><trkpt lat="44.6554667" lon="7.99453"><ele>216.66666666666669</ele><time>2026-04-12T09:57:43.062Z</time></trkpt><trkpt lat="44.6554217" lon="7.9946017"><ele>217.0</ele><time>2026-04-12T09:57:45.062Z</time></trkpt><trkpt lat="44.6553717" lon="7.99467"><ele>217.33333333333334</ele><time>2026-04-12T09:57:47.062Z</time></trkpt><trkpt lat="44.6553017" lon="7.9947633"><ele>217.66666666666669</ele><time>2026-04-12T09:57:50.065Z</time></trkpt><trkpt lat="44.6552467" lon="7.99482"><ele>218.0</ele><time>2026-04-12T09:57:52.063Z</time></trkpt><trkpt lat="44.6551683" lon="7.994885"><ele>218.83333333333334</ele><time>2026-04-12T09:57:55.063Z</time></trkpt><trkpt lat="44.65509" lon="7.9949417"><ele>219.66666666666669</ele><time>2026-04-12T09:57:58.063Z</time></trkpt><trkpt lat="44.65502" lon="7.9949967"><ele>220.5</ele><time>2026-04-12T09:58:01.062Z</time></trkpt><trkpt lat="44.6549567" lon="7.99503"><ele>221.33333333333331</ele><time>2026-04-12T09:58:05.062Z</time></trkpt><trkpt lat="44.6548833" lon="7.9950517"><ele>222.16666666666666</ele><time>2026-04-12T09:58:09.062Z</time></trkpt><trkpt lat="44.654805" lon="7.99509"><ele>223.0</ele><time>2026-04-12T09:58:13.062Z</time></trkpt><trkpt lat="44.6547317" lon="7.9951417"><ele>223.85714285714286</ele><time>2026-04-12T09:58:17.064Z</time></trkpt><trkpt lat="44.6546833" lon="7.9951983"><ele>224.71428571428572</ele><time>2026-04-12T09:58:20.063Z</time></trkpt><trkpt lat="44.6546333" lon="7.9952667"><ele>225.57142857142856</ele><time>2026-04-12T09:58:24.063Z</time></trkpt><trkpt lat="44.6545817" lon="7.9953367"><ele>226.42857142857144</ele><time>2026-04-12T09:58:28.064Z</time></trkpt><trkpt lat="44.654545" lon="7.99543"><ele>227.2857142857143</ele><time>2026-04-12T09:58:33.063Z</time></trkpt><trkpt lat="44.6544983" lon="7.9955133"><ele>228.14285714285714</ele><time>2026-04-12T09:58:37.064Z</time></trkpt><trkpt lat="44.6544633" lon="7.9955933"><ele>229.0</ele><time>2026-04-12T09:58:41.062Z</time></trkpt><trkpt lat="44.6544733" lon="7.9956883"><ele>228.99999999999997</ele><time>2026-04-12T09:58:45.063Z</time></trkpt><trkpt lat="44.654475" lon="7.995805"><ele>229.0</ele><time>2026-04-12T09:58:50.066Z</time></trkpt><trkpt lat="44.6544733" lon="7.995895"><ele>229.0</ele><time>2026-04-12T09:58:53.066Z</time></trkpt><trkpt lat="44.65449" lon="7.9960067"><ele>229.0</ele><time>2026-04-12T09:58:57.067Z</time></trkpt><trkpt lat="44.6545183" lon="7.9961083"><ele>228.99999999999997</ele><time>2026-04-12T09:59:01.063Z</time></trkpt><trkpt lat="44.654545" lon="7.99621"><ele>229.0</ele><time>2026-04-12T09:59:05.057Z</time></trkpt><trkpt lat="44.6545483" lon="7.9963067"><ele>230.85714285714283</ele><time>2026-04-12T09:59:09.065Z</time></trkpt><trkpt lat="44.6545583" lon="7.9964083"><ele>232.71428571428572</ele><time>2026-04-12T09:59:13.064Z</time></trkpt><trkpt lat="44.65454" lon="7.996505"><ele>234.57142857142856</ele><time>2026-04-12T09:59:17.063Z</time></trkpt><trkpt lat="44.6544867" lon="7.9965667"><ele>236.42857142857142</ele><time>2026-04-12T09:59:21.066Z</time></trkpt><trkpt lat="44.65441" lon="7.99657"><ele>238.28571428571428</ele><time>2026-04-12T09:59:26.063Z</time></trkpt><trkpt lat="44.6543517" lon="7.9965117"><ele>240.14285714285714</ele><time>2026-04-12T09:59:30.062Z</time></trkpt><trkpt lat="44.654295" lon="7.9964467"><ele>242.0</ele><time>2026-04-12T09:59:34.061Z</time></trkpt><trkpt lat="44.6542383" lon="7.9963633"><ele>244.16666666666669</ele><time>2026-04-12T09:59:38.063Z</time></trkpt><trkpt lat="44.6541867" lon="7.9962783"><ele>246.33333333333334</ele><time>2026-04-12T09:59:42.063Z</time></trkpt><trkpt lat="44.6541267" lon="7.99621"><ele>248.5</ele><time>2026-04-12T09:59:46.063Z</time></trkpt><trkpt lat="44.654065" lon="7.9961783"><ele>250.66666666666669</ele><time>2026-04-12T09:59:49.066Z</time></trkpt><trkpt lat="44.654" lon="7.9961317"><ele>252.83333333333334</ele><time>2026-04-12T09:59:52.063Z</time></trkpt><trkpt lat="44.6539517" lon="7.9960367"><ele>255.0</ele><time>2026-04-12T09:59:55.067Z</time></trkpt><trkpt lat="44.653915" lon="7.9959433"><ele>255.0</ele><time>2026-04-12T09:59:58.063Z</time></trkpt><trkpt lat="44.65387" lon="7.9958733"><ele>255.0</ele><time>2026-04-12T10:00:01.06Z</time></trkpt><trkpt lat="44.6538633" lon="7.9957633"><ele>255.0</ele><time>2026-04-12T10:00:04.064Z</time></trkpt><trkpt lat="44.6539" lon="7.99566"><ele>255.0</ele><time>2026-04-12T10:00:06.065Z</time></trkpt><trkpt lat="44.6539117" lon="7.9955717"><ele>255.0</ele><time>2026-04-12T10:00:08.066Z</time></trkpt><trkpt lat="44.6539033" lon="7.995465"><ele>255.0</ele><time>2026-04-12T10:00:11.064Z</time></trkpt><trkpt lat="44.653885" lon="7.9953517"><ele>254.57142857142858</ele><time>2026-04-12T10:00:14.063Z</time></trkpt><trkpt lat="44.6538483" lon="7.9952433"><ele>254.14285714285717</ele><time>2026-04-12T10:00:17.063Z</time></trkpt><trkpt lat="44.6538" lon="7.9951333"><ele>253.71428571428572</ele><time>2026-04-12T10:00:20.066Z</time></trkpt><trkpt lat="44.6537717" lon="7.99505"><ele>253.28571428571428</ele><time>2026-04-12T10:00:22.063Z</time></trkpt><trkpt lat="44.6537433" lon="7.9949667"><ele>252.85714285714286</ele><time>2026-04-12T10:00:24.063Z</time></trkpt><trkpt lat="44.65371" lon="7.994885"><ele>252.42857142857144</ele><time>2026-04-12T10:00:26.063Z</time></trkpt><trkpt lat="44.6536783" lon="7.9947967"><ele>252.0</ele><time>2026-04-12T10:00:28.064Z</time></trkpt><trkpt lat="44.6536183" lon="7.9947567"><ele>253.28571428571428</ele><time>2026-04-12T10:00:30.063Z</time></trkpt><trkpt lat="44.6535717" lon="7.9948183"><ele>254.57142857142856</ele><time>2026-04-12T10:00:32.063Z</time></trkpt><trkpt lat="44.653565" lon="7.9949367"><ele>255.85714285714286</ele><time>2026-04-12T10:00:35.062Z</time></trkpt><trkpt lat="44.6535467" lon="7.99503"><ele>257.1428571428571</ele><time>2026-04-12T10:00:38.064Z</time></trkpt><trkpt lat="44.653535" lon="7.9951283"><ele>258.42857142857144</ele><time>2026-04-12T10:00:41.061Z</time></trkpt><trkpt lat="44.6535033" lon="7.9952217"><ele>259.7142857142857</ele><time>2026-04-12T10:00:44.064Z</time></trkpt><trkpt lat="44.6534617" lon="7.995315"><ele>261.0</ele><time>2026-04-12T10:00:47.062Z</time></trkpt><trkpt lat="44.65341" lon="7.9954133"><ele>261.0</ele><time>2026-04-12T10:00:50.064Z</time></trkpt><trkpt lat="44.6533583" lon="7.9954833"><ele>261.0</ele><time>2026-04-12T10:00:54.062Z</time></trkpt><trkpt lat="44.6533217" lon="7.9955683"><ele>261.0</ele><time>2026-04-12T10:01:28.064Z</time></trkpt><trkpt lat="44.6532333" lon="7.9955983"><ele>261.0</ele><time>2026-04-12T10:01:31.065Z</time></trkpt><trkpt lat="44.6531433" lon="7.9956167"><ele>261.0</ele><time>2026-04-12T10:01:33.065Z</time></trkpt><trkpt lat="44.65304" lon="7.9956217"><ele>261.0</ele><time>2026-04-12T10:01:35.062Z</time></trkpt><trkpt lat="44.65292" lon="7.9956017"><ele>261.0</ele><time>2026-04-12T10:01:37.065Z</time></trkpt><trkpt lat="44.65281" lon="7.9955867"><ele>261.0</ele><time>2026-04-12T10:01:39.062Z</time></trkpt><trkpt lat="44.6527183" lon="7.9955817"><ele>261.0</ele><time>2026-04-12T10:01:41.061Z</time></trkpt><trkpt lat="44.65264" lon="7.9955783"><ele>261.0</ele><time>2026-04-12T10:01:43.062Z</time></trkpt><trkpt lat="44.65257" lon="7.9955717"><ele>261.0</ele><time>2026-04-12T10:01:45.061Z</time></trkpt><trkpt lat="44.6524917" lon="7.995565"><ele>261.0</ele><time>2026-04-12T10:01:47.062Z</time></trkpt><trkpt lat="44.652415" lon="7.99555"><ele>261.0</ele><time>2026-04-12T10:01:49.063Z</time></trkpt><trkpt lat="44.65235" lon="7.9955067"><ele>261.0</ele><time>2026-04-12T10:01:51.063Z</time></trkpt><trkpt lat="44.652305" lon="7.9954283"><ele>261.0</ele><time>2026-04-12T10:01:53.063Z</time></trkpt><trkpt lat="44.652285" lon="7.9953233"><ele>261.0</ele><time>2026-04-12T10:01:55.064Z</time></trkpt><trkpt lat="44.6522683" lon="7.99521"><ele>261.0</ele><time>2026-04-12T10:01:57.057Z</time></trkpt><trkpt lat="44.65226" lon="7.995095"><ele>261.0</ele><time>2026-04-12T10:01:59.058Z</time></trkpt><trkpt lat="44.6522633" lon="7.99496"><ele>261.0</ele><time>2026-04-12T10:02:01.058Z</time></trkpt><trkpt lat="44.6522717" lon="7.9948217"><ele>261.0</ele><time>2026-04-12T10:02:03.064Z</time></trkpt><trkpt lat="44.6522933" lon="7.9946833"><ele>261.0</ele><time>2026-04-12T10:02:05.064Z</time></trkpt><trkpt lat="44.6523283" lon="7.9945467"><ele>261.0</ele><time>2026-04-12T10:02:07.058Z</time></trkpt><trkpt lat="44.6523633" lon="7.994415"><ele>261.0</ele><time>2026-04-12T10:02:09.063Z</time></trkpt><trkpt lat="44.6524033" lon="7.9942833"><ele>259.8</ele><time>2026-04-12T10:02:11.061Z</time></trkpt><trkpt lat="44.6524583" lon="7.99416"><ele>258.6</ele><time>2026-04-12T10:02:13.06Z</time></trkpt><trkpt lat="44.6525183" lon="7.9940417"><ele>257.4</ele><time>2026-04-12T10:02:15.063Z</time></trkpt><trkpt lat="44.6525767" lon="7.99392"><ele>256.2</ele><time>2026-04-12T10:02:17.063Z</time></trkpt><trkpt lat="44.6526383" lon="7.9937817"><ele>255.0</ele><time>2026-04-12T10:02:19.063Z</time></trkpt><trkpt lat="44.6527" lon="7.9936367"><ele>255.0</ele><time>2026-04-12T10:02:21.062Z</time></trkpt><trkpt lat="44.6527617" lon="7.9934967"><ele>255.0</ele><time>2026-04-12T10:02:23.062Z</time></trkpt><trkpt lat="44.6528217" lon="7.9933683"><ele>255.0</ele><time>2026-04-12T10:02:25.064Z</time></trkpt><trkpt lat="44.65283" lon="7.99328"><ele>255.0</ele><time>2026-04-12T10:02:27.064Z</time></trkpt><trkpt lat="44.6527517" lon="7.9932217"><ele>255.0</ele><time>2026-04-12T10:02:30.063Z</time></trkpt><trkpt lat="44.6526683" lon="7.9931833"><ele>253.5</ele><time>2026-04-12T10:02:32.062Z</time></trkpt><trkpt lat="44.652595" lon="7.99314"><ele>252.0</ele><time>2026-04-12T10:02:34.061Z</time></trkpt><trkpt lat="44.6525383" lon="7.9930683"><ele>250.5</ele><time>2026-04-12T10:02:36.063Z</time></trkpt><trkpt lat="44.6524967" lon="7.9929767"><ele>249.0</ele><time>2026-04-12T10:02:38.062Z</time></trkpt><trkpt lat="44.65246" lon="7.9928667"><ele>247.5</ele><time>2026-04-12T10:02:40.062Z</time></trkpt><trkpt lat="44.6523933" lon="7.99275"><ele>246.0</ele><time>2026-04-12T10:02:42.059Z</time></trkpt><trkpt lat="44.6522917" lon="7.9926567"><ele>246.00000000000003</ele><time>2026-04-12T10:02:44.063Z</time></trkpt><trkpt lat="44.6522283" lon="7.992615"><ele>246.0</ele><time>2026-04-12T10:02:45.063Z</time></trkpt><trkpt lat="44.6521633" lon="7.9925767"><ele>246.00000000000003</ele><time>2026-04-12T10:02:46.063Z</time></trkpt><trkpt lat="44.6520983" lon="7.9925383"><ele>246.00000000000003</ele><time>2026-04-12T10:02:47.062Z</time></trkpt><trkpt lat="44.6520317" lon="7.9924967"><ele>246.0</ele><time>2026-04-12T10:02:48.063Z</time></trkpt><trkpt lat="44.651965" lon="7.9924567"><ele>246.00000000000003</ele><time>2026-04-12T10:02:49.063Z</time></trkpt><trkpt lat="44.6518933" lon="7.9924167"><ele>246.00000000000003</ele><time>2026-04-12T10:02:50.062Z</time></trkpt><trkpt lat="44.65182" lon="7.9923783"><ele>241.16666666666666</ele><time>2026-04-12T10:02:51.061Z</time></trkpt><trkpt lat="44.6517483" lon="7.992335"><ele>236.33333333333331</ele><time>2026-04-12T10:02:52.062Z</time></trkpt><trkpt lat="44.651675" lon="7.9922917"><ele>231.5</ele><time>2026-04-12T10:02:53.061Z</time></trkpt><trkpt lat="44.6515967" lon="7.9922483"><ele>226.66666666666666</ele><time>2026-04-12T10:02:54.062Z</time></trkpt><trkpt lat="44.6515167" lon="7.992205"><ele>221.83333333333331</ele><time>2026-04-12T10:02:55.063Z</time></trkpt><trkpt lat="44.651435" lon="7.9921517"><ele>217.0</ele><time>2026-04-12T10:02:56.062Z</time></trkpt><trkpt lat="44.6513517" lon="7.9920983"><ele>216.99999999999997</ele><time>2026-04-12T10:02:57.062Z</time></trkpt><trkpt lat="44.65127" lon="7.9920433"><ele>217.0</ele><time>2026-04-12T10:02:58.063Z</time></trkpt><trkpt lat="44.651195" lon="7.9919833"><ele>217.0</ele><time>2026-04-12T10:02:59.061Z</time></trkpt><trkpt lat="44.651125" lon="7.991915"><ele>217.0</ele><time>2026-04-12T10:03:00.062Z</time></trkpt><trkpt lat="44.651055" lon="7.9918483"><ele>216.99999999999997</ele><time>2026-04-12T10:03:01.062Z</time></trkpt><trkpt lat="44.650995" lon="7.9917883"><ele>217.0</ele><time>2026-04-12T10:03:02.063Z</time></trkpt><trkpt lat="44.6509433" lon="7.9917267"><ele>214.99999999999997</ele><time>2026-04-12T10:03:03.063Z</time></trkpt><trkpt lat="44.6508717" lon="7.99162"><ele>213.0</ele><time>2026-04-12T10:03:05.061Z</time></trkpt><trkpt lat="44.6508067" lon="7.991525"><ele>211.0</ele><time>2026-04-12T10:03:14.062Z</time></trkpt><trkpt lat="44.6507467" lon="7.99157"><ele>209.0</ele><time>2026-04-12T10:03:17.062Z</time></trkpt><trkpt lat="44.6506983" lon="7.9916633"><ele>206.99999999999997</ele><time>2026-04-12T10:03:19.063Z</time></trkpt><trkpt lat="44.65064" lon="7.9917733"><ele>205.0</ele><time>2026-04-12T10:03:21.066Z</time></trkpt><trkpt lat="44.650565" lon="7.9919"><ele>205.0</ele><time>2026-04-12T10:03:23.057Z</time></trkpt><trkpt lat="44.650525" lon="7.9919717"><ele>205.0</ele><time>2026-04-12T10:03:24.061Z</time></trkpt><trkpt lat="44.6504867" lon="7.9920483"><ele>205.0</ele><time>2026-04-12T10:03:25.065Z</time></trkpt><trkpt lat="44.6504483" lon="7.9921233"><ele>205.0</ele><time>2026-04-12T10:03:26.061Z</time></trkpt><trkpt lat="44.6504083" lon="7.9921967"><ele>205.0</ele><time>2026-04-12T10:03:27.063Z</time></trkpt><trkpt lat="44.6503667" lon="7.99227"><ele>205.0</ele><time>2026-04-12T10:03:28.063Z</time></trkpt><trkpt lat="44.6503267" lon="7.992345"><ele>205.0</ele><time>2026-04-12T10:03:29.062Z</time></trkpt><trkpt lat="44.650285" lon="7.9924167"><ele>204.85714285714286</ele><time>2026-04-12T10:03:30.061Z</time></trkpt><trkpt lat="44.6502417" lon="7.99249"><ele>204.7142857142857</ele><time>2026-04-12T10:03:31.064Z</time></trkpt><trkpt lat="44.6501983" lon="7.9925683"><ele>204.57142857142856</ele><time>2026-04-12T10:03:32.061Z</time></trkpt><trkpt lat="44.6501533" lon="7.99264"><ele>204.42857142857144</ele><time>2026-04-12T10:03:33.064Z</time></trkpt><trkpt lat="44.6501117" lon="7.992715"><ele>204.28571428571428</ele><time>2026-04-12T10:03:34.062Z</time></trkpt><trkpt lat="44.6500667" lon="7.99279"><ele>204.14285714285714</ele><time>2026-04-12T10:03:35.062Z</time></trkpt><trkpt lat="44.650025" lon="7.9928667"><ele>204.0</ele><time>2026-04-12T10:03:36.062Z</time></trkpt><trkpt lat="44.6499833" lon="7.99294"><ele>204.0</ele><time>2026-04-12T10:03:37.063Z</time></trkpt><trkpt lat="44.64994" lon="7.9930133"><ele>204.0</ele><time>2026-04-12T10:03:38.063Z</time></trkpt><trkpt lat="44.6498983" lon="7.9930867"><ele>204.0</ele><time>2026-04-12T10:03:39.063Z</time></trkpt><trkpt lat="44.6498567" lon="7.9931567"><ele>204.0</ele><time>2026-04-12T10:03:40.062Z</time></trkpt><trkpt lat="44.6498183" lon="7.9932317"><ele>204.0</ele><time>2026-04-12T10:03:41.061Z</time></trkpt><trkpt lat="44.6497767" lon="7.993305"><ele>204.0</ele><time>2026-04-12T10:03:42.061Z</time></trkpt><trkpt lat="44.649735" lon="7.9933817"><ele>204.0</ele><time>2026-04-12T10:03:43.061Z</time></trkpt><trkpt lat="44.6496933" lon="7.993455"><ele>204.14285714285714</ele><time>2026-04-12T10:03:44.062Z</time></trkpt><trkpt lat="44.64965" lon="7.9935267"><ele>204.28571428571428</ele><time>2026-04-12T10:03:45.062Z</time></trkpt><trkpt lat="44.64961" lon="7.9935983"><ele>204.42857142857144</ele><time>2026-04-12T10:03:46.063Z</time></trkpt><trkpt lat="44.6495667" lon="7.9936683"><ele>204.57142857142856</ele><time>2026-04-12T10:03:47.061Z</time></trkpt><trkpt lat="44.6495217" lon="7.99374"><ele>204.7142857142857</ele><time>2026-04-12T10:03:48.061Z</time></trkpt><trkpt lat="44.64948" lon="7.9938133"><ele>204.85714285714286</ele><time>2026-04-12T10:03:49.063Z</time></trkpt><trkpt lat="44.6494367" lon="7.9938883"><ele>205.0</ele><time>2026-04-12T10:03:50.063Z</time></trkpt><trkpt lat="44.6493933" lon="7.9939633"><ele>205.0</ele><time>2026-04-12T10:03:51.063Z</time></trkpt><trkpt lat="44.6493517" lon="7.994035"><ele>205.0</ele><time>2026-04-12T10:03:52.063Z</time></trkpt><trkpt lat="44.64931" lon="7.9941083"><ele>205.0</ele><time>2026-04-12T10:03:53.062Z</time></trkpt><trkpt lat="44.64927" lon="7.9941783"><ele>205.0</ele><time>2026-04-12T10:03:54.062Z</time></trkpt><trkpt lat="44.64923" lon="7.99425"><ele>205.0</ele><time>2026-04-12T10:03:55.063Z</time></trkpt><trkpt lat="44.6491883" lon="7.99432"><ele>205.0</ele><time>2026-04-12T10:03:56.062Z</time></trkpt><trkpt lat="44.6491467" lon="7.9943917"><ele>205.0</ele><time>2026-04-12T10:03:57.065Z</time></trkpt><trkpt lat="44.6491017" lon="7.99446"><ele>206.71428571428572</ele><time>2026-04-12T10:03:58.064Z</time></trkpt><trkpt lat="44.6490583" lon="7.9945267"><ele>208.42857142857142</ele><time>2026-04-12T10:03:59.061Z</time></trkpt><trkpt lat="44.649005" lon="7.9945867"><ele>210.14285714285714</ele><time>2026-04-12T10:04:00.061Z</time></trkpt><trkpt lat="44.6489517" lon="7.9946433"><ele>211.85714285714286</ele><time>2026-04-12T10:04:01.063Z</time></trkpt><trkpt lat="44.6488933" lon="7.9946917"><ele>213.57142857142856</ele><time>2026-04-12T10:04:02.063Z</time></trkpt><trkpt lat="44.6488317" lon="7.9947333"><ele>215.28571428571428</ele><time>2026-04-12T10:04:03.062Z</time></trkpt><trkpt lat="44.6487667" lon="7.9947683"><ele>217.0</ele><time>2026-04-12T10:04:04.063Z</time></trkpt><trkpt lat="44.6487" lon="7.994795"><ele>217.0</ele><time>2026-04-12T10:04:05.061Z</time></trkpt><trkpt lat="44.6486333" lon="7.9948183"><ele>217.0</ele><time>2026-04-12T10:04:06.062Z</time></trkpt><trkpt lat="44.6485633" lon="7.9948383"><ele>217.0</ele><time>2026-04-12T10:04:07.063Z</time></trkpt><trkpt lat="44.648495" lon="7.9948533"><ele>217.0</ele><time>2026-04-12T10:04:08.063Z</time></trkpt><trkpt lat="44.6484283" lon="7.99487"><ele>217.0</ele><time>2026-04-12T10:04:09.063Z</time></trkpt><trkpt lat="44.64836" lon="7.9948833"><ele>217.0</ele><time>2026-04-12T10:04:10.063Z</time></trkpt><trkpt lat="44.648295" lon="7.9949033"><ele>217.0</ele><time>2026-04-12T10:04:11.061Z</time></trkpt><trkpt lat="44.6482267" lon="7.994925"><ele>216.71428571428572</ele><time>2026-04-12T10:04:12.061Z</time></trkpt><trkpt lat="44.6481617" lon="7.994955"><ele>216.42857142857144</ele><time>2026-04-12T10:04:13.064Z</time></trkpt><trkpt lat="44.6480967" lon="7.99499"><ele>216.14285714285714</ele><time>2026-04-12T10:04:14.064Z</time></trkpt><trkpt lat="44.6480317" lon="7.9950267"><ele>215.85714285714286</ele><time>2026-04-12T10:04:15.063Z</time></trkpt><trkpt lat="44.6479667" lon="7.9950633"><ele>215.57142857142858</ele><time>2026-04-12T10:04:16.063Z</time></trkpt><trkpt lat="44.647905" lon="7.9951033"><ele>215.28571428571428</ele><time>2026-04-12T10:04:17.062Z</time></trkpt><trkpt lat="44.6478467" lon="7.995145"><ele>215.0</ele><time>2026-04-12T10:04:18.061Z</time></trkpt><trkpt lat="44.6477917" lon="7.9951933"><ele>213.6</ele><time>2026-04-12T10:04:19.062Z</time></trkpt><trkpt lat="44.647695" lon="7.9952883"><ele>212.2</ele><time>2026-04-12T10:04:21.064Z</time></trkpt><trkpt lat="44.6476117" lon="7.995385"><ele>210.8</ele><time>2026-04-12T10:04:23.063Z</time></trkpt><trkpt lat="44.647525" lon="7.9954833"><ele>209.4</ele><time>2026-04-12T10:04:25.064Z</time></trkpt><trkpt lat="44.6474417" lon="7.9955783"><ele>208.0</ele><time>2026-04-12T10:04:27.065Z</time></trkpt><trkpt lat="44.6473667" lon="7.99567"><ele>208.0</ele><time>2026-04-12T10:04:29.06Z</time></trkpt><trkpt lat="44.6472883" lon="7.99576"><ele>208.0</ele><time>2026-04-12T10:04:31.057Z</time></trkpt><trkpt lat="44.647205" lon="7.9958483"><ele>208.0</ele><time>2026-04-12T10:04:33.063Z</time></trkpt><trkpt lat="44.6471317" lon="7.99593"><ele>208.0</ele><time>2026-04-12T10:04:35.062Z</time></trkpt><trkpt lat="44.64706" lon="7.9959867"><ele>208.0</ele><time>2026-04-12T10:04:37.063Z</time></trkpt><trkpt lat="44.6469883" lon="7.9959617"><ele>208.2</ele><time>2026-04-12T10:04:39.061Z</time></trkpt><trkpt lat="44.6469267" lon="7.99586"><ele>208.4</ele><time>2026-04-12T10:04:41.061Z</time></trkpt><trkpt lat="44.6468633" lon="7.9957067"><ele>208.6</ele><time>2026-04-12T10:04:43.066Z</time></trkpt><trkpt lat="44.646825" lon="7.9956233"><ele>208.79999999999998</ele><time>2026-04-12T10:04:44.063Z</time></trkpt><trkpt lat="44.6467867" lon="7.99553"><ele>209.0</ele><time>2026-04-12T10:04:45.061Z</time></trkpt><trkpt lat="44.6467433" lon="7.9954317"><ele>209.00000000000003</ele><time>2026-04-12T10:04:46.062Z</time></trkpt><trkpt lat="44.6466983" lon="7.99533"><ele>209.0</ele><time>2026-04-12T10:04:47.063Z</time></trkpt><trkpt lat="44.64665" lon="7.995235"><ele>209.0</ele><time>2026-04-12T10:04:48.06Z</time></trkpt><trkpt lat="44.6465983" lon="7.9951367"><ele>209.0</ele><time>2026-04-12T10:04:49.063Z</time></trkpt><trkpt lat="44.6465483" lon="7.9950417"><ele>209.00000000000003</ele><time>2026-04-12T10:04:50.062Z</time></trkpt><trkpt lat="44.6465033" lon="7.9949483"><ele>209.0</ele><time>2026-04-12T10:04:51.062Z</time></trkpt><trkpt lat="44.6464517" lon="7.9948533"><ele>208.33333333333334</ele><time>2026-04-12T10:04:52.061Z</time></trkpt><trkpt lat="44.6464" lon="7.99476"><ele>207.66666666666669</ele><time>2026-04-12T10:04:53.061Z</time></trkpt><trkpt lat="44.6463467" lon="7.9946683"><ele>207.0</ele><time>2026-04-12T10:04:54.066Z</time></trkpt><trkpt lat="44.6462933" lon="7.9945817"><ele>206.33333333333331</ele><time>2026-04-12T10:04:55.062Z</time></trkpt><trkpt lat="44.646245" lon="7.9945017"><ele>205.66666666666666</ele><time>2026-04-12T10:04:56.062Z</time></trkpt><trkpt lat="44.6462033" lon="7.9944217"><ele>205.0</ele><time>2026-04-12T10:04:57.063Z</time></trkpt><trkpt lat="44.6461583" lon="7.9943417"><ele>204.85714285714286</ele><time>2026-04-12T10:04:58.063Z</time></trkpt><trkpt lat="44.64612" lon="7.99426"><ele>204.7142857142857</ele><time>2026-04-12T10:04:59.063Z</time></trkpt><trkpt lat="44.6460783" lon="7.99418"><ele>204.57142857142856</ele><time>2026-04-12T10:05:00.063Z</time></trkpt><trkpt lat="44.6460367" lon="7.9941033"><ele>204.42857142857144</ele><time>2026-04-12T10:05:01.063Z</time></trkpt><trkpt lat="44.6459983" lon="7.9940317"><ele>204.28571428571428</ele><time>2026-04-12T10:05:02.062Z</time></trkpt><trkpt lat="44.6459567" lon="7.99396"><ele>204.14285714285714</ele><time>2026-04-12T10:05:03.061Z</time></trkpt><trkpt lat="44.64592" lon="7.9938867"><ele>204.0</ele><time>2026-04-12T10:05:04.062Z</time></trkpt><trkpt lat="44.6458817" lon="7.99381"><ele>204.0</ele><time>2026-04-12T10:05:05.062Z</time></trkpt><trkpt lat="44.6458383" lon="7.9937317"><ele>204.0</ele><time>2026-04-12T10:05:06.061Z</time></trkpt><trkpt lat="44.64579" lon="7.9936533"><ele>204.0</ele><time>2026-04-12T10:05:07.062Z</time></trkpt><trkpt lat="44.6457517" lon="7.99357"><ele>204.0</ele><time>2026-04-12T10:05:08.062Z</time></trkpt><trkpt lat="44.6457133" lon="7.993485"><ele>204.0</ele><time>2026-04-12T10:05:09.064Z</time></trkpt><trkpt lat="44.64567" lon="7.993395"><ele>204.0</ele><time>2026-04-12T10:05:10.071Z</time></trkpt><trkpt lat="44.6456217" lon="7.993305"><ele>204.0</ele><time>2026-04-12T10:05:11.06Z</time></trkpt><trkpt lat="44.64558" lon="7.993215"><ele>203.83333333333334</ele><time>2026-04-12T10:05:12.062Z</time></trkpt><trkpt lat="44.6455267" lon="7.9931167"><ele>203.66666666666669</ele><time>2026-04-12T10:05:13.061Z</time></trkpt><trkpt lat="44.645485" lon="7.99303"><ele>203.5</ele><time>2026-04-12T10:05:14.063Z</time></trkpt><trkpt lat="44.645445" lon="7.9929433"><ele>203.33333333333334</ele><time>2026-04-12T10:05:15.063Z</time></trkpt><trkpt lat="44.6454083" lon="7.9928617"><ele>203.16666666666669</ele><time>2026-04-12T10:05:16.061Z</time></trkpt><trkpt lat="44.64537" lon="7.9927867"><ele>203.0</ele><time>2026-04-12T10:05:17.062Z</time></trkpt><trkpt lat="44.6453017" lon="7.99265"><ele>203.0</ele><time>2026-04-12T10:05:19.064Z</time></trkpt><trkpt lat="44.645225" lon="7.99252"><ele>203.0</ele><time>2026-04-12T10:05:21.063Z</time></trkpt><trkpt lat="44.6451467" lon="7.992395"><ele>203.0</ele><time>2026-04-12T10:05:23.061Z</time></trkpt><trkpt lat="44.64507" lon="7.9922633"><ele>203.0</ele><time>2026-04-12T10:05:25.063Z</time></trkpt><trkpt lat="44.644995" lon="7.9921383"><ele>203.0</ele><time>2026-04-12T10:05:27.063Z</time></trkpt><trkpt lat="44.6449217" lon="7.992015"><ele>203.0</ele><time>2026-04-12T10:05:29.061Z</time></trkpt><trkpt lat="44.64485" lon="7.9918933"><ele>203.0</ele><time>2026-04-12T10:05:31.063Z</time></trkpt><trkpt lat="44.64482" lon="7.9917617"><ele>203.0</ele><time>2026-04-12T10:05:33.063Z</time></trkpt><trkpt lat="44.64484" lon="7.99164"><ele>203.0</ele><time>2026-04-12T10:05:35.061Z</time></trkpt><trkpt lat="44.644905" lon="7.9915383"><ele>203.25</ele><time>2026-04-12T10:05:37.063Z</time></trkpt><trkpt lat="44.6449733" lon="7.991425"><ele>203.5</ele><time>2026-04-12T10:05:39.064Z</time></trkpt><trkpt lat="44.6450483" lon="7.9913067"><ele>203.75</ele><time>2026-04-12T10:05:41.063Z</time></trkpt><trkpt lat="44.6451217" lon="7.9911683"><ele>204.0</ele><time>2026-04-12T10:05:43.064Z</time></trkpt><trkpt lat="44.6451933" lon="7.9910417"><ele>204.0</ele><time>2026-04-12T10:05:45.063Z</time></trkpt><trkpt lat="44.64525" lon="7.9909067"><ele>204.0</ele><time>2026-04-12T10:05:47.06Z</time></trkpt><trkpt lat="44.645305" lon="7.9907683"><ele>204.0</ele><time>2026-04-12T10:05:49.063Z</time></trkpt><trkpt lat="44.6453583" lon="7.9906217"><ele>204.0</ele><time>2026-04-12T10:05:51.063Z</time></trkpt><trkpt lat="44.6454067" lon="7.990465"><ele>203.75</ele><time>2026-04-12T10:05:53.063Z</time></trkpt><trkpt lat="44.6454583" lon="7.9903033"><ele>203.5</ele><time>2026-04-12T10:05:55.062Z</time></trkpt><trkpt lat="44.6455067" lon="7.9901467"><ele>203.25</ele><time>2026-04-12T10:05:57.063Z</time></trkpt><trkpt lat="44.645555" lon="7.9899917"><ele>203.0</ele><time>2026-04-12T10:05:59.062Z</time></trkpt><trkpt lat="44.6456067" lon="7.989835"><ele>203.00000000000003</ele><time>2026-04-12T10:06:01.062Z</time></trkpt><trkpt lat="44.6456317" lon="7.9897533"><ele>203.0</ele><time>2026-04-12T10:06:02.063Z</time></trkpt><trkpt lat="44.6456583" lon="7.9896717"><ele>203.0</ele><time>2026-04-12T10:06:03.06Z</time></trkpt><trkpt lat="44.6456883" lon="7.98959"><ele>203.0</ele><time>2026-04-12T10:06:04.063Z</time></trkpt><trkpt lat="44.645735" lon="7.98943"><ele>203.00000000000003</ele><time>2026-04-12T10:06:06.063Z</time></trkpt><trkpt lat="44.6457567" lon="7.9893467"><ele>203.0</ele><time>2026-04-12T10:06:07.064Z</time></trkpt><trkpt lat="44.6458017" lon="7.9891767"><ele>202.71428571428572</ele><time>2026-04-12T10:06:09.063Z</time></trkpt><trkpt lat="44.6458267" lon="7.98909"><ele>202.42857142857144</ele><time>2026-04-12T10:06:10.063Z</time></trkpt><trkpt lat="44.64585" lon="7.9890033"><ele>202.14285714285714</ele><time>2026-04-12T10:06:11.061Z</time></trkpt><trkpt lat="44.6458717" lon="7.988915"><ele>201.85714285714286</ele><time>2026-04-12T10:06:12.063Z</time></trkpt><trkpt lat="44.6458917" lon="7.988825"><ele>201.57142857142858</ele><time>2026-04-12T10:06:13.06Z</time></trkpt><trkpt lat="44.6459083" lon="7.988735"><ele>201.28571428571428</ele><time>2026-04-12T10:06:14.062Z</time></trkpt><trkpt lat="44.6459283" lon="7.9886433"><ele>201.0</ele><time>2026-04-12T10:06:15.061Z</time></trkpt><trkpt lat="44.6459433" lon="7.98855"><ele>201.0</ele><time>2026-04-12T10:06:16.064Z</time></trkpt><trkpt lat="44.64596" lon="7.988455"><ele>201.0</ele><time>2026-04-12T10:06:17.06Z</time></trkpt><trkpt lat="44.6459783" lon="7.98836"><ele>201.0</ele><time>2026-04-12T10:06:18.061Z</time></trkpt><trkpt lat="44.6459967" lon="7.988265"><ele>201.0</ele><time>2026-04-12T10:06:19.062Z</time></trkpt><trkpt lat="44.6460183" lon="7.9881667"><ele>201.0</ele><time>2026-04-12T10:06:20.061Z</time></trkpt><trkpt lat="44.64604" lon="7.9880683"><ele>201.0</ele><time>2026-04-12T10:06:21.062Z</time></trkpt><trkpt lat="44.64606" lon="7.9879683"><ele>201.0</ele><time>2026-04-12T10:06:22.062Z</time></trkpt><trkpt lat="44.64608" lon="7.98787"><ele>201.16666666666666</ele><time>2026-04-12T10:06:23.063Z</time></trkpt><trkpt lat="44.646105" lon="7.9877717"><ele>201.33333333333331</ele><time>2026-04-12T10:06:24.063Z</time></trkpt><trkpt lat="44.64613" lon="7.9876733"><ele>201.5</ele><time>2026-04-12T10:06:25.064Z</time></trkpt><trkpt lat="44.646155" lon="7.9875733"><ele>201.66666666666666</ele><time>2026-04-12T10:06:26.062Z</time></trkpt><trkpt lat="44.64618" lon="7.9874733"><ele>201.83333333333331</ele><time>2026-04-12T10:06:27.063Z</time></trkpt><trkpt lat="44.646205" lon="7.9873733"><ele>202.0</ele><time>2026-04-12T10:06:28.063Z</time></trkpt><trkpt lat="44.6462333" lon="7.9872733"><ele>201.66666666666666</ele><time>2026-04-12T10:06:29.061Z</time></trkpt><trkpt lat="44.6462633" lon="7.9871733"><ele>201.33333333333331</ele><time>2026-04-12T10:06:30.064Z</time></trkpt><trkpt lat="44.6462933" lon="7.9870767"><ele>201.0</ele><time>2026-04-12T10:06:31.064Z</time></trkpt><trkpt lat="44.6463217" lon="7.986975"><ele>200.66666666666669</ele><time>2026-04-12T10:06:32.061Z</time></trkpt><trkpt lat="44.6463483" lon="7.9868767"><ele>200.33333333333334</ele><time>2026-04-12T10:06:33.063Z</time></trkpt><trkpt lat="44.646375" lon="7.98678"><ele>200.0</ele><time>2026-04-12T10:06:34.065Z</time></trkpt><trkpt lat="44.6464" lon="7.98668"><ele>200.16666666666669</ele><time>2026-04-12T10:06:35.06Z</time></trkpt><trkpt lat="44.6464267" lon="7.98658"><ele>200.33333333333334</ele><time>2026-04-12T10:06:36.061Z</time></trkpt><trkpt lat="44.64645" lon="7.9864783"><ele>200.5</ele><time>2026-04-12T10:06:37.065Z</time></trkpt><trkpt lat="44.646475" lon="7.9863767"><ele>200.66666666666669</ele><time>2026-04-12T10:06:38.061Z</time></trkpt><trkpt lat="44.6465017" lon="7.9862783"><ele>200.83333333333334</ele><time>2026-04-12T10:06:39.063Z</time></trkpt><trkpt lat="44.6465283" lon="7.98618"><ele>201.0</ele><time>2026-04-12T10:06:40.064Z</time></trkpt><trkpt lat="44.646555" lon="7.9860833"><ele>201.0</ele><time>2026-04-12T10:06:41.06Z</time></trkpt><trkpt lat="44.64658" lon="7.985985"><ele>201.0</ele><time>2026-04-12T10:06:42.062Z</time></trkpt><trkpt lat="44.6466033" lon="7.985885"><ele>201.0</ele><time>2026-04-12T10:06:43.063Z</time></trkpt><trkpt lat="44.6466283" lon="7.9857883"><ele>201.0</ele><time>2026-04-12T10:06:44.063Z</time></trkpt><trkpt lat="44.6466517" lon="7.98569"><ele>201.0</ele><time>2026-04-12T10:06:45.064Z</time></trkpt><trkpt lat="44.646675" lon="7.9855933"><ele>201.0</ele><time>2026-04-12T10:06:46.062Z</time></trkpt><trkpt lat="44.6467" lon="7.985495"><ele>201.0</ele><time>2026-04-12T10:06:47.061Z</time></trkpt><trkpt lat="44.64673" lon="7.9854"><ele>200.83333333333334</ele><time>2026-04-12T10:06:48.064Z</time></trkpt><trkpt lat="44.6467567" lon="7.9853"><ele>200.66666666666669</ele><time>2026-04-12T10:06:49.062Z</time></trkpt><trkpt lat="44.6467817" lon="7.9852"><ele>200.5</ele><time>2026-04-12T10:06:50.063Z</time></trkpt><trkpt lat="44.6468033" lon="7.9850983"><ele>200.33333333333334</ele><time>2026-04-12T10:06:51.063Z</time></trkpt><trkpt lat="44.6468267" lon="7.9849983"><ele>200.16666666666669</ele><time>2026-04-12T10:06:52.063Z</time></trkpt><trkpt lat="44.6468483" lon="7.9848983"><ele>200.0</ele><time>2026-04-12T10:06:53.061Z</time></trkpt><trkpt lat="44.64687" lon="7.9847983"><ele>200.00000000000003</ele><time>2026-04-12T10:06:54.064Z</time></trkpt><trkpt lat="44.646895" lon="7.9847"><ele>200.0</ele><time>2026-04-12T10:06:55.064Z</time></trkpt><trkpt lat="44.6469217" lon="7.9846017"><ele>200.0</ele><time>2026-04-12T10:06:56.062Z</time></trkpt><trkpt lat="44.6469467" lon="7.984505"><ele>200.0</ele><time>2026-04-12T10:06:57.063Z</time></trkpt><trkpt lat="44.646975" lon="7.98441"><ele>200.0</ele><time>2026-04-12T10:06:58.062Z</time></trkpt><trkpt lat="44.647" lon="7.9843133"><ele>200.00000000000003</ele><time>2026-04-12T10:06:59.059Z</time></trkpt><trkpt lat="44.6470267" lon="7.9842183"><ele>200.0</ele><time>2026-04-12T10:07:00.063Z</time></trkpt><trkpt lat="44.647055" lon="7.9841233"><ele>199.71428571428572</ele><time>2026-04-12T10:07:01.064Z</time></trkpt><trkpt lat="44.6470833" lon="7.9840283"><ele>199.42857142857144</ele><time>2026-04-12T10:07:02.061Z</time></trkpt><trkpt lat="44.6471117" lon="7.9839317"><ele>199.14285714285717</ele><time>2026-04-12T10:07:03.066Z</time></trkpt><trkpt lat="44.6471383" lon="7.983835"><ele>198.85714285714286</ele><time>2026-04-12T10:07:04.063Z</time></trkpt><trkpt lat="44.6471633" lon="7.9837367"><ele>198.57142857142856</ele><time>2026-04-12T10:07:05.063Z</time></trkpt><trkpt lat="44.6471867" lon="7.9836367"><ele>198.2857142857143</ele><time>2026-04-12T10:07:06.062Z</time></trkpt><trkpt lat="44.6472117" lon="7.9835367"><ele>198.0</ele><time>2026-04-12T10:07:07.062Z</time></trkpt><trkpt lat="44.647235" lon="7.9834383"><ele>198.16666666666666</ele><time>2026-04-12T10:07:08.063Z</time></trkpt><trkpt lat="44.6472617" lon="7.98334"><ele>198.33333333333331</ele><time>2026-04-12T10:07:09.067Z</time></trkpt><trkpt lat="44.6472867" lon="7.9832417"><ele>198.5</ele><time>2026-04-12T10:07:10.063Z</time></trkpt><trkpt lat="44.647315" lon="7.9831433"><ele>198.66666666666666</ele><time>2026-04-12T10:07:11.062Z</time></trkpt><trkpt lat="44.647345" lon="7.983045"><ele>198.83333333333331</ele><time>2026-04-12T10:07:12.064Z</time></trkpt><trkpt lat="44.6473733" lon="7.982945"><ele>199.0</ele><time>2026-04-12T10:07:13.063Z</time></trkpt><trkpt lat="44.647405" lon="7.98285"><ele>198.99999999999997</ele><time>2026-04-12T10:07:14.063Z</time></trkpt><trkpt lat="44.6474367" lon="7.9827533"><ele>199.0</ele><time>2026-04-12T10:07:15.064Z</time></trkpt><trkpt lat="44.6474717" lon="7.98266"><ele>199.0</ele><time>2026-04-12T10:07:16.064Z</time></trkpt><trkpt lat="44.647505" lon="7.982565"><ele>199.0</ele><time>2026-04-12T10:07:17.063Z</time></trkpt><trkpt lat="44.6475333" lon="7.9824667"><ele>198.99999999999997</ele><time>2026-04-12T10:07:18.064Z</time></trkpt><trkpt lat="44.647565" lon="7.98237"><ele>199.0</ele><time>2026-04-12T10:07:19.062Z</time></trkpt><trkpt lat="44.6475967" lon="7.9822733"><ele>198.99999999999997</ele><time>2026-04-12T10:07:20.064Z</time></trkpt><trkpt lat="44.6476283" lon="7.9821767"><ele>199.0</ele><time>2026-04-12T10:07:21.066Z</time></trkpt><trkpt lat="44.6476617" lon="7.9820783"><ele>199.0</ele><time>2026-04-12T10:07:22.063Z</time></trkpt><trkpt lat="44.647695" lon="7.981985"><ele>199.0</ele><time>2026-04-12T10:07:23.063Z</time></trkpt><trkpt lat="44.6477267" lon="7.9818933"><ele>199.0</ele><time>2026-04-12T10:07:24.065Z</time></trkpt><trkpt lat="44.6477567" lon="7.9817967"><ele>198.99999999999997</ele><time>2026-04-12T10:07:25.063Z</time></trkpt><trkpt lat="44.6477917" lon="7.9817067"><ele>199.0</ele><time>2026-04-12T10:07:26.062Z</time></trkpt><trkpt lat="44.647825" lon="7.98162"><ele>198.99999999999997</ele><time>2026-04-12T10:07:27.063Z</time></trkpt><trkpt lat="44.6478567" lon="7.9815367"><ele>199.0</ele><time>2026-04-12T10:07:28.064Z</time></trkpt><trkpt lat="44.64788" lon="7.9814483"><ele>199.0</ele><time>2026-04-12T10:07:29.063Z</time></trkpt><trkpt lat="44.6479017" lon="7.9813583"><ele>199.0</ele><time>2026-04-12T10:07:30.062Z</time></trkpt><trkpt lat="44.6479267" lon="7.9812683"><ele>199.0</ele><time>2026-04-12T10:07:31.063Z</time></trkpt><trkpt lat="44.6479517" lon="7.98118"><ele>198.99999999999997</ele><time>2026-04-12T10:07:32.061Z</time></trkpt><trkpt lat="44.647965" lon="7.9810917"><ele>199.0</ele><time>2026-04-12T10:07:33.065Z</time></trkpt><trkpt lat="44.6479767" lon="7.9810033"><ele>199.25</ele><time>2026-04-12T10:07:34.064Z</time></trkpt><trkpt lat="44.648" lon="7.980835"><ele>199.5</ele><time>2026-04-12T10:07:36.064Z</time></trkpt><trkpt lat="44.6480133" lon="7.9806817"><ele>199.75</ele><time>2026-04-12T10:07:38.062Z</time></trkpt><trkpt lat="44.6480133" lon="7.98053"><ele>200.0</ele><time>2026-04-12T10:07:40.063Z</time></trkpt><trkpt lat="44.6479983" lon="7.9803733"><ele>200.0</ele><time>2026-04-12T10:07:42.062Z</time></trkpt><trkpt lat="44.647985" lon="7.98021"><ele>200.0</ele><time>2026-04-12T10:07:44.063Z</time></trkpt><trkpt lat="44.6479633" lon="7.9800533"><ele>200.0</ele><time>2026-04-12T10:07:46.062Z</time></trkpt><trkpt lat="44.6479567" lon="7.9799"><ele>200.0</ele><time>2026-04-12T10:07:48.063Z</time></trkpt><trkpt lat="44.647945" lon="7.97974"><ele>199.6</ele><time>2026-04-12T10:07:50.062Z</time></trkpt><trkpt lat="44.6479383" lon="7.9795783"><ele>199.2</ele><time>2026-04-12T10:07:52.063Z</time></trkpt><trkpt lat="44.6479483" lon="7.9794117"><ele>198.8</ele><time>2026-04-12T10:07:54.06Z</time></trkpt><trkpt lat="44.6479667" lon="7.97926"><ele>198.4</ele><time>2026-04-12T10:07:56.061Z</time></trkpt><trkpt lat="44.647995" lon="7.979135"><ele>198.0</ele><time>2026-04-12T10:07:58.063Z</time></trkpt><trkpt lat="44.64804" lon="7.9790417"><ele>198.0</ele><time>2026-04-12T10:08:00.065Z</time></trkpt><trkpt lat="44.6480283" lon="7.9788617"><ele>198.0</ele><time>2026-04-12T10:09:10.063Z</time></trkpt><trkpt lat="44.647965" lon="7.9788033"><ele>198.0</ele><time>2026-04-12T10:09:12.062Z</time></trkpt><trkpt lat="44.6478667" lon="7.9787667"><ele>198.0</ele><time>2026-04-12T10:09:14.062Z</time></trkpt><trkpt lat="44.6477633" lon="7.97873"><ele>198.0</ele><time>2026-04-12T10:09:16.065Z</time></trkpt><trkpt lat="44.64765" lon="7.9786833"><ele>199.0</ele><time>2026-04-12T10:09:18.062Z</time></trkpt><trkpt lat="44.647535" lon="7.97863"><ele>200.0</ele><time>2026-04-12T10:09:20.063Z</time></trkpt><trkpt lat="44.6474733" lon="7.9786033"><ele>201.0</ele><time>2026-04-12T10:09:21.064Z</time></trkpt><trkpt lat="44.64741" lon="7.978575"><ele>202.0</ele><time>2026-04-12T10:09:22.063Z</time></trkpt><trkpt lat="44.64729" lon="7.97852"><ele>203.0</ele><time>2026-04-12T10:09:24.066Z</time></trkpt><trkpt lat="44.6471717" lon="7.9784533"><ele>203.00000000000003</ele><time>2026-04-12T10:09:26.065Z</time></trkpt><trkpt lat="44.6471133" lon="7.9784183"><ele>203.0</ele><time>2026-04-12T10:09:27.065Z</time></trkpt><trkpt lat="44.6470567" lon="7.9783783"><ele>203.0</ele><time>2026-04-12T10:09:28.062Z</time></trkpt><trkpt lat="44.6470017" lon="7.9783333"><ele>203.0</ele><time>2026-04-12T10:09:29.063Z</time></trkpt><trkpt lat="44.6469183" lon="7.9781967"><ele>203.00000000000003</ele><time>2026-04-12T10:09:31.063Z</time></trkpt><trkpt lat="44.6468917" lon="7.97811"><ele>203.0</ele><time>2026-04-12T10:09:32.063Z</time></trkpt><trkpt lat="44.6468667" lon="7.9780233"><ele>202.50000000000003</ele><time>2026-04-12T10:09:33.065Z</time></trkpt><trkpt lat="44.64684" lon="7.9779417"><ele>202.0</ele><time>2026-04-12T10:09:34.062Z</time></trkpt><trkpt lat="44.64675" lon="7.977835"><ele>201.5</ele><time>2026-04-12T10:09:36.062Z</time></trkpt><trkpt lat="44.646685" lon="7.9778267"><ele>201.0</ele><time>2026-04-12T10:09:37.064Z</time></trkpt><trkpt lat="44.6466183" lon="7.97786"><ele>200.50000000000003</ele><time>2026-04-12T10:09:38.061Z</time></trkpt><trkpt lat="44.646565" lon="7.9779267"><ele>200.0</ele><time>2026-04-12T10:09:39.062Z</time></trkpt><trkpt lat="44.6465267" lon="7.978015"><ele>200.0</ele><time>2026-04-12T10:09:40.061Z</time></trkpt><trkpt lat="44.6464883" lon="7.9780917"><ele>200.0</ele><time>2026-04-12T10:09:41.061Z</time></trkpt><trkpt lat="44.646445" lon="7.97816"><ele>200.0</ele><time>2026-04-12T10:09:42.062Z</time></trkpt><trkpt lat="44.6463417" lon="7.9782433"><ele>200.0</ele><time>2026-04-12T10:09:44.063Z</time></trkpt><trkpt lat="44.64623" lon="7.9782967"><ele>200.0</ele><time>2026-04-12T10:09:46.063Z</time></trkpt><trkpt lat="44.6461133" lon="7.9783567"><ele>202.25</ele><time>2026-04-12T10:09:48.06Z</time></trkpt><trkpt lat="44.6459983" lon="7.9784117"><ele>204.5</ele><time>2026-04-12T10:09:50.062Z</time></trkpt><trkpt lat="44.6458883" lon="7.97847"><ele>206.75</ele><time>2026-04-12T10:09:52.063Z</time></trkpt><trkpt lat="44.6457817" lon="7.9785267"><ele>209.0</ele><time>2026-04-12T10:09:54.064Z</time></trkpt><trkpt lat="44.6456767" lon="7.97859"><ele>209.0</ele><time>2026-04-12T10:09:56.063Z</time></trkpt><trkpt lat="44.6455733" lon="7.978645"><ele>209.0</ele><time>2026-04-12T10:09:58.062Z</time></trkpt><trkpt lat="44.6454667" lon="7.9786967"><ele>209.0</ele><time>2026-04-12T10:10:00.062Z</time></trkpt><trkpt lat="44.6453617" lon="7.9787467"><ele>209.0</ele><time>2026-04-12T10:10:02.062Z</time></trkpt><trkpt lat="44.64526" lon="7.9788017"><ele>209.0</ele><time>2026-04-12T10:10:04.062Z</time></trkpt><trkpt lat="44.64516" lon="7.9788633"><ele>208.0</ele><time>2026-04-12T10:10:06.064Z</time></trkpt><trkpt lat="44.6450483" lon="7.97891"><ele>207.0</ele><time>2026-04-12T10:10:08.061Z</time></trkpt><trkpt lat="44.6449383" lon="7.9789617"><ele>206.0</ele><time>2026-04-12T10:10:10.061Z</time></trkpt><trkpt lat="44.6448217" lon="7.9790183"><ele>205.0</ele><time>2026-04-12T10:10:12.063Z</time></trkpt><trkpt lat="44.644705" lon="7.9790767"><ele>205.0</ele><time>2026-04-12T10:10:14.062Z</time></trkpt><trkpt lat="44.6445883" lon="7.9791417"><ele>205.0</ele><time>2026-04-12T10:10:16.062Z</time></trkpt><trkpt lat="44.64447" lon="7.9792017"><ele>205.0</ele><time>2026-04-12T10:10:18.061Z</time></trkpt><trkpt lat="44.64441" lon="7.9792367"><ele>205.0</ele><time>2026-04-12T10:10:19.062Z</time></trkpt><trkpt lat="44.644295" lon="7.97931"><ele>205.0</ele><time>2026-04-12T10:10:21.062Z</time></trkpt><trkpt lat="44.6441867" lon="7.9793917"><ele>206.16666666666666</ele><time>2026-04-12T10:10:23.061Z</time></trkpt><trkpt lat="44.6440867" lon="7.9794967"><ele>207.33333333333331</ele><time>2026-04-12T10:10:25.062Z</time></trkpt><trkpt lat="44.6440367" lon="7.9795533"><ele>208.5</ele><time>2026-04-12T10:10:26.062Z</time></trkpt><trkpt lat="44.643985" lon="7.9796117"><ele>209.66666666666669</ele><time>2026-04-12T10:10:27.063Z</time></trkpt><trkpt lat="44.643935" lon="7.9796717"><ele>210.83333333333334</ele><time>2026-04-12T10:10:28.063Z</time></trkpt><trkpt lat="44.6438833" lon="7.9797333"><ele>212.0</ele><time>2026-04-12T10:10:29.062Z</time></trkpt><trkpt lat="44.6438317" lon="7.979795"><ele>212.00000000000003</ele><time>2026-04-12T10:10:30.062Z</time></trkpt><trkpt lat="44.6437817" lon="7.9798517"><ele>212.0</ele><time>2026-04-12T10:10:31.062Z</time></trkpt><trkpt lat="44.6437317" lon="7.9799067"><ele>212.0</ele><time>2026-04-12T10:10:32.06Z</time></trkpt><trkpt lat="44.6436367" lon="7.9800217"><ele>212.0</ele><time>2026-04-12T10:10:34.062Z</time></trkpt><trkpt lat="44.6435883" lon="7.9800783"><ele>212.00000000000003</ele><time>2026-04-12T10:10:35.062Z</time></trkpt><trkpt lat="44.6435383" lon="7.9801367"><ele>212.0</ele><time>2026-04-12T10:10:36.063Z</time></trkpt><trkpt lat="44.6434467" lon="7.9802583"><ele>211.39999999999998</ele><time>2026-04-12T10:10:38.064Z</time></trkpt><trkpt lat="44.6433983" lon="7.9803183"><ele>210.79999999999998</ele><time>2026-04-12T10:10:39.063Z</time></trkpt><trkpt lat="44.6433017" lon="7.9804333"><ele>210.2</ele><time>2026-04-12T10:10:41.063Z</time></trkpt><trkpt lat="44.6432083" lon="7.9805533"><ele>209.6</ele><time>2026-04-12T10:10:43.065Z</time></trkpt><trkpt lat="44.643155" lon="7.9806117"><ele>209.0</ele><time>2026-04-12T10:10:44.062Z</time></trkpt><trkpt lat="44.6431" lon="7.98067"><ele>209.00000000000003</ele><time>2026-04-12T10:10:45.062Z</time></trkpt><trkpt lat="44.6430467" lon="7.9807233"><ele>209.0</ele><time>2026-04-12T10:10:46.063Z</time></trkpt><trkpt lat="44.64299" lon="7.980775"><ele>209.0</ele><time>2026-04-12T10:10:47.064Z</time></trkpt><trkpt lat="44.6429333" lon="7.9808217"><ele>209.0</ele><time>2026-04-12T10:10:48.063Z</time></trkpt><trkpt lat="44.64288" lon="7.9808733"><ele>209.00000000000003</ele><time>2026-04-12T10:10:49.064Z</time></trkpt><trkpt lat="44.64277" lon="7.98095"><ele>209.0</ele><time>2026-04-12T10:10:51.063Z</time></trkpt><trkpt lat="44.64266" lon="7.9810183"><ele>209.0</ele><time>2026-04-12T10:10:53.063Z</time></trkpt><trkpt lat="44.6425517" lon="7.9810983"><ele>209.0</ele><time>2026-04-12T10:10:55.063Z</time></trkpt><trkpt lat="44.6424467" lon="7.9811767"><ele>209.0</ele><time>2026-04-12T10:10:57.063Z</time></trkpt><trkpt lat="44.6423433" lon="7.98128"><ele>209.0</ele><time>2026-04-12T10:10:59.061Z</time></trkpt><trkpt lat="44.6422917" lon="7.9813383"><ele>209.0</ele><time>2026-04-12T10:11:00.063Z</time></trkpt><trkpt lat="44.6422417" lon="7.9814"><ele>209.0</ele><time>2026-04-12T10:11:01.063Z</time></trkpt><trkpt lat="44.6421933" lon="7.9814617"><ele>209.0</ele><time>2026-04-12T10:11:02.063Z</time></trkpt><trkpt lat="44.6421433" lon="7.9815233"><ele>209.0</ele><time>2026-04-12T10:11:03.063Z</time></trkpt><trkpt lat="44.6420933" lon="7.9815833"><ele>209.0</ele><time>2026-04-12T10:11:04.064Z</time></trkpt><trkpt lat="44.642045" lon="7.9816417"><ele>209.0</ele><time>2026-04-12T10:11:05.062Z</time></trkpt><trkpt lat="44.641995" lon="7.9816983"><ele>209.0</ele><time>2026-04-12T10:11:06.062Z</time></trkpt><trkpt lat="44.6419383" lon="7.9817483"><ele>209.0</ele><time>2026-04-12T10:11:07.063Z</time></trkpt><trkpt lat="44.64188" lon="7.9818017"><ele>209.0</ele><time>2026-04-12T10:11:08.063Z</time></trkpt><trkpt lat="44.64182" lon="7.98185"><ele>209.0</ele><time>2026-04-12T10:11:09.064Z</time></trkpt><trkpt lat="44.6417583" lon="7.9819"><ele>209.0</ele><time>2026-04-12T10:11:10.062Z</time></trkpt><trkpt lat="44.6416967" lon="7.981945"><ele>209.0</ele><time>2026-04-12T10:11:11.062Z</time></trkpt><trkpt lat="44.641635" lon="7.9819817"><ele>209.0</ele><time>2026-04-12T10:11:12.061Z</time></trkpt><trkpt lat="44.641575" lon="7.982015"><ele>209.0</ele><time>2026-04-12T10:11:13.063Z</time></trkpt><trkpt lat="44.641515" lon="7.9820433"><ele>209.0</ele><time>2026-04-12T10:11:14.062Z</time></trkpt><trkpt lat="44.64145" lon="7.9820683"><ele>209.00000000000003</ele><time>2026-04-12T10:11:15.063Z</time></trkpt><trkpt lat="44.6413817" lon="7.9820917"><ele>209.0</ele><time>2026-04-12T10:11:16.062Z</time></trkpt><trkpt lat="44.641315" lon="7.9821183"><ele>209.0</ele><time>2026-04-12T10:11:17.061Z</time></trkpt><trkpt lat="44.64125" lon="7.9821417"><ele>209.0</ele><time>2026-04-12T10:11:18.061Z</time></trkpt><trkpt lat="44.6411867" lon="7.9821667"><ele>209.00000000000003</ele><time>2026-04-12T10:11:19.062Z</time></trkpt><trkpt lat="44.6411233" lon="7.9821917"><ele>209.0</ele><time>2026-04-12T10:11:20.065Z</time></trkpt><trkpt lat="44.6410033" lon="7.9822367"><ele>208.75</ele><time>2026-04-12T10:11:22.063Z</time></trkpt><trkpt lat="44.64089" lon="7.9822767"><ele>208.5</ele><time>2026-04-12T10:11:24.063Z</time></trkpt><trkpt lat="44.64078" lon="7.9823483"><ele>208.25</ele><time>2026-04-12T10:11:26.065Z</time></trkpt><trkpt lat="44.640665" lon="7.9824133"><ele>208.0</ele><time>2026-04-12T10:11:28.064Z</time></trkpt><trkpt lat="44.6405533" lon="7.9824583"><ele>210.0</ele><time>2026-04-12T10:11:30.061Z</time></trkpt><trkpt lat="44.64044" lon="7.9825217"><ele>212.0</ele><time>2026-04-12T10:11:32.061Z</time></trkpt><trkpt lat="44.6403267" lon="7.9825817"><ele>214.0</ele><time>2026-04-12T10:11:34.062Z</time></trkpt><trkpt lat="44.6402067" lon="7.9826367"><ele>216.0</ele><time>2026-04-12T10:11:36.063Z</time></trkpt><trkpt lat="44.64009" lon="7.9826817"><ele>216.5</ele><time>2026-04-12T10:11:38.059Z</time></trkpt><trkpt lat="44.6399767" lon="7.98273"><ele>217.0</ele><time>2026-04-12T10:11:40.062Z</time></trkpt><trkpt lat="44.6398633" lon="7.98277"><ele>217.5</ele><time>2026-04-12T10:11:42.06Z</time></trkpt><trkpt lat="44.6397467" lon="7.9827867"><ele>218.0</ele><time>2026-04-12T10:11:44.062Z</time></trkpt><trkpt lat="44.63963" lon="7.9827983"><ele>218.0</ele><time>2026-04-12T10:11:46.062Z</time></trkpt><trkpt lat="44.639515" lon="7.9828183"><ele>218.0</ele><time>2026-04-12T10:11:48.066Z</time></trkpt><trkpt lat="44.6394067" lon="7.9828283"><ele>218.0</ele><time>2026-04-12T10:11:50.062Z</time></trkpt><trkpt lat="44.6392983" lon="7.982835"><ele>218.0</ele><time>2026-04-12T10:11:52.063Z</time></trkpt><trkpt lat="44.6391867" lon="7.9828483"><ele>218.0</ele><time>2026-04-12T10:11:54.062Z</time></trkpt><trkpt lat="44.6390767" lon="7.98286"><ele>217.60000000000002</ele><time>2026-04-12T10:11:56.063Z</time></trkpt><trkpt lat="44.6389683" lon="7.98287"><ele>217.20000000000002</ele><time>2026-04-12T10:11:58.062Z</time></trkpt><trkpt lat="44.6388633" lon="7.9828833"><ele>216.8</ele><time>2026-04-12T10:12:00.062Z</time></trkpt><trkpt lat="44.6387633" lon="7.9829033"><ele>216.4</ele><time>2026-04-12T10:12:02.056Z</time></trkpt><trkpt lat="44.63866" lon="7.9829333"><ele>216.0</ele><time>2026-04-12T10:12:04.063Z</time></trkpt><trkpt lat="44.6385617" lon="7.9829933"><ele>215.4</ele><time>2026-04-12T10:12:06.062Z</time></trkpt><trkpt lat="44.638475" lon="7.9830917"><ele>214.8</ele><time>2026-04-12T10:12:08.063Z</time></trkpt><trkpt lat="44.6384033" lon="7.9831933"><ele>214.20000000000002</ele><time>2026-04-12T10:12:10.061Z</time></trkpt><trkpt lat="44.6383483" lon="7.983305"><ele>213.60000000000002</ele><time>2026-04-12T10:12:12.061Z</time></trkpt><trkpt lat="44.6383017" lon="7.9834183"><ele>213.0</ele><time>2026-04-12T10:12:14.063Z</time></trkpt><trkpt lat="44.6382583" lon="7.9835367"><ele>214.4</ele><time>2026-04-12T10:12:16.06Z</time></trkpt><trkpt lat="44.63822" lon="7.9836533"><ele>215.8</ele><time>2026-04-12T10:12:18.062Z</time></trkpt><trkpt lat="44.6381833" lon="7.9837833"><ele>217.2</ele><time>2026-04-12T10:12:20.064Z</time></trkpt><trkpt lat="44.6381617" lon="7.9839117"><ele>218.6</ele><time>2026-04-12T10:12:22.062Z</time></trkpt><trkpt lat="44.6381367" lon="7.98405"><ele>220.0</ele><time>2026-04-12T10:12:24.062Z</time></trkpt><trkpt lat="44.6381217" lon="7.98419"><ele>220.6</ele><time>2026-04-12T10:12:26.063Z</time></trkpt><trkpt lat="44.6381217" lon="7.9843267"><ele>221.2</ele><time>2026-04-12T10:12:28.061Z</time></trkpt><trkpt lat="44.6381233" lon="7.98446"><ele>221.8</ele><time>2026-04-12T10:12:30.063Z</time></trkpt><trkpt lat="44.638135" lon="7.984595"><ele>222.4</ele><time>2026-04-12T10:12:32.062Z</time></trkpt><trkpt lat="44.6381533" lon="7.9847283"><ele>223.0</ele><time>2026-04-12T10:12:34.063Z</time></trkpt><trkpt lat="44.6381733" lon="7.984855"><ele>223.0</ele><time>2026-04-12T10:12:36.062Z</time></trkpt><trkpt lat="44.6382083" lon="7.984985"><ele>223.0</ele><time>2026-04-12T10:12:38.058Z</time></trkpt><trkpt lat="44.63825" lon="7.9851133"><ele>223.0</ele><time>2026-04-12T10:12:40.062Z</time></trkpt><trkpt lat="44.638295" lon="7.985225"><ele>223.0</ele><time>2026-04-12T10:12:42.065Z</time></trkpt><trkpt lat="44.63834" lon="7.9853367"><ele>223.0</ele><time>2026-04-12T10:12:44.063Z</time></trkpt><trkpt lat="44.638385" lon="7.9854467"><ele>223.49999999999997</ele><time>2026-04-12T10:12:46.064Z</time></trkpt><trkpt lat="44.6384283" lon="7.9855533"><ele>224.0</ele><time>2026-04-12T10:12:48.063Z</time></trkpt><trkpt lat="44.6384633" lon="7.985665"><ele>224.5</ele><time>2026-04-12T10:12:50.062Z</time></trkpt><trkpt lat="44.6384933" lon="7.9857717"><ele>225.0</ele><time>2026-04-12T10:12:52.061Z</time></trkpt><trkpt lat="44.6385167" lon="7.985885"><ele>225.49999999999997</ele><time>2026-04-12T10:12:54.063Z</time></trkpt><trkpt lat="44.638535" lon="7.9859967"><ele>226.0</ele><time>2026-04-12T10:12:56.064Z</time></trkpt><trkpt lat="44.6385433" lon="7.986105"><ele>226.66666666666666</ele><time>2026-04-12T10:12:58.063Z</time></trkpt><trkpt lat="44.6385467" lon="7.9862117"><ele>227.33333333333331</ele><time>2026-04-12T10:13:00.062Z</time></trkpt><trkpt lat="44.6385483" lon="7.986315"><ele>228.0</ele><time>2026-04-12T10:13:02.063Z</time></trkpt><trkpt lat="44.6385433" lon="7.9864183"><ele>228.66666666666669</ele><time>2026-04-12T10:13:04.062Z</time></trkpt><trkpt lat="44.6385417" lon="7.9865283"><ele>229.33333333333334</ele><time>2026-04-12T10:13:06.061Z</time></trkpt><trkpt lat="44.63854" lon="7.9866417"><ele>230.0</ele><time>2026-04-12T10:13:08.063Z</time></trkpt><trkpt lat="44.638535" lon="7.9867483"><ele>230.1428571428571</ele><time>2026-04-12T10:13:10.063Z</time></trkpt><trkpt lat="44.6385317" lon="7.98684"><ele>230.28571428571428</ele><time>2026-04-12T10:13:12.063Z</time></trkpt><trkpt lat="44.638525" lon="7.986945"><ele>230.42857142857142</ele><time>2026-04-12T10:13:14.06Z</time></trkpt><trkpt lat="44.6385267" lon="7.9870517"><ele>230.57142857142856</ele><time>2026-04-12T10:13:16.063Z</time></trkpt><trkpt lat="44.63852" lon="7.9871567"><ele>230.71428571428572</ele><time>2026-04-12T10:13:18.063Z</time></trkpt><trkpt lat="44.6385217" lon="7.9872667"><ele>230.85714285714286</ele><time>2026-04-12T10:13:20.063Z</time></trkpt><trkpt lat="44.63852" lon="7.98737"><ele>231.0</ele><time>2026-04-12T10:13:22.062Z</time></trkpt><trkpt lat="44.6385183" lon="7.987475"><ele>231.71428571428572</ele><time>2026-04-12T10:13:24.062Z</time></trkpt><trkpt lat="44.6385183" lon="7.9875733"><ele>232.42857142857144</ele><time>2026-04-12T10:13:26.06Z</time></trkpt><trkpt lat="44.6385083" lon="7.9876667"><ele>233.14285714285714</ele><time>2026-04-12T10:13:28.061Z</time></trkpt><trkpt lat="44.638505" lon="7.9877633"><ele>233.85714285714286</ele><time>2026-04-12T10:13:30.063Z</time></trkpt><trkpt lat="44.6385033" lon="7.9878667"><ele>234.57142857142858</ele><time>2026-04-12T10:13:32.061Z</time></trkpt><trkpt lat="44.6385" lon="7.9879667"><ele>235.28571428571428</ele><time>2026-04-12T10:13:34.061Z</time></trkpt><trkpt lat="44.638485" lon="7.98806"><ele>236.0</ele><time>2026-04-12T10:13:36.061Z</time></trkpt><trkpt lat="44.638495" lon="7.9881517"><ele>236.0</ele><time>2026-04-12T10:13:38.063Z</time></trkpt><trkpt lat="44.6385617" lon="7.98819"><ele>236.0</ele><time>2026-04-12T10:13:41.061Z</time></trkpt><trkpt lat="44.6386233" lon="7.98812"><ele>236.0</ele><time>2026-04-12T10:13:43.063Z</time></trkpt><trkpt lat="44.63866" lon="7.9880367"><ele>236.0</ele><time>2026-04-12T10:13:45.063Z</time></trkpt><trkpt lat="44.638695" lon="7.9879567"><ele>236.0</ele><time>2026-04-12T10:13:47.062Z</time></trkpt><trkpt lat="44.6387167" lon="7.9878633"><ele>236.0</ele><time>2026-04-12T10:13:49.063Z</time></trkpt><trkpt lat="44.6387333" lon="7.9877533"><ele>236.0</ele><time>2026-04-12T10:13:51.065Z</time></trkpt><trkpt lat="44.63875" lon="7.98764"><ele>238.4</ele><time>2026-04-12T10:13:53.062Z</time></trkpt><trkpt lat="44.6387667" lon="7.98752"><ele>240.8</ele><time>2026-04-12T10:13:55.062Z</time></trkpt><trkpt lat="44.6387867" lon="7.9873917"><ele>243.20000000000002</ele><time>2026-04-12T10:13:57.063Z</time></trkpt><trkpt lat="44.6388017" lon="7.98726"><ele>245.60000000000002</ele><time>2026-04-12T10:13:59.062Z</time></trkpt><trkpt lat="44.6388183" lon="7.9871367"><ele>248.0</ele><time>2026-04-12T10:14:01.064Z</time></trkpt><trkpt lat="44.63884" lon="7.9870033"><ele>248.0</ele><time>2026-04-12T10:14:03.062Z</time></trkpt><trkpt lat="44.6388567" lon="7.9868717"><ele>248.0</ele><time>2026-04-12T10:14:05.061Z</time></trkpt><trkpt lat="44.6388717" lon="7.986735"><ele>248.0</ele><time>2026-04-12T10:14:07.062Z</time></trkpt><trkpt lat="44.638895" lon="7.9865883"><ele>248.0</ele><time>2026-04-12T10:14:09.062Z</time></trkpt><trkpt lat="44.638905" lon="7.9864483"><ele>248.0</ele><time>2026-04-12T10:14:11.06Z</time></trkpt><trkpt lat="44.6389183" lon="7.9863133"><ele>247.2</ele><time>2026-04-12T10:14:13.063Z</time></trkpt><trkpt lat="44.6389267" lon="7.9861867"><ele>246.4</ele><time>2026-04-12T10:14:15.062Z</time></trkpt><trkpt lat="44.638935" lon="7.98604"><ele>245.59999999999997</ele><time>2026-04-12T10:14:17.061Z</time></trkpt><trkpt lat="44.638955" lon="7.9859033"><ele>244.79999999999998</ele><time>2026-04-12T10:14:19.063Z</time></trkpt><trkpt lat="44.6389833" lon="7.9857583"><ele>244.0</ele><time>2026-04-12T10:14:21.061Z</time></trkpt><trkpt lat="44.6389867" lon="7.9856117"><ele>243.39999999999998</ele><time>2026-04-12T10:14:23.06Z</time></trkpt><trkpt lat="44.6389817" lon="7.9854517"><ele>242.79999999999998</ele><time>2026-04-12T10:14:25.062Z</time></trkpt><trkpt lat="44.6389617" lon="7.98531"><ele>242.20000000000002</ele><time>2026-04-12T10:14:27.063Z</time></trkpt><trkpt lat="44.6389367" lon="7.9851917"><ele>241.60000000000002</ele><time>2026-04-12T10:14:29.059Z</time></trkpt><trkpt lat="44.638905" lon="7.98509"><ele>241.0</ele><time>2026-04-12T10:14:31.063Z</time></trkpt><trkpt lat="44.6388717" lon="7.984995"><ele>240.99999999999997</ele><time>2026-04-12T10:14:33.063Z</time></trkpt><trkpt lat="44.6388433" lon="7.9849"><ele>241.0</ele><time>2026-04-12T10:14:35.062Z</time></trkpt><trkpt lat="44.6388283" lon="7.9847733"><ele>241.0</ele><time>2026-04-12T10:14:38.064Z</time></trkpt><trkpt lat="44.63883" lon="7.984655"><ele>241.0</ele><time>2026-04-12T10:14:41.058Z</time></trkpt><trkpt lat="44.6388767" lon="7.9845583"><ele>240.99999999999997</ele><time>2026-04-12T10:14:44.062Z</time></trkpt><trkpt lat="44.6389433" lon="7.9844967"><ele>241.0</ele><time>2026-04-12T10:14:47.062Z</time></trkpt><trkpt lat="44.63901" lon="7.984475"><ele>241.0</ele><time>2026-04-12T10:14:50.062Z</time></trkpt><trkpt lat="44.6390917" lon="7.9845033"><ele>241.00000000000003</ele><time>2026-04-12T10:14:54.062Z</time></trkpt><trkpt lat="44.6391583" lon="7.9845617"><ele>241.0</ele><time>2026-04-12T10:14:58.065Z</time></trkpt><trkpt lat="44.6392267" lon="7.9846167"><ele>241.0</ele><time>2026-04-12T10:15:02.065Z</time></trkpt><trkpt lat="44.6392833" lon="7.9846617"><ele>241.00000000000003</ele><time>2026-04-12T10:15:05.061Z</time></trkpt><trkpt lat="44.63934" lon="7.9847017"><ele>241.0</ele><time>2026-04-12T10:15:08.064Z</time></trkpt><trkpt lat="44.6394" lon="7.9847383"><ele>241.0</ele><time>2026-04-12T10:15:11.064Z</time></trkpt><trkpt lat="44.6394733" lon="7.9847733"><ele>243.33333333333331</ele><time>2026-04-12T10:15:15.062Z</time></trkpt><trkpt lat="44.639545" lon="7.9848033"><ele>245.66666666666666</ele><time>2026-04-12T10:15:19.063Z</time></trkpt><trkpt lat="44.63963" lon="7.984805"><ele>248.0</ele><time>2026-04-12T10:15:23.062Z</time></trkpt><trkpt lat="44.639695" lon="7.9848067"><ele>250.33333333333331</ele><time>2026-04-12T10:15:26.062Z</time></trkpt><trkpt lat="44.6397633" lon="7.9847967"><ele>252.66666666666666</ele><time>2026-04-12T10:15:29.062Z</time></trkpt><trkpt lat="44.6398417" lon="7.984785"><ele>255.0</ele><time>2026-04-12T10:15:32.063Z</time></trkpt><trkpt lat="44.6399267" lon="7.9847583"><ele>255.0</ele><time>2026-04-12T10:15:35.063Z</time></trkpt><trkpt lat="44.63999" lon="7.9847433"><ele>255.00000000000003</ele><time>2026-04-12T10:15:37.063Z</time></trkpt><trkpt lat="44.6400583" lon="7.9847217"><ele>255.0</ele><time>2026-04-12T10:15:39.062Z</time></trkpt><trkpt lat="44.64013" lon="7.984695"><ele>255.0</ele><time>2026-04-12T10:15:41.064Z</time></trkpt><trkpt lat="44.6402" lon="7.98468"><ele>255.00000000000003</ele><time>2026-04-12T10:15:43.065Z</time></trkpt><trkpt lat="44.640275" lon="7.98467"><ele>255.0</ele><time>2026-04-12T10:15:45.062Z</time></trkpt><trkpt lat="44.64035" lon="7.9846733"><ele>255.0</ele><time>2026-04-12T10:15:47.063Z</time></trkpt><trkpt lat="44.6404267" lon="7.9846817"><ele>253.66666666666666</ele><time>2026-04-12T10:15:49.064Z</time></trkpt><trkpt lat="44.6405083" lon="7.9846783"><ele>252.33333333333331</ele><time>2026-04-12T10:15:51.065Z</time></trkpt><trkpt lat="44.6405917" lon="7.9846817"><ele>251.0</ele><time>2026-04-12T10:15:53.061Z</time></trkpt><trkpt lat="44.6406667" lon="7.9846983"><ele>249.66666666666666</ele><time>2026-04-12T10:15:55.063Z</time></trkpt><trkpt lat="44.6407267" lon="7.984765"><ele>248.33333333333331</ele><time>2026-04-12T10:15:58.063Z</time></trkpt><trkpt lat="44.6407583" lon="7.9848817"><ele>247.0</ele><time>2026-04-12T10:16:01.064Z</time></trkpt><trkpt lat="44.6407733" lon="7.9849817"><ele>248.16666666666666</ele><time>2026-04-12T10:16:03.064Z</time></trkpt><trkpt lat="44.6407717" lon="7.9850783"><ele>249.33333333333331</ele><time>2026-04-12T10:16:05.062Z</time></trkpt><trkpt lat="44.6407667" lon="7.9851683"><ele>250.5</ele><time>2026-04-12T10:16:07.064Z</time></trkpt><trkpt lat="44.6407583" lon="7.9852567"><ele>251.66666666666669</ele><time>2026-04-12T10:16:09.062Z</time></trkpt><trkpt lat="44.6407417" lon="7.98538"><ele>252.83333333333334</ele><time>2026-04-12T10:16:12.064Z</time></trkpt><trkpt lat="44.6407317" lon="7.9855017"><ele>254.0</ele><time>2026-04-12T10:16:15.066Z</time></trkpt><trkpt lat="44.6407333" lon="7.985625"><ele>254.00000000000003</ele><time>2026-04-12T10:16:18.065Z</time></trkpt><trkpt lat="44.6407367" lon="7.98575"><ele>254.0</ele><time>2026-04-12T10:16:21.063Z</time></trkpt><trkpt lat="44.640745" lon="7.9858683"><ele>254.0</ele><time>2026-04-12T10:16:24.062Z</time></trkpt><trkpt lat="44.6407617" lon="7.985995"><ele>254.0</ele><time>2026-04-12T10:16:27.063Z</time></trkpt><trkpt lat="44.640785" lon="7.9861233"><ele>254.00000000000003</ele><time>2026-04-12T10:16:30.065Z</time></trkpt><trkpt lat="44.6408083" lon="7.9862083"><ele>254.0</ele><time>2026-04-12T10:16:32.061Z</time></trkpt><trkpt lat="44.640835" lon="7.9862983"><ele>254.71428571428572</ele><time>2026-04-12T10:16:34.061Z</time></trkpt><trkpt lat="44.640875" lon="7.9863817"><ele>255.42857142857142</ele><time>2026-04-12T10:16:36.062Z</time></trkpt><trkpt lat="44.6409233" lon="7.986455"><ele>256.1428571428571</ele><time>2026-04-12T10:16:38.063Z</time></trkpt><trkpt lat="44.640975" lon="7.986515"><ele>256.8571428571429</ele><time>2026-04-12T10:16:40.063Z</time></trkpt><trkpt lat="44.6410333" lon="7.9865667"><ele>257.57142857142856</ele><time>2026-04-12T10:16:42.064Z</time></trkpt><trkpt lat="44.6411017" lon="7.9866133"><ele>258.2857142857143</ele><time>2026-04-12T10:16:44.067Z</time></trkpt><trkpt lat="44.6411767" lon="7.98664"><ele>259.0</ele><time>2026-04-12T10:16:46.062Z</time></trkpt><trkpt lat="44.6412467" lon="7.986665"><ele>260.14285714285717</ele><time>2026-04-12T10:16:48.062Z</time></trkpt><trkpt lat="44.6413183" lon="7.9866917"><ele>261.2857142857143</ele><time>2026-04-12T10:16:50.061Z</time></trkpt><trkpt lat="44.64139" lon="7.9867083"><ele>262.42857142857144</ele><time>2026-04-12T10:16:52.065Z</time></trkpt><trkpt lat="44.6414633" lon="7.9867283"><ele>263.57142857142856</ele><time>2026-04-12T10:16:54.057Z</time></trkpt><trkpt lat="44.6415333" lon="7.986745"><ele>264.7142857142857</ele><time>2026-04-12T10:16:56.066Z</time></trkpt><trkpt lat="44.6416033" lon="7.9867683"><ele>265.8571428571429</ele><time>2026-04-12T10:16:58.062Z</time></trkpt><trkpt lat="44.6416717" lon="7.9867867"><ele>267.0</ele><time>2026-04-12T10:17:00.062Z</time></trkpt><trkpt lat="44.64174" lon="7.9868083"><ele>267.00000000000006</ele><time>2026-04-12T10:17:02.063Z</time></trkpt><trkpt lat="44.64182" lon="7.9868283"><ele>267.0</ele><time>2026-04-12T10:17:05.064Z</time></trkpt><trkpt lat="44.6418233" lon="7.9869167"><ele>267.0</ele><time>2026-04-12T10:17:09.064Z</time></trkpt><trkpt lat="44.6418017" lon="7.9870117"><ele>267.0</ele><time>2026-04-12T10:17:12.063Z</time></trkpt><trkpt lat="44.6417817" lon="7.9871"><ele>267.0</ele><time>2026-04-12T10:17:14.067Z</time></trkpt><trkpt lat="44.6417533" lon="7.987195"><ele>267.00000000000006</ele><time>2026-04-12T10:17:16.063Z</time></trkpt><trkpt lat="44.641725" lon="7.9872933"><ele>267.0</ele><time>2026-04-12T10:17:18.063Z</time></trkpt><trkpt lat="44.6417" lon="7.9873883"><ele>267.00000000000006</ele><time>2026-04-12T10:17:20.064Z</time></trkpt><trkpt lat="44.64168" lon="7.987485"><ele>267.0</ele><time>2026-04-12T10:17:22.063Z</time></trkpt><trkpt lat="44.6416633" lon="7.98758"><ele>267.0</ele><time>2026-04-12T10:17:24.06Z</time></trkpt><trkpt lat="44.64164" lon="7.987675"><ele>267.0</ele><time>2026-04-12T10:17:26.063Z</time></trkpt><trkpt lat="44.6416217" lon="7.9877683"><ele>267.0</ele><time>2026-04-12T10:17:28.063Z</time></trkpt><trkpt lat="44.6416033" lon="7.9878567"><ele>267.00000000000006</ele><time>2026-04-12T10:17:30.064Z</time></trkpt><trkpt lat="44.6415833" lon="7.987945"><ele>267.0</ele><time>2026-04-12T10:17:32.064Z</time></trkpt><trkpt lat="44.641565" lon="7.98803"><ele>267.0</ele><time>2026-04-12T10:17:34.064Z</time></trkpt><trkpt lat="44.6415583" lon="7.988135"><ele>267.0</ele><time>2026-04-12T10:17:37.063Z</time></trkpt><trkpt lat="44.6415417" lon="7.9882483"><ele>267.0</ele><time>2026-04-12T10:17:40.063Z</time></trkpt><trkpt lat="44.641515" lon="7.9883583"><ele>267.0</ele><time>2026-04-12T10:17:43.06Z</time></trkpt><trkpt lat="44.6414883" lon="7.9884667"><ele>267.0</ele><time>2026-04-12T10:17:46.063Z</time></trkpt><trkpt lat="44.6414617" lon="7.9885783"><ele>267.0</ele><time>2026-04-12T10:17:49.064Z</time></trkpt><trkpt lat="44.64143" lon="7.988695"><ele>266.5</ele><time>2026-04-12T10:17:52.062Z</time></trkpt><trkpt lat="44.6413967" lon="7.9888017"><ele>266.0</ele><time>2026-04-12T10:17:55.064Z</time></trkpt><trkpt lat="44.641365" lon="7.9889117"><ele>265.5</ele><time>2026-04-12T10:17:58.07Z</time></trkpt><trkpt lat="44.6413367" lon="7.9890167"><ele>265.0</ele><time>2026-04-12T10:18:01.065Z</time></trkpt><trkpt lat="44.64132" lon="7.9891233"><ele>264.5</ele><time>2026-04-12T10:18:04.061Z</time></trkpt><trkpt lat="44.6413" lon="7.989225"><ele>264.0</ele><time>2026-04-12T10:18:07.063Z</time></trkpt><trkpt lat="44.6412817" lon="7.98933"><ele>262.6666666666667</ele><time>2026-04-12T10:18:10.064Z</time></trkpt><trkpt lat="44.6412517" lon="7.9894367"><ele>261.3333333333333</ele><time>2026-04-12T10:18:13.066Z</time></trkpt><trkpt lat="44.6412117" lon="7.98955"><ele>260.0</ele><time>2026-04-12T10:18:16.062Z</time></trkpt><trkpt lat="44.6411717" lon="7.9896233"><ele>258.66666666666663</ele><time>2026-04-12T10:18:18.063Z</time></trkpt><trkpt lat="44.6411167" lon="7.9896783"><ele>257.3333333333333</ele><time>2026-04-12T10:18:20.064Z</time></trkpt><trkpt lat="44.64105" lon="7.9897333"><ele>256.0</ele><time>2026-04-12T10:18:22.063Z</time></trkpt><trkpt lat="44.6409767" lon="7.98979"><ele>256.8333333333333</ele><time>2026-04-12T10:18:24.063Z</time></trkpt><trkpt lat="44.6409017" lon="7.9898417"><ele>257.66666666666663</ele><time>2026-04-12T10:18:26.061Z</time></trkpt><trkpt lat="44.6408283" lon="7.9899"><ele>258.5</ele><time>2026-04-12T10:18:28.063Z</time></trkpt><trkpt lat="44.6407533" lon="7.98995"><ele>259.3333333333333</ele><time>2026-04-12T10:18:30.068Z</time></trkpt><trkpt lat="44.6406667" lon="7.9900017"><ele>260.1666666666667</ele><time>2026-04-12T10:18:32.062Z</time></trkpt><trkpt lat="44.6405867" lon="7.9900533"><ele>261.0</ele><time>2026-04-12T10:18:34.063Z</time></trkpt><trkpt lat="44.6405" lon="7.9901167"><ele>261.0</ele><time>2026-04-12T10:18:36.062Z</time></trkpt><trkpt lat="44.6404133" lon="7.9901867"><ele>261.0</ele><time>2026-04-12T10:18:38.064Z</time></trkpt><trkpt lat="44.6403283" lon="7.990245"><ele>261.0</ele><time>2026-04-12T10:18:40.061Z</time></trkpt><trkpt lat="44.64025" lon="7.9902933"><ele>261.0</ele><time>2026-04-12T10:18:42.062Z</time></trkpt><trkpt lat="44.6401717" lon="7.990345"><ele>261.0</ele><time>2026-04-12T10:18:44.061Z</time></trkpt><trkpt lat="44.640095" lon="7.9904"><ele>264.1666666666667</ele><time>2026-04-12T10:18:46.062Z</time></trkpt><trkpt lat="44.6400183" lon="7.990455"><ele>267.3333333333333</ele><time>2026-04-12T10:18:48.062Z</time></trkpt><trkpt lat="44.6399517" lon="7.9905133"><ele>270.5</ele><time>2026-04-12T10:18:50.064Z</time></trkpt><trkpt lat="44.6398867" lon="7.9905767"><ele>273.66666666666663</ele><time>2026-04-12T10:18:52.062Z</time></trkpt><trkpt lat="44.6398233" lon="7.9906333"><ele>276.8333333333333</ele><time>2026-04-12T10:18:54.061Z</time></trkpt><trkpt lat="44.6397667" lon="7.9906833"><ele>280.0</ele><time>2026-04-12T10:18:56.062Z</time></trkpt><trkpt lat="44.6396817" lon="7.9907233"><ele>280.0</ele><time>2026-04-12T10:18:59.062Z</time></trkpt><trkpt lat="44.639605" lon="7.9907167"><ele>280.0</ele><time>2026-04-12T10:19:03.065Z</time></trkpt><trkpt lat="44.639545" lon="7.9906417"><ele>280.0</ele><time>2026-04-12T10:19:06.059Z</time></trkpt><trkpt lat="44.6394633" lon="7.9906183"><ele>280.0</ele><time>2026-04-12T10:19:09.061Z</time></trkpt><trkpt lat="44.639405" lon="7.9906717"><ele>280.0</ele><time>2026-04-12T10:19:11.06Z</time></trkpt><trkpt lat="44.639345" lon="7.990735"><ele>280.0</ele><time>2026-04-12T10:19:13.062Z</time></trkpt><trkpt lat="44.639285" lon="7.9908"><ele>282.0</ele><time>2026-04-12T10:19:15.063Z</time></trkpt><trkpt lat="44.6392283" lon="7.990865"><ele>284.0</ele><time>2026-04-12T10:19:17.062Z</time></trkpt><trkpt lat="44.6391867" lon="7.9909383"><ele>286.0</ele><time>2026-04-12T10:19:19.063Z</time></trkpt><trkpt lat="44.6391467" lon="7.99102"><ele>288.0</ele><time>2026-04-12T10:19:21.064Z</time></trkpt><trkpt lat="44.6391067" lon="7.9911067"><ele>290.0</ele><time>2026-04-12T10:19:23.06Z</time></trkpt><trkpt lat="44.639065" lon="7.991195"><ele>292.0</ele><time>2026-04-12T10:19:25.062Z</time></trkpt><trkpt lat="44.639025" lon="7.9912783"><ele>294.0</ele><time>2026-04-12T10:19:27.061Z</time></trkpt><trkpt lat="44.6389883" lon="7.991365"><ele>294.0</ele><time>2026-04-12T10:19:29.061Z</time></trkpt><trkpt lat="44.638945" lon="7.9914517"><ele>294.0</ele><time>2026-04-12T10:19:31.061Z</time></trkpt><trkpt lat="44.6389083" lon="7.9915333"><ele>294.0</ele><time>2026-04-12T10:19:33.062Z</time></trkpt><trkpt lat="44.63887" lon="7.9916133"><ele>294.0</ele><time>2026-04-12T10:19:35.062Z</time></trkpt><trkpt lat="44.6388317" lon="7.99169"><ele>294.0</ele><time>2026-04-12T10:19:37.063Z</time></trkpt><trkpt lat="44.6387933" lon="7.9917617"><ele>294.0</ele><time>2026-04-12T10:19:39.063Z</time></trkpt><trkpt lat="44.63876" lon="7.9918383"><ele>294.0</ele><time>2026-04-12T10:19:41.064Z</time></trkpt><trkpt lat="44.6387067" lon="7.9919433"><ele>293.8333333333333</ele><time>2026-04-12T10:19:44.062Z</time></trkpt><trkpt lat="44.6386667" lon="7.992015"><ele>293.6666666666667</ele><time>2026-04-12T10:19:46.063Z</time></trkpt><trkpt lat="44.63861" lon="7.9921183"><ele>293.5</ele><time>2026-04-12T10:19:49.064Z</time></trkpt><trkpt lat="44.638565" lon="7.9922267"><ele>293.33333333333337</ele><time>2026-04-12T10:19:52.06Z</time></trkpt><trkpt lat="44.6385183" lon="7.9923417"><ele>293.1666666666667</ele><time>2026-04-12T10:19:55.065Z</time></trkpt><trkpt lat="44.6384683" lon="7.9924583"><ele>293.0</ele><time>2026-04-12T10:19:58.062Z</time></trkpt><trkpt lat="44.6384083" lon="7.9925467"><ele>292.0</ele><time>2026-04-12T10:20:00.06Z</time></trkpt><trkpt lat="44.6383183" lon="7.9926433"><ele>291.0</ele><time>2026-04-12T10:20:02.061Z</time></trkpt><trkpt lat="44.638225" lon="7.992755"><ele>290.0</ele><time>2026-04-12T10:20:04.063Z</time></trkpt><trkpt lat="44.6381333" lon="7.9928717"><ele>289.0</ele><time>2026-04-12T10:20:06.061Z</time></trkpt><trkpt lat="44.63804" lon="7.9929817"><ele>289.0</ele><time>2026-04-12T10:20:08.062Z</time></trkpt><trkpt lat="44.63795" lon="7.9930967"><ele>289.0</ele><time>2026-04-12T10:20:10.063Z</time></trkpt><trkpt lat="44.6378783" lon="7.9932183"><ele>289.0</ele><time>2026-04-12T10:20:12.063Z</time></trkpt><trkpt lat="44.6378233" lon="7.9933367"><ele>289.0</ele><time>2026-04-12T10:20:14.063Z</time></trkpt><trkpt lat="44.6377633" lon="7.9934417"><ele>289.0</ele><time>2026-04-12T10:20:16.062Z</time></trkpt><trkpt lat="44.6377083" lon="7.99354"><ele>290.57142857142856</ele><time>2026-04-12T10:20:18.062Z</time></trkpt><trkpt lat="44.63766" lon="7.993625"><ele>292.1428571428571</ele><time>2026-04-12T10:20:20.062Z</time></trkpt><trkpt lat="44.63761" lon="7.9937117"><ele>293.71428571428567</ele><time>2026-04-12T10:20:22.061Z</time></trkpt><trkpt lat="44.637565" lon="7.9937983"><ele>295.2857142857143</ele><time>2026-04-12T10:20:24.061Z</time></trkpt><trkpt lat="44.6375283" lon="7.993875"><ele>296.85714285714283</ele><time>2026-04-12T10:20:26.062Z</time></trkpt><trkpt lat="44.6374833" lon="7.9939683"><ele>298.4285714285714</ele><time>2026-04-12T10:20:29.062Z</time></trkpt><trkpt lat="44.6374467" lon="7.9940517"><ele>300.0</ele><time>2026-04-12T10:20:32.067Z</time></trkpt><trkpt lat="44.6374017" lon="7.994115"><ele>300.2857142857143</ele><time>2026-04-12T10:20:35.06Z</time></trkpt><trkpt lat="44.63736" lon="7.9941867"><ele>300.57142857142856</ele><time>2026-04-12T10:20:38.064Z</time></trkpt><trkpt lat="44.637315" lon="7.9942683"><ele>300.8571428571429</ele><time>2026-04-12T10:20:42.062Z</time></trkpt><trkpt lat="44.6372867" lon="7.9943667"><ele>301.1428571428571</ele><time>2026-04-12T10:20:46.065Z</time></trkpt><trkpt lat="44.6372567" lon="7.994455"><ele>301.42857142857144</ele><time>2026-04-12T10:20:50.058Z</time></trkpt><trkpt lat="44.6372383" lon="7.9945483"><ele>301.7142857142857</ele><time>2026-04-12T10:20:54.066Z</time></trkpt><trkpt lat="44.6371983" lon="7.9946383"><ele>302.0</ele><time>2026-04-12T10:20:58.065Z</time></trkpt><trkpt lat="44.6371533" lon="7.9947067"><ele>302.00000000000006</ele><time>2026-04-12T10:21:01.063Z</time></trkpt><trkpt lat="44.637085" lon="7.9947583"><ele>302.0</ele><time>2026-04-12T10:21:04.062Z</time></trkpt><trkpt lat="44.6370217" lon="7.994795"><ele>302.0</ele><time>2026-04-12T10:21:06.062Z</time></trkpt><trkpt lat="44.6369583" lon="7.99485"><ele>302.0</ele><time>2026-04-12T10:21:08.063Z</time></trkpt><trkpt lat="44.6368983" lon="7.9948933"><ele>302.0</ele><time>2026-04-12T10:21:10.061Z</time></trkpt><trkpt lat="44.6368333" lon="7.9949383"><ele>302.00000000000006</ele><time>2026-04-12T10:21:12.065Z</time></trkpt><trkpt lat="44.636765" lon="7.9949667"><ele>302.0</ele><time>2026-04-12T10:21:14.061Z</time></trkpt><trkpt lat="44.6366933" lon="7.994995"><ele>301.14285714285717</ele><time>2026-04-12T10:21:16.062Z</time></trkpt><trkpt lat="44.6366183" lon="7.9950217"><ele>300.2857142857143</ele><time>2026-04-12T10:21:18.062Z</time></trkpt><trkpt lat="44.6365483" lon="7.9950483"><ele>299.42857142857144</ele><time>2026-04-12T10:21:20.061Z</time></trkpt><trkpt lat="44.6364833" lon="7.99508"><ele>298.57142857142856</ele><time>2026-04-12T10:21:22.062Z</time></trkpt><trkpt lat="44.6364167" lon="7.9951083"><ele>297.7142857142857</ele><time>2026-04-12T10:21:24.062Z</time></trkpt><trkpt lat="44.6363583" lon="7.9951417"><ele>296.8571428571429</ele><time>2026-04-12T10:21:26.06Z</time></trkpt><trkpt lat="44.6362767" lon="7.99519"><ele>296.0</ele><time>2026-04-12T10:21:29.059Z</time></trkpt><trkpt lat="44.6361967" lon="7.9952367"><ele>297.83333333333337</ele><time>2026-04-12T10:21:32.064Z</time></trkpt><trkpt lat="44.63612" lon="7.995285"><ele>299.6666666666667</ele><time>2026-04-12T10:21:35.064Z</time></trkpt><trkpt lat="44.6360383" lon="7.9952983"><ele>301.5</ele><time>2026-04-12T10:21:39.064Z</time></trkpt><trkpt lat="44.6359767" lon="7.99526"><ele>303.3333333333333</ele><time>2026-04-12T10:21:43.063Z</time></trkpt><trkpt lat="44.6359183" lon="7.9952183"><ele>305.16666666666663</ele><time>2026-04-12T10:21:47.062Z</time></trkpt><trkpt lat="44.6358617" lon="7.9951467"><ele>307.0</ele><time>2026-04-12T10:21:50.064Z</time></trkpt><trkpt lat="44.6357783" lon="7.9950933"><ele>306.99999999999994</ele><time>2026-04-12T10:21:53.063Z</time></trkpt><trkpt lat="44.6357217" lon="7.9950433"><ele>307.0</ele><time>2026-04-12T10:21:55.061Z</time></trkpt><trkpt lat="44.6356583" lon="7.9949883"><ele>307.0</ele><time>2026-04-12T10:21:57.062Z</time></trkpt><trkpt lat="44.6355967" lon="7.9949317"><ele>307.0</ele><time>2026-04-12T10:21:59.06Z</time></trkpt><trkpt lat="44.6355333" lon="7.9948817"><ele>307.0</ele><time>2026-04-12T10:22:01.064Z</time></trkpt><trkpt lat="44.63547" lon="7.99482"><ele>306.99999999999994</ele><time>2026-04-12T10:22:03.063Z</time></trkpt><trkpt lat="44.63541" lon="7.9947383"><ele>307.0</ele><time>2026-04-12T10:22:05.062Z</time></trkpt><trkpt lat="44.635355" lon="7.9946367"><ele>306.3333333333333</ele><time>2026-04-12T10:22:07.062Z</time></trkpt><trkpt lat="44.6353" lon="7.99453"><ele>305.66666666666663</ele><time>2026-04-12T10:22:09.064Z</time></trkpt><trkpt lat="44.6352533" lon="7.9944267"><ele>305.0</ele><time>2026-04-12T10:22:11.06Z</time></trkpt><trkpt lat="44.6352067" lon="7.99432"><ele>304.3333333333333</ele><time>2026-04-12T10:22:13.062Z</time></trkpt><trkpt lat="44.6351533" lon="7.99422"><ele>303.6666666666667</ele><time>2026-04-12T10:22:15.066Z</time></trkpt><trkpt lat="44.6350933" lon="7.9941433"><ele>303.0</ele><time>2026-04-12T10:22:17.061Z</time></trkpt><trkpt lat="44.635015" lon="7.9940733"><ele>304.3333333333333</ele><time>2026-04-12T10:22:19.063Z</time></trkpt><trkpt lat="44.63492" lon="7.9939967"><ele>305.6666666666667</ele><time>2026-04-12T10:22:21.062Z</time></trkpt><trkpt lat="44.634805" lon="7.9939267"><ele>307.0</ele><time>2026-04-12T10:22:23.061Z</time></trkpt><trkpt lat="44.6347433" lon="7.9939"><ele>308.33333333333337</ele><time>2026-04-12T10:22:24.062Z</time></trkpt><trkpt lat="44.634675" lon="7.9938767"><ele>309.6666666666667</ele><time>2026-04-12T10:22:25.063Z</time></trkpt><trkpt lat="44.6346083" lon="7.9938533"><ele>311.0</ele><time>2026-04-12T10:22:26.062Z</time></trkpt><trkpt lat="44.6345383" lon="7.993835"><ele>310.0</ele><time>2026-04-12T10:22:27.063Z</time></trkpt><trkpt lat="44.63447" lon="7.99381"><ele>309.0</ele><time>2026-04-12T10:22:28.061Z</time></trkpt><trkpt lat="44.6344067" lon="7.9937833"><ele>308.0</ele><time>2026-04-12T10:22:29.061Z</time></trkpt><trkpt lat="44.6343467" lon="7.9937483"><ele>307.0</ele><time>2026-04-12T10:22:30.059Z</time></trkpt><trkpt lat="44.6342333" lon="7.9936667"><ele>306.0</ele><time>2026-04-12T10:22:32.061Z</time></trkpt><trkpt lat="44.6341333" lon="7.9935717"><ele>306.0</ele><time>2026-04-12T10:22:34.063Z</time></trkpt><trkpt lat="44.63404" lon="7.9934783"><ele>306.0</ele><time>2026-04-12T10:22:36.061Z</time></trkpt><trkpt lat="44.633945" lon="7.99338"><ele>306.0</ele><time>2026-04-12T10:22:38.061Z</time></trkpt><trkpt lat="44.6338533" lon="7.9932783"><ele>306.0</ele><time>2026-04-12T10:22:40.061Z</time></trkpt><trkpt lat="44.63376" lon="7.99319"><ele>306.40000000000003</ele><time>2026-04-12T10:22:42.062Z</time></trkpt><trkpt lat="44.6336683" lon="7.9931033"><ele>306.8</ele><time>2026-04-12T10:22:44.06Z</time></trkpt><trkpt lat="44.6335683" lon="7.9930233"><ele>307.20000000000005</ele><time>2026-04-12T10:22:46.063Z</time></trkpt><trkpt lat="44.6334683" lon="7.9929483"><ele>307.6</ele><time>2026-04-12T10:22:48.063Z</time></trkpt><trkpt lat="44.633375" lon="7.9928867"><ele>308.0</ele><time>2026-04-12T10:22:50.063Z</time></trkpt><trkpt lat="44.6332783" lon="7.99282"><ele>308.0</ele><time>2026-04-12T10:22:52.062Z</time></trkpt><trkpt lat="44.63318" lon="7.9927467"><ele>308.0</ele><time>2026-04-12T10:22:54.061Z</time></trkpt><trkpt lat="44.6330667" lon="7.99273"><ele>308.0</ele><time>2026-04-12T10:22:56.065Z</time></trkpt><trkpt lat="44.6329467" lon="7.9927367"><ele>308.0</ele><time>2026-04-12T10:22:58.062Z</time></trkpt><trkpt lat="44.6328333" lon="7.992745"><ele>307.0</ele><time>2026-04-12T10:23:00.063Z</time></trkpt><trkpt lat="44.6327133" lon="7.9927467"><ele>306.0</ele><time>2026-04-12T10:23:02.061Z</time></trkpt><trkpt lat="44.6326483" lon="7.9927417"><ele>305.0</ele><time>2026-04-12T10:23:03.065Z</time></trkpt><trkpt lat="44.63258" lon="7.992735"><ele>304.0</ele><time>2026-04-12T10:23:04.064Z</time></trkpt><trkpt lat="44.6325067" lon="7.9927133"><ele>303.0</ele><time>2026-04-12T10:23:05.063Z</time></trkpt><trkpt lat="44.6324333" lon="7.9926883"><ele>302.0</ele><time>2026-04-12T10:23:06.063Z</time></trkpt><trkpt lat="44.6323517" lon="7.992665"><ele>302.0</ele><time>2026-04-12T10:23:07.06Z</time></trkpt><trkpt lat="44.63227" lon="7.9926417"><ele>302.0</ele><time>2026-04-12T10:23:08.062Z</time></trkpt><trkpt lat="44.6321917" lon="7.9926233"><ele>302.0</ele><time>2026-04-12T10:23:09.062Z</time></trkpt><trkpt lat="44.63211" lon="7.9926017"><ele>302.0</ele><time>2026-04-12T10:23:10.062Z</time></trkpt><trkpt lat="44.6320433" lon="7.9925817"><ele>302.0</ele><time>2026-04-12T10:23:11.063Z</time></trkpt><trkpt lat="44.6319367" lon="7.99254"><ele>302.0</ele><time>2026-04-12T10:23:13.065Z</time></trkpt><trkpt lat="44.6318617" lon="7.99249"><ele>301.6666666666667</ele><time>2026-04-12T10:23:16.064Z</time></trkpt><trkpt lat="44.631815" lon="7.9924017"><ele>301.33333333333337</ele><time>2026-04-12T10:23:50.063Z</time></trkpt><trkpt lat="44.6317317" lon="7.9923567"><ele>301.0</ele><time>2026-04-12T10:23:53.065Z</time></trkpt><trkpt lat="44.6316683" lon="7.9923167"><ele>300.6666666666667</ele><time>2026-04-12T10:23:55.061Z</time></trkpt><trkpt lat="44.6315983" lon="7.9922767"><ele>300.3333333333333</ele><time>2026-04-12T10:23:57.065Z</time></trkpt><trkpt lat="44.63153" lon="7.9922283"><ele>300.0</ele><time>2026-04-12T10:23:59.062Z</time></trkpt><trkpt lat="44.6314617" lon="7.9921767"><ele>300.0</ele><time>2026-04-12T10:24:01.063Z</time></trkpt><trkpt lat="44.6313967" lon="7.9921233"><ele>300.0</ele><time>2026-04-12T10:24:03.062Z</time></trkpt><trkpt lat="44.63133" lon="7.992075"><ele>300.0</ele><time>2026-04-12T10:24:05.062Z</time></trkpt><trkpt lat="44.63126" lon="7.99202"><ele>300.0</ele><time>2026-04-12T10:24:07.063Z</time></trkpt><trkpt lat="44.63119" lon="7.991965"><ele>300.0</ele><time>2026-04-12T10:24:09.067Z</time></trkpt><trkpt lat="44.6311167" lon="7.9919083"><ele>300.0</ele><time>2026-04-12T10:24:11.064Z</time></trkpt><trkpt lat="44.63104" lon="7.9918583"><ele>299.6666666666667</ele><time>2026-04-12T10:24:13.064Z</time></trkpt><trkpt lat="44.6309667" lon="7.9918133"><ele>299.3333333333333</ele><time>2026-04-12T10:24:15.065Z</time></trkpt><trkpt lat="44.6308867" lon="7.9917783"><ele>299.0</ele><time>2026-04-12T10:24:17.061Z</time></trkpt><trkpt lat="44.6308067" lon="7.9917533"><ele>298.66666666666663</ele><time>2026-04-12T10:24:19.062Z</time></trkpt><trkpt lat="44.6307217" lon="7.9917467"><ele>298.3333333333333</ele><time>2026-04-12T10:24:21.067Z</time></trkpt><trkpt lat="44.630645" lon="7.991755"><ele>298.0</ele><time>2026-04-12T10:24:23.062Z</time></trkpt><trkpt lat="44.6305667" lon="7.9917683"><ele>298.0</ele><time>2026-04-12T10:24:25.062Z</time></trkpt><trkpt lat="44.630495" lon="7.9917867"><ele>298.0</ele><time>2026-04-12T10:24:27.065Z</time></trkpt><trkpt lat="44.6304233" lon="7.9918033"><ele>298.0</ele><time>2026-04-12T10:24:29.063Z</time></trkpt><trkpt lat="44.6303533" lon="7.9918267"><ele>298.0</ele><time>2026-04-12T10:24:31.063Z</time></trkpt><trkpt lat="44.6302783" lon="7.9918483"><ele>298.0</ele><time>2026-04-12T10:24:33.064Z</time></trkpt><trkpt lat="44.63021" lon="7.9918617"><ele>298.0</ele><time>2026-04-12T10:24:35.061Z</time></trkpt><trkpt lat="44.630145" lon="7.9918783"><ele>298.0</ele><time>2026-04-12T10:24:37.063Z</time></trkpt><trkpt lat="44.6300817" lon="7.99189"><ele>299.1428571428571</ele><time>2026-04-12T10:24:39.063Z</time></trkpt><trkpt lat="44.6299917" lon="7.99191"><ele>300.2857142857143</ele><time>2026-04-12T10:24:42.062Z</time></trkpt><trkpt lat="44.62993" lon="7.9919283"><ele>301.42857142857144</ele><time>2026-04-12T10:24:44.064Z</time></trkpt><trkpt lat="44.6298667" lon="7.9919417"><ele>302.57142857142856</ele><time>2026-04-12T10:24:46.062Z</time></trkpt><trkpt lat="44.6297983" lon="7.991955"><ele>303.7142857142857</ele><time>2026-04-12T10:24:48.066Z</time></trkpt><trkpt lat="44.6297317" lon="7.99197"><ele>304.85714285714283</ele><time>2026-04-12T10:24:50.061Z</time></trkpt><trkpt lat="44.6296683" lon="7.991985"><ele>306.0</ele><time>2026-04-12T10:24:52.062Z</time></trkpt><trkpt lat="44.629605" lon="7.9919967"><ele>306.0</ele><time>2026-04-12T10:24:54.06Z</time></trkpt><trkpt lat="44.629535" lon="7.9920067"><ele>306.0</ele><time>2026-04-12T10:24:56.062Z</time></trkpt><trkpt lat="44.6294667" lon="7.9920133"><ele>306.0</ele><time>2026-04-12T10:24:58.061Z</time></trkpt><trkpt lat="44.6294033" lon="7.9920183"><ele>306.0</ele><time>2026-04-12T10:25:00.062Z</time></trkpt><trkpt lat="44.6293233" lon="7.9920233"><ele>306.0</ele><time>2026-04-12T10:25:02.062Z</time></trkpt><trkpt lat="44.62924" lon="7.99204"><ele>306.0</ele><time>2026-04-12T10:25:04.062Z</time></trkpt><trkpt lat="44.62916" lon="7.992055"><ele>306.0</ele><time>2026-04-12T10:25:06.064Z</time></trkpt><trkpt lat="44.6290833" lon="7.9920633"><ele>306.8333333333333</ele><time>2026-04-12T10:25:08.062Z</time></trkpt><trkpt lat="44.6289983" lon="7.992075"><ele>307.6666666666667</ele><time>2026-04-12T10:25:10.065Z</time></trkpt><trkpt lat="44.6289233" lon="7.992095"><ele>308.5</ele><time>2026-04-12T10:25:12.062Z</time></trkpt><trkpt lat="44.628845" lon="7.9921217"><ele>309.33333333333337</ele><time>2026-04-12T10:25:14.063Z</time></trkpt><trkpt lat="44.62877" lon="7.99214"><ele>310.1666666666667</ele><time>2026-04-12T10:25:16.061Z</time></trkpt><trkpt lat="44.6286983" lon="7.99216"><ele>311.0</ele><time>2026-04-12T10:25:18.062Z</time></trkpt><trkpt lat="44.6286317" lon="7.9921867"><ele>312.57142857142856</ele><time>2026-04-12T10:25:20.063Z</time></trkpt><trkpt lat="44.6285683" lon="7.9921983"><ele>314.14285714285717</ele><time>2026-04-12T10:25:22.064Z</time></trkpt><trkpt lat="44.6285" lon="7.9922367"><ele>315.7142857142857</ele><time>2026-04-12T10:25:24.062Z</time></trkpt><trkpt lat="44.6284333" lon="7.9922817"><ele>317.2857142857143</ele><time>2026-04-12T10:25:26.064Z</time></trkpt><trkpt lat="44.6283667" lon="7.9923233"><ele>318.8571428571429</ele><time>2026-04-12T10:25:28.063Z</time></trkpt><trkpt lat="44.6282983" lon="7.9923733"><ele>320.42857142857144</ele><time>2026-04-12T10:25:30.062Z</time></trkpt><trkpt lat="44.6282333" lon="7.9924217"><ele>322.0</ele><time>2026-04-12T10:25:32.063Z</time></trkpt><trkpt lat="44.62817" lon="7.9924683"><ele>321.2857142857143</ele><time>2026-04-12T10:25:34.062Z</time></trkpt><trkpt lat="44.628105" lon="7.992515"><ele>320.57142857142856</ele><time>2026-04-12T10:25:36.061Z</time></trkpt><trkpt lat="44.6280433" lon="7.9925533"><ele>319.8571428571429</ele><time>2026-04-12T10:25:38.061Z</time></trkpt><trkpt lat="44.6279817" lon="7.992595"><ele>319.1428571428571</ele><time>2026-04-12T10:25:40.061Z</time></trkpt><trkpt lat="44.6279167" lon="7.9926383"><ele>318.42857142857144</ele><time>2026-04-12T10:25:42.064Z</time></trkpt><trkpt lat="44.6278467" lon="7.99268"><ele>317.7142857142857</ele><time>2026-04-12T10:25:44.064Z</time></trkpt><trkpt lat="44.62778" lon="7.9927167"><ele>317.0</ele><time>2026-04-12T10:25:46.063Z</time></trkpt><trkpt lat="44.62771" lon="7.9927517"><ele>319.0</ele><time>2026-04-12T10:25:48.065Z</time></trkpt><trkpt lat="44.6276433" lon="7.9927933"><ele>321.0</ele><time>2026-04-12T10:25:50.062Z</time></trkpt><trkpt lat="44.6275833" lon="7.9928433"><ele>323.0</ele><time>2026-04-12T10:25:52.06Z</time></trkpt><trkpt lat="44.62752" lon="7.992895"><ele>325.0</ele><time>2026-04-12T10:25:54.062Z</time></trkpt><trkpt lat="44.62746" lon="7.9929467"><ele>327.0</ele><time>2026-04-12T10:25:56.062Z</time></trkpt><trkpt lat="44.6273967" lon="7.9929967"><ele>329.0</ele><time>2026-04-12T10:25:58.062Z</time></trkpt><trkpt lat="44.6273333" lon="7.993055"><ele>331.0</ele><time>2026-04-12T10:26:00.062Z</time></trkpt><trkpt lat="44.62727" lon="7.9931183"><ele>331.0</ele><time>2026-04-12T10:26:02.064Z</time></trkpt><trkpt lat="44.6272067" lon="7.993175"><ele>331.0</ele><time>2026-04-12T10:26:04.062Z</time></trkpt><trkpt lat="44.6271533" lon="7.9932517"><ele>331.0</ele><time>2026-04-12T10:26:06.062Z</time></trkpt><trkpt lat="44.6271117" lon="7.9933383"><ele>331.0</ele><time>2026-04-12T10:26:08.063Z</time></trkpt><trkpt lat="44.6270733" lon="7.993425"><ele>331.0</ele><time>2026-04-12T10:26:10.062Z</time></trkpt><trkpt lat="44.6270283" lon="7.9935117"><ele>331.0</ele><time>2026-04-12T10:26:12.061Z</time></trkpt><trkpt lat="44.6269883" lon="7.9936033"><ele>332.0</ele><time>2026-04-12T10:26:14.063Z</time></trkpt><trkpt lat="44.6269467" lon="7.9936867"><ele>333.0</ele><time>2026-04-12T10:26:16.061Z</time></trkpt><trkpt lat="44.6269067" lon="7.9937567"><ele>334.0</ele><time>2026-04-12T10:26:18.061Z</time></trkpt><trkpt lat="44.6268683" lon="7.993835"><ele>335.0</ele><time>2026-04-12T10:26:20.063Z</time></trkpt><trkpt lat="44.6268283" lon="7.9939083"><ele>336.0</ele><time>2026-04-12T10:26:22.063Z</time></trkpt><trkpt lat="44.626785" lon="7.993975"><ele>337.0</ele><time>2026-04-12T10:26:24.062Z</time></trkpt><trkpt lat="44.62675" lon="7.9940567"><ele>338.0</ele><time>2026-04-12T10:26:26.063Z</time></trkpt><trkpt lat="44.6267333" lon="7.9941483"><ele>338.57142857142856</ele><time>2026-04-12T10:26:28.063Z</time></trkpt><trkpt lat="44.6266983" lon="7.9942283"><ele>339.1428571428571</ele><time>2026-04-12T10:26:30.062Z</time></trkpt><trkpt lat="44.6266583" lon="7.9943017"><ele>339.71428571428567</ele><time>2026-04-12T10:26:32.065Z</time></trkpt><trkpt lat="44.6266217" lon="7.994375"><ele>340.2857142857143</ele><time>2026-04-12T10:26:34.065Z</time></trkpt><trkpt lat="44.62659" lon="7.9944583"><ele>340.85714285714283</ele><time>2026-04-12T10:26:36.065Z</time></trkpt><trkpt lat="44.6265533" lon="7.9945417"><ele>341.4285714285714</ele><time>2026-04-12T10:26:38.062Z</time></trkpt><trkpt lat="44.6265167" lon="7.9946267"><ele>342.0</ele><time>2026-04-12T10:26:40.061Z</time></trkpt><trkpt lat="44.6264883" lon="7.9947067"><ele>342.0</ele><time>2026-04-12T10:26:42.062Z</time></trkpt><trkpt lat="44.6264583" lon="7.9947967"><ele>342.0</ele><time>2026-04-12T10:26:44.063Z</time></trkpt><trkpt lat="44.6264333" lon="7.9949083"><ele>342.0</ele><time>2026-04-12T10:26:46.064Z</time></trkpt><trkpt lat="44.6264067" lon="7.9950283"><ele>342.0</ele><time>2026-04-12T10:26:48.063Z</time></trkpt><trkpt lat="44.6263767" lon="7.99514"><ele>342.0</ele><time>2026-04-12T10:26:50.062Z</time></trkpt><trkpt lat="44.6263483" lon="7.99525"><ele>342.0</ele><time>2026-04-12T10:26:52.064Z</time></trkpt><trkpt lat="44.6263183" lon="7.9953633"><ele>343.6666666666667</ele><time>2026-04-12T10:26:54.065Z</time></trkpt><trkpt lat="44.62629" lon="7.9954783"><ele>345.3333333333333</ele><time>2026-04-12T10:26:56.06Z</time></trkpt><trkpt lat="44.6262617" lon="7.9956"><ele>347.0</ele><time>2026-04-12T10:26:58.062Z</time></trkpt><trkpt lat="44.6262333" lon="7.99572"><ele>348.66666666666663</ele><time>2026-04-12T10:27:00.063Z</time></trkpt><trkpt lat="44.626205" lon="7.9958317"><ele>350.3333333333333</ele><time>2026-04-12T10:27:02.063Z</time></trkpt><trkpt lat="44.6261733" lon="7.99594"><ele>352.0</ele><time>2026-04-12T10:27:04.063Z</time></trkpt><trkpt lat="44.6261333" lon="7.99605"><ele>352.8333333333333</ele><time>2026-04-12T10:27:06.064Z</time></trkpt><trkpt lat="44.6260817" lon="7.9961367"><ele>353.66666666666663</ele><time>2026-04-12T10:27:08.062Z</time></trkpt><trkpt lat="44.626015" lon="7.9962033"><ele>354.5</ele><time>2026-04-12T10:27:10.061Z</time></trkpt><trkpt lat="44.6259333" lon="7.9962467"><ele>355.3333333333333</ele><time>2026-04-12T10:27:12.063Z</time></trkpt><trkpt lat="44.6258483" lon="7.996255"><ele>356.1666666666667</ele><time>2026-04-12T10:27:14.063Z</time></trkpt><trkpt lat="44.62576" lon="7.9962283"><ele>357.0</ele><time>2026-04-12T10:27:16.062Z</time></trkpt><trkpt lat="44.6256683" lon="7.9961917"><ele>357.0</ele><time>2026-04-12T10:27:18.06Z</time></trkpt><trkpt lat="44.62558" lon="7.99616"><ele>357.0</ele><time>2026-04-12T10:27:20.064Z</time></trkpt><trkpt lat="44.6254967" lon="7.9961283"><ele>357.0</ele><time>2026-04-12T10:27:22.063Z</time></trkpt><trkpt lat="44.6254083" lon="7.996105"><ele>357.0</ele><time>2026-04-12T10:27:24.06Z</time></trkpt><trkpt lat="44.62532" lon="7.9960783"><ele>357.0</ele><time>2026-04-12T10:27:26.063Z</time></trkpt><trkpt lat="44.6252283" lon="7.9960467"><ele>358.40000000000003</ele><time>2026-04-12T10:27:28.063Z</time></trkpt><trkpt lat="44.6251367" lon="7.9960217"><ele>359.8</ele><time>2026-04-12T10:27:30.061Z</time></trkpt><trkpt lat="44.6250333" lon="7.9959983"><ele>361.2</ele><time>2026-04-12T10:27:32.062Z</time></trkpt><trkpt lat="44.6249317" lon="7.9959717"><ele>362.6</ele><time>2026-04-12T10:27:34.065Z</time></trkpt><trkpt lat="44.6248333" lon="7.9959417"><ele>364.0</ele><time>2026-04-12T10:27:36.061Z</time></trkpt><trkpt lat="44.6247367" lon="7.995905"><ele>364.0</ele><time>2026-04-12T10:27:38.062Z</time></trkpt><trkpt lat="44.6246483" lon="7.9958567"><ele>364.0</ele><time>2026-04-12T10:27:40.062Z</time></trkpt><trkpt lat="44.624565" lon="7.9958033"><ele>364.0</ele><time>2026-04-12T10:27:42.062Z</time></trkpt><trkpt lat="44.6244767" lon="7.995745"><ele>364.0</ele><time>2026-04-12T10:27:44.062Z</time></trkpt><trkpt lat="44.624385" lon="7.9956817"><ele>364.0</ele><time>2026-04-12T10:27:46.061Z</time></trkpt><trkpt lat="44.6242933" lon="7.9956133"><ele>362.6</ele><time>2026-04-12T10:27:48.062Z</time></trkpt><trkpt lat="44.6242" lon="7.995545"><ele>361.2</ele><time>2026-04-12T10:27:50.062Z</time></trkpt><trkpt lat="44.6241067" lon="7.9954717"><ele>359.8</ele><time>2026-04-12T10:27:52.063Z</time></trkpt><trkpt lat="44.624015" lon="7.9953967"><ele>358.40000000000003</ele><time>2026-04-12T10:27:54.061Z</time></trkpt><trkpt lat="44.6239233" lon="7.99532"><ele>357.0</ele><time>2026-04-12T10:27:56.061Z</time></trkpt><trkpt lat="44.62383" lon="7.9952467"><ele>357.0</ele><time>2026-04-12T10:27:58.061Z</time></trkpt><trkpt lat="44.6237317" lon="7.9951667"><ele>357.0</ele><time>2026-04-12T10:28:00.062Z</time></trkpt><trkpt lat="44.62364" lon="7.995085"><ele>357.0</ele><time>2026-04-12T10:28:02.063Z</time></trkpt><trkpt lat="44.62355" lon="7.99501"><ele>357.0</ele><time>2026-04-12T10:28:04.061Z</time></trkpt><trkpt lat="44.6234583" lon="7.994935"><ele>357.0</ele><time>2026-04-12T10:28:06.063Z</time></trkpt><trkpt lat="44.6233683" lon="7.99486"><ele>356.20000000000005</ele><time>2026-04-12T10:28:08.061Z</time></trkpt><trkpt lat="44.6232783" lon="7.994785"><ele>355.4</ele><time>2026-04-12T10:28:10.062Z</time></trkpt><trkpt lat="44.6231883" lon="7.99471"><ele>354.6</ele><time>2026-04-12T10:28:12.061Z</time></trkpt><trkpt lat="44.62309" lon="7.9946483"><ele>353.79999999999995</ele><time>2026-04-12T10:28:14.061Z</time></trkpt><trkpt lat="44.6229917" lon="7.9945933"><ele>353.0</ele><time>2026-04-12T10:28:16.061Z</time></trkpt><trkpt lat="44.6228917" lon="7.9945467"><ele>354.59999999999997</ele><time>2026-04-12T10:28:18.061Z</time></trkpt><trkpt lat="44.6227917" lon="7.9945183"><ele>356.2</ele><time>2026-04-12T10:28:20.062Z</time></trkpt><trkpt lat="44.62269" lon="7.994505"><ele>357.8</ele><time>2026-04-12T10:28:22.064Z</time></trkpt><trkpt lat="44.622585" lon="7.9945083"><ele>359.4</ele><time>2026-04-12T10:28:24.061Z</time></trkpt><trkpt lat="44.6224883" lon="7.99452"><ele>361.0</ele><time>2026-04-12T10:28:26.063Z</time></trkpt><trkpt lat="44.6223917" lon="7.9945433"><ele>361.0</ele><time>2026-04-12T10:28:28.062Z</time></trkpt><trkpt lat="44.622295" lon="7.994595"><ele>361.0</ele><time>2026-04-12T10:28:30.061Z</time></trkpt><trkpt lat="44.622205" lon="7.9946433"><ele>361.0</ele><time>2026-04-12T10:28:32.062Z</time></trkpt><trkpt lat="44.62211" lon="7.9947083"><ele>361.0</ele><time>2026-04-12T10:28:34.06Z</time></trkpt><trkpt lat="44.6220217" lon="7.9947783"><ele>361.0</ele><time>2026-04-12T10:28:36.063Z</time></trkpt><trkpt lat="44.6219217" lon="7.9948533"><ele>358.75</ele><time>2026-04-12T10:28:38.06Z</time></trkpt><trkpt lat="44.6218233" lon="7.9949267"><ele>356.5</ele><time>2026-04-12T10:28:40.061Z</time></trkpt><trkpt lat="44.62172" lon="7.995"><ele>354.25</ele><time>2026-04-12T10:28:42.062Z</time></trkpt><trkpt lat="44.6216183" lon="7.9950767"><ele>352.0</ele><time>2026-04-12T10:28:44.062Z</time></trkpt><trkpt lat="44.62151" lon="7.9951483"><ele>351.8</ele><time>2026-04-12T10:28:46.061Z</time></trkpt><trkpt lat="44.6213983" lon="7.9952183"><ele>351.6</ele><time>2026-04-12T10:28:48.061Z</time></trkpt><trkpt lat="44.62134" lon="7.995255"><ele>351.40000000000003</ele><time>2026-04-12T10:28:49.061Z</time></trkpt><trkpt lat="44.6212233" lon="7.995315"><ele>351.20000000000005</ele><time>2026-04-12T10:28:51.063Z</time></trkpt><trkpt lat="44.62111" lon="7.9953583"><ele>351.0</ele><time>2026-04-12T10:28:53.06Z</time></trkpt><trkpt lat="44.620995" lon="7.9953867"><ele>352.20000000000005</ele><time>2026-04-12T10:28:55.062Z</time></trkpt><trkpt lat="44.6208833" lon="7.9954"><ele>353.40000000000003</ele><time>2026-04-12T10:28:57.063Z</time></trkpt><trkpt lat="44.6207733" lon="7.9953967"><ele>354.6</ele><time>2026-04-12T10:28:59.062Z</time></trkpt><trkpt lat="44.6206667" lon="7.995375"><ele>355.8</ele><time>2026-04-12T10:29:01.065Z</time></trkpt><trkpt lat="44.6205617" lon="7.99536"><ele>357.0</ele><time>2026-04-12T10:29:03.062Z</time></trkpt><trkpt lat="44.6204667" lon="7.9953617"><ele>357.0</ele><time>2026-04-12T10:29:05.06Z</time></trkpt><trkpt lat="44.6203783" lon="7.995365"><ele>357.0</ele><time>2026-04-12T10:29:07.061Z</time></trkpt><trkpt lat="44.6202833" lon="7.99537"><ele>357.0</ele><time>2026-04-12T10:29:09.061Z</time></trkpt><trkpt lat="44.620195" lon="7.9953867"><ele>357.0</ele><time>2026-04-12T10:29:11.06Z</time></trkpt><trkpt lat="44.6201033" lon="7.995405"><ele>357.0</ele><time>2026-04-12T10:29:13.061Z</time></trkpt><trkpt lat="44.6200183" lon="7.9954233"><ele>358.3333333333333</ele><time>2026-04-12T10:29:15.065Z</time></trkpt><trkpt lat="44.619935" lon="7.99544"><ele>359.6666666666667</ele><time>2026-04-12T10:29:17.061Z</time></trkpt><trkpt lat="44.6198467" lon="7.9954583"><ele>361.0</ele><time>2026-04-12T10:29:19.064Z</time></trkpt><trkpt lat="44.61976" lon="7.995475"><ele>362.33333333333337</ele><time>2026-04-12T10:29:21.065Z</time></trkpt><trkpt lat="44.6196733" lon="7.9954917"><ele>363.6666666666667</ele><time>2026-04-12T10:29:23.064Z</time></trkpt><trkpt lat="44.6195933" lon="7.9955067"><ele>365.0</ele><time>2026-04-12T10:29:25.062Z</time></trkpt><trkpt lat="44.619515" lon="7.9955217"><ele>365.1666666666667</ele><time>2026-04-12T10:29:27.065Z</time></trkpt><trkpt lat="44.61944" lon="7.99554"><ele>365.33333333333337</ele><time>2026-04-12T10:29:29.056Z</time></trkpt><trkpt lat="44.6193617" lon="7.9955767"><ele>365.5</ele><time>2026-04-12T10:29:31.062Z</time></trkpt><trkpt lat="44.61929" lon="7.9956283"><ele>365.6666666666667</ele><time>2026-04-12T10:29:33.062Z</time></trkpt><trkpt lat="44.61923" lon="7.9957033"><ele>365.8333333333333</ele><time>2026-04-12T10:29:35.06Z</time></trkpt><trkpt lat="44.61918" lon="7.9957933"><ele>366.0</ele><time>2026-04-12T10:29:37.063Z</time></trkpt><trkpt lat="44.6191417" lon="7.9958967"><ele>366.0</ele><time>2026-04-12T10:29:39.062Z</time></trkpt><trkpt lat="44.6191183" lon="7.9960067"><ele>366.0</ele><time>2026-04-12T10:29:41.063Z</time></trkpt><trkpt lat="44.6191117" lon="7.9961267"><ele>366.0</ele><time>2026-04-12T10:29:43.063Z</time></trkpt><trkpt lat="44.6191117" lon="7.996245"><ele>366.0</ele><time>2026-04-12T10:29:45.062Z</time></trkpt><trkpt lat="44.6191217" lon="7.9963583"><ele>366.0</ele><time>2026-04-12T10:29:47.061Z</time></trkpt><trkpt lat="44.6191233" lon="7.9964683"><ele>366.0</ele><time>2026-04-12T10:29:49.063Z</time></trkpt><trkpt lat="44.61912" lon="7.9965767"><ele>367.0</ele><time>2026-04-12T10:29:51.063Z</time></trkpt><trkpt lat="44.619115" lon="7.996685"><ele>368.0</ele><time>2026-04-12T10:29:53.062Z</time></trkpt><trkpt lat="44.619105" lon="7.9967933"><ele>369.0</ele><time>2026-04-12T10:29:55.063Z</time></trkpt><trkpt lat="44.6190933" lon="7.996895"><ele>370.0</ele><time>2026-04-12T10:29:57.063Z</time></trkpt><trkpt lat="44.6190783" lon="7.9970017"><ele>371.0</ele><time>2026-04-12T10:29:59.063Z</time></trkpt><trkpt lat="44.61906" lon="7.9971017"><ele>372.0</ele><time>2026-04-12T10:30:01.064Z</time></trkpt><trkpt lat="44.619035" lon="7.9972017"><ele>372.0</ele><time>2026-04-12T10:30:03.064Z</time></trkpt><trkpt lat="44.6190083" lon="7.9972983"><ele>372.0</ele><time>2026-04-12T10:30:05.061Z</time></trkpt><trkpt lat="44.6189683" lon="7.997395"><ele>372.0</ele><time>2026-04-12T10:30:07.058Z</time></trkpt><trkpt lat="44.61893" lon="7.997485"><ele>372.0</ele><time>2026-04-12T10:30:09.063Z</time></trkpt><trkpt lat="44.61889" lon="7.9975733"><ele>372.0</ele><time>2026-04-12T10:30:11.061Z</time></trkpt><trkpt lat="44.6188483" lon="7.9976633"><ele>372.0</ele><time>2026-04-12T10:30:13.064Z</time></trkpt><trkpt lat="44.6188067" lon="7.9977483"><ele>371.8571428571429</ele><time>2026-04-12T10:30:15.063Z</time></trkpt><trkpt lat="44.6187617" lon="7.9978267"><ele>371.7142857142857</ele><time>2026-04-12T10:30:17.06Z</time></trkpt><trkpt lat="44.6187167" lon="7.997905"><ele>371.57142857142856</ele><time>2026-04-12T10:30:19.064Z</time></trkpt><trkpt lat="44.6186717" lon="7.9979817"><ele>371.42857142857144</ele><time>2026-04-12T10:30:21.062Z</time></trkpt><trkpt lat="44.6186217" lon="7.9980533"><ele>371.2857142857143</ele><time>2026-04-12T10:30:23.06Z</time></trkpt><trkpt lat="44.6185633" lon="7.99812"><ele>371.14285714285717</ele><time>2026-04-12T10:30:25.062Z</time></trkpt><trkpt lat="44.6184983" lon="7.9981867"><ele>371.0</ele><time>2026-04-12T10:30:27.065Z</time></trkpt><trkpt lat="44.6184383" lon="7.9982517"><ele>371.33333333333337</ele><time>2026-04-12T10:30:29.061Z</time></trkpt><trkpt lat="44.61837" lon="7.9983133"><ele>371.6666666666667</ele><time>2026-04-12T10:30:31.062Z</time></trkpt><trkpt lat="44.6182983" lon="7.998375"><ele>372.0</ele><time>2026-04-12T10:30:33.062Z</time></trkpt><trkpt lat="44.6182233" lon="7.998435"><ele>372.3333333333333</ele><time>2026-04-12T10:30:35.06Z</time></trkpt><trkpt lat="44.6181417" lon="7.9984833"><ele>372.66666666666663</ele><time>2026-04-12T10:30:37.063Z</time></trkpt><trkpt lat="44.6180533" lon="7.9985333"><ele>373.0</ele><time>2026-04-12T10:30:39.062Z</time></trkpt><trkpt lat="44.6179567" lon="7.9985783"><ele>373.0</ele><time>2026-04-12T10:30:41.062Z</time></trkpt><trkpt lat="44.6178517" lon="7.99862"><ele>373.0</ele><time>2026-04-12T10:30:43.063Z</time></trkpt><trkpt lat="44.61774" lon="7.99866"><ele>373.0</ele><time>2026-04-12T10:30:45.062Z</time></trkpt><trkpt lat="44.617625" lon="7.9986967"><ele>373.0</ele><time>2026-04-12T10:30:47.062Z</time></trkpt><trkpt lat="44.61751" lon="7.9987483"><ele>373.0</ele><time>2026-04-12T10:30:49.062Z</time></trkpt><trkpt lat="44.6174017" lon="7.998815"><ele>373.0</ele><time>2026-04-12T10:30:51.063Z</time></trkpt><trkpt lat="44.617295" lon="7.9989017"><ele>373.0</ele><time>2026-04-12T10:30:53.06Z</time></trkpt><trkpt lat="44.6171983" lon="7.9990067"><ele>373.0</ele><time>2026-04-12T10:30:55.062Z</time></trkpt><trkpt lat="44.6171117" lon="7.9991267"><ele>374.75</ele><time>2026-04-12T10:30:57.062Z</time></trkpt><trkpt lat="44.6170433" lon="7.9992567"><ele>376.5</ele><time>2026-04-12T10:30:59.062Z</time></trkpt><trkpt lat="44.616975" lon="7.9993933"><ele>378.25</ele><time>2026-04-12T10:31:01.063Z</time></trkpt><trkpt lat="44.6169133" lon="7.9995233"><ele>380.0</ele><time>2026-04-12T10:31:03.064Z</time></trkpt><trkpt lat="44.6168517" lon="7.9996567"><ele>380.0</ele><time>2026-04-12T10:31:05.068Z</time></trkpt><trkpt lat="44.6167917" lon="7.9997883"><ele>380.0</ele><time>2026-04-12T10:31:07.065Z</time></trkpt><trkpt lat="44.6167233" lon="7.999905"><ele>380.0</ele><time>2026-04-12T10:31:09.065Z</time></trkpt><trkpt lat="44.6166533" lon="8.0000133"><ele>380.0</ele><time>2026-04-12T10:31:11.062Z</time></trkpt><trkpt lat="44.6165783" lon="8.0001083"><ele>380.0</ele><time>2026-04-12T10:31:13.062Z</time></trkpt><trkpt lat="44.6165033" lon="8.0001917"><ele>380.0</ele><time>2026-04-12T10:31:15.065Z</time></trkpt><trkpt lat="44.61642" lon="8.000265"><ele>380.0</ele><time>2026-04-12T10:31:17.06Z</time></trkpt><trkpt lat="44.6163333" lon="8.00033"><ele>380.0</ele><time>2026-04-12T10:31:19.063Z</time></trkpt><trkpt lat="44.61625" lon="8.000405"><ele>380.0</ele><time>2026-04-12T10:31:21.063Z</time></trkpt><trkpt lat="44.616155" lon="8.00047"><ele>380.0</ele><time>2026-04-12T10:31:23.062Z</time></trkpt><trkpt lat="44.6160633" lon="8.00053"><ele>377.4</ele><time>2026-04-12T10:31:25.064Z</time></trkpt><trkpt lat="44.6159667" lon="8.0005767"><ele>374.8</ele><time>2026-04-12T10:31:27.064Z</time></trkpt><trkpt lat="44.6158733" lon="8.0006233"><ele>372.20000000000005</ele><time>2026-04-12T10:31:29.062Z</time></trkpt><trkpt lat="44.6157783" lon="8.0006717"><ele>369.6</ele><time>2026-04-12T10:31:31.064Z</time></trkpt><trkpt lat="44.6156883" lon="8.0007217"><ele>367.0</ele><time>2026-04-12T10:31:33.066Z</time></trkpt><trkpt lat="44.6156" lon="8.000765"><ele>367.0</ele><time>2026-04-12T10:31:35.06Z</time></trkpt><trkpt lat="44.6155117" lon="8.0007983"><ele>367.0</ele><time>2026-04-12T10:31:37.067Z</time></trkpt><trkpt lat="44.61542" lon="8.0008317"><ele>367.0</ele><time>2026-04-12T10:31:39.062Z</time></trkpt><trkpt lat="44.61533" lon="8.000875"><ele>367.0</ele><time>2026-04-12T10:31:41.063Z</time></trkpt><trkpt lat="44.6152383" lon="8.000915"><ele>367.0</ele><time>2026-04-12T10:31:43.063Z</time></trkpt><trkpt lat="44.61515" lon="8.0009583"><ele>370.0</ele><time>2026-04-12T10:31:45.063Z</time></trkpt><trkpt lat="44.61506" lon="8.0010067"><ele>373.0</ele><time>2026-04-12T10:31:47.062Z</time></trkpt><trkpt lat="44.61497" lon="8.0010467"><ele>376.0</ele><time>2026-04-12T10:31:49.063Z</time></trkpt><trkpt lat="44.6148733" lon="8.0010817"><ele>379.0</ele><time>2026-04-12T10:31:51.062Z</time></trkpt><trkpt lat="44.6147733" lon="8.001115"><ele>382.0</ele><time>2026-04-12T10:31:53.061Z</time></trkpt><trkpt lat="44.6146733" lon="8.0011483"><ele>382.0</ele><time>2026-04-12T10:31:55.064Z</time></trkpt><trkpt lat="44.614565" lon="8.0011867"><ele>382.0</ele><time>2026-04-12T10:31:57.063Z</time></trkpt><trkpt lat="44.6144517" lon="8.001225"><ele>382.0</ele><time>2026-04-12T10:31:59.061Z</time></trkpt><trkpt lat="44.61439" lon="8.0012433"><ele>382.0</ele><time>2026-04-12T10:32:00.062Z</time></trkpt><trkpt lat="44.6143233" lon="8.00126"><ele>382.0</ele><time>2026-04-12T10:32:01.063Z</time></trkpt><trkpt lat="44.6142533" lon="8.0012783"><ele>382.0</ele><time>2026-04-12T10:32:02.063Z</time></trkpt><trkpt lat="44.6141833" lon="8.0012917"><ele>381.7142857142857</ele><time>2026-04-12T10:32:03.063Z</time></trkpt><trkpt lat="44.614115" lon="8.0013067"><ele>381.4285714285714</ele><time>2026-04-12T10:32:04.063Z</time></trkpt><trkpt lat="44.61404" lon="8.0013217"><ele>381.1428571428571</ele><time>2026-04-12T10:32:05.062Z</time></trkpt><trkpt lat="44.6139667" lon="8.0013383"><ele>380.8571428571429</ele><time>2026-04-12T10:32:06.062Z</time></trkpt><trkpt lat="44.61389" lon="8.0013483"><ele>380.57142857142856</ele><time>2026-04-12T10:32:07.063Z</time></trkpt><trkpt lat="44.613815" lon="8.001355"><ele>380.2857142857143</ele><time>2026-04-12T10:32:08.062Z</time></trkpt><trkpt lat="44.6137383" lon="8.0013617"><ele>380.0</ele><time>2026-04-12T10:32:09.065Z</time></trkpt><trkpt lat="44.6136633" lon="8.0013683"><ele>378.5</ele><time>2026-04-12T10:32:10.062Z</time></trkpt><trkpt lat="44.6135883" lon="8.001375"><ele>377.0</ele><time>2026-04-12T10:32:11.062Z</time></trkpt><trkpt lat="44.6135133" lon="8.0013817"><ele>375.5</ele><time>2026-04-12T10:32:12.063Z</time></trkpt><trkpt lat="44.6134433" lon="8.0013867"><ele>374.0</ele><time>2026-04-12T10:32:13.065Z</time></trkpt><trkpt lat="44.6133733" lon="8.00139"><ele>372.5</ele><time>2026-04-12T10:32:14.064Z</time></trkpt><trkpt lat="44.6133083" lon="8.0013883"><ele>371.0</ele><time>2026-04-12T10:32:15.065Z</time></trkpt><trkpt lat="44.6131883" lon="8.0013833"><ele>371.0</ele><time>2026-04-12T10:32:17.063Z</time></trkpt><trkpt lat="44.6130667" lon="8.001365"><ele>371.0</ele><time>2026-04-12T10:32:19.063Z</time></trkpt><trkpt lat="44.6130033" lon="8.00135"><ele>371.0</ele><time>2026-04-12T10:32:20.062Z</time></trkpt><trkpt lat="44.6128783" lon="8.00131"><ele>371.0</ele><time>2026-04-12T10:32:22.062Z</time></trkpt><trkpt lat="44.612815" lon="8.0012817"><ele>371.0</ele><time>2026-04-12T10:32:23.064Z</time></trkpt><trkpt lat="44.6127533" lon="8.001255"><ele>371.0</ele><time>2026-04-12T10:32:24.061Z</time></trkpt><trkpt lat="44.61269" lon="8.0012217"><ele>372.33333333333337</ele><time>2026-04-12T10:32:25.061Z</time></trkpt><trkpt lat="44.6126317" lon="8.0011867"><ele>373.6666666666667</ele><time>2026-04-12T10:32:26.061Z</time></trkpt><trkpt lat="44.612575" lon="8.0011467"><ele>375.0</ele><time>2026-04-12T10:32:27.062Z</time></trkpt><trkpt lat="44.6125183" lon="8.001105"><ele>376.3333333333333</ele><time>2026-04-12T10:32:28.061Z</time></trkpt><trkpt lat="44.61246" lon="8.0010667"><ele>377.66666666666663</ele><time>2026-04-12T10:32:29.063Z</time></trkpt><trkpt lat="44.61235" lon="8.000995"><ele>379.0</ele><time>2026-04-12T10:32:31.062Z</time></trkpt><trkpt lat="44.6122517" lon="8.00093"><ele>379.0</ele><time>2026-04-12T10:32:33.063Z</time></trkpt><trkpt lat="44.6121583" lon="8.0008667"><ele>379.0</ele><time>2026-04-12T10:32:35.064Z</time></trkpt><trkpt lat="44.6120633" lon="8.0008067"><ele>379.0</ele><time>2026-04-12T10:32:37.061Z</time></trkpt><trkpt lat="44.6119683" lon="8.00074"><ele>379.0</ele><time>2026-04-12T10:32:39.063Z</time></trkpt><trkpt lat="44.6118883" lon="8.0006717"><ele>379.0</ele><time>2026-04-12T10:32:41.062Z</time></trkpt><trkpt lat="44.6118217" lon="8.0006067"><ele>379.14285714285717</ele><time>2026-04-12T10:32:43.061Z</time></trkpt><trkpt lat="44.6117517" lon="8.000555"><ele>379.2857142857143</ele><time>2026-04-12T10:32:45.064Z</time></trkpt><trkpt lat="44.6116867" lon="8.000525"><ele>379.42857142857144</ele><time>2026-04-12T10:32:47.061Z</time></trkpt><trkpt lat="44.6116217" lon="8.0005083"><ele>379.57142857142856</ele><time>2026-04-12T10:32:49.063Z</time></trkpt><trkpt lat="44.6115617" lon="8.00047"><ele>379.7142857142857</ele><time>2026-04-12T10:32:52.063Z</time></trkpt><trkpt lat="44.6115" lon="8.0004333"><ele>379.8571428571429</ele><time>2026-04-12T10:32:56.068Z</time></trkpt><trkpt lat="44.6114333" lon="8.0005"><ele>380.0</ele><time>2026-04-12T10:33:00.064Z</time></trkpt><trkpt lat="44.6114067" lon="8.0006117"><ele>380.0</ele><time>2026-04-12T10:33:03.064Z</time></trkpt><trkpt lat="44.6113817" lon="8.0007"><ele>380.0</ele><time>2026-04-12T10:33:05.062Z</time></trkpt><trkpt lat="44.6113517" lon="8.0008267"><ele>380.0</ele><time>2026-04-12T10:33:08.061Z</time></trkpt><trkpt lat="44.611335" lon="8.0009167"><ele>380.0</ele><time>2026-04-12T10:33:10.061Z</time></trkpt><trkpt lat="44.6112633" lon="8.0008833"><ele>380.0</ele><time>2026-04-12T10:33:20.063Z</time></trkpt><trkpt lat="44.61125" lon="8.0007917"><ele>380.0</ele><time>2026-04-12T10:33:23.063Z</time></trkpt><trkpt lat="44.6112467" lon="8.0006867"><ele>380.0</ele><time>2026-04-12T10:33:26.06Z</time></trkpt><trkpt lat="44.6112417" lon="8.0005817"><ele>380.0</ele><time>2026-04-12T10:33:29.064Z</time></trkpt><trkpt lat="44.6112217" lon="8.0004733"><ele>380.0</ele><time>2026-04-12T10:33:32.062Z</time></trkpt><trkpt lat="44.6112167" lon="8.0003633"><ele>380.0</ele><time>2026-04-12T10:33:35.063Z</time></trkpt><trkpt lat="44.6111617" lon="8.0003133"><ele>380.0</ele><time>2026-04-12T10:33:40.063Z</time></trkpt><trkpt lat="44.611095" lon="8.0003367"><ele>380.0</ele><time>2026-04-12T10:33:42.059Z</time></trkpt><trkpt lat="44.6110417" lon="8.000385"><ele>380.0</ele><time>2026-04-12T10:33:47.063Z</time></trkpt><trkpt lat="44.6110383" lon="8.0004867"><ele>380.0</ele><time>2026-04-12T10:33:50.063Z</time></trkpt><trkpt lat="44.61101" lon="8.0005867"><ele>382.83333333333337</ele><time>2026-04-12T10:33:54.063Z</time></trkpt><trkpt lat="44.610935" lon="8.0006433"><ele>385.6666666666667</ele><time>2026-04-12T10:34:08.061Z</time></trkpt><trkpt lat="44.6109083" lon="8.0005417"><ele>388.5</ele><time>2026-04-12T10:34:12.061Z</time></trkpt><trkpt lat="44.6109167" lon="8.0004433"><ele>391.33333333333337</ele><time>2026-04-12T10:34:16.063Z</time></trkpt><trkpt lat="44.6109117" lon="8.000345"><ele>394.1666666666667</ele><time>2026-04-12T10:34:20.063Z</time></trkpt><trkpt lat="44.6108917" lon="8.0002317"><ele>397.0</ele><time>2026-04-12T10:34:24.061Z</time></trkpt><trkpt lat="44.6108567" lon="8.0001333"><ele>397.0</ele><time>2026-04-12T10:34:28.061Z</time></trkpt><trkpt lat="44.6107967" lon="8.0000867"><ele>397.0</ele><time>2026-04-12T10:34:32.062Z</time></trkpt><trkpt lat="44.610735" lon="8.00005"><ele>397.0</ele><time>2026-04-12T10:34:36.061Z</time></trkpt><trkpt lat="44.610655" lon="8.0000333"><ele>397.0</ele><time>2026-04-12T10:34:41.06Z</time></trkpt><trkpt lat="44.6105917" lon="8.0000767"><ele>397.0</ele><time>2026-04-12T10:34:44.061Z</time></trkpt><trkpt lat="44.6105317" lon="8.000135"><ele>397.0</ele><time>2026-04-12T10:34:47.061Z</time></trkpt><trkpt lat="44.6105033" lon="8.000215"><ele>397.0</ele><time>2026-04-12T10:34:51.06Z</time></trkpt><trkpt lat="44.6105133" lon="8.0003133"><ele>397.0</ele><time>2026-04-12T10:34:55.065Z</time></trkpt><trkpt lat="44.6105283" lon="8.00041"><ele>397.0</ele><time>2026-04-12T10:35:01.064Z</time></trkpt><trkpt lat="44.610555" lon="8.00031"><ele>397.0</ele><time>2026-04-12T10:35:21.062Z</time></trkpt><trkpt lat="44.6105483" lon="8.00021"><ele>397.0</ele><time>2026-04-12T10:35:28.062Z</time></trkpt><trkpt lat="44.6105883" lon="8.0001233"><ele>397.0</ele><time>2026-04-12T10:36:18.061Z</time></trkpt><trkpt lat="44.6106667" lon="8.0001067"><ele>397.0</ele><time>2026-04-12T10:36:21.063Z</time></trkpt><trkpt lat="44.610735" lon="8.0001433"><ele>397.0</ele><time>2026-04-12T10:36:23.06Z</time></trkpt><trkpt lat="44.6108" lon="8.0001817"><ele>397.00000000000006</ele><time>2026-04-12T10:36:25.063Z</time></trkpt><trkpt lat="44.6108733" lon="8.000245"><ele>397.0</ele><time>2026-04-12T10:36:28.06Z</time></trkpt><trkpt lat="44.6109067" lon="8.0003333"><ele>397.0</ele><time>2026-04-12T10:36:31.063Z</time></trkpt><trkpt lat="44.6109067" lon="8.0004583"><ele>397.0</ele><time>2026-04-12T10:36:34.062Z</time></trkpt><trkpt lat="44.610885" lon="8.0005567"><ele>397.00000000000006</ele><time>2026-04-12T10:36:37.062Z</time></trkpt><trkpt lat="44.6109133" lon="8.0006417"><ele>397.0</ele><time>2026-04-12T10:36:40.07Z</time></trkpt><trkpt lat="44.6109133" lon="8.0007367"><ele>397.0</ele><time>2026-04-12T10:36:43.062Z</time></trkpt><trkpt lat="44.610885" lon="8.0008283"><ele>397.0</ele><time>2026-04-12T10:36:45.062Z</time></trkpt><trkpt lat="44.6108383" lon="8.00091"><ele>397.0</ele><time>2026-04-12T10:36:47.062Z</time></trkpt><trkpt lat="44.6107783" lon="8.00097"><ele>397.0</ele><time>2026-04-12T10:36:49.061Z</time></trkpt><trkpt lat="44.61067" lon="8.001005"><ele>397.0</ele><time>2026-04-12T10:36:51.065Z</time></trkpt><trkpt lat="44.6105517" lon="8.0009733"><ele>397.0</ele><time>2026-04-12T10:36:53.065Z</time></trkpt><trkpt lat="44.6104517" lon="8.0009017"><ele>397.0</ele><time>2026-04-12T10:36:55.063Z</time></trkpt><trkpt lat="44.6103717" lon="8.0007967"><ele>397.0</ele><time>2026-04-12T10:36:57.062Z</time></trkpt><trkpt lat="44.6102933" lon="8.0006867"><ele>397.0</ele><time>2026-04-12T10:36:59.063Z</time></trkpt><trkpt lat="44.6102183" lon="8.0005683"><ele>397.0</ele><time>2026-04-12T10:37:01.063Z</time></trkpt><trkpt lat="44.61015" lon="8.000455"><ele>396.33333333333337</ele><time>2026-04-12T10:37:03.063Z</time></trkpt><trkpt lat="44.6101083" lon="8.000355"><ele>395.6666666666667</ele><time>2026-04-12T10:37:05.061Z</time></trkpt><trkpt lat="44.61007" lon="8.0002667"><ele>395.0</ele><time>2026-04-12T10:37:09.063Z</time></trkpt><trkpt lat="44.6099967" lon="8.0002867"><ele>394.33333333333337</ele><time>2026-04-12T10:37:11.062Z</time></trkpt><trkpt lat="44.6098667" lon="8.0003067"><ele>393.6666666666667</ele><time>2026-04-12T10:37:13.063Z</time></trkpt><trkpt lat="44.6098" lon="8.0002917"><ele>393.0</ele><time>2026-04-12T10:37:14.063Z</time></trkpt><trkpt lat="44.6097367" lon="8.00028"><ele>393.00000000000006</ele><time>2026-04-12T10:37:15.063Z</time></trkpt><trkpt lat="44.609655" lon="8.0002617"><ele>393.0</ele><time>2026-04-12T10:37:17.061Z</time></trkpt><trkpt lat="44.6095617" lon="8.000255"><ele>393.0</ele><time>2026-04-12T10:37:20.063Z</time></trkpt><trkpt lat="44.609495" lon="8.0002517"><ele>393.0</ele><time>2026-04-12T10:37:22.063Z</time></trkpt><trkpt lat="44.6094267" lon="8.0002667"><ele>393.0</ele><time>2026-04-12T10:37:25.065Z</time></trkpt><trkpt lat="44.6093717" lon="8.00022"><ele>393.00000000000006</ele><time>2026-04-12T10:37:58.059Z</time></trkpt><trkpt lat="44.6093467" lon="8.000315"><ele>393.0</ele><time>2026-04-12T10:41:32.061Z</time></trkpt><trkpt lat="44.6093333" lon="8.000405"><ele>391.3333333333333</ele><time>2026-04-12T10:41:38.063Z</time></trkpt><trkpt lat="44.6092867" lon="8.0004683"><ele>389.6666666666667</ele><time>2026-04-12T10:41:42.062Z</time></trkpt><trkpt lat="44.609205" lon="8.0004933"><ele>388.0</ele><time>2026-04-12T10:41:45.062Z</time></trkpt><trkpt lat="44.609115" lon="8.0005133"><ele>386.33333333333337</ele><time>2026-04-12T10:41:48.065Z</time></trkpt><trkpt lat="44.6090483" lon="8.0005467"><ele>384.6666666666667</ele><time>2026-04-12T10:41:50.065Z</time></trkpt><trkpt lat="44.6089733" lon="8.0005783"><ele>383.0</ele><time>2026-04-12T10:41:52.062Z</time></trkpt><trkpt lat="44.6088983" lon="8.0005933"><ele>383.0</ele><time>2026-04-12T10:41:54.063Z</time></trkpt><trkpt lat="44.6088267" lon="8.0006083"><ele>383.0</ele><time>2026-04-12T10:41:56.061Z</time></trkpt><trkpt lat="44.6087433" lon="8.0006183"><ele>383.0</ele><time>2026-04-12T10:41:58.063Z</time></trkpt><trkpt lat="44.6086567" lon="8.0006233"><ele>383.0</ele><time>2026-04-12T10:42:00.063Z</time></trkpt><trkpt lat="44.60857" lon="8.00062"><ele>383.0</ele><time>2026-04-12T10:42:02.063Z</time></trkpt><trkpt lat="44.608485" lon="8.0006"><ele>383.0</ele><time>2026-04-12T10:42:04.065Z</time></trkpt><trkpt lat="44.608395" lon="8.0005683"><ele>382.4</ele><time>2026-04-12T10:42:06.06Z</time></trkpt><trkpt lat="44.6083067" lon="8.0005317"><ele>381.79999999999995</ele><time>2026-04-12T10:42:08.064Z</time></trkpt><trkpt lat="44.6082167" lon="8.000505"><ele>381.2</ele><time>2026-04-12T10:42:10.064Z</time></trkpt><trkpt lat="44.6081217" lon="8.0004683"><ele>380.6</ele><time>2026-04-12T10:42:12.063Z</time></trkpt><trkpt lat="44.608025" lon="8.000425"><ele>380.0</ele><time>2026-04-12T10:42:14.063Z</time></trkpt><trkpt lat="44.6079233" lon="8.0003867"><ele>381.0</ele><time>2026-04-12T10:42:16.061Z</time></trkpt><trkpt lat="44.6078267" lon="8.0003417"><ele>382.0</ele><time>2026-04-12T10:42:18.062Z</time></trkpt><trkpt lat="44.6077267" lon="8.0003017"><ele>383.0</ele><time>2026-04-12T10:42:20.064Z</time></trkpt><trkpt lat="44.607625" lon="8.0002633"><ele>384.0</ele><time>2026-04-12T10:42:22.063Z</time></trkpt><trkpt lat="44.6075283" lon="8.000225"><ele>385.0</ele><time>2026-04-12T10:42:24.063Z</time></trkpt><trkpt lat="44.607435" lon="8.0001833"><ele>385.0</ele><time>2026-04-12T10:42:26.062Z</time></trkpt><trkpt lat="44.6073433" lon="8.00014"><ele>385.0</ele><time>2026-04-12T10:42:28.062Z</time></trkpt><trkpt lat="44.6072567" lon="8.0000867"><ele>385.0</ele><time>2026-04-12T10:42:30.061Z</time></trkpt><trkpt lat="44.6071717" lon="8.0000233"><ele>385.0</ele><time>2026-04-12T10:42:32.063Z</time></trkpt><trkpt lat="44.60709" lon="7.9999467"><ele>385.0</ele><time>2026-04-12T10:42:34.064Z</time></trkpt><trkpt lat="44.6070067" lon="7.9998617"><ele>386.2</ele><time>2026-04-12T10:42:36.062Z</time></trkpt><trkpt lat="44.6069233" lon="7.99977"><ele>387.4</ele><time>2026-04-12T10:42:38.062Z</time></trkpt><trkpt lat="44.6068383" lon="7.9996767"><ele>388.6</ele><time>2026-04-12T10:42:40.063Z</time></trkpt><trkpt lat="44.606745" lon="7.99959"><ele>389.8</ele><time>2026-04-12T10:42:42.062Z</time></trkpt><trkpt lat="44.6066283" lon="7.999535"><ele>391.0</ele><time>2026-04-12T10:42:44.062Z</time></trkpt><trkpt lat="44.6065617" lon="7.9995183"><ele>390.99999999999994</ele><time>2026-04-12T10:42:45.063Z</time></trkpt><trkpt lat="44.6064967" lon="7.9995133"><ele>391.0</ele><time>2026-04-12T10:42:46.062Z</time></trkpt><trkpt lat="44.60643" lon="7.9995167"><ele>391.0</ele><time>2026-04-12T10:42:47.061Z</time></trkpt><trkpt lat="44.6063617" lon="7.9995233"><ele>391.0</ele><time>2026-04-12T10:42:48.063Z</time></trkpt><trkpt lat="44.60629" lon="7.9995333"><ele>391.0</ele><time>2026-04-12T10:42:49.063Z</time></trkpt><trkpt lat="44.6062133" lon="7.9995417"><ele>390.99999999999994</ele><time>2026-04-12T10:42:50.063Z</time></trkpt><trkpt lat="44.6061367" lon="7.99955"><ele>391.0</ele><time>2026-04-12T10:42:51.063Z</time></trkpt><trkpt lat="44.6060533" lon="7.99955"><ele>389.83333333333337</ele><time>2026-04-12T10:42:52.062Z</time></trkpt><trkpt lat="44.60597" lon="7.999545"><ele>388.6666666666667</ele><time>2026-04-12T10:42:53.063Z</time></trkpt><trkpt lat="44.6058867" lon="7.99953"><ele>387.5</ele><time>2026-04-12T10:42:54.066Z</time></trkpt><trkpt lat="44.6058017" lon="7.999515"><ele>386.33333333333337</ele><time>2026-04-12T10:42:55.066Z</time></trkpt><trkpt lat="44.6057167" lon="7.9994967"><ele>385.1666666666667</ele><time>2026-04-12T10:42:56.064Z</time></trkpt><trkpt lat="44.605635" lon="7.9994733"><ele>384.0</ele><time>2026-04-12T10:42:57.065Z</time></trkpt><trkpt lat="44.6055533" lon="7.9994517"><ele>384.0</ele><time>2026-04-12T10:42:58.063Z</time></trkpt><trkpt lat="44.6054717" lon="7.9994333"><ele>384.0</ele><time>2026-04-12T10:42:59.061Z</time></trkpt><trkpt lat="44.6053917" lon="7.999415"><ele>384.0</ele><time>2026-04-12T10:43:00.065Z</time></trkpt><trkpt lat="44.6053133" lon="7.9993883"><ele>384.0</ele><time>2026-04-12T10:43:01.062Z</time></trkpt><trkpt lat="44.60524" lon="7.9993583"><ele>384.0</ele><time>2026-04-12T10:43:02.064Z</time></trkpt><trkpt lat="44.6051683" lon="7.99933"><ele>384.0</ele><time>2026-04-12T10:43:03.064Z</time></trkpt><trkpt lat="44.6050967" lon="7.999305"><ele>383.4285714285714</ele><time>2026-04-12T10:43:04.06Z</time></trkpt><trkpt lat="44.6050267" lon="7.9992833"><ele>382.85714285714283</ele><time>2026-04-12T10:43:05.063Z</time></trkpt><trkpt lat="44.6049617" lon="7.999265"><ele>382.2857142857143</ele><time>2026-04-12T10:43:06.063Z</time></trkpt><trkpt lat="44.604895" lon="7.9992433"><ele>381.71428571428567</ele><time>2026-04-12T10:43:07.064Z</time></trkpt><trkpt lat="44.60483" lon="7.999225"><ele>381.14285714285717</ele><time>2026-04-12T10:43:08.062Z</time></trkpt><trkpt lat="44.6047683" lon="7.9992017"><ele>380.57142857142856</ele><time>2026-04-12T10:43:09.065Z</time></trkpt><trkpt lat="44.6047067" lon="7.9991817"><ele>380.0</ele><time>2026-04-12T10:43:10.062Z</time></trkpt><trkpt lat="44.6045933" lon="7.9991433"><ele>380.75</ele><time>2026-04-12T10:43:12.063Z</time></trkpt><trkpt lat="44.6044833" lon="7.9991067"><ele>381.5</ele><time>2026-04-12T10:43:14.062Z</time></trkpt><trkpt lat="44.6043683" lon="7.99907"><ele>382.25</ele><time>2026-04-12T10:43:16.063Z</time></trkpt><trkpt lat="44.604255" lon="7.99903"><ele>383.0</ele><time>2026-04-12T10:43:18.063Z</time></trkpt><trkpt lat="44.60414" lon="7.999"><ele>383.0</ele><time>2026-04-12T10:43:20.06Z</time></trkpt><trkpt lat="44.60402" lon="7.9989833"><ele>383.0</ele><time>2026-04-12T10:43:22.064Z</time></trkpt><trkpt lat="44.6039567" lon="7.9989767"><ele>383.0</ele><time>2026-04-12T10:43:23.061Z</time></trkpt><trkpt lat="44.60389" lon="7.99897"><ele>383.0</ele><time>2026-04-12T10:43:24.062Z</time></trkpt><trkpt lat="44.603825" lon="7.9989717"><ele>383.0</ele><time>2026-04-12T10:43:25.063Z</time></trkpt><trkpt lat="44.60376" lon="7.9989733"><ele>383.0</ele><time>2026-04-12T10:43:26.062Z</time></trkpt><trkpt lat="44.6036967" lon="7.99897"><ele>383.0</ele><time>2026-04-12T10:43:27.063Z</time></trkpt><trkpt lat="44.6036333" lon="7.9989733"><ele>382.1666666666667</ele><time>2026-04-12T10:43:28.062Z</time></trkpt><trkpt lat="44.6035683" lon="7.99898"><ele>381.33333333333337</ele><time>2026-04-12T10:43:29.062Z</time></trkpt><trkpt lat="44.603505" lon="7.99899"><ele>380.5</ele><time>2026-04-12T10:43:30.064Z</time></trkpt><trkpt lat="44.60344" lon="7.9990067"><ele>379.6666666666667</ele><time>2026-04-12T10:43:31.062Z</time></trkpt><trkpt lat="44.60331" lon="7.9990383"><ele>378.8333333333333</ele><time>2026-04-12T10:43:33.061Z</time></trkpt><trkpt lat="44.6032433" lon="7.999055"><ele>378.0</ele><time>2026-04-12T10:43:34.064Z</time></trkpt><trkpt lat="44.6031783" lon="7.9990667"><ele>378.0</ele><time>2026-04-12T10:43:35.062Z</time></trkpt><trkpt lat="44.6031117" lon="7.9990817"><ele>378.0</ele><time>2026-04-12T10:43:36.058Z</time></trkpt><trkpt lat="44.6049617" lon="7.999265"><ele>378.3333333333333</ele><time>2026-04-12T10:43:06.063Z</time></trkpt><trkpt lat="44.604895" lon="7.9992433"><ele>378.6666666666667</ele><time>2026-04-12T10:43:07.064Z</time></trkpt><trkpt lat="44.60483" lon="7.999225"><ele>379.0</ele><time>2026-04-12T10:43:08.062Z</time></trkpt><trkpt lat="44.6047683" lon="7.9992017"><ele>379.33333333333337</ele><time>2026-04-12T10:43:09.065Z</time></trkpt><trkpt lat="44.6047067" lon="7.9991817"><ele>379.6666666666667</ele><time>2026-04-12T10:43:10.062Z</time></trkpt><trkpt lat="44.6045933" lon="7.9991433"><ele>380.0</ele><time>2026-04-12T10:43:12.063Z</time></trkpt><trkpt lat="44.6044833" lon="7.9991067"><ele>380.75</ele><time>2026-04-12T10:43:14.062Z</time></trkpt><trkpt lat="44.6043683" lon="7.99907"><ele>381.5</ele><time>2026-04-12T10:43:16.063Z</time></trkpt><trkpt lat="44.604255" lon="7.99903"><ele>382.25</ele><time>2026-04-12T10:43:18.063Z</time></trkpt><trkpt lat="44.60414" lon="7.999"><ele>383.0</ele><time>2026-04-12T10:43:20.06Z</time></trkpt><trkpt lat="44.60402" lon="7.9989833"><ele>383.0</ele><time>2026-04-12T10:43:22.064Z</time></trkpt><trkpt lat="44.6039567" lon="7.9989767"><ele>383.0</ele><time>2026-04-12T10:43:23.061Z</time></trkpt><trkpt lat="44.60389" lon="7.99897"><ele>383.0</ele><time>2026-04-12T10:43:24.062Z</time></trkpt><trkpt lat="44.603825" lon="7.9989717"><ele>383.0</ele><time>2026-04-12T10:43:25.063Z</time></trkpt><trkpt lat="44.60376" lon="7.9989733"><ele>383.0</ele><time>2026-04-12T10:43:26.062Z</time></trkpt><trkpt lat="44.6036967" lon="7.99897"><ele>383.0</ele><time>2026-04-12T10:43:27.063Z</time></trkpt><trkpt lat="44.6036333" lon="7.9989733"><ele>383.0</ele><time>2026-04-12T10:43:28.062Z</time></trkpt><trkpt lat="44.6035683" lon="7.99898"><ele>382.1666666666667</ele><time>2026-04-12T10:43:29.062Z</time></trkpt><trkpt lat="44.603505" lon="7.99899"><ele>381.33333333333337</ele><time>2026-04-12T10:43:30.064Z</time></trkpt><trkpt lat="44.60344" lon="7.9990067"><ele>380.5</ele><time>2026-04-12T10:43:31.062Z</time></trkpt><trkpt lat="44.60331" lon="7.9990383"><ele>379.6666666666667</ele><time>2026-04-12T10:43:33.061Z</time></trkpt><trkpt lat="44.6032433" lon="7.999055"><ele>378.8333333333333</ele><time>2026-04-12T10:43:34.064Z</time></trkpt><trkpt lat="44.6031783" lon="7.9990667"><ele>378.0</ele><time>2026-04-12T10:43:35.062Z</time></trkpt><trkpt lat="44.6031117" lon="7.9990817"><ele>378.0</ele><time>2026-04-12T10:43:36.058Z</time></trkpt><trkpt lat="44.603045" lon="7.9991017"><ele>378.0</ele><time>2026-04-12T10:43:37.064Z</time></trkpt><trkpt lat="44.6029817" lon="7.9991233"><ele>378.0</ele><time>2026-04-12T10:43:38.065Z</time></trkpt><trkpt lat="44.6028583" lon="7.999155"><ele>378.0</ele><time>2026-04-12T10:43:40.063Z</time></trkpt><trkpt lat="44.6027933" lon="7.9991667"><ele>378.0</ele><time>2026-04-12T10:43:41.063Z</time></trkpt><trkpt lat="44.6027283" lon="7.9991783"><ele>378.0</ele><time>2026-04-12T10:43:42.063Z</time></trkpt><trkpt lat="44.6026067" lon="7.999215"><ele>377.79999999999995</ele><time>2026-04-12T10:43:44.063Z</time></trkpt><trkpt lat="44.6025433" lon="7.99923"><ele>377.6</ele><time>2026-04-12T10:43:45.064Z</time></trkpt><trkpt lat="44.6024233" lon="7.9992683"><ele>377.4</ele><time>2026-04-12T10:43:47.061Z</time></trkpt><trkpt lat="44.6023067" lon="7.9992983"><ele>377.20000000000005</ele><time>2026-04-12T10:43:49.064Z</time></trkpt><trkpt lat="44.602195" lon="7.9993317"><ele>377.0</ele><time>2026-04-12T10:43:51.064Z</time></trkpt><trkpt lat="44.6020833" lon="7.9993633"><ele>377.25</ele><time>2026-04-12T10:43:53.061Z</time></trkpt><trkpt lat="44.6019683" lon="7.99939"><ele>377.5</ele><time>2026-04-12T10:43:55.063Z</time></trkpt><trkpt lat="44.601855" lon="7.9994183"><ele>377.75</ele><time>2026-04-12T10:43:57.063Z</time></trkpt><trkpt lat="44.6017417" lon="7.999445"><ele>378.0</ele><time>2026-04-12T10:43:59.061Z</time></trkpt><trkpt lat="44.6016217" lon="7.9994767"><ele>378.0</ele><time>2026-04-12T10:44:01.062Z</time></trkpt><trkpt lat="44.6015" lon="7.99951"><ele>378.0</ele><time>2026-04-12T10:44:03.066Z</time></trkpt><trkpt lat="44.6013783" lon="7.9995417"><ele>378.0</ele><time>2026-04-12T10:44:05.062Z</time></trkpt><trkpt lat="44.60131" lon="7.9995617"><ele>378.0</ele><time>2026-04-12T10:44:06.065Z</time></trkpt><trkpt lat="44.60124" lon="7.9995783"><ele>378.0</ele><time>2026-04-12T10:44:07.062Z</time></trkpt><trkpt lat="44.6011683" lon="7.9996"><ele>378.0</ele><time>2026-04-12T10:44:08.064Z</time></trkpt><trkpt lat="44.6010917" lon="7.9996233"><ele>378.0</ele><time>2026-04-12T10:44:09.064Z</time></trkpt><trkpt lat="44.6010117" lon="7.9996433"><ele>378.0</ele><time>2026-04-12T10:44:10.063Z</time></trkpt><trkpt lat="44.600935" lon="7.9996683"><ele>378.0</ele><time>2026-04-12T10:44:11.063Z</time></trkpt><trkpt lat="44.600855" lon="7.9996917"><ele>378.0</ele><time>2026-04-12T10:44:12.063Z</time></trkpt><trkpt lat="44.60077" lon="7.9997183"><ele>378.0</ele><time>2026-04-12T10:44:13.061Z</time></trkpt><trkpt lat="44.6006833" lon="7.99974"><ele>378.0</ele><time>2026-04-12T10:44:14.063Z</time></trkpt><trkpt lat="44.6005983" lon="7.9997617"><ele>378.0</ele><time>2026-04-12T10:44:15.061Z</time></trkpt><trkpt lat="44.6005117" lon="7.9997917"><ele>378.0</ele><time>2026-04-12T10:44:16.063Z</time></trkpt><trkpt lat="44.6004217" lon="7.9998267"><ele>378.0</ele><time>2026-04-12T10:44:17.062Z</time></trkpt><trkpt lat="44.6003333" lon="7.9998767"><ele>378.0</ele><time>2026-04-12T10:44:18.062Z</time></trkpt><trkpt lat="44.600245" lon="7.9999467"><ele>378.0</ele><time>2026-04-12T10:44:19.063Z</time></trkpt><trkpt lat="44.6001617" lon="8.0000283"><ele>378.0</ele><time>2026-04-12T10:44:20.063Z</time></trkpt><trkpt lat="44.6000867" lon="8.0001317"><ele>378.0</ele><time>2026-04-12T10:44:21.064Z</time></trkpt><trkpt lat="44.6000183" lon="8.0002433"><ele>378.0</ele><time>2026-04-12T10:44:22.063Z</time></trkpt><trkpt lat="44.59996" lon="8.0003617"><ele>378.0</ele><time>2026-04-12T10:44:23.063Z</time></trkpt><trkpt lat="44.5999067" lon="8.0004783"><ele>378.0</ele><time>2026-04-12T10:44:24.061Z</time></trkpt><trkpt lat="44.5998567" lon="8.0005917"><ele>378.0</ele><time>2026-04-12T10:44:25.062Z</time></trkpt><trkpt lat="44.59981" lon="8.0007017"><ele>378.0</ele><time>2026-04-12T10:44:26.063Z</time></trkpt><trkpt lat="44.5997667" lon="8.0008117"><ele>378.0</ele><time>2026-04-12T10:44:27.061Z</time></trkpt><trkpt lat="44.5997317" lon="8.0009233"><ele>378.0</ele><time>2026-04-12T10:44:28.062Z</time></trkpt><trkpt lat="44.59971" lon="8.0010383"><ele>378.0</ele><time>2026-04-12T10:44:29.062Z</time></trkpt><trkpt lat="44.5997033" lon="8.0011533"><ele>378.1666666666667</ele><time>2026-04-12T10:44:30.061Z</time></trkpt><trkpt lat="44.5997083" lon="8.0012633"><ele>378.3333333333333</ele><time>2026-04-12T10:44:31.063Z</time></trkpt><trkpt lat="44.5997217" lon="8.00137"><ele>378.5</ele><time>2026-04-12T10:44:32.062Z</time></trkpt><trkpt lat="44.59974" lon="8.0014683"><ele>378.66666666666663</ele><time>2026-04-12T10:44:33.062Z</time></trkpt><trkpt lat="44.5997583" lon="8.0015567"><ele>378.8333333333333</ele><time>2026-04-12T10:44:34.062Z</time></trkpt><trkpt lat="44.5997767" lon="8.0016433"><ele>379.0</ele><time>2026-04-12T10:44:35.062Z</time></trkpt><trkpt lat="44.599815" lon="8.0018"><ele>379.4</ele><time>2026-04-12T10:44:37.062Z</time></trkpt><trkpt lat="44.59985" lon="8.0019517"><ele>379.79999999999995</ele><time>2026-04-12T10:44:39.061Z</time></trkpt><trkpt lat="44.5998767" lon="8.0021067"><ele>380.20000000000005</ele><time>2026-04-12T10:44:41.06Z</time></trkpt><trkpt lat="44.5998933" lon="8.0022483"><ele>380.6</ele><time>2026-04-12T10:44:43.063Z</time></trkpt><trkpt lat="44.5999083" lon="8.0023833"><ele>381.0</ele><time>2026-04-12T10:44:45.065Z</time></trkpt><trkpt lat="44.5999167" lon="8.0025083"><ele>381.6666666666667</ele><time>2026-04-12T10:44:47.062Z</time></trkpt><trkpt lat="44.5999233" lon="8.0026333"><ele>382.33333333333337</ele><time>2026-04-12T10:44:49.063Z</time></trkpt><trkpt lat="44.5999333" lon="8.0027517"><ele>383.0</ele><time>2026-04-12T10:44:51.064Z</time></trkpt><trkpt lat="44.5999517" lon="8.00287"><ele>383.6666666666667</ele><time>2026-04-12T10:44:53.061Z</time></trkpt><trkpt lat="44.59998" lon="8.00299"><ele>384.33333333333337</ele><time>2026-04-12T10:44:55.062Z</time></trkpt><trkpt lat="44.6000167" lon="8.0030967"><ele>385.0</ele><time>2026-04-12T10:44:57.066Z</time></trkpt><trkpt lat="44.6000667" lon="8.00319"><ele>385.00000000000006</ele><time>2026-04-12T10:44:59.063Z</time></trkpt><trkpt lat="44.6001083" lon="8.0032883"><ele>385.0</ele><time>2026-04-12T10:45:01.064Z</time></trkpt><trkpt lat="44.600155" lon="8.0033783"><ele>385.0</ele><time>2026-04-12T10:45:03.064Z</time></trkpt><trkpt lat="44.6002017" lon="8.0034733"><ele>385.0</ele><time>2026-04-12T10:45:05.062Z</time></trkpt><trkpt lat="44.600255" lon="8.0035617"><ele>385.00000000000006</ele><time>2026-04-12T10:45:07.063Z</time></trkpt><trkpt lat="44.600305" lon="8.0036467"><ele>385.0</ele><time>2026-04-12T10:45:09.062Z</time></trkpt><trkpt lat="44.6003533" lon="8.0037317"><ele>384.42857142857144</ele><time>2026-04-12T10:45:11.061Z</time></trkpt><trkpt lat="44.600395" lon="8.0038117"><ele>383.8571428571429</ele><time>2026-04-12T10:45:13.061Z</time></trkpt><trkpt lat="44.60044" lon="8.0038883"><ele>383.2857142857143</ele><time>2026-04-12T10:45:15.064Z</time></trkpt><trkpt lat="44.6004833" lon="8.003965"><ele>382.7142857142857</ele><time>2026-04-12T10:45:17.061Z</time></trkpt><trkpt lat="44.60053" lon="8.004045"><ele>382.14285714285717</ele><time>2026-04-12T10:45:19.062Z</time></trkpt><trkpt lat="44.60057" lon="8.00412"><ele>381.57142857142856</ele><time>2026-04-12T10:45:21.063Z</time></trkpt><trkpt lat="44.6006067" lon="8.0042017"><ele>381.0</ele><time>2026-04-12T10:45:23.06Z</time></trkpt><trkpt lat="44.600645" lon="8.0042817"><ele>382.5</ele><time>2026-04-12T10:45:25.062Z</time></trkpt><trkpt lat="44.6006833" lon="8.004355"><ele>384.0</ele><time>2026-04-12T10:45:27.063Z</time></trkpt><trkpt lat="44.6007233" lon="8.0044283"><ele>385.5</ele><time>2026-04-12T10:45:29.062Z</time></trkpt><trkpt lat="44.600785" lon="8.004525"><ele>387.0</ele><time>2026-04-12T10:45:32.063Z</time></trkpt><trkpt lat="44.600845" lon="8.00463"><ele>388.5</ele><time>2026-04-12T10:45:35.063Z</time></trkpt><trkpt lat="44.6008833" lon="8.0047033"><ele>390.0</ele><time>2026-04-12T10:45:37.062Z</time></trkpt><trkpt lat="44.600915" lon="8.004785"><ele>390.0</ele><time>2026-04-12T10:45:39.067Z</time></trkpt><trkpt lat="44.6009117" lon="8.0049117"><ele>390.0</ele><time>2026-04-12T10:45:42.061Z</time></trkpt><trkpt lat="44.600835" lon="8.0049833"><ele>390.0</ele><time>2026-04-12T10:45:45.066Z</time></trkpt><trkpt lat="44.6007717" lon="8.0049667"><ele>390.0</ele><time>2026-04-12T10:45:47.064Z</time></trkpt><trkpt lat="44.6007233" lon="8.0049083"><ele>390.0</ele><time>2026-04-12T10:45:49.065Z</time></trkpt><trkpt lat="44.6006833" lon="8.0048317"><ele>390.0</ele><time>2026-04-12T10:45:51.064Z</time></trkpt><trkpt lat="44.600645" lon="8.0047567"><ele>390.0</ele><time>2026-04-12T10:45:53.06Z</time></trkpt><trkpt lat="44.6006067" lon="8.004685"><ele>390.0</ele><time>2026-04-12T10:45:55.061Z</time></trkpt><trkpt lat="44.6005683" lon="8.0046117"><ele>390.0</ele><time>2026-04-12T10:45:57.064Z</time></trkpt><trkpt lat="44.6005333" lon="8.004535"><ele>390.0</ele><time>2026-04-12T10:45:59.06Z</time></trkpt><trkpt lat="44.6004817" lon="8.0044283"><ele>390.0</ele><time>2026-04-12T10:46:02.062Z</time></trkpt><trkpt lat="44.60044" lon="8.0043617"><ele>390.0</ele><time>2026-04-12T10:46:04.062Z</time></trkpt><trkpt lat="44.6004" lon="8.00429"><ele>390.0</ele><time>2026-04-12T10:46:06.062Z</time></trkpt><trkpt lat="44.60035" lon="8.0042217"><ele>390.0</ele><time>2026-04-12T10:46:08.062Z</time></trkpt><trkpt lat="44.6002967" lon="8.0041633"><ele>390.57142857142856</ele><time>2026-04-12T10:46:10.062Z</time></trkpt><trkpt lat="44.6002383" lon="8.0041067"><ele>391.1428571428571</ele><time>2026-04-12T10:46:12.065Z</time></trkpt><trkpt lat="44.6001783" lon="8.0040517"><ele>391.7142857142857</ele><time>2026-04-12T10:46:14.061Z</time></trkpt><trkpt lat="44.6001117" lon="8.0040267"><ele>392.2857142857143</ele><time>2026-04-12T10:46:16.064Z</time></trkpt><trkpt lat="44.600045" lon="8.00401"><ele>392.8571428571429</ele><time>2026-04-12T10:46:18.062Z</time></trkpt><trkpt lat="44.5999817" lon="8.0040217"><ele>393.42857142857144</ele><time>2026-04-12T10:46:20.063Z</time></trkpt><trkpt lat="44.5999033" lon="8.0040817"><ele>394.0</ele><time>2026-04-12T10:46:23.061Z</time></trkpt><trkpt lat="44.5998567" lon="8.0041467"><ele>396.00000000000006</ele><time>2026-04-12T10:46:25.061Z</time></trkpt><trkpt lat="44.5998133" lon="8.004255"><ele>398.0</ele><time>2026-04-12T10:46:28.064Z</time></trkpt><trkpt lat="44.5997917" lon="8.004375"><ele>400.0</ele><time>2026-04-12T10:46:31.062Z</time></trkpt><trkpt lat="44.5997833" lon="8.0044633"><ele>402.0</ele><time>2026-04-12T10:46:33.064Z</time></trkpt><trkpt lat="44.599775" lon="8.0045883"><ele>404.00000000000006</ele><time>2026-04-12T10:46:36.057Z</time></trkpt><trkpt lat="44.5997683" lon="8.0046767"><ele>406.0</ele><time>2026-04-12T10:46:38.063Z</time></trkpt><trkpt lat="44.59976" lon="8.0047667"><ele>406.0</ele><time>2026-04-12T10:46:40.063Z</time></trkpt><trkpt lat="44.5997483" lon="8.004855"><ele>406.0</ele><time>2026-04-12T10:46:42.062Z</time></trkpt><trkpt lat="44.5997333" lon="8.0049417"><ele>406.0</ele><time>2026-04-12T10:46:44.064Z</time></trkpt><trkpt lat="44.59971" lon="8.0050283"><ele>406.0</ele><time>2026-04-12T10:46:46.061Z</time></trkpt><trkpt lat="44.5996833" lon="8.00511"><ele>406.0</ele><time>2026-04-12T10:46:48.061Z</time></trkpt><trkpt lat="44.5996567" lon="8.0051917"><ele>406.0</ele><time>2026-04-12T10:46:50.062Z</time></trkpt><trkpt lat="44.5996217" lon="8.0052767"><ele>406.0</ele><time>2026-04-12T10:46:52.061Z</time></trkpt><trkpt lat="44.5995567" lon="8.0053783"><ele>405.57142857142856</ele><time>2026-04-12T10:46:55.063Z</time></trkpt><trkpt lat="44.5995017" lon="8.00544"><ele>405.1428571428571</ele><time>2026-04-12T10:46:57.066Z</time></trkpt><trkpt lat="44.5994417" lon="8.0055017"><ele>404.7142857142857</ele><time>2026-04-12T10:46:59.065Z</time></trkpt><trkpt lat="44.59938" lon="8.0055617"><ele>404.2857142857143</ele><time>2026-04-12T10:47:01.063Z</time></trkpt><trkpt lat="44.5993217" lon="8.0056167"><ele>403.85714285714283</ele><time>2026-04-12T10:47:03.064Z</time></trkpt><trkpt lat="44.59927" lon="8.0056717"><ele>403.42857142857144</ele><time>2026-04-12T10:47:05.062Z</time></trkpt><trkpt lat="44.5992167" lon="8.0057267"><ele>403.0</ele><time>2026-04-12T10:47:07.061Z</time></trkpt><trkpt lat="44.5991617" lon="8.005775"><ele>403.0</ele><time>2026-04-12T10:47:09.064Z</time></trkpt><trkpt lat="44.5991067" lon="8.0058233"><ele>403.0</ele><time>2026-04-12T10:47:11.062Z</time></trkpt><trkpt lat="44.5990533" lon="8.0058783"><ele>403.0</ele><time>2026-04-12T10:47:13.064Z</time></trkpt><trkpt lat="44.599" lon="8.00593"><ele>403.0</ele><time>2026-04-12T10:47:15.063Z</time></trkpt><trkpt lat="44.598945" lon="8.005985"><ele>403.0</ele><time>2026-04-12T10:47:17.062Z</time></trkpt><trkpt lat="44.598885" lon="8.00604"><ele>403.0</ele><time>2026-04-12T10:47:19.065Z</time></trkpt><trkpt lat="44.5988317" lon="8.00609"><ele>403.0</ele><time>2026-04-12T10:47:21.064Z</time></trkpt><trkpt lat="44.5987533" lon="8.00616"><ele>404.1666666666667</ele><time>2026-04-12T10:47:24.062Z</time></trkpt><trkpt lat="44.59867" lon="8.0062183"><ele>405.33333333333337</ele><time>2026-04-12T10:47:27.063Z</time></trkpt><trkpt lat="44.5985917" lon="8.006285"><ele>406.5</ele><time>2026-04-12T10:47:30.058Z</time></trkpt><trkpt lat="44.59851" lon="8.006335"><ele>407.66666666666663</ele><time>2026-04-12T10:47:33.065Z</time></trkpt><trkpt lat="44.5984467" lon="8.0063683"><ele>408.8333333333333</ele><time>2026-04-12T10:47:35.062Z</time></trkpt><trkpt lat="44.598385" lon="8.0064"><ele>410.0</ele><time>2026-04-12T10:47:37.064Z</time></trkpt><trkpt lat="44.5983183" lon="8.0064317"><ele>410.0</ele><time>2026-04-12T10:47:39.065Z</time></trkpt><trkpt lat="44.5982533" lon="8.006465"><ele>410.0</ele><time>2026-04-12T10:47:41.062Z</time></trkpt><trkpt lat="44.5981883" lon="8.0065067"><ele>410.0</ele><time>2026-04-12T10:47:43.065Z</time></trkpt><trkpt lat="44.5981233" lon="8.0065367"><ele>410.0</ele><time>2026-04-12T10:47:45.065Z</time></trkpt><trkpt lat="44.59805" lon="8.00656"><ele>410.0</ele><time>2026-04-12T10:47:47.061Z</time></trkpt><trkpt lat="44.5979767" lon="8.0065867"><ele>410.0</ele><time>2026-04-12T10:47:49.063Z</time></trkpt><trkpt lat="44.5978983" lon="8.00661"><ele>410.0</ele><time>2026-04-12T10:47:51.064Z</time></trkpt><trkpt lat="44.59782" lon="8.0066283"><ele>408.8</ele><time>2026-04-12T10:47:53.06Z</time></trkpt><trkpt lat="44.5977367" lon="8.00664"><ele>407.6</ele><time>2026-04-12T10:47:55.062Z</time></trkpt><trkpt lat="44.5976467" lon="8.0066567"><ele>406.4</ele><time>2026-04-12T10:47:57.065Z</time></trkpt><trkpt lat="44.597555" lon="8.00668"><ele>405.2</ele><time>2026-04-12T10:47:59.061Z</time></trkpt><trkpt lat="44.597465" lon="8.0066967"><ele>404.0</ele><time>2026-04-12T10:48:01.063Z</time></trkpt><trkpt lat="44.5973733" lon="8.0067117"><ele>407.79999999999995</ele><time>2026-04-12T10:48:03.063Z</time></trkpt><trkpt lat="44.5972733" lon="8.0067233"><ele>411.59999999999997</ele><time>2026-04-12T10:48:05.062Z</time></trkpt><trkpt lat="44.59717" lon="8.006735"><ele>415.4</ele><time>2026-04-12T10:48:07.067Z</time></trkpt><trkpt lat="44.5970667" lon="8.0067367"><ele>419.2</ele><time>2026-04-12T10:48:09.063Z</time></trkpt><trkpt lat="44.596965" lon="8.0067183"><ele>423.0</ele><time>2026-04-12T10:48:11.062Z</time></trkpt><trkpt lat="44.59686" lon="8.0066883"><ele>421.4</ele><time>2026-04-12T10:48:13.064Z</time></trkpt><trkpt lat="44.59676" lon="8.00663"><ele>419.79999999999995</ele><time>2026-04-12T10:48:15.065Z</time></trkpt><trkpt lat="44.5966683" lon="8.0065417"><ele>418.2</ele><time>2026-04-12T10:48:17.061Z</time></trkpt><trkpt lat="44.5965917" lon="8.0064317"><ele>416.6</ele><time>2026-04-12T10:48:19.066Z</time></trkpt><trkpt lat="44.5965117" lon="8.00632"><ele>415.0</ele><time>2026-04-12T10:48:21.066Z</time></trkpt><trkpt lat="44.5964267" lon="8.0062167"><ele>415.0</ele><time>2026-04-12T10:48:23.062Z</time></trkpt><trkpt lat="44.59635" lon="8.0061167"><ele>415.0</ele><time>2026-04-12T10:48:25.065Z</time></trkpt><trkpt lat="44.5962833" lon="8.0060033"><ele>415.0</ele><time>2026-04-12T10:48:27.062Z</time></trkpt><trkpt lat="44.596215" lon="8.00589"><ele>415.0</ele><time>2026-04-12T10:48:29.061Z</time></trkpt><trkpt lat="44.5961433" lon="8.0057767"><ele>415.0</ele><time>2026-04-12T10:48:31.064Z</time></trkpt><trkpt lat="44.5960867" lon="8.00565"><ele>414.6</ele><time>2026-04-12T10:48:33.069Z</time></trkpt><trkpt lat="44.5960467" lon="8.0055167"><ele>414.2</ele><time>2026-04-12T10:48:35.062Z</time></trkpt><trkpt lat="44.5960133" lon="8.005375"><ele>413.79999999999995</ele><time>2026-04-12T10:48:37.065Z</time></trkpt><trkpt lat="44.5959967" lon="8.005235"><ele>413.4</ele><time>2026-04-12T10:48:39.067Z</time></trkpt><trkpt lat="44.5959717" lon="8.0051"><ele>413.0</ele><time>2026-04-12T10:48:41.063Z</time></trkpt><trkpt lat="44.595905" lon="8.004985"><ele>413.0</ele><time>2026-04-12T10:48:43.063Z</time></trkpt><trkpt lat="44.59582" lon="8.0049033"><ele>413.0</ele><time>2026-04-12T10:48:45.063Z</time></trkpt><trkpt lat="44.5957233" lon="8.004855"><ele>413.0</ele><time>2026-04-12T10:48:47.064Z</time></trkpt><trkpt lat="44.5956217" lon="8.0048317"><ele>413.0</ele><time>2026-04-12T10:48:49.065Z</time></trkpt><trkpt lat="44.595525" lon="8.004805"><ele>413.0</ele><time>2026-04-12T10:48:51.062Z</time></trkpt><trkpt lat="44.59543" lon="8.0047667"><ele>415.0</ele><time>2026-04-12T10:48:53.064Z</time></trkpt><trkpt lat="44.59533" lon="8.0047067"><ele>417.0</ele><time>2026-04-12T10:48:55.064Z</time></trkpt><trkpt lat="44.59523" lon="8.00465"><ele>419.0</ele><time>2026-04-12T10:48:57.065Z</time></trkpt><trkpt lat="44.5951367" lon="8.0045617"><ele>421.0</ele><time>2026-04-12T10:48:59.063Z</time></trkpt><trkpt lat="44.5950417" lon="8.0044683"><ele>423.0</ele><time>2026-04-12T10:49:01.064Z</time></trkpt><trkpt lat="44.5949433" lon="8.00438"><ele>423.0</ele><time>2026-04-12T10:49:03.063Z</time></trkpt><trkpt lat="44.59485" lon="8.00428"><ele>423.0</ele><time>2026-04-12T10:49:05.063Z</time></trkpt><trkpt lat="44.59476" lon="8.0041767"><ele>423.0</ele><time>2026-04-12T10:49:07.064Z</time></trkpt><trkpt lat="44.5946733" lon="8.0040733"><ele>423.0</ele><time>2026-04-12T10:49:09.063Z</time></trkpt><trkpt lat="44.594595" lon="8.0039583"><ele>423.75</ele><time>2026-04-12T10:49:11.063Z</time></trkpt><trkpt lat="44.5945183" lon="8.00384"><ele>424.5</ele><time>2026-04-12T10:49:13.065Z</time></trkpt><trkpt lat="44.594445" lon="8.0037083"><ele>425.25</ele><time>2026-04-12T10:49:15.063Z</time></trkpt><trkpt lat="44.59437" lon="8.00357"><ele>426.0</ele><time>2026-04-12T10:49:17.061Z</time></trkpt><trkpt lat="44.594295" lon="8.003445"><ele>426.0</ele><time>2026-04-12T10:49:19.064Z</time></trkpt><trkpt lat="44.594215" lon="8.0033383"><ele>426.0</ele><time>2026-04-12T10:49:21.065Z</time></trkpt><trkpt lat="44.594125" lon="8.0032467"><ele>426.0</ele><time>2026-04-12T10:49:23.061Z</time></trkpt><trkpt lat="44.5940317" lon="8.0031683"><ele>426.0</ele><time>2026-04-12T10:49:25.065Z</time></trkpt><trkpt lat="44.59394" lon="8.0030833"><ele>426.0</ele><time>2026-04-12T10:49:27.063Z</time></trkpt><trkpt lat="44.593845" lon="8.0030033"><ele>425.20000000000005</ele><time>2026-04-12T10:49:29.064Z</time></trkpt><trkpt lat="44.59375" lon="8.00293"><ele>424.40000000000003</ele><time>2026-04-12T10:49:31.063Z</time></trkpt><trkpt lat="44.5936567" lon="8.00286"><ele>423.6</ele><time>2026-04-12T10:49:33.063Z</time></trkpt><trkpt lat="44.5935617" lon="8.0027883"><ele>422.8</ele><time>2026-04-12T10:49:35.063Z</time></trkpt><trkpt lat="44.5934683" lon="8.0027217"><ele>422.0</ele><time>2026-04-12T10:49:37.066Z</time></trkpt><trkpt lat="44.593365" lon="8.0026717"><ele>423.8</ele><time>2026-04-12T10:49:39.065Z</time></trkpt><trkpt lat="44.5932583" lon="8.0026433"><ele>425.6</ele><time>2026-04-12T10:49:41.06Z</time></trkpt><trkpt lat="44.59315" lon="8.0026483"><ele>427.40000000000003</ele><time>2026-04-12T10:49:43.063Z</time></trkpt><trkpt lat="44.593045" lon="8.0026683"><ele>429.20000000000005</ele><time>2026-04-12T10:49:45.063Z</time></trkpt><trkpt lat="44.5929383" lon="8.0027017"><ele>431.0</ele><time>2026-04-12T10:49:47.061Z</time></trkpt><trkpt lat="44.59284" lon="8.00275"><ele>430.6</ele><time>2026-04-12T10:49:49.063Z</time></trkpt><trkpt lat="44.5927433" lon="8.0027883"><ele>430.20000000000005</ele><time>2026-04-12T10:49:51.063Z</time></trkpt><trkpt lat="44.592645" lon="8.0028333"><ele>429.79999999999995</ele><time>2026-04-12T10:49:53.061Z</time></trkpt><trkpt lat="44.5925617" lon="8.0028833"><ele>429.4</ele><time>2026-04-12T10:49:55.065Z</time></trkpt><trkpt lat="44.5924783" lon="8.0029317"><ele>429.0</ele><time>2026-04-12T10:49:57.064Z</time></trkpt><trkpt lat="44.5923933" lon="8.0029583"><ele>429.0</ele><time>2026-04-12T10:49:59.064Z</time></trkpt><trkpt lat="44.5923067" lon="8.002985"><ele>429.0</ele><time>2026-04-12T10:50:01.065Z</time></trkpt><trkpt lat="44.5922183" lon="8.0030083"><ele>429.0</ele><time>2026-04-12T10:50:03.064Z</time></trkpt><trkpt lat="44.592135" lon="8.0030233"><ele>429.0</ele><time>2026-04-12T10:50:05.062Z</time></trkpt><trkpt lat="44.5920517" lon="8.00303"><ele>429.0</ele><time>2026-04-12T10:50:07.065Z</time></trkpt><trkpt lat="44.591965" lon="8.0030317"><ele>429.0</ele><time>2026-04-12T10:50:09.066Z</time></trkpt><trkpt lat="44.5918717" lon="8.0030433"><ele>429.3333333333333</ele><time>2026-04-12T10:50:11.061Z</time></trkpt><trkpt lat="44.59178" lon="8.0030433"><ele>429.66666666666663</ele><time>2026-04-12T10:50:13.067Z</time></trkpt><trkpt lat="44.59169" lon="8.0030333"><ele>430.0</ele><time>2026-04-12T10:50:15.064Z</time></trkpt><trkpt lat="44.591605" lon="8.0030233"><ele>430.3333333333333</ele><time>2026-04-12T10:50:17.064Z</time></trkpt><trkpt lat="44.5915217" lon="8.0030133"><ele>430.66666666666663</ele><time>2026-04-12T10:50:19.062Z</time></trkpt><trkpt lat="44.5914383" lon="8.0030033"><ele>431.0</ele><time>2026-04-12T10:50:21.065Z</time></trkpt><trkpt lat="44.5913567" lon="8.0029933"><ele>430.99999999999994</ele><time>2026-04-12T10:50:23.062Z</time></trkpt><trkpt lat="44.5912733" lon="8.0029867"><ele>431.0</ele><time>2026-04-12T10:50:25.066Z</time></trkpt><trkpt lat="44.5911883" lon="8.0029817"><ele>431.0</ele><time>2026-04-12T10:50:27.064Z</time></trkpt><trkpt lat="44.5911017" lon="8.002975"><ele>431.0</ele><time>2026-04-12T10:50:29.061Z</time></trkpt><trkpt lat="44.59101" lon="8.00297"><ele>430.99999999999994</ele><time>2026-04-12T10:50:31.065Z</time></trkpt><trkpt lat="44.590915" lon="8.00296"><ele>431.0</ele><time>2026-04-12T10:50:33.069Z</time></trkpt><trkpt lat="44.5908067" lon="8.0029467"><ele>431.49999999999994</ele><time>2026-04-12T10:50:35.065Z</time></trkpt><trkpt lat="44.5906867" lon="8.0029367"><ele>432.0</ele><time>2026-04-12T10:50:37.064Z</time></trkpt><trkpt lat="44.5905633" lon="8.0029217"><ele>432.5</ele><time>2026-04-12T10:50:39.065Z</time></trkpt><trkpt lat="44.5904983" lon="8.0029133"><ele>433.0</ele><time>2026-04-12T10:50:40.064Z</time></trkpt><trkpt lat="44.5904317" lon="8.002905"><ele>433.49999999999994</ele><time>2026-04-12T10:50:41.062Z</time></trkpt><trkpt lat="44.5903617" lon="8.002895"><ele>434.0</ele><time>2026-04-12T10:50:42.066Z</time></trkpt><trkpt lat="44.5902917" lon="8.0028867"><ele>432.99999999999994</ele><time>2026-04-12T10:50:43.065Z</time></trkpt><trkpt lat="44.5902167" lon="8.00288"><ele>432.0</ele><time>2026-04-12T10:50:44.064Z</time></trkpt><trkpt lat="44.59014" lon="8.0028767"><ele>431.0</ele><time>2026-04-12T10:50:45.064Z</time></trkpt><trkpt lat="44.5900617" lon="8.0028733"><ele>430.0</ele><time>2026-04-12T10:50:46.065Z</time></trkpt><trkpt lat="44.58998" lon="8.002875"><ele>428.99999999999994</ele><time>2026-04-12T10:50:47.062Z</time></trkpt><trkpt lat="44.5898983" lon="8.0028867"><ele>428.0</ele><time>2026-04-12T10:50:48.064Z</time></trkpt><trkpt lat="44.589815" lon="8.0029117"><ele>428.0</ele><time>2026-04-12T10:50:49.058Z</time></trkpt><trkpt lat="44.5897317" lon="8.00295"><ele>427.99999999999994</ele><time>2026-04-12T10:50:50.063Z</time></trkpt><trkpt lat="44.5896467" lon="8.003005"><ele>427.99999999999994</ele><time>2026-04-12T10:50:51.065Z</time></trkpt><trkpt lat="44.5895667" lon="8.00308"><ele>428.0</ele><time>2026-04-12T10:50:52.063Z</time></trkpt><trkpt lat="44.5894933" lon="8.0031667"><ele>428.0</ele><time>2026-04-12T10:50:53.063Z</time></trkpt><trkpt lat="44.589425" lon="8.003265"><ele>428.4</ele><time>2026-04-12T10:50:54.063Z</time></trkpt><trkpt lat="44.5893567" lon="8.0033733"><ele>428.79999999999995</ele><time>2026-04-12T10:50:55.064Z</time></trkpt><trkpt lat="44.58929" lon="8.0034817"><ele>429.2</ele><time>2026-04-12T10:50:56.065Z</time></trkpt><trkpt lat="44.5892217" lon="8.0035933"><ele>429.6</ele><time>2026-04-12T10:50:57.063Z</time></trkpt><trkpt lat="44.5891567" lon="8.003705"><ele>430.0</ele><time>2026-04-12T10:50:58.064Z</time></trkpt><trkpt lat="44.5890933" lon="8.00382"><ele>430.0</ele><time>2026-04-12T10:50:59.063Z</time></trkpt><trkpt lat="44.5890283" lon="8.003935"><ele>430.0</ele><time>2026-04-12T10:51:00.064Z</time></trkpt><trkpt lat="44.5889617" lon="8.0040517"><ele>430.0</ele><time>2026-04-12T10:51:01.065Z</time></trkpt><trkpt lat="44.5888917" lon="8.0041667"><ele>430.0</ele><time>2026-04-12T10:51:02.064Z</time></trkpt><trkpt lat="44.5888217" lon="8.0042833"><ele>430.0</ele><time>2026-04-12T10:51:03.065Z</time></trkpt><trkpt lat="44.5887533" lon="8.0044033"><ele>429.0</ele><time>2026-04-12T10:51:04.065Z</time></trkpt><trkpt lat="44.588685" lon="8.0045217"><ele>428.0</ele><time>2026-04-12T10:51:05.062Z</time></trkpt><trkpt lat="44.58862" lon="8.00464"><ele>427.0</ele><time>2026-04-12T10:51:06.065Z</time></trkpt><trkpt lat="44.588555" lon="8.0047583"><ele>426.0</ele><time>2026-04-12T10:51:07.064Z</time></trkpt><trkpt lat="44.5884917" lon="8.0048767"><ele>425.0</ele><time>2026-04-12T10:51:08.066Z</time></trkpt><trkpt lat="44.5884367" lon="8.0050017"><ele>424.0</ele><time>2026-04-12T10:51:09.066Z</time></trkpt><trkpt lat="44.5883967" lon="8.0051333"><ele>423.0</ele><time>2026-04-12T10:51:10.064Z</time></trkpt><trkpt lat="44.5883683" lon="8.0052683"><ele>422.0</ele><time>2026-04-12T10:51:11.063Z</time></trkpt><trkpt lat="44.58835" lon="8.0054017"><ele>421.0</ele><time>2026-04-12T10:51:12.063Z</time></trkpt><trkpt lat="44.5883417" lon="8.0055317"><ele>420.0</ele><time>2026-04-12T10:51:13.062Z</time></trkpt><trkpt lat="44.5883417" lon="8.005655"><ele>420.0</ele><time>2026-04-12T10:51:14.062Z</time></trkpt><trkpt lat="44.58835" lon="8.00577"><ele>420.0</ele><time>2026-04-12T10:51:15.065Z</time></trkpt><trkpt lat="44.5883633" lon="8.0058783"><ele>420.0</ele><time>2026-04-12T10:51:16.064Z</time></trkpt><trkpt lat="44.58838" lon="8.0059783"><ele>420.0</ele><time>2026-04-12T10:51:17.063Z</time></trkpt><trkpt lat="44.5883983" lon="8.0060717"><ele>420.0</ele><time>2026-04-12T10:51:18.063Z</time></trkpt><trkpt lat="44.58842" lon="8.006155"><ele>420.0</ele><time>2026-04-12T10:51:19.064Z</time></trkpt><trkpt lat="44.58846" lon="8.0063067"><ele>421.1666666666667</ele><time>2026-04-12T10:51:21.062Z</time></trkpt><trkpt lat="44.5884933" lon="8.0064433"><ele>422.33333333333337</ele><time>2026-04-12T10:51:23.062Z</time></trkpt><trkpt lat="44.5885117" lon="8.006565"><ele>423.5</ele><time>2026-04-12T10:51:25.063Z</time></trkpt><trkpt lat="44.5885033" lon="8.006685"><ele>424.6666666666667</ele><time>2026-04-12T10:51:27.063Z</time></trkpt><trkpt lat="44.5884633" lon="8.006785"><ele>425.83333333333337</ele><time>2026-04-12T10:51:29.062Z</time></trkpt><trkpt lat="44.5883883" lon="8.00685"><ele>427.0</ele><time>2026-04-12T10:51:31.063Z</time></trkpt><trkpt lat="44.5883117" lon="8.0068733"><ele>428.33333333333337</ele><time>2026-04-12T10:51:33.065Z</time></trkpt><trkpt lat="44.5882367" lon="8.00688"><ele>429.6666666666667</ele><time>2026-04-12T10:51:35.064Z</time></trkpt><trkpt lat="44.5881617" lon="8.00687"><ele>431.0</ele><time>2026-04-12T10:51:37.065Z</time></trkpt><trkpt lat="44.5880833" lon="8.0068533"><ele>432.33333333333337</ele><time>2026-04-12T10:51:39.064Z</time></trkpt><trkpt lat="44.588005" lon="8.0068417"><ele>433.6666666666667</ele><time>2026-04-12T10:51:41.064Z</time></trkpt><trkpt lat="44.58793" lon="8.0068333"><ele>435.0</ele><time>2026-04-12T10:51:43.065Z</time></trkpt><trkpt lat="44.5878583" lon="8.006825"><ele>435.00000000000006</ele><time>2026-04-12T10:51:45.067Z</time></trkpt><trkpt lat="44.5877917" lon="8.0068067"><ele>435.0</ele><time>2026-04-12T10:51:47.064Z</time></trkpt><trkpt lat="44.587725" lon="8.0067967"><ele>435.0</ele><time>2026-04-12T10:51:49.065Z</time></trkpt><trkpt lat="44.5876583" lon="8.0067833"><ele>435.0</ele><time>2026-04-12T10:51:51.064Z</time></trkpt><trkpt lat="44.5875933" lon="8.006775"><ele>435.0</ele><time>2026-04-12T10:51:53.061Z</time></trkpt><trkpt lat="44.58753" lon="8.0067683"><ele>435.00000000000006</ele><time>2026-04-12T10:51:55.066Z</time></trkpt><trkpt lat="44.5874633" lon="8.00677"><ele>435.0</ele><time>2026-04-12T10:51:57.065Z</time></trkpt><trkpt lat="44.5873967" lon="8.0067767"><ele>435.0</ele><time>2026-04-12T10:51:59.066Z</time></trkpt><trkpt lat="44.5873333" lon="8.0067883"><ele>435.0</ele><time>2026-04-12T10:52:01.063Z</time></trkpt><trkpt lat="44.5872417" lon="8.0068183"><ele>435.0</ele><time>2026-04-12T10:52:04.064Z</time></trkpt><trkpt lat="44.5871833" lon="8.0068517"><ele>435.0</ele><time>2026-04-12T10:52:06.062Z</time></trkpt><trkpt lat="44.5871067" lon="8.00692"><ele>435.0</ele><time>2026-04-12T10:52:09.067Z</time></trkpt><trkpt lat="44.5870333" lon="8.0070033"><ele>435.0</ele><time>2026-04-12T10:52:12.064Z</time></trkpt><trkpt lat="44.586985" lon="8.00707"><ele>435.8333333333333</ele><time>2026-04-12T10:52:14.064Z</time></trkpt><trkpt lat="44.5869433" lon="8.0071433"><ele>436.66666666666663</ele><time>2026-04-12T10:52:16.064Z</time></trkpt><trkpt lat="44.58689" lon="8.0072483"><ele>437.5</ele><time>2026-04-12T10:52:19.064Z</time></trkpt><trkpt lat="44.58686" lon="8.0073267"><ele>438.3333333333333</ele><time>2026-04-12T10:52:21.069Z</time></trkpt><trkpt lat="44.5868283" lon="8.0074417"><ele>439.16666666666663</ele><time>2026-04-12T10:52:24.065Z</time></trkpt><trkpt lat="44.5868083" lon="8.0075583"><ele>440.0</ele><time>2026-04-12T10:52:27.064Z</time></trkpt><trkpt lat="44.5868" lon="8.0076883"><ele>439.99999999999994</ele><time>2026-04-12T10:52:30.064Z</time></trkpt><trkpt lat="44.58681" lon="8.0078117"><ele>440.0</ele><time>2026-04-12T10:52:33.065Z</time></trkpt><trkpt lat="44.5868317" lon="8.0079367"><ele>440.0</ele><time>2026-04-12T10:52:36.064Z</time></trkpt><trkpt lat="44.586855" lon="8.00806"><ele>440.0</ele><time>2026-04-12T10:52:39.062Z</time></trkpt><trkpt lat="44.586875" lon="8.0081467"><ele>439.99999999999994</ele><time>2026-04-12T10:52:41.064Z</time></trkpt><trkpt lat="44.586905" lon="8.0082683"><ele>440.0</ele><time>2026-04-12T10:52:44.064Z</time></trkpt><trkpt lat="44.58692" lon="8.0083583"><ele>441.3333333333333</ele><time>2026-04-12T10:52:46.065Z</time></trkpt><trkpt lat="44.5869167" lon="8.0084867"><ele>442.66666666666663</ele><time>2026-04-12T10:52:49.064Z</time></trkpt><trkpt lat="44.5868883" lon="8.0086117"><ele>444.0</ele><time>2026-04-12T10:52:52.064Z</time></trkpt><trkpt lat="44.586845" lon="8.0087133"><ele>445.33333333333337</ele><time>2026-04-12T10:52:55.063Z</time></trkpt><trkpt lat="44.586795" lon="8.0087717"><ele>446.6666666666667</ele><time>2026-04-12T10:52:57.065Z</time></trkpt><trkpt lat="44.58672" lon="8.0088467"><ele>448.0</ele><time>2026-04-12T10:53:00.063Z</time></trkpt><trkpt lat="44.5866683" lon="8.0088983"><ele>448.00000000000006</ele><time>2026-04-12T10:53:02.062Z</time></trkpt><trkpt lat="44.5866" lon="8.0089783"><ele>448.0</ele><time>2026-04-12T10:53:05.062Z</time></trkpt><trkpt lat="44.5865317" lon="8.0090733"><ele>448.0</ele><time>2026-04-12T10:53:08.065Z</time></trkpt><trkpt lat="44.586485" lon="8.0091333"><ele>448.0</ele><time>2026-04-12T10:53:10.062Z</time></trkpt><trkpt lat="44.58643" lon="8.00923"><ele>448.00000000000006</ele><time>2026-04-12T10:53:13.067Z</time></trkpt><trkpt lat="44.5863767" lon="8.0093383"><ele>448.0</ele><time>2026-04-12T10:53:16.065Z</time></trkpt><trkpt lat="44.5863233" lon="8.0094467"><ele>447.83333333333337</ele><time>2026-04-12T10:53:19.068Z</time></trkpt><trkpt lat="44.5862783" lon="8.0095517"><ele>447.6666666666667</ele><time>2026-04-12T10:53:22.064Z</time></trkpt><trkpt lat="44.5862283" lon="8.0096617"><ele>447.5</ele><time>2026-04-12T10:53:25.065Z</time></trkpt><trkpt lat="44.586195" lon="8.0097417"><ele>447.33333333333337</ele><time>2026-04-12T10:53:27.064Z</time></trkpt><trkpt lat="44.5861567" lon="8.0098133"><ele>447.1666666666667</ele><time>2026-04-12T10:53:29.063Z</time></trkpt><trkpt lat="44.5861017" lon="8.0099083"><ele>447.0</ele><time>2026-04-12T10:53:32.061Z</time></trkpt><trkpt lat="44.5860417" lon="8.01"><ele>450.3333333333333</ele><time>2026-04-12T10:53:35.063Z</time></trkpt><trkpt lat="44.5859933" lon="8.01006"><ele>453.66666666666663</ele><time>2026-04-12T10:53:37.067Z</time></trkpt><trkpt lat="44.58592" lon="8.01014"><ele>457.0</ele><time>2026-04-12T10:53:40.067Z</time></trkpt><trkpt lat="44.5858383" lon="8.0101933"><ele>460.3333333333333</ele><time>2026-04-12T10:53:43.065Z</time></trkpt><trkpt lat="44.5857517" lon="8.010225"><ele>463.66666666666663</ele><time>2026-04-12T10:53:46.063Z</time></trkpt><trkpt lat="44.5856683" lon="8.010225"><ele>467.0</ele><time>2026-04-12T10:53:49.065Z</time></trkpt><trkpt lat="44.58558" lon="8.0102117"><ele>466.99999999999994</ele><time>2026-04-12T10:53:52.064Z</time></trkpt><trkpt lat="44.5854867" lon="8.0102083"><ele>467.0</ele><time>2026-04-12T10:53:55.065Z</time></trkpt><trkpt lat="44.5854017" lon="8.0102017"><ele>467.0</ele><time>2026-04-12T10:53:58.063Z</time></trkpt><trkpt lat="44.5853183" lon="8.0102467"><ele>467.0</ele><time>2026-04-12T10:54:01.064Z</time></trkpt><trkpt lat="44.585255" lon="8.0103383"><ele>466.99999999999994</ele><time>2026-04-12T10:54:04.064Z</time></trkpt><trkpt lat="44.58523" lon="8.0104467"><ele>467.0</ele><time>2026-04-12T10:54:07.065Z</time></trkpt><trkpt lat="44.58524" lon="8.0105617"><ele>466.99999999999994</ele><time>2026-04-12T10:54:10.063Z</time></trkpt><trkpt lat="44.585285" lon="8.0106617"><ele>467.0</ele><time>2026-04-12T10:54:13.065Z</time></trkpt><trkpt lat="44.5853583" lon="8.010735"><ele>467.0</ele><time>2026-04-12T10:54:16.062Z</time></trkpt><trkpt lat="44.585445" lon="8.0107683"><ele>467.0</ele><time>2026-04-12T10:54:19.065Z</time></trkpt><trkpt lat="44.5855083" lon="8.010775"><ele>466.99999999999994</ele><time>2026-04-12T10:54:21.065Z</time></trkpt><trkpt lat="44.5855783" lon="8.0107683"><ele>467.0</ele><time>2026-04-12T10:54:23.062Z</time></trkpt><trkpt lat="44.5856517" lon="8.0107733"><ele>466.99999999999994</ele><time>2026-04-12T10:54:25.066Z</time></trkpt><trkpt lat="44.58572" lon="8.010785"><ele>467.0</ele><time>2026-04-12T10:54:27.065Z</time></trkpt><trkpt lat="44.5857867" lon="8.0107917"><ele>466.99999999999994</ele><time>2026-04-12T10:54:29.066Z</time></trkpt><trkpt lat="44.585855" lon="8.0107983"><ele>466.99999999999994</ele><time>2026-04-12T10:54:31.066Z</time></trkpt><trkpt lat="44.585925" lon="8.01079"><ele>467.0</ele><time>2026-04-12T10:54:33.067Z</time></trkpt><trkpt lat="44.5859933" lon="8.0107683"><ele>466.99999999999994</ele><time>2026-04-12T10:54:35.064Z</time></trkpt><trkpt lat="44.586065" lon="8.0107367"><ele>466.99999999999994</ele><time>2026-04-12T10:54:37.062Z</time></trkpt><trkpt lat="44.5861317" lon="8.0106967"><ele>468.71428571428567</ele><time>2026-04-12T10:54:39.065Z</time></trkpt><trkpt lat="44.5861917" lon="8.0106433"><ele>470.42857142857144</ele><time>2026-04-12T10:54:41.064Z</time></trkpt><trkpt lat="44.586245" lon="8.0105833"><ele>472.1428571428571</ele><time>2026-04-12T10:54:43.063Z</time></trkpt><trkpt lat="44.5863" lon="8.0105183"><ele>473.85714285714283</ele><time>2026-04-12T10:54:45.063Z</time></trkpt><trkpt lat="44.5863533" lon="8.010455"><ele>475.57142857142856</ele><time>2026-04-12T10:54:47.067Z</time></trkpt><trkpt lat="44.58641" lon="8.0103983"><ele>477.2857142857143</ele><time>2026-04-12T10:54:49.064Z</time></trkpt><trkpt lat="44.5865017" lon="8.0103917"><ele>479.0</ele><time>2026-04-12T10:54:52.063Z</time></trkpt><trkpt lat="44.5865433" lon="8.0104583"><ele>479.0</ele><time>2026-04-12T10:54:54.061Z</time></trkpt><trkpt lat="44.5865317" lon="8.01055"><ele>479.0</ele><time>2026-04-12T10:54:56.069Z</time></trkpt><trkpt lat="44.5864867" lon="8.010625"><ele>479.0</ele><time>2026-04-12T10:54:58.056Z</time></trkpt><trkpt lat="44.5864267" lon="8.0106867"><ele>479.0</ele><time>2026-04-12T10:55:00.063Z</time></trkpt><trkpt lat="44.5863683" lon="8.0107433"><ele>479.0</ele><time>2026-04-12T10:55:02.064Z</time></trkpt><trkpt lat="44.5863067" lon="8.0107983"><ele>479.0</ele><time>2026-04-12T10:55:04.063Z</time></trkpt><trkpt lat="44.586245" lon="8.0108517"><ele>479.0</ele><time>2026-04-12T10:55:06.063Z</time></trkpt><trkpt lat="44.5861917" lon="8.01091"><ele>479.57142857142856</ele><time>2026-04-12T10:55:08.065Z</time></trkpt><trkpt lat="44.5861367" lon="8.0109683"><ele>480.14285714285717</ele><time>2026-04-12T10:55:10.065Z</time></trkpt><trkpt lat="44.5860867" lon="8.011025"><ele>480.7142857142857</ele><time>2026-04-12T10:55:12.065Z</time></trkpt><trkpt lat="44.5860333" lon="8.0110933"><ele>481.2857142857143</ele><time>2026-04-12T10:55:14.066Z</time></trkpt><trkpt lat="44.5859833" lon="8.01116"><ele>481.8571428571429</ele><time>2026-04-12T10:55:16.065Z</time></trkpt><trkpt lat="44.5859317" lon="8.011225"><ele>482.42857142857144</ele><time>2026-04-12T10:55:18.066Z</time></trkpt><trkpt lat="44.5858783" lon="8.01129"><ele>483.0</ele><time>2026-04-12T10:55:20.066Z</time></trkpt><trkpt lat="44.58583" lon="8.01135"><ele>483.0</ele><time>2026-04-12T10:55:22.064Z</time></trkpt><trkpt lat="44.5857783" lon="8.011415"><ele>483.0</ele><time>2026-04-12T10:55:24.062Z</time></trkpt><trkpt lat="44.5857383" lon="8.0114933"><ele>483.0</ele><time>2026-04-12T10:55:26.061Z</time></trkpt><trkpt lat="44.5857" lon="8.0115683"><ele>483.0</ele><time>2026-04-12T10:55:28.065Z</time></trkpt><trkpt lat="44.585645" lon="8.011675"><ele>483.0</ele><time>2026-04-12T10:55:31.059Z</time></trkpt><trkpt lat="44.5856083" lon="8.0117483"><ele>483.0</ele><time>2026-04-12T10:55:33.065Z</time></trkpt><trkpt lat="44.5855717" lon="8.0118217"><ele>483.0</ele><time>2026-04-12T10:55:35.062Z</time></trkpt><trkpt lat="44.585525" lon="8.0119383"><ele>484.1666666666667</ele><time>2026-04-12T10:55:38.062Z</time></trkpt><trkpt lat="44.5854917" lon="8.012015"><ele>485.33333333333337</ele><time>2026-04-12T10:55:40.062Z</time></trkpt><trkpt lat="44.5854517" lon="8.0121267"><ele>486.5</ele><time>2026-04-12T10:55:43.066Z</time></trkpt><trkpt lat="44.5854183" lon="8.0122417"><ele>487.6666666666667</ele><time>2026-04-12T10:55:46.065Z</time></trkpt><trkpt lat="44.585365" lon="8.0123417"><ele>488.83333333333337</ele><time>2026-04-12T10:55:49.064Z</time></trkpt><trkpt lat="44.5852967" lon="8.0124317"><ele>490.0</ele><time>2026-04-12T10:55:52.061Z</time></trkpt><trkpt lat="44.5852517" lon="8.0125017"><ele>492.00000000000006</ele><time>2026-04-12T10:55:54.062Z</time></trkpt><trkpt lat="44.5852083" lon="8.0125667"><ele>494.0</ele><time>2026-04-12T10:55:56.06Z</time></trkpt><trkpt lat="44.5851667" lon="8.012635"><ele>496.0</ele><time>2026-04-12T10:55:58.062Z</time></trkpt><trkpt lat="44.5851733" lon="8.01277"><ele>498.0</ele><time>2026-04-12T10:56:01.064Z</time></trkpt><trkpt lat="44.5852017" lon="8.0128767"><ele>500.00000000000006</ele><time>2026-04-12T10:56:03.064Z</time></trkpt><trkpt lat="44.5852167" lon="8.013"><ele>502.0</ele><time>2026-04-12T10:56:05.063Z</time></trkpt><trkpt lat="44.5852283" lon="8.0131467"><ele>502.00000000000006</ele><time>2026-04-12T10:56:07.061Z</time></trkpt><trkpt lat="44.5852467" lon="8.0133167"><ele>502.0</ele><time>2026-04-12T10:56:09.064Z</time></trkpt><trkpt lat="44.5852567" lon="8.013405"><ele>502.0</ele><time>2026-04-12T10:56:10.063Z</time></trkpt><trkpt lat="44.5852633" lon="8.0135"><ele>502.0</ele><time>2026-04-12T10:56:11.063Z</time></trkpt><trkpt lat="44.5852717" lon="8.0136017"><ele>502.00000000000006</ele><time>2026-04-12T10:56:12.064Z</time></trkpt><trkpt lat="44.5852883" lon="8.013705"><ele>502.0</ele><time>2026-04-12T10:56:13.063Z</time></trkpt><trkpt lat="44.5853133" lon="8.0138083"><ele>499.6666666666667</ele><time>2026-04-12T10:56:14.065Z</time></trkpt><trkpt lat="44.585355" lon="8.01391"><ele>497.33333333333337</ele><time>2026-04-12T10:56:15.064Z</time></trkpt><trkpt lat="44.5854067" lon="8.0140083"><ele>495.0</ele><time>2026-04-12T10:56:16.063Z</time></trkpt><trkpt lat="44.58546" lon="8.0141067"><ele>492.66666666666663</ele><time>2026-04-12T10:56:17.061Z</time></trkpt><trkpt lat="44.5855167" lon="8.0142017"><ele>490.3333333333333</ele><time>2026-04-12T10:56:18.061Z</time></trkpt><trkpt lat="44.5855767" lon="8.0143033"><ele>488.0</ele><time>2026-04-12T10:56:19.061Z</time></trkpt><trkpt lat="44.5856317" lon="8.0144133"><ele>488.0</ele><time>2026-04-12T10:56:20.062Z</time></trkpt><trkpt lat="44.5856817" lon="8.014525"><ele>487.99999999999994</ele><time>2026-04-12T10:56:21.064Z</time></trkpt><trkpt lat="44.585735" lon="8.0146383"><ele>487.99999999999994</ele><time>2026-04-12T10:56:22.062Z</time></trkpt><trkpt lat="44.5857733" lon="8.0147567"><ele>488.0</ele><time>2026-04-12T10:56:23.061Z</time></trkpt><trkpt lat="44.5857917" lon="8.014885"><ele>488.0</ele><time>2026-04-12T10:56:24.061Z</time></trkpt><trkpt lat="44.5857883" lon="8.0150167"><ele>488.2</ele><time>2026-04-12T10:56:25.064Z</time></trkpt><trkpt lat="44.585765" lon="8.0151467"><ele>488.4</ele><time>2026-04-12T10:56:26.064Z</time></trkpt><trkpt lat="44.5857517" lon="8.0152833"><ele>488.59999999999997</ele><time>2026-04-12T10:56:27.063Z</time></trkpt><trkpt lat="44.5857667" lon="8.015425"><ele>488.79999999999995</ele><time>2026-04-12T10:56:28.063Z</time></trkpt><trkpt lat="44.585795" lon="8.01556"><ele>489.0</ele><time>2026-04-12T10:56:29.062Z</time></trkpt><trkpt lat="44.58584" lon="8.0156767"><ele>489.0</ele><time>2026-04-12T10:56:30.061Z</time></trkpt><trkpt lat="44.585905" lon="8.015775"><ele>489.0</ele><time>2026-04-12T10:56:31.064Z</time></trkpt><trkpt lat="44.58598" lon="8.0158617"><ele>489.0</ele><time>2026-04-12T10:56:32.063Z</time></trkpt><trkpt lat="44.5860583" lon="8.0159483"><ele>489.0</ele><time>2026-04-12T10:56:33.061Z</time></trkpt><trkpt lat="44.5861283" lon="8.0160433"><ele>489.0</ele><time>2026-04-12T10:56:34.061Z</time></trkpt><trkpt lat="44.5861833" lon="8.016145"><ele>488.1666666666667</ele><time>2026-04-12T10:56:35.063Z</time></trkpt><trkpt lat="44.58622" lon="8.0162433"><ele>487.33333333333337</ele><time>2026-04-12T10:56:36.062Z</time></trkpt><trkpt lat="44.5862433" lon="8.016335"><ele>486.5</ele><time>2026-04-12T10:56:37.063Z</time></trkpt><trkpt lat="44.5862733" lon="8.0164917"><ele>485.6666666666667</ele><time>2026-04-12T10:56:39.064Z</time></trkpt><trkpt lat="44.5862967" lon="8.0166167"><ele>484.83333333333337</ele><time>2026-04-12T10:56:41.061Z</time></trkpt><trkpt lat="44.58629" lon="8.0167183"><ele>484.0</ele><time>2026-04-12T10:56:43.061Z</time></trkpt><trkpt lat="44.5862317" lon="8.01677"><ele>484.1428571428571</ele><time>2026-04-12T10:56:45.062Z</time></trkpt><trkpt lat="44.5861417" lon="8.0167783"><ele>484.2857142857142</ele><time>2026-04-12T10:56:48.064Z</time></trkpt><trkpt lat="44.5860783" lon="8.0167767"><ele>484.42857142857144</ele><time>2026-04-12T10:56:50.063Z</time></trkpt><trkpt lat="44.586015" lon="8.0167583"><ele>484.57142857142856</ele><time>2026-04-12T10:56:52.064Z</time></trkpt><trkpt lat="44.5859517" lon="8.0167333"><ele>484.7142857142857</ele><time>2026-04-12T10:56:54.065Z</time></trkpt><trkpt lat="44.5858917" lon="8.0166917"><ele>484.8571428571429</ele><time>2026-04-12T10:56:56.066Z</time></trkpt><trkpt lat="44.5858267" lon="8.01661"><ele>485.00000000000006</ele><time>2026-04-12T10:56:59.065Z</time></trkpt><trkpt lat="44.5857833" lon="8.0165433"><ele>485.8333333333333</ele><time>2026-04-12T10:57:01.065Z</time></trkpt><trkpt lat="44.585725" lon="8.0164533"><ele>486.66666666666663</ele><time>2026-04-12T10:57:04.065Z</time></trkpt><trkpt lat="44.585665" lon="8.0163683"><ele>487.5</ele><time>2026-04-12T10:57:07.065Z</time></trkpt><trkpt lat="44.5855917" lon="8.0163017"><ele>488.33333333333337</ele><time>2026-04-12T10:57:10.064Z</time></trkpt><trkpt lat="44.5855133" lon="8.016265"><ele>489.1666666666667</ele><time>2026-04-12T10:57:13.063Z</time></trkpt><trkpt lat="44.5854367" lon="8.01624"><ele>490.0</ele><time>2026-04-12T10:57:16.062Z</time></trkpt><trkpt lat="44.5853567" lon="8.0162167"><ele>491.1666666666667</ele><time>2026-04-12T10:57:19.064Z</time></trkpt><trkpt lat="44.5852683" lon="8.01619"><ele>492.33333333333337</ele><time>2026-04-12T10:57:22.062Z</time></trkpt><trkpt lat="44.5852" lon="8.0161567"><ele>493.5</ele><time>2026-04-12T10:57:25.066Z</time></trkpt><trkpt lat="44.5851433" lon="8.0160983"><ele>494.66666666666663</ele><time>2026-04-12T10:57:28.063Z</time></trkpt><trkpt lat="44.5851083" lon="8.016005"><ele>495.8333333333333</ele><time>2026-04-12T10:57:31.065Z</time></trkpt><trkpt lat="44.585065" lon="8.0159233"><ele>497.0</ele><time>2026-04-12T10:57:34.063Z</time></trkpt><trkpt lat="44.5850217" lon="8.0158283"><ele>498.42857142857144</ele><time>2026-04-12T10:57:38.064Z</time></trkpt><trkpt lat="44.58499" lon="8.01573"><ele>499.8571428571429</ele><time>2026-04-12T10:57:42.064Z</time></trkpt><trkpt lat="44.5849467" lon="8.0156567"><ele>501.2857142857143</ele><time>2026-04-12T10:57:45.066Z</time></trkpt><trkpt lat="44.5848983" lon="8.0155867"><ele>502.7142857142857</ele><time>2026-04-12T10:57:48.062Z</time></trkpt><trkpt lat="44.58483" lon="8.01552"><ele>504.14285714285717</ele><time>2026-04-12T10:57:51.066Z</time></trkpt><trkpt lat="44.584775" lon="8.0154517"><ele>505.57142857142856</ele><time>2026-04-12T10:57:54.066Z</time></trkpt><trkpt lat="44.5847217" lon="8.01538"><ele>507.0</ele><time>2026-04-12T10:57:57.063Z</time></trkpt><trkpt lat="44.5846717" lon="8.0153067"><ele>507.0</ele><time>2026-04-12T10:58:00.063Z</time></trkpt><trkpt lat="44.5846067" lon="8.015245"><ele>507.0</ele><time>2026-04-12T10:58:03.062Z</time></trkpt><trkpt lat="44.58455" lon="8.0151833"><ele>507.0</ele><time>2026-04-12T10:58:06.064Z</time></trkpt><trkpt lat="44.584485" lon="8.015135"><ele>507.0</ele><time>2026-04-12T10:58:09.066Z</time></trkpt><trkpt lat="44.5844217" lon="8.015085"><ele>507.0</ele><time>2026-04-12T10:58:12.061Z</time></trkpt><trkpt lat="44.5843533" lon="8.0150567"><ele>507.0</ele><time>2026-04-12T10:58:15.064Z</time></trkpt><trkpt lat="44.58428" lon="8.0150583"><ele>507.0</ele><time>2026-04-12T10:58:18.065Z</time></trkpt><trkpt lat="44.5842" lon="8.01506"><ele>507.85714285714283</ele><time>2026-04-12T10:58:21.064Z</time></trkpt><trkpt lat="44.58412" lon="8.0150683"><ele>508.7142857142858</ele><time>2026-04-12T10:58:24.062Z</time></trkpt><trkpt lat="44.584035" lon="8.0150667"><ele>509.5714285714286</ele><time>2026-04-12T10:58:28.063Z</time></trkpt><trkpt lat="44.58397" lon="8.01507"><ele>510.42857142857144</ele><time>2026-04-12T10:58:31.063Z</time></trkpt><trkpt lat="44.5839033" lon="8.015075"><ele>511.28571428571433</ele><time>2026-04-12T10:58:34.062Z</time></trkpt><trkpt lat="44.5838367" lon="8.0150567"><ele>512.1428571428572</ele><time>2026-04-12T10:58:38.065Z</time></trkpt><trkpt lat="44.5837667" lon="8.0150183"><ele>513.0</ele><time>2026-04-12T10:58:42.062Z</time></trkpt><trkpt lat="44.5837083" lon="8.0149767"><ele>515.5714285714287</ele><time>2026-04-12T10:58:45.064Z</time></trkpt><trkpt lat="44.5836417" lon="8.0149417"><ele>518.1428571428571</ele><time>2026-04-12T10:58:48.063Z</time></trkpt><trkpt lat="44.5835833" lon="8.01488"><ele>520.7142857142858</ele><time>2026-04-12T10:58:52.064Z</time></trkpt><trkpt lat="44.5835567" lon="8.0147867"><ele>523.2857142857143</ele><time>2026-04-12T10:58:56.064Z</time></trkpt><trkpt lat="44.5835167" lon="8.0146983"><ele>525.8571428571429</ele><time>2026-04-12T10:59:00.064Z</time></trkpt><trkpt lat="44.5834633" lon="8.0146233"><ele>528.4285714285714</ele><time>2026-04-12T10:59:04.063Z</time></trkpt><trkpt lat="44.5834117" lon="8.01454"><ele>531.0</ele><time>2026-04-12T10:59:08.062Z</time></trkpt><trkpt lat="44.58335" lon="8.01446"><ele>531.0</ele><time>2026-04-12T10:59:12.062Z</time></trkpt><trkpt lat="44.5832833" lon="8.014415"><ele>531.0</ele><time>2026-04-12T10:59:15.065Z</time></trkpt><trkpt lat="44.5832183" lon="8.0143733"><ele>531.0</ele><time>2026-04-12T10:59:18.062Z</time></trkpt><trkpt lat="44.58314" lon="8.0143433"><ele>531.0</ele><time>2026-04-12T10:59:21.063Z</time></trkpt><trkpt lat="44.5830483" lon="8.014315"><ele>531.0</ele><time>2026-04-12T10:59:24.061Z</time></trkpt><trkpt lat="44.5829867" lon="8.0142967"><ele>531.0</ele><time>2026-04-12T10:59:26.066Z</time></trkpt><trkpt lat="44.5828967" lon="8.0142883"><ele>530.1428571428571</ele><time>2026-04-12T10:59:29.064Z</time></trkpt><trkpt lat="44.5828283" lon="8.0142867"><ele>529.2857142857143</ele><time>2026-04-12T10:59:31.063Z</time></trkpt><trkpt lat="44.582755" lon="8.0142867"><ele>528.4285714285714</ele><time>2026-04-12T10:59:33.063Z</time></trkpt><trkpt lat="44.5826833" lon="8.0142867"><ele>527.5714285714286</ele><time>2026-04-12T10:59:35.061Z</time></trkpt><trkpt lat="44.582615" lon="8.0142783"><ele>526.7142857142858</ele><time>2026-04-12T10:59:37.062Z</time></trkpt><trkpt lat="44.5825433" lon="8.0142783"><ele>525.8571428571429</ele><time>2026-04-12T10:59:39.066Z</time></trkpt><trkpt lat="44.5824683" lon="8.0142783"><ele>525.0</ele><time>2026-04-12T10:59:41.062Z</time></trkpt><trkpt lat="44.5823933" lon="8.0142617"><ele>525.0</ele><time>2026-04-12T10:59:43.062Z</time></trkpt><trkpt lat="44.5823233" lon="8.0142367"><ele>525.0</ele><time>2026-04-12T10:59:45.064Z</time></trkpt><trkpt lat="44.5822517" lon="8.014165"><ele>525.0</ele><time>2026-04-12T10:59:48.061Z</time></trkpt><trkpt lat="44.5821883" lon="8.01415"><ele>525.0</ele><time>2026-04-12T10:59:50.063Z</time></trkpt><trkpt lat="44.5821133" lon="8.0141517"><ele>525.0</ele><time>2026-04-12T10:59:52.062Z</time></trkpt><trkpt lat="44.582045" lon="8.0141633"><ele>525.0</ele><time>2026-04-12T10:59:54.062Z</time></trkpt><trkpt lat="44.5819733" lon="8.0141633"><ele>525.0</ele><time>2026-04-12T10:59:56.063Z</time></trkpt><trkpt lat="44.5819083" lon="8.0141567"><ele>523.5</ele><time>2026-04-12T10:59:58.063Z</time></trkpt><trkpt lat="44.5818417" lon="8.0141433"><ele>522.0</ele><time>2026-04-12T11:00:01.059Z</time></trkpt><trkpt lat="44.5817533" lon="8.0141483"><ele>520.5</ele><time>2026-04-12T11:00:04.062Z</time></trkpt><trkpt lat="44.58168" lon="8.0141083"><ele>519.0</ele><time>2026-04-12T11:00:07.065Z</time></trkpt><trkpt lat="44.5816033" lon="8.0140583"><ele>517.5</ele><time>2026-04-12T11:00:10.065Z</time></trkpt><trkpt lat="44.5815367" lon="8.0140333"><ele>516.0</ele><time>2026-04-12T11:00:14.064Z</time></trkpt><trkpt lat="44.58147" lon="8.0139983"><ele>515.9999999999999</ele><time>2026-04-12T11:00:17.062Z</time></trkpt><trkpt lat="44.581385" lon="8.0139667"><ele>516.0</ele><time>2026-04-12T11:00:20.063Z</time></trkpt><trkpt lat="44.581295" lon="8.0139417"><ele>516.0</ele><time>2026-04-12T11:00:23.06Z</time></trkpt><trkpt lat="44.5812317" lon="8.0139267"><ele>516.0</ele><time>2026-04-12T11:00:25.063Z</time></trkpt><trkpt lat="44.5811633" lon="8.0139217"><ele>516.0</ele><time>2026-04-12T11:00:27.067Z</time></trkpt><trkpt lat="44.5810967" lon="8.0139233"><ele>515.9999999999999</ele><time>2026-04-12T11:00:29.061Z</time></trkpt><trkpt lat="44.5810333" lon="8.0139217"><ele>516.0</ele><time>2026-04-12T11:00:31.062Z</time></trkpt><trkpt lat="44.58097" lon="8.0139267"><ele>516.2857142857142</ele><time>2026-04-12T11:00:33.062Z</time></trkpt><trkpt lat="44.5809017" lon="8.0139333"><ele>516.5714285714286</ele><time>2026-04-12T11:00:35.062Z</time></trkpt><trkpt lat="44.5808367" lon="8.0139433"><ele>516.8571428571429</ele><time>2026-04-12T11:00:37.063Z</time></trkpt><trkpt lat="44.58077" lon="8.0139483"><ele>517.1428571428571</ele><time>2026-04-12T11:00:39.063Z</time></trkpt><trkpt lat="44.5807033" lon="8.0139517"><ele>517.4285714285714</ele><time>2026-04-12T11:00:41.062Z</time></trkpt><trkpt lat="44.5806383" lon="8.0139533"><ele>517.7142857142857</ele><time>2026-04-12T11:00:43.063Z</time></trkpt><trkpt lat="44.5805433" lon="8.0139583"><ele>518.0</ele><time>2026-04-12T11:00:46.063Z</time></trkpt><trkpt lat="44.58048" lon="8.0139583"><ele>518.0</ele><time>2026-04-12T11:00:48.063Z</time></trkpt><trkpt lat="44.580415" lon="8.0139617"><ele>518.0</ele><time>2026-04-12T11:00:50.064Z</time></trkpt><trkpt lat="44.5803233" lon="8.0139617"><ele>518.0</ele><time>2026-04-12T11:00:53.063Z</time></trkpt><trkpt lat="44.5802367" lon="8.01396"><ele>518.0</ele><time>2026-04-12T11:00:56.065Z</time></trkpt><trkpt lat="44.580155" lon="8.01395"><ele>518.0</ele><time>2026-04-12T11:00:59.061Z</time></trkpt><trkpt lat="44.5800733" lon="8.0139417"><ele>518.0</ele><time>2026-04-12T11:01:02.064Z</time></trkpt><trkpt lat="44.5799883" lon="8.01394"><ele>519.1666666666666</ele><time>2026-04-12T11:01:05.061Z</time></trkpt><trkpt lat="44.5799017" lon="8.0139433"><ele>520.3333333333333</ele><time>2026-04-12T11:01:08.063Z</time></trkpt><trkpt lat="44.5798133" lon="8.01394"><ele>521.5</ele><time>2026-04-12T11:01:11.062Z</time></trkpt><trkpt lat="44.5797267" lon="8.0139383"><ele>522.6666666666666</ele><time>2026-04-12T11:01:14.062Z</time></trkpt><trkpt lat="44.5796483" lon="8.0139033"><ele>523.8333333333334</ele><time>2026-04-12T11:01:17.063Z</time></trkpt><trkpt lat="44.5795683" lon="8.0138533"><ele>525.0</ele><time>2026-04-12T11:01:20.063Z</time></trkpt><trkpt lat="44.5795033" lon="8.0137883"><ele>526.8333333333334</ele><time>2026-04-12T11:01:23.062Z</time></trkpt><trkpt lat="44.5794417" lon="8.01371"><ele>528.6666666666666</ele><time>2026-04-12T11:01:26.062Z</time></trkpt><trkpt lat="44.5794017" lon="8.0136117"><ele>530.5</ele><time>2026-04-12T11:01:29.06Z</time></trkpt><trkpt lat="44.5793683" lon="8.0135083"><ele>532.3333333333333</ele><time>2026-04-12T11:01:32.063Z</time></trkpt><trkpt lat="44.5793433" lon="8.01341"><ele>534.1666666666666</ele><time>2026-04-12T11:01:35.061Z</time></trkpt><trkpt lat="44.579315" lon="8.0133083"><ele>536.0</ele><time>2026-04-12T11:01:38.064Z</time></trkpt><trkpt lat="44.5792767" lon="8.0132117"><ele>536.0</ele><time>2026-04-12T11:01:41.058Z</time></trkpt><trkpt lat="44.57922" lon="8.0131333"><ele>536.0</ele><time>2026-04-12T11:01:44.062Z</time></trkpt><trkpt lat="44.579135" lon="8.013125"><ele>536.0</ele><time>2026-04-12T11:01:47.063Z</time></trkpt><trkpt lat="44.579095" lon="8.0131933"><ele>536.0</ele><time>2026-04-12T11:01:49.061Z</time></trkpt><trkpt lat="44.5790717" lon="8.0133117"><ele>536.0</ele><time>2026-04-12T11:01:52.061Z</time></trkpt><trkpt lat="44.579045" lon="8.013415"><ele>536.0</ele><time>2026-04-12T11:01:55.063Z</time></trkpt><trkpt lat="44.579" lon="8.013515"><ele>537.8333333333333</ele><time>2026-04-12T11:01:58.063Z</time></trkpt><trkpt lat="44.57894" lon="8.01361"><ele>539.6666666666666</ele><time>2026-04-12T11:02:01.064Z</time></trkpt><trkpt lat="44.57887" lon="8.0136717"><ele>541.5</ele><time>2026-04-12T11:02:04.062Z</time></trkpt><trkpt lat="44.57879" lon="8.0137117"><ele>543.3333333333334</ele><time>2026-04-12T11:02:07.063Z</time></trkpt><trkpt lat="44.578705" lon="8.0137417"><ele>545.1666666666667</ele><time>2026-04-12T11:02:10.062Z</time></trkpt><trkpt lat="44.5786217" lon="8.013775"><ele>547.0</ele><time>2026-04-12T11:02:13.064Z</time></trkpt><trkpt lat="44.5785367" lon="8.0137983"><ele>549.3333333333334</ele><time>2026-04-12T11:02:16.062Z</time></trkpt><trkpt lat="44.578475" lon="8.0138167"><ele>551.6666666666667</ele><time>2026-04-12T11:02:18.063Z</time></trkpt><trkpt lat="44.5783867" lon="8.0138383"><ele>554.0</ele><time>2026-04-12T11:02:21.062Z</time></trkpt><trkpt lat="44.5782967" lon="8.0138667"><ele>556.3333333333334</ele><time>2026-04-12T11:02:24.063Z</time></trkpt><trkpt lat="44.5782117" lon="8.0139033"><ele>558.6666666666666</ele><time>2026-04-12T11:02:27.062Z</time></trkpt><trkpt lat="44.57813" lon="8.0139367"><ele>561.0</ele><time>2026-04-12T11:02:30.063Z</time></trkpt><trkpt lat="44.5780467" lon="8.01397"><ele>561.0</ele><time>2026-04-12T11:02:33.065Z</time></trkpt><trkpt lat="44.5779683" lon="8.0140117"><ele>561.0</ele><time>2026-04-12T11:02:36.062Z</time></trkpt><trkpt lat="44.57791" lon="8.0140483"><ele>561.0</ele><time>2026-04-12T11:02:38.061Z</time></trkpt><trkpt lat="44.5778433" lon="8.0140733"><ele>561.0</ele><time>2026-04-12T11:02:40.062Z</time></trkpt><trkpt lat="44.5777783" lon="8.01411"><ele>561.0</ele><time>2026-04-12T11:02:42.065Z</time></trkpt><trkpt lat="44.57769" lon="8.0141467"><ele>561.0</ele><time>2026-04-12T11:02:45.063Z</time></trkpt><trkpt lat="44.5776017" lon="8.0141883"><ele>561.5</ele><time>2026-04-12T11:02:48.062Z</time></trkpt><trkpt lat="44.57754" lon="8.0142233"><ele>562.0</ele><time>2026-04-12T11:02:50.064Z</time></trkpt><trkpt lat="44.5774817" lon="8.01426"><ele>562.5</ele><time>2026-04-12T11:02:52.062Z</time></trkpt><trkpt lat="44.5774233" lon="8.014295"><ele>563.0</ele><time>2026-04-12T11:02:54.062Z</time></trkpt><trkpt lat="44.5773433" lon="8.0143483"><ele>563.5</ele><time>2026-04-12T11:02:57.065Z</time></trkpt><trkpt lat="44.5772583" lon="8.0143983"><ele>564.0</ele><time>2026-04-12T11:03:00.062Z</time></trkpt><trkpt lat="44.5771767" lon="8.014445"><ele>564.0</ele><time>2026-04-12T11:03:03.063Z</time></trkpt><trkpt lat="44.5770983" lon="8.014485"><ele>564.0</ele><time>2026-04-12T11:03:06.06Z</time></trkpt><trkpt lat="44.5770367" lon="8.01451"><ele>564.0</ele><time>2026-04-12T11:03:08.064Z</time></trkpt><trkpt lat="44.5769767" lon="8.0145467"><ele>564.0</ele><time>2026-04-12T11:03:10.063Z</time></trkpt><trkpt lat="44.5769183" lon="8.014585"><ele>564.0</ele><time>2026-04-12T11:03:12.064Z</time></trkpt><trkpt lat="44.5768617" lon="8.014625"><ele>564.0</ele><time>2026-04-12T11:03:14.065Z</time></trkpt><trkpt lat="44.5767817" lon="8.0146783"><ele>564.0</ele><time>2026-04-12T11:03:17.062Z</time></trkpt><trkpt lat="44.5766983" lon="8.01472"><ele>564.3333333333334</ele><time>2026-04-12T11:03:20.064Z</time></trkpt><trkpt lat="44.5766133" lon="8.0147683"><ele>564.6666666666666</ele><time>2026-04-12T11:03:23.064Z</time></trkpt><trkpt lat="44.5765267" lon="8.0148067"><ele>565.0</ele><time>2026-04-12T11:03:26.065Z</time></trkpt><trkpt lat="44.5764633" lon="8.0148433"><ele>565.3333333333333</ele><time>2026-04-12T11:03:28.064Z</time></trkpt><trkpt lat="44.576405" lon="8.01488"><ele>565.6666666666666</ele><time>2026-04-12T11:03:30.062Z</time></trkpt><trkpt lat="44.5763283" lon="8.0149417"><ele>566.0</ele><time>2026-04-12T11:03:33.064Z</time></trkpt><trkpt lat="44.5762833" lon="8.015005"><ele>566.0</ele><time>2026-04-12T11:03:35.061Z</time></trkpt><trkpt lat="44.5762467" lon="8.0150783"><ele>566.0</ele><time>2026-04-12T11:03:37.06Z</time></trkpt><trkpt lat="44.5762167" lon="8.0151583"><ele>566.0</ele><time>2026-04-12T11:03:39.063Z</time></trkpt><trkpt lat="44.57619" lon="8.01524"><ele>566.0</ele><time>2026-04-12T11:03:41.063Z</time></trkpt><trkpt lat="44.5761567" lon="8.0153233"><ele>566.0</ele><time>2026-04-12T11:03:43.062Z</time></trkpt><trkpt lat="44.576135" lon="8.015415"><ele>566.0</ele><time>2026-04-12T11:03:45.065Z</time></trkpt><trkpt lat="44.57611" lon="8.0155067"><ele>566.0</ele><time>2026-04-12T11:03:47.062Z</time></trkpt><trkpt lat="44.5760783" lon="8.0155967"><ele>566.2857142857143</ele><time>2026-04-12T11:03:49.063Z</time></trkpt><trkpt lat="44.5760517" lon="8.0156867"><ele>566.5714285714287</ele><time>2026-04-12T11:03:51.062Z</time></trkpt><trkpt lat="44.5760217" lon="8.0157733"><ele>566.8571428571429</ele><time>2026-04-12T11:03:53.06Z</time></trkpt><trkpt lat="44.5759983" lon="8.0158583"><ele>567.1428571428571</ele><time>2026-04-12T11:03:55.062Z</time></trkpt><trkpt lat="44.575975" lon="8.0159483"><ele>567.4285714285713</ele><time>2026-04-12T11:03:57.064Z</time></trkpt><trkpt lat="44.57595" lon="8.016035"><ele>567.7142857142857</ele><time>2026-04-12T11:03:59.062Z</time></trkpt><trkpt lat="44.575925" lon="8.0161167"><ele>568.0</ele><time>2026-04-12T11:04:01.062Z</time></trkpt><trkpt lat="44.5759017" lon="8.0162"><ele>568.8571428571429</ele><time>2026-04-12T11:04:03.062Z</time></trkpt><trkpt lat="44.57588" lon="8.0162917"><ele>569.7142857142857</ele><time>2026-04-12T11:04:05.061Z</time></trkpt><trkpt lat="44.57585" lon="8.01638"><ele>570.5714285714286</ele><time>2026-04-12T11:04:07.064Z</time></trkpt><trkpt lat="44.5758267" lon="8.0164733"><ele>571.4285714285714</ele><time>2026-04-12T11:04:09.062Z</time></trkpt><trkpt lat="44.575805" lon="8.0165683"><ele>572.2857142857142</ele><time>2026-04-12T11:04:11.062Z</time></trkpt><trkpt lat="44.5757833" lon="8.0166583"><ele>573.1428571428571</ele><time>2026-04-12T11:04:13.063Z</time></trkpt><trkpt lat="44.5757633" lon="8.0167433"><ele>574.0</ele><time>2026-04-12T11:04:15.063Z</time></trkpt><trkpt lat="44.5757367" lon="8.016875"><ele>574.5</ele><time>2026-04-12T11:04:18.063Z</time></trkpt><trkpt lat="44.5757233" lon="8.0169733"><ele>575.0</ele><time>2026-04-12T11:04:20.062Z</time></trkpt><trkpt lat="44.575705" lon="8.0170683"><ele>575.5</ele><time>2026-04-12T11:04:22.062Z</time></trkpt><trkpt lat="44.5756917" lon="8.0171733"><ele>576.0</ele><time>2026-04-12T11:04:24.061Z</time></trkpt><trkpt lat="44.575665" lon="8.01728"><ele>576.5</ele><time>2026-04-12T11:04:26.062Z</time></trkpt><trkpt lat="44.5756167" lon="8.0173783"><ele>577.0</ele><time>2026-04-12T11:04:28.066Z</time></trkpt><trkpt lat="44.575565" lon="8.0174833"><ele>576.2</ele><time>2026-04-12T11:04:30.062Z</time></trkpt><trkpt lat="44.5755183" lon="8.0175967"><ele>575.4000000000001</ele><time>2026-04-12T11:04:32.062Z</time></trkpt><trkpt lat="44.57547" lon="8.0177183"><ele>574.5999999999999</ele><time>2026-04-12T11:04:34.062Z</time></trkpt><trkpt lat="44.575405" lon="8.0178433"><ele>573.8</ele><time>2026-04-12T11:04:36.061Z</time></trkpt><trkpt lat="44.5753383" lon="8.0179867"><ele>573.0</ele><time>2026-04-12T11:04:38.065Z</time></trkpt><trkpt lat="44.5752733" lon="8.018125"><ele>574.4</ele><time>2026-04-12T11:04:40.061Z</time></trkpt><trkpt lat="44.5752033" lon="8.018255"><ele>575.8</ele><time>2026-04-12T11:04:42.062Z</time></trkpt><trkpt lat="44.575135" lon="8.0183883"><ele>577.2</ele><time>2026-04-12T11:04:44.062Z</time></trkpt><trkpt lat="44.5751017" lon="8.0184633"><ele>578.6</ele><time>2026-04-12T11:04:45.062Z</time></trkpt><trkpt lat="44.5750683" lon="8.0185383"><ele>580.0</ele><time>2026-04-12T11:04:46.063Z</time></trkpt><trkpt lat="44.5750067" lon="8.01869"><ele>580.0</ele><time>2026-04-12T11:04:48.063Z</time></trkpt><trkpt lat="44.574975" lon="8.0187683"><ele>580.0</ele><time>2026-04-12T11:04:49.063Z</time></trkpt><trkpt lat="44.5749433" lon="8.0188467"><ele>580.0</ele><time>2026-04-12T11:04:50.061Z</time></trkpt><trkpt lat="44.5749117" lon="8.0189267"><ele>580.0</ele><time>2026-04-12T11:04:51.063Z</time></trkpt><trkpt lat="44.574875" lon="8.019005"><ele>580.0</ele><time>2026-04-12T11:04:52.063Z</time></trkpt><trkpt lat="44.57484" lon="8.0190883"><ele>580.0</ele><time>2026-04-12T11:04:53.061Z</time></trkpt><trkpt lat="44.5748083" lon="8.0191717"><ele>580.0</ele><time>2026-04-12T11:04:54.062Z</time></trkpt><trkpt lat="44.5747767" lon="8.0192533"><ele>578.6666666666667</ele><time>2026-04-12T11:04:55.063Z</time></trkpt><trkpt lat="44.5747483" lon="8.0193433"><ele>577.3333333333334</ele><time>2026-04-12T11:04:56.061Z</time></trkpt><trkpt lat="44.57473" lon="8.019435"><ele>576.0</ele><time>2026-04-12T11:04:57.064Z</time></trkpt><trkpt lat="44.5747117" lon="8.0195233"><ele>574.6666666666666</ele><time>2026-04-12T11:04:58.061Z</time></trkpt><trkpt lat="44.5746917" lon="8.0196117"><ele>573.3333333333333</ele><time>2026-04-12T11:04:59.062Z</time></trkpt><trkpt lat="44.5746733" lon="8.0196967"><ele>572.0</ele><time>2026-04-12T11:05:00.064Z</time></trkpt><trkpt lat="44.57464" lon="8.019865"><ele>571.6666666666666</ele><time>2026-04-12T11:05:02.062Z</time></trkpt><trkpt lat="44.5746083" lon="8.0200417"><ele>571.3333333333333</ele><time>2026-04-12T11:05:04.062Z</time></trkpt><trkpt lat="44.5745917" lon="8.0201317"><ele>571.0</ele><time>2026-04-12T11:05:05.062Z</time></trkpt><trkpt lat="44.5745733" lon="8.0202183"><ele>570.6666666666666</ele><time>2026-04-12T11:05:06.062Z</time></trkpt><trkpt lat="44.574545" lon="8.0203867"><ele>570.3333333333334</ele><time>2026-04-12T11:05:08.064Z</time></trkpt><trkpt lat="44.5745317" lon="8.0204733"><ele>570.0</ele><time>2026-04-12T11:05:09.062Z</time></trkpt><trkpt lat="44.57452" lon="8.0205633"><ele>570.7142857142857</ele><time>2026-04-12T11:05:10.063Z</time></trkpt><trkpt lat="44.5745083" lon="8.0206517"><ele>571.4285714285714</ele><time>2026-04-12T11:05:11.062Z</time></trkpt><trkpt lat="44.5744917" lon="8.0207417"><ele>572.1428571428571</ele><time>2026-04-12T11:05:12.061Z</time></trkpt><trkpt lat="44.5744817" lon="8.0208367"><ele>572.8571428571429</ele><time>2026-04-12T11:05:13.063Z</time></trkpt><trkpt lat="44.5744733" lon="8.0209367"><ele>573.5714285714286</ele><time>2026-04-12T11:05:14.062Z</time></trkpt><trkpt lat="44.574475" lon="8.0210417"><ele>574.2857142857142</ele><time>2026-04-12T11:05:15.065Z</time></trkpt><trkpt lat="44.5744883" lon="8.02115"><ele>575.0</ele><time>2026-04-12T11:05:16.063Z</time></trkpt><trkpt lat="44.5745183" lon="8.02125"><ele>574.3333333333333</ele><time>2026-04-12T11:05:17.062Z</time></trkpt><trkpt lat="44.574565" lon="8.0213467"><ele>573.6666666666666</ele><time>2026-04-12T11:05:18.061Z</time></trkpt><trkpt lat="44.5746183" lon="8.021435"><ele>573.0</ele><time>2026-04-12T11:05:19.061Z</time></trkpt><trkpt lat="44.5746683" lon="8.0215233"><ele>572.3333333333334</ele><time>2026-04-12T11:05:20.063Z</time></trkpt><trkpt lat="44.5747183" lon="8.02161"><ele>571.6666666666667</ele><time>2026-04-12T11:05:21.064Z</time></trkpt><trkpt lat="44.5747617" lon="8.02169"><ele>571.0</ele><time>2026-04-12T11:05:22.061Z</time></trkpt><trkpt lat="44.5748067" lon="8.0217667"><ele>570.8571428571429</ele><time>2026-04-12T11:05:23.061Z</time></trkpt><trkpt lat="44.5748567" lon="8.0218433"><ele>570.7142857142857</ele><time>2026-04-12T11:05:24.061Z</time></trkpt><trkpt lat="44.574905" lon="8.0219217"><ele>570.5714285714286</ele><time>2026-04-12T11:05:25.063Z</time></trkpt><trkpt lat="44.5749483" lon="8.022"><ele>570.4285714285714</ele><time>2026-04-12T11:05:26.061Z</time></trkpt><trkpt lat="44.5749933" lon="8.02208"><ele>570.2857142857143</ele><time>2026-04-12T11:05:27.063Z</time></trkpt><trkpt lat="44.5750333" lon="8.0221567"><ele>570.1428571428571</ele><time>2026-04-12T11:05:28.062Z</time></trkpt><trkpt lat="44.5750783" lon="8.0222333"><ele>570.0</ele><time>2026-04-12T11:05:29.062Z</time></trkpt><trkpt lat="44.575125" lon="8.022305"><ele>570.0</ele><time>2026-04-12T11:05:30.063Z</time></trkpt><trkpt lat="44.5751667" lon="8.022375"><ele>570.0</ele><time>2026-04-12T11:05:31.062Z</time></trkpt><trkpt lat="44.575255" lon="8.0224883"><ele>570.0</ele><time>2026-04-12T11:05:33.065Z</time></trkpt><trkpt lat="44.5753517" lon="8.0225683"><ele>570.0</ele><time>2026-04-12T11:05:35.063Z</time></trkpt><trkpt lat="44.5754367" lon="8.0226417"><ele>570.0</ele><time>2026-04-12T11:05:37.063Z</time></trkpt><trkpt lat="44.5755283" lon="8.0227183"><ele>568.1666666666666</ele><time>2026-04-12T11:05:39.062Z</time></trkpt><trkpt lat="44.5756333" lon="8.0228083"><ele>566.3333333333334</ele><time>2026-04-12T11:05:41.061Z</time></trkpt><trkpt lat="44.5756933" lon="8.0228567"><ele>564.5</ele><time>2026-04-12T11:05:42.062Z</time></trkpt><trkpt lat="44.5757583" lon="8.02291"><ele>562.6666666666667</ele><time>2026-04-12T11:05:43.062Z</time></trkpt><trkpt lat="44.5758283" lon="8.0229683"><ele>560.8333333333334</ele><time>2026-04-12T11:05:44.062Z</time></trkpt><trkpt lat="44.5758983" lon="8.023035"><ele>559.0</ele><time>2026-04-12T11:05:45.063Z</time></trkpt><trkpt lat="44.5759567" lon="8.0231183"><ele>559.0</ele><time>2026-04-12T11:05:46.06Z</time></trkpt><trkpt lat="44.5760133" lon="8.023215"><ele>559.0</ele><time>2026-04-12T11:05:47.062Z</time></trkpt><trkpt lat="44.576065" lon="8.0233133"><ele>559.0</ele><time>2026-04-12T11:05:48.061Z</time></trkpt><trkpt lat="44.5761183" lon="8.0234167"><ele>559.0</ele><time>2026-04-12T11:05:49.062Z</time></trkpt><trkpt lat="44.576165" lon="8.0235283"><ele>559.0</ele><time>2026-04-12T11:05:50.062Z</time></trkpt><trkpt lat="44.5762033" lon="8.0236483"><ele>557.8</ele><time>2026-04-12T11:05:51.063Z</time></trkpt><trkpt lat="44.5762417" lon="8.023775"><ele>556.5999999999999</ele><time>2026-04-12T11:05:52.061Z</time></trkpt><trkpt lat="44.5762783" lon="8.0239067"><ele>555.4</ele><time>2026-04-12T11:05:53.061Z</time></trkpt><trkpt lat="44.5763167" lon="8.02404"><ele>554.1999999999999</ele><time>2026-04-12T11:05:54.062Z</time></trkpt><trkpt lat="44.576355" lon="8.024175"><ele>553.0</ele><time>2026-04-12T11:05:55.062Z</time></trkpt><trkpt lat="44.5763933" lon="8.024305"><ele>553.0</ele><time>2026-04-12T11:05:56.062Z</time></trkpt><trkpt lat="44.57644" lon="8.0244383"><ele>553.0</ele><time>2026-04-12T11:05:57.062Z</time></trkpt><trkpt lat="44.576495" lon="8.0245667"><ele>553.0</ele><time>2026-04-12T11:05:58.062Z</time></trkpt><trkpt lat="44.5765533" lon="8.0246933"><ele>553.0</ele><time>2026-04-12T11:05:59.062Z</time></trkpt><trkpt lat="44.5766083" lon="8.02482"><ele>553.0</ele><time>2026-04-12T11:06:00.061Z</time></trkpt><trkpt lat="44.5766517" lon="8.0249567"><ele>553.5</ele><time>2026-04-12T11:06:01.062Z</time></trkpt><trkpt lat="44.5766833" lon="8.0251033"><ele>554.0</ele><time>2026-04-12T11:06:02.062Z</time></trkpt><trkpt lat="44.57671" lon="8.02526"><ele>554.5</ele><time>2026-04-12T11:06:03.064Z</time></trkpt><trkpt lat="44.576725" lon="8.02543"><ele>555.0</ele><time>2026-04-12T11:06:04.061Z</time></trkpt><trkpt lat="44.5767367" lon="8.0256083"><ele>555.0</ele><time>2026-04-12T11:06:05.062Z</time></trkpt><trkpt lat="44.5767667" lon="8.0257867"><ele>555.0</ele><time>2026-04-12T11:06:06.061Z</time></trkpt><trkpt lat="44.5768017" lon="8.0259533"><ele>555.0</ele><time>2026-04-12T11:06:07.06Z</time></trkpt><trkpt lat="44.57684" lon="8.0261167"><ele>555.0</ele><time>2026-04-12T11:06:08.064Z</time></trkpt><trkpt lat="44.576875" lon="8.0262817"><ele>555.0</ele><time>2026-04-12T11:06:09.062Z</time></trkpt><trkpt lat="44.5769117" lon="8.0264483"><ele>555.0</ele><time>2026-04-12T11:06:10.061Z</time></trkpt><trkpt lat="44.5769467" lon="8.0266133"><ele>555.0</ele><time>2026-04-12T11:06:11.06Z</time></trkpt><trkpt lat="44.57699" lon="8.0267767"><ele>555.0</ele><time>2026-04-12T11:06:12.062Z</time></trkpt><trkpt lat="44.5770333" lon="8.02694"><ele>550.0</ele><time>2026-04-12T11:06:13.063Z</time></trkpt><trkpt lat="44.5770867" lon="8.027115"><ele>545.0</ele><time>2026-04-12T11:06:14.063Z</time></trkpt><trkpt lat="44.5771383" lon="8.0272767"><ele>540.0</ele><time>2026-04-12T11:06:15.066Z</time></trkpt><trkpt lat="44.5772017" lon="8.0274317"><ele>535.0</ele><time>2026-04-12T11:06:16.063Z</time></trkpt><trkpt lat="44.5772717" lon="8.027555"><ele>535.0</ele><time>2026-04-12T11:06:17.063Z</time></trkpt><trkpt lat="44.577345" lon="8.0276633"><ele>535.0</ele><time>2026-04-12T11:06:18.064Z</time></trkpt><trkpt lat="44.5774083" lon="8.0277633"><ele>535.0</ele><time>2026-04-12T11:06:19.065Z</time></trkpt><trkpt lat="44.5774667" lon="8.0278567"><ele>535.0</ele><time>2026-04-12T11:06:20.064Z</time></trkpt><trkpt lat="44.57752" lon="8.027945"><ele>535.0</ele><time>2026-04-12T11:06:21.063Z</time></trkpt><trkpt lat="44.5775733" lon="8.0280267"><ele>535.0</ele><time>2026-04-12T11:06:22.063Z</time></trkpt><trkpt lat="44.577625" lon="8.0281067"><ele>535.0</ele><time>2026-04-12T11:06:23.063Z</time></trkpt><trkpt lat="44.5776733" lon="8.0281817"><ele>535.0</ele><time>2026-04-12T11:06:24.065Z</time></trkpt><trkpt lat="44.5777283" lon="8.0282483"><ele>535.0</ele><time>2026-04-12T11:06:25.066Z</time></trkpt><trkpt lat="44.5777783" lon="8.0283167"><ele>535.0</ele><time>2026-04-12T11:06:26.064Z</time></trkpt><trkpt lat="44.5778333" lon="8.0283817"><ele>535.0</ele><time>2026-04-12T11:06:27.066Z</time></trkpt><trkpt lat="44.5778867" lon="8.0284433"><ele>535.0</ele><time>2026-04-12T11:06:28.064Z</time></trkpt><trkpt lat="44.5779433" lon="8.028505"><ele>534.2857142857142</ele><time>2026-04-12T11:06:29.063Z</time></trkpt><trkpt lat="44.5780017" lon="8.028565"><ele>533.5714285714286</ele><time>2026-04-12T11:06:30.064Z</time></trkpt><trkpt lat="44.5780617" lon="8.0286267"><ele>532.8571428571429</ele><time>2026-04-12T11:06:31.063Z</time></trkpt><trkpt lat="44.57812" lon="8.0286867"><ele>532.1428571428571</ele><time>2026-04-12T11:06:32.063Z</time></trkpt><trkpt lat="44.578185" lon="8.0287417"><ele>531.4285714285714</ele><time>2026-04-12T11:06:33.064Z</time></trkpt><trkpt lat="44.5782467" lon="8.0287967"><ele>530.7142857142857</ele><time>2026-04-12T11:06:34.063Z</time></trkpt><trkpt lat="44.5783067" lon="8.0288567"><ele>530.0</ele><time>2026-04-12T11:06:35.062Z</time></trkpt><trkpt lat="44.5783683" lon="8.0289183"><ele>529.9999999999999</ele><time>2026-04-12T11:06:36.066Z</time></trkpt><trkpt lat="44.5784283" lon="8.0289783"><ele>530.0</ele><time>2026-04-12T11:06:37.065Z</time></trkpt><trkpt lat="44.5784867" lon="8.0290433"><ele>530.0</ele><time>2026-04-12T11:06:38.064Z</time></trkpt><trkpt lat="44.5785417" lon="8.029115"><ele>530.0</ele><time>2026-04-12T11:06:39.064Z</time></trkpt><trkpt lat="44.578595" lon="8.0291883"><ele>530.0</ele><time>2026-04-12T11:06:40.063Z</time></trkpt><trkpt lat="44.5786433" lon="8.029265"><ele>529.9999999999999</ele><time>2026-04-12T11:06:41.062Z</time></trkpt><trkpt lat="44.5786917" lon="8.029345"><ele>530.0</ele><time>2026-04-12T11:06:42.064Z</time></trkpt><trkpt lat="44.5787417" lon="8.0294317"><ele>529.6666666666666</ele><time>2026-04-12T11:06:43.062Z</time></trkpt><trkpt lat="44.5787917" lon="8.0295183"><ele>529.3333333333333</ele><time>2026-04-12T11:06:44.063Z</time></trkpt><trkpt lat="44.578855" lon="8.0295967"><ele>529.0</ele><time>2026-04-12T11:06:45.064Z</time></trkpt><trkpt lat="44.5789267" lon="8.0296617"><ele>528.6666666666666</ele><time>2026-04-12T11:06:46.062Z</time></trkpt><trkpt lat="44.5790017" lon="8.029715"><ele>528.3333333333334</ele><time>2026-04-12T11:06:47.062Z</time></trkpt><trkpt lat="44.5790733" lon="8.0297667"><ele>528.0</ele><time>2026-04-12T11:06:48.064Z</time></trkpt><trkpt lat="44.5791367" lon="8.0298183"><ele>528.0</ele><time>2026-04-12T11:06:49.063Z</time></trkpt><trkpt lat="44.579205" lon="8.02987"><ele>528.0</ele><time>2026-04-12T11:06:50.064Z</time></trkpt><trkpt lat="44.579265" lon="8.0299333"><ele>528.0</ele><time>2026-04-12T11:06:51.063Z</time></trkpt><trkpt lat="44.5793217" lon="8.0300033"><ele>528.0</ele><time>2026-04-12T11:06:52.064Z</time></trkpt><trkpt lat="44.5793717" lon="8.0300817"><ele>528.0</ele><time>2026-04-12T11:06:53.063Z</time></trkpt><trkpt lat="44.579425" lon="8.030165"><ele>528.0</ele><time>2026-04-12T11:06:54.064Z</time></trkpt><trkpt lat="44.579475" lon="8.030255"><ele>527.6666666666666</ele><time>2026-04-12T11:06:55.064Z</time></trkpt><trkpt lat="44.5795267" lon="8.03035"><ele>527.3333333333334</ele><time>2026-04-12T11:06:56.065Z</time></trkpt><trkpt lat="44.5795767" lon="8.0304467"><ele>527.0</ele><time>2026-04-12T11:06:57.064Z</time></trkpt><trkpt lat="44.57963" lon="8.0305433"><ele>526.6666666666667</ele><time>2026-04-12T11:06:58.063Z</time></trkpt><trkpt lat="44.5796867" lon="8.03064"><ele>526.3333333333334</ele><time>2026-04-12T11:06:59.063Z</time></trkpt><trkpt lat="44.579745" lon="8.0307383"><ele>526.0</ele><time>2026-04-12T11:07:00.063Z</time></trkpt><trkpt lat="44.5798017" lon="8.0308317"><ele>526.0</ele><time>2026-04-12T11:07:01.063Z</time></trkpt><trkpt lat="44.57986" lon="8.0309233"><ele>526.0</ele><time>2026-04-12T11:07:02.062Z</time></trkpt><trkpt lat="44.5799167" lon="8.0310167"><ele>526.0</ele><time>2026-04-12T11:07:03.064Z</time></trkpt><trkpt lat="44.579965" lon="8.0311133"><ele>526.0</ele><time>2026-04-12T11:07:04.063Z</time></trkpt><trkpt lat="44.5799967" lon="8.031215"><ele>526.0</ele><time>2026-04-12T11:07:05.062Z</time></trkpt><trkpt lat="44.5800167" lon="8.031315"><ele>526.0</ele><time>2026-04-12T11:07:06.063Z</time></trkpt><trkpt lat="44.5800233" lon="8.0314067"><ele>526.0</ele><time>2026-04-12T11:07:07.064Z</time></trkpt><trkpt lat="44.58002" lon="8.0315667"><ele>526.0</ele><time>2026-04-12T11:07:09.063Z</time></trkpt><trkpt lat="44.5800117" lon="8.0316983"><ele>526.0</ele><time>2026-04-12T11:07:11.062Z</time></trkpt><trkpt lat="44.5800033" lon="8.0318"><ele>526.0</ele><time>2026-04-12T11:07:13.064Z</time></trkpt><trkpt lat="44.5799867" lon="8.0319033"><ele>526.0</ele><time>2026-04-12T11:07:15.065Z</time></trkpt><trkpt lat="44.57996" lon="8.0320017"><ele>526.0</ele><time>2026-04-12T11:07:17.064Z</time></trkpt><trkpt lat="44.5799417" lon="8.03209"><ele>527.2857142857142</ele><time>2026-04-12T11:07:19.066Z</time></trkpt><trkpt lat="44.579925" lon="8.0321767"><ele>528.5714285714286</ele><time>2026-04-12T11:07:21.064Z</time></trkpt><trkpt lat="44.5799183" lon="8.0322683"><ele>529.8571428571429</ele><time>2026-04-12T11:07:23.061Z</time></trkpt><trkpt lat="44.579915" lon="8.0323683"><ele>531.1428571428571</ele><time>2026-04-12T11:07:25.062Z</time></trkpt><trkpt lat="44.5799183" lon="8.032475"><ele>532.4285714285714</ele><time>2026-04-12T11:07:27.065Z</time></trkpt><trkpt lat="44.5799217" lon="8.0325783"><ele>533.7142857142857</ele><time>2026-04-12T11:07:29.061Z</time></trkpt><trkpt lat="44.5799217" lon="8.0326833"><ele>535.0</ele><time>2026-04-12T11:07:31.062Z</time></trkpt><trkpt lat="44.5799317" lon="8.0327917"><ele>535.6666666666667</ele><time>2026-04-12T11:07:33.067Z</time></trkpt><trkpt lat="44.5799233" lon="8.03289"><ele>536.3333333333334</ele><time>2026-04-12T11:07:35.062Z</time></trkpt><trkpt lat="44.57989" lon="8.0329917"><ele>537.0</ele><time>2026-04-12T11:07:37.063Z</time></trkpt><trkpt lat="44.5798717" lon="8.0331133"><ele>537.6666666666666</ele><time>2026-04-12T11:07:39.066Z</time></trkpt><trkpt lat="44.579875" lon="8.0332483"><ele>538.3333333333333</ele><time>2026-04-12T11:07:41.063Z</time></trkpt><trkpt lat="44.5798717" lon="8.03339"><ele>539.0</ele><time>2026-04-12T11:07:43.063Z</time></trkpt><trkpt lat="44.57986" lon="8.0335383"><ele>539.4</ele><time>2026-04-12T11:07:45.064Z</time></trkpt><trkpt lat="44.5798367" lon="8.0336933"><ele>539.8</ele><time>2026-04-12T11:07:47.061Z</time></trkpt><trkpt lat="44.5798083" lon="8.0338433"><ele>540.2</ele><time>2026-04-12T11:07:49.057Z</time></trkpt><trkpt lat="44.5797767" lon="8.03399"><ele>540.6</ele><time>2026-04-12T11:07:51.064Z</time></trkpt><trkpt lat="44.57974" lon="8.034135"><ele>541.0</ele><time>2026-04-12T11:07:53.062Z</time></trkpt><trkpt lat="44.5797083" lon="8.0342833"><ele>541.0</ele><time>2026-04-12T11:07:55.062Z</time></trkpt><trkpt lat="44.57967" lon="8.0344267"><ele>541.0</ele><time>2026-04-12T11:07:57.065Z</time></trkpt><trkpt lat="44.5796317" lon="8.03456"><ele>541.0</ele><time>2026-04-12T11:07:59.063Z</time></trkpt><trkpt lat="44.5796" lon="8.034695"><ele>541.0</ele><time>2026-04-12T11:08:01.062Z</time></trkpt><trkpt lat="44.57957" lon="8.0348217"><ele>541.0</ele><time>2026-04-12T11:08:03.064Z</time></trkpt><trkpt lat="44.57954" lon="8.0349383"><ele>541.6666666666667</ele><time>2026-04-12T11:08:05.061Z</time></trkpt><trkpt lat="44.57951" lon="8.03505"><ele>542.3333333333334</ele><time>2026-04-12T11:08:07.064Z</time></trkpt><trkpt lat="44.57948" lon="8.035155"><ele>543.0</ele><time>2026-04-12T11:08:09.064Z</time></trkpt><trkpt lat="44.57945" lon="8.0352617"><ele>543.6666666666666</ele><time>2026-04-12T11:08:11.063Z</time></trkpt><trkpt lat="44.5794217" lon="8.0353617"><ele>544.3333333333333</ele><time>2026-04-12T11:08:13.062Z</time></trkpt><trkpt lat="44.5793833" lon="8.0354533"><ele>545.0</ele><time>2026-04-12T11:08:15.066Z</time></trkpt><trkpt lat="44.5793217" lon="8.0355117"><ele>545.0</ele><time>2026-04-12T11:08:17.063Z</time></trkpt><trkpt lat="44.579255" lon="8.035525"><ele>545.0</ele><time>2026-04-12T11:08:19.063Z</time></trkpt><trkpt lat="44.579165" lon="8.035505"><ele>545.0</ele><time>2026-04-12T11:08:22.062Z</time></trkpt><trkpt lat="44.579075" lon="8.03547"><ele>545.0</ele><time>2026-04-12T11:08:25.063Z</time></trkpt><trkpt lat="44.5789883" lon="8.0354433"><ele>545.0</ele><time>2026-04-12T11:08:28.064Z</time></trkpt><trkpt lat="44.5789017" lon="8.0354267"><ele>545.0</ele><time>2026-04-12T11:08:31.066Z</time></trkpt><trkpt lat="44.5788167" lon="8.0354"><ele>545.0</ele><time>2026-04-12T11:08:34.063Z</time></trkpt><trkpt lat="44.5787333" lon="8.035375"><ele>545.0</ele><time>2026-04-12T11:08:37.065Z</time></trkpt><trkpt lat="44.5786433" lon="8.035345"><ele>545.0</ele><time>2026-04-12T11:08:40.063Z</time></trkpt><trkpt lat="44.5785583" lon="8.0353167"><ele>545.0</ele><time>2026-04-12T11:08:43.066Z</time></trkpt><trkpt lat="44.5784767" lon="8.03529"><ele>545.0</ele><time>2026-04-12T11:08:46.064Z</time></trkpt><trkpt lat="44.578395" lon="8.0352533"><ele>545.0</ele><time>2026-04-12T11:08:49.064Z</time></trkpt><trkpt lat="44.57831" lon="8.0352283"><ele>546.0</ele><time>2026-04-12T11:08:52.064Z</time></trkpt><trkpt lat="44.5782317" lon="8.0351967"><ele>547.0</ele><time>2026-04-12T11:08:55.066Z</time></trkpt><trkpt lat="44.5781433" lon="8.035155"><ele>548.0</ele><time>2026-04-12T11:08:58.061Z</time></trkpt><trkpt lat="44.57808" lon="8.0351283"><ele>549.0</ele><time>2026-04-12T11:09:00.065Z</time></trkpt><trkpt lat="44.5780183" lon="8.0350983"><ele>550.0</ele><time>2026-04-12T11:09:02.062Z</time></trkpt><trkpt lat="44.57793" lon="8.0350633"><ele>551.0</ele><time>2026-04-12T11:09:05.063Z</time></trkpt><trkpt lat="44.5778533" lon="8.0350483"><ele>549.2</ele><time>2026-04-12T11:09:07.063Z</time></trkpt><trkpt lat="44.5777533" lon="8.0350417"><ele>547.4000000000001</ele><time>2026-04-12T11:09:09.064Z</time></trkpt><trkpt lat="44.5776383" lon="8.0350667"><ele>545.6</ele><time>2026-04-12T11:09:11.063Z</time></trkpt><trkpt lat="44.5775617" lon="8.0351383"><ele>543.8000000000001</ele><time>2026-04-12T11:09:13.063Z</time></trkpt><trkpt lat="44.5775067" lon="8.035255"><ele>542.0</ele><time>2026-04-12T11:09:15.063Z</time></trkpt><trkpt lat="44.5774367" lon="8.0354033"><ele>542.0</ele><time>2026-04-12T11:09:17.063Z</time></trkpt><trkpt lat="44.5773967" lon="8.0354867"><ele>542.0</ele><time>2026-04-12T11:09:18.062Z</time></trkpt><trkpt lat="44.5773383" lon="8.03564"><ele>542.0</ele><time>2026-04-12T11:09:20.062Z</time></trkpt><trkpt lat="44.5773167" lon="8.0357283"><ele>542.0</ele><time>2026-04-12T11:09:21.063Z</time></trkpt><trkpt lat="44.5772917" lon="8.0358317"><ele>542.0</ele><time>2026-04-12T11:09:22.063Z</time></trkpt><trkpt lat="44.5772667" lon="8.03594"><ele>542.0</ele><time>2026-04-12T11:09:23.063Z</time></trkpt><trkpt lat="44.577245" lon="8.0360583"><ele>543.8333333333333</ele><time>2026-04-12T11:09:24.063Z</time></trkpt><trkpt lat="44.5772283" lon="8.0361833"><ele>545.6666666666666</ele><time>2026-04-12T11:09:25.063Z</time></trkpt><trkpt lat="44.577195" lon="8.0363083"><ele>547.5</ele><time>2026-04-12T11:09:26.063Z</time></trkpt><trkpt lat="44.5771783" lon="8.03642"><ele>549.3333333333334</ele><time>2026-04-12T11:09:27.064Z</time></trkpt><trkpt lat="44.5771517" lon="8.03652"><ele>551.1666666666667</ele><time>2026-04-12T11:09:28.062Z</time></trkpt><trkpt lat="44.5771233" lon="8.0366167"><ele>553.0</ele><time>2026-04-12T11:09:29.063Z</time></trkpt><trkpt lat="44.5771017" lon="8.03671"><ele>553.0</ele><time>2026-04-12T11:09:30.062Z</time></trkpt><trkpt lat="44.5770883" lon="8.0368117"><ele>553.0</ele><time>2026-04-12T11:09:31.063Z</time></trkpt><trkpt lat="44.5770783" lon="8.03691"><ele>553.0</ele><time>2026-04-12T11:09:32.062Z</time></trkpt><trkpt lat="44.5770767" lon="8.0370067"><ele>553.0</ele><time>2026-04-12T11:09:33.063Z</time></trkpt><trkpt lat="44.57706" lon="8.0371117"><ele>553.0</ele><time>2026-04-12T11:09:34.063Z</time></trkpt><trkpt lat="44.5770317" lon="8.0372067"><ele>553.0</ele><time>2026-04-12T11:09:35.061Z</time></trkpt><trkpt lat="44.5769917" lon="8.0372867"><ele>553.0</ele><time>2026-04-12T11:09:36.06Z</time></trkpt><trkpt lat="44.5769433" lon="8.03735"><ele>549.2857142857143</ele><time>2026-04-12T11:09:37.061Z</time></trkpt><trkpt lat="44.57689" lon="8.0374067"><ele>545.5714285714286</ele><time>2026-04-12T11:09:38.063Z</time></trkpt><trkpt lat="44.5768383" lon="8.0374683"><ele>541.8571428571429</ele><time>2026-04-12T11:09:39.064Z</time></trkpt><trkpt lat="44.576795" lon="8.0375517"><ele>538.1428571428571</ele><time>2026-04-12T11:09:40.063Z</time></trkpt><trkpt lat="44.57675" lon="8.0376367"><ele>534.4285714285714</ele><time>2026-04-12T11:09:41.062Z</time></trkpt><trkpt lat="44.5767017" lon="8.0377283"><ele>530.7142857142858</ele><time>2026-04-12T11:09:42.062Z</time></trkpt><trkpt lat="44.5766533" lon="8.0378217"><ele>527.0</ele><time>2026-04-12T11:09:43.063Z</time></trkpt><trkpt lat="44.5766067" lon="8.0379133"><ele>527.0</ele><time>2026-04-12T11:09:44.07Z</time></trkpt><trkpt lat="44.576555" lon="8.037995"><ele>527.0</ele><time>2026-04-12T11:09:45.062Z</time></trkpt><trkpt lat="44.5765067" lon="8.038085"><ele>527.0</ele><time>2026-04-12T11:09:46.062Z</time></trkpt><trkpt lat="44.57647" lon="8.03818"><ele>527.0</ele><time>2026-04-12T11:09:47.064Z</time></trkpt><trkpt lat="44.5764367" lon="8.0382717"><ele>527.0</ele><time>2026-04-12T11:09:48.063Z</time></trkpt><trkpt lat="44.5764033" lon="8.0383617"><ele>527.0</ele><time>2026-04-12T11:09:49.064Z</time></trkpt><trkpt lat="44.5763783" lon="8.038455"><ele>526.6</ele><time>2026-04-12T11:09:50.064Z</time></trkpt><trkpt lat="44.5763217" lon="8.0385883"><ele>526.2</ele><time>2026-04-12T11:09:52.063Z</time></trkpt><trkpt lat="44.5762517" lon="8.038685"><ele>525.8</ele><time>2026-04-12T11:09:54.063Z</time></trkpt><trkpt lat="44.5761817" lon="8.0388"><ele>525.4</ele><time>2026-04-12T11:09:56.063Z</time></trkpt><trkpt lat="44.5761133" lon="8.03893"><ele>525.0</ele><time>2026-04-12T11:09:58.063Z</time></trkpt><trkpt lat="44.5760817" lon="8.03901"><ele>525.0</ele><time>2026-04-12T11:09:59.063Z</time></trkpt><trkpt lat="44.5760383" lon="8.0390883"><ele>525.0</ele><time>2026-04-12T11:10:00.064Z</time></trkpt><trkpt lat="44.5760017" lon="8.0391733"><ele>525.0</ele><time>2026-04-12T11:10:01.065Z</time></trkpt><trkpt lat="44.5759683" lon="8.0392683"><ele>525.0</ele><time>2026-04-12T11:10:02.064Z</time></trkpt><trkpt lat="44.5759283" lon="8.0393633"><ele>525.0</ele><time>2026-04-12T11:10:03.065Z</time></trkpt><trkpt lat="44.57588" lon="8.039435"><ele>525.0</ele><time>2026-04-12T11:10:04.064Z</time></trkpt><trkpt lat="44.57578" lon="8.039515"><ele>524.6</ele><time>2026-04-12T11:10:06.063Z</time></trkpt><trkpt lat="44.575695" lon="8.039575"><ele>524.2</ele><time>2026-04-12T11:10:08.062Z</time></trkpt><trkpt lat="44.5756167" lon="8.0396367"><ele>523.8</ele><time>2026-04-12T11:10:10.064Z</time></trkpt><trkpt lat="44.5755567" lon="8.03973"><ele>523.4</ele><time>2026-04-12T11:10:12.062Z</time></trkpt><trkpt lat="44.5754767" lon="8.0398333"><ele>523.0</ele><time>2026-04-12T11:10:14.064Z</time></trkpt><trkpt lat="44.5754017" lon="8.0399583"><ele>525.6</ele><time>2026-04-12T11:10:16.062Z</time></trkpt><trkpt lat="44.5753517" lon="8.0400917"><ele>528.1999999999999</ele><time>2026-04-12T11:10:18.063Z</time></trkpt><trkpt lat="44.5753017" lon="8.0402117"><ele>530.8</ele><time>2026-04-12T11:10:20.064Z</time></trkpt><trkpt lat="44.575275" lon="8.0403483"><ele>533.4</ele><time>2026-04-12T11:10:22.063Z</time></trkpt><trkpt lat="44.5752633" lon="8.0404883"><ele>536.0</ele><time>2026-04-12T11:10:24.061Z</time></trkpt><trkpt lat="44.5752267" lon="8.0405933"><ele>536.0</ele><time>2026-04-12T11:10:26.063Z</time></trkpt><trkpt lat="44.5751933" lon="8.040695"><ele>536.0</ele><time>2026-04-12T11:10:28.063Z</time></trkpt><trkpt lat="44.575155" lon="8.040785"><ele>536.0</ele><time>2026-04-12T11:10:30.063Z</time></trkpt><trkpt lat="44.5751067" lon="8.0408483"><ele>536.0</ele><time>2026-04-12T11:10:32.064Z</time></trkpt><trkpt lat="44.575045" lon="8.0408917"><ele>536.0</ele><time>2026-04-12T11:10:35.061Z</time></trkpt><trkpt lat="44.574975" lon="8.0409317"><ele>536.0</ele><time>2026-04-12T11:10:40.06Z</time></trkpt><trkpt lat="44.5749017" lon="8.0409783"><ele>536.0</ele><time>2026-04-12T11:10:44.064Z</time></trkpt><trkpt lat="44.5748496" lon="8.0410524"><ele>535.7142857142858</ele><time>2026-04-12T11:11:34.063Z</time></trkpt><trkpt lat="44.5747969" lon="8.0411324"><ele>535.4285714285714</ele><time>2026-04-12T11:11:38.102Z</time></trkpt><trkpt lat="44.5747658" lon="8.0412179"><ele>535.1428571428571</ele><time>2026-04-12T11:11:42.062Z</time></trkpt><trkpt lat="44.5747313" lon="8.0412959"><ele>534.8571428571429</ele><time>2026-04-12T11:11:48.062Z</time></trkpt><trkpt lat="44.57473" lon="8.0411967"><ele>534.5714285714286</ele><time>2026-04-12T11:12:06.062Z</time></trkpt><trkpt lat="44.5747483" lon="8.041105"><ele>534.2857142857143</ele><time>2026-04-12T11:12:11.06Z</time></trkpt><trkpt lat="44.57478" lon="8.0410067"><ele>534.0</ele><time>2026-04-12T11:12:15.065Z</time></trkpt><trkpt lat="44.574805" lon="8.040925"><ele>534.0000000000001</ele><time>2026-04-12T11:12:18.063Z</time></trkpt><trkpt lat="44.5748333" lon="8.0408433"><ele>534.0</ele><time>2026-04-12T11:12:21.063Z</time></trkpt><trkpt lat="44.574865" lon="8.0407617"><ele>534.0</ele><time>2026-04-12T11:12:24.063Z</time></trkpt><trkpt lat="44.57489" lon="8.0406717"><ele>534.0</ele><time>2026-04-12T11:12:27.063Z</time></trkpt><trkpt lat="44.5749117" lon="8.040575"><ele>534.0</ele><time>2026-04-12T11:12:30.063Z</time></trkpt><trkpt lat="44.5749283" lon="8.0404817"><ele>534.0000000000001</ele><time>2026-04-12T11:12:33.064Z</time></trkpt><trkpt lat="44.57494" lon="8.0403833"><ele>534.0</ele><time>2026-04-12T11:12:36.063Z</time></trkpt><trkpt lat="44.5749383" lon="8.0402817"><ele>534.2857142857143</ele><time>2026-04-12T11:12:39.064Z</time></trkpt><trkpt lat="44.5749167" lon="8.040185"><ele>534.5714285714286</ele><time>2026-04-12T11:12:43.063Z</time></trkpt><trkpt lat="44.5749167" lon="8.04009"><ele>534.8571428571429</ele><time>2026-04-12T11:12:46.065Z</time></trkpt><trkpt lat="44.5749267" lon="8.0399733"><ele>535.1428571428571</ele><time>2026-04-12T11:12:49.063Z</time></trkpt><trkpt lat="44.5749333" lon="8.03987"><ele>535.4285714285714</ele><time>2026-04-12T11:12:52.062Z</time></trkpt><trkpt lat="44.5749117" lon="8.039775"><ele>535.7142857142858</ele><time>2026-04-12T11:12:55.066Z</time></trkpt><trkpt lat="44.5748733" lon="8.0397033"><ele>536.0</ele><time>2026-04-12T11:12:58.063Z</time></trkpt><trkpt lat="44.5748217" lon="8.0396483"><ele>536.0</ele><time>2026-04-12T11:13:02.062Z</time></trkpt><trkpt lat="44.57476" lon="8.0396667"><ele>536.0</ele><time>2026-04-12T11:13:05.062Z</time></trkpt><trkpt lat="44.5746967" lon="8.03966"><ele>536.0</ele><time>2026-04-12T11:13:08.063Z</time></trkpt><trkpt lat="44.5746367" lon="8.0396217"><ele>536.0</ele><time>2026-04-12T11:13:12.064Z</time></trkpt><trkpt lat="44.5746367" lon="8.0395333"><ele>536.0</ele><time>2026-04-12T11:13:16.063Z</time></trkpt><trkpt lat="44.57466" lon="8.03944"><ele>536.0</ele><time>2026-04-12T11:13:20.062Z</time></trkpt><trkpt lat="44.5746767" lon="8.0393417"><ele>536.0</ele><time>2026-04-12T11:13:24.062Z</time></trkpt><trkpt lat="44.5746867" lon="8.039245"><ele>536.0</ele><time>2026-04-12T11:13:28.065Z</time></trkpt><trkpt lat="44.5746917" lon="8.03915"><ele>536.0</ele><time>2026-04-12T11:13:32.064Z</time></trkpt><trkpt lat="44.5746867" lon="8.0390467"><ele>536.0</ele><time>2026-04-12T11:13:36.063Z</time></trkpt><trkpt lat="44.5746833" lon="8.03894"><ele>536.0</ele><time>2026-04-12T11:13:40.062Z</time></trkpt><trkpt lat="44.5746833" lon="8.03885"><ele>536.0</ele><time>2026-04-12T11:13:43.063Z</time></trkpt><trkpt lat="44.5746933" lon="8.0387617"><ele>536.0</ele><time>2026-04-12T11:13:47.06Z</time></trkpt><trkpt lat="44.5747367" lon="8.03866"><ele>536.0</ele><time>2026-04-12T11:13:59.061Z</time></trkpt><trkpt lat="44.5747867" lon="8.03857"><ele>536.0</ele><time>2026-04-12T11:14:01.063Z</time></trkpt><trkpt lat="44.5748317" lon="8.038465"><ele>536.0</ele><time>2026-04-12T11:14:03.061Z</time></trkpt><trkpt lat="44.57486" lon="8.03835"><ele>536.0</ele><time>2026-04-12T11:14:05.064Z</time></trkpt><trkpt lat="44.574865" lon="8.0382283"><ele>536.0</ele><time>2026-04-12T11:14:07.063Z</time></trkpt><trkpt lat="44.5748567" lon="8.0380867"><ele>536.0</ele><time>2026-04-12T11:14:09.064Z</time></trkpt><trkpt lat="44.5748333" lon="8.037955"><ele>535.8333333333333</ele><time>2026-04-12T11:14:11.062Z</time></trkpt><trkpt lat="44.5748" lon="8.03784"><ele>535.6666666666666</ele><time>2026-04-12T11:14:13.065Z</time></trkpt><trkpt lat="44.57476" lon="8.0377417"><ele>535.5</ele><time>2026-04-12T11:14:15.065Z</time></trkpt><trkpt lat="44.5747233" lon="8.0376567"><ele>535.3333333333334</ele><time>2026-04-12T11:14:17.062Z</time></trkpt><trkpt lat="44.5746767" lon="8.037545"><ele>535.1666666666667</ele><time>2026-04-12T11:14:20.059Z</time></trkpt><trkpt lat="44.5746283" lon="8.037435"><ele>535.0</ele><time>2026-04-12T11:14:23.062Z</time></trkpt><trkpt lat="44.5745967" lon="8.03735"><ele>534.8571428571429</ele><time>2026-04-12T11:14:25.062Z</time></trkpt><trkpt lat="44.574555" lon="8.0372583"><ele>534.7142857142858</ele><time>2026-04-12T11:14:27.063Z</time></trkpt><trkpt lat="44.5745167" lon="8.0371617"><ele>534.5714285714287</ele><time>2026-04-12T11:14:29.063Z</time></trkpt><trkpt lat="44.57448" lon="8.0370783"><ele>534.4285714285714</ele><time>2026-04-12T11:14:31.058Z</time></trkpt><trkpt lat="44.57444" lon="8.0369967"><ele>534.2857142857143</ele><time>2026-04-12T11:14:33.064Z</time></trkpt><trkpt lat="44.57439" lon="8.03692"><ele>534.1428571428572</ele><time>2026-04-12T11:14:35.062Z</time></trkpt><trkpt lat="44.5743383" lon="8.03685"><ele>534.0</ele><time>2026-04-12T11:14:37.063Z</time></trkpt><trkpt lat="44.57429" lon="8.036775"><ele>535.7142857142858</ele><time>2026-04-12T11:14:39.063Z</time></trkpt><trkpt lat="44.5742517" lon="8.0366983"><ele>537.4285714285714</ele><time>2026-04-12T11:14:41.061Z</time></trkpt><trkpt lat="44.5741933" lon="8.0365917"><ele>539.1428571428571</ele><time>2026-04-12T11:14:44.066Z</time></trkpt><trkpt lat="44.574155" lon="8.0365183"><ele>540.8571428571429</ele><time>2026-04-12T11:14:46.062Z</time></trkpt><trkpt lat="44.5741167" lon="8.0364383"><ele>542.5714285714286</ele><time>2026-04-12T11:14:48.065Z</time></trkpt><trkpt lat="44.574085" lon="8.03635"><ele>544.2857142857143</ele><time>2026-04-12T11:14:50.065Z</time></trkpt><trkpt lat="44.5740483" lon="8.0362567"><ele>546.0</ele><time>2026-04-12T11:14:52.064Z</time></trkpt><trkpt lat="44.5740333" lon="8.0361333"><ele>545.7142857142857</ele><time>2026-04-12T11:14:55.062Z</time></trkpt><trkpt lat="44.57404" lon="8.036035"><ele>545.4285714285714</ele><time>2026-04-12T11:14:57.062Z</time></trkpt><trkpt lat="44.5740417" lon="8.0359433"><ele>545.1428571428571</ele><time>2026-04-12T11:14:59.062Z</time></trkpt><trkpt lat="44.5740417" lon="8.0358533"><ele>544.8571428571429</ele><time>2026-04-12T11:15:01.063Z</time></trkpt><trkpt lat="44.574025" lon="8.0357517"><ele>544.5714285714286</ele><time>2026-04-12T11:15:04.064Z</time></trkpt><trkpt lat="44.574" lon="8.0356517"><ele>544.2857142857142</ele><time>2026-04-12T11:15:07.064Z</time></trkpt><trkpt lat="44.5739867" lon="8.0355483"><ele>544.0</ele><time>2026-04-12T11:15:09.065Z</time></trkpt><trkpt lat="44.573975" lon="8.03542"><ele>544.0</ele><time>2026-04-12T11:15:11.063Z</time></trkpt><trkpt lat="44.5739833" lon="8.0352833"><ele>544.0</ele><time>2026-04-12T11:15:13.065Z</time></trkpt><trkpt lat="44.57399" lon="8.03514"><ele>544.0</ele><time>2026-04-12T11:15:15.065Z</time></trkpt><trkpt lat="44.57399" lon="8.034985"><ele>544.0</ele><time>2026-04-12T11:15:17.064Z</time></trkpt><trkpt lat="44.5740017" lon="8.0348283"><ele>544.0</ele><time>2026-04-12T11:15:19.066Z</time></trkpt><trkpt lat="44.5740033" lon="8.0346817"><ele>542.8</ele><time>2026-04-12T11:15:21.063Z</time></trkpt><trkpt lat="44.574015" lon="8.0345417"><ele>541.5999999999999</ele><time>2026-04-12T11:15:23.061Z</time></trkpt><trkpt lat="44.5740117" lon="8.034405"><ele>540.4</ele><time>2026-04-12T11:15:25.063Z</time></trkpt><trkpt lat="44.57398" lon="8.0342833"><ele>539.1999999999999</ele><time>2026-04-12T11:15:27.063Z</time></trkpt><trkpt lat="44.573945" lon="8.03414"><ele>538.0</ele><time>2026-04-12T11:15:29.061Z</time></trkpt><trkpt lat="44.5739217" lon="8.0340533"><ele>536.3333333333334</ele><time>2026-04-12T11:15:30.064Z</time></trkpt><trkpt lat="44.5739" lon="8.0339567"><ele>534.6666666666667</ele><time>2026-04-12T11:15:31.061Z</time></trkpt><trkpt lat="44.5738767" lon="8.0338583"><ele>533.0</ele><time>2026-04-12T11:15:32.063Z</time></trkpt><trkpt lat="44.5738483" lon="8.0337667"><ele>531.3333333333334</ele><time>2026-04-12T11:15:33.063Z</time></trkpt><trkpt lat="44.573815" lon="8.0336833"><ele>529.6666666666666</ele><time>2026-04-12T11:15:34.064Z</time></trkpt><trkpt lat="44.573735" lon="8.0335567"><ele>528.0</ele><time>2026-04-12T11:15:36.061Z</time></trkpt><trkpt lat="44.5736433" lon="8.033475"><ele>528.4</ele><time>2026-04-12T11:15:38.062Z</time></trkpt><trkpt lat="44.573575" lon="8.0333817"><ele>528.8</ele><time>2026-04-12T11:15:40.061Z</time></trkpt><trkpt lat="44.57352" lon="8.033285"><ele>529.2</ele><time>2026-04-12T11:15:42.062Z</time></trkpt><trkpt lat="44.573475" lon="8.033175"><ele>529.6</ele><time>2026-04-12T11:15:44.062Z</time></trkpt><trkpt lat="44.5734167" lon="8.0330717"><ele>530.0</ele><time>2026-04-12T11:15:46.063Z</time></trkpt><trkpt lat="44.5733533" lon="8.032975"><ele>530.0</ele><time>2026-04-12T11:15:48.063Z</time></trkpt><trkpt lat="44.57329" lon="8.0328883"><ele>530.0</ele><time>2026-04-12T11:15:50.063Z</time></trkpt><trkpt lat="44.5732233" lon="8.0328033"><ele>530.0</ele><time>2026-04-12T11:15:52.061Z</time></trkpt><trkpt lat="44.5731417" lon="8.0326983"><ele>530.0</ele><time>2026-04-12T11:15:54.063Z</time></trkpt><trkpt lat="44.5730483" lon="8.032585"><ele>530.0</ele><time>2026-04-12T11:15:56.064Z</time></trkpt><trkpt lat="44.573" lon="8.03252"><ele>530.1428571428571</ele><time>2026-04-12T11:15:57.063Z</time></trkpt><trkpt lat="44.57295" lon="8.0324583"><ele>530.2857142857142</ele><time>2026-04-12T11:15:58.062Z</time></trkpt><trkpt lat="44.5728983" lon="8.032395"><ele>530.4285714285714</ele><time>2026-04-12T11:15:59.062Z</time></trkpt><trkpt lat="44.572845" lon="8.0323367"><ele>530.5714285714286</ele><time>2026-04-12T11:16:00.063Z</time></trkpt><trkpt lat="44.57279" lon="8.0322783"><ele>530.7142857142858</ele><time>2026-04-12T11:16:01.064Z</time></trkpt><trkpt lat="44.5727333" lon="8.0322233"><ele>530.8571428571429</ele><time>2026-04-12T11:16:02.062Z</time></trkpt><trkpt lat="44.57268" lon="8.0321683"><ele>531.0</ele><time>2026-04-12T11:16:03.064Z</time></trkpt><trkpt lat="44.57258" lon="8.032075"><ele>531.0</ele><time>2026-04-12T11:16:05.063Z</time></trkpt><trkpt lat="44.5724867" lon="8.0319867"><ele>531.0</ele><time>2026-04-12T11:16:07.058Z</time></trkpt><trkpt lat="44.5723983" lon="8.0319083"><ele>531.0</ele><time>2026-04-12T11:16:09.065Z</time></trkpt><trkpt lat="44.5723133" lon="8.0318483"><ele>531.0</ele><time>2026-04-12T11:16:11.063Z</time></trkpt><trkpt lat="44.5722283" lon="8.0317983"><ele>531.0</ele><time>2026-04-12T11:16:13.063Z</time></trkpt><trkpt lat="44.5721417" lon="8.0317533"><ele>531.0</ele><time>2026-04-12T11:16:15.061Z</time></trkpt><trkpt lat="44.572055" lon="8.0317217"><ele>531.0</ele><time>2026-04-12T11:16:17.065Z</time></trkpt><trkpt lat="44.5719733" lon="8.031705"><ele>531.0</ele><time>2026-04-12T11:16:19.064Z</time></trkpt><trkpt lat="44.5718967" lon="8.0316933"><ele>531.0</ele><time>2026-04-12T11:16:21.065Z</time></trkpt><trkpt lat="44.5718233" lon="8.0316667"><ele>531.0</ele><time>2026-04-12T11:16:23.062Z</time></trkpt><trkpt lat="44.5717567" lon="8.0316467"><ele>531.0</ele><time>2026-04-12T11:16:25.064Z</time></trkpt><trkpt lat="44.5716783" lon="8.031615"><ele>531.0</ele><time>2026-04-12T11:16:28.068Z</time></trkpt><trkpt lat="44.57161" lon="8.0315733"><ele>531.0</ele><time>2026-04-12T11:16:31.063Z</time></trkpt><trkpt lat="44.5716883" lon="8.03164"><ele>531.0</ele><time>2026-04-12T11:16:54.064Z</time></trkpt><trkpt lat="44.5717717" lon="8.0316533"><ele>531.0</ele><time>2026-04-12T11:16:57.064Z</time></trkpt><trkpt lat="44.57177" lon="8.0315417"><ele>531.0</ele><time>2026-04-12T11:17:02.062Z</time></trkpt><trkpt lat="44.57172" lon="8.031445"><ele>531.0</ele><time>2026-04-12T11:17:05.062Z</time></trkpt><trkpt lat="44.571665" lon="8.0313633"><ele>531.0</ele><time>2026-04-12T11:17:07.065Z</time></trkpt><trkpt lat="44.5716083" lon="8.0312933"><ele>531.0</ele><time>2026-04-12T11:17:09.063Z</time></trkpt><trkpt lat="44.5715467" lon="8.031235"><ele>531.0</ele><time>2026-04-12T11:17:11.061Z</time></trkpt><trkpt lat="44.571485" lon="8.03119"><ele>531.0</ele><time>2026-04-12T11:17:13.066Z</time></trkpt><trkpt lat="44.5714183" lon="8.0311567"><ele>531.0</ele><time>2026-04-12T11:17:15.062Z</time></trkpt><trkpt lat="44.5713517" lon="8.031145"><ele>531.0</ele><time>2026-04-12T11:17:17.065Z</time></trkpt><trkpt lat="44.5712767" lon="8.031115"><ele>531.0</ele><time>2026-04-12T11:17:19.064Z</time></trkpt><trkpt lat="44.5712017" lon="8.0310833"><ele>532.5</ele><time>2026-04-12T11:17:21.062Z</time></trkpt><trkpt lat="44.5711217" lon="8.03105"><ele>534.0</ele><time>2026-04-12T11:17:23.067Z</time></trkpt><trkpt lat="44.5710417" lon="8.0310167"><ele>535.5</ele><time>2026-04-12T11:17:25.064Z</time></trkpt><trkpt lat="44.57097" lon="8.0309967"><ele>537.0</ele><time>2026-04-12T11:17:27.067Z</time></trkpt><trkpt lat="44.57088" lon="8.0309733"><ele>538.5</ele><time>2026-04-12T11:17:30.063Z</time></trkpt><trkpt lat="44.57079" lon="8.030975"><ele>540.0</ele><time>2026-04-12T11:17:33.063Z</time></trkpt><trkpt lat="44.5707133" lon="8.0310017"><ele>540.0</ele><time>2026-04-12T11:17:36.063Z</time></trkpt><trkpt lat="44.5706433" lon="8.0310267"><ele>540.0</ele><time>2026-04-12T11:17:39.067Z</time></trkpt><trkpt lat="44.5705783" lon="8.03104"><ele>540.0</ele><time>2026-04-12T11:17:42.065Z</time></trkpt><trkpt lat="44.5705083" lon="8.031035"><ele>540.0</ele><time>2026-04-12T11:17:45.063Z</time></trkpt><trkpt lat="44.5704383" lon="8.0310217"><ele>540.0</ele><time>2026-04-12T11:17:48.061Z</time></trkpt><trkpt lat="44.5703633" lon="8.03101"><ele>540.0</ele><time>2026-04-12T11:17:51.065Z</time></trkpt><trkpt lat="44.570295" lon="8.0309867"><ele>540.0</ele><time>2026-04-12T11:17:54.063Z</time></trkpt><trkpt lat="44.570225" lon="8.03096"><ele>540.3333333333334</ele><time>2026-04-12T11:17:58.061Z</time></trkpt><trkpt lat="44.5701483" lon="8.0309217"><ele>540.6666666666666</ele><time>2026-04-12T11:18:02.062Z</time></trkpt><trkpt lat="44.570085" lon="8.0308933"><ele>541.0</ele><time>2026-04-12T11:18:05.064Z</time></trkpt><trkpt lat="44.5699933" lon="8.03088"><ele>541.3333333333333</ele><time>2026-04-12T11:18:08.066Z</time></trkpt><trkpt lat="44.5699017" lon="8.0309017"><ele>541.6666666666666</ele><time>2026-04-12T11:18:11.061Z</time></trkpt><trkpt lat="44.56982" lon="8.030935"><ele>542.0</ele><time>2026-04-12T11:18:14.062Z</time></trkpt><trkpt lat="44.5697417" lon="8.03097"><ele>542.0</ele><time>2026-04-12T11:18:17.06Z</time></trkpt><trkpt lat="44.5696767" lon="8.0310283"><ele>542.0</ele><time>2026-04-12T11:18:20.064Z</time></trkpt><trkpt lat="44.5696267" lon="8.0310983"><ele>542.0</ele><time>2026-04-12T11:18:23.064Z</time></trkpt><trkpt lat="44.5695817" lon="8.0311733"><ele>542.0</ele><time>2026-04-12T11:18:26.063Z</time></trkpt><trkpt lat="44.56954" lon="8.0312483"><ele>542.0</ele><time>2026-04-12T11:18:29.062Z</time></trkpt><trkpt lat="44.5695033" lon="8.03133"><ele>542.0</ele><time>2026-04-12T11:18:33.063Z</time></trkpt><trkpt lat="44.5694617" lon="8.0314117"><ele>542.0</ele><time>2026-04-12T11:18:37.063Z</time></trkpt><trkpt lat="44.5694117" lon="8.0314983"><ele>541.7142857142857</ele><time>2026-04-12T11:18:40.063Z</time></trkpt><trkpt lat="44.5693717" lon="8.0315733"><ele>541.4285714285714</ele><time>2026-04-12T11:18:43.063Z</time></trkpt><trkpt lat="44.5693317" lon="8.0316417"><ele>541.1428571428571</ele><time>2026-04-12T11:18:46.064Z</time></trkpt><trkpt lat="44.569295" lon="8.0317167"><ele>540.8571428571429</ele><time>2026-04-12T11:18:49.062Z</time></trkpt><trkpt lat="44.569265" lon="8.0318233"><ele>540.5714285714286</ele><time>2026-04-12T11:18:53.061Z</time></trkpt><trkpt lat="44.5692483" lon="8.0319317"><ele>540.2857142857142</ele><time>2026-04-12T11:18:57.063Z</time></trkpt><trkpt lat="44.5691983" lon="8.03201"><ele>540.0</ele><time>2026-04-12T11:19:01.064Z</time></trkpt><trkpt lat="44.5691683" lon="8.032105"><ele>542.2857142857142</ele><time>2026-04-12T11:19:05.063Z</time></trkpt><trkpt lat="44.5691583" lon="8.032205"><ele>544.5714285714286</ele><time>2026-04-12T11:19:09.061Z</time></trkpt><trkpt lat="44.569165" lon="8.0323033"><ele>546.8571428571429</ele><time>2026-04-12T11:19:13.064Z</time></trkpt><trkpt lat="44.569145" lon="8.0324"><ele>549.1428571428571</ele><time>2026-04-12T11:19:17.07Z</time></trkpt><trkpt lat="44.5691383" lon="8.0324967"><ele>551.4285714285714</ele><time>2026-04-12T11:19:21.067Z</time></trkpt><trkpt lat="44.56914" lon="8.0326033"><ele>553.7142857142857</ele><time>2026-04-12T11:19:25.065Z</time></trkpt><trkpt lat="44.5691417" lon="8.0326967"><ele>556.0</ele><time>2026-04-12T11:19:29.062Z</time></trkpt><trkpt lat="44.5691467" lon="8.0327933"><ele>558.0</ele><time>2026-04-12T11:19:33.064Z</time></trkpt><trkpt lat="44.5691517" lon="8.03289"><ele>560.0</ele><time>2026-04-12T11:19:37.065Z</time></trkpt><trkpt lat="44.5691483" lon="8.0329867"><ele>562.0</ele><time>2026-04-12T11:19:41.061Z</time></trkpt><trkpt lat="44.5691333" lon="8.03309"><ele>564.0</ele><time>2026-04-12T11:19:45.064Z</time></trkpt><trkpt lat="44.5691067" lon="8.033195"><ele>566.0</ele><time>2026-04-12T11:19:49.063Z</time></trkpt><trkpt lat="44.5690883" lon="8.033295"><ele>568.0</ele><time>2026-04-12T11:19:53.065Z</time></trkpt><trkpt lat="44.569075" lon="8.0334117"><ele>569.8333333333334</ele><time>2026-04-12T11:19:57.064Z</time></trkpt><trkpt lat="44.5690683" lon="8.0335033"><ele>571.6666666666667</ele><time>2026-04-12T11:20:00.062Z</time></trkpt><trkpt lat="44.569055" lon="8.0336083"><ele>573.5</ele><time>2026-04-12T11:20:04.059Z</time></trkpt><trkpt lat="44.5690467" lon="8.033715"><ele>575.3333333333334</ele><time>2026-04-12T11:20:08.063Z</time></trkpt><trkpt lat="44.5690367" lon="8.0338183"><ele>577.1666666666666</ele><time>2026-04-12T11:20:12.063Z</time></trkpt><trkpt lat="44.5690383" lon="8.033935"><ele>579.0</ele><time>2026-04-12T11:20:16.063Z</time></trkpt><trkpt lat="44.569045" lon="8.034055"><ele>580.5714285714286</ele><time>2026-04-12T11:20:20.064Z</time></trkpt><trkpt lat="44.5690483" lon="8.0341433"><ele>582.1428571428571</ele><time>2026-04-12T11:20:23.061Z</time></trkpt><trkpt lat="44.56905" lon="8.0342317"><ele>583.7142857142858</ele><time>2026-04-12T11:20:26.063Z</time></trkpt><trkpt lat="44.5690517" lon="8.034345"><ele>585.2857142857142</ele><time>2026-04-12T11:20:30.064Z</time></trkpt><trkpt lat="44.5690567" lon="8.0344367"><ele>586.8571428571429</ele><time>2026-04-12T11:20:33.062Z</time></trkpt><trkpt lat="44.5690417" lon="8.0345267"><ele>588.4285714285714</ele><time>2026-04-12T11:20:36.068Z</time></trkpt><trkpt lat="44.569025" lon="8.0346133"><ele>590.0</ele><time>2026-04-12T11:20:39.064Z</time></trkpt><trkpt lat="44.56901" lon="8.0347"><ele>590.0</ele><time>2026-04-12T11:20:42.064Z</time></trkpt><trkpt lat="44.568995" lon="8.0347867"><ele>590.0</ele><time>2026-04-12T11:20:45.065Z</time></trkpt><trkpt lat="44.5689733" lon="8.0349017"><ele>590.0</ele><time>2026-04-12T11:20:49.062Z</time></trkpt><trkpt lat="44.568955" lon="8.035015"><ele>590.0</ele><time>2026-04-12T11:20:53.062Z</time></trkpt><trkpt lat="44.5689433" lon="8.0351133"><ele>590.0</ele><time>2026-04-12T11:20:56.066Z</time></trkpt><trkpt lat="44.5689317" lon="8.0352167"><ele>590.0</ele><time>2026-04-12T11:20:59.062Z</time></trkpt><trkpt lat="44.5689217" lon="8.0353217"><ele>591.5</ele><time>2026-04-12T11:21:02.06Z</time></trkpt><trkpt lat="44.5689017" lon="8.035425"><ele>593.0</ele><time>2026-04-12T11:21:05.063Z</time></trkpt><trkpt lat="44.5688733" lon="8.035525"><ele>594.5</ele><time>2026-04-12T11:21:08.062Z</time></trkpt><trkpt lat="44.5688317" lon="8.0356233"><ele>596.0</ele><time>2026-04-12T11:21:11.062Z</time></trkpt><trkpt lat="44.5687867" lon="8.0357067"><ele>597.5</ele><time>2026-04-12T11:21:14.061Z</time></trkpt><trkpt lat="44.56874" lon="8.0357983"><ele>599.0</ele><time>2026-04-12T11:21:17.061Z</time></trkpt><trkpt lat="44.5686933" lon="8.0358817"><ele>597.8333333333333</ele><time>2026-04-12T11:21:20.063Z</time></trkpt><trkpt lat="44.5686217" lon="8.035955"><ele>596.6666666666666</ele><time>2026-04-12T11:21:23.061Z</time></trkpt><trkpt lat="44.5685433" lon="8.0360217"><ele>595.5</ele><time>2026-04-12T11:21:26.062Z</time></trkpt><trkpt lat="44.5684717" lon="8.0360833"><ele>594.3333333333334</ele><time>2026-04-12T11:21:29.063Z</time></trkpt><trkpt lat="44.5683967" lon="8.0361433"><ele>593.1666666666667</ele><time>2026-04-12T11:21:32.062Z</time></trkpt><trkpt lat="44.5683267" lon="8.036215"><ele>592.0</ele><time>2026-04-12T11:21:35.061Z</time></trkpt><trkpt lat="44.568255" lon="8.0362833"><ele>592.0</ele><time>2026-04-12T11:21:38.063Z</time></trkpt><trkpt lat="44.5681833" lon="8.036355"><ele>592.0</ele><time>2026-04-12T11:21:41.063Z</time></trkpt><trkpt lat="44.5681167" lon="8.0364433"><ele>592.0</ele><time>2026-04-12T11:21:44.065Z</time></trkpt><trkpt lat="44.5680717" lon="8.03652"><ele>592.0</ele><time>2026-04-12T11:21:46.063Z</time></trkpt><trkpt lat="44.5680283" lon="8.0366017"><ele>592.0</ele><time>2026-04-12T11:21:48.062Z</time></trkpt><trkpt lat="44.567985" lon="8.0366833"><ele>592.0</ele><time>2026-04-12T11:21:50.063Z</time></trkpt><trkpt lat="44.5679517" lon="8.0367667"><ele>590.5</ele><time>2026-04-12T11:21:52.063Z</time></trkpt><trkpt lat="44.5679017" lon="8.036875"><ele>589.0</ele><time>2026-04-12T11:21:55.063Z</time></trkpt><trkpt lat="44.5678583" lon="8.0369833"><ele>587.5</ele><time>2026-04-12T11:21:58.061Z</time></trkpt><trkpt lat="44.5678133" lon="8.037095"><ele>586.0</ele><time>2026-04-12T11:22:01.062Z</time></trkpt><trkpt lat="44.5677717" lon="8.0371867"><ele>584.5</ele><time>2026-04-12T11:22:04.985Z</time></trkpt><trkpt lat="44.5677333" lon="8.0372733"><ele>583.0</ele><time>2026-04-12T11:22:07.059Z</time></trkpt><trkpt lat="44.5676933" lon="8.0373617"><ele>583.0</ele><time>2026-04-12T11:22:10.061Z</time></trkpt><trkpt lat="44.5676583" lon="8.0374467"><ele>583.0</ele><time>2026-04-12T11:22:12.062Z</time></trkpt><trkpt lat="44.567625" lon="8.0375483"><ele>583.0</ele><time>2026-04-12T11:22:14.065Z</time></trkpt><trkpt lat="44.5676033" lon="8.0376483"><ele>583.0</ele><time>2026-04-12T11:22:16.063Z</time></trkpt><trkpt lat="44.5675867" lon="8.0377367"><ele>583.0</ele><time>2026-04-12T11:22:18.063Z</time></trkpt><trkpt lat="44.5675783" lon="8.0378433"><ele>583.0</ele><time>2026-04-12T11:22:20.063Z</time></trkpt><trkpt lat="44.5675983" lon="8.0379617"><ele>585.5</ele><time>2026-04-12T11:22:22.063Z</time></trkpt><trkpt lat="44.5676183" lon="8.0380583"><ele>588.0</ele><time>2026-04-12T11:22:24.062Z</time></trkpt><trkpt lat="44.5676467" lon="8.03816"><ele>590.5</ele><time>2026-04-12T11:22:26.063Z</time></trkpt><trkpt lat="44.5676733" lon="8.0382667"><ele>593.0</ele><time>2026-04-12T11:22:28.064Z</time></trkpt><trkpt lat="44.5677067" lon="8.0384033"><ele>595.5</ele><time>2026-04-12T11:22:31.063Z</time></trkpt><trkpt lat="44.5677433" lon="8.038545"><ele>598.0</ele><time>2026-04-12T11:22:33.063Z</time></trkpt><trkpt lat="44.5677583" lon="8.0386817"><ele>598.8333333333334</ele><time>2026-04-12T11:22:35.061Z</time></trkpt><trkpt lat="44.5677567" lon="8.0388067"><ele>599.6666666666667</ele><time>2026-04-12T11:22:37.063Z</time></trkpt><trkpt lat="44.5678017" lon="8.0389383"><ele>600.5</ele><time>2026-04-12T11:22:39.065Z</time></trkpt><trkpt lat="44.56789" lon="8.0389633"><ele>601.3333333333334</ele><time>2026-04-12T11:22:41.06Z</time></trkpt><trkpt lat="44.5679367" lon="8.0388933"><ele>602.1666666666666</ele><time>2026-04-12T11:22:43.062Z</time></trkpt><trkpt lat="44.56795" lon="8.03877"><ele>603.0</ele><time>2026-04-12T11:22:46.062Z</time></trkpt><trkpt lat="44.5679517" lon="8.038665"><ele>605.8571428571429</ele><time>2026-04-12T11:22:49.063Z</time></trkpt><trkpt lat="44.5679467" lon="8.038575"><ele>608.7142857142857</ele><time>2026-04-12T11:22:52.062Z</time></trkpt><trkpt lat="44.5679333" lon="8.038485"><ele>611.5714285714286</ele><time>2026-04-12T11:22:55.062Z</time></trkpt><trkpt lat="44.5679217" lon="8.0383933"><ele>614.4285714285714</ele><time>2026-04-12T11:22:58.063Z</time></trkpt><trkpt lat="44.5679167" lon="8.0383017"><ele>617.2857142857142</ele><time>2026-04-12T11:23:01.064Z</time></trkpt><trkpt lat="44.5679083" lon="8.03821"><ele>620.1428571428571</ele><time>2026-04-12T11:23:04.061Z</time></trkpt><trkpt lat="44.5679033" lon="8.0381183"><ele>623.0</ele><time>2026-04-12T11:23:07.064Z</time></trkpt><trkpt lat="44.5679" lon="8.0380233"><ele>623.0</ele><time>2026-04-12T11:23:10.064Z</time></trkpt><trkpt lat="44.5679017" lon="8.0379317"><ele>623.0</ele><time>2026-04-12T11:23:13.063Z</time></trkpt><trkpt lat="44.5678983" lon="8.0378167"><ele>623.0</ele><time>2026-04-12T11:23:17.061Z</time></trkpt><trkpt lat="44.5679567" lon="8.0377633"><ele>623.0</ele><time>2026-04-12T11:23:21.056Z</time></trkpt><trkpt lat="44.5680283" lon="8.0378267"><ele>623.0</ele><time>2026-04-12T11:23:25.064Z</time></trkpt><trkpt lat="44.5680483" lon="8.0379417"><ele>623.0</ele><time>2026-04-12T11:23:29.06Z</time></trkpt><trkpt lat="44.5680683" lon="8.03803"><ele>623.0</ele><time>2026-04-12T11:23:32.063Z</time></trkpt><trkpt lat="44.5680933" lon="8.0381133"><ele>623.0</ele><time>2026-04-12T11:23:35.061Z</time></trkpt><trkpt lat="44.5681267" lon="8.0382117"><ele>623.0</ele><time>2026-04-12T11:23:39.064Z</time></trkpt><trkpt lat="44.5681683" lon="8.0383083"><ele>623.0</ele><time>2026-04-12T11:23:43.062Z</time></trkpt><trkpt lat="44.5682017" lon="8.038405"><ele>623.0</ele><time>2026-04-12T11:23:47.063Z</time></trkpt><trkpt lat="44.5682567" lon="8.0384817"><ele>623.0</ele><time>2026-04-12T11:23:51.063Z</time></trkpt><trkpt lat="44.5682967" lon="8.03857"><ele>624.1666666666666</ele><time>2026-04-12T11:23:55.063Z</time></trkpt><trkpt lat="44.568325" lon="8.03865"><ele>625.3333333333333</ele><time>2026-04-12T11:23:58.062Z</time></trkpt><trkpt lat="44.568375" lon="8.0387367"><ele>626.5</ele><time>2026-04-12T11:24:02.062Z</time></trkpt><trkpt lat="44.5684367" lon="8.0388167"><ele>627.6666666666666</ele><time>2026-04-12T11:24:06.061Z</time></trkpt><trkpt lat="44.568475" lon="8.038915"><ele>628.8333333333334</ele><time>2026-04-12T11:24:10.063Z</time></trkpt><trkpt lat="44.5684883" lon="8.0390017"><ele>630.0</ele><time>2026-04-12T11:24:13.062Z</time></trkpt><trkpt lat="44.5685" lon="8.0391133"><ele>630.0</ele><time>2026-04-12T11:24:17.062Z</time></trkpt><trkpt lat="44.56854" lon="8.0391817"><ele>630.0</ele><time>2026-04-12T11:24:20.062Z</time></trkpt><trkpt lat="44.56861" lon="8.0392283"><ele>630.0</ele><time>2026-04-12T11:24:24.061Z</time></trkpt><trkpt lat="44.568645" lon="8.03913"><ele>630.0</ele><time>2026-04-12T11:24:28.063Z</time></trkpt><trkpt lat="44.5686483" lon="8.039035"><ele>630.0</ele><time>2026-04-12T11:24:31.064Z</time></trkpt><trkpt lat="44.568655" lon="8.038935"><ele>630.0</ele><time>2026-04-12T11:24:34.063Z</time></trkpt><trkpt lat="44.5686633" lon="8.0388383"><ele>630.0</ele><time>2026-04-12T11:24:37.062Z</time></trkpt><trkpt lat="44.5686667" lon="8.0387233"><ele>630.0</ele><time>2026-04-12T11:24:40.067Z</time></trkpt><trkpt lat="44.5686583" lon="8.038615"><ele>630.0</ele><time>2026-04-12T11:24:43.065Z</time></trkpt><trkpt lat="44.568655" lon="8.0385233"><ele>630.0</ele><time>2026-04-12T11:24:46.062Z</time></trkpt><trkpt lat="44.5686617" lon="8.03841"><ele>630.0</ele><time>2026-04-12T11:24:50.057Z</time></trkpt><trkpt lat="44.5686667" lon="8.0383217"><ele>630.0</ele><time>2026-04-12T11:24:53.063Z</time></trkpt><trkpt lat="44.568675" lon="8.038215"><ele>630.0</ele><time>2026-04-12T11:24:57.065Z</time></trkpt><trkpt lat="44.5686933" lon="8.0381133"><ele>630.0</ele><time>2026-04-12T11:25:01.064Z</time></trkpt><trkpt lat="44.5687617" lon="8.0380717"><ele>631.0</ele><time>2026-04-12T11:25:06.062Z</time></trkpt><trkpt lat="44.5688267" lon="8.038135"><ele>632.0</ele><time>2026-04-12T11:25:10.06Z</time></trkpt><trkpt lat="44.5688567" lon="8.038215"><ele>633.0</ele><time>2026-04-12T11:25:13.063Z</time></trkpt><trkpt lat="44.56887" lon="8.03831"><ele>634.0</ele><time>2026-04-12T11:25:16.061Z</time></trkpt><trkpt lat="44.5689" lon="8.038415"><ele>635.0</ele><time>2026-04-12T11:25:19.065Z</time></trkpt><trkpt lat="44.5689417" lon="8.0385317"><ele>636.0</ele><time>2026-04-12T11:25:22.064Z</time></trkpt><trkpt lat="44.5689833" lon="8.0386467"><ele>637.1428571428571</ele><time>2026-04-12T11:25:25.064Z</time></trkpt><trkpt lat="44.5690067" lon="8.0387633"><ele>638.2857142857143</ele><time>2026-04-12T11:25:28.064Z</time></trkpt><trkpt lat="44.5690267" lon="8.0388733"><ele>639.4285714285714</ele><time>2026-04-12T11:25:31.063Z</time></trkpt><trkpt lat="44.5690383" lon="8.0389667"><ele>640.5714285714286</ele><time>2026-04-12T11:25:34.065Z</time></trkpt><trkpt lat="44.5690433" lon="8.0390617"><ele>641.7142857142858</ele><time>2026-04-12T11:25:38.063Z</time></trkpt><trkpt lat="44.5690483" lon="8.0391717"><ele>642.8571428571429</ele><time>2026-04-12T11:25:43.066Z</time></trkpt><trkpt lat="44.5690583" lon="8.0392617"><ele>644.0</ele><time>2026-04-12T11:25:47.057Z</time></trkpt><trkpt lat="44.5690883" lon="8.03936"><ele>644.8571428571429</ele><time>2026-04-12T11:25:51.057Z</time></trkpt><trkpt lat="44.5691267" lon="8.0394483"><ele>645.7142857142858</ele><time>2026-04-12T11:25:55.057Z</time></trkpt><trkpt lat="44.5691633" lon="8.0395217"><ele>646.5714285714286</ele><time>2026-04-12T11:25:58.062Z</time></trkpt><trkpt lat="44.5691967" lon="8.0396067"><ele>647.4285714285714</ele><time>2026-04-12T11:26:01.063Z</time></trkpt><trkpt lat="44.56922" lon="8.0396933"><ele>648.2857142857143</ele><time>2026-04-12T11:26:04.06Z</time></trkpt><trkpt lat="44.5692283" lon="8.039805"><ele>649.1428571428571</ele><time>2026-04-12T11:26:08.063Z</time></trkpt><trkpt lat="44.5692267" lon="8.0399"><ele>650.0</ele><time>2026-04-12T11:26:11.061Z</time></trkpt><trkpt lat="44.5692117" lon="8.03999"><ele>650.8333333333333</ele><time>2026-04-12T11:26:14.067Z</time></trkpt><trkpt lat="44.569185" lon="8.0400767"><ele>651.6666666666666</ele><time>2026-04-12T11:26:17.065Z</time></trkpt><trkpt lat="44.5691417" lon="8.0401717"><ele>652.5</ele><time>2026-04-12T11:26:20.064Z</time></trkpt><trkpt lat="44.569095" lon="8.0402833"><ele>653.3333333333334</ele><time>2026-04-12T11:26:23.062Z</time></trkpt><trkpt lat="44.5690617" lon="8.0403617"><ele>654.1666666666667</ele><time>2026-04-12T11:26:25.062Z</time></trkpt><trkpt lat="44.56902" lon="8.0404417"><ele>655.0</ele><time>2026-04-12T11:26:27.065Z</time></trkpt><trkpt lat="44.5689717" lon="8.0405317"><ele>655.0</ele><time>2026-04-12T11:26:29.062Z</time></trkpt><trkpt lat="44.5689233" lon="8.0406233"><ele>655.0</ele><time>2026-04-12T11:26:31.063Z</time></trkpt><trkpt lat="44.568875" lon="8.0407133"><ele>655.0</ele><time>2026-04-12T11:26:33.065Z</time></trkpt><trkpt lat="44.568835" lon="8.040815"><ele>655.0</ele><time>2026-04-12T11:26:35.061Z</time></trkpt><trkpt lat="44.5688067" lon="8.0409483"><ele>655.0</ele><time>2026-04-12T11:26:37.062Z</time></trkpt><trkpt lat="44.5687883" lon="8.0411033"><ele>654.8</ele><time>2026-04-12T11:26:39.068Z</time></trkpt><trkpt lat="44.568755" lon="8.041245"><ele>654.6</ele><time>2026-04-12T11:26:41.065Z</time></trkpt><trkpt lat="44.5687183" lon="8.0413917"><ele>654.4000000000001</ele><time>2026-04-12T11:26:43.065Z</time></trkpt><trkpt lat="44.568665" lon="8.0415433"><ele>654.2</ele><time>2026-04-12T11:26:45.064Z</time></trkpt><trkpt lat="44.5686333" lon="8.04162"><ele>654.0</ele><time>2026-04-12T11:26:46.062Z</time></trkpt><trkpt lat="44.568565" lon="8.04176"><ele>654.0</ele><time>2026-04-12T11:26:48.062Z</time></trkpt><trkpt lat="44.5684967" lon="8.0418917"><ele>654.0</ele><time>2026-04-12T11:26:50.061Z</time></trkpt><trkpt lat="44.568445" lon="8.0420233"><ele>654.0</ele><time>2026-04-12T11:26:52.062Z</time></trkpt><trkpt lat="44.568405" lon="8.0421533"><ele>654.0</ele><time>2026-04-12T11:26:54.063Z</time></trkpt><trkpt lat="44.568375" lon="8.0422817"><ele>654.0</ele><time>2026-04-12T11:26:56.063Z</time></trkpt><trkpt lat="44.56836" lon="8.0424133"><ele>656.6666666666666</ele><time>2026-04-12T11:26:58.062Z</time></trkpt><trkpt lat="44.568345" lon="8.0425367"><ele>659.3333333333334</ele><time>2026-04-12T11:27:00.062Z</time></trkpt><trkpt lat="44.5683333" lon="8.042655"><ele>662.0</ele><time>2026-04-12T11:27:02.063Z</time></trkpt><trkpt lat="44.5683133" lon="8.0427633"><ele>664.6666666666667</ele><time>2026-04-12T11:27:04.061Z</time></trkpt><trkpt lat="44.5682833" lon="8.0428683"><ele>667.3333333333334</ele><time>2026-04-12T11:27:06.063Z</time></trkpt><trkpt lat="44.5682567" lon="8.0429733"><ele>670.0</ele><time>2026-04-12T11:27:08.063Z</time></trkpt><trkpt lat="44.5682317" lon="8.0430767"><ele>669.9999999999999</ele><time>2026-04-12T11:27:10.064Z</time></trkpt><trkpt lat="44.5681967" lon="8.0431633"><ele>670.0</ele><time>2026-04-12T11:27:12.062Z</time></trkpt><trkpt lat="44.5681617" lon="8.0432483"><ele>670.0</ele><time>2026-04-12T11:27:14.065Z</time></trkpt><trkpt lat="44.568125" lon="8.04333"><ele>670.0</ele><time>2026-04-12T11:27:16.065Z</time></trkpt><trkpt lat="44.5680883" lon="8.04341"><ele>670.0</ele><time>2026-04-12T11:27:18.061Z</time></trkpt><trkpt lat="44.5680517" lon="8.0434867"><ele>669.9999999999999</ele><time>2026-04-12T11:27:20.062Z</time></trkpt><trkpt lat="44.56802" lon="8.0435683"><ele>670.0</ele><time>2026-04-12T11:27:22.062Z</time></trkpt><trkpt lat="44.5679833" lon="8.043655"><ele>669.7142857142857</ele><time>2026-04-12T11:27:24.062Z</time></trkpt><trkpt lat="44.567965" lon="8.04375"><ele>669.4285714285714</ele><time>2026-04-12T11:27:26.063Z</time></trkpt><trkpt lat="44.5679467" lon="8.0438383"><ele>669.1428571428571</ele><time>2026-04-12T11:27:28.062Z</time></trkpt><trkpt lat="44.56793" lon="8.0439283"><ele>668.8571428571429</ele><time>2026-04-12T11:27:30.061Z</time></trkpt><trkpt lat="44.5678983" lon="8.0440167"><ele>668.5714285714286</ele><time>2026-04-12T11:27:32.061Z</time></trkpt><trkpt lat="44.5678583" lon="8.0440967"><ele>668.2857142857142</ele><time>2026-04-12T11:27:34.065Z</time></trkpt><trkpt lat="44.5678083" lon="8.0441633"><ele>668.0</ele><time>2026-04-12T11:27:36.067Z</time></trkpt><trkpt lat="44.5677417" lon="8.044245"><ele>668.0</ele><time>2026-04-12T11:27:39.062Z</time></trkpt><trkpt lat="44.5676783" lon="8.04433"><ele>668.0</ele><time>2026-04-12T11:27:42.062Z</time></trkpt><trkpt lat="44.567625" lon="8.0444117"><ele>668.0</ele><time>2026-04-12T11:27:45.062Z</time></trkpt><trkpt lat="44.5675733" lon="8.0444867"><ele>668.0</ele><time>2026-04-12T11:27:48.061Z</time></trkpt><trkpt lat="44.5675283" lon="8.0445617"><ele>668.0</ele><time>2026-04-12T11:27:51.061Z</time></trkpt><trkpt lat="44.5674783" lon="8.04463"><ele>668.0</ele><time>2026-04-12T11:27:54.062Z</time></trkpt><trkpt lat="44.5674283" lon="8.0447083"><ele>668.0</ele><time>2026-04-12T11:27:57.063Z</time></trkpt><trkpt lat="44.5673817" lon="8.0447967"><ele>668.0</ele><time>2026-04-12T11:28:00.061Z</time></trkpt><trkpt lat="44.567335" lon="8.0449083"><ele>668.0</ele><time>2026-04-12T11:28:03.062Z</time></trkpt><trkpt lat="44.5673" lon="8.0449967"><ele>668.0</ele><time>2026-04-12T11:28:05.062Z</time></trkpt><trkpt lat="44.567265" lon="8.045095"><ele>668.0</ele><time>2026-04-12T11:28:07.064Z</time></trkpt><trkpt lat="44.5672233" lon="8.0451967"><ele>668.0</ele><time>2026-04-12T11:28:09.064Z</time></trkpt><trkpt lat="44.567185" lon="8.0452983"><ele>668.4285714285714</ele><time>2026-04-12T11:28:11.063Z</time></trkpt><trkpt lat="44.5671483" lon="8.0453933"><ele>668.8571428571429</ele><time>2026-04-12T11:28:13.062Z</time></trkpt><trkpt lat="44.5671117" lon="8.0454817"><ele>669.2857142857142</ele><time>2026-04-12T11:28:15.064Z</time></trkpt><trkpt lat="44.5670733" lon="8.0455617"><ele>669.7142857142858</ele><time>2026-04-12T11:28:17.061Z</time></trkpt><trkpt lat="44.56704" lon="8.045645"><ele>670.1428571428572</ele><time>2026-04-12T11:28:19.065Z</time></trkpt><trkpt lat="44.567005" lon="8.0457217"><ele>670.5714285714286</ele><time>2026-04-12T11:28:21.065Z</time></trkpt><trkpt lat="44.5669617" lon="8.0458317"><ele>671.0</ele><time>2026-04-12T11:28:24.065Z</time></trkpt><trkpt lat="44.5669267" lon="8.045935"><ele>671.4285714285714</ele><time>2026-04-12T11:28:27.066Z</time></trkpt><trkpt lat="44.5669033" lon="8.0460467"><ele>671.8571428571429</ele><time>2026-04-12T11:28:30.062Z</time></trkpt><trkpt lat="44.566875" lon="8.0461617"><ele>672.2857142857143</ele><time>2026-04-12T11:28:33.065Z</time></trkpt><trkpt lat="44.5668483" lon="8.046245"><ele>672.7142857142858</ele><time>2026-04-12T11:28:35.06Z</time></trkpt><trkpt lat="44.566825" lon="8.0463333"><ele>673.1428571428571</ele><time>2026-04-12T11:28:37.064Z</time></trkpt><trkpt lat="44.5667983" lon="8.0464233"><ele>673.5714285714287</ele><time>2026-04-12T11:28:39.065Z</time></trkpt><trkpt lat="44.5667683" lon="8.0465117"><ele>674.0</ele><time>2026-04-12T11:28:41.062Z</time></trkpt><trkpt lat="44.5667383" lon="8.0466117"><ele>674.8571428571429</ele><time>2026-04-12T11:28:43.07Z</time></trkpt><trkpt lat="44.5667067" lon="8.0467267"><ele>675.7142857142858</ele><time>2026-04-12T11:28:45.066Z</time></trkpt><trkpt lat="44.566685" lon="8.0468333"><ele>676.5714285714287</ele><time>2026-04-12T11:28:47.064Z</time></trkpt><trkpt lat="44.5666583" lon="8.0469267"><ele>677.4285714285714</ele><time>2026-04-12T11:28:49.064Z</time></trkpt><trkpt lat="44.5666383" lon="8.0470217"><ele>678.2857142857142</ele><time>2026-04-12T11:28:51.063Z</time></trkpt><trkpt lat="44.5666267" lon="8.0471117"><ele>679.1428571428572</ele><time>2026-04-12T11:28:53.062Z</time></trkpt><trkpt lat="44.5666183" lon="8.0472083"><ele>680.0</ele><time>2026-04-12T11:28:55.064Z</time></trkpt><trkpt lat="44.5666117" lon="8.0472983"><ele>680.0</ele><time>2026-04-12T11:28:57.061Z</time></trkpt><trkpt lat="44.5666017" lon="8.0474217"><ele>680.0</ele><time>2026-04-12T11:29:00.065Z</time></trkpt><trkpt lat="44.56661" lon="8.0475417"><ele>680.0</ele><time>2026-04-12T11:29:03.063Z</time></trkpt><trkpt lat="44.5666217" lon="8.0476317"><ele>680.0</ele><time>2026-04-12T11:29:05.06Z</time></trkpt><trkpt lat="44.566635" lon="8.047725"><ele>680.0</ele><time>2026-04-12T11:29:07.066Z</time></trkpt><trkpt lat="44.566645" lon="8.047845"><ele>680.0</ele><time>2026-04-12T11:29:10.057Z</time></trkpt><trkpt lat="44.5666533" lon="8.0479367"><ele>680.3333333333333</ele><time>2026-04-12T11:29:12.064Z</time></trkpt><trkpt lat="44.56665" lon="8.048025"><ele>680.6666666666666</ele><time>2026-04-12T11:29:14.061Z</time></trkpt><trkpt lat="44.566625" lon="8.0481383"><ele>681.0</ele><time>2026-04-12T11:29:17.066Z</time></trkpt><trkpt lat="44.5666067" lon="8.0482483"><ele>681.3333333333334</ele><time>2026-04-12T11:29:20.064Z</time></trkpt><trkpt lat="44.5665783" lon="8.0483433"><ele>681.6666666666667</ele><time>2026-04-12T11:29:23.063Z</time></trkpt><trkpt lat="44.5665583" lon="8.048445"><ele>682.0</ele><time>2026-04-12T11:29:26.064Z</time></trkpt><trkpt lat="44.5665433" lon="8.0485533"><ele>682.5714285714286</ele><time>2026-04-12T11:29:29.062Z</time></trkpt><trkpt lat="44.5665367" lon="8.0486783"><ele>683.1428571428571</ele><time>2026-04-12T11:29:32.063Z</time></trkpt><trkpt lat="44.5665317" lon="8.0487683"><ele>683.7142857142858</ele><time>2026-04-12T11:29:34.065Z</time></trkpt><trkpt lat="44.5665233" lon="8.0488617"><ele>684.2857142857142</ele><time>2026-04-12T11:29:36.058Z</time></trkpt><trkpt lat="44.5665183" lon="8.0489633"><ele>684.8571428571429</ele><time>2026-04-12T11:29:38.063Z</time></trkpt><trkpt lat="44.5664983" lon="8.0490583"><ele>685.4285714285714</ele><time>2026-04-12T11:29:40.064Z</time></trkpt><trkpt lat="44.5664717" lon="8.0491533"><ele>686.0</ele><time>2026-04-12T11:29:42.062Z</time></trkpt><trkpt lat="44.566445" lon="8.0492467"><ele>686.8333333333333</ele><time>2026-04-12T11:29:44.063Z</time></trkpt><trkpt lat="44.566425" lon="8.04934"><ele>687.6666666666666</ele><time>2026-04-12T11:29:46.066Z</time></trkpt><trkpt lat="44.5664183" lon="8.04944"><ele>688.5</ele><time>2026-04-12T11:29:48.065Z</time></trkpt><trkpt lat="44.5664083" lon="8.04953"><ele>689.3333333333334</ele><time>2026-04-12T11:29:50.066Z</time></trkpt><trkpt lat="44.5663917" lon="8.0496567"><ele>690.1666666666667</ele><time>2026-04-12T11:29:53.065Z</time></trkpt><trkpt lat="44.56638" lon="8.04978"><ele>691.0</ele><time>2026-04-12T11:29:56.063Z</time></trkpt><trkpt lat="44.5663733" lon="8.0499067"><ele>691.5</ele><time>2026-04-12T11:29:59.063Z</time></trkpt><trkpt lat="44.5663717" lon="8.05004"><ele>692.0</ele><time>2026-04-12T11:30:02.064Z</time></trkpt><trkpt lat="44.5663733" lon="8.050175"><ele>692.5</ele><time>2026-04-12T11:30:05.061Z</time></trkpt><trkpt lat="44.5663717" lon="8.0502667"><ele>693.0</ele><time>2026-04-12T11:30:07.063Z</time></trkpt><trkpt lat="44.56637" lon="8.0503667"><ele>693.5</ele><time>2026-04-12T11:30:09.062Z</time></trkpt><trkpt lat="44.56637" lon="8.050465"><ele>694.0</ele><time>2026-04-12T11:30:11.065Z</time></trkpt><trkpt lat="44.5663683" lon="8.0505617"><ele>694.0</ele><time>2026-04-12T11:30:13.065Z</time></trkpt><trkpt lat="44.5663683" lon="8.05066"><ele>694.0</ele><time>2026-04-12T11:30:15.064Z</time></trkpt><trkpt lat="44.566365" lon="8.050755"><ele>694.0</ele><time>2026-04-12T11:30:17.062Z</time></trkpt><trkpt lat="44.5663617" lon="8.05085"><ele>694.0</ele><time>2026-04-12T11:30:19.063Z</time></trkpt><trkpt lat="44.5663633" lon="8.0509767"><ele>694.0</ele><time>2026-04-12T11:30:22.064Z</time></trkpt><trkpt lat="44.56636" lon="8.0510833"><ele>694.0</ele><time>2026-04-12T11:30:25.063Z</time></trkpt><trkpt lat="44.5663667" lon="8.0511733"><ele>694.0</ele><time>2026-04-12T11:30:28.063Z</time></trkpt><trkpt lat="44.5663783" lon="8.0512617"><ele>694.2857142857143</ele><time>2026-04-12T11:30:31.066Z</time></trkpt><trkpt lat="44.5663833" lon="8.0513633"><ele>694.5714285714286</ele><time>2026-04-12T11:30:35.061Z</time></trkpt><trkpt lat="44.5663883" lon="8.0514617"><ele>694.8571428571429</ele><time>2026-04-12T11:30:39.065Z</time></trkpt><trkpt lat="44.5663817" lon="8.051565"><ele>695.1428571428571</ele><time>2026-04-12T11:30:43.062Z</time></trkpt><trkpt lat="44.5663683" lon="8.05167"><ele>695.4285714285714</ele><time>2026-04-12T11:30:47.063Z</time></trkpt><trkpt lat="44.566345" lon="8.0517583"><ele>695.7142857142857</ele><time>2026-04-12T11:30:51.063Z</time></trkpt><trkpt lat="44.5663117" lon="8.051835"><ele>696.0</ele><time>2026-04-12T11:30:55.064Z</time></trkpt><trkpt lat="44.5662667" lon="8.0519"><ele>697.2857142857142</ele><time>2026-04-12T11:30:59.063Z</time></trkpt><trkpt lat="44.5662217" lon="8.0519817"><ele>698.5714285714286</ele><time>2026-04-12T11:31:03.061Z</time></trkpt><trkpt lat="44.5661717" lon="8.0520717"><ele>699.8571428571429</ele><time>2026-04-12T11:31:07.063Z</time></trkpt><trkpt lat="44.56612" lon="8.0521567"><ele>701.1428571428571</ele><time>2026-04-12T11:31:10.061Z</time></trkpt><trkpt lat="44.5660817" lon="8.0522283"><ele>702.4285714285714</ele><time>2026-04-12T11:31:12.063Z</time></trkpt><trkpt lat="44.566045" lon="8.0523083"><ele>703.7142857142857</ele><time>2026-04-12T11:31:14.062Z</time></trkpt><trkpt lat="44.5660067" lon="8.0523833"><ele>705.0</ele><time>2026-04-12T11:31:16.066Z</time></trkpt><trkpt lat="44.565965" lon="8.052465"><ele>706.5714285714286</ele><time>2026-04-12T11:31:18.062Z</time></trkpt><trkpt lat="44.56593" lon="8.0525467"><ele>708.1428571428571</ele><time>2026-04-12T11:31:20.065Z</time></trkpt><trkpt lat="44.5659" lon="8.052635"><ele>709.7142857142858</ele><time>2026-04-12T11:31:22.063Z</time></trkpt><trkpt lat="44.5658683" lon="8.0527217"><ele>711.2857142857142</ele><time>2026-04-12T11:31:24.063Z</time></trkpt><trkpt lat="44.5658317" lon="8.0528083"><ele>712.8571428571429</ele><time>2026-04-12T11:31:26.064Z</time></trkpt><trkpt lat="44.5658017" lon="8.0528917"><ele>714.4285714285714</ele><time>2026-04-12T11:31:28.062Z</time></trkpt><trkpt lat="44.5657733" lon="8.05298"><ele>716.0</ele><time>2026-04-12T11:31:30.063Z</time></trkpt><trkpt lat="44.5657517" lon="8.0530633"><ele>716.0000000000001</ele><time>2026-04-12T11:31:32.064Z</time></trkpt><trkpt lat="44.56572" lon="8.053175"><ele>716.0</ele><time>2026-04-12T11:31:35.06Z</time></trkpt><trkpt lat="44.5656933" lon="8.0532633"><ele>716.0</ele><time>2026-04-12T11:31:38.062Z</time></trkpt><trkpt lat="44.5656683" lon="8.05335"><ele>716.0</ele><time>2026-04-12T11:31:41.063Z</time></trkpt><trkpt lat="44.5656433" lon="8.0534383"><ele>716.0</ele><time>2026-04-12T11:31:44.062Z</time></trkpt><trkpt lat="44.5656083" lon="8.05353"><ele>716.0000000000001</ele><time>2026-04-12T11:31:47.059Z</time></trkpt><trkpt lat="44.5655733" lon="8.0536133"><ele>716.0</ele><time>2026-04-12T11:31:50.063Z</time></trkpt><trkpt lat="44.5655333" lon="8.053695"><ele>716.0000000000001</ele><time>2026-04-12T11:31:53.065Z</time></trkpt><trkpt lat="44.5655017" lon="8.0537717"><ele>716.0</ele><time>2026-04-12T11:31:56.066Z</time></trkpt><trkpt lat="44.5654467" lon="8.0538517"><ele>716.0</ele><time>2026-04-12T11:32:00.063Z</time></trkpt><trkpt lat="44.5654067" lon="8.053925"><ele>716.0</ele><time>2026-04-12T11:32:03.063Z</time></trkpt><trkpt lat="44.5653617" lon="8.053995"><ele>716.0</ele><time>2026-04-12T11:32:06.06Z</time></trkpt><trkpt lat="44.5653083" lon="8.0540583"><ele>716.0000000000001</ele><time>2026-04-12T11:32:09.061Z</time></trkpt><trkpt lat="44.565245" lon="8.054135"><ele>716.0</ele><time>2026-04-12T11:32:12.061Z</time></trkpt><trkpt lat="44.565195" lon="8.054195"><ele>717.1666666666666</ele><time>2026-04-12T11:32:14.063Z</time></trkpt><trkpt lat="44.5651383" lon="8.0542583"><ele>718.3333333333333</ele><time>2026-04-12T11:32:16.059Z</time></trkpt><trkpt lat="44.5650683" lon="8.054315"><ele>719.5</ele><time>2026-04-12T11:32:18.063Z</time></trkpt><trkpt lat="44.5649867" lon="8.05438"><ele>720.6666666666666</ele><time>2026-04-12T11:32:20.063Z</time></trkpt><trkpt lat="44.5648867" lon="8.0544733"><ele>721.8333333333334</ele><time>2026-04-12T11:32:22.063Z</time></trkpt><trkpt lat="44.56483" lon="8.0545217"><ele>723.0</ele><time>2026-04-12T11:32:23.06Z</time></trkpt><trkpt lat="44.5647717" lon="8.0545683"><ele>723.0</ele><time>2026-04-12T11:32:24.064Z</time></trkpt><trkpt lat="44.5647017" lon="8.054615"><ele>723.0</ele><time>2026-04-12T11:32:25.064Z</time></trkpt><trkpt lat="44.5646283" lon="8.0546617"><ele>723.0</ele><time>2026-04-12T11:32:26.063Z</time></trkpt><trkpt lat="44.5645567" lon="8.0547083"><ele>723.0</ele><time>2026-04-12T11:32:27.064Z</time></trkpt><trkpt lat="44.5644833" lon="8.0547483"><ele>723.0</ele><time>2026-04-12T11:32:28.061Z</time></trkpt><trkpt lat="44.5644167" lon="8.0548"><ele>723.0</ele><time>2026-04-12T11:32:29.061Z</time></trkpt><trkpt lat="44.5643533" lon="8.0548617"><ele>721.1666666666666</ele><time>2026-04-12T11:32:30.063Z</time></trkpt><trkpt lat="44.5643" lon="8.054935"><ele>719.3333333333334</ele><time>2026-04-12T11:32:31.062Z</time></trkpt><trkpt lat="44.5642483" lon="8.0550267"><ele>717.5</ele><time>2026-04-12T11:32:32.063Z</time></trkpt><trkpt lat="44.5642033" lon="8.0551083"><ele>715.6666666666667</ele><time>2026-04-12T11:32:33.063Z</time></trkpt><trkpt lat="44.5641267" lon="8.0552333"><ele>713.8333333333334</ele><time>2026-04-12T11:32:35.064Z</time></trkpt><trkpt lat="44.5640567" lon="8.0553317"><ele>712.0</ele><time>2026-04-12T11:32:37.063Z</time></trkpt><trkpt lat="44.5640017" lon="8.0554183"><ele>712.0</ele><time>2026-04-12T11:32:39.063Z</time></trkpt><trkpt lat="44.5639583" lon="8.0555"><ele>712.0</ele><time>2026-04-12T11:32:41.063Z</time></trkpt><trkpt lat="44.5639017" lon="8.0556083"><ele>712.0</ele><time>2026-04-12T11:32:44.063Z</time></trkpt><trkpt lat="44.5638533" lon="8.0556917"><ele>712.0</ele><time>2026-04-12T11:32:47.061Z</time></trkpt><trkpt lat="44.5638083" lon="8.0557783"><ele>712.0</ele><time>2026-04-12T11:32:50.063Z</time></trkpt><trkpt lat="44.5637667" lon="8.0558517"><ele>712.0</ele><time>2026-04-12T11:32:53.06Z</time></trkpt><trkpt lat="44.563725" lon="8.0559183"><ele>713.2857142857142</ele><time>2026-04-12T11:32:56.062Z</time></trkpt><trkpt lat="44.5636767" lon="8.0559917"><ele>714.5714285714286</ele><time>2026-04-12T11:32:59.061Z</time></trkpt><trkpt lat="44.5636283" lon="8.056055"><ele>715.8571428571429</ele><time>2026-04-12T11:33:02.063Z</time></trkpt><trkpt lat="44.56358" lon="8.0561417"><ele>717.1428571428571</ele><time>2026-04-12T11:33:06.061Z</time></trkpt><trkpt lat="44.5635483" lon="8.0562183"><ele>718.4285714285714</ele><time>2026-04-12T11:33:10.061Z</time></trkpt><trkpt lat="44.5635067" lon="8.0562917"><ele>719.7142857142857</ele><time>2026-04-12T11:33:14.061Z</time></trkpt><trkpt lat="44.5634567" lon="8.0563683"><ele>721.0</ele><time>2026-04-12T11:33:19.06Z</time></trkpt><trkpt lat="44.5634033" lon="8.0564483"><ele>721.0</ele><time>2026-04-12T11:33:24.061Z</time></trkpt><trkpt lat="44.5633483" lon="8.0565067"><ele>721.0</ele><time>2026-04-12T11:33:29.063Z</time></trkpt><trkpt lat="44.5632933" lon="8.0565567"><ele>721.0</ele><time>2026-04-12T11:33:33.063Z</time></trkpt><trkpt lat="44.56323" lon="8.0566033"><ele>721.0</ele><time>2026-04-12T11:33:37.061Z</time></trkpt><trkpt lat="44.5631767" lon="8.05666"><ele>721.0</ele><time>2026-04-12T11:33:41.061Z</time></trkpt><trkpt lat="44.5631083" lon="8.0567267"><ele>721.0</ele><time>2026-04-12T11:33:46.061Z</time></trkpt><trkpt lat="44.5630467" lon="8.05677"><ele>721.0</ele><time>2026-04-12T11:33:50.065Z</time></trkpt><trkpt lat="44.562985" lon="8.0568267"><ele>722.5714285714286</ele><time>2026-04-12T11:33:54.061Z</time></trkpt><trkpt lat="44.5629267" lon="8.056875"><ele>724.1428571428571</ele><time>2026-04-12T11:33:57.062Z</time></trkpt><trkpt lat="44.5628683" lon="8.05693"><ele>725.7142857142858</ele><time>2026-04-12T11:34:01.063Z</time></trkpt><trkpt lat="44.5628133" lon="8.05698"><ele>727.2857142857142</ele><time>2026-04-12T11:34:04.062Z</time></trkpt><trkpt lat="44.5627517" lon="8.0570517"><ele>728.8571428571429</ele><time>2026-04-12T11:34:08.061Z</time></trkpt><trkpt lat="44.5626917" lon="8.0571233"><ele>730.4285714285714</ele><time>2026-04-12T11:34:12.062Z</time></trkpt><trkpt lat="44.5626367" lon="8.057195"><ele>732.0</ele><time>2026-04-12T11:34:16.061Z</time></trkpt><trkpt lat="44.5625767" lon="8.05725"><ele>732.8333333333334</ele><time>2026-04-12T11:34:20.064Z</time></trkpt><trkpt lat="44.562495" lon="8.057275"><ele>733.6666666666666</ele><time>2026-04-12T11:34:24.062Z</time></trkpt><trkpt lat="44.5624133" lon="8.057295"><ele>734.5</ele><time>2026-04-12T11:34:27.06Z</time></trkpt><trkpt lat="44.5623483" lon="8.0573033"><ele>735.3333333333333</ele><time>2026-04-12T11:34:30.062Z</time></trkpt><trkpt lat="44.5622617" lon="8.0573083"><ele>736.1666666666666</ele><time>2026-04-12T11:34:34.062Z</time></trkpt><trkpt lat="44.5621917" lon="8.0572983"><ele>737.0</ele><time>2026-04-12T11:34:37.065Z</time></trkpt><trkpt lat="44.56212" lon="8.0572883"><ele>737.3333333333333</ele><time>2026-04-12T11:34:40.063Z</time></trkpt><trkpt lat="44.5620283" lon="8.0572717"><ele>737.6666666666666</ele><time>2026-04-12T11:34:43.062Z</time></trkpt><trkpt lat="44.5619617" lon="8.0572467"><ele>738.0</ele><time>2026-04-12T11:34:45.063Z</time></trkpt><trkpt lat="44.5618933" lon="8.0572117"><ele>738.3333333333334</ele><time>2026-04-12T11:34:47.061Z</time></trkpt><trkpt lat="44.5618117" lon="8.05717"><ele>738.6666666666667</ele><time>2026-04-12T11:34:49.061Z</time></trkpt><trkpt lat="44.561715" lon="8.0571333"><ele>739.0</ele><time>2026-04-12T11:34:51.064Z</time></trkpt><trkpt lat="44.56161" lon="8.057105"><ele>739.0</ele><time>2026-04-12T11:34:53.061Z</time></trkpt><trkpt lat="44.561495" lon="8.0570767"><ele>739.0</ele><time>2026-04-12T11:34:55.061Z</time></trkpt><trkpt lat="44.5613783" lon="8.05705"><ele>739.0</ele><time>2026-04-12T11:34:57.062Z</time></trkpt><trkpt lat="44.561265" lon="8.0570183"><ele>739.0</ele><time>2026-04-12T11:34:59.062Z</time></trkpt><trkpt lat="44.5611583" lon="8.0569833"><ele>739.8333333333334</ele><time>2026-04-12T11:35:01.064Z</time></trkpt><trkpt lat="44.5610617" lon="8.05695"><ele>740.6666666666667</ele><time>2026-04-12T11:35:03.063Z</time></trkpt><trkpt lat="44.5609683" lon="8.0569133"><ele>741.5</ele><time>2026-04-12T11:35:05.065Z</time></trkpt><trkpt lat="44.5608767" lon="8.056875"><ele>742.3333333333334</ele><time>2026-04-12T11:35:07.062Z</time></trkpt><trkpt lat="44.560795" lon="8.0568633"><ele>743.1666666666666</ele><time>2026-04-12T11:35:09.063Z</time></trkpt><trkpt lat="44.56072" lon="8.0568667"><ele>744.0</ele><time>2026-04-12T11:35:11.06Z</time></trkpt><trkpt lat="44.560655" lon="8.056875"><ele>744.0000000000001</ele><time>2026-04-12T11:35:13.064Z</time></trkpt><trkpt lat="44.5605883" lon="8.0568917"><ele>744.0</ele><time>2026-04-12T11:35:15.065Z</time></trkpt><trkpt lat="44.5605283" lon="8.0569217"><ele>744.0</ele><time>2026-04-12T11:35:17.062Z</time></trkpt><trkpt lat="44.5604533" lon="8.0569817"><ele>744.0</ele><time>2026-04-12T11:35:20.063Z</time></trkpt><trkpt lat="44.5604067" lon="8.0570733"><ele>744.0</ele><time>2026-04-12T11:35:23.064Z</time></trkpt><trkpt lat="44.5603733" lon="8.0571667"><ele>744.0000000000001</ele><time>2026-04-12T11:35:26.064Z</time></trkpt><trkpt lat="44.5603533" lon="8.0572517"><ele>744.0</ele><time>2026-04-12T11:35:29.06Z</time></trkpt><trkpt lat="44.5603417" lon="8.057365"><ele>745.0</ele><time>2026-04-12T11:35:33.062Z</time></trkpt><trkpt lat="44.560305" lon="8.05746"><ele>746.0</ele><time>2026-04-12T11:35:36.061Z</time></trkpt><trkpt lat="44.560255" lon="8.0575433"><ele>747.0</ele><time>2026-04-12T11:35:38.06Z</time></trkpt><trkpt lat="44.56021" lon="8.0576333"><ele>748.0</ele><time>2026-04-12T11:35:40.066Z</time></trkpt><trkpt lat="44.560175" lon="8.0577183"><ele>749.0</ele><time>2026-04-12T11:35:42.061Z</time></trkpt><trkpt lat="44.56016" lon="8.057805"><ele>750.0</ele><time>2026-04-12T11:35:45.063Z</time></trkpt><trkpt lat="44.5602283" lon="8.057935"><ele>750.0</ele><time>2026-04-12T11:37:15.064Z</time></trkpt><trkpt lat="44.5601667" lon="8.0578833"><ele>750.0</ele><time>2026-04-12T11:38:10.062Z</time></trkpt><trkpt lat="44.5602217" lon="8.0579283"><ele>750.0</ele><time>2026-04-12T11:38:41.062Z</time></trkpt><trkpt lat="44.5604217" lon="8.0580833"><ele>750.0</ele><time>2026-04-12T11:40:18.491Z</time></trkpt><trkpt lat="44.5604833" lon="8.0581317"><ele>750.0</ele><time>2026-04-12T11:40:20.057Z</time></trkpt><trkpt lat="44.5605833" lon="8.0581217"><ele>752.75</ele><time>2026-04-12T11:40:23.057Z</time></trkpt><trkpt lat="44.560475" lon="8.0580517"><ele>755.5</ele><time>2026-04-12T11:40:26.057Z</time></trkpt><trkpt lat="44.5606983" lon="8.05819"><ele>758.25</ele><time>2026-04-12T11:40:28.056Z</time></trkpt><trkpt lat="44.5606333" lon="8.0581533"><ele>761.0</ele><time>2026-04-12T11:40:29.063Z</time></trkpt><trkpt lat="44.5605733" lon="8.05812"><ele>761.0</ele><time>2026-04-12T11:40:30.065Z</time></trkpt><trkpt lat="44.5605033" lon="8.0580833"><ele>761.0</ele><time>2026-04-12T11:41:04.062Z</time></trkpt><trkpt lat="44.560455" lon="8.0580117"><ele>761.0</ele><time>2026-04-12T11:41:27.058Z</time></trkpt><trkpt lat="44.560395" lon="8.058065"><ele>761.0</ele><time>2026-04-12T11:41:33.064Z</time></trkpt><trkpt lat="44.560295" lon="8.05808"><ele>761.0</ele><time>2026-04-12T11:41:36.064Z</time></trkpt><trkpt lat="44.5602267" lon="8.0579967"><ele>761.0</ele><time>2026-04-12T11:42:08.066Z</time></trkpt><trkpt lat="44.5602833" lon="8.0578967"><ele>759.4285714285713</ele><time>2026-04-12T11:43:05.403Z</time></trkpt><trkpt lat="44.560215" lon="8.0578917"><ele>757.8571428571429</ele><time>2026-04-12T11:43:18.057Z</time></trkpt><trkpt lat="44.5602183" lon="8.0579833"><ele>756.2857142857142</ele><time>2026-04-12T12:03:23.057Z</time></trkpt><trkpt lat="44.56029" lon="8.057955"><ele>754.7142857142857</ele><time>2026-04-12T12:03:38.073Z</time></trkpt><trkpt lat="44.560365" lon="8.057945"><ele>753.1428571428571</ele><time>2026-04-12T12:03:48.067Z</time></trkpt><trkpt lat="44.560365" lon="8.0578517"><ele>751.5714285714286</ele><time>2026-04-12T12:03:57.072Z</time></trkpt><trkpt lat="44.56027" lon="8.0578867"><ele>750.0</ele><time>2026-04-12T12:04:17.063Z</time></trkpt><trkpt lat="44.5603133" lon="8.05781"><ele>750.0</ele><time>2026-04-12T12:04:32.07Z</time></trkpt><trkpt lat="44.5602433" lon="8.0577833"><ele>750.0</ele><time>2026-04-12T12:04:54.064Z</time></trkpt><trkpt lat="44.5603483" lon="8.0577717"><ele>750.0</ele><time>2026-04-12T12:05:36.06Z</time></trkpt><trkpt lat="44.5604233" lon="8.0577483"><ele>750.0</ele><time>2026-04-12T12:05:42.068Z</time></trkpt><trkpt lat="44.5603933" lon="8.0578517"><ele>750.0</ele><time>2026-04-12T12:05:55.079Z</time></trkpt><trkpt lat="44.560295" lon="8.057845"><ele>750.0</ele><time>2026-04-12T12:05:57.065Z</time></trkpt><trkpt lat="44.5602583" lon="8.0579217"><ele>750.0</ele><time>2026-04-12T12:06:15.065Z</time></trkpt><trkpt lat="44.5601683" lon="8.0578983"><ele>750.0</ele><time>2026-04-12T12:08:00.063Z</time></trkpt><trkpt lat="44.5601267" lon="8.05797"><ele>750.0</ele><time>2026-04-12T12:08:04.062Z</time></trkpt><trkpt lat="44.56008" lon="8.0580633"><ele>750.0</ele><time>2026-04-12T12:08:07.061Z</time></trkpt><trkpt lat="44.5600533" lon="8.0581683"><ele>750.0</ele><time>2026-04-12T12:08:09.064Z</time></trkpt><trkpt lat="44.5599917" lon="8.0583117"><ele>750.0</ele><time>2026-04-12T12:08:11.062Z</time></trkpt><trkpt lat="44.5599433" lon="8.0583867"><ele>751.0</ele><time>2026-04-12T12:08:12.062Z</time></trkpt><trkpt lat="44.55984" lon="8.058465"><ele>752.0</ele><time>2026-04-12T12:08:14.063Z</time></trkpt><trkpt lat="44.5597217" lon="8.0585317"><ele>753.0</ele><time>2026-04-12T12:08:16.062Z</time></trkpt><trkpt lat="44.5596633" lon="8.05857"><ele>754.0</ele><time>2026-04-12T12:08:17.06Z</time></trkpt><trkpt lat="44.559595" lon="8.05861"><ele>755.0</ele><time>2026-04-12T12:08:18.062Z</time></trkpt><trkpt lat="44.55953" lon="8.0586517"><ele>751.8</ele><time>2026-04-12T12:08:19.063Z</time></trkpt><trkpt lat="44.559455" lon="8.0586883"><ele>748.6</ele><time>2026-04-12T12:08:20.062Z</time></trkpt><trkpt lat="44.5593783" lon="8.0587417"><ele>745.4000000000001</ele><time>2026-04-12T12:08:21.064Z</time></trkpt><trkpt lat="44.5592917" lon="8.0588017"><ele>742.2</ele><time>2026-04-12T12:08:22.063Z</time></trkpt><trkpt lat="44.5592067" lon="8.0588667"><ele>739.0</ele><time>2026-04-12T12:08:23.063Z</time></trkpt><trkpt lat="44.5591133" lon="8.05893"><ele>739.0</ele><time>2026-04-12T12:08:24.063Z</time></trkpt><trkpt lat="44.5590233" lon="8.059"><ele>739.0</ele><time>2026-04-12T12:08:25.063Z</time></trkpt><trkpt lat="44.558925" lon="8.0590583"><ele>739.0</ele><time>2026-04-12T12:08:26.061Z</time></trkpt><trkpt lat="44.558835" lon="8.0591267"><ele>739.0</ele><time>2026-04-12T12:08:27.064Z</time></trkpt><trkpt lat="44.558745" lon="8.059205"><ele>739.0</ele><time>2026-04-12T12:08:28.061Z</time></trkpt><trkpt lat="44.5586533" lon="8.05927"><ele>738.1666666666667</ele><time>2026-04-12T12:08:29.062Z</time></trkpt><trkpt lat="44.55857" lon="8.0593233"><ele>737.3333333333334</ele><time>2026-04-12T12:08:30.06Z</time></trkpt><trkpt lat="44.558505" lon="8.059375"><ele>736.5</ele><time>2026-04-12T12:08:31.063Z</time></trkpt><trkpt lat="44.5584483" lon="8.0594233"><ele>735.6666666666666</ele><time>2026-04-12T12:08:32.063Z</time></trkpt><trkpt lat="44.5583933" lon="8.0594667"><ele>734.8333333333333</ele><time>2026-04-12T12:08:33.063Z</time></trkpt><trkpt lat="44.5583067" lon="8.0595183"><ele>734.0</ele><time>2026-04-12T12:08:35.057Z</time></trkpt><trkpt lat="44.5582283" lon="8.059535"><ele>734.0</ele><time>2026-04-12T12:08:37.063Z</time></trkpt><trkpt lat="44.5581583" lon="8.05954"><ele>734.0</ele><time>2026-04-12T12:08:39.062Z</time></trkpt><trkpt lat="44.5580717" lon="8.059545"><ele>734.0</ele><time>2026-04-12T12:08:41.06Z</time></trkpt><trkpt lat="44.55793" lon="8.0595517"><ele>734.0</ele><time>2026-04-12T12:08:44.065Z</time></trkpt><trkpt lat="44.5578367" lon="8.0595667"><ele>734.0</ele><time>2026-04-12T12:08:46.061Z</time></trkpt><trkpt lat="44.5577417" lon="8.0595967"><ele>731.8000000000001</ele><time>2026-04-12T12:08:48.062Z</time></trkpt><trkpt lat="44.5576417" lon="8.0596383"><ele>729.6</ele><time>2026-04-12T12:08:50.063Z</time></trkpt><trkpt lat="44.5575367" lon="8.0596883"><ele>727.4</ele><time>2026-04-12T12:08:52.061Z</time></trkpt><trkpt lat="44.55743" lon="8.059745"><ele>725.2</ele><time>2026-04-12T12:08:54.062Z</time></trkpt><trkpt lat="44.5573217" lon="8.0598083"><ele>723.0</ele><time>2026-04-12T12:08:56.063Z</time></trkpt><trkpt lat="44.55722" lon="8.0598683"><ele>723.0</ele><time>2026-04-12T12:08:58.063Z</time></trkpt><trkpt lat="44.5571133" lon="8.0599367"><ele>723.0</ele><time>2026-04-12T12:09:00.062Z</time></trkpt><trkpt lat="44.5570067" lon="8.0600117"><ele>723.0</ele><time>2026-04-12T12:09:02.061Z</time></trkpt><trkpt lat="44.556945" lon="8.0600467"><ele>723.0</ele><time>2026-04-12T12:09:03.062Z</time></trkpt><trkpt lat="44.5568283" lon="8.0601117"><ele>723.0</ele><time>2026-04-12T12:09:05.063Z</time></trkpt><trkpt lat="44.5567633" lon="8.0601383"><ele>724.0000000000001</ele><time>2026-04-12T12:09:06.061Z</time></trkpt><trkpt lat="44.556695" lon="8.0601583"><ele>725.0</ele><time>2026-04-12T12:09:07.061Z</time></trkpt><trkpt lat="44.5566283" lon="8.0601833"><ele>726.0</ele><time>2026-04-12T12:09:08.062Z</time></trkpt><trkpt lat="44.5565633" lon="8.0601983"><ele>727.0</ele><time>2026-04-12T12:09:09.062Z</time></trkpt><trkpt lat="44.5564983" lon="8.0602167"><ele>728.0</ele><time>2026-04-12T12:09:10.062Z</time></trkpt><trkpt lat="44.5564317" lon="8.060235"><ele>729.0000000000001</ele><time>2026-04-12T12:09:11.061Z</time></trkpt><trkpt lat="44.556365" lon="8.060255"><ele>730.0</ele><time>2026-04-12T12:09:12.061Z</time></trkpt><trkpt lat="44.5562983" lon="8.06028"><ele>730.0000000000001</ele><time>2026-04-12T12:09:13.062Z</time></trkpt><trkpt lat="44.5562333" lon="8.060305"><ele>730.0</ele><time>2026-04-12T12:09:14.057Z</time></trkpt><trkpt lat="44.5561717" lon="8.0603317"><ele>730.0</ele><time>2026-04-12T12:09:15.063Z</time></trkpt><trkpt lat="44.5561117" lon="8.06037"><ele>730.0</ele><time>2026-04-12T12:09:16.061Z</time></trkpt><trkpt lat="44.5560517" lon="8.0604117"><ele>730.0</ele><time>2026-04-12T12:09:17.064Z</time></trkpt><trkpt lat="44.5559933" lon="8.0604583"><ele>730.0000000000001</ele><time>2026-04-12T12:09:18.061Z</time></trkpt><trkpt lat="44.5559383" lon="8.06051"><ele>730.0</ele><time>2026-04-12T12:09:19.063Z</time></trkpt><trkpt lat="44.5558883" lon="8.060565"><ele>731.3333333333334</ele><time>2026-04-12T12:09:20.062Z</time></trkpt><trkpt lat="44.555805" lon="8.060695"><ele>732.6666666666667</ele><time>2026-04-12T12:09:22.061Z</time></trkpt><trkpt lat="44.555765" lon="8.0607683"><ele>734.0</ele><time>2026-04-12T12:09:23.062Z</time></trkpt><trkpt lat="44.5557283" lon="8.060845"><ele>735.3333333333334</ele><time>2026-04-12T12:09:24.062Z</time></trkpt><trkpt lat="44.5556933" lon="8.060925"><ele>736.6666666666666</ele><time>2026-04-12T12:09:25.063Z</time></trkpt><trkpt lat="44.555655" lon="8.061005"><ele>738.0</ele><time>2026-04-12T12:09:26.061Z</time></trkpt><trkpt lat="44.5556183" lon="8.0610917"><ele>738.0</ele><time>2026-04-12T12:09:27.062Z</time></trkpt><trkpt lat="44.5555833" lon="8.0611733"><ele>738.0</ele><time>2026-04-12T12:09:28.062Z</time></trkpt><trkpt lat="44.55555" lon="8.0612567"><ele>738.0</ele><time>2026-04-12T12:09:29.061Z</time></trkpt><trkpt lat="44.5555167" lon="8.06134"><ele>738.0</ele><time>2026-04-12T12:09:30.064Z</time></trkpt><trkpt lat="44.555485" lon="8.06142"><ele>738.0</ele><time>2026-04-12T12:09:31.062Z</time></trkpt><trkpt lat="44.5554517" lon="8.0615"><ele>738.0</ele><time>2026-04-12T12:09:32.062Z</time></trkpt><trkpt lat="44.5554183" lon="8.0615817"><ele>738.0</ele><time>2026-04-12T12:09:33.063Z</time></trkpt><trkpt lat="44.5553867" lon="8.0616633"><ele>736.1428571428571</ele><time>2026-04-12T12:09:34.062Z</time></trkpt><trkpt lat="44.5553517" lon="8.0617433"><ele>734.2857142857142</ele><time>2026-04-12T12:09:35.062Z</time></trkpt><trkpt lat="44.5553167" lon="8.0618217"><ele>732.4285714285714</ele><time>2026-04-12T12:09:36.064Z</time></trkpt><trkpt lat="44.55528" lon="8.0619017"><ele>730.5714285714286</ele><time>2026-04-12T12:09:37.063Z</time></trkpt><trkpt lat="44.5552417" lon="8.06198"><ele>728.7142857142858</ele><time>2026-04-12T12:09:38.062Z</time></trkpt><trkpt lat="44.5552033" lon="8.0620567"><ele>726.8571428571429</ele><time>2026-04-12T12:09:39.059Z</time></trkpt><trkpt lat="44.5551583" lon="8.0621333"><ele>725.0</ele><time>2026-04-12T12:09:40.062Z</time></trkpt><trkpt lat="44.5551083" lon="8.062205"><ele>725.0</ele><time>2026-04-12T12:09:41.06Z</time></trkpt><trkpt lat="44.5550583" lon="8.0622733"><ele>725.0</ele><time>2026-04-12T12:09:42.06Z</time></trkpt><trkpt lat="44.5550067" lon="8.062335"><ele>725.0</ele><time>2026-04-12T12:09:43.065Z</time></trkpt><trkpt lat="44.5549533" lon="8.06239"><ele>725.0</ele><time>2026-04-12T12:09:44.061Z</time></trkpt><trkpt lat="44.554895" lon="8.062435"><ele>725.0</ele><time>2026-04-12T12:09:45.062Z</time></trkpt><trkpt lat="44.554835" lon="8.06248"><ele>725.0</ele><time>2026-04-12T12:09:46.058Z</time></trkpt><trkpt lat="44.5547767" lon="8.0625183"><ele>725.0</ele><time>2026-04-12T12:09:47.056Z</time></trkpt><trkpt lat="44.5547167" lon="8.062555"><ele>726.2</ele><time>2026-04-12T12:09:48.06Z</time></trkpt><trkpt lat="44.554655" lon="8.06259"><ele>727.4</ele><time>2026-04-12T12:09:49.06Z</time></trkpt><trkpt lat="44.5545967" lon="8.06263"><ele>728.5999999999999</ele><time>2026-04-12T12:09:50.062Z</time></trkpt><trkpt lat="44.5544867" lon="8.0627033"><ele>729.8</ele><time>2026-04-12T12:09:52.06Z</time></trkpt><trkpt lat="44.5543817" lon="8.062765"><ele>731.0</ele><time>2026-04-12T12:09:54.061Z</time></trkpt><trkpt lat="44.5542767" lon="8.062815"><ele>731.0</ele><time>2026-04-12T12:09:56.061Z</time></trkpt><trkpt lat="44.5541767" lon="8.0628667"><ele>731.0</ele><time>2026-04-12T12:09:58.064Z</time></trkpt><trkpt lat="44.5540783" lon="8.0629233"><ele>731.0</ele><time>2026-04-12T12:10:00.064Z</time></trkpt><trkpt lat="44.5539817" lon="8.0629717"><ele>731.0</ele><time>2026-04-12T12:10:02.065Z</time></trkpt><trkpt lat="44.55389" lon="8.06302"><ele>731.0</ele><time>2026-04-12T12:10:04.061Z</time></trkpt><trkpt lat="44.5538033" lon="8.0630767"><ele>731.0</ele><time>2026-04-12T12:10:06.064Z</time></trkpt><trkpt lat="44.553725" lon="8.06313"><ele>731.0</ele><time>2026-04-12T12:10:08.064Z</time></trkpt><trkpt lat="44.553655" lon="8.06318"><ele>731.0</ele><time>2026-04-12T12:10:10.062Z</time></trkpt><trkpt lat="44.5535817" lon="8.0632267"><ele>731.0</ele><time>2026-04-12T12:10:12.062Z</time></trkpt><trkpt lat="44.5535117" lon="8.0632717"><ele>731.0</ele><time>2026-04-12T12:10:14.061Z</time></trkpt><trkpt lat="44.5534483" lon="8.0633267"><ele>731.0</ele><time>2026-04-12T12:10:16.062Z</time></trkpt><trkpt lat="44.55339" lon="8.0633833"><ele>732.5</ele><time>2026-04-12T12:10:18.062Z</time></trkpt><trkpt lat="44.5533267" lon="8.0634333"><ele>734.0</ele><time>2026-04-12T12:10:20.062Z</time></trkpt><trkpt lat="44.5532617" lon="8.0634767"><ele>735.5</ele><time>2026-04-12T12:10:22.064Z</time></trkpt><trkpt lat="44.553195" lon="8.0635233"><ele>737.0</ele><time>2026-04-12T12:10:24.063Z</time></trkpt><trkpt lat="44.5531217" lon="8.0636067"><ele>738.5</ele><time>2026-04-12T12:10:26.061Z</time></trkpt><trkpt lat="44.553045" lon="8.0637067"><ele>740.0</ele><time>2026-04-12T12:10:28.061Z</time></trkpt><trkpt lat="44.5529633" lon="8.063825"><ele>740.0</ele><time>2026-04-12T12:10:30.063Z</time></trkpt><trkpt lat="44.5528783" lon="8.0639567"><ele>740.0</ele><time>2026-04-12T12:10:32.061Z</time></trkpt><trkpt lat="44.5528317" lon="8.0640283"><ele>740.0</ele><time>2026-04-12T12:10:33.063Z</time></trkpt><trkpt lat="44.5527867" lon="8.0641067"><ele>740.0</ele><time>2026-04-12T12:10:34.062Z</time></trkpt><trkpt lat="44.5527383" lon="8.0641917"><ele>740.0</ele><time>2026-04-12T12:10:35.065Z</time></trkpt><trkpt lat="44.55269" lon="8.0642783"><ele>740.0</ele><time>2026-04-12T12:10:36.062Z</time></trkpt><trkpt lat="44.5526433" lon="8.0643683"><ele>740.8333333333333</ele><time>2026-04-12T12:10:37.064Z</time></trkpt><trkpt lat="44.5525933" lon="8.0644567"><ele>741.6666666666666</ele><time>2026-04-12T12:10:38.064Z</time></trkpt><trkpt lat="44.5525417" lon="8.06455"><ele>742.5</ele><time>2026-04-12T12:10:39.063Z</time></trkpt><trkpt lat="44.5524967" lon="8.0646433"><ele>743.3333333333334</ele><time>2026-04-12T12:10:40.062Z</time></trkpt><trkpt lat="44.552445" lon="8.06474"><ele>744.1666666666667</ele><time>2026-04-12T12:10:41.058Z</time></trkpt><trkpt lat="44.5524017" lon="8.0648433"><ele>745.0</ele><time>2026-04-12T12:10:42.062Z</time></trkpt><trkpt lat="44.5523583" lon="8.064945"><ele>744.1666666666667</ele><time>2026-04-12T12:10:43.063Z</time></trkpt><trkpt lat="44.5523217" lon="8.06505"><ele>743.3333333333334</ele><time>2026-04-12T12:10:44.063Z</time></trkpt><trkpt lat="44.5522867" lon="8.0651517"><ele>742.5</ele><time>2026-04-12T12:10:45.063Z</time></trkpt><trkpt lat="44.5522517" lon="8.06525"><ele>741.6666666666666</ele><time>2026-04-12T12:10:46.062Z</time></trkpt><trkpt lat="44.5522167" lon="8.0653433"><ele>740.8333333333333</ele><time>2026-04-12T12:10:47.062Z</time></trkpt><trkpt lat="44.5521867" lon="8.0654333"><ele>740.0</ele><time>2026-04-12T12:10:48.063Z</time></trkpt><trkpt lat="44.552155" lon="8.065525"><ele>740.0</ele><time>2026-04-12T12:10:49.063Z</time></trkpt><trkpt lat="44.5521167" lon="8.0656167"><ele>740.0</ele><time>2026-04-12T12:10:50.063Z</time></trkpt><trkpt lat="44.55208" lon="8.065705"><ele>740.0</ele><time>2026-04-12T12:10:51.061Z</time></trkpt><trkpt lat="44.552045" lon="8.0657883"><ele>740.0</ele><time>2026-04-12T12:10:52.064Z</time></trkpt><trkpt lat="44.5520183" lon="8.0658717"><ele>740.0</ele><time>2026-04-12T12:10:53.061Z</time></trkpt><trkpt lat="44.5519967" lon="8.065955"><ele>740.0</ele><time>2026-04-12T12:10:54.064Z</time></trkpt><trkpt lat="44.5519633" lon="8.0660983"><ele>739.8333333333333</ele><time>2026-04-12T12:10:56.063Z</time></trkpt><trkpt lat="44.5519067" lon="8.06617"><ele>739.6666666666666</ele><time>2026-04-12T12:10:59.061Z</time></trkpt><trkpt lat="44.5518967" lon="8.0660683"><ele>739.5</ele><time>2026-04-12T12:11:02.064Z</time></trkpt><trkpt lat="44.551895" lon="8.0659617"><ele>739.3333333333334</ele><time>2026-04-12T12:11:04.062Z</time></trkpt><trkpt lat="44.55189" lon="8.065835"><ele>739.1666666666667</ele><time>2026-04-12T12:11:06.064Z</time></trkpt><trkpt lat="44.551875" lon="8.0657033"><ele>739.0</ele><time>2026-04-12T12:11:08.063Z</time></trkpt><trkpt lat="44.55186" lon="8.065565"><ele>739.0</ele><time>2026-04-12T12:11:10.065Z</time></trkpt><trkpt lat="44.5518417" lon="8.0654283"><ele>739.0</ele><time>2026-04-12T12:11:12.065Z</time></trkpt><trkpt lat="44.551825" lon="8.0652967"><ele>739.0</ele><time>2026-04-12T12:11:14.061Z</time></trkpt><trkpt lat="44.5518217" lon="8.0651583"><ele>739.0</ele><time>2026-04-12T12:11:16.064Z</time></trkpt><trkpt lat="44.551805" lon="8.06503"><ele>739.0</ele><time>2026-04-12T12:11:18.067Z</time></trkpt><trkpt lat="44.5517917" lon="8.0649"><ele>740.0</ele><time>2026-04-12T12:11:20.064Z</time></trkpt><trkpt lat="44.5517533" lon="8.0647617"><ele>741.0</ele><time>2026-04-12T12:11:22.064Z</time></trkpt><trkpt lat="44.5516967" lon="8.0646233"><ele>742.0</ele><time>2026-04-12T12:11:24.063Z</time></trkpt><trkpt lat="44.551625" lon="8.0644917"><ele>743.0</ele><time>2026-04-12T12:11:26.062Z</time></trkpt><trkpt lat="44.5515533" lon="8.0643783"><ele>744.0</ele><time>2026-04-12T12:11:28.061Z</time></trkpt><trkpt lat="44.5514817" lon="8.0642733"><ele>744.0000000000001</ele><time>2026-04-12T12:11:30.064Z</time></trkpt><trkpt lat="44.5514267" lon="8.0641883"><ele>744.0</ele><time>2026-04-12T12:11:32.062Z</time></trkpt><trkpt lat="44.551375" lon="8.0641167"><ele>744.0</ele><time>2026-04-12T12:11:34.064Z</time></trkpt><trkpt lat="44.5513183" lon="8.0640517"><ele>744.0</ele><time>2026-04-12T12:11:36.064Z</time></trkpt><trkpt lat="44.55127" lon="8.0639867"><ele>744.0</ele><time>2026-04-12T12:11:38.065Z</time></trkpt><trkpt lat="44.5512183" lon="8.06392"><ele>744.0000000000001</ele><time>2026-04-12T12:11:40.063Z</time></trkpt><trkpt lat="44.55117" lon="8.0638583"><ele>744.0</ele><time>2026-04-12T12:11:42.064Z</time></trkpt><trkpt lat="44.5511217" lon="8.0637517"><ele>743.6</ele><time>2026-04-12T12:11:45.064Z</time></trkpt><trkpt lat="44.5510783" lon="8.063665"><ele>743.2</ele><time>2026-04-12T12:11:47.064Z</time></trkpt><trkpt lat="44.5510283" lon="8.0635633"><ele>742.8000000000001</ele><time>2026-04-12T12:11:49.067Z</time></trkpt><trkpt lat="44.5509583" lon="8.0634617"><ele>742.4000000000001</ele><time>2026-04-12T12:11:51.067Z</time></trkpt><trkpt lat="44.550865" lon="8.06337"><ele>742.0</ele><time>2026-04-12T12:11:53.064Z</time></trkpt><trkpt lat="44.550775" lon="8.0632783"><ele>741.6</ele><time>2026-04-12T12:11:55.062Z</time></trkpt><trkpt lat="44.5506883" lon="8.0632033"><ele>741.2</ele><time>2026-04-12T12:11:57.064Z</time></trkpt><trkpt lat="44.5506167" lon="8.063135"><ele>740.8</ele><time>2026-04-12T12:11:59.062Z</time></trkpt><trkpt lat="44.5505383" lon="8.063075"><ele>740.4</ele><time>2026-04-12T12:12:01.064Z</time></trkpt><trkpt lat="44.5504567" lon="8.0630067"><ele>740.0</ele><time>2026-04-12T12:12:03.065Z</time></trkpt><trkpt lat="44.5503867" lon="8.0629233"><ele>738.5</ele><time>2026-04-12T12:12:05.063Z</time></trkpt><trkpt lat="44.5503233" lon="8.0628317"><ele>737.0</ele><time>2026-04-12T12:12:07.065Z</time></trkpt><trkpt lat="44.5502617" lon="8.0627267"><ele>735.5</ele><time>2026-04-12T12:12:09.063Z</time></trkpt><trkpt lat="44.5502167" lon="8.0626217"><ele>734.0</ele><time>2026-04-12T12:12:11.061Z</time></trkpt><trkpt lat="44.5501933" lon="8.062525"><ele>732.5</ele><time>2026-04-12T12:12:13.062Z</time></trkpt><trkpt lat="44.55018" lon="8.06241"><ele>731.0</ele><time>2026-04-12T12:12:15.063Z</time></trkpt><trkpt lat="44.5501717" lon="8.0623183"><ele>730.7142857142857</ele><time>2026-04-12T12:12:17.064Z</time></trkpt><trkpt lat="44.550145" lon="8.062235"><ele>730.4285714285713</ele><time>2026-04-12T12:12:19.065Z</time></trkpt><trkpt lat="44.5501067" lon="8.0621567"><ele>730.1428571428571</ele><time>2026-04-12T12:12:21.062Z</time></trkpt><trkpt lat="44.5500633" lon="8.06208"><ele>729.8571428571429</ele><time>2026-04-12T12:12:24.062Z</time></trkpt><trkpt lat="44.550015" lon="8.061965"><ele>729.5714285714286</ele><time>2026-04-12T12:12:30.064Z</time></trkpt><trkpt lat="44.5499717" lon="8.061885"><ele>729.2857142857143</ele><time>2026-04-12T12:12:32.065Z</time></trkpt><trkpt lat="44.5499367" lon="8.061795"><ele>729.0</ele><time>2026-04-12T12:12:34.064Z</time></trkpt><trkpt lat="44.5498983" lon="8.0616833"><ele>728.3333333333334</ele><time>2026-04-12T12:12:36.065Z</time></trkpt><trkpt lat="44.54989" lon="8.061555"><ele>727.6666666666666</ele><time>2026-04-12T12:12:38.064Z</time></trkpt><trkpt lat="44.5498833" lon="8.0614217"><ele>727.0</ele><time>2026-04-12T12:12:40.064Z</time></trkpt><trkpt lat="44.5498867" lon="8.06131"><ele>726.3333333333333</ele><time>2026-04-12T12:12:42.062Z</time></trkpt><trkpt lat="44.549915" lon="8.0612283"><ele>725.6666666666666</ele><time>2026-04-12T12:12:46.061Z</time></trkpt><trkpt lat="44.549905" lon="8.0610867"><ele>725.0</ele><time>2026-04-12T12:12:49.063Z</time></trkpt><trkpt lat="44.549845" lon="8.0609683"><ele>725.0</ele><time>2026-04-12T12:12:51.064Z</time></trkpt><trkpt lat="44.5497683" lon="8.06086"><ele>725.0</ele><time>2026-04-12T12:12:53.062Z</time></trkpt><trkpt lat="44.5496867" lon="8.0607417"><ele>725.0</ele><time>2026-04-12T12:12:55.063Z</time></trkpt><trkpt lat="44.5496033" lon="8.0606333"><ele>725.0</ele><time>2026-04-12T12:12:57.063Z</time></trkpt><trkpt lat="44.54951" lon="8.0605483"><ele>725.4</ele><time>2026-04-12T12:12:59.061Z</time></trkpt><trkpt lat="44.5494267" lon="8.060455"><ele>725.8</ele><time>2026-04-12T12:13:01.063Z</time></trkpt><trkpt lat="44.54936" lon="8.06034"><ele>726.2</ele><time>2026-04-12T12:13:03.063Z</time></trkpt><trkpt lat="44.5492817" lon="8.0602083"><ele>726.6</ele><time>2026-04-12T12:13:05.062Z</time></trkpt><trkpt lat="44.5492383" lon="8.0601317"><ele>727.0</ele><time>2026-04-12T12:13:06.062Z</time></trkpt><trkpt lat="44.5491867" lon="8.0600517"><ele>727.0</ele><time>2026-04-12T12:13:07.061Z</time></trkpt><trkpt lat="44.5491333" lon="8.0599683"><ele>727.0</ele><time>2026-04-12T12:13:08.061Z</time></trkpt><trkpt lat="44.549075" lon="8.0598933"><ele>727.0</ele><time>2026-04-12T12:13:09.063Z</time></trkpt><trkpt lat="44.5490233" lon="8.0598217"><ele>727.0</ele><time>2026-04-12T12:13:10.061Z</time></trkpt><trkpt lat="44.5489733" lon="8.0597583"><ele>727.0</ele><time>2026-04-12T12:13:11.063Z</time></trkpt><trkpt lat="44.5488817" lon="8.0596517"><ele>727.0</ele><time>2026-04-12T12:13:13.063Z</time></trkpt><trkpt lat="44.548795" lon="8.0595333"><ele>727.0</ele><time>2026-04-12T12:13:15.065Z</time></trkpt><trkpt lat="44.5487117" lon="8.0594117"><ele>727.0</ele><time>2026-04-12T12:13:17.063Z</time></trkpt><trkpt lat="44.5486383" lon="8.0592983"><ele>727.0</ele><time>2026-04-12T12:13:19.063Z</time></trkpt><trkpt lat="44.548585" lon="8.0592033"><ele>727.0</ele><time>2026-04-12T12:13:21.064Z</time></trkpt><trkpt lat="44.54854" lon="8.0591033"><ele>727.0</ele><time>2026-04-12T12:13:23.063Z</time></trkpt><trkpt lat="44.5484917" lon="8.0590033"><ele>727.0</ele><time>2026-04-12T12:13:25.063Z</time></trkpt><trkpt lat="44.5484467" lon="8.0589117"><ele>727.0</ele><time>2026-04-12T12:13:27.063Z</time></trkpt><trkpt lat="44.548405" lon="8.0588383"><ele>727.0</ele><time>2026-04-12T12:13:29.061Z</time></trkpt><trkpt lat="44.5483517" lon="8.0587567"><ele>727.0</ele><time>2026-04-12T12:13:31.067Z</time></trkpt><trkpt lat="44.54831" lon="8.0586567"><ele>727.0</ele><time>2026-04-12T12:13:33.06Z</time></trkpt><trkpt lat="44.5482567" lon="8.0585517"><ele>727.0</ele><time>2026-04-12T12:13:35.063Z</time></trkpt><trkpt lat="44.5482017" lon="8.0584483"><ele>727.0</ele><time>2026-04-12T12:13:37.059Z</time></trkpt><trkpt lat="44.5481667" lon="8.05834"><ele>727.0</ele><time>2026-04-12T12:13:39.058Z</time></trkpt><trkpt lat="44.5481283" lon="8.0582233"><ele>727.0</ele><time>2026-04-12T12:13:41.058Z</time></trkpt><trkpt lat="44.54809" lon="8.0581183"><ele>727.0</ele><time>2026-04-12T12:13:43.063Z</time></trkpt><trkpt lat="44.54806" lon="8.058"><ele>727.0</ele><time>2026-04-12T12:13:45.058Z</time></trkpt><trkpt lat="44.5480167" lon="8.0578683"><ele>727.4000000000001</ele><time>2026-04-12T12:13:47.061Z</time></trkpt><trkpt lat="44.547965" lon="8.0577417"><ele>727.8000000000001</ele><time>2026-04-12T12:13:49.068Z</time></trkpt><trkpt lat="44.547925" lon="8.0576217"><ele>728.2</ele><time>2026-04-12T12:13:51.062Z</time></trkpt><trkpt lat="44.5478967" lon="8.0574767"><ele>728.6</ele><time>2026-04-12T12:13:53.06Z</time></trkpt><trkpt lat="44.5478633" lon="8.057325"><ele>729.0</ele><time>2026-04-12T12:13:55.067Z</time></trkpt><trkpt lat="44.5478283" lon="8.05717"><ele>729.0</ele><time>2026-04-12T12:13:57.063Z</time></trkpt><trkpt lat="44.54778" lon="8.0570083"><ele>729.0</ele><time>2026-04-12T12:13:59.064Z</time></trkpt><trkpt lat="44.547745" lon="8.0569333"><ele>729.0</ele><time>2026-04-12T12:14:00.062Z</time></trkpt><trkpt lat="44.5476833" lon="8.0568033"><ele>729.0</ele><time>2026-04-12T12:14:02.061Z</time></trkpt><trkpt lat="44.54763" lon="8.0567033"><ele>729.0</ele><time>2026-04-12T12:14:04.061Z</time></trkpt><trkpt lat="44.54755" lon="8.0566683"><ele>729.0</ele><time>2026-04-12T12:14:06.063Z</time></trkpt><trkpt lat="44.547485" lon="8.056705"><ele>729.0</ele><time>2026-04-12T12:14:08.062Z</time></trkpt><trkpt lat="44.5474367" lon="8.0567767"><ele>729.0</ele><time>2026-04-12T12:14:10.063Z</time></trkpt><trkpt lat="44.5473917" lon="8.0568583"><ele>729.0</ele><time>2026-04-12T12:14:12.059Z</time></trkpt><trkpt lat="44.547335" lon="8.056945"><ele>729.0</ele><time>2026-04-12T12:14:14.062Z</time></trkpt><trkpt lat="44.547285" lon="8.0570517"><ele>729.0</ele><time>2026-04-12T12:14:16.061Z</time></trkpt><trkpt lat="44.5472317" lon="8.0571583"><ele>729.0</ele><time>2026-04-12T12:14:18.063Z</time></trkpt><trkpt lat="44.5471733" lon="8.0572783"><ele>729.0</ele><time>2026-04-12T12:14:20.062Z</time></trkpt><trkpt lat="44.54711" lon="8.0574167"><ele>729.0</ele><time>2026-04-12T12:14:22.062Z</time></trkpt><trkpt lat="44.5470783" lon="8.0574967"><ele>729.0</ele><time>2026-04-12T12:14:23.061Z</time></trkpt><trkpt lat="44.5470433" lon="8.057575"><ele>729.0</ele><time>2026-04-12T12:14:24.062Z</time></trkpt><trkpt lat="44.5470067" lon="8.0576483"><ele>729.0</ele><time>2026-04-12T12:14:25.058Z</time></trkpt><trkpt lat="44.5469667" lon="8.0577183"><ele>728.0</ele><time>2026-04-12T12:14:26.064Z</time></trkpt><trkpt lat="44.5469283" lon="8.05779"><ele>727.0</ele><time>2026-04-12T12:14:27.064Z</time></trkpt><trkpt lat="44.5468917" lon="8.0578667"><ele>726.0</ele><time>2026-04-12T12:14:28.062Z</time></trkpt><trkpt lat="44.54685" lon="8.0579383"><ele>725.0</ele><time>2026-04-12T12:14:29.063Z</time></trkpt><trkpt lat="44.5468033" lon="8.05801"><ele>724.0</ele><time>2026-04-12T12:14:30.062Z</time></trkpt><trkpt lat="44.5467567" lon="8.05808"><ele>723.0</ele><time>2026-04-12T12:14:31.063Z</time></trkpt><trkpt lat="44.5467067" lon="8.0581517"><ele>722.0</ele><time>2026-04-12T12:14:32.062Z</time></trkpt><trkpt lat="44.5466583" lon="8.0582283"><ele>723.8333333333333</ele><time>2026-04-12T12:14:33.063Z</time></trkpt><trkpt lat="44.5466083" lon="8.058305"><ele>725.6666666666666</ele><time>2026-04-12T12:14:34.062Z</time></trkpt><trkpt lat="44.5465517" lon="8.0583783"><ele>727.5</ele><time>2026-04-12T12:14:35.062Z</time></trkpt><trkpt lat="44.5464967" lon="8.0584567"><ele>729.3333333333334</ele><time>2026-04-12T12:14:36.062Z</time></trkpt><trkpt lat="44.5464367" lon="8.0585317"><ele>731.1666666666667</ele><time>2026-04-12T12:14:37.061Z</time></trkpt><trkpt lat="44.54637" lon="8.0585967"><ele>733.0</ele><time>2026-04-12T12:14:38.06Z</time></trkpt><trkpt lat="44.5462983" lon="8.0586517"><ele>733.0</ele><time>2026-04-12T12:14:39.062Z</time></trkpt><trkpt lat="44.546235" lon="8.0587017"><ele>733.0</ele><time>2026-04-12T12:14:40.062Z</time></trkpt><trkpt lat="44.54613" lon="8.0587583"><ele>733.0</ele><time>2026-04-12T12:14:42.062Z</time></trkpt><trkpt lat="44.5460233" lon="8.05871"><ele>733.0</ele><time>2026-04-12T12:14:44.06Z</time></trkpt><trkpt lat="44.5459233" lon="8.0586083"><ele>733.0</ele><time>2026-04-12T12:14:46.062Z</time></trkpt><trkpt lat="44.5458267" lon="8.0584967"><ele>732.1428571428571</ele><time>2026-04-12T12:14:48.061Z</time></trkpt><trkpt lat="44.545775" lon="8.0584417"><ele>731.2857142857142</ele><time>2026-04-12T12:14:49.061Z</time></trkpt><trkpt lat="44.5457267" lon="8.058385"><ele>730.4285714285713</ele><time>2026-04-12T12:14:50.061Z</time></trkpt><trkpt lat="44.5456733" lon="8.0583333"><ele>729.5714285714286</ele><time>2026-04-12T12:14:51.064Z</time></trkpt><trkpt lat="44.54562" lon="8.058285"><ele>728.7142857142858</ele><time>2026-04-12T12:14:52.064Z</time></trkpt><trkpt lat="44.5455117" lon="8.058195"><ele>727.8571428571428</ele><time>2026-04-12T12:14:54.063Z</time></trkpt><trkpt lat="44.5454567" lon="8.0581517"><ele>727.0</ele><time>2026-04-12T12:14:55.062Z</time></trkpt><trkpt lat="44.5453483" lon="8.05807"><ele>726.2</ele><time>2026-04-12T12:14:57.063Z</time></trkpt><trkpt lat="44.545235" lon="8.0580033"><ele>725.4000000000001</ele><time>2026-04-12T12:14:59.061Z</time></trkpt><trkpt lat="44.545125" lon="8.0579433"><ele>724.5999999999999</ele><time>2026-04-12T12:15:01.063Z</time></trkpt><trkpt lat="44.5450033" lon="8.057885"><ele>723.8</ele><time>2026-04-12T12:15:03.062Z</time></trkpt><trkpt lat="44.54494" lon="8.0578567"><ele>723.0</ele><time>2026-04-12T12:15:04.066Z</time></trkpt><trkpt lat="44.5448767" lon="8.0578233"><ele>723.0</ele><time>2026-04-12T12:15:05.062Z</time></trkpt><trkpt lat="44.544765" lon="8.05775"><ele>723.0</ele><time>2026-04-12T12:15:07.061Z</time></trkpt><trkpt lat="44.5447083" lon="8.0577083"><ele>723.0</ele><time>2026-04-12T12:15:08.062Z</time></trkpt><trkpt lat="44.5446517" lon="8.0576583"><ele>723.0</ele><time>2026-04-12T12:15:09.062Z</time></trkpt><trkpt lat="44.5445967" lon="8.057605"><ele>723.0</ele><time>2026-04-12T12:15:10.063Z</time></trkpt><trkpt lat="44.54454" lon="8.0575483"><ele>723.0</ele><time>2026-04-12T12:15:11.062Z</time></trkpt><trkpt lat="44.5444867" lon="8.05749"><ele>722.7142857142858</ele><time>2026-04-12T12:15:12.062Z</time></trkpt><trkpt lat="44.5444317" lon="8.0574333"><ele>722.4285714285714</ele><time>2026-04-12T12:15:13.062Z</time></trkpt><trkpt lat="44.54437" lon="8.05738"><ele>722.1428571428571</ele><time>2026-04-12T12:15:14.062Z</time></trkpt><trkpt lat="44.5443117" lon="8.0573283"><ele>721.8571428571429</ele><time>2026-04-12T12:15:15.064Z</time></trkpt><trkpt lat="44.5442517" lon="8.0572883"><ele>721.5714285714286</ele><time>2026-04-12T12:15:16.062Z</time></trkpt><trkpt lat="44.5441883" lon="8.057255"><ele>721.2857142857143</ele><time>2026-04-12T12:15:17.06Z</time></trkpt><trkpt lat="44.5441233" lon="8.0572267"><ele>721.0</ele><time>2026-04-12T12:15:18.062Z</time></trkpt><trkpt lat="44.5440567" lon="8.057205"><ele>721.0</ele><time>2026-04-12T12:15:19.062Z</time></trkpt><trkpt lat="44.5439867" lon="8.0571933"><ele>721.0</ele><time>2026-04-12T12:15:20.065Z</time></trkpt><trkpt lat="44.543915" lon="8.0571883"><ele>721.0</ele><time>2026-04-12T12:15:21.063Z</time></trkpt><trkpt lat="44.543845" lon="8.0571883"><ele>721.0</ele><time>2026-04-12T12:15:22.063Z</time></trkpt><trkpt lat="44.5437733" lon="8.0571883"><ele>721.0</ele><time>2026-04-12T12:15:23.06Z</time></trkpt><trkpt lat="44.5437" lon="8.057195"><ele>721.0</ele><time>2026-04-12T12:15:24.063Z</time></trkpt><trkpt lat="44.5436267" lon="8.0572"><ele>721.0</ele><time>2026-04-12T12:15:25.064Z</time></trkpt><trkpt lat="44.54355" lon="8.057205"><ele>721.0</ele><time>2026-04-12T12:15:26.064Z</time></trkpt><trkpt lat="44.5434717" lon="8.0572083"><ele>721.0</ele><time>2026-04-12T12:15:27.065Z</time></trkpt><trkpt lat="44.543395" lon="8.0572117"><ele>721.0</ele><time>2026-04-12T12:15:28.062Z</time></trkpt><trkpt lat="44.543315" lon="8.0572067"><ele>721.0</ele><time>2026-04-12T12:15:29.061Z</time></trkpt><trkpt lat="44.5432383" lon="8.0572"><ele>721.0</ele><time>2026-04-12T12:15:30.062Z</time></trkpt><trkpt lat="44.5431633" lon="8.0571883"><ele>721.0</ele><time>2026-04-12T12:15:31.064Z</time></trkpt><trkpt lat="44.5430833" lon="8.0571717"><ele>721.0</ele><time>2026-04-12T12:15:32.062Z</time></trkpt><trkpt lat="44.5430033" lon="8.05715"><ele>721.0</ele><time>2026-04-12T12:15:33.063Z</time></trkpt><trkpt lat="44.542925" lon="8.0571267"><ele>721.0</ele><time>2026-04-12T12:15:34.063Z</time></trkpt><trkpt lat="44.5428483" lon="8.0571017"><ele>721.0</ele><time>2026-04-12T12:15:35.061Z</time></trkpt><trkpt lat="44.5427733" lon="8.0570733"><ele>721.0</ele><time>2026-04-12T12:15:36.062Z</time></trkpt><trkpt lat="44.5427" lon="8.0570417"><ele>721.0</ele><time>2026-04-12T12:15:37.064Z</time></trkpt><trkpt lat="44.5426267" lon="8.0570033"><ele>722.1666666666667</ele><time>2026-04-12T12:15:38.061Z</time></trkpt><trkpt lat="44.5425517" lon="8.0569633"><ele>723.3333333333334</ele><time>2026-04-12T12:15:39.062Z</time></trkpt><trkpt lat="44.5424783" lon="8.0569217"><ele>724.5</ele><time>2026-04-12T12:15:40.06Z</time></trkpt><trkpt lat="44.5424033" lon="8.05688"><ele>725.6666666666666</ele><time>2026-04-12T12:15:41.062Z</time></trkpt><trkpt lat="44.5423383" lon="8.0568283"><ele>726.8333333333333</ele><time>2026-04-12T12:15:42.062Z</time></trkpt><trkpt lat="44.54227" lon="8.056775"><ele>728.0</ele><time>2026-04-12T12:15:43.062Z</time></trkpt><trkpt lat="44.5422083" lon="8.0567167"><ele>728.0</ele><time>2026-04-12T12:15:44.063Z</time></trkpt><trkpt lat="44.542145" lon="8.0566567"><ele>728.0</ele><time>2026-04-12T12:15:45.064Z</time></trkpt><trkpt lat="44.5420833" lon="8.056595"><ele>728.0</ele><time>2026-04-12T12:15:46.062Z</time></trkpt><trkpt lat="44.5420217" lon="8.0565367"><ele>728.0</ele><time>2026-04-12T12:15:47.061Z</time></trkpt><trkpt lat="44.5419583" lon="8.0564783"><ele>728.0</ele><time>2026-04-12T12:15:48.06Z</time></trkpt><trkpt lat="44.5418983" lon="8.0564167"><ele>728.0</ele><time>2026-04-12T12:15:49.063Z</time></trkpt><trkpt lat="44.54184" lon="8.0563533"><ele>727.7142857142857</ele><time>2026-04-12T12:15:50.065Z</time></trkpt><trkpt lat="44.5417783" lon="8.0562933"><ele>727.4285714285714</ele><time>2026-04-12T12:15:51.063Z</time></trkpt><trkpt lat="44.54172" lon="8.05623"><ele>727.1428571428571</ele><time>2026-04-12T12:15:52.061Z</time></trkpt><trkpt lat="44.5416617" lon="8.056165"><ele>726.8571428571429</ele><time>2026-04-12T12:15:53.063Z</time></trkpt><trkpt lat="44.5416083" lon="8.056095"><ele>726.5714285714286</ele><time>2026-04-12T12:15:54.061Z</time></trkpt><trkpt lat="44.541555" lon="8.0560233"><ele>726.2857142857142</ele><time>2026-04-12T12:15:55.062Z</time></trkpt><trkpt lat="44.54151" lon="8.0559467"><ele>726.0</ele><time>2026-04-12T12:15:56.063Z</time></trkpt><trkpt lat="44.5414667" lon="8.0558683"><ele>726.3333333333334</ele><time>2026-04-12T12:15:57.064Z</time></trkpt><trkpt lat="44.5414217" lon="8.055785"><ele>726.6666666666666</ele><time>2026-04-12T12:15:58.063Z</time></trkpt><trkpt lat="44.54138" lon="8.0556967"><ele>727.0</ele><time>2026-04-12T12:15:59.062Z</time></trkpt><trkpt lat="44.5413383" lon="8.055605"><ele>727.3333333333333</ele><time>2026-04-12T12:16:00.061Z</time></trkpt><trkpt lat="44.541295" lon="8.055515"><ele>727.6666666666666</ele><time>2026-04-12T12:16:01.062Z</time></trkpt><trkpt lat="44.54125" lon="8.055425"><ele>728.0</ele><time>2026-04-12T12:16:02.063Z</time></trkpt><trkpt lat="44.541205" lon="8.0553333"><ele>728.0</ele><time>2026-04-12T12:16:03.065Z</time></trkpt><trkpt lat="44.5411633" lon="8.05524"><ele>728.0</ele><time>2026-04-12T12:16:04.061Z</time></trkpt><trkpt lat="44.5411233" lon="8.055145"><ele>728.0</ele><time>2026-04-12T12:16:05.063Z</time></trkpt><trkpt lat="44.5410833" lon="8.05505"><ele>728.0</ele><time>2026-04-12T12:16:06.061Z</time></trkpt><trkpt lat="44.5410417" lon="8.054955"><ele>728.0</ele><time>2026-04-12T12:16:07.061Z</time></trkpt><trkpt lat="44.541" lon="8.0548633"><ele>728.0</ele><time>2026-04-12T12:16:08.061Z</time></trkpt><trkpt lat="44.5409567" lon="8.0547783"><ele>726.8571428571429</ele><time>2026-04-12T12:16:09.062Z</time></trkpt><trkpt lat="44.540915" lon="8.054695"><ele>725.7142857142858</ele><time>2026-04-12T12:16:10.061Z</time></trkpt><trkpt lat="44.5408683" lon="8.0546133"><ele>724.5714285714286</ele><time>2026-04-12T12:16:11.062Z</time></trkpt><trkpt lat="44.540825" lon="8.0545333"><ele>723.4285714285714</ele><time>2026-04-12T12:16:12.062Z</time></trkpt><trkpt lat="44.54078" lon="8.0544583"><ele>722.2857142857143</ele><time>2026-04-12T12:16:13.062Z</time></trkpt><trkpt lat="44.5407317" lon="8.0543933"><ele>721.1428571428571</ele><time>2026-04-12T12:16:14.062Z</time></trkpt><trkpt lat="44.54068" lon="8.054335"><ele>720.0</ele><time>2026-04-12T12:16:15.064Z</time></trkpt><trkpt lat="44.5406217" lon="8.054275"><ele>720.0</ele><time>2026-04-12T12:16:16.061Z</time></trkpt><trkpt lat="44.5405633" lon="8.05422"><ele>720.0</ele><time>2026-04-12T12:16:17.062Z</time></trkpt><trkpt lat="44.5405" lon="8.0541767"><ele>720.0</ele><time>2026-04-12T12:16:18.062Z</time></trkpt><trkpt lat="44.5404333" lon="8.0541467"><ele>720.0</ele><time>2026-04-12T12:16:19.062Z</time></trkpt><trkpt lat="44.5403683" lon="8.054125"><ele>720.0</ele><time>2026-04-12T12:16:20.062Z</time></trkpt><trkpt lat="44.5403017" lon="8.0541067"><ele>720.0</ele><time>2026-04-12T12:16:21.062Z</time></trkpt><trkpt lat="44.5402367" lon="8.0540767"><ele>720.0</ele><time>2026-04-12T12:16:22.063Z</time></trkpt><trkpt lat="44.540175" lon="8.0540383"><ele>720.8</ele><time>2026-04-12T12:16:23.062Z</time></trkpt><trkpt lat="44.5401183" lon="8.05399"><ele>721.6</ele><time>2026-04-12T12:16:24.063Z</time></trkpt><trkpt lat="44.540015" lon="8.0538883"><ele>722.4000000000001</ele><time>2026-04-12T12:16:26.064Z</time></trkpt><trkpt lat="44.5399083" lon="8.0538333"><ele>723.2</ele><time>2026-04-12T12:16:28.063Z</time></trkpt><trkpt lat="44.5398233" lon="8.0538933"><ele>724.0</ele><time>2026-04-12T12:16:30.061Z</time></trkpt><trkpt lat="44.5397667" lon="8.05397"><ele>724.0</ele><time>2026-04-12T12:16:32.062Z</time></trkpt><trkpt lat="44.53972" lon="8.054035"><ele>724.0</ele><time>2026-04-12T12:16:34.063Z</time></trkpt><trkpt lat="44.539665" lon="8.05412"><ele>724.0</ele><time>2026-04-12T12:16:37.063Z</time></trkpt><trkpt lat="44.5396083" lon="8.0541983"><ele>724.0</ele><time>2026-04-12T12:16:40.065Z</time></trkpt><trkpt lat="44.539525" lon="8.05421"><ele>724.0</ele><time>2026-04-12T12:16:43.063Z</time></trkpt><trkpt lat="44.5394433" lon="8.054175"><ele>724.0</ele><time>2026-04-12T12:16:46.06Z</time></trkpt><trkpt lat="44.5393633" lon="8.0541367"><ele>726.3333333333334</ele><time>2026-04-12T12:16:49.062Z</time></trkpt><trkpt lat="44.5393" lon="8.0540967"><ele>728.6666666666667</ele><time>2026-04-12T12:16:52.065Z</time></trkpt><trkpt lat="44.5392267" lon="8.054045"><ele>731.0</ele><time>2026-04-12T12:16:56.063Z</time></trkpt><trkpt lat="44.5391483" lon="8.0539983"><ele>733.3333333333334</ele><time>2026-04-12T12:17:00.062Z</time></trkpt><trkpt lat="44.5390833" lon="8.0539667"><ele>735.6666666666666</ele><time>2026-04-12T12:17:03.064Z</time></trkpt><trkpt lat="44.5390217" lon="8.0539033"><ele>738.0</ele><time>2026-04-12T12:17:07.064Z</time></trkpt><trkpt lat="44.5389767" lon="8.05381"><ele>738.0</ele><time>2026-04-12T12:17:11.061Z</time></trkpt><trkpt lat="44.53892" lon="8.0537317"><ele>738.0</ele><time>2026-04-12T12:17:14.063Z</time></trkpt><trkpt lat="44.5388683" lon="8.0536567"><ele>738.0</ele><time>2026-04-12T12:17:17.062Z</time></trkpt><trkpt lat="44.538815" lon="8.0535867"><ele>738.0</ele><time>2026-04-12T12:17:20.064Z</time></trkpt><trkpt lat="44.5387717" lon="8.0535083"><ele>738.0</ele><time>2026-04-12T12:17:23.063Z</time></trkpt><trkpt lat="44.5387067" lon="8.0534333"><ele>738.0</ele><time>2026-04-12T12:17:26.06Z</time></trkpt><trkpt lat="44.5386533" lon="8.0533583"><ele>740.0</ele><time>2026-04-12T12:17:29.059Z</time></trkpt><trkpt lat="44.5386083" lon="8.0532867"><ele>742.0</ele><time>2026-04-12T12:17:32.059Z</time></trkpt><trkpt lat="44.5385683" lon="8.0532167"><ele>744.0</ele><time>2026-04-12T12:17:35.063Z</time></trkpt><trkpt lat="44.5385233" lon="8.053135"><ele>746.0</ele><time>2026-04-12T12:17:38.063Z</time></trkpt><trkpt lat="44.5384533" lon="8.05309"><ele>748.0</ele><time>2026-04-12T12:17:41.064Z</time></trkpt><trkpt lat="44.538395" lon="8.0530383"><ele>750.0</ele><time>2026-04-12T12:17:44.062Z</time></trkpt><trkpt lat="44.5383333" lon="8.0529967"><ele>752.0</ele><time>2026-04-12T12:17:47.063Z</time></trkpt><trkpt lat="44.5382633" lon="8.052955"><ele>752.0</ele><time>2026-04-12T12:17:50.063Z</time></trkpt><trkpt lat="44.538185" lon="8.052895"><ele>752.0</ele><time>2026-04-12T12:17:53.061Z</time></trkpt><trkpt lat="44.5381183" lon="8.05281"><ele>752.0</ele><time>2026-04-12T12:17:55.064Z</time></trkpt><trkpt lat="44.53806" lon="8.052675"><ele>752.0</ele><time>2026-04-12T12:17:57.065Z</time></trkpt><trkpt lat="44.53804" lon="8.052585"><ele>752.0</ele><time>2026-04-12T12:17:58.063Z</time></trkpt><trkpt lat="44.5380183" lon="8.05249"><ele>752.0</ele><time>2026-04-12T12:17:59.062Z</time></trkpt><trkpt lat="44.5379967" lon="8.0523967"><ele>752.2857142857142</ele><time>2026-04-12T12:18:00.062Z</time></trkpt><trkpt lat="44.537975" lon="8.0523033"><ele>752.5714285714286</ele><time>2026-04-12T12:18:01.063Z</time></trkpt><trkpt lat="44.5379567" lon="8.0522067"><ele>752.8571428571429</ele><time>2026-04-12T12:18:02.065Z</time></trkpt><trkpt lat="44.5379467" lon="8.0521067"><ele>753.1428571428571</ele><time>2026-04-12T12:18:03.064Z</time></trkpt><trkpt lat="44.5379383" lon="8.0520017"><ele>753.4285714285714</ele><time>2026-04-12T12:18:04.062Z</time></trkpt><trkpt lat="44.5379433" lon="8.0519033"><ele>753.7142857142857</ele><time>2026-04-12T12:18:05.062Z</time></trkpt><trkpt lat="44.5379483" lon="8.0517933"><ele>754.0</ele><time>2026-04-12T12:18:06.063Z</time></trkpt><trkpt lat="44.5379517" lon="8.0516767"><ele>754.8333333333334</ele><time>2026-04-12T12:18:07.065Z</time></trkpt><trkpt lat="44.5379567" lon="8.05156"><ele>755.6666666666667</ele><time>2026-04-12T12:18:08.064Z</time></trkpt><trkpt lat="44.5379633" lon="8.0514533"><ele>756.5</ele><time>2026-04-12T12:18:09.065Z</time></trkpt><trkpt lat="44.5379683" lon="8.051345"><ele>757.3333333333334</ele><time>2026-04-12T12:18:10.063Z</time></trkpt><trkpt lat="44.5379633" lon="8.0512317"><ele>758.1666666666666</ele><time>2026-04-12T12:18:11.064Z</time></trkpt><trkpt lat="44.5379517" lon="8.051125"><ele>759.0</ele><time>2026-04-12T12:18:12.063Z</time></trkpt><trkpt lat="44.537935" lon="8.0510183"><ele>759.0</ele><time>2026-04-12T12:18:13.063Z</time></trkpt><trkpt lat="44.5379283" lon="8.0509117"><ele>759.0</ele><time>2026-04-12T12:18:14.065Z</time></trkpt><trkpt lat="44.53792" lon="8.0508017"><ele>759.0</ele><time>2026-04-12T12:18:15.063Z</time></trkpt><trkpt lat="44.537915" lon="8.0506967"><ele>759.0</ele><time>2026-04-12T12:18:16.064Z</time></trkpt><trkpt lat="44.5379183" lon="8.0505933"><ele>759.0</ele><time>2026-04-12T12:18:17.066Z</time></trkpt><trkpt lat="44.5379117" lon="8.050495"><ele>759.0</ele><time>2026-04-12T12:18:18.064Z</time></trkpt><trkpt lat="44.5379017" lon="8.0504017"><ele>759.0</ele><time>2026-04-12T12:18:19.065Z</time></trkpt><trkpt lat="44.537885" lon="8.0503083"><ele>754.0</ele><time>2026-04-12T12:18:20.065Z</time></trkpt><trkpt lat="44.537825" lon="8.0501533"><ele>749.0</ele><time>2026-04-12T12:18:22.062Z</time></trkpt><trkpt lat="44.5377817" lon="8.0500833"><ele>744.0</ele><time>2026-04-12T12:18:23.062Z</time></trkpt><trkpt lat="44.5377333" lon="8.05002"><ele>739.0</ele><time>2026-04-12T12:18:24.062Z</time></trkpt><trkpt lat="44.5376783" lon="8.0499633"><ele>734.0</ele><time>2026-04-12T12:18:25.062Z</time></trkpt><trkpt lat="44.5376217" lon="8.049915"><ele>729.0</ele><time>2026-04-12T12:18:26.063Z</time></trkpt><trkpt lat="44.5375667" lon="8.0498683"><ele>729.0</ele><time>2026-04-12T12:18:27.065Z</time></trkpt><trkpt lat="44.537465" lon="8.0497933"><ele>729.0</ele><time>2026-04-12T12:18:29.061Z</time></trkpt><trkpt lat="44.5373783" lon="8.04971"><ele>729.0</ele><time>2026-04-12T12:18:31.062Z</time></trkpt><trkpt lat="44.5373167" lon="8.0496083"><ele>729.0</ele><time>2026-04-12T12:18:33.063Z</time></trkpt><trkpt lat="44.5372783" lon="8.0494933"><ele>729.0</ele><time>2026-04-12T12:18:35.063Z</time></trkpt><trkpt lat="44.5372767" lon="8.0493583"><ele>729.0</ele><time>2026-04-12T12:18:37.063Z</time></trkpt><trkpt lat="44.537295" lon="8.0491983"><ele>729.0</ele><time>2026-04-12T12:18:39.063Z</time></trkpt><trkpt lat="44.5372983" lon="8.0491033"><ele>729.0</ele><time>2026-04-12T12:18:40.063Z</time></trkpt><trkpt lat="44.5373133" lon="8.0489967"><ele>729.0</ele><time>2026-04-12T12:18:41.061Z</time></trkpt><trkpt lat="44.53733" lon="8.048875"><ele>729.0</ele><time>2026-04-12T12:18:42.065Z</time></trkpt><trkpt lat="44.5373517" lon="8.048755"><ele>729.0</ele><time>2026-04-12T12:18:43.064Z</time></trkpt><trkpt lat="44.5373817" lon="8.048635"><ele>726.8000000000001</ele><time>2026-04-12T12:18:44.064Z</time></trkpt><trkpt lat="44.5374133" lon="8.0485183"><ele>724.6</ele><time>2026-04-12T12:18:45.064Z</time></trkpt><trkpt lat="44.5374517" lon="8.0484067"><ele>722.4</ele><time>2026-04-12T12:18:46.063Z</time></trkpt><trkpt lat="44.537495" lon="8.0482917"><ele>720.2</ele><time>2026-04-12T12:18:47.062Z</time></trkpt><trkpt lat="44.5375417" lon="8.048175"><ele>718.0</ele><time>2026-04-12T12:18:48.062Z</time></trkpt><trkpt lat="44.53759" lon="8.048055"><ele>718.8</ele><time>2026-04-12T12:18:49.064Z</time></trkpt><trkpt lat="44.537645" lon="8.04794"><ele>719.5999999999999</ele><time>2026-04-12T12:18:50.064Z</time></trkpt><trkpt lat="44.537705" lon="8.0478367"><ele>720.4000000000001</ele><time>2026-04-12T12:18:51.064Z</time></trkpt><trkpt lat="44.5377767" lon="8.0477417"><ele>721.2</ele><time>2026-04-12T12:18:52.065Z</time></trkpt><trkpt lat="44.53785" lon="8.047655"><ele>722.0</ele><time>2026-04-12T12:18:53.062Z</time></trkpt><trkpt lat="44.537925" lon="8.0475717"><ele>722.0</ele><time>2026-04-12T12:18:54.064Z</time></trkpt><trkpt lat="44.5379967" lon="8.04749"><ele>722.0</ele><time>2026-04-12T12:18:55.063Z</time></trkpt><trkpt lat="44.5380567" lon="8.0474033"><ele>722.0</ele><time>2026-04-12T12:18:56.062Z</time></trkpt><trkpt lat="44.53811" lon="8.0473183"><ele>722.0</ele><time>2026-04-12T12:18:57.065Z</time></trkpt><trkpt lat="44.5381567" lon="8.047235"><ele>722.0</ele><time>2026-04-12T12:18:58.063Z</time></trkpt><trkpt lat="44.5381983" lon="8.04715"><ele>722.0</ele><time>2026-04-12T12:18:59.064Z</time></trkpt><trkpt lat="44.5382367" lon="8.0470633"><ele>721.2857142857143</ele><time>2026-04-12T12:19:00.064Z</time></trkpt><trkpt lat="44.53827" lon="8.0469783"><ele>720.5714285714286</ele><time>2026-04-12T12:19:01.063Z</time></trkpt><trkpt lat="44.538295" lon="8.0468917"><ele>719.8571428571429</ele><time>2026-04-12T12:19:02.063Z</time></trkpt><trkpt lat="44.5383117" lon="8.046805"><ele>719.1428571428571</ele><time>2026-04-12T12:19:03.064Z</time></trkpt><trkpt lat="44.5383183" lon="8.0467167"><ele>718.4285714285713</ele><time>2026-04-12T12:19:04.063Z</time></trkpt><trkpt lat="44.5383183" lon="8.0466267"><ele>717.7142857142857</ele><time>2026-04-12T12:19:05.062Z</time></trkpt><trkpt lat="44.5383167" lon="8.0465333"><ele>717.0</ele><time>2026-04-12T12:19:06.064Z</time></trkpt><trkpt lat="44.53832" lon="8.0464433"><ele>715.6</ele><time>2026-04-12T12:19:07.062Z</time></trkpt><trkpt lat="44.5383283" lon="8.0462717"><ele>714.2</ele><time>2026-04-12T12:19:09.066Z</time></trkpt><trkpt lat="44.5383367" lon="8.0461367"><ele>712.8</ele><time>2026-04-12T12:19:11.063Z</time></trkpt><trkpt lat="44.5383217" lon="8.046035"><ele>711.4</ele><time>2026-04-12T12:19:14.064Z</time></trkpt><trkpt lat="44.53825" lon="8.045945"><ele>710.0</ele><time>2026-04-12T12:19:16.062Z</time></trkpt><trkpt lat="44.5381483" lon="8.045865"><ele>710.0</ele><time>2026-04-12T12:19:18.062Z</time></trkpt><trkpt lat="44.53809" lon="8.0458267"><ele>710.0</ele><time>2026-04-12T12:19:19.062Z</time></trkpt><trkpt lat="44.5380317" lon="8.0457833"><ele>710.0</ele><time>2026-04-12T12:19:20.063Z</time></trkpt><trkpt lat="44.5379733" lon="8.0457433"><ele>710.0</ele><time>2026-04-12T12:19:21.063Z</time></trkpt><trkpt lat="44.5379117" lon="8.0457"><ele>710.0</ele><time>2026-04-12T12:19:22.063Z</time></trkpt><trkpt lat="44.5378467" lon="8.0456567"><ele>710.0</ele><time>2026-04-12T12:19:23.061Z</time></trkpt><trkpt lat="44.5377817" lon="8.045615"><ele>710.0</ele><time>2026-04-12T12:19:24.062Z</time></trkpt><trkpt lat="44.5377167" lon="8.0455717"><ele>709.8571428571429</ele><time>2026-04-12T12:19:25.061Z</time></trkpt><trkpt lat="44.53765" lon="8.0455267"><ele>709.7142857142858</ele><time>2026-04-12T12:19:26.062Z</time></trkpt><trkpt lat="44.5375833" lon="8.0454817"><ele>709.5714285714287</ele><time>2026-04-12T12:19:27.064Z</time></trkpt><trkpt lat="44.5375183" lon="8.045435"><ele>709.4285714285714</ele><time>2026-04-12T12:19:28.061Z</time></trkpt><trkpt lat="44.5374517" lon="8.0453933"><ele>709.2857142857143</ele><time>2026-04-12T12:19:29.061Z</time></trkpt><trkpt lat="44.5373867" lon="8.0453517"><ele>709.1428571428572</ele><time>2026-04-12T12:19:30.063Z</time></trkpt><trkpt lat="44.53732" lon="8.04531"><ele>709.0</ele><time>2026-04-12T12:19:31.062Z</time></trkpt><trkpt lat="44.537255" lon="8.0452733"><ele>709.0000000000001</ele><time>2026-04-12T12:19:32.065Z</time></trkpt><trkpt lat="44.5371917" lon="8.04524"><ele>709.0</ele><time>2026-04-12T12:19:33.062Z</time></trkpt><trkpt lat="44.5371267" lon="8.0452083"><ele>709.0</ele><time>2026-04-12T12:19:34.064Z</time></trkpt><trkpt lat="44.537065" lon="8.0451833"><ele>709.0</ele><time>2026-04-12T12:19:35.062Z</time></trkpt><trkpt lat="44.537" lon="8.045165"><ele>709.0</ele><time>2026-04-12T12:19:36.062Z</time></trkpt><trkpt lat="44.5369367" lon="8.0451517"><ele>709.0000000000001</ele><time>2026-04-12T12:19:37.063Z</time></trkpt><trkpt lat="44.5368733" lon="8.0451433"><ele>709.0</ele><time>2026-04-12T12:19:38.063Z</time></trkpt><trkpt lat="44.5367517" lon="8.0451333"><ele>710.75</ele><time>2026-04-12T12:19:40.065Z</time></trkpt><trkpt lat="44.53663" lon="8.045135"><ele>712.5</ele><time>2026-04-12T12:19:42.064Z</time></trkpt><trkpt lat="44.53651" lon="8.04513"><ele>714.25</ele><time>2026-04-12T12:19:44.063Z</time></trkpt><trkpt lat="44.5363933" lon="8.0451317"><ele>716.0</ele><time>2026-04-12T12:19:46.062Z</time></trkpt><trkpt lat="44.536275" lon="8.0451383"><ele>718.0</ele><time>2026-04-12T12:19:48.065Z</time></trkpt><trkpt lat="44.53616" lon="8.0451517"><ele>720.0</ele><time>2026-04-12T12:19:50.065Z</time></trkpt><trkpt lat="44.53605" lon="8.0451533"><ele>722.0</ele><time>2026-04-12T12:19:52.063Z</time></trkpt><trkpt lat="44.5359467" lon="8.0451467"><ele>724.0</ele><time>2026-04-12T12:19:54.066Z</time></trkpt><trkpt lat="44.535845" lon="8.0451483"><ele>726.0</ele><time>2026-04-12T12:19:56.063Z</time></trkpt><trkpt lat="44.5357433" lon="8.045145"><ele>726.0</ele><time>2026-04-12T12:19:58.063Z</time></trkpt><trkpt lat="44.5356383" lon="8.0451583"><ele>726.0</ele><time>2026-04-12T12:20:00.065Z</time></trkpt><trkpt lat="44.53554" lon="8.045185"><ele>726.0</ele><time>2026-04-12T12:20:02.062Z</time></trkpt><trkpt lat="44.5354383" lon="8.0452333"><ele>726.0</ele><time>2026-04-12T12:20:04.064Z</time></trkpt><trkpt lat="44.5353367" lon="8.0452867"><ele>726.0</ele><time>2026-04-12T12:20:06.063Z</time></trkpt><trkpt lat="44.5352233" lon="8.0453417"><ele>728.1999999999999</ele><time>2026-04-12T12:20:08.062Z</time></trkpt><trkpt lat="44.5351033" lon="8.0454067"><ele>730.4</ele><time>2026-04-12T12:20:10.064Z</time></trkpt><trkpt lat="44.53499" lon="8.04547"><ele>732.6</ele><time>2026-04-12T12:20:12.062Z</time></trkpt><trkpt lat="44.5348733" lon="8.045515"><ele>734.8</ele><time>2026-04-12T12:20:14.062Z</time></trkpt><trkpt lat="44.5348117" lon="8.0455433"><ele>737.0</ele><time>2026-04-12T12:20:15.064Z</time></trkpt><trkpt lat="44.5347517" lon="8.045575"><ele>737.0</ele><time>2026-04-12T12:20:16.064Z</time></trkpt><trkpt lat="44.5346417" lon="8.045635"><ele>737.0</ele><time>2026-04-12T12:20:18.066Z</time></trkpt><trkpt lat="44.5345267" lon="8.0456917"><ele>737.0</ele><time>2026-04-12T12:20:20.065Z</time></trkpt><trkpt lat="44.5344117" lon="8.0457417"><ele>737.0</ele><time>2026-04-12T12:20:22.065Z</time></trkpt><trkpt lat="44.53435" lon="8.0457683"><ele>737.0</ele><time>2026-04-12T12:20:23.063Z</time></trkpt><trkpt lat="44.5342333" lon="8.0458017"><ele>735.4000000000001</ele><time>2026-04-12T12:20:25.064Z</time></trkpt><trkpt lat="44.5341267" lon="8.0458467"><ele>733.8000000000001</ele><time>2026-04-12T12:20:27.063Z</time></trkpt><trkpt lat="44.5340233" lon="8.0458967"><ele>732.2</ele><time>2026-04-12T12:20:29.063Z</time></trkpt><trkpt lat="44.5339267" lon="8.0459467"><ele>730.6</ele><time>2026-04-12T12:20:31.063Z</time></trkpt><trkpt lat="44.5338367" lon="8.0459867"><ele>729.0</ele><time>2026-04-12T12:20:33.063Z</time></trkpt><trkpt lat="44.5337467" lon="8.04603"><ele>730.6</ele><time>2026-04-12T12:20:35.061Z</time></trkpt><trkpt lat="44.5336633" lon="8.04607"><ele>732.2</ele><time>2026-04-12T12:20:37.063Z</time></trkpt><trkpt lat="44.5335683" lon="8.0460867"><ele>733.8000000000001</ele><time>2026-04-12T12:20:39.065Z</time></trkpt><trkpt lat="44.533475" lon="8.0460883"><ele>735.4000000000001</ele><time>2026-04-12T12:20:41.063Z</time></trkpt><trkpt lat="44.533385" lon="8.0460933"><ele>737.0</ele><time>2026-04-12T12:20:43.061Z</time></trkpt><trkpt lat="44.5333033" lon="8.0461167"><ele>737.0000000000001</ele><time>2026-04-12T12:20:45.066Z</time></trkpt><trkpt lat="44.533235" lon="8.04614"><ele>737.0</ele><time>2026-04-12T12:20:47.063Z</time></trkpt><trkpt lat="44.533155" lon="8.0461817"><ele>737.0</ele><time>2026-04-12T12:20:50.063Z</time></trkpt><trkpt lat="44.5330883" lon="8.0462167"><ele>737.0</ele><time>2026-04-12T12:20:53.06Z</time></trkpt><trkpt lat="44.53303" lon="8.0462583"><ele>737.0</ele><time>2026-04-12T12:20:56.064Z</time></trkpt><trkpt lat="44.532965" lon="8.0463067"><ele>737.0000000000001</ele><time>2026-04-12T12:20:59.061Z</time></trkpt><trkpt lat="44.5328867" lon="8.0463433"><ele>737.0</ele><time>2026-04-12T12:21:02.062Z</time></trkpt><trkpt lat="44.5328" lon="8.04633"><ele>737.0</ele><time>2026-04-12T12:21:05.061Z</time></trkpt><trkpt lat="44.5327667" lon="8.046235"><ele>737.0</ele><time>2026-04-12T12:21:08.062Z</time></trkpt><trkpt lat="44.53282" lon="8.0461333"><ele>737.0</ele><time>2026-04-12T12:21:11.062Z</time></trkpt><trkpt lat="44.5328867" lon="8.0460683"><ele>737.0</ele><time>2026-04-12T12:21:14.064Z</time></trkpt><trkpt lat="44.53294" lon="8.045995"><ele>737.0</ele><time>2026-04-12T12:21:17.061Z</time></trkpt><trkpt lat="44.5330017" lon="8.0459167"><ele>737.0</ele><time>2026-04-12T12:21:20.063Z</time></trkpt><trkpt lat="44.5330733" lon="8.045845"><ele>736.8571428571429</ele><time>2026-04-12T12:21:23.062Z</time></trkpt><trkpt lat="44.5331233" lon="8.0457883"><ele>736.7142857142858</ele><time>2026-04-12T12:21:25.061Z</time></trkpt><trkpt lat="44.5331717" lon="8.04573"><ele>736.5714285714287</ele><time>2026-04-12T12:21:27.064Z</time></trkpt><trkpt lat="44.5332267" lon="8.0456733"><ele>736.4285714285714</ele><time>2026-04-12T12:21:29.06Z</time></trkpt><trkpt lat="44.5332817" lon="8.04562"><ele>736.2857142857142</ele><time>2026-04-12T12:21:31.061Z</time></trkpt><trkpt lat="44.5333617" lon="8.0455533"><ele>736.1428571428572</ele><time>2026-04-12T12:21:34.062Z</time></trkpt><trkpt lat="44.533435" lon="8.045475"><ele>736.0</ele><time>2026-04-12T12:21:37.06Z</time></trkpt><trkpt lat="44.5335167" lon="8.0454033"><ele>736.0</ele><time>2026-04-12T12:21:40.062Z</time></trkpt><trkpt lat="44.5335683" lon="8.0453483"><ele>736.0</ele><time>2026-04-12T12:21:42.061Z</time></trkpt><trkpt lat="44.5336367" lon="8.045265"><ele>736.0</ele><time>2026-04-12T12:21:45.063Z</time></trkpt><trkpt lat="44.5337183" lon="8.04521"><ele>736.0</ele><time>2026-04-12T12:21:48.063Z</time></trkpt><trkpt lat="44.5337717" lon="8.04516"><ele>736.0</ele><time>2026-04-12T12:21:50.063Z</time></trkpt><trkpt lat="44.5338483" lon="8.04508"><ele>736.0</ele><time>2026-04-12T12:21:53.063Z</time></trkpt><trkpt lat="44.5338933" lon="8.045005"><ele>737.5714285714286</ele><time>2026-04-12T12:21:55.062Z</time></trkpt><trkpt lat="44.5339417" lon="8.044925"><ele>739.1428571428571</ele><time>2026-04-12T12:21:57.066Z</time></trkpt><trkpt lat="44.5339883" lon="8.0448383"><ele>740.7142857142857</ele><time>2026-04-12T12:21:59.062Z</time></trkpt><trkpt lat="44.5340267" lon="8.04475"><ele>742.2857142857142</ele><time>2026-04-12T12:22:01.063Z</time></trkpt><trkpt lat="44.5340583" lon="8.04466"><ele>743.8571428571429</ele><time>2026-04-12T12:22:03.065Z</time></trkpt><trkpt lat="44.5341017" lon="8.04458"><ele>745.4285714285713</ele><time>2026-04-12T12:22:05.062Z</time></trkpt><trkpt lat="44.5341417" lon="8.0444983"><ele>747.0</ele><time>2026-04-12T12:22:07.063Z</time></trkpt><trkpt lat="44.5341733" lon="8.0444217"><ele>747.0</ele><time>2026-04-12T12:22:09.063Z</time></trkpt><trkpt lat="44.5342067" lon="8.044325"><ele>747.0</ele><time>2026-04-12T12:22:11.064Z</time></trkpt><trkpt lat="44.5342367" lon="8.0442233"><ele>747.0</ele><time>2026-04-12T12:22:13.062Z</time></trkpt><trkpt lat="44.53427" lon="8.0441183"><ele>747.0</ele><time>2026-04-12T12:22:15.068Z</time></trkpt><trkpt lat="44.5343117" lon="8.0440117"><ele>747.0</ele><time>2026-04-12T12:22:17.062Z</time></trkpt><trkpt lat="44.5343467" lon="8.0439033"><ele>747.0</ele><time>2026-04-12T12:22:19.062Z</time></trkpt><trkpt lat="44.5343783" lon="8.043785"><ele>746.2</ele><time>2026-04-12T12:22:21.064Z</time></trkpt><trkpt lat="44.5344117" lon="8.0436633"><ele>745.4000000000001</ele><time>2026-04-12T12:22:23.062Z</time></trkpt><trkpt lat="44.534435" lon="8.043535"><ele>744.5999999999999</ele><time>2026-04-12T12:22:25.063Z</time></trkpt><trkpt lat="44.5344583" lon="8.0434017"><ele>743.8</ele><time>2026-04-12T12:22:27.063Z</time></trkpt><trkpt lat="44.5344717" lon="8.0432633"><ele>743.0</ele><time>2026-04-12T12:22:29.063Z</time></trkpt><trkpt lat="44.5344783" lon="8.0431217"><ele>743.0</ele><time>2026-04-12T12:22:31.064Z</time></trkpt><trkpt lat="44.5344983" lon="8.04299"><ele>743.0</ele><time>2026-04-12T12:22:33.063Z</time></trkpt><trkpt lat="44.5345217" lon="8.042865"><ele>743.0</ele><time>2026-04-12T12:22:35.062Z</time></trkpt><trkpt lat="44.5345567" lon="8.042745"><ele>743.0</ele><time>2026-04-12T12:22:37.064Z</time></trkpt><trkpt lat="44.5345933" lon="8.04264"><ele>743.0</ele><time>2026-04-12T12:22:39.064Z</time></trkpt><trkpt lat="44.5346333" lon="8.04255"><ele>743.0</ele><time>2026-04-12T12:22:41.061Z</time></trkpt><trkpt lat="44.5346683" lon="8.0424683"><ele>743.6666666666666</ele><time>2026-04-12T12:22:43.062Z</time></trkpt><trkpt lat="44.5347217" lon="8.0423567"><ele>744.3333333333333</ele><time>2026-04-12T12:22:45.068Z</time></trkpt><trkpt lat="44.5347583" lon="8.0422817"><ele>745.0</ele><time>2026-04-12T12:22:46.061Z</time></trkpt><trkpt lat="44.5347983" lon="8.0422033"><ele>745.6666666666666</ele><time>2026-04-12T12:22:47.062Z</time></trkpt><trkpt lat="44.534845" lon="8.0421167"><ele>746.3333333333334</ele><time>2026-04-12T12:22:48.061Z</time></trkpt><trkpt lat="44.5348967" lon="8.0420233"><ele>747.0</ele><time>2026-04-12T12:22:49.064Z</time></trkpt><trkpt lat="44.53495" lon="8.04192"><ele>747.0</ele><time>2026-04-12T12:22:50.06Z</time></trkpt><trkpt lat="44.535" lon="8.0418083"><ele>747.0</ele><time>2026-04-12T12:22:51.065Z</time></trkpt><trkpt lat="44.535045" lon="8.0416883"><ele>747.0</ele><time>2026-04-12T12:22:52.065Z</time></trkpt><trkpt lat="44.5350917" lon="8.0415633"><ele>747.0</ele><time>2026-04-12T12:22:53.062Z</time></trkpt><trkpt lat="44.5351417" lon="8.0414367"><ele>747.0</ele><time>2026-04-12T12:22:54.062Z</time></trkpt><trkpt lat="44.5351933" lon="8.04131"><ele>745.5</ele><time>2026-04-12T12:22:55.065Z</time></trkpt><trkpt lat="44.5352517" lon="8.0411867"><ele>744.0</ele><time>2026-04-12T12:22:56.061Z</time></trkpt><trkpt lat="44.535325" lon="8.0410667"><ele>742.5</ele><time>2026-04-12T12:22:57.063Z</time></trkpt><trkpt lat="44.5354183" lon="8.0409583"><ele>741.0</ele><time>2026-04-12T12:22:58.063Z</time></trkpt><trkpt lat="44.5355217" lon="8.040855"><ele>737.75</ele><time>2026-04-12T12:22:59.061Z</time></trkpt><trkpt lat="44.535625" lon="8.0407467"><ele>734.5</ele><time>2026-04-12T12:23:00.063Z</time></trkpt><trkpt lat="44.535725" lon="8.0406233"><ele>731.25</ele><time>2026-04-12T12:23:01.062Z</time></trkpt><trkpt lat="44.535815" lon="8.04049"><ele>728.0</ele><time>2026-04-12T12:23:02.062Z</time></trkpt><trkpt lat="44.5359017" lon="8.0403483"><ele>728.0</ele><time>2026-04-12T12:23:03.062Z</time></trkpt><trkpt lat="44.53598" lon="8.0401983"><ele>728.0</ele><time>2026-04-12T12:23:04.06Z</time></trkpt><trkpt lat="44.5360533" lon="8.0400417"><ele>728.0</ele><time>2026-04-12T12:23:05.061Z</time></trkpt><trkpt lat="44.5361317" lon="8.0398867"><ele>728.0</ele><time>2026-04-12T12:23:06.061Z</time></trkpt><trkpt lat="44.5362133" lon="8.0397367"><ele>726.0</ele><time>2026-04-12T12:23:07.061Z</time></trkpt><trkpt lat="44.5363017" lon="8.0396083"><ele>724.0</ele><time>2026-04-12T12:23:08.063Z</time></trkpt><trkpt lat="44.5363933" lon="8.0394833"><ele>722.0</ele><time>2026-04-12T12:23:09.064Z</time></trkpt><trkpt lat="44.536485" lon="8.0393683"><ele>720.0</ele><time>2026-04-12T12:23:10.064Z</time></trkpt><trkpt lat="44.53658" lon="8.039265"><ele>720.0</ele><time>2026-04-12T12:23:11.06Z</time></trkpt><trkpt lat="44.5366717" lon="8.03918"><ele>720.0</ele><time>2026-04-12T12:23:12.061Z</time></trkpt><trkpt lat="44.53677" lon="8.0391083"><ele>720.0</ele><time>2026-04-12T12:23:13.061Z</time></trkpt><trkpt lat="44.536875" lon="8.0390483"><ele>720.0</ele><time>2026-04-12T12:23:14.061Z</time></trkpt><trkpt lat="44.5369833" lon="8.0389667"><ele>720.0</ele><time>2026-04-12T12:23:15.062Z</time></trkpt><trkpt lat="44.5370767" lon="8.0388633"><ele>720.0</ele><time>2026-04-12T12:23:16.062Z</time></trkpt><trkpt lat="44.5371433" lon="8.0387633"><ele>720.0</ele><time>2026-04-12T12:23:17.061Z</time></trkpt><trkpt lat="44.5371933" lon="8.0386733"><ele>720.0</ele><time>2026-04-12T12:23:18.061Z</time></trkpt><trkpt lat="44.53723" lon="8.0385833"><ele>720.0</ele><time>2026-04-12T12:23:19.061Z</time></trkpt><trkpt lat="44.537235" lon="8.0384883"><ele>720.0</ele><time>2026-04-12T12:23:20.062Z</time></trkpt><trkpt lat="44.5372317" lon="8.038335"><ele>719.4</ele><time>2026-04-12T12:23:22.063Z</time></trkpt><trkpt lat="44.537275" lon="8.038225"><ele>718.8</ele><time>2026-04-12T12:23:24.063Z</time></trkpt><trkpt lat="44.5373717" lon="8.0382217"><ele>718.2</ele><time>2026-04-12T12:23:26.062Z</time></trkpt><trkpt lat="44.5374367" lon="8.0382467"><ele>717.6</ele><time>2026-04-12T12:23:27.065Z</time></trkpt><trkpt lat="44.53755" lon="8.03824"><ele>717.0</ele><time>2026-04-12T12:23:29.063Z</time></trkpt><trkpt lat="44.537635" lon="8.038225"><ele>717.0</ele><time>2026-04-12T12:23:31.063Z</time></trkpt><trkpt lat="44.5377167" lon="8.038235"><ele>717.0</ele><time>2026-04-12T12:23:34.061Z</time></trkpt><trkpt lat="44.5378083" lon="8.03824"><ele>717.0</ele><time>2026-04-12T12:23:37.064Z</time></trkpt><trkpt lat="44.537885" lon="8.0382467"><ele>717.0</ele><time>2026-04-12T12:23:39.062Z</time></trkpt><trkpt lat="44.537965" lon="8.0382583"><ele>717.0</ele><time>2026-04-12T12:23:41.061Z</time></trkpt><trkpt lat="44.5380433" lon="8.0382717"><ele>717.0</ele><time>2026-04-12T12:23:43.063Z</time></trkpt><trkpt lat="44.5381117" lon="8.0383167"><ele>717.0</ele><time>2026-04-12T12:23:45.064Z</time></trkpt><trkpt lat="44.538185" lon="8.0383633"><ele>717.0</ele><time>2026-04-12T12:23:47.061Z</time></trkpt><trkpt lat="44.5382733" lon="8.0384067"><ele>717.0</ele><time>2026-04-12T12:23:49.063Z</time></trkpt><trkpt lat="44.5383617" lon="8.0384367"><ele>717.0</ele><time>2026-04-12T12:23:51.063Z</time></trkpt><trkpt lat="44.538445" lon="8.0384417"><ele>717.0</ele><time>2026-04-12T12:23:53.064Z</time></trkpt><trkpt lat="44.5385333" lon="8.03843"><ele>717.0</ele><time>2026-04-12T12:23:55.062Z</time></trkpt><trkpt lat="44.53862" lon="8.038385"><ele>717.0</ele><time>2026-04-12T12:23:57.067Z</time></trkpt><trkpt lat="44.538705" lon="8.0383033"><ele>717.0</ele><time>2026-04-12T12:23:59.062Z</time></trkpt><trkpt lat="44.5387833" lon="8.038225"><ele>717.0</ele><time>2026-04-12T12:24:01.062Z</time></trkpt><trkpt lat="44.5388467" lon="8.0381367"><ele>717.0</ele><time>2026-04-12T12:24:03.062Z</time></trkpt><trkpt lat="44.5389067" lon="8.03805"><ele>717.0</ele><time>2026-04-12T12:24:05.061Z</time></trkpt><trkpt lat="44.5389767" lon="8.0379483"><ele>717.0</ele><time>2026-04-12T12:24:07.061Z</time></trkpt><trkpt lat="44.5390467" lon="8.0378483"><ele>717.0</ele><time>2026-04-12T12:24:09.062Z</time></trkpt><trkpt lat="44.5391117" lon="8.03771"><ele>717.0</ele><time>2026-04-12T12:24:11.061Z</time></trkpt><trkpt lat="44.5391733" lon="8.037555"><ele>717.0</ele><time>2026-04-12T12:24:13.062Z</time></trkpt><trkpt lat="44.539205" lon="8.0374783"><ele>717.0</ele><time>2026-04-12T12:24:14.063Z</time></trkpt><trkpt lat="44.5392567" lon="8.03735"><ele>719.6</ele><time>2026-04-12T12:24:16.063Z</time></trkpt><trkpt lat="44.5393017" lon="8.0372667"><ele>722.2</ele><time>2026-04-12T12:24:18.063Z</time></trkpt><trkpt lat="44.53934" lon="8.037145"><ele>724.8</ele><time>2026-04-12T12:24:21.062Z</time></trkpt><trkpt lat="44.5393767" lon="8.0370517"><ele>727.4</ele><time>2026-04-12T12:24:23.061Z</time></trkpt><trkpt lat="44.5394217" lon="8.0369267"><ele>730.0</ele><time>2026-04-12T12:24:25.063Z</time></trkpt><trkpt lat="44.5394567" lon="8.036765"><ele>730.0</ele><time>2026-04-12T12:24:27.062Z</time></trkpt><trkpt lat="44.5394667" lon="8.0366733"><ele>730.0</ele><time>2026-04-12T12:24:28.063Z</time></trkpt><trkpt lat="44.539475" lon="8.0365833"><ele>730.0</ele><time>2026-04-12T12:24:29.062Z</time></trkpt><trkpt lat="44.5395067" lon="8.03643"><ele>730.0</ele><time>2026-04-12T12:24:31.061Z</time></trkpt><trkpt lat="44.5395567" lon="8.0363267"><ele>730.0</ele><time>2026-04-12T12:24:33.062Z</time></trkpt><trkpt lat="44.53959" lon="8.0362367"><ele>730.0</ele><time>2026-04-12T12:24:35.061Z</time></trkpt><trkpt lat="44.5396183" lon="8.0361267"><ele>730.4</ele><time>2026-04-12T12:24:37.064Z</time></trkpt><trkpt lat="44.5396533" lon="8.0360017"><ele>730.8</ele><time>2026-04-12T12:24:39.061Z</time></trkpt><trkpt lat="44.5397183" lon="8.0358967"><ele>731.2</ele><time>2026-04-12T12:24:41.062Z</time></trkpt><trkpt lat="44.5398233" lon="8.0358217"><ele>731.6</ele><time>2026-04-12T12:24:43.062Z</time></trkpt><trkpt lat="44.5399283" lon="8.035775"><ele>732.0</ele><time>2026-04-12T12:24:45.065Z</time></trkpt><trkpt lat="44.5400167" lon="8.03575"><ele>732.0</ele><time>2026-04-12T12:24:47.063Z</time></trkpt><trkpt lat="44.540085" lon="8.0357417"><ele>732.0</ele><time>2026-04-12T12:24:49.062Z</time></trkpt><trkpt lat="44.5401633" lon="8.0357517"><ele>732.0</ele><time>2026-04-12T12:24:52.062Z</time></trkpt><trkpt lat="44.5402883" lon="8.03579"><ele>732.0</ele><time>2026-04-12T12:25:11.062Z</time></trkpt><trkpt lat="44.5403683" lon="8.0357767"><ele>732.0</ele><time>2026-04-12T12:25:20.064Z</time></trkpt><trkpt lat="44.5404417" lon="8.0357683"><ele>732.0</ele><time>2026-04-12T12:25:22.064Z</time></trkpt><trkpt lat="44.54053" lon="8.0357533"><ele>727.8</ele><time>2026-04-12T12:25:24.063Z</time></trkpt><trkpt lat="44.5406217" lon="8.03576"><ele>723.6</ele><time>2026-04-12T12:25:26.061Z</time></trkpt><trkpt lat="44.54072" lon="8.035785"><ele>719.4</ele><time>2026-04-12T12:25:28.063Z</time></trkpt><trkpt lat="44.54082" lon="8.0358067"><ele>715.1999999999999</ele><time>2026-04-12T12:25:30.065Z</time></trkpt><trkpt lat="44.5409283" lon="8.0357883"><ele>711.0</ele><time>2026-04-12T12:25:32.063Z</time></trkpt><trkpt lat="44.5410283" lon="8.03573"><ele>711.0</ele><time>2026-04-12T12:25:34.064Z</time></trkpt><trkpt lat="44.5411283" lon="8.0356233"><ele>711.0</ele><time>2026-04-12T12:25:36.064Z</time></trkpt><trkpt lat="44.5411817" lon="8.0355567"><ele>711.0</ele><time>2026-04-12T12:25:37.063Z</time></trkpt><trkpt lat="44.5412317" lon="8.03549"><ele>711.0</ele><time>2026-04-12T12:25:38.064Z</time></trkpt><trkpt lat="44.54128" lon="8.0354167"><ele>711.0</ele><time>2026-04-12T12:25:39.066Z</time></trkpt><trkpt lat="44.5413217" lon="8.035335"><ele>711.0</ele><time>2026-04-12T12:25:40.065Z</time></trkpt><trkpt lat="44.541355" lon="8.03518"><ele>709.1666666666666</ele><time>2026-04-12T12:25:42.063Z</time></trkpt><trkpt lat="44.5413633" lon="8.0350433"><ele>707.3333333333334</ele><time>2026-04-12T12:25:44.063Z</time></trkpt><trkpt lat="44.54138" lon="8.034935"><ele>705.5</ele><time>2026-04-12T12:25:46.063Z</time></trkpt><trkpt lat="44.5414117" lon="8.0348333"><ele>703.6666666666667</ele><time>2026-04-12T12:25:48.063Z</time></trkpt><trkpt lat="44.5414617" lon="8.0347417"><ele>701.8333333333334</ele><time>2026-04-12T12:25:50.066Z</time></trkpt><trkpt lat="44.54152" lon="8.034685"><ele>700.0</ele><time>2026-04-12T12:25:52.065Z</time></trkpt><trkpt lat="44.5415917" lon="8.0346467"><ele>700.0</ele><time>2026-04-12T12:25:54.065Z</time></trkpt><trkpt lat="44.5416567" lon="8.0346083"><ele>700.0</ele><time>2026-04-12T12:25:56.066Z</time></trkpt><trkpt lat="44.54171" lon="8.0345583"><ele>700.0</ele><time>2026-04-12T12:26:04.065Z</time></trkpt><trkpt lat="44.5417483" lon="8.034485"><ele>700.0</ele><time>2026-04-12T12:26:15.066Z</time></trkpt><trkpt lat="44.5417983" lon="8.0344033"><ele>700.0</ele><time>2026-04-12T12:26:18.064Z</time></trkpt><trkpt lat="44.5418383" lon="8.0343267"><ele>700.0</ele><time>2026-04-12T12:26:20.063Z</time></trkpt><trkpt lat="44.5418817" lon="8.03426"><ele>700.0</ele><time>2026-04-12T12:26:22.062Z</time></trkpt><trkpt lat="44.5419367" lon="8.0341633"><ele>702.3333333333334</ele><time>2026-04-12T12:26:25.064Z</time></trkpt><trkpt lat="44.541975" lon="8.0340883"><ele>704.6666666666667</ele><time>2026-04-12T12:26:27.064Z</time></trkpt><trkpt lat="44.5420333" lon="8.0339883"><ele>707.0</ele><time>2026-04-12T12:26:30.062Z</time></trkpt><trkpt lat="44.5420817" lon="8.0338817"><ele>709.3333333333334</ele><time>2026-04-12T12:26:33.065Z</time></trkpt><trkpt lat="44.5421183" lon="8.0337733"><ele>711.6666666666666</ele><time>2026-04-12T12:26:36.063Z</time></trkpt><trkpt lat="44.54215" lon="8.0336917"><ele>714.0</ele><time>2026-04-12T12:26:39.063Z</time></trkpt><trkpt lat="44.54215" lon="8.0335883"><ele>710.6666666666666</ele><time>2026-04-12T12:26:56.064Z</time></trkpt><trkpt lat="44.54215" lon="8.0334733"><ele>707.3333333333334</ele><time>2026-04-12T12:27:00.062Z</time></trkpt><trkpt lat="44.5421483" lon="8.0333583"><ele>704.0</ele><time>2026-04-12T12:27:04.066Z</time></trkpt><trkpt lat="44.54215" lon="8.0332417"><ele>700.6666666666667</ele><time>2026-04-12T12:27:08.063Z</time></trkpt><trkpt lat="44.5421133" lon="8.0333183"><ele>697.3333333333334</ele><time>2026-04-12T12:27:27.066Z</time></trkpt><trkpt lat="44.5421083" lon="8.0334167"><ele>694.0</ele><time>2026-04-12T12:27:29.062Z</time></trkpt><trkpt lat="44.542105" lon="8.0335233"><ele>692.3333333333334</ele><time>2026-04-12T12:27:31.066Z</time></trkpt><trkpt lat="44.5420933" lon="8.03364"><ele>690.6666666666667</ele><time>2026-04-12T12:27:34.062Z</time></trkpt><trkpt lat="44.5420567" lon="8.0337467"><ele>689.0</ele><time>2026-04-12T12:27:37.064Z</time></trkpt><trkpt lat="44.5420133" lon="8.0338383"><ele>687.3333333333334</ele><time>2026-04-12T12:27:40.064Z</time></trkpt><trkpt lat="44.541965" lon="8.0339283"><ele>685.6666666666666</ele><time>2026-04-12T12:27:43.064Z</time></trkpt><trkpt lat="44.54193" lon="8.0340033"><ele>684.0</ele><time>2026-04-12T12:27:46.061Z</time></trkpt><trkpt lat="44.541895" lon="8.0340817"><ele>683.9999999999999</ele><time>2026-04-12T12:27:49.065Z</time></trkpt><trkpt lat="44.5419383" lon="8.0341533"><ele>684.0</ele><time>2026-04-12T12:27:58.063Z</time></trkpt><trkpt lat="44.5420017" lon="8.0341833"><ele>684.0</ele><time>2026-04-12T12:28:04.066Z</time></trkpt><trkpt lat="44.54207" lon="8.0341517"><ele>684.0</ele><time>2026-04-12T12:28:08.063Z</time></trkpt><trkpt lat="44.5421333" lon="8.034135"><ele>684.0</ele><time>2026-04-12T12:28:11.062Z</time></trkpt><trkpt lat="44.5422033" lon="8.034085"><ele>683.9999999999999</ele><time>2026-04-12T12:28:15.064Z</time></trkpt><trkpt lat="44.5422433" lon="8.0339783"><ele>684.0</ele><time>2026-04-12T12:28:19.064Z</time></trkpt><trkpt lat="44.542275" lon="8.033855"><ele>684.0</ele><time>2026-04-12T12:28:22.062Z</time></trkpt><trkpt lat="44.5422983" lon="8.03376"><ele>684.0</ele><time>2026-04-12T12:28:24.064Z</time></trkpt><trkpt lat="44.5423167" lon="8.03365"><ele>684.0</ele><time>2026-04-12T12:28:26.065Z</time></trkpt><trkpt lat="44.542355" lon="8.03354"><ele>684.0</ele><time>2026-04-12T12:28:28.062Z</time></trkpt><trkpt lat="44.5424067" lon="8.0334483"><ele>684.0</ele><time>2026-04-12T12:28:30.063Z</time></trkpt><trkpt lat="44.5424633" lon="8.033365"><ele>684.0</ele><time>2026-04-12T12:28:32.065Z</time></trkpt><trkpt lat="44.542525" lon="8.0332633"><ele>686.0</ele><time>2026-04-12T12:28:34.066Z</time></trkpt><trkpt lat="44.5425733" lon="8.0331717"><ele>688.0</ele><time>2026-04-12T12:28:36.064Z</time></trkpt><trkpt lat="44.54268" lon="8.033035"><ele>690.0</ele><time>2026-04-12T12:28:38.066Z</time></trkpt><trkpt lat="44.54273" lon="8.0329733"><ele>692.0</ele><time>2026-04-12T12:28:39.065Z</time></trkpt><trkpt lat="44.5428167" lon="8.0328717"><ele>694.0</ele><time>2026-04-12T12:28:40.064Z</time></trkpt><trkpt lat="44.542895" lon="8.0327767"><ele>691.2</ele><time>2026-04-12T12:28:42.067Z</time></trkpt><trkpt lat="44.542965" lon="8.0326717"><ele>688.4000000000001</ele><time>2026-04-12T12:28:44.063Z</time></trkpt><trkpt lat="44.5430283" lon="8.0325483"><ele>685.6</ele><time>2026-04-12T12:28:46.063Z</time></trkpt><trkpt lat="44.5431033" lon="8.032405"><ele>682.8</ele><time>2026-04-12T12:28:48.062Z</time></trkpt><trkpt lat="44.5431583" lon="8.0323183"><ele>680.0</ele><time>2026-04-12T12:28:49.064Z</time></trkpt><trkpt lat="44.5432" lon="8.0322383"><ele>680.0</ele><time>2026-04-12T12:28:50.063Z</time></trkpt><trkpt lat="44.5433383" lon="8.0320333"><ele>680.0</ele><time>2026-04-12T12:28:51.065Z</time></trkpt><trkpt lat="44.5434333" lon="8.03189"><ele>680.0</ele><time>2026-04-12T12:28:52.063Z</time></trkpt><trkpt lat="44.543505" lon="8.0317533"><ele>682.1666666666666</ele><time>2026-04-12T12:28:53.061Z</time></trkpt><trkpt lat="44.5435733" lon="8.03163"><ele>684.3333333333333</ele><time>2026-04-12T12:28:54.061Z</time></trkpt><trkpt lat="44.54363" lon="8.0315433"><ele>686.5</ele><time>2026-04-12T12:28:55.063Z</time></trkpt><trkpt lat="44.5436833" lon="8.031465"><ele>688.6666666666666</ele><time>2026-04-12T12:28:56.062Z</time></trkpt><trkpt lat="44.543745" lon="8.031385"><ele>690.8333333333334</ele><time>2026-04-12T12:28:57.064Z</time></trkpt><trkpt lat="44.5438067" lon="8.0313117"><ele>693.0</ele><time>2026-04-12T12:28:58.063Z</time></trkpt><trkpt lat="44.5438783" lon="8.0312417"><ele>690.3333333333334</ele><time>2026-04-12T12:28:59.063Z</time></trkpt><trkpt lat="44.54394" lon="8.0311767"><ele>687.6666666666666</ele><time>2026-04-12T12:29:00.062Z</time></trkpt><trkpt lat="44.5440183" lon="8.0311033"><ele>685.0</ele><time>2026-04-12T12:29:01.062Z</time></trkpt><trkpt lat="44.54409" lon="8.03103"><ele>682.3333333333333</ele><time>2026-04-12T12:29:02.063Z</time></trkpt><trkpt lat="44.5441583" lon="8.0309517"><ele>679.6666666666666</ele><time>2026-04-12T12:29:03.067Z</time></trkpt><trkpt lat="44.5442267" lon="8.0308633"><ele>677.0</ele><time>2026-04-12T12:29:04.064Z</time></trkpt><trkpt lat="44.544295" lon="8.0307667"><ele>677.0</ele><time>2026-04-12T12:29:05.063Z</time></trkpt><trkpt lat="44.5443417" lon="8.03068"><ele>677.0</ele><time>2026-04-12T12:29:06.064Z</time></trkpt><trkpt lat="44.5443917" lon="8.030595"><ele>677.0</ele><time>2026-04-12T12:29:07.063Z</time></trkpt><trkpt lat="44.5444417" lon="8.0305117"><ele>677.0</ele><time>2026-04-12T12:29:08.061Z</time></trkpt><trkpt lat="44.5444933" lon="8.0304283"><ele>677.0</ele><time>2026-04-12T12:29:09.064Z</time></trkpt><trkpt lat="44.54453" lon="8.030345"><ele>677.0</ele><time>2026-04-12T12:29:10.063Z</time></trkpt><trkpt lat="44.5445683" lon="8.0302667"><ele>674.2857142857142</ele><time>2026-04-12T12:29:11.062Z</time></trkpt><trkpt lat="44.5446067" lon="8.03019"><ele>671.5714285714286</ele><time>2026-04-12T12:29:12.064Z</time></trkpt><trkpt lat="44.5446417" lon="8.03011"><ele>668.8571428571429</ele><time>2026-04-12T12:29:13.063Z</time></trkpt><trkpt lat="44.5446817" lon="8.0300317"><ele>666.1428571428571</ele><time>2026-04-12T12:29:14.063Z</time></trkpt><trkpt lat="44.5447267" lon="8.0299617"><ele>663.4285714285714</ele><time>2026-04-12T12:29:15.064Z</time></trkpt><trkpt lat="44.5447767" lon="8.0298917"><ele>660.7142857142857</ele><time>2026-04-12T12:29:16.066Z</time></trkpt><trkpt lat="44.5448333" lon="8.0298217"><ele>658.0</ele><time>2026-04-12T12:29:17.062Z</time></trkpt><trkpt lat="44.544885" lon="8.0297483"><ele>658.0</ele><time>2026-04-12T12:29:18.063Z</time></trkpt><trkpt lat="44.5449283" lon="8.0296683"><ele>658.0</ele><time>2026-04-12T12:29:19.064Z</time></trkpt><trkpt lat="44.5449733" lon="8.0295683"><ele>658.0</ele><time>2026-04-12T12:29:20.063Z</time></trkpt><trkpt lat="44.5450017" lon="8.02948"><ele>658.0</ele><time>2026-04-12T12:29:21.065Z</time></trkpt><trkpt lat="44.5450433" lon="8.029355"><ele>658.0</ele><time>2026-04-12T12:29:23.062Z</time></trkpt><trkpt lat="44.5450833" lon="8.0292717"><ele>658.0</ele><time>2026-04-12T12:29:25.065Z</time></trkpt><trkpt lat="44.5451417" lon="8.02919"><ele>659.4</ele><time>2026-04-12T12:29:27.065Z</time></trkpt><trkpt lat="44.5451983" lon="8.0290833"><ele>660.8</ele><time>2026-04-12T12:29:29.062Z</time></trkpt><trkpt lat="44.54526" lon="8.028995"><ele>662.2</ele><time>2026-04-12T12:29:31.064Z</time></trkpt><trkpt lat="44.5453217" lon="8.0289017"><ele>663.6</ele><time>2026-04-12T12:29:33.065Z</time></trkpt><trkpt lat="44.545395" lon="8.0288067"><ele>665.0</ele><time>2026-04-12T12:29:35.064Z</time></trkpt><trkpt lat="44.5454617" lon="8.0287"><ele>660.6</ele><time>2026-04-12T12:29:37.063Z</time></trkpt><trkpt lat="44.5455033" lon="8.0285717"><ele>656.2</ele><time>2026-04-12T12:29:39.063Z</time></trkpt><trkpt lat="44.5455283" lon="8.0284383"><ele>651.8</ele><time>2026-04-12T12:29:41.063Z</time></trkpt><trkpt lat="44.5455633" lon="8.028305"><ele>647.4</ele><time>2026-04-12T12:29:43.066Z</time></trkpt><trkpt lat="44.5456133" lon="8.028195"><ele>643.0</ele><time>2026-04-12T12:29:45.064Z</time></trkpt><trkpt lat="44.54565" lon="8.0281167"><ele>643.0</ele><time>2026-04-12T12:29:47.062Z</time></trkpt><trkpt lat="44.5457" lon="8.0280467"><ele>643.0</ele><time>2026-04-12T12:29:50.063Z</time></trkpt><trkpt lat="44.5457633" lon="8.02795"><ele>643.0</ele><time>2026-04-12T12:29:53.064Z</time></trkpt><trkpt lat="44.5458283" lon="8.027885"><ele>643.0</ele><time>2026-04-12T12:29:55.065Z</time></trkpt><trkpt lat="44.5459067" lon="8.0278017"><ele>643.0</ele><time>2026-04-12T12:29:57.065Z</time></trkpt><trkpt lat="44.5459917" lon="8.0276833"><ele>643.0</ele><time>2026-04-12T12:29:59.065Z</time></trkpt><trkpt lat="44.5460733" lon="8.0275683"><ele>643.0</ele><time>2026-04-12T12:30:01.064Z</time></trkpt><trkpt lat="44.5461333" lon="8.0274667"><ele>643.0</ele><time>2026-04-12T12:30:03.063Z</time></trkpt><trkpt lat="44.546165" lon="8.0273683"><ele>643.0</ele><time>2026-04-12T12:30:05.066Z</time></trkpt><trkpt lat="44.5461733" lon="8.0272433"><ele>643.0</ele><time>2026-04-12T12:30:07.065Z</time></trkpt><trkpt lat="44.546135" lon="8.0271267"><ele>641.5</ele><time>2026-04-12T12:30:09.065Z</time></trkpt><trkpt lat="44.5460733" lon="8.0270117"><ele>640.0</ele><time>2026-04-12T12:30:11.064Z</time></trkpt><trkpt lat="44.5460083" lon="8.0268883"><ele>638.5</ele><time>2026-04-12T12:30:13.064Z</time></trkpt><trkpt lat="44.5459367" lon="8.0267567"><ele>637.0</ele><time>2026-04-12T12:30:15.064Z</time></trkpt><trkpt lat="44.545865" lon="8.0266183"><ele>636.5</ele><time>2026-04-12T12:30:17.063Z</time></trkpt><trkpt lat="44.5458333" lon="8.0265383"><ele>636.0</ele><time>2026-04-12T12:30:18.065Z</time></trkpt><trkpt lat="44.5457917" lon="8.0264717"><ele>635.5</ele><time>2026-04-12T12:30:19.064Z</time></trkpt><trkpt lat="44.5457217" lon="8.026395"><ele>635.0</ele><time>2026-04-12T12:30:21.064Z</time></trkpt><trkpt lat="44.5456017" lon="8.026315"><ele>634.5</ele><time>2026-04-12T12:31:31.066Z</time></trkpt><trkpt lat="44.5455667" lon="8.02623"><ele>634.0</ele><time>2026-04-12T12:31:40.064Z</time></trkpt><trkpt lat="44.545525" lon="8.0261617"><ele>634.0</ele><time>2026-04-12T12:31:50.064Z</time></trkpt><trkpt lat="44.5454833" lon="8.0260933"><ele>634.0</ele><time>2026-04-12T12:31:58.059Z</time></trkpt><trkpt lat="44.5454867" lon="8.0260017"><ele>634.0</ele><time>2026-04-12T12:32:06.064Z</time></trkpt><trkpt lat="44.5454933" lon="8.0259067"><ele>634.0</ele><time>2026-04-12T12:32:15.063Z</time></trkpt><trkpt lat="44.5455367" lon="8.0258267"><ele>634.0</ele><time>2026-04-12T12:32:25.063Z</time></trkpt><trkpt lat="44.5455583" lon="8.0257417"><ele>634.0</ele><time>2026-04-12T12:32:34.065Z</time></trkpt><trkpt lat="44.5455683" lon="8.0256533"><ele>634.0</ele><time>2026-04-12T12:32:41.063Z</time></trkpt><trkpt lat="44.5455833" lon="8.0255617"><ele>634.0</ele><time>2026-04-12T12:32:50.063Z</time></trkpt><trkpt lat="44.545625" lon="8.025475"><ele>634.0</ele><time>2026-04-12T12:32:55.064Z</time></trkpt><trkpt lat="44.54563" lon="8.0253817"><ele>634.0</ele><time>2026-04-12T12:33:01.066Z</time></trkpt><trkpt lat="44.5456017" lon="8.02529"><ele>634.0</ele><time>2026-04-12T12:33:08.064Z</time></trkpt><trkpt lat="44.5455605" lon="8.0252052"><ele>634.0</ele><time>2026-04-12T12:33:15.066Z</time></trkpt><trkpt lat="44.5455018" lon="8.0251728"><ele>634.0</ele><time>2026-04-12T12:33:57.062Z</time></trkpt><trkpt lat="44.545325" lon="8.0251417"><ele>635.6666666666667</ele><time>2026-04-12T12:34:02.066Z</time></trkpt><trkpt lat="44.5452367" lon="8.0251167"><ele>637.3333333333334</ele><time>2026-04-12T12:34:05.063Z</time></trkpt><trkpt lat="44.5451567" lon="8.02508"><ele>639.0</ele><time>2026-04-12T12:34:08.066Z</time></trkpt><trkpt lat="44.545105" lon="8.0250167"><ele>640.6666666666666</ele><time>2026-04-12T12:34:16.063Z</time></trkpt><trkpt lat="44.5450567" lon="8.0249483"><ele>642.3333333333333</ele><time>2026-04-12T12:34:23.063Z</time></trkpt><trkpt lat="44.5450152" lon="8.0248715"><ele>644.0</ele><time>2026-04-12T12:34:29.114Z</time></trkpt><trkpt lat="44.544987" lon="8.0247763"><ele>644.0</ele><time>2026-04-12T12:34:47.065Z</time></trkpt><trkpt lat="44.5449542" lon="8.0246662"><ele>644.0</ele><time>2026-04-12T12:34:54.064Z</time></trkpt><trkpt lat="44.5449245" lon="8.0245655"><ele>644.0</ele><time>2026-04-12T12:34:57.974Z</time></trkpt><trkpt lat="44.544886" lon="8.0244224"><ele>644.0</ele><time>2026-04-12T12:35:00.819Z</time></trkpt><trkpt lat="44.5448477" lon="8.0243294"><ele>644.0</ele><time>2026-04-12T12:35:03.064Z</time></trkpt><trkpt lat="44.5447849" lon="8.0242384"><ele>644.0</ele><time>2026-04-12T12:35:06.113Z</time></trkpt><trkpt lat="44.5447554" lon="8.0241334"><ele>644.3333333333333</ele><time>2026-04-12T12:35:07.075Z</time></trkpt><trkpt lat="44.5447097" lon="8.0240524"><ele>644.6666666666666</ele><time>2026-04-12T12:35:08.064Z</time></trkpt><trkpt lat="44.5446486" lon="8.0239762"><ele>645.0</ele><time>2026-04-12T12:35:09.82Z</time></trkpt><trkpt lat="44.5445642" lon="8.023898"><ele>645.3333333333334</ele><time>2026-04-12T12:35:12.081Z</time></trkpt><trkpt lat="44.5444948" lon="8.0238233"><ele>645.6666666666667</ele><time>2026-04-12T12:35:14.11Z</time></trkpt><trkpt lat="44.5444217" lon="8.0237535"><ele>646.0</ele><time>2026-04-12T12:35:16.066Z</time></trkpt><trkpt lat="44.5443469" lon="8.0236791"><ele>646.0</ele><time>2026-04-12T12:35:18.066Z</time></trkpt><trkpt lat="44.5442755" lon="8.0236096"><ele>646.0</ele><time>2026-04-12T12:35:20.077Z</time></trkpt><trkpt lat="44.54425" lon="8.0235141"><ele>646.0</ele><time>2026-04-12T12:35:22.106Z</time></trkpt><trkpt lat="44.5441992" lon="8.0234541"><ele>646.0</ele><time>2026-04-12T12:35:24.918Z</time></trkpt><trkpt lat="44.5441333" lon="8.0233733"><ele>646.0</ele><time>2026-04-12T12:35:29.064Z</time></trkpt><trkpt lat="44.5440717" lon="8.0232617"><ele>646.0</ele><time>2026-04-12T12:35:32.065Z</time></trkpt><trkpt lat="44.54401" lon="8.02317"><ele>644.3333333333334</ele><time>2026-04-12T12:35:34.065Z</time></trkpt><trkpt lat="44.5439217" lon="8.0230817"><ele>642.6666666666667</ele><time>2026-04-12T12:35:36.064Z</time></trkpt><trkpt lat="44.54384" lon="8.023005"><ele>641.0</ele><time>2026-04-12T12:35:38.062Z</time></trkpt><trkpt lat="44.5437683" lon="8.0229433"><ele>639.3333333333334</ele><time>2026-04-12T12:35:40.063Z</time></trkpt><trkpt lat="44.543705" lon="8.0228767"><ele>637.6666666666666</ele><time>2026-04-12T12:35:42.064Z</time></trkpt><trkpt lat="44.5436633" lon="8.0227833"><ele>636.0</ele><time>2026-04-12T12:35:44.064Z</time></trkpt><trkpt lat="44.5436283" lon="8.0226733"><ele>636.0</ele><time>2026-04-12T12:35:46.066Z</time></trkpt><trkpt lat="44.5436017" lon="8.0225483"><ele>636.0</ele><time>2026-04-12T12:35:48.063Z</time></trkpt><trkpt lat="44.5435533" lon="8.0224067"><ele>636.0</ele><time>2026-04-12T12:35:50.063Z</time></trkpt><trkpt lat="44.5434833" lon="8.0222633"><ele>636.0</ele><time>2026-04-12T12:35:52.063Z</time></trkpt><trkpt lat="44.5434467" lon="8.0221883"><ele>636.0</ele><time>2026-04-12T12:35:53.067Z</time></trkpt><trkpt lat="44.5434033" lon="8.0221133"><ele>635.5</ele><time>2026-04-12T12:35:54.063Z</time></trkpt><trkpt lat="44.5433617" lon="8.0220383"><ele>635.0</ele><time>2026-04-12T12:35:55.064Z</time></trkpt><trkpt lat="44.543325" lon="8.0219617"><ele>634.5</ele><time>2026-04-12T12:35:56.064Z</time></trkpt><trkpt lat="44.54329" lon="8.0218833"><ele>634.0</ele><time>2026-04-12T12:35:57.064Z</time></trkpt><trkpt lat="44.5432633" lon="8.0218033"><ele>633.5</ele><time>2026-04-12T12:35:58.062Z</time></trkpt><trkpt lat="44.543225" lon="8.0216667"><ele>633.0</ele><time>2026-04-12T12:36:00.066Z</time></trkpt><trkpt lat="44.5431767" lon="8.0215683"><ele>632.0</ele><time>2026-04-12T12:36:29.064Z</time></trkpt><trkpt lat="44.5431233" lon="8.0214967"><ele>631.0</ele><time>2026-04-12T12:36:33.066Z</time></trkpt><trkpt lat="44.5430817" lon="8.0214233"><ele>630.0</ele><time>2026-04-12T12:36:36.066Z</time></trkpt><trkpt lat="44.543045" lon="8.0213383"><ele>629.0</ele><time>2026-04-12T12:36:38.062Z</time></trkpt><trkpt lat="44.5430017" lon="8.0212383"><ele>628.0</ele><time>2026-04-12T12:36:40.062Z</time></trkpt><trkpt lat="44.5429483" lon="8.0211333"><ele>627.0</ele><time>2026-04-12T12:36:42.063Z</time></trkpt><trkpt lat="44.54289" lon="8.0210083"><ele>626.5</ele><time>2026-04-12T12:36:44.066Z</time></trkpt><trkpt lat="44.5428283" lon="8.0208767"><ele>626.0</ele><time>2026-04-12T12:36:46.063Z</time></trkpt><trkpt lat="44.542765" lon="8.02074"><ele>625.5</ele><time>2026-04-12T12:36:48.064Z</time></trkpt><trkpt lat="44.542725" lon="8.0206683"><ele>625.0</ele><time>2026-04-12T12:36:49.064Z</time></trkpt><trkpt lat="44.542685" lon="8.020595"><ele>624.5</ele><time>2026-04-12T12:36:50.062Z</time></trkpt><trkpt lat="44.5426467" lon="8.0205183"><ele>624.0</ele><time>2026-04-12T12:36:51.065Z</time></trkpt><trkpt lat="44.5426133" lon="8.0204367"><ele>624.0</ele><time>2026-04-12T12:36:52.063Z</time></trkpt><trkpt lat="44.5425767" lon="8.0203483"><ele>624.0</ele><time>2026-04-12T12:36:53.063Z</time></trkpt><trkpt lat="44.5425467" lon="8.02026"><ele>624.0</ele><time>2026-04-12T12:36:54.063Z</time></trkpt><trkpt lat="44.5425183" lon="8.0201683"><ele>624.0</ele><time>2026-04-12T12:36:55.065Z</time></trkpt><trkpt lat="44.5424917" lon="8.020075"><ele>624.0</ele><time>2026-04-12T12:36:56.062Z</time></trkpt><trkpt lat="44.5424667" lon="8.0199833"><ele>624.0</ele><time>2026-04-12T12:36:57.062Z</time></trkpt><trkpt lat="44.54244" lon="8.0198933"><ele>624.0</ele><time>2026-04-12T12:36:58.064Z</time></trkpt><trkpt lat="44.5424133" lon="8.0198017"><ele>623.7142857142858</ele><time>2026-04-12T12:36:59.062Z</time></trkpt><trkpt lat="44.542385" lon="8.0197117"><ele>623.4285714285713</ele><time>2026-04-12T12:37:00.064Z</time></trkpt><trkpt lat="44.5423533" lon="8.0196267"><ele>623.1428571428571</ele><time>2026-04-12T12:37:01.062Z</time></trkpt><trkpt lat="44.5423167" lon="8.0195433"><ele>622.8571428571429</ele><time>2026-04-12T12:37:02.062Z</time></trkpt><trkpt lat="44.54228" lon="8.0194617"><ele>622.5714285714287</ele><time>2026-04-12T12:37:03.063Z</time></trkpt><trkpt lat="44.542245" lon="8.0193817"><ele>622.2857142857142</ele><time>2026-04-12T12:37:04.064Z</time></trkpt><trkpt lat="44.542215" lon="8.0193017"><ele>622.0</ele><time>2026-04-12T12:37:05.064Z</time></trkpt><trkpt lat="44.542185" lon="8.01922"><ele>622.1428571428571</ele><time>2026-04-12T12:37:06.064Z</time></trkpt><trkpt lat="44.5421533" lon="8.0191383"><ele>622.2857142857143</ele><time>2026-04-12T12:37:07.063Z</time></trkpt><trkpt lat="44.5421217" lon="8.019055"><ele>622.4285714285714</ele><time>2026-04-12T12:37:08.065Z</time></trkpt><trkpt lat="44.5420867" lon="8.0189733"><ele>622.5714285714286</ele><time>2026-04-12T12:37:09.063Z</time></trkpt><trkpt lat="44.542055" lon="8.018895"><ele>622.7142857142858</ele><time>2026-04-12T12:37:10.062Z</time></trkpt><trkpt lat="44.5420217" lon="8.0188167"><ele>622.8571428571429</ele><time>2026-04-12T12:37:11.062Z</time></trkpt><trkpt lat="44.54199" lon="8.018735"><ele>623.0</ele><time>2026-04-12T12:37:12.062Z</time></trkpt><trkpt lat="44.5419583" lon="8.0186567"><ele>623.0</ele><time>2026-04-12T12:37:13.063Z</time></trkpt><trkpt lat="44.5419183" lon="8.018585"><ele>623.0</ele><time>2026-04-12T12:37:14.065Z</time></trkpt><trkpt lat="44.5418283" lon="8.0184917"><ele>623.0</ele><time>2026-04-12T12:37:16.061Z</time></trkpt><trkpt lat="44.5417683" lon="8.0184517"><ele>623.0</ele><time>2026-04-12T12:37:17.062Z</time></trkpt><trkpt lat="44.5417" lon="8.0184033"><ele>623.0</ele><time>2026-04-12T12:37:18.063Z</time></trkpt><trkpt lat="44.5416317" lon="8.018345"><ele>623.0</ele><time>2026-04-12T12:37:19.066Z</time></trkpt><trkpt lat="44.541575" lon="8.0182717"><ele>621.6666666666666</ele><time>2026-04-12T12:37:20.064Z</time></trkpt><trkpt lat="44.5414917" lon="8.0181417"><ele>620.3333333333333</ele><time>2026-04-12T12:37:22.063Z</time></trkpt><trkpt lat="44.54145" lon="8.0180733"><ele>619.0</ele><time>2026-04-12T12:37:23.062Z</time></trkpt><trkpt lat="44.5414067" lon="8.0180017"><ele>617.6666666666666</ele><time>2026-04-12T12:37:24.063Z</time></trkpt><trkpt lat="44.5413567" lon="8.0179267"><ele>616.3333333333334</ele><time>2026-04-12T12:37:25.062Z</time></trkpt><trkpt lat="44.5413067" lon="8.0178467"><ele>615.0</ele><time>2026-04-12T12:37:26.062Z</time></trkpt><trkpt lat="44.54125" lon="8.0177683"><ele>614.8333333333334</ele><time>2026-04-12T12:37:27.063Z</time></trkpt><trkpt lat="44.54119" lon="8.0176883"><ele>614.6666666666666</ele><time>2026-04-12T12:37:28.064Z</time></trkpt><trkpt lat="44.5411333" lon="8.0175967"><ele>614.5</ele><time>2026-04-12T12:37:29.063Z</time></trkpt><trkpt lat="44.541075" lon="8.0175017"><ele>614.3333333333333</ele><time>2026-04-12T12:37:30.061Z</time></trkpt><trkpt lat="44.5410167" lon="8.0174017"><ele>614.1666666666666</ele><time>2026-04-12T12:37:31.062Z</time></trkpt><trkpt lat="44.5409617" lon="8.0172983"><ele>614.0</ele><time>2026-04-12T12:37:32.067Z</time></trkpt><trkpt lat="44.540905" lon="8.017195"><ele>614.0</ele><time>2026-04-12T12:37:33.064Z</time></trkpt><trkpt lat="44.5408483" lon="8.01709"><ele>614.0</ele><time>2026-04-12T12:37:34.062Z</time></trkpt><trkpt lat="44.54079" lon="8.01698"><ele>614.0</ele><time>2026-04-12T12:37:35.064Z</time></trkpt><trkpt lat="44.540735" lon="8.0168667"><ele>614.0</ele><time>2026-04-12T12:37:36.066Z</time></trkpt><trkpt lat="44.5406783" lon="8.01675"><ele>614.0</ele><time>2026-04-12T12:37:37.061Z</time></trkpt><trkpt lat="44.5406233" lon="8.0166317"><ele>613.6</ele><time>2026-04-12T12:37:38.063Z</time></trkpt><trkpt lat="44.5405717" lon="8.0165167"><ele>613.2</ele><time>2026-04-12T12:37:39.063Z</time></trkpt><trkpt lat="44.5405183" lon="8.0164067"><ele>612.8000000000001</ele><time>2026-04-12T12:37:40.058Z</time></trkpt><trkpt lat="44.5404667" lon="8.0162933"><ele>612.4</ele><time>2026-04-12T12:37:41.062Z</time></trkpt><trkpt lat="44.5404167" lon="8.01618"><ele>612.0</ele><time>2026-04-12T12:37:42.062Z</time></trkpt><trkpt lat="44.54037" lon="8.0160667"><ele>611.0</ele><time>2026-04-12T12:37:43.064Z</time></trkpt><trkpt lat="44.540325" lon="8.0159417"><ele>610.0</ele><time>2026-04-12T12:37:44.064Z</time></trkpt><trkpt lat="44.5402867" lon="8.0158117"><ele>609.0</ele><time>2026-04-12T12:37:45.062Z</time></trkpt><trkpt lat="44.5402467" lon="8.0156883"><ele>608.0</ele><time>2026-04-12T12:37:46.062Z</time></trkpt><trkpt lat="44.5402017" lon="8.015565"><ele>607.0</ele><time>2026-04-12T12:37:47.062Z</time></trkpt><trkpt lat="44.5401583" lon="8.0154433"><ele>607.0</ele><time>2026-04-12T12:37:48.061Z</time></trkpt><trkpt lat="44.5401083" lon="8.01532"><ele>607.0</ele><time>2026-04-12T12:37:49.063Z</time></trkpt><trkpt lat="44.5400583" lon="8.0152033"><ele>607.0</ele><time>2026-04-12T12:37:50.064Z</time></trkpt><trkpt lat="44.5400117" lon="8.0150883"><ele>607.0</ele><time>2026-04-12T12:37:51.063Z</time></trkpt><trkpt lat="44.5399617" lon="8.0149783"><ele>607.0</ele><time>2026-04-12T12:37:52.062Z</time></trkpt><trkpt lat="44.5399117" lon="8.01487"><ele>606.6</ele><time>2026-04-12T12:37:53.062Z</time></trkpt><trkpt lat="44.5398617" lon="8.01476"><ele>606.2</ele><time>2026-04-12T12:37:54.064Z</time></trkpt><trkpt lat="44.5398167" lon="8.0146483"><ele>605.8</ele><time>2026-04-12T12:37:55.063Z</time></trkpt><trkpt lat="44.5397683" lon="8.0145367"><ele>605.4</ele><time>2026-04-12T12:37:56.062Z</time></trkpt><trkpt lat="44.5397217" lon="8.0144267"><ele>605.0</ele><time>2026-04-12T12:37:57.064Z</time></trkpt><trkpt lat="44.5396767" lon="8.014325"><ele>605.0</ele><time>2026-04-12T12:37:58.061Z</time></trkpt><trkpt lat="44.5396333" lon="8.0142317"><ele>605.0</ele><time>2026-04-12T12:37:59.058Z</time></trkpt><trkpt lat="44.5395917" lon="8.014145"><ele>605.0</ele><time>2026-04-12T12:38:00.061Z</time></trkpt><trkpt lat="44.5395567" lon="8.0140617"><ele>605.0</ele><time>2026-04-12T12:38:01.065Z</time></trkpt><trkpt lat="44.5395283" lon="8.0139733"><ele>605.0</ele><time>2026-04-12T12:38:02.063Z</time></trkpt><trkpt lat="44.5395033" lon="8.0138833"><ele>605.0</ele><time>2026-04-12T12:38:03.065Z</time></trkpt><trkpt lat="44.5394733" lon="8.0138017"><ele>605.0</ele><time>2026-04-12T12:38:04.064Z</time></trkpt><trkpt lat="44.5394" lon="8.01367"><ele>605.0</ele><time>2026-04-12T12:38:06.061Z</time></trkpt><trkpt lat="44.5393" lon="8.01357"><ele>605.0</ele><time>2026-04-12T12:38:08.063Z</time></trkpt><trkpt lat="44.539245" lon="8.01352"><ele>605.0</ele><time>2026-04-12T12:38:09.063Z</time></trkpt><trkpt lat="44.5391917" lon="8.0134533"><ele>605.0</ele><time>2026-04-12T12:38:10.06Z</time></trkpt><trkpt lat="44.5391467" lon="8.013375"><ele>605.0</ele><time>2026-04-12T12:38:11.061Z</time></trkpt><trkpt lat="44.53911" lon="8.0132833"><ele>605.0</ele><time>2026-04-12T12:38:12.064Z</time></trkpt><trkpt lat="44.5390783" lon="8.0131833"><ele>605.0</ele><time>2026-04-12T12:38:13.062Z</time></trkpt><trkpt lat="44.5390483" lon="8.01308"><ele>605.0</ele><time>2026-04-12T12:38:14.064Z</time></trkpt><trkpt lat="44.539015" lon="8.0129717"><ele>605.0</ele><time>2026-04-12T12:38:15.064Z</time></trkpt><trkpt lat="44.5389817" lon="8.0128617"><ele>605.0</ele><time>2026-04-12T12:38:16.063Z</time></trkpt><trkpt lat="44.538945" lon="8.0127517"><ele>605.0</ele><time>2026-04-12T12:38:17.062Z</time></trkpt><trkpt lat="44.538915" lon="8.0126433"><ele>605.0</ele><time>2026-04-12T12:38:18.064Z</time></trkpt><trkpt lat="44.5388933" lon="8.01253"><ele>603.8333333333333</ele><time>2026-04-12T12:38:19.064Z</time></trkpt><trkpt lat="44.53888" lon="8.012415"><ele>602.6666666666666</ele><time>2026-04-12T12:38:20.063Z</time></trkpt><trkpt lat="44.5388717" lon="8.0123"><ele>601.5</ele><time>2026-04-12T12:38:21.064Z</time></trkpt><trkpt lat="44.538865" lon="8.0121883"><ele>600.3333333333334</ele><time>2026-04-12T12:38:22.067Z</time></trkpt><trkpt lat="44.5388617" lon="8.0120817"><ele>599.1666666666667</ele><time>2026-04-12T12:38:23.063Z</time></trkpt><trkpt lat="44.5388567" lon="8.0119817"><ele>598.0</ele><time>2026-04-12T12:38:24.065Z</time></trkpt><trkpt lat="44.5388533" lon="8.01189"><ele>598.0</ele><time>2026-04-12T12:38:25.063Z</time></trkpt><trkpt lat="44.53885" lon="8.0118017"><ele>598.0</ele><time>2026-04-12T12:38:26.063Z</time></trkpt><trkpt lat="44.5388383" lon="8.0116417"><ele>598.0</ele><time>2026-04-12T12:38:28.061Z</time></trkpt><trkpt lat="44.5388267" lon="8.0115117"><ele>598.0</ele><time>2026-04-12T12:38:30.065Z</time></trkpt><trkpt lat="44.5388083" lon="8.0113683"><ele>598.0</ele><time>2026-04-12T12:38:32.062Z</time></trkpt><trkpt lat="44.5387867" lon="8.011235"><ele>597.6</ele><time>2026-04-12T12:38:34.062Z</time></trkpt><trkpt lat="44.5387517" lon="8.0111067"><ele>597.1999999999999</ele><time>2026-04-12T12:38:36.063Z</time></trkpt><trkpt lat="44.5387133" lon="8.0109733"><ele>596.8</ele><time>2026-04-12T12:38:38.063Z</time></trkpt><trkpt lat="44.5386717" lon="8.01084"><ele>596.4</ele><time>2026-04-12T12:38:40.063Z</time></trkpt><trkpt lat="44.53863" lon="8.0106983"><ele>596.0</ele><time>2026-04-12T12:38:42.06Z</time></trkpt><trkpt lat="44.5385917" lon="8.0105433"><ele>596.0</ele><time>2026-04-12T12:38:44.063Z</time></trkpt><trkpt lat="44.5385617" lon="8.0104067"><ele>596.0</ele><time>2026-04-12T12:38:46.064Z</time></trkpt><trkpt lat="44.538545" lon="8.0103183"><ele>596.0</ele><time>2026-04-12T12:38:48.063Z</time></trkpt><trkpt lat="44.538525" lon="8.01021"><ele>596.0</ele><time>2026-04-12T12:38:51.063Z</time></trkpt><trkpt lat="44.5384817" lon="8.0101"><ele>596.0</ele><time>2026-04-12T12:38:54.065Z</time></trkpt><trkpt lat="44.538445" lon="8.0100233"><ele>596.0</ele><time>2026-04-12T12:38:56.063Z</time></trkpt><trkpt lat="44.5383967" lon="8.00994"><ele>594.5</ele><time>2026-04-12T12:38:58.061Z</time></trkpt><trkpt lat="44.53834" lon="8.00986"><ele>593.0</ele><time>2026-04-12T12:39:00.064Z</time></trkpt><trkpt lat="44.5382783" lon="8.0097717"><ele>591.5</ele><time>2026-04-12T12:39:02.065Z</time></trkpt><trkpt lat="44.53822" lon="8.0097017"><ele>590.0</ele><time>2026-04-12T12:39:04.062Z</time></trkpt><trkpt lat="44.5381683" lon="8.0096167"><ele>588.5</ele><time>2026-04-12T12:39:06.064Z</time></trkpt><trkpt lat="44.53812" lon="8.009545"><ele>587.0</ele><time>2026-04-12T12:39:08.058Z</time></trkpt><trkpt lat="44.5380883" lon="8.009455"><ele>587.0</ele><time>2026-04-12T12:39:10.065Z</time></trkpt><trkpt lat="44.5380783" lon="8.009325"><ele>587.0</ele><time>2026-04-12T12:39:12.065Z</time></trkpt><trkpt lat="44.5380767" lon="8.0091683"><ele>587.0</ele><time>2026-04-12T12:39:14.062Z</time></trkpt><trkpt lat="44.5380683" lon="8.009015"><ele>587.0</ele><time>2026-04-12T12:39:16.063Z</time></trkpt><trkpt lat="44.53806" lon="8.0088667"><ele>587.0</ele><time>2026-04-12T12:39:18.062Z</time></trkpt><trkpt lat="44.5380533" lon="8.0087167"><ele>585.3333333333333</ele><time>2026-04-12T12:39:20.062Z</time></trkpt><trkpt lat="44.5380483" lon="8.0085583"><ele>583.6666666666666</ele><time>2026-04-12T12:39:22.064Z</time></trkpt><trkpt lat="44.53804" lon="8.0084683"><ele>582.0</ele><time>2026-04-12T12:39:23.061Z</time></trkpt><trkpt lat="44.5380233" lon="8.008375"><ele>580.3333333333334</ele><time>2026-04-12T12:39:24.062Z</time></trkpt><trkpt lat="44.5379967" lon="8.0082817"><ele>578.6666666666667</ele><time>2026-04-12T12:39:25.063Z</time></trkpt><trkpt lat="44.5379667" lon="8.00818"><ele>577.0</ele><time>2026-04-12T12:39:26.063Z</time></trkpt><trkpt lat="44.53793" lon="8.0080733"><ele>575.6</ele><time>2026-04-12T12:39:27.063Z</time></trkpt><trkpt lat="44.5378883" lon="8.007965"><ele>574.2</ele><time>2026-04-12T12:39:28.065Z</time></trkpt><trkpt lat="44.5378467" lon="8.007855"><ele>572.8</ele><time>2026-04-12T12:39:29.061Z</time></trkpt><trkpt lat="44.5378033" lon="8.0077383"><ele>571.4</ele><time>2026-04-12T12:39:30.062Z</time></trkpt><trkpt lat="44.5377617" lon="8.0076217"><ele>570.0</ele><time>2026-04-12T12:39:31.063Z</time></trkpt><trkpt lat="44.5377233" lon="8.0075017"><ele>569.6</ele><time>2026-04-12T12:39:32.061Z</time></trkpt><trkpt lat="44.5376933" lon="8.007375"><ele>569.2</ele><time>2026-04-12T12:39:33.064Z</time></trkpt><trkpt lat="44.5376733" lon="8.0072433"><ele>568.8</ele><time>2026-04-12T12:39:34.061Z</time></trkpt><trkpt lat="44.5376617" lon="8.007105"><ele>568.4</ele><time>2026-04-12T12:39:35.063Z</time></trkpt><trkpt lat="44.5376567" lon="8.0069617"><ele>568.0</ele><time>2026-04-12T12:39:36.063Z</time></trkpt><trkpt lat="44.53765" lon="8.0068133"><ele>568.0</ele><time>2026-04-12T12:39:37.064Z</time></trkpt><trkpt lat="44.53764" lon="8.0066617"><ele>568.0</ele><time>2026-04-12T12:39:38.063Z</time></trkpt><trkpt lat="44.537625" lon="8.00651"><ele>568.0</ele><time>2026-04-12T12:39:39.062Z</time></trkpt><trkpt lat="44.5376067" lon="8.0063567"><ele>568.0</ele><time>2026-04-12T12:39:40.061Z</time></trkpt><trkpt lat="44.53759" lon="8.0062117"><ele>568.0</ele><time>2026-04-12T12:39:41.061Z</time></trkpt><trkpt lat="44.5375767" lon="8.00607"><ele>567.0</ele><time>2026-04-12T12:39:42.061Z</time></trkpt><trkpt lat="44.5375667" lon="8.0059367"><ele>566.0</ele><time>2026-04-12T12:39:43.062Z</time></trkpt><trkpt lat="44.5375517" lon="8.0058067"><ele>565.0</ele><time>2026-04-12T12:39:44.064Z</time></trkpt><trkpt lat="44.5375283" lon="8.0056817"><ele>564.0</ele><time>2026-04-12T12:39:45.062Z</time></trkpt><trkpt lat="44.537495" lon="8.005565"><ele>563.0</ele><time>2026-04-12T12:39:46.062Z</time></trkpt><trkpt lat="44.5374583" lon="8.0054583"><ele>562.6666666666666</ele><time>2026-04-12T12:39:47.064Z</time></trkpt><trkpt lat="44.5374217" lon="8.005365"><ele>562.3333333333333</ele><time>2026-04-12T12:39:48.061Z</time></trkpt><trkpt lat="44.5373833" lon="8.0052933"><ele>562.0</ele><time>2026-04-12T12:39:49.064Z</time></trkpt><trkpt lat="44.5373133" lon="8.005185"><ele>561.6666666666666</ele><time>2026-04-12T12:39:51.059Z</time></trkpt><trkpt lat="44.53724" lon="8.0051167"><ele>561.3333333333334</ele><time>2026-04-12T12:39:53.058Z</time></trkpt><trkpt lat="44.5371567" lon="8.0052133"><ele>561.0</ele><time>2026-04-12T12:39:55.067Z</time></trkpt><trkpt lat="44.5371367" lon="8.0053017"><ele>561.0</ele><time>2026-04-12T12:39:56.065Z</time></trkpt><trkpt lat="44.537135" lon="8.0053933"><ele>561.0</ele><time>2026-04-12T12:39:57.058Z</time></trkpt><trkpt lat="44.537135" lon="8.00549"><ele>561.0</ele><time>2026-04-12T12:39:58.064Z</time></trkpt><trkpt lat="44.5371317" lon="8.0055883"><ele>561.0</ele><time>2026-04-12T12:39:59.065Z</time></trkpt><trkpt lat="44.5371233" lon="8.0056967"><ele>561.0</ele><time>2026-04-12T12:40:00.06Z</time></trkpt><trkpt lat="44.5371167" lon="8.0058033"><ele>561.0</ele><time>2026-04-12T12:40:01.057Z</time></trkpt><trkpt lat="44.53711" lon="8.0059083"><ele>561.0</ele><time>2026-04-12T12:40:02.057Z</time></trkpt><trkpt lat="44.5371017" lon="8.0060167"><ele>561.3333333333334</ele><time>2026-04-12T12:40:03.057Z</time></trkpt><trkpt lat="44.5370967" lon="8.0061233"><ele>561.6666666666666</ele><time>2026-04-12T12:40:04.061Z</time></trkpt><trkpt lat="44.53709" lon="8.0062267"><ele>562.0</ele><time>2026-04-12T12:40:05.061Z</time></trkpt><trkpt lat="44.5370833" lon="8.0063317"><ele>562.3333333333333</ele><time>2026-04-12T12:40:06.061Z</time></trkpt><trkpt lat="44.5370783" lon="8.0064383"><ele>562.6666666666666</ele><time>2026-04-12T12:40:07.063Z</time></trkpt><trkpt lat="44.537075" lon="8.006545"><ele>563.0</ele><time>2026-04-12T12:40:08.063Z</time></trkpt><trkpt lat="44.5370733" lon="8.00665"><ele>563.7142857142857</ele><time>2026-04-12T12:40:09.062Z</time></trkpt><trkpt lat="44.5370767" lon="8.0067533"><ele>564.4285714285714</ele><time>2026-04-12T12:40:10.064Z</time></trkpt><trkpt lat="44.537085" lon="8.006855"><ele>565.1428571428571</ele><time>2026-04-12T12:40:11.06Z</time></trkpt><trkpt lat="44.5370883" lon="8.0069583"><ele>565.8571428571429</ele><time>2026-04-12T12:40:12.062Z</time></trkpt><trkpt lat="44.5370933" lon="8.0070633"><ele>566.5714285714286</ele><time>2026-04-12T12:40:13.061Z</time></trkpt><trkpt lat="44.537095" lon="8.0071667"><ele>567.2857142857142</ele><time>2026-04-12T12:40:14.062Z</time></trkpt><trkpt lat="44.537095" lon="8.007275"><ele>568.0</ele><time>2026-04-12T12:40:15.063Z</time></trkpt><trkpt lat="44.5370917" lon="8.007385"><ele>568.1666666666667</ele><time>2026-04-12T12:40:16.065Z</time></trkpt><trkpt lat="44.5370917" lon="8.0074983"><ele>568.3333333333334</ele><time>2026-04-12T12:40:17.061Z</time></trkpt><trkpt lat="44.537095" lon="8.007615"><ele>568.5</ele><time>2026-04-12T12:40:18.062Z</time></trkpt><trkpt lat="44.5371067" lon="8.0077333"><ele>568.6666666666666</ele><time>2026-04-12T12:40:19.062Z</time></trkpt><trkpt lat="44.5371233" lon="8.0078567"><ele>568.8333333333333</ele><time>2026-04-12T12:40:20.062Z</time></trkpt><trkpt lat="44.537135" lon="8.0079867"><ele>569.0</ele><time>2026-04-12T12:40:21.063Z</time></trkpt><trkpt lat="44.5371433" lon="8.0081183"><ele>569.0</ele><time>2026-04-12T12:40:22.062Z</time></trkpt><trkpt lat="44.53714" lon="8.0082567"><ele>569.0</ele><time>2026-04-12T12:40:23.062Z</time></trkpt><trkpt lat="44.53713" lon="8.0084"><ele>569.0</ele><time>2026-04-12T12:40:24.062Z</time></trkpt><trkpt lat="44.537115" lon="8.0085467"><ele>569.0</ele><time>2026-04-12T12:40:25.064Z</time></trkpt><trkpt lat="44.5370967" lon="8.0086933"><ele>569.0</ele><time>2026-04-12T12:40:26.063Z</time></trkpt><trkpt lat="44.5370767" lon="8.008835"><ele>569.0</ele><time>2026-04-12T12:40:27.062Z</time></trkpt><trkpt lat="44.5370567" lon="8.00898"><ele>569.0</ele><time>2026-04-12T12:40:28.063Z</time></trkpt><trkpt lat="44.5370417" lon="8.00913"><ele>569.0</ele><time>2026-04-12T12:40:29.064Z</time></trkpt><trkpt lat="44.5370317" lon="8.0092867"><ele>569.0</ele><time>2026-04-12T12:40:30.064Z</time></trkpt><trkpt lat="44.53702" lon="8.0094467"><ele>569.0</ele><time>2026-04-12T12:40:31.062Z</time></trkpt><trkpt lat="44.537025" lon="8.009615"><ele>568.5</ele><time>2026-04-12T12:40:32.064Z</time></trkpt><trkpt lat="44.53703" lon="8.0097817"><ele>568.0</ele><time>2026-04-12T12:40:33.069Z</time></trkpt><trkpt lat="44.5370333" lon="8.0099467"><ele>567.5</ele><time>2026-04-12T12:40:34.065Z</time></trkpt><trkpt lat="44.5370383" lon="8.0101033"><ele>567.0</ele><time>2026-04-12T12:40:35.065Z</time></trkpt><trkpt lat="44.537055" lon="8.0102483"><ele>567.0</ele><time>2026-04-12T12:40:36.062Z</time></trkpt><trkpt lat="44.5370717" lon="8.0103933"><ele>567.0</ele><time>2026-04-12T12:40:37.063Z</time></trkpt><trkpt lat="44.5370817" lon="8.0105317"><ele>567.0</ele><time>2026-04-12T12:40:38.061Z</time></trkpt><trkpt lat="44.537075" lon="8.0106633"><ele>567.0</ele><time>2026-04-12T12:40:39.064Z</time></trkpt><trkpt lat="44.537065" lon="8.0107967"><ele>567.0</ele><time>2026-04-12T12:40:40.063Z</time></trkpt><trkpt lat="44.5370517" lon="8.0109183"><ele>560.8333333333334</ele><time>2026-04-12T12:40:41.061Z</time></trkpt><trkpt lat="44.53704" lon="8.0110333"><ele>554.6666666666666</ele><time>2026-04-12T12:40:42.062Z</time></trkpt><trkpt lat="44.5370283" lon="8.0111467"><ele>548.5</ele><time>2026-04-12T12:40:43.064Z</time></trkpt><trkpt lat="44.537" lon="8.0112467"><ele>542.3333333333333</ele><time>2026-04-12T12:40:44.063Z</time></trkpt><trkpt lat="44.5369567" lon="8.011335"><ele>536.1666666666666</ele><time>2026-04-12T12:40:45.062Z</time></trkpt><trkpt lat="44.536885" lon="8.0113983"><ele>530.0</ele><time>2026-04-12T12:40:46.063Z</time></trkpt><trkpt lat="44.536805" lon="8.0114467"><ele>530.0</ele><time>2026-04-12T12:40:47.063Z</time></trkpt><trkpt lat="44.5367367" lon="8.0114867"><ele>530.0</ele><time>2026-04-12T12:40:48.062Z</time></trkpt><trkpt lat="44.5366783" lon="8.0115217"><ele>530.0</ele><time>2026-04-12T12:40:49.063Z</time></trkpt><trkpt lat="44.5365917" lon="8.0115683"><ele>530.0</ele><time>2026-04-12T12:40:51.062Z</time></trkpt><trkpt lat="44.5365517" lon="8.01169"><ele>530.0</ele><time>2026-04-12T12:40:54.063Z</time></trkpt><trkpt lat="44.5365867" lon="8.011795"><ele>530.0</ele><time>2026-04-12T12:40:56.062Z</time></trkpt><trkpt lat="44.53665" lon="8.0119233"><ele>529.2857142857142</ele><time>2026-04-12T12:40:58.064Z</time></trkpt><trkpt lat="44.5366833" lon="8.0119983"><ele>528.5714285714286</ele><time>2026-04-12T12:40:59.062Z</time></trkpt><trkpt lat="44.536715" lon="8.012075"><ele>527.8571428571429</ele><time>2026-04-12T12:41:00.064Z</time></trkpt><trkpt lat="44.53675" lon="8.0121517"><ele>527.1428571428571</ele><time>2026-04-12T12:41:01.065Z</time></trkpt><trkpt lat="44.53679" lon="8.012225"><ele>526.4285714285714</ele><time>2026-04-12T12:41:02.061Z</time></trkpt><trkpt lat="44.5368317" lon="8.0123017"><ele>525.7142857142857</ele><time>2026-04-12T12:41:03.063Z</time></trkpt><trkpt lat="44.53687" lon="8.0123783"><ele>525.0</ele><time>2026-04-12T12:41:04.062Z</time></trkpt><trkpt lat="44.53691" lon="8.012455"><ele>524.4285714285714</ele><time>2026-04-12T12:41:05.063Z</time></trkpt><trkpt lat="44.5369467" lon="8.0125333"><ele>523.8571428571429</ele><time>2026-04-12T12:41:06.062Z</time></trkpt><trkpt lat="44.5369817" lon="8.012615"><ele>523.2857142857142</ele><time>2026-04-12T12:41:07.062Z</time></trkpt><trkpt lat="44.537015" lon="8.0127"><ele>522.7142857142858</ele><time>2026-04-12T12:41:08.064Z</time></trkpt><trkpt lat="44.5370433" lon="8.01279"><ele>522.1428571428571</ele><time>2026-04-12T12:41:09.062Z</time></trkpt><trkpt lat="44.5370667" lon="8.012885"><ele>521.5714285714286</ele><time>2026-04-12T12:41:10.062Z</time></trkpt><trkpt lat="44.5370783" lon="8.0129833"><ele>521.0</ele><time>2026-04-12T12:41:11.062Z</time></trkpt><trkpt lat="44.5370783" lon="8.0130817"><ele>520.4285714285714</ele><time>2026-04-12T12:41:12.061Z</time></trkpt><trkpt lat="44.5370717" lon="8.01318"><ele>519.8571428571429</ele><time>2026-04-12T12:41:13.064Z</time></trkpt><trkpt lat="44.5370583" lon="8.0132783"><ele>519.2857142857143</ele><time>2026-04-12T12:41:14.062Z</time></trkpt><trkpt lat="44.5370367" lon="8.0133733"><ele>518.7142857142858</ele><time>2026-04-12T12:41:15.063Z</time></trkpt><trkpt lat="44.5370133" lon="8.0134667"><ele>518.1428571428572</ele><time>2026-04-12T12:41:16.064Z</time></trkpt><trkpt lat="44.5369867" lon="8.013565"><ele>517.5714285714286</ele><time>2026-04-12T12:41:17.062Z</time></trkpt><trkpt lat="44.5369567" lon="8.0136583"><ele>517.0</ele><time>2026-04-12T12:41:18.063Z</time></trkpt><trkpt lat="44.53693" lon="8.013745"><ele>517.0</ele><time>2026-04-12T12:41:19.062Z</time></trkpt><trkpt lat="44.536905" lon="8.0138367"><ele>517.0</ele><time>2026-04-12T12:41:20.062Z</time></trkpt><trkpt lat="44.5368767" lon="8.01393"><ele>517.0</ele><time>2026-04-12T12:41:21.064Z</time></trkpt><trkpt lat="44.536845" lon="8.014025"><ele>517.0</ele><time>2026-04-12T12:41:22.065Z</time></trkpt><trkpt lat="44.53681" lon="8.0141133"><ele>517.0</ele><time>2026-04-12T12:41:23.062Z</time></trkpt><trkpt lat="44.53677" lon="8.0141933"><ele>517.0</ele><time>2026-04-12T12:41:24.062Z</time></trkpt><trkpt lat="44.5367217" lon="8.0142667"><ele>517.0</ele><time>2026-04-12T12:41:25.063Z</time></trkpt><trkpt lat="44.5366617" lon="8.0143167"><ele>517.1428571428571</ele><time>2026-04-12T12:41:26.062Z</time></trkpt><trkpt lat="44.5365883" lon="8.0143517"><ele>517.2857142857143</ele><time>2026-04-12T12:41:27.064Z</time></trkpt><trkpt lat="44.5365167" lon="8.0143617"><ele>517.4285714285714</ele><time>2026-04-12T12:41:28.063Z</time></trkpt><trkpt lat="44.5364433" lon="8.0143533"><ele>517.5714285714286</ele><time>2026-04-12T12:41:29.061Z</time></trkpt><trkpt lat="44.53637" lon="8.014335"><ele>517.7142857142858</ele><time>2026-04-12T12:41:30.063Z</time></trkpt><trkpt lat="44.5363" lon="8.0143133"><ele>517.8571428571429</ele><time>2026-04-12T12:41:31.061Z</time></trkpt><trkpt lat="44.5362317" lon="8.0142883"><ele>518.0</ele><time>2026-04-12T12:41:32.061Z</time></trkpt><trkpt lat="44.536165" lon="8.014265"><ele>518.4</ele><time>2026-04-12T12:41:33.061Z</time></trkpt><trkpt lat="44.5361033" lon="8.0142433"><ele>518.8</ele><time>2026-04-12T12:41:34.062Z</time></trkpt><trkpt lat="44.5359967" lon="8.0141867"><ele>519.2</ele><time>2026-04-12T12:41:36.062Z</time></trkpt><trkpt lat="44.53591" lon="8.0140983"><ele>519.6</ele><time>2026-04-12T12:41:38.062Z</time></trkpt><trkpt lat="44.5358417" lon="8.0139867"><ele>520.0</ele><time>2026-04-12T12:41:40.063Z</time></trkpt><trkpt lat="44.53579" lon="8.0138567"><ele>518.6</ele><time>2026-04-12T12:41:42.062Z</time></trkpt><trkpt lat="44.5357333" lon="8.0137333"><ele>517.2</ele><time>2026-04-12T12:41:44.063Z</time></trkpt><trkpt lat="44.53567" lon="8.0136333"><ele>515.8</ele><time>2026-04-12T12:41:46.063Z</time></trkpt><trkpt lat="44.5355933" lon="8.0135533"><ele>514.4</ele><time>2026-04-12T12:41:48.064Z</time></trkpt><trkpt lat="44.5355033" lon="8.0134983"><ele>513.0</ele><time>2026-04-12T12:41:50.063Z</time></trkpt><trkpt lat="44.53541" lon="8.0134483"><ele>512.6</ele><time>2026-04-12T12:41:52.062Z</time></trkpt><trkpt lat="44.5353167" lon="8.0134117"><ele>512.1999999999999</ele><time>2026-04-12T12:41:54.063Z</time></trkpt><trkpt lat="44.5352267" lon="8.0133767"><ele>511.8</ele><time>2026-04-12T12:41:56.062Z</time></trkpt><trkpt lat="44.53514" lon="8.0133383"><ele>511.4</ele><time>2026-04-12T12:41:58.063Z</time></trkpt><trkpt lat="44.535055" lon="8.0133"><ele>511.0</ele><time>2026-04-12T12:42:00.065Z</time></trkpt><trkpt lat="44.5349683" lon="8.01326"><ele>511.00000000000006</ele><time>2026-04-12T12:42:02.065Z</time></trkpt><trkpt lat="44.53489" lon="8.0132333"><ele>511.0</ele><time>2026-04-12T12:42:04.063Z</time></trkpt><trkpt lat="44.5348133" lon="8.0132067"><ele>511.0</ele><time>2026-04-12T12:42:06.065Z</time></trkpt><trkpt lat="44.534735" lon="8.013185"><ele>511.0</ele><time>2026-04-12T12:42:08.063Z</time></trkpt><trkpt lat="44.53466" lon="8.0131717"><ele>511.00000000000006</ele><time>2026-04-12T12:42:10.064Z</time></trkpt><trkpt lat="44.5345883" lon="8.0131567"><ele>511.0</ele><time>2026-04-12T12:42:12.066Z</time></trkpt><trkpt lat="44.53451" lon="8.0131417"><ele>512.8333333333334</ele><time>2026-04-12T12:42:14.064Z</time></trkpt><trkpt lat="44.53443" lon="8.013135"><ele>514.6666666666667</ele><time>2026-04-12T12:42:16.064Z</time></trkpt><trkpt lat="44.534355" lon="8.013125"><ele>516.5</ele><time>2026-04-12T12:42:18.062Z</time></trkpt><trkpt lat="44.534275" lon="8.0131133"><ele>518.3333333333334</ele><time>2026-04-12T12:42:20.064Z</time></trkpt><trkpt lat="44.534195" lon="8.013095"><ele>520.1666666666666</ele><time>2026-04-12T12:42:22.062Z</time></trkpt><trkpt lat="44.534115" lon="8.0130783"><ele>522.0</ele><time>2026-04-12T12:42:24.062Z</time></trkpt><trkpt lat="44.5340267" lon="8.01307"><ele>522.0</ele><time>2026-04-12T12:42:26.062Z</time></trkpt><trkpt lat="44.5339417" lon="8.0130683"><ele>522.0</ele><time>2026-04-12T12:42:28.062Z</time></trkpt><trkpt lat="44.5338633" lon="8.01306"><ele>522.0</ele><time>2026-04-12T12:42:30.064Z</time></trkpt><trkpt lat="44.5337817" lon="8.013055"><ele>522.0</ele><time>2026-04-12T12:42:32.061Z</time></trkpt><trkpt lat="44.5337017" lon="8.0130533"><ele>522.0</ele><time>2026-04-12T12:42:34.064Z</time></trkpt><trkpt lat="44.5336167" lon="8.0130467"><ele>522.0</ele><time>2026-04-12T12:42:36.062Z</time></trkpt><trkpt lat="44.5335333" lon="8.0130283"><ele>522.6666666666666</ele><time>2026-04-12T12:42:38.064Z</time></trkpt><trkpt lat="44.5334483" lon="8.01301"><ele>523.3333333333334</ele><time>2026-04-12T12:42:40.064Z</time></trkpt><trkpt lat="44.533365" lon="8.0129833"><ele>524.0</ele><time>2026-04-12T12:42:42.062Z</time></trkpt><trkpt lat="44.5332767" lon="8.012955"><ele>524.6666666666667</ele><time>2026-04-12T12:42:44.062Z</time></trkpt><trkpt lat="44.53319" lon="8.0129333"><ele>525.3333333333334</ele><time>2026-04-12T12:42:46.062Z</time></trkpt><trkpt lat="44.5331067" lon="8.01291"><ele>526.0</ele><time>2026-04-12T12:42:48.062Z</time></trkpt><trkpt lat="44.533025" lon="8.01289"><ele>526.0</ele><time>2026-04-12T12:42:50.061Z</time></trkpt><trkpt lat="44.532945" lon="8.0128783"><ele>526.0</ele><time>2026-04-12T12:42:52.063Z</time></trkpt><trkpt lat="44.5328683" lon="8.0128667"><ele>526.0</ele><time>2026-04-12T12:42:54.065Z</time></trkpt><trkpt lat="44.5327883" lon="8.01286"><ele>526.0</ele><time>2026-04-12T12:42:56.062Z</time></trkpt><trkpt lat="44.532705" lon="8.0128667"><ele>526.0</ele><time>2026-04-12T12:42:58.062Z</time></trkpt><trkpt lat="44.5326183" lon="8.0128767"><ele>526.0</ele><time>2026-04-12T12:43:00.06Z</time></trkpt><trkpt lat="44.5325333" lon="8.0128833"><ele>527.6666666666667</ele><time>2026-04-12T12:43:02.063Z</time></trkpt><trkpt lat="44.532445" lon="8.0128867"><ele>529.3333333333334</ele><time>2026-04-12T12:43:04.062Z</time></trkpt><trkpt lat="44.5323617" lon="8.0128767"><ele>531.0</ele><time>2026-04-12T12:43:06.062Z</time></trkpt><trkpt lat="44.5322867" lon="8.01284"><ele>532.6666666666666</ele><time>2026-04-12T12:43:08.064Z</time></trkpt><trkpt lat="44.5322167" lon="8.0127883"><ele>534.3333333333333</ele><time>2026-04-12T12:43:10.065Z</time></trkpt><trkpt lat="44.53214" lon="8.0127417"><ele>536.0</ele><time>2026-04-12T12:43:12.062Z</time></trkpt><trkpt lat="44.53207" lon="8.0126967"><ele>537.3333333333333</ele><time>2026-04-12T12:43:14.062Z</time></trkpt><trkpt lat="44.5320033" lon="8.012645"><ele>538.6666666666666</ele><time>2026-04-12T12:43:16.064Z</time></trkpt><trkpt lat="44.5319417" lon="8.0125867"><ele>540.0</ele><time>2026-04-12T12:43:18.062Z</time></trkpt><trkpt lat="44.53188" lon="8.01252"><ele>541.3333333333334</ele><time>2026-04-12T12:43:20.063Z</time></trkpt><trkpt lat="44.53183" lon="8.01244"><ele>542.6666666666667</ele><time>2026-04-12T12:43:22.063Z</time></trkpt><trkpt lat="44.5317833" lon="8.0123567"><ele>544.0</ele><time>2026-04-12T12:43:24.064Z</time></trkpt><trkpt lat="44.5317433" lon="8.0122733"><ele>543.9999999999999</ele><time>2026-04-12T12:43:26.062Z</time></trkpt><trkpt lat="44.5317183" lon="8.012185"><ele>544.0</ele><time>2026-04-12T12:43:28.063Z</time></trkpt><trkpt lat="44.5316983" lon="8.0120967"><ele>544.0</ele><time>2026-04-12T12:43:30.064Z</time></trkpt><trkpt lat="44.5316733" lon="8.0120033"><ele>544.0</ele><time>2026-04-12T12:43:32.062Z</time></trkpt><trkpt lat="44.5316583" lon="8.0119083"><ele>544.0</ele><time>2026-04-12T12:43:34.062Z</time></trkpt><trkpt lat="44.5316417" lon="8.01181"><ele>543.9999999999999</ele><time>2026-04-12T12:43:36.061Z</time></trkpt><trkpt lat="44.5316233" lon="8.011715"><ele>544.0</ele><time>2026-04-12T12:43:38.064Z</time></trkpt><trkpt lat="44.531605" lon="8.01162"><ele>543.5</ele><time>2026-04-12T12:43:40.063Z</time></trkpt><trkpt lat="44.5315733" lon="8.0115183"><ele>543.0</ele><time>2026-04-12T12:43:42.063Z</time></trkpt><trkpt lat="44.5315383" lon="8.0114083"><ele>542.5</ele><time>2026-04-12T12:43:44.064Z</time></trkpt><trkpt lat="44.5315033" lon="8.011295"><ele>542.0</ele><time>2026-04-12T12:43:46.062Z</time></trkpt><trkpt lat="44.5314667" lon="8.0111733"><ele>541.5</ele><time>2026-04-12T12:43:48.065Z</time></trkpt><trkpt lat="44.5314283" lon="8.0110467"><ele>541.0</ele><time>2026-04-12T12:43:50.063Z</time></trkpt><trkpt lat="44.5313917" lon="8.0109083"><ele>539.75</ele><time>2026-04-12T12:43:52.063Z</time></trkpt><trkpt lat="44.5313517" lon="8.0107683"><ele>538.5</ele><time>2026-04-12T12:43:54.062Z</time></trkpt><trkpt lat="44.53132" lon="8.01062"><ele>537.25</ele><time>2026-04-12T12:43:56.063Z</time></trkpt><trkpt lat="44.5313017" lon="8.0104533"><ele>536.0</ele><time>2026-04-12T12:43:58.062Z</time></trkpt><trkpt lat="44.53129" lon="8.0102817"><ele>536.0</ele><time>2026-04-12T12:44:00.062Z</time></trkpt><trkpt lat="44.5312817" lon="8.0101933"><ele>536.0</ele><time>2026-04-12T12:44:01.063Z</time></trkpt><trkpt lat="44.5312717" lon="8.010105"><ele>536.0</ele><time>2026-04-12T12:44:02.063Z</time></trkpt><trkpt lat="44.5312567" lon="8.010015"><ele>536.0</ele><time>2026-04-12T12:44:03.063Z</time></trkpt><trkpt lat="44.5312433" lon="8.009925"><ele>536.0</ele><time>2026-04-12T12:44:04.062Z</time></trkpt><trkpt lat="44.5312283" lon="8.0098367"><ele>536.0</ele><time>2026-04-12T12:44:05.063Z</time></trkpt><trkpt lat="44.5312067" lon="8.00975"><ele>536.0</ele><time>2026-04-12T12:44:06.065Z</time></trkpt><trkpt lat="44.53118" lon="8.009665"><ele>536.7142857142858</ele><time>2026-04-12T12:44:07.064Z</time></trkpt><trkpt lat="44.5311483" lon="8.00958"><ele>537.4285714285714</ele><time>2026-04-12T12:44:08.065Z</time></trkpt><trkpt lat="44.5311167" lon="8.009495"><ele>538.1428571428571</ele><time>2026-04-12T12:44:09.063Z</time></trkpt><trkpt lat="44.5310783" lon="8.0094117"><ele>538.8571428571429</ele><time>2026-04-12T12:44:10.062Z</time></trkpt><trkpt lat="44.5310367" lon="8.0093283"><ele>539.5714285714286</ele><time>2026-04-12T12:44:11.062Z</time></trkpt><trkpt lat="44.530995" lon="8.0092367"><ele>540.2857142857143</ele><time>2026-04-12T12:44:12.062Z</time></trkpt><trkpt lat="44.5309533" lon="8.0091433"><ele>541.0</ele><time>2026-04-12T12:44:13.064Z</time></trkpt><trkpt lat="44.53091" lon="8.0090517"><ele>541.0</ele><time>2026-04-12T12:44:14.064Z</time></trkpt><trkpt lat="44.530875" lon="8.0089517"><ele>541.0</ele><time>2026-04-12T12:44:15.066Z</time></trkpt><trkpt lat="44.5308433" lon="8.008845"><ele>541.0</ele><time>2026-04-12T12:44:16.063Z</time></trkpt><trkpt lat="44.5308267" lon="8.0087367"><ele>541.0</ele><time>2026-04-12T12:44:17.062Z</time></trkpt><trkpt lat="44.53081" lon="8.0086283"><ele>541.0</ele><time>2026-04-12T12:44:18.061Z</time></trkpt><trkpt lat="44.53079" lon="8.00852"><ele>541.0</ele><time>2026-04-12T12:44:19.065Z</time></trkpt><trkpt lat="44.53077" lon="8.0084117"><ele>539.6666666666667</ele><time>2026-04-12T12:44:20.063Z</time></trkpt><trkpt lat="44.53075" lon="8.0083067"><ele>538.3333333333334</ele><time>2026-04-12T12:44:21.062Z</time></trkpt><trkpt lat="44.530725" lon="8.0082017"><ele>537.0</ele><time>2026-04-12T12:44:22.063Z</time></trkpt><trkpt lat="44.530695" lon="8.008095"><ele>535.6666666666666</ele><time>2026-04-12T12:44:23.061Z</time></trkpt><trkpt lat="44.530665" lon="8.00799"><ele>534.3333333333333</ele><time>2026-04-12T12:44:24.063Z</time></trkpt><trkpt lat="44.53063" lon="8.0078917"><ele>533.0</ele><time>2026-04-12T12:44:25.063Z</time></trkpt><trkpt lat="44.5305933" lon="8.0078017"><ele>533.0</ele><time>2026-04-12T12:44:26.062Z</time></trkpt><trkpt lat="44.5305567" lon="8.0077183"><ele>533.0</ele><time>2026-04-12T12:44:27.065Z</time></trkpt><trkpt lat="44.53052" lon="8.00764"><ele>533.0</ele><time>2026-04-12T12:44:28.063Z</time></trkpt><trkpt lat="44.53048" lon="8.0075633"><ele>533.0</ele><time>2026-04-12T12:44:29.062Z</time></trkpt><trkpt lat="44.53044" lon="8.0074883"><ele>533.0</ele><time>2026-04-12T12:44:30.062Z</time></trkpt><trkpt lat="44.5303983" lon="8.0074183"><ele>533.0</ele><time>2026-04-12T12:44:31.064Z</time></trkpt><trkpt lat="44.5303567" lon="8.0073467"><ele>533.0</ele><time>2026-04-12T12:44:32.062Z</time></trkpt><trkpt lat="44.5303117" lon="8.0072733"><ele>533.4285714285714</ele><time>2026-04-12T12:44:33.065Z</time></trkpt><trkpt lat="44.5302667" lon="8.007205"><ele>533.8571428571428</ele><time>2026-04-12T12:44:34.062Z</time></trkpt><trkpt lat="44.530225" lon="8.0071333"><ele>534.2857142857142</ele><time>2026-04-12T12:44:35.062Z</time></trkpt><trkpt lat="44.530185" lon="8.0070617"><ele>534.7142857142857</ele><time>2026-04-12T12:44:36.061Z</time></trkpt><trkpt lat="44.530145" lon="8.0069917"><ele>535.1428571428571</ele><time>2026-04-12T12:44:37.064Z</time></trkpt><trkpt lat="44.5300983" lon="8.0069233"><ele>535.5714285714286</ele><time>2026-04-12T12:44:38.063Z</time></trkpt><trkpt lat="44.5300467" lon="8.0068533"><ele>536.0</ele><time>2026-04-12T12:44:39.062Z</time></trkpt><trkpt lat="44.5299933" lon="8.0067817"><ele>536.0</ele><time>2026-04-12T12:44:40.063Z</time></trkpt><trkpt lat="44.52994" lon="8.0067067"><ele>536.0</ele><time>2026-04-12T12:44:41.063Z</time></trkpt><trkpt lat="44.5298833" lon="8.00664"><ele>536.0</ele><time>2026-04-12T12:44:42.062Z</time></trkpt><trkpt lat="44.5298267" lon="8.0065817"><ele>536.0</ele><time>2026-04-12T12:44:43.062Z</time></trkpt><trkpt lat="44.52976" lon="8.006535"><ele>536.0</ele><time>2026-04-12T12:44:44.063Z</time></trkpt><trkpt lat="44.5296917" lon="8.0065017"><ele>536.0</ele><time>2026-04-12T12:44:45.064Z</time></trkpt><trkpt lat="44.5296233" lon="8.00648"><ele>536.0</ele><time>2026-04-12T12:44:46.063Z</time></trkpt><trkpt lat="44.529555" lon="8.0064767"><ele>535.7142857142858</ele><time>2026-04-12T12:44:47.062Z</time></trkpt><trkpt lat="44.5294883" lon="8.0064767"><ele>535.4285714285714</ele><time>2026-04-12T12:44:48.063Z</time></trkpt><trkpt lat="44.5294233" lon="8.0064783"><ele>535.1428571428571</ele><time>2026-04-12T12:44:49.064Z</time></trkpt><trkpt lat="44.5293583" lon="8.006485"><ele>534.8571428571429</ele><time>2026-04-12T12:44:50.063Z</time></trkpt><trkpt lat="44.5292917" lon="8.0064833"><ele>534.5714285714286</ele><time>2026-04-12T12:44:51.063Z</time></trkpt><trkpt lat="44.529225" lon="8.00646"><ele>534.2857142857143</ele><time>2026-04-12T12:44:52.061Z</time></trkpt><trkpt lat="44.5291583" lon="8.006425"><ele>534.0</ele><time>2026-04-12T12:44:53.062Z</time></trkpt><trkpt lat="44.5291" lon="8.006375"><ele>534.0000000000001</ele><time>2026-04-12T12:44:54.062Z</time></trkpt><trkpt lat="44.5290483" lon="8.0063133"><ele>534.0</ele><time>2026-04-12T12:44:55.064Z</time></trkpt><trkpt lat="44.5290033" lon="8.0062433"><ele>534.0</ele><time>2026-04-12T12:44:56.062Z</time></trkpt><trkpt lat="44.5289617" lon="8.006175"><ele>534.0</ele><time>2026-04-12T12:44:57.063Z</time></trkpt><trkpt lat="44.52892" lon="8.006105"><ele>534.0</ele><time>2026-04-12T12:44:58.062Z</time></trkpt><trkpt lat="44.5288783" lon="8.0060367"><ele>534.0000000000001</ele><time>2026-04-12T12:44:59.062Z</time></trkpt><trkpt lat="44.5288317" lon="8.0059733"><ele>534.0</ele><time>2026-04-12T12:45:00.063Z</time></trkpt><trkpt lat="44.5287433" lon="8.0058483"><ele>535.0</ele><time>2026-04-12T12:45:02.063Z</time></trkpt><trkpt lat="44.5286983" lon="8.0057833"><ele>536.0</ele><time>2026-04-12T12:45:03.066Z</time></trkpt><trkpt lat="44.528655" lon="8.0057167"><ele>537.0</ele><time>2026-04-12T12:45:04.063Z</time></trkpt><trkpt lat="44.5285667" lon="8.0055917"><ele>538.0</ele><time>2026-04-12T12:45:06.063Z</time></trkpt><trkpt lat="44.5285233" lon="8.0055267"><ele>539.0</ele><time>2026-04-12T12:45:07.066Z</time></trkpt><trkpt lat="44.5284367" lon="8.005405"><ele>540.0</ele><time>2026-04-12T12:45:09.065Z</time></trkpt><trkpt lat="44.5283533" lon="8.0052883"><ele>540.0</ele><time>2026-04-12T12:45:11.062Z</time></trkpt><trkpt lat="44.5282783" lon="8.0051783"><ele>540.0</ele><time>2026-04-12T12:45:13.063Z</time></trkpt><trkpt lat="44.5282033" lon="8.0050833"><ele>540.0</ele><time>2026-04-12T12:45:15.064Z</time></trkpt><trkpt lat="44.5281267" lon="8.0050067"><ele>540.0</ele><time>2026-04-12T12:45:17.063Z</time></trkpt><trkpt lat="44.528055" lon="8.0049283"><ele>540.0</ele><time>2026-04-12T12:45:19.065Z</time></trkpt><trkpt lat="44.5279917" lon="8.004865"><ele>539.1428571428571</ele><time>2026-04-12T12:45:21.065Z</time></trkpt><trkpt lat="44.5279233" lon="8.0048067"><ele>538.2857142857142</ele><time>2026-04-12T12:45:23.062Z</time></trkpt><trkpt lat="44.5278567" lon="8.0047533"><ele>537.4285714285714</ele><time>2026-04-12T12:45:25.063Z</time></trkpt><trkpt lat="44.5277967" lon="8.0046967"><ele>536.5714285714286</ele><time>2026-04-12T12:45:27.062Z</time></trkpt><trkpt lat="44.52774" lon="8.004635"><ele>535.7142857142858</ele><time>2026-04-12T12:45:29.063Z</time></trkpt><trkpt lat="44.527685" lon="8.0045683"><ele>534.8571428571429</ele><time>2026-04-12T12:45:31.063Z</time></trkpt><trkpt lat="44.5276283" lon="8.0045017"><ele>534.0</ele><time>2026-04-12T12:45:33.065Z</time></trkpt><trkpt lat="44.52757" lon="8.0044333"><ele>534.7142857142858</ele><time>2026-04-12T12:45:35.063Z</time></trkpt><trkpt lat="44.5275117" lon="8.00437"><ele>535.4285714285714</ele><time>2026-04-12T12:45:37.061Z</time></trkpt><trkpt lat="44.5274567" lon="8.004305"><ele>536.1428571428571</ele><time>2026-04-12T12:45:39.063Z</time></trkpt><trkpt lat="44.5274017" lon="8.00424"><ele>536.8571428571429</ele><time>2026-04-12T12:45:41.062Z</time></trkpt><trkpt lat="44.527345" lon="8.004175"><ele>537.5714285714286</ele><time>2026-04-12T12:45:43.063Z</time></trkpt><trkpt lat="44.5272933" lon="8.0041083"><ele>538.2857142857143</ele><time>2026-04-12T12:45:45.065Z</time></trkpt><trkpt lat="44.5272417" lon="8.0040383"><ele>539.0</ele><time>2026-04-12T12:45:47.064Z</time></trkpt><trkpt lat="44.5271833" lon="8.0039767"><ele>539.0</ele><time>2026-04-12T12:45:49.063Z</time></trkpt><trkpt lat="44.52712" lon="8.0039133"><ele>539.0</ele><time>2026-04-12T12:45:51.062Z</time></trkpt><trkpt lat="44.5270583" lon="8.003855"><ele>539.0</ele><time>2026-04-12T12:45:53.063Z</time></trkpt><trkpt lat="44.5269967" lon="8.0037917"><ele>539.0</ele><time>2026-04-12T12:45:55.062Z</time></trkpt><trkpt lat="44.52693" lon="8.0037283"><ele>539.0</ele><time>2026-04-12T12:45:57.062Z</time></trkpt><trkpt lat="44.5268617" lon="8.0036767"><ele>539.0</ele><time>2026-04-12T12:45:59.063Z</time></trkpt><trkpt lat="44.5267933" lon="8.0036183"><ele>541.5</ele><time>2026-04-12T12:46:01.063Z</time></trkpt><trkpt lat="44.52672" lon="8.003575"><ele>544.0</ele><time>2026-04-12T12:46:03.064Z</time></trkpt><trkpt lat="44.52664" lon="8.0035383"><ele>546.5</ele><time>2026-04-12T12:46:05.061Z</time></trkpt><trkpt lat="44.5265583" lon="8.003495"><ele>549.0</ele><time>2026-04-12T12:46:07.061Z</time></trkpt><trkpt lat="44.5264733" lon="8.0034517"><ele>551.5</ele><time>2026-04-12T12:46:09.062Z</time></trkpt><trkpt lat="44.52639" lon="8.0034033"><ele>554.0</ele><time>2026-04-12T12:46:11.062Z</time></trkpt><trkpt lat="44.526305" lon="8.0033633"><ele>554.0</ele><time>2026-04-12T12:46:13.062Z</time></trkpt><trkpt lat="44.5262133" lon="8.003315"><ele>554.0</ele><time>2026-04-12T12:46:15.066Z</time></trkpt><trkpt lat="44.5261183" lon="8.0032633"><ele>554.0</ele><time>2026-04-12T12:46:17.063Z</time></trkpt><trkpt lat="44.5260083" lon="8.0032017"><ele>554.0</ele><time>2026-04-12T12:46:19.062Z</time></trkpt><trkpt lat="44.5258983" lon="8.00312"><ele>554.0</ele><time>2026-04-12T12:46:21.063Z</time></trkpt><trkpt lat="44.5258467" lon="8.0030617"><ele>554.0</ele><time>2026-04-12T12:46:22.063Z</time></trkpt><trkpt lat="44.5258" lon="8.0029917"><ele>554.0</ele><time>2026-04-12T12:46:23.061Z</time></trkpt><trkpt lat="44.525755" lon="8.0029167"><ele>554.0</ele><time>2026-04-12T12:46:24.064Z</time></trkpt><trkpt lat="44.5257083" lon="8.002845"><ele>554.0</ele><time>2026-04-12T12:46:25.063Z</time></trkpt><trkpt lat="44.5256617" lon="8.0027767"><ele>554.0</ele><time>2026-04-12T12:46:26.063Z</time></trkpt><trkpt lat="44.5256167" lon="8.0027133"><ele>554.0</ele><time>2026-04-12T12:46:27.067Z</time></trkpt><trkpt lat="44.5255333" lon="8.002585"><ele>554.0</ele><time>2026-04-12T12:46:29.062Z</time></trkpt><trkpt lat="44.5254867" lon="8.002525"><ele>554.0</ele><time>2026-04-12T12:46:30.063Z</time></trkpt><trkpt lat="44.5254367" lon="8.002465"><ele>554.0</ele><time>2026-04-12T12:46:31.063Z</time></trkpt><trkpt lat="44.525345" lon="8.0023517"><ele>554.0</ele><time>2026-04-12T12:46:33.065Z</time></trkpt><trkpt lat="44.5252517" lon="8.0022417"><ele>554.0</ele><time>2026-04-12T12:46:35.064Z</time></trkpt><trkpt lat="44.5251583" lon="8.0021417"><ele>553.0</ele><time>2026-04-12T12:46:37.067Z</time></trkpt><trkpt lat="44.5250583" lon="8.0020417"><ele>552.0</ele><time>2026-04-12T12:46:39.064Z</time></trkpt><trkpt lat="44.52496" lon="8.0019467"><ele>551.0</ele><time>2026-04-12T12:46:41.063Z</time></trkpt><trkpt lat="44.524865" lon="8.0018533"><ele>550.0</ele><time>2026-04-12T12:46:43.062Z</time></trkpt><trkpt lat="44.5247683" lon="8.0017383"><ele>550.0</ele><time>2026-04-12T12:46:45.064Z</time></trkpt><trkpt lat="44.5247133" lon="8.001675"><ele>550.0</ele><time>2026-04-12T12:46:46.064Z</time></trkpt><trkpt lat="44.5246533" lon="8.001605"><ele>550.0</ele><time>2026-04-12T12:46:47.063Z</time></trkpt><trkpt lat="44.5245883" lon="8.001525"><ele>550.0</ele><time>2026-04-12T12:46:48.06Z</time></trkpt><trkpt lat="44.5245217" lon="8.0014333"><ele>550.0</ele><time>2026-04-12T12:46:49.062Z</time></trkpt><trkpt lat="44.5244567" lon="8.0013333"><ele>550.0</ele><time>2026-04-12T12:46:50.063Z</time></trkpt><trkpt lat="44.5243917" lon="8.0012317"><ele>549.2</ele><time>2026-04-12T12:46:51.066Z</time></trkpt><trkpt lat="44.5243283" lon="8.001125"><ele>548.4</ele><time>2026-04-12T12:46:52.061Z</time></trkpt><trkpt lat="44.5242667" lon="8.0010183"><ele>547.6</ele><time>2026-04-12T12:46:53.062Z</time></trkpt><trkpt lat="44.5242067" lon="8.00091"><ele>546.8</ele><time>2026-04-12T12:46:54.062Z</time></trkpt><trkpt lat="44.5241467" lon="8.000805"><ele>546.0</ele><time>2026-04-12T12:46:55.063Z</time></trkpt><trkpt lat="44.5240833" lon="8.0007133"><ele>546.0</ele><time>2026-04-12T12:46:56.063Z</time></trkpt><trkpt lat="44.5240183" lon="8.0006217"><ele>546.0</ele><time>2026-04-12T12:46:57.064Z</time></trkpt><trkpt lat="44.5239583" lon="8.0005317"><ele>546.0</ele><time>2026-04-12T12:46:58.064Z</time></trkpt><trkpt lat="44.5239033" lon="8.0004467"><ele>546.0</ele><time>2026-04-12T12:46:59.062Z</time></trkpt><trkpt lat="44.523855" lon="8.0003633"><ele>546.0</ele><time>2026-04-12T12:47:00.063Z</time></trkpt><trkpt lat="44.5238167" lon="8.00028"><ele>546.0</ele><time>2026-04-12T12:47:01.065Z</time></trkpt><trkpt lat="44.523785" lon="8.0001967"><ele>546.0</ele><time>2026-04-12T12:47:02.063Z</time></trkpt><trkpt lat="44.5237533" lon="8.0001167"><ele>546.0</ele><time>2026-04-12T12:47:03.063Z</time></trkpt><trkpt lat="44.5237217" lon="8.000035"><ele>546.0</ele><time>2026-04-12T12:47:04.062Z</time></trkpt><trkpt lat="44.52369" lon="7.999955"><ele>546.0</ele><time>2026-04-12T12:47:05.059Z</time></trkpt><trkpt lat="44.523625" lon="7.999805"><ele>546.0</ele><time>2026-04-12T12:47:07.062Z</time></trkpt><trkpt lat="44.5235533" lon="7.9996567"><ele>546.4</ele><time>2026-04-12T12:47:09.062Z</time></trkpt><trkpt lat="44.523485" lon="7.9995233"><ele>546.8</ele><time>2026-04-12T12:47:11.061Z</time></trkpt><trkpt lat="44.52342" lon="7.9994"><ele>547.1999999999999</ele><time>2026-04-12T12:47:13.063Z</time></trkpt><trkpt lat="44.523355" lon="7.9992833"><ele>547.6</ele><time>2026-04-12T12:47:15.065Z</time></trkpt><trkpt lat="44.5232917" lon="7.9991667"><ele>548.0</ele><time>2026-04-12T12:47:17.062Z</time></trkpt><trkpt lat="44.523225" lon="7.999055"><ele>548.0</ele><time>2026-04-12T12:47:19.063Z</time></trkpt><trkpt lat="44.5231617" lon="7.99894"><ele>548.0</ele><time>2026-04-12T12:47:21.066Z</time></trkpt><trkpt lat="44.5231017" lon="7.9988217"><ele>548.0</ele><time>2026-04-12T12:47:23.063Z</time></trkpt><trkpt lat="44.5230333" lon="7.9986817"><ele>548.0</ele><time>2026-04-12T12:47:25.064Z</time></trkpt><trkpt lat="44.522995" lon="7.998605"><ele>548.0</ele><time>2026-04-12T12:47:26.062Z</time></trkpt><trkpt lat="44.5229483" lon="7.9985217"><ele>548.0</ele><time>2026-04-12T12:47:27.064Z</time></trkpt><trkpt lat="44.5228983" lon="7.9984383"><ele>548.0</ele><time>2026-04-12T12:47:28.063Z</time></trkpt><trkpt lat="44.522845" lon="7.9983533"><ele>548.0</ele><time>2026-04-12T12:47:29.062Z</time></trkpt><trkpt lat="44.5227883" lon="7.9982633"><ele>548.0</ele><time>2026-04-12T12:47:30.063Z</time></trkpt><trkpt lat="44.5227267" lon="7.9981733"><ele>548.0</ele><time>2026-04-12T12:47:31.065Z</time></trkpt><trkpt lat="44.5226667" lon="7.998075"><ele>548.0</ele><time>2026-04-12T12:47:32.062Z</time></trkpt><trkpt lat="44.5226067" lon="7.9979667"><ele>548.0</ele><time>2026-04-12T12:47:33.063Z</time></trkpt><trkpt lat="44.5225483" lon="7.9978533"><ele>548.0</ele><time>2026-04-12T12:47:34.066Z</time></trkpt><trkpt lat="44.5224883" lon="7.997735"><ele>548.0</ele><time>2026-04-12T12:47:35.062Z</time></trkpt><trkpt lat="44.5224283" lon="7.9976133"><ele>548.0</ele><time>2026-04-12T12:47:36.064Z</time></trkpt><trkpt lat="44.5223717" lon="7.9974867"><ele>548.0</ele><time>2026-04-12T12:47:37.066Z</time></trkpt><trkpt lat="44.5223133" lon="7.9973483"><ele>548.0</ele><time>2026-04-12T12:47:38.065Z</time></trkpt><trkpt lat="44.5222517" lon="7.9972033"><ele>548.0</ele><time>2026-04-12T12:47:39.065Z</time></trkpt><trkpt lat="44.52219" lon="7.997055"><ele>548.0</ele><time>2026-04-12T12:47:40.064Z</time></trkpt><trkpt lat="44.5221217" lon="7.9969033"><ele>548.0</ele><time>2026-04-12T12:47:41.063Z</time></trkpt><trkpt lat="44.5220533" lon="7.9967517"><ele>547.5</ele><time>2026-04-12T12:47:42.064Z</time></trkpt><trkpt lat="44.5219867" lon="7.996595"><ele>547.0</ele><time>2026-04-12T12:47:43.066Z</time></trkpt><trkpt lat="44.52192" lon="7.996435"><ele>546.5</ele><time>2026-04-12T12:47:44.064Z</time></trkpt><trkpt lat="44.521855" lon="7.9962733"><ele>546.0</ele><time>2026-04-12T12:47:45.063Z</time></trkpt><trkpt lat="44.521795" lon="7.996115"><ele>546.0</ele><time>2026-04-12T12:47:46.064Z</time></trkpt><trkpt lat="44.5217367" lon="7.9959567"><ele>546.0</ele><time>2026-04-12T12:47:47.064Z</time></trkpt><trkpt lat="44.5216817" lon="7.9958017"><ele>546.0</ele><time>2026-04-12T12:47:48.064Z</time></trkpt><trkpt lat="44.5216233" lon="7.995655"><ele>546.0</ele><time>2026-04-12T12:47:49.065Z</time></trkpt><trkpt lat="44.5215617" lon="7.9955167"><ele>543.75</ele><time>2026-04-12T12:47:50.061Z</time></trkpt><trkpt lat="44.521495" lon="7.9953933"><ele>541.5</ele><time>2026-04-12T12:47:51.062Z</time></trkpt><trkpt lat="44.5214183" lon="7.9952767"><ele>539.25</ele><time>2026-04-12T12:47:52.063Z</time></trkpt><trkpt lat="44.52134" lon="7.99516"><ele>537.0</ele><time>2026-04-12T12:47:53.062Z</time></trkpt><trkpt lat="44.52126" lon="7.9950433"><ele>538.0</ele><time>2026-04-12T12:47:54.061Z</time></trkpt><trkpt lat="44.5211833" lon="7.9949267"><ele>539.0</ele><time>2026-04-12T12:47:55.063Z</time></trkpt><trkpt lat="44.5211083" lon="7.9948133"><ele>540.0</ele><time>2026-04-12T12:47:56.063Z</time></trkpt><trkpt lat="44.52104" lon="7.9947017"><ele>541.0</ele><time>2026-04-12T12:47:57.063Z</time></trkpt><trkpt lat="44.5209683" lon="7.994595"><ele>542.0</ele><time>2026-04-12T12:47:58.059Z</time></trkpt><trkpt lat="44.5208967" lon="7.9944867"><ele>542.0</ele><time>2026-04-12T12:47:59.061Z</time></trkpt><trkpt lat="44.5208283" lon="7.9943867"><ele>542.0</ele><time>2026-04-12T12:48:00.062Z</time></trkpt><trkpt lat="44.52076" lon="7.994295"><ele>542.0</ele><time>2026-04-12T12:48:01.061Z</time></trkpt><trkpt lat="44.52069" lon="7.994205"><ele>542.0</ele><time>2026-04-12T12:48:02.062Z</time></trkpt><trkpt lat="44.520615" lon="7.9941233"><ele>542.0</ele><time>2026-04-12T12:48:03.063Z</time></trkpt><trkpt lat="44.5205383" lon="7.9940567"><ele>542.5</ele><time>2026-04-12T12:48:04.062Z</time></trkpt><trkpt lat="44.52046" lon="7.99399"><ele>543.0</ele><time>2026-04-12T12:48:05.062Z</time></trkpt><trkpt lat="44.52038" lon="7.9939217"><ele>543.5</ele><time>2026-04-12T12:48:06.062Z</time></trkpt><trkpt lat="44.5203" lon="7.9938567"><ele>544.0</ele><time>2026-04-12T12:48:07.065Z</time></trkpt><trkpt lat="44.520225" lon="7.993795"><ele>544.5</ele><time>2026-04-12T12:48:08.062Z</time></trkpt><trkpt lat="44.520155" lon="7.9937317"><ele>545.0</ele><time>2026-04-12T12:48:09.065Z</time></trkpt><trkpt lat="44.520085" lon="7.9936667"><ele>545.0</ele><time>2026-04-12T12:48:10.066Z</time></trkpt><trkpt lat="44.5200217" lon="7.9936083"><ele>545.0</ele><time>2026-04-12T12:48:11.061Z</time></trkpt><trkpt lat="44.5199633" lon="7.9935517"><ele>545.0</ele><time>2026-04-12T12:48:12.062Z</time></trkpt><trkpt lat="44.5199183" lon="7.9934367"><ele>545.0</ele><time>2026-04-12T12:48:14.063Z</time></trkpt><trkpt lat="44.5200133" lon="7.99341"><ele>545.0</ele><time>2026-04-12T12:48:16.063Z</time></trkpt><trkpt lat="44.5200933" lon="7.9934333"><ele>545.0</ele><time>2026-04-12T12:48:17.062Z</time></trkpt><trkpt lat="44.520175" lon="7.9934583"><ele>545.0</ele><time>2026-04-12T12:48:18.061Z</time></trkpt><trkpt lat="44.5202633" lon="7.9934783"><ele>545.0</ele><time>2026-04-12T12:48:19.063Z</time></trkpt><trkpt lat="44.520355" lon="7.9934917"><ele>545.0</ele><time>2026-04-12T12:48:20.062Z</time></trkpt><trkpt lat="44.52045" lon="7.9935033"><ele>545.0</ele><time>2026-04-12T12:48:21.064Z</time></trkpt><trkpt lat="44.5205517" lon="7.993505"><ele>545.0</ele><time>2026-04-12T12:48:22.063Z</time></trkpt><trkpt lat="44.5206517" lon="7.9934967"><ele>542.8</ele><time>2026-04-12T12:48:23.061Z</time></trkpt><trkpt lat="44.5207567" lon="7.99348"><ele>540.6</ele><time>2026-04-12T12:48:24.063Z</time></trkpt><trkpt lat="44.5208617" lon="7.9934617"><ele>538.4</ele><time>2026-04-12T12:48:25.059Z</time></trkpt><trkpt lat="44.52097" lon="7.9934383"><ele>536.2</ele><time>2026-04-12T12:48:26.061Z</time></trkpt><trkpt lat="44.52108" lon="7.9934233"><ele>534.0</ele><time>2026-04-12T12:48:27.063Z</time></trkpt><trkpt lat="44.52119" lon="7.993405"><ele>531.6</ele><time>2026-04-12T12:48:28.063Z</time></trkpt><trkpt lat="44.5213017" lon="7.9933967"><ele>529.2</ele><time>2026-04-12T12:48:29.061Z</time></trkpt><trkpt lat="44.5214133" lon="7.9933883"><ele>526.8000000000001</ele><time>2026-04-12T12:48:30.063Z</time></trkpt><trkpt lat="44.5215183" lon="7.9933817"><ele>524.4</ele><time>2026-04-12T12:48:31.065Z</time></trkpt><trkpt lat="44.52162" lon="7.99337"><ele>522.0</ele><time>2026-04-12T12:48:32.062Z</time></trkpt><trkpt lat="44.521715" lon="7.9933467"><ele>522.0</ele><time>2026-04-12T12:48:33.064Z</time></trkpt><trkpt lat="44.521795" lon="7.993295"><ele>522.0</ele><time>2026-04-12T12:48:34.063Z</time></trkpt><trkpt lat="44.521865" lon="7.9932183"><ele>522.0</ele><time>2026-04-12T12:48:35.062Z</time></trkpt><trkpt lat="44.521925" lon="7.9931117"><ele>522.0</ele><time>2026-04-12T12:48:36.064Z</time></trkpt><trkpt lat="44.5219833" lon="7.9929917"><ele>522.0</ele><time>2026-04-12T12:48:37.063Z</time></trkpt><trkpt lat="44.52204" lon="7.99287"><ele>518.8000000000001</ele><time>2026-04-12T12:48:38.063Z</time></trkpt><trkpt lat="44.522095" lon="7.99274"><ele>515.6</ele><time>2026-04-12T12:48:39.065Z</time></trkpt><trkpt lat="44.5221467" lon="7.9926083"><ele>512.4000000000001</ele><time>2026-04-12T12:48:40.063Z</time></trkpt><trkpt lat="44.5221983" lon="7.99247"><ele>509.20000000000005</ele><time>2026-04-12T12:48:41.063Z</time></trkpt><trkpt lat="44.52225" lon="7.992325"><ele>506.0</ele><time>2026-04-12T12:48:42.062Z</time></trkpt><trkpt lat="44.5223083" lon="7.992175"><ele>506.0</ele><time>2026-04-12T12:48:43.062Z</time></trkpt><trkpt lat="44.52237" lon="7.9920267"><ele>506.0</ele><time>2026-04-12T12:48:44.063Z</time></trkpt><trkpt lat="44.5224433" lon="7.991875"><ele>506.0</ele><time>2026-04-12T12:48:45.064Z</time></trkpt><trkpt lat="44.5225233" lon="7.9917283"><ele>506.0</ele><time>2026-04-12T12:48:46.064Z</time></trkpt><trkpt lat="44.5226117" lon="7.991595"><ele>505.75</ele><time>2026-04-12T12:48:47.062Z</time></trkpt><trkpt lat="44.52271" lon="7.99147"><ele>505.5</ele><time>2026-04-12T12:48:48.062Z</time></trkpt><trkpt lat="44.522815" lon="7.9913533"><ele>505.25</ele><time>2026-04-12T12:48:49.065Z</time></trkpt><trkpt lat="44.5229267" lon="7.9912467"><ele>505.0</ele><time>2026-04-12T12:48:50.063Z</time></trkpt><trkpt lat="44.5230417" lon="7.9911433"><ele>503.5</ele><time>2026-04-12T12:48:51.061Z</time></trkpt><trkpt lat="44.523155" lon="7.99105"><ele>502.0</ele><time>2026-04-12T12:48:52.061Z</time></trkpt><trkpt lat="44.5232667" lon="7.990965"><ele>500.5</ele><time>2026-04-12T12:48:53.061Z</time></trkpt><trkpt lat="44.5233767" lon="7.9908817"><ele>499.0</ele><time>2026-04-12T12:48:54.062Z</time></trkpt><trkpt lat="44.523485" lon="7.990795"><ele>499.0</ele><time>2026-04-12T12:48:55.062Z</time></trkpt><trkpt lat="44.52358" lon="7.9906917"><ele>499.0</ele><time>2026-04-12T12:48:56.063Z</time></trkpt><trkpt lat="44.5236517" lon="7.99058"><ele>499.0</ele><time>2026-04-12T12:48:57.065Z</time></trkpt><trkpt lat="44.5237033" lon="7.990475"><ele>499.0</ele><time>2026-04-12T12:48:58.063Z</time></trkpt><trkpt lat="44.5237367" lon="7.9903733"><ele>499.0</ele><time>2026-04-12T12:48:59.062Z</time></trkpt><trkpt lat="44.5237533" lon="7.9902683"><ele>499.0</ele><time>2026-04-12T12:49:00.061Z</time></trkpt><trkpt lat="44.52375" lon="7.99015"><ele>499.0</ele><time>2026-04-12T12:49:01.06Z</time></trkpt><trkpt lat="44.5237283" lon="7.9900233"><ele>499.0</ele><time>2026-04-12T12:49:02.062Z</time></trkpt><trkpt lat="44.5237017" lon="7.989895"><ele>499.0</ele><time>2026-04-12T12:49:03.063Z</time></trkpt><trkpt lat="44.52368" lon="7.9897617"><ele>499.0</ele><time>2026-04-12T12:49:04.062Z</time></trkpt><trkpt lat="44.5236767" lon="7.989625"><ele>498.6</ele><time>2026-04-12T12:49:05.061Z</time></trkpt><trkpt lat="44.5236967" lon="7.989485"><ele>498.2</ele><time>2026-04-12T12:49:06.061Z</time></trkpt><trkpt lat="44.5237267" lon="7.989345"><ele>497.80000000000007</ele><time>2026-04-12T12:49:07.063Z</time></trkpt><trkpt lat="44.523755" lon="7.9892017"><ele>497.40000000000003</ele><time>2026-04-12T12:49:08.064Z</time></trkpt><trkpt lat="44.52377" lon="7.9890533"><ele>497.0</ele><time>2026-04-12T12:49:09.065Z</time></trkpt><trkpt lat="44.52376" lon="7.9889033"><ele>495.40000000000003</ele><time>2026-04-12T12:49:10.062Z</time></trkpt><trkpt lat="44.5237267" lon="7.98876"><ele>493.80000000000007</ele><time>2026-04-12T12:49:11.062Z</time></trkpt><trkpt lat="44.5236817" lon="7.98861"><ele>492.2</ele><time>2026-04-12T12:49:12.062Z</time></trkpt><trkpt lat="44.5236483" lon="7.9884633"><ele>490.6</ele><time>2026-04-12T12:49:13.064Z</time></trkpt><trkpt lat="44.5236217" lon="7.988325"><ele>489.0</ele><time>2026-04-12T12:49:14.063Z</time></trkpt><trkpt lat="44.5236167" lon="7.9882067"><ele>487.6666666666667</ele><time>2026-04-12T12:49:15.064Z</time></trkpt><trkpt lat="44.52362" lon="7.9880933"><ele>486.33333333333337</ele><time>2026-04-12T12:49:16.064Z</time></trkpt><trkpt lat="44.5236683" lon="7.98803"><ele>485.0</ele><time>2026-04-12T12:49:17.061Z</time></trkpt><trkpt lat="44.523735" lon="7.98801"><ele>483.6666666666667</ele><time>2026-04-12T12:49:18.064Z</time></trkpt><trkpt lat="44.52385" lon="7.98805"><ele>482.33333333333337</ele><time>2026-04-12T12:49:20.064Z</time></trkpt><trkpt lat="44.523895" lon="7.9881417"><ele>481.0</ele><time>2026-04-12T12:49:21.064Z</time></trkpt><trkpt lat="44.5239333" lon="7.98824"><ele>480.20000000000005</ele><time>2026-04-12T12:49:22.064Z</time></trkpt><trkpt lat="44.5239667" lon="7.988345"><ele>479.40000000000003</ele><time>2026-04-12T12:49:23.066Z</time></trkpt><trkpt lat="44.524" lon="7.9884617"><ele>478.6</ele><time>2026-04-12T12:49:24.063Z</time></trkpt><trkpt lat="44.5240367" lon="7.9885817"><ele>477.8</ele><time>2026-04-12T12:49:25.064Z</time></trkpt><trkpt lat="44.5240733" lon="7.988705"><ele>477.0</ele><time>2026-04-12T12:49:26.064Z</time></trkpt><trkpt lat="44.5241083" lon="7.9888283"><ele>477.0</ele><time>2026-04-12T12:49:27.064Z</time></trkpt><trkpt lat="44.52414" lon="7.9889533"><ele>477.00000000000006</ele><time>2026-04-12T12:49:28.064Z</time></trkpt><trkpt lat="44.52417" lon="7.989055"><ele>477.00000000000006</ele><time>2026-04-12T12:49:29.063Z</time></trkpt><trkpt lat="44.5242017" lon="7.9891367"><ele>477.0</ele><time>2026-04-12T12:49:30.065Z</time></trkpt><trkpt lat="44.52429" lon="7.989175"><ele>477.0</ele><time>2026-04-12T12:49:32.062Z</time></trkpt><trkpt lat="44.52436" lon="7.9890217"><ele>477.0</ele><time>2026-04-12T12:49:34.064Z</time></trkpt><trkpt lat="44.52437" lon="7.9889"><ele>477.00000000000006</ele><time>2026-04-12T12:49:35.065Z</time></trkpt><trkpt lat="44.52438" lon="7.9887717"><ele>477.00000000000006</ele><time>2026-04-12T12:49:36.064Z</time></trkpt><trkpt lat="44.5243917" lon="7.9886367"><ele>477.0</ele><time>2026-04-12T12:49:37.064Z</time></trkpt><trkpt lat="44.5244033" lon="7.9884933"><ele>477.0</ele><time>2026-04-12T12:49:38.063Z</time></trkpt><trkpt lat="44.5244067" lon="7.9883417"><ele>475.0</ele><time>2026-04-12T12:49:39.066Z</time></trkpt><trkpt lat="44.5244067" lon="7.9881867"><ele>473.0</ele><time>2026-04-12T12:49:40.065Z</time></trkpt><trkpt lat="44.5244017" lon="7.9880283"><ele>471.0</ele><time>2026-04-12T12:49:41.064Z</time></trkpt><trkpt lat="44.5243983" lon="7.9878667"><ele>469.0</ele><time>2026-04-12T12:49:42.063Z</time></trkpt><trkpt lat="44.524395" lon="7.9877033"><ele>469.0</ele><time>2026-04-12T12:49:43.065Z</time></trkpt><trkpt lat="44.5243917" lon="7.9875417"><ele>469.0</ele><time>2026-04-12T12:49:44.066Z</time></trkpt><trkpt lat="44.524385" lon="7.9873783"><ele>469.0</ele><time>2026-04-12T12:49:45.065Z</time></trkpt><trkpt lat="44.524375" lon="7.9872167"><ele>469.0</ele><time>2026-04-12T12:49:46.065Z</time></trkpt><trkpt lat="44.5243483" lon="7.987055"><ele>467.75</ele><time>2026-04-12T12:49:47.065Z</time></trkpt><trkpt lat="44.5243067" lon="7.9868983"><ele>466.5</ele><time>2026-04-12T12:49:48.065Z</time></trkpt><trkpt lat="44.524255" lon="7.986745"><ele>465.25</ele><time>2026-04-12T12:49:49.064Z</time></trkpt><trkpt lat="44.5241933" lon="7.9865933"><ele>464.0</ele><time>2026-04-12T12:49:50.065Z</time></trkpt><trkpt lat="44.524135" lon="7.9864417"><ele>462.25</ele><time>2026-04-12T12:49:51.066Z</time></trkpt><trkpt lat="44.5240783" lon="7.9862917"><ele>460.5</ele><time>2026-04-12T12:49:52.065Z</time></trkpt><trkpt lat="44.5240217" lon="7.986135"><ele>458.75</ele><time>2026-04-12T12:49:53.063Z</time></trkpt><trkpt lat="44.523965" lon="7.9859783"><ele>457.0</ele><time>2026-04-12T12:49:54.064Z</time></trkpt><trkpt lat="44.5239017" lon="7.9858233"><ele>456.0</ele><time>2026-04-12T12:49:55.065Z</time></trkpt><trkpt lat="44.52383" lon="7.9856767"><ele>455.00000000000006</ele><time>2026-04-12T12:49:56.065Z</time></trkpt><trkpt lat="44.523755" lon="7.98555"><ele>454.00000000000006</ele><time>2026-04-12T12:49:57.064Z</time></trkpt><trkpt lat="44.5236867" lon="7.9854417"><ele>453.0</ele><time>2026-04-12T12:49:58.064Z</time></trkpt><trkpt lat="44.5236283" lon="7.9853567"><ele>452.0</ele><time>2026-04-12T12:49:59.064Z</time></trkpt><trkpt lat="44.5235767" lon="7.9852867"><ele>451.99999999999994</ele><time>2026-04-12T12:50:00.064Z</time></trkpt><trkpt lat="44.523575" lon="7.98516"><ele>452.0</ele><time>2026-04-12T12:50:02.066Z</time></trkpt><trkpt lat="44.52369" lon="7.9851483"><ele>452.0</ele><time>2026-04-12T12:50:04.066Z</time></trkpt><trkpt lat="44.5237483" lon="7.9851933"><ele>452.0</ele><time>2026-04-12T12:50:05.063Z</time></trkpt><trkpt lat="44.5238083" lon="7.98527"><ele>451.99999999999994</ele><time>2026-04-12T12:50:06.063Z</time></trkpt><trkpt lat="44.5238733" lon="7.9853533"><ele>452.0</ele><time>2026-04-12T12:50:07.066Z</time></trkpt><trkpt lat="44.5239417" lon="7.9854367"><ele>450.8</ele><time>2026-04-12T12:50:08.065Z</time></trkpt><trkpt lat="44.524015" lon="7.98552"><ele>449.6</ele><time>2026-04-12T12:50:09.065Z</time></trkpt><trkpt lat="44.5240933" lon="7.9856033"><ele>448.40000000000003</ele><time>2026-04-12T12:50:10.065Z</time></trkpt><trkpt lat="44.5241783" lon="7.98568"><ele>447.20000000000005</ele><time>2026-04-12T12:50:11.062Z</time></trkpt><trkpt lat="44.5242683" lon="7.9857533"><ele>446.0</ele><time>2026-04-12T12:50:12.063Z</time></trkpt><trkpt lat="44.524355" lon="7.9858233"><ele>445.16666666666663</ele><time>2026-04-12T12:50:13.066Z</time></trkpt><trkpt lat="44.5244283" lon="7.98589"><ele>444.3333333333333</ele><time>2026-04-12T12:50:14.065Z</time></trkpt><trkpt lat="44.5244917" lon="7.985935"><ele>443.5</ele><time>2026-04-12T12:50:15.066Z</time></trkpt><trkpt lat="44.5245567" lon="7.9859583"><ele>442.66666666666663</ele><time>2026-04-12T12:50:16.063Z</time></trkpt><trkpt lat="44.5246183" lon="7.9858467"><ele>441.8333333333333</ele><time>2026-04-12T12:50:18.062Z</time></trkpt><trkpt lat="44.5245983" lon="7.9857567"><ele>441.0</ele><time>2026-04-12T12:50:19.064Z</time></trkpt><trkpt lat="44.5245683" lon="7.9856583"><ele>442.0</ele><time>2026-04-12T12:50:20.063Z</time></trkpt><trkpt lat="44.52453" lon="7.9855567"><ele>443.0</ele><time>2026-04-12T12:50:21.072Z</time></trkpt><trkpt lat="44.5244867" lon="7.9854417"><ele>444.0</ele><time>2026-04-12T12:50:22.065Z</time></trkpt><trkpt lat="44.5244433" lon="7.9853217"><ele>445.0</ele><time>2026-04-12T12:50:23.063Z</time></trkpt><trkpt lat="44.5243967" lon="7.98519"><ele>446.0</ele><time>2026-04-12T12:50:24.061Z</time></trkpt><trkpt lat="44.5243483" lon="7.985055"><ele>442.0</ele><time>2026-04-12T12:50:25.064Z</time></trkpt><trkpt lat="44.5242983" lon="7.984915"><ele>438.0</ele><time>2026-04-12T12:50:26.065Z</time></trkpt><trkpt lat="44.5242483" lon="7.9847717"><ele>434.0</ele><time>2026-04-12T12:50:27.065Z</time></trkpt><trkpt lat="44.5241983" lon="7.9846233"><ele>430.0</ele><time>2026-04-12T12:50:28.065Z</time></trkpt><trkpt lat="44.5241533" lon="7.9844683"><ele>430.0</ele><time>2026-04-12T12:50:29.064Z</time></trkpt><trkpt lat="44.524115" lon="7.984305"><ele>430.0</ele><time>2026-04-12T12:50:30.064Z</time></trkpt><trkpt lat="44.5240817" lon="7.9841333"><ele>430.0</ele><time>2026-04-12T12:50:31.063Z</time></trkpt><trkpt lat="44.5240483" lon="7.9839567"><ele>430.0</ele><time>2026-04-12T12:50:32.065Z</time></trkpt><trkpt lat="44.52401" lon="7.9837817"><ele>427.25</ele><time>2026-04-12T12:50:33.063Z</time></trkpt><trkpt lat="44.5239633" lon="7.983605"><ele>424.5</ele><time>2026-04-12T12:50:34.066Z</time></trkpt><trkpt lat="44.5239083" lon="7.983435"><ele>421.75</ele><time>2026-04-12T12:50:35.062Z</time></trkpt><trkpt lat="44.5238433" lon="7.9832733"><ele>419.0</ele><time>2026-04-12T12:50:36.064Z</time></trkpt><trkpt lat="44.5237633" lon="7.9831167"><ele>418.25</ele><time>2026-04-12T12:50:37.066Z</time></trkpt><trkpt lat="44.523685" lon="7.982955"><ele>417.5</ele><time>2026-04-12T12:50:38.064Z</time></trkpt><trkpt lat="44.5236133" lon="7.9827883"><ele>416.75</ele><time>2026-04-12T12:50:39.063Z</time></trkpt><trkpt lat="44.523555" lon="7.98261"><ele>416.0</ele><time>2026-04-12T12:50:40.063Z</time></trkpt><trkpt lat="44.5235167" lon="7.9824267"><ele>413.25</ele><time>2026-04-12T12:50:41.062Z</time></trkpt><trkpt lat="44.52349" lon="7.9822467"><ele>410.5</ele><time>2026-04-12T12:50:42.063Z</time></trkpt><trkpt lat="44.52346" lon="7.98208"><ele>407.75</ele><time>2026-04-12T12:50:43.065Z</time></trkpt><trkpt lat="44.5234133" lon="7.9819417"><ele>405.0</ele><time>2026-04-12T12:50:44.063Z</time></trkpt><trkpt lat="44.523345" lon="7.9818383"><ele>405.0</ele><time>2026-04-12T12:50:45.066Z</time></trkpt><trkpt lat="44.5232633" lon="7.9817783"><ele>405.0</ele><time>2026-04-12T12:50:46.063Z</time></trkpt><trkpt lat="44.5231817" lon="7.9817433"><ele>405.0</ele><time>2026-04-12T12:50:47.063Z</time></trkpt><trkpt lat="44.5231167" lon="7.9817233"><ele>405.0</ele><time>2026-04-12T12:50:48.063Z</time></trkpt><trkpt lat="44.5230283" lon="7.9816467"><ele>405.0</ele><time>2026-04-12T12:50:50.063Z</time></trkpt><trkpt lat="44.5230467" lon="7.9815617"><ele>405.0</ele><time>2026-04-12T12:50:51.065Z</time></trkpt><trkpt lat="44.5231383" lon="7.9814217"><ele>402.8</ele><time>2026-04-12T12:50:53.063Z</time></trkpt><trkpt lat="44.523215" lon="7.9813683"><ele>400.6</ele><time>2026-04-12T12:50:54.063Z</time></trkpt><trkpt lat="44.5233" lon="7.981305"><ele>398.4</ele><time>2026-04-12T12:50:55.064Z</time></trkpt><trkpt lat="44.52339" lon="7.9812333"><ele>396.2</ele><time>2026-04-12T12:50:56.064Z</time></trkpt><trkpt lat="44.5234817" lon="7.981165"><ele>394.0</ele><time>2026-04-12T12:50:57.063Z</time></trkpt><trkpt lat="44.523575" lon="7.9810967"><ele>394.00000000000006</ele><time>2026-04-12T12:50:58.064Z</time></trkpt><trkpt lat="44.5236733" lon="7.98103"><ele>394.0</ele><time>2026-04-12T12:50:59.063Z</time></trkpt><trkpt lat="44.5237683" lon="7.9809683"><ele>394.0</ele><time>2026-04-12T12:51:00.065Z</time></trkpt><trkpt lat="44.523855" lon="7.98092"><ele>394.0</ele><time>2026-04-12T12:51:01.064Z</time></trkpt><trkpt lat="44.523925" lon="7.98088"><ele>394.00000000000006</ele><time>2026-04-12T12:51:02.063Z</time></trkpt><trkpt lat="44.52398" lon="7.9808317"><ele>394.0</ele><time>2026-04-12T12:51:03.064Z</time></trkpt><trkpt lat="44.5240117" lon="7.9807017"><ele>392.4</ele><time>2026-04-12T12:51:05.062Z</time></trkpt><trkpt lat="44.5239017" lon="7.980635"><ele>390.79999999999995</ele><time>2026-04-12T12:51:07.064Z</time></trkpt><trkpt lat="44.523825" lon="7.98064"><ele>389.20000000000005</ele><time>2026-04-12T12:51:08.063Z</time></trkpt><trkpt lat="44.52374" lon="7.9806617"><ele>387.6</ele><time>2026-04-12T12:51:09.064Z</time></trkpt><trkpt lat="44.52365" lon="7.980685"><ele>386.0</ele><time>2026-04-12T12:51:10.063Z</time></trkpt><trkpt lat="44.523555" lon="7.9807033"><ele>384.4</ele><time>2026-04-12T12:51:11.061Z</time></trkpt><trkpt lat="44.5234583" lon="7.9807267"><ele>382.8</ele><time>2026-04-12T12:51:12.064Z</time></trkpt><trkpt lat="44.52336" lon="7.980765"><ele>381.2</ele><time>2026-04-12T12:51:13.063Z</time></trkpt><trkpt lat="44.5232617" lon="7.98081"><ele>379.59999999999997</ele><time>2026-04-12T12:51:14.067Z</time></trkpt><trkpt lat="44.523175" lon="7.9808467"><ele>378.0</ele><time>2026-04-12T12:51:15.064Z</time></trkpt><trkpt lat="44.5231033" lon="7.98088"><ele>378.0</ele><time>2026-04-12T12:51:16.064Z</time></trkpt><trkpt lat="44.5230067" lon="7.9808517"><ele>378.0</ele><time>2026-04-12T12:51:18.063Z</time></trkpt><trkpt lat="44.5230117" lon="7.9806883"><ele>378.0</ele><time>2026-04-12T12:51:20.065Z</time></trkpt><trkpt lat="44.523065" lon="7.9805883"><ele>378.0</ele><time>2026-04-12T12:51:21.064Z</time></trkpt><trkpt lat="44.5231283" lon="7.9805133"><ele>378.0</ele><time>2026-04-12T12:51:22.064Z</time></trkpt><trkpt lat="44.5232083" lon="7.9804483"><ele>378.0</ele><time>2026-04-12T12:51:23.063Z</time></trkpt><trkpt lat="44.523285" lon="7.9803767"><ele>378.0</ele><time>2026-04-12T12:51:24.064Z</time></trkpt><trkpt lat="44.5233583" lon="7.9803067"><ele>378.0</ele><time>2026-04-12T12:51:25.063Z</time></trkpt><trkpt lat="44.5234433" lon="7.9802417"><ele>378.0</ele><time>2026-04-12T12:51:26.063Z</time></trkpt><trkpt lat="44.523535" lon="7.980185"><ele>378.0</ele><time>2026-04-12T12:51:27.064Z</time></trkpt><trkpt lat="44.5236317" lon="7.9801367"><ele>378.0</ele><time>2026-04-12T12:51:28.066Z</time></trkpt><trkpt lat="44.52373" lon="7.9800883"><ele>378.0</ele><time>2026-04-12T12:51:29.063Z</time></trkpt><trkpt lat="44.5238283" lon="7.9800317"><ele>378.0</ele><time>2026-04-12T12:51:30.065Z</time></trkpt><trkpt lat="44.5239183" lon="7.9799833"><ele>378.0</ele><time>2026-04-12T12:51:31.064Z</time></trkpt><trkpt lat="44.524005" lon="7.9799433"><ele>378.0</ele><time>2026-04-12T12:51:32.066Z</time></trkpt><trkpt lat="44.5240833" lon="7.9799033"><ele>377.0</ele><time>2026-04-12T12:51:33.065Z</time></trkpt><trkpt lat="44.5241417" lon="7.9798533"><ele>376.0</ele><time>2026-04-12T12:51:34.064Z</time></trkpt><trkpt lat="44.5241467" lon="7.9797533"><ele>375.0</ele><time>2026-04-12T12:51:36.07Z</time></trkpt><trkpt lat="44.524055" lon="7.9797067"><ele>374.0</ele><time>2026-04-12T12:51:38.062Z</time></trkpt><trkpt lat="44.5239783" lon="7.9797217"><ele>373.0</ele><time>2026-04-12T12:51:39.063Z</time></trkpt><trkpt lat="44.5238867" lon="7.979765"><ele>372.0</ele><time>2026-04-12T12:51:40.063Z</time></trkpt><trkpt lat="44.52379" lon="7.979805"><ele>373.20000000000005</ele><time>2026-04-12T12:51:41.062Z</time></trkpt><trkpt lat="44.523695" lon="7.9798383"><ele>374.4</ele><time>2026-04-12T12:51:42.062Z</time></trkpt><trkpt lat="44.5235967" lon="7.9798717"><ele>375.6</ele><time>2026-04-12T12:51:43.064Z</time></trkpt><trkpt lat="44.5235017" lon="7.979915"><ele>376.79999999999995</ele><time>2026-04-12T12:51:44.064Z</time></trkpt><trkpt lat="44.523415" lon="7.97997"><ele>378.0</ele><time>2026-04-12T12:51:45.065Z</time></trkpt><trkpt lat="44.5233417" lon="7.9800267"><ele>378.0</ele><time>2026-04-12T12:51:46.064Z</time></trkpt><trkpt lat="44.5232383" lon="7.9800833"><ele>378.0</ele><time>2026-04-12T12:51:48.063Z</time></trkpt><trkpt lat="44.5232433" lon="7.97998"><ele>378.0</ele><time>2026-04-12T12:51:51.065Z</time></trkpt><trkpt lat="44.5233483" lon="7.9798867"><ele>378.0</ele><time>2026-04-12T12:51:53.063Z</time></trkpt><trkpt lat="44.523415" lon="7.979855"><ele>378.0</ele><time>2026-04-12T12:51:54.063Z</time></trkpt><trkpt lat="44.5234817" lon="7.9798117"><ele>377.0</ele><time>2026-04-12T12:51:55.064Z</time></trkpt><trkpt lat="44.5235567" lon="7.9797683"><ele>376.0</ele><time>2026-04-12T12:51:56.062Z</time></trkpt><trkpt lat="44.5236317" lon="7.9797217"><ele>375.0</ele><time>2026-04-12T12:51:57.064Z</time></trkpt><trkpt lat="44.5237067" lon="7.979675"><ele>374.0</ele><time>2026-04-12T12:51:58.063Z</time></trkpt><trkpt lat="44.523785" lon="7.9796233"><ele>373.0</ele><time>2026-04-12T12:51:59.063Z</time></trkpt><trkpt lat="44.523865" lon="7.9795733"><ele>372.0</ele><time>2026-04-12T12:52:00.062Z</time></trkpt><trkpt lat="44.5239467" lon="7.9795233"><ele>372.0</ele><time>2026-04-12T12:52:01.063Z</time></trkpt><trkpt lat="44.5240317" lon="7.9794667"><ele>372.0</ele><time>2026-04-12T12:52:02.063Z</time></trkpt><trkpt lat="44.524115" lon="7.97941"><ele>372.0</ele><time>2026-04-12T12:52:03.066Z</time></trkpt><trkpt lat="44.5242017" lon="7.9793517"><ele>372.0</ele><time>2026-04-12T12:52:04.07Z</time></trkpt><trkpt lat="44.524295" lon="7.9793233"><ele>372.0</ele><time>2026-04-12T12:52:05.061Z</time></trkpt><trkpt lat="44.52439" lon="7.9793217"><ele>372.0</ele><time>2026-04-12T12:52:06.063Z</time></trkpt><trkpt lat="44.524485" lon="7.9793567"><ele>372.0</ele><time>2026-04-12T12:52:07.063Z</time></trkpt><trkpt lat="44.52458" lon="7.979415"><ele>372.0</ele><time>2026-04-12T12:52:08.063Z</time></trkpt><trkpt lat="44.5246767" lon="7.979485"><ele>372.0</ele><time>2026-04-12T12:52:09.063Z</time></trkpt><trkpt lat="44.5247683" lon="7.9795633"><ele>372.0</ele><time>2026-04-12T12:52:10.063Z</time></trkpt><trkpt lat="44.524865" lon="7.9796483"><ele>365.75</ele><time>2026-04-12T12:52:11.062Z</time></trkpt><trkpt lat="44.524965" lon="7.9797383"><ele>359.5</ele><time>2026-04-12T12:52:12.064Z</time></trkpt><trkpt lat="44.525075" lon="7.9798267"><ele>353.25</ele><time>2026-04-12T12:52:13.065Z</time></trkpt><trkpt lat="44.5251817" lon="7.9799033"><ele>347.0</ele><time>2026-04-12T12:52:14.063Z</time></trkpt><trkpt lat="44.525285" lon="7.9799733"><ele>347.0</ele><time>2026-04-12T12:52:15.065Z</time></trkpt><trkpt lat="44.525385" lon="7.9800083"><ele>347.0</ele><time>2026-04-12T12:52:16.061Z</time></trkpt><trkpt lat="44.525475" lon="7.9800133"><ele>347.0</ele><time>2026-04-12T12:52:17.062Z</time></trkpt><trkpt lat="44.5255517" lon="7.97999"><ele>347.0</ele><time>2026-04-12T12:52:18.062Z</time></trkpt><trkpt lat="44.5256117" lon="7.9799533"><ele>347.0</ele><time>2026-04-12T12:52:19.062Z</time></trkpt><trkpt lat="44.5256833" lon="7.9798467"><ele>347.0</ele><time>2026-04-12T12:52:21.058Z</time></trkpt><trkpt lat="44.5257067" lon="7.9796983"><ele>348.5714285714286</ele><time>2026-04-12T12:52:23.063Z</time></trkpt><trkpt lat="44.5257" lon="7.9796083"><ele>350.1428571428571</ele><time>2026-04-12T12:52:24.063Z</time></trkpt><trkpt lat="44.5256867" lon="7.9795133"><ele>351.7142857142857</ele><time>2026-04-12T12:52:25.061Z</time></trkpt><trkpt lat="44.5256667" lon="7.9794133"><ele>353.28571428571433</ele><time>2026-04-12T12:52:26.064Z</time></trkpt><trkpt lat="44.5256533" lon="7.97931"><ele>354.8571428571429</ele><time>2026-04-12T12:52:27.064Z</time></trkpt><trkpt lat="44.5256417" lon="7.9792067"><ele>356.42857142857144</ele><time>2026-04-12T12:52:28.062Z</time></trkpt><trkpt lat="44.52563" lon="7.9791033"><ele>358.0</ele><time>2026-04-12T12:52:29.062Z</time></trkpt><trkpt lat="44.5256217" lon="7.9789983"><ele>358.00000000000006</ele><time>2026-04-12T12:52:30.063Z</time></trkpt><trkpt lat="44.5256133" lon="7.9788917"><ele>358.0</ele><time>2026-04-12T12:52:31.065Z</time></trkpt><trkpt lat="44.5256083" lon="7.9787833"><ele>358.0</ele><time>2026-04-12T12:52:32.063Z</time></trkpt><trkpt lat="44.525605" lon="7.978675"><ele>358.0</ele><time>2026-04-12T12:52:33.062Z</time></trkpt><trkpt lat="44.525595" lon="7.9785733"><ele>358.0</ele><time>2026-04-12T12:52:34.063Z</time></trkpt><trkpt lat="44.525585" lon="7.9784733"><ele>358.00000000000006</ele><time>2026-04-12T12:52:35.063Z</time></trkpt><trkpt lat="44.5255767" lon="7.9783767"><ele>358.0</ele><time>2026-04-12T12:52:36.063Z</time></trkpt><trkpt lat="44.5255783" lon="7.978275"><ele>357.16666666666663</ele><time>2026-04-12T12:52:37.065Z</time></trkpt><trkpt lat="44.5255867" lon="7.97817"><ele>356.3333333333333</ele><time>2026-04-12T12:52:38.063Z</time></trkpt><trkpt lat="44.5255933" lon="7.9780633"><ele>355.5</ele><time>2026-04-12T12:52:39.064Z</time></trkpt><trkpt lat="44.5256183" lon="7.9779583"><ele>354.6666666666667</ele><time>2026-04-12T12:52:40.062Z</time></trkpt><trkpt lat="44.5256517" lon="7.97786"><ele>353.83333333333337</ele><time>2026-04-12T12:52:41.059Z</time></trkpt><trkpt lat="44.5256933" lon="7.9777717"><ele>353.0</ele><time>2026-04-12T12:52:42.063Z</time></trkpt><trkpt lat="44.5257433" lon="7.97769"><ele>353.0</ele><time>2026-04-12T12:52:43.063Z</time></trkpt><trkpt lat="44.52579" lon="7.97761"><ele>353.0</ele><time>2026-04-12T12:52:44.062Z</time></trkpt><trkpt lat="44.52584" lon="7.977535"><ele>353.0</ele><time>2026-04-12T12:52:45.066Z</time></trkpt><trkpt lat="44.5259" lon="7.9774683"><ele>353.0</ele><time>2026-04-12T12:52:46.062Z</time></trkpt><trkpt lat="44.5259633" lon="7.9774"><ele>353.0</ele><time>2026-04-12T12:52:47.062Z</time></trkpt><trkpt lat="44.52603" lon="7.97734"><ele>353.0</ele><time>2026-04-12T12:52:48.064Z</time></trkpt><trkpt lat="44.5260983" lon="7.9772817"><ele>353.6666666666667</ele><time>2026-04-12T12:52:49.063Z</time></trkpt><trkpt lat="44.526165" lon="7.9772133"><ele>354.33333333333337</ele><time>2026-04-12T12:52:50.063Z</time></trkpt><trkpt lat="44.5262283" lon="7.9771433"><ele>355.0</ele><time>2026-04-12T12:52:51.063Z</time></trkpt><trkpt lat="44.5262867" lon="7.977075"><ele>355.6666666666667</ele><time>2026-04-12T12:52:52.063Z</time></trkpt><trkpt lat="44.5263533" lon="7.977005"><ele>356.3333333333333</ele><time>2026-04-12T12:52:53.062Z</time></trkpt><trkpt lat="44.526415" lon="7.97694"><ele>357.0</ele><time>2026-04-12T12:52:54.063Z</time></trkpt><trkpt lat="44.526475" lon="7.9768783"><ele>357.0</ele><time>2026-04-12T12:52:55.064Z</time></trkpt><trkpt lat="44.5265317" lon="7.97682"><ele>357.0</ele><time>2026-04-12T12:52:56.064Z</time></trkpt><trkpt lat="44.52658" lon="7.9767583"><ele>357.0</ele><time>2026-04-12T12:52:57.063Z</time></trkpt><trkpt lat="44.5266317" lon="7.9767017"><ele>357.0</ele><time>2026-04-12T12:52:58.063Z</time></trkpt><trkpt lat="44.52673" lon="7.9765967"><ele>357.0</ele><time>2026-04-12T12:53:00.062Z</time></trkpt><trkpt lat="44.5268283" lon="7.97649"><ele>357.0</ele><time>2026-04-12T12:53:02.063Z</time></trkpt><trkpt lat="44.5269267" lon="7.9763817"><ele>357.6</ele><time>2026-04-12T12:53:04.063Z</time></trkpt><trkpt lat="44.526975" lon="7.976325"><ele>358.20000000000005</ele><time>2026-04-12T12:53:05.064Z</time></trkpt><trkpt lat="44.5270233" lon="7.9762683"><ele>358.8</ele><time>2026-04-12T12:53:06.062Z</time></trkpt><trkpt lat="44.52712" lon="7.976165"><ele>359.4</ele><time>2026-04-12T12:53:08.063Z</time></trkpt><trkpt lat="44.5272117" lon="7.9760667"><ele>360.0</ele><time>2026-04-12T12:53:10.064Z</time></trkpt><trkpt lat="44.5272967" lon="7.9759617"><ele>360.0</ele><time>2026-04-12T12:53:12.064Z</time></trkpt><trkpt lat="44.5273817" lon="7.9758583"><ele>360.0</ele><time>2026-04-12T12:53:14.065Z</time></trkpt><trkpt lat="44.5274667" lon="7.9757617"><ele>360.0</ele><time>2026-04-12T12:53:16.062Z</time></trkpt><trkpt lat="44.52755" lon="7.9756667"><ele>360.0</ele><time>2026-04-12T12:53:18.063Z</time></trkpt><trkpt lat="44.5276317" lon="7.9755733"><ele>360.0</ele><time>2026-04-12T12:53:20.063Z</time></trkpt><trkpt lat="44.52771" lon="7.975485"><ele>361.2</ele><time>2026-04-12T12:53:22.063Z</time></trkpt><trkpt lat="44.5277883" lon="7.9753983"><ele>362.4</ele><time>2026-04-12T12:53:24.062Z</time></trkpt><trkpt lat="44.527865" lon="7.9753133"><ele>363.6</ele><time>2026-04-12T12:53:26.062Z</time></trkpt><trkpt lat="44.5279383" lon="7.9752083"><ele>364.8</ele><time>2026-04-12T12:53:28.062Z</time></trkpt><trkpt lat="44.5280117" lon="7.975115"><ele>366.0</ele><time>2026-04-12T12:53:30.063Z</time></trkpt><trkpt lat="44.5280783" lon="7.9750217"><ele>362.75</ele><time>2026-04-12T12:53:32.062Z</time></trkpt><trkpt lat="44.5281383" lon="7.9749117"><ele>359.5</ele><time>2026-04-12T12:53:34.062Z</time></trkpt><trkpt lat="44.5281983" lon="7.97478"><ele>356.25</ele><time>2026-04-12T12:53:36.062Z</time></trkpt><trkpt lat="44.528255" lon="7.9746367"><ele>353.0</ele><time>2026-04-12T12:53:38.063Z</time></trkpt><trkpt lat="44.5283267" lon="7.9744933"><ele>353.0</ele><time>2026-04-12T12:53:40.063Z</time></trkpt><trkpt lat="44.5283617" lon="7.9744083"><ele>353.0</ele><time>2026-04-12T12:53:41.063Z</time></trkpt><trkpt lat="44.5283983" lon="7.974325"><ele>353.0</ele><time>2026-04-12T12:53:42.063Z</time></trkpt><trkpt lat="44.528435" lon="7.9742367"><ele>353.0</ele><time>2026-04-12T12:53:43.065Z</time></trkpt><trkpt lat="44.5284717" lon="7.9741417"><ele>353.0</ele><time>2026-04-12T12:53:44.062Z</time></trkpt><trkpt lat="44.5285083" lon="7.974045"><ele>353.0</ele><time>2026-04-12T12:53:45.066Z</time></trkpt><trkpt lat="44.5285533" lon="7.9739467"><ele>355.0</ele><time>2026-04-12T12:53:46.062Z</time></trkpt><trkpt lat="44.528595" lon="7.973845"><ele>357.0</ele><time>2026-04-12T12:53:47.063Z</time></trkpt><trkpt lat="44.5286417" lon="7.9737367"><ele>359.0</ele><time>2026-04-12T12:53:48.063Z</time></trkpt><trkpt lat="44.5286933" lon="7.9736283"><ele>361.0</ele><time>2026-04-12T12:53:49.065Z</time></trkpt><trkpt lat="44.5287433" lon="7.9735167"><ele>363.0</ele><time>2026-04-12T12:53:50.063Z</time></trkpt><trkpt lat="44.5287933" lon="7.973405"><ele>360.4</ele><time>2026-04-12T12:53:51.063Z</time></trkpt><trkpt lat="44.5288417" lon="7.9732883"><ele>357.79999999999995</ele><time>2026-04-12T12:53:52.063Z</time></trkpt><trkpt lat="44.5288933" lon="7.973175"><ele>355.2</ele><time>2026-04-12T12:53:53.065Z</time></trkpt><trkpt lat="44.528945" lon="7.97306"><ele>352.6</ele><time>2026-04-12T12:53:54.063Z</time></trkpt><trkpt lat="44.52899" lon="7.97294"><ele>350.0</ele><time>2026-04-12T12:53:55.064Z</time></trkpt><trkpt lat="44.52904" lon="7.9728183"><ele>350.0</ele><time>2026-04-12T12:53:56.064Z</time></trkpt><trkpt lat="44.5291033" lon="7.9727083"><ele>350.0</ele><time>2026-04-12T12:53:57.069Z</time></trkpt><trkpt lat="44.529165" lon="7.972595"><ele>350.0</ele><time>2026-04-12T12:53:58.062Z</time></trkpt><trkpt lat="44.5292183" lon="7.972475"><ele>350.0</ele><time>2026-04-12T12:53:59.066Z</time></trkpt><trkpt lat="44.52927" lon="7.9723567"><ele>350.0</ele><time>2026-04-12T12:54:00.064Z</time></trkpt><trkpt lat="44.5293267" lon="7.9722383"><ele>347.2</ele><time>2026-04-12T12:54:01.064Z</time></trkpt><trkpt lat="44.5293833" lon="7.9721167"><ele>344.4</ele><time>2026-04-12T12:54:02.063Z</time></trkpt><trkpt lat="44.5294417" lon="7.9719967"><ele>341.6</ele><time>2026-04-12T12:54:03.065Z</time></trkpt><trkpt lat="44.5294967" lon="7.97187"><ele>338.8</ele><time>2026-04-12T12:54:04.066Z</time></trkpt><trkpt lat="44.5295533" lon="7.9717417"><ele>336.0</ele><time>2026-04-12T12:54:05.063Z</time></trkpt><trkpt lat="44.5296083" lon="7.9716117"><ele>336.0</ele><time>2026-04-12T12:54:06.065Z</time></trkpt><trkpt lat="44.529665" lon="7.9714833"><ele>336.0</ele><time>2026-04-12T12:54:07.063Z</time></trkpt><trkpt lat="44.529725" lon="7.971355"><ele>336.0</ele><time>2026-04-12T12:54:08.062Z</time></trkpt><trkpt lat="44.5297833" lon="7.9712267"><ele>336.0</ele><time>2026-04-12T12:54:09.064Z</time></trkpt><trkpt lat="44.52984" lon="7.9711033"><ele>336.0</ele><time>2026-04-12T12:54:10.065Z</time></trkpt><trkpt lat="44.5298983" lon="7.9709783"><ele>333.8</ele><time>2026-04-12T12:54:11.064Z</time></trkpt><trkpt lat="44.5299583" lon="7.9708517"><ele>331.6</ele><time>2026-04-12T12:54:12.065Z</time></trkpt><trkpt lat="44.530015" lon="7.97072"><ele>329.4</ele><time>2026-04-12T12:54:13.064Z</time></trkpt><trkpt lat="44.5300733" lon="7.9705917"><ele>327.2</ele><time>2026-04-12T12:54:14.064Z</time></trkpt><trkpt lat="44.5301333" lon="7.97046"><ele>325.0</ele><time>2026-04-12T12:54:15.065Z</time></trkpt><trkpt lat="44.5301933" lon="7.9703267"><ele>325.0</ele><time>2026-04-12T12:54:16.065Z</time></trkpt><trkpt lat="44.53025" lon="7.9701917"><ele>325.0</ele><time>2026-04-12T12:54:17.066Z</time></trkpt><trkpt lat="44.5303067" lon="7.9700517"><ele>325.0</ele><time>2026-04-12T12:54:18.062Z</time></trkpt><trkpt lat="44.5303633" lon="7.9699133"><ele>325.0</ele><time>2026-04-12T12:54:19.064Z</time></trkpt><trkpt lat="44.5304217" lon="7.9697783"><ele>325.8</ele><time>2026-04-12T12:54:20.063Z</time></trkpt><trkpt lat="44.5304817" lon="7.9696383"><ele>326.6</ele><time>2026-04-12T12:54:21.061Z</time></trkpt><trkpt lat="44.5305417" lon="7.9695033"><ele>327.4</ele><time>2026-04-12T12:54:22.063Z</time></trkpt><trkpt lat="44.5306" lon="7.9693733"><ele>328.2</ele><time>2026-04-12T12:54:23.062Z</time></trkpt><trkpt lat="44.5306567" lon="7.9692467"><ele>329.0</ele><time>2026-04-12T12:54:24.063Z</time></trkpt><trkpt lat="44.5307133" lon="7.9691217"><ele>326.59999999999997</ele><time>2026-04-12T12:54:25.063Z</time></trkpt><trkpt lat="44.53077" lon="7.9689967"><ele>324.2</ele><time>2026-04-12T12:54:26.064Z</time></trkpt><trkpt lat="44.5308233" lon="7.968875"><ele>321.79999999999995</ele><time>2026-04-12T12:54:27.064Z</time></trkpt><trkpt lat="44.5308767" lon="7.9687517"><ele>319.4</ele><time>2026-04-12T12:54:28.064Z</time></trkpt><trkpt lat="44.53093" lon="7.9686267"><ele>317.0</ele><time>2026-04-12T12:54:29.062Z</time></trkpt><trkpt lat="44.5309867" lon="7.96851"><ele>317.0</ele><time>2026-04-12T12:54:30.062Z</time></trkpt><trkpt lat="44.5310417" lon="7.9683883"><ele>317.0</ele><time>2026-04-12T12:54:31.063Z</time></trkpt><trkpt lat="44.5310983" lon="7.968265"><ele>317.0</ele><time>2026-04-12T12:54:32.063Z</time></trkpt><trkpt lat="44.531155" lon="7.9681433"><ele>317.0</ele><time>2026-04-12T12:54:33.066Z</time></trkpt><trkpt lat="44.53121" lon="7.9680217"><ele>317.0</ele><time>2026-04-12T12:54:34.062Z</time></trkpt><trkpt lat="44.5312633" lon="7.967895"><ele>316.4</ele><time>2026-04-12T12:54:35.062Z</time></trkpt><trkpt lat="44.53132" lon="7.9677683"><ele>315.79999999999995</ele><time>2026-04-12T12:54:36.062Z</time></trkpt><trkpt lat="44.5313767" lon="7.96764"><ele>315.2</ele><time>2026-04-12T12:54:37.063Z</time></trkpt><trkpt lat="44.531435" lon="7.9675083"><ele>314.59999999999997</ele><time>2026-04-12T12:54:38.064Z</time></trkpt><trkpt lat="44.531495" lon="7.9673783"><ele>314.0</ele><time>2026-04-12T12:54:39.063Z</time></trkpt><trkpt lat="44.5315567" lon="7.96725"><ele>314.0</ele><time>2026-04-12T12:54:40.065Z</time></trkpt><trkpt lat="44.53162" lon="7.9671183"><ele>314.0</ele><time>2026-04-12T12:54:41.066Z</time></trkpt><trkpt lat="44.53169" lon="7.9669917"><ele>314.0</ele><time>2026-04-12T12:54:42.063Z</time></trkpt><trkpt lat="44.5317683" lon="7.9668767"><ele>314.0</ele><time>2026-04-12T12:54:43.065Z</time></trkpt><trkpt lat="44.5318483" lon="7.9667683"><ele>312.8</ele><time>2026-04-12T12:54:44.063Z</time></trkpt><trkpt lat="44.5319267" lon="7.9666617"><ele>311.59999999999997</ele><time>2026-04-12T12:54:45.062Z</time></trkpt><trkpt lat="44.5320033" lon="7.9665517"><ele>310.4</ele><time>2026-04-12T12:54:46.062Z</time></trkpt><trkpt lat="44.5320767" lon="7.96645"><ele>309.2</ele><time>2026-04-12T12:54:47.063Z</time></trkpt><trkpt lat="44.532145" lon="7.96634"><ele>308.0</ele><time>2026-04-12T12:54:48.064Z</time></trkpt><trkpt lat="44.53221" lon="7.9662317"><ele>307.6</ele><time>2026-04-12T12:54:49.068Z</time></trkpt><trkpt lat="44.53227" lon="7.9661233"><ele>307.20000000000005</ele><time>2026-04-12T12:54:50.062Z</time></trkpt><trkpt lat="44.5323267" lon="7.9660167"><ele>306.8</ele><time>2026-04-12T12:54:51.063Z</time></trkpt><trkpt lat="44.5323783" lon="7.9659033"><ele>306.40000000000003</ele><time>2026-04-12T12:54:52.064Z</time></trkpt><trkpt lat="44.532425" lon="7.9657883"><ele>306.0</ele><time>2026-04-12T12:54:53.062Z</time></trkpt><trkpt lat="44.53247" lon="7.9656783"><ele>306.0</ele><time>2026-04-12T12:54:54.062Z</time></trkpt><trkpt lat="44.5325167" lon="7.96557"><ele>306.0</ele><time>2026-04-12T12:54:55.065Z</time></trkpt><trkpt lat="44.53256" lon="7.9654633"><ele>306.0</ele><time>2026-04-12T12:54:56.064Z</time></trkpt><trkpt lat="44.5326" lon="7.9653567"><ele>306.0</ele><time>2026-04-12T12:54:57.063Z</time></trkpt><trkpt lat="44.5326417" lon="7.9652533"><ele>306.0</ele><time>2026-04-12T12:54:58.063Z</time></trkpt><trkpt lat="44.5326817" lon="7.9651517"><ele>306.0</ele><time>2026-04-12T12:54:59.062Z</time></trkpt><trkpt lat="44.5327233" lon="7.9650467"><ele>306.0</ele><time>2026-04-12T12:55:00.062Z</time></trkpt><trkpt lat="44.532765" lon="7.964945"><ele>306.0</ele><time>2026-04-12T12:55:01.063Z</time></trkpt><trkpt lat="44.5328067" lon="7.96484"><ele>306.0</ele><time>2026-04-12T12:55:02.063Z</time></trkpt><trkpt lat="44.5328483" lon="7.9647383"><ele>306.0</ele><time>2026-04-12T12:55:03.064Z</time></trkpt><trkpt lat="44.5328867" lon="7.9646333"><ele>306.0</ele><time>2026-04-12T12:55:04.066Z</time></trkpt><trkpt lat="44.5329217" lon="7.9645267"><ele>306.0</ele><time>2026-04-12T12:55:05.062Z</time></trkpt><trkpt lat="44.5329567" lon="7.9644167"><ele>306.6666666666667</ele><time>2026-04-12T12:55:06.063Z</time></trkpt><trkpt lat="44.5329917" lon="7.9643117"><ele>307.3333333333333</ele><time>2026-04-12T12:55:07.064Z</time></trkpt><trkpt lat="44.533025" lon="7.9642017"><ele>308.0</ele><time>2026-04-12T12:55:08.064Z</time></trkpt><trkpt lat="44.5330583" lon="7.9640933"><ele>308.66666666666663</ele><time>2026-04-12T12:55:09.065Z</time></trkpt><trkpt lat="44.5330917" lon="7.9639867"><ele>309.3333333333333</ele><time>2026-04-12T12:55:10.063Z</time></trkpt><trkpt lat="44.5331233" lon="7.96388"><ele>310.0</ele><time>2026-04-12T12:55:11.063Z</time></trkpt><trkpt lat="44.533155" lon="7.9637733"><ele>310.0</ele><time>2026-04-12T12:55:12.063Z</time></trkpt><trkpt lat="44.5331867" lon="7.9636667"><ele>310.0</ele><time>2026-04-12T12:55:13.065Z</time></trkpt><trkpt lat="44.5332183" lon="7.96356"><ele>310.0</ele><time>2026-04-12T12:55:14.063Z</time></trkpt><trkpt lat="44.5332517" lon="7.9634533"><ele>310.0</ele><time>2026-04-12T12:55:15.063Z</time></trkpt><trkpt lat="44.533285" lon="7.9633483"><ele>310.0</ele><time>2026-04-12T12:55:16.062Z</time></trkpt><trkpt lat="44.5333183" lon="7.9632383"><ele>310.0</ele><time>2026-04-12T12:55:17.056Z</time></trkpt><trkpt lat="44.53335" lon="7.9631317"><ele>309.66666666666663</ele><time>2026-04-12T12:55:18.064Z</time></trkpt><trkpt lat="44.5333833" lon="7.9630233"><ele>309.3333333333333</ele><time>2026-04-12T12:55:19.065Z</time></trkpt><trkpt lat="44.5334167" lon="7.9629183"><ele>309.0</ele><time>2026-04-12T12:55:20.065Z</time></trkpt><trkpt lat="44.5334467" lon="7.9628083"><ele>308.6666666666667</ele><time>2026-04-12T12:55:21.065Z</time></trkpt><trkpt lat="44.5334733" lon="7.9626983"><ele>308.33333333333337</ele><time>2026-04-12T12:55:22.062Z</time></trkpt><trkpt lat="44.5335" lon="7.9625867"><ele>308.0</ele><time>2026-04-12T12:55:23.067Z</time></trkpt><trkpt lat="44.533525" lon="7.9624733"><ele>307.6666666666667</ele><time>2026-04-12T12:55:24.062Z</time></trkpt><trkpt lat="44.5335433" lon="7.962355"><ele>307.33333333333337</ele><time>2026-04-12T12:55:25.064Z</time></trkpt><trkpt lat="44.533555" lon="7.9622367"><ele>307.0</ele><time>2026-04-12T12:55:26.063Z</time></trkpt><trkpt lat="44.5335617" lon="7.962115"><ele>306.6666666666667</ele><time>2026-04-12T12:55:27.07Z</time></trkpt><trkpt lat="44.5335683" lon="7.9619933"><ele>306.3333333333333</ele><time>2026-04-12T12:55:28.063Z</time></trkpt><trkpt lat="44.5335783" lon="7.961875"><ele>306.0</ele><time>2026-04-12T12:55:29.056Z</time></trkpt><trkpt lat="44.5335867" lon="7.96176"><ele>305.6666666666667</ele><time>2026-04-12T12:55:30.062Z</time></trkpt><trkpt lat="44.533595" lon="7.9616417"><ele>305.3333333333333</ele><time>2026-04-12T12:55:31.062Z</time></trkpt><trkpt lat="44.5336033" lon="7.9615183"><ele>305.0</ele><time>2026-04-12T12:55:32.062Z</time></trkpt><trkpt lat="44.5336167" lon="7.9613917"><ele>304.66666666666663</ele><time>2026-04-12T12:55:33.066Z</time></trkpt><trkpt lat="44.5336267" lon="7.961265"><ele>304.3333333333333</ele><time>2026-04-12T12:55:34.064Z</time></trkpt><trkpt lat="44.5336317" lon="7.9611367"><ele>304.0</ele><time>2026-04-12T12:55:35.064Z</time></trkpt><trkpt lat="44.5336333" lon="7.9610067"><ele>304.0</ele><time>2026-04-12T12:55:36.066Z</time></trkpt><trkpt lat="44.5336417" lon="7.96088"><ele>304.0</ele><time>2026-04-12T12:55:37.064Z</time></trkpt><trkpt lat="44.53365" lon="7.9607517"><ele>304.0</ele><time>2026-04-12T12:55:38.063Z</time></trkpt><trkpt lat="44.533655" lon="7.9606233"><ele>304.0</ele><time>2026-04-12T12:55:39.058Z</time></trkpt><trkpt lat="44.53366" lon="7.9604933"><ele>304.0</ele><time>2026-04-12T12:55:40.06Z</time></trkpt><trkpt lat="44.533665" lon="7.9603667"><ele>303.66666666666663</ele><time>2026-04-12T12:55:41.06Z</time></trkpt><trkpt lat="44.53367" lon="7.9602383"><ele>303.3333333333333</ele><time>2026-04-12T12:55:42.062Z</time></trkpt><trkpt lat="44.5336733" lon="7.960115"><ele>303.0</ele><time>2026-04-12T12:55:43.065Z</time></trkpt><trkpt lat="44.533675" lon="7.9599917"><ele>302.6666666666667</ele><time>2026-04-12T12:55:44.064Z</time></trkpt><trkpt lat="44.53368" lon="7.959865"><ele>302.33333333333337</ele><time>2026-04-12T12:55:45.062Z</time></trkpt><trkpt lat="44.5336833" lon="7.95974"><ele>302.0</ele><time>2026-04-12T12:55:46.063Z</time></trkpt><trkpt lat="44.533685" lon="7.9596167"><ele>301.33333333333337</ele><time>2026-04-12T12:55:47.064Z</time></trkpt><trkpt lat="44.533685" lon="7.9594933"><ele>300.6666666666667</ele><time>2026-04-12T12:55:48.062Z</time></trkpt><trkpt lat="44.5336867" lon="7.9593683"><ele>300.0</ele><time>2026-04-12T12:55:49.06Z</time></trkpt><trkpt lat="44.533685" lon="7.9592433"><ele>299.3333333333333</ele><time>2026-04-12T12:55:50.057Z</time></trkpt><trkpt lat="44.53368" lon="7.9591183"><ele>298.66666666666663</ele><time>2026-04-12T12:55:51.063Z</time></trkpt><trkpt lat="44.5336717" lon="7.9589967"><ele>298.0</ele><time>2026-04-12T12:55:52.061Z</time></trkpt><trkpt lat="44.533665" lon="7.9588733"><ele>298.0</ele><time>2026-04-12T12:55:53.061Z</time></trkpt><trkpt lat="44.5336583" lon="7.95875"><ele>298.0</ele><time>2026-04-12T12:55:54.063Z</time></trkpt><trkpt lat="44.5336517" lon="7.9586283"><ele>298.0</ele><time>2026-04-12T12:55:55.063Z</time></trkpt><trkpt lat="44.533645" lon="7.9585017"><ele>298.0</ele><time>2026-04-12T12:55:56.063Z</time></trkpt><trkpt lat="44.5336367" lon="7.9583783"><ele>298.0</ele><time>2026-04-12T12:55:57.063Z</time></trkpt><trkpt lat="44.53363" lon="7.9582567"><ele>298.0</ele><time>2026-04-12T12:55:58.064Z</time></trkpt><trkpt lat="44.5336217" lon="7.958135"><ele>298.0</ele><time>2026-04-12T12:55:59.063Z</time></trkpt><trkpt lat="44.53361" lon="7.9580117"><ele>298.0</ele><time>2026-04-12T12:56:00.063Z</time></trkpt><trkpt lat="44.5336" lon="7.9578867"><ele>298.0</ele><time>2026-04-12T12:56:01.063Z</time></trkpt><trkpt lat="44.5335917" lon="7.957765"><ele>298.0</ele><time>2026-04-12T12:56:02.065Z</time></trkpt><trkpt lat="44.5335783" lon="7.9576383"><ele>298.0</ele><time>2026-04-12T12:56:03.062Z</time></trkpt><trkpt lat="44.5335683" lon="7.9575133"><ele>298.0</ele><time>2026-04-12T12:56:04.059Z</time></trkpt><trkpt lat="44.5335583" lon="7.95739"><ele>298.5</ele><time>2026-04-12T12:56:05.06Z</time></trkpt><trkpt lat="44.5335517" lon="7.9572733"><ele>299.0</ele><time>2026-04-12T12:56:06.063Z</time></trkpt><trkpt lat="44.5335383" lon="7.95716"><ele>299.5</ele><time>2026-04-12T12:56:07.061Z</time></trkpt><trkpt lat="44.5335167" lon="7.95705"><ele>300.0</ele><time>2026-04-12T12:56:08.062Z</time></trkpt><trkpt lat="44.5334867" lon="7.9569433"><ele>300.5</ele><time>2026-04-12T12:56:09.064Z</time></trkpt><trkpt lat="44.53346" lon="7.9568333"><ele>301.0</ele><time>2026-04-12T12:56:10.062Z</time></trkpt><trkpt lat="44.53343" lon="7.9567183"><ele>301.40000000000003</ele><time>2026-04-12T12:56:11.062Z</time></trkpt><trkpt lat="44.5334033" lon="7.9566"><ele>301.8</ele><time>2026-04-12T12:56:12.063Z</time></trkpt><trkpt lat="44.5333783" lon="7.9564733"><ele>302.20000000000005</ele><time>2026-04-12T12:56:13.065Z</time></trkpt><trkpt lat="44.5333533" lon="7.956345"><ele>302.6</ele><time>2026-04-12T12:56:14.063Z</time></trkpt><trkpt lat="44.5333267" lon="7.9562167"><ele>303.0</ele><time>2026-04-12T12:56:15.063Z</time></trkpt><trkpt lat="44.5332967" lon="7.9560867"><ele>303.0</ele><time>2026-04-12T12:56:16.061Z</time></trkpt><trkpt lat="44.5332667" lon="7.95595"><ele>303.0</ele><time>2026-04-12T12:56:17.063Z</time></trkpt><trkpt lat="44.5332383" lon="7.955815"><ele>303.0</ele><time>2026-04-12T12:56:18.062Z</time></trkpt><trkpt lat="44.53321" lon="7.95568"><ele>303.0</ele><time>2026-04-12T12:56:19.062Z</time></trkpt><trkpt lat="44.5331767" lon="7.9555483"><ele>303.0</ele><time>2026-04-12T12:56:20.063Z</time></trkpt><trkpt lat="44.5331483" lon="7.955415"><ele>302.8</ele><time>2026-04-12T12:56:21.057Z</time></trkpt><trkpt lat="44.53312" lon="7.9552783"><ele>302.6</ele><time>2026-04-12T12:56:22.063Z</time></trkpt><trkpt lat="44.5330883" lon="7.9551467"><ele>302.4</ele><time>2026-04-12T12:56:23.063Z</time></trkpt><trkpt lat="44.5330583" lon="7.9550133"><ele>302.2</ele><time>2026-04-12T12:56:24.06Z</time></trkpt><trkpt lat="44.5330317" lon="7.95488"><ele>302.0</ele><time>2026-04-12T12:56:25.062Z</time></trkpt><trkpt lat="44.533005" lon="7.9547467"><ele>301.6</ele><time>2026-04-12T12:56:26.064Z</time></trkpt><trkpt lat="44.5329767" lon="7.9546167"><ele>301.2</ele><time>2026-04-12T12:56:27.062Z</time></trkpt><trkpt lat="44.5329467" lon="7.95449"><ele>300.8</ele><time>2026-04-12T12:56:28.062Z</time></trkpt><trkpt lat="44.53292" lon="7.95436"><ele>300.4</ele><time>2026-04-12T12:56:29.06Z</time></trkpt><trkpt lat="44.5329017" lon="7.9542283"><ele>300.0</ele><time>2026-04-12T12:56:30.062Z</time></trkpt><trkpt lat="44.5328683" lon="7.9541067"><ele>299.1666666666667</ele><time>2026-04-12T12:56:31.063Z</time></trkpt><trkpt lat="44.53285" lon="7.95399"><ele>298.3333333333333</ele><time>2026-04-12T12:56:32.062Z</time></trkpt><trkpt lat="44.5328317" lon="7.9538717"><ele>297.5</ele><time>2026-04-12T12:56:33.064Z</time></trkpt><trkpt lat="44.5328067" lon="7.9537583"><ele>296.66666666666663</ele><time>2026-04-12T12:56:34.062Z</time></trkpt><trkpt lat="44.5327783" lon="7.95365"><ele>295.8333333333333</ele><time>2026-04-12T12:56:35.06Z</time></trkpt><trkpt lat="44.53275" lon="7.9535483"><ele>295.0</ele><time>2026-04-12T12:56:36.063Z</time></trkpt><trkpt lat="44.5327267" lon="7.9534517"><ele>295.28571428571433</ele><time>2026-04-12T12:56:37.067Z</time></trkpt><trkpt lat="44.5327067" lon="7.9533533"><ele>295.57142857142856</ele><time>2026-04-12T12:56:38.06Z</time></trkpt><trkpt lat="44.5326783" lon="7.9532567"><ele>295.8571428571429</ele><time>2026-04-12T12:56:39.062Z</time></trkpt><trkpt lat="44.5326533" lon="7.95316"><ele>296.14285714285717</ele><time>2026-04-12T12:56:40.062Z</time></trkpt><trkpt lat="44.5326267" lon="7.953065"><ele>296.42857142857144</ele><time>2026-04-12T12:56:41.062Z</time></trkpt><trkpt lat="44.5325983" lon="7.95297"><ele>296.7142857142857</ele><time>2026-04-12T12:56:42.062Z</time></trkpt><trkpt lat="44.532575" lon="7.9528717"><ele>297.0</ele><time>2026-04-12T12:56:43.062Z</time></trkpt><trkpt lat="44.5325517" lon="7.9527717"><ele>297.0</ele><time>2026-04-12T12:56:44.061Z</time></trkpt><trkpt lat="44.53253" lon="7.9526733"><ele>297.0</ele><time>2026-04-12T12:56:45.058Z</time></trkpt><trkpt lat="44.532505" lon="7.9525767"><ele>297.0</ele><time>2026-04-12T12:56:46.063Z</time></trkpt><trkpt lat="44.5324783" lon="7.9524783"><ele>297.0</ele><time>2026-04-12T12:56:47.065Z</time></trkpt><trkpt lat="44.5324533" lon="7.9523817"><ele>297.0</ele><time>2026-04-12T12:56:48.063Z</time></trkpt><trkpt lat="44.5324233" lon="7.9522883"><ele>297.0</ele><time>2026-04-12T12:56:49.063Z</time></trkpt><trkpt lat="44.5323983" lon="7.9521967"><ele>297.0</ele><time>2026-04-12T12:56:50.064Z</time></trkpt><trkpt lat="44.5323783" lon="7.9521033"><ele>296.7142857142857</ele><time>2026-04-12T12:56:51.067Z</time></trkpt><trkpt lat="44.53236" lon="7.95201"><ele>296.42857142857144</ele><time>2026-04-12T12:56:52.065Z</time></trkpt><trkpt lat="44.5323367" lon="7.9519133"><ele>296.14285714285717</ele><time>2026-04-12T12:56:53.064Z</time></trkpt><trkpt lat="44.5323117" lon="7.951815"><ele>295.8571428571429</ele><time>2026-04-12T12:56:54.064Z</time></trkpt><trkpt lat="44.53229" lon="7.9517217"><ele>295.57142857142856</ele><time>2026-04-12T12:56:55.065Z</time></trkpt><trkpt lat="44.53226" lon="7.9516317"><ele>295.28571428571433</ele><time>2026-04-12T12:56:56.062Z</time></trkpt><trkpt lat="44.532235" lon="7.9515383"><ele>295.0</ele><time>2026-04-12T12:56:57.077Z</time></trkpt><trkpt lat="44.5322017" lon="7.95144"><ele>295.00000000000006</ele><time>2026-04-12T12:56:58.057Z</time></trkpt><trkpt lat="44.5321783" lon="7.95134"><ele>295.0</ele><time>2026-04-12T12:56:59.061Z</time></trkpt><trkpt lat="44.5321483" lon="7.9512433"><ele>295.0</ele><time>2026-04-12T12:57:00.06Z</time></trkpt><trkpt lat="44.53212" lon="7.95115"><ele>295.0</ele><time>2026-04-12T12:57:01.058Z</time></trkpt><trkpt lat="44.5321" lon="7.95105"><ele>295.0</ele><time>2026-04-12T12:57:02.057Z</time></trkpt><trkpt lat="44.5320833" lon="7.9509467"><ele>295.00000000000006</ele><time>2026-04-12T12:57:03.059Z</time></trkpt><trkpt lat="44.53207" lon="7.95084"><ele>295.0</ele><time>2026-04-12T12:57:04.058Z</time></trkpt><trkpt lat="44.5320667" lon="7.9507367"><ele>295.00000000000006</ele><time>2026-04-12T12:57:05.057Z</time></trkpt><trkpt lat="44.5320667" lon="7.9506383"><ele>295.0</ele><time>2026-04-12T12:57:06.061Z</time></trkpt><trkpt lat="44.53207" lon="7.9505433"><ele>295.0</ele><time>2026-04-12T12:57:07.06Z</time></trkpt><trkpt lat="44.5320733" lon="7.9504467"><ele>295.0</ele><time>2026-04-12T12:57:08.065Z</time></trkpt><trkpt lat="44.5320717" lon="7.950355"><ele>295.0</ele><time>2026-04-12T12:57:09.065Z</time></trkpt><trkpt lat="44.5320667" lon="7.9502633"><ele>295.00000000000006</ele><time>2026-04-12T12:57:10.061Z</time></trkpt><trkpt lat="44.5320633" lon="7.9501683"><ele>295.0</ele><time>2026-04-12T12:57:11.063Z</time></trkpt><trkpt lat="44.5320633" lon="7.9500717"><ele>295.00000000000006</ele><time>2026-04-12T12:57:12.062Z</time></trkpt><trkpt lat="44.53206" lon="7.9499733"><ele>295.0</ele><time>2026-04-12T12:57:13.064Z</time></trkpt><trkpt lat="44.532045" lon="7.9498833"><ele>295.0</ele><time>2026-04-12T12:57:14.063Z</time></trkpt><trkpt lat="44.5320267" lon="7.949785"><ele>295.0</ele><time>2026-04-12T12:57:15.06Z</time></trkpt><trkpt lat="44.5319817" lon="7.949715"><ele>295.0</ele><time>2026-04-12T12:57:16.064Z</time></trkpt><trkpt lat="44.5319233" lon="7.9496583"><ele>295.00000000000006</ele><time>2026-04-12T12:57:17.063Z</time></trkpt><trkpt lat="44.5318667" lon="7.949595"><ele>295.0</ele><time>2026-04-12T12:57:18.063Z</time></trkpt><trkpt lat="44.5318033" lon="7.94954"><ele>294.3333333333333</ele><time>2026-04-12T12:57:19.062Z</time></trkpt><trkpt lat="44.5317383" lon="7.9494983"><ele>293.66666666666663</ele><time>2026-04-12T12:57:20.063Z</time></trkpt><trkpt lat="44.531665" lon="7.9494667"><ele>293.0</ele><time>2026-04-12T12:57:21.063Z</time></trkpt><trkpt lat="44.5315867" lon="7.94944"><ele>292.3333333333333</ele><time>2026-04-12T12:57:22.064Z</time></trkpt><trkpt lat="44.5315" lon="7.949425"><ele>291.6666666666667</ele><time>2026-04-12T12:57:23.065Z</time></trkpt><trkpt lat="44.5314133" lon="7.94941"><ele>291.0</ele><time>2026-04-12T12:57:24.062Z</time></trkpt><trkpt lat="44.5313283" lon="7.9493983"><ele>291.0</ele><time>2026-04-12T12:57:25.062Z</time></trkpt><trkpt lat="44.5312417" lon="7.9493883"><ele>291.0</ele><time>2026-04-12T12:57:26.064Z</time></trkpt><trkpt lat="44.5311533" lon="7.9493817"><ele>291.0</ele><time>2026-04-12T12:57:27.064Z</time></trkpt><trkpt lat="44.531065" lon="7.9493833"><ele>291.0</ele><time>2026-04-12T12:57:28.064Z</time></trkpt><trkpt lat="44.5309783" lon="7.94939"><ele>291.0</ele><time>2026-04-12T12:57:29.062Z</time></trkpt><trkpt lat="44.5308983" lon="7.949395"><ele>291.0</ele><time>2026-04-12T12:57:30.064Z</time></trkpt><trkpt lat="44.53082" lon="7.9493833"><ele>290.6666666666667</ele><time>2026-04-12T12:57:31.061Z</time></trkpt><trkpt lat="44.5307533" lon="7.9493433"><ele>290.3333333333333</ele><time>2026-04-12T12:57:32.063Z</time></trkpt><trkpt lat="44.5307167" lon="7.949265"><ele>290.0</ele><time>2026-04-12T12:57:33.062Z</time></trkpt><trkpt lat="44.5307183" lon="7.9491533"><ele>289.66666666666663</ele><time>2026-04-12T12:57:34.063Z</time></trkpt><trkpt lat="44.5307333" lon="7.9490467"><ele>289.3333333333333</ele><time>2026-04-12T12:57:35.062Z</time></trkpt><trkpt lat="44.530755" lon="7.94894"><ele>289.0</ele><time>2026-04-12T12:57:36.062Z</time></trkpt><trkpt lat="44.5307733" lon="7.94883"><ele>289.0</ele><time>2026-04-12T12:57:37.063Z</time></trkpt><trkpt lat="44.5307883" lon="7.9487167"><ele>289.0</ele><time>2026-04-12T12:57:38.064Z</time></trkpt><trkpt lat="44.5308" lon="7.9486017"><ele>289.0</ele><time>2026-04-12T12:57:39.063Z</time></trkpt><trkpt lat="44.5308117" lon="7.9484867"><ele>289.0</ele><time>2026-04-12T12:57:40.063Z</time></trkpt><trkpt lat="44.530825" lon="7.94837"><ele>289.0</ele><time>2026-04-12T12:57:41.062Z</time></trkpt><trkpt lat="44.530845" lon="7.948255"><ele>289.0</ele><time>2026-04-12T12:57:42.064Z</time></trkpt><trkpt lat="44.5308583" lon="7.9481383"><ele>289.0</ele><time>2026-04-12T12:57:43.062Z</time></trkpt><trkpt lat="44.53087" lon="7.948025"><ele>289.0</ele><time>2026-04-12T12:57:44.063Z</time></trkpt><trkpt lat="44.5308817" lon="7.947915"><ele>289.0</ele><time>2026-04-12T12:57:45.064Z</time></trkpt><trkpt lat="44.5308917" lon="7.9478083"><ele>289.0</ele><time>2026-04-12T12:57:46.062Z</time></trkpt><trkpt lat="44.5309017" lon="7.9477033"><ele>289.0</ele><time>2026-04-12T12:57:47.062Z</time></trkpt><trkpt lat="44.5309167" lon="7.9476133"><ele>289.0</ele><time>2026-04-12T12:57:48.062Z</time></trkpt><trkpt lat="44.5309317" lon="7.94746"><ele>288.59999999999997</ele><time>2026-04-12T12:57:50.06Z</time></trkpt><trkpt lat="44.530955" lon="7.9473183"><ele>288.2</ele><time>2026-04-12T12:57:52.063Z</time></trkpt><trkpt lat="44.530975" lon="7.947175"><ele>287.79999999999995</ele><time>2026-04-12T12:57:54.062Z</time></trkpt><trkpt lat="44.53099" lon="7.9470183"><ele>287.4</ele><time>2026-04-12T12:57:56.064Z</time></trkpt><trkpt lat="44.531015" lon="7.94685"><ele>287.0</ele><time>2026-04-12T12:57:58.062Z</time></trkpt><trkpt lat="44.5310367" lon="7.946675"><ele>287.0</ele><time>2026-04-12T12:58:00.065Z</time></trkpt><trkpt lat="44.5310467" lon="7.9465867"><ele>287.0</ele><time>2026-04-12T12:58:01.063Z</time></trkpt><trkpt lat="44.531055" lon="7.946495"><ele>287.0</ele><time>2026-04-12T12:58:02.062Z</time></trkpt><trkpt lat="44.5310633" lon="7.9464033"><ele>287.0</ele><time>2026-04-12T12:58:03.064Z</time></trkpt><trkpt lat="44.5310717" lon="7.9463117"><ele>287.0</ele><time>2026-04-12T12:58:04.064Z</time></trkpt><trkpt lat="44.5310833" lon="7.94622"><ele>287.0</ele><time>2026-04-12T12:58:05.062Z</time></trkpt><trkpt lat="44.5310983" lon="7.94613"><ele>287.0</ele><time>2026-04-12T12:58:06.064Z</time></trkpt><trkpt lat="44.53111" lon="7.9460383"><ele>287.0</ele><time>2026-04-12T12:58:07.065Z</time></trkpt><trkpt lat="44.531115" lon="7.9459467"><ele>287.0</ele><time>2026-04-12T12:58:08.062Z</time></trkpt><trkpt lat="44.5311233" lon="7.9458567"><ele>287.0</ele><time>2026-04-12T12:58:09.064Z</time></trkpt><trkpt lat="44.5311267" lon="7.9457667"><ele>287.0</ele><time>2026-04-12T12:58:10.064Z</time></trkpt><trkpt lat="44.5311333" lon="7.9456783"><ele>287.0</ele><time>2026-04-12T12:58:11.061Z</time></trkpt><trkpt lat="44.53114" lon="7.9455217"><ele>287.0</ele><time>2026-04-12T12:58:13.064Z</time></trkpt><trkpt lat="44.5311467" lon="7.9454217"><ele>287.0</ele><time>2026-04-12T12:58:15.064Z</time></trkpt><trkpt lat="44.53117" lon="7.9453333"><ele>286.8</ele><time>2026-04-12T12:58:18.065Z</time></trkpt><trkpt lat="44.5311617" lon="7.9452233"><ele>286.6</ele><time>2026-04-12T12:58:21.066Z</time></trkpt><trkpt lat="44.5311683" lon="7.9451017"><ele>286.40000000000003</ele><time>2026-04-12T12:58:23.063Z</time></trkpt><trkpt lat="44.5311717" lon="7.9449533"><ele>286.2</ele><time>2026-04-12T12:58:25.062Z</time></trkpt><trkpt lat="44.5311917" lon="7.9447883"><ele>286.0</ele><time>2026-04-12T12:58:27.063Z</time></trkpt><trkpt lat="44.531205" lon="7.9446167"><ele>285.0</ele><time>2026-04-12T12:58:29.062Z</time></trkpt><trkpt lat="44.531225" lon="7.9444467"><ele>284.0</ele><time>2026-04-12T12:58:31.063Z</time></trkpt><trkpt lat="44.531245" lon="7.9442833"><ele>283.0</ele><time>2026-04-12T12:58:33.064Z</time></trkpt><trkpt lat="44.5312583" lon="7.9441217"><ele>282.0</ele><time>2026-04-12T12:58:35.063Z</time></trkpt><trkpt lat="44.5312567" lon="7.9439533"><ele>282.0</ele><time>2026-04-12T12:58:37.062Z</time></trkpt><trkpt lat="44.5312483" lon="7.9437817"><ele>282.0</ele><time>2026-04-12T12:58:39.064Z</time></trkpt><trkpt lat="44.5312133" lon="7.94362"><ele>282.0</ele><time>2026-04-12T12:58:41.061Z</time></trkpt><trkpt lat="44.5311633" lon="7.9435017"><ele>282.0</ele><time>2026-04-12T12:58:43.062Z</time></trkpt><trkpt lat="44.531135" lon="7.9433833"><ele>282.0</ele><time>2026-04-12T12:58:45.065Z</time></trkpt><trkpt lat="44.5311267" lon="7.943255"><ele>282.1666666666667</ele><time>2026-04-12T12:58:47.062Z</time></trkpt><trkpt lat="44.5311217" lon="7.943135"><ele>282.3333333333333</ele><time>2026-04-12T12:58:49.064Z</time></trkpt><trkpt lat="44.5311233" lon="7.9430167"><ele>282.5</ele><time>2026-04-12T12:58:51.066Z</time></trkpt><trkpt lat="44.5311" lon="7.9429167"><ele>282.66666666666663</ele><time>2026-04-12T12:58:53.063Z</time></trkpt><trkpt lat="44.5310217" lon="7.9428367"><ele>282.8333333333333</ele><time>2026-04-12T12:59:03.063Z</time></trkpt><trkpt lat="44.5309733" lon="7.94275"><ele>283.0</ele><time>2026-04-12T12:59:06.063Z</time></trkpt><trkpt lat="44.530905" lon="7.9427417"><ele>283.0</ele><time>2026-04-12T12:59:08.063Z</time></trkpt><trkpt lat="44.5308167" lon="7.9427417"><ele>283.0</ele><time>2026-04-12T12:59:10.062Z</time></trkpt><trkpt lat="44.5307117" lon="7.9427133"><ele>283.0</ele><time>2026-04-12T12:59:12.063Z</time></trkpt><trkpt lat="44.5306367" lon="7.9426417"><ele>283.0</ele><time>2026-04-12T12:59:14.064Z</time></trkpt><trkpt lat="44.5306017" lon="7.94252"><ele>283.0</ele><time>2026-04-12T12:59:16.062Z</time></trkpt><trkpt lat="44.5306017" lon="7.942375"><ele>282.8</ele><time>2026-04-12T12:59:18.063Z</time></trkpt><trkpt lat="44.5306083" lon="7.942215"><ele>282.6</ele><time>2026-04-12T12:59:20.062Z</time></trkpt><trkpt lat="44.5306167" lon="7.9420467"><ele>282.4</ele><time>2026-04-12T12:59:22.063Z</time></trkpt><trkpt lat="44.5306133" lon="7.9419583"><ele>282.2</ele><time>2026-04-12T12:59:23.063Z</time></trkpt><trkpt lat="44.5306067" lon="7.9417917"><ele>282.0</ele><time>2026-04-12T12:59:25.063Z</time></trkpt><trkpt lat="44.5306067" lon="7.9416183"><ele>281.6</ele><time>2026-04-12T12:59:27.067Z</time></trkpt><trkpt lat="44.5306117" lon="7.9414533"><ele>281.2</ele><time>2026-04-12T12:59:29.064Z</time></trkpt><trkpt lat="44.53061" lon="7.9412833"><ele>280.8</ele><time>2026-04-12T12:59:31.062Z</time></trkpt><trkpt lat="44.5306183" lon="7.9411917"><ele>280.4</ele><time>2026-04-12T12:59:32.063Z</time></trkpt><trkpt lat="44.5306117" lon="7.9410233"><ele>280.0</ele><time>2026-04-12T12:59:34.065Z</time></trkpt><trkpt lat="44.530605" lon="7.940935"><ele>280.0</ele><time>2026-04-12T12:59:35.063Z</time></trkpt><trkpt lat="44.5306067" lon="7.94076"><ele>280.0</ele><time>2026-04-12T12:59:37.064Z</time></trkpt><trkpt lat="44.5306033" lon="7.940585"><ele>280.0</ele><time>2026-04-12T12:59:39.065Z</time></trkpt><trkpt lat="44.5305983" lon="7.9404967"><ele>280.0</ele><time>2026-04-12T12:59:40.062Z</time></trkpt><trkpt lat="44.5305967" lon="7.9404083"><ele>280.0</ele><time>2026-04-12T12:59:41.063Z</time></trkpt><trkpt lat="44.5305917" lon="7.9403183"><ele>280.0</ele><time>2026-04-12T12:59:42.064Z</time></trkpt><trkpt lat="44.5306017" lon="7.9401433"><ele>279.6</ele><time>2026-04-12T12:59:44.063Z</time></trkpt><trkpt lat="44.53064" lon="7.9400183"><ele>279.2</ele><time>2026-04-12T12:59:46.061Z</time></trkpt><trkpt lat="44.5307133" lon="7.9399633"><ele>278.8</ele><time>2026-04-12T12:59:48.064Z</time></trkpt><trkpt lat="44.5307933" lon="7.9399767"><ele>278.4</ele><time>2026-04-12T12:59:50.062Z</time></trkpt><trkpt lat="44.530895" lon="7.9399917"><ele>278.0</ele><time>2026-04-12T12:59:52.058Z</time></trkpt><trkpt lat="44.5310117" lon="7.940005"><ele>278.0</ele><time>2026-04-12T12:59:54.062Z</time></trkpt><trkpt lat="44.531075" lon="7.9400067"><ele>278.0</ele><time>2026-04-12T12:59:55.064Z</time></trkpt><trkpt lat="44.53114" lon="7.9399967"><ele>278.0</ele><time>2026-04-12T12:59:56.063Z</time></trkpt><trkpt lat="44.5312633" lon="7.93999"><ele>278.0</ele><time>2026-04-12T12:59:58.062Z</time></trkpt><trkpt lat="44.5313783" lon="7.9399983"><ele>278.0</ele><time>2026-04-12T13:00:00.056Z</time></trkpt><trkpt lat="44.53148" lon="7.9399717"><ele>277.4</ele><time>2026-04-12T13:00:02.062Z</time></trkpt><trkpt lat="44.5315417" lon="7.9398367"><ele>276.8</ele><time>2026-04-12T13:00:04.065Z</time></trkpt><trkpt lat="44.5315533" lon="7.9396667"><ele>276.2</ele><time>2026-04-12T13:00:06.063Z</time></trkpt><trkpt lat="44.5315733" lon="7.9394917"><ele>275.6</ele><time>2026-04-12T13:00:08.062Z</time></trkpt><trkpt lat="44.5315783" lon="7.9394017"><ele>275.0</ele><time>2026-04-12T13:00:09.063Z</time></trkpt><trkpt lat="44.531585" lon="7.9393133"><ele>275.0</ele><time>2026-04-12T13:00:10.063Z</time></trkpt><trkpt lat="44.5315917" lon="7.93922"><ele>275.0</ele><time>2026-04-12T13:00:11.062Z</time></trkpt><trkpt lat="44.5315983" lon="7.9391267"><ele>275.0</ele><time>2026-04-12T13:00:12.064Z</time></trkpt><trkpt lat="44.531605" lon="7.9390333"><ele>275.0</ele><time>2026-04-12T13:00:13.063Z</time></trkpt><trkpt lat="44.53161" lon="7.9389383"><ele>275.0</ele><time>2026-04-12T13:00:14.062Z</time></trkpt><trkpt lat="44.5316183" lon="7.9388467"><ele>275.0</ele><time>2026-04-12T13:00:15.064Z</time></trkpt><trkpt lat="44.5316333" lon="7.938675"><ele>275.0</ele><time>2026-04-12T13:00:17.063Z</time></trkpt><trkpt lat="44.5316533" lon="7.9385017"><ele>275.0</ele><time>2026-04-12T13:00:19.062Z</time></trkpt><trkpt lat="44.5316617" lon="7.9384117"><ele>275.0</ele><time>2026-04-12T13:00:20.063Z</time></trkpt><trkpt lat="44.5316667" lon="7.93832"><ele>275.0</ele><time>2026-04-12T13:00:21.064Z</time></trkpt><trkpt lat="44.5316717" lon="7.93823"><ele>275.0</ele><time>2026-04-12T13:00:22.062Z</time></trkpt><trkpt lat="44.5316783" lon="7.938135"><ele>275.0</ele><time>2026-04-12T13:00:23.063Z</time></trkpt><trkpt lat="44.5316867" lon="7.9380417"><ele>274.8571428571429</ele><time>2026-04-12T13:00:24.062Z</time></trkpt><trkpt lat="44.5316933" lon="7.93795"><ele>274.7142857142857</ele><time>2026-04-12T13:00:25.062Z</time></trkpt><trkpt lat="44.5317" lon="7.937855"><ele>274.57142857142856</ele><time>2026-04-12T13:00:26.058Z</time></trkpt><trkpt lat="44.5317083" lon="7.9377617"><ele>274.42857142857144</ele><time>2026-04-12T13:00:27.065Z</time></trkpt><trkpt lat="44.5317133" lon="7.937665"><ele>274.2857142857143</ele><time>2026-04-12T13:00:28.063Z</time></trkpt><trkpt lat="44.53172" lon="7.937565"><ele>274.14285714285717</ele><time>2026-04-12T13:00:29.063Z</time></trkpt><trkpt lat="44.5317233" lon="7.9374683"><ele>274.0</ele><time>2026-04-12T13:00:30.064Z</time></trkpt><trkpt lat="44.53173" lon="7.93737"><ele>274.00000000000006</ele><time>2026-04-12T13:00:31.062Z</time></trkpt><trkpt lat="44.5317383" lon="7.9372733"><ele>274.0</ele><time>2026-04-12T13:00:32.063Z</time></trkpt><trkpt lat="44.531745" lon="7.9371783"><ele>274.0</ele><time>2026-04-12T13:00:33.062Z</time></trkpt><trkpt lat="44.5317533" lon="7.937085"><ele>274.0</ele><time>2026-04-12T13:00:34.064Z</time></trkpt><trkpt lat="44.53176" lon="7.93699"><ele>274.0</ele><time>2026-04-12T13:00:35.063Z</time></trkpt><trkpt lat="44.531765" lon="7.9368967"><ele>274.00000000000006</ele><time>2026-04-12T13:00:36.061Z</time></trkpt><trkpt lat="44.5317717" lon="7.9368067"><ele>274.0</ele><time>2026-04-12T13:00:37.063Z</time></trkpt><trkpt lat="44.5317817" lon="7.936715"><ele>273.7142857142857</ele><time>2026-04-12T13:00:38.063Z</time></trkpt><trkpt lat="44.53179" lon="7.9366233"><ele>273.42857142857144</ele><time>2026-04-12T13:00:39.064Z</time></trkpt><trkpt lat="44.5318" lon="7.9365333"><ele>273.1428571428571</ele><time>2026-04-12T13:00:40.064Z</time></trkpt><trkpt lat="44.53181" lon="7.9364433"><ele>272.8571428571429</ele><time>2026-04-12T13:00:41.063Z</time></trkpt><trkpt lat="44.5318183" lon="7.9363517"><ele>272.57142857142856</ele><time>2026-04-12T13:00:42.062Z</time></trkpt><trkpt lat="44.53183" lon="7.9362567"><ele>272.2857142857143</ele><time>2026-04-12T13:00:43.063Z</time></trkpt><trkpt lat="44.5318417" lon="7.936165"><ele>272.0</ele><time>2026-04-12T13:00:44.064Z</time></trkpt><trkpt lat="44.5318567" lon="7.936075"><ele>271.99999999999994</ele><time>2026-04-12T13:00:45.063Z</time></trkpt><trkpt lat="44.5318833" lon="7.935985"><ele>272.0</ele><time>2026-04-12T13:00:46.062Z</time></trkpt><trkpt lat="44.5319217" lon="7.935905"><ele>272.0</ele><time>2026-04-12T13:00:47.062Z</time></trkpt><trkpt lat="44.5319767" lon="7.93585"><ele>272.0</ele><time>2026-04-12T13:00:48.064Z</time></trkpt><trkpt lat="44.532035" lon="7.9358117"><ele>272.0</ele><time>2026-04-12T13:00:49.064Z</time></trkpt><trkpt lat="44.532095" lon="7.9357783"><ele>271.99999999999994</ele><time>2026-04-12T13:00:50.061Z</time></trkpt><trkpt lat="44.5321583" lon="7.9357467"><ele>272.0</ele><time>2026-04-12T13:00:51.063Z</time></trkpt><trkpt lat="44.53222" lon="7.9357117"><ele>271.99999999999994</ele><time>2026-04-12T13:00:52.06Z</time></trkpt><trkpt lat="44.5322833" lon="7.9356817"><ele>272.0</ele><time>2026-04-12T13:00:53.06Z</time></trkpt><trkpt lat="44.5323433" lon="7.93565"><ele>272.0</ele><time>2026-04-12T13:00:54.061Z</time></trkpt><trkpt lat="44.5324033" lon="7.9356217"><ele>272.0</ele><time>2026-04-12T13:00:55.06Z</time></trkpt><trkpt lat="44.5324667" lon="7.9355933"><ele>272.0</ele><time>2026-04-12T13:00:56.063Z</time></trkpt><trkpt lat="44.5325317" lon="7.93556"><ele>271.99999999999994</ele><time>2026-04-12T13:00:57.063Z</time></trkpt><trkpt lat="44.5325983" lon="7.935525"><ele>272.0</ele><time>2026-04-12T13:00:58.06Z</time></trkpt><trkpt lat="44.532665" lon="7.9354933"><ele>271.99999999999994</ele><time>2026-04-12T13:00:59.063Z</time></trkpt><trkpt lat="44.53273" lon="7.93546"><ele>272.0</ele><time>2026-04-12T13:01:00.06Z</time></trkpt><trkpt lat="44.5327967" lon="7.935425"><ele>272.0</ele><time>2026-04-12T13:01:01.062Z</time></trkpt><trkpt lat="44.5328633" lon="7.93539"><ele>272.0</ele><time>2026-04-12T13:01:02.063Z</time></trkpt><trkpt lat="44.5329317" lon="7.9353517"><ele>272.0</ele><time>2026-04-12T13:01:03.062Z</time></trkpt><trkpt lat="44.5329967" lon="7.935315"><ele>271.99999999999994</ele><time>2026-04-12T13:01:04.065Z</time></trkpt><trkpt lat="44.5330633" lon="7.9352767"><ele>272.0</ele><time>2026-04-12T13:01:05.062Z</time></trkpt><trkpt lat="44.53313" lon="7.9352417"><ele>272.1428571428571</ele><time>2026-04-12T13:01:06.062Z</time></trkpt><trkpt lat="44.5331983" lon="7.9352083"><ele>272.2857142857143</ele><time>2026-04-12T13:01:07.061Z</time></trkpt><trkpt lat="44.5332667" lon="7.9351717"><ele>272.42857142857144</ele><time>2026-04-12T13:01:08.064Z</time></trkpt><trkpt lat="44.5333333" lon="7.9351383"><ele>272.57142857142856</ele><time>2026-04-12T13:01:09.064Z</time></trkpt><trkpt lat="44.5334033" lon="7.935105"><ele>272.7142857142857</ele><time>2026-04-12T13:01:10.062Z</time></trkpt><trkpt lat="44.5334733" lon="7.9350667"><ele>272.85714285714283</ele><time>2026-04-12T13:01:11.063Z</time></trkpt><trkpt lat="44.5335417" lon="7.93503"><ele>273.0</ele><time>2026-04-12T13:01:12.061Z</time></trkpt><trkpt lat="44.5336117" lon="7.9349917"><ele>272.42857142857144</ele><time>2026-04-12T13:01:13.064Z</time></trkpt><trkpt lat="44.53368" lon="7.9349583"><ele>271.8571428571429</ele><time>2026-04-12T13:01:14.064Z</time></trkpt><trkpt lat="44.53375" lon="7.93492"><ele>271.2857142857143</ele><time>2026-04-12T13:01:15.064Z</time></trkpt><trkpt lat="44.53382" lon="7.9348883"><ele>270.7142857142857</ele><time>2026-04-12T13:01:16.062Z</time></trkpt><trkpt lat="44.5338883" lon="7.9348533"><ele>270.14285714285717</ele><time>2026-04-12T13:01:17.061Z</time></trkpt><trkpt lat="44.533955" lon="7.9348183"><ele>269.57142857142856</ele><time>2026-04-12T13:01:18.063Z</time></trkpt><trkpt lat="44.5340217" lon="7.9347833"><ele>269.0</ele><time>2026-04-12T13:01:19.064Z</time></trkpt><trkpt lat="44.5340883" lon="7.93475"><ele>269.0</ele><time>2026-04-12T13:01:20.061Z</time></trkpt><trkpt lat="44.5341567" lon="7.9347167"><ele>269.0</ele><time>2026-04-12T13:01:21.065Z</time></trkpt><trkpt lat="44.5342233" lon="7.9346783"><ele>269.0</ele><time>2026-04-12T13:01:22.063Z</time></trkpt><trkpt lat="44.5342883" lon="7.9346417"><ele>269.0</ele><time>2026-04-12T13:01:23.062Z</time></trkpt><trkpt lat="44.534355" lon="7.9346"><ele>269.0</ele><time>2026-04-12T13:01:24.061Z</time></trkpt><trkpt lat="44.5344217" lon="7.9345633"><ele>269.0</ele><time>2026-04-12T13:01:25.063Z</time></trkpt><trkpt lat="44.5344883" lon="7.93453"><ele>269.0</ele><time>2026-04-12T13:01:26.063Z</time></trkpt><trkpt lat="44.534555" lon="7.9344917"><ele>269.0</ele><time>2026-04-12T13:01:27.062Z</time></trkpt><trkpt lat="44.534615" lon="7.9344617"><ele>269.0</ele><time>2026-04-12T13:01:28.065Z</time></trkpt><trkpt lat="44.5347233" lon="7.9344017"><ele>269.0</ele><time>2026-04-12T13:01:30.062Z</time></trkpt><trkpt lat="44.5348" lon="7.9342833"><ele>269.0</ele><time>2026-04-12T13:01:32.062Z</time></trkpt><trkpt lat="44.534885" lon="7.93416"><ele>269.0</ele><time>2026-04-12T13:01:34.062Z</time></trkpt><trkpt lat="44.534935" lon="7.9341"><ele>269.0</ele><time>2026-04-12T13:01:35.066Z</time></trkpt><trkpt lat="44.5349867" lon="7.9340433"><ele>269.0</ele><time>2026-04-12T13:01:36.065Z</time></trkpt><trkpt lat="44.5350433" lon="7.933985"><ele>269.0</ele><time>2026-04-12T13:01:37.063Z</time></trkpt><trkpt lat="44.5351083" lon="7.9339233"><ele>269.0</ele><time>2026-04-12T13:01:38.062Z</time></trkpt><trkpt lat="44.5351767" lon="7.9338617"><ele>269.0</ele><time>2026-04-12T13:01:39.063Z</time></trkpt><trkpt lat="44.5352483" lon="7.9337983"><ele>269.0</ele><time>2026-04-12T13:01:40.062Z</time></trkpt><trkpt lat="44.535315" lon="7.933735"><ele>269.0</ele><time>2026-04-12T13:01:41.063Z</time></trkpt><trkpt lat="44.5353717" lon="7.9336683"><ele>269.0</ele><time>2026-04-12T13:01:42.063Z</time></trkpt><trkpt lat="44.5354283" lon="7.9336117"><ele>269.0</ele><time>2026-04-12T13:01:43.062Z</time></trkpt><trkpt lat="44.5354867" lon="7.9335517"><ele>269.0</ele><time>2026-04-12T13:01:44.062Z</time></trkpt><trkpt lat="44.535555" lon="7.93349"><ele>269.0</ele><time>2026-04-12T13:01:45.063Z</time></trkpt><trkpt lat="44.5356183" lon="7.9334283"><ele>269.0</ele><time>2026-04-12T13:01:46.063Z</time></trkpt><trkpt lat="44.535685" lon="7.9333633"><ele>268.6666666666667</ele><time>2026-04-12T13:01:47.062Z</time></trkpt><trkpt lat="44.535755" lon="7.9332933"><ele>268.33333333333337</ele><time>2026-04-12T13:01:48.064Z</time></trkpt><trkpt lat="44.535825" lon="7.9332283"><ele>268.0</ele><time>2026-04-12T13:01:49.063Z</time></trkpt><trkpt lat="44.5358983" lon="7.9331583"><ele>267.6666666666667</ele><time>2026-04-12T13:01:50.066Z</time></trkpt><trkpt lat="44.53596" lon="7.93309"><ele>267.3333333333333</ele><time>2026-04-12T13:01:51.067Z</time></trkpt><trkpt lat="44.5360233" lon="7.9330233"><ele>267.0</ele><time>2026-04-12T13:01:52.063Z</time></trkpt><trkpt lat="44.5360867" lon="7.9329583"><ele>267.0</ele><time>2026-04-12T13:01:53.065Z</time></trkpt><trkpt lat="44.5361467" lon="7.9328967"><ele>267.0</ele><time>2026-04-12T13:01:54.065Z</time></trkpt><trkpt lat="44.536205" lon="7.9328467"><ele>267.0</ele><time>2026-04-12T13:01:55.065Z</time></trkpt><trkpt lat="44.5362633" lon="7.932795"><ele>267.0</ele><time>2026-04-12T13:01:56.065Z</time></trkpt><trkpt lat="44.5363167" lon="7.932745"><ele>267.0</ele><time>2026-04-12T13:01:57.065Z</time></trkpt><trkpt lat="44.5364217" lon="7.93266"><ele>267.0</ele><time>2026-04-12T13:01:59.064Z</time></trkpt><trkpt lat="44.5365283" lon="7.932585"><ele>267.00000000000006</ele><time>2026-04-12T13:02:01.065Z</time></trkpt><trkpt lat="44.5365867" lon="7.9325433"><ele>267.0</ele><time>2026-04-12T13:02:02.062Z</time></trkpt><trkpt lat="44.53665" lon="7.932505"><ele>267.0</ele><time>2026-04-12T13:02:03.063Z</time></trkpt><trkpt lat="44.53671" lon="7.9324567"><ele>267.0</ele><time>2026-04-12T13:02:04.062Z</time></trkpt><trkpt lat="44.5367683" lon="7.9324083"><ele>267.0</ele><time>2026-04-12T13:02:05.062Z</time></trkpt><trkpt lat="44.5368267" lon="7.932355"><ele>267.00000000000006</ele><time>2026-04-12T13:02:06.061Z</time></trkpt><trkpt lat="44.5368817" lon="7.932305"><ele>267.0</ele><time>2026-04-12T13:02:07.063Z</time></trkpt><trkpt lat="44.53694" lon="7.9322533"><ele>267.00000000000006</ele><time>2026-04-12T13:02:08.062Z</time></trkpt><trkpt lat="44.5369983" lon="7.9322"><ele>267.0</ele><time>2026-04-12T13:02:09.062Z</time></trkpt><trkpt lat="44.537055" lon="7.93215"><ele>267.0</ele><time>2026-04-12T13:02:10.062Z</time></trkpt><trkpt lat="44.537115" lon="7.932095"><ele>267.0</ele><time>2026-04-12T13:02:11.063Z</time></trkpt><trkpt lat="44.537175" lon="7.9320417"><ele>267.0</ele><time>2026-04-12T13:02:12.063Z</time></trkpt><trkpt lat="44.5372317" lon="7.931985"><ele>267.00000000000006</ele><time>2026-04-12T13:02:13.063Z</time></trkpt><trkpt lat="44.5372917" lon="7.9319333"><ele>267.0</ele><time>2026-04-12T13:02:14.064Z</time></trkpt><trkpt lat="44.53735" lon="7.931875"><ele>266.6666666666667</ele><time>2026-04-12T13:02:15.067Z</time></trkpt><trkpt lat="44.53741" lon="7.931815"><ele>266.3333333333333</ele><time>2026-04-12T13:02:16.062Z</time></trkpt><trkpt lat="44.53747" lon="7.9317517"><ele>266.0</ele><time>2026-04-12T13:02:17.064Z</time></trkpt><trkpt lat="44.5375283" lon="7.93169"><ele>265.66666666666663</ele><time>2026-04-12T13:02:18.062Z</time></trkpt><trkpt lat="44.537585" lon="7.9316233"><ele>265.3333333333333</ele><time>2026-04-12T13:02:19.064Z</time></trkpt><trkpt lat="44.5376417" lon="7.9315517"><ele>265.0</ele><time>2026-04-12T13:02:20.063Z</time></trkpt><trkpt lat="44.5377017" lon="7.93148"><ele>265.0</ele><time>2026-04-12T13:02:21.063Z</time></trkpt><trkpt lat="44.53776" lon="7.9314083"><ele>265.0</ele><time>2026-04-12T13:02:22.062Z</time></trkpt><trkpt lat="44.5378217" lon="7.93134"><ele>265.0</ele><time>2026-04-12T13:02:23.061Z</time></trkpt><trkpt lat="44.5378783" lon="7.9312683"><ele>265.0</ele><time>2026-04-12T13:02:24.062Z</time></trkpt><trkpt lat="44.5379333" lon="7.9311933"><ele>265.0</ele><time>2026-04-12T13:02:25.061Z</time></trkpt><trkpt lat="44.5379883" lon="7.9311183"><ele>265.0</ele><time>2026-04-12T13:02:26.064Z</time></trkpt><trkpt lat="44.53804" lon="7.9310433"><ele>265.0</ele><time>2026-04-12T13:02:27.065Z</time></trkpt><trkpt lat="44.53809" lon="7.9309667"><ele>265.0</ele><time>2026-04-12T13:02:28.065Z</time></trkpt><trkpt lat="44.5381383" lon="7.9308933"><ele>265.0</ele><time>2026-04-12T13:02:29.063Z</time></trkpt><trkpt lat="44.538185" lon="7.93082"><ele>265.0</ele><time>2026-04-12T13:02:30.063Z</time></trkpt><trkpt lat="44.538225" lon="7.9307433"><ele>265.0</ele><time>2026-04-12T13:02:31.066Z</time></trkpt><trkpt lat="44.5382633" lon="7.930665"><ele>265.0</ele><time>2026-04-12T13:02:32.064Z</time></trkpt><trkpt lat="44.5383383" lon="7.9305367"><ele>264.8</ele><time>2026-04-12T13:02:34.065Z</time></trkpt><trkpt lat="44.53838" lon="7.930465"><ele>264.6</ele><time>2026-04-12T13:02:35.065Z</time></trkpt><trkpt lat="44.53842" lon="7.9303933"><ele>264.4</ele><time>2026-04-12T13:02:36.064Z</time></trkpt><trkpt lat="44.5384917" lon="7.930255"><ele>264.2</ele><time>2026-04-12T13:02:38.067Z</time></trkpt><trkpt lat="44.5385517" lon="7.9301283"><ele>264.0</ele><time>2026-04-12T13:02:40.066Z</time></trkpt><trkpt lat="44.5386267" lon="7.93004"><ele>264.0</ele><time>2026-04-12T13:02:42.062Z</time></trkpt><trkpt lat="44.53873" lon="7.9300433"><ele>264.0</ele><time>2026-04-12T13:02:44.063Z</time></trkpt><trkpt lat="44.538815" lon="7.9301567"><ele>264.0</ele><time>2026-04-12T13:02:46.063Z</time></trkpt><trkpt lat="44.5388533" lon="7.9302333"><ele>264.0</ele><time>2026-04-12T13:02:47.061Z</time></trkpt><trkpt lat="44.5388883" lon="7.9303133"><ele>264.0</ele><time>2026-04-12T13:02:48.062Z</time></trkpt><trkpt lat="44.5389217" lon="7.9303883"><ele>264.0</ele><time>2026-04-12T13:02:49.062Z</time></trkpt><trkpt lat="44.5389867" lon="7.93053"><ele>264.0</ele><time>2026-04-12T13:02:51.062Z</time></trkpt><trkpt lat="44.539055" lon="7.93067"><ele>264.0</ele><time>2026-04-12T13:02:53.062Z</time></trkpt><trkpt lat="44.5391333" lon="7.9307883"><ele>264.0</ele><time>2026-04-12T13:02:55.062Z</time></trkpt><trkpt lat="44.5392133" lon="7.9309017"><ele>264.0</ele><time>2026-04-12T13:02:57.063Z</time></trkpt><trkpt lat="44.539275" lon="7.9310183"><ele>264.5</ele><time>2026-04-12T13:02:59.06Z</time></trkpt><trkpt lat="44.5393333" lon="7.931125"><ele>265.0</ele><time>2026-04-12T13:03:01.065Z</time></trkpt><trkpt lat="44.5393733" lon="7.9311933"><ele>265.5</ele><time>2026-04-12T13:03:03.062Z</time></trkpt><trkpt lat="44.539435" lon="7.9312433"><ele>266.0</ele><time>2026-04-12T13:03:07.061Z</time></trkpt><trkpt lat="44.5395017" lon="7.93123"><ele>266.5</ele><time>2026-04-12T13:03:09.063Z</time></trkpt><trkpt lat="44.539575" lon="7.9311717"><ele>267.0</ele><time>2026-04-12T13:03:11.063Z</time></trkpt><trkpt lat="44.5396533" lon="7.93109"><ele>266.5</ele><time>2026-04-12T13:03:13.063Z</time></trkpt><trkpt lat="44.53973" lon="7.9309933"><ele>266.0</ele><time>2026-04-12T13:03:15.064Z</time></trkpt><trkpt lat="44.53982" lon="7.9308917"><ele>265.5</ele><time>2026-04-12T13:03:17.064Z</time></trkpt><trkpt lat="44.5399133" lon="7.9307883"><ele>265.0</ele><time>2026-04-12T13:03:19.063Z</time></trkpt><trkpt lat="44.5400117" lon="7.9306767"><ele>264.99999999999994</ele><time>2026-04-12T13:03:21.065Z</time></trkpt><trkpt lat="44.5400633" lon="7.9306183"><ele>265.0</ele><time>2026-04-12T13:03:22.061Z</time></trkpt><trkpt lat="44.5401167" lon="7.9305583"><ele>265.0</ele><time>2026-04-12T13:03:23.063Z</time></trkpt><trkpt lat="44.54017" lon="7.9304933"><ele>265.0</ele><time>2026-04-12T13:03:24.065Z</time></trkpt><trkpt lat="44.540225" lon="7.93043"><ele>265.0</ele><time>2026-04-12T13:03:25.064Z</time></trkpt><trkpt lat="44.5402767" lon="7.930365"><ele>264.99999999999994</ele><time>2026-04-12T13:03:26.064Z</time></trkpt><trkpt lat="44.5403317" lon="7.930305"><ele>265.0</ele><time>2026-04-12T13:03:27.065Z</time></trkpt><trkpt lat="44.540385" lon="7.9302467"><ele>264.71428571428567</ele><time>2026-04-12T13:03:28.063Z</time></trkpt><trkpt lat="44.54044" lon="7.930185"><ele>264.42857142857144</ele><time>2026-04-12T13:03:29.065Z</time></trkpt><trkpt lat="44.5404967" lon="7.93012"><ele>264.1428571428571</ele><time>2026-04-12T13:03:30.063Z</time></trkpt><trkpt lat="44.5405533" lon="7.930055"><ele>263.85714285714283</ele><time>2026-04-12T13:03:31.063Z</time></trkpt><trkpt lat="44.5406083" lon="7.9299883"><ele>263.57142857142856</ele><time>2026-04-12T13:03:32.065Z</time></trkpt><trkpt lat="44.5406633" lon="7.929925"><ele>263.2857142857143</ele><time>2026-04-12T13:03:33.065Z</time></trkpt><trkpt lat="44.5407167" lon="7.9298583"><ele>263.0</ele><time>2026-04-12T13:03:34.062Z</time></trkpt><trkpt lat="44.5407717" lon="7.92979"><ele>263.0</ele><time>2026-04-12T13:03:35.062Z</time></trkpt><trkpt lat="44.5408267" lon="7.929725"><ele>263.0</ele><time>2026-04-12T13:03:36.065Z</time></trkpt><trkpt lat="44.54088" lon="7.9296617"><ele>263.0</ele><time>2026-04-12T13:03:37.064Z</time></trkpt><trkpt lat="44.5409317" lon="7.9296"><ele>263.0</ele><time>2026-04-12T13:03:38.064Z</time></trkpt><trkpt lat="44.5409833" lon="7.9295383"><ele>263.0</ele><time>2026-04-12T13:03:39.066Z</time></trkpt><trkpt lat="44.5410383" lon="7.9294783"><ele>263.0</ele><time>2026-04-12T13:03:40.065Z</time></trkpt><trkpt lat="44.541095" lon="7.9294167"><ele>263.0</ele><time>2026-04-12T13:03:41.063Z</time></trkpt><trkpt lat="44.5411467" lon="7.9293517"><ele>263.0</ele><time>2026-04-12T13:03:42.064Z</time></trkpt><trkpt lat="44.5412017" lon="7.9292867"><ele>263.0</ele><time>2026-04-12T13:03:43.064Z</time></trkpt><trkpt lat="44.541255" lon="7.9292233"><ele>263.0</ele><time>2026-04-12T13:03:44.065Z</time></trkpt><trkpt lat="44.5413083" lon="7.9291633"><ele>263.0</ele><time>2026-04-12T13:03:45.066Z</time></trkpt><trkpt lat="44.5413633" lon="7.9291017"><ele>263.0</ele><time>2026-04-12T13:03:46.064Z</time></trkpt><trkpt lat="44.5414183" lon="7.92904"><ele>263.0</ele><time>2026-04-12T13:03:47.058Z</time></trkpt><trkpt lat="44.5414683" lon="7.9289817"><ele>263.0</ele><time>2026-04-12T13:03:48.057Z</time></trkpt><trkpt lat="44.5415217" lon="7.9289217"><ele>263.1666666666667</ele><time>2026-04-12T13:03:49.057Z</time></trkpt><trkpt lat="44.5415733" lon="7.9288617"><ele>263.33333333333337</ele><time>2026-04-12T13:03:50.057Z</time></trkpt><trkpt lat="44.54162" lon="7.9287983"><ele>263.5</ele><time>2026-04-12T13:03:51.062Z</time></trkpt><trkpt lat="44.5416667" lon="7.9287267"><ele>263.6666666666667</ele><time>2026-04-12T13:03:52.064Z</time></trkpt><trkpt lat="44.54176" lon="7.9286183"><ele>263.8333333333333</ele><time>2026-04-12T13:03:54.057Z</time></trkpt><trkpt lat="44.5418133" lon="7.928565"><ele>264.0</ele><time>2026-04-12T13:03:55.064Z</time></trkpt><trkpt lat="44.5418717" lon="7.9285217"><ele>264.0</ele><time>2026-04-12T13:03:56.057Z</time></trkpt><trkpt lat="44.5419817" lon="7.9284433"><ele>264.0</ele><time>2026-04-12T13:03:58.059Z</time></trkpt><trkpt lat="44.5420917" lon="7.9283583"><ele>264.0</ele><time>2026-04-12T13:04:00.057Z</time></trkpt><trkpt lat="44.5421483" lon="7.9283133"><ele>264.0</ele><time>2026-04-12T13:04:01.061Z</time></trkpt><trkpt lat="44.54226" lon="7.9282333"><ele>264.0</ele><time>2026-04-12T13:04:03.065Z</time></trkpt><trkpt lat="44.5423167" lon="7.92819"><ele>263.25</ele><time>2026-04-12T13:04:04.064Z</time></trkpt><trkpt lat="44.5424233" lon="7.9281083"><ele>262.5</ele><time>2026-04-12T13:04:06.065Z</time></trkpt><trkpt lat="44.5425283" lon="7.9280267"><ele>261.75</ele><time>2026-04-12T13:04:08.064Z</time></trkpt><trkpt lat="44.5426283" lon="7.92795"><ele>261.0</ele><time>2026-04-12T13:04:10.064Z</time></trkpt><trkpt lat="44.54273" lon="7.927875"><ele>261.0</ele><time>2026-04-12T13:04:12.064Z</time></trkpt><trkpt lat="44.5428333" lon="7.9278017"><ele>261.0</ele><time>2026-04-12T13:04:14.063Z</time></trkpt><trkpt lat="44.54293" lon="7.9277267"><ele>261.0</ele><time>2026-04-12T13:04:16.062Z</time></trkpt><trkpt lat="44.5430283" lon="7.92765"><ele>261.0</ele><time>2026-04-12T13:04:18.064Z</time></trkpt><trkpt lat="44.5431317" lon="7.9275767"><ele>261.8</ele><time>2026-04-12T13:04:20.063Z</time></trkpt><trkpt lat="44.5432383" lon="7.92754"><ele>262.6</ele><time>2026-04-12T13:04:22.064Z</time></trkpt><trkpt lat="44.54334" lon="7.9275717"><ele>263.4</ele><time>2026-04-12T13:04:24.064Z</time></trkpt><trkpt lat="44.5434317" lon="7.9276117"><ele>264.2</ele><time>2026-04-12T13:04:26.063Z</time></trkpt><trkpt lat="44.543525" lon="7.9276417"><ele>265.0</ele><time>2026-04-12T13:04:28.061Z</time></trkpt><trkpt lat="44.543615" lon="7.9276717"><ele>265.5</ele><time>2026-04-12T13:04:30.062Z</time></trkpt><trkpt lat="44.5436967" lon="7.9277033"><ele>266.0</ele><time>2026-04-12T13:04:32.063Z</time></trkpt><trkpt lat="44.54377" lon="7.92775"><ele>266.5</ele><time>2026-04-12T13:04:34.063Z</time></trkpt><trkpt lat="44.5438233" lon="7.9278417"><ele>267.0</ele><time>2026-04-12T13:04:36.065Z</time></trkpt><trkpt lat="44.5438533" lon="7.9279417"><ele>267.5</ele><time>2026-04-12T13:04:38.063Z</time></trkpt><trkpt lat="44.543875" lon="7.92804"><ele>268.0</ele><time>2026-04-12T13:04:40.063Z</time></trkpt><trkpt lat="44.5438933" lon="7.9281367"><ele>269.5</ele><time>2026-04-12T13:04:42.063Z</time></trkpt><trkpt lat="44.543915" lon="7.92823"><ele>271.0</ele><time>2026-04-12T13:04:44.063Z</time></trkpt><trkpt lat="44.5439233" lon="7.9283317"><ele>272.5</ele><time>2026-04-12T13:04:46.064Z</time></trkpt><trkpt lat="44.5439067" lon="7.92844"><ele>274.0</ele><time>2026-04-12T13:04:48.063Z</time></trkpt><trkpt lat="44.5438733" lon="7.9285417"><ele>275.5</ele><time>2026-04-12T13:04:50.062Z</time></trkpt><trkpt lat="44.5438317" lon="7.928635"><ele>277.0</ele><time>2026-04-12T13:04:52.062Z</time></trkpt><trkpt lat="44.5437967" lon="7.9287333"><ele>276.3333333333333</ele><time>2026-04-12T13:04:54.064Z</time></trkpt><trkpt lat="44.5437683" lon="7.9288317"><ele>275.66666666666663</ele><time>2026-04-12T13:04:56.062Z</time></trkpt><trkpt lat="44.5437417" lon="7.9289333"><ele>275.0</ele><time>2026-04-12T13:04:58.065Z</time></trkpt><trkpt lat="44.5437117" lon="7.9290317"><ele>274.3333333333333</ele><time>2026-04-12T13:05:00.065Z</time></trkpt><trkpt lat="44.5436783" lon="7.9291217"><ele>273.6666666666667</ele><time>2026-04-12T13:05:02.072Z</time></trkpt><trkpt lat="44.543645" lon="7.929215"><ele>273.0</ele><time>2026-04-12T13:05:04.062Z</time></trkpt><trkpt lat="44.5435983" lon="7.9293083"><ele>274.57142857142856</ele><time>2026-04-12T13:05:06.063Z</time></trkpt><trkpt lat="44.5435667" lon="7.9293967"><ele>276.1428571428571</ele><time>2026-04-12T13:05:08.063Z</time></trkpt><trkpt lat="44.543535" lon="7.929485"><ele>277.7142857142857</ele><time>2026-04-12T13:05:10.062Z</time></trkpt><trkpt lat="44.5435067" lon="7.92958"><ele>279.2857142857143</ele><time>2026-04-12T13:05:12.064Z</time></trkpt><trkpt lat="44.5434917" lon="7.9296717"><ele>280.85714285714283</ele><time>2026-04-12T13:05:14.065Z</time></trkpt><trkpt lat="44.5434867" lon="7.9297683"><ele>282.42857142857144</ele><time>2026-04-12T13:05:16.064Z</time></trkpt><trkpt lat="44.5435017" lon="7.9298617"><ele>284.0</ele><time>2026-04-12T13:05:18.062Z</time></trkpt><trkpt lat="44.5435133" lon="7.9299883"><ele>285.0</ele><time>2026-04-12T13:05:21.064Z</time></trkpt><trkpt lat="44.5435133" lon="7.9300767"><ele>286.0</ele><time>2026-04-12T13:05:23.063Z</time></trkpt><trkpt lat="44.543505" lon="7.9301667"><ele>287.0</ele><time>2026-04-12T13:05:25.062Z</time></trkpt><trkpt lat="44.5434933" lon="7.9302583"><ele>288.0</ele><time>2026-04-12T13:05:27.067Z</time></trkpt><trkpt lat="44.5434817" lon="7.9303467"><ele>289.0</ele><time>2026-04-12T13:05:29.064Z</time></trkpt><trkpt lat="44.54347" lon="7.9304383"><ele>290.0</ele><time>2026-04-12T13:05:31.067Z</time></trkpt><trkpt lat="44.5434583" lon="7.9305283"><ele>291.0</ele><time>2026-04-12T13:05:33.063Z</time></trkpt><trkpt lat="44.5434483" lon="7.9306183"><ele>291.0</ele><time>2026-04-12T13:05:35.056Z</time></trkpt><trkpt lat="44.5434367" lon="7.9307483"><ele>291.0</ele><time>2026-04-12T13:05:38.063Z</time></trkpt><trkpt lat="44.5434217" lon="7.9308383"><ele>291.0</ele><time>2026-04-12T13:05:40.063Z</time></trkpt><trkpt lat="44.54341" lon="7.9309283"><ele>291.0</ele><time>2026-04-12T13:05:42.064Z</time></trkpt><trkpt lat="44.54341" lon="7.93102"><ele>291.0</ele><time>2026-04-12T13:05:44.063Z</time></trkpt><trkpt lat="44.543415" lon="7.93111"><ele>291.0</ele><time>2026-04-12T13:05:46.065Z</time></trkpt><trkpt lat="44.5434267" lon="7.9311983"><ele>291.0</ele><time>2026-04-12T13:05:48.064Z</time></trkpt><trkpt lat="44.5434383" lon="7.9312867"><ele>292.0</ele><time>2026-04-12T13:05:50.061Z</time></trkpt><trkpt lat="44.54347" lon="7.9314133"><ele>293.0</ele><time>2026-04-12T13:05:53.063Z</time></trkpt><trkpt lat="44.5434983" lon="7.9315017"><ele>294.0</ele><time>2026-04-12T13:05:55.066Z</time></trkpt><trkpt lat="44.543525" lon="7.9315867"><ele>295.0</ele><time>2026-04-12T13:05:57.064Z</time></trkpt><trkpt lat="44.5435483" lon="7.931675"><ele>296.0</ele><time>2026-04-12T13:05:59.063Z</time></trkpt><trkpt lat="44.5435717" lon="7.93176"><ele>297.0</ele><time>2026-04-12T13:06:01.064Z</time></trkpt><trkpt lat="44.5435983" lon="7.9318417"><ele>298.0</ele><time>2026-04-12T13:06:03.066Z</time></trkpt><trkpt lat="44.5436333" lon="7.9319633"><ele>299.4</ele><time>2026-04-12T13:06:06.063Z</time></trkpt><trkpt lat="44.5436667" lon="7.9320833"><ele>300.8</ele><time>2026-04-12T13:06:09.065Z</time></trkpt><trkpt lat="44.5437017" lon="7.9322033"><ele>302.2</ele><time>2026-04-12T13:06:12.064Z</time></trkpt><trkpt lat="44.5437333" lon="7.9323233"><ele>303.6</ele><time>2026-04-12T13:06:15.067Z</time></trkpt><trkpt lat="44.5437683" lon="7.9324417"><ele>305.0</ele><time>2026-04-12T13:06:18.062Z</time></trkpt><trkpt lat="44.543795" lon="7.932565"><ele>305.33333333333337</ele><time>2026-04-12T13:06:21.065Z</time></trkpt><trkpt lat="44.5438167" lon="7.93265"><ele>305.6666666666667</ele><time>2026-04-12T13:06:23.064Z</time></trkpt><trkpt lat="44.54385" lon="7.93273"><ele>306.0</ele><time>2026-04-12T13:06:25.063Z</time></trkpt><trkpt lat="44.5438833" lon="7.93285"><ele>306.3333333333333</ele><time>2026-04-12T13:06:28.062Z</time></trkpt><trkpt lat="44.5439217" lon="7.9329683"><ele>306.66666666666663</ele><time>2026-04-12T13:06:31.066Z</time></trkpt><trkpt lat="44.54395" lon="7.9330817"><ele>307.0</ele><time>2026-04-12T13:06:34.063Z</time></trkpt><trkpt lat="44.5439683" lon="7.9332117"><ele>307.0</ele><time>2026-04-12T13:06:37.062Z</time></trkpt><trkpt lat="44.5439883" lon="7.9333367"><ele>307.0</ele><time>2026-04-12T13:06:40.063Z</time></trkpt><trkpt lat="44.5439967" lon="7.9334583"><ele>307.0</ele><time>2026-04-12T13:06:43.065Z</time></trkpt><trkpt lat="44.5440017" lon="7.933575"><ele>307.0</ele><time>2026-04-12T13:06:46.063Z</time></trkpt><trkpt lat="44.5440317" lon="7.933685"><ele>307.0</ele><time>2026-04-12T13:06:49.063Z</time></trkpt><trkpt lat="44.54405" lon="7.9337917"><ele>307.0</ele><time>2026-04-12T13:06:52.064Z</time></trkpt><trkpt lat="44.5440783" lon="7.93389"><ele>308.5</ele><time>2026-04-12T13:06:55.064Z</time></trkpt><trkpt lat="44.5441083" lon="7.9339867"><ele>310.0</ele><time>2026-04-12T13:06:58.064Z</time></trkpt><trkpt lat="44.5441267" lon="7.9340933"><ele>311.5</ele><time>2026-04-12T13:07:01.066Z</time></trkpt><trkpt lat="44.54414" lon="7.9342083"><ele>313.0</ele><time>2026-04-12T13:07:04.064Z</time></trkpt><trkpt lat="44.544165" lon="7.934315"><ele>314.5</ele><time>2026-04-12T13:07:07.065Z</time></trkpt><trkpt lat="44.54418" lon="7.9344433"><ele>316.0</ele><time>2026-04-12T13:07:10.069Z</time></trkpt><trkpt lat="44.5442083" lon="7.9345717"><ele>317.16666666666663</ele><time>2026-04-12T13:07:13.06Z</time></trkpt><trkpt lat="44.5442433" lon="7.93468"><ele>318.3333333333333</ele><time>2026-04-12T13:07:16.063Z</time></trkpt><trkpt lat="44.5442983" lon="7.93477"><ele>319.5</ele><time>2026-04-12T13:07:19.063Z</time></trkpt><trkpt lat="44.54433" lon="7.9348467"><ele>320.6666666666667</ele><time>2026-04-12T13:07:21.063Z</time></trkpt><trkpt lat="44.54438" lon="7.9349467"><ele>321.83333333333337</ele><time>2026-04-12T13:07:24.065Z</time></trkpt><trkpt lat="44.5444267" lon="7.9350383"><ele>323.0</ele><time>2026-04-12T13:07:27.064Z</time></trkpt><trkpt lat="44.5444717" lon="7.9351217"><ele>323.5714285714286</ele><time>2026-04-12T13:07:30.063Z</time></trkpt><trkpt lat="44.54451" lon="7.9352"><ele>324.14285714285717</ele><time>2026-04-12T13:07:33.065Z</time></trkpt><trkpt lat="44.5445417" lon="7.935285"><ele>324.7142857142857</ele><time>2026-04-12T13:07:36.061Z</time></trkpt><trkpt lat="44.5445883" lon="7.9353733"><ele>325.28571428571433</ele><time>2026-04-12T13:07:39.064Z</time></trkpt><trkpt lat="44.544625" lon="7.9354633"><ele>325.8571428571429</ele><time>2026-04-12T13:07:42.063Z</time></trkpt><trkpt lat="44.544665" lon="7.9355467"><ele>326.42857142857144</ele><time>2026-04-12T13:07:45.063Z</time></trkpt><trkpt lat="44.5447117" lon="7.9356333"><ele>327.0</ele><time>2026-04-12T13:07:48.061Z</time></trkpt><trkpt lat="44.54475" lon="7.9357167"><ele>327.0</ele><time>2026-04-12T13:07:51.068Z</time></trkpt><trkpt lat="44.5447633" lon="7.935835"><ele>327.0</ele><time>2026-04-12T13:07:55.064Z</time></trkpt><trkpt lat="44.5447217" lon="7.9359167"><ele>327.0</ele><time>2026-04-12T13:07:58.062Z</time></trkpt><trkpt lat="44.544655" lon="7.9359283"><ele>327.0</ele><time>2026-04-12T13:08:02.063Z</time></trkpt><trkpt lat="44.544585" lon="7.935905"><ele>327.0</ele><time>2026-04-12T13:08:05.062Z</time></trkpt><trkpt lat="44.5445183" lon="7.9358867"><ele>327.0</ele><time>2026-04-12T13:08:08.066Z</time></trkpt><trkpt lat="44.5444467" lon="7.9358433"><ele>327.0</ele><time>2026-04-12T13:08:12.064Z</time></trkpt><trkpt lat="44.5443817" lon="7.9358183"><ele>327.1666666666667</ele><time>2026-04-12T13:08:15.064Z</time></trkpt><trkpt lat="44.54431" lon="7.9357917"><ele>327.3333333333333</ele><time>2026-04-12T13:08:18.062Z</time></trkpt><trkpt lat="44.5442317" lon="7.9357533"><ele>327.5</ele><time>2026-04-12T13:08:21.064Z</time></trkpt><trkpt lat="44.544155" lon="7.9357033"><ele>327.66666666666663</ele><time>2026-04-12T13:08:24.062Z</time></trkpt><trkpt lat="44.5440867" lon="7.93563"><ele>327.8333333333333</ele><time>2026-04-12T13:08:27.063Z</time></trkpt><trkpt lat="44.54402" lon="7.9355467"><ele>328.0</ele><time>2026-04-12T13:08:30.063Z</time></trkpt><trkpt lat="44.5439733" lon="7.9354483"><ele>328.0</ele><time>2026-04-12T13:08:33.064Z</time></trkpt><trkpt lat="44.543935" lon="7.9353367"><ele>328.0</ele><time>2026-04-12T13:08:36.064Z</time></trkpt><trkpt lat="44.5438967" lon="7.9352217"><ele>328.0</ele><time>2026-04-12T13:08:39.062Z</time></trkpt><trkpt lat="44.54387" lon="7.9351417"><ele>328.0</ele><time>2026-04-12T13:08:41.062Z</time></trkpt><trkpt lat="44.5438267" lon="7.93503"><ele>328.0</ele><time>2026-04-12T13:08:44.061Z</time></trkpt><trkpt lat="44.5437933" lon="7.93493"><ele>328.0</ele><time>2026-04-12T13:08:47.062Z</time></trkpt><trkpt lat="44.5437433" lon="7.9348167"><ele>329.5</ele><time>2026-04-12T13:08:50.061Z</time></trkpt><trkpt lat="44.5437017" lon="7.93471"><ele>331.0</ele><time>2026-04-12T13:08:53.063Z</time></trkpt><trkpt lat="44.5436617" lon="7.9346383"><ele>332.5</ele><time>2026-04-12T13:08:55.061Z</time></trkpt><trkpt lat="44.54362" lon="7.9345717"><ele>334.0</ele><time>2026-04-12T13:08:57.064Z</time></trkpt><trkpt lat="44.5435567" lon="7.9344783"><ele>335.5</ele><time>2026-04-12T13:09:00.063Z</time></trkpt><trkpt lat="44.5435" lon="7.9343767"><ele>337.0</ele><time>2026-04-12T13:09:03.066Z</time></trkpt><trkpt lat="44.5434567" lon="7.9342633"><ele>336.0</ele><time>2026-04-12T13:09:06.062Z</time></trkpt><trkpt lat="44.5434033" lon="7.9341667"><ele>335.0</ele><time>2026-04-12T13:09:09.062Z</time></trkpt><trkpt lat="44.543345" lon="7.934075"><ele>334.0</ele><time>2026-04-12T13:09:12.063Z</time></trkpt><trkpt lat="44.5432967" lon="7.9339767"><ele>333.0</ele><time>2026-04-12T13:09:15.064Z</time></trkpt><trkpt lat="44.54323" lon="7.9338867"><ele>332.0</ele><time>2026-04-12T13:09:18.064Z</time></trkpt><trkpt lat="44.5431733" lon="7.9338467"><ele>331.0</ele><time>2026-04-12T13:09:20.062Z</time></trkpt><trkpt lat="44.5430883" lon="7.933835"><ele>331.0</ele><time>2026-04-12T13:09:23.062Z</time></trkpt><trkpt lat="44.543025" lon="7.93386"><ele>331.0</ele><time>2026-04-12T13:09:25.062Z</time></trkpt><trkpt lat="44.5429567" lon="7.9339083"><ele>331.0</ele><time>2026-04-12T13:09:27.063Z</time></trkpt><trkpt lat="44.542905" lon="7.9340017"><ele>331.0</ele><time>2026-04-12T13:09:30.063Z</time></trkpt><trkpt lat="44.542875" lon="7.9341117"><ele>331.0</ele><time>2026-04-12T13:09:33.064Z</time></trkpt><trkpt lat="44.542875" lon="7.9342267"><ele>331.0</ele><time>2026-04-12T13:09:36.063Z</time></trkpt><trkpt lat="44.5429167" lon="7.9343117"><ele>331.8571428571429</ele><time>2026-04-12T13:09:39.064Z</time></trkpt><trkpt lat="44.542965" lon="7.9343883"><ele>332.7142857142857</ele><time>2026-04-12T13:09:42.063Z</time></trkpt><trkpt lat="44.5430133" lon="7.9344517"><ele>333.57142857142856</ele><time>2026-04-12T13:09:45.063Z</time></trkpt><trkpt lat="44.54304" lon="7.9345333"><ele>334.42857142857144</ele><time>2026-04-12T13:09:48.061Z</time></trkpt><trkpt lat="44.5430433" lon="7.9346317"><ele>335.2857142857143</ele><time>2026-04-12T13:09:51.062Z</time></trkpt><trkpt lat="44.543035" lon="7.9347333"><ele>336.14285714285717</ele><time>2026-04-12T13:09:54.061Z</time></trkpt><trkpt lat="44.5430283" lon="7.9348383"><ele>337.0</ele><time>2026-04-12T13:09:57.063Z</time></trkpt><trkpt lat="44.5430167" lon="7.9349383"><ele>337.00000000000006</ele><time>2026-04-12T13:10:00.064Z</time></trkpt><trkpt lat="44.5430183" lon="7.9350517"><ele>337.0</ele><time>2026-04-12T13:10:03.063Z</time></trkpt><trkpt lat="44.54302" lon="7.9351567"><ele>337.0</ele><time>2026-04-12T13:10:06.063Z</time></trkpt><trkpt lat="44.5430167" lon="7.9352567"><ele>337.0</ele><time>2026-04-12T13:10:09.063Z</time></trkpt><trkpt lat="44.5430133" lon="7.93535"><ele>337.0</ele><time>2026-04-12T13:10:12.061Z</time></trkpt><trkpt lat="44.5430017" lon="7.9354583"><ele>337.00000000000006</ele><time>2026-04-12T13:10:15.065Z</time></trkpt><trkpt lat="44.54299" lon="7.93556"><ele>337.0</ele><time>2026-04-12T13:10:18.062Z</time></trkpt><trkpt lat="44.5429933" lon="7.9356667"><ele>338.16666666666663</ele><time>2026-04-12T13:10:21.063Z</time></trkpt><trkpt lat="44.5430067" lon="7.9357833"><ele>339.3333333333333</ele><time>2026-04-12T13:10:24.065Z</time></trkpt><trkpt lat="44.5430183" lon="7.9358917"><ele>340.5</ele><time>2026-04-12T13:10:27.059Z</time></trkpt><trkpt lat="44.5430667" lon="7.9359917"><ele>341.6666666666667</ele><time>2026-04-12T13:10:30.064Z</time></trkpt><trkpt lat="44.5431117" lon="7.936095"><ele>342.83333333333337</ele><time>2026-04-12T13:10:33.063Z</time></trkpt><trkpt lat="44.5431533" lon="7.9361967"><ele>344.0</ele><time>2026-04-12T13:10:36.065Z</time></trkpt><trkpt lat="44.54318" lon="7.9362983"><ele>345.6666666666667</ele><time>2026-04-12T13:10:39.065Z</time></trkpt><trkpt lat="44.5431967" lon="7.9364117"><ele>347.33333333333337</ele><time>2026-04-12T13:10:42.064Z</time></trkpt><trkpt lat="44.5432083" lon="7.9365217"><ele>349.0</ele><time>2026-04-12T13:10:45.063Z</time></trkpt><trkpt lat="44.5432167" lon="7.9366283"><ele>350.6666666666667</ele><time>2026-04-12T13:10:48.065Z</time></trkpt><trkpt lat="44.543225" lon="7.9367383"><ele>352.3333333333333</ele><time>2026-04-12T13:10:51.064Z</time></trkpt><trkpt lat="44.5432433" lon="7.9368533"><ele>354.0</ele><time>2026-04-12T13:10:54.064Z</time></trkpt><trkpt lat="44.5432483" lon="7.9369633"><ele>355.6666666666667</ele><time>2026-04-12T13:10:57.065Z</time></trkpt><trkpt lat="44.5432583" lon="7.9370733"><ele>357.3333333333333</ele><time>2026-04-12T13:11:00.065Z</time></trkpt><trkpt lat="44.5432783" lon="7.9371883"><ele>359.0</ele><time>2026-04-12T13:11:03.063Z</time></trkpt><trkpt lat="44.543305" lon="7.9372683"><ele>360.66666666666663</ele><time>2026-04-12T13:11:05.063Z</time></trkpt><trkpt lat="44.5433383" lon="7.9373667"><ele>362.3333333333333</ele><time>2026-04-12T13:11:08.064Z</time></trkpt><trkpt lat="44.5433817" lon="7.9374567"><ele>364.0</ele><time>2026-04-12T13:11:11.063Z</time></trkpt><trkpt lat="44.5434367" lon="7.9375283"><ele>365.5</ele><time>2026-04-12T13:11:14.063Z</time></trkpt><trkpt lat="44.543495" lon="7.9375983"><ele>367.0</ele><time>2026-04-12T13:11:17.065Z</time></trkpt><trkpt lat="44.5435683" lon="7.9376583"><ele>368.5</ele><time>2026-04-12T13:11:20.064Z</time></trkpt><trkpt lat="44.54364" lon="7.9377167"><ele>370.0</ele><time>2026-04-12T13:11:23.064Z</time></trkpt><trkpt lat="44.5437167" lon="7.9377717"><ele>371.5</ele><time>2026-04-12T13:11:26.063Z</time></trkpt><trkpt lat="44.5437883" lon="7.9378283"><ele>373.0</ele><time>2026-04-12T13:11:29.065Z</time></trkpt><trkpt lat="44.5438567" lon="7.9378883"><ele>373.3333333333333</ele><time>2026-04-12T13:11:32.063Z</time></trkpt><trkpt lat="44.543925" lon="7.9379433"><ele>373.66666666666663</ele><time>2026-04-12T13:11:35.062Z</time></trkpt><trkpt lat="44.5439917" lon="7.9379967"><ele>374.0</ele><time>2026-04-12T13:11:38.063Z</time></trkpt><trkpt lat="44.54406" lon="7.9380467"><ele>374.3333333333333</ele><time>2026-04-12T13:11:41.064Z</time></trkpt><trkpt lat="44.5441217" lon="7.9381017"><ele>374.6666666666667</ele><time>2026-04-12T13:11:44.064Z</time></trkpt><trkpt lat="44.5441767" lon="7.9381667"><ele>375.0</ele><time>2026-04-12T13:11:47.064Z</time></trkpt><trkpt lat="44.5442133" lon="7.938265"><ele>375.0</ele><time>2026-04-12T13:11:50.066Z</time></trkpt><trkpt lat="44.54423" lon="7.9383683"><ele>375.0</ele><time>2026-04-12T13:11:53.063Z</time></trkpt><trkpt lat="44.5442433" lon="7.938485"><ele>375.0</ele><time>2026-04-12T13:11:56.065Z</time></trkpt><trkpt lat="44.54424" lon="7.9385783"><ele>375.0</ele><time>2026-04-12T13:11:59.064Z</time></trkpt><trkpt lat="44.54421" lon="7.9386633"><ele>375.0</ele><time>2026-04-12T13:12:02.063Z</time></trkpt><trkpt lat="44.5441733" lon="7.938745"><ele>375.0</ele><time>2026-04-12T13:12:05.063Z</time></trkpt><trkpt lat="44.5441183" lon="7.9388083"><ele>375.0</ele><time>2026-04-12T13:12:08.066Z</time></trkpt><trkpt lat="44.544065" lon="7.9388767"><ele>376.5</ele><time>2026-04-12T13:12:11.063Z</time></trkpt><trkpt lat="44.5440617" lon="7.938975"><ele>378.0</ele><time>2026-04-12T13:12:14.062Z</time></trkpt><trkpt lat="44.5440983" lon="7.9390633"><ele>379.5</ele><time>2026-04-12T13:12:17.064Z</time></trkpt><trkpt lat="44.5441617" lon="7.9391217"><ele>381.0</ele><time>2026-04-12T13:12:20.063Z</time></trkpt><trkpt lat="44.544235" lon="7.9391483"><ele>382.5</ele><time>2026-04-12T13:12:23.064Z</time></trkpt><trkpt lat="44.5443233" lon="7.9391533"><ele>384.0</ele><time>2026-04-12T13:12:26.064Z</time></trkpt><trkpt lat="44.54441" lon="7.93916"><ele>384.0</ele><time>2026-04-12T13:12:29.065Z</time></trkpt><trkpt lat="44.5444933" lon="7.9391533"><ele>384.0</ele><time>2026-04-12T13:12:32.064Z</time></trkpt><trkpt lat="44.5445683" lon="7.9391717"><ele>384.0</ele><time>2026-04-12T13:12:35.063Z</time></trkpt><trkpt lat="44.5446233" lon="7.9392467"><ele>384.0</ele><time>2026-04-12T13:12:38.067Z</time></trkpt><trkpt lat="44.54464" lon="7.939355"><ele>384.0</ele><time>2026-04-12T13:12:41.066Z</time></trkpt><trkpt lat="44.54465" lon="7.9394667"><ele>384.0</ele><time>2026-04-12T13:12:44.069Z</time></trkpt><trkpt lat="44.5446583" lon="7.939585"><ele>385.1666666666667</ele><time>2026-04-12T13:12:47.063Z</time></trkpt><trkpt lat="44.5446683" lon="7.9396917"><ele>386.33333333333337</ele><time>2026-04-12T13:12:50.062Z</time></trkpt><trkpt lat="44.544685" lon="7.9398233"><ele>387.5</ele><time>2026-04-12T13:12:53.063Z</time></trkpt><trkpt lat="44.5447083" lon="7.93995"><ele>388.6666666666667</ele><time>2026-04-12T13:12:56.062Z</time></trkpt><trkpt lat="44.5447567" lon="7.940055"><ele>389.83333333333337</ele><time>2026-04-12T13:12:59.064Z</time></trkpt><trkpt lat="44.5448183" lon="7.9401233"><ele>391.0</ele><time>2026-04-12T13:13:02.063Z</time></trkpt><trkpt lat="44.544885" lon="7.9401583"><ele>391.00000000000006</ele><time>2026-04-12T13:13:05.062Z</time></trkpt><trkpt lat="44.5449667" lon="7.940165"><ele>391.0</ele><time>2026-04-12T13:13:08.062Z</time></trkpt><trkpt lat="44.5450433" lon="7.94018"><ele>391.0</ele><time>2026-04-12T13:13:11.062Z</time></trkpt><trkpt lat="44.545125" lon="7.940205"><ele>391.0</ele><time>2026-04-12T13:13:14.067Z</time></trkpt><trkpt lat="44.5452033" lon="7.9402133"><ele>391.00000000000006</ele><time>2026-04-12T13:13:17.063Z</time></trkpt><trkpt lat="44.545285" lon="7.9402317"><ele>391.0</ele><time>2026-04-12T13:13:20.063Z</time></trkpt><trkpt lat="44.5453617" lon="7.9402483"><ele>393.1666666666667</ele><time>2026-04-12T13:13:23.061Z</time></trkpt><trkpt lat="44.54545" lon="7.940265"><ele>395.33333333333337</ele><time>2026-04-12T13:13:26.062Z</time></trkpt><trkpt lat="44.5455267" lon="7.940295"><ele>397.5</ele><time>2026-04-12T13:13:29.063Z</time></trkpt><trkpt lat="44.5456" lon="7.940315"><ele>399.66666666666663</ele><time>2026-04-12T13:13:32.063Z</time></trkpt><trkpt lat="44.5456683" lon="7.9403467"><ele>401.8333333333333</ele><time>2026-04-12T13:13:35.061Z</time></trkpt><trkpt lat="44.5457283" lon="7.940395"><ele>404.0</ele><time>2026-04-12T13:13:38.062Z</time></trkpt><trkpt lat="44.5457883" lon="7.9404683"><ele>403.99999999999994</ele><time>2026-04-12T13:13:41.062Z</time></trkpt><trkpt lat="44.5458467" lon="7.9405417"><ele>404.0</ele><time>2026-04-12T13:13:44.064Z</time></trkpt><trkpt lat="44.5459067" lon="7.940615"><ele>404.0</ele><time>2026-04-12T13:13:47.062Z</time></trkpt><trkpt lat="44.545965" lon="7.9406833"><ele>404.0</ele><time>2026-04-12T13:13:50.066Z</time></trkpt><trkpt lat="44.5460283" lon="7.940755"><ele>403.99999999999994</ele><time>2026-04-12T13:13:53.061Z</time></trkpt><trkpt lat="44.5460817" lon="7.9408233"><ele>404.0</ele><time>2026-04-12T13:13:56.059Z</time></trkpt><trkpt lat="44.5461317" lon="7.9408967"><ele>403.0</ele><time>2026-04-12T13:13:59.063Z</time></trkpt><trkpt lat="44.546185" lon="7.940965"><ele>402.0</ele><time>2026-04-12T13:14:02.066Z</time></trkpt><trkpt lat="44.54623" lon="7.9410333"><ele>401.0</ele><time>2026-04-12T13:14:05.063Z</time></trkpt><trkpt lat="44.54628" lon="7.9411067"><ele>400.0</ele><time>2026-04-12T13:14:08.062Z</time></trkpt><trkpt lat="44.5463317" lon="7.9411683"><ele>399.0</ele><time>2026-04-12T13:14:11.062Z</time></trkpt><trkpt lat="44.546385" lon="7.941245"><ele>398.0</ele><time>2026-04-12T13:14:14.063Z</time></trkpt><trkpt lat="44.546445" lon="7.9413083"><ele>397.0</ele><time>2026-04-12T13:14:17.06Z</time></trkpt><trkpt lat="44.5465017" lon="7.9413817"><ele>399.0</ele><time>2026-04-12T13:14:20.063Z</time></trkpt><trkpt lat="44.5465533" lon="7.9414467"><ele>401.0</ele><time>2026-04-12T13:14:23.061Z</time></trkpt><trkpt lat="44.5466033" lon="7.9415067"><ele>403.0</ele><time>2026-04-12T13:14:26.062Z</time></trkpt><trkpt lat="44.5466717" lon="7.9415767"><ele>405.0</ele><time>2026-04-12T13:14:30.062Z</time></trkpt><trkpt lat="44.5467217" lon="7.9416333"><ele>407.0</ele><time>2026-04-12T13:14:33.064Z</time></trkpt><trkpt lat="44.5467633" lon="7.9417017"><ele>409.0</ele><time>2026-04-12T13:14:36.061Z</time></trkpt><trkpt lat="44.546815" lon="7.9417617"><ele>411.0</ele><time>2026-04-12T13:14:39.066Z</time></trkpt><trkpt lat="44.546885" lon="7.94183"><ele>411.0</ele><time>2026-04-12T13:14:43.066Z</time></trkpt><trkpt lat="44.5469483" lon="7.941905"><ele>411.0</ele><time>2026-04-12T13:14:47.064Z</time></trkpt><trkpt lat="44.5470133" lon="7.9419833"><ele>411.0</ele><time>2026-04-12T13:14:51.064Z</time></trkpt><trkpt lat="44.5470567" lon="7.94205"><ele>411.0</ele><time>2026-04-12T13:14:54.065Z</time></trkpt><trkpt lat="44.5471067" lon="7.94211"><ele>411.0</ele><time>2026-04-12T13:14:57.064Z</time></trkpt><trkpt lat="44.54716" lon="7.9421733"><ele>411.0</ele><time>2026-04-12T13:15:00.058Z</time></trkpt><trkpt lat="44.5471583" lon="7.9422833"><ele>411.0</ele><time>2026-04-12T13:15:03.065Z</time></trkpt><trkpt lat="44.547145" lon="7.9423733"><ele>410.7142857142857</ele><time>2026-04-12T13:15:05.062Z</time></trkpt><trkpt lat="44.5471483" lon="7.94247"><ele>410.42857142857144</ele><time>2026-04-12T13:15:07.066Z</time></trkpt><trkpt lat="44.547175" lon="7.94256"><ele>410.1428571428571</ele><time>2026-04-12T13:15:09.063Z</time></trkpt><trkpt lat="44.5472317" lon="7.9426233"><ele>409.8571428571429</ele><time>2026-04-12T13:15:11.063Z</time></trkpt><trkpt lat="44.5472933" lon="7.9426567"><ele>409.5714285714286</ele><time>2026-04-12T13:15:13.061Z</time></trkpt><trkpt lat="44.54736" lon="7.94268"><ele>409.2857142857143</ele><time>2026-04-12T13:15:15.064Z</time></trkpt><trkpt lat="44.5474433" lon="7.942705"><ele>409.0</ele><time>2026-04-12T13:15:18.064Z</time></trkpt><trkpt lat="44.54752" lon="7.9427267"><ele>409.00000000000006</ele><time>2026-04-12T13:15:21.062Z</time></trkpt><trkpt lat="44.5476033" lon="7.94275"><ele>409.0</ele><time>2026-04-12T13:15:25.062Z</time></trkpt><trkpt lat="44.5476817" lon="7.94275"><ele>409.0</ele><time>2026-04-12T13:15:29.064Z</time></trkpt><trkpt lat="44.5477583" lon="7.9427233"><ele>409.0</ele><time>2026-04-12T13:15:33.066Z</time></trkpt><trkpt lat="44.547815" lon="7.9426683"><ele>409.00000000000006</ele><time>2026-04-12T13:15:36.061Z</time></trkpt><trkpt lat="44.5478933" lon="7.94265"><ele>409.0</ele><time>2026-04-12T13:15:40.063Z</time></trkpt><trkpt lat="44.5479533" lon="7.9426867"><ele>412.6666666666667</ele><time>2026-04-12T13:15:43.061Z</time></trkpt><trkpt lat="44.548015" lon="7.9427533"><ele>416.33333333333337</ele><time>2026-04-12T13:15:47.062Z</time></trkpt><trkpt lat="44.5480733" lon="7.9428167"><ele>420.0</ele><time>2026-04-12T13:15:51.061Z</time></trkpt><trkpt lat="44.5481267" lon="7.9428933"><ele>423.66666666666663</ele><time>2026-04-12T13:15:55.063Z</time></trkpt><trkpt lat="44.5481833" lon="7.942965"><ele>427.3333333333333</ele><time>2026-04-12T13:15:59.064Z</time></trkpt><trkpt lat="44.5482367" lon="7.943035"><ele>431.0</ele><time>2026-04-12T13:16:03.066Z</time></trkpt><trkpt lat="44.54829" lon="7.943105"><ele>431.0</ele><time>2026-04-12T13:16:07.064Z</time></trkpt><trkpt lat="44.5483483" lon="7.9431633"><ele>431.0</ele><time>2026-04-12T13:16:11.061Z</time></trkpt><trkpt lat="44.5484167" lon="7.9432167"><ele>431.0</ele><time>2026-04-12T13:16:15.063Z</time></trkpt><trkpt lat="44.5484967" lon="7.9432417"><ele>431.0</ele><time>2026-04-12T13:16:19.062Z</time></trkpt><trkpt lat="44.54856" lon="7.9432633"><ele>431.0</ele><time>2026-04-12T13:16:22.061Z</time></trkpt><trkpt lat="44.5486383" lon="7.943295"><ele>431.0</ele><time>2026-04-12T13:16:26.062Z</time></trkpt><trkpt lat="44.5487017" lon="7.9432917"><ele>431.0</ele><time>2026-04-12T13:16:29.061Z</time></trkpt><trkpt lat="44.548765" lon="7.9432967"><ele>431.66666666666663</ele><time>2026-04-12T13:16:32.064Z</time></trkpt><trkpt lat="44.5488433" lon="7.9433333"><ele>432.3333333333333</ele><time>2026-04-12T13:16:36.062Z</time></trkpt><trkpt lat="44.5489217" lon="7.943385"><ele>433.0</ele><time>2026-04-12T13:16:40.062Z</time></trkpt><trkpt lat="44.5489833" lon="7.9434483"><ele>433.66666666666663</ele><time>2026-04-12T13:16:43.063Z</time></trkpt><trkpt lat="44.5490433" lon="7.9435117"><ele>434.3333333333333</ele><time>2026-04-12T13:16:46.063Z</time></trkpt><trkpt lat="44.5491033" lon="7.9435783"><ele>435.0</ele><time>2026-04-12T13:16:49.059Z</time></trkpt><trkpt lat="44.549165" lon="7.9436467"><ele>435.0</ele><time>2026-04-12T13:16:52.062Z</time></trkpt><trkpt lat="44.54923" lon="7.94371"><ele>435.0</ele><time>2026-04-12T13:16:55.062Z</time></trkpt><trkpt lat="44.5492933" lon="7.94378"><ele>435.0</ele><time>2026-04-12T13:16:58.063Z</time></trkpt><trkpt lat="44.5493617" lon="7.9438483"><ele>435.0</ele><time>2026-04-12T13:17:01.063Z</time></trkpt><trkpt lat="44.54943" lon="7.94392"><ele>435.0</ele><time>2026-04-12T13:17:04.063Z</time></trkpt><trkpt lat="44.5494933" lon="7.943995"><ele>435.0</ele><time>2026-04-12T13:17:07.062Z</time></trkpt><trkpt lat="44.54955" lon="7.9440367"><ele>434.6666666666667</ele><time>2026-04-12T13:17:09.064Z</time></trkpt><trkpt lat="44.5496017" lon="7.9440917"><ele>434.33333333333337</ele><time>2026-04-12T13:17:11.062Z</time></trkpt><trkpt lat="44.5496667" lon="7.9441433"><ele>434.0</ele><time>2026-04-12T13:17:13.065Z</time></trkpt><trkpt lat="44.5497417" lon="7.9442017"><ele>433.6666666666667</ele><time>2026-04-12T13:17:15.064Z</time></trkpt><trkpt lat="44.5498317" lon="7.9442667"><ele>433.33333333333337</ele><time>2026-04-12T13:17:17.061Z</time></trkpt><trkpt lat="44.5499267" lon="7.944335"><ele>433.0</ele><time>2026-04-12T13:17:19.065Z</time></trkpt><trkpt lat="44.55003" lon="7.9444017"><ele>431.75</ele><time>2026-04-12T13:17:21.064Z</time></trkpt><trkpt lat="44.5501333" lon="7.9444733"><ele>430.5</ele><time>2026-04-12T13:17:23.064Z</time></trkpt><trkpt lat="44.55024" lon="7.9445417"><ele>429.25</ele><time>2026-04-12T13:17:25.061Z</time></trkpt><trkpt lat="44.5503483" lon="7.9446067"><ele>428.0</ele><time>2026-04-12T13:17:27.064Z</time></trkpt><trkpt lat="44.55045" lon="7.94468"><ele>428.4</ele><time>2026-04-12T13:17:29.062Z</time></trkpt><trkpt lat="44.5505533" lon="7.944755"><ele>428.79999999999995</ele><time>2026-04-12T13:17:31.061Z</time></trkpt><trkpt lat="44.550655" lon="7.9448317"><ele>429.2</ele><time>2026-04-12T13:17:33.062Z</time></trkpt><trkpt lat="44.5507517" lon="7.9449083"><ele>429.6</ele><time>2026-04-12T13:17:35.061Z</time></trkpt><trkpt lat="44.550835" lon="7.944985"><ele>430.0</ele><time>2026-04-12T13:17:37.063Z</time></trkpt><trkpt lat="44.5509133" lon="7.9450617"><ele>430.00000000000006</ele><time>2026-04-12T13:17:39.062Z</time></trkpt><trkpt lat="44.55099" lon="7.9451317"><ele>430.0</ele><time>2026-04-12T13:17:41.06Z</time></trkpt><trkpt lat="44.551065" lon="7.9451933"><ele>430.0</ele><time>2026-04-12T13:17:43.064Z</time></trkpt><trkpt lat="44.5511333" lon="7.9452533"><ele>430.0</ele><time>2026-04-12T13:17:45.065Z</time></trkpt><trkpt lat="44.5511967" lon="7.9453"><ele>430.00000000000006</ele><time>2026-04-12T13:17:47.063Z</time></trkpt><trkpt lat="44.5512567" lon="7.94534"><ele>430.0</ele><time>2026-04-12T13:17:49.062Z</time></trkpt><trkpt lat="44.5513417" lon="7.9453833"><ele>431.50000000000006</ele><time>2026-04-12T13:17:52.058Z</time></trkpt><trkpt lat="44.5514133" lon="7.94542"><ele>433.0</ele><time>2026-04-12T13:17:54.062Z</time></trkpt><trkpt lat="44.5514883" lon="7.9454417"><ele>434.5</ele><time>2026-04-12T13:17:56.061Z</time></trkpt><trkpt lat="44.5515633" lon="7.9454617"><ele>436.0</ele><time>2026-04-12T13:17:58.063Z</time></trkpt><trkpt lat="44.55164" lon="7.9454933"><ele>437.50000000000006</ele><time>2026-04-12T13:18:00.064Z</time></trkpt><trkpt lat="44.551715" lon="7.94552"><ele>439.0</ele><time>2026-04-12T13:18:02.062Z</time></trkpt><trkpt lat="44.5517917" lon="7.9455567"><ele>439.0</ele><time>2026-04-12T13:18:04.064Z</time></trkpt><trkpt lat="44.5518667" lon="7.9455917"><ele>439.0</ele><time>2026-04-12T13:18:06.062Z</time></trkpt><trkpt lat="44.5519417" lon="7.9456467"><ele>439.0</ele><time>2026-04-12T13:18:08.064Z</time></trkpt><trkpt lat="44.5520217" lon="7.9457217"><ele>439.0</ele><time>2026-04-12T13:18:10.061Z</time></trkpt><trkpt lat="44.5521033" lon="7.945815"><ele>439.0</ele><time>2026-04-12T13:18:12.061Z</time></trkpt><trkpt lat="44.5522033" lon="7.9459067"><ele>438.1666666666667</ele><time>2026-04-12T13:18:14.061Z</time></trkpt><trkpt lat="44.55226" lon="7.9459483"><ele>437.33333333333337</ele><time>2026-04-12T13:18:15.064Z</time></trkpt><trkpt lat="44.552315" lon="7.9459967"><ele>436.5</ele><time>2026-04-12T13:18:16.063Z</time></trkpt><trkpt lat="44.5523667" lon="7.946065"><ele>435.66666666666663</ele><time>2026-04-12T13:18:17.061Z</time></trkpt><trkpt lat="44.5524267" lon="7.94614"><ele>434.8333333333333</ele><time>2026-04-12T13:18:18.062Z</time></trkpt><trkpt lat="44.55249" lon="7.94622"><ele>434.0</ele><time>2026-04-12T13:18:19.063Z</time></trkpt><trkpt lat="44.5525617" lon="7.9463017"><ele>434.0</ele><time>2026-04-12T13:18:20.061Z</time></trkpt><trkpt lat="44.552635" lon="7.94639"><ele>434.0</ele><time>2026-04-12T13:18:21.065Z</time></trkpt><trkpt lat="44.552715" lon="7.9464717"><ele>434.0</ele><time>2026-04-12T13:18:22.061Z</time></trkpt><trkpt lat="44.5528" lon="7.94655"><ele>434.0</ele><time>2026-04-12T13:18:23.063Z</time></trkpt><trkpt lat="44.552885" lon="7.94663"><ele>434.0</ele><time>2026-04-12T13:18:24.061Z</time></trkpt><trkpt lat="44.5529717" lon="7.9467017"><ele>435.49999999999994</ele><time>2026-04-12T13:18:25.063Z</time></trkpt><trkpt lat="44.5530467" lon="7.946775"><ele>437.0</ele><time>2026-04-12T13:18:26.063Z</time></trkpt><trkpt lat="44.55311" lon="7.9468533"><ele>438.5</ele><time>2026-04-12T13:18:27.065Z</time></trkpt><trkpt lat="44.5531717" lon="7.9469333"><ele>440.0</ele><time>2026-04-12T13:18:28.063Z</time></trkpt><trkpt lat="44.5532117" lon="7.94702"><ele>441.49999999999994</ele><time>2026-04-12T13:18:29.063Z</time></trkpt><trkpt lat="44.5532283" lon="7.94712"><ele>443.0</ele><time>2026-04-12T13:18:30.063Z</time></trkpt><trkpt lat="44.55324" lon="7.94721"><ele>442.99999999999994</ele><time>2026-04-12T13:18:31.063Z</time></trkpt><trkpt lat="44.5532433" lon="7.9473067"><ele>443.0</ele><time>2026-04-12T13:18:32.061Z</time></trkpt><trkpt lat="44.553245" lon="7.9473983"><ele>443.0</ele><time>2026-04-12T13:18:33.063Z</time></trkpt><trkpt lat="44.5532717" lon="7.94756"><ele>443.0</ele><time>2026-04-12T13:18:35.061Z</time></trkpt><trkpt lat="44.553335" lon="7.9476467"><ele>442.99999999999994</ele><time>2026-04-12T13:18:37.064Z</time></trkpt><trkpt lat="44.5534083" lon="7.9477033"><ele>443.0</ele><time>2026-04-12T13:18:39.066Z</time></trkpt><trkpt lat="44.5534717" lon="7.94777"><ele>442.49999999999994</ele><time>2026-04-12T13:18:41.063Z</time></trkpt><trkpt lat="44.553535" lon="7.9478367"><ele>442.0</ele><time>2026-04-12T13:18:43.061Z</time></trkpt><trkpt lat="44.553605" lon="7.9479083"><ele>441.5</ele><time>2026-04-12T13:18:45.061Z</time></trkpt><trkpt lat="44.5536783" lon="7.9479783"><ele>441.0</ele><time>2026-04-12T13:18:47.062Z</time></trkpt><trkpt lat="44.5537567" lon="7.9480433"><ele>440.49999999999994</ele><time>2026-04-12T13:18:49.062Z</time></trkpt><trkpt lat="44.55384" lon="7.9481067"><ele>440.0</ele><time>2026-04-12T13:18:51.063Z</time></trkpt><trkpt lat="44.553925" lon="7.9481683"><ele>440.0</ele><time>2026-04-12T13:18:53.061Z</time></trkpt><trkpt lat="44.5540167" lon="7.9482383"><ele>440.0</ele><time>2026-04-12T13:18:55.058Z</time></trkpt><trkpt lat="44.5541083" lon="7.9483233"><ele>440.0</ele><time>2026-04-12T13:18:57.063Z</time></trkpt><trkpt lat="44.5542083" lon="7.9483967"><ele>440.0</ele><time>2026-04-12T13:18:59.062Z</time></trkpt><trkpt lat="44.5543" lon="7.9484783"><ele>440.0</ele><time>2026-04-12T13:19:01.062Z</time></trkpt><trkpt lat="44.5543883" lon="7.9485667"><ele>438.0</ele><time>2026-04-12T13:19:03.062Z</time></trkpt><trkpt lat="44.5544733" lon="7.9486683"><ele>436.0</ele><time>2026-04-12T13:19:05.061Z</time></trkpt><trkpt lat="44.5545633" lon="7.9487683"><ele>434.0</ele><time>2026-04-12T13:19:07.064Z</time></trkpt><trkpt lat="44.5546517" lon="7.948865"><ele>432.0</ele><time>2026-04-12T13:19:09.063Z</time></trkpt><trkpt lat="44.5547417" lon="7.9489567"><ele>432.0</ele><time>2026-04-12T13:19:11.062Z</time></trkpt><trkpt lat="44.5548333" lon="7.9490567"><ele>432.00000000000006</ele><time>2026-04-12T13:19:13.06Z</time></trkpt><trkpt lat="44.554925" lon="7.94916"><ele>432.00000000000006</ele><time>2026-04-12T13:19:15.061Z</time></trkpt><trkpt lat="44.5550267" lon="7.9492717"><ele>432.0</ele><time>2026-04-12T13:19:17.06Z</time></trkpt><trkpt lat="44.5550783" lon="7.9493333"><ele>432.0</ele><time>2026-04-12T13:19:18.06Z</time></trkpt><trkpt lat="44.5551283" lon="7.9494"><ele>432.1666666666667</ele><time>2026-04-12T13:19:19.061Z</time></trkpt><trkpt lat="44.55518" lon="7.949465"><ele>432.33333333333337</ele><time>2026-04-12T13:19:20.062Z</time></trkpt><trkpt lat="44.55523" lon="7.9495267"><ele>432.5</ele><time>2026-04-12T13:19:21.063Z</time></trkpt><trkpt lat="44.55533" lon="7.9496433"><ele>432.6666666666667</ele><time>2026-04-12T13:19:23.06Z</time></trkpt><trkpt lat="44.555385" lon="7.9496967"><ele>432.83333333333337</ele><time>2026-04-12T13:19:24.062Z</time></trkpt><trkpt lat="44.5554367" lon="7.9497583"><ele>433.0</ele><time>2026-04-12T13:19:25.061Z</time></trkpt><trkpt lat="44.55549" lon="7.9498133"><ele>433.00000000000006</ele><time>2026-04-12T13:19:26.063Z</time></trkpt><trkpt lat="44.5555417" lon="7.949865"><ele>433.0</ele><time>2026-04-12T13:19:27.063Z</time></trkpt><trkpt lat="44.5555917" lon="7.9499217"><ele>433.0</ele><time>2026-04-12T13:19:28.062Z</time></trkpt><trkpt lat="44.555645" lon="7.94997"><ele>433.0</ele><time>2026-04-12T13:19:29.062Z</time></trkpt><trkpt lat="44.5557417" lon="7.95007"><ele>433.00000000000006</ele><time>2026-04-12T13:19:31.061Z</time></trkpt><trkpt lat="44.5558283" lon="7.95018"><ele>433.0</ele><time>2026-04-12T13:19:33.062Z</time></trkpt><trkpt lat="44.5559067" lon="7.9502883"><ele>432.33333333333337</ele><time>2026-04-12T13:19:35.063Z</time></trkpt><trkpt lat="44.555975" lon="7.950385"><ele>431.6666666666667</ele><time>2026-04-12T13:19:37.063Z</time></trkpt><trkpt lat="44.5560317" lon="7.95046"><ele>431.0</ele><time>2026-04-12T13:19:39.065Z</time></trkpt><trkpt lat="44.5560883" lon="7.9505333"><ele>430.33333333333337</ele><time>2026-04-12T13:19:41.062Z</time></trkpt><trkpt lat="44.5561517" lon="7.9506117"><ele>429.6666666666667</ele><time>2026-04-12T13:19:43.061Z</time></trkpt><trkpt lat="44.5562233" lon="7.950675"><ele>429.0</ele><time>2026-04-12T13:19:45.061Z</time></trkpt><trkpt lat="44.556305" lon="7.9507267"><ele>429.8333333333333</ele><time>2026-04-12T13:19:47.063Z</time></trkpt><trkpt lat="44.5563967" lon="7.9507867"><ele>430.66666666666663</ele><time>2026-04-12T13:19:49.061Z</time></trkpt><trkpt lat="44.5565133" lon="7.9508583"><ele>431.5</ele><time>2026-04-12T13:19:51.063Z</time></trkpt><trkpt lat="44.5565717" lon="7.9508917"><ele>432.3333333333333</ele><time>2026-04-12T13:19:52.061Z</time></trkpt><trkpt lat="44.5566333" lon="7.9509233"><ele>433.16666666666663</ele><time>2026-04-12T13:19:53.061Z</time></trkpt><trkpt lat="44.556695" lon="7.95095"><ele>434.0</ele><time>2026-04-12T13:19:54.061Z</time></trkpt><trkpt lat="44.5567967" lon="7.9510117"><ele>434.0</ele><time>2026-04-12T13:19:56.06Z</time></trkpt><trkpt lat="44.556865" lon="7.95111"><ele>434.0</ele><time>2026-04-12T13:19:58.064Z</time></trkpt><trkpt lat="44.5568983" lon="7.9512383"><ele>434.0</ele><time>2026-04-12T13:20:00.061Z</time></trkpt><trkpt lat="44.5569133" lon="7.9513967"><ele>434.0</ele><time>2026-04-12T13:20:02.061Z</time></trkpt><trkpt lat="44.5569317" lon="7.95154"><ele>434.0</ele><time>2026-04-12T13:20:04.062Z</time></trkpt><trkpt lat="44.55692" lon="7.9516633"><ele>433.6</ele><time>2026-04-12T13:20:06.063Z</time></trkpt><trkpt lat="44.5569567" lon="7.9517633"><ele>433.2</ele><time>2026-04-12T13:20:09.062Z</time></trkpt><trkpt lat="44.5570483" lon="7.9518117"><ele>432.80000000000007</ele><time>2026-04-12T13:20:11.063Z</time></trkpt><trkpt lat="44.5571683" lon="7.9518083"><ele>432.40000000000003</ele><time>2026-04-12T13:20:13.062Z</time></trkpt><trkpt lat="44.5572733" lon="7.95172"><ele>432.0</ele><time>2026-04-12T13:20:15.065Z</time></trkpt><trkpt lat="44.5572783" lon="7.9515517"><ele>430.3333333333333</ele><time>2026-04-12T13:20:17.059Z</time></trkpt><trkpt lat="44.5572533" lon="7.9514683"><ele>428.66666666666663</ele><time>2026-04-12T13:20:18.062Z</time></trkpt><trkpt lat="44.5572317" lon="7.951385"><ele>427.0</ele><time>2026-04-12T13:20:19.061Z</time></trkpt><trkpt lat="44.5572517" lon="7.95124"><ele>425.3333333333333</ele><time>2026-04-12T13:20:21.064Z</time></trkpt><trkpt lat="44.5573517" lon="7.9512183"><ele>423.66666666666663</ele><time>2026-04-12T13:20:23.061Z</time></trkpt><trkpt lat="44.5574283" lon="7.9512567"><ele>422.0</ele><time>2026-04-12T13:20:24.063Z</time></trkpt><trkpt lat="44.5575117" lon="7.95131"><ele>422.0</ele><time>2026-04-12T13:20:25.062Z</time></trkpt><trkpt lat="44.557605" lon="7.951355"><ele>422.0</ele><time>2026-04-12T13:20:26.062Z</time></trkpt><trkpt lat="44.557705" lon="7.951395"><ele>422.0</ele><time>2026-04-12T13:20:27.062Z</time></trkpt><trkpt lat="44.5578117" lon="7.9514367"><ele>422.0</ele><time>2026-04-12T13:20:28.061Z</time></trkpt><trkpt lat="44.55792" lon="7.951485"><ele>422.0</ele><time>2026-04-12T13:20:29.061Z</time></trkpt><trkpt lat="44.5580333" lon="7.9515317"><ele>418.75</ele><time>2026-04-12T13:20:30.064Z</time></trkpt><trkpt lat="44.5581483" lon="7.9515733"><ele>415.5</ele><time>2026-04-12T13:20:31.061Z</time></trkpt><trkpt lat="44.5582717" lon="7.951595"><ele>412.25</ele><time>2026-04-12T13:20:32.061Z</time></trkpt><trkpt lat="44.558395" lon="7.9515817"><ele>409.0</ele><time>2026-04-12T13:20:33.062Z</time></trkpt><trkpt lat="44.5585133" lon="7.951545"><ele>409.0</ele><time>2026-04-12T13:20:34.062Z</time></trkpt><trkpt lat="44.5586317" lon="7.9514883"><ele>409.0</ele><time>2026-04-12T13:20:35.061Z</time></trkpt><trkpt lat="44.5587533" lon="7.9514267"><ele>409.0</ele><time>2026-04-12T13:20:36.061Z</time></trkpt><trkpt lat="44.5588867" lon="7.9513767"><ele>409.0</ele><time>2026-04-12T13:20:37.064Z</time></trkpt><trkpt lat="44.55902" lon="7.9513467"><ele>406.75</ele><time>2026-04-12T13:20:38.061Z</time></trkpt><trkpt lat="44.5591467" lon="7.951325"><ele>404.5</ele><time>2026-04-12T13:20:39.064Z</time></trkpt><trkpt lat="44.5592617" lon="7.9513017"><ele>402.25</ele><time>2026-04-12T13:20:40.062Z</time></trkpt><trkpt lat="44.559365" lon="7.951285"><ele>400.0</ele><time>2026-04-12T13:20:41.061Z</time></trkpt><trkpt lat="44.5594683" lon="7.95129"><ele>397.00000000000006</ele><time>2026-04-12T13:20:42.062Z</time></trkpt><trkpt lat="44.55957" lon="7.951305"><ele>394.0</ele><time>2026-04-12T13:20:43.063Z</time></trkpt><trkpt lat="44.5596633" lon="7.95134"><ele>391.0</ele><time>2026-04-12T13:20:44.062Z</time></trkpt><trkpt lat="44.55975" lon="7.951385"><ele>388.0</ele><time>2026-04-12T13:20:45.063Z</time></trkpt><trkpt lat="44.559825" lon="7.9514267"><ele>385.0</ele><time>2026-04-12T13:20:46.06Z</time></trkpt><trkpt lat="44.559885" lon="7.9514567"><ele>382.0</ele><time>2026-04-12T13:20:47.062Z</time></trkpt><trkpt lat="44.55997" lon="7.9514783"><ele>382.0</ele><time>2026-04-12T13:20:49.063Z</time></trkpt><trkpt lat="44.560015" lon="7.95141"><ele>382.0</ele><time>2026-04-12T13:20:51.063Z</time></trkpt><trkpt lat="44.5600817" lon="7.9514033"><ele>382.0</ele><time>2026-04-12T13:20:54.063Z</time></trkpt><trkpt lat="44.5601333" lon="7.951465"><ele>382.0</ele><time>2026-04-12T13:20:56.066Z</time></trkpt><trkpt lat="44.5601967" lon="7.9515267"><ele>382.0</ele><time>2026-04-12T13:20:58.065Z</time></trkpt><trkpt lat="44.5602617" lon="7.9516067"><ele>382.0</ele><time>2026-04-12T13:21:00.063Z</time></trkpt><trkpt lat="44.5603317" lon="7.9516917"><ele>381.0</ele><time>2026-04-12T13:21:02.062Z</time></trkpt><trkpt lat="44.5604" lon="7.951785"><ele>380.0</ele><time>2026-04-12T13:21:04.064Z</time></trkpt><trkpt lat="44.560475" lon="7.951875"><ele>379.0</ele><time>2026-04-12T13:21:06.061Z</time></trkpt><trkpt lat="44.56056" lon="7.9519683"><ele>378.0</ele><time>2026-04-12T13:21:08.065Z</time></trkpt><trkpt lat="44.5606467" lon="7.9520633"><ele>377.0</ele><time>2026-04-12T13:21:10.066Z</time></trkpt><trkpt lat="44.5607317" lon="7.9521483"><ele>377.0</ele><time>2026-04-12T13:21:12.062Z</time></trkpt><trkpt lat="44.5608083" lon="7.952235"><ele>377.0</ele><time>2026-04-12T13:21:14.062Z</time></trkpt><trkpt lat="44.5608633" lon="7.95232"><ele>377.0</ele><time>2026-04-12T13:21:16.063Z</time></trkpt><trkpt lat="44.560915" lon="7.9523917"><ele>377.0</ele><time>2026-04-12T13:21:18.062Z</time></trkpt><trkpt lat="44.5609633" lon="7.9524617"><ele>377.0</ele><time>2026-04-12T13:21:20.064Z</time></trkpt><trkpt lat="44.561015" lon="7.9525233"><ele>377.0</ele><time>2026-04-12T13:21:22.064Z</time></trkpt><trkpt lat="44.5610667" lon="7.952585"><ele>375.6666666666667</ele><time>2026-04-12T13:21:24.063Z</time></trkpt><trkpt lat="44.56112" lon="7.95264"><ele>374.33333333333337</ele><time>2026-04-12T13:21:26.063Z</time></trkpt><trkpt lat="44.561175" lon="7.9526917"><ele>373.0</ele><time>2026-04-12T13:21:28.065Z</time></trkpt><trkpt lat="44.5612417" lon="7.9527367"><ele>371.6666666666667</ele><time>2026-04-12T13:21:30.063Z</time></trkpt><trkpt lat="44.5613533" lon="7.95275"><ele>370.3333333333333</ele><time>2026-04-12T13:21:32.064Z</time></trkpt><trkpt lat="44.56142" lon="7.9527483"><ele>369.0</ele><time>2026-04-12T13:21:33.066Z</time></trkpt><trkpt lat="44.5614883" lon="7.9527467"><ele>369.0</ele><time>2026-04-12T13:21:34.062Z</time></trkpt><trkpt lat="44.5615583" lon="7.9527433"><ele>369.0</ele><time>2026-04-12T13:21:35.062Z</time></trkpt><trkpt lat="44.5616283" lon="7.9527433"><ele>369.0</ele><time>2026-04-12T13:21:36.064Z</time></trkpt><trkpt lat="44.561695" lon="7.9527433"><ele>369.0</ele><time>2026-04-12T13:21:37.063Z</time></trkpt><trkpt lat="44.5617633" lon="7.9527417"><ele>369.0</ele><time>2026-04-12T13:21:38.062Z</time></trkpt><trkpt lat="44.56183" lon="7.9527433"><ele>369.0</ele><time>2026-04-12T13:21:39.064Z</time></trkpt><trkpt lat="44.5619483" lon="7.95274"><ele>366.8333333333333</ele><time>2026-04-12T13:21:41.062Z</time></trkpt><trkpt lat="44.5620483" lon="7.952725"><ele>364.6666666666667</ele><time>2026-04-12T13:21:43.061Z</time></trkpt><trkpt lat="44.562105" lon="7.9527667"><ele>362.5</ele><time>2026-04-12T13:21:46.062Z</time></trkpt><trkpt lat="44.5621633" lon="7.9528317"><ele>360.33333333333337</ele><time>2026-04-12T13:21:49.064Z</time></trkpt><trkpt lat="44.5621667" lon="7.9529367"><ele>358.1666666666667</ele><time>2026-04-12T13:21:52.066Z</time></trkpt><trkpt lat="44.562145" lon="7.9530417"><ele>356.0</ele><time>2026-04-12T13:21:54.062Z</time></trkpt><trkpt lat="44.5620933" lon="7.9531467"><ele>356.6666666666667</ele><time>2026-04-12T13:21:56.063Z</time></trkpt><trkpt lat="44.56201" lon="7.953245"><ele>357.33333333333337</ele><time>2026-04-12T13:21:58.064Z</time></trkpt><trkpt lat="44.561905" lon="7.953355"><ele>358.0</ele><time>2026-04-12T13:22:00.062Z</time></trkpt><trkpt lat="44.5618483" lon="7.9534133"><ele>358.6666666666667</ele><time>2026-04-12T13:22:01.062Z</time></trkpt><trkpt lat="44.5617883" lon="7.9534683"><ele>359.3333333333333</ele><time>2026-04-12T13:22:02.061Z</time></trkpt><trkpt lat="44.5617367" lon="7.9535267"><ele>360.0</ele><time>2026-04-12T13:22:03.064Z</time></trkpt><trkpt lat="44.561665" lon="7.9536567"><ele>360.0</ele><time>2026-04-12T13:22:05.063Z</time></trkpt><trkpt lat="44.5616467" lon="7.9538183"><ele>360.0</ele><time>2026-04-12T13:22:07.061Z</time></trkpt><trkpt lat="44.5616417" lon="7.95391"><ele>360.0</ele><time>2026-04-12T13:22:08.062Z</time></trkpt><trkpt lat="44.5616367" lon="7.9540033"><ele>360.0</ele><time>2026-04-12T13:22:09.063Z</time></trkpt><trkpt lat="44.5616317" lon="7.9541067"><ele>360.0</ele><time>2026-04-12T13:22:10.061Z</time></trkpt><trkpt lat="44.5616267" lon="7.9542167"><ele>360.0</ele><time>2026-04-12T13:22:11.06Z</time></trkpt><trkpt lat="44.56162" lon="7.9543217"><ele>359.6666666666667</ele><time>2026-04-12T13:22:12.063Z</time></trkpt><trkpt lat="44.5616183" lon="7.95443"><ele>359.3333333333333</ele><time>2026-04-12T13:22:13.063Z</time></trkpt><trkpt lat="44.5616167" lon="7.9545383"><ele>359.0</ele><time>2026-04-12T13:22:14.063Z</time></trkpt><trkpt lat="44.5616133" lon="7.9546383"><ele>358.66666666666663</ele><time>2026-04-12T13:22:15.066Z</time></trkpt><trkpt lat="44.5616133" lon="7.9547367"><ele>358.3333333333333</ele><time>2026-04-12T13:22:16.065Z</time></trkpt><trkpt lat="44.56161" lon="7.9548283"><ele>358.0</ele><time>2026-04-12T13:22:17.061Z</time></trkpt><trkpt lat="44.5616083" lon="7.9549967"><ele>359.2</ele><time>2026-04-12T13:22:19.062Z</time></trkpt><trkpt lat="44.5616083" lon="7.95515"><ele>360.4</ele><time>2026-04-12T13:22:21.062Z</time></trkpt><trkpt lat="44.5616" lon="7.95529"><ele>361.59999999999997</ele><time>2026-04-12T13:22:23.063Z</time></trkpt><trkpt lat="44.5615933" lon="7.9554217"><ele>362.79999999999995</ele><time>2026-04-12T13:22:25.062Z</time></trkpt><trkpt lat="44.5615933" lon="7.9555483"><ele>364.0</ele><time>2026-04-12T13:22:27.065Z</time></trkpt><trkpt lat="44.5615883" lon="7.9556683"><ele>364.0</ele><time>2026-04-12T13:22:29.064Z</time></trkpt><trkpt lat="44.56158" lon="7.95577"><ele>364.0</ele><time>2026-04-12T13:22:31.063Z</time></trkpt><trkpt lat="44.561555" lon="7.9558583"><ele>364.0</ele><time>2026-04-12T13:22:33.062Z</time></trkpt><trkpt lat="44.5614883" lon="7.9558917"><ele>364.0</ele><time>2026-04-12T13:22:36.064Z</time></trkpt><trkpt lat="44.5614283" lon="7.95585"><ele>364.0</ele><time>2026-04-12T13:22:39.064Z</time></trkpt><trkpt lat="44.5613983" lon="7.955765"><ele>364.0</ele><time>2026-04-12T13:22:42.066Z</time></trkpt><trkpt lat="44.5613583" lon="7.9556783"><ele>364.0</ele><time>2026-04-12T13:22:45.062Z</time></trkpt><trkpt lat="44.56131" lon="7.95562"><ele>364.0</ele><time>2026-04-12T13:22:48.064Z</time></trkpt><trkpt lat="44.56124" lon="7.9555933"><ele>364.0</ele><time>2026-04-12T13:22:51.065Z</time></trkpt><trkpt lat="44.56117" lon="7.9556233"><ele>364.0</ele><time>2026-04-12T13:22:54.065Z</time></trkpt><trkpt lat="44.561105" lon="7.9556983"><ele>364.0</ele><time>2026-04-12T13:22:57.063Z</time></trkpt><trkpt lat="44.5610583" lon="7.9557883"><ele>364.0</ele><time>2026-04-12T13:23:00.066Z</time></trkpt><trkpt lat="44.5610283" lon="7.9558817"><ele>364.0</ele><time>2026-04-12T13:23:03.064Z</time></trkpt><trkpt lat="44.561" lon="7.955975"><ele>364.7142857142857</ele><time>2026-04-12T13:23:06.064Z</time></trkpt><trkpt lat="44.5609567" lon="7.9560417"><ele>365.42857142857144</ele><time>2026-04-12T13:23:09.066Z</time></trkpt><trkpt lat="44.5609117" lon="7.956105"><ele>366.1428571428571</ele><time>2026-04-12T13:23:12.065Z</time></trkpt><trkpt lat="44.5608633" lon="7.9561733"><ele>366.8571428571429</ele><time>2026-04-12T13:23:15.062Z</time></trkpt><trkpt lat="44.560805" lon="7.9562367"><ele>367.57142857142856</ele><time>2026-04-12T13:23:18.066Z</time></trkpt><trkpt lat="44.5607433" lon="7.95628"><ele>368.2857142857143</ele><time>2026-04-12T13:23:21.064Z</time></trkpt><trkpt lat="44.5606817" lon="7.9563233"><ele>369.0</ele><time>2026-04-12T13:23:24.065Z</time></trkpt><trkpt lat="44.56062" lon="7.9563717"><ele>369.0</ele><time>2026-04-12T13:23:27.063Z</time></trkpt><trkpt lat="44.56056" lon="7.95641"><ele>369.0</ele><time>2026-04-12T13:23:30.061Z</time></trkpt><trkpt lat="44.5604933" lon="7.9564533"><ele>369.0</ele><time>2026-04-12T13:23:33.065Z</time></trkpt><trkpt lat="44.5604283" lon="7.95649"><ele>369.0</ele><time>2026-04-12T13:23:36.063Z</time></trkpt><trkpt lat="44.5603617" lon="7.9565267"><ele>369.0</ele><time>2026-04-12T13:23:39.062Z</time></trkpt><trkpt lat="44.5603017" lon="7.956575"><ele>369.0</ele><time>2026-04-12T13:23:42.064Z</time></trkpt><trkpt lat="44.5602417" lon="7.9566283"><ele>369.0</ele><time>2026-04-12T13:23:45.061Z</time></trkpt><trkpt lat="44.5601917" lon="7.9567033"><ele>372.8333333333333</ele><time>2026-04-12T13:23:48.064Z</time></trkpt><trkpt lat="44.5601383" lon="7.9567983"><ele>376.66666666666663</ele><time>2026-04-12T13:23:51.064Z</time></trkpt><trkpt lat="44.560095" lon="7.9568783"><ele>380.5</ele><time>2026-04-12T13:23:54.064Z</time></trkpt><trkpt lat="44.5600417" lon="7.9569517"><ele>384.3333333333333</ele><time>2026-04-12T13:23:57.06Z</time></trkpt><trkpt lat="44.560005" lon="7.9570267"><ele>388.16666666666663</ele><time>2026-04-12T13:24:00.066Z</time></trkpt><trkpt lat="44.5599483" lon="7.9571067"><ele>392.0</ele><time>2026-04-12T13:24:03.062Z</time></trkpt><trkpt lat="44.5599083" lon="7.95721"><ele>391.99999999999994</ele><time>2026-04-12T13:24:06.061Z</time></trkpt><trkpt lat="44.55989" lon="7.9572967"><ele>392.0</ele><time>2026-04-12T13:24:09.064Z</time></trkpt><trkpt lat="44.55988" lon="7.957405"><ele>392.0</ele><time>2026-04-12T13:24:12.064Z</time></trkpt><trkpt lat="44.559865" lon="7.95751"><ele>392.0</ele><time>2026-04-12T13:24:15.064Z</time></trkpt><trkpt lat="44.5598517" lon="7.9576233"><ele>391.99999999999994</ele><time>2026-04-12T13:24:18.063Z</time></trkpt><trkpt lat="44.5598617" lon="7.9577367"><ele>392.0</ele><time>2026-04-12T13:24:21.064Z</time></trkpt><trkpt lat="44.55989" lon="7.9578483"><ele>393.66666666666663</ele><time>2026-04-12T13:24:24.063Z</time></trkpt><trkpt lat="44.559935" lon="7.9579467"><ele>395.3333333333333</ele><time>2026-04-12T13:24:27.076Z</time></trkpt><trkpt lat="44.55999" lon="7.9580317"><ele>397.0</ele><time>2026-04-12T13:24:30.062Z</time></trkpt><trkpt lat="44.560055" lon="7.9581033"><ele>398.66666666666663</ele><time>2026-04-12T13:24:33.065Z</time></trkpt><trkpt lat="44.5601117" lon="7.95817"><ele>400.3333333333333</ele><time>2026-04-12T13:24:36.063Z</time></trkpt><trkpt lat="44.5601667" lon="7.958245"><ele>402.0</ele><time>2026-04-12T13:24:39.066Z</time></trkpt><trkpt lat="44.5602017" lon="7.9583467"><ele>400.6666666666667</ele><time>2026-04-12T13:24:43.064Z</time></trkpt><trkpt lat="44.5602633" lon="7.9584383"><ele>399.33333333333337</ele><time>2026-04-12T13:24:46.064Z</time></trkpt><trkpt lat="44.5602833" lon="7.9585417"><ele>398.0</ele><time>2026-04-12T13:24:49.062Z</time></trkpt><trkpt lat="44.560335" lon="7.9586517"><ele>396.6666666666667</ele><time>2026-04-12T13:24:52.062Z</time></trkpt><trkpt lat="44.5603683" lon="7.9587733"><ele>395.33333333333337</ele><time>2026-04-12T13:24:55.062Z</time></trkpt><trkpt lat="44.5604217" lon="7.9588783"><ele>394.0</ele><time>2026-04-12T13:24:58.064Z</time></trkpt><trkpt lat="44.560465" lon="7.9589517"><ele>394.0</ele><time>2026-04-12T13:25:00.063Z</time></trkpt><trkpt lat="44.5605" lon="7.9590667"><ele>394.0</ele><time>2026-04-12T13:25:03.063Z</time></trkpt><trkpt lat="44.5605283" lon="7.9591583"><ele>394.0</ele><time>2026-04-12T13:25:06.062Z</time></trkpt><trkpt lat="44.5605433" lon="7.95926"><ele>394.0</ele><time>2026-04-12T13:25:09.063Z</time></trkpt><trkpt lat="44.5605583" lon="7.9593567"><ele>394.0</ele><time>2026-04-12T13:25:12.062Z</time></trkpt><trkpt lat="44.5605683" lon="7.9594533"><ele>394.0</ele><time>2026-04-12T13:25:15.065Z</time></trkpt><trkpt lat="44.5605817" lon="7.9595533"><ele>394.0</ele><time>2026-04-12T13:25:18.062Z</time></trkpt><trkpt lat="44.560585" lon="7.9596467"><ele>394.57142857142856</ele><time>2026-04-12T13:25:21.064Z</time></trkpt><trkpt lat="44.5605667" lon="7.9597317"><ele>395.14285714285717</ele><time>2026-04-12T13:25:24.063Z</time></trkpt><trkpt lat="44.5605483" lon="7.9598217"><ele>395.71428571428567</ele><time>2026-04-12T13:25:27.063Z</time></trkpt><trkpt lat="44.560515" lon="7.959915"><ele>396.2857142857143</ele><time>2026-04-12T13:25:30.062Z</time></trkpt><trkpt lat="44.560485" lon="7.96002"><ele>396.85714285714283</ele><time>2026-04-12T13:25:34.064Z</time></trkpt><trkpt lat="44.5604817" lon="7.9601083"><ele>397.4285714285714</ele><time>2026-04-12T13:25:37.063Z</time></trkpt><trkpt lat="44.5604317" lon="7.9602067"><ele>398.0</ele><time>2026-04-12T13:25:40.063Z</time></trkpt><trkpt lat="44.5604" lon="7.96031"><ele>400.99999999999994</ele><time>2026-04-12T13:25:43.063Z</time></trkpt><trkpt lat="44.560355" lon="7.960405"><ele>404.0</ele><time>2026-04-12T13:25:46.065Z</time></trkpt><trkpt lat="44.5603167" lon="7.9604833"><ele>407.0</ele><time>2026-04-12T13:25:49.064Z</time></trkpt><trkpt lat="44.5602767" lon="7.9605733"><ele>410.0</ele><time>2026-04-12T13:25:52.061Z</time></trkpt><trkpt lat="44.56023" lon="7.9606367"><ele>413.0</ele><time>2026-04-12T13:25:55.064Z</time></trkpt><trkpt lat="44.5601917" lon="7.96073"><ele>415.99999999999994</ele><time>2026-04-12T13:25:59.062Z</time></trkpt><trkpt lat="44.5601567" lon="7.9608083"><ele>419.0</ele><time>2026-04-12T13:26:02.061Z</time></trkpt><trkpt lat="44.560105" lon="7.9608883"><ele>418.99999999999994</ele><time>2026-04-12T13:26:05.062Z</time></trkpt><trkpt lat="44.560085" lon="7.96099"><ele>419.0</ele><time>2026-04-12T13:26:08.062Z</time></trkpt><trkpt lat="44.5600933" lon="7.9610983"><ele>419.0</ele><time>2026-04-12T13:26:11.062Z</time></trkpt><trkpt lat="44.560115" lon="7.9611833"><ele>419.0</ele><time>2026-04-12T13:26:13.061Z</time></trkpt><trkpt lat="44.56011" lon="7.961275"><ele>419.0</ele><time>2026-04-12T13:26:16.062Z</time></trkpt><trkpt lat="44.5601117" lon="7.9613883"><ele>418.99999999999994</ele><time>2026-04-12T13:26:20.063Z</time></trkpt><trkpt lat="44.5601033" lon="7.9614833"><ele>419.0</ele><time>2026-04-12T13:26:23.061Z</time></trkpt><trkpt lat="44.560075" lon="7.961575"><ele>418.99999999999994</ele><time>2026-04-12T13:26:27.065Z</time></trkpt><trkpt lat="44.5600533" lon="7.9616767"><ele>419.0</ele><time>2026-04-12T13:26:31.061Z</time></trkpt><trkpt lat="44.560025" lon="7.961775"><ele>419.0</ele><time>2026-04-12T13:26:35.061Z</time></trkpt><trkpt lat="44.5600217" lon="7.961885"><ele>419.0</ele><time>2026-04-12T13:26:39.063Z</time></trkpt><trkpt lat="44.5600183" lon="7.9619983"><ele>418.99999999999994</ele><time>2026-04-12T13:26:43.063Z</time></trkpt><trkpt lat="44.5600117" lon="7.9621033"><ele>419.0</ele><time>2026-04-12T13:26:47.061Z</time></trkpt><trkpt lat="44.56" lon="7.9621983"><ele>419.8333333333333</ele><time>2026-04-12T13:26:50.065Z</time></trkpt><trkpt lat="44.5600017" lon="7.9623167"><ele>420.66666666666663</ele><time>2026-04-12T13:26:54.063Z</time></trkpt><trkpt lat="44.560005" lon="7.9624333"><ele>421.5</ele><time>2026-04-12T13:26:58.065Z</time></trkpt><trkpt lat="44.5600217" lon="7.96254"><ele>422.33333333333337</ele><time>2026-04-12T13:27:02.064Z</time></trkpt><trkpt lat="44.56003" lon="7.962645"><ele>423.1666666666667</ele><time>2026-04-12T13:27:06.064Z</time></trkpt><trkpt lat="44.5600533" lon="7.9627517"><ele>424.0</ele><time>2026-04-12T13:27:10.062Z</time></trkpt><trkpt lat="44.56007" lon="7.9628517"><ele>424.7142857142857</ele><time>2026-04-12T13:27:14.063Z</time></trkpt><trkpt lat="44.5600883" lon="7.9629583"><ele>425.4285714285714</ele><time>2026-04-12T13:27:18.061Z</time></trkpt><trkpt lat="44.560095" lon="7.9630683"><ele>426.1428571428571</ele><time>2026-04-12T13:27:22.064Z</time></trkpt><trkpt lat="44.5601217" lon="7.96317"><ele>426.8571428571429</ele><time>2026-04-12T13:27:26.062Z</time></trkpt><trkpt lat="44.5601567" lon="7.9632483"><ele>427.57142857142856</ele><time>2026-04-12T13:27:29.062Z</time></trkpt><trkpt lat="44.56019" lon="7.963335"><ele>428.2857142857143</ele><time>2026-04-12T13:27:32.064Z</time></trkpt><trkpt lat="44.5602167" lon="7.9634333"><ele>429.0</ele><time>2026-04-12T13:27:35.06Z</time></trkpt><trkpt lat="44.560255" lon="7.9635117"><ele>429.0</ele><time>2026-04-12T13:27:38.062Z</time></trkpt><trkpt lat="44.56032" lon="7.963585"><ele>429.0</ele><time>2026-04-12T13:27:41.062Z</time></trkpt><trkpt lat="44.5603833" lon="7.9636767"><ele>429.0</ele><time>2026-04-12T13:27:44.065Z</time></trkpt><trkpt lat="44.5604533" lon="7.9637583"><ele>429.0</ele><time>2026-04-12T13:27:47.063Z</time></trkpt><trkpt lat="44.5605083" lon="7.9638067"><ele>429.0</ele><time>2026-04-12T13:27:49.062Z</time></trkpt><trkpt lat="44.560565" lon="7.9638533"><ele>429.0</ele><time>2026-04-12T13:27:51.064Z</time></trkpt><trkpt lat="44.5606217" lon="7.9639033"><ele>429.42857142857144</ele><time>2026-04-12T13:27:53.064Z</time></trkpt><trkpt lat="44.5606817" lon="7.9639483"><ele>429.8571428571429</ele><time>2026-04-12T13:27:55.064Z</time></trkpt><trkpt lat="44.56074" lon="7.9640033"><ele>430.2857142857143</ele><time>2026-04-12T13:27:57.063Z</time></trkpt><trkpt lat="44.560795" lon="7.9640533"><ele>430.7142857142857</ele><time>2026-04-12T13:27:59.062Z</time></trkpt><trkpt lat="44.5608567" lon="7.9641017"><ele>431.1428571428571</ele><time>2026-04-12T13:28:01.062Z</time></trkpt><trkpt lat="44.5609233" lon="7.9641333"><ele>431.57142857142856</ele><time>2026-04-12T13:28:03.063Z</time></trkpt><trkpt lat="44.5609983" lon="7.964165"><ele>432.0</ele><time>2026-04-12T13:28:05.065Z</time></trkpt><trkpt lat="44.5610733" lon="7.964205"><ele>432.0</ele><time>2026-04-12T13:28:07.065Z</time></trkpt><trkpt lat="44.5611517" lon="7.9642417"><ele>432.00000000000006</ele><time>2026-04-12T13:28:09.064Z</time></trkpt><trkpt lat="44.5612283" lon="7.9642717"><ele>432.00000000000006</ele><time>2026-04-12T13:28:11.062Z</time></trkpt><trkpt lat="44.5613183" lon="7.9642983"><ele>432.0</ele><time>2026-04-12T13:28:13.062Z</time></trkpt><trkpt lat="44.56142" lon="7.9643117"><ele>432.0</ele><time>2026-04-12T13:28:15.062Z</time></trkpt><trkpt lat="44.5615233" lon="7.9643217"><ele>430.8</ele><time>2026-04-12T13:28:17.062Z</time></trkpt><trkpt lat="44.5616217" lon="7.9643267"><ele>429.6</ele><time>2026-04-12T13:28:19.062Z</time></trkpt><trkpt lat="44.5617233" lon="7.964325"><ele>428.40000000000003</ele><time>2026-04-12T13:28:21.064Z</time></trkpt><trkpt lat="44.561835" lon="7.9643017"><ele>427.20000000000005</ele><time>2026-04-12T13:28:23.06Z</time></trkpt><trkpt lat="44.5619483" lon="7.9642767"><ele>426.0</ele><time>2026-04-12T13:28:25.062Z</time></trkpt><trkpt lat="44.562075" lon="7.964245"><ele>425.6666666666667</ele><time>2026-04-12T13:28:27.064Z</time></trkpt><trkpt lat="44.5621467" lon="7.9642267"><ele>425.33333333333337</ele><time>2026-04-12T13:28:28.064Z</time></trkpt><trkpt lat="44.56222" lon="7.96421"><ele>425.0</ele><time>2026-04-12T13:28:29.061Z</time></trkpt><trkpt lat="44.5623017" lon="7.964195"><ele>424.6666666666667</ele><time>2026-04-12T13:28:30.061Z</time></trkpt><trkpt lat="44.5623833" lon="7.9641833"><ele>424.33333333333337</ele><time>2026-04-12T13:28:31.061Z</time></trkpt><trkpt lat="44.56247" lon="7.96417"><ele>424.0</ele><time>2026-04-12T13:28:32.061Z</time></trkpt><trkpt lat="44.5625633" lon="7.9641517"><ele>424.0</ele><time>2026-04-12T13:28:33.063Z</time></trkpt><trkpt lat="44.56266" lon="7.9641233"><ele>424.0</ele><time>2026-04-12T13:28:34.061Z</time></trkpt><trkpt lat="44.5627617" lon="7.9640833"><ele>424.0</ele><time>2026-04-12T13:28:35.06Z</time></trkpt><trkpt lat="44.5628667" lon="7.9640417"><ele>424.0</ele><time>2026-04-12T13:28:36.061Z</time></trkpt><trkpt lat="44.5629783" lon="7.9639883"><ele>424.0</ele><time>2026-04-12T13:28:37.062Z</time></trkpt><trkpt lat="44.56309" lon="7.9639217"><ele>422.6</ele><time>2026-04-12T13:28:38.061Z</time></trkpt><trkpt lat="44.56319" lon="7.9638383"><ele>421.2</ele><time>2026-04-12T13:28:39.063Z</time></trkpt><trkpt lat="44.5632783" lon="7.96376"><ele>419.8</ele><time>2026-04-12T13:28:40.061Z</time></trkpt><trkpt lat="44.563355" lon="7.9637"><ele>418.40000000000003</ele><time>2026-04-12T13:28:41.067Z</time></trkpt><trkpt lat="44.56343" lon="7.963675"><ele>417.0</ele><time>2026-04-12T13:28:42.063Z</time></trkpt><trkpt lat="44.5635117" lon="7.9636833"><ele>417.0</ele><time>2026-04-12T13:28:43.064Z</time></trkpt><trkpt lat="44.5635933" lon="7.963725"><ele>417.0</ele><time>2026-04-12T13:28:44.063Z</time></trkpt><trkpt lat="44.563675" lon="7.9637817"><ele>417.0</ele><time>2026-04-12T13:28:45.065Z</time></trkpt><trkpt lat="44.5637583" lon="7.9638367"><ele>417.0</ele><time>2026-04-12T13:28:46.062Z</time></trkpt><trkpt lat="44.5638433" lon="7.96391"><ele>417.0</ele><time>2026-04-12T13:28:47.062Z</time></trkpt><trkpt lat="44.5639267" lon="7.9639933"><ele>416.20000000000005</ele><time>2026-04-12T13:28:48.065Z</time></trkpt><trkpt lat="44.5640017" lon="7.9640917"><ele>415.4</ele><time>2026-04-12T13:28:49.062Z</time></trkpt><trkpt lat="44.564065" lon="7.9642083"><ele>414.6</ele><time>2026-04-12T13:28:50.063Z</time></trkpt><trkpt lat="44.5641183" lon="7.96433"><ele>413.79999999999995</ele><time>2026-04-12T13:28:51.062Z</time></trkpt><trkpt lat="44.5641533" lon="7.9644433"><ele>413.0</ele><time>2026-04-12T13:28:52.063Z</time></trkpt><trkpt lat="44.5641767" lon="7.96457"><ele>413.0</ele><time>2026-04-12T13:28:54.063Z</time></trkpt><trkpt lat="44.5642033" lon="7.96468"><ele>413.0</ele><time>2026-04-12T13:28:57.063Z</time></trkpt><trkpt lat="44.5642333" lon="7.9647817"><ele>413.0</ele><time>2026-04-12T13:28:59.062Z</time></trkpt><trkpt lat="44.564285" lon="7.9648983"><ele>413.0</ele><time>2026-04-12T13:29:01.063Z</time></trkpt><trkpt lat="44.5643533" lon="7.9650133"><ele>413.0</ele><time>2026-04-12T13:29:03.065Z</time></trkpt><trkpt lat="44.5644283" lon="7.9651333"><ele>414.0</ele><time>2026-04-12T13:29:05.062Z</time></trkpt><trkpt lat="44.5645067" lon="7.9652533"><ele>415.0</ele><time>2026-04-12T13:29:07.062Z</time></trkpt><trkpt lat="44.5645883" lon="7.9653733"><ele>416.0</ele><time>2026-04-12T13:29:09.062Z</time></trkpt><trkpt lat="44.564675" lon="7.965485"><ele>417.0</ele><time>2026-04-12T13:29:11.063Z</time></trkpt><trkpt lat="44.5647617" lon="7.9655933"><ele>415.8</ele><time>2026-04-12T13:29:13.062Z</time></trkpt><trkpt lat="44.564845" lon="7.965705"><ele>414.6</ele><time>2026-04-12T13:29:15.063Z</time></trkpt><trkpt lat="44.5649233" lon="7.9658233"><ele>413.40000000000003</ele><time>2026-04-12T13:29:17.062Z</time></trkpt><trkpt lat="44.5649783" lon="7.96598"><ele>412.20000000000005</ele><time>2026-04-12T13:29:19.063Z</time></trkpt><trkpt lat="44.5649967" lon="7.96607"><ele>411.0</ele><time>2026-04-12T13:29:20.062Z</time></trkpt><trkpt lat="44.5650033" lon="7.9661633"><ele>411.0</ele><time>2026-04-12T13:29:21.064Z</time></trkpt><trkpt lat="44.5650083" lon="7.9662533"><ele>411.0</ele><time>2026-04-12T13:29:22.063Z</time></trkpt><trkpt lat="44.565015" lon="7.966355"><ele>411.0</ele><time>2026-04-12T13:29:23.062Z</time></trkpt><trkpt lat="44.565015" lon="7.9664517"><ele>411.0</ele><time>2026-04-12T13:29:24.064Z</time></trkpt><trkpt lat="44.5650117" lon="7.96655"><ele>411.0</ele><time>2026-04-12T13:29:25.065Z</time></trkpt><trkpt lat="44.5650117" lon="7.9666517"><ele>411.0</ele><time>2026-04-12T13:29:26.062Z</time></trkpt><trkpt lat="44.5650083" lon="7.96675"><ele>411.0</ele><time>2026-04-12T13:29:27.063Z</time></trkpt><trkpt lat="44.56501" lon="7.96685"><ele>411.42857142857144</ele><time>2026-04-12T13:29:28.062Z</time></trkpt><trkpt lat="44.56501" lon="7.9669483"><ele>411.85714285714283</ele><time>2026-04-12T13:29:29.059Z</time></trkpt><trkpt lat="44.56501" lon="7.967045"><ele>412.28571428571433</ele><time>2026-04-12T13:29:30.064Z</time></trkpt><trkpt lat="44.565015" lon="7.9671467"><ele>412.7142857142857</ele><time>2026-04-12T13:29:31.064Z</time></trkpt><trkpt lat="44.5650167" lon="7.9672433"><ele>413.14285714285717</ele><time>2026-04-12T13:29:32.063Z</time></trkpt><trkpt lat="44.5650217" lon="7.9673417"><ele>413.5714285714286</ele><time>2026-04-12T13:29:33.063Z</time></trkpt><trkpt lat="44.5650317" lon="7.9674367"><ele>414.0</ele><time>2026-04-12T13:29:34.062Z</time></trkpt><trkpt lat="44.56505" lon="7.9675283"><ele>415.5714285714286</ele><time>2026-04-12T13:29:35.063Z</time></trkpt><trkpt lat="44.5650767" lon="7.9676183"><ele>417.14285714285717</ele><time>2026-04-12T13:29:36.062Z</time></trkpt><trkpt lat="44.56511" lon="7.9677"><ele>418.7142857142857</ele><time>2026-04-12T13:29:37.063Z</time></trkpt><trkpt lat="44.56515" lon="7.9677767"><ele>420.28571428571433</ele><time>2026-04-12T13:29:38.063Z</time></trkpt><trkpt lat="44.5651933" lon="7.96785"><ele>421.85714285714283</ele><time>2026-04-12T13:29:39.064Z</time></trkpt><trkpt lat="44.5652433" lon="7.967915"><ele>423.42857142857144</ele><time>2026-04-12T13:29:40.064Z</time></trkpt><trkpt lat="44.5652983" lon="7.9679683"><ele>425.0</ele><time>2026-04-12T13:29:41.062Z</time></trkpt><trkpt lat="44.5653567" lon="7.9680233"><ele>422.85714285714283</ele><time>2026-04-12T13:29:42.062Z</time></trkpt><trkpt lat="44.5654167" lon="7.968075"><ele>420.71428571428567</ele><time>2026-04-12T13:29:43.063Z</time></trkpt><trkpt lat="44.5654767" lon="7.968125"><ele>418.57142857142856</ele><time>2026-04-12T13:29:44.063Z</time></trkpt><trkpt lat="44.5655383" lon="7.968175"><ele>416.42857142857144</ele><time>2026-04-12T13:29:45.064Z</time></trkpt><trkpt lat="44.5656017" lon="7.96822"><ele>414.2857142857143</ele><time>2026-04-12T13:29:46.062Z</time></trkpt><trkpt lat="44.5656667" lon="7.96826"><ele>412.14285714285717</ele><time>2026-04-12T13:29:47.062Z</time></trkpt><trkpt lat="44.56573" lon="7.9682983"><ele>410.0</ele><time>2026-04-12T13:29:48.062Z</time></trkpt><trkpt lat="44.5657967" lon="7.9683383"><ele>411.5714285714286</ele><time>2026-04-12T13:29:49.062Z</time></trkpt><trkpt lat="44.5658633" lon="7.9683783"><ele>413.1428571428571</ele><time>2026-04-12T13:29:50.063Z</time></trkpt><trkpt lat="44.5659267" lon="7.9684233"><ele>414.7142857142857</ele><time>2026-04-12T13:29:51.066Z</time></trkpt><trkpt lat="44.5659933" lon="7.968465"><ele>416.28571428571433</ele><time>2026-04-12T13:29:52.063Z</time></trkpt><trkpt lat="44.5660617" lon="7.9685"><ele>417.8571428571429</ele><time>2026-04-12T13:29:53.062Z</time></trkpt><trkpt lat="44.5661317" lon="7.9685283"><ele>419.42857142857144</ele><time>2026-04-12T13:29:54.062Z</time></trkpt><trkpt lat="44.5662033" lon="7.9685467"><ele>421.0</ele><time>2026-04-12T13:29:55.063Z</time></trkpt><trkpt lat="44.5662767" lon="7.9685533"><ele>421.00000000000006</ele><time>2026-04-12T13:29:56.062Z</time></trkpt><trkpt lat="44.5663533" lon="7.9685533"><ele>421.0</ele><time>2026-04-12T13:29:57.064Z</time></trkpt><trkpt lat="44.56643" lon="7.968545"><ele>421.0</ele><time>2026-04-12T13:29:58.063Z</time></trkpt><trkpt lat="44.5665083" lon="7.9685267"><ele>421.0</ele><time>2026-04-12T13:29:59.063Z</time></trkpt><trkpt lat="44.566585" lon="7.9685083"><ele>421.00000000000006</ele><time>2026-04-12T13:30:00.064Z</time></trkpt><trkpt lat="44.5666633" lon="7.9684883"><ele>421.0</ele><time>2026-04-12T13:30:01.062Z</time></trkpt><trkpt lat="44.56674" lon="7.9684633"><ele>421.00000000000006</ele><time>2026-04-12T13:30:02.062Z</time></trkpt><trkpt lat="44.5668167" lon="7.9684383"><ele>421.0</ele><time>2026-04-12T13:30:03.063Z</time></trkpt><trkpt lat="44.566895" lon="7.9684083"><ele>421.0</ele><time>2026-04-12T13:30:04.063Z</time></trkpt><trkpt lat="44.5669717" lon="7.968375"><ele>421.0</ele><time>2026-04-12T13:30:05.064Z</time></trkpt><trkpt lat="44.567045" lon="7.96834"><ele>421.00000000000006</ele><time>2026-04-12T13:30:06.062Z</time></trkpt><trkpt lat="44.5671183" lon="7.9683033"><ele>421.0</ele><time>2026-04-12T13:30:07.063Z</time></trkpt><trkpt lat="44.56719" lon="7.9682617"><ele>419.50000000000006</ele><time>2026-04-12T13:30:08.063Z</time></trkpt><trkpt lat="44.56726" lon="7.9682217"><ele>418.0</ele><time>2026-04-12T13:30:09.062Z</time></trkpt><trkpt lat="44.5673317" lon="7.96817"><ele>416.5</ele><time>2026-04-12T13:30:10.063Z</time></trkpt><trkpt lat="44.5674" lon="7.9681183"><ele>415.0</ele><time>2026-04-12T13:30:11.064Z</time></trkpt><trkpt lat="44.5674717" lon="7.9680683"><ele>413.50000000000006</ele><time>2026-04-12T13:30:12.062Z</time></trkpt><trkpt lat="44.5675417" lon="7.96802"><ele>412.0</ele><time>2026-04-12T13:30:13.062Z</time></trkpt><trkpt lat="44.56761" lon="7.9679817"><ele>412.00000000000006</ele><time>2026-04-12T13:30:14.063Z</time></trkpt><trkpt lat="44.5676783" lon="7.96794"><ele>412.0</ele><time>2026-04-12T13:30:15.062Z</time></trkpt><trkpt lat="44.5677483" lon="7.9678983"><ele>412.0</ele><time>2026-04-12T13:30:16.062Z</time></trkpt><trkpt lat="44.5678233" lon="7.9678567"><ele>412.0</ele><time>2026-04-12T13:30:17.062Z</time></trkpt><trkpt lat="44.5679" lon="7.9678267"><ele>412.00000000000006</ele><time>2026-04-12T13:30:18.062Z</time></trkpt><trkpt lat="44.5679767" lon="7.967805"><ele>412.0</ele><time>2026-04-12T13:30:19.063Z</time></trkpt><trkpt lat="44.56805" lon="7.967795"><ele>412.83333333333337</ele><time>2026-04-12T13:30:20.062Z</time></trkpt><trkpt lat="44.5681283" lon="7.96779"><ele>413.6666666666667</ele><time>2026-04-12T13:30:21.063Z</time></trkpt><trkpt lat="44.5682067" lon="7.9677917"><ele>414.5</ele><time>2026-04-12T13:30:22.062Z</time></trkpt><trkpt lat="44.568285" lon="7.9678017"><ele>415.33333333333337</ele><time>2026-04-12T13:30:23.061Z</time></trkpt><trkpt lat="44.568365" lon="7.9678217"><ele>416.1666666666667</ele><time>2026-04-12T13:30:24.062Z</time></trkpt><trkpt lat="44.5684433" lon="7.9678483"><ele>417.0</ele><time>2026-04-12T13:30:25.061Z</time></trkpt><trkpt lat="44.56852" lon="7.9678733"><ele>417.0</ele><time>2026-04-12T13:30:26.062Z</time></trkpt><trkpt lat="44.5685983" lon="7.9679"><ele>417.0</ele><time>2026-04-12T13:30:27.064Z</time></trkpt><trkpt lat="44.568675" lon="7.9679233"><ele>417.0</ele><time>2026-04-12T13:30:28.062Z</time></trkpt><trkpt lat="44.568755" lon="7.96795"><ele>417.0</ele><time>2026-04-12T13:30:29.062Z</time></trkpt><trkpt lat="44.5688333" lon="7.9679733"><ele>417.0</ele><time>2026-04-12T13:30:30.064Z</time></trkpt><trkpt lat="44.56891" lon="7.967995"><ele>417.0</ele><time>2026-04-12T13:30:31.063Z</time></trkpt><trkpt lat="44.5689817" lon="7.968015"><ele>415.6666666666667</ele><time>2026-04-12T13:30:32.063Z</time></trkpt><trkpt lat="44.569045" lon="7.96804"><ele>414.33333333333337</ele><time>2026-04-12T13:30:33.065Z</time></trkpt><trkpt lat="44.56911" lon="7.9680667"><ele>413.0</ele><time>2026-04-12T13:30:34.066Z</time></trkpt><trkpt lat="44.5691767" lon="7.96809"><ele>411.6666666666667</ele><time>2026-04-12T13:30:35.062Z</time></trkpt><trkpt lat="44.56924" lon="7.9681117"><ele>410.33333333333337</ele><time>2026-04-12T13:30:36.061Z</time></trkpt><trkpt lat="44.5693583" lon="7.9681633"><ele>409.0</ele><time>2026-04-12T13:30:38.063Z</time></trkpt><trkpt lat="44.56942" lon="7.9681817"><ele>409.0</ele><time>2026-04-12T13:30:39.063Z</time></trkpt><trkpt lat="44.5695333" lon="7.9682117"><ele>409.0</ele><time>2026-04-12T13:30:41.062Z</time></trkpt><trkpt lat="44.5696417" lon="7.9682383"><ele>409.0</ele><time>2026-04-12T13:30:43.064Z</time></trkpt><trkpt lat="44.5697433" lon="7.968255"><ele>409.0</ele><time>2026-04-12T13:30:45.063Z</time></trkpt><trkpt lat="44.569845" lon="7.9682467"><ele>409.0</ele><time>2026-04-12T13:30:47.062Z</time></trkpt><trkpt lat="44.5699367" lon="7.968235"><ele>409.00000000000006</ele><time>2026-04-12T13:30:49.063Z</time></trkpt><trkpt lat="44.5700233" lon="7.9682267"><ele>409.0</ele><time>2026-04-12T13:30:51.064Z</time></trkpt><trkpt lat="44.57011" lon="7.96823"><ele>409.0</ele><time>2026-04-12T13:30:53.062Z</time></trkpt><trkpt lat="44.570195" lon="7.9682117"><ele>409.0</ele><time>2026-04-12T13:30:55.064Z</time></trkpt><trkpt lat="44.57028" lon="7.9681983"><ele>409.00000000000006</ele><time>2026-04-12T13:30:57.065Z</time></trkpt><trkpt lat="44.5703617" lon="7.9681933"><ele>409.0</ele><time>2026-04-12T13:30:59.059Z</time></trkpt><trkpt lat="44.570445" lon="7.9682017"><ele>410.50000000000006</ele><time>2026-04-12T13:31:01.063Z</time></trkpt><trkpt lat="44.5705317" lon="7.9682117"><ele>412.0</ele><time>2026-04-12T13:31:03.063Z</time></trkpt><trkpt lat="44.57062" lon="7.9682183"><ele>413.5</ele><time>2026-04-12T13:31:05.062Z</time></trkpt><trkpt lat="44.5707017" lon="7.9682183"><ele>415.0</ele><time>2026-04-12T13:31:07.064Z</time></trkpt><trkpt lat="44.570785" lon="7.9682183"><ele>416.50000000000006</ele><time>2026-04-12T13:31:09.062Z</time></trkpt><trkpt lat="44.5708717" lon="7.9682117"><ele>418.0</ele><time>2026-04-12T13:31:11.062Z</time></trkpt><trkpt lat="44.570955" lon="7.96821"><ele>418.0</ele><time>2026-04-12T13:31:13.064Z</time></trkpt><trkpt lat="44.57105" lon="7.96818"><ele>418.0</ele><time>2026-04-12T13:31:15.062Z</time></trkpt><trkpt lat="44.5711417" lon="7.9681417"><ele>418.0</ele><time>2026-04-12T13:31:17.062Z</time></trkpt><trkpt lat="44.5712283" lon="7.9680883"><ele>418.0</ele><time>2026-04-12T13:31:19.062Z</time></trkpt><trkpt lat="44.5713217" lon="7.968045"><ele>418.0</ele><time>2026-04-12T13:31:21.065Z</time></trkpt><trkpt lat="44.5714283" lon="7.96803"><ele>418.0</ele><time>2026-04-12T13:31:23.063Z</time></trkpt><trkpt lat="44.57154" lon="7.96805"><ele>418.0</ele><time>2026-04-12T13:31:25.065Z</time></trkpt><trkpt lat="44.5716517" lon="7.9680983"><ele>418.0</ele><time>2026-04-12T13:31:27.064Z</time></trkpt><trkpt lat="44.5717567" lon="7.968155"><ele>418.0</ele><time>2026-04-12T13:31:29.063Z</time></trkpt><trkpt lat="44.5718617" lon="7.9682167"><ele>418.0</ele><time>2026-04-12T13:31:31.062Z</time></trkpt><trkpt lat="44.571965" lon="7.968275"><ele>418.0</ele><time>2026-04-12T13:31:33.063Z</time></trkpt><trkpt lat="44.5720633" lon="7.9683317"><ele>418.0</ele><time>2026-04-12T13:31:35.062Z</time></trkpt><trkpt lat="44.5721583" lon="7.968395"><ele>418.0</ele><time>2026-04-12T13:31:37.064Z</time></trkpt><trkpt lat="44.5722567" lon="7.96845"><ele>418.0</ele><time>2026-04-12T13:31:39.066Z</time></trkpt><trkpt lat="44.5723517" lon="7.96851"><ele>417.4</ele><time>2026-04-12T13:31:41.062Z</time></trkpt><trkpt lat="44.5724483" lon="7.9685683"><ele>416.79999999999995</ele><time>2026-04-12T13:31:43.065Z</time></trkpt><trkpt lat="44.57255" lon="7.968625"><ele>416.2</ele><time>2026-04-12T13:31:45.066Z</time></trkpt><trkpt lat="44.57265" lon="7.9686817"><ele>415.6</ele><time>2026-04-12T13:31:47.063Z</time></trkpt><trkpt lat="44.5727483" lon="7.968745"><ele>415.0</ele><time>2026-04-12T13:31:49.063Z</time></trkpt><trkpt lat="44.5728417" lon="7.968815"><ele>414.0</ele><time>2026-04-12T13:31:51.066Z</time></trkpt><trkpt lat="44.5729217" lon="7.9688933"><ele>413.0</ele><time>2026-04-12T13:31:53.063Z</time></trkpt><trkpt lat="44.573" lon="7.9689833"><ele>412.0</ele><time>2026-04-12T13:31:55.071Z</time></trkpt><trkpt lat="44.57307" lon="7.9690733"><ele>411.0</ele><time>2026-04-12T13:31:57.066Z</time></trkpt><trkpt lat="44.5731267" lon="7.9691817"><ele>410.0</ele><time>2026-04-12T13:31:59.063Z</time></trkpt><trkpt lat="44.57318" lon="7.9692833"><ele>409.99999999999994</ele><time>2026-04-12T13:32:01.063Z</time></trkpt><trkpt lat="44.57324" lon="7.9693767"><ele>410.0</ele><time>2026-04-12T13:32:03.065Z</time></trkpt><trkpt lat="44.5732967" lon="7.9694683"><ele>410.0</ele><time>2026-04-12T13:32:05.062Z</time></trkpt><trkpt lat="44.573355" lon="7.969555"><ele>410.0</ele><time>2026-04-12T13:32:07.067Z</time></trkpt><trkpt lat="44.5734217" lon="7.969615"><ele>409.99999999999994</ele><time>2026-04-12T13:32:09.066Z</time></trkpt><trkpt lat="44.573495" lon="7.9696667"><ele>410.0</ele><time>2026-04-12T13:32:11.063Z</time></trkpt><trkpt lat="44.5735683" lon="7.9697017"><ele>409.99999999999994</ele><time>2026-04-12T13:32:13.062Z</time></trkpt><trkpt lat="44.573645" lon="7.9697367"><ele>410.0</ele><time>2026-04-12T13:32:15.067Z</time></trkpt><trkpt lat="44.5737267" lon="7.9697667"><ele>410.0</ele><time>2026-04-12T13:32:17.063Z</time></trkpt><trkpt lat="44.573805" lon="7.9698"><ele>410.0</ele><time>2026-04-12T13:32:19.061Z</time></trkpt><trkpt lat="44.5738817" lon="7.9698233"><ele>409.99999999999994</ele><time>2026-04-12T13:32:21.062Z</time></trkpt><trkpt lat="44.5739617" lon="7.9698517"><ele>410.0</ele><time>2026-04-12T13:32:23.062Z</time></trkpt><trkpt lat="44.574035" lon="7.96988"><ele>412.3333333333333</ele><time>2026-04-12T13:32:25.066Z</time></trkpt><trkpt lat="44.57411" lon="7.9699"><ele>414.66666666666663</ele><time>2026-04-12T13:32:27.067Z</time></trkpt><trkpt lat="44.57419" lon="7.9699217"><ele>417.0</ele><time>2026-04-12T13:32:29.062Z</time></trkpt><trkpt lat="44.574265" lon="7.9699467"><ele>419.33333333333337</ele><time>2026-04-12T13:32:31.063Z</time></trkpt><trkpt lat="44.57434" lon="7.96998"><ele>421.6666666666667</ele><time>2026-04-12T13:32:33.065Z</time></trkpt><trkpt lat="44.5744167" lon="7.9700017"><ele>424.0</ele><time>2026-04-12T13:32:35.063Z</time></trkpt><trkpt lat="44.574495" lon="7.9700183"><ele>422.6666666666667</ele><time>2026-04-12T13:32:37.062Z</time></trkpt><trkpt lat="44.5745733" lon="7.970045"><ele>421.33333333333337</ele><time>2026-04-12T13:32:39.063Z</time></trkpt><trkpt lat="44.5746517" lon="7.970065"><ele>420.0</ele><time>2026-04-12T13:32:41.062Z</time></trkpt><trkpt lat="44.57473" lon="7.9700883"><ele>418.66666666666663</ele><time>2026-04-12T13:32:43.066Z</time></trkpt><trkpt lat="44.5748067" lon="7.9701167"><ele>417.3333333333333</ele><time>2026-04-12T13:32:45.068Z</time></trkpt><trkpt lat="44.5748783" lon="7.9701383"><ele>416.0</ele><time>2026-04-12T13:32:47.066Z</time></trkpt><trkpt lat="44.574945" lon="7.9701733"><ele>415.99999999999994</ele><time>2026-04-12T13:32:49.065Z</time></trkpt><trkpt lat="44.5750167" lon="7.9702167"><ele>416.0</ele><time>2026-04-12T13:32:51.065Z</time></trkpt><trkpt lat="44.57509" lon="7.970245"><ele>416.0</ele><time>2026-04-12T13:32:53.062Z</time></trkpt><trkpt lat="44.5751617" lon="7.9702783"><ele>416.0</ele><time>2026-04-12T13:32:55.063Z</time></trkpt><trkpt lat="44.5752367" lon="7.9703133"><ele>415.99999999999994</ele><time>2026-04-12T13:32:57.062Z</time></trkpt><trkpt lat="44.5753133" lon="7.9703483"><ele>416.0</ele><time>2026-04-12T13:32:59.063Z</time></trkpt><trkpt lat="44.5753933" lon="7.9703667"><ele>417.3333333333333</ele><time>2026-04-12T13:33:01.065Z</time></trkpt><trkpt lat="44.5754717" lon="7.9703867"><ele>418.66666666666663</ele><time>2026-04-12T13:33:03.064Z</time></trkpt><trkpt lat="44.575545" lon="7.97042"><ele>420.0</ele><time>2026-04-12T13:33:05.061Z</time></trkpt><trkpt lat="44.57562" lon="7.9704567"><ele>421.33333333333337</ele><time>2026-04-12T13:33:07.064Z</time></trkpt><trkpt lat="44.5757033" lon="7.9704817"><ele>422.6666666666667</ele><time>2026-04-12T13:33:09.066Z</time></trkpt><trkpt lat="44.57578" lon="7.9705083"><ele>424.0</ele><time>2026-04-12T13:33:11.062Z</time></trkpt><trkpt lat="44.5758533" lon="7.9705267"><ele>424.00000000000006</ele><time>2026-04-12T13:33:13.062Z</time></trkpt><trkpt lat="44.5759267" lon="7.9705317"><ele>424.0</ele><time>2026-04-12T13:33:15.065Z</time></trkpt><trkpt lat="44.5760067" lon="7.970515"><ele>424.0</ele><time>2026-04-12T13:33:17.063Z</time></trkpt><trkpt lat="44.5760833" lon="7.9704933"><ele>424.0</ele><time>2026-04-12T13:33:19.064Z</time></trkpt><trkpt lat="44.57616" lon="7.9704567"><ele>424.00000000000006</ele><time>2026-04-12T13:33:21.063Z</time></trkpt><trkpt lat="44.57623" lon="7.9704117"><ele>424.0</ele><time>2026-04-12T13:33:23.064Z</time></trkpt><trkpt lat="44.5762983" lon="7.9703533"><ele>424.1666666666667</ele><time>2026-04-12T13:33:25.062Z</time></trkpt><trkpt lat="44.5763733" lon="7.9702883"><ele>424.33333333333337</ele><time>2026-04-12T13:33:27.065Z</time></trkpt><trkpt lat="44.57645" lon="7.9702367"><ele>424.5</ele><time>2026-04-12T13:33:29.064Z</time></trkpt><trkpt lat="44.5765283" lon="7.9701983"><ele>424.66666666666663</ele><time>2026-04-12T13:33:31.063Z</time></trkpt><trkpt lat="44.5766033" lon="7.9701617"><ele>424.8333333333333</ele><time>2026-04-12T13:33:33.065Z</time></trkpt><trkpt lat="44.5766767" lon="7.9701367"><ele>425.0</ele><time>2026-04-12T13:33:35.061Z</time></trkpt><trkpt lat="44.5767517" lon="7.9701167"><ele>424.99999999999994</ele><time>2026-04-12T13:33:37.064Z</time></trkpt><trkpt lat="44.5768267" lon="7.970095"><ele>425.0</ele><time>2026-04-12T13:33:39.065Z</time></trkpt><trkpt lat="44.5769" lon="7.9700783"><ele>425.0</ele><time>2026-04-12T13:33:41.063Z</time></trkpt><trkpt lat="44.576975" lon="7.9700633"><ele>425.0</ele><time>2026-04-12T13:33:43.062Z</time></trkpt><trkpt lat="44.57705" lon="7.9700583"><ele>424.99999999999994</ele><time>2026-04-12T13:33:45.063Z</time></trkpt><trkpt lat="44.57713" lon="7.970055"><ele>425.0</ele><time>2026-04-12T13:33:47.062Z</time></trkpt><trkpt lat="44.5772017" lon="7.9700517"><ele>425.85714285714283</ele><time>2026-04-12T13:33:49.061Z</time></trkpt><trkpt lat="44.577275" lon="7.970065"><ele>426.71428571428567</ele><time>2026-04-12T13:33:51.064Z</time></trkpt><trkpt lat="44.5773417" lon="7.9700983"><ele>427.57142857142856</ele><time>2026-04-12T13:33:53.064Z</time></trkpt><trkpt lat="44.5774083" lon="7.97014"><ele>428.42857142857144</ele><time>2026-04-12T13:33:55.063Z</time></trkpt><trkpt lat="44.5774717" lon="7.9701867"><ele>429.2857142857143</ele><time>2026-04-12T13:33:57.066Z</time></trkpt><trkpt lat="44.57754" lon="7.97024"><ele>430.14285714285717</ele><time>2026-04-12T13:33:59.062Z</time></trkpt><trkpt lat="44.5776033" lon="7.970285"><ele>431.0</ele><time>2026-04-12T13:34:01.062Z</time></trkpt><trkpt lat="44.5776617" lon="7.9703283"><ele>431.0</ele><time>2026-04-12T13:34:03.066Z</time></trkpt><trkpt lat="44.57772" lon="7.9703717"><ele>431.0</ele><time>2026-04-12T13:34:05.063Z</time></trkpt><trkpt lat="44.577785" lon="7.9704033"><ele>431.0</ele><time>2026-04-12T13:34:07.063Z</time></trkpt><trkpt lat="44.57785" lon="7.9703967"><ele>431.0</ele><time>2026-04-12T13:34:09.065Z</time></trkpt><trkpt lat="44.5779167" lon="7.97038"><ele>431.0</ele><time>2026-04-12T13:34:11.064Z</time></trkpt><trkpt lat="44.5779867" lon="7.9703367"><ele>431.0</ele><time>2026-04-12T13:34:13.062Z</time></trkpt><trkpt lat="44.5780433" lon="7.9702717"><ele>431.0</ele><time>2026-04-12T13:34:15.065Z</time></trkpt><trkpt lat="44.5780983" lon="7.9702"><ele>430.66666666666663</ele><time>2026-04-12T13:34:17.062Z</time></trkpt><trkpt lat="44.5781483" lon="7.9701217"><ele>430.3333333333333</ele><time>2026-04-12T13:34:19.066Z</time></trkpt><trkpt lat="44.5781933" lon="7.970035"><ele>430.0</ele><time>2026-04-12T13:34:21.065Z</time></trkpt><trkpt lat="44.578235" lon="7.9699367"><ele>429.66666666666663</ele><time>2026-04-12T13:34:23.061Z</time></trkpt><trkpt lat="44.5782733" lon="7.96984"><ele>429.3333333333333</ele><time>2026-04-12T13:34:25.065Z</time></trkpt><trkpt lat="44.5783117" lon="7.9697517"><ele>429.0</ele><time>2026-04-12T13:34:27.064Z</time></trkpt><trkpt lat="44.5783533" lon="7.9696583"><ele>431.5</ele><time>2026-04-12T13:34:29.067Z</time></trkpt><trkpt lat="44.5783967" lon="7.9695683"><ele>434.0</ele><time>2026-04-12T13:34:31.063Z</time></trkpt><trkpt lat="44.5784383" lon="7.96948"><ele>436.5</ele><time>2026-04-12T13:34:33.066Z</time></trkpt><trkpt lat="44.5784783" lon="7.9693933"><ele>439.0</ele><time>2026-04-12T13:34:35.063Z</time></trkpt><trkpt lat="44.5785167" lon="7.9693067"><ele>441.5</ele><time>2026-04-12T13:34:37.064Z</time></trkpt><trkpt lat="44.5785633" lon="7.969205"><ele>444.0</ele><time>2026-04-12T13:34:39.064Z</time></trkpt><trkpt lat="44.5786167" lon="7.9691083"><ele>444.6666666666667</ele><time>2026-04-12T13:34:41.062Z</time></trkpt><trkpt lat="44.57867" lon="7.9690183"><ele>445.33333333333337</ele><time>2026-04-12T13:34:43.06Z</time></trkpt><trkpt lat="44.5787317" lon="7.9689483"><ele>446.0</ele><time>2026-04-12T13:34:45.063Z</time></trkpt><trkpt lat="44.5787967" lon="7.968875"><ele>446.6666666666667</ele><time>2026-04-12T13:34:47.061Z</time></trkpt><trkpt lat="44.5788633" lon="7.9688033"><ele>447.33333333333337</ele><time>2026-04-12T13:34:49.064Z</time></trkpt><trkpt lat="44.578935" lon="7.968755"><ele>448.0</ele><time>2026-04-12T13:34:51.062Z</time></trkpt><trkpt lat="44.57901" lon="7.96871"><ele>448.0</ele><time>2026-04-12T13:34:53.066Z</time></trkpt><trkpt lat="44.5790817" lon="7.9686567"><ele>448.0</ele><time>2026-04-12T13:34:55.064Z</time></trkpt><trkpt lat="44.5791517" lon="7.9686367"><ele>448.0</ele><time>2026-04-12T13:34:57.062Z</time></trkpt><trkpt lat="44.5792267" lon="7.9686367"><ele>448.0</ele><time>2026-04-12T13:34:59.063Z</time></trkpt><trkpt lat="44.579295" lon="7.968645"><ele>448.0</ele><time>2026-04-12T13:35:01.061Z</time></trkpt><trkpt lat="44.5793733" lon="7.96866"><ele>448.0</ele><time>2026-04-12T13:35:03.066Z</time></trkpt><trkpt lat="44.5794467" lon="7.9686767"><ele>448.0</ele><time>2026-04-12T13:35:05.065Z</time></trkpt><trkpt lat="44.5795183" lon="7.9686917"><ele>449.1666666666667</ele><time>2026-04-12T13:35:07.062Z</time></trkpt><trkpt lat="44.5795933" lon="7.9687083"><ele>450.33333333333337</ele><time>2026-04-12T13:35:09.062Z</time></trkpt><trkpt lat="44.5796733" lon="7.9687283"><ele>451.5</ele><time>2026-04-12T13:35:11.064Z</time></trkpt><trkpt lat="44.5797533" lon="7.9687417"><ele>452.66666666666663</ele><time>2026-04-12T13:35:13.064Z</time></trkpt><trkpt lat="44.5798283" lon="7.9687533"><ele>453.8333333333333</ele><time>2026-04-12T13:35:15.064Z</time></trkpt><trkpt lat="44.5799033" lon="7.96877"><ele>455.0</ele><time>2026-04-12T13:35:17.064Z</time></trkpt><trkpt lat="44.5799767" lon="7.9687867"><ele>455.0</ele><time>2026-04-12T13:35:19.064Z</time></trkpt><trkpt lat="44.5800467" lon="7.968815"><ele>455.0</ele><time>2026-04-12T13:35:21.064Z</time></trkpt><trkpt lat="44.58012" lon="7.968825"><ele>455.0</ele><time>2026-04-12T13:35:23.062Z</time></trkpt><trkpt lat="44.5801967" lon="7.9688467"><ele>455.0</ele><time>2026-04-12T13:35:25.063Z</time></trkpt><trkpt lat="44.5802717" lon="7.968865"><ele>455.0</ele><time>2026-04-12T13:35:27.065Z</time></trkpt><trkpt lat="44.5803417" lon="7.9688667"><ele>455.0</ele><time>2026-04-12T13:35:29.062Z</time></trkpt><trkpt lat="44.5804167" lon="7.9688633"><ele>455.0</ele><time>2026-04-12T13:35:31.064Z</time></trkpt><trkpt lat="44.5805" lon="7.96884"><ele>456.0</ele><time>2026-04-12T13:35:33.069Z</time></trkpt><trkpt lat="44.580585" lon="7.968815"><ele>457.0</ele><time>2026-04-12T13:35:35.063Z</time></trkpt><trkpt lat="44.580675" lon="7.9687783"><ele>458.0</ele><time>2026-04-12T13:35:37.062Z</time></trkpt><trkpt lat="44.5807567" lon="7.9687467"><ele>459.0</ele><time>2026-04-12T13:35:39.063Z</time></trkpt><trkpt lat="44.5808483" lon="7.9687167"><ele>460.0</ele><time>2026-04-12T13:35:41.063Z</time></trkpt><trkpt lat="44.5809383" lon="7.9686783"><ele>460.0</ele><time>2026-04-12T13:35:43.063Z</time></trkpt><trkpt lat="44.5810283" lon="7.9686483"><ele>460.0</ele><time>2026-04-12T13:35:45.062Z</time></trkpt><trkpt lat="44.58111" lon="7.9686167"><ele>460.0</ele><time>2026-04-12T13:35:47.062Z</time></trkpt><trkpt lat="44.581205" lon="7.9685933"><ele>460.0</ele><time>2026-04-12T13:35:49.064Z</time></trkpt><trkpt lat="44.5812683" lon="7.96866"><ele>460.0</ele><time>2026-04-12T13:35:51.064Z</time></trkpt><trkpt lat="44.58129" lon="7.9688"><ele>461.00000000000006</ele><time>2026-04-12T13:35:53.065Z</time></trkpt><trkpt lat="44.581335" lon="7.96891"><ele>462.0</ele><time>2026-04-12T13:35:55.063Z</time></trkpt><trkpt lat="44.5814083" lon="7.96897"><ele>463.0</ele><time>2026-04-12T13:35:57.062Z</time></trkpt><trkpt lat="44.5814867" lon="7.9689833"><ele>464.0</ele><time>2026-04-12T13:35:59.063Z</time></trkpt><trkpt lat="44.5815583" lon="7.96896"><ele>465.00000000000006</ele><time>2026-04-12T13:36:01.061Z</time></trkpt><trkpt lat="44.5816317" lon="7.9689267"><ele>466.0</ele><time>2026-04-12T13:36:03.065Z</time></trkpt><trkpt lat="44.5817033" lon="7.9688967"><ele>466.00000000000006</ele><time>2026-04-12T13:36:05.058Z</time></trkpt><trkpt lat="44.5817783" lon="7.9688667"><ele>466.0</ele><time>2026-04-12T13:36:07.059Z</time></trkpt><trkpt lat="44.581855" lon="7.9688367"><ele>466.0</ele><time>2026-04-12T13:36:09.057Z</time></trkpt><trkpt lat="44.581935" lon="7.9687983"><ele>466.0</ele><time>2026-04-12T13:36:11.063Z</time></trkpt><trkpt lat="44.5820067" lon="7.9687767"><ele>466.00000000000006</ele><time>2026-04-12T13:36:13.062Z</time></trkpt><trkpt lat="44.5820883" lon="7.968745"><ele>466.0</ele><time>2026-04-12T13:36:15.063Z</time></trkpt><trkpt lat="44.5821617" lon="7.968705"><ele>466.8</ele><time>2026-04-12T13:36:17.062Z</time></trkpt><trkpt lat="44.582235" lon="7.96865"><ele>467.6</ele><time>2026-04-12T13:36:20.06Z</time></trkpt><trkpt lat="44.5822817" lon="7.968765"><ele>468.4</ele><time>2026-04-12T13:36:23.06Z</time></trkpt><trkpt lat="44.58228" lon="7.968885"><ele>469.2</ele><time>2026-04-12T13:36:25.062Z</time></trkpt><trkpt lat="44.5822633" lon="7.9690133"><ele>470.0</ele><time>2026-04-12T13:36:27.063Z</time></trkpt><trkpt lat="44.5822167" lon="7.96915"><ele>469.16666666666663</ele><time>2026-04-12T13:36:29.063Z</time></trkpt><trkpt lat="44.5821583" lon="7.9692617"><ele>468.3333333333333</ele><time>2026-04-12T13:36:31.063Z</time></trkpt><trkpt lat="44.5820683" lon="7.9693683"><ele>467.5</ele><time>2026-04-12T13:36:33.064Z</time></trkpt><trkpt lat="44.5820167" lon="7.9694217"><ele>466.66666666666663</ele><time>2026-04-12T13:36:34.065Z</time></trkpt><trkpt lat="44.581965" lon="7.969475"><ele>465.8333333333333</ele><time>2026-04-12T13:36:35.063Z</time></trkpt><trkpt lat="44.5819067" lon="7.9695383"><ele>465.0</ele><time>2026-04-12T13:36:36.065Z</time></trkpt><trkpt lat="44.58185" lon="7.9696017"><ele>465.0</ele><time>2026-04-12T13:36:37.064Z</time></trkpt><trkpt lat="44.5818" lon="7.9696767"><ele>465.0</ele><time>2026-04-12T13:36:38.063Z</time></trkpt><trkpt lat="44.58175" lon="7.9697517"><ele>465.0</ele><time>2026-04-12T13:36:39.064Z</time></trkpt><trkpt lat="44.5816933" lon="7.96982"><ele>465.0</ele><time>2026-04-12T13:36:40.062Z</time></trkpt><trkpt lat="44.581635" lon="7.96989"><ele>465.0</ele><time>2026-04-12T13:36:41.063Z</time></trkpt><trkpt lat="44.58158" lon="7.9699667"><ele>465.0</ele><time>2026-04-12T13:36:42.064Z</time></trkpt><trkpt lat="44.581535" lon="7.970055"><ele>466.5</ele><time>2026-04-12T13:36:43.062Z</time></trkpt><trkpt lat="44.5815" lon="7.9701517"><ele>468.0</ele><time>2026-04-12T13:36:44.063Z</time></trkpt><trkpt lat="44.581475" lon="7.9702483"><ele>469.5</ele><time>2026-04-12T13:36:45.063Z</time></trkpt><trkpt lat="44.58144" lon="7.9703983"><ele>471.0</ele><time>2026-04-12T13:36:47.067Z</time></trkpt><trkpt lat="44.5814233" lon="7.970535"><ele>472.5</ele><time>2026-04-12T13:36:49.064Z</time></trkpt><trkpt lat="44.5814067" lon="7.970645"><ele>474.0</ele><time>2026-04-12T13:36:51.062Z</time></trkpt><trkpt lat="44.581385" lon="7.970735"><ele>474.0</ele><time>2026-04-12T13:36:53.062Z</time></trkpt><trkpt lat="44.5813533" lon="7.9708217"><ele>474.0</ele><time>2026-04-12T13:36:55.062Z</time></trkpt><trkpt lat="44.5813117" lon="7.9709033"><ele>474.0</ele><time>2026-04-12T13:36:57.062Z</time></trkpt><trkpt lat="44.5812733" lon="7.9709917"><ele>474.0</ele><time>2026-04-12T13:36:59.064Z</time></trkpt><trkpt lat="44.5812333" lon="7.971095"><ele>474.0</ele><time>2026-04-12T13:37:01.061Z</time></trkpt><trkpt lat="44.5811917" lon="7.97119"><ele>474.0</ele><time>2026-04-12T13:37:03.064Z</time></trkpt><trkpt lat="44.5811517" lon="7.9712783"><ele>473.42857142857133</ele><time>2026-04-12T13:37:05.061Z</time></trkpt><trkpt lat="44.5811133" lon="7.971365"><ele>472.85714285714283</ele><time>2026-04-12T13:37:07.063Z</time></trkpt><trkpt lat="44.5810717" lon="7.971445"><ele>472.2857142857142</ele><time>2026-04-12T13:37:09.062Z</time></trkpt><trkpt lat="44.5810367" lon="7.9715267"><ele>471.71428571428567</ele><time>2026-04-12T13:37:11.061Z</time></trkpt><trkpt lat="44.5809967" lon="7.9716083"><ele>471.1428571428571</ele><time>2026-04-12T13:37:13.062Z</time></trkpt><trkpt lat="44.5809567" lon="7.971695"><ele>470.57142857142856</ele><time>2026-04-12T13:37:15.063Z</time></trkpt><trkpt lat="44.5809417" lon="7.971805"><ele>470.0</ele><time>2026-04-12T13:37:17.062Z</time></trkpt><trkpt lat="44.5809817" lon="7.971895"><ele>469.99999999999994</ele><time>2026-04-12T13:37:19.063Z</time></trkpt><trkpt lat="44.581055" lon="7.9719617"><ele>470.0</ele><time>2026-04-12T13:37:22.064Z</time></trkpt><trkpt lat="44.5811283" lon="7.9719717"><ele>470.0</ele><time>2026-04-12T13:37:26.062Z</time></trkpt><trkpt lat="44.5811983" lon="7.9719583"><ele>470.0</ele><time>2026-04-12T13:37:31.062Z</time></trkpt><trkpt lat="44.5812717" lon="7.9719317"><ele>469.99999999999994</ele><time>2026-04-12T13:37:36.062Z</time></trkpt><trkpt lat="44.5813417" lon="7.9719133"><ele>470.0</ele><time>2026-04-12T13:37:41.061Z</time></trkpt><trkpt lat="44.581405" lon="7.9718617"><ele>472.4285714285714</ele><time>2026-04-12T13:37:46.062Z</time></trkpt><trkpt lat="44.581465" lon="7.9718267"><ele>474.8571428571428</ele><time>2026-04-12T13:37:50.064Z</time></trkpt><trkpt lat="44.5815383" lon="7.9717967"><ele>477.2857142857143</ele><time>2026-04-12T13:37:54.063Z</time></trkpt><trkpt lat="44.581605" lon="7.971765"><ele>479.71428571428567</ele><time>2026-04-12T13:37:57.065Z</time></trkpt><trkpt lat="44.5816817" lon="7.9717133"><ele>482.1428571428571</ele><time>2026-04-12T13:38:01.06Z</time></trkpt><trkpt lat="44.5817367" lon="7.9716567"><ele>484.57142857142856</ele><time>2026-04-12T13:38:04.063Z</time></trkpt><trkpt lat="44.5817967" lon="7.971585"><ele>487.0</ele><time>2026-04-12T13:38:08.062Z</time></trkpt><trkpt lat="44.58184" lon="7.97152"><ele>487.0</ele><time>2026-04-12T13:38:11.063Z</time></trkpt><trkpt lat="44.5818867" lon="7.9714583"><ele>487.0</ele><time>2026-04-12T13:38:14.062Z</time></trkpt><trkpt lat="44.581935" lon="7.9714"><ele>487.0</ele><time>2026-04-12T13:38:17.062Z</time></trkpt><trkpt lat="44.5819917" lon="7.9713517"><ele>487.0</ele><time>2026-04-12T13:38:20.063Z</time></trkpt><trkpt lat="44.582065" lon="7.9713083"><ele>487.0</ele><time>2026-04-12T13:38:24.064Z</time></trkpt><trkpt lat="44.5821333" lon="7.971245"><ele>487.0</ele><time>2026-04-12T13:38:28.065Z</time></trkpt><trkpt lat="44.582185" lon="7.97119"><ele>487.0</ele><time>2026-04-12T13:38:31.062Z</time></trkpt><trkpt lat="44.58224" lon="7.97114"><ele>488.0</ele><time>2026-04-12T13:38:34.062Z</time></trkpt><trkpt lat="44.5823067" lon="7.9710817"><ele>489.0</ele><time>2026-04-12T13:38:38.062Z</time></trkpt><trkpt lat="44.58237" lon="7.97105"><ele>490.0</ele><time>2026-04-12T13:38:41.065Z</time></trkpt><trkpt lat="44.5824317" lon="7.970975"><ele>491.0</ele><time>2026-04-12T13:38:45.064Z</time></trkpt><trkpt lat="44.5824917" lon="7.9708967"><ele>492.0</ele><time>2026-04-12T13:38:49.063Z</time></trkpt><trkpt lat="44.582545" lon="7.9708433"><ele>493.0</ele><time>2026-04-12T13:38:52.063Z</time></trkpt><trkpt lat="44.582605" lon="7.9708133"><ele>494.0</ele><time>2026-04-12T13:38:55.062Z</time></trkpt><trkpt lat="44.5826617" lon="7.9707683"><ele>494.0</ele><time>2026-04-12T13:38:59.061Z</time></trkpt><trkpt lat="44.5827367" lon="7.9707233"><ele>494.0</ele><time>2026-04-12T13:39:03.062Z</time></trkpt><trkpt lat="44.5828033" lon="7.97069"><ele>494.0</ele><time>2026-04-12T13:39:07.062Z</time></trkpt><trkpt lat="44.5828717" lon="7.9706533"><ele>494.0</ele><time>2026-04-12T13:39:11.061Z</time></trkpt><trkpt lat="44.5829367" lon="7.970625"><ele>494.0</ele><time>2026-04-12T13:39:14.061Z</time></trkpt><trkpt lat="44.5830067" lon="7.9705833"><ele>494.0</ele><time>2026-04-12T13:39:17.062Z</time></trkpt><trkpt lat="44.5830683" lon="7.9705183"><ele>494.0</ele><time>2026-04-12T13:39:20.063Z</time></trkpt><trkpt lat="44.5831283" lon="7.9704483"><ele>497.66666666666663</ele><time>2026-04-12T13:39:23.063Z</time></trkpt><trkpt lat="44.583195" lon="7.9703967"><ele>501.3333333333333</ele><time>2026-04-12T13:39:26.062Z</time></trkpt><trkpt lat="44.58326" lon="7.9703317"><ele>505.0</ele><time>2026-04-12T13:39:29.061Z</time></trkpt><trkpt lat="44.583325" lon="7.9702767"><ele>508.66666666666663</ele><time>2026-04-12T13:39:32.062Z</time></trkpt><trkpt lat="44.5833967" lon="7.97024"><ele>512.3333333333334</ele><time>2026-04-12T13:39:35.06Z</time></trkpt><trkpt lat="44.58347" lon="7.970215"><ele>516.0</ele><time>2026-04-12T13:39:38.062Z</time></trkpt><trkpt lat="44.5835517" lon="7.970205"><ele>516.0</ele><time>2026-04-12T13:39:41.061Z</time></trkpt><trkpt lat="44.5836317" lon="7.9701983"><ele>516.0</ele><time>2026-04-12T13:39:44.061Z</time></trkpt><trkpt lat="44.5837083" lon="7.970195"><ele>516.0</ele><time>2026-04-12T13:39:47.06Z</time></trkpt><trkpt lat="44.583795" lon="7.9701783"><ele>516.0</ele><time>2026-04-12T13:39:50.063Z</time></trkpt><trkpt lat="44.583885" lon="7.9701617"><ele>516.0</ele><time>2026-04-12T13:39:53.061Z</time></trkpt><trkpt lat="44.5839567" lon="7.970175"><ele>516.0</ele><time>2026-04-12T13:39:56.062Z</time></trkpt><trkpt lat="44.5840467" lon="7.970155"><ele>515.1428571428571</ele><time>2026-04-12T13:39:59.062Z</time></trkpt><trkpt lat="44.5841083" lon="7.9701217"><ele>514.2857142857142</ele><time>2026-04-12T13:40:01.063Z</time></trkpt><trkpt lat="44.5841717" lon="7.9700917"><ele>513.4285714285714</ele><time>2026-04-12T13:40:03.064Z</time></trkpt><trkpt lat="44.5842333" lon="7.970045"><ele>512.5714285714286</ele><time>2026-04-12T13:40:05.063Z</time></trkpt><trkpt lat="44.5843067" lon="7.9699883"><ele>511.7142857142858</ele><time>2026-04-12T13:40:08.064Z</time></trkpt><trkpt lat="44.584365" lon="7.9699467"><ele>510.8571428571429</ele><time>2026-04-12T13:40:10.063Z</time></trkpt><trkpt lat="44.5844383" lon="7.9698967"><ele>510.0</ele><time>2026-04-12T13:40:13.06Z</time></trkpt><trkpt lat="44.5845167" lon="7.9698617"><ele>510.0</ele><time>2026-04-12T13:40:16.062Z</time></trkpt><trkpt lat="44.584505" lon="7.9697733"><ele>510.0</ele><time>2026-04-12T13:40:20.062Z</time></trkpt><trkpt lat="44.5845633" lon="7.9698117"><ele>510.0</ele><time>2026-04-12T13:42:10.062Z</time></trkpt><trkpt lat="44.584645" lon="7.9698333"><ele>510.0</ele><time>2026-04-12T13:42:13.065Z</time></trkpt><trkpt lat="44.584725" lon="7.969805"><ele>510.0</ele><time>2026-04-12T13:42:16.063Z</time></trkpt><trkpt lat="44.5847967" lon="7.96977"><ele>510.0</ele><time>2026-04-12T13:42:19.063Z</time></trkpt><trkpt lat="44.5848733" lon="7.9697233"><ele>511.0</ele><time>2026-04-12T13:42:22.064Z</time></trkpt><trkpt lat="44.584945" lon="7.96967"><ele>512.0</ele><time>2026-04-12T13:42:25.062Z</time></trkpt><trkpt lat="44.5849983" lon="7.9696067"><ele>513.0</ele><time>2026-04-12T13:42:28.064Z</time></trkpt><trkpt lat="44.585035" lon="7.9695267"><ele>514.0</ele><time>2026-04-12T13:42:32.065Z</time></trkpt><trkpt lat="44.5850667" lon="7.9694367"><ele>515.0</ele><time>2026-04-12T13:42:36.063Z</time></trkpt><trkpt lat="44.5850967" lon="7.9693383"><ele>516.0</ele><time>2026-04-12T13:42:40.065Z</time></trkpt><trkpt lat="44.5851417" lon="7.9692517"><ele>517.0</ele><time>2026-04-12T13:42:44.062Z</time></trkpt><trkpt lat="44.5852283" lon="7.969145"><ele>517.0</ele><time>2026-04-12T13:43:24.063Z</time></trkpt><trkpt lat="44.585295" lon="7.9690933"><ele>517.0</ele><time>2026-04-12T13:43:27.063Z</time></trkpt><trkpt lat="44.58535" lon="7.969035"><ele>517.0</ele><time>2026-04-12T13:43:30.064Z</time></trkpt><trkpt lat="44.58541" lon="7.969005"><ele>517.0</ele><time>2026-04-12T13:43:33.067Z</time></trkpt><trkpt lat="44.5854817" lon="7.9689533"><ele>517.0</ele><time>2026-04-12T13:43:37.062Z</time></trkpt><trkpt lat="44.5855317" lon="7.968895"><ele>517.0</ele><time>2026-04-12T13:43:40.064Z</time></trkpt><trkpt lat="44.585565" lon="7.96881"><ele>517.0</ele><time>2026-04-12T13:43:43.063Z</time></trkpt><trkpt lat="44.5855667" lon="7.968695"><ele>517.1666666666667</ele><time>2026-04-12T13:43:46.061Z</time></trkpt><trkpt lat="44.58555" lon="7.9686083"><ele>517.3333333333334</ele><time>2026-04-12T13:43:48.063Z</time></trkpt><trkpt lat="44.585505" lon="7.9684967"><ele>517.5</ele><time>2026-04-12T13:43:51.066Z</time></trkpt><trkpt lat="44.58545" lon="7.9683917"><ele>517.6666666666666</ele><time>2026-04-12T13:43:54.063Z</time></trkpt><trkpt lat="44.585405" lon="7.9682917"><ele>517.8333333333333</ele><time>2026-04-12T13:43:57.063Z</time></trkpt><trkpt lat="44.5853717" lon="7.9681933"><ele>518.0</ele><time>2026-04-12T13:44:00.062Z</time></trkpt><trkpt lat="44.5853367" lon="7.9680783"><ele>518.5</ele><time>2026-04-12T13:44:03.065Z</time></trkpt><trkpt lat="44.5852767" lon="7.968"><ele>519.0</ele><time>2026-04-12T13:44:06.061Z</time></trkpt><trkpt lat="44.5852083" lon="7.9679767"><ele>519.5</ele><time>2026-04-12T13:44:08.065Z</time></trkpt><trkpt lat="44.5851217" lon="7.9679983"><ele>520.0</ele><time>2026-04-12T13:44:11.06Z</time></trkpt><trkpt lat="44.58505" lon="7.9680367"><ele>520.5</ele><time>2026-04-12T13:44:14.062Z</time></trkpt><trkpt lat="44.5850033" lon="7.968125"><ele>521.0</ele><time>2026-04-12T13:44:18.062Z</time></trkpt><trkpt lat="44.5849883" lon="7.9682117"><ele>521.0</ele><time>2026-04-12T13:44:20.062Z</time></trkpt><trkpt lat="44.5849683" lon="7.9683117"><ele>521.0</ele><time>2026-04-12T13:44:24.065Z</time></trkpt><trkpt lat="44.584905" lon="7.96841"><ele>521.0</ele><time>2026-04-12T13:46:00.065Z</time></trkpt><trkpt lat="44.5848467" lon="7.9684583"><ele>521.0</ele><time>2026-04-12T13:46:08.061Z</time></trkpt><trkpt lat="44.5847717" lon="7.9684783"><ele>521.0</ele><time>2026-04-12T13:46:13.058Z</time></trkpt><trkpt lat="44.584705" lon="7.9685033"><ele>521.0</ele><time>2026-04-12T13:46:17.063Z</time></trkpt><trkpt lat="44.5846267" lon="7.968485"><ele>520.3333333333333</ele><time>2026-04-12T13:46:20.063Z</time></trkpt><trkpt lat="44.5845583" lon="7.968415"><ele>519.6666666666666</ele><time>2026-04-12T13:46:23.062Z</time></trkpt><trkpt lat="44.5844917" lon="7.9683733"><ele>519.0</ele><time>2026-04-12T13:46:27.062Z</time></trkpt><trkpt lat="44.5844283" lon="7.9683167"><ele>518.3333333333334</ele><time>2026-04-12T13:46:29.063Z</time></trkpt><trkpt lat="44.5843883" lon="7.9682283"><ele>517.6666666666667</ele><time>2026-04-12T13:46:31.064Z</time></trkpt><trkpt lat="44.5843183" lon="7.9681833"><ele>517.0</ele><time>2026-04-12T13:46:33.063Z</time></trkpt><trkpt lat="44.5842517" lon="7.9681717"><ele>515.0</ele><time>2026-04-12T13:46:34.062Z</time></trkpt><trkpt lat="44.5841883" lon="7.9681717"><ele>513.0</ele><time>2026-04-12T13:46:36.062Z</time></trkpt><trkpt lat="44.5841683" lon="7.9682667"><ele>511.0</ele><time>2026-04-12T13:46:40.064Z</time></trkpt><trkpt lat="44.5841733" lon="7.96816"><ele>509.0</ele><time>2026-04-12T13:46:45.065Z</time></trkpt><trkpt lat="44.58418" lon="7.9680367"><ele>507.00000000000006</ele><time>2026-04-12T13:46:48.061Z</time></trkpt><trkpt lat="44.5841867" lon="7.967915"><ele>505.0</ele><time>2026-04-12T13:46:51.064Z</time></trkpt><trkpt lat="44.5841283" lon="7.9678483"><ele>505.00000000000006</ele><time>2026-04-12T13:46:56.062Z</time></trkpt><trkpt lat="44.5840483" lon="7.967915"><ele>505.0</ele><time>2026-04-12T13:46:59.062Z</time></trkpt><trkpt lat="44.5839783" lon="7.96797"><ele>505.0</ele><time>2026-04-12T13:47:01.062Z</time></trkpt><trkpt lat="44.5839083" lon="7.967985"><ele>505.0</ele><time>2026-04-12T13:47:03.063Z</time></trkpt><trkpt lat="44.58384" lon="7.9679767"><ele>505.00000000000006</ele><time>2026-04-12T13:47:07.062Z</time></trkpt><trkpt lat="44.5838433" lon="7.9678867"><ele>505.0</ele><time>2026-04-12T13:47:11.06Z</time></trkpt><trkpt lat="44.5838667" lon="7.9677733"><ele>505.0</ele><time>2026-04-12T13:47:14.061Z</time></trkpt><trkpt lat="44.58387" lon="7.96767"><ele>505.0</ele><time>2026-04-12T13:47:16.063Z</time></trkpt><trkpt lat="44.583795" lon="7.9675833"><ele>505.0</ele><time>2026-04-12T13:47:19.062Z</time></trkpt><trkpt lat="44.5836917" lon="7.967585"><ele>505.0</ele><time>2026-04-12T13:47:21.063Z</time></trkpt><trkpt lat="44.583565" lon="7.967615"><ele>505.0</ele><time>2026-04-12T13:47:23.062Z</time></trkpt><trkpt lat="44.58351" lon="7.9676583"><ele>500.0</ele><time>2026-04-12T13:47:24.063Z</time></trkpt><trkpt lat="44.5833983" lon="7.9676833"><ele>495.0</ele><time>2026-04-12T13:47:26.06Z</time></trkpt><trkpt lat="44.583295" lon="7.9677017"><ele>490.0</ele><time>2026-04-12T13:47:28.064Z</time></trkpt><trkpt lat="44.5832233" lon="7.9677117"><ele>485.0</ele><time>2026-04-12T13:47:30.062Z</time></trkpt><trkpt lat="44.58328" lon="7.9676083"><ele>480.0</ele><time>2026-04-12T13:47:37.063Z</time></trkpt><trkpt lat="44.5833433" lon="7.96755"><ele>478.8</ele><time>2026-04-12T13:47:39.064Z</time></trkpt><trkpt lat="44.5834117" lon="7.9674817"><ele>477.6</ele><time>2026-04-12T13:47:41.061Z</time></trkpt><trkpt lat="44.5834867" lon="7.9674067"><ele>476.4</ele><time>2026-04-12T13:47:43.065Z</time></trkpt><trkpt lat="44.583565" lon="7.9673217"><ele>475.2</ele><time>2026-04-12T13:47:45.064Z</time></trkpt><trkpt lat="44.5836483" lon="7.9672067"><ele>474.0</ele><time>2026-04-12T13:47:47.061Z</time></trkpt><trkpt lat="44.58374" lon="7.9670933"><ele>473.1428571428571</ele><time>2026-04-12T13:47:49.062Z</time></trkpt><trkpt lat="44.5837933" lon="7.96704"><ele>472.2857142857143</ele><time>2026-04-12T13:47:50.063Z</time></trkpt><trkpt lat="44.5838467" lon="7.9669767"><ele>471.42857142857144</ele><time>2026-04-12T13:47:51.063Z</time></trkpt><trkpt lat="44.5838967" lon="7.96691"><ele>470.57142857142856</ele><time>2026-04-12T13:47:52.064Z</time></trkpt><trkpt lat="44.58395" lon="7.9668383"><ele>469.7142857142858</ele><time>2026-04-12T13:47:53.06Z</time></trkpt><trkpt lat="44.584005" lon="7.966765"><ele>468.8571428571429</ele><time>2026-04-12T13:47:54.061Z</time></trkpt><trkpt lat="44.58406" lon="7.9666917"><ele>468.0</ele><time>2026-04-12T13:47:55.063Z</time></trkpt><trkpt lat="44.584115" lon="7.9666183"><ele>468.0</ele><time>2026-04-12T13:47:56.062Z</time></trkpt><trkpt lat="44.5841733" lon="7.9665467"><ele>468.0</ele><time>2026-04-12T13:47:57.064Z</time></trkpt><trkpt lat="44.5842317" lon="7.9664733"><ele>468.0</ele><time>2026-04-12T13:47:58.062Z</time></trkpt><trkpt lat="44.5842883" lon="7.9663933"><ele>468.0</ele><time>2026-04-12T13:47:59.062Z</time></trkpt><trkpt lat="44.5843483" lon="7.966315"><ele>468.0</ele><time>2026-04-12T13:48:00.063Z</time></trkpt><trkpt lat="44.58441" lon="7.9662383"><ele>468.0</ele><time>2026-04-12T13:48:01.063Z</time></trkpt><trkpt lat="44.5844783" lon="7.96616"><ele>470.2</ele><time>2026-04-12T13:48:02.062Z</time></trkpt><trkpt lat="44.5845517" lon="7.9660833"><ele>472.4</ele><time>2026-04-12T13:48:03.063Z</time></trkpt><trkpt lat="44.584635" lon="7.9660133"><ele>474.59999999999997</ele><time>2026-04-12T13:48:04.063Z</time></trkpt><trkpt lat="44.58472" lon="7.9659483"><ele>476.79999999999995</ele><time>2026-04-12T13:48:05.062Z</time></trkpt><trkpt lat="44.5848133" lon="7.9659117"><ele>479.0</ele><time>2026-04-12T13:48:06.062Z</time></trkpt><trkpt lat="44.5849083" lon="7.965875"><ele>476.6</ele><time>2026-04-12T13:48:07.064Z</time></trkpt><trkpt lat="44.585015" lon="7.965825"><ele>474.2</ele><time>2026-04-12T13:48:08.063Z</time></trkpt><trkpt lat="44.5851083" lon="7.9657533"><ele>471.80000000000007</ele><time>2026-04-12T13:48:09.064Z</time></trkpt><trkpt lat="44.5852" lon="7.9656717"><ele>469.40000000000003</ele><time>2026-04-12T13:48:10.063Z</time></trkpt><trkpt lat="44.585295" lon="7.9655933"><ele>467.0</ele><time>2026-04-12T13:48:11.062Z</time></trkpt><trkpt lat="44.5853733" lon="7.965485"><ele>467.0</ele><time>2026-04-12T13:48:12.064Z</time></trkpt><trkpt lat="44.58544" lon="7.9653533"><ele>467.0</ele><time>2026-04-12T13:48:13.061Z</time></trkpt><trkpt lat="44.5854967" lon="7.965205"><ele>467.0</ele><time>2026-04-12T13:48:14.062Z</time></trkpt><trkpt lat="44.58555" lon="7.9650517"><ele>467.0</ele><time>2026-04-12T13:48:15.067Z</time></trkpt><trkpt lat="44.5855967" lon="7.9648933"><ele>464.25</ele><time>2026-04-12T13:48:16.063Z</time></trkpt><trkpt lat="44.5856433" lon="7.9647317"><ele>461.5</ele><time>2026-04-12T13:48:17.063Z</time></trkpt><trkpt lat="44.5856933" lon="7.96457"><ele>458.75</ele><time>2026-04-12T13:48:18.063Z</time></trkpt><trkpt lat="44.58574" lon="7.9644067"><ele>456.0</ele><time>2026-04-12T13:48:19.061Z</time></trkpt><trkpt lat="44.585785" lon="7.9642433"><ele>452.5</ele><time>2026-04-12T13:48:20.061Z</time></trkpt><trkpt lat="44.5858333" lon="7.9640817"><ele>449.0</ele><time>2026-04-12T13:48:21.064Z</time></trkpt><trkpt lat="44.585885" lon="7.9639267"><ele>445.5</ele><time>2026-04-12T13:48:22.062Z</time></trkpt><trkpt lat="44.5859333" lon="7.9637817"><ele>442.0</ele><time>2026-04-12T13:48:23.061Z</time></trkpt><trkpt lat="44.5859833" lon="7.96366"><ele>442.00000000000006</ele><time>2026-04-12T13:48:24.063Z</time></trkpt><trkpt lat="44.5860283" lon="7.9635567"><ele>442.0</ele><time>2026-04-12T13:48:25.063Z</time></trkpt><trkpt lat="44.58607" lon="7.963475"><ele>442.0</ele><time>2026-04-12T13:48:26.061Z</time></trkpt><trkpt lat="44.5861333" lon="7.9633717"><ele>442.0</ele><time>2026-04-12T13:48:28.063Z</time></trkpt><trkpt lat="44.5862083" lon="7.9633417"><ele>442.00000000000006</ele><time>2026-04-12T13:48:30.065Z</time></trkpt><trkpt lat="44.5862833" lon="7.963355"><ele>442.0</ele><time>2026-04-12T13:48:32.063Z</time></trkpt><trkpt lat="44.5863667" lon="7.9634233"><ele>441.33333333333337</ele><time>2026-04-12T13:48:34.065Z</time></trkpt><trkpt lat="44.5864683" lon="7.963515"><ele>440.6666666666667</ele><time>2026-04-12T13:48:36.061Z</time></trkpt><trkpt lat="44.58653" lon="7.9635683"><ele>440.0</ele><time>2026-04-12T13:48:37.062Z</time></trkpt><trkpt lat="44.5866033" lon="7.963625"><ele>439.33333333333337</ele><time>2026-04-12T13:48:38.062Z</time></trkpt><trkpt lat="44.5866783" lon="7.96368"><ele>438.6666666666667</ele><time>2026-04-12T13:48:39.064Z</time></trkpt><trkpt lat="44.5867567" lon="7.9637333"><ele>438.0</ele><time>2026-04-12T13:48:40.062Z</time></trkpt><trkpt lat="44.5868417" lon="7.9637917"><ele>438.0</ele><time>2026-04-12T13:48:41.062Z</time></trkpt><trkpt lat="44.5869217" lon="7.96386"><ele>437.99999999999994</ele><time>2026-04-12T13:48:42.064Z</time></trkpt><trkpt lat="44.5870033" lon="7.9639383"><ele>437.99999999999994</ele><time>2026-04-12T13:48:43.061Z</time></trkpt><trkpt lat="44.5870817" lon="7.9640183"><ele>438.0</ele><time>2026-04-12T13:48:44.063Z</time></trkpt><trkpt lat="44.5871583" lon="7.9641067"><ele>438.0</ele><time>2026-04-12T13:48:45.062Z</time></trkpt><trkpt lat="44.5872367" lon="7.964195"><ele>436.59999999999997</ele><time>2026-04-12T13:48:46.06Z</time></trkpt><trkpt lat="44.587315" lon="7.9642817"><ele>435.19999999999993</ele><time>2026-04-12T13:48:47.062Z</time></trkpt><trkpt lat="44.5873933" lon="7.9643717"><ele>433.8</ele><time>2026-04-12T13:48:48.061Z</time></trkpt><trkpt lat="44.5874683" lon="7.9644633"><ele>432.4</ele><time>2026-04-12T13:48:49.056Z</time></trkpt><trkpt lat="44.5875467" lon="7.9645533"><ele>431.0</ele><time>2026-04-12T13:48:50.061Z</time></trkpt><trkpt lat="44.587625" lon="7.9646417"><ele>431.0</ele><time>2026-04-12T13:48:51.063Z</time></trkpt><trkpt lat="44.5877033" lon="7.9647367"><ele>431.0</ele><time>2026-04-12T13:48:52.064Z</time></trkpt><trkpt lat="44.5877833" lon="7.9648333"><ele>431.0</ele><time>2026-04-12T13:48:53.062Z</time></trkpt><trkpt lat="44.58786" lon="7.9649317"><ele>431.0</ele><time>2026-04-12T13:48:54.061Z</time></trkpt><trkpt lat="44.5879333" lon="7.96503"><ele>431.0</ele><time>2026-04-12T13:48:55.063Z</time></trkpt><trkpt lat="44.5879967" lon="7.9651317"><ele>427.4</ele><time>2026-04-12T13:48:56.061Z</time></trkpt><trkpt lat="44.588045" lon="7.9652467"><ele>423.8</ele><time>2026-04-12T13:48:57.064Z</time></trkpt><trkpt lat="44.588075" lon="7.9653683"><ele>420.2</ele><time>2026-04-12T13:48:58.062Z</time></trkpt><trkpt lat="44.5880917" lon="7.9655"><ele>416.59999999999997</ele><time>2026-04-12T13:48:59.06Z</time></trkpt><trkpt lat="44.588085" lon="7.96564"><ele>413.0</ele><time>2026-04-12T13:49:00.063Z</time></trkpt><trkpt lat="44.5880733" lon="7.9657883"><ele>414.2</ele><time>2026-04-12T13:49:01.064Z</time></trkpt><trkpt lat="44.5880667" lon="7.9659383"><ele>415.4</ele><time>2026-04-12T13:49:02.062Z</time></trkpt><trkpt lat="44.5880733" lon="7.966085"><ele>416.59999999999997</ele><time>2026-04-12T13:49:03.063Z</time></trkpt><trkpt lat="44.5880867" lon="7.9662267"><ele>417.79999999999995</ele><time>2026-04-12T13:49:04.062Z</time></trkpt><trkpt lat="44.5881367" lon="7.966345"><ele>419.0</ele><time>2026-04-12T13:49:05.061Z</time></trkpt><trkpt lat="44.588195" lon="7.9664317"><ele>418.99999999999994</ele><time>2026-04-12T13:49:06.063Z</time></trkpt><trkpt lat="44.5882617" lon="7.9664817"><ele>419.0</ele><time>2026-04-12T13:49:07.063Z</time></trkpt><trkpt lat="44.58833" lon="7.966465"><ele>419.0</ele><time>2026-04-12T13:49:08.061Z</time></trkpt><trkpt lat="44.5883883" lon="7.9664233"><ele>419.0</ele><time>2026-04-12T13:49:09.063Z</time></trkpt><trkpt lat="44.5884233" lon="7.9663467"><ele>419.0</ele><time>2026-04-12T13:49:10.061Z</time></trkpt><trkpt lat="44.5884433" lon="7.966245"><ele>418.99999999999994</ele><time>2026-04-12T13:49:11.062Z</time></trkpt><trkpt lat="44.5884717" lon="7.96614"><ele>419.0</ele><time>2026-04-12T13:49:12.063Z</time></trkpt><trkpt lat="44.58851" lon="7.9660333"><ele>419.0</ele><time>2026-04-12T13:49:13.063Z</time></trkpt><trkpt lat="44.58856" lon="7.9659267"><ele>419.0</ele><time>2026-04-12T13:49:14.062Z</time></trkpt><trkpt lat="44.5886233" lon="7.965815"><ele>419.0</ele><time>2026-04-12T13:49:15.064Z</time></trkpt><trkpt lat="44.58869" lon="7.9656983"><ele>419.0</ele><time>2026-04-12T13:49:16.062Z</time></trkpt><trkpt lat="44.5887617" lon="7.965585"><ele>419.0</ele><time>2026-04-12T13:49:17.062Z</time></trkpt><trkpt lat="44.588835" lon="7.96548"><ele>416.6</ele><time>2026-04-12T13:49:18.062Z</time></trkpt><trkpt lat="44.5889183" lon="7.96539"><ele>414.2</ele><time>2026-04-12T13:49:19.064Z</time></trkpt><trkpt lat="44.58901" lon="7.96531"><ele>411.8</ele><time>2026-04-12T13:49:20.064Z</time></trkpt><trkpt lat="44.5891067" lon="7.965235"><ele>409.40000000000003</ele><time>2026-04-12T13:49:21.061Z</time></trkpt><trkpt lat="44.5892167" lon="7.965155"><ele>407.0</ele><time>2026-04-12T13:49:22.063Z</time></trkpt><trkpt lat="44.5893283" lon="7.96507"><ele>404.5</ele><time>2026-04-12T13:49:23.062Z</time></trkpt><trkpt lat="44.5894417" lon="7.9649833"><ele>402.0</ele><time>2026-04-12T13:49:24.063Z</time></trkpt><trkpt lat="44.5895583" lon="7.9649033"><ele>399.5</ele><time>2026-04-12T13:49:25.061Z</time></trkpt><trkpt lat="44.589675" lon="7.9648267"><ele>397.0</ele><time>2026-04-12T13:49:26.062Z</time></trkpt><trkpt lat="44.58978" lon="7.9647433"><ele>394.5</ele><time>2026-04-12T13:49:27.062Z</time></trkpt><trkpt lat="44.589875" lon="7.96464"><ele>392.0</ele><time>2026-04-12T13:49:28.062Z</time></trkpt><trkpt lat="44.5899583" lon="7.9645183"><ele>389.5</ele><time>2026-04-12T13:49:29.061Z</time></trkpt><trkpt lat="44.590025" lon="7.96439"><ele>387.0</ele><time>2026-04-12T13:49:30.062Z</time></trkpt><trkpt lat="44.5900783" lon="7.9642533"><ele>385.6666666666667</ele><time>2026-04-12T13:49:31.061Z</time></trkpt><trkpt lat="44.5901233" lon="7.96412"><ele>384.3333333333333</ele><time>2026-04-12T13:49:32.063Z</time></trkpt><trkpt lat="44.59017" lon="7.9640117"><ele>383.0</ele><time>2026-04-12T13:49:33.064Z</time></trkpt><trkpt lat="44.5902167" lon="7.96392"><ele>381.66666666666663</ele><time>2026-04-12T13:49:34.062Z</time></trkpt><trkpt lat="44.59028" lon="7.963855"><ele>380.3333333333333</ele><time>2026-04-12T13:49:35.061Z</time></trkpt><trkpt lat="44.59037" lon="7.9638717"><ele>379.0</ele><time>2026-04-12T13:49:36.064Z</time></trkpt><trkpt lat="44.5904567" lon="7.9638883"><ele>377.79999999999995</ele><time>2026-04-12T13:49:37.06Z</time></trkpt><trkpt lat="44.59055" lon="7.963905"><ele>376.59999999999997</ele><time>2026-04-12T13:49:38.064Z</time></trkpt><trkpt lat="44.5906467" lon="7.963905"><ele>375.4</ele><time>2026-04-12T13:49:39.064Z</time></trkpt><trkpt lat="44.5907467" lon="7.96389"><ele>374.2</ele><time>2026-04-12T13:49:40.063Z</time></trkpt><trkpt lat="44.5908483" lon="7.963855"><ele>373.0</ele><time>2026-04-12T13:49:41.058Z</time></trkpt><trkpt lat="44.59095" lon="7.9638117"><ele>373.0</ele><time>2026-04-12T13:49:42.061Z</time></trkpt><trkpt lat="44.591055" lon="7.9637633"><ele>373.0</ele><time>2026-04-12T13:49:43.061Z</time></trkpt><trkpt lat="44.5911617" lon="7.963725"><ele>373.0</ele><time>2026-04-12T13:49:44.061Z</time></trkpt><trkpt lat="44.5912733" lon="7.9637017"><ele>373.0</ele><time>2026-04-12T13:49:45.06Z</time></trkpt><trkpt lat="44.5913883" lon="7.9636967"><ele>373.0</ele><time>2026-04-12T13:49:46.062Z</time></trkpt><trkpt lat="44.591505" lon="7.96371"><ele>372.0</ele><time>2026-04-12T13:49:47.063Z</time></trkpt><trkpt lat="44.59162" lon="7.963735"><ele>371.0</ele><time>2026-04-12T13:49:48.061Z</time></trkpt><trkpt lat="44.5917267" lon="7.96376"><ele>370.0</ele><time>2026-04-12T13:49:49.063Z</time></trkpt><trkpt lat="44.59182" lon="7.9637883"><ele>369.0</ele><time>2026-04-12T13:49:50.062Z</time></trkpt><trkpt lat="44.5919217" lon="7.96379"><ele>368.0</ele><time>2026-04-12T13:49:51.063Z</time></trkpt><trkpt lat="44.592025" lon="7.9637667"><ele>367.0</ele><time>2026-04-12T13:49:52.061Z</time></trkpt><trkpt lat="44.5921283" lon="7.9637283"><ele>366.0</ele><time>2026-04-12T13:49:53.06Z</time></trkpt><trkpt lat="44.592235" lon="7.96367"><ele>365.0</ele><time>2026-04-12T13:49:54.062Z</time></trkpt><trkpt lat="44.59234" lon="7.9635983"><ele>364.0</ele><time>2026-04-12T13:49:55.061Z</time></trkpt><trkpt lat="44.592445" lon="7.9635267"><ele>364.0</ele><time>2026-04-12T13:49:56.061Z</time></trkpt><trkpt lat="44.59255" lon="7.9634517"><ele>364.0</ele><time>2026-04-12T13:49:57.062Z</time></trkpt><trkpt lat="44.5926517" lon="7.9633717"><ele>364.0</ele><time>2026-04-12T13:49:58.061Z</time></trkpt><trkpt lat="44.5927467" lon="7.963285"><ele>364.0</ele><time>2026-04-12T13:49:59.062Z</time></trkpt><trkpt lat="44.5928417" lon="7.9631933"><ele>361.79999999999995</ele><time>2026-04-12T13:50:00.06Z</time></trkpt><trkpt lat="44.5929383" lon="7.9631067"><ele>359.59999999999997</ele><time>2026-04-12T13:50:01.063Z</time></trkpt><trkpt lat="44.59304" lon="7.9630417"><ele>357.4</ele><time>2026-04-12T13:50:02.062Z</time></trkpt><trkpt lat="44.5931483" lon="7.9630017"><ele>355.2</ele><time>2026-04-12T13:50:03.062Z</time></trkpt><trkpt lat="44.5932517" lon="7.96298"><ele>353.0</ele><time>2026-04-12T13:50:04.061Z</time></trkpt><trkpt lat="44.5933583" lon="7.962965"><ele>353.0</ele><time>2026-04-12T13:50:05.061Z</time></trkpt><trkpt lat="44.5934683" lon="7.9629533"><ele>353.0</ele><time>2026-04-12T13:50:06.061Z</time></trkpt><trkpt lat="44.5935783" lon="7.9629417"><ele>353.0</ele><time>2026-04-12T13:50:07.06Z</time></trkpt><trkpt lat="44.5936967" lon="7.96293"><ele>353.0</ele><time>2026-04-12T13:50:08.059Z</time></trkpt><trkpt lat="44.5938167" lon="7.96292"><ele>352.5</ele><time>2026-04-12T13:50:09.064Z</time></trkpt><trkpt lat="44.5939367" lon="7.9629083"><ele>352.0</ele><time>2026-04-12T13:50:10.061Z</time></trkpt><trkpt lat="44.5940583" lon="7.9628767"><ele>351.5</ele><time>2026-04-12T13:50:11.062Z</time></trkpt><trkpt lat="44.59418" lon="7.962825"><ele>351.0</ele><time>2026-04-12T13:50:12.059Z</time></trkpt><trkpt lat="44.5942933" lon="7.9627733"><ele>351.0</ele><time>2026-04-12T13:50:13.061Z</time></trkpt><trkpt lat="44.594405" lon="7.9627183"><ele>351.0</ele><time>2026-04-12T13:50:14.062Z</time></trkpt><trkpt lat="44.5945133" lon="7.9626633"><ele>351.0</ele><time>2026-04-12T13:50:15.063Z</time></trkpt><trkpt lat="44.5946183" lon="7.96261"><ele>351.0</ele><time>2026-04-12T13:50:16.062Z</time></trkpt><trkpt lat="44.594725" lon="7.962555"><ele>349.0</ele><time>2026-04-12T13:50:17.063Z</time></trkpt><trkpt lat="44.59483" lon="7.9625017"><ele>347.0</ele><time>2026-04-12T13:50:18.063Z</time></trkpt><trkpt lat="44.594935" lon="7.9624533"><ele>345.0</ele><time>2026-04-12T13:50:19.061Z</time></trkpt><trkpt lat="44.5950383" lon="7.9624033"><ele>343.0</ele><time>2026-04-12T13:50:20.063Z</time></trkpt><trkpt lat="44.59514" lon="7.9623583"><ele>341.0</ele><time>2026-04-12T13:50:21.062Z</time></trkpt><trkpt lat="44.5952417" lon="7.9623217"><ele>340.33333333333337</ele><time>2026-04-12T13:50:22.062Z</time></trkpt><trkpt lat="44.5953383" lon="7.9623067"><ele>339.6666666666667</ele><time>2026-04-12T13:50:23.063Z</time></trkpt><trkpt lat="44.59543" lon="7.9623117"><ele>339.0</ele><time>2026-04-12T13:50:24.061Z</time></trkpt><trkpt lat="44.5955167" lon="7.962325"><ele>338.3333333333333</ele><time>2026-04-12T13:50:25.063Z</time></trkpt><trkpt lat="44.595605" lon="7.9623517"><ele>337.66666666666663</ele><time>2026-04-12T13:50:26.063Z</time></trkpt><trkpt lat="44.5956733" lon="7.9623883"><ele>337.0</ele><time>2026-04-12T13:50:27.063Z</time></trkpt><trkpt lat="44.5957383" lon="7.9624567"><ele>337.0</ele><time>2026-04-12T13:50:28.062Z</time></trkpt><trkpt lat="44.5957917" lon="7.96253"><ele>337.0</ele><time>2026-04-12T13:50:29.061Z</time></trkpt><trkpt lat="44.5958433" lon="7.9625967"><ele>337.0</ele><time>2026-04-12T13:50:30.062Z</time></trkpt><trkpt lat="44.5959567" lon="7.9626517"><ele>337.0</ele><time>2026-04-12T13:50:32.062Z</time></trkpt><trkpt lat="44.5960383" lon="7.9625567"><ele>337.0</ele><time>2026-04-12T13:50:34.062Z</time></trkpt><trkpt lat="44.5960767" lon="7.9624067"><ele>337.0</ele><time>2026-04-12T13:50:36.061Z</time></trkpt><trkpt lat="44.5960833" lon="7.962255"><ele>337.0</ele><time>2026-04-12T13:50:38.063Z</time></trkpt><trkpt lat="44.5960817" lon="7.96211"><ele>337.0</ele><time>2026-04-12T13:50:40.063Z</time></trkpt><trkpt lat="44.5960833" lon="7.9619667"><ele>337.0</ele><time>2026-04-12T13:50:42.061Z</time></trkpt><trkpt lat="44.5961133" lon="7.9618167"><ele>337.0</ele><time>2026-04-12T13:50:44.06Z</time></trkpt><trkpt lat="44.5961767" lon="7.96168"><ele>337.28571428571433</ele><time>2026-04-12T13:50:46.063Z</time></trkpt><trkpt lat="44.5962217" lon="7.9616167"><ele>337.57142857142856</ele><time>2026-04-12T13:50:47.061Z</time></trkpt><trkpt lat="44.5962717" lon="7.9615583"><ele>337.8571428571429</ele><time>2026-04-12T13:50:48.063Z</time></trkpt><trkpt lat="44.5963233" lon="7.961505"><ele>338.14285714285717</ele><time>2026-04-12T13:50:49.062Z</time></trkpt><trkpt lat="44.5963767" lon="7.9614533"><ele>338.42857142857144</ele><time>2026-04-12T13:50:50.062Z</time></trkpt><trkpt lat="44.5964333" lon="7.9614"><ele>338.7142857142857</ele><time>2026-04-12T13:50:51.062Z</time></trkpt><trkpt lat="44.596495" lon="7.961345"><ele>339.0</ele><time>2026-04-12T13:50:52.061Z</time></trkpt><trkpt lat="44.5965533" lon="7.961285"><ele>339.0</ele><time>2026-04-12T13:50:53.061Z</time></trkpt><trkpt lat="44.596605" lon="7.9612267"><ele>339.0</ele><time>2026-04-12T13:50:54.062Z</time></trkpt><trkpt lat="44.5966533" lon="7.9611683"><ele>339.0</ele><time>2026-04-12T13:50:55.06Z</time></trkpt><trkpt lat="44.5967017" lon="7.961105"><ele>339.0</ele><time>2026-04-12T13:50:56.062Z</time></trkpt><trkpt lat="44.5967517" lon="7.9610467"><ele>339.0</ele><time>2026-04-12T13:50:57.061Z</time></trkpt><trkpt lat="44.5968033" lon="7.960995"><ele>339.0</ele><time>2026-04-12T13:50:58.061Z</time></trkpt><trkpt lat="44.5968617" lon="7.9609533"><ele>339.0</ele><time>2026-04-12T13:50:59.062Z</time></trkpt><trkpt lat="44.596965" lon="7.9608833"><ele>338.1666666666667</ele><time>2026-04-12T13:51:01.061Z</time></trkpt><trkpt lat="44.59704" lon="7.9608233"><ele>337.3333333333333</ele><time>2026-04-12T13:51:03.063Z</time></trkpt><trkpt lat="44.59711" lon="7.9607583"><ele>336.5</ele><time>2026-04-12T13:51:05.062Z</time></trkpt><trkpt lat="44.5971817" lon="7.9606867"><ele>335.66666666666663</ele><time>2026-04-12T13:51:07.064Z</time></trkpt><trkpt lat="44.5972667" lon="7.9606567"><ele>334.8333333333333</ele><time>2026-04-12T13:51:09.063Z</time></trkpt><trkpt lat="44.5973617" lon="7.9606567"><ele>334.0</ele><time>2026-04-12T13:51:11.06Z</time></trkpt><trkpt lat="44.5974783" lon="7.9606617"><ele>334.0</ele><time>2026-04-12T13:51:13.062Z</time></trkpt><trkpt lat="44.5976033" lon="7.960655"><ele>334.0</ele><time>2026-04-12T13:51:15.063Z</time></trkpt><trkpt lat="44.597725" lon="7.9606333"><ele>334.0</ele><time>2026-04-12T13:51:17.062Z</time></trkpt><trkpt lat="44.5978367" lon="7.9605933"><ele>334.0</ele><time>2026-04-12T13:51:19.063Z</time></trkpt><trkpt lat="44.5979367" lon="7.9605517"><ele>333.79999999999995</ele><time>2026-04-12T13:51:21.062Z</time></trkpt><trkpt lat="44.59804" lon="7.9605517"><ele>333.59999999999997</ele><time>2026-04-12T13:51:23.06Z</time></trkpt><trkpt lat="44.5981483" lon="7.9605917"><ele>333.4</ele><time>2026-04-12T13:51:25.062Z</time></trkpt><trkpt lat="44.5982683" lon="7.9606533"><ele>333.2</ele><time>2026-04-12T13:51:27.063Z</time></trkpt><trkpt lat="44.5983317" lon="7.9606833"><ele>333.0</ele><time>2026-04-12T13:51:28.063Z</time></trkpt><trkpt lat="44.5983967" lon="7.9607033"><ele>333.0</ele><time>2026-04-12T13:51:29.063Z</time></trkpt><trkpt lat="44.598465" lon="7.9607017"><ele>333.0</ele><time>2026-04-12T13:51:30.063Z</time></trkpt><trkpt lat="44.598535" lon="7.9606717"><ele>333.0</ele><time>2026-04-12T13:51:31.063Z</time></trkpt><trkpt lat="44.5985983" lon="7.9606167"><ele>333.0</ele><time>2026-04-12T13:51:32.062Z</time></trkpt><trkpt lat="44.5986583" lon="7.9605617"><ele>333.0</ele><time>2026-04-12T13:51:33.065Z</time></trkpt><trkpt lat="44.598745" lon="7.9604467"><ele>333.0</ele><time>2026-04-12T13:51:35.064Z</time></trkpt><trkpt lat="44.5987683" lon="7.9603617"><ele>332.5714285714286</ele><time>2026-04-12T13:51:36.062Z</time></trkpt><trkpt lat="44.5987883" lon="7.9602633"><ele>332.1428571428571</ele><time>2026-04-12T13:51:37.057Z</time></trkpt><trkpt lat="44.59881" lon="7.9601567"><ele>331.7142857142857</ele><time>2026-04-12T13:51:38.067Z</time></trkpt><trkpt lat="44.59883" lon="7.9600617"><ele>331.28571428571433</ele><time>2026-04-12T13:51:39.063Z</time></trkpt><trkpt lat="44.598845" lon="7.9599683"><ele>330.8571428571429</ele><time>2026-04-12T13:51:40.066Z</time></trkpt><trkpt lat="44.5988567" lon="7.9598683"><ele>330.42857142857144</ele><time>2026-04-12T13:51:41.056Z</time></trkpt><trkpt lat="44.59887" lon="7.959765"><ele>330.0</ele><time>2026-04-12T13:51:42.057Z</time></trkpt><trkpt lat="44.598885" lon="7.9596533"><ele>328.8333333333333</ele><time>2026-04-12T13:51:43.058Z</time></trkpt><trkpt lat="44.5988933" lon="7.9595233"><ele>327.6666666666667</ele><time>2026-04-12T13:51:44.063Z</time></trkpt><trkpt lat="44.5989" lon="7.959405"><ele>326.5</ele><time>2026-04-12T13:51:45.066Z</time></trkpt><trkpt lat="44.5989083" lon="7.9593"><ele>325.33333333333337</ele><time>2026-04-12T13:51:46.062Z</time></trkpt><trkpt lat="44.5989283" lon="7.9591683"><ele>324.1666666666667</ele><time>2026-04-12T13:51:48.065Z</time></trkpt><trkpt lat="44.5989433" lon="7.959055"><ele>323.0</ele><time>2026-04-12T13:51:50.065Z</time></trkpt><trkpt lat="44.59899" lon="7.9589383"><ele>321.79999999999995</ele><time>2026-04-12T13:51:52.063Z</time></trkpt><trkpt lat="44.5990383" lon="7.95881"><ele>320.59999999999997</ele><time>2026-04-12T13:51:54.062Z</time></trkpt><trkpt lat="44.5990567" lon="7.9586617"><ele>319.4</ele><time>2026-04-12T13:51:56.063Z</time></trkpt><trkpt lat="44.5990733" lon="7.9585133"><ele>318.2</ele><time>2026-04-12T13:51:58.066Z</time></trkpt><trkpt lat="44.5991017" lon="7.95836"><ele>317.0</ele><time>2026-04-12T13:52:00.062Z</time></trkpt><trkpt lat="44.5991467" lon="7.958215"><ele>315.0</ele><time>2026-04-12T13:52:02.061Z</time></trkpt><trkpt lat="44.599225" lon="7.95809"><ele>313.0</ele><time>2026-04-12T13:52:04.064Z</time></trkpt><trkpt lat="44.599305" lon="7.9579717"><ele>311.0</ele><time>2026-04-12T13:52:06.062Z</time></trkpt><trkpt lat="44.5993933" lon="7.95786"><ele>309.0</ele><time>2026-04-12T13:52:08.062Z</time></trkpt><trkpt lat="44.5994833" lon="7.95775"><ele>309.3333333333333</ele><time>2026-04-12T13:52:10.061Z</time></trkpt><trkpt lat="44.5995767" lon="7.9576467"><ele>309.6666666666667</ele><time>2026-04-12T13:52:12.062Z</time></trkpt><trkpt lat="44.5996683" lon="7.9575317"><ele>310.0</ele><time>2026-04-12T13:52:14.064Z</time></trkpt><trkpt lat="44.599715" lon="7.9574683"><ele>310.33333333333337</ele><time>2026-04-12T13:52:15.061Z</time></trkpt><trkpt lat="44.5997633" lon="7.9573967"><ele>310.6666666666667</ele><time>2026-04-12T13:52:16.063Z</time></trkpt><trkpt lat="44.5998117" lon="7.957325"><ele>311.0</ele><time>2026-04-12T13:52:17.062Z</time></trkpt><trkpt lat="44.5998567" lon="7.957255"><ele>311.0</ele><time>2026-04-12T13:52:18.062Z</time></trkpt><trkpt lat="44.5999417" lon="7.9571317"><ele>311.0</ele><time>2026-04-12T13:52:20.063Z</time></trkpt><trkpt lat="44.6000267" lon="7.9570333"><ele>311.0</ele><time>2026-04-12T13:52:22.065Z</time></trkpt><trkpt lat="44.60011" lon="7.95693"><ele>311.0</ele><time>2026-04-12T13:52:24.065Z</time></trkpt><trkpt lat="44.6002" lon="7.956825"><ele>311.0</ele><time>2026-04-12T13:52:26.062Z</time></trkpt><trkpt lat="44.600295" lon="7.95674"><ele>311.0</ele><time>2026-04-12T13:52:28.062Z</time></trkpt><trkpt lat="44.6004067" lon="7.9566817"><ele>311.0</ele><time>2026-04-12T13:52:30.064Z</time></trkpt><trkpt lat="44.6004683" lon="7.9566517"><ele>311.0</ele><time>2026-04-12T13:52:31.062Z</time></trkpt><trkpt lat="44.6005333" lon="7.9566217"><ele>311.0</ele><time>2026-04-12T13:52:32.064Z</time></trkpt><trkpt lat="44.6005967" lon="7.95659"><ele>311.0</ele><time>2026-04-12T13:52:33.063Z</time></trkpt><trkpt lat="44.6006617" lon="7.9565517"><ele>310.2857142857143</ele><time>2026-04-12T13:52:34.064Z</time></trkpt><trkpt lat="44.6007283" lon="7.9565167"><ele>309.5714285714286</ele><time>2026-04-12T13:52:35.064Z</time></trkpt><trkpt lat="44.6007933" lon="7.9564817"><ele>308.8571428571429</ele><time>2026-04-12T13:52:36.065Z</time></trkpt><trkpt lat="44.6008583" lon="7.9564467"><ele>308.1428571428571</ele><time>2026-04-12T13:52:37.063Z</time></trkpt><trkpt lat="44.6009217" lon="7.956415"><ele>307.42857142857144</ele><time>2026-04-12T13:52:38.063Z</time></trkpt><trkpt lat="44.6009867" lon="7.956385"><ele>306.7142857142857</ele><time>2026-04-12T13:52:39.061Z</time></trkpt><trkpt lat="44.6010533" lon="7.9563533"><ele>306.0</ele><time>2026-04-12T13:52:40.061Z</time></trkpt><trkpt lat="44.60112" lon="7.9563217"><ele>305.1428571428571</ele><time>2026-04-12T13:52:41.064Z</time></trkpt><trkpt lat="44.6011867" lon="7.9562933"><ele>304.2857142857143</ele><time>2026-04-12T13:52:42.061Z</time></trkpt><trkpt lat="44.6012533" lon="7.9562683"><ele>303.42857142857144</ele><time>2026-04-12T13:52:43.062Z</time></trkpt><trkpt lat="44.601325" lon="7.9562383"><ele>302.57142857142856</ele><time>2026-04-12T13:52:44.062Z</time></trkpt><trkpt lat="44.6013983" lon="7.9562117"><ele>301.7142857142857</ele><time>2026-04-12T13:52:45.063Z</time></trkpt><trkpt lat="44.6014733" lon="7.9561833"><ele>300.85714285714283</ele><time>2026-04-12T13:52:46.063Z</time></trkpt><trkpt lat="44.6015483" lon="7.9561517"><ele>300.0</ele><time>2026-04-12T13:52:47.064Z</time></trkpt><trkpt lat="44.6016183" lon="7.9561283"><ele>300.0</ele><time>2026-04-12T13:52:48.064Z</time></trkpt><trkpt lat="44.6016883" lon="7.9561117"><ele>300.0</ele><time>2026-04-12T13:52:49.064Z</time></trkpt><trkpt lat="44.6017533" lon="7.9561017"><ele>300.0</ele><time>2026-04-12T13:52:50.064Z</time></trkpt><trkpt lat="44.6018383" lon="7.9560633"><ele>300.0</ele><time>2026-04-12T13:52:52.063Z</time></trkpt><trkpt lat="44.6018917" lon="7.955955"><ele>300.0</ele><time>2026-04-12T13:52:54.062Z</time></trkpt><trkpt lat="44.6019283" lon="7.9558733"><ele>300.0</ele><time>2026-04-12T13:52:55.064Z</time></trkpt><trkpt lat="44.601975" lon="7.95578"><ele>297.5</ele><time>2026-04-12T13:52:56.065Z</time></trkpt><trkpt lat="44.6020267" lon="7.955675"><ele>295.0</ele><time>2026-04-12T13:52:57.065Z</time></trkpt><trkpt lat="44.6020783" lon="7.9555717"><ele>292.5</ele><time>2026-04-12T13:52:58.062Z</time></trkpt><trkpt lat="44.6021283" lon="7.955475"><ele>290.0</ele><time>2026-04-12T13:52:59.064Z</time></trkpt><trkpt lat="44.60218" lon="7.9553883"><ele>287.5</ele><time>2026-04-12T13:53:00.064Z</time></trkpt><trkpt lat="44.6022317" lon="7.9553117"><ele>285.0</ele><time>2026-04-12T13:53:01.063Z</time></trkpt><trkpt lat="44.6022767" lon="7.9552433"><ele>285.0</ele><time>2026-04-12T13:53:02.062Z</time></trkpt><trkpt lat="44.602355" lon="7.9551383"><ele>285.0</ele><time>2026-04-12T13:53:04.061Z</time></trkpt><trkpt lat="44.60242" lon="7.9550817"><ele>285.0</ele><time>2026-04-12T13:53:06.063Z</time></trkpt><trkpt lat="44.6024933" lon="7.955105"><ele>285.0</ele><time>2026-04-12T13:53:08.063Z</time></trkpt><trkpt lat="44.6025883" lon="7.9550767"><ele>285.0</ele><time>2026-04-12T13:53:10.062Z</time></trkpt><trkpt lat="44.6026417" lon="7.9550183"><ele>285.0</ele><time>2026-04-12T13:53:11.063Z</time></trkpt><trkpt lat="44.6026917" lon="7.9549483"><ele>284.57142857142856</ele><time>2026-04-12T13:53:12.063Z</time></trkpt><trkpt lat="44.6027467" lon="7.95487"><ele>284.14285714285717</ele><time>2026-04-12T13:53:13.062Z</time></trkpt><trkpt lat="44.6027983" lon="7.95479"><ele>283.7142857142857</ele><time>2026-04-12T13:53:14.062Z</time></trkpt><trkpt lat="44.60285" lon="7.9547083"><ele>283.2857142857143</ele><time>2026-04-12T13:53:15.063Z</time></trkpt><trkpt lat="44.6028983" lon="7.9546283"><ele>282.85714285714283</ele><time>2026-04-12T13:53:16.061Z</time></trkpt><trkpt lat="44.602945" lon="7.95455"><ele>282.42857142857144</ele><time>2026-04-12T13:53:17.061Z</time></trkpt><trkpt lat="44.60299" lon="7.95448"><ele>282.0</ele><time>2026-04-12T13:53:18.063Z</time></trkpt><trkpt lat="44.60304" lon="7.9544167"><ele>282.0</ele><time>2026-04-12T13:53:19.062Z</time></trkpt><trkpt lat="44.6030933" lon="7.954365"><ele>282.0</ele><time>2026-04-12T13:53:20.061Z</time></trkpt><trkpt lat="44.6031517" lon="7.9543267"><ele>282.0</ele><time>2026-04-12T13:53:21.062Z</time></trkpt><trkpt lat="44.6032117" lon="7.9542917"><ele>282.0</ele><time>2026-04-12T13:53:22.063Z</time></trkpt><trkpt lat="44.6032733" lon="7.9542583"><ele>282.0</ele><time>2026-04-12T13:53:23.062Z</time></trkpt><trkpt lat="44.6033367" lon="7.9542267"><ele>282.0</ele><time>2026-04-12T13:53:24.062Z</time></trkpt><trkpt lat="44.6033967" lon="7.95419"><ele>282.0</ele><time>2026-04-12T13:53:25.063Z</time></trkpt><trkpt lat="44.6034533" lon="7.9541433"><ele>281.0</ele><time>2026-04-12T13:53:26.062Z</time></trkpt><trkpt lat="44.6035067" lon="7.95409"><ele>280.0</ele><time>2026-04-12T13:53:27.062Z</time></trkpt><trkpt lat="44.603555" lon="7.95402"><ele>279.0</ele><time>2026-04-12T13:53:28.063Z</time></trkpt><trkpt lat="44.60359" lon="7.9539283"><ele>278.0</ele><time>2026-04-12T13:53:29.063Z</time></trkpt><trkpt lat="44.6036133" lon="7.9538183"><ele>277.0</ele><time>2026-04-12T13:53:30.061Z</time></trkpt><trkpt lat="44.6036333" lon="7.9536983"><ele>276.0</ele><time>2026-04-12T13:53:31.062Z</time></trkpt><trkpt lat="44.60367" lon="7.95358"><ele>275.8333333333333</ele><time>2026-04-12T13:53:32.062Z</time></trkpt><trkpt lat="44.603705" lon="7.953465"><ele>275.6666666666667</ele><time>2026-04-12T13:53:33.065Z</time></trkpt><trkpt lat="44.603745" lon="7.9533683"><ele>275.5</ele><time>2026-04-12T13:53:34.061Z</time></trkpt><trkpt lat="44.6037867" lon="7.95328"><ele>275.33333333333337</ele><time>2026-04-12T13:53:35.06Z</time></trkpt><trkpt lat="44.6038417" lon="7.953205"><ele>275.1666666666667</ele><time>2026-04-12T13:53:36.062Z</time></trkpt><trkpt lat="44.6038983" lon="7.953145"><ele>275.0</ele><time>2026-04-12T13:53:37.063Z</time></trkpt><trkpt lat="44.6040117" lon="7.9531"><ele>274.33333333333337</ele><time>2026-04-12T13:53:39.065Z</time></trkpt><trkpt lat="44.6040733" lon="7.9531267"><ele>273.6666666666667</ele><time>2026-04-12T13:53:40.058Z</time></trkpt><trkpt lat="44.60414" lon="7.9531517"><ele>273.0</ele><time>2026-04-12T13:53:41.062Z</time></trkpt><trkpt lat="44.6042067" lon="7.9531583"><ele>272.3333333333333</ele><time>2026-04-12T13:53:42.063Z</time></trkpt><trkpt lat="44.60433" lon="7.9531517"><ele>271.66666666666663</ele><time>2026-04-12T13:53:44.063Z</time></trkpt><trkpt lat="44.6043983" lon="7.9531383"><ele>271.0</ele><time>2026-04-12T13:53:45.063Z</time></trkpt><trkpt lat="44.6044667" lon="7.95311"><ele>270.5</ele><time>2026-04-12T13:53:46.063Z</time></trkpt><trkpt lat="44.604535" lon="7.953065"><ele>270.0</ele><time>2026-04-12T13:53:47.062Z</time></trkpt><trkpt lat="44.6046067" lon="7.953035"><ele>269.5</ele><time>2026-04-12T13:53:48.064Z</time></trkpt><trkpt lat="44.6046783" lon="7.953005"><ele>269.0</ele><time>2026-04-12T13:53:49.064Z</time></trkpt><trkpt lat="44.6047517" lon="7.9529733"><ele>268.5</ele><time>2026-04-12T13:53:50.065Z</time></trkpt><trkpt lat="44.6048267" lon="7.9529517"><ele>268.0</ele><time>2026-04-12T13:53:51.063Z</time></trkpt><trkpt lat="44.6049033" lon="7.9529367"><ele>268.0</ele><time>2026-04-12T13:53:52.063Z</time></trkpt><trkpt lat="44.6049767" lon="7.9529317"><ele>268.0</ele><time>2026-04-12T13:53:53.062Z</time></trkpt><trkpt lat="44.6050483" lon="7.9529417"><ele>268.0</ele><time>2026-04-12T13:53:54.063Z</time></trkpt><trkpt lat="44.6051217" lon="7.9529417"><ele>268.0</ele><time>2026-04-12T13:53:55.063Z</time></trkpt><trkpt lat="44.6051917" lon="7.9529333"><ele>268.0</ele><time>2026-04-12T13:53:56.061Z</time></trkpt><trkpt lat="44.6052933" lon="7.9528983"><ele>268.0</ele><time>2026-04-12T13:53:58.062Z</time></trkpt><trkpt lat="44.6053483" lon="7.9528283"><ele>267.8</ele><time>2026-04-12T13:54:00.063Z</time></trkpt><trkpt lat="44.6053567" lon="7.95272"><ele>267.6</ele><time>2026-04-12T13:54:02.062Z</time></trkpt><trkpt lat="44.6053317" lon="7.9526067"><ele>267.4</ele><time>2026-04-12T13:54:04.061Z</time></trkpt><trkpt lat="44.605345" lon="7.952475"><ele>267.2</ele><time>2026-04-12T13:54:06.061Z</time></trkpt><trkpt lat="44.6053933" lon="7.9523417"><ele>267.0</ele><time>2026-04-12T13:54:08.062Z</time></trkpt><trkpt lat="44.6054633" lon="7.9522117"><ele>266.3333333333333</ele><time>2026-04-12T13:54:10.062Z</time></trkpt><trkpt lat="44.6055583" lon="7.9520933"><ele>265.6666666666667</ele><time>2026-04-12T13:54:12.063Z</time></trkpt><trkpt lat="44.6056167" lon="7.9520517"><ele>265.0</ele><time>2026-04-12T13:54:13.066Z</time></trkpt><trkpt lat="44.6056833" lon="7.9520217"><ele>264.33333333333337</ele><time>2026-04-12T13:54:14.063Z</time></trkpt><trkpt lat="44.60575" lon="7.9519917"><ele>263.6666666666667</ele><time>2026-04-12T13:54:15.063Z</time></trkpt><trkpt lat="44.6058167" lon="7.9519567"><ele>263.0</ele><time>2026-04-12T13:54:16.062Z</time></trkpt><trkpt lat="44.6058883" lon="7.9519083"><ele>263.0</ele><time>2026-04-12T13:54:17.061Z</time></trkpt><trkpt lat="44.605955" lon="7.9518517"><ele>263.0</ele><time>2026-04-12T13:54:18.063Z</time></trkpt><trkpt lat="44.6060183" lon="7.9517833"><ele>263.0</ele><time>2026-04-12T13:54:19.065Z</time></trkpt><trkpt lat="44.6060767" lon="7.9517083"><ele>263.0</ele><time>2026-04-12T13:54:20.062Z</time></trkpt><trkpt lat="44.6061367" lon="7.95163"><ele>263.0</ele><time>2026-04-12T13:54:21.064Z</time></trkpt><trkpt lat="44.606195" lon="7.9515567"><ele>263.0</ele><time>2026-04-12T13:54:22.062Z</time></trkpt><trkpt lat="44.6062583" lon="7.9514833"><ele>262.7142857142857</ele><time>2026-04-12T13:54:23.062Z</time></trkpt><trkpt lat="44.6063183" lon="7.9514167"><ele>262.4285714285714</ele><time>2026-04-12T13:54:24.062Z</time></trkpt><trkpt lat="44.606375" lon="7.951355"><ele>262.1428571428571</ele><time>2026-04-12T13:54:25.063Z</time></trkpt><trkpt lat="44.606435" lon="7.9512933"><ele>261.85714285714283</ele><time>2026-04-12T13:54:26.061Z</time></trkpt><trkpt lat="44.606495" lon="7.9512467"><ele>261.57142857142856</ele><time>2026-04-12T13:54:27.064Z</time></trkpt><trkpt lat="44.6065583" lon="7.951215"><ele>261.2857142857143</ele><time>2026-04-12T13:54:28.062Z</time></trkpt><trkpt lat="44.6066233" lon="7.9512083"><ele>261.0</ele><time>2026-04-12T13:54:29.062Z</time></trkpt><trkpt lat="44.6066883" lon="7.951235"><ele>261.0</ele><time>2026-04-12T13:54:30.061Z</time></trkpt><trkpt lat="44.606755" lon="7.9512733"><ele>261.0</ele><time>2026-04-12T13:54:31.061Z</time></trkpt><trkpt lat="44.6068267" lon="7.951315"><ele>261.0</ele><time>2026-04-12T13:54:32.062Z</time></trkpt><trkpt lat="44.6069017" lon="7.95134"><ele>261.0</ele><time>2026-04-12T13:54:33.063Z</time></trkpt><trkpt lat="44.6069783" lon="7.95134"><ele>261.0</ele><time>2026-04-12T13:54:34.06Z</time></trkpt><trkpt lat="44.607055" lon="7.95132"><ele>261.0</ele><time>2026-04-12T13:54:35.064Z</time></trkpt><trkpt lat="44.60713" lon="7.9512833"><ele>260.8333333333333</ele><time>2026-04-12T13:54:36.064Z</time></trkpt><trkpt lat="44.607205" lon="7.951235"><ele>260.6666666666667</ele><time>2026-04-12T13:54:37.062Z</time></trkpt><trkpt lat="44.6072783" lon="7.9511817"><ele>260.5</ele><time>2026-04-12T13:54:38.062Z</time></trkpt><trkpt lat="44.6073483" lon="7.9511317"><ele>260.33333333333337</ele><time>2026-04-12T13:54:39.064Z</time></trkpt><trkpt lat="44.60742" lon="7.9510833"><ele>260.1666666666667</ele><time>2026-04-12T13:54:40.061Z</time></trkpt><trkpt lat="44.607495" lon="7.9510417"><ele>260.0</ele><time>2026-04-12T13:54:41.063Z</time></trkpt><trkpt lat="44.607575" lon="7.951015"><ele>260.0</ele><time>2026-04-12T13:54:42.062Z</time></trkpt><trkpt lat="44.6076583" lon="7.9509983"><ele>260.0</ele><time>2026-04-12T13:54:43.064Z</time></trkpt><trkpt lat="44.6077433" lon="7.950985"><ele>260.0</ele><time>2026-04-12T13:54:44.061Z</time></trkpt><trkpt lat="44.6078317" lon="7.95097"><ele>260.0</ele><time>2026-04-12T13:54:45.063Z</time></trkpt><trkpt lat="44.60792" lon="7.9509517"><ele>260.0</ele><time>2026-04-12T13:54:46.062Z</time></trkpt><trkpt lat="44.60801" lon="7.9509417"><ele>260.0</ele><time>2026-04-12T13:54:47.063Z</time></trkpt><trkpt lat="44.6081017" lon="7.9509267"><ele>259.6</ele><time>2026-04-12T13:54:48.064Z</time></trkpt><trkpt lat="44.608195" lon="7.95092"><ele>259.2</ele><time>2026-04-12T13:54:49.063Z</time></trkpt><trkpt lat="44.6082883" lon="7.9509117"><ele>258.8</ele><time>2026-04-12T13:54:50.062Z</time></trkpt><trkpt lat="44.6083833" lon="7.9509033"><ele>258.4</ele><time>2026-04-12T13:54:51.063Z</time></trkpt><trkpt lat="44.6084783" lon="7.9508967"><ele>258.0</ele><time>2026-04-12T13:54:52.062Z</time></trkpt><trkpt lat="44.6085767" lon="7.9508917"><ele>257.8</ele><time>2026-04-12T13:54:53.062Z</time></trkpt><trkpt lat="44.6086767" lon="7.9508833"><ele>257.6</ele><time>2026-04-12T13:54:54.064Z</time></trkpt><trkpt lat="44.608775" lon="7.9508733"><ele>257.4</ele><time>2026-04-12T13:54:55.063Z</time></trkpt><trkpt lat="44.6088733" lon="7.9508683"><ele>257.2</ele><time>2026-04-12T13:54:56.062Z</time></trkpt><trkpt lat="44.6089717" lon="7.9508583"><ele>257.0</ele><time>2026-04-12T13:54:57.064Z</time></trkpt><trkpt lat="44.6090683" lon="7.95085"><ele>255.6</ele><time>2026-04-12T13:54:58.063Z</time></trkpt><trkpt lat="44.609165" lon="7.9508417"><ele>254.2</ele><time>2026-04-12T13:54:59.061Z</time></trkpt><trkpt lat="44.6092617" lon="7.9508317"><ele>252.8</ele><time>2026-04-12T13:55:00.064Z</time></trkpt><trkpt lat="44.6093583" lon="7.9508167"><ele>251.4</ele><time>2026-04-12T13:55:01.062Z</time></trkpt><trkpt lat="44.6094583" lon="7.9508"><ele>250.0</ele><time>2026-04-12T13:55:02.061Z</time></trkpt><trkpt lat="44.609555" lon="7.95078"><ele>249.4</ele><time>2026-04-12T13:55:03.063Z</time></trkpt><trkpt lat="44.6096517" lon="7.9507567"><ele>248.8</ele><time>2026-04-12T13:55:04.064Z</time></trkpt><trkpt lat="44.6097467" lon="7.950735"><ele>248.2</ele><time>2026-04-12T13:55:05.062Z</time></trkpt><trkpt lat="44.609845" lon="7.9507133"><ele>247.6</ele><time>2026-04-12T13:55:06.064Z</time></trkpt><trkpt lat="44.609945" lon="7.9506917"><ele>247.0</ele><time>2026-04-12T13:55:07.061Z</time></trkpt><trkpt lat="44.610045" lon="7.95067"><ele>247.0</ele><time>2026-04-12T13:55:08.061Z</time></trkpt><trkpt lat="44.610145" lon="7.950655"><ele>247.0</ele><time>2026-04-12T13:55:09.065Z</time></trkpt><trkpt lat="44.6102433" lon="7.9506417"><ele>247.0</ele><time>2026-04-12T13:55:10.066Z</time></trkpt><trkpt lat="44.6103383" lon="7.950625"><ele>247.0</ele><time>2026-04-12T13:55:11.063Z</time></trkpt><trkpt lat="44.61043" lon="7.9506"><ele>247.0</ele><time>2026-04-12T13:55:12.061Z</time></trkpt><trkpt lat="44.61052" lon="7.9505633"><ele>246.6</ele><time>2026-04-12T13:55:13.063Z</time></trkpt><trkpt lat="44.6106083" lon="7.9505267"><ele>246.2</ele><time>2026-04-12T13:55:14.063Z</time></trkpt><trkpt lat="44.6106967" lon="7.95049"><ele>245.8</ele><time>2026-04-12T13:55:15.064Z</time></trkpt><trkpt lat="44.6107867" lon="7.9504567"><ele>245.4</ele><time>2026-04-12T13:55:16.058Z</time></trkpt><trkpt lat="44.6108767" lon="7.95044"><ele>245.0</ele><time>2026-04-12T13:55:17.061Z</time></trkpt><trkpt lat="44.610965" lon="7.95043"><ele>245.00000000000003</ele><time>2026-04-12T13:55:18.062Z</time></trkpt><trkpt lat="44.611055" lon="7.9504233"><ele>245.0</ele><time>2026-04-12T13:55:19.062Z</time></trkpt><trkpt lat="44.6111433" lon="7.9504167"><ele>245.0</ele><time>2026-04-12T13:55:20.062Z</time></trkpt><trkpt lat="44.6112317" lon="7.9504017"><ele>245.0</ele><time>2026-04-12T13:55:21.062Z</time></trkpt><trkpt lat="44.611315" lon="7.9503767"><ele>245.00000000000003</ele><time>2026-04-12T13:55:22.063Z</time></trkpt><trkpt lat="44.6113967" lon="7.9503333"><ele>245.0</ele><time>2026-04-12T13:55:23.061Z</time></trkpt><trkpt lat="44.6114717" lon="7.95028"><ele>244.50000000000003</ele><time>2026-04-12T13:55:24.061Z</time></trkpt><trkpt lat="44.6115417" lon="7.9502217"><ele>244.0</ele><time>2026-04-12T13:55:25.064Z</time></trkpt><trkpt lat="44.6116133" lon="7.950165"><ele>243.5</ele><time>2026-04-12T13:55:26.062Z</time></trkpt><trkpt lat="44.6116867" lon="7.95012"><ele>243.0</ele><time>2026-04-12T13:55:27.063Z</time></trkpt><trkpt lat="44.6117633" lon="7.9500817"><ele>242.50000000000003</ele><time>2026-04-12T13:55:28.063Z</time></trkpt><trkpt lat="44.611845" lon="7.9500617"><ele>242.0</ele><time>2026-04-12T13:55:29.062Z</time></trkpt><trkpt lat="44.611925" lon="7.9500617"><ele>241.83333333333334</ele><time>2026-04-12T13:55:30.064Z</time></trkpt><trkpt lat="44.612005" lon="7.9500717"><ele>241.66666666666669</ele><time>2026-04-12T13:55:31.064Z</time></trkpt><trkpt lat="44.6120833" lon="7.9500867"><ele>241.5</ele><time>2026-04-12T13:55:32.063Z</time></trkpt><trkpt lat="44.6121633" lon="7.9501033"><ele>241.33333333333331</ele><time>2026-04-12T13:55:33.063Z</time></trkpt><trkpt lat="44.6122417" lon="7.9501217"><ele>241.16666666666666</ele><time>2026-04-12T13:55:34.065Z</time></trkpt><trkpt lat="44.61232" lon="7.9501367"><ele>241.0</ele><time>2026-04-12T13:55:35.063Z</time></trkpt><trkpt lat="44.6123933" lon="7.95015"><ele>241.0</ele><time>2026-04-12T13:55:36.061Z</time></trkpt><trkpt lat="44.6124633" lon="7.9501583"><ele>241.00000000000003</ele><time>2026-04-12T13:55:37.06Z</time></trkpt><trkpt lat="44.6125283" lon="7.950165"><ele>241.00000000000003</ele><time>2026-04-12T13:55:38.063Z</time></trkpt><trkpt lat="44.6126483" lon="7.9501783"><ele>241.0</ele><time>2026-04-12T13:55:40.062Z</time></trkpt><trkpt lat="44.6127567" lon="7.9501767"><ele>241.0</ele><time>2026-04-12T13:55:42.063Z</time></trkpt><trkpt lat="44.6128567" lon="7.95016"><ele>240.85714285714286</ele><time>2026-04-12T13:55:44.063Z</time></trkpt><trkpt lat="44.6129433" lon="7.9501567"><ele>240.71428571428572</ele><time>2026-04-12T13:55:46.063Z</time></trkpt><trkpt lat="44.61302" lon="7.9501567"><ele>240.57142857142858</ele><time>2026-04-12T13:55:48.062Z</time></trkpt><trkpt lat="44.6130883" lon="7.950155"><ele>240.42857142857144</ele><time>2026-04-12T13:55:50.061Z</time></trkpt><trkpt lat="44.6131567" lon="7.9501583"><ele>240.28571428571428</ele><time>2026-04-12T13:55:52.062Z</time></trkpt><trkpt lat="44.6132233" lon="7.95017"><ele>240.14285714285717</ele><time>2026-04-12T13:55:54.063Z</time></trkpt><trkpt lat="44.6132867" lon="7.9501783"><ele>240.0</ele><time>2026-04-12T13:55:56.064Z</time></trkpt><trkpt lat="44.61335" lon="7.950185"><ele>240.0</ele><time>2026-04-12T13:55:58.061Z</time></trkpt><trkpt lat="44.6134367" lon="7.9501867"><ele>240.0</ele><time>2026-04-12T13:56:01.062Z</time></trkpt><trkpt lat="44.613515" lon="7.9501833"><ele>240.0</ele><time>2026-04-12T13:56:04.062Z</time></trkpt><trkpt lat="44.613585" lon="7.95015"><ele>240.0</ele><time>2026-04-12T13:56:07.064Z</time></trkpt><trkpt lat="44.6136433" lon="7.9501033"><ele>240.0</ele><time>2026-04-12T13:56:10.064Z</time></trkpt><trkpt lat="44.613685" lon="7.9500267"><ele>240.0</ele><time>2026-04-12T13:56:13.062Z</time></trkpt><trkpt lat="44.6136917" lon="7.9499283"><ele>240.0</ele><time>2026-04-12T13:56:16.064Z</time></trkpt><trkpt lat="44.61369" lon="7.949835"><ele>243.0</ele><time>2026-04-12T13:56:19.063Z</time></trkpt><trkpt lat="44.6136583" lon="7.949725"><ele>246.0</ele><time>2026-04-12T13:56:22.058Z</time></trkpt><trkpt lat="44.61362" lon="7.9496067"><ele>249.0</ele><time>2026-04-12T13:56:25.063Z</time></trkpt><trkpt lat="44.613585" lon="7.949485"><ele>252.0</ele><time>2026-04-12T13:56:28.063Z</time></trkpt><trkpt lat="44.613575" lon="7.94938"><ele>255.0</ele><time>2026-04-12T13:56:30.061Z</time></trkpt><trkpt lat="44.6135633" lon="7.949235"><ele>256.3333333333333</ele><time>2026-04-12T13:56:32.063Z</time></trkpt><trkpt lat="44.6135533" lon="7.9491467"><ele>257.6666666666667</ele><time>2026-04-12T13:56:33.058Z</time></trkpt><trkpt lat="44.613545" lon="7.9490467"><ele>259.0</ele><time>2026-04-12T13:56:34.061Z</time></trkpt><trkpt lat="44.6135333" lon="7.94894"><ele>260.33333333333337</ele><time>2026-04-12T13:56:35.062Z</time></trkpt><trkpt lat="44.613515" lon="7.9488217"><ele>261.6666666666667</ele><time>2026-04-12T13:56:36.062Z</time></trkpt><trkpt lat="44.613495" lon="7.9486917"><ele>263.0</ele><time>2026-04-12T13:56:37.062Z</time></trkpt><trkpt lat="44.613475" lon="7.94855"><ele>263.0</ele><time>2026-04-12T13:56:38.061Z</time></trkpt><trkpt lat="44.6134433" lon="7.9484017"><ele>263.0</ele><time>2026-04-12T13:56:39.063Z</time></trkpt><trkpt lat="44.6133983" lon="7.9482517"><ele>263.0</ele><time>2026-04-12T13:56:40.062Z</time></trkpt><trkpt lat="44.6133433" lon="7.9480917"><ele>263.0</ele><time>2026-04-12T13:56:41.061Z</time></trkpt><trkpt lat="44.6133" lon="7.947925"><ele>261.0</ele><time>2026-04-12T13:56:42.063Z</time></trkpt><trkpt lat="44.613265" lon="7.947765"><ele>259.0</ele><time>2026-04-12T13:56:43.064Z</time></trkpt><trkpt lat="44.6132383" lon="7.9476083"><ele>257.0</ele><time>2026-04-12T13:56:44.064Z</time></trkpt><trkpt lat="44.6132233" lon="7.9474467"><ele>255.0</ele><time>2026-04-12T13:56:45.064Z</time></trkpt><trkpt lat="44.6132283" lon="7.9472833"><ele>253.6</ele><time>2026-04-12T13:56:46.062Z</time></trkpt><trkpt lat="44.6132517" lon="7.9471283"><ele>252.2</ele><time>2026-04-12T13:56:47.063Z</time></trkpt><trkpt lat="44.613275" lon="7.9469833"><ele>250.8</ele><time>2026-04-12T13:56:48.063Z</time></trkpt><trkpt lat="44.6132983" lon="7.9468517"><ele>249.4</ele><time>2026-04-12T13:56:49.062Z</time></trkpt><trkpt lat="44.613325" lon="7.946735"><ele>248.0</ele><time>2026-04-12T13:56:50.062Z</time></trkpt><trkpt lat="44.6133467" lon="7.9466317"><ele>247.83333333333334</ele><time>2026-04-12T13:56:51.062Z</time></trkpt><trkpt lat="44.6133583" lon="7.9465233"><ele>247.66666666666669</ele><time>2026-04-12T13:56:52.061Z</time></trkpt><trkpt lat="44.6133517" lon="7.9464217"><ele>247.5</ele><time>2026-04-12T13:56:53.063Z</time></trkpt><trkpt lat="44.6133383" lon="7.9463333"><ele>247.33333333333331</ele><time>2026-04-12T13:56:54.062Z</time></trkpt><trkpt lat="44.613285" lon="7.9462067"><ele>247.16666666666666</ele><time>2026-04-12T13:56:56.062Z</time></trkpt><trkpt lat="44.613225" lon="7.9461083"><ele>247.0</ele><time>2026-04-12T13:56:58.062Z</time></trkpt><trkpt lat="44.61316" lon="7.946025"><ele>246.99999999999997</ele><time>2026-04-12T13:57:00.06Z</time></trkpt><trkpt lat="44.6130933" lon="7.9459583"><ele>247.0</ele><time>2026-04-12T13:57:02.062Z</time></trkpt><trkpt lat="44.61303" lon="7.9458917"><ele>247.0</ele><time>2026-04-12T13:57:04.062Z</time></trkpt><trkpt lat="44.6129583" lon="7.945845"><ele>247.0</ele><time>2026-04-12T13:57:06.063Z</time></trkpt><trkpt lat="44.6128867" lon="7.94581"><ele>246.99999999999997</ele><time>2026-04-12T13:57:08.062Z</time></trkpt><trkpt lat="44.6128117" lon="7.9457767"><ele>247.0</ele><time>2026-04-12T13:57:10.066Z</time></trkpt><trkpt lat="44.612735" lon="7.9457517"><ele>247.83333333333331</ele><time>2026-04-12T13:57:12.066Z</time></trkpt><trkpt lat="44.61266" lon="7.9457267"><ele>248.66666666666666</ele><time>2026-04-12T13:57:14.065Z</time></trkpt><trkpt lat="44.6125833" lon="7.94567"><ele>249.5</ele><time>2026-04-12T13:57:16.064Z</time></trkpt><trkpt lat="44.6125083" lon="7.9456317"><ele>250.33333333333331</ele><time>2026-04-12T13:57:18.062Z</time></trkpt><trkpt lat="44.61244" lon="7.9455917"><ele>251.16666666666666</ele><time>2026-04-12T13:57:20.062Z</time></trkpt><trkpt lat="44.6123567" lon="7.9455667"><ele>252.0</ele><time>2026-04-12T13:57:22.062Z</time></trkpt><trkpt lat="44.6122883" lon="7.94553"><ele>252.0</ele><time>2026-04-12T13:57:24.066Z</time></trkpt><trkpt lat="44.6122133" lon="7.9454667"><ele>252.0</ele><time>2026-04-12T13:57:27.063Z</time></trkpt><trkpt lat="44.612135" lon="7.9453967"><ele>252.0</ele><time>2026-04-12T13:57:30.063Z</time></trkpt><trkpt lat="44.612055" lon="7.9453583"><ele>252.0</ele><time>2026-04-12T13:57:32.063Z</time></trkpt><trkpt lat="44.6119867" lon="7.945315"><ele>252.0</ele><time>2026-04-12T13:57:34.062Z</time></trkpt><trkpt lat="44.6119183" lon="7.9452733"><ele>252.0</ele><time>2026-04-12T13:57:36.063Z</time></trkpt><trkpt lat="44.6118567" lon="7.9452417"><ele>252.83333333333334</ele><time>2026-04-12T13:57:38.063Z</time></trkpt><trkpt lat="44.6117767" lon="7.945185"><ele>253.66666666666669</ele><time>2026-04-12T13:57:41.061Z</time></trkpt><trkpt lat="44.611715" lon="7.9451417"><ele>254.5</ele><time>2026-04-12T13:57:44.062Z</time></trkpt><trkpt lat="44.6116567" lon="7.9450917"><ele>255.33333333333334</ele><time>2026-04-12T13:57:47.063Z</time></trkpt><trkpt lat="44.611585" lon="7.9450483"><ele>256.1666666666667</ele><time>2026-04-12T13:57:50.062Z</time></trkpt><trkpt lat="44.6115117" lon="7.9450117"><ele>257.0</ele><time>2026-04-12T13:57:55.062Z</time></trkpt><trkpt lat="44.61143" lon="7.9449883"><ele>258.6666666666667</ele><time>2026-04-12T13:58:00.063Z</time></trkpt><trkpt lat="44.6113483" lon="7.944965"><ele>260.33333333333337</ele><time>2026-04-12T13:58:04.062Z</time></trkpt><trkpt lat="44.6112883" lon="7.944915"><ele>262.0</ele><time>2026-04-12T13:58:08.064Z</time></trkpt><trkpt lat="44.61122" lon="7.9448633"><ele>263.6666666666667</ele><time>2026-04-12T13:58:12.063Z</time></trkpt><trkpt lat="44.61116" lon="7.9448133"><ele>265.3333333333333</ele><time>2026-04-12T13:58:16.061Z</time></trkpt><trkpt lat="44.6110917" lon="7.944755"><ele>267.0</ele><time>2026-04-12T13:58:21.064Z</time></trkpt><trkpt lat="44.6110333" lon="7.9446833"><ele>267.7142857142857</ele><time>2026-04-12T13:58:26.062Z</time></trkpt><trkpt lat="44.610975" lon="7.9446367"><ele>268.42857142857144</ele><time>2026-04-12T13:58:30.062Z</time></trkpt><trkpt lat="44.61093" lon="7.94457"><ele>269.1428571428571</ele><time>2026-04-12T13:58:34.061Z</time></trkpt><trkpt lat="44.6108767" lon="7.9445117"><ele>269.8571428571429</ele><time>2026-04-12T13:58:38.062Z</time></trkpt><trkpt lat="44.610805" lon="7.944425"><ele>270.57142857142856</ele><time>2026-04-12T13:58:43.061Z</time></trkpt><trkpt lat="44.6107583" lon="7.944335"><ele>271.2857142857143</ele><time>2026-04-12T13:58:47.061Z</time></trkpt><trkpt lat="44.6107233" lon="7.9442533"><ele>272.0</ele><time>2026-04-12T13:58:50.061Z</time></trkpt><trkpt lat="44.61067" lon="7.94419"><ele>275.4285714285714</ele><time>2026-04-12T13:58:53.062Z</time></trkpt><trkpt lat="44.6106033" lon="7.9441183"><ele>278.85714285714283</ele><time>2026-04-12T13:58:57.065Z</time></trkpt><trkpt lat="44.6105683" lon="7.9440383"><ele>282.2857142857143</ele><time>2026-04-12T13:59:00.063Z</time></trkpt><trkpt lat="44.61064" lon="7.9439867"><ele>285.71428571428567</ele><time>2026-04-12T13:59:07.063Z</time></trkpt><trkpt lat="44.6107067" lon="7.9439433"><ele>289.1428571428571</ele><time>2026-04-12T13:59:11.06Z</time></trkpt><trkpt lat="44.61077" lon="7.9439233"><ele>292.57142857142856</ele><time>2026-04-12T13:59:16.063Z</time></trkpt><trkpt lat="44.6108217" lon="7.9440033"><ele>296.0</ele><time>2026-04-12T13:59:21.063Z</time></trkpt><trkpt lat="44.6108467" lon="7.9440917"><ele>296.0</ele><time>2026-04-12T13:59:25.061Z</time></trkpt><trkpt lat="44.6108967" lon="7.9441567"><ele>296.0</ele><time>2026-04-12T13:59:30.064Z</time></trkpt><trkpt lat="44.6109533" lon="7.9442233"><ele>296.0</ele><time>2026-04-12T13:59:35.063Z</time></trkpt><trkpt lat="44.6110183" lon="7.94423"><ele>296.0</ele><time>2026-04-12T13:59:38.064Z</time></trkpt><trkpt lat="44.61109" lon="7.9442617"><ele>296.0</ele><time>2026-04-12T13:59:43.06Z</time></trkpt><trkpt lat="44.6111667" lon="7.94423"><ele>296.0</ele><time>2026-04-12T13:59:48.065Z</time></trkpt><trkpt lat="44.61125" lon="7.9442767"><ele>290.2</ele><time>2026-04-12T13:59:53.061Z</time></trkpt><trkpt lat="44.61132" lon="7.9443283"><ele>284.40000000000003</ele><time>2026-04-12T13:59:58.063Z</time></trkpt><trkpt lat="44.6114567" lon="7.9442467"><ele>278.6</ele><time>2026-04-12T14:01:18.063Z</time></trkpt><trkpt lat="44.6113867" lon="7.94432"><ele>272.8</ele><time>2026-04-12T14:02:15.062Z</time></trkpt><trkpt lat="44.6113183" lon="7.9443367"><ele>267.0</ele><time>2026-04-12T14:02:18.064Z</time></trkpt><trkpt lat="44.6112333" lon="7.9443083"><ele>267.7142857142857</ele><time>2026-04-12T14:02:21.062Z</time></trkpt><trkpt lat="44.6111367" lon="7.9443267"><ele>268.42857142857144</ele><time>2026-04-12T14:02:24.066Z</time></trkpt><trkpt lat="44.6110617" lon="7.9443117"><ele>269.1428571428571</ele><time>2026-04-12T14:02:26.062Z</time></trkpt><trkpt lat="44.6109967" lon="7.944285"><ele>269.8571428571429</ele><time>2026-04-12T14:02:28.064Z</time></trkpt><trkpt lat="44.61093" lon="7.9442767"><ele>270.57142857142856</ele><time>2026-04-12T14:02:31.063Z</time></trkpt><trkpt lat="44.6108683" lon="7.94422"><ele>271.2857142857143</ele><time>2026-04-12T14:02:36.061Z</time></trkpt><trkpt lat="44.6108533" lon="7.94413"><ele>272.0</ele><time>2026-04-12T14:02:38.063Z</time></trkpt><trkpt lat="44.6108467" lon="7.9440333"><ele>275.4285714285714</ele><time>2026-04-12T14:02:41.063Z</time></trkpt><trkpt lat="44.6108483" lon="7.9439433"><ele>278.85714285714283</ele><time>2026-04-12T14:02:45.063Z</time></trkpt><trkpt lat="44.6108433" lon="7.943855"><ele>282.2857142857143</ele><time>2026-04-12T14:02:50.062Z</time></trkpt><trkpt lat="44.61086" lon="7.9437667"><ele>285.71428571428567</ele><time>2026-04-12T14:02:54.062Z</time></trkpt><trkpt lat="44.610885" lon="7.9436567"><ele>289.1428571428571</ele><time>2026-04-12T14:02:58.064Z</time></trkpt><trkpt lat="44.610865" lon="7.9435383"><ele>292.57142857142856</ele><time>2026-04-12T14:03:02.062Z</time></trkpt><trkpt lat="44.610835" lon="7.9434383"><ele>296.0</ele><time>2026-04-12T14:03:05.06Z</time></trkpt><trkpt lat="44.6108" lon="7.943315"><ele>296.83333333333337</ele><time>2026-04-12T14:03:08.062Z</time></trkpt><trkpt lat="44.6107667" lon="7.94321"><ele>297.6666666666667</ele><time>2026-04-12T14:03:11.063Z</time></trkpt><trkpt lat="44.610725" lon="7.9431367"><ele>298.5</ele><time>2026-04-12T14:03:13.064Z</time></trkpt><trkpt lat="44.6106783" lon="7.9430267"><ele>299.3333333333333</ele><time>2026-04-12T14:03:16.062Z</time></trkpt><trkpt lat="44.6106217" lon="7.9429217"><ele>300.16666666666663</ele><time>2026-04-12T14:03:19.063Z</time></trkpt><trkpt lat="44.6105833" lon="7.94284"><ele>301.0</ele><time>2026-04-12T14:03:22.062Z</time></trkpt><trkpt lat="44.61054" lon="7.94276"><ele>301.0</ele><time>2026-04-12T14:03:26.065Z</time></trkpt><trkpt lat="44.6105133" lon="7.9426533"><ele>301.0</ele><time>2026-04-12T14:03:29.063Z</time></trkpt><trkpt lat="44.6104833" lon="7.9425733"><ele>301.0</ele><time>2026-04-12T14:03:32.063Z</time></trkpt><trkpt lat="44.6104217" lon="7.9425267"><ele>301.0</ele><time>2026-04-12T14:03:36.062Z</time></trkpt><trkpt lat="44.6103633" lon="7.94249"><ele>301.0</ele><time>2026-04-12T14:03:39.061Z</time></trkpt><trkpt lat="44.6103133" lon="7.94239"><ele>301.0</ele><time>2026-04-12T14:03:42.063Z</time></trkpt><trkpt lat="44.6102883" lon="7.9423033"><ele>301.0</ele><time>2026-04-12T14:03:44.064Z</time></trkpt><trkpt lat="44.6102533" lon="7.942185"><ele>301.0</ele><time>2026-04-12T14:03:47.061Z</time></trkpt><trkpt lat="44.61023" lon="7.942065"><ele>301.0</ele><time>2026-04-12T14:03:50.061Z</time></trkpt><trkpt lat="44.61023" lon="7.941975"><ele>301.0</ele><time>2026-04-12T14:03:52.063Z</time></trkpt><trkpt lat="44.6102217" lon="7.94185"><ele>301.0</ele><time>2026-04-12T14:03:55.064Z</time></trkpt><trkpt lat="44.610215" lon="7.9417567"><ele>301.0</ele><time>2026-04-12T14:03:57.063Z</time></trkpt><trkpt lat="44.61021" lon="7.9416267"><ele>301.0</ele><time>2026-04-12T14:04:00.063Z</time></trkpt><trkpt lat="44.61021" lon="7.9415367"><ele>301.2857142857143</ele><time>2026-04-12T14:04:02.063Z</time></trkpt><trkpt lat="44.6102167" lon="7.9414417"><ele>301.57142857142856</ele><time>2026-04-12T14:04:04.062Z</time></trkpt><trkpt lat="44.6102333" lon="7.9413117"><ele>301.8571428571429</ele><time>2026-04-12T14:04:07.062Z</time></trkpt><trkpt lat="44.6102233" lon="7.9411983"><ele>302.1428571428571</ele><time>2026-04-12T14:04:10.062Z</time></trkpt><trkpt lat="44.61021" lon="7.94111"><ele>302.42857142857144</ele><time>2026-04-12T14:04:12.061Z</time></trkpt><trkpt lat="44.6101933" lon="7.94102"><ele>302.7142857142857</ele><time>2026-04-12T14:04:14.062Z</time></trkpt><trkpt lat="44.610185" lon="7.9409283"><ele>303.0</ele><time>2026-04-12T14:04:16.061Z</time></trkpt><trkpt lat="44.6101683" lon="7.94083"><ele>303.42857142857144</ele><time>2026-04-12T14:04:18.061Z</time></trkpt><trkpt lat="44.6101467" lon="7.9407367"><ele>303.85714285714283</ele><time>2026-04-12T14:04:20.061Z</time></trkpt><trkpt lat="44.6101333" lon="7.9406433"><ele>304.2857142857143</ele><time>2026-04-12T14:04:22.063Z</time></trkpt><trkpt lat="44.6101317" lon="7.94051"><ele>304.7142857142857</ele><time>2026-04-12T14:04:25.063Z</time></trkpt><trkpt lat="44.6101567" lon="7.9404167"><ele>305.14285714285717</ele><time>2026-04-12T14:04:28.061Z</time></trkpt><trkpt lat="44.61016" lon="7.9403267"><ele>305.57142857142856</ele><time>2026-04-12T14:04:34.063Z</time></trkpt><trkpt lat="44.6101033" lon="7.940265"><ele>306.0</ele><time>2026-04-12T14:04:37.061Z</time></trkpt><trkpt lat="44.610065" lon="7.940185"><ele>306.0</ele><time>2026-04-12T14:04:40.061Z</time></trkpt><trkpt lat="44.6100767" lon="7.9400817"><ele>306.0</ele><time>2026-04-12T14:04:44.063Z</time></trkpt><trkpt lat="44.61007" lon="7.9399817"><ele>306.0</ele><time>2026-04-12T14:04:47.061Z</time></trkpt><trkpt lat="44.6100567" lon="7.9398917"><ele>306.0</ele><time>2026-04-12T14:04:50.063Z</time></trkpt><trkpt lat="44.6100383" lon="7.9397867"><ele>306.0</ele><time>2026-04-12T14:04:54.063Z</time></trkpt><trkpt lat="44.6100217" lon="7.939675"><ele>306.0</ele><time>2026-04-12T14:04:58.063Z</time></trkpt><trkpt lat="44.6099967" lon="7.9395633"><ele>307.1428571428571</ele><time>2026-04-12T14:05:02.062Z</time></trkpt><trkpt lat="44.609945" lon="7.9394733"><ele>308.2857142857143</ele><time>2026-04-12T14:05:06.061Z</time></trkpt><trkpt lat="44.60988" lon="7.9393983"><ele>309.42857142857144</ele><time>2026-04-12T14:05:10.062Z</time></trkpt><trkpt lat="44.6098267" lon="7.9393383"><ele>310.57142857142856</ele><time>2026-04-12T14:05:13.063Z</time></trkpt><trkpt lat="44.609755" lon="7.9392967"><ele>311.7142857142857</ele><time>2026-04-12T14:05:17.063Z</time></trkpt><trkpt lat="44.6096883" lon="7.93928"><ele>312.85714285714283</ele><time>2026-04-12T14:05:20.063Z</time></trkpt><trkpt lat="44.6096233" lon="7.9392483"><ele>314.0</ele><time>2026-04-12T14:05:23.062Z</time></trkpt><trkpt lat="44.6095533" lon="7.9392217"><ele>315.57142857142856</ele><time>2026-04-12T14:05:26.061Z</time></trkpt><trkpt lat="44.60949" lon="7.9391783"><ele>317.1428571428571</ele><time>2026-04-12T14:05:30.063Z</time></trkpt><trkpt lat="44.6094233" lon="7.9391283"><ele>318.71428571428567</ele><time>2026-04-12T14:05:34.062Z</time></trkpt><trkpt lat="44.6093583" lon="7.9390817"><ele>320.2857142857143</ele><time>2026-04-12T14:05:38.064Z</time></trkpt><trkpt lat="44.6092933" lon="7.9390333"><ele>321.8571428571429</ele><time>2026-04-12T14:05:42.06Z</time></trkpt><trkpt lat="44.6092267" lon="7.9390033"><ele>323.4285714285714</ele><time>2026-04-12T14:05:45.063Z</time></trkpt><trkpt lat="44.609165" lon="7.93897"><ele>325.0</ele><time>2026-04-12T14:05:48.062Z</time></trkpt><trkpt lat="44.60911" lon="7.9389017"><ele>325.0</ele><time>2026-04-12T14:05:52.062Z</time></trkpt><trkpt lat="44.6090717" lon="7.938805"><ele>325.0</ele><time>2026-04-12T14:05:56.065Z</time></trkpt><trkpt lat="44.6090183" lon="7.93874"><ele>325.0</ele><time>2026-04-12T14:06:00.06Z</time></trkpt><trkpt lat="44.608945" lon="7.938705"><ele>325.0</ele><time>2026-04-12T14:06:04.063Z</time></trkpt><trkpt lat="44.6088633" lon="7.938685"><ele>325.0</ele><time>2026-04-12T14:06:08.062Z</time></trkpt><trkpt lat="44.6087883" lon="7.9386567"><ele>325.0</ele><time>2026-04-12T14:06:12.062Z</time></trkpt><trkpt lat="44.60872" lon="7.9386217"><ele>326.1428571428571</ele><time>2026-04-12T14:06:16.061Z</time></trkpt><trkpt lat="44.6086583" lon="7.9385883"><ele>327.28571428571433</ele><time>2026-04-12T14:06:20.062Z</time></trkpt><trkpt lat="44.6085883" lon="7.9385533"><ele>328.42857142857144</ele><time>2026-04-12T14:06:24.062Z</time></trkpt><trkpt lat="44.6085183" lon="7.93852"><ele>329.57142857142856</ele><time>2026-04-12T14:06:28.062Z</time></trkpt><trkpt lat="44.608455" lon="7.9385033"><ele>330.71428571428567</ele><time>2026-04-12T14:06:31.062Z</time></trkpt><trkpt lat="44.6083733" lon="7.9385"><ele>331.8571428571429</ele><time>2026-04-12T14:06:34.062Z</time></trkpt><trkpt lat="44.6082983" lon="7.9385"><ele>333.0</ele><time>2026-04-12T14:06:37.059Z</time></trkpt><trkpt lat="44.608225" lon="7.9384817"><ele>333.0</ele><time>2026-04-12T14:06:40.063Z</time></trkpt><trkpt lat="44.6081483" lon="7.9384567"><ele>333.0</ele><time>2026-04-12T14:06:43.061Z</time></trkpt><trkpt lat="44.6080767" lon="7.93842"><ele>333.0</ele><time>2026-04-12T14:06:46.062Z</time></trkpt><trkpt lat="44.6079967" lon="7.93838"><ele>333.0</ele><time>2026-04-12T14:06:49.063Z</time></trkpt><trkpt lat="44.6079333" lon="7.9383383"><ele>333.0</ele><time>2026-04-12T14:06:52.061Z</time></trkpt><trkpt lat="44.6078717" lon="7.9383017"><ele>333.0</ele><time>2026-04-12T14:06:55.06Z</time></trkpt><trkpt lat="44.6078033" lon="7.9382667"><ele>334.8333333333333</ele><time>2026-04-12T14:06:58.056Z</time></trkpt><trkpt lat="44.6077017" lon="7.9382283"><ele>336.6666666666667</ele><time>2026-04-12T14:07:01.057Z</time></trkpt><trkpt lat="44.60762" lon="7.9382167"><ele>338.5</ele><time>2026-04-12T14:07:03.057Z</time></trkpt><trkpt lat="44.607545" lon="7.938195"><ele>340.33333333333337</ele><time>2026-04-12T14:07:05.056Z</time></trkpt><trkpt lat="44.607475" lon="7.938145"><ele>342.1666666666667</ele><time>2026-04-12T14:07:08.063Z</time></trkpt><trkpt lat="44.6074033" lon="7.938085"><ele>344.0</ele><time>2026-04-12T14:07:11.061Z</time></trkpt><trkpt lat="44.6073417" lon="7.93803"><ele>344.0</ele><time>2026-04-12T14:07:14.063Z</time></trkpt><trkpt lat="44.60728" lon="7.9379767"><ele>344.0</ele><time>2026-04-12T14:07:17.061Z</time></trkpt><trkpt lat="44.60722" lon="7.9379333"><ele>344.0</ele><time>2026-04-12T14:07:20.062Z</time></trkpt><trkpt lat="44.6071617" lon="7.9378867"><ele>344.0</ele><time>2026-04-12T14:07:23.061Z</time></trkpt><trkpt lat="44.6071033" lon="7.9378383"><ele>344.0</ele><time>2026-04-12T14:07:26.06Z</time></trkpt><trkpt lat="44.6070167" lon="7.9378083"><ele>344.0</ele><time>2026-04-12T14:07:30.063Z</time></trkpt><trkpt lat="44.6069333" lon="7.9378633"><ele>343.83333333333337</ele><time>2026-04-12T14:07:32.061Z</time></trkpt><trkpt lat="44.60682" lon="7.937955"><ele>343.6666666666667</ele><time>2026-04-12T14:07:34.062Z</time></trkpt><trkpt lat="44.606755" lon="7.93799"><ele>343.5</ele><time>2026-04-12T14:07:35.061Z</time></trkpt><trkpt lat="44.6066867" lon="7.9380083"><ele>343.3333333333333</ele><time>2026-04-12T14:07:36.061Z</time></trkpt><trkpt lat="44.6066167" lon="7.9380133"><ele>343.16666666666663</ele><time>2026-04-12T14:07:37.062Z</time></trkpt><trkpt lat="44.6065483" lon="7.938005"><ele>343.0</ele><time>2026-04-12T14:07:38.064Z</time></trkpt><trkpt lat="44.6064817" lon="7.9379917"><ele>343.0</ele><time>2026-04-12T14:07:39.063Z</time></trkpt><trkpt lat="44.6064133" lon="7.9379833"><ele>343.0</ele><time>2026-04-12T14:07:40.063Z</time></trkpt><trkpt lat="44.6062983" lon="7.937965"><ele>343.0</ele><time>2026-04-12T14:07:42.061Z</time></trkpt><trkpt lat="44.6061967" lon="7.9379583"><ele>343.0</ele><time>2026-04-12T14:07:44.06Z</time></trkpt><trkpt lat="44.6061" lon="7.937955"><ele>343.0</ele><time>2026-04-12T14:07:46.061Z</time></trkpt><trkpt lat="44.6060217" lon="7.9379467"><ele>343.16666666666663</ele><time>2026-04-12T14:07:48.062Z</time></trkpt><trkpt lat="44.6059317" lon="7.937935"><ele>343.3333333333333</ele><time>2026-04-12T14:07:51.061Z</time></trkpt><trkpt lat="44.60587" lon="7.937915"><ele>343.5</ele><time>2026-04-12T14:07:54.061Z</time></trkpt><trkpt lat="44.605795" lon="7.93789"><ele>343.6666666666667</ele><time>2026-04-12T14:07:58.063Z</time></trkpt><trkpt lat="44.6057117" lon="7.9378667"><ele>343.83333333333337</ele><time>2026-04-12T14:08:02.062Z</time></trkpt><trkpt lat="44.605635" lon="7.93786"><ele>344.0</ele><time>2026-04-12T14:08:05.062Z</time></trkpt><trkpt lat="44.60556" lon="7.9378533"><ele>344.0</ele><time>2026-04-12T14:08:08.063Z</time></trkpt><trkpt lat="44.6054783" lon="7.9378467"><ele>344.0</ele><time>2026-04-12T14:08:11.06Z</time></trkpt><trkpt lat="44.6054133" lon="7.937845"><ele>344.0</ele><time>2026-04-12T14:08:13.064Z</time></trkpt><trkpt lat="44.6053367" lon="7.9378483"><ele>344.0</ele><time>2026-04-12T14:08:15.063Z</time></trkpt><trkpt lat="44.60525" lon="7.9378533"><ele>344.0</ele><time>2026-04-12T14:08:17.065Z</time></trkpt><trkpt lat="44.605155" lon="7.93786"><ele>344.0</ele><time>2026-04-12T14:08:19.061Z</time></trkpt><trkpt lat="44.60506" lon="7.9378967"><ele>345.6666666666667</ele><time>2026-04-12T14:08:21.062Z</time></trkpt><trkpt lat="44.604975" lon="7.9379567"><ele>347.33333333333337</ele><time>2026-04-12T14:08:23.062Z</time></trkpt><trkpt lat="44.6049033" lon="7.9380167"><ele>349.0</ele><time>2026-04-12T14:08:25.062Z</time></trkpt><trkpt lat="44.60484" lon="7.93808"><ele>350.6666666666667</ele><time>2026-04-12T14:08:27.063Z</time></trkpt><trkpt lat="44.604775" lon="7.938135"><ele>352.3333333333333</ele><time>2026-04-12T14:08:29.062Z</time></trkpt><trkpt lat="44.6047133" lon="7.9381883"><ele>354.0</ele><time>2026-04-12T14:08:31.066Z</time></trkpt><trkpt lat="44.6046567" lon="7.9382283"><ele>354.0</ele><time>2026-04-12T14:08:33.064Z</time></trkpt><trkpt lat="44.6045967" lon="7.9382667"><ele>354.0</ele><time>2026-04-12T14:08:35.061Z</time></trkpt><trkpt lat="44.6045083" lon="7.9383"><ele>354.0</ele><time>2026-04-12T14:08:38.064Z</time></trkpt><trkpt lat="44.6044283" lon="7.93833"><ele>354.0</ele><time>2026-04-12T14:08:41.063Z</time></trkpt><trkpt lat="44.6043483" lon="7.9383383"><ele>354.0</ele><time>2026-04-12T14:08:44.063Z</time></trkpt><trkpt lat="44.60428" lon="7.93835"><ele>354.0</ele><time>2026-04-12T14:08:47.063Z</time></trkpt><trkpt lat="44.6042117" lon="7.938355"><ele>353.5714285714286</ele><time>2026-04-12T14:08:50.064Z</time></trkpt><trkpt lat="44.6041167" lon="7.9383533"><ele>353.1428571428571</ele><time>2026-04-12T14:08:53.061Z</time></trkpt><trkpt lat="44.6040533" lon="7.9383633"><ele>352.7142857142857</ele><time>2026-04-12T14:08:55.061Z</time></trkpt><trkpt lat="44.6039867" lon="7.938375"><ele>352.28571428571433</ele><time>2026-04-12T14:08:57.064Z</time></trkpt><trkpt lat="44.6039183" lon="7.938395"><ele>351.8571428571429</ele><time>2026-04-12T14:08:59.062Z</time></trkpt><trkpt lat="44.6038533" lon="7.93841"><ele>351.42857142857144</ele><time>2026-04-12T14:09:01.062Z</time></trkpt><trkpt lat="44.6037867" lon="7.938425"><ele>351.0</ele><time>2026-04-12T14:09:03.065Z</time></trkpt><trkpt lat="44.60372" lon="7.9384483"><ele>352.5714285714286</ele><time>2026-04-12T14:09:05.061Z</time></trkpt><trkpt lat="44.6036483" lon="7.93847"><ele>354.14285714285717</ele><time>2026-04-12T14:09:07.061Z</time></trkpt><trkpt lat="44.6035767" lon="7.9384817"><ele>355.7142857142857</ele><time>2026-04-12T14:09:09.062Z</time></trkpt><trkpt lat="44.6035033" lon="7.938495"><ele>357.28571428571433</ele><time>2026-04-12T14:09:11.063Z</time></trkpt><trkpt lat="44.603435" lon="7.938505"><ele>358.85714285714283</ele><time>2026-04-12T14:09:13.062Z</time></trkpt><trkpt lat="44.6033717" lon="7.9385167"><ele>360.42857142857144</ele><time>2026-04-12T14:09:15.064Z</time></trkpt><trkpt lat="44.603285" lon="7.9385333"><ele>362.0</ele><time>2026-04-12T14:09:18.062Z</time></trkpt><trkpt lat="44.6032167" lon="7.938545"><ele>362.0</ele><time>2026-04-12T14:09:21.063Z</time></trkpt><trkpt lat="44.603135" lon="7.9385683"><ele>362.0</ele><time>2026-04-12T14:09:25.063Z</time></trkpt><trkpt lat="44.60306" lon="7.9385833"><ele>362.0</ele><time>2026-04-12T14:09:29.062Z</time></trkpt><trkpt lat="44.6029867" lon="7.938595"><ele>362.0</ele><time>2026-04-12T14:09:33.064Z</time></trkpt><trkpt lat="44.602915" lon="7.9385817"><ele>362.0</ele><time>2026-04-12T14:09:37.064Z</time></trkpt><trkpt lat="44.60285" lon="7.9385783"><ele>362.0</ele><time>2026-04-12T14:09:40.063Z</time></trkpt><trkpt lat="44.6027817" lon="7.93858"><ele>362.0</ele><time>2026-04-12T14:09:43.063Z</time></trkpt><trkpt lat="44.602715" lon="7.938575"><ele>363.1666666666667</ele><time>2026-04-12T14:09:46.062Z</time></trkpt><trkpt lat="44.6026383" lon="7.93858"><ele>364.33333333333337</ele><time>2026-04-12T14:09:49.061Z</time></trkpt><trkpt lat="44.60256" lon="7.9385533"><ele>365.5</ele><time>2026-04-12T14:09:52.061Z</time></trkpt><trkpt lat="44.6024683" lon="7.938525"><ele>366.6666666666667</ele><time>2026-04-12T14:09:55.063Z</time></trkpt><trkpt lat="44.602375" lon="7.9384867"><ele>367.8333333333333</ele><time>2026-04-12T14:09:58.064Z</time></trkpt><trkpt lat="44.6023033" lon="7.93846"><ele>369.0</ele><time>2026-04-12T14:10:00.06Z</time></trkpt><trkpt lat="44.602215" lon="7.9384183"><ele>370.2</ele><time>2026-04-12T14:10:02.062Z</time></trkpt><trkpt lat="44.6021033" lon="7.938375"><ele>371.4</ele><time>2026-04-12T14:10:04.063Z</time></trkpt><trkpt lat="44.6020417" lon="7.93835"><ele>372.6</ele><time>2026-04-12T14:10:05.064Z</time></trkpt><trkpt lat="44.6019783" lon="7.938325"><ele>373.8</ele><time>2026-04-12T14:10:06.062Z</time></trkpt><trkpt lat="44.6018583" lon="7.9382683"><ele>375.0</ele><time>2026-04-12T14:10:08.064Z</time></trkpt><trkpt lat="44.601745" lon="7.9382133"><ele>375.0</ele><time>2026-04-12T14:10:10.064Z</time></trkpt><trkpt lat="44.6016417" lon="7.938165"><ele>375.0</ele><time>2026-04-12T14:10:12.062Z</time></trkpt><trkpt lat="44.6015467" lon="7.93812"><ele>375.0</ele><time>2026-04-12T14:10:14.063Z</time></trkpt><trkpt lat="44.601455" lon="7.93807"><ele>375.0</ele><time>2026-04-12T14:10:16.062Z</time></trkpt><trkpt lat="44.6013633" lon="7.9380183"><ele>375.0</ele><time>2026-04-12T14:10:18.062Z</time></trkpt><trkpt lat="44.6012683" lon="7.9379717"><ele>373.5</ele><time>2026-04-12T14:10:20.063Z</time></trkpt><trkpt lat="44.6011517" lon="7.9379167"><ele>372.0</ele><time>2026-04-12T14:10:22.065Z</time></trkpt><trkpt lat="44.6010883" lon="7.93789"><ele>370.5</ele><time>2026-04-12T14:10:23.062Z</time></trkpt><trkpt lat="44.60101" lon="7.93787"><ele>369.0</ele><time>2026-04-12T14:10:24.064Z</time></trkpt><trkpt lat="44.6009267" lon="7.937855"><ele>367.5</ele><time>2026-04-12T14:10:25.063Z</time></trkpt><trkpt lat="44.60084" lon="7.9378417"><ele>366.0</ele><time>2026-04-12T14:10:26.064Z</time></trkpt><trkpt lat="44.60075" lon="7.9378217"><ele>366.0</ele><time>2026-04-12T14:10:27.064Z</time></trkpt><trkpt lat="44.6006617" lon="7.937795"><ele>366.0</ele><time>2026-04-12T14:10:28.063Z</time></trkpt><trkpt lat="44.6005783" lon="7.93776"><ele>366.0</ele><time>2026-04-12T14:10:29.062Z</time></trkpt><trkpt lat="44.6005017" lon="7.9377233"><ele>366.0</ele><time>2026-04-12T14:10:30.062Z</time></trkpt><trkpt lat="44.6004317" lon="7.9376883"><ele>366.0</ele><time>2026-04-12T14:10:31.062Z</time></trkpt><trkpt lat="44.6003667" lon="7.9376567"><ele>366.0</ele><time>2026-04-12T14:10:32.062Z</time></trkpt><trkpt lat="44.6002517" lon="7.9376117"><ele>365.4</ele><time>2026-04-12T14:10:34.062Z</time></trkpt><trkpt lat="44.600155" lon="7.9375683"><ele>364.8</ele><time>2026-04-12T14:10:36.063Z</time></trkpt><trkpt lat="44.60006" lon="7.9375167"><ele>364.2</ele><time>2026-04-12T14:10:38.062Z</time></trkpt><trkpt lat="44.5999583" lon="7.9374683"><ele>363.59999999999997</ele><time>2026-04-12T14:10:40.063Z</time></trkpt><trkpt lat="44.5998483" lon="7.9374267"><ele>363.0</ele><time>2026-04-12T14:10:42.063Z</time></trkpt><trkpt lat="44.5997383" lon="7.937405"><ele>365.3333333333333</ele><time>2026-04-12T14:10:44.064Z</time></trkpt><trkpt lat="44.599635" lon="7.9373983"><ele>367.6666666666667</ele><time>2026-04-12T14:10:46.062Z</time></trkpt><trkpt lat="44.599545" lon="7.9373983"><ele>370.0</ele><time>2026-04-12T14:10:48.064Z</time></trkpt><trkpt lat="44.5994617" lon="7.9373917"><ele>372.33333333333337</ele><time>2026-04-12T14:10:50.063Z</time></trkpt><trkpt lat="44.5993867" lon="7.937365"><ele>374.6666666666667</ele><time>2026-04-12T14:10:52.061Z</time></trkpt><trkpt lat="44.599315" lon="7.9373583"><ele>377.0</ele><time>2026-04-12T14:10:54.062Z</time></trkpt><trkpt lat="44.5992483" lon="7.93735"><ele>377.6666666666667</ele><time>2026-04-12T14:10:56.063Z</time></trkpt><trkpt lat="44.599185" lon="7.93734"><ele>378.33333333333337</ele><time>2026-04-12T14:10:58.064Z</time></trkpt><trkpt lat="44.5990933" lon="7.9373267"><ele>379.0</ele><time>2026-04-12T14:11:01.063Z</time></trkpt><trkpt lat="44.599005" lon="7.9373167"><ele>379.6666666666667</ele><time>2026-04-12T14:11:04.06Z</time></trkpt><trkpt lat="44.5989183" lon="7.9373017"><ele>380.3333333333333</ele><time>2026-04-12T14:11:07.065Z</time></trkpt><trkpt lat="44.598855" lon="7.93729"><ele>381.0</ele><time>2026-04-12T14:11:09.064Z</time></trkpt><trkpt lat="44.59879" lon="7.9372833"><ele>381.0</ele><time>2026-04-12T14:11:11.062Z</time></trkpt><trkpt lat="44.5987217" lon="7.937285"><ele>381.0</ele><time>2026-04-12T14:11:13.064Z</time></trkpt><trkpt lat="44.5986533" lon="7.937295"><ele>381.0</ele><time>2026-04-12T14:11:15.062Z</time></trkpt><trkpt lat="44.598585" lon="7.9373067"><ele>381.0</ele><time>2026-04-12T14:11:17.061Z</time></trkpt><trkpt lat="44.5985217" lon="7.937325"><ele>381.0</ele><time>2026-04-12T14:11:19.062Z</time></trkpt><trkpt lat="44.5984583" lon="7.937335"><ele>381.0</ele><time>2026-04-12T14:11:21.064Z</time></trkpt><trkpt lat="44.5983717" lon="7.9373567"><ele>381.0</ele><time>2026-04-12T14:11:24.062Z</time></trkpt><trkpt lat="44.5982833" lon="7.937375"><ele>382.5</ele><time>2026-04-12T14:11:27.064Z</time></trkpt><trkpt lat="44.5982017" lon="7.9373917"><ele>384.0</ele><time>2026-04-12T14:11:30.063Z</time></trkpt><trkpt lat="44.5981167" lon="7.9374117"><ele>385.5</ele><time>2026-04-12T14:11:33.064Z</time></trkpt><trkpt lat="44.5980367" lon="7.9374033"><ele>387.0</ele><time>2026-04-12T14:11:37.064Z</time></trkpt><trkpt lat="44.5979717" lon="7.937365"><ele>388.5</ele><time>2026-04-12T14:11:40.063Z</time></trkpt><trkpt lat="44.5979133" lon="7.9372683"><ele>390.0</ele><time>2026-04-12T14:11:43.061Z</time></trkpt><trkpt lat="44.5978633" lon="7.9372017"><ele>389.1666666666667</ele><time>2026-04-12T14:11:45.062Z</time></trkpt><trkpt lat="44.597795" lon="7.937115"><ele>388.33333333333337</ele><time>2026-04-12T14:11:48.063Z</time></trkpt><trkpt lat="44.5977317" lon="7.9370233"><ele>387.5</ele><time>2026-04-12T14:11:51.064Z</time></trkpt><trkpt lat="44.597665" lon="7.936935"><ele>386.6666666666667</ele><time>2026-04-12T14:11:54.063Z</time></trkpt><trkpt lat="44.5976017" lon="7.9368517"><ele>385.83333333333337</ele><time>2026-04-12T14:11:57.063Z</time></trkpt><trkpt lat="44.5975417" lon="7.9367633"><ele>385.0</ele><time>2026-04-12T14:12:00.061Z</time></trkpt><trkpt lat="44.5974733" lon="7.93668"><ele>387.00000000000006</ele><time>2026-04-12T14:12:03.063Z</time></trkpt><trkpt lat="44.597425" lon="7.936575"><ele>389.0</ele><time>2026-04-12T14:12:06.063Z</time></trkpt><trkpt lat="44.5973683" lon="7.9364817"><ele>391.0</ele><time>2026-04-12T14:12:09.062Z</time></trkpt><trkpt lat="44.5973083" lon="7.9363967"><ele>393.0</ele><time>2026-04-12T14:12:12.062Z</time></trkpt><trkpt lat="44.5972333" lon="7.9363217"><ele>395.00000000000006</ele><time>2026-04-12T14:12:15.064Z</time></trkpt><trkpt lat="44.5971767" lon="7.93628"><ele>397.0</ele><time>2026-04-12T14:12:17.063Z</time></trkpt><trkpt lat="44.5971167" lon="7.9362233"><ele>397.0</ele><time>2026-04-12T14:12:19.063Z</time></trkpt><trkpt lat="44.5970583" lon="7.936155"><ele>397.0</ele><time>2026-04-12T14:12:21.065Z</time></trkpt><trkpt lat="44.596995" lon="7.9360817"><ele>397.0</ele><time>2026-04-12T14:12:23.062Z</time></trkpt><trkpt lat="44.5969183" lon="7.9360017"><ele>397.0</ele><time>2026-04-12T14:12:25.062Z</time></trkpt><trkpt lat="44.5968233" lon="7.9359433"><ele>397.0</ele><time>2026-04-12T14:12:27.064Z</time></trkpt><trkpt lat="44.5967183" lon="7.9359117"><ele>396.00000000000006</ele><time>2026-04-12T14:12:29.061Z</time></trkpt><trkpt lat="44.5966133" lon="7.9359117"><ele>395.0</ele><time>2026-04-12T14:12:31.063Z</time></trkpt><trkpt lat="44.596515" lon="7.93593"><ele>394.0</ele><time>2026-04-12T14:12:33.063Z</time></trkpt><trkpt lat="44.5964283" lon="7.9359483"><ele>393.0</ele><time>2026-04-12T14:12:35.062Z</time></trkpt><trkpt lat="44.5963533" lon="7.93596"><ele>392.00000000000006</ele><time>2026-04-12T14:12:37.059Z</time></trkpt><trkpt lat="44.59628" lon="7.935965"><ele>391.0</ele><time>2026-04-12T14:12:39.063Z</time></trkpt><trkpt lat="44.59619" lon="7.9359817"><ele>393.33333333333337</ele><time>2026-04-12T14:12:42.064Z</time></trkpt><trkpt lat="44.596095" lon="7.9360033"><ele>395.6666666666667</ele><time>2026-04-12T14:12:45.063Z</time></trkpt><trkpt lat="44.5960067" lon="7.9360133"><ele>398.0</ele><time>2026-04-12T14:12:48.062Z</time></trkpt><trkpt lat="44.59592" lon="7.9360333"><ele>400.33333333333337</ele><time>2026-04-12T14:12:51.063Z</time></trkpt><trkpt lat="44.5958383" lon="7.936045"><ele>402.6666666666667</ele><time>2026-04-12T14:12:54.064Z</time></trkpt><trkpt lat="44.59576" lon="7.93606"><ele>405.0</ele><time>2026-04-12T14:12:57.064Z</time></trkpt><trkpt lat="44.59569" lon="7.93608"><ele>404.99999999999994</ele><time>2026-04-12T14:13:00.062Z</time></trkpt><trkpt lat="44.5956183" lon="7.936095"><ele>405.0</ele><time>2026-04-12T14:13:03.063Z</time></trkpt><trkpt lat="44.595545" lon="7.93612"><ele>405.0</ele><time>2026-04-12T14:13:06.063Z</time></trkpt><trkpt lat="44.5954817" lon="7.9361367"><ele>405.0</ele><time>2026-04-12T14:13:09.064Z</time></trkpt><trkpt lat="44.5954117" lon="7.93615"><ele>405.0</ele><time>2026-04-12T14:13:12.062Z</time></trkpt><trkpt lat="44.5953483" lon="7.936165"><ele>404.99999999999994</ele><time>2026-04-12T14:13:15.063Z</time></trkpt><trkpt lat="44.5952817" lon="7.936175"><ele>405.0</ele><time>2026-04-12T14:13:18.062Z</time></trkpt><trkpt lat="44.5952083" lon="7.9361917"><ele>406.57142857142856</ele><time>2026-04-12T14:13:21.062Z</time></trkpt><trkpt lat="44.5951333" lon="7.93619"><ele>408.1428571428571</ele><time>2026-04-12T14:13:24.064Z</time></trkpt><trkpt lat="44.5950683" lon="7.9361617"><ele>409.71428571428567</ele><time>2026-04-12T14:13:27.064Z</time></trkpt><trkpt lat="44.595015" lon="7.9361083"><ele>411.2857142857143</ele><time>2026-04-12T14:13:31.061Z</time></trkpt><trkpt lat="44.59495" lon="7.936145"><ele>412.8571428571429</ele><time>2026-04-12T14:13:39.063Z</time></trkpt><trkpt lat="44.5949167" lon="7.9362317"><ele>414.4285714285714</ele><time>2026-04-12T14:13:42.066Z</time></trkpt><trkpt lat="44.5948233" lon="7.9362483"><ele>416.0</ele><time>2026-04-12T14:13:45.064Z</time></trkpt><trkpt lat="44.5947383" lon="7.9361967"><ele>415.99999999999994</ele><time>2026-04-12T14:13:47.063Z</time></trkpt><trkpt lat="44.5946417" lon="7.9361017"><ele>416.0</ele><time>2026-04-12T14:13:49.061Z</time></trkpt><trkpt lat="44.594555" lon="7.935985"><ele>416.0</ele><time>2026-04-12T14:13:51.063Z</time></trkpt><trkpt lat="44.5945017" lon="7.935935"><ele>416.0</ele><time>2026-04-12T14:13:52.062Z</time></trkpt><trkpt lat="44.5944433" lon="7.9358967"><ele>415.99999999999994</ele><time>2026-04-12T14:13:53.061Z</time></trkpt><trkpt lat="44.59438" lon="7.935865"><ele>416.0</ele><time>2026-04-12T14:13:54.063Z</time></trkpt><trkpt lat="44.5943117" lon="7.93585"><ele>413.99999999999994</ele><time>2026-04-12T14:13:55.064Z</time></trkpt><trkpt lat="44.5942383" lon="7.9358417"><ele>412.0</ele><time>2026-04-12T14:13:56.065Z</time></trkpt><trkpt lat="44.59416" lon="7.9358283"><ele>410.0</ele><time>2026-04-12T14:13:57.062Z</time></trkpt><trkpt lat="44.5940817" lon="7.9358"><ele>408.0</ele><time>2026-04-12T14:13:58.062Z</time></trkpt><trkpt lat="44.594005" lon="7.9357517"><ele>405.99999999999994</ele><time>2026-04-12T14:13:59.062Z</time></trkpt><trkpt lat="44.5939267" lon="7.9356883"><ele>404.0</ele><time>2026-04-12T14:14:00.065Z</time></trkpt><trkpt lat="44.59385" lon="7.9356167"><ele>403.99999999999994</ele><time>2026-04-12T14:14:01.061Z</time></trkpt><trkpt lat="44.59377" lon="7.935545"><ele>404.0</ele><time>2026-04-12T14:14:02.063Z</time></trkpt><trkpt lat="44.5936867" lon="7.93548"><ele>404.0</ele><time>2026-04-12T14:14:03.061Z</time></trkpt><trkpt lat="44.5936067" lon="7.9354167"><ele>404.0</ele><time>2026-04-12T14:14:04.062Z</time></trkpt><trkpt lat="44.59353" lon="7.935365"><ele>403.99999999999994</ele><time>2026-04-12T14:14:05.061Z</time></trkpt><trkpt lat="44.5934617" lon="7.9353233"><ele>404.0</ele><time>2026-04-12T14:14:06.064Z</time></trkpt><trkpt lat="44.59339" lon="7.9352967"><ele>401.3333333333333</ele><time>2026-04-12T14:14:07.064Z</time></trkpt><trkpt lat="44.5933167" lon="7.9352817"><ele>398.66666666666663</ele><time>2026-04-12T14:14:08.065Z</time></trkpt><trkpt lat="44.5932367" lon="7.9352733"><ele>396.0</ele><time>2026-04-12T14:14:09.058Z</time></trkpt><trkpt lat="44.593155" lon="7.9352683"><ele>393.33333333333337</ele><time>2026-04-12T14:14:10.057Z</time></trkpt><trkpt lat="44.593075" lon="7.9352617"><ele>390.6666666666667</ele><time>2026-04-12T14:14:11.06Z</time></trkpt><trkpt lat="44.5929983" lon="7.935265"><ele>388.0</ele><time>2026-04-12T14:14:12.058Z</time></trkpt><trkpt lat="44.5929233" lon="7.9352867"><ele>388.00000000000006</ele><time>2026-04-12T14:14:13.058Z</time></trkpt><trkpt lat="44.59285" lon="7.9353317"><ele>388.0</ele><time>2026-04-12T14:14:14.062Z</time></trkpt><trkpt lat="44.592775" lon="7.9353933"><ele>388.0</ele><time>2026-04-12T14:14:15.061Z</time></trkpt><trkpt lat="44.5927083" lon="7.93547"><ele>388.0</ele><time>2026-04-12T14:14:16.063Z</time></trkpt><trkpt lat="44.59265" lon="7.93555"><ele>388.00000000000006</ele><time>2026-04-12T14:14:17.061Z</time></trkpt><trkpt lat="44.59258" lon="7.9356533"><ele>388.0</ele><time>2026-04-12T14:14:19.062Z</time></trkpt><trkpt lat="44.592535" lon="7.9357217"><ele>386.4285714285714</ele><time>2026-04-12T14:14:21.066Z</time></trkpt><trkpt lat="44.5924967" lon="7.9358033"><ele>384.8571428571429</ele><time>2026-04-12T14:14:38.065Z</time></trkpt><trkpt lat="44.5924333" lon="7.9358"><ele>383.2857142857143</ele><time>2026-04-12T14:14:41.061Z</time></trkpt><trkpt lat="44.592505" lon="7.93581"><ele>381.71428571428567</ele><time>2026-04-12T14:14:52.062Z</time></trkpt><trkpt lat="44.5925567" lon="7.9357467"><ele>380.1428571428571</ele><time>2026-04-12T14:14:55.062Z</time></trkpt><trkpt lat="44.5926083" lon="7.935685"><ele>378.57142857142856</ele><time>2026-04-12T14:14:58.06Z</time></trkpt><trkpt lat="44.59265" lon="7.935615"><ele>377.0</ele><time>2026-04-12T14:15:01.062Z</time></trkpt><trkpt lat="44.59269" lon="7.9355433"><ele>376.99999999999994</ele><time>2026-04-12T14:15:04.06Z</time></trkpt><trkpt lat="44.5927433" lon="7.9354567"><ele>377.0</ele><time>2026-04-12T14:15:08.062Z</time></trkpt><trkpt lat="44.592805" lon="7.9353967"><ele>377.0</ele><time>2026-04-12T14:15:12.062Z</time></trkpt><trkpt lat="44.592855" lon="7.9353417"><ele>377.0</ele><time>2026-04-12T14:15:16.061Z</time></trkpt><trkpt lat="44.5929183" lon="7.9353033"><ele>377.0</ele><time>2026-04-12T14:15:22.065Z</time></trkpt><trkpt lat="44.5928983" lon="7.9352083"><ele>376.99999999999994</ele><time>2026-04-12T14:15:29.062Z</time></trkpt><trkpt lat="44.5928958" lon="7.9351171"><ele>377.0</ele><time>2026-04-12T14:15:36.062Z</time></trkpt><trkpt lat="44.5928837" lon="7.9350169"><ele>380.5</ele><time>2026-04-12T14:15:44.063Z</time></trkpt><trkpt lat="44.5928785" lon="7.9349071"><ele>384.0</ele><time>2026-04-12T14:15:49.063Z</time></trkpt><trkpt lat="44.5928616" lon="7.9348098"><ele>387.5</ele><time>2026-04-12T14:15:53.077Z</time></trkpt><trkpt lat="44.5928554" lon="7.9347145"><ele>391.0</ele><time>2026-04-12T14:16:00.119Z</time></trkpt><trkpt lat="44.5928583" lon="7.9345902"><ele>394.49999999999994</ele><time>2026-04-12T14:16:04.095Z</time></trkpt><trkpt lat="44.5928717" lon="7.9344833"><ele>398.0</ele><time>2026-04-12T14:16:06.063Z</time></trkpt><trkpt lat="44.5928967" lon="7.9343683"><ele>397.99999999999994</ele><time>2026-04-12T14:16:09.063Z</time></trkpt><trkpt lat="44.5929133" lon="7.9342667"><ele>398.0</ele><time>2026-04-12T14:16:12.065Z</time></trkpt><trkpt lat="44.59291" lon="7.9341517"><ele>398.0</ele><time>2026-04-12T14:16:15.063Z</time></trkpt><trkpt lat="44.5928883" lon="7.9340233"><ele>398.0</ele><time>2026-04-12T14:16:18.061Z</time></trkpt><trkpt lat="44.5928617" lon="7.933925"><ele>397.99999999999994</ele><time>2026-04-12T14:16:20.063Z</time></trkpt><trkpt lat="44.5928383" lon="7.9338067"><ele>398.0</ele><time>2026-04-12T14:16:22.062Z</time></trkpt><trkpt lat="44.5928067" lon="7.9336567"><ele>396.4</ele><time>2026-04-12T14:16:24.064Z</time></trkpt><trkpt lat="44.5927733" lon="7.9334983"><ele>394.79999999999995</ele><time>2026-04-12T14:16:26.066Z</time></trkpt><trkpt lat="44.592735" lon="7.9333517"><ele>393.2</ele><time>2026-04-12T14:16:28.063Z</time></trkpt><trkpt lat="44.5926933" lon="7.93322"><ele>391.6</ele><time>2026-04-12T14:16:30.063Z</time></trkpt><trkpt lat="44.5926633" lon="7.9330967"><ele>390.0</ele><time>2026-04-12T14:16:32.078Z</time></trkpt><trkpt lat="44.59264" lon="7.9329883"><ele>390.0</ele><time>2026-04-12T14:16:34.063Z</time></trkpt><trkpt lat="44.5926317" lon="7.9328833"><ele>390.0</ele><time>2026-04-12T14:16:36.062Z</time></trkpt><trkpt lat="44.5926467" lon="7.932795"><ele>390.0</ele><time>2026-04-12T14:16:38.064Z</time></trkpt><trkpt lat="44.5926683" lon="7.9326933"><ele>390.0</ele><time>2026-04-12T14:16:41.062Z</time></trkpt><trkpt lat="44.5926567" lon="7.9325967"><ele>390.0</ele><time>2026-04-12T14:16:44.062Z</time></trkpt><trkpt lat="44.5926233" lon="7.932495"><ele>390.0</ele><time>2026-04-12T14:16:47.061Z</time></trkpt><trkpt lat="44.5925783" lon="7.932385"><ele>391.5</ele><time>2026-04-12T14:16:50.061Z</time></trkpt><trkpt lat="44.5925383" lon="7.932265"><ele>393.0</ele><time>2026-04-12T14:16:53.063Z</time></trkpt><trkpt lat="44.5925117" lon="7.9321833"><ele>394.5</ele><time>2026-04-12T14:16:55.066Z</time></trkpt><trkpt lat="44.59249" lon="7.9321"><ele>396.0</ele><time>2026-04-12T14:16:57.065Z</time></trkpt><trkpt lat="44.59247" lon="7.9320117"><ele>397.5</ele><time>2026-04-12T14:16:59.062Z</time></trkpt><trkpt lat="44.59244" lon="7.9318833"><ele>399.0</ele><time>2026-04-12T14:17:02.062Z</time></trkpt><trkpt lat="44.5924167" lon="7.9317933"><ele>400.57142857142856</ele><time>2026-04-12T14:17:04.062Z</time></trkpt><trkpt lat="44.5923817" lon="7.9317167"><ele>402.1428571428571</ele><time>2026-04-12T14:17:06.061Z</time></trkpt><trkpt lat="44.59234" lon="7.9316433"><ele>403.7142857142857</ele><time>2026-04-12T14:17:08.063Z</time></trkpt><trkpt lat="44.5922883" lon="7.9315767"><ele>405.2857142857143</ele><time>2026-04-12T14:17:10.062Z</time></trkpt><trkpt lat="44.5922333" lon="7.931515"><ele>406.85714285714283</ele><time>2026-04-12T14:17:12.063Z</time></trkpt><trkpt lat="44.592165" lon="7.931455"><ele>408.42857142857144</ele><time>2026-04-12T14:17:14.06Z</time></trkpt><trkpt lat="44.5920933" lon="7.9313933"><ele>410.0</ele><time>2026-04-12T14:17:16.062Z</time></trkpt><trkpt lat="44.59202" lon="7.9313283"><ele>406.4</ele><time>2026-04-12T14:17:18.062Z</time></trkpt><trkpt lat="44.59194" lon="7.93127"><ele>402.8</ele><time>2026-04-12T14:17:20.063Z</time></trkpt><trkpt lat="44.5918483" lon="7.9312183"><ele>399.20000000000005</ele><time>2026-04-12T14:17:22.062Z</time></trkpt><trkpt lat="44.5917533" lon="7.931155"><ele>395.6</ele><time>2026-04-12T14:17:24.063Z</time></trkpt><trkpt lat="44.5916567" lon="7.93108"><ele>392.0</ele><time>2026-04-12T14:17:26.062Z</time></trkpt><trkpt lat="44.5915667" lon="7.9310017"><ele>392.0</ele><time>2026-04-12T14:17:28.062Z</time></trkpt><trkpt lat="44.5914717" lon="7.9309317"><ele>392.0</ele><time>2026-04-12T14:17:30.063Z</time></trkpt><trkpt lat="44.5913817" lon="7.9308733"><ele>392.0</ele><time>2026-04-12T14:17:32.064Z</time></trkpt><trkpt lat="44.591295" lon="7.9308167"><ele>392.0</ele><time>2026-04-12T14:17:34.064Z</time></trkpt><trkpt lat="44.5912167" lon="7.93076"><ele>392.0</ele><time>2026-04-12T14:17:36.062Z</time></trkpt><trkpt lat="44.5911483" lon="7.9307167"><ele>393.7142857142857</ele><time>2026-04-12T14:17:38.063Z</time></trkpt><trkpt lat="44.5910783" lon="7.9306783"><ele>395.42857142857144</ele><time>2026-04-12T14:17:40.063Z</time></trkpt><trkpt lat="44.591005" lon="7.930645"><ele>397.1428571428571</ele><time>2026-04-12T14:17:42.063Z</time></trkpt><trkpt lat="44.5909283" lon="7.9306267"><ele>398.8571428571429</ele><time>2026-04-12T14:17:44.064Z</time></trkpt><trkpt lat="44.590855" lon="7.930605"><ele>400.57142857142856</ele><time>2026-04-12T14:17:46.067Z</time></trkpt><trkpt lat="44.5907867" lon="7.9305833"><ele>402.2857142857143</ele><time>2026-04-12T14:17:48.063Z</time></trkpt><trkpt lat="44.5907167" lon="7.9305633"><ele>404.0</ele><time>2026-04-12T14:17:50.063Z</time></trkpt><trkpt lat="44.59063" lon="7.9305317"><ele>404.0</ele><time>2026-04-12T14:17:53.062Z</time></trkpt><trkpt lat="44.59055" lon="7.9305"><ele>404.0</ele><time>2026-04-12T14:17:56.064Z</time></trkpt><trkpt lat="44.5904833" lon="7.9304817"><ele>404.0</ele><time>2026-04-12T14:17:59.06Z</time></trkpt><trkpt lat="44.5904133" lon="7.93046"><ele>404.0</ele><time>2026-04-12T14:18:02.063Z</time></trkpt><trkpt lat="44.5903517" lon="7.9304417"><ele>404.0</ele><time>2026-04-12T14:18:05.061Z</time></trkpt><trkpt lat="44.5902817" lon="7.9304183"><ele>404.0</ele><time>2026-04-12T14:18:08.062Z</time></trkpt><trkpt lat="44.59021" lon="7.9304067"><ele>404.0</ele><time>2026-04-12T14:18:11.061Z</time></trkpt><trkpt lat="44.5901417" lon="7.930385"><ele>404.66666666666663</ele><time>2026-04-12T14:18:14.065Z</time></trkpt><trkpt lat="44.5900683" lon="7.930365"><ele>405.3333333333333</ele><time>2026-04-12T14:18:17.064Z</time></trkpt><trkpt lat="44.5899917" lon="7.9303383"><ele>406.0</ele><time>2026-04-12T14:18:20.068Z</time></trkpt><trkpt lat="44.5899067" lon="7.9303017"><ele>406.66666666666663</ele><time>2026-04-12T14:18:23.06Z</time></trkpt><trkpt lat="44.589845" lon="7.9302683"><ele>407.3333333333333</ele><time>2026-04-12T14:18:25.061Z</time></trkpt><trkpt lat="44.5897617" lon="7.9302233"><ele>408.0</ele><time>2026-04-12T14:18:28.062Z</time></trkpt><trkpt lat="44.5897033" lon="7.93019"><ele>408.0</ele><time>2026-04-12T14:18:30.061Z</time></trkpt><trkpt lat="44.5896217" lon="7.930135"><ele>408.0</ele><time>2026-04-12T14:18:33.065Z</time></trkpt><trkpt lat="44.589555" lon="7.93006"><ele>408.0</ele><time>2026-04-12T14:18:36.063Z</time></trkpt><trkpt lat="44.5894883" lon="7.9299717"><ele>408.0</ele><time>2026-04-12T14:18:39.065Z</time></trkpt><trkpt lat="44.589425" lon="7.9298833"><ele>408.0</ele><time>2026-04-12T14:18:42.061Z</time></trkpt><trkpt lat="44.5893667" lon="7.929795"><ele>408.0</ele><time>2026-04-12T14:18:45.066Z</time></trkpt><trkpt lat="44.5893083" lon="7.929705"><ele>409.6666666666667</ele><time>2026-04-12T14:18:48.063Z</time></trkpt><trkpt lat="44.5892583" lon="7.929605"><ele>411.33333333333337</ele><time>2026-04-12T14:18:51.062Z</time></trkpt><trkpt lat="44.5892183" lon="7.9295"><ele>413.0</ele><time>2026-04-12T14:18:54.063Z</time></trkpt><trkpt lat="44.589195" lon="7.929385"><ele>414.6666666666667</ele><time>2026-04-12T14:18:57.062Z</time></trkpt><trkpt lat="44.5891533" lon="7.9292667"><ele>416.33333333333337</ele><time>2026-04-12T14:19:00.062Z</time></trkpt><trkpt lat="44.5890967" lon="7.9291817"><ele>418.0</ele><time>2026-04-12T14:19:03.061Z</time></trkpt><trkpt lat="44.58903" lon="7.92914"><ele>420.42857142857144</ele><time>2026-04-12T14:19:06.062Z</time></trkpt><trkpt lat="44.5889583" lon="7.92908"><ele>422.85714285714283</ele><time>2026-04-12T14:19:10.061Z</time></trkpt><trkpt lat="44.5888967" lon="7.929035"><ele>425.28571428571433</ele><time>2026-04-12T14:19:13.063Z</time></trkpt><trkpt lat="44.5888217" lon="7.928995"><ele>427.7142857142857</ele><time>2026-04-12T14:19:17.063Z</time></trkpt><trkpt lat="44.588755" lon="7.9289933"><ele>430.14285714285717</ele><time>2026-04-12T14:19:20.062Z</time></trkpt><trkpt lat="44.5886883" lon="7.928995"><ele>432.5714285714286</ele><time>2026-04-12T14:19:23.063Z</time></trkpt><trkpt lat="44.58862" lon="7.9290083"><ele>435.0</ele><time>2026-04-12T14:19:26.061Z</time></trkpt><trkpt lat="44.5885483" lon="7.9290333"><ele>436.00000000000006</ele><time>2026-04-12T14:19:29.062Z</time></trkpt><trkpt lat="44.5884767" lon="7.929055"><ele>437.0</ele><time>2026-04-12T14:19:32.061Z</time></trkpt><trkpt lat="44.588415" lon="7.9290867"><ele>438.0</ele><time>2026-04-12T14:19:35.059Z</time></trkpt><trkpt lat="44.5883517" lon="7.9291167"><ele>439.0</ele><time>2026-04-12T14:19:38.064Z</time></trkpt><trkpt lat="44.5882883" lon="7.9291467"><ele>440.0</ele><time>2026-04-12T14:19:41.063Z</time></trkpt><trkpt lat="44.58822" lon="7.929175"><ele>441.00000000000006</ele><time>2026-04-12T14:19:44.061Z</time></trkpt><trkpt lat="44.5881583" lon="7.9292"><ele>442.0</ele><time>2026-04-12T14:19:47.061Z</time></trkpt><trkpt lat="44.588095" lon="7.9292183"><ele>442.42857142857144</ele><time>2026-04-12T14:19:50.063Z</time></trkpt><trkpt lat="44.5880317" lon="7.9292283"><ele>442.8571428571429</ele><time>2026-04-12T14:19:53.062Z</time></trkpt><trkpt lat="44.5879633" lon="7.929235"><ele>443.28571428571433</ele><time>2026-04-12T14:19:56.062Z</time></trkpt><trkpt lat="44.5879" lon="7.929235"><ele>443.7142857142857</ele><time>2026-04-12T14:19:59.061Z</time></trkpt><trkpt lat="44.58782" lon="7.929225"><ele>444.1428571428571</ele><time>2026-04-12T14:20:03.062Z</time></trkpt><trkpt lat="44.587765" lon="7.9291783"><ele>444.5714285714286</ele><time>2026-04-12T14:20:06.064Z</time></trkpt><trkpt lat="44.5877883" lon="7.929075"><ele>445.0</ele><time>2026-04-12T14:20:12.062Z</time></trkpt><trkpt lat="44.5878433" lon="7.9290217"><ele>444.5714285714286</ele><time>2026-04-12T14:20:16.059Z</time></trkpt><trkpt lat="44.5878967" lon="7.9289717"><ele>444.1428571428571</ele><time>2026-04-12T14:20:20.061Z</time></trkpt><trkpt lat="44.587955" lon="7.9289183"><ele>443.7142857142857</ele><time>2026-04-12T14:20:24.063Z</time></trkpt><trkpt lat="44.5880167" lon="7.9288767"><ele>443.28571428571433</ele><time>2026-04-12T14:20:28.063Z</time></trkpt><trkpt lat="44.5880717" lon="7.92882"><ele>442.8571428571429</ele><time>2026-04-12T14:20:32.062Z</time></trkpt><trkpt lat="44.5881233" lon="7.92874"><ele>442.42857142857144</ele><time>2026-04-12T14:20:36.061Z</time></trkpt><trkpt lat="44.5881633" lon="7.9286667"><ele>442.0</ele><time>2026-04-12T14:20:40.063Z</time></trkpt><trkpt lat="44.5882033" lon="7.928595"><ele>442.00000000000006</ele><time>2026-04-12T14:20:44.061Z</time></trkpt><trkpt lat="44.58824" lon="7.928505"><ele>442.0</ele><time>2026-04-12T14:20:48.061Z</time></trkpt><trkpt lat="44.5882717" lon="7.9284083"><ele>442.0</ele><time>2026-04-12T14:20:52.063Z</time></trkpt><trkpt lat="44.588285" lon="7.9283183"><ele>442.0</ele><time>2026-04-12T14:20:55.065Z</time></trkpt><trkpt lat="44.588325" lon="7.9282317"><ele>442.00000000000006</ele><time>2026-04-12T14:20:59.062Z</time></trkpt><trkpt lat="44.5883483" lon="7.928125"><ele>442.0</ele><time>2026-04-12T14:21:03.062Z</time></trkpt><trkpt lat="44.5883933" lon="7.9280233"><ele>444.8571428571429</ele><time>2026-04-12T14:21:07.062Z</time></trkpt><trkpt lat="44.5884267" lon="7.9279333"><ele>447.7142857142857</ele><time>2026-04-12T14:21:10.063Z</time></trkpt><trkpt lat="44.58846" lon="7.9278517"><ele>450.57142857142856</ele><time>2026-04-12T14:21:13.063Z</time></trkpt><trkpt lat="44.588505" lon="7.9277817"><ele>453.42857142857144</ele><time>2026-04-12T14:21:16.064Z</time></trkpt><trkpt lat="44.5885483" lon="7.9277067"><ele>456.2857142857143</ele><time>2026-04-12T14:21:19.064Z</time></trkpt><trkpt lat="44.5886017" lon="7.9276367"><ele>459.14285714285717</ele><time>2026-04-12T14:21:22.065Z</time></trkpt><trkpt lat="44.588655" lon="7.9275583"><ele>462.0</ele><time>2026-04-12T14:21:25.065Z</time></trkpt><trkpt lat="44.5887183" lon="7.9274883"><ele>463.1666666666667</ele><time>2026-04-12T14:21:28.062Z</time></trkpt><trkpt lat="44.5887633" lon="7.9274183"><ele>464.33333333333337</ele><time>2026-04-12T14:21:34.061Z</time></trkpt><trkpt lat="44.5887333" lon="7.9273133"><ele>465.5</ele><time>2026-04-12T14:21:39.063Z</time></trkpt><trkpt lat="44.588695" lon="7.9272067"><ele>466.6666666666667</ele><time>2026-04-12T14:21:43.064Z</time></trkpt><trkpt lat="44.58867" lon="7.9271183"><ele>467.83333333333337</ele><time>2026-04-12T14:21:46.061Z</time></trkpt><trkpt lat="44.588615" lon="7.9270367"><ele>469.0</ele><time>2026-04-12T14:21:49.063Z</time></trkpt><trkpt lat="44.58854" lon="7.9270033"><ele>469.0</ele><time>2026-04-12T14:21:51.062Z</time></trkpt><trkpt lat="44.588465" lon="7.9269633"><ele>469.0</ele><time>2026-04-12T14:21:53.062Z</time></trkpt><trkpt lat="44.5883833" lon="7.926925"><ele>469.0</ele><time>2026-04-12T14:21:55.063Z</time></trkpt><trkpt lat="44.5883" lon="7.926905"><ele>469.0</ele><time>2026-04-12T14:21:57.062Z</time></trkpt><trkpt lat="44.5881983" lon="7.926905"><ele>469.0</ele><time>2026-04-12T14:21:59.062Z</time></trkpt><trkpt lat="44.5881" lon="7.9269067"><ele>469.00000000000006</ele><time>2026-04-12T14:22:01.063Z</time></trkpt><trkpt lat="44.588005" lon="7.926915"><ele>469.0</ele><time>2026-04-12T14:22:03.064Z</time></trkpt><trkpt lat="44.5878967" lon="7.9269333"><ele>469.0</ele><time>2026-04-12T14:22:05.061Z</time></trkpt><trkpt lat="44.5877967" lon="7.9269467"><ele>469.0</ele><time>2026-04-12T14:22:07.065Z</time></trkpt><trkpt lat="44.5877217" lon="7.9269333"><ele>469.00000000000006</ele><time>2026-04-12T14:22:09.065Z</time></trkpt><trkpt lat="44.587665" lon="7.92688"><ele>469.0</ele><time>2026-04-12T14:22:12.066Z</time></trkpt><trkpt lat="44.5877283" lon="7.9268133"><ele>469.00000000000006</ele><time>2026-04-12T14:22:15.062Z</time></trkpt><trkpt lat="44.5878283" lon="7.9268067"><ele>469.0</ele><time>2026-04-12T14:22:17.062Z</time></trkpt><trkpt lat="44.5879433" lon="7.9267867"><ele>469.0</ele><time>2026-04-12T14:22:19.057Z</time></trkpt><trkpt lat="44.5880217" lon="7.92678"><ele>469.0</ele><time>2026-04-12T14:22:20.059Z</time></trkpt><trkpt lat="44.5880983" lon="7.9267783"><ele>469.00000000000006</ele><time>2026-04-12T14:22:21.057Z</time></trkpt><trkpt lat="44.588165" lon="7.9267567"><ele>469.0</ele><time>2026-04-12T14:22:22.056Z</time></trkpt><trkpt lat="44.58823" lon="7.9267217"><ele>466.4</ele><time>2026-04-12T14:22:23.056Z</time></trkpt><trkpt lat="44.5883033" lon="7.92665"><ele>463.79999999999995</ele><time>2026-04-12T14:22:24.057Z</time></trkpt><trkpt lat="44.5883917" lon="7.9265767"><ele>461.20000000000005</ele><time>2026-04-12T14:22:25.056Z</time></trkpt><trkpt lat="44.5884833" lon="7.9265033"><ele>458.6</ele><time>2026-04-12T14:22:26.057Z</time></trkpt><trkpt lat="44.58858" lon="7.9264333"><ele>456.0</ele><time>2026-04-12T14:22:27.058Z</time></trkpt><trkpt lat="44.5886717" lon="7.9263567"><ele>456.0</ele><time>2026-04-12T14:22:28.058Z</time></trkpt><trkpt lat="44.5887683" lon="7.9262933"><ele>456.0</ele><time>2026-04-12T14:22:29.057Z</time></trkpt><trkpt lat="44.58886" lon="7.9262333"><ele>456.0</ele><time>2026-04-12T14:22:30.063Z</time></trkpt><trkpt lat="44.5889583" lon="7.9261883"><ele>456.0</ele><time>2026-04-12T14:22:31.065Z</time></trkpt><trkpt lat="44.5890533" lon="7.9261533"><ele>456.0</ele><time>2026-04-12T14:22:32.063Z</time></trkpt><trkpt lat="44.589145" lon="7.9261333"><ele>456.0</ele><time>2026-04-12T14:22:33.064Z</time></trkpt><trkpt lat="44.5892383" lon="7.9261033"><ele>456.0</ele><time>2026-04-12T14:22:34.062Z</time></trkpt><trkpt lat="44.5893333" lon="7.926085"><ele>456.0</ele><time>2026-04-12T14:22:35.062Z</time></trkpt><trkpt lat="44.58943" lon="7.9260617"><ele>456.0</ele><time>2026-04-12T14:22:36.064Z</time></trkpt><trkpt lat="44.5895217" lon="7.92603"><ele>456.0</ele><time>2026-04-12T14:22:37.064Z</time></trkpt><trkpt lat="44.5896083" lon="7.9260067"><ele>454.8333333333333</ele><time>2026-04-12T14:22:38.062Z</time></trkpt><trkpt lat="44.5897" lon="7.9259833"><ele>453.66666666666663</ele><time>2026-04-12T14:22:39.064Z</time></trkpt><trkpt lat="44.5897933" lon="7.9259783"><ele>452.5</ele><time>2026-04-12T14:22:40.064Z</time></trkpt><trkpt lat="44.5898767" lon="7.925975"><ele>451.3333333333333</ele><time>2026-04-12T14:22:41.064Z</time></trkpt><trkpt lat="44.58995" lon="7.9259483"><ele>450.16666666666663</ele><time>2026-04-12T14:22:42.061Z</time></trkpt><trkpt lat="44.5900117" lon="7.9259183"><ele>449.0</ele><time>2026-04-12T14:22:43.061Z</time></trkpt><trkpt lat="44.5900933" lon="7.9258083"><ele>446.0</ele><time>2026-04-12T14:22:45.063Z</time></trkpt><trkpt lat="44.5901017" lon="7.9257067"><ele>443.0</ele><time>2026-04-12T14:22:46.061Z</time></trkpt><trkpt lat="44.59008" lon="7.9255817"><ele>440.0</ele><time>2026-04-12T14:22:47.061Z</time></trkpt><trkpt lat="44.5900683" lon="7.9254533"><ele>437.0</ele><time>2026-04-12T14:22:48.061Z</time></trkpt><trkpt lat="44.5900667" lon="7.9253183"><ele>434.0</ele><time>2026-04-12T14:22:49.062Z</time></trkpt><trkpt lat="44.5900667" lon="7.9251683"><ele>432.4</ele><time>2026-04-12T14:22:50.063Z</time></trkpt><trkpt lat="44.59007" lon="7.9250133"><ele>430.79999999999995</ele><time>2026-04-12T14:22:51.062Z</time></trkpt><trkpt lat="44.5900767" lon="7.9248483"><ele>429.20000000000005</ele><time>2026-04-12T14:22:52.063Z</time></trkpt><trkpt lat="44.5900833" lon="7.92469"><ele>427.6</ele><time>2026-04-12T14:22:53.06Z</time></trkpt><trkpt lat="44.5900783" lon="7.9245417"><ele>426.0</ele><time>2026-04-12T14:22:54.061Z</time></trkpt><trkpt lat="44.5900783" lon="7.9243867"><ele>424.0</ele><time>2026-04-12T14:22:55.063Z</time></trkpt><trkpt lat="44.5900733" lon="7.9242283"><ele>422.0</ele><time>2026-04-12T14:22:56.062Z</time></trkpt><trkpt lat="44.5900667" lon="7.9240833"><ele>420.0</ele><time>2026-04-12T14:22:57.065Z</time></trkpt><trkpt lat="44.59006" lon="7.92395"><ele>418.0</ele><time>2026-04-12T14:22:58.062Z</time></trkpt><trkpt lat="44.5900567" lon="7.9238183"><ele>416.0</ele><time>2026-04-12T14:22:59.063Z</time></trkpt><trkpt lat="44.590065" lon="7.9236817"><ele>416.0</ele><time>2026-04-12T14:23:00.064Z</time></trkpt><trkpt lat="44.59007" lon="7.9235367"><ele>416.0</ele><time>2026-04-12T14:23:01.061Z</time></trkpt><trkpt lat="44.5900733" lon="7.92339"><ele>416.0</ele><time>2026-04-12T14:23:02.06Z</time></trkpt><trkpt lat="44.5900733" lon="7.9232483"><ele>416.0</ele><time>2026-04-12T14:23:03.063Z</time></trkpt><trkpt lat="44.590075" lon="7.9231083"><ele>416.0</ele><time>2026-04-12T14:23:04.063Z</time></trkpt><trkpt lat="44.5900783" lon="7.9229683"><ele>414.20000000000005</ele><time>2026-04-12T14:23:05.062Z</time></trkpt><trkpt lat="44.5900817" lon="7.922825"><ele>412.40000000000003</ele><time>2026-04-12T14:23:06.063Z</time></trkpt><trkpt lat="44.590085" lon="7.9226767"><ele>410.6</ele><time>2026-04-12T14:23:07.063Z</time></trkpt><trkpt lat="44.5900967" lon="7.9225183"><ele>408.8</ele><time>2026-04-12T14:23:08.062Z</time></trkpt><trkpt lat="44.590115" lon="7.9223517"><ele>407.0</ele><time>2026-04-12T14:23:09.062Z</time></trkpt><trkpt lat="44.5901367" lon="7.9221767"><ele>404.75</ele><time>2026-04-12T14:23:10.062Z</time></trkpt><trkpt lat="44.5901633" lon="7.921995"><ele>402.5</ele><time>2026-04-12T14:23:11.06Z</time></trkpt><trkpt lat="44.5901917" lon="7.92181"><ele>400.25</ele><time>2026-04-12T14:23:12.062Z</time></trkpt><trkpt lat="44.5902217" lon="7.9216167"><ele>398.0</ele><time>2026-04-12T14:23:13.061Z</time></trkpt><trkpt lat="44.59025" lon="7.9214183"><ele>396.66666666666663</ele><time>2026-04-12T14:23:14.063Z</time></trkpt><trkpt lat="44.59028" lon="7.9212117"><ele>395.33333333333337</ele><time>2026-04-12T14:23:15.062Z</time></trkpt><trkpt lat="44.5903117" lon="7.9209983"><ele>394.0</ele><time>2026-04-12T14:23:16.062Z</time></trkpt><trkpt lat="44.5903467" lon="7.920785"><ele>394.0</ele><time>2026-04-12T14:23:17.062Z</time></trkpt><trkpt lat="44.5903867" lon="7.920575"><ele>394.0</ele><time>2026-04-12T14:23:18.062Z</time></trkpt><trkpt lat="44.590435" lon="7.92037"><ele>394.0</ele><time>2026-04-12T14:23:19.061Z</time></trkpt><trkpt lat="44.590485" lon="7.9201667"><ele>391.5</ele><time>2026-04-12T14:23:20.062Z</time></trkpt><trkpt lat="44.59054" lon="7.91997"><ele>389.0</ele><time>2026-04-12T14:23:21.068Z</time></trkpt><trkpt lat="44.5905967" lon="7.9197817"><ele>386.5</ele><time>2026-04-12T14:23:22.065Z</time></trkpt><trkpt lat="44.5906583" lon="7.919605"><ele>384.0</ele><time>2026-04-12T14:23:23.061Z</time></trkpt><trkpt lat="44.5907267" lon="7.919445"><ele>384.0</ele><time>2026-04-12T14:23:24.063Z</time></trkpt><trkpt lat="44.590805" lon="7.9193017"><ele>384.0</ele><time>2026-04-12T14:23:25.061Z</time></trkpt><trkpt lat="44.5908883" lon="7.9191683"><ele>384.0</ele><time>2026-04-12T14:23:26.063Z</time></trkpt><trkpt lat="44.590975" lon="7.9190433"><ele>384.0</ele><time>2026-04-12T14:23:27.06Z</time></trkpt><trkpt lat="44.5910633" lon="7.9189267"><ele>383.75</ele><time>2026-04-12T14:23:28.063Z</time></trkpt><trkpt lat="44.5911517" lon="7.9188167"><ele>383.5</ele><time>2026-04-12T14:23:29.063Z</time></trkpt><trkpt lat="44.59124" lon="7.9187117"><ele>383.25</ele><time>2026-04-12T14:23:30.063Z</time></trkpt><trkpt lat="44.5913233" lon="7.9186083"><ele>383.0</ele><time>2026-04-12T14:23:31.062Z</time></trkpt><trkpt lat="44.5914067" lon="7.9185083"><ele>383.0</ele><time>2026-04-12T14:23:32.062Z</time></trkpt><trkpt lat="44.5914833" lon="7.9184083"><ele>383.0</ele><time>2026-04-12T14:23:33.062Z</time></trkpt><trkpt lat="44.5915617" lon="7.9183117"><ele>383.0</ele><time>2026-04-12T14:23:34.061Z</time></trkpt><trkpt lat="44.5916367" lon="7.9182167"><ele>383.0</ele><time>2026-04-12T14:23:35.062Z</time></trkpt><trkpt lat="44.5917117" lon="7.918125"><ele>383.0</ele><time>2026-04-12T14:23:36.062Z</time></trkpt><trkpt lat="44.5917883" lon="7.91803"><ele>380.4</ele><time>2026-04-12T14:23:37.062Z</time></trkpt><trkpt lat="44.59186" lon="7.9179367"><ele>377.79999999999995</ele><time>2026-04-12T14:23:38.06Z</time></trkpt><trkpt lat="44.5919267" lon="7.91784"><ele>375.2</ele><time>2026-04-12T14:23:39.062Z</time></trkpt><trkpt lat="44.5919917" lon="7.9177333"><ele>372.6</ele><time>2026-04-12T14:23:40.062Z</time></trkpt><trkpt lat="44.5920567" lon="7.9176217"><ele>370.0</ele><time>2026-04-12T14:23:41.062Z</time></trkpt><trkpt lat="44.592115" lon="7.9175033"><ele>368.8</ele><time>2026-04-12T14:23:42.063Z</time></trkpt><trkpt lat="44.5921717" lon="7.9173783"><ele>367.6</ele><time>2026-04-12T14:23:43.061Z</time></trkpt><trkpt lat="44.5922233" lon="7.9172467"><ele>366.4</ele><time>2026-04-12T14:23:44.062Z</time></trkpt><trkpt lat="44.5922733" lon="7.9171033"><ele>365.2</ele><time>2026-04-12T14:23:45.063Z</time></trkpt><trkpt lat="44.59232" lon="7.9169583"><ele>364.0</ele><time>2026-04-12T14:23:46.062Z</time></trkpt><trkpt lat="44.5923667" lon="7.91681"><ele>362.6</ele><time>2026-04-12T14:23:47.062Z</time></trkpt><trkpt lat="44.59241" lon="7.9166633"><ele>361.2</ele><time>2026-04-12T14:23:48.063Z</time></trkpt><trkpt lat="44.5924533" lon="7.9165183"><ele>359.8</ele><time>2026-04-12T14:23:49.06Z</time></trkpt><trkpt lat="44.5924967" lon="7.9163783"><ele>358.40000000000003</ele><time>2026-04-12T14:23:50.061Z</time></trkpt><trkpt lat="44.59254" lon="7.9162383"><ele>357.0</ele><time>2026-04-12T14:23:51.064Z</time></trkpt><trkpt lat="44.5925833" lon="7.916105"><ele>357.0</ele><time>2026-04-12T14:23:52.06Z</time></trkpt><trkpt lat="44.5926267" lon="7.9159717"><ele>357.0</ele><time>2026-04-12T14:23:53.061Z</time></trkpt><trkpt lat="44.5926717" lon="7.9158417"><ele>357.0</ele><time>2026-04-12T14:23:54.061Z</time></trkpt><trkpt lat="44.5927167" lon="7.9157167"><ele>357.0</ele><time>2026-04-12T14:23:55.061Z</time></trkpt><trkpt lat="44.5927617" lon="7.9156"><ele>357.0</ele><time>2026-04-12T14:23:56.062Z</time></trkpt><trkpt lat="44.59281" lon="7.9154883"><ele>355.8</ele><time>2026-04-12T14:23:57.064Z</time></trkpt><trkpt lat="44.5928617" lon="7.9153783"><ele>354.6</ele><time>2026-04-12T14:23:58.062Z</time></trkpt><trkpt lat="44.5929133" lon="7.9152717"><ele>353.40000000000003</ele><time>2026-04-12T14:23:59.062Z</time></trkpt><trkpt lat="44.592965" lon="7.9151617"><ele>352.20000000000005</ele><time>2026-04-12T14:24:00.06Z</time></trkpt><trkpt lat="44.59302" lon="7.9150517"><ele>351.0</ele><time>2026-04-12T14:24:01.061Z</time></trkpt><trkpt lat="44.5930783" lon="7.9149367"><ele>350.5</ele><time>2026-04-12T14:24:02.061Z</time></trkpt><trkpt lat="44.593145" lon="7.9148233"><ele>350.0</ele><time>2026-04-12T14:24:03.065Z</time></trkpt><trkpt lat="44.59322" lon="7.9147067"><ele>349.5</ele><time>2026-04-12T14:24:04.062Z</time></trkpt><trkpt lat="44.593305" lon="7.9145917"><ele>349.0</ele><time>2026-04-12T14:24:05.061Z</time></trkpt><trkpt lat="44.5933933" lon="7.9144783"><ele>349.0</ele><time>2026-04-12T14:24:06.063Z</time></trkpt><trkpt lat="44.593485" lon="7.9143583"><ele>349.0</ele><time>2026-04-12T14:24:07.06Z</time></trkpt><trkpt lat="44.5935767" lon="7.914235"><ele>349.0</ele><time>2026-04-12T14:24:08.062Z</time></trkpt><trkpt lat="44.5936767" lon="7.9141133"><ele>349.0</ele><time>2026-04-12T14:24:09.062Z</time></trkpt><trkpt lat="44.5937817" lon="7.9139917"><ele>346.5</ele><time>2026-04-12T14:24:10.06Z</time></trkpt><trkpt lat="44.5938917" lon="7.9138683"><ele>344.0</ele><time>2026-04-12T14:24:11.061Z</time></trkpt><trkpt lat="44.5939983" lon="7.91374"><ele>341.5</ele><time>2026-04-12T14:24:12.062Z</time></trkpt><trkpt lat="44.5941067" lon="7.91361"><ele>339.0</ele><time>2026-04-12T14:24:13.062Z</time></trkpt><trkpt lat="44.5942133" lon="7.9134833"><ele>339.5</ele><time>2026-04-12T14:24:14.059Z</time></trkpt><trkpt lat="44.5943167" lon="7.9133567"><ele>340.0</ele><time>2026-04-12T14:24:15.064Z</time></trkpt><trkpt lat="44.5944133" lon="7.9132267"><ele>340.5</ele><time>2026-04-12T14:24:16.061Z</time></trkpt><trkpt lat="44.5945" lon="7.9130867"><ele>341.0</ele><time>2026-04-12T14:24:17.063Z</time></trkpt><trkpt lat="44.5945817" lon="7.912935"><ele>338.5</ele><time>2026-04-12T14:24:18.062Z</time></trkpt><trkpt lat="44.594655" lon="7.9127733"><ele>336.0</ele><time>2026-04-12T14:24:19.062Z</time></trkpt><trkpt lat="44.5947217" lon="7.9126067"><ele>333.5</ele><time>2026-04-12T14:24:20.061Z</time></trkpt><trkpt lat="44.5947867" lon="7.9124333"><ele>331.0</ele><time>2026-04-12T14:24:21.062Z</time></trkpt><trkpt lat="44.5948433" lon="7.9122583"><ele>331.0</ele><time>2026-04-12T14:24:22.063Z</time></trkpt><trkpt lat="44.59489" lon="7.9120767"><ele>331.0</ele><time>2026-04-12T14:24:23.06Z</time></trkpt><trkpt lat="44.594935" lon="7.9118917"><ele>331.0</ele><time>2026-04-12T14:24:24.062Z</time></trkpt><trkpt lat="44.5949783" lon="7.9117"><ele>331.0</ele><time>2026-04-12T14:24:25.063Z</time></trkpt><trkpt lat="44.5950283" lon="7.91151"><ele>330.5</ele><time>2026-04-12T14:24:26.06Z</time></trkpt><trkpt lat="44.5950767" lon="7.9113267"><ele>330.0</ele><time>2026-04-12T14:24:27.064Z</time></trkpt><trkpt lat="44.59513" lon="7.9111517"><ele>329.5</ele><time>2026-04-12T14:24:28.062Z</time></trkpt><trkpt lat="44.59518" lon="7.9109817"><ele>329.0</ele><time>2026-04-12T14:24:29.062Z</time></trkpt><trkpt lat="44.5952467" lon="7.91082"><ele>326.75</ele><time>2026-04-12T14:24:30.061Z</time></trkpt><trkpt lat="44.5953233" lon="7.9106633"><ele>324.5</ele><time>2026-04-12T14:24:31.061Z</time></trkpt><trkpt lat="44.5954133" lon="7.9105133"><ele>322.25</ele><time>2026-04-12T14:24:32.063Z</time></trkpt><trkpt lat="44.5955083" lon="7.9103767"><ele>320.0</ele><time>2026-04-12T14:24:33.063Z</time></trkpt><trkpt lat="44.5955983" lon="7.910245"><ele>318.25</ele><time>2026-04-12T14:24:34.062Z</time></trkpt><trkpt lat="44.5956867" lon="7.9101183"><ele>316.5</ele><time>2026-04-12T14:24:35.063Z</time></trkpt><trkpt lat="44.5957683" lon="7.90999"><ele>314.75</ele><time>2026-04-12T14:24:36.062Z</time></trkpt><trkpt lat="44.5958367" lon="7.9098533"><ele>313.0</ele><time>2026-04-12T14:24:37.063Z</time></trkpt><trkpt lat="44.5958917" lon="7.9097033"><ele>312.0</ele><time>2026-04-12T14:24:38.062Z</time></trkpt><trkpt lat="44.5959283" lon="7.9095383"><ele>311.0</ele><time>2026-04-12T14:24:39.064Z</time></trkpt><trkpt lat="44.5959467" lon="7.9093633"><ele>310.0</ele><time>2026-04-12T14:24:40.061Z</time></trkpt><trkpt lat="44.59595" lon="7.90918"><ele>309.0</ele><time>2026-04-12T14:24:41.061Z</time></trkpt><trkpt lat="44.5959483" lon="7.9089917"><ele>308.25</ele><time>2026-04-12T14:24:42.062Z</time></trkpt><trkpt lat="44.5959383" lon="7.908795"><ele>307.5</ele><time>2026-04-12T14:24:43.063Z</time></trkpt><trkpt lat="44.595925" lon="7.9085917"><ele>306.75</ele><time>2026-04-12T14:24:44.064Z</time></trkpt><trkpt lat="44.5959017" lon="7.9083867"><ele>306.0</ele><time>2026-04-12T14:24:45.062Z</time></trkpt><trkpt lat="44.59588" lon="7.90818"><ele>304.5</ele><time>2026-04-12T14:24:46.061Z</time></trkpt><trkpt lat="44.5958617" lon="7.9079733"><ele>303.0</ele><time>2026-04-12T14:24:47.061Z</time></trkpt><trkpt lat="44.5958433" lon="7.9077683"><ele>301.5</ele><time>2026-04-12T14:24:48.061Z</time></trkpt><trkpt lat="44.595825" lon="7.9075667"><ele>300.0</ele><time>2026-04-12T14:24:49.061Z</time></trkpt><trkpt lat="44.595805" lon="7.90737"><ele>299.0</ele><time>2026-04-12T14:24:50.058Z</time></trkpt><trkpt lat="44.595785" lon="7.9071733"><ele>298.0</ele><time>2026-04-12T14:24:51.066Z</time></trkpt><trkpt lat="44.59576" lon="7.9069733"><ele>297.0</ele><time>2026-04-12T14:24:52.06Z</time></trkpt><trkpt lat="44.5957233" lon="7.906775"><ele>296.0</ele><time>2026-04-12T14:24:53.063Z</time></trkpt><trkpt lat="44.5956767" lon="7.9065817"><ele>294.5</ele><time>2026-04-12T14:24:54.062Z</time></trkpt><trkpt lat="44.5956183" lon="7.9063967"><ele>293.0</ele><time>2026-04-12T14:24:55.063Z</time></trkpt><trkpt lat="44.5955567" lon="7.9062183"><ele>291.5</ele><time>2026-04-12T14:24:56.062Z</time></trkpt><trkpt lat="44.5954967" lon="7.9060417"><ele>290.0</ele><time>2026-04-12T14:24:57.063Z</time></trkpt><trkpt lat="44.59544" lon="7.9058683"><ele>288.75</ele><time>2026-04-12T14:24:58.063Z</time></trkpt><trkpt lat="44.59539" lon="7.9057017"><ele>287.5</ele><time>2026-04-12T14:24:59.061Z</time></trkpt><trkpt lat="44.5953483" lon="7.9055417"><ele>286.25</ele><time>2026-04-12T14:25:00.064Z</time></trkpt><trkpt lat="44.5953117" lon="7.905385"><ele>285.0</ele><time>2026-04-12T14:25:01.061Z</time></trkpt><trkpt lat="44.5952817" lon="7.9052333"><ele>283.4</ele><time>2026-04-12T14:25:02.061Z</time></trkpt><trkpt lat="44.5952533" lon="7.9050883"><ele>281.8</ele><time>2026-04-12T14:25:03.063Z</time></trkpt><trkpt lat="44.5952267" lon="7.904945"><ele>280.2</ele><time>2026-04-12T14:25:04.061Z</time></trkpt><trkpt lat="44.5952" lon="7.9048017"><ele>278.6</ele><time>2026-04-12T14:25:05.062Z</time></trkpt><trkpt lat="44.5951717" lon="7.90466"><ele>277.0</ele><time>2026-04-12T14:25:06.062Z</time></trkpt><trkpt lat="44.5951433" lon="7.9045183"><ele>275.8</ele><time>2026-04-12T14:25:07.062Z</time></trkpt><trkpt lat="44.5951117" lon="7.9043733"><ele>274.6</ele><time>2026-04-12T14:25:08.06Z</time></trkpt><trkpt lat="44.5950833" lon="7.90423"><ele>273.40000000000003</ele><time>2026-04-12T14:25:09.063Z</time></trkpt><trkpt lat="44.595055" lon="7.90408"><ele>272.2</ele><time>2026-04-12T14:25:10.061Z</time></trkpt><trkpt lat="44.595025" lon="7.9039317"><ele>271.0</ele><time>2026-04-12T14:25:11.062Z</time></trkpt><trkpt lat="44.594995" lon="7.903785"><ele>269.6</ele><time>2026-04-12T14:25:12.061Z</time></trkpt><trkpt lat="44.594965" lon="7.9036417"><ele>268.20000000000005</ele><time>2026-04-12T14:25:13.062Z</time></trkpt><trkpt lat="44.5949367" lon="7.9034933"><ele>266.79999999999995</ele><time>2026-04-12T14:25:14.063Z</time></trkpt><trkpt lat="44.5949117" lon="7.9033367"><ele>265.4</ele><time>2026-04-12T14:25:15.063Z</time></trkpt><trkpt lat="44.5948883" lon="7.9031783"><ele>264.0</ele><time>2026-04-12T14:25:16.062Z</time></trkpt><trkpt lat="44.594865" lon="7.9030217"><ele>263.0</ele><time>2026-04-12T14:25:17.062Z</time></trkpt><trkpt lat="44.594855" lon="7.9028617"><ele>262.0</ele><time>2026-04-12T14:25:18.06Z</time></trkpt><trkpt lat="44.5948467" lon="7.9027017"><ele>261.0</ele><time>2026-04-12T14:25:19.059Z</time></trkpt><trkpt lat="44.5948367" lon="7.9025383"><ele>260.0</ele><time>2026-04-12T14:25:20.062Z</time></trkpt><trkpt lat="44.59483" lon="7.9023867"><ele>259.4</ele><time>2026-04-12T14:25:21.061Z</time></trkpt><trkpt lat="44.5948217" lon="7.9022533"><ele>258.8</ele><time>2026-04-12T14:25:22.061Z</time></trkpt><trkpt lat="44.5947983" lon="7.9021317"><ele>258.2</ele><time>2026-04-12T14:25:23.062Z</time></trkpt><trkpt lat="44.594755" lon="7.9020183"><ele>257.6</ele><time>2026-04-12T14:25:24.061Z</time></trkpt><trkpt lat="44.594685" lon="7.90193"><ele>257.0</ele><time>2026-04-12T14:25:25.062Z</time></trkpt><trkpt lat="44.59459" lon="7.90186"><ele>253.25</ele><time>2026-04-12T14:25:26.061Z</time></trkpt><trkpt lat="44.5944867" lon="7.9017883"><ele>249.5</ele><time>2026-04-12T14:25:27.064Z</time></trkpt><trkpt lat="44.5943733" lon="7.9017117"><ele>245.75</ele><time>2026-04-12T14:25:28.064Z</time></trkpt><trkpt lat="44.5942567" lon="7.90162"><ele>242.0</ele><time>2026-04-12T14:25:29.06Z</time></trkpt><trkpt lat="44.5941317" lon="7.90153"><ele>240.5</ele><time>2026-04-12T14:25:30.061Z</time></trkpt><trkpt lat="44.5940017" lon="7.9014433"><ele>239.0</ele><time>2026-04-12T14:25:31.057Z</time></trkpt><trkpt lat="44.5938717" lon="7.901355"><ele>237.5</ele><time>2026-04-12T14:25:32.062Z</time></trkpt><trkpt lat="44.5937417" lon="7.9012533"><ele>236.0</ele><time>2026-04-12T14:25:33.061Z</time></trkpt><trkpt lat="44.593625" lon="7.9011383"><ele>234.25</ele><time>2026-04-12T14:25:34.062Z</time></trkpt><trkpt lat="44.5935133" lon="7.901015"><ele>232.5</ele><time>2026-04-12T14:25:35.062Z</time></trkpt><trkpt lat="44.5934067" lon="7.9008883"><ele>230.75</ele><time>2026-04-12T14:25:36.062Z</time></trkpt><trkpt lat="44.5933" lon="7.9007633"><ele>229.0</ele><time>2026-04-12T14:25:37.063Z</time></trkpt><trkpt lat="44.5931967" lon="7.9006367"><ele>229.0</ele><time>2026-04-12T14:25:38.063Z</time></trkpt><trkpt lat="44.5930967" lon="7.90051"><ele>229.0</ele><time>2026-04-12T14:25:39.063Z</time></trkpt><trkpt lat="44.5929967" lon="7.9003883"><ele>229.0</ele><time>2026-04-12T14:25:40.063Z</time></trkpt><trkpt lat="44.5929017" lon="7.90027"><ele>229.0</ele><time>2026-04-12T14:25:41.06Z</time></trkpt><trkpt lat="44.5928033" lon="7.9001583"><ele>227.75</ele><time>2026-04-12T14:25:42.061Z</time></trkpt><trkpt lat="44.5927033" lon="7.9000583"><ele>226.5</ele><time>2026-04-12T14:25:43.061Z</time></trkpt><trkpt lat="44.5926033" lon="7.89997"><ele>225.25</ele><time>2026-04-12T14:25:44.06Z</time></trkpt><trkpt lat="44.592505" lon="7.8998883"><ele>224.0</ele><time>2026-04-12T14:25:45.062Z</time></trkpt><trkpt lat="44.59241" lon="7.8998033"><ele>224.0</ele><time>2026-04-12T14:25:46.06Z</time></trkpt><trkpt lat="44.5923233" lon="7.89971"><ele>223.99999999999997</ele><time>2026-04-12T14:25:47.06Z</time></trkpt><trkpt lat="44.5922467" lon="7.8996067"><ele>223.99999999999997</ele><time>2026-04-12T14:25:48.066Z</time></trkpt><trkpt lat="44.5921767" lon="7.8994967"><ele>224.0</ele><time>2026-04-12T14:25:49.062Z</time></trkpt><trkpt lat="44.5921133" lon="7.8993817"><ele>224.0</ele><time>2026-04-12T14:25:50.061Z</time></trkpt><trkpt lat="44.592055" lon="7.8992683"><ele>223.39999999999998</ele><time>2026-04-12T14:25:51.061Z</time></trkpt><trkpt lat="44.5919933" lon="7.8991567"><ele>222.79999999999998</ele><time>2026-04-12T14:25:52.061Z</time></trkpt><trkpt lat="44.5919433" lon="7.8990567"><ele>222.20000000000002</ele><time>2026-04-12T14:25:53.062Z</time></trkpt><trkpt lat="44.59191" lon="7.8989633"><ele>221.60000000000002</ele><time>2026-04-12T14:25:54.061Z</time></trkpt><trkpt lat="44.591895" lon="7.8987983"><ele>221.0</ele><time>2026-04-12T14:25:56.063Z</time></trkpt><trkpt lat="44.5919583" lon="7.8986817"><ele>221.4</ele><time>2026-04-12T14:25:58.061Z</time></trkpt><trkpt lat="44.592065" lon="7.8986067"><ele>221.8</ele><time>2026-04-12T14:26:00.061Z</time></trkpt><trkpt lat="44.5921817" lon="7.898545"><ele>222.20000000000002</ele><time>2026-04-12T14:26:02.061Z</time></trkpt><trkpt lat="44.5922917" lon="7.8984667"><ele>222.60000000000002</ele><time>2026-04-12T14:26:04.061Z</time></trkpt><trkpt lat="44.5923483" lon="7.898425"><ele>223.0</ele><time>2026-04-12T14:26:05.061Z</time></trkpt><trkpt lat="44.5924617" lon="7.8983417"><ele>222.99999999999997</ele><time>2026-04-12T14:26:07.062Z</time></trkpt><trkpt lat="44.59252" lon="7.8983033"><ele>223.0</ele><time>2026-04-12T14:26:08.061Z</time></trkpt><trkpt lat="44.59258" lon="7.898265"><ele>223.0</ele><time>2026-04-12T14:26:09.061Z</time></trkpt><trkpt lat="44.592695" lon="7.8981883"><ele>223.0</ele><time>2026-04-12T14:26:11.061Z</time></trkpt><trkpt lat="44.592755" lon="7.8981533"><ele>222.99999999999997</ele><time>2026-04-12T14:26:12.063Z</time></trkpt><trkpt lat="44.5928117" lon="7.8981117"><ele>223.0</ele><time>2026-04-12T14:26:13.061Z</time></trkpt><trkpt lat="44.592875" lon="7.89807"><ele>223.0</ele><time>2026-04-12T14:26:14.062Z</time></trkpt><trkpt lat="44.5929333" lon="7.8980283"><ele>223.0</ele><time>2026-04-12T14:26:15.063Z</time></trkpt><trkpt lat="44.5929933" lon="7.8979917"><ele>223.0</ele><time>2026-04-12T14:26:16.063Z</time></trkpt><trkpt lat="44.593055" lon="7.8979633"><ele>223.0</ele><time>2026-04-12T14:26:17.061Z</time></trkpt><trkpt lat="44.5931167" lon="7.89793"><ele>223.0</ele><time>2026-04-12T14:26:18.06Z</time></trkpt><trkpt lat="44.59318" lon="7.8978983"><ele>223.0</ele><time>2026-04-12T14:26:19.062Z</time></trkpt><trkpt lat="44.593245" lon="7.897865"><ele>223.0</ele><time>2026-04-12T14:26:20.062Z</time></trkpt><trkpt lat="44.59331" lon="7.8978333"><ele>223.0</ele><time>2026-04-12T14:26:21.062Z</time></trkpt><trkpt lat="44.5933733" lon="7.897805"><ele>223.0</ele><time>2026-04-12T14:26:22.063Z</time></trkpt><trkpt lat="44.5934383" lon="7.897775"><ele>223.0</ele><time>2026-04-12T14:26:23.061Z</time></trkpt><trkpt lat="44.5935017" lon="7.897745"><ele>223.0</ele><time>2026-04-12T14:26:24.061Z</time></trkpt><trkpt lat="44.5935617" lon="7.8977083"><ele>223.0</ele><time>2026-04-12T14:26:25.063Z</time></trkpt><trkpt lat="44.5936233" lon="7.89767"><ele>223.0</ele><time>2026-04-12T14:26:26.062Z</time></trkpt><trkpt lat="44.5936833" lon="7.8976283"><ele>223.0</ele><time>2026-04-12T14:26:27.063Z</time></trkpt><trkpt lat="44.5937417" lon="7.897585"><ele>222.85714285714286</ele><time>2026-04-12T14:26:28.063Z</time></trkpt><trkpt lat="44.5938" lon="7.89754"><ele>222.71428571428572</ele><time>2026-04-12T14:26:29.062Z</time></trkpt><trkpt lat="44.5938583" lon="7.8974967"><ele>222.57142857142856</ele><time>2026-04-12T14:26:30.062Z</time></trkpt><trkpt lat="44.593915" lon="7.8974483"><ele>222.42857142857144</ele><time>2026-04-12T14:26:31.063Z</time></trkpt><trkpt lat="44.5939683" lon="7.897395"><ele>222.2857142857143</ele><time>2026-04-12T14:26:32.062Z</time></trkpt><trkpt lat="44.59402" lon="7.8973417"><ele>222.14285714285714</ele><time>2026-04-12T14:26:33.061Z</time></trkpt><trkpt lat="44.5940733" lon="7.89729"><ele>222.0</ele><time>2026-04-12T14:26:34.062Z</time></trkpt><trkpt lat="44.594125" lon="7.8972333"><ele>222.0</ele><time>2026-04-12T14:26:35.061Z</time></trkpt><trkpt lat="44.594175" lon="7.897175"><ele>222.0</ele><time>2026-04-12T14:26:36.062Z</time></trkpt><trkpt lat="44.5942233" lon="7.897115"><ele>222.0</ele><time>2026-04-12T14:26:37.062Z</time></trkpt><trkpt lat="44.5942733" lon="7.8970567"><ele>222.0</ele><time>2026-04-12T14:26:38.062Z</time></trkpt><trkpt lat="44.5943217" lon="7.896995"><ele>222.0</ele><time>2026-04-12T14:26:39.062Z</time></trkpt><trkpt lat="44.5943733" lon="7.896935"><ele>222.0</ele><time>2026-04-12T14:26:40.063Z</time></trkpt><trkpt lat="44.594425" lon="7.896875"><ele>222.0</ele><time>2026-04-12T14:26:41.063Z</time></trkpt><trkpt lat="44.5944767" lon="7.8968133"><ele>222.14285714285714</ele><time>2026-04-12T14:26:42.062Z</time></trkpt><trkpt lat="44.5945267" lon="7.8967517"><ele>222.2857142857143</ele><time>2026-04-12T14:26:43.064Z</time></trkpt><trkpt lat="44.594575" lon="7.89669"><ele>222.42857142857144</ele><time>2026-04-12T14:26:44.063Z</time></trkpt><trkpt lat="44.594625" lon="7.8966267"><ele>222.57142857142856</ele><time>2026-04-12T14:26:45.064Z</time></trkpt><trkpt lat="44.5946717" lon="7.8965633"><ele>222.71428571428572</ele><time>2026-04-12T14:26:46.062Z</time></trkpt><trkpt lat="44.5947183" lon="7.8965"><ele>222.85714285714286</ele><time>2026-04-12T14:26:47.061Z</time></trkpt><trkpt lat="44.5947683" lon="7.8964417"><ele>223.0</ele><time>2026-04-12T14:26:48.063Z</time></trkpt><trkpt lat="44.5948167" lon="7.8963833"><ele>223.0</ele><time>2026-04-12T14:26:49.064Z</time></trkpt><trkpt lat="44.5949133" lon="7.89627"><ele>223.0</ele><time>2026-04-12T14:26:51.063Z</time></trkpt><trkpt lat="44.5950033" lon="7.8961467"><ele>223.0</ele><time>2026-04-12T14:26:53.063Z</time></trkpt><trkpt lat="44.5950917" lon="7.89603"><ele>223.0</ele><time>2026-04-12T14:26:55.063Z</time></trkpt><trkpt lat="44.5951817" lon="7.8959283"><ele>222.8</ele><time>2026-04-12T14:26:57.067Z</time></trkpt><trkpt lat="44.5952617" lon="7.895825"><ele>222.60000000000002</ele><time>2026-04-12T14:26:59.063Z</time></trkpt><trkpt lat="44.5953333" lon="7.8957267"><ele>222.39999999999998</ele><time>2026-04-12T14:27:01.063Z</time></trkpt><trkpt lat="44.595405" lon="7.8956383"><ele>222.2</ele><time>2026-04-12T14:27:03.065Z</time></trkpt><trkpt lat="44.59547" lon="7.895555"><ele>222.0</ele><time>2026-04-12T14:27:05.061Z</time></trkpt><trkpt lat="44.5955383" lon="7.8954817"><ele>222.5</ele><time>2026-04-12T14:27:07.063Z</time></trkpt><trkpt lat="44.5955983" lon="7.8954083"><ele>223.0</ele><time>2026-04-12T14:27:09.062Z</time></trkpt><trkpt lat="44.5956533" lon="7.8953283"><ele>223.5</ele><time>2026-04-12T14:27:11.062Z</time></trkpt><trkpt lat="44.59571" lon="7.8952533"><ele>224.0</ele><time>2026-04-12T14:27:13.064Z</time></trkpt><trkpt lat="44.5957667" lon="7.89518"><ele>224.5</ele><time>2026-04-12T14:27:15.063Z</time></trkpt><trkpt lat="44.5958283" lon="7.8951083"><ele>225.0</ele><time>2026-04-12T14:27:17.063Z</time></trkpt><trkpt lat="44.5958933" lon="7.895035"><ele>225.0</ele><time>2026-04-12T14:27:19.062Z</time></trkpt><trkpt lat="44.5959583" lon="7.8949633"><ele>225.0</ele><time>2026-04-12T14:27:21.066Z</time></trkpt><trkpt lat="44.5960267" lon="7.8948917"><ele>225.0</ele><time>2026-04-12T14:27:23.063Z</time></trkpt><trkpt lat="44.5961" lon="7.894825"><ele>225.0</ele><time>2026-04-12T14:27:25.062Z</time></trkpt><trkpt lat="44.596175" lon="7.894745"><ele>225.0</ele><time>2026-04-12T14:27:27.064Z</time></trkpt><trkpt lat="44.5962533" lon="7.8946667"><ele>225.0</ele><time>2026-04-12T14:27:29.062Z</time></trkpt><trkpt lat="44.5963333" lon="7.8945867"><ele>225.6</ele><time>2026-04-12T14:27:31.062Z</time></trkpt><trkpt lat="44.596415" lon="7.8945033"><ele>226.2</ele><time>2026-04-12T14:27:33.063Z</time></trkpt><trkpt lat="44.5964967" lon="7.8944167"><ele>226.8</ele><time>2026-04-12T14:27:35.062Z</time></trkpt><trkpt lat="44.5965817" lon="7.8943317"><ele>227.4</ele><time>2026-04-12T14:27:37.066Z</time></trkpt><trkpt lat="44.5966617" lon="7.894245"><ele>228.0</ele><time>2026-04-12T14:27:39.062Z</time></trkpt><trkpt lat="44.596745" lon="7.894155"><ele>228.0</ele><time>2026-04-12T14:27:41.062Z</time></trkpt><trkpt lat="44.5968317" lon="7.8940633"><ele>228.0</ele><time>2026-04-12T14:27:43.061Z</time></trkpt><trkpt lat="44.59691" lon="7.8939667"><ele>228.0</ele><time>2026-04-12T14:27:45.064Z</time></trkpt><trkpt lat="44.5969967" lon="7.8938633"><ele>228.0</ele><time>2026-04-12T14:27:47.063Z</time></trkpt><trkpt lat="44.5970883" lon="7.893755"><ele>228.0</ele><time>2026-04-12T14:27:49.063Z</time></trkpt><trkpt lat="44.5971783" lon="7.89365"><ele>227.75</ele><time>2026-04-12T14:27:51.063Z</time></trkpt><trkpt lat="44.5972683" lon="7.8935417"><ele>227.5</ele><time>2026-04-12T14:27:53.061Z</time></trkpt><trkpt lat="44.5973533" lon="7.8934217"><ele>227.25</ele><time>2026-04-12T14:27:55.061Z</time></trkpt><trkpt lat="44.5974333" lon="7.893295"><ele>227.0</ele><time>2026-04-12T14:27:57.063Z</time></trkpt><trkpt lat="44.5975117" lon="7.8931733"><ele>226.25</ele><time>2026-04-12T14:27:59.063Z</time></trkpt><trkpt lat="44.5975883" lon="7.89305"><ele>225.5</ele><time>2026-04-12T14:28:01.062Z</time></trkpt><trkpt lat="44.5976667" lon="7.8929217"><ele>224.75</ele><time>2026-04-12T14:28:03.062Z</time></trkpt><trkpt lat="44.597745" lon="7.8927933"><ele>224.0</ele><time>2026-04-12T14:28:05.062Z</time></trkpt><trkpt lat="44.5978233" lon="7.89266"><ele>224.6</ele><time>2026-04-12T14:28:07.063Z</time></trkpt><trkpt lat="44.5979033" lon="7.89254"><ele>225.2</ele><time>2026-04-12T14:28:09.063Z</time></trkpt><trkpt lat="44.5979917" lon="7.8924483"><ele>225.79999999999998</ele><time>2026-04-12T14:28:11.062Z</time></trkpt><trkpt lat="44.598095" lon="7.8923717"><ele>226.39999999999998</ele><time>2026-04-12T14:28:13.061Z</time></trkpt><trkpt lat="44.5981733" lon="7.8922933"><ele>227.0</ele><time>2026-04-12T14:28:15.064Z</time></trkpt><trkpt lat="44.59819" lon="7.8921833"><ele>227.0</ele><time>2026-04-12T14:28:17.061Z</time></trkpt><trkpt lat="44.5981233" lon="7.8921017"><ele>227.0</ele><time>2026-04-12T14:28:19.065Z</time></trkpt><trkpt lat="44.598015" lon="7.892055"><ele>227.0</ele><time>2026-04-12T14:28:21.063Z</time></trkpt><trkpt lat="44.597895" lon="7.8919983"><ele>227.0</ele><time>2026-04-12T14:28:23.063Z</time></trkpt><trkpt lat="44.597835" lon="7.8919683"><ele>227.0</ele><time>2026-04-12T14:28:24.062Z</time></trkpt><trkpt lat="44.5977733" lon="7.8919417"><ele>226.8</ele><time>2026-04-12T14:28:25.062Z</time></trkpt><trkpt lat="44.5976533" lon="7.8918917"><ele>226.6</ele><time>2026-04-12T14:28:27.063Z</time></trkpt><trkpt lat="44.5975333" lon="7.8918533"><ele>226.40000000000003</ele><time>2026-04-12T14:28:29.062Z</time></trkpt><trkpt lat="44.5974783" lon="7.891805"><ele>226.20000000000002</ele><time>2026-04-12T14:28:30.062Z</time></trkpt><trkpt lat="44.5974283" lon="7.8916533"><ele>226.0</ele><time>2026-04-12T14:28:32.062Z</time></trkpt><trkpt lat="44.5975" lon="7.8915367"><ele>225.49999999999997</ele><time>2026-04-12T14:28:34.062Z</time></trkpt><trkpt lat="44.597575" lon="7.891505"><ele>225.0</ele><time>2026-04-12T14:28:35.06Z</time></trkpt><trkpt lat="44.5976483" lon="7.891475"><ele>224.5</ele><time>2026-04-12T14:28:36.063Z</time></trkpt><trkpt lat="44.5977217" lon="7.89144"><ele>224.0</ele><time>2026-04-12T14:28:37.064Z</time></trkpt><trkpt lat="44.59779" lon="7.8913883"><ele>223.49999999999997</ele><time>2026-04-12T14:28:38.063Z</time></trkpt><trkpt lat="44.597855" lon="7.89133"><ele>223.0</ele><time>2026-04-12T14:28:39.063Z</time></trkpt><trkpt lat="44.5979183" lon="7.8912617"><ele>222.99999999999997</ele><time>2026-04-12T14:28:40.063Z</time></trkpt><trkpt lat="44.5979767" lon="7.8911833"><ele>223.0</ele><time>2026-04-12T14:28:41.063Z</time></trkpt><trkpt lat="44.59803" lon="7.891095"><ele>223.0</ele><time>2026-04-12T14:28:42.06Z</time></trkpt><trkpt lat="44.598075" lon="7.8909933"><ele>223.0</ele><time>2026-04-12T14:28:43.061Z</time></trkpt><trkpt lat="44.598115" lon="7.89089"><ele>222.99999999999997</ele><time>2026-04-12T14:28:44.062Z</time></trkpt><trkpt lat="44.598145" lon="7.890775"><ele>223.0</ele><time>2026-04-12T14:28:45.065Z</time></trkpt><trkpt lat="44.5981733" lon="7.89066"><ele>222.2</ele><time>2026-04-12T14:28:46.062Z</time></trkpt><trkpt lat="44.5982017" lon="7.89054"><ele>221.4</ele><time>2026-04-12T14:28:47.061Z</time></trkpt><trkpt lat="44.5982267" lon="7.8904183"><ele>220.59999999999997</ele><time>2026-04-12T14:28:48.063Z</time></trkpt><trkpt lat="44.5982533" lon="7.890295"><ele>219.79999999999998</ele><time>2026-04-12T14:28:49.06Z</time></trkpt><trkpt lat="44.598275" lon="7.8901717"><ele>219.0</ele><time>2026-04-12T14:28:50.063Z</time></trkpt><trkpt lat="44.598295" lon="7.890045"><ele>218.79999999999998</ele><time>2026-04-12T14:28:51.066Z</time></trkpt><trkpt lat="44.59831" lon="7.889915"><ele>218.59999999999997</ele><time>2026-04-12T14:28:52.062Z</time></trkpt><trkpt lat="44.5983233" lon="7.8897817"><ele>218.4</ele><time>2026-04-12T14:28:53.061Z</time></trkpt><trkpt lat="44.5983333" lon="7.8896517"><ele>218.2</ele><time>2026-04-12T14:28:54.063Z</time></trkpt><trkpt lat="44.5983417" lon="7.8895217"><ele>218.0</ele><time>2026-04-12T14:28:55.062Z</time></trkpt><trkpt lat="44.598345" lon="7.8893917"><ele>218.00000000000003</ele><time>2026-04-12T14:28:56.062Z</time></trkpt><trkpt lat="44.598345" lon="7.8892667"><ele>218.0</ele><time>2026-04-12T14:28:57.063Z</time></trkpt><trkpt lat="44.598345" lon="7.88914"><ele>218.0</ele><time>2026-04-12T14:28:58.062Z</time></trkpt><trkpt lat="44.5983433" lon="7.8890167"><ele>218.0</ele><time>2026-04-12T14:28:59.065Z</time></trkpt><trkpt lat="44.5983383" lon="7.8888933"><ele>218.00000000000003</ele><time>2026-04-12T14:29:00.064Z</time></trkpt><trkpt lat="44.59833" lon="7.8887717"><ele>218.0</ele><time>2026-04-12T14:29:01.062Z</time></trkpt><trkpt lat="44.5983233" lon="7.8886517"><ele>217.50000000000003</ele><time>2026-04-12T14:29:02.06Z</time></trkpt><trkpt lat="44.5983167" lon="7.8885333"><ele>217.0</ele><time>2026-04-12T14:29:03.062Z</time></trkpt><trkpt lat="44.5983067" lon="7.888415"><ele>216.5</ele><time>2026-04-12T14:29:04.064Z</time></trkpt><trkpt lat="44.5982933" lon="7.8883017"><ele>216.0</ele><time>2026-04-12T14:29:05.063Z</time></trkpt><trkpt lat="44.59828" lon="7.8881867"><ele>215.50000000000003</ele><time>2026-04-12T14:29:06.062Z</time></trkpt><trkpt lat="44.5982617" lon="7.8880733"><ele>215.0</ele><time>2026-04-12T14:29:07.062Z</time></trkpt><trkpt lat="44.5982433" lon="7.88796"><ele>214.50000000000003</ele><time>2026-04-12T14:29:08.063Z</time></trkpt><trkpt lat="44.598225" lon="7.8878483"><ele>214.0</ele><time>2026-04-12T14:29:09.064Z</time></trkpt><trkpt lat="44.598205" lon="7.8877367"><ele>213.5</ele><time>2026-04-12T14:29:10.062Z</time></trkpt><trkpt lat="44.5981817" lon="7.8876283"><ele>213.0</ele><time>2026-04-12T14:29:11.063Z</time></trkpt><trkpt lat="44.59816" lon="7.8875217"><ele>212.50000000000003</ele><time>2026-04-12T14:29:12.063Z</time></trkpt><trkpt lat="44.5981367" lon="7.887415"><ele>212.0</ele><time>2026-04-12T14:29:13.063Z</time></trkpt><trkpt lat="44.5981133" lon="7.8873083"><ele>211.50000000000003</ele><time>2026-04-12T14:29:14.061Z</time></trkpt><trkpt lat="44.5980917" lon="7.887205"><ele>211.0</ele><time>2026-04-12T14:29:15.062Z</time></trkpt><trkpt lat="44.5980717" lon="7.8871017"><ele>210.5</ele><time>2026-04-12T14:29:16.063Z</time></trkpt><trkpt lat="44.5980533" lon="7.8869983"><ele>210.0</ele><time>2026-04-12T14:29:17.061Z</time></trkpt><trkpt lat="44.598035" lon="7.886895"><ele>209.50000000000003</ele><time>2026-04-12T14:29:18.062Z</time></trkpt><trkpt lat="44.5980183" lon="7.88679"><ele>209.0</ele><time>2026-04-12T14:29:19.062Z</time></trkpt><trkpt lat="44.5979983" lon="7.886685"><ele>208.66666666666669</ele><time>2026-04-12T14:29:20.063Z</time></trkpt><trkpt lat="44.59798" lon="7.88658"><ele>208.33333333333334</ele><time>2026-04-12T14:29:21.062Z</time></trkpt><trkpt lat="44.5979617" lon="7.8864767"><ele>208.0</ele><time>2026-04-12T14:29:22.063Z</time></trkpt><trkpt lat="44.5979433" lon="7.8863733"><ele>207.66666666666669</ele><time>2026-04-12T14:29:23.062Z</time></trkpt><trkpt lat="44.5979233" lon="7.8862717"><ele>207.33333333333334</ele><time>2026-04-12T14:29:24.062Z</time></trkpt><trkpt lat="44.5979033" lon="7.8861733"><ele>207.0</ele><time>2026-04-12T14:29:25.061Z</time></trkpt><trkpt lat="44.597885" lon="7.8860733"><ele>207.00000000000003</ele><time>2026-04-12T14:29:26.062Z</time></trkpt><trkpt lat="44.59787" lon="7.8859733"><ele>207.0</ele><time>2026-04-12T14:29:27.064Z</time></trkpt><trkpt lat="44.597855" lon="7.8858733"><ele>207.0</ele><time>2026-04-12T14:29:28.063Z</time></trkpt><trkpt lat="44.5978367" lon="7.885775"><ele>207.0</ele><time>2026-04-12T14:29:29.062Z</time></trkpt><trkpt lat="44.59782" lon="7.88568"><ele>207.0</ele><time>2026-04-12T14:29:30.064Z</time></trkpt><trkpt lat="44.597805" lon="7.885585"><ele>207.00000000000003</ele><time>2026-04-12T14:29:31.063Z</time></trkpt><trkpt lat="44.5977917" lon="7.885495"><ele>207.0</ele><time>2026-04-12T14:29:32.06Z</time></trkpt><trkpt lat="44.5977767" lon="7.8854033"><ele>207.42857142857144</ele><time>2026-04-12T14:29:33.063Z</time></trkpt><trkpt lat="44.597765" lon="7.8853083"><ele>207.85714285714286</ele><time>2026-04-12T14:29:34.061Z</time></trkpt><trkpt lat="44.5977533" lon="7.8852117"><ele>208.28571428571428</ele><time>2026-04-12T14:29:35.062Z</time></trkpt><trkpt lat="44.5977433" lon="7.8851167"><ele>208.71428571428572</ele><time>2026-04-12T14:29:36.062Z</time></trkpt><trkpt lat="44.5977333" lon="7.8850233"><ele>209.14285714285714</ele><time>2026-04-12T14:29:37.062Z</time></trkpt><trkpt lat="44.5977283" lon="7.88493"><ele>209.57142857142858</ele><time>2026-04-12T14:29:38.062Z</time></trkpt><trkpt lat="44.5977233" lon="7.8848383"><ele>210.0</ele><time>2026-04-12T14:29:39.063Z</time></trkpt><trkpt lat="44.5977183" lon="7.8847433"><ele>210.0</ele><time>2026-04-12T14:29:40.063Z</time></trkpt><trkpt lat="44.59771" lon="7.88465"><ele>210.0</ele><time>2026-04-12T14:29:41.061Z</time></trkpt><trkpt lat="44.597705" lon="7.8845567"><ele>210.0</ele><time>2026-04-12T14:29:42.061Z</time></trkpt><trkpt lat="44.5976983" lon="7.884465"><ele>210.0</ele><time>2026-04-12T14:29:43.064Z</time></trkpt><trkpt lat="44.5976983" lon="7.88437"><ele>210.0</ele><time>2026-04-12T14:29:44.063Z</time></trkpt><trkpt lat="44.5976983" lon="7.884275"><ele>210.0</ele><time>2026-04-12T14:29:45.065Z</time></trkpt><trkpt lat="44.5977" lon="7.8841817"><ele>210.0</ele><time>2026-04-12T14:29:46.063Z</time></trkpt><trkpt lat="44.5977033" lon="7.8840883"><ele>210.2</ele><time>2026-04-12T14:29:47.063Z</time></trkpt><trkpt lat="44.5977083" lon="7.8839967"><ele>210.4</ele><time>2026-04-12T14:29:48.064Z</time></trkpt><trkpt lat="44.5977117" lon="7.8838267"><ele>210.60000000000002</ele><time>2026-04-12T14:29:50.063Z</time></trkpt><trkpt lat="44.5976717" lon="7.88369"><ele>210.8</ele><time>2026-04-12T14:29:52.063Z</time></trkpt><trkpt lat="44.597575" lon="7.8836933"><ele>211.0</ele><time>2026-04-12T14:29:54.064Z</time></trkpt><trkpt lat="44.5975233" lon="7.8838383"><ele>210.99999999999997</ele><time>2026-04-12T14:29:56.065Z</time></trkpt><trkpt lat="44.5974967" lon="7.8840117"><ele>211.0</ele><time>2026-04-12T14:29:58.063Z</time></trkpt><trkpt lat="44.5974933" lon="7.8841083"><ele>211.0</ele><time>2026-04-12T14:29:59.06Z</time></trkpt><trkpt lat="44.5974917" lon="7.88421"><ele>211.0</ele><time>2026-04-12T14:30:00.063Z</time></trkpt><trkpt lat="44.5974917" lon="7.884315"><ele>210.99999999999997</ele><time>2026-04-12T14:30:01.062Z</time></trkpt><trkpt lat="44.597495" lon="7.8844267"><ele>211.0</ele><time>2026-04-12T14:30:02.063Z</time></trkpt><trkpt lat="44.5974967" lon="7.88454"><ele>210.83333333333331</ele><time>2026-04-12T14:30:03.064Z</time></trkpt><trkpt lat="44.597495" lon="7.88465"><ele>210.66666666666666</ele><time>2026-04-12T14:30:04.063Z</time></trkpt><trkpt lat="44.5974883" lon="7.88476"><ele>210.5</ele><time>2026-04-12T14:30:05.061Z</time></trkpt><trkpt lat="44.597475" lon="7.8848683"><ele>210.33333333333331</ele><time>2026-04-12T14:30:06.062Z</time></trkpt><trkpt lat="44.5974533" lon="7.8849733"><ele>210.16666666666666</ele><time>2026-04-12T14:30:07.063Z</time></trkpt><trkpt lat="44.5974233" lon="7.8850717"><ele>210.0</ele><time>2026-04-12T14:30:08.065Z</time></trkpt><trkpt lat="44.5973867" lon="7.8851683"><ele>210.0</ele><time>2026-04-12T14:30:09.062Z</time></trkpt><trkpt lat="44.5973483" lon="7.8852617"><ele>210.0</ele><time>2026-04-12T14:30:10.064Z</time></trkpt><trkpt lat="44.5973033" lon="7.885345"><ele>210.0</ele><time>2026-04-12T14:30:11.064Z</time></trkpt><trkpt lat="44.5972583" lon="7.885425"><ele>210.0</ele><time>2026-04-12T14:30:12.063Z</time></trkpt><trkpt lat="44.5972183" lon="7.885505"><ele>210.0</ele><time>2026-04-12T14:30:13.062Z</time></trkpt><trkpt lat="44.5971767" lon="7.8855783"><ele>210.0</ele><time>2026-04-12T14:30:14.062Z</time></trkpt><trkpt lat="44.597095" lon="7.8857117"><ele>210.0</ele><time>2026-04-12T14:30:16.063Z</time></trkpt><trkpt lat="44.5970133" lon="7.8858283"><ele>210.0</ele><time>2026-04-12T14:30:18.062Z</time></trkpt><trkpt lat="44.5969283" lon="7.8859483"><ele>210.0</ele><time>2026-04-12T14:30:20.063Z</time></trkpt><trkpt lat="44.5968433" lon="7.8860633"><ele>210.0</ele><time>2026-04-12T14:30:22.061Z</time></trkpt><trkpt lat="44.5967583" lon="7.88618"><ele>209.75</ele><time>2026-04-12T14:30:24.063Z</time></trkpt><trkpt lat="44.5966733" lon="7.8862983"><ele>209.5</ele><time>2026-04-12T14:30:26.064Z</time></trkpt><trkpt lat="44.5965883" lon="7.88641"><ele>209.25</ele><time>2026-04-12T14:30:28.062Z</time></trkpt><trkpt lat="44.596495" lon="7.8865167"><ele>209.0</ele><time>2026-04-12T14:30:30.062Z</time></trkpt><trkpt lat="44.5963933" lon="7.88661"><ele>209.00000000000003</ele><time>2026-04-12T14:30:32.063Z</time></trkpt><trkpt lat="44.59628" lon="7.88667"><ele>209.0</ele><time>2026-04-12T14:30:34.061Z</time></trkpt><trkpt lat="44.596155" lon="7.886685"><ele>209.0</ele><time>2026-04-12T14:30:36.062Z</time></trkpt><trkpt lat="44.5960917" lon="7.8866917"><ele>209.0</ele><time>2026-04-12T14:30:37.061Z</time></trkpt><trkpt lat="44.596025" lon="7.8866983"><ele>209.00000000000003</ele><time>2026-04-12T14:30:38.064Z</time></trkpt><trkpt lat="44.5959567" lon="7.8867033"><ele>209.0</ele><time>2026-04-12T14:30:39.062Z</time></trkpt><trkpt lat="44.59589" lon="7.88671"><ele>209.14285714285714</ele><time>2026-04-12T14:30:40.064Z</time></trkpt><trkpt lat="44.5958217" lon="7.88672"><ele>209.28571428571428</ele><time>2026-04-12T14:30:41.061Z</time></trkpt><trkpt lat="44.59575" lon="7.88673"><ele>209.42857142857144</ele><time>2026-04-12T14:30:42.064Z</time></trkpt><trkpt lat="44.59568" lon="7.8867483"><ele>209.57142857142856</ele><time>2026-04-12T14:30:43.062Z</time></trkpt><trkpt lat="44.59561" lon="7.8867617"><ele>209.71428571428572</ele><time>2026-04-12T14:30:44.064Z</time></trkpt><trkpt lat="44.5955383" lon="7.88678"><ele>209.85714285714286</ele><time>2026-04-12T14:30:45.064Z</time></trkpt><trkpt lat="44.5954633" lon="7.8868"><ele>210.0</ele><time>2026-04-12T14:30:46.063Z</time></trkpt><trkpt lat="44.5953933" lon="7.88683"><ele>210.0</ele><time>2026-04-12T14:30:47.061Z</time></trkpt><trkpt lat="44.5953267" lon="7.8868633"><ele>210.0</ele><time>2026-04-12T14:30:48.062Z</time></trkpt><trkpt lat="44.5952617" lon="7.8868867"><ele>210.0</ele><time>2026-04-12T14:30:49.063Z</time></trkpt><trkpt lat="44.5951967" lon="7.8869033"><ele>210.0</ele><time>2026-04-12T14:30:50.063Z</time></trkpt><trkpt lat="44.59513" lon="7.8869167"><ele>210.0</ele><time>2026-04-12T14:30:51.061Z</time></trkpt><trkpt lat="44.595065" lon="7.88693"><ele>210.0</ele><time>2026-04-12T14:30:52.059Z</time></trkpt><trkpt lat="44.595" lon="7.88694"><ele>210.0</ele><time>2026-04-12T14:30:53.063Z</time></trkpt><trkpt lat="44.5949317" lon="7.8869467"><ele>210.0</ele><time>2026-04-12T14:30:54.062Z</time></trkpt><trkpt lat="44.5948633" lon="7.8869517"><ele>210.0</ele><time>2026-04-12T14:30:55.063Z</time></trkpt><trkpt lat="44.5947967" lon="7.886955"><ele>210.0</ele><time>2026-04-12T14:30:56.063Z</time></trkpt><trkpt lat="44.59473" lon="7.8869533"><ele>210.0</ele><time>2026-04-12T14:30:57.063Z</time></trkpt><trkpt lat="44.5946633" lon="7.8869467"><ele>210.0</ele><time>2026-04-12T14:30:58.064Z</time></trkpt><trkpt lat="44.5945967" lon="7.8869383"><ele>210.0</ele><time>2026-04-12T14:30:59.062Z</time></trkpt><trkpt lat="44.5945283" lon="7.8869233"><ele>210.0</ele><time>2026-04-12T14:31:00.063Z</time></trkpt><trkpt lat="44.5944633" lon="7.88691"><ele>210.14285714285714</ele><time>2026-04-12T14:31:01.063Z</time></trkpt><trkpt lat="44.5943983" lon="7.8868917"><ele>210.28571428571428</ele><time>2026-04-12T14:31:02.063Z</time></trkpt><trkpt lat="44.5943333" lon="7.886875"><ele>210.42857142857144</ele><time>2026-04-12T14:31:03.062Z</time></trkpt><trkpt lat="44.59427" lon="7.8868583"><ele>210.57142857142856</ele><time>2026-04-12T14:31:04.063Z</time></trkpt><trkpt lat="44.5942067" lon="7.8868433"><ele>210.71428571428572</ele><time>2026-04-12T14:31:05.064Z</time></trkpt><trkpt lat="44.5941433" lon="7.8868233"><ele>210.85714285714286</ele><time>2026-04-12T14:31:06.062Z</time></trkpt><trkpt lat="44.5940767" lon="7.886805"><ele>211.0</ele><time>2026-04-12T14:31:07.061Z</time></trkpt><trkpt lat="44.5940117" lon="7.8867867"><ele>211.0</ele><time>2026-04-12T14:31:08.062Z</time></trkpt><trkpt lat="44.5939467" lon="7.8867733"><ele>211.0</ele><time>2026-04-12T14:31:09.062Z</time></trkpt><trkpt lat="44.59388" lon="7.8867633"><ele>211.0</ele><time>2026-04-12T14:31:10.063Z</time></trkpt><trkpt lat="44.5938133" lon="7.8867517"><ele>211.0</ele><time>2026-04-12T14:31:11.063Z</time></trkpt><trkpt lat="44.5937483" lon="7.8867383"><ele>211.0</ele><time>2026-04-12T14:31:12.061Z</time></trkpt><trkpt lat="44.5936833" lon="7.8867233"><ele>211.0</ele><time>2026-04-12T14:31:13.063Z</time></trkpt><trkpt lat="44.59362" lon="7.8867083"><ele>211.0</ele><time>2026-04-12T14:31:14.062Z</time></trkpt><trkpt lat="44.593555" lon="7.88669"><ele>211.0</ele><time>2026-04-12T14:31:15.063Z</time></trkpt><trkpt lat="44.5934917" lon="7.8866717"><ele>211.0</ele><time>2026-04-12T14:31:16.062Z</time></trkpt><trkpt lat="44.5934283" lon="7.8866567"><ele>211.0</ele><time>2026-04-12T14:31:17.062Z</time></trkpt><trkpt lat="44.5933633" lon="7.88664"><ele>211.0</ele><time>2026-04-12T14:31:18.062Z</time></trkpt><trkpt lat="44.5933017" lon="7.8866217"><ele>211.0</ele><time>2026-04-12T14:31:19.062Z</time></trkpt><trkpt lat="44.59324" lon="7.8866033"><ele>211.0</ele><time>2026-04-12T14:31:20.063Z</time></trkpt><trkpt lat="44.593175" lon="7.8865833"><ele>211.0</ele><time>2026-04-12T14:31:21.063Z</time></trkpt><trkpt lat="44.5931117" lon="7.88656"><ele>210.99999999999997</ele><time>2026-04-12T14:31:22.061Z</time></trkpt><trkpt lat="44.5930483" lon="7.8865367"><ele>211.0</ele><time>2026-04-12T14:31:23.061Z</time></trkpt><trkpt lat="44.5929867" lon="7.88651"><ele>211.0</ele><time>2026-04-12T14:31:24.062Z</time></trkpt><trkpt lat="44.5928683" lon="7.8864433"><ele>211.0</ele><time>2026-04-12T14:31:26.061Z</time></trkpt><trkpt lat="44.5928117" lon="7.8863983"><ele>210.99999999999997</ele><time>2026-04-12T14:31:27.061Z</time></trkpt><trkpt lat="44.5927583" lon="7.8863433"><ele>211.0</ele><time>2026-04-12T14:31:28.063Z</time></trkpt><trkpt lat="44.5927083" lon="7.8862783"><ele>210.99999999999997</ele><time>2026-04-12T14:31:29.061Z</time></trkpt><trkpt lat="44.5926633" lon="7.8862033"><ele>211.0</ele><time>2026-04-12T14:31:30.062Z</time></trkpt><trkpt lat="44.59263" lon="7.8861217"><ele>211.0</ele><time>2026-04-12T14:31:31.062Z</time></trkpt><trkpt lat="44.5926033" lon="7.8860367"><ele>211.0</ele><time>2026-04-12T14:31:32.062Z</time></trkpt><trkpt lat="44.5925733" lon="7.8858733"><ele>210.99999999999997</ele><time>2026-04-12T14:31:34.062Z</time></trkpt><trkpt lat="44.5925567" lon="7.8857217"><ele>211.0</ele><time>2026-04-12T14:31:36.064Z</time></trkpt><trkpt lat="44.5925317" lon="7.8855917"><ele>211.66666666666666</ele><time>2026-04-12T14:31:38.059Z</time></trkpt><trkpt lat="44.59251" lon="7.8854683"><ele>212.33333333333331</ele><time>2026-04-12T14:31:40.061Z</time></trkpt><trkpt lat="44.5924967" lon="7.885355"><ele>213.0</ele><time>2026-04-12T14:31:42.062Z</time></trkpt><trkpt lat="44.5924867" lon="7.8852583"><ele>213.66666666666669</ele><time>2026-04-12T14:31:44.06Z</time></trkpt><trkpt lat="44.592475" lon="7.88515"><ele>214.33333333333334</ele><time>2026-04-12T14:31:46.062Z</time></trkpt><trkpt lat="44.5924583" lon="7.8850333"><ele>215.0</ele><time>2026-04-12T14:31:48.063Z</time></trkpt><trkpt lat="44.5924367" lon="7.8849233"><ele>215.33333333333334</ele><time>2026-04-12T14:31:50.067Z</time></trkpt><trkpt lat="44.5924167" lon="7.8848117"><ele>215.66666666666669</ele><time>2026-04-12T14:31:52.061Z</time></trkpt><trkpt lat="44.5924" lon="7.8847067"><ele>216.0</ele><time>2026-04-12T14:31:54.061Z</time></trkpt><trkpt lat="44.59239" lon="7.8846117"><ele>216.33333333333331</ele><time>2026-04-12T14:31:56.061Z</time></trkpt><trkpt lat="44.5923817" lon="7.8845233"><ele>216.66666666666666</ele><time>2026-04-12T14:31:58.063Z</time></trkpt><trkpt lat="44.5923683" lon="7.88443"><ele>217.0</ele><time>2026-04-12T14:32:00.062Z</time></trkpt><trkpt lat="44.59235" lon="7.8843017"><ele>217.99999999999997</ele><time>2026-04-12T14:32:03.064Z</time></trkpt><trkpt lat="44.59234" lon="7.8842117"><ele>219.0</ele><time>2026-04-12T14:32:05.062Z</time></trkpt><trkpt lat="44.5923217" lon="7.8840817"><ele>220.0</ele><time>2026-04-12T14:32:08.064Z</time></trkpt><trkpt lat="44.5922983" lon="7.8839583"><ele>221.0</ele><time>2026-04-12T14:32:11.06Z</time></trkpt><trkpt lat="44.5922783" lon="7.88385"><ele>221.99999999999997</ele><time>2026-04-12T14:32:14.061Z</time></trkpt><trkpt lat="44.5922683" lon="7.8837467"><ele>223.0</ele><time>2026-04-12T14:32:17.061Z</time></trkpt><trkpt lat="44.5922733" lon="7.88364"><ele>222.99999999999997</ele><time>2026-04-12T14:32:20.062Z</time></trkpt><trkpt lat="44.59229" lon="7.8835133"><ele>223.0</ele><time>2026-04-12T14:32:23.062Z</time></trkpt><trkpt lat="44.592305" lon="7.8834233"><ele>223.0</ele><time>2026-04-12T14:32:25.062Z</time></trkpt><trkpt lat="44.5923183" lon="7.8833333"><ele>223.0</ele><time>2026-04-12T14:32:27.064Z</time></trkpt><trkpt lat="44.5923367" lon="7.8832167"><ele>222.99999999999997</ele><time>2026-04-12T14:32:30.062Z</time></trkpt><trkpt lat="44.5923633" lon="7.8831017"><ele>223.0</ele><time>2026-04-12T14:32:33.062Z</time></trkpt><trkpt lat="44.5923867" lon="7.8829833"><ele>223.33333333333331</ele><time>2026-04-12T14:32:36.06Z</time></trkpt><trkpt lat="44.5924133" lon="7.8828667"><ele>223.66666666666666</ele><time>2026-04-12T14:32:39.063Z</time></trkpt><trkpt lat="44.592435" lon="7.8827517"><ele>224.0</ele><time>2026-04-12T14:32:42.065Z</time></trkpt><trkpt lat="44.592465" lon="7.8826333"><ele>224.33333333333331</ele><time>2026-04-12T14:32:45.061Z</time></trkpt><trkpt lat="44.59249" lon="7.8825167"><ele>224.66666666666666</ele><time>2026-04-12T14:32:48.06Z</time></trkpt><trkpt lat="44.592515" lon="7.8824067"><ele>225.0</ele><time>2026-04-12T14:32:51.063Z</time></trkpt><trkpt lat="44.5925417" lon="7.8823033"><ele>225.33333333333334</ele><time>2026-04-12T14:32:54.061Z</time></trkpt><trkpt lat="44.592575" lon="7.8822017"><ele>225.66666666666669</ele><time>2026-04-12T14:32:57.062Z</time></trkpt><trkpt lat="44.5925967" lon="7.8820883"><ele>226.0</ele><time>2026-04-12T14:33:00.06Z</time></trkpt><trkpt lat="44.592625" lon="7.8819783"><ele>226.33333333333334</ele><time>2026-04-12T14:33:03.063Z</time></trkpt><trkpt lat="44.5926567" lon="7.881875"><ele>226.66666666666669</ele><time>2026-04-12T14:33:06.063Z</time></trkpt><trkpt lat="44.592685" lon="7.8817667"><ele>227.0</ele><time>2026-04-12T14:33:09.064Z</time></trkpt><trkpt lat="44.5927133" lon="7.8816533"><ele>227.66666666666669</ele><time>2026-04-12T14:33:12.063Z</time></trkpt><trkpt lat="44.5927417" lon="7.8815467"><ele>228.33333333333334</ele><time>2026-04-12T14:33:15.063Z</time></trkpt><trkpt lat="44.5927617" lon="7.88144"><ele>229.0</ele><time>2026-04-12T14:33:18.061Z</time></trkpt><trkpt lat="44.5927967" lon="7.8813467"><ele>229.66666666666669</ele><time>2026-04-12T14:33:21.062Z</time></trkpt><trkpt lat="44.5928533" lon="7.8812633"><ele>230.33333333333334</ele><time>2026-04-12T14:33:24.061Z</time></trkpt><trkpt lat="44.5929267" lon="7.8812033"><ele>231.0</ele><time>2026-04-12T14:33:27.064Z</time></trkpt><trkpt lat="44.5930067" lon="7.8811817"><ele>231.66666666666666</ele><time>2026-04-12T14:33:30.062Z</time></trkpt><trkpt lat="44.59309" lon="7.8811683"><ele>232.33333333333331</ele><time>2026-04-12T14:33:33.062Z</time></trkpt><trkpt lat="44.5931717" lon="7.8811583"><ele>233.0</ele><time>2026-04-12T14:33:36.062Z</time></trkpt><trkpt lat="44.5932483" lon="7.88115"><ele>233.66666666666666</ele><time>2026-04-12T14:33:39.063Z</time></trkpt><trkpt lat="44.5933267" lon="7.8811467"><ele>234.33333333333331</ele><time>2026-04-12T14:33:42.062Z</time></trkpt><trkpt lat="44.593405" lon="7.8811517"><ele>235.0</ele><time>2026-04-12T14:33:45.064Z</time></trkpt><trkpt lat="44.5934783" lon="7.881145"><ele>234.99999999999997</ele><time>2026-04-12T14:33:48.062Z</time></trkpt><trkpt lat="44.593555" lon="7.88114"><ele>235.0</ele><time>2026-04-12T14:33:51.063Z</time></trkpt><trkpt lat="44.5936283" lon="7.881125"><ele>235.0</ele><time>2026-04-12T14:33:54.062Z</time></trkpt><trkpt lat="44.5937" lon="7.881085"><ele>235.0</ele><time>2026-04-12T14:33:57.064Z</time></trkpt><trkpt lat="44.5937583" lon="7.8809967"><ele>234.99999999999997</ele><time>2026-04-12T14:34:00.064Z</time></trkpt><trkpt lat="44.5937817" lon="7.8809133"><ele>235.0</ele><time>2026-04-12T14:34:02.062Z</time></trkpt><trkpt lat="44.5937867" lon="7.8807917"><ele>236.42857142857142</ele><time>2026-04-12T14:34:05.063Z</time></trkpt><trkpt lat="44.5937533" lon="7.8807033"><ele>237.85714285714283</ele><time>2026-04-12T14:34:07.062Z</time></trkpt><trkpt lat="44.593705" lon="7.88063"><ele>239.28571428571428</ele><time>2026-04-12T14:34:09.065Z</time></trkpt><trkpt lat="44.5936517" lon="7.8805667"><ele>240.71428571428572</ele><time>2026-04-12T14:34:11.061Z</time></trkpt><trkpt lat="44.5936117" lon="7.8804967"><ele>242.14285714285714</ele><time>2026-04-12T14:34:13.063Z</time></trkpt><trkpt lat="44.593575" lon="7.88038"><ele>243.57142857142856</ele><time>2026-04-12T14:34:16.062Z</time></trkpt><trkpt lat="44.5935567" lon="7.8802933"><ele>245.0</ele><time>2026-04-12T14:34:18.065Z</time></trkpt><trkpt lat="44.5935333" lon="7.88021"><ele>245.16666666666669</ele><time>2026-04-12T14:34:20.063Z</time></trkpt><trkpt lat="44.5935133" lon="7.8801217"><ele>245.33333333333334</ele><time>2026-04-12T14:34:22.058Z</time></trkpt><trkpt lat="44.5934717" lon="7.8800067"><ele>245.5</ele><time>2026-04-12T14:34:25.062Z</time></trkpt><trkpt lat="44.5934283" lon="7.87989"><ele>245.66666666666669</ele><time>2026-04-12T14:34:28.061Z</time></trkpt><trkpt lat="44.5933983" lon="7.8797767"><ele>245.83333333333334</ele><time>2026-04-12T14:34:31.063Z</time></trkpt><trkpt lat="44.5933817" lon="7.8796617"><ele>246.0</ele><time>2026-04-12T14:34:34.064Z</time></trkpt><trkpt lat="44.5933717" lon="7.8795383"><ele>247.4</ele><time>2026-04-12T14:34:37.061Z</time></trkpt><trkpt lat="44.5933733" lon="7.8794167"><ele>248.8</ele><time>2026-04-12T14:34:40.064Z</time></trkpt><trkpt lat="44.5933883" lon="7.8792867"><ele>250.20000000000002</ele><time>2026-04-12T14:34:43.063Z</time></trkpt><trkpt lat="44.5934067" lon="7.8791617"><ele>251.60000000000002</ele><time>2026-04-12T14:34:46.062Z</time></trkpt><trkpt lat="44.5934233" lon="7.879035"><ele>253.0</ele><time>2026-04-12T14:34:49.064Z</time></trkpt><trkpt lat="44.5934433" lon="7.878915"><ele>253.83333333333331</ele><time>2026-04-12T14:34:52.063Z</time></trkpt><trkpt lat="44.5934633" lon="7.8787933"><ele>254.66666666666666</ele><time>2026-04-12T14:34:55.063Z</time></trkpt><trkpt lat="44.59349" lon="7.8786767"><ele>255.5</ele><time>2026-04-12T14:34:58.066Z</time></trkpt><trkpt lat="44.593515" lon="7.8785567"><ele>256.3333333333333</ele><time>2026-04-12T14:35:01.062Z</time></trkpt><trkpt lat="44.5935417" lon="7.8784383"><ele>257.1666666666667</ele><time>2026-04-12T14:35:04.063Z</time></trkpt><trkpt lat="44.5935617" lon="7.87832"><ele>258.0</ele><time>2026-04-12T14:35:07.066Z</time></trkpt><trkpt lat="44.593585" lon="7.878205"><ele>258.3333333333333</ele><time>2026-04-12T14:35:10.062Z</time></trkpt><trkpt lat="44.59361" lon="7.8780933"><ele>258.6666666666667</ele><time>2026-04-12T14:35:13.063Z</time></trkpt><trkpt lat="44.59363" lon="7.8779767"><ele>259.0</ele><time>2026-04-12T14:35:16.066Z</time></trkpt><trkpt lat="44.5936433" lon="7.8778867"><ele>259.33333333333337</ele><time>2026-04-12T14:35:18.062Z</time></trkpt><trkpt lat="44.593655" lon="7.877765"><ele>259.6666666666667</ele><time>2026-04-12T14:35:21.061Z</time></trkpt><trkpt lat="44.5936783" lon="7.8776483"><ele>260.0</ele><time>2026-04-12T14:35:24.063Z</time></trkpt><trkpt lat="44.5937" lon="7.8775633"><ele>264.33333333333337</ele><time>2026-04-12T14:35:26.061Z</time></trkpt><trkpt lat="44.5937217" lon="7.87744"><ele>268.6666666666667</ele><time>2026-04-12T14:35:29.061Z</time></trkpt><trkpt lat="44.5937383" lon="7.8773183"><ele>273.0</ele><time>2026-04-12T14:35:32.063Z</time></trkpt><trkpt lat="44.5937633" lon="7.8771983"><ele>277.3333333333333</ele><time>2026-04-12T14:35:35.063Z</time></trkpt><trkpt lat="44.59378" lon="7.8770683"><ele>281.66666666666663</ele><time>2026-04-12T14:35:38.063Z</time></trkpt><trkpt lat="44.5937933" lon="7.8769817"><ele>286.0</ele><time>2026-04-12T14:35:40.062Z</time></trkpt><trkpt lat="44.5938167" lon="7.8768617"><ele>286.0</ele><time>2026-04-12T14:35:43.062Z</time></trkpt><trkpt lat="44.5938367" lon="7.8767467"><ele>286.0</ele><time>2026-04-12T14:35:46.062Z</time></trkpt><trkpt lat="44.5938933" lon="7.876665"><ele>286.0</ele><time>2026-04-12T14:35:49.063Z</time></trkpt><trkpt lat="44.593975" lon="7.876685"><ele>286.0</ele><time>2026-04-12T14:35:52.062Z</time></trkpt><trkpt lat="44.5940217" lon="7.876795"><ele>286.0</ele><time>2026-04-12T14:35:55.062Z</time></trkpt><trkpt lat="44.5940283" lon="7.876885"><ele>286.0</ele><time>2026-04-12T14:35:57.066Z</time></trkpt><trkpt lat="44.5940333" lon="7.8769767"><ele>286.0</ele><time>2026-04-12T14:35:59.059Z</time></trkpt><trkpt lat="44.5940433" lon="7.877105"><ele>286.0</ele><time>2026-04-12T14:36:02.061Z</time></trkpt><trkpt lat="44.5940517" lon="7.8772283"><ele>286.0</ele><time>2026-04-12T14:36:05.062Z</time></trkpt><trkpt lat="44.594065" lon="7.8773533"><ele>286.0</ele><time>2026-04-12T14:36:08.063Z</time></trkpt><trkpt lat="44.5940783" lon="7.877475"><ele>286.0</ele><time>2026-04-12T14:36:11.06Z</time></trkpt><trkpt lat="44.59409" lon="7.8776033"><ele>286.0</ele><time>2026-04-12T14:36:14.062Z</time></trkpt><trkpt lat="44.5941017" lon="7.877725"><ele>286.0</ele><time>2026-04-12T14:36:17.061Z</time></trkpt><trkpt lat="44.5941167" lon="7.877845"><ele>286.0</ele><time>2026-04-12T14:36:20.063Z</time></trkpt><trkpt lat="44.5941217" lon="7.8779367"><ele>286.0</ele><time>2026-04-12T14:36:22.065Z</time></trkpt><trkpt lat="44.5941283" lon="7.8780283"><ele>286.0</ele><time>2026-04-12T14:36:24.064Z</time></trkpt><trkpt lat="44.594135" lon="7.8781183"><ele>286.0</ele><time>2026-04-12T14:36:26.064Z</time></trkpt><trkpt lat="44.5941467" lon="7.8782517"><ele>285.99999999999994</ele><time>2026-04-12T14:36:29.062Z</time></trkpt><trkpt lat="44.5941583" lon="7.8783433"><ele>286.0</ele><time>2026-04-12T14:36:31.064Z</time></trkpt><trkpt lat="44.5941783" lon="7.8784733"><ele>286.0</ele><time>2026-04-12T14:36:34.063Z</time></trkpt><trkpt lat="44.5941867" lon="7.878565"><ele>286.0</ele><time>2026-04-12T14:36:36.062Z</time></trkpt><trkpt lat="44.594205" lon="7.87865"><ele>286.0</ele><time>2026-04-12T14:36:38.061Z</time></trkpt><trkpt lat="44.5942617" lon="7.8787517"><ele>285.99999999999994</ele><time>2026-04-12T14:36:41.062Z</time></trkpt><trkpt lat="44.594325" lon="7.878755"><ele>286.0</ele><time>2026-04-12T14:36:43.062Z</time></trkpt><trkpt lat="44.594385" lon="7.8786683"><ele>286.0</ele><time>2026-04-12T14:36:46.063Z</time></trkpt><trkpt lat="44.5944" lon="7.8785717"><ele>286.0</ele><time>2026-04-12T14:36:48.062Z</time></trkpt><trkpt lat="44.5943983" lon="7.87848"><ele>286.0</ele><time>2026-04-12T14:36:50.064Z</time></trkpt><trkpt lat="44.5944033" lon="7.8783483"><ele>286.0</ele><time>2026-04-12T14:36:53.061Z</time></trkpt><trkpt lat="44.594405" lon="7.87822"><ele>286.0</ele><time>2026-04-12T14:36:56.063Z</time></trkpt><trkpt lat="44.594415" lon="7.8780967"><ele>286.0</ele><time>2026-04-12T14:36:59.061Z</time></trkpt><trkpt lat="44.594435" lon="7.8779733"><ele>286.0</ele><time>2026-04-12T14:37:02.062Z</time></trkpt><trkpt lat="44.5944533" lon="7.8778883"><ele>286.0</ele><time>2026-04-12T14:37:04.063Z</time></trkpt><trkpt lat="44.59447" lon="7.8778"><ele>286.0</ele><time>2026-04-12T14:37:06.062Z</time></trkpt><trkpt lat="44.5944783" lon="7.87771"><ele>286.0</ele><time>2026-04-12T14:37:08.062Z</time></trkpt><trkpt lat="44.5945" lon="7.8775917"><ele>286.0</ele><time>2026-04-12T14:37:11.062Z</time></trkpt><trkpt lat="44.5945083" lon="7.8774667"><ele>286.0</ele><time>2026-04-12T14:37:14.065Z</time></trkpt><trkpt lat="44.59452" lon="7.877345"><ele>289.8333333333333</ele><time>2026-04-12T14:37:17.063Z</time></trkpt><trkpt lat="44.5945383" lon="7.8772167"><ele>293.66666666666663</ele><time>2026-04-12T14:37:20.062Z</time></trkpt><trkpt lat="44.59456" lon="7.8770933"><ele>297.5</ele><time>2026-04-12T14:37:23.057Z</time></trkpt><trkpt lat="44.5945833" lon="7.8769717"><ele>301.3333333333333</ele><time>2026-04-12T14:37:26.057Z</time></trkpt><trkpt lat="44.59461" lon="7.8768617"><ele>305.1666666666667</ele><time>2026-04-12T14:37:29.061Z</time></trkpt><trkpt lat="44.5946283" lon="7.876735"><ele>309.0</ele><time>2026-04-12T14:37:32.062Z</time></trkpt><trkpt lat="44.5946267" lon="7.8766033"><ele>309.5</ele><time>2026-04-12T14:37:35.065Z</time></trkpt><trkpt lat="44.5946083" lon="7.8764767"><ele>310.0</ele><time>2026-04-12T14:37:38.065Z</time></trkpt><trkpt lat="44.5945783" lon="7.876355"><ele>310.5</ele><time>2026-04-12T14:37:41.061Z</time></trkpt><trkpt lat="44.5945417" lon="7.8762367"><ele>311.0</ele><time>2026-04-12T14:37:44.057Z</time></trkpt><trkpt lat="44.594505" lon="7.8761317"><ele>311.5</ele><time>2026-04-12T14:37:47.063Z</time></trkpt><trkpt lat="44.5944667" lon="7.87602"><ele>312.0</ele><time>2026-04-12T14:37:50.063Z</time></trkpt><trkpt lat="44.5944233" lon="7.8759267"><ele>310.0</ele><time>2026-04-12T14:37:53.06Z</time></trkpt><trkpt lat="44.5944" lon="7.8758367"><ele>308.0</ele><time>2026-04-12T14:37:55.06Z</time></trkpt><trkpt lat="44.59438" lon="7.875745"><ele>306.0</ele><time>2026-04-12T14:37:57.062Z</time></trkpt><trkpt lat="44.594365" lon="7.8756533"><ele>304.0</ele><time>2026-04-12T14:37:59.062Z</time></trkpt><trkpt lat="44.59434" lon="7.8755333"><ele>302.0</ele><time>2026-04-12T14:38:02.062Z</time></trkpt><trkpt lat="44.5943317" lon="7.8753967"><ele>300.0</ele><time>2026-04-12T14:38:05.061Z</time></trkpt><trkpt lat="44.5943283" lon="7.8753083"><ele>300.0</ele><time>2026-04-12T14:38:07.063Z</time></trkpt><trkpt lat="44.5943183" lon="7.8751833"><ele>300.0</ele><time>2026-04-12T14:38:10.063Z</time></trkpt><trkpt lat="44.594305" lon="7.87507"><ele>300.0</ele><time>2026-04-12T14:38:13.063Z</time></trkpt><trkpt lat="44.594295" lon="7.8749433"><ele>300.0</ele><time>2026-04-12T14:38:16.063Z</time></trkpt><trkpt lat="44.5942767" lon="7.87481"><ele>300.0</ele><time>2026-04-12T14:38:19.062Z</time></trkpt><trkpt lat="44.5942683" lon="7.874715"><ele>300.0</ele><time>2026-04-12T14:38:21.064Z</time></trkpt><trkpt lat="44.5942583" lon="7.8746267"><ele>301.2857142857143</ele><time>2026-04-12T14:38:23.062Z</time></trkpt><trkpt lat="44.5942533" lon="7.8745333"><ele>302.57142857142856</ele><time>2026-04-12T14:38:25.063Z</time></trkpt><trkpt lat="44.5942467" lon="7.8744383"><ele>303.8571428571429</ele><time>2026-04-12T14:38:27.064Z</time></trkpt><trkpt lat="44.59424" lon="7.874345"><ele>305.1428571428571</ele><time>2026-04-12T14:38:29.061Z</time></trkpt><trkpt lat="44.5942267" lon="7.874255"><ele>306.42857142857144</ele><time>2026-04-12T14:38:31.064Z</time></trkpt><trkpt lat="44.59422" lon="7.874165"><ele>307.7142857142857</ele><time>2026-04-12T14:38:33.062Z</time></trkpt><trkpt lat="44.5942133" lon="7.874035"><ele>309.0</ele><time>2026-04-12T14:38:36.061Z</time></trkpt><trkpt lat="44.594205" lon="7.8739017"><ele>310.00000000000006</ele><time>2026-04-12T14:38:39.065Z</time></trkpt><trkpt lat="44.5942033" lon="7.8738083"><ele>311.0</ele><time>2026-04-12T14:38:41.06Z</time></trkpt><trkpt lat="44.5942083" lon="7.87371"><ele>312.0</ele><time>2026-04-12T14:38:43.065Z</time></trkpt><trkpt lat="44.59422" lon="7.8736167"><ele>313.0</ele><time>2026-04-12T14:38:45.062Z</time></trkpt><trkpt lat="44.594235" lon="7.8735283"><ele>314.0</ele><time>2026-04-12T14:38:47.06Z</time></trkpt><trkpt lat="44.594235" lon="7.87343"><ele>315.00000000000006</ele><time>2026-04-12T14:38:49.064Z</time></trkpt><trkpt lat="44.5942383" lon="7.8732917"><ele>316.0</ele><time>2026-04-12T14:38:52.062Z</time></trkpt><trkpt lat="44.5942533" lon="7.87318"><ele>317.16666666666663</ele><time>2026-04-12T14:38:54.063Z</time></trkpt><trkpt lat="44.5942683" lon="7.8730633"><ele>318.3333333333333</ele><time>2026-04-12T14:38:56.062Z</time></trkpt><trkpt lat="44.59428" lon="7.87294"><ele>319.5</ele><time>2026-04-12T14:38:58.063Z</time></trkpt><trkpt lat="44.5942917" lon="7.872815"><ele>320.6666666666667</ele><time>2026-04-12T14:39:00.061Z</time></trkpt><trkpt lat="44.5942983" lon="7.8726917"><ele>321.83333333333337</ele><time>2026-04-12T14:39:02.061Z</time></trkpt><trkpt lat="44.5943133" lon="7.872565"><ele>323.0</ele><time>2026-04-12T14:39:04.061Z</time></trkpt><trkpt lat="44.594325" lon="7.8724333"><ele>323.59999999999997</ele><time>2026-04-12T14:39:06.061Z</time></trkpt><trkpt lat="44.5943233" lon="7.8723017"><ele>324.2</ele><time>2026-04-12T14:39:08.063Z</time></trkpt><trkpt lat="44.594325" lon="7.8721733"><ele>324.8</ele><time>2026-04-12T14:39:10.061Z</time></trkpt><trkpt lat="44.5943183" lon="7.8720433"><ele>325.4</ele><time>2026-04-12T14:39:12.061Z</time></trkpt><trkpt lat="44.594315" lon="7.8719183"><ele>326.0</ele><time>2026-04-12T14:39:14.062Z</time></trkpt><trkpt lat="44.5943167" lon="7.8717967"><ele>326.6</ele><time>2026-04-12T14:39:16.063Z</time></trkpt><trkpt lat="44.5943017" lon="7.8716817"><ele>327.20000000000005</ele><time>2026-04-12T14:39:18.063Z</time></trkpt><trkpt lat="44.5942767" lon="7.8715517"><ele>327.79999999999995</ele><time>2026-04-12T14:39:20.061Z</time></trkpt><trkpt lat="44.5942667" lon="7.8714133"><ele>328.4</ele><time>2026-04-12T14:39:22.06Z</time></trkpt><trkpt lat="44.5942617" lon="7.8712767"><ele>329.0</ele><time>2026-04-12T14:39:24.063Z</time></trkpt><trkpt lat="44.594295" lon="7.87118"><ele>329.0</ele><time>2026-04-12T14:39:26.062Z</time></trkpt><trkpt lat="44.59438" lon="7.8711467"><ele>329.0</ele><time>2026-04-12T14:39:29.061Z</time></trkpt><trkpt lat="44.59447" lon="7.8711367"><ele>329.0</ele><time>2026-04-12T14:39:31.062Z</time></trkpt><trkpt lat="44.594565" lon="7.8711317"><ele>329.0</ele><time>2026-04-12T14:39:33.06Z</time></trkpt><trkpt lat="44.5946533" lon="7.8711117"><ele>329.0</ele><time>2026-04-12T14:39:35.06Z</time></trkpt><trkpt lat="44.5947417" lon="7.8710883"><ele>328.33333333333337</ele><time>2026-04-12T14:39:37.063Z</time></trkpt><trkpt lat="44.59482" lon="7.8710983"><ele>327.6666666666667</ele><time>2026-04-12T14:39:39.061Z</time></trkpt><trkpt lat="44.59491" lon="7.8711033"><ele>327.0</ele><time>2026-04-12T14:39:41.061Z</time></trkpt><trkpt lat="44.595" lon="7.871115"><ele>326.3333333333333</ele><time>2026-04-12T14:39:43.065Z</time></trkpt><trkpt lat="44.59508" lon="7.871105"><ele>325.66666666666663</ele><time>2026-04-12T14:39:45.063Z</time></trkpt><trkpt lat="44.5951567" lon="7.8710617"><ele>325.0</ele><time>2026-04-12T14:39:47.061Z</time></trkpt><trkpt lat="44.595225" lon="7.871"><ele>325.0</ele><time>2026-04-12T14:39:49.062Z</time></trkpt><trkpt lat="44.5952933" lon="7.8709617"><ele>325.0</ele><time>2026-04-12T14:39:51.061Z</time></trkpt><trkpt lat="44.5953633" lon="7.87091"><ele>325.0</ele><time>2026-04-12T14:39:53.062Z</time></trkpt><trkpt lat="44.59544" lon="7.870865"><ele>325.0</ele><time>2026-04-12T14:39:55.063Z</time></trkpt><trkpt lat="44.59552" lon="7.8708283"><ele>325.0</ele><time>2026-04-12T14:39:57.064Z</time></trkpt><trkpt lat="44.5955917" lon="7.8708467"><ele>325.0</ele><time>2026-04-12T14:39:58.06Z</time></trkpt><trkpt lat="44.5956933" lon="7.8708367"><ele>325.3333333333333</ele><time>2026-04-12T14:40:00.06Z</time></trkpt><trkpt lat="44.5957817" lon="7.870815"><ele>325.66666666666663</ele><time>2026-04-12T14:40:02.062Z</time></trkpt><trkpt lat="44.595865" lon="7.8707783"><ele>326.0</ele><time>2026-04-12T14:40:04.063Z</time></trkpt><trkpt lat="44.5959533" lon="7.8707533"><ele>326.3333333333333</ele><time>2026-04-12T14:40:06.062Z</time></trkpt><trkpt lat="44.596045" lon="7.8707333"><ele>326.6666666666667</ele><time>2026-04-12T14:40:08.061Z</time></trkpt><trkpt lat="44.5961333" lon="7.8707217"><ele>327.0</ele><time>2026-04-12T14:40:10.061Z</time></trkpt><trkpt lat="44.5962183" lon="7.8707017"><ele>327.0</ele><time>2026-04-12T14:40:12.061Z</time></trkpt><trkpt lat="44.596305" lon="7.87069"><ele>327.0</ele><time>2026-04-12T14:40:14.063Z</time></trkpt><trkpt lat="44.59639" lon="7.8706733"><ele>327.0</ele><time>2026-04-12T14:40:16.061Z</time></trkpt><trkpt lat="44.5965017" lon="7.870675"><ele>327.0</ele><time>2026-04-12T14:40:18.062Z</time></trkpt><trkpt lat="44.5966067" lon="7.8706383"><ele>327.0</ele><time>2026-04-12T14:40:20.062Z</time></trkpt><trkpt lat="44.5967" lon="7.870615"><ele>327.0</ele><time>2026-04-12T14:40:22.062Z</time></trkpt><trkpt lat="44.5967933" lon="7.8706"><ele>327.0</ele><time>2026-04-12T14:40:24.061Z</time></trkpt><trkpt lat="44.5968833" lon="7.8705717"><ele>327.0</ele><time>2026-04-12T14:40:26.063Z</time></trkpt><trkpt lat="44.5969717" lon="7.8705517"><ele>327.0</ele><time>2026-04-12T14:40:28.062Z</time></trkpt><trkpt lat="44.5970533" lon="7.8705367"><ele>327.0</ele><time>2026-04-12T14:40:30.064Z</time></trkpt><trkpt lat="44.597135" lon="7.8705483"><ele>327.0</ele><time>2026-04-12T14:40:32.062Z</time></trkpt><trkpt lat="44.5972033" lon="7.8705633"><ele>327.0</ele><time>2026-04-12T14:40:34.063Z</time></trkpt><trkpt lat="44.5973" lon="7.87051"><ele>327.0</ele><time>2026-04-12T14:41:22.061Z</time></trkpt><trkpt lat="44.5973833" lon="7.8704983"><ele>327.0</ele><time>2026-04-12T14:41:25.065Z</time></trkpt><trkpt lat="44.5974633" lon="7.8704867"><ele>327.0</ele><time>2026-04-12T14:41:27.063Z</time></trkpt><trkpt lat="44.5975583" lon="7.8704683"><ele>327.0</ele><time>2026-04-12T14:41:29.06Z</time></trkpt><trkpt lat="44.597665" lon="7.8704467"><ele>327.0</ele><time>2026-04-12T14:41:31.063Z</time></trkpt><trkpt lat="44.5977733" lon="7.8704383"><ele>327.0</ele><time>2026-04-12T14:41:33.063Z</time></trkpt><trkpt lat="44.597885" lon="7.8704333"><ele>327.0</ele><time>2026-04-12T14:41:35.062Z</time></trkpt><trkpt lat="44.5980017" lon="7.8704267"><ele>327.0</ele><time>2026-04-12T14:41:37.063Z</time></trkpt><trkpt lat="44.5981183" lon="7.8704067"><ele>327.0</ele><time>2026-04-12T14:41:39.063Z</time></trkpt><trkpt lat="44.5982367" lon="7.8703917"><ele>327.0</ele><time>2026-04-12T14:41:41.061Z</time></trkpt><trkpt lat="44.5983533" lon="7.8703767"><ele>327.0</ele><time>2026-04-12T14:41:43.057Z</time></trkpt><trkpt lat="44.598475" lon="7.8703633"><ele>327.0</ele><time>2026-04-12T14:41:45.062Z</time></trkpt><trkpt lat="44.5985983" lon="7.8703433"><ele>327.0</ele><time>2026-04-12T14:41:47.061Z</time></trkpt><trkpt lat="44.5986633" lon="7.87033"><ele>327.0</ele><time>2026-04-12T14:41:48.063Z</time></trkpt><trkpt lat="44.59873" lon="7.8703133"><ele>327.0</ele><time>2026-04-12T14:41:49.061Z</time></trkpt><trkpt lat="44.5988033" lon="7.8702933"><ele>327.0</ele><time>2026-04-12T14:41:50.061Z</time></trkpt><trkpt lat="44.5988733" lon="7.8702733"><ele>327.0</ele><time>2026-04-12T14:41:51.061Z</time></trkpt><trkpt lat="44.5989433" lon="7.870255"><ele>327.0</ele><time>2026-04-12T14:41:52.063Z</time></trkpt><trkpt lat="44.59901" lon="7.8702483"><ele>327.0</ele><time>2026-04-12T14:41:53.061Z</time></trkpt><trkpt lat="44.5990783" lon="7.8702383"><ele>326.85714285714283</ele><time>2026-04-12T14:41:54.061Z</time></trkpt><trkpt lat="44.59915" lon="7.87022"><ele>326.7142857142857</ele><time>2026-04-12T14:41:55.063Z</time></trkpt><trkpt lat="44.5992217" lon="7.87021"><ele>326.57142857142856</ele><time>2026-04-12T14:41:56.06Z</time></trkpt><trkpt lat="44.5992933" lon="7.8702"><ele>326.42857142857144</ele><time>2026-04-12T14:41:57.061Z</time></trkpt><trkpt lat="44.59937" lon="7.8701883"><ele>326.2857142857143</ele><time>2026-04-12T14:41:58.061Z</time></trkpt><trkpt lat="44.599445" lon="7.8701783"><ele>326.14285714285717</ele><time>2026-04-12T14:41:59.06Z</time></trkpt><trkpt lat="44.5995167" lon="7.8701733"><ele>326.0</ele><time>2026-04-12T14:42:00.061Z</time></trkpt><trkpt lat="44.5995883" lon="7.8701683"><ele>326.0</ele><time>2026-04-12T14:42:01.062Z</time></trkpt><trkpt lat="44.599655" lon="7.870155"><ele>326.0</ele><time>2026-04-12T14:42:02.063Z</time></trkpt><trkpt lat="44.599725" lon="7.8701417"><ele>326.0</ele><time>2026-04-12T14:42:03.059Z</time></trkpt><trkpt lat="44.5997967" lon="7.8701283"><ele>326.0</ele><time>2026-04-12T14:42:04.062Z</time></trkpt><trkpt lat="44.59987" lon="7.8701267"><ele>326.0</ele><time>2026-04-12T14:42:05.062Z</time></trkpt><trkpt lat="44.5999433" lon="7.8701167"><ele>326.0</ele><time>2026-04-12T14:42:06.061Z</time></trkpt><trkpt lat="44.6000183" lon="7.8701017"><ele>326.0</ele><time>2026-04-12T14:42:07.063Z</time></trkpt><trkpt lat="44.6000933" lon="7.8700833"><ele>326.14285714285717</ele><time>2026-04-12T14:42:08.062Z</time></trkpt><trkpt lat="44.6001683" lon="7.87007"><ele>326.2857142857143</ele><time>2026-04-12T14:42:09.062Z</time></trkpt><trkpt lat="44.6002433" lon="7.870065"><ele>326.42857142857144</ele><time>2026-04-12T14:42:10.061Z</time></trkpt><trkpt lat="44.6003167" lon="7.8700567"><ele>326.57142857142856</ele><time>2026-04-12T14:42:11.063Z</time></trkpt><trkpt lat="44.6003917" lon="7.8700467"><ele>326.7142857142857</ele><time>2026-04-12T14:42:12.063Z</time></trkpt><trkpt lat="44.6004617" lon="7.87004"><ele>326.85714285714283</ele><time>2026-04-12T14:42:13.063Z</time></trkpt><trkpt lat="44.600535" lon="7.87003"><ele>327.0</ele><time>2026-04-12T14:42:14.063Z</time></trkpt><trkpt lat="44.6006083" lon="7.8700233"><ele>327.0</ele><time>2026-04-12T14:42:15.062Z</time></trkpt><trkpt lat="44.6006783" lon="7.8700183"><ele>327.0</ele><time>2026-04-12T14:42:16.062Z</time></trkpt><trkpt lat="44.6007483" lon="7.87001"><ele>327.0</ele><time>2026-04-12T14:42:17.062Z</time></trkpt><trkpt lat="44.6008183" lon="7.8699967"><ele>327.0</ele><time>2026-04-12T14:42:18.064Z</time></trkpt><trkpt lat="44.6008883" lon="7.8699783"><ele>327.0</ele><time>2026-04-12T14:42:19.064Z</time></trkpt><trkpt lat="44.6009583" lon="7.8699633"><ele>327.0</ele><time>2026-04-12T14:42:20.061Z</time></trkpt><trkpt lat="44.60103" lon="7.86995"><ele>327.0</ele><time>2026-04-12T14:42:21.063Z</time></trkpt><trkpt lat="44.6011" lon="7.8699383"><ele>327.0</ele><time>2026-04-12T14:42:22.062Z</time></trkpt><trkpt lat="44.6011683" lon="7.86993"><ele>327.0</ele><time>2026-04-12T14:42:23.061Z</time></trkpt><trkpt lat="44.60124" lon="7.8699167"><ele>327.0</ele><time>2026-04-12T14:42:24.062Z</time></trkpt><trkpt lat="44.6013067" lon="7.8699033"><ele>327.0</ele><time>2026-04-12T14:42:25.063Z</time></trkpt><trkpt lat="44.6013717" lon="7.8698917"><ele>327.0</ele><time>2026-04-12T14:42:26.062Z</time></trkpt><trkpt lat="44.6014367" lon="7.8698817"><ele>327.0</ele><time>2026-04-12T14:42:27.064Z</time></trkpt><trkpt lat="44.601555" lon="7.8698567"><ele>327.0</ele><time>2026-04-12T14:42:29.063Z</time></trkpt><trkpt lat="44.6016733" lon="7.8698483"><ele>327.0</ele><time>2026-04-12T14:42:31.064Z</time></trkpt><trkpt lat="44.6017783" lon="7.8698833"><ele>327.0</ele><time>2026-04-12T14:42:33.067Z</time></trkpt><trkpt lat="44.601835" lon="7.8700017"><ele>327.0</ele><time>2026-04-12T14:42:35.062Z</time></trkpt><trkpt lat="44.6018517" lon="7.8701483"><ele>327.0</ele><time>2026-04-12T14:42:37.064Z</time></trkpt><trkpt lat="44.60187" lon="7.8703033"><ele>326.20000000000005</ele><time>2026-04-12T14:42:39.064Z</time></trkpt><trkpt lat="44.60188" lon="7.87046"><ele>325.4</ele><time>2026-04-12T14:42:41.062Z</time></trkpt><trkpt lat="44.6018883" lon="7.8706133"><ele>324.6</ele><time>2026-04-12T14:42:43.064Z</time></trkpt><trkpt lat="44.6019" lon="7.87075"><ele>323.79999999999995</ele><time>2026-04-12T14:42:45.063Z</time></trkpt><trkpt lat="44.601945" lon="7.870845"><ele>323.0</ele><time>2026-04-12T14:42:47.062Z</time></trkpt><trkpt lat="44.6020183" lon="7.8708633"><ele>322.5</ele><time>2026-04-12T14:42:49.063Z</time></trkpt><trkpt lat="44.6021283" lon="7.8708533"><ele>322.0</ele><time>2026-04-12T14:42:51.062Z</time></trkpt><trkpt lat="44.6022517" lon="7.8708233"><ele>321.5</ele><time>2026-04-12T14:42:53.062Z</time></trkpt><trkpt lat="44.60232" lon="7.8708083"><ele>321.0</ele><time>2026-04-12T14:42:54.064Z</time></trkpt><trkpt lat="44.6023833" lon="7.8707983"><ele>320.5</ele><time>2026-04-12T14:42:55.063Z</time></trkpt><trkpt lat="44.6024467" lon="7.8707883"><ele>320.0</ele><time>2026-04-12T14:42:56.061Z</time></trkpt><trkpt lat="44.6025117" lon="7.8707767"><ele>320.0</ele><time>2026-04-12T14:42:57.062Z</time></trkpt><trkpt lat="44.6025783" lon="7.8707683"><ele>320.0</ele><time>2026-04-12T14:42:58.062Z</time></trkpt><trkpt lat="44.602645" lon="7.8707617"><ele>320.0</ele><time>2026-04-12T14:42:59.062Z</time></trkpt><trkpt lat="44.6027133" lon="7.8707583"><ele>320.0</ele><time>2026-04-12T14:43:00.061Z</time></trkpt><trkpt lat="44.6027783" lon="7.87076"><ele>320.0</ele><time>2026-04-12T14:43:01.063Z</time></trkpt><trkpt lat="44.6028417" lon="7.87076"><ele>320.0</ele><time>2026-04-12T14:43:02.062Z</time></trkpt><trkpt lat="44.6029067" lon="7.870755"><ele>320.0</ele><time>2026-04-12T14:43:03.063Z</time></trkpt><trkpt lat="44.60297" lon="7.8707417"><ele>320.4</ele><time>2026-04-12T14:43:04.063Z</time></trkpt><trkpt lat="44.6030917" lon="7.87072"><ele>320.8</ele><time>2026-04-12T14:43:06.061Z</time></trkpt><trkpt lat="44.6032033" lon="7.870695"><ele>321.20000000000005</ele><time>2026-04-12T14:43:08.063Z</time></trkpt><trkpt lat="44.6033067" lon="7.8706733"><ele>321.6</ele><time>2026-04-12T14:43:10.064Z</time></trkpt><trkpt lat="44.6034117" lon="7.8706583"><ele>322.0</ele><time>2026-04-12T14:43:12.062Z</time></trkpt><trkpt lat="44.60352" lon="7.8706433"><ele>322.0</ele><time>2026-04-12T14:43:14.063Z</time></trkpt><trkpt lat="44.6036367" lon="7.87065"><ele>322.0</ele><time>2026-04-12T14:43:16.064Z</time></trkpt><trkpt lat="44.6037517" lon="7.87065"><ele>322.0</ele><time>2026-04-12T14:43:18.062Z</time></trkpt><trkpt lat="44.6038733" lon="7.8706517"><ele>322.0</ele><time>2026-04-12T14:43:20.062Z</time></trkpt><trkpt lat="44.6039933" lon="7.870655"><ele>322.0</ele><time>2026-04-12T14:43:22.064Z</time></trkpt><trkpt lat="44.6040567" lon="7.8706533"><ele>322.0</ele><time>2026-04-12T14:43:23.062Z</time></trkpt><trkpt lat="44.6041783" lon="7.8706517"><ele>322.0</ele><time>2026-04-12T14:43:25.065Z</time></trkpt><trkpt lat="44.6042433" lon="7.8706483"><ele>322.0</ele><time>2026-04-12T14:43:26.062Z</time></trkpt><trkpt lat="44.6043633" lon="7.8706433"><ele>322.0</ele><time>2026-04-12T14:43:28.062Z</time></trkpt><trkpt lat="44.604485" lon="7.87063"><ele>321.6</ele><time>2026-04-12T14:43:30.063Z</time></trkpt><trkpt lat="44.6045967" lon="7.8706217"><ele>321.20000000000005</ele><time>2026-04-12T14:43:32.063Z</time></trkpt><trkpt lat="44.6046967" lon="7.8706117"><ele>320.8</ele><time>2026-04-12T14:43:34.063Z</time></trkpt><trkpt lat="44.60479" lon="7.8706017"><ele>320.4</ele><time>2026-04-12T14:43:36.064Z</time></trkpt><trkpt lat="44.6049167" lon="7.8706117"><ele>320.0</ele><time>2026-04-12T14:43:38.063Z</time></trkpt><trkpt lat="44.6049883" lon="7.8706333"><ele>320.0</ele><time>2026-04-12T14:43:39.064Z</time></trkpt><trkpt lat="44.605065" lon="7.8706683"><ele>320.0</ele><time>2026-04-12T14:43:40.064Z</time></trkpt><trkpt lat="44.6051417" lon="7.8707167"><ele>320.0</ele><time>2026-04-12T14:43:41.062Z</time></trkpt><trkpt lat="44.6052217" lon="7.8707783"><ele>320.0</ele><time>2026-04-12T14:43:42.061Z</time></trkpt><trkpt lat="44.6052967" lon="7.87087"><ele>320.0</ele><time>2026-04-12T14:43:43.064Z</time></trkpt><trkpt lat="44.6053617" lon="7.8709867"><ele>316.25</ele><time>2026-04-12T14:43:44.062Z</time></trkpt><trkpt lat="44.6054333" lon="7.8711017"><ele>312.5</ele><time>2026-04-12T14:43:45.063Z</time></trkpt><trkpt lat="44.6055067" lon="7.8712217"><ele>308.75</ele><time>2026-04-12T14:43:46.063Z</time></trkpt><trkpt lat="44.6055867" lon="7.871345"><ele>305.0</ele><time>2026-04-12T14:43:47.062Z</time></trkpt><trkpt lat="44.60568" lon="7.8714617"><ele>305.0</ele><time>2026-04-12T14:43:48.061Z</time></trkpt><trkpt lat="44.605785" lon="7.8715733"><ele>305.0</ele><time>2026-04-12T14:43:49.065Z</time></trkpt><trkpt lat="44.6058917" lon="7.8716917"><ele>305.0</ele><time>2026-04-12T14:43:50.061Z</time></trkpt><trkpt lat="44.6059983" lon="7.871815"><ele>305.0</ele><time>2026-04-12T14:43:51.063Z</time></trkpt><trkpt lat="44.6061" lon="7.87194"><ele>302.0</ele><time>2026-04-12T14:43:52.062Z</time></trkpt><trkpt lat="44.606205" lon="7.87205"><ele>299.0</ele><time>2026-04-12T14:43:53.062Z</time></trkpt><trkpt lat="44.60631" lon="7.8721383"><ele>296.0</ele><time>2026-04-12T14:43:54.062Z</time></trkpt><trkpt lat="44.6064217" lon="7.8721917"><ele>293.0</ele><time>2026-04-12T14:43:55.062Z</time></trkpt><trkpt lat="44.6065333" lon="7.8721933"><ele>293.0</ele><time>2026-04-12T14:43:56.063Z</time></trkpt><trkpt lat="44.6066367" lon="7.8721583"><ele>293.0</ele><time>2026-04-12T14:43:57.062Z</time></trkpt><trkpt lat="44.6067267" lon="7.8721117"><ele>293.0</ele><time>2026-04-12T14:43:58.064Z</time></trkpt><trkpt lat="44.6068117" lon="7.87207"><ele>293.0</ele><time>2026-04-12T14:43:59.061Z</time></trkpt><trkpt lat="44.606895" lon="7.8720333"><ele>293.0</ele><time>2026-04-12T14:44:00.063Z</time></trkpt><trkpt lat="44.6069817" lon="7.8720067"><ele>292.0</ele><time>2026-04-12T14:44:01.06Z</time></trkpt><trkpt lat="44.60707" lon="7.872005"><ele>291.0</ele><time>2026-04-12T14:44:02.062Z</time></trkpt><trkpt lat="44.607155" lon="7.8720217"><ele>290.0</ele><time>2026-04-12T14:44:03.064Z</time></trkpt><trkpt lat="44.6072383" lon="7.8720467"><ele>289.0</ele><time>2026-04-12T14:44:04.062Z</time></trkpt><trkpt lat="44.60732" lon="7.8720767"><ele>288.0</ele><time>2026-04-12T14:44:05.063Z</time></trkpt><trkpt lat="44.6073967" lon="7.8721067"><ele>287.0</ele><time>2026-04-12T14:44:06.062Z</time></trkpt><trkpt lat="44.6074717" lon="7.872135"><ele>287.0</ele><time>2026-04-12T14:44:07.064Z</time></trkpt><trkpt lat="44.6075483" lon="7.872165"><ele>287.0</ele><time>2026-04-12T14:44:08.063Z</time></trkpt><trkpt lat="44.607625" lon="7.8721933"><ele>287.0</ele><time>2026-04-12T14:44:09.065Z</time></trkpt><trkpt lat="44.6077033" lon="7.8722183"><ele>287.0</ele><time>2026-04-12T14:44:10.062Z</time></trkpt><trkpt lat="44.60778" lon="7.8722417"><ele>287.0</ele><time>2026-04-12T14:44:11.062Z</time></trkpt><trkpt lat="44.6078567" lon="7.8722633"><ele>287.0</ele><time>2026-04-12T14:44:12.062Z</time></trkpt><trkpt lat="44.6079333" lon="7.8722883"><ele>288.0</ele><time>2026-04-12T14:44:13.062Z</time></trkpt><trkpt lat="44.60801" lon="7.8723117"><ele>289.0</ele><time>2026-04-12T14:44:14.062Z</time></trkpt><trkpt lat="44.6080867" lon="7.8723383"><ele>290.0</ele><time>2026-04-12T14:44:15.062Z</time></trkpt><trkpt lat="44.608165" lon="7.87236"><ele>291.0</ele><time>2026-04-12T14:44:16.059Z</time></trkpt><trkpt lat="44.6082433" lon="7.8723817"><ele>292.0</ele><time>2026-04-12T14:44:17.061Z</time></trkpt><trkpt lat="44.6083217" lon="7.8724"><ele>293.0</ele><time>2026-04-12T14:44:18.062Z</time></trkpt><trkpt lat="44.6083983" lon="7.8724183"><ele>292.99999999999994</ele><time>2026-04-12T14:44:19.063Z</time></trkpt><trkpt lat="44.608475" lon="7.8724333"><ele>293.0</ele><time>2026-04-12T14:44:20.062Z</time></trkpt><trkpt lat="44.6085467" lon="7.8724533"><ele>293.0</ele><time>2026-04-12T14:44:21.065Z</time></trkpt><trkpt lat="44.6086167" lon="7.872465"><ele>293.0</ele><time>2026-04-12T14:44:22.061Z</time></trkpt><trkpt lat="44.608685" lon="7.87247"><ele>293.0</ele><time>2026-04-12T14:44:23.063Z</time></trkpt><trkpt lat="44.6087533" lon="7.87246"><ele>292.99999999999994</ele><time>2026-04-12T14:44:24.063Z</time></trkpt><trkpt lat="44.6088167" lon="7.872425"><ele>293.0</ele><time>2026-04-12T14:44:25.063Z</time></trkpt><trkpt lat="44.60887" lon="7.8723683"><ele>293.85714285714283</ele><time>2026-04-12T14:44:26.063Z</time></trkpt><trkpt lat="44.6089167" lon="7.8722967"><ele>294.7142857142857</ele><time>2026-04-12T14:44:27.064Z</time></trkpt><trkpt lat="44.6089567" lon="7.87221"><ele>295.57142857142856</ele><time>2026-04-12T14:44:28.063Z</time></trkpt><trkpt lat="44.608995" lon="7.8721267"><ele>296.42857142857144</ele><time>2026-04-12T14:44:29.062Z</time></trkpt><trkpt lat="44.60903" lon="7.87204"><ele>297.2857142857143</ele><time>2026-04-12T14:44:30.062Z</time></trkpt><trkpt lat="44.609065" lon="7.871955"><ele>298.1428571428571</ele><time>2026-04-12T14:44:31.062Z</time></trkpt><trkpt lat="44.6090983" lon="7.8718717"><ele>299.0</ele><time>2026-04-12T14:44:32.062Z</time></trkpt><trkpt lat="44.6091333" lon="7.8717917"><ele>299.1428571428571</ele><time>2026-04-12T14:44:33.065Z</time></trkpt><trkpt lat="44.6091683" lon="7.8717117"><ele>299.2857142857143</ele><time>2026-04-12T14:44:34.063Z</time></trkpt><trkpt lat="44.6092017" lon="7.8716317"><ele>299.42857142857144</ele><time>2026-04-12T14:44:35.063Z</time></trkpt><trkpt lat="44.6092383" lon="7.871555"><ele>299.57142857142856</ele><time>2026-04-12T14:44:36.063Z</time></trkpt><trkpt lat="44.60928" lon="7.8714817"><ele>299.7142857142857</ele><time>2026-04-12T14:44:37.062Z</time></trkpt><trkpt lat="44.609325" lon="7.8714183"><ele>299.85714285714283</ele><time>2026-04-12T14:44:38.061Z</time></trkpt><trkpt lat="44.60938" lon="7.87137"><ele>300.0</ele><time>2026-04-12T14:44:39.064Z</time></trkpt><trkpt lat="44.6094417" lon="7.8713433"><ele>299.71428571428567</ele><time>2026-04-12T14:44:40.063Z</time></trkpt><trkpt lat="44.60951" lon="7.8713367"><ele>299.42857142857144</ele><time>2026-04-12T14:44:41.061Z</time></trkpt><trkpt lat="44.6095767" lon="7.8713433"><ele>299.1428571428571</ele><time>2026-04-12T14:44:42.062Z</time></trkpt><trkpt lat="44.6096467" lon="7.8713517"><ele>298.85714285714283</ele><time>2026-04-12T14:44:43.063Z</time></trkpt><trkpt lat="44.6097133" lon="7.871355"><ele>298.57142857142856</ele><time>2026-04-12T14:44:44.062Z</time></trkpt><trkpt lat="44.6097817" lon="7.8713533"><ele>298.2857142857143</ele><time>2026-04-12T14:44:45.063Z</time></trkpt><trkpt lat="44.60985" lon="7.87135"><ele>298.0</ele><time>2026-04-12T14:44:46.06Z</time></trkpt><trkpt lat="44.60992" lon="7.871345"><ele>298.0</ele><time>2026-04-12T14:44:47.06Z</time></trkpt><trkpt lat="44.6099883" lon="7.8713367"><ele>298.0</ele><time>2026-04-12T14:44:48.063Z</time></trkpt><trkpt lat="44.610055" lon="7.8713333"><ele>298.0</ele><time>2026-04-12T14:44:49.062Z</time></trkpt><trkpt lat="44.6101233" lon="7.8713267"><ele>298.0</ele><time>2026-04-12T14:44:50.061Z</time></trkpt><trkpt lat="44.61019" lon="7.87132"><ele>298.0</ele><time>2026-04-12T14:44:51.063Z</time></trkpt><trkpt lat="44.6102567" lon="7.871315"><ele>298.0</ele><time>2026-04-12T14:44:52.062Z</time></trkpt><trkpt lat="44.6103233" lon="7.8713083"><ele>298.0</ele><time>2026-04-12T14:44:53.062Z</time></trkpt><trkpt lat="44.6103883" lon="7.871305"><ele>298.1428571428571</ele><time>2026-04-12T14:44:54.061Z</time></trkpt><trkpt lat="44.6104533" lon="7.8712983"><ele>298.2857142857143</ele><time>2026-04-12T14:44:55.062Z</time></trkpt><trkpt lat="44.61052" lon="7.871285"><ele>298.42857142857144</ele><time>2026-04-12T14:44:56.062Z</time></trkpt><trkpt lat="44.6105867" lon="7.87127"><ele>298.57142857142856</ele><time>2026-04-12T14:44:57.063Z</time></trkpt><trkpt lat="44.610655" lon="7.8712567"><ele>298.7142857142857</ele><time>2026-04-12T14:44:58.061Z</time></trkpt><trkpt lat="44.6107233" lon="7.8712433"><ele>298.85714285714283</ele><time>2026-04-12T14:44:59.061Z</time></trkpt><trkpt lat="44.6107917" lon="7.8712317"><ele>299.0</ele><time>2026-04-12T14:45:00.061Z</time></trkpt><trkpt lat="44.61086" lon="7.8712217"><ele>299.0</ele><time>2026-04-12T14:45:01.062Z</time></trkpt><trkpt lat="44.6109283" lon="7.8712117"><ele>299.0</ele><time>2026-04-12T14:45:02.063Z</time></trkpt><trkpt lat="44.610995" lon="7.8711967"><ele>299.0</ele><time>2026-04-12T14:45:03.065Z</time></trkpt><trkpt lat="44.6110633" lon="7.8711783"><ele>299.0</ele><time>2026-04-12T14:45:04.061Z</time></trkpt><trkpt lat="44.61113" lon="7.8711633"><ele>299.0</ele><time>2026-04-12T14:45:05.062Z</time></trkpt><trkpt lat="44.6112" lon="7.87115"><ele>299.0</ele><time>2026-04-12T14:45:06.062Z</time></trkpt><trkpt lat="44.61127" lon="7.87114"><ele>299.0</ele><time>2026-04-12T14:45:07.061Z</time></trkpt><trkpt lat="44.6113367" lon="7.8711333"><ele>298.85714285714283</ele><time>2026-04-12T14:45:08.064Z</time></trkpt><trkpt lat="44.611405" lon="7.8711267"><ele>298.7142857142857</ele><time>2026-04-12T14:45:09.062Z</time></trkpt><trkpt lat="44.6114717" lon="7.8711183"><ele>298.57142857142856</ele><time>2026-04-12T14:45:10.061Z</time></trkpt><trkpt lat="44.6115417" lon="7.8711133"><ele>298.42857142857144</ele><time>2026-04-12T14:45:11.061Z</time></trkpt><trkpt lat="44.6116083" lon="7.87111"><ele>298.2857142857143</ele><time>2026-04-12T14:45:12.062Z</time></trkpt><trkpt lat="44.611675" lon="7.8711067"><ele>298.1428571428571</ele><time>2026-04-12T14:45:13.062Z</time></trkpt><trkpt lat="44.6117433" lon="7.8711017"><ele>298.0</ele><time>2026-04-12T14:45:14.062Z</time></trkpt><trkpt lat="44.6118083" lon="7.871095"><ele>298.0</ele><time>2026-04-12T14:45:15.062Z</time></trkpt><trkpt lat="44.6118733" lon="7.871085"><ele>298.0</ele><time>2026-04-12T14:45:16.061Z</time></trkpt><trkpt lat="44.61194" lon="7.8710717"><ele>298.0</ele><time>2026-04-12T14:45:17.061Z</time></trkpt><trkpt lat="44.612005" lon="7.8710633"><ele>298.0</ele><time>2026-04-12T14:45:18.06Z</time></trkpt><trkpt lat="44.61207" lon="7.8710533"><ele>298.0</ele><time>2026-04-12T14:45:19.063Z</time></trkpt><trkpt lat="44.612135" lon="7.8710417"><ele>298.0</ele><time>2026-04-12T14:45:20.061Z</time></trkpt><trkpt lat="44.6122" lon="7.871035"><ele>298.0</ele><time>2026-04-12T14:45:21.064Z</time></trkpt><trkpt lat="44.6122667" lon="7.8710267"><ele>297.66666666666663</ele><time>2026-04-12T14:45:22.063Z</time></trkpt><trkpt lat="44.6123333" lon="7.8710217"><ele>297.3333333333333</ele><time>2026-04-12T14:45:23.061Z</time></trkpt><trkpt lat="44.6123983" lon="7.8710167"><ele>297.0</ele><time>2026-04-12T14:45:24.061Z</time></trkpt><trkpt lat="44.612465" lon="7.8710117"><ele>296.6666666666667</ele><time>2026-04-12T14:45:25.063Z</time></trkpt><trkpt lat="44.6125317" lon="7.8710083"><ele>296.33333333333337</ele><time>2026-04-12T14:45:26.062Z</time></trkpt><trkpt lat="44.6125967" lon="7.87101"><ele>296.0</ele><time>2026-04-12T14:45:27.063Z</time></trkpt><trkpt lat="44.612725" lon="7.8710017"><ele>296.0</ele><time>2026-04-12T14:45:29.062Z</time></trkpt><trkpt lat="44.6127933" lon="7.8709917"><ele>296.0</ele><time>2026-04-12T14:45:30.062Z</time></trkpt><trkpt lat="44.61286" lon="7.8709767"><ele>296.0</ele><time>2026-04-12T14:45:31.061Z</time></trkpt><trkpt lat="44.6129267" lon="7.87097"><ele>296.0</ele><time>2026-04-12T14:45:32.062Z</time></trkpt><trkpt lat="44.6129933" lon="7.87096"><ele>296.0</ele><time>2026-04-12T14:45:33.063Z</time></trkpt><trkpt lat="44.6130617" lon="7.870945"><ele>296.0</ele><time>2026-04-12T14:45:34.061Z</time></trkpt><trkpt lat="44.61313" lon="7.8709283"><ele>296.0</ele><time>2026-04-12T14:45:35.06Z</time></trkpt><trkpt lat="44.6132" lon="7.8709167"><ele>296.2857142857143</ele><time>2026-04-12T14:45:36.061Z</time></trkpt><trkpt lat="44.6132683" lon="7.8709017"><ele>296.57142857142856</ele><time>2026-04-12T14:45:37.062Z</time></trkpt><trkpt lat="44.6133367" lon="7.8708867"><ele>296.85714285714283</ele><time>2026-04-12T14:45:38.062Z</time></trkpt><trkpt lat="44.6134033" lon="7.8708717"><ele>297.1428571428571</ele><time>2026-04-12T14:45:39.063Z</time></trkpt><trkpt lat="44.6134683" lon="7.8708583"><ele>297.4285714285714</ele><time>2026-04-12T14:45:40.061Z</time></trkpt><trkpt lat="44.613535" lon="7.8708467"><ele>297.7142857142857</ele><time>2026-04-12T14:45:41.061Z</time></trkpt><trkpt lat="44.6136017" lon="7.8708333"><ele>298.0</ele><time>2026-04-12T14:45:42.062Z</time></trkpt><trkpt lat="44.6136667" lon="7.8708167"><ele>298.2857142857143</ele><time>2026-04-12T14:45:43.062Z</time></trkpt><trkpt lat="44.6137317" lon="7.8707983"><ele>298.57142857142856</ele><time>2026-04-12T14:45:44.062Z</time></trkpt><trkpt lat="44.6137983" lon="7.8707767"><ele>298.85714285714283</ele><time>2026-04-12T14:45:45.064Z</time></trkpt><trkpt lat="44.6138667" lon="7.870755"><ele>299.1428571428571</ele><time>2026-04-12T14:45:46.061Z</time></trkpt><trkpt lat="44.6139333" lon="7.8707333"><ele>299.42857142857144</ele><time>2026-04-12T14:45:47.063Z</time></trkpt><trkpt lat="44.614" lon="7.870715"><ele>299.71428571428567</ele><time>2026-04-12T14:45:48.062Z</time></trkpt><trkpt lat="44.614065" lon="7.870695"><ele>300.0</ele><time>2026-04-12T14:45:49.062Z</time></trkpt><trkpt lat="44.6141317" lon="7.87067"><ele>300.0</ele><time>2026-04-12T14:45:50.061Z</time></trkpt><trkpt lat="44.6141983" lon="7.8706467"><ele>300.0</ele><time>2026-04-12T14:45:51.062Z</time></trkpt><trkpt lat="44.6142633" lon="7.8706233"><ele>300.0</ele><time>2026-04-12T14:45:52.062Z</time></trkpt><trkpt lat="44.61438" lon="7.8705817"><ele>300.0</ele><time>2026-04-12T14:45:54.062Z</time></trkpt><trkpt lat="44.6144417" lon="7.8705583"><ele>300.0</ele><time>2026-04-12T14:45:55.066Z</time></trkpt><trkpt lat="44.6145083" lon="7.8705383"><ele>300.0</ele><time>2026-04-12T14:45:56.063Z</time></trkpt><trkpt lat="44.61458" lon="7.8705217"><ele>299.85714285714283</ele><time>2026-04-12T14:45:57.064Z</time></trkpt><trkpt lat="44.6146533" lon="7.8705083"><ele>299.7142857142857</ele><time>2026-04-12T14:45:58.062Z</time></trkpt><trkpt lat="44.614725" lon="7.8704967"><ele>299.57142857142856</ele><time>2026-04-12T14:45:59.06Z</time></trkpt><trkpt lat="44.6147983" lon="7.8704817"><ele>299.42857142857144</ele><time>2026-04-12T14:46:00.063Z</time></trkpt><trkpt lat="44.61487" lon="7.87047"><ele>299.2857142857143</ele><time>2026-04-12T14:46:01.063Z</time></trkpt><trkpt lat="44.6149433" lon="7.8704517"><ele>299.1428571428571</ele><time>2026-04-12T14:46:02.063Z</time></trkpt><trkpt lat="44.6150167" lon="7.870435"><ele>299.0</ele><time>2026-04-12T14:46:03.063Z</time></trkpt><trkpt lat="44.6150867" lon="7.8704183"><ele>299.0</ele><time>2026-04-12T14:46:04.062Z</time></trkpt><trkpt lat="44.6151583" lon="7.8704"><ele>299.0</ele><time>2026-04-12T14:46:05.062Z</time></trkpt><trkpt lat="44.61523" lon="7.870385"><ele>299.0</ele><time>2026-04-12T14:46:06.059Z</time></trkpt><trkpt lat="44.6153" lon="7.87037"><ele>299.0</ele><time>2026-04-12T14:46:07.062Z</time></trkpt><trkpt lat="44.6153717" lon="7.870355"><ele>299.0</ele><time>2026-04-12T14:46:08.063Z</time></trkpt><trkpt lat="44.6154417" lon="7.8703417"><ele>299.0</ele><time>2026-04-12T14:46:09.064Z</time></trkpt><trkpt lat="44.615515" lon="7.8703233"><ele>299.0</ele><time>2026-04-12T14:46:10.062Z</time></trkpt><trkpt lat="44.615585" lon="7.8703083"><ele>299.1428571428571</ele><time>2026-04-12T14:46:11.062Z</time></trkpt><trkpt lat="44.6156533" lon="7.8702967"><ele>299.2857142857143</ele><time>2026-04-12T14:46:12.061Z</time></trkpt><trkpt lat="44.6157233" lon="7.8702817"><ele>299.42857142857144</ele><time>2026-04-12T14:46:13.061Z</time></trkpt><trkpt lat="44.6157883" lon="7.8702667"><ele>299.57142857142856</ele><time>2026-04-12T14:46:14.061Z</time></trkpt><trkpt lat="44.615855" lon="7.87025"><ele>299.7142857142857</ele><time>2026-04-12T14:46:15.062Z</time></trkpt><trkpt lat="44.6159233" lon="7.8702317"><ele>299.85714285714283</ele><time>2026-04-12T14:46:16.064Z</time></trkpt><trkpt lat="44.615995" lon="7.8702167"><ele>300.0</ele><time>2026-04-12T14:46:17.062Z</time></trkpt><trkpt lat="44.616065" lon="7.8701967"><ele>299.99999999999994</ele><time>2026-04-12T14:46:18.062Z</time></trkpt><trkpt lat="44.616135" lon="7.8701767"><ele>300.0</ele><time>2026-04-12T14:46:19.063Z</time></trkpt><trkpt lat="44.6162033" lon="7.87016"><ele>300.0</ele><time>2026-04-12T14:46:20.061Z</time></trkpt><trkpt lat="44.6162733" lon="7.870145"><ele>300.0</ele><time>2026-04-12T14:46:21.062Z</time></trkpt><trkpt lat="44.6163467" lon="7.8701283"><ele>300.0</ele><time>2026-04-12T14:46:22.063Z</time></trkpt><trkpt lat="44.6164183" lon="7.8701117"><ele>299.99999999999994</ele><time>2026-04-12T14:46:23.062Z</time></trkpt><trkpt lat="44.6164883" lon="7.8700983"><ele>300.0</ele><time>2026-04-12T14:46:24.062Z</time></trkpt><trkpt lat="44.6165567" lon="7.8700817"><ele>299.6</ele><time>2026-04-12T14:46:25.063Z</time></trkpt><trkpt lat="44.616625" lon="7.8700667"><ele>299.2</ele><time>2026-04-12T14:46:26.064Z</time></trkpt><trkpt lat="44.6166933" lon="7.870055"><ele>298.8</ele><time>2026-04-12T14:46:27.061Z</time></trkpt><trkpt lat="44.61682" lon="7.8700467"><ele>298.4</ele><time>2026-04-12T14:46:29.063Z</time></trkpt><trkpt lat="44.6168883" lon="7.8700383"><ele>298.0</ele><time>2026-04-12T14:46:30.064Z</time></trkpt><trkpt lat="44.6170133" lon="7.8700183"><ele>297.8333333333333</ele><time>2026-04-12T14:46:32.062Z</time></trkpt><trkpt lat="44.6170817" lon="7.8700133"><ele>297.66666666666663</ele><time>2026-04-12T14:46:33.063Z</time></trkpt><trkpt lat="44.617145" lon="7.8700067"><ele>297.5</ele><time>2026-04-12T14:46:34.063Z</time></trkpt><trkpt lat="44.6172683" lon="7.8699883"><ele>297.3333333333333</ele><time>2026-04-12T14:46:36.063Z</time></trkpt><trkpt lat="44.61734" lon="7.8699883"><ele>297.1666666666667</ele><time>2026-04-12T14:46:37.065Z</time></trkpt><trkpt lat="44.61741" lon="7.8699833"><ele>297.0</ele><time>2026-04-12T14:46:38.063Z</time></trkpt><trkpt lat="44.6174767" lon="7.8699683"><ele>297.0</ele><time>2026-04-12T14:46:39.062Z</time></trkpt><trkpt lat="44.6175367" lon="7.8699383"><ele>297.0</ele><time>2026-04-12T14:46:40.063Z</time></trkpt><trkpt lat="44.6176" lon="7.8699"><ele>297.0</ele><time>2026-04-12T14:46:41.062Z</time></trkpt><trkpt lat="44.6176667" lon="7.8698667"><ele>297.0</ele><time>2026-04-12T14:46:42.063Z</time></trkpt><trkpt lat="44.6177367" lon="7.869835"><ele>297.0</ele><time>2026-04-12T14:46:43.061Z</time></trkpt><trkpt lat="44.61781" lon="7.869825"><ele>297.0</ele><time>2026-04-12T14:46:44.061Z</time></trkpt><trkpt lat="44.6178833" lon="7.8698367"><ele>297.0</ele><time>2026-04-12T14:46:45.063Z</time></trkpt><trkpt lat="44.6179533" lon="7.8698567"><ele>296.57142857142856</ele><time>2026-04-12T14:46:46.065Z</time></trkpt><trkpt lat="44.6180167" lon="7.8698917"><ele>296.14285714285717</ele><time>2026-04-12T14:46:47.064Z</time></trkpt><trkpt lat="44.6180783" lon="7.869935"><ele>295.7142857142857</ele><time>2026-04-12T14:46:48.063Z</time></trkpt><trkpt lat="44.6181367" lon="7.8699783"><ele>295.2857142857143</ele><time>2026-04-12T14:46:49.062Z</time></trkpt><trkpt lat="44.6181967" lon="7.870015"><ele>294.8571428571429</ele><time>2026-04-12T14:46:50.063Z</time></trkpt><trkpt lat="44.61826" lon="7.87004"><ele>294.42857142857144</ele><time>2026-04-12T14:46:51.063Z</time></trkpt><trkpt lat="44.618325" lon="7.8700583"><ele>294.0</ele><time>2026-04-12T14:46:52.065Z</time></trkpt><trkpt lat="44.61839" lon="7.87007"><ele>294.0</ele><time>2026-04-12T14:46:53.063Z</time></trkpt><trkpt lat="44.618455" lon="7.8700767"><ele>294.0</ele><time>2026-04-12T14:46:54.063Z</time></trkpt><trkpt lat="44.61852" lon="7.8700833"><ele>294.0</ele><time>2026-04-12T14:46:55.061Z</time></trkpt><trkpt lat="44.6185883" lon="7.8700867"><ele>294.0</ele><time>2026-04-12T14:46:56.063Z</time></trkpt><trkpt lat="44.6186533" lon="7.87009"><ele>294.0</ele><time>2026-04-12T14:46:57.063Z</time></trkpt><trkpt lat="44.6187233" lon="7.8700867"><ele>294.0</ele><time>2026-04-12T14:46:58.063Z</time></trkpt><trkpt lat="44.6187933" lon="7.8700783"><ele>294.0</ele><time>2026-04-12T14:46:59.063Z</time></trkpt><trkpt lat="44.6188667" lon="7.8700683"><ele>294.0</ele><time>2026-04-12T14:47:00.066Z</time></trkpt><trkpt lat="44.6189383" lon="7.8700583"><ele>294.0</ele><time>2026-04-12T14:47:01.064Z</time></trkpt><trkpt lat="44.6190083" lon="7.87005"><ele>294.0</ele><time>2026-04-12T14:47:02.065Z</time></trkpt><trkpt lat="44.6190767" lon="7.8700417"><ele>294.0</ele><time>2026-04-12T14:47:03.063Z</time></trkpt><trkpt lat="44.619145" lon="7.8700367"><ele>294.0</ele><time>2026-04-12T14:47:04.064Z</time></trkpt><trkpt lat="44.6192133" lon="7.87003"><ele>294.0</ele><time>2026-04-12T14:47:05.062Z</time></trkpt><trkpt lat="44.6192817" lon="7.8700217"><ele>294.0</ele><time>2026-04-12T14:47:06.062Z</time></trkpt><trkpt lat="44.61935" lon="7.8700183"><ele>294.0</ele><time>2026-04-12T14:47:07.062Z</time></trkpt><trkpt lat="44.6194133" lon="7.870015"><ele>294.0</ele><time>2026-04-12T14:47:08.062Z</time></trkpt><trkpt lat="44.6194767" lon="7.8700133"><ele>294.0</ele><time>2026-04-12T14:47:09.063Z</time></trkpt><trkpt lat="44.6195417" lon="7.8700117"><ele>294.0</ele><time>2026-04-12T14:47:10.061Z</time></trkpt><trkpt lat="44.619605" lon="7.8699983"><ele>294.0</ele><time>2026-04-12T14:47:11.065Z</time></trkpt><trkpt lat="44.6196667" lon="7.8699733"><ele>294.0</ele><time>2026-04-12T14:47:12.063Z</time></trkpt><trkpt lat="44.61977" lon="7.86988"><ele>294.0</ele><time>2026-04-12T14:47:14.063Z</time></trkpt><trkpt lat="44.6198633" lon="7.8697617"><ele>294.0</ele><time>2026-04-12T14:47:16.063Z</time></trkpt><trkpt lat="44.6199117" lon="7.8697017"><ele>294.0</ele><time>2026-04-12T14:47:17.062Z</time></trkpt><trkpt lat="44.6199583" lon="7.8696417"><ele>294.0</ele><time>2026-04-12T14:47:18.063Z</time></trkpt><trkpt lat="44.6200083" lon="7.8695817"><ele>294.0</ele><time>2026-04-12T14:47:19.062Z</time></trkpt><trkpt lat="44.62006" lon="7.86953"><ele>294.0</ele><time>2026-04-12T14:47:20.057Z</time></trkpt><trkpt lat="44.620115" lon="7.8694817"><ele>294.0</ele><time>2026-04-12T14:47:21.063Z</time></trkpt><trkpt lat="44.62017" lon="7.8694317"><ele>294.0</ele><time>2026-04-12T14:47:22.062Z</time></trkpt><trkpt lat="44.620225" lon="7.8693817"><ele>294.0</ele><time>2026-04-12T14:47:23.057Z</time></trkpt><trkpt lat="44.6202817" lon="7.8693317"><ele>294.0</ele><time>2026-04-12T14:47:24.062Z</time></trkpt><trkpt lat="44.6203383" lon="7.8692833"><ele>294.0</ele><time>2026-04-12T14:47:25.06Z</time></trkpt><trkpt lat="44.6203967" lon="7.8692333"><ele>294.0</ele><time>2026-04-12T14:47:26.064Z</time></trkpt><trkpt lat="44.620455" lon="7.86919"><ele>294.0</ele><time>2026-04-12T14:47:27.062Z</time></trkpt><trkpt lat="44.6205133" lon="7.8691467"><ele>294.0</ele><time>2026-04-12T14:47:28.061Z</time></trkpt><trkpt lat="44.6205733" lon="7.8691067"><ele>294.0</ele><time>2026-04-12T14:47:29.063Z</time></trkpt><trkpt lat="44.6206317" lon="7.8690683"><ele>293.85714285714283</ele><time>2026-04-12T14:47:30.06Z</time></trkpt><trkpt lat="44.6206917" lon="7.8690267"><ele>293.7142857142857</ele><time>2026-04-12T14:47:31.061Z</time></trkpt><trkpt lat="44.62075" lon="7.8689833"><ele>293.57142857142856</ele><time>2026-04-12T14:47:32.06Z</time></trkpt><trkpt lat="44.62081" lon="7.8689433"><ele>293.42857142857144</ele><time>2026-04-12T14:47:33.062Z</time></trkpt><trkpt lat="44.62087" lon="7.8689017"><ele>293.2857142857143</ele><time>2026-04-12T14:47:34.061Z</time></trkpt><trkpt lat="44.6209317" lon="7.8688583"><ele>293.1428571428571</ele><time>2026-04-12T14:47:35.062Z</time></trkpt><trkpt lat="44.6209933" lon="7.8688167"><ele>293.0</ele><time>2026-04-12T14:47:36.061Z</time></trkpt><trkpt lat="44.6210533" lon="7.8687767"><ele>292.99999999999994</ele><time>2026-04-12T14:47:37.063Z</time></trkpt><trkpt lat="44.6211117" lon="7.868735"><ele>293.0</ele><time>2026-04-12T14:47:38.062Z</time></trkpt><trkpt lat="44.6211717" lon="7.8686983"><ele>293.0</ele><time>2026-04-12T14:47:39.064Z</time></trkpt><trkpt lat="44.62123" lon="7.8686617"><ele>293.0</ele><time>2026-04-12T14:47:40.063Z</time></trkpt><trkpt lat="44.6212917" lon="7.868625"><ele>293.0</ele><time>2026-04-12T14:47:41.062Z</time></trkpt><trkpt lat="44.6213517" lon="7.8685867"><ele>292.99999999999994</ele><time>2026-04-12T14:47:42.061Z</time></trkpt><trkpt lat="44.62141" lon="7.8685483"><ele>293.0</ele><time>2026-04-12T14:47:43.062Z</time></trkpt><trkpt lat="44.62147" lon="7.86851"><ele>292.99999999999994</ele><time>2026-04-12T14:47:44.061Z</time></trkpt><trkpt lat="44.6215283" lon="7.8684717"><ele>293.0</ele><time>2026-04-12T14:47:45.063Z</time></trkpt><trkpt lat="44.621585" lon="7.8684267"><ele>293.0</ele><time>2026-04-12T14:47:46.061Z</time></trkpt><trkpt lat="44.6216433" lon="7.8683833"><ele>293.0</ele><time>2026-04-12T14:47:47.062Z</time></trkpt><trkpt lat="44.6217017" lon="7.86834"><ele>293.0</ele><time>2026-04-12T14:47:48.062Z</time></trkpt><trkpt lat="44.62176" lon="7.8682967"><ele>292.99999999999994</ele><time>2026-04-12T14:47:49.062Z</time></trkpt><trkpt lat="44.6218217" lon="7.8682533"><ele>293.0</ele><time>2026-04-12T14:47:50.064Z</time></trkpt><trkpt lat="44.6218833" lon="7.8682117"><ele>292.99999999999994</ele><time>2026-04-12T14:47:51.062Z</time></trkpt><trkpt lat="44.62194" lon="7.86817"><ele>293.0</ele><time>2026-04-12T14:47:52.063Z</time></trkpt><trkpt lat="44.622" lon="7.868125"><ele>293.0</ele><time>2026-04-12T14:47:53.062Z</time></trkpt><trkpt lat="44.6220567" lon="7.8680817"><ele>293.0</ele><time>2026-04-12T14:47:54.065Z</time></trkpt><trkpt lat="44.6221117" lon="7.8680333"><ele>293.0</ele><time>2026-04-12T14:47:55.06Z</time></trkpt><trkpt lat="44.6221667" lon="7.8679867"><ele>292.99999999999994</ele><time>2026-04-12T14:47:56.062Z</time></trkpt><trkpt lat="44.6222217" lon="7.8679417"><ele>293.0</ele><time>2026-04-12T14:47:57.062Z</time></trkpt><trkpt lat="44.62228" lon="7.8678933"><ele>292.99999999999994</ele><time>2026-04-12T14:47:58.061Z</time></trkpt><trkpt lat="44.62234" lon="7.8678467"><ele>293.0</ele><time>2026-04-12T14:47:59.062Z</time></trkpt><trkpt lat="44.6224" lon="7.8677983"><ele>293.0</ele><time>2026-04-12T14:48:00.062Z</time></trkpt><trkpt lat="44.6224617" lon="7.8677517"><ele>293.0</ele><time>2026-04-12T14:48:01.059Z</time></trkpt><trkpt lat="44.6225217" lon="7.867705"><ele>293.0</ele><time>2026-04-12T14:48:02.06Z</time></trkpt><trkpt lat="44.6225833" lon="7.8676617"><ele>292.99999999999994</ele><time>2026-04-12T14:48:03.063Z</time></trkpt><trkpt lat="44.6226433" lon="7.867615"><ele>293.0</ele><time>2026-04-12T14:48:04.06Z</time></trkpt><trkpt lat="44.6227" lon="7.8675667"><ele>292.99999999999994</ele><time>2026-04-12T14:48:05.062Z</time></trkpt><trkpt lat="44.62276" lon="7.8675183"><ele>293.0</ele><time>2026-04-12T14:48:06.063Z</time></trkpt><trkpt lat="44.6228217" lon="7.8674733"><ele>293.0</ele><time>2026-04-12T14:48:07.063Z</time></trkpt><trkpt lat="44.6228817" lon="7.8674283"><ele>293.0</ele><time>2026-04-12T14:48:08.063Z</time></trkpt><trkpt lat="44.6229417" lon="7.8673817"><ele>293.0</ele><time>2026-04-12T14:48:09.063Z</time></trkpt><trkpt lat="44.6230017" lon="7.86734"><ele>292.99999999999994</ele><time>2026-04-12T14:48:10.064Z</time></trkpt><trkpt lat="44.6230583" lon="7.8672967"><ele>293.0</ele><time>2026-04-12T14:48:11.061Z</time></trkpt><trkpt lat="44.6231667" lon="7.867205"><ele>292.99999999999994</ele><time>2026-04-12T14:48:13.06Z</time></trkpt><trkpt lat="44.623225" lon="7.867165"><ele>293.0</ele><time>2026-04-12T14:48:14.062Z</time></trkpt><trkpt lat="44.6232833" lon="7.8671233"><ele>293.0</ele><time>2026-04-12T14:48:15.062Z</time></trkpt><trkpt lat="44.62334" lon="7.8670817"><ele>293.0</ele><time>2026-04-12T14:48:16.062Z</time></trkpt><trkpt lat="44.6233983" lon="7.86704"><ele>293.0</ele><time>2026-04-12T14:48:17.062Z</time></trkpt><trkpt lat="44.623455" lon="7.8669983"><ele>292.99999999999994</ele><time>2026-04-12T14:48:18.062Z</time></trkpt><trkpt lat="44.6235133" lon="7.8669567"><ele>293.0</ele><time>2026-04-12T14:48:19.061Z</time></trkpt><trkpt lat="44.6235717" lon="7.8669133"><ele>292.99999999999994</ele><time>2026-04-12T14:48:20.061Z</time></trkpt><trkpt lat="44.6236283" lon="7.8668683"><ele>293.0</ele><time>2026-04-12T14:48:21.063Z</time></trkpt><trkpt lat="44.6236867" lon="7.866825"><ele>293.0</ele><time>2026-04-12T14:48:22.062Z</time></trkpt><trkpt lat="44.623745" lon="7.8667783"><ele>293.0</ele><time>2026-04-12T14:48:23.06Z</time></trkpt><trkpt lat="44.6238017" lon="7.8667317"><ele>293.0</ele><time>2026-04-12T14:48:24.065Z</time></trkpt><trkpt lat="44.6238583" lon="7.866685"><ele>292.99999999999994</ele><time>2026-04-12T14:48:25.061Z</time></trkpt><trkpt lat="44.6239133" lon="7.8666367"><ele>293.0</ele><time>2026-04-12T14:48:26.062Z</time></trkpt><trkpt lat="44.6239667" lon="7.8665833"><ele>293.0</ele><time>2026-04-12T14:48:27.063Z</time></trkpt><trkpt lat="44.6240567" lon="7.86647"><ele>293.0</ele><time>2026-04-12T14:48:29.062Z</time></trkpt><trkpt lat="44.6241133" lon="7.86633"><ele>293.0</ele><time>2026-04-12T14:48:31.061Z</time></trkpt><trkpt lat="44.6241117" lon="7.86619"><ele>293.0</ele><time>2026-04-12T14:48:33.063Z</time></trkpt><trkpt lat="44.6240717" lon="7.866065"><ele>293.0</ele><time>2026-04-12T14:48:35.063Z</time></trkpt><trkpt lat="44.6240333" lon="7.8659383"><ele>293.0</ele><time>2026-04-12T14:48:37.057Z</time></trkpt><trkpt lat="44.6240033" lon="7.8658117"><ele>293.0</ele><time>2026-04-12T14:48:39.062Z</time></trkpt><trkpt lat="44.6239667" lon="7.8656917"><ele>293.0</ele><time>2026-04-12T14:48:41.062Z</time></trkpt><trkpt lat="44.62393" lon="7.8655767"><ele>293.0</ele><time>2026-04-12T14:48:43.062Z</time></trkpt><trkpt lat="44.62391" lon="7.8654517"><ele>293.0</ele><time>2026-04-12T14:48:45.063Z</time></trkpt><trkpt lat="44.6238967" lon="7.86534"><ele>293.0</ele><time>2026-04-12T14:48:47.062Z</time></trkpt><trkpt lat="44.6238867" lon="7.8652367"><ele>293.0</ele><time>2026-04-12T14:48:49.062Z</time></trkpt><trkpt lat="44.62389" lon="7.86514"><ele>293.0</ele><time>2026-04-12T14:48:51.064Z</time></trkpt><trkpt lat="44.6239117" lon="7.865055"><ele>293.0</ele><time>2026-04-12T14:48:53.065Z</time></trkpt><trkpt lat="44.6239667" lon="7.865005"><ele>293.0</ele><time>2026-04-12T14:48:55.063Z</time></trkpt><trkpt lat="44.624035" lon="7.8649533"><ele>293.0</ele><time>2026-04-12T14:48:57.063Z</time></trkpt><trkpt lat="44.6241067" lon="7.86489"><ele>293.0</ele><time>2026-04-12T14:48:59.062Z</time></trkpt><trkpt lat="44.624185" lon="7.864815"><ele>293.2</ele><time>2026-04-12T14:49:01.063Z</time></trkpt><trkpt lat="44.6242683" lon="7.8647433"><ele>293.4</ele><time>2026-04-12T14:49:03.063Z</time></trkpt><trkpt lat="44.62436" lon="7.8646517"><ele>293.59999999999997</ele><time>2026-04-12T14:49:05.062Z</time></trkpt><trkpt lat="44.624445" lon="7.8645617"><ele>293.8</ele><time>2026-04-12T14:49:07.061Z</time></trkpt><trkpt lat="44.6245317" lon="7.864465"><ele>294.0</ele><time>2026-04-12T14:49:09.064Z</time></trkpt><trkpt lat="44.6246217" lon="7.8643683"><ele>293.59999999999997</ele><time>2026-04-12T14:49:11.06Z</time></trkpt><trkpt lat="44.6247117" lon="7.864275"><ele>293.2</ele><time>2026-04-12T14:49:13.059Z</time></trkpt><trkpt lat="44.6248017" lon="7.8641883"><ele>292.79999999999995</ele><time>2026-04-12T14:49:15.065Z</time></trkpt><trkpt lat="44.62489" lon="7.864095"><ele>292.4</ele><time>2026-04-12T14:49:17.062Z</time></trkpt><trkpt lat="44.62498" lon="7.86402"><ele>292.0</ele><time>2026-04-12T14:49:19.061Z</time></trkpt><trkpt lat="44.6250667" lon="7.8639533"><ele>292.0</ele><time>2026-04-12T14:49:21.063Z</time></trkpt><trkpt lat="44.6251417" lon="7.8638983"><ele>292.0</ele><time>2026-04-12T14:49:23.063Z</time></trkpt><trkpt lat="44.6252083" lon="7.86385"><ele>292.0</ele><time>2026-04-12T14:49:25.062Z</time></trkpt><trkpt lat="44.625265" lon="7.8638017"><ele>292.0</ele><time>2026-04-12T14:49:27.061Z</time></trkpt><trkpt lat="44.6253183" lon="7.86374"><ele>292.0</ele><time>2026-04-12T14:49:29.062Z</time></trkpt><trkpt lat="44.62538" lon="7.863675"><ele>292.0</ele><time>2026-04-12T14:49:31.062Z</time></trkpt><trkpt lat="44.6254467" lon="7.8636"><ele>291.8</ele><time>2026-04-12T14:49:33.063Z</time></trkpt><trkpt lat="44.6255267" lon="7.8635333"><ele>291.6</ele><time>2026-04-12T14:49:35.063Z</time></trkpt><trkpt lat="44.6256233" lon="7.86349"><ele>291.40000000000003</ele><time>2026-04-12T14:49:37.064Z</time></trkpt><trkpt lat="44.625735" lon="7.8635017"><ele>291.2</ele><time>2026-04-12T14:49:39.064Z</time></trkpt><trkpt lat="44.625845" lon="7.8635483"><ele>291.0</ele><time>2026-04-12T14:49:41.062Z</time></trkpt><trkpt lat="44.62596" lon="7.8635917"><ele>291.0</ele><time>2026-04-12T14:49:43.063Z</time></trkpt><trkpt lat="44.6260233" lon="7.863615"><ele>291.0</ele><time>2026-04-12T14:49:44.062Z</time></trkpt><trkpt lat="44.62609" lon="7.86364"><ele>291.0</ele><time>2026-04-12T14:49:45.063Z</time></trkpt><trkpt lat="44.62616" lon="7.86367"><ele>291.0</ele><time>2026-04-12T14:49:46.063Z</time></trkpt><trkpt lat="44.62623" lon="7.8637033"><ele>291.0</ele><time>2026-04-12T14:49:47.063Z</time></trkpt><trkpt lat="44.6262933" lon="7.8637333"><ele>291.0</ele><time>2026-04-12T14:49:48.063Z</time></trkpt><trkpt lat="44.6263567" lon="7.8637583"><ele>291.0</ele><time>2026-04-12T14:49:49.062Z</time></trkpt><trkpt lat="44.6264783" lon="7.8637683"><ele>290.57142857142856</ele><time>2026-04-12T14:49:51.063Z</time></trkpt><trkpt lat="44.6265417" lon="7.86375"><ele>290.1428571428571</ele><time>2026-04-12T14:49:52.067Z</time></trkpt><trkpt lat="44.626605" lon="7.8637217"><ele>289.7142857142857</ele><time>2026-04-12T14:49:53.062Z</time></trkpt><trkpt lat="44.6266733" lon="7.86369"><ele>289.2857142857143</ele><time>2026-04-12T14:49:54.064Z</time></trkpt><trkpt lat="44.62674" lon="7.8636567"><ele>288.8571428571429</ele><time>2026-04-12T14:49:55.064Z</time></trkpt><trkpt lat="44.626805" lon="7.8636233"><ele>288.42857142857144</ele><time>2026-04-12T14:49:56.062Z</time></trkpt><trkpt lat="44.6268717" lon="7.86359"><ele>288.0</ele><time>2026-04-12T14:49:57.064Z</time></trkpt><trkpt lat="44.6269367" lon="7.8635533"><ele>288.6666666666667</ele><time>2026-04-12T14:49:58.063Z</time></trkpt><trkpt lat="44.627" lon="7.863515"><ele>289.3333333333333</ele><time>2026-04-12T14:49:59.064Z</time></trkpt><trkpt lat="44.6270633" lon="7.8634733"><ele>290.0</ele><time>2026-04-12T14:50:00.062Z</time></trkpt><trkpt lat="44.627125" lon="7.863435"><ele>290.66666666666663</ele><time>2026-04-12T14:50:01.064Z</time></trkpt><trkpt lat="44.6271867" lon="7.8633983"><ele>291.3333333333333</ele><time>2026-04-12T14:50:02.062Z</time></trkpt><trkpt lat="44.6272467" lon="7.86336"><ele>292.0</ele><time>2026-04-12T14:50:03.063Z</time></trkpt><trkpt lat="44.62736" lon="7.863285"><ele>292.0</ele><time>2026-04-12T14:50:05.062Z</time></trkpt><trkpt lat="44.6274183" lon="7.8632433"><ele>292.0</ele><time>2026-04-12T14:50:06.063Z</time></trkpt><trkpt lat="44.6274783" lon="7.8632017"><ele>292.0</ele><time>2026-04-12T14:50:07.063Z</time></trkpt><trkpt lat="44.6275333" lon="7.8631583"><ele>292.0</ele><time>2026-04-12T14:50:08.066Z</time></trkpt><trkpt lat="44.6275933" lon="7.863115"><ele>292.0</ele><time>2026-04-12T14:50:09.066Z</time></trkpt><trkpt lat="44.62765" lon="7.8630717"><ele>292.0</ele><time>2026-04-12T14:50:10.063Z</time></trkpt><trkpt lat="44.6277083" lon="7.8630283"><ele>292.0</ele><time>2026-04-12T14:50:11.062Z</time></trkpt><trkpt lat="44.6277667" lon="7.8629833"><ele>289.75</ele><time>2026-04-12T14:50:12.06Z</time></trkpt><trkpt lat="44.62788" lon="7.8628983"><ele>287.5</ele><time>2026-04-12T14:50:14.064Z</time></trkpt><trkpt lat="44.6279917" lon="7.86282"><ele>285.25</ele><time>2026-04-12T14:50:16.063Z</time></trkpt><trkpt lat="44.62811" lon="7.8627433"><ele>283.0</ele><time>2026-04-12T14:50:18.062Z</time></trkpt><trkpt lat="44.6282233" lon="7.8626733"><ele>285.5</ele><time>2026-04-12T14:50:20.064Z</time></trkpt><trkpt lat="44.6283333" lon="7.862605"><ele>288.0</ele><time>2026-04-12T14:50:22.063Z</time></trkpt><trkpt lat="44.628435" lon="7.86253"><ele>290.5</ele><time>2026-04-12T14:50:24.063Z</time></trkpt><trkpt lat="44.628535" lon="7.8624317"><ele>293.0</ele><time>2026-04-12T14:50:26.063Z</time></trkpt><trkpt lat="44.6286367" lon="7.862335"><ele>292.0</ele><time>2026-04-12T14:50:28.062Z</time></trkpt><trkpt lat="44.62874" lon="7.8622467"><ele>291.0</ele><time>2026-04-12T14:50:30.062Z</time></trkpt><trkpt lat="44.6288483" lon="7.8621733"><ele>290.0</ele><time>2026-04-12T14:50:32.063Z</time></trkpt><trkpt lat="44.6289583" lon="7.8621033"><ele>289.0</ele><time>2026-04-12T14:50:34.062Z</time></trkpt><trkpt lat="44.629075" lon="7.8620633"><ele>289.0</ele><time>2026-04-12T14:50:36.06Z</time></trkpt><trkpt lat="44.6291367" lon="7.862045"><ele>289.0</ele><time>2026-04-12T14:50:37.063Z</time></trkpt><trkpt lat="44.6292567" lon="7.86202"><ele>289.0</ele><time>2026-04-12T14:50:39.062Z</time></trkpt><trkpt lat="44.6293783" lon="7.8620133"><ele>289.0</ele><time>2026-04-12T14:50:41.062Z</time></trkpt><trkpt lat="44.6294983" lon="7.8620167"><ele>289.0</ele><time>2026-04-12T14:50:43.062Z</time></trkpt><trkpt lat="44.6295617" lon="7.862025"><ele>288.75</ele><time>2026-04-12T14:50:44.062Z</time></trkpt><trkpt lat="44.6296833" lon="7.8620467"><ele>288.5</ele><time>2026-04-12T14:50:46.062Z</time></trkpt><trkpt lat="44.6297933" lon="7.862075"><ele>288.25</ele><time>2026-04-12T14:50:48.063Z</time></trkpt><trkpt lat="44.62991" lon="7.8620983"><ele>288.0</ele><time>2026-04-12T14:50:50.063Z</time></trkpt><trkpt lat="44.6300217" lon="7.8621283"><ele>288.0</ele><time>2026-04-12T14:50:52.062Z</time></trkpt><trkpt lat="44.6301233" lon="7.86214"><ele>288.0</ele><time>2026-04-12T14:50:54.061Z</time></trkpt><trkpt lat="44.6302383" lon="7.8621367"><ele>288.0</ele><time>2026-04-12T14:50:56.065Z</time></trkpt><trkpt lat="44.630355" lon="7.8621217"><ele>288.0</ele><time>2026-04-12T14:50:58.063Z</time></trkpt><trkpt lat="44.630465" lon="7.8621133"><ele>288.0</ele><time>2026-04-12T14:51:00.065Z</time></trkpt><trkpt lat="44.630575" lon="7.8620867"><ele>287.5</ele><time>2026-04-12T14:51:02.063Z</time></trkpt><trkpt lat="44.6306867" lon="7.8620483"><ele>287.0</ele><time>2026-04-12T14:51:04.064Z</time></trkpt><trkpt lat="44.630795" lon="7.862015"><ele>286.5</ele><time>2026-04-12T14:51:06.063Z</time></trkpt><trkpt lat="44.630915" lon="7.86198"><ele>286.0</ele><time>2026-04-12T14:51:08.063Z</time></trkpt><trkpt lat="44.63103" lon="7.8619467"><ele>286.0</ele><time>2026-04-12T14:51:10.063Z</time></trkpt><trkpt lat="44.63114" lon="7.8619167"><ele>286.0</ele><time>2026-04-12T14:51:12.063Z</time></trkpt><trkpt lat="44.631255" lon="7.86188"><ele>286.0</ele><time>2026-04-12T14:51:14.063Z</time></trkpt><trkpt lat="44.6313667" lon="7.8618467"><ele>286.0</ele><time>2026-04-12T14:51:16.063Z</time></trkpt><trkpt lat="44.6314817" lon="7.8618283"><ele>285.8</ele><time>2026-04-12T14:51:18.063Z</time></trkpt><trkpt lat="44.6315883" lon="7.8618167"><ele>285.6</ele><time>2026-04-12T14:51:20.064Z</time></trkpt><trkpt lat="44.6316917" lon="7.8618067"><ele>285.4</ele><time>2026-04-12T14:51:22.065Z</time></trkpt><trkpt lat="44.6318" lon="7.8617833"><ele>285.2</ele><time>2026-04-12T14:51:24.058Z</time></trkpt><trkpt lat="44.6318983" lon="7.8617733"><ele>285.0</ele><time>2026-04-12T14:51:26.063Z</time></trkpt><trkpt lat="44.6319967" lon="7.8617667"><ele>285.8</ele><time>2026-04-12T14:51:28.063Z</time></trkpt><trkpt lat="44.6320917" lon="7.861765"><ele>286.6</ele><time>2026-04-12T14:51:30.063Z</time></trkpt><trkpt lat="44.63219" lon="7.86176"><ele>287.4</ele><time>2026-04-12T14:51:32.064Z</time></trkpt><trkpt lat="44.632295" lon="7.86177"><ele>288.2</ele><time>2026-04-12T14:51:34.063Z</time></trkpt><trkpt lat="44.632405" lon="7.8617783"><ele>289.0</ele><time>2026-04-12T14:51:36.063Z</time></trkpt><trkpt lat="44.632515" lon="7.86178"><ele>289.0</ele><time>2026-04-12T14:51:38.063Z</time></trkpt><trkpt lat="44.6326217" lon="7.8617883"><ele>289.0</ele><time>2026-04-12T14:51:40.064Z</time></trkpt><trkpt lat="44.6327333" lon="7.861795"><ele>289.0</ele><time>2026-04-12T14:51:42.064Z</time></trkpt><trkpt lat="44.6328467" lon="7.8617917"><ele>289.0</ele><time>2026-04-12T14:51:44.063Z</time></trkpt><trkpt lat="44.6329617" lon="7.8617833"><ele>289.0</ele><time>2026-04-12T14:51:46.061Z</time></trkpt><trkpt lat="44.633075" lon="7.861755"><ele>289.0</ele><time>2026-04-12T14:51:48.063Z</time></trkpt><trkpt lat="44.6331883" lon="7.861715"><ele>289.0</ele><time>2026-04-12T14:51:50.063Z</time></trkpt><trkpt lat="44.6332967" lon="7.8616683"><ele>289.0</ele><time>2026-04-12T14:51:52.064Z</time></trkpt><trkpt lat="44.6333983" lon="7.8616133"><ele>289.0</ele><time>2026-04-12T14:51:54.063Z</time></trkpt><trkpt lat="44.6334967" lon="7.8615717"><ele>289.0</ele><time>2026-04-12T14:51:56.063Z</time></trkpt><trkpt lat="44.633595" lon="7.86152"><ele>288.0</ele><time>2026-04-12T14:51:58.062Z</time></trkpt><trkpt lat="44.6337" lon="7.8614717"><ele>287.0</ele><time>2026-04-12T14:52:00.062Z</time></trkpt><trkpt lat="44.6338067" lon="7.861415"><ele>286.0</ele><time>2026-04-12T14:52:02.063Z</time></trkpt><trkpt lat="44.633915" lon="7.8613633"><ele>285.0</ele><time>2026-04-12T14:52:04.062Z</time></trkpt><trkpt lat="44.6340267" lon="7.86132"><ele>285.0</ele><time>2026-04-12T14:52:06.065Z</time></trkpt><trkpt lat="44.6341383" lon="7.86128"><ele>285.0</ele><time>2026-04-12T14:52:08.061Z</time></trkpt><trkpt lat="44.6342483" lon="7.8612533"><ele>285.0</ele><time>2026-04-12T14:52:10.063Z</time></trkpt><trkpt lat="44.6343617" lon="7.861205"><ele>285.0</ele><time>2026-04-12T14:52:12.063Z</time></trkpt><trkpt lat="44.63447" lon="7.861145"><ele>285.75</ele><time>2026-04-12T14:52:14.063Z</time></trkpt><trkpt lat="44.63458" lon="7.8610767"><ele>286.5</ele><time>2026-04-12T14:52:16.063Z</time></trkpt><trkpt lat="44.6346833" lon="7.86099"><ele>287.25</ele><time>2026-04-12T14:52:18.064Z</time></trkpt><trkpt lat="44.634775" lon="7.86088"><ele>288.0</ele><time>2026-04-12T14:52:20.063Z</time></trkpt><trkpt lat="44.6348617" lon="7.8607683"><ele>288.0</ele><time>2026-04-12T14:52:22.062Z</time></trkpt><trkpt lat="44.6349433" lon="7.8606667"><ele>288.0</ele><time>2026-04-12T14:52:24.064Z</time></trkpt><trkpt lat="44.6350233" lon="7.8605683"><ele>288.0</ele><time>2026-04-12T14:52:26.063Z</time></trkpt><trkpt lat="44.6351067" lon="7.86047"><ele>288.0</ele><time>2026-04-12T14:52:28.063Z</time></trkpt><trkpt lat="44.6351883" lon="7.860365"><ele>288.0</ele><time>2026-04-12T14:52:30.063Z</time></trkpt><trkpt lat="44.6352717" lon="7.8602633"><ele>287.75</ele><time>2026-04-12T14:52:32.063Z</time></trkpt><trkpt lat="44.6353483" lon="7.860155"><ele>287.5</ele><time>2026-04-12T14:52:34.064Z</time></trkpt><trkpt lat="44.635415" lon="7.8600317"><ele>287.25</ele><time>2026-04-12T14:52:36.062Z</time></trkpt><trkpt lat="44.6354817" lon="7.8598983"><ele>287.0</ele><time>2026-04-12T14:52:38.065Z</time></trkpt><trkpt lat="44.635555" lon="7.8597733"><ele>287.0</ele><time>2026-04-12T14:52:40.061Z</time></trkpt><trkpt lat="44.6356367" lon="7.8596667"><ele>287.0</ele><time>2026-04-12T14:52:42.062Z</time></trkpt><trkpt lat="44.6357417" lon="7.8595983"><ele>287.0</ele><time>2026-04-12T14:52:44.062Z</time></trkpt><trkpt lat="44.6358567" lon="7.8595683"><ele>287.0</ele><time>2026-04-12T14:52:46.062Z</time></trkpt><trkpt lat="44.6359683" lon="7.8595783"><ele>287.0</ele><time>2026-04-12T14:52:48.062Z</time></trkpt><trkpt lat="44.6360817" lon="7.8596033"><ele>287.0</ele><time>2026-04-12T14:52:50.062Z</time></trkpt><trkpt lat="44.6361933" lon="7.8596383"><ele>287.0</ele><time>2026-04-12T14:52:52.064Z</time></trkpt><trkpt lat="44.636305" lon="7.8596783"><ele>287.0</ele><time>2026-04-12T14:52:54.063Z</time></trkpt><trkpt lat="44.6364133" lon="7.8597267"><ele>286.8</ele><time>2026-04-12T14:52:56.064Z</time></trkpt><trkpt lat="44.63652" lon="7.859775"><ele>286.6</ele><time>2026-04-12T14:52:58.065Z</time></trkpt><trkpt lat="44.6366267" lon="7.85981"><ele>286.40000000000003</ele><time>2026-04-12T14:53:00.064Z</time></trkpt><trkpt lat="44.6367367" lon="7.8598433"><ele>286.2</ele><time>2026-04-12T14:53:02.063Z</time></trkpt><trkpt lat="44.636845" lon="7.859875"><ele>286.0</ele><time>2026-04-12T14:53:04.063Z</time></trkpt><trkpt lat="44.6369533" lon="7.8598933"><ele>286.40000000000003</ele><time>2026-04-12T14:53:06.061Z</time></trkpt><trkpt lat="44.637055" lon="7.859905"><ele>286.8</ele><time>2026-04-12T14:53:08.062Z</time></trkpt><trkpt lat="44.6371567" lon="7.85993"><ele>287.20000000000005</ele><time>2026-04-12T14:53:10.064Z</time></trkpt><trkpt lat="44.63726" lon="7.8599583"><ele>287.6</ele><time>2026-04-12T14:53:12.064Z</time></trkpt><trkpt lat="44.6373683" lon="7.859975"><ele>288.0</ele><time>2026-04-12T14:53:14.064Z</time></trkpt><trkpt lat="44.6374767" lon="7.8599883"><ele>288.0</ele><time>2026-04-12T14:53:16.062Z</time></trkpt><trkpt lat="44.6375867" lon="7.8599917"><ele>288.0</ele><time>2026-04-12T14:53:18.062Z</time></trkpt><trkpt lat="44.6376967" lon="7.8599983"><ele>288.0</ele><time>2026-04-12T14:53:20.062Z</time></trkpt><trkpt lat="44.6378067" lon="7.8600083"><ele>288.0</ele><time>2026-04-12T14:53:22.062Z</time></trkpt><trkpt lat="44.6379183" lon="7.8600167"><ele>288.0</ele><time>2026-04-12T14:53:24.065Z</time></trkpt><trkpt lat="44.63803" lon="7.860015"><ele>287.8</ele><time>2026-04-12T14:53:26.061Z</time></trkpt><trkpt lat="44.63814" lon="7.8600183"><ele>287.6</ele><time>2026-04-12T14:53:28.062Z</time></trkpt><trkpt lat="44.63825" lon="7.8600133"><ele>287.4</ele><time>2026-04-12T14:53:30.062Z</time></trkpt><trkpt lat="44.6383583" lon="7.8599967"><ele>287.2</ele><time>2026-04-12T14:53:32.063Z</time></trkpt><trkpt lat="44.6384567" lon="7.8599867"><ele>287.0</ele><time>2026-04-12T14:53:34.061Z</time></trkpt><trkpt lat="44.6385583" lon="7.8599783"><ele>286.8</ele><time>2026-04-12T14:53:36.063Z</time></trkpt><trkpt lat="44.638665" lon="7.8599733"><ele>286.6</ele><time>2026-04-12T14:53:38.061Z</time></trkpt><trkpt lat="44.63877" lon="7.8599683"><ele>286.40000000000003</ele><time>2026-04-12T14:53:40.061Z</time></trkpt><trkpt lat="44.63888" lon="7.8599583"><ele>286.2</ele><time>2026-04-12T14:53:42.061Z</time></trkpt><trkpt lat="44.6389883" lon="7.859945"><ele>286.0</ele><time>2026-04-12T14:53:44.063Z</time></trkpt><trkpt lat="44.6391033" lon="7.859935"><ele>286.0</ele><time>2026-04-12T14:53:46.061Z</time></trkpt><trkpt lat="44.63922" lon="7.8599217"><ele>286.0</ele><time>2026-04-12T14:53:48.06Z</time></trkpt><trkpt lat="44.6393333" lon="7.8599133"><ele>286.0</ele><time>2026-04-12T14:53:50.061Z</time></trkpt><trkpt lat="44.639445" lon="7.8598983"><ele>286.0</ele><time>2026-04-12T14:53:52.061Z</time></trkpt><trkpt lat="44.6395567" lon="7.8598817"><ele>286.0</ele><time>2026-04-12T14:53:54.062Z</time></trkpt><trkpt lat="44.639665" lon="7.8598617"><ele>286.0</ele><time>2026-04-12T14:53:56.064Z</time></trkpt><trkpt lat="44.6397733" lon="7.8598317"><ele>286.0</ele><time>2026-04-12T14:53:58.063Z</time></trkpt><trkpt lat="44.6398867" lon="7.85982"><ele>286.0</ele><time>2026-04-12T14:54:00.062Z</time></trkpt><trkpt lat="44.6400033" lon="7.85982"><ele>286.0</ele><time>2026-04-12T14:54:02.062Z</time></trkpt><trkpt lat="44.6401183" lon="7.85982"><ele>286.0</ele><time>2026-04-12T14:54:04.062Z</time></trkpt><trkpt lat="44.6402333" lon="7.8598233"><ele>286.0</ele><time>2026-04-12T14:54:06.063Z</time></trkpt><trkpt lat="44.6403483" lon="7.8598417"><ele>286.0</ele><time>2026-04-12T14:54:08.063Z</time></trkpt><trkpt lat="44.6404617" lon="7.8598667"><ele>285.8</ele><time>2026-04-12T14:54:10.062Z</time></trkpt><trkpt lat="44.640575" lon="7.8598867"><ele>285.6</ele><time>2026-04-12T14:54:12.064Z</time></trkpt><trkpt lat="44.6406817" lon="7.8599183"><ele>285.4</ele><time>2026-04-12T14:54:14.061Z</time></trkpt><trkpt lat="44.6407917" lon="7.8599333"><ele>285.2</ele><time>2026-04-12T14:54:16.063Z</time></trkpt><trkpt lat="44.6409017" lon="7.859955"><ele>285.0</ele><time>2026-04-12T14:54:18.063Z</time></trkpt><trkpt lat="44.6410117" lon="7.8599933"><ele>285.0</ele><time>2026-04-12T14:54:20.061Z</time></trkpt><trkpt lat="44.641115" lon="7.8600517"><ele>285.0</ele><time>2026-04-12T14:54:22.062Z</time></trkpt><trkpt lat="44.6412167" lon="7.8601133"><ele>285.0</ele><time>2026-04-12T14:54:24.061Z</time></trkpt><trkpt lat="44.6413133" lon="7.860185"><ele>285.0</ele><time>2026-04-12T14:54:26.063Z</time></trkpt><trkpt lat="44.6414083" lon="7.860265"><ele>285.0</ele><time>2026-04-12T14:54:28.062Z</time></trkpt><trkpt lat="44.6415033" lon="7.8603433"><ele>284.6666666666667</ele><time>2026-04-12T14:54:30.063Z</time></trkpt><trkpt lat="44.6415967" lon="7.86038"><ele>284.3333333333333</ele><time>2026-04-12T14:54:32.061Z</time></trkpt><trkpt lat="44.6416833" lon="7.860395"><ele>284.0</ele><time>2026-04-12T14:54:34.061Z</time></trkpt><trkpt lat="44.641765" lon="7.8604217"><ele>283.66666666666663</ele><time>2026-04-12T14:54:36.061Z</time></trkpt><trkpt lat="44.64184" lon="7.860445"><ele>283.3333333333333</ele><time>2026-04-12T14:54:38.061Z</time></trkpt><trkpt lat="44.6419133" lon="7.860455"><ele>283.0</ele><time>2026-04-12T14:54:40.062Z</time></trkpt><trkpt lat="44.6419783" lon="7.86046"><ele>283.0</ele><time>2026-04-12T14:54:42.061Z</time></trkpt><trkpt lat="44.6420433" lon="7.860465"><ele>283.0</ele><time>2026-04-12T14:54:44.062Z</time></trkpt><trkpt lat="44.6421067" lon="7.8604717"><ele>283.0</ele><time>2026-04-12T14:54:46.063Z</time></trkpt><trkpt lat="44.6421783" lon="7.8604883"><ele>283.0</ele><time>2026-04-12T14:54:48.062Z</time></trkpt><trkpt lat="44.6422567" lon="7.860505"><ele>283.0</ele><time>2026-04-12T14:54:50.062Z</time></trkpt><trkpt lat="44.642345" lon="7.86051"><ele>283.0</ele><time>2026-04-12T14:54:52.063Z</time></trkpt><trkpt lat="44.642435" lon="7.860525"><ele>283.0</ele><time>2026-04-12T14:54:54.064Z</time></trkpt><trkpt lat="44.64252" lon="7.8605467"><ele>283.0</ele><time>2026-04-12T14:54:56.063Z</time></trkpt><trkpt lat="44.6426033" lon="7.8605833"><ele>283.0</ele><time>2026-04-12T14:54:58.062Z</time></trkpt><trkpt lat="44.64268" lon="7.86063"><ele>283.0</ele><time>2026-04-12T14:55:00.063Z</time></trkpt><trkpt lat="44.642765" lon="7.8606917"><ele>283.0</ele><time>2026-04-12T14:55:02.062Z</time></trkpt><trkpt lat="44.6428483" lon="7.8607633"><ele>282.6</ele><time>2026-04-12T14:55:04.065Z</time></trkpt><trkpt lat="44.64293" lon="7.86085"><ele>282.20000000000005</ele><time>2026-04-12T14:55:06.063Z</time></trkpt><trkpt lat="44.64302" lon="7.860935"><ele>281.8</ele><time>2026-04-12T14:55:08.061Z</time></trkpt><trkpt lat="44.6431133" lon="7.8610167"><ele>281.40000000000003</ele><time>2026-04-12T14:55:10.062Z</time></trkpt><trkpt lat="44.6432067" lon="7.8610917"><ele>281.0</ele><time>2026-04-12T14:55:12.063Z</time></trkpt><trkpt lat="44.6433083" lon="7.8611467"><ele>281.0</ele><time>2026-04-12T14:55:14.061Z</time></trkpt><trkpt lat="44.6434083" lon="7.8611833"><ele>281.0</ele><time>2026-04-12T14:55:16.063Z</time></trkpt><trkpt lat="44.6435067" lon="7.86121"><ele>281.0</ele><time>2026-04-12T14:55:18.06Z</time></trkpt><trkpt lat="44.6436017" lon="7.861245"><ele>281.0</ele><time>2026-04-12T14:55:20.062Z</time></trkpt><trkpt lat="44.6436833" lon="7.86128"><ele>281.0</ele><time>2026-04-12T14:55:22.066Z</time></trkpt><trkpt lat="44.6437567" lon="7.861315"><ele>281.5714285714286</ele><time>2026-04-12T14:55:24.06Z</time></trkpt><trkpt lat="44.6438233" lon="7.86135"><ele>282.14285714285717</ele><time>2026-04-12T14:55:26.061Z</time></trkpt><trkpt lat="44.64388" lon="7.8613933"><ele>282.7142857142857</ele><time>2026-04-12T14:55:28.063Z</time></trkpt><trkpt lat="44.64396" lon="7.86145"><ele>283.28571428571433</ele><time>2026-04-12T14:55:31.062Z</time></trkpt><trkpt lat="44.6440367" lon="7.861455"><ele>283.8571428571429</ele><time>2026-04-12T14:55:34.06Z</time></trkpt><trkpt lat="44.6439733" lon="7.8614"><ele>284.42857142857144</ele><time>2026-04-12T14:55:45.062Z</time></trkpt><trkpt lat="44.6439183" lon="7.8613383"><ele>285.0</ele><time>2026-04-12T14:55:47.062Z</time></trkpt><trkpt lat="44.64385" lon="7.8612967"><ele>285.0</ele><time>2026-04-12T14:55:49.061Z</time></trkpt><trkpt lat="44.6437733" lon="7.8612667"><ele>285.0</ele><time>2026-04-12T14:55:51.061Z</time></trkpt><trkpt lat="44.6437" lon="7.8612333"><ele>285.0</ele><time>2026-04-12T14:55:53.06Z</time></trkpt><trkpt lat="44.6436333" lon="7.8612"><ele>285.0</ele><time>2026-04-12T14:55:55.06Z</time></trkpt><trkpt lat="44.643565" lon="7.861175"><ele>285.0</ele><time>2026-04-12T14:55:57.06Z</time></trkpt><trkpt lat="44.643635" lon="7.8612433"><ele>285.0</ele><time>2026-04-12T14:56:44.063Z</time></trkpt><trkpt lat="44.6437267" lon="7.8612817"><ele>285.0</ele><time>2026-04-12T14:56:47.063Z</time></trkpt><trkpt lat="44.6438017" lon="7.861325"><ele>285.0</ele><time>2026-04-12T14:56:49.064Z</time></trkpt><trkpt lat="44.6438733" lon="7.8613783"><ele>285.0</ele><time>2026-04-12T14:56:51.064Z</time></trkpt><trkpt lat="44.6439533" lon="7.8614383"><ele>285.0</ele><time>2026-04-12T14:56:53.062Z</time></trkpt><trkpt lat="44.6440383" lon="7.861495"><ele>285.0</ele><time>2026-04-12T14:56:55.061Z</time></trkpt><trkpt lat="44.644125" lon="7.861555"><ele>285.0</ele><time>2026-04-12T14:56:57.064Z</time></trkpt><trkpt lat="44.6442033" lon="7.86162"><ele>285.0</ele><time>2026-04-12T14:56:59.063Z</time></trkpt><trkpt lat="44.6442867" lon="7.8616733"><ele>285.0</ele><time>2026-04-12T14:57:01.063Z</time></trkpt><trkpt lat="44.6443683" lon="7.8617217"><ele>285.0</ele><time>2026-04-12T14:57:03.065Z</time></trkpt><trkpt lat="44.6444467" lon="7.8617617"><ele>285.0</ele><time>2026-04-12T14:57:05.062Z</time></trkpt><trkpt lat="44.64452" lon="7.8618"><ele>285.0</ele><time>2026-04-12T14:57:07.065Z</time></trkpt><trkpt lat="44.6445933" lon="7.861835"><ele>285.0</ele><time>2026-04-12T14:57:09.063Z</time></trkpt><trkpt lat="44.6446733" lon="7.8618617"><ele>283.4</ele><time>2026-04-12T14:57:11.062Z</time></trkpt><trkpt lat="44.64476" lon="7.861885"><ele>281.8</ele><time>2026-04-12T14:57:13.063Z</time></trkpt><trkpt lat="44.6448533" lon="7.8619117"><ele>280.2</ele><time>2026-04-12T14:57:15.063Z</time></trkpt><trkpt lat="44.6449483" lon="7.861935"><ele>278.6</ele><time>2026-04-12T14:57:17.061Z</time></trkpt><trkpt lat="44.6450417" lon="7.86196"><ele>277.0</ele><time>2026-04-12T14:57:19.064Z</time></trkpt><trkpt lat="44.6451267" lon="7.8619767"><ele>277.0</ele><time>2026-04-12T14:57:21.064Z</time></trkpt><trkpt lat="44.6452067" lon="7.8619883"><ele>277.0</ele><time>2026-04-12T14:57:23.063Z</time></trkpt><trkpt lat="44.64529" lon="7.8619883"><ele>277.0</ele><time>2026-04-12T14:57:25.064Z</time></trkpt><trkpt lat="44.6453783" lon="7.8619883"><ele>277.0</ele><time>2026-04-12T14:57:27.064Z</time></trkpt><trkpt lat="44.645475" lon="7.86199"><ele>277.0</ele><time>2026-04-12T14:57:29.061Z</time></trkpt><trkpt lat="44.6455683" lon="7.8620033"><ele>277.0</ele><time>2026-04-12T14:57:31.064Z</time></trkpt><trkpt lat="44.645665" lon="7.862005"><ele>277.0</ele><time>2026-04-12T14:57:33.057Z</time></trkpt><trkpt lat="44.6457683" lon="7.8620017"><ele>277.0</ele><time>2026-04-12T14:57:35.065Z</time></trkpt><trkpt lat="44.6458767" lon="7.862005"><ele>277.0</ele><time>2026-04-12T14:57:37.06Z</time></trkpt><trkpt lat="44.6459883" lon="7.862"><ele>277.0</ele><time>2026-04-12T14:57:39.056Z</time></trkpt><trkpt lat="44.6460833" lon="7.8620017"><ele>277.0</ele><time>2026-04-12T14:57:41.056Z</time></trkpt><trkpt lat="44.6461717" lon="7.862"><ele>276.16666666666663</ele><time>2026-04-12T14:57:43.057Z</time></trkpt><trkpt lat="44.64626" lon="7.8619883"><ele>275.3333333333333</ele><time>2026-04-12T14:57:45.058Z</time></trkpt><trkpt lat="44.6463517" lon="7.8619683"><ele>274.5</ele><time>2026-04-12T14:57:47.058Z</time></trkpt><trkpt lat="44.6464367" lon="7.8619367"><ele>273.6666666666667</ele><time>2026-04-12T14:57:49.06Z</time></trkpt><trkpt lat="44.646515" lon="7.8619217"><ele>272.83333333333337</ele><time>2026-04-12T14:57:51.064Z</time></trkpt><trkpt lat="44.6466017" lon="7.8618933"><ele>272.0</ele><time>2026-04-12T14:57:53.062Z</time></trkpt><trkpt lat="44.6466983" lon="7.8618617"><ele>272.0</ele><time>2026-04-12T14:57:55.064Z</time></trkpt><trkpt lat="44.6467883" lon="7.861835"><ele>272.0</ele><time>2026-04-12T14:57:57.063Z</time></trkpt><trkpt lat="44.646875" lon="7.8618017"><ele>272.0</ele><time>2026-04-12T14:57:59.063Z</time></trkpt><trkpt lat="44.6469667" lon="7.8617883"><ele>272.0</ele><time>2026-04-12T14:58:01.065Z</time></trkpt><trkpt lat="44.6470517" lon="7.8617817"><ele>272.0</ele><time>2026-04-12T14:58:03.062Z</time></trkpt><trkpt lat="44.6471333" lon="7.8617717"><ele>272.0</ele><time>2026-04-12T14:58:05.062Z</time></trkpt><trkpt lat="44.647215" lon="7.8617617"><ele>274.6666666666667</ele><time>2026-04-12T14:58:07.062Z</time></trkpt><trkpt lat="44.6472983" lon="7.861765"><ele>277.33333333333337</ele><time>2026-04-12T14:58:09.062Z</time></trkpt><trkpt lat="44.647385" lon="7.86176"><ele>280.0</ele><time>2026-04-12T14:58:11.062Z</time></trkpt><trkpt lat="44.6474733" lon="7.8617417"><ele>282.6666666666667</ele><time>2026-04-12T14:58:13.062Z</time></trkpt><trkpt lat="44.6475517" lon="7.8617217"><ele>285.3333333333333</ele><time>2026-04-12T14:58:15.063Z</time></trkpt><trkpt lat="44.6476317" lon="7.8616617"><ele>288.0</ele><time>2026-04-12T14:58:17.062Z</time></trkpt><trkpt lat="44.647705" lon="7.8615433"><ele>288.0</ele><time>2026-04-12T14:58:19.062Z</time></trkpt><trkpt lat="44.64777" lon="7.8614133"><ele>288.0</ele><time>2026-04-12T14:58:21.062Z</time></trkpt><trkpt lat="44.6478433" lon="7.8612883"><ele>288.0</ele><time>2026-04-12T14:58:23.062Z</time></trkpt><trkpt lat="44.6479367" lon="7.8612167"><ele>288.0</ele><time>2026-04-12T14:58:25.063Z</time></trkpt><trkpt lat="44.6480483" lon="7.8612033"><ele>288.0</ele><time>2026-04-12T14:58:27.063Z</time></trkpt><trkpt lat="44.6481667" lon="7.8611967"><ele>287.8</ele><time>2026-04-12T14:58:29.061Z</time></trkpt><trkpt lat="44.64823" lon="7.8611967"><ele>287.6</ele><time>2026-04-12T14:58:30.058Z</time></trkpt><trkpt lat="44.6483533" lon="7.8612"><ele>287.4</ele><time>2026-04-12T14:58:32.062Z</time></trkpt><trkpt lat="44.6484167" lon="7.8611967"><ele>287.2</ele><time>2026-04-12T14:58:33.061Z</time></trkpt><trkpt lat="44.6485417" lon="7.8611983"><ele>287.0</ele><time>2026-04-12T14:58:35.06Z</time></trkpt><trkpt lat="44.6486583" lon="7.8611933"><ele>288.0</ele><time>2026-04-12T14:58:37.062Z</time></trkpt><trkpt lat="44.6487717" lon="7.86119"><ele>289.0</ele><time>2026-04-12T14:58:39.062Z</time></trkpt><trkpt lat="44.6488883" lon="7.8611867"><ele>290.0</ele><time>2026-04-12T14:58:41.062Z</time></trkpt><trkpt lat="44.64901" lon="7.8611817"><ele>291.0</ele><time>2026-04-12T14:58:43.063Z</time></trkpt><trkpt lat="44.64913" lon="7.8611817"><ele>291.0</ele><time>2026-04-12T14:58:45.062Z</time></trkpt><trkpt lat="44.6492467" lon="7.86118"><ele>291.0</ele><time>2026-04-12T14:58:47.065Z</time></trkpt><trkpt lat="44.6493617" lon="7.861175"><ele>291.0</ele><time>2026-04-12T14:58:49.062Z</time></trkpt><trkpt lat="44.6494717" lon="7.861165"><ele>291.0</ele><time>2026-04-12T14:58:51.063Z</time></trkpt><trkpt lat="44.6495617" lon="7.86111"><ele>291.0</ele><time>2026-04-12T14:58:53.062Z</time></trkpt><trkpt lat="44.64961" lon="7.8609683"><ele>291.0</ele><time>2026-04-12T14:58:55.063Z</time></trkpt><trkpt lat="44.6496183" lon="7.8607883"><ele>291.0</ele><time>2026-04-12T14:58:57.063Z</time></trkpt><trkpt lat="44.6496167" lon="7.8606967"><ele>291.0</ele><time>2026-04-12T14:58:58.062Z</time></trkpt><trkpt lat="44.6496117" lon="7.8606"><ele>291.0</ele><time>2026-04-12T14:58:59.062Z</time></trkpt><trkpt lat="44.649605" lon="7.860505"><ele>291.0</ele><time>2026-04-12T14:59:00.063Z</time></trkpt><trkpt lat="44.6496017" lon="7.86041"><ele>291.0</ele><time>2026-04-12T14:59:01.063Z</time></trkpt><trkpt lat="44.649605" lon="7.8603133"><ele>291.0</ele><time>2026-04-12T14:59:02.063Z</time></trkpt><trkpt lat="44.6496083" lon="7.8602133"><ele>291.0</ele><time>2026-04-12T14:59:03.062Z</time></trkpt><trkpt lat="44.64961" lon="7.8601167"><ele>291.0</ele><time>2026-04-12T14:59:04.063Z</time></trkpt><trkpt lat="44.6496083" lon="7.8600217"><ele>291.0</ele><time>2026-04-12T14:59:05.063Z</time></trkpt><trkpt lat="44.6496" lon="7.8599233"><ele>291.0</ele><time>2026-04-12T14:59:06.059Z</time></trkpt><trkpt lat="44.6495967" lon="7.8598267"><ele>291.0</ele><time>2026-04-12T14:59:07.063Z</time></trkpt><trkpt lat="44.6495933" lon="7.8597317"><ele>291.0</ele><time>2026-04-12T14:59:08.061Z</time></trkpt><trkpt lat="44.6495917" lon="7.8596417"><ele>290.85714285714283</ele><time>2026-04-12T14:59:09.064Z</time></trkpt><trkpt lat="44.64959" lon="7.8595483"><ele>290.71428571428567</ele><time>2026-04-12T14:59:10.062Z</time></trkpt><trkpt lat="44.64959" lon="7.8594583"><ele>290.57142857142856</ele><time>2026-04-12T14:59:11.062Z</time></trkpt><trkpt lat="44.6495867" lon="7.8593667"><ele>290.42857142857144</ele><time>2026-04-12T14:59:12.064Z</time></trkpt><trkpt lat="44.64958" lon="7.8592783"><ele>290.28571428571433</ele><time>2026-04-12T14:59:13.063Z</time></trkpt><trkpt lat="44.64958" lon="7.8591817"><ele>290.14285714285717</ele><time>2026-04-12T14:59:14.063Z</time></trkpt><trkpt lat="44.6495733" lon="7.85909"><ele>290.0</ele><time>2026-04-12T14:59:15.062Z</time></trkpt><trkpt lat="44.649565" lon="7.8589917"><ele>290.0</ele><time>2026-04-12T14:59:16.063Z</time></trkpt><trkpt lat="44.64956" lon="7.8588933"><ele>290.0</ele><time>2026-04-12T14:59:17.061Z</time></trkpt><trkpt lat="44.6495533" lon="7.8588"><ele>290.0</ele><time>2026-04-12T14:59:18.064Z</time></trkpt><trkpt lat="44.649545" lon="7.8586267"><ele>290.0</ele><time>2026-04-12T14:59:20.063Z</time></trkpt><trkpt lat="44.64954" lon="7.8584667"><ele>290.0</ele><time>2026-04-12T14:59:22.063Z</time></trkpt><trkpt lat="44.64954" lon="7.8583567"><ele>290.33333333333337</ele><time>2026-04-12T14:59:24.063Z</time></trkpt><trkpt lat="44.6495467" lon="7.8582683"><ele>290.6666666666667</ele><time>2026-04-12T14:59:26.064Z</time></trkpt><trkpt lat="44.649595" lon="7.8582067"><ele>291.0</ele><time>2026-04-12T14:59:28.063Z</time></trkpt><trkpt lat="44.6496733" lon="7.8581883"><ele>291.3333333333333</ele><time>2026-04-12T14:59:30.062Z</time></trkpt><trkpt lat="44.64979" lon="7.8581933"><ele>291.66666666666663</ele><time>2026-04-12T14:59:32.063Z</time></trkpt><trkpt lat="44.6499133" lon="7.858195"><ele>292.0</ele><time>2026-04-12T14:59:34.063Z</time></trkpt><trkpt lat="44.6500267" lon="7.8581967"><ele>292.0</ele><time>2026-04-12T14:59:36.064Z</time></trkpt><trkpt lat="44.6501117" lon="7.8582017"><ele>292.0</ele><time>2026-04-12T14:59:38.064Z</time></trkpt><trkpt lat="44.6501917" lon="7.858185"><ele>292.0</ele><time>2026-04-12T14:59:40.063Z</time></trkpt><trkpt lat="44.6502833" lon="7.8581833"><ele>292.0</ele><time>2026-04-12T14:59:42.065Z</time></trkpt><trkpt lat="44.6503833" lon="7.8581983"><ele>292.0</ele><time>2026-04-12T14:59:44.063Z</time></trkpt><trkpt lat="44.6504917" lon="7.8582067"><ele>292.4</ele><time>2026-04-12T14:59:46.063Z</time></trkpt><trkpt lat="44.650605" lon="7.8582067"><ele>292.79999999999995</ele><time>2026-04-12T14:59:48.063Z</time></trkpt><trkpt lat="44.6507267" lon="7.8582033"><ele>293.2</ele><time>2026-04-12T14:59:50.062Z</time></trkpt><trkpt lat="44.65079" lon="7.8581967"><ele>293.59999999999997</ele><time>2026-04-12T14:59:51.063Z</time></trkpt><trkpt lat="44.65091" lon="7.8581733"><ele>294.0</ele><time>2026-04-12T14:59:53.063Z</time></trkpt><trkpt lat="44.650975" lon="7.8581683"><ele>294.0</ele><time>2026-04-12T14:59:54.062Z</time></trkpt><trkpt lat="44.65104" lon="7.8581667"><ele>294.0</ele><time>2026-04-12T14:59:55.063Z</time></trkpt><trkpt lat="44.6511067" lon="7.858165"><ele>294.0</ele><time>2026-04-12T14:59:56.063Z</time></trkpt><trkpt lat="44.651175" lon="7.8581583"><ele>294.0</ele><time>2026-04-12T14:59:57.063Z</time></trkpt><trkpt lat="44.651245" lon="7.8581533"><ele>294.0</ele><time>2026-04-12T14:59:58.062Z</time></trkpt><trkpt lat="44.651315" lon="7.858145"><ele>294.0</ele><time>2026-04-12T14:59:59.061Z</time></trkpt><trkpt lat="44.6513817" lon="7.85814"><ele>294.0</ele><time>2026-04-12T15:00:00.059Z</time></trkpt><trkpt lat="44.6515017" lon="7.8581317"><ele>293.8</ele><time>2026-04-12T15:00:02.059Z</time></trkpt><trkpt lat="44.6516133" lon="7.8581167"><ele>293.59999999999997</ele><time>2026-04-12T15:00:04.062Z</time></trkpt><trkpt lat="44.6517233" lon="7.8580917"><ele>293.4</ele><time>2026-04-12T15:00:06.061Z</time></trkpt><trkpt lat="44.6518283" lon="7.8580733"><ele>293.2</ele><time>2026-04-12T15:00:08.06Z</time></trkpt><trkpt lat="44.6519333" lon="7.8580633"><ele>293.0</ele><time>2026-04-12T15:00:10.062Z</time></trkpt><trkpt lat="44.6520533" lon="7.85807"><ele>293.0</ele><time>2026-04-12T15:00:12.063Z</time></trkpt><trkpt lat="44.652185" lon="7.858065"><ele>293.0</ele><time>2026-04-12T15:00:14.062Z</time></trkpt><trkpt lat="44.65225" lon="7.8580717"><ele>293.0</ele><time>2026-04-12T15:00:15.063Z</time></trkpt><trkpt lat="44.6523133" lon="7.85807"><ele>293.0</ele><time>2026-04-12T15:00:16.061Z</time></trkpt><trkpt lat="44.6523767" lon="7.858075"><ele>293.0</ele><time>2026-04-12T15:00:17.062Z</time></trkpt><trkpt lat="44.65244" lon="7.85808"><ele>293.0</ele><time>2026-04-12T15:00:18.062Z</time></trkpt><trkpt lat="44.652505" lon="7.8580783"><ele>293.0</ele><time>2026-04-12T15:00:19.064Z</time></trkpt><trkpt lat="44.6526283" lon="7.8580717"><ele>293.0</ele><time>2026-04-12T15:00:21.062Z</time></trkpt><trkpt lat="44.65275" lon="7.858085"><ele>293.0</ele><time>2026-04-12T15:00:23.064Z</time></trkpt><trkpt lat="44.65286" lon="7.8580817"><ele>293.0</ele><time>2026-04-12T15:00:25.064Z</time></trkpt><trkpt lat="44.6529717" lon="7.85808"><ele>292.8</ele><time>2026-04-12T15:00:27.064Z</time></trkpt><trkpt lat="44.6530683" lon="7.8580867"><ele>292.6</ele><time>2026-04-12T15:00:29.063Z</time></trkpt><trkpt lat="44.6531583" lon="7.85809"><ele>292.4</ele><time>2026-04-12T15:00:31.063Z</time></trkpt><trkpt lat="44.65326" lon="7.8580933"><ele>292.2</ele><time>2026-04-12T15:00:33.064Z</time></trkpt><trkpt lat="44.6533633" lon="7.85808"><ele>292.0</ele><time>2026-04-12T15:00:35.06Z</time></trkpt><trkpt lat="44.6534517" lon="7.85804"><ele>292.0</ele><time>2026-04-12T15:00:37.062Z</time></trkpt><trkpt lat="44.6535467" lon="7.8580267"><ele>292.0</ele><time>2026-04-12T15:00:39.063Z</time></trkpt><trkpt lat="44.6536467" lon="7.8579967"><ele>292.0</ele><time>2026-04-12T15:00:41.062Z</time></trkpt><trkpt lat="44.65371" lon="7.8579583"><ele>292.0</ele><time>2026-04-12T15:00:43.061Z</time></trkpt><trkpt lat="44.653785" lon="7.8579133"><ele>292.0</ele><time>2026-04-12T15:00:45.065Z</time></trkpt><trkpt lat="44.6538017" lon="7.8577883"><ele>292.0</ele><time>2026-04-12T15:00:48.061Z</time></trkpt><trkpt lat="44.6538183" lon="7.85768"><ele>292.0</ele><time>2026-04-12T15:00:50.063Z</time></trkpt><trkpt lat="44.65383" lon="7.857555"><ele>292.0</ele><time>2026-04-12T15:00:52.061Z</time></trkpt><trkpt lat="44.6538383" lon="7.8574317"><ele>292.0</ele><time>2026-04-12T15:00:54.063Z</time></trkpt><trkpt lat="44.6538483" lon="7.8573083"><ele>292.0</ele><time>2026-04-12T15:00:56.062Z</time></trkpt><trkpt lat="44.653845" lon="7.857185"><ele>292.0</ele><time>2026-04-12T15:00:58.06Z</time></trkpt><trkpt lat="44.6538417" lon="7.8570583"><ele>292.0</ele><time>2026-04-12T15:01:00.059Z</time></trkpt><trkpt lat="44.6538367" lon="7.8569267"><ele>292.0</ele><time>2026-04-12T15:01:02.062Z</time></trkpt><trkpt lat="44.6538183" lon="7.85681"><ele>292.0</ele><time>2026-04-12T15:01:04.063Z</time></trkpt><trkpt lat="44.6538" lon="7.85668"><ele>292.0</ele><time>2026-04-12T15:01:06.06Z</time></trkpt><trkpt lat="44.65379" lon="7.8565467"><ele>292.0</ele><time>2026-04-12T15:01:08.062Z</time></trkpt><trkpt lat="44.6537883" lon="7.856415"><ele>292.0</ele><time>2026-04-12T15:01:10.059Z</time></trkpt><trkpt lat="44.6537917" lon="7.8562767"><ele>292.2</ele><time>2026-04-12T15:01:12.061Z</time></trkpt><trkpt lat="44.6537933" lon="7.85614"><ele>292.4</ele><time>2026-04-12T15:01:14.061Z</time></trkpt><trkpt lat="44.653795" lon="7.856005"><ele>292.6</ele><time>2026-04-12T15:01:16.062Z</time></trkpt><trkpt lat="44.6537833" lon="7.8558767"><ele>292.8</ele><time>2026-04-12T15:01:18.061Z</time></trkpt><trkpt lat="44.6537733" lon="7.85573"><ele>293.0</ele><time>2026-04-12T15:01:20.059Z</time></trkpt><trkpt lat="44.6537633" lon="7.855555"><ele>292.33333333333337</ele><time>2026-04-12T15:01:22.062Z</time></trkpt><trkpt lat="44.6537567" lon="7.8554517"><ele>291.6666666666667</ele><time>2026-04-12T15:01:23.062Z</time></trkpt><trkpt lat="44.6537517" lon="7.8553517"><ele>291.0</ele><time>2026-04-12T15:01:24.063Z</time></trkpt><trkpt lat="44.653745" lon="7.8552417"><ele>290.3333333333333</ele><time>2026-04-12T15:01:25.062Z</time></trkpt><trkpt lat="44.6537333" lon="7.8551383"><ele>289.66666666666663</ele><time>2026-04-12T15:01:26.061Z</time></trkpt><trkpt lat="44.6537233" lon="7.8550433"><ele>289.0</ele><time>2026-04-12T15:01:27.064Z</time></trkpt><trkpt lat="44.65371" lon="7.8549167"><ele>287.8333333333333</ele><time>2026-04-12T15:01:29.062Z</time></trkpt><trkpt lat="44.653725" lon="7.8548283"><ele>286.66666666666663</ele><time>2026-04-12T15:01:31.063Z</time></trkpt><trkpt lat="44.653805" lon="7.8547667"><ele>285.5</ele><time>2026-04-12T15:01:33.063Z</time></trkpt><trkpt lat="44.6539267" lon="7.8547233"><ele>284.3333333333333</ele><time>2026-04-12T15:01:35.06Z</time></trkpt><trkpt lat="44.6539967" lon="7.8546967"><ele>283.1666666666667</ele><time>2026-04-12T15:01:36.062Z</time></trkpt><trkpt lat="44.6540733" lon="7.8546583"><ele>282.0</ele><time>2026-04-12T15:01:37.063Z</time></trkpt><trkpt lat="44.6541517" lon="7.854605"><ele>282.0</ele><time>2026-04-12T15:01:38.063Z</time></trkpt><trkpt lat="44.65423" lon="7.85454"><ele>282.0</ele><time>2026-04-12T15:01:39.064Z</time></trkpt><trkpt lat="44.65431" lon="7.854455"><ele>282.0</ele><time>2026-04-12T15:01:40.062Z</time></trkpt><trkpt lat="44.6543883" lon="7.8543533"><ele>282.0</ele><time>2026-04-12T15:01:41.061Z</time></trkpt><trkpt lat="44.6544667" lon="7.8542433"><ele>282.0</ele><time>2026-04-12T15:01:42.063Z</time></trkpt><trkpt lat="44.65455" lon="7.8541367"><ele>279.0</ele><time>2026-04-12T15:01:43.061Z</time></trkpt><trkpt lat="44.6546417" lon="7.85406"><ele>276.0</ele><time>2026-04-12T15:01:44.063Z</time></trkpt><trkpt lat="44.65474" lon="7.8540167"><ele>273.0</ele><time>2026-04-12T15:01:45.058Z</time></trkpt><trkpt lat="44.65483" lon="7.85401"><ele>270.0</ele><time>2026-04-12T15:01:46.061Z</time></trkpt><trkpt lat="44.6549267" lon="7.854065"><ele>267.0</ele><time>2026-04-12T15:01:47.063Z</time></trkpt><trkpt lat="44.655005" lon="7.854155"><ele>267.0</ele><time>2026-04-12T15:01:48.063Z</time></trkpt><trkpt lat="44.6550683" lon="7.8542683"><ele>267.0</ele><time>2026-04-12T15:01:49.063Z</time></trkpt><trkpt lat="44.6551183" lon="7.8543817"><ele>267.0</ele><time>2026-04-12T15:01:50.062Z</time></trkpt><trkpt lat="44.6551583" lon="7.854475"><ele>267.0</ele><time>2026-04-12T15:01:51.063Z</time></trkpt><trkpt lat="44.6551967" lon="7.8545467"><ele>267.0</ele><time>2026-04-12T15:01:52.062Z</time></trkpt><trkpt lat="44.6552967" lon="7.85454"><ele>267.0</ele><time>2026-04-12T15:01:54.061Z</time></trkpt><trkpt lat="44.6553433" lon="7.8544"><ele>267.0</ele><time>2026-04-12T15:01:56.062Z</time></trkpt><trkpt lat="44.655295" lon="7.85422"><ele>267.0</ele><time>2026-04-12T15:01:58.063Z</time></trkpt><trkpt lat="44.6552533" lon="7.8541183"><ele>267.0</ele><time>2026-04-12T15:01:59.062Z</time></trkpt><trkpt lat="44.6552067" lon="7.854015"><ele>267.0</ele><time>2026-04-12T15:02:00.063Z</time></trkpt><trkpt lat="44.6551467" lon="7.85391"><ele>267.0</ele><time>2026-04-12T15:02:01.062Z</time></trkpt><trkpt lat="44.6550983" lon="7.8538233"><ele>267.0</ele><time>2026-04-12T15:02:02.063Z</time></trkpt><trkpt lat="44.655065" lon="7.85374"><ele>267.0</ele><time>2026-04-12T15:02:03.058Z</time></trkpt><trkpt lat="44.6550833" lon="7.8535867"><ele>267.0</ele><time>2026-04-12T15:02:05.063Z</time></trkpt><trkpt lat="44.655155" lon="7.85358"><ele>267.0</ele><time>2026-04-12T15:02:06.062Z</time></trkpt><trkpt lat="44.6552233" lon="7.8536267"><ele>267.0</ele><time>2026-04-12T15:02:07.063Z</time></trkpt><trkpt lat="44.655285" lon="7.85369"><ele>267.0</ele><time>2026-04-12T15:02:08.063Z</time></trkpt><trkpt lat="44.6553317" lon="7.853785"><ele>264.0</ele><time>2026-04-12T15:02:09.064Z</time></trkpt><trkpt lat="44.655375" lon="7.8539083"><ele>261.0</ele><time>2026-04-12T15:02:10.062Z</time></trkpt><trkpt lat="44.655425" lon="7.8540283"><ele>258.0</ele><time>2026-04-12T15:02:11.061Z</time></trkpt><trkpt lat="44.65548" lon="7.8541483"><ele>255.0</ele><time>2026-04-12T15:02:12.063Z</time></trkpt><trkpt lat="44.6555383" lon="7.85427"><ele>252.0</ele><time>2026-04-12T15:02:13.062Z</time></trkpt><trkpt lat="44.6555983" lon="7.8543933"><ele>252.0</ele><time>2026-04-12T15:02:14.063Z</time></trkpt><trkpt lat="44.65566" lon="7.8545267"><ele>252.0</ele><time>2026-04-12T15:02:15.062Z</time></trkpt><trkpt lat="44.6557233" lon="7.8546617"><ele>252.0</ele><time>2026-04-12T15:02:16.063Z</time></trkpt><trkpt lat="44.6557883" lon="7.8548033"><ele>252.0</ele><time>2026-04-12T15:02:17.062Z</time></trkpt><trkpt lat="44.655845" lon="7.854955"><ele>252.0</ele><time>2026-04-12T15:02:18.061Z</time></trkpt><trkpt lat="44.65589" lon="7.8551183"><ele>252.0</ele><time>2026-04-12T15:02:19.062Z</time></trkpt><trkpt lat="44.655925" lon="7.8552883"><ele>252.0</ele><time>2026-04-12T15:02:20.062Z</time></trkpt><trkpt lat="44.655955" lon="7.8554617"><ele>252.0</ele><time>2026-04-12T15:02:21.062Z</time></trkpt><trkpt lat="44.655985" lon="7.8556367"><ele>252.75</ele><time>2026-04-12T15:02:22.062Z</time></trkpt><trkpt lat="44.65601" lon="7.855815"><ele>253.5</ele><time>2026-04-12T15:02:23.059Z</time></trkpt><trkpt lat="44.6560367" lon="7.85599"><ele>254.25</ele><time>2026-04-12T15:02:24.062Z</time></trkpt><trkpt lat="44.6560533" lon="7.8561583"><ele>255.0</ele><time>2026-04-12T15:02:25.062Z</time></trkpt><trkpt lat="44.6560683" lon="7.856315"><ele>255.0</ele><time>2026-04-12T15:02:26.062Z</time></trkpt><trkpt lat="44.65609" lon="7.8564533"><ele>255.0</ele><time>2026-04-12T15:02:27.062Z</time></trkpt><trkpt lat="44.65613" lon="7.8565717"><ele>255.0</ele><time>2026-04-12T15:02:28.063Z</time></trkpt><trkpt lat="44.6561883" lon="7.8566667"><ele>255.0</ele><time>2026-04-12T15:02:29.061Z</time></trkpt><trkpt lat="44.6562783" lon="7.8566933"><ele>255.0</ele><time>2026-04-12T15:02:30.063Z</time></trkpt><trkpt lat="44.6563667" lon="7.8566883"><ele>247.6</ele><time>2026-04-12T15:02:31.062Z</time></trkpt><trkpt lat="44.6564617" lon="7.8566417"><ele>240.2</ele><time>2026-04-12T15:02:32.062Z</time></trkpt><trkpt lat="44.6565633" lon="7.8565667"><ele>232.8</ele><time>2026-04-12T15:02:33.062Z</time></trkpt><trkpt lat="44.65666" lon="7.8565017"><ele>225.4</ele><time>2026-04-12T15:02:34.063Z</time></trkpt><trkpt lat="44.6567517" lon="7.8564333"><ele>218.0</ele><time>2026-04-12T15:02:35.062Z</time></trkpt><trkpt lat="44.656835" lon="7.856375"><ele>218.0</ele><time>2026-04-12T15:02:36.061Z</time></trkpt><trkpt lat="44.6569083" lon="7.8563317"><ele>218.0</ele><time>2026-04-12T15:02:37.062Z</time></trkpt><trkpt lat="44.65697" lon="7.8562917"><ele>218.0</ele><time>2026-04-12T15:02:38.062Z</time></trkpt><trkpt lat="44.6570633" lon="7.8562367"><ele>218.0</ele><time>2026-04-12T15:02:40.061Z</time></trkpt><trkpt lat="44.6571633" lon="7.8562167"><ele>218.0</ele><time>2026-04-12T15:02:43.063Z</time></trkpt><trkpt lat="44.65728" lon="7.856195"><ele>217.14285714285714</ele><time>2026-04-12T15:02:45.062Z</time></trkpt><trkpt lat="44.6573483" lon="7.8561633"><ele>216.28571428571428</ele><time>2026-04-12T15:02:46.061Z</time></trkpt><trkpt lat="44.6574167" lon="7.8561217"><ele>215.42857142857144</ele><time>2026-04-12T15:02:47.061Z</time></trkpt><trkpt lat="44.6574833" lon="7.856085"><ele>214.57142857142856</ele><time>2026-04-12T15:02:48.063Z</time></trkpt><trkpt lat="44.6575483" lon="7.8560533"><ele>213.7142857142857</ele><time>2026-04-12T15:02:49.065Z</time></trkpt><trkpt lat="44.657615" lon="7.8560267"><ele>212.85714285714286</ele><time>2026-04-12T15:02:50.061Z</time></trkpt><trkpt lat="44.6576817" lon="7.8560033"><ele>212.0</ele><time>2026-04-12T15:02:51.063Z</time></trkpt><trkpt lat="44.65775" lon="7.855975"><ele>211.66666666666669</ele><time>2026-04-12T15:02:52.062Z</time></trkpt><trkpt lat="44.6578167" lon="7.85595"><ele>211.33333333333334</ele><time>2026-04-12T15:02:53.062Z</time></trkpt><trkpt lat="44.65794" lon="7.8559017"><ele>211.0</ele><time>2026-04-12T15:02:55.065Z</time></trkpt><trkpt lat="44.6580033" lon="7.855875"><ele>210.66666666666669</ele><time>2026-04-12T15:02:56.065Z</time></trkpt><trkpt lat="44.6580683" lon="7.8558517"><ele>210.33333333333334</ele><time>2026-04-12T15:02:57.062Z</time></trkpt><trkpt lat="44.6581333" lon="7.8558283"><ele>210.0</ele><time>2026-04-12T15:02:58.063Z</time></trkpt><trkpt lat="44.6581983" lon="7.8558"><ele>210.0</ele><time>2026-04-12T15:02:59.061Z</time></trkpt><trkpt lat="44.6582633" lon="7.85578"><ele>210.0</ele><time>2026-04-12T15:03:00.06Z</time></trkpt><trkpt lat="44.658335" lon="7.8557533"><ele>210.0</ele><time>2026-04-12T15:03:01.063Z</time></trkpt><trkpt lat="44.6584083" lon="7.8557267"><ele>210.0</ele><time>2026-04-12T15:03:02.063Z</time></trkpt><trkpt lat="44.6584833" lon="7.8557017"><ele>210.0</ele><time>2026-04-12T15:03:03.062Z</time></trkpt><trkpt lat="44.658555" lon="7.85568"><ele>210.0</ele><time>2026-04-12T15:03:04.063Z</time></trkpt><trkpt lat="44.6586283" lon="7.8556567"><ele>210.0</ele><time>2026-04-12T15:03:05.061Z</time></trkpt><trkpt lat="44.6587017" lon="7.85563"><ele>208.83333333333334</ele><time>2026-04-12T15:03:06.062Z</time></trkpt><trkpt lat="44.6587733" lon="7.8556"><ele>207.66666666666669</ele><time>2026-04-12T15:03:07.062Z</time></trkpt><trkpt lat="44.65885" lon="7.8555717"><ele>206.5</ele><time>2026-04-12T15:03:08.063Z</time></trkpt><trkpt lat="44.6589267" lon="7.8555417"><ele>205.33333333333334</ele><time>2026-04-12T15:03:09.064Z</time></trkpt><trkpt lat="44.6590017" lon="7.8555083"><ele>204.16666666666669</ele><time>2026-04-12T15:03:10.064Z</time></trkpt><trkpt lat="44.6590783" lon="7.8554767"><ele>203.0</ele><time>2026-04-12T15:03:11.063Z</time></trkpt><trkpt lat="44.6591517" lon="7.8554467"><ele>203.0</ele><time>2026-04-12T15:03:12.063Z</time></trkpt><trkpt lat="44.6592233" lon="7.85542"><ele>203.0</ele><time>2026-04-12T15:03:13.065Z</time></trkpt><trkpt lat="44.6592967" lon="7.8553933"><ele>203.0</ele><time>2026-04-12T15:03:14.064Z</time></trkpt><trkpt lat="44.65937" lon="7.8553633"><ele>203.0</ele><time>2026-04-12T15:03:15.061Z</time></trkpt><trkpt lat="44.6594417" lon="7.855335"><ele>203.0</ele><time>2026-04-12T15:03:16.061Z</time></trkpt><trkpt lat="44.6595117" lon="7.8553083"><ele>203.0</ele><time>2026-04-12T15:03:17.062Z</time></trkpt><trkpt lat="44.6595833" lon="7.8552767"><ele>203.0</ele><time>2026-04-12T15:03:18.063Z</time></trkpt><trkpt lat="44.6596533" lon="7.8552517"><ele>203.28571428571428</ele><time>2026-04-12T15:03:19.063Z</time></trkpt><trkpt lat="44.6597217" lon="7.8552267"><ele>203.57142857142856</ele><time>2026-04-12T15:03:20.062Z</time></trkpt><trkpt lat="44.6597883" lon="7.8552017"><ele>203.85714285714286</ele><time>2026-04-12T15:03:21.063Z</time></trkpt><trkpt lat="44.6598533" lon="7.85518"><ele>204.14285714285714</ele><time>2026-04-12T15:03:22.062Z</time></trkpt><trkpt lat="44.65992" lon="7.85516"><ele>204.42857142857142</ele><time>2026-04-12T15:03:23.061Z</time></trkpt><trkpt lat="44.6599833" lon="7.855135"><ele>204.71428571428572</ele><time>2026-04-12T15:03:24.063Z</time></trkpt><trkpt lat="44.6600467" lon="7.8551117"><ele>205.0</ele><time>2026-04-12T15:03:25.062Z</time></trkpt><trkpt lat="44.6601117" lon="7.8550867"><ele>205.42857142857144</ele><time>2026-04-12T15:03:26.064Z</time></trkpt><trkpt lat="44.660175" lon="7.85506"><ele>205.85714285714283</ele><time>2026-04-12T15:03:27.063Z</time></trkpt><trkpt lat="44.6602383" lon="7.855035"><ele>206.28571428571428</ele><time>2026-04-12T15:03:28.064Z</time></trkpt><trkpt lat="44.6603017" lon="7.85501"><ele>206.71428571428572</ele><time>2026-04-12T15:03:29.063Z</time></trkpt><trkpt lat="44.660365" lon="7.854985"><ele>207.14285714285717</ele><time>2026-04-12T15:03:30.061Z</time></trkpt><trkpt lat="44.6604283" lon="7.8549567"><ele>207.57142857142856</ele><time>2026-04-12T15:03:31.062Z</time></trkpt><trkpt lat="44.6604917" lon="7.85493"><ele>208.0</ele><time>2026-04-12T15:03:32.062Z</time></trkpt><trkpt lat="44.6605533" lon="7.8549067"><ele>208.0</ele><time>2026-04-12T15:03:33.063Z</time></trkpt><trkpt lat="44.660615" lon="7.85488"><ele>208.0</ele><time>2026-04-12T15:03:34.064Z</time></trkpt><trkpt lat="44.6606767" lon="7.854855"><ele>208.0</ele><time>2026-04-12T15:03:35.062Z</time></trkpt><trkpt lat="44.66074" lon="7.8548333"><ele>208.0</ele><time>2026-04-12T15:03:36.061Z</time></trkpt><trkpt lat="44.6608017" lon="7.8548117"><ele>208.0</ele><time>2026-04-12T15:03:37.064Z</time></trkpt><trkpt lat="44.6608633" lon="7.85479"><ele>208.0</ele><time>2026-04-12T15:03:38.062Z</time></trkpt><trkpt lat="44.660925" lon="7.8547717"><ele>208.0</ele><time>2026-04-12T15:03:39.063Z</time></trkpt><trkpt lat="44.6610483" lon="7.8547433"><ele>210.5</ele><time>2026-04-12T15:03:41.062Z</time></trkpt><trkpt lat="44.6611683" lon="7.8547283"><ele>213.0</ele><time>2026-04-12T15:03:43.066Z</time></trkpt><trkpt lat="44.66128" lon="7.8547167"><ele>215.5</ele><time>2026-04-12T15:03:45.063Z</time></trkpt><trkpt lat="44.6613933" lon="7.8547"><ele>218.0</ele><time>2026-04-12T15:03:47.063Z</time></trkpt><trkpt lat="44.6615017" lon="7.8546867"><ele>218.0</ele><time>2026-04-12T15:03:49.063Z</time></trkpt><trkpt lat="44.6616117" lon="7.85467"><ele>218.0</ele><time>2026-04-12T15:03:51.064Z</time></trkpt><trkpt lat="44.66172" lon="7.85466"><ele>218.0</ele><time>2026-04-12T15:03:53.061Z</time></trkpt><trkpt lat="44.6618283" lon="7.85465"><ele>218.0</ele><time>2026-04-12T15:03:55.063Z</time></trkpt><trkpt lat="44.661935" lon="7.8546483"><ele>218.0</ele><time>2026-04-12T15:03:57.063Z</time></trkpt><trkpt lat="44.6620417" lon="7.85468"><ele>217.8</ele><time>2026-04-12T15:03:59.064Z</time></trkpt><trkpt lat="44.662145" lon="7.8547517"><ele>217.60000000000002</ele><time>2026-04-12T15:04:01.065Z</time></trkpt><trkpt lat="44.66225" lon="7.8548183"><ele>217.39999999999998</ele><time>2026-04-12T15:04:03.064Z</time></trkpt><trkpt lat="44.6623583" lon="7.85486"><ele>217.2</ele><time>2026-04-12T15:04:05.062Z</time></trkpt><trkpt lat="44.66246" lon="7.8548933"><ele>217.0</ele><time>2026-04-12T15:04:07.062Z</time></trkpt><trkpt lat="44.6625233" lon="7.8549083"><ele>217.0</ele><time>2026-04-12T15:04:08.062Z</time></trkpt><trkpt lat="44.6626383" lon="7.854935"><ele>217.0</ele><time>2026-04-12T15:04:10.062Z</time></trkpt><trkpt lat="44.6627233" lon="7.8550133"><ele>217.0</ele><time>2026-04-12T15:04:12.062Z</time></trkpt><trkpt lat="44.6627617" lon="7.85515"><ele>217.0</ele><time>2026-04-12T15:04:14.06Z</time></trkpt><trkpt lat="44.66276" lon="7.8553133"><ele>217.0</ele><time>2026-04-12T15:04:16.061Z</time></trkpt><trkpt lat="44.6627567" lon="7.8554783"><ele>216.75</ele><time>2026-04-12T15:04:18.063Z</time></trkpt><trkpt lat="44.6627633" lon="7.8556467"><ele>216.5</ele><time>2026-04-12T15:04:20.062Z</time></trkpt><trkpt lat="44.66278" lon="7.8558133"><ele>216.25</ele><time>2026-04-12T15:04:22.062Z</time></trkpt><trkpt lat="44.662805" lon="7.8559817"><ele>216.0</ele><time>2026-04-12T15:04:24.063Z</time></trkpt><trkpt lat="44.662825" lon="7.856155"><ele>216.0</ele><time>2026-04-12T15:04:26.061Z</time></trkpt><trkpt lat="44.6628383" lon="7.8562417"><ele>216.0</ele><time>2026-04-12T15:04:27.063Z</time></trkpt><trkpt lat="44.662855" lon="7.8563283"><ele>216.0</ele><time>2026-04-12T15:04:28.062Z</time></trkpt><trkpt lat="44.6628733" lon="7.8564183"><ele>216.0</ele><time>2026-04-12T15:04:29.064Z</time></trkpt><trkpt lat="44.6628917" lon="7.8565067"><ele>216.0</ele><time>2026-04-12T15:04:30.061Z</time></trkpt><trkpt lat="44.6629117" lon="7.8565983"><ele>216.0</ele><time>2026-04-12T15:04:31.063Z</time></trkpt><trkpt lat="44.66293" lon="7.8566883"><ele>216.0</ele><time>2026-04-12T15:04:32.062Z</time></trkpt><trkpt lat="44.662945" lon="7.8567783"><ele>216.0</ele><time>2026-04-12T15:04:33.063Z</time></trkpt><trkpt lat="44.6629617" lon="7.8568683"><ele>216.0</ele><time>2026-04-12T15:04:34.063Z</time></trkpt><trkpt lat="44.662975" lon="7.8569633"><ele>216.0</ele><time>2026-04-12T15:04:35.062Z</time></trkpt><trkpt lat="44.6629867" lon="7.8570533"><ele>216.0</ele><time>2026-04-12T15:04:36.063Z</time></trkpt><trkpt lat="44.662995" lon="7.8572283"><ele>216.0</ele><time>2026-04-12T15:04:38.063Z</time></trkpt><trkpt lat="44.6629933" lon="7.8573217"><ele>216.0</ele><time>2026-04-12T15:04:39.064Z</time></trkpt><trkpt lat="44.6629933" lon="7.8574167"><ele>216.0</ele><time>2026-04-12T15:04:40.063Z</time></trkpt><trkpt lat="44.6629967" lon="7.8575117"><ele>216.0</ele><time>2026-04-12T15:04:41.062Z</time></trkpt><trkpt lat="44.6630017" lon="7.85761"><ele>216.0</ele><time>2026-04-12T15:04:42.062Z</time></trkpt><trkpt lat="44.6630067" lon="7.8577083"><ele>216.0</ele><time>2026-04-12T15:04:43.064Z</time></trkpt><trkpt lat="44.6630167" lon="7.8578067"><ele>216.0</ele><time>2026-04-12T15:04:44.062Z</time></trkpt><trkpt lat="44.6630267" lon="7.8579033"><ele>216.0</ele><time>2026-04-12T15:04:45.063Z</time></trkpt><trkpt lat="44.6630367" lon="7.858"><ele>216.0</ele><time>2026-04-12T15:04:46.065Z</time></trkpt><trkpt lat="44.663045" lon="7.8580983"><ele>216.0</ele><time>2026-04-12T15:04:47.062Z</time></trkpt><trkpt lat="44.6630567" lon="7.8581967"><ele>216.0</ele><time>2026-04-12T15:04:48.063Z</time></trkpt><trkpt lat="44.6630717" lon="7.8582917"><ele>216.0</ele><time>2026-04-12T15:04:49.062Z</time></trkpt><trkpt lat="44.663085" lon="7.858385"><ele>216.0</ele><time>2026-04-12T15:04:50.061Z</time></trkpt><trkpt lat="44.6631017" lon="7.8584783"><ele>216.0</ele><time>2026-04-12T15:04:51.063Z</time></trkpt><trkpt lat="44.6631167" lon="7.8585783"><ele>216.0</ele><time>2026-04-12T15:04:52.063Z</time></trkpt><trkpt lat="44.6631317" lon="7.8586767"><ele>216.0</ele><time>2026-04-12T15:04:53.063Z</time></trkpt><trkpt lat="44.663145" lon="7.8587767"><ele>215.85714285714286</ele><time>2026-04-12T15:04:54.062Z</time></trkpt><trkpt lat="44.6631583" lon="7.8588767"><ele>215.71428571428572</ele><time>2026-04-12T15:04:55.063Z</time></trkpt><trkpt lat="44.6631733" lon="7.8589767"><ele>215.57142857142856</ele><time>2026-04-12T15:04:56.064Z</time></trkpt><trkpt lat="44.6631917" lon="7.8590783"><ele>215.42857142857144</ele><time>2026-04-12T15:04:57.063Z</time></trkpt><trkpt lat="44.6632183" lon="7.8591767"><ele>215.2857142857143</ele><time>2026-04-12T15:04:58.062Z</time></trkpt><trkpt lat="44.6632517" lon="7.85927"><ele>215.14285714285714</ele><time>2026-04-12T15:04:59.061Z</time></trkpt><trkpt lat="44.663285" lon="7.859365"><ele>215.0</ele><time>2026-04-12T15:05:00.062Z</time></trkpt><trkpt lat="44.6633183" lon="7.8594617"><ele>215.0</ele><time>2026-04-12T15:05:01.064Z</time></trkpt><trkpt lat="44.663355" lon="7.859555"><ele>215.0</ele><time>2026-04-12T15:05:02.064Z</time></trkpt><trkpt lat="44.66339" lon="7.85965"><ele>215.0</ele><time>2026-04-12T15:05:03.065Z</time></trkpt><trkpt lat="44.6634233" lon="7.85974"><ele>215.0</ele><time>2026-04-12T15:05:04.063Z</time></trkpt><trkpt lat="44.6634583" lon="7.859835"><ele>215.0</ele><time>2026-04-12T15:05:05.062Z</time></trkpt><trkpt lat="44.6634883" lon="7.8599317"><ele>215.0</ele><time>2026-04-12T15:05:06.063Z</time></trkpt><trkpt lat="44.6635133" lon="7.8600267"><ele>215.0</ele><time>2026-04-12T15:05:07.063Z</time></trkpt><trkpt lat="44.6635417" lon="7.86012"><ele>215.0</ele><time>2026-04-12T15:05:08.062Z</time></trkpt><trkpt lat="44.6635717" lon="7.860205"><ele>215.0</ele><time>2026-04-12T15:05:09.064Z</time></trkpt><trkpt lat="44.6636033" lon="7.8602867"><ele>215.0</ele><time>2026-04-12T15:05:10.062Z</time></trkpt><trkpt lat="44.663635" lon="7.8603683"><ele>215.0</ele><time>2026-04-12T15:05:11.064Z</time></trkpt><trkpt lat="44.663665" lon="7.860455"><ele>215.0</ele><time>2026-04-12T15:05:12.064Z</time></trkpt><trkpt lat="44.6636967" lon="7.8605417"><ele>215.0</ele><time>2026-04-12T15:05:13.061Z</time></trkpt><trkpt lat="44.6637233" lon="7.8606283"><ele>215.0</ele><time>2026-04-12T15:05:14.065Z</time></trkpt><trkpt lat="44.6637517" lon="7.860715"><ele>215.00000000000003</ele><time>2026-04-12T15:05:15.063Z</time></trkpt><trkpt lat="44.6637817" lon="7.8608"><ele>215.0</ele><time>2026-04-12T15:05:16.063Z</time></trkpt><trkpt lat="44.6638133" lon="7.860885"><ele>215.0</ele><time>2026-04-12T15:05:17.061Z</time></trkpt><trkpt lat="44.663845" lon="7.86097"><ele>215.0</ele><time>2026-04-12T15:05:18.062Z</time></trkpt><trkpt lat="44.6638767" lon="7.8610517"><ele>215.00000000000003</ele><time>2026-04-12T15:05:19.065Z</time></trkpt><trkpt lat="44.6639083" lon="7.8611283"><ele>215.0</ele><time>2026-04-12T15:05:20.063Z</time></trkpt><trkpt lat="44.66398" lon="7.8612717"><ele>215.0</ele><time>2026-04-12T15:05:22.063Z</time></trkpt><trkpt lat="44.6640483" lon="7.86141"><ele>215.0</ele><time>2026-04-12T15:05:24.063Z</time></trkpt><trkpt lat="44.6641217" lon="7.8615417"><ele>215.0</ele><time>2026-04-12T15:05:26.061Z</time></trkpt><trkpt lat="44.66418" lon="7.8616833"><ele>215.0</ele><time>2026-04-12T15:05:28.062Z</time></trkpt><trkpt lat="44.6642267" lon="7.8618333"><ele>214.8</ele><time>2026-04-12T15:05:30.064Z</time></trkpt><trkpt lat="44.6642667" lon="7.8619767"><ele>214.6</ele><time>2026-04-12T15:05:32.062Z</time></trkpt><trkpt lat="44.6643083" lon="7.8621133"><ele>214.39999999999998</ele><time>2026-04-12T15:05:34.063Z</time></trkpt><trkpt lat="44.6643517" lon="7.8622517"><ele>214.2</ele><time>2026-04-12T15:05:36.063Z</time></trkpt><trkpt lat="44.6643967" lon="7.8623917"><ele>214.0</ele><time>2026-04-12T15:05:38.063Z</time></trkpt><trkpt lat="44.664445" lon="7.8625367"><ele>213.75</ele><time>2026-04-12T15:05:40.063Z</time></trkpt><trkpt lat="44.664485" lon="7.8626917"><ele>213.5</ele><time>2026-04-12T15:05:42.064Z</time></trkpt><trkpt lat="44.6645383" lon="7.8628483"><ele>213.25</ele><time>2026-04-12T15:05:44.063Z</time></trkpt><trkpt lat="44.6645867" lon="7.8630067"><ele>213.0</ele><time>2026-04-12T15:05:46.064Z</time></trkpt><trkpt lat="44.6646317" lon="7.86315"><ele>213.0</ele><time>2026-04-12T15:05:48.066Z</time></trkpt><trkpt lat="44.6646767" lon="7.8633"><ele>213.0</ele><time>2026-04-12T15:05:50.063Z</time></trkpt><trkpt lat="44.664725" lon="7.8634467"><ele>213.0</ele><time>2026-04-12T15:05:52.064Z</time></trkpt><trkpt lat="44.6647717" lon="7.8635917"><ele>213.0</ele><time>2026-04-12T15:05:54.062Z</time></trkpt><trkpt lat="44.6648267" lon="7.86374"><ele>213.0</ele><time>2026-04-12T15:05:56.063Z</time></trkpt><trkpt lat="44.664885" lon="7.86389"><ele>213.0</ele><time>2026-04-12T15:05:58.064Z</time></trkpt><trkpt lat="44.6649433" lon="7.8640417"><ele>213.0</ele><time>2026-04-12T15:06:00.063Z</time></trkpt><trkpt lat="44.665" lon="7.8641983"><ele>213.0</ele><time>2026-04-12T15:06:02.062Z</time></trkpt><trkpt lat="44.6650533" lon="7.8643517"><ele>212.5</ele><time>2026-04-12T15:06:04.061Z</time></trkpt><trkpt lat="44.665105" lon="7.8645033"><ele>212.0</ele><time>2026-04-12T15:06:06.063Z</time></trkpt><trkpt lat="44.6651567" lon="7.864655"><ele>211.5</ele><time>2026-04-12T15:06:08.065Z</time></trkpt><trkpt lat="44.6652083" lon="7.8648083"><ele>211.0</ele><time>2026-04-12T15:06:10.063Z</time></trkpt><trkpt lat="44.665265" lon="7.8649567"><ele>211.20000000000002</ele><time>2026-04-12T15:06:12.063Z</time></trkpt><trkpt lat="44.66532" lon="7.865105"><ele>211.4</ele><time>2026-04-12T15:06:14.063Z</time></trkpt><trkpt lat="44.6653783" lon="7.8652533"><ele>211.6</ele><time>2026-04-12T15:06:16.062Z</time></trkpt><trkpt lat="44.6654383" lon="7.86541"><ele>211.8</ele><time>2026-04-12T15:06:18.061Z</time></trkpt><trkpt lat="44.6654667" lon="7.86549"><ele>212.0</ele><time>2026-04-12T15:06:19.063Z</time></trkpt><trkpt lat="44.66552" lon="7.86565"><ele>212.0</ele><time>2026-04-12T15:06:21.064Z</time></trkpt><trkpt lat="44.66555" lon="7.8657283"><ele>212.0</ele><time>2026-04-12T15:06:22.062Z</time></trkpt><trkpt lat="44.66562" lon="7.8658717"><ele>212.0</ele><time>2026-04-12T15:06:24.063Z</time></trkpt><trkpt lat="44.6656783" lon="7.8660233"><ele>212.0</ele><time>2026-04-12T15:06:26.062Z</time></trkpt><trkpt lat="44.6657433" lon="7.86617"><ele>212.0</ele><time>2026-04-12T15:06:28.063Z</time></trkpt><trkpt lat="44.66581" lon="7.8663117"><ele>212.0</ele><time>2026-04-12T15:06:30.063Z</time></trkpt><trkpt lat="44.6658833" lon="7.8664467"><ele>212.0</ele><time>2026-04-12T15:06:32.065Z</time></trkpt><trkpt lat="44.6659467" lon="7.8665933"><ele>212.0</ele><time>2026-04-12T15:06:34.062Z</time></trkpt><trkpt lat="44.666" lon="7.8667417"><ele>212.0</ele><time>2026-04-12T15:06:36.062Z</time></trkpt><trkpt lat="44.6660567" lon="7.8668883"><ele>212.25</ele><time>2026-04-12T15:06:38.062Z</time></trkpt><trkpt lat="44.66612" lon="7.8670367"><ele>212.5</ele><time>2026-04-12T15:06:40.062Z</time></trkpt><trkpt lat="44.6661817" lon="7.8671867"><ele>212.75</ele><time>2026-04-12T15:06:42.064Z</time></trkpt><trkpt lat="44.6662367" lon="7.8673367"><ele>213.0</ele><time>2026-04-12T15:06:44.062Z</time></trkpt><trkpt lat="44.6662967" lon="7.8674867"><ele>212.75</ele><time>2026-04-12T15:06:46.064Z</time></trkpt><trkpt lat="44.6663583" lon="7.86763"><ele>212.5</ele><time>2026-04-12T15:06:48.061Z</time></trkpt><trkpt lat="44.6664083" lon="7.86778"><ele>212.25</ele><time>2026-04-12T15:06:50.063Z</time></trkpt><trkpt lat="44.66646" lon="7.86792"><ele>212.0</ele><time>2026-04-12T15:06:52.063Z</time></trkpt><trkpt lat="44.6664983" lon="7.8680667"><ele>212.0</ele><time>2026-04-12T15:06:54.062Z</time></trkpt><trkpt lat="44.666525" lon="7.868225"><ele>212.0</ele><time>2026-04-12T15:06:56.063Z</time></trkpt><trkpt lat="44.6665467" lon="7.86838"><ele>212.0</ele><time>2026-04-12T15:06:58.063Z</time></trkpt><trkpt lat="44.6665733" lon="7.86853"><ele>212.0</ele><time>2026-04-12T15:07:00.062Z</time></trkpt><trkpt lat="44.66661" lon="7.868675"><ele>212.0</ele><time>2026-04-12T15:07:02.063Z</time></trkpt><trkpt lat="44.66665" lon="7.8688167"><ele>211.8</ele><time>2026-04-12T15:07:04.063Z</time></trkpt><trkpt lat="44.6666917" lon="7.8689567"><ele>211.6</ele><time>2026-04-12T15:07:06.064Z</time></trkpt><trkpt lat="44.66673" lon="7.86909"><ele>211.4</ele><time>2026-04-12T15:07:08.063Z</time></trkpt><trkpt lat="44.666775" lon="7.8692267"><ele>211.20000000000002</ele><time>2026-04-12T15:07:10.063Z</time></trkpt><trkpt lat="44.6668167" lon="7.8693667"><ele>211.0</ele><time>2026-04-12T15:07:12.061Z</time></trkpt><trkpt lat="44.66685" lon="7.869505"><ele>211.0</ele><time>2026-04-12T15:07:14.063Z</time></trkpt><trkpt lat="44.6668783" lon="7.86965"><ele>211.0</ele><time>2026-04-12T15:07:16.061Z</time></trkpt><trkpt lat="44.666895" lon="7.8698017"><ele>211.0</ele><time>2026-04-12T15:07:18.063Z</time></trkpt><trkpt lat="44.66691" lon="7.86995"><ele>211.0</ele><time>2026-04-12T15:07:20.063Z</time></trkpt><trkpt lat="44.66693" lon="7.8701033"><ele>211.0</ele><time>2026-04-12T15:07:22.063Z</time></trkpt><trkpt lat="44.6669533" lon="7.87026"><ele>211.0</ele><time>2026-04-12T15:07:24.062Z</time></trkpt><trkpt lat="44.6669883" lon="7.8704067"><ele>211.0</ele><time>2026-04-12T15:07:26.061Z</time></trkpt><trkpt lat="44.6670217" lon="7.8705383"><ele>211.0</ele><time>2026-04-12T15:07:28.063Z</time></trkpt><trkpt lat="44.667055" lon="7.870645"><ele>211.0</ele><time>2026-04-12T15:07:30.063Z</time></trkpt><trkpt lat="44.6670833" lon="7.8707533"><ele>211.0</ele><time>2026-04-12T15:07:32.064Z</time></trkpt><trkpt lat="44.6671117" lon="7.8708833"><ele>210.99999999999997</ele><time>2026-04-12T15:07:34.062Z</time></trkpt><trkpt lat="44.6671383" lon="7.8710167"><ele>211.0</ele><time>2026-04-12T15:07:36.062Z</time></trkpt><trkpt lat="44.6671683" lon="7.871125"><ele>211.0</ele><time>2026-04-12T15:07:38.065Z</time></trkpt><trkpt lat="44.6672217" lon="7.8711867"><ele>211.0</ele><time>2026-04-12T15:07:40.065Z</time></trkpt><trkpt lat="44.6672883" lon="7.8712367"><ele>210.99999999999997</ele><time>2026-04-12T15:07:42.062Z</time></trkpt><trkpt lat="44.66735" lon="7.8713233"><ele>211.0</ele><time>2026-04-12T15:07:44.063Z</time></trkpt><trkpt lat="44.6674133" lon="7.871425"><ele>211.0</ele><time>2026-04-12T15:07:46.062Z</time></trkpt><trkpt lat="44.6674717" lon="7.8715533"><ele>211.0</ele><time>2026-04-12T15:07:48.062Z</time></trkpt><trkpt lat="44.667525" lon="7.8716967"><ele>211.0</ele><time>2026-04-12T15:07:50.062Z</time></trkpt><trkpt lat="44.6675833" lon="7.8718317"><ele>211.0</ele><time>2026-04-12T15:07:52.063Z</time></trkpt><trkpt lat="44.6676467" lon="7.8719667"><ele>210.8</ele><time>2026-04-12T15:07:54.062Z</time></trkpt><trkpt lat="44.6677067" lon="7.8720967"><ele>210.60000000000002</ele><time>2026-04-12T15:07:56.064Z</time></trkpt><trkpt lat="44.6677683" lon="7.8722267"><ele>210.4</ele><time>2026-04-12T15:07:58.062Z</time></trkpt><trkpt lat="44.6678283" lon="7.8723633"><ele>210.2</ele><time>2026-04-12T15:08:00.064Z</time></trkpt><trkpt lat="44.6678867" lon="7.8724933"><ele>210.0</ele><time>2026-04-12T15:08:02.063Z</time></trkpt><trkpt lat="44.667935" lon="7.8726417"><ele>210.0</ele><time>2026-04-12T15:08:04.064Z</time></trkpt><trkpt lat="44.6679783" lon="7.8727967"><ele>210.0</ele><time>2026-04-12T15:08:06.061Z</time></trkpt><trkpt lat="44.6680233" lon="7.8729483"><ele>210.0</ele><time>2026-04-12T15:08:08.06Z</time></trkpt><trkpt lat="44.6680683" lon="7.8730933"><ele>210.0</ele><time>2026-04-12T15:08:10.063Z</time></trkpt><trkpt lat="44.6681083" lon="7.8732267"><ele>210.0</ele><time>2026-04-12T15:08:12.06Z</time></trkpt><trkpt lat="44.668145" lon="7.8733583"><ele>210.0</ele><time>2026-04-12T15:08:14.063Z</time></trkpt><trkpt lat="44.6681833" lon="7.87349"><ele>210.0</ele><time>2026-04-12T15:08:16.062Z</time></trkpt><trkpt lat="44.6682167" lon="7.8736433"><ele>210.0</ele><time>2026-04-12T15:08:18.065Z</time></trkpt><trkpt lat="44.6682517" lon="7.8738083"><ele>210.0</ele><time>2026-04-12T15:08:20.062Z</time></trkpt><trkpt lat="44.668275" lon="7.8738967"><ele>210.0</ele><time>2026-04-12T15:08:21.064Z</time></trkpt><trkpt lat="44.6682983" lon="7.873985"><ele>210.0</ele><time>2026-04-12T15:08:22.062Z</time></trkpt><trkpt lat="44.6683217" lon="7.8740733"><ele>210.0</ele><time>2026-04-12T15:08:23.06Z</time></trkpt><trkpt lat="44.668345" lon="7.87416"><ele>210.0</ele><time>2026-04-12T15:08:24.061Z</time></trkpt><trkpt lat="44.6683683" lon="7.8742433"><ele>210.0</ele><time>2026-04-12T15:08:25.064Z</time></trkpt><trkpt lat="44.668395" lon="7.87433"><ele>210.0</ele><time>2026-04-12T15:08:26.062Z</time></trkpt><trkpt lat="44.6684167" lon="7.8744167"><ele>210.0</ele><time>2026-04-12T15:08:27.061Z</time></trkpt><trkpt lat="44.6684417" lon="7.8745033"><ele>210.0</ele><time>2026-04-12T15:08:28.062Z</time></trkpt><trkpt lat="44.6684667" lon="7.87459"><ele>210.0</ele><time>2026-04-12T15:08:29.062Z</time></trkpt><trkpt lat="44.6684933" lon="7.874675"><ele>210.0</ele><time>2026-04-12T15:08:30.061Z</time></trkpt><trkpt lat="44.6685233" lon="7.8747583"><ele>210.0</ele><time>2026-04-12T15:08:31.061Z</time></trkpt><trkpt lat="44.6685517" lon="7.8748417"><ele>210.0</ele><time>2026-04-12T15:08:32.062Z</time></trkpt><trkpt lat="44.66858" lon="7.8749267"><ele>210.0</ele><time>2026-04-12T15:08:33.063Z</time></trkpt><trkpt lat="44.6686083" lon="7.8750083"><ele>210.0</ele><time>2026-04-12T15:08:34.061Z</time></trkpt><trkpt lat="44.6686367" lon="7.8750917"><ele>210.2</ele><time>2026-04-12T15:08:35.061Z</time></trkpt><trkpt lat="44.668665" lon="7.8751717"><ele>210.4</ele><time>2026-04-12T15:08:36.063Z</time></trkpt><trkpt lat="44.6686933" lon="7.8752533"><ele>210.60000000000002</ele><time>2026-04-12T15:08:37.064Z</time></trkpt><trkpt lat="44.6687433" lon="7.875415"><ele>210.8</ele><time>2026-04-12T15:08:39.062Z</time></trkpt><trkpt lat="44.668785" lon="7.8755733"><ele>211.0</ele><time>2026-04-12T15:08:41.062Z</time></trkpt><trkpt lat="44.668835" lon="7.8757317"><ele>211.0</ele><time>2026-04-12T15:08:43.061Z</time></trkpt><trkpt lat="44.6688833" lon="7.8758833"><ele>211.0</ele><time>2026-04-12T15:08:45.062Z</time></trkpt><trkpt lat="44.6689333" lon="7.876035"><ele>211.0</ele><time>2026-04-12T15:08:47.061Z</time></trkpt><trkpt lat="44.6689833" lon="7.8761917"><ele>211.0</ele><time>2026-04-12T15:08:49.062Z</time></trkpt><trkpt lat="44.669035" lon="7.8763467"><ele>211.0</ele><time>2026-04-12T15:08:51.062Z</time></trkpt><trkpt lat="44.6690867" lon="7.8764983"><ele>211.0</ele><time>2026-04-12T15:08:53.061Z</time></trkpt><trkpt lat="44.6691467" lon="7.8766483"><ele>211.0</ele><time>2026-04-12T15:08:55.064Z</time></trkpt><trkpt lat="44.669185" lon="7.876805"><ele>211.0</ele><time>2026-04-12T15:08:57.063Z</time></trkpt><trkpt lat="44.6692167" lon="7.8769567"><ele>211.0</ele><time>2026-04-12T15:08:59.062Z</time></trkpt><trkpt lat="44.6692517" lon="7.877105"><ele>211.0</ele><time>2026-04-12T15:09:01.062Z</time></trkpt><trkpt lat="44.6692883" lon="7.8772617"><ele>211.0</ele><time>2026-04-12T15:09:03.063Z</time></trkpt><trkpt lat="44.6693283" lon="7.87741"><ele>211.0</ele><time>2026-04-12T15:09:05.062Z</time></trkpt><trkpt lat="44.6693717" lon="7.8775533"><ele>210.60000000000002</ele><time>2026-04-12T15:09:07.064Z</time></trkpt><trkpt lat="44.6694167" lon="7.8776917"><ele>210.2</ele><time>2026-04-12T15:09:09.061Z</time></trkpt><trkpt lat="44.669465" lon="7.87783"><ele>209.8</ele><time>2026-04-12T15:09:11.065Z</time></trkpt><trkpt lat="44.669515" lon="7.8779633"><ele>209.39999999999998</ele><time>2026-04-12T15:09:13.063Z</time></trkpt><trkpt lat="44.6695683" lon="7.878085"><ele>209.0</ele><time>2026-04-12T15:09:15.065Z</time></trkpt><trkpt lat="44.6696283" lon="7.8781933"><ele>208.83333333333334</ele><time>2026-04-12T15:09:17.064Z</time></trkpt><trkpt lat="44.6696883" lon="7.878295"><ele>208.66666666666669</ele><time>2026-04-12T15:09:19.063Z</time></trkpt><trkpt lat="44.6697567" lon="7.87839"><ele>208.5</ele><time>2026-04-12T15:09:21.061Z</time></trkpt><trkpt lat="44.66983" lon="7.8784617"><ele>208.33333333333331</ele><time>2026-04-12T15:09:23.062Z</time></trkpt><trkpt lat="44.6699067" lon="7.878505"><ele>208.16666666666666</ele><time>2026-04-12T15:09:25.063Z</time></trkpt><trkpt lat="44.6699717" lon="7.8785133"><ele>208.0</ele><time>2026-04-12T15:09:27.064Z</time></trkpt><trkpt lat="44.6700533" lon="7.8785683"><ele>208.4</ele><time>2026-04-12T15:09:30.063Z</time></trkpt><trkpt lat="44.67012" lon="7.8786017"><ele>208.8</ele><time>2026-04-12T15:09:32.062Z</time></trkpt><trkpt lat="44.6702117" lon="7.878555"><ele>209.2</ele><time>2026-04-12T15:09:34.064Z</time></trkpt><trkpt lat="44.6703133" lon="7.8784883"><ele>209.6</ele><time>2026-04-12T15:09:36.063Z</time></trkpt><trkpt lat="44.6704233" lon="7.8784217"><ele>210.0</ele><time>2026-04-12T15:09:38.062Z</time></trkpt><trkpt lat="44.6705383" lon="7.87835"><ele>209.42857142857142</ele><time>2026-04-12T15:09:40.064Z</time></trkpt><trkpt lat="44.6705983" lon="7.878315"><ele>208.85714285714286</ele><time>2026-04-12T15:09:41.063Z</time></trkpt><trkpt lat="44.6706567" lon="7.8782783"><ele>208.28571428571428</ele><time>2026-04-12T15:09:42.063Z</time></trkpt><trkpt lat="44.6707183" lon="7.8782467"><ele>207.71428571428572</ele><time>2026-04-12T15:09:43.062Z</time></trkpt><trkpt lat="44.6707817" lon="7.8782067"><ele>207.14285714285714</ele><time>2026-04-12T15:09:44.062Z</time></trkpt><trkpt lat="44.6708433" lon="7.8781717"><ele>206.57142857142856</ele><time>2026-04-12T15:09:45.062Z</time></trkpt><trkpt lat="44.6709033" lon="7.8781333"><ele>206.0</ele><time>2026-04-12T15:09:46.063Z</time></trkpt><trkpt lat="44.6709633" lon="7.87809"><ele>205.99999999999997</ele><time>2026-04-12T15:09:47.064Z</time></trkpt><trkpt lat="44.6710233" lon="7.8780483"><ele>206.0</ele><time>2026-04-12T15:09:48.064Z</time></trkpt><trkpt lat="44.671085" lon="7.87801"><ele>206.0</ele><time>2026-04-12T15:09:49.063Z</time></trkpt><trkpt lat="44.6711483" lon="7.87797"><ele>206.0</ele><time>2026-04-12T15:09:50.062Z</time></trkpt><trkpt lat="44.6712117" lon="7.8779267"><ele>206.0</ele><time>2026-04-12T15:09:51.064Z</time></trkpt><trkpt lat="44.6712767" lon="7.8778833"><ele>205.99999999999997</ele><time>2026-04-12T15:09:52.064Z</time></trkpt><trkpt lat="44.67134" lon="7.8778417"><ele>206.0</ele><time>2026-04-12T15:09:53.062Z</time></trkpt><trkpt lat="44.6714017" lon="7.8778067"><ele>206.14285714285714</ele><time>2026-04-12T15:09:54.062Z</time></trkpt><trkpt lat="44.6714617" lon="7.8777733"><ele>206.28571428571428</ele><time>2026-04-12T15:09:55.063Z</time></trkpt><trkpt lat="44.6715233" lon="7.877735"><ele>206.42857142857144</ele><time>2026-04-12T15:09:56.062Z</time></trkpt><trkpt lat="44.671585" lon="7.8776967"><ele>206.57142857142856</ele><time>2026-04-12T15:09:57.066Z</time></trkpt><trkpt lat="44.6716517" lon="7.8776567"><ele>206.71428571428572</ele><time>2026-04-12T15:09:58.063Z</time></trkpt><trkpt lat="44.6717133" lon="7.87762"><ele>206.85714285714286</ele><time>2026-04-12T15:09:59.064Z</time></trkpt><trkpt lat="44.6717767" lon="7.8775817"><ele>207.0</ele><time>2026-04-12T15:10:00.064Z</time></trkpt><trkpt lat="44.671835" lon="7.8775483"><ele>207.00000000000003</ele><time>2026-04-12T15:10:01.064Z</time></trkpt><trkpt lat="44.6718933" lon="7.8775083"><ele>207.0</ele><time>2026-04-12T15:10:02.062Z</time></trkpt><trkpt lat="44.6719583" lon="7.8774567"><ele>207.0</ele><time>2026-04-12T15:10:03.063Z</time></trkpt><trkpt lat="44.6720233" lon="7.8774217"><ele>207.0</ele><time>2026-04-12T15:10:04.062Z</time></trkpt><trkpt lat="44.67209" lon="7.8773767"><ele>207.0</ele><time>2026-04-12T15:10:05.063Z</time></trkpt><trkpt lat="44.672155" lon="7.8773333"><ele>207.00000000000003</ele><time>2026-04-12T15:10:06.065Z</time></trkpt><trkpt lat="44.6722183" lon="7.877295"><ele>207.0</ele><time>2026-04-12T15:10:07.063Z</time></trkpt><trkpt lat="44.6722817" lon="7.87726"><ele>207.00000000000003</ele><time>2026-04-12T15:10:08.062Z</time></trkpt><trkpt lat="44.6723483" lon="7.87722"><ele>207.0</ele><time>2026-04-12T15:10:09.065Z</time></trkpt><trkpt lat="44.672415" lon="7.8771733"><ele>207.0</ele><time>2026-04-12T15:10:10.064Z</time></trkpt><trkpt lat="44.67248" lon="7.87713"><ele>207.0</ele><time>2026-04-12T15:10:11.062Z</time></trkpt><trkpt lat="44.6725467" lon="7.877085"><ele>207.0</ele><time>2026-04-12T15:10:12.063Z</time></trkpt><trkpt lat="44.6726117" lon="7.8770417"><ele>207.00000000000003</ele><time>2026-04-12T15:10:13.063Z</time></trkpt><trkpt lat="44.6726783" lon="7.877"><ele>207.0</ele><time>2026-04-12T15:10:14.063Z</time></trkpt><trkpt lat="44.6727417" lon="7.8769617"><ele>207.14285714285717</ele><time>2026-04-12T15:10:15.064Z</time></trkpt><trkpt lat="44.6728083" lon="7.87692"><ele>207.28571428571428</ele><time>2026-04-12T15:10:16.064Z</time></trkpt><trkpt lat="44.672875" lon="7.8768783"><ele>207.42857142857144</ele><time>2026-04-12T15:10:17.063Z</time></trkpt><trkpt lat="44.67294" lon="7.87684"><ele>207.57142857142858</ele><time>2026-04-12T15:10:18.061Z</time></trkpt><trkpt lat="44.6730067" lon="7.8768017"><ele>207.71428571428572</ele><time>2026-04-12T15:10:19.063Z</time></trkpt><trkpt lat="44.673075" lon="7.876765"><ele>207.85714285714286</ele><time>2026-04-12T15:10:20.063Z</time></trkpt><trkpt lat="44.67314" lon="7.8767283"><ele>208.0</ele><time>2026-04-12T15:10:21.063Z</time></trkpt><trkpt lat="44.6732033" lon="7.87669"><ele>208.0</ele><time>2026-04-12T15:10:22.064Z</time></trkpt><trkpt lat="44.67327" lon="7.8766467"><ele>208.0</ele><time>2026-04-12T15:10:23.064Z</time></trkpt><trkpt lat="44.673335" lon="7.8766033"><ele>208.0</ele><time>2026-04-12T15:10:24.064Z</time></trkpt><trkpt lat="44.6734" lon="7.8765617"><ele>208.0</ele><time>2026-04-12T15:10:25.064Z</time></trkpt><trkpt lat="44.6734667" lon="7.87651"><ele>208.0</ele><time>2026-04-12T15:10:26.063Z</time></trkpt><trkpt lat="44.673535" lon="7.8764667"><ele>208.0</ele><time>2026-04-12T15:10:27.064Z</time></trkpt><trkpt lat="44.673605" lon="7.8764217"><ele>208.0</ele><time>2026-04-12T15:10:28.063Z</time></trkpt><trkpt lat="44.6736683" lon="7.8763783"><ele>208.14285714285714</ele><time>2026-04-12T15:10:29.062Z</time></trkpt><trkpt lat="44.673735" lon="7.8763383"><ele>208.2857142857143</ele><time>2026-04-12T15:10:30.063Z</time></trkpt><trkpt lat="44.6738" lon="7.8762967"><ele>208.42857142857144</ele><time>2026-04-12T15:10:31.064Z</time></trkpt><trkpt lat="44.673865" lon="7.8762533"><ele>208.57142857142856</ele><time>2026-04-12T15:10:32.066Z</time></trkpt><trkpt lat="44.6739317" lon="7.87621"><ele>208.71428571428572</ele><time>2026-04-12T15:10:33.062Z</time></trkpt><trkpt lat="44.6739967" lon="7.8761667"><ele>208.85714285714286</ele><time>2026-04-12T15:10:34.064Z</time></trkpt><trkpt lat="44.674055" lon="7.87613"><ele>209.0</ele><time>2026-04-12T15:10:35.063Z</time></trkpt><trkpt lat="44.6741117" lon="7.87609"><ele>209.0</ele><time>2026-04-12T15:10:36.063Z</time></trkpt><trkpt lat="44.6741717" lon="7.8760467"><ele>209.0</ele><time>2026-04-12T15:10:37.059Z</time></trkpt><trkpt lat="44.6742333" lon="7.8760083"><ele>209.0</ele><time>2026-04-12T15:10:38.063Z</time></trkpt><trkpt lat="44.6742983" lon="7.8759717"><ele>209.0</ele><time>2026-04-12T15:10:39.064Z</time></trkpt><trkpt lat="44.6743617" lon="7.8759333"><ele>209.0</ele><time>2026-04-12T15:10:40.064Z</time></trkpt><trkpt lat="44.6744267" lon="7.875895"><ele>209.0</ele><time>2026-04-12T15:10:41.061Z</time></trkpt><trkpt lat="44.67449" lon="7.8758567"><ele>209.0</ele><time>2026-04-12T15:10:42.062Z</time></trkpt><trkpt lat="44.674555" lon="7.8758167"><ele>208.57142857142856</ele><time>2026-04-12T15:10:43.065Z</time></trkpt><trkpt lat="44.6746183" lon="7.87578"><ele>208.14285714285714</ele><time>2026-04-12T15:10:44.063Z</time></trkpt><trkpt lat="44.6746783" lon="7.875745"><ele>207.71428571428572</ele><time>2026-04-12T15:10:45.063Z</time></trkpt><trkpt lat="44.67474" lon="7.8757083"><ele>207.28571428571428</ele><time>2026-04-12T15:10:46.063Z</time></trkpt><trkpt lat="44.6748" lon="7.8756717"><ele>206.85714285714286</ele><time>2026-04-12T15:10:47.061Z</time></trkpt><trkpt lat="44.6748617" lon="7.875635"><ele>206.42857142857142</ele><time>2026-04-12T15:10:48.063Z</time></trkpt><trkpt lat="44.67492" lon="7.8755967"><ele>206.0</ele><time>2026-04-12T15:10:49.063Z</time></trkpt><trkpt lat="44.6749783" lon="7.8755567"><ele>206.00000000000003</ele><time>2026-04-12T15:10:50.063Z</time></trkpt><trkpt lat="44.67504" lon="7.8755233"><ele>206.0</ele><time>2026-04-12T15:10:51.064Z</time></trkpt><trkpt lat="44.6751017" lon="7.87549"><ele>206.0</ele><time>2026-04-12T15:10:52.063Z</time></trkpt><trkpt lat="44.6751617" lon="7.87545"><ele>206.0</ele><time>2026-04-12T15:10:53.063Z</time></trkpt><trkpt lat="44.67522" lon="7.875415"><ele>206.00000000000003</ele><time>2026-04-12T15:10:54.064Z</time></trkpt><trkpt lat="44.675335" lon="7.8753533"><ele>206.0</ele><time>2026-04-12T15:10:56.063Z</time></trkpt><trkpt lat="44.675445" lon="7.875285"><ele>206.33333333333334</ele><time>2026-04-12T15:10:58.063Z</time></trkpt><trkpt lat="44.6755533" lon="7.8752233"><ele>206.66666666666669</ele><time>2026-04-12T15:11:00.063Z</time></trkpt><trkpt lat="44.67566" lon="7.8751517"><ele>207.0</ele><time>2026-04-12T15:11:02.063Z</time></trkpt><trkpt lat="44.6757183" lon="7.875115"><ele>207.33333333333331</ele><time>2026-04-12T15:11:03.063Z</time></trkpt><trkpt lat="44.6757767" lon="7.875075"><ele>207.66666666666666</ele><time>2026-04-12T15:11:04.063Z</time></trkpt><trkpt lat="44.675835" lon="7.875035"><ele>208.0</ele><time>2026-04-12T15:11:05.062Z</time></trkpt><trkpt lat="44.6759533" lon="7.8749733"><ele>208.16666666666666</ele><time>2026-04-12T15:11:07.062Z</time></trkpt><trkpt lat="44.6760117" lon="7.8749383"><ele>208.33333333333331</ele><time>2026-04-12T15:11:08.063Z</time></trkpt><trkpt lat="44.6761217" lon="7.8748617"><ele>208.5</ele><time>2026-04-12T15:11:10.065Z</time></trkpt><trkpt lat="44.6761783" lon="7.8748167"><ele>208.66666666666669</ele><time>2026-04-12T15:11:11.063Z</time></trkpt><trkpt lat="44.6762883" lon="7.874745"><ele>208.83333333333334</ele><time>2026-04-12T15:11:13.063Z</time></trkpt><trkpt lat="44.6763467" lon="7.8747083"><ele>209.0</ele><time>2026-04-12T15:11:14.063Z</time></trkpt><trkpt lat="44.676405" lon="7.87467"><ele>209.0</ele><time>2026-04-12T15:11:15.061Z</time></trkpt><trkpt lat="44.6764633" lon="7.874635"><ele>209.0</ele><time>2026-04-12T15:11:16.063Z</time></trkpt><trkpt lat="44.6765733" lon="7.8745633"><ele>209.0</ele><time>2026-04-12T15:11:18.063Z</time></trkpt><trkpt lat="44.6766833" lon="7.874485"><ele>209.0</ele><time>2026-04-12T15:11:20.062Z</time></trkpt><trkpt lat="44.676795" lon="7.8744083"><ele>209.0</ele><time>2026-04-12T15:11:22.061Z</time></trkpt><trkpt lat="44.676905" lon="7.8743433"><ele>209.16666666666669</ele><time>2026-04-12T15:11:24.062Z</time></trkpt><trkpt lat="44.6770083" lon="7.8742733"><ele>209.33333333333334</ele><time>2026-04-12T15:11:26.062Z</time></trkpt><trkpt lat="44.677095" lon="7.8742083"><ele>209.5</ele><time>2026-04-12T15:11:28.063Z</time></trkpt><trkpt lat="44.67716" lon="7.874175"><ele>209.66666666666669</ele><time>2026-04-12T15:11:30.064Z</time></trkpt><trkpt lat="44.6772383" lon="7.874185"><ele>209.83333333333334</ele><time>2026-04-12T15:11:33.064Z</time></trkpt><trkpt lat="44.6773017" lon="7.8741033"><ele>210.0</ele><time>2026-04-12T15:11:37.064Z</time></trkpt><trkpt lat="44.6772867" lon="7.873995"><ele>210.0</ele><time>2026-04-12T15:11:39.064Z</time></trkpt><trkpt lat="44.6772633" lon="7.873865"><ele>210.0</ele><time>2026-04-12T15:11:41.064Z</time></trkpt><trkpt lat="44.6772333" lon="7.8737283"><ele>210.0</ele><time>2026-04-12T15:11:43.073Z</time></trkpt><trkpt lat="44.6771967" lon="7.8735967"><ele>210.0</ele><time>2026-04-12T15:11:45.064Z</time></trkpt><trkpt lat="44.67716" lon="7.8734567"><ele>210.0</ele><time>2026-04-12T15:11:47.06Z</time></trkpt><trkpt lat="44.6771217" lon="7.8733"><ele>210.0</ele><time>2026-04-12T15:11:49.063Z</time></trkpt><trkpt lat="44.6770883" lon="7.8731383"><ele>210.0</ele><time>2026-04-12T15:11:51.065Z</time></trkpt><trkpt lat="44.6770517" lon="7.872975"><ele>210.0</ele><time>2026-04-12T15:11:53.063Z</time></trkpt><trkpt lat="44.6770133" lon="7.872815"><ele>210.0</ele><time>2026-04-12T15:11:55.064Z</time></trkpt><trkpt lat="44.6769783" lon="7.872665"><ele>210.2</ele><time>2026-04-12T15:11:57.063Z</time></trkpt><trkpt lat="44.6769433" lon="7.87252"><ele>210.4</ele><time>2026-04-12T15:11:59.061Z</time></trkpt><trkpt lat="44.6769083" lon="7.87238"><ele>210.60000000000002</ele><time>2026-04-12T15:12:01.064Z</time></trkpt><trkpt lat="44.6769183" lon="7.8722433"><ele>210.8</ele><time>2026-04-12T15:12:03.062Z</time></trkpt><trkpt lat="44.6770033" lon="7.8721467"><ele>211.0</ele><time>2026-04-12T15:12:05.061Z</time></trkpt><trkpt lat="44.6770617" lon="7.8721117"><ele>211.0</ele><time>2026-04-12T15:12:06.064Z</time></trkpt><trkpt lat="44.6771217" lon="7.872075"><ele>211.0</ele><time>2026-04-12T15:12:07.064Z</time></trkpt><trkpt lat="44.67718" lon="7.8720317"><ele>211.0</ele><time>2026-04-12T15:12:08.061Z</time></trkpt><trkpt lat="44.6772417" lon="7.8719883"><ele>211.0</ele><time>2026-04-12T15:12:09.065Z</time></trkpt><trkpt lat="44.6773017" lon="7.8719433"><ele>211.0</ele><time>2026-04-12T15:12:10.064Z</time></trkpt><trkpt lat="44.6773617" lon="7.8719"><ele>211.0</ele><time>2026-04-12T15:12:11.062Z</time></trkpt><trkpt lat="44.6774233" lon="7.871855"><ele>211.0</ele><time>2026-04-12T15:12:12.062Z</time></trkpt><trkpt lat="44.677485" lon="7.8718067"><ele>211.14285714285714</ele><time>2026-04-12T15:12:13.064Z</time></trkpt><trkpt lat="44.6775467" lon="7.871755"><ele>211.28571428571428</ele><time>2026-04-12T15:12:14.063Z</time></trkpt><trkpt lat="44.6776083" lon="7.8717167"><ele>211.42857142857144</ele><time>2026-04-12T15:12:15.063Z</time></trkpt><trkpt lat="44.6776717" lon="7.8716783"><ele>211.57142857142856</ele><time>2026-04-12T15:12:16.062Z</time></trkpt><trkpt lat="44.6777367" lon="7.8716367"><ele>211.7142857142857</ele><time>2026-04-12T15:12:17.06Z</time></trkpt><trkpt lat="44.6778033" lon="7.8715983"><ele>211.85714285714286</ele><time>2026-04-12T15:12:18.063Z</time></trkpt><trkpt lat="44.6778683" lon="7.8715583"><ele>212.0</ele><time>2026-04-12T15:12:19.063Z</time></trkpt><trkpt lat="44.677935" lon="7.87152"><ele>212.0</ele><time>2026-04-12T15:12:20.063Z</time></trkpt><trkpt lat="44.6779983" lon="7.8714733"><ele>212.0</ele><time>2026-04-12T15:12:21.064Z</time></trkpt><trkpt lat="44.67806" lon="7.8714283"><ele>212.0</ele><time>2026-04-12T15:12:22.062Z</time></trkpt><trkpt lat="44.67812" lon="7.8713833"><ele>212.0</ele><time>2026-04-12T15:12:23.061Z</time></trkpt><trkpt lat="44.67818" lon="7.8713383"><ele>212.0</ele><time>2026-04-12T15:12:24.062Z</time></trkpt><trkpt lat="44.6782383" lon="7.8712933"><ele>212.0</ele><time>2026-04-12T15:12:25.063Z</time></trkpt><trkpt lat="44.6782967" lon="7.8712483"><ele>212.0</ele><time>2026-04-12T15:12:26.062Z</time></trkpt><trkpt lat="44.6783567" lon="7.8712067"><ele>212.00000000000003</ele><time>2026-04-12T15:12:27.065Z</time></trkpt><trkpt lat="44.678415" lon="7.8711583"><ele>212.0</ele><time>2026-04-12T15:12:28.062Z</time></trkpt><trkpt lat="44.6784733" lon="7.8711167"><ele>212.0</ele><time>2026-04-12T15:12:29.061Z</time></trkpt><trkpt lat="44.6785317" lon="7.87108"><ele>212.0</ele><time>2026-04-12T15:12:30.062Z</time></trkpt><trkpt lat="44.6786517" lon="7.87101"><ele>212.00000000000003</ele><time>2026-04-12T15:12:32.061Z</time></trkpt><trkpt lat="44.67871" lon="7.8709733"><ele>212.0</ele><time>2026-04-12T15:12:33.063Z</time></trkpt><trkpt lat="44.6788183" lon="7.8709133"><ele>211.6</ele><time>2026-04-12T15:12:35.064Z</time></trkpt><trkpt lat="44.6789267" lon="7.8708567"><ele>211.2</ele><time>2026-04-12T15:12:37.063Z</time></trkpt><trkpt lat="44.67904" lon="7.8707867"><ele>210.8</ele><time>2026-04-12T15:12:39.063Z</time></trkpt><trkpt lat="44.6791583" lon="7.87072"><ele>210.4</ele><time>2026-04-12T15:12:41.063Z</time></trkpt><trkpt lat="44.6792167" lon="7.8706867"><ele>210.0</ele><time>2026-04-12T15:12:42.063Z</time></trkpt><trkpt lat="44.6792783" lon="7.8706483"><ele>210.0</ele><time>2026-04-12T15:12:43.064Z</time></trkpt><trkpt lat="44.6793383" lon="7.8706117"><ele>210.0</ele><time>2026-04-12T15:12:44.063Z</time></trkpt><trkpt lat="44.6793983" lon="7.870575"><ele>210.0</ele><time>2026-04-12T15:12:45.063Z</time></trkpt><trkpt lat="44.6794583" lon="7.8705433"><ele>210.0</ele><time>2026-04-12T15:12:46.062Z</time></trkpt><trkpt lat="44.679575" lon="7.8704817"><ele>210.0</ele><time>2026-04-12T15:12:48.063Z</time></trkpt><trkpt lat="44.679635" lon="7.8704517"><ele>210.0</ele><time>2026-04-12T15:12:49.062Z</time></trkpt><trkpt lat="44.6796967" lon="7.8704217"><ele>210.0</ele><time>2026-04-12T15:12:50.063Z</time></trkpt><trkpt lat="44.6797583" lon="7.8703917"><ele>210.16666666666666</ele><time>2026-04-12T15:12:51.064Z</time></trkpt><trkpt lat="44.6798183" lon="7.8703633"><ele>210.33333333333331</ele><time>2026-04-12T15:12:52.061Z</time></trkpt><trkpt lat="44.679935" lon="7.8703117"><ele>210.5</ele><time>2026-04-12T15:12:54.064Z</time></trkpt><trkpt lat="44.6800517" lon="7.8702467"><ele>210.66666666666666</ele><time>2026-04-12T15:12:56.055Z</time></trkpt><trkpt lat="44.6801133" lon="7.87021"><ele>210.83333333333331</ele><time>2026-04-12T15:12:57.063Z</time></trkpt><trkpt lat="44.680175" lon="7.8701667"><ele>211.0</ele><time>2026-04-12T15:12:58.063Z</time></trkpt><trkpt lat="44.680235" lon="7.8701267"><ele>211.33333333333331</ele><time>2026-04-12T15:12:59.058Z</time></trkpt><trkpt lat="44.6802983" lon="7.8700867"><ele>211.66666666666666</ele><time>2026-04-12T15:13:00.057Z</time></trkpt><trkpt lat="44.6803583" lon="7.87004"><ele>212.0</ele><time>2026-04-12T15:13:01.059Z</time></trkpt><trkpt lat="44.6804167" lon="7.8699883"><ele>212.33333333333331</ele><time>2026-04-12T15:13:02.058Z</time></trkpt><trkpt lat="44.6804733" lon="7.8699467"><ele>212.66666666666666</ele><time>2026-04-12T15:13:03.059Z</time></trkpt><trkpt lat="44.6805833" lon="7.8698617"><ele>213.0</ele><time>2026-04-12T15:13:05.057Z</time></trkpt><trkpt lat="44.6806383" lon="7.869815"><ele>213.0</ele><time>2026-04-12T15:13:06.056Z</time></trkpt><trkpt lat="44.6807467" lon="7.86973"><ele>213.0</ele><time>2026-04-12T15:13:08.059Z</time></trkpt><trkpt lat="44.680855" lon="7.8696367"><ele>213.0</ele><time>2026-04-12T15:13:10.063Z</time></trkpt><trkpt lat="44.6809083" lon="7.8695883"><ele>213.0</ele><time>2026-04-12T15:13:11.061Z</time></trkpt><trkpt lat="44.6809617" lon="7.86954"><ele>213.0</ele><time>2026-04-12T15:13:12.063Z</time></trkpt><trkpt lat="44.68105" lon="7.8694167"><ele>212.83333333333334</ele><time>2026-04-12T15:13:14.063Z</time></trkpt><trkpt lat="44.68111" lon="7.8692617"><ele>212.66666666666669</ele><time>2026-04-12T15:13:16.068Z</time></trkpt><trkpt lat="44.68114" lon="7.86918"><ele>212.5</ele><time>2026-04-12T15:13:17.062Z</time></trkpt><trkpt lat="44.6811683" lon="7.8690967"><ele>212.33333333333334</ele><time>2026-04-12T15:13:18.062Z</time></trkpt><trkpt lat="44.6811967" lon="7.8690133"><ele>212.16666666666669</ele><time>2026-04-12T15:13:19.062Z</time></trkpt><trkpt lat="44.681225" lon="7.8689267"><ele>212.0</ele><time>2026-04-12T15:13:20.063Z</time></trkpt><trkpt lat="44.6812517" lon="7.8688417"><ele>212.0</ele><time>2026-04-12T15:13:21.059Z</time></trkpt><trkpt lat="44.6812783" lon="7.868755"><ele>212.0</ele><time>2026-04-12T15:13:22.061Z</time></trkpt><trkpt lat="44.6813033" lon="7.8686683"><ele>212.0</ele><time>2026-04-12T15:13:23.062Z</time></trkpt><trkpt lat="44.6813267" lon="7.8685783"><ele>212.0</ele><time>2026-04-12T15:13:24.063Z</time></trkpt><trkpt lat="44.681345" lon="7.8684867"><ele>212.0</ele><time>2026-04-12T15:13:25.064Z</time></trkpt><trkpt lat="44.6813633" lon="7.86839"><ele>212.0</ele><time>2026-04-12T15:13:26.063Z</time></trkpt><trkpt lat="44.68138" lon="7.868295"><ele>212.0</ele><time>2026-04-12T15:13:27.062Z</time></trkpt><trkpt lat="44.6813983" lon="7.8682"><ele>212.14285714285714</ele><time>2026-04-12T15:13:28.06Z</time></trkpt><trkpt lat="44.6814133" lon="7.8681083"><ele>212.28571428571428</ele><time>2026-04-12T15:13:29.062Z</time></trkpt><trkpt lat="44.681435" lon="7.8680167"><ele>212.42857142857142</ele><time>2026-04-12T15:13:30.064Z</time></trkpt><trkpt lat="44.6814583" lon="7.8679267"><ele>212.57142857142856</ele><time>2026-04-12T15:13:31.063Z</time></trkpt><trkpt lat="44.6814783" lon="7.8678367"><ele>212.71428571428572</ele><time>2026-04-12T15:13:32.063Z</time></trkpt><trkpt lat="44.6814967" lon="7.8677433"><ele>212.85714285714283</ele><time>2026-04-12T15:13:33.063Z</time></trkpt><trkpt lat="44.681515" lon="7.8676483"><ele>213.0</ele><time>2026-04-12T15:13:34.061Z</time></trkpt><trkpt lat="44.6815333" lon="7.867555"><ele>212.99999999999997</ele><time>2026-04-12T15:13:35.061Z</time></trkpt><trkpt lat="44.6815533" lon="7.8674617"><ele>213.0</ele><time>2026-04-12T15:13:36.062Z</time></trkpt><trkpt lat="44.6815733" lon="7.8673683"><ele>213.0</ele><time>2026-04-12T15:13:37.062Z</time></trkpt><trkpt lat="44.68159" lon="7.867275"><ele>213.0</ele><time>2026-04-12T15:13:38.061Z</time></trkpt><trkpt lat="44.6816067" lon="7.867185"><ele>213.0</ele><time>2026-04-12T15:13:39.065Z</time></trkpt><trkpt lat="44.6816233" lon="7.8670933"><ele>212.99999999999997</ele><time>2026-04-12T15:13:40.062Z</time></trkpt><trkpt lat="44.68164" lon="7.8670033"><ele>213.0</ele><time>2026-04-12T15:13:41.056Z</time></trkpt><trkpt lat="44.6816567" lon="7.8669167"><ele>212.99999999999997</ele><time>2026-04-12T15:13:42.062Z</time></trkpt><trkpt lat="44.6816767" lon="7.86683"><ele>213.0</ele><time>2026-04-12T15:13:43.063Z</time></trkpt><trkpt lat="44.681695" lon="7.8667417"><ele>213.0</ele><time>2026-04-12T15:13:44.063Z</time></trkpt><trkpt lat="44.6817117" lon="7.8666483"><ele>213.0</ele><time>2026-04-12T15:13:45.063Z</time></trkpt><trkpt lat="44.6817283" lon="7.8665583"><ele>213.0</ele><time>2026-04-12T15:13:46.063Z</time></trkpt><trkpt lat="44.6817467" lon="7.86647"><ele>212.99999999999997</ele><time>2026-04-12T15:13:47.061Z</time></trkpt><trkpt lat="44.6817683" lon="7.86638"><ele>213.0</ele><time>2026-04-12T15:13:48.062Z</time></trkpt><trkpt lat="44.6817883" lon="7.8662917"><ele>212.99999999999997</ele><time>2026-04-12T15:13:49.062Z</time></trkpt><trkpt lat="44.68181" lon="7.8662"><ele>213.0</ele><time>2026-04-12T15:13:50.062Z</time></trkpt><trkpt lat="44.68183" lon="7.86611"><ele>213.0</ele><time>2026-04-12T15:13:51.063Z</time></trkpt><trkpt lat="44.68185" lon="7.86602"><ele>213.0</ele><time>2026-04-12T15:13:52.061Z</time></trkpt><trkpt lat="44.6818717" lon="7.8659333"><ele>213.0</ele><time>2026-04-12T15:13:53.061Z</time></trkpt><trkpt lat="44.6818917" lon="7.8658467"><ele>212.99999999999997</ele><time>2026-04-12T15:13:54.062Z</time></trkpt><trkpt lat="44.68191" lon="7.8657583"><ele>213.0</ele><time>2026-04-12T15:13:55.064Z</time></trkpt><trkpt lat="44.6819283" lon="7.8656717"><ele>212.66666666666666</ele><time>2026-04-12T15:13:56.063Z</time></trkpt><trkpt lat="44.6819683" lon="7.8655067"><ele>212.33333333333331</ele><time>2026-04-12T15:13:58.062Z</time></trkpt><trkpt lat="44.682035" lon="7.8653583"><ele>212.0</ele><time>2026-04-12T15:14:00.065Z</time></trkpt><trkpt lat="44.6820833" lon="7.8653"><ele>211.66666666666666</ele><time>2026-04-12T15:14:01.065Z</time></trkpt><trkpt lat="44.68214" lon="7.8652517"><ele>211.33333333333331</ele><time>2026-04-12T15:14:02.062Z</time></trkpt><trkpt lat="44.6822017" lon="7.865205"><ele>211.0</ele><time>2026-04-12T15:14:03.062Z</time></trkpt><trkpt lat="44.6822583" lon="7.8651567"><ele>211.28571428571428</ele><time>2026-04-12T15:14:04.062Z</time></trkpt><trkpt lat="44.6823183" lon="7.86511"><ele>211.57142857142858</ele><time>2026-04-12T15:14:05.061Z</time></trkpt><trkpt lat="44.6823767" lon="7.8650617"><ele>211.85714285714283</ele><time>2026-04-12T15:14:06.061Z</time></trkpt><trkpt lat="44.6824367" lon="7.8650183"><ele>212.14285714285714</ele><time>2026-04-12T15:14:07.062Z</time></trkpt><trkpt lat="44.682495" lon="7.86497"><ele>212.42857142857142</ele><time>2026-04-12T15:14:08.063Z</time></trkpt><trkpt lat="44.6825567" lon="7.8649267"><ele>212.7142857142857</ele><time>2026-04-12T15:14:09.062Z</time></trkpt><trkpt lat="44.6826167" lon="7.8648783"><ele>213.0</ele><time>2026-04-12T15:14:10.065Z</time></trkpt><trkpt lat="44.6826767" lon="7.8648317"><ele>213.0</ele><time>2026-04-12T15:14:11.062Z</time></trkpt><trkpt lat="44.6827367" lon="7.8647833"><ele>213.0</ele><time>2026-04-12T15:14:12.065Z</time></trkpt><trkpt lat="44.6827933" lon="7.8647333"><ele>213.0</ele><time>2026-04-12T15:14:13.064Z</time></trkpt><trkpt lat="44.68288" lon="7.8646083"><ele>213.0</ele><time>2026-04-12T15:14:15.063Z</time></trkpt><trkpt lat="44.6829117" lon="7.8644483"><ele>213.0</ele><time>2026-04-12T15:14:17.062Z</time></trkpt><trkpt lat="44.6829117" lon="7.864355"><ele>213.0</ele><time>2026-04-12T15:14:18.061Z</time></trkpt><trkpt lat="44.6829183" lon="7.8642583"><ele>212.99999999999997</ele><time>2026-04-12T15:14:19.063Z</time></trkpt><trkpt lat="44.682935" lon="7.8641633"><ele>213.0</ele><time>2026-04-12T15:14:20.063Z</time></trkpt><trkpt lat="44.6829617" lon="7.86407"><ele>213.0</ele><time>2026-04-12T15:14:21.065Z</time></trkpt><trkpt lat="44.6830067" lon="7.8639917"><ele>213.0</ele><time>2026-04-12T15:14:22.064Z</time></trkpt><trkpt lat="44.683055" lon="7.8639167"><ele>213.0</ele><time>2026-04-12T15:14:23.062Z</time></trkpt><trkpt lat="44.6831067" lon="7.8638433"><ele>212.99999999999997</ele><time>2026-04-12T15:14:24.061Z</time></trkpt><trkpt lat="44.6831583" lon="7.8637683"><ele>213.0</ele><time>2026-04-12T15:14:25.061Z</time></trkpt><trkpt lat="44.6832083" lon="7.8636917"><ele>212.99999999999997</ele><time>2026-04-12T15:14:26.064Z</time></trkpt><trkpt lat="44.6832583" lon="7.863615"><ele>213.0</ele><time>2026-04-12T15:14:27.062Z</time></trkpt><trkpt lat="44.6833067" lon="7.8635383"><ele>213.0</ele><time>2026-04-12T15:14:28.062Z</time></trkpt><trkpt lat="44.6833567" lon="7.8634633"><ele>213.0</ele><time>2026-04-12T15:14:29.062Z</time></trkpt><trkpt lat="44.6834067" lon="7.8633917"><ele>213.0</ele><time>2026-04-12T15:14:30.063Z</time></trkpt><trkpt lat="44.6834533" lon="7.8633217"><ele>212.99999999999997</ele><time>2026-04-12T15:14:31.063Z</time></trkpt><trkpt lat="44.6834983" lon="7.8632517"><ele>213.0</ele><time>2026-04-12T15:14:32.062Z</time></trkpt><trkpt lat="44.683545" lon="7.863185"><ele>213.16666666666666</ele><time>2026-04-12T15:14:33.062Z</time></trkpt><trkpt lat="44.6835883" lon="7.8631183"><ele>213.33333333333331</ele><time>2026-04-12T15:14:34.062Z</time></trkpt><trkpt lat="44.68363" lon="7.86305"><ele>213.5</ele><time>2026-04-12T15:14:35.061Z</time></trkpt><trkpt lat="44.683715" lon="7.8629233"><ele>213.66666666666666</ele><time>2026-04-12T15:14:37.063Z</time></trkpt><trkpt lat="44.6838" lon="7.8627933"><ele>213.83333333333331</ele><time>2026-04-12T15:14:39.063Z</time></trkpt><trkpt lat="44.6838417" lon="7.862725"><ele>214.0</ele><time>2026-04-12T15:14:40.062Z</time></trkpt><trkpt lat="44.683885" lon="7.8626583"><ele>213.85714285714286</ele><time>2026-04-12T15:14:41.063Z</time></trkpt><trkpt lat="44.6839717" lon="7.8625333"><ele>213.71428571428572</ele><time>2026-04-12T15:14:43.062Z</time></trkpt><trkpt lat="44.6840133" lon="7.8624633"><ele>213.57142857142856</ele><time>2026-04-12T15:14:44.062Z</time></trkpt><trkpt lat="44.684055" lon="7.8623933"><ele>213.42857142857144</ele><time>2026-04-12T15:14:45.063Z</time></trkpt><trkpt lat="44.6840933" lon="7.86232"><ele>213.28571428571428</ele><time>2026-04-12T15:14:46.063Z</time></trkpt><trkpt lat="44.68413" lon="7.8622433"><ele>213.14285714285714</ele><time>2026-04-12T15:14:47.062Z</time></trkpt><trkpt lat="44.684165" lon="7.8621683"><ele>213.0</ele><time>2026-04-12T15:14:48.062Z</time></trkpt><trkpt lat="44.6842033" lon="7.862095"><ele>213.0</ele><time>2026-04-12T15:14:49.062Z</time></trkpt><trkpt lat="44.68428" lon="7.861955"><ele>213.0</ele><time>2026-04-12T15:14:51.062Z</time></trkpt><trkpt lat="44.6843267" lon="7.8618917"><ele>213.0</ele><time>2026-04-12T15:14:52.064Z</time></trkpt><trkpt lat="44.68438" lon="7.8618333"><ele>213.0</ele><time>2026-04-12T15:14:53.061Z</time></trkpt><trkpt lat="44.6844383" lon="7.86179"><ele>213.0</ele><time>2026-04-12T15:14:54.063Z</time></trkpt><trkpt lat="44.6845033" lon="7.8617617"><ele>213.0</ele><time>2026-04-12T15:14:55.061Z</time></trkpt><trkpt lat="44.6845683" lon="7.8617533"><ele>213.14285714285714</ele><time>2026-04-12T15:14:56.063Z</time></trkpt><trkpt lat="44.684635" lon="7.8617517"><ele>213.28571428571428</ele><time>2026-04-12T15:14:57.062Z</time></trkpt><trkpt lat="44.6847017" lon="7.8617467"><ele>213.42857142857144</ele><time>2026-04-12T15:14:58.062Z</time></trkpt><trkpt lat="44.6847717" lon="7.8617383"><ele>213.57142857142856</ele><time>2026-04-12T15:14:59.062Z</time></trkpt><trkpt lat="44.6848433" lon="7.861725"><ele>213.71428571428572</ele><time>2026-04-12T15:15:00.06Z</time></trkpt><trkpt lat="44.6849133" lon="7.8617117"><ele>213.85714285714286</ele><time>2026-04-12T15:15:01.062Z</time></trkpt><trkpt lat="44.6849817" lon="7.8616917"><ele>214.0</ele><time>2026-04-12T15:15:02.063Z</time></trkpt><trkpt lat="44.6850483" lon="7.861665"><ele>214.00000000000003</ele><time>2026-04-12T15:15:03.061Z</time></trkpt><trkpt lat="44.685115" lon="7.8616433"><ele>214.0</ele><time>2026-04-12T15:15:04.06Z</time></trkpt><trkpt lat="44.6851817" lon="7.8616183"><ele>214.0</ele><time>2026-04-12T15:15:05.061Z</time></trkpt><trkpt lat="44.6852483" lon="7.86159"><ele>214.0</ele><time>2026-04-12T15:15:06.062Z</time></trkpt><trkpt lat="44.6853167" lon="7.8615683"><ele>214.0</ele><time>2026-04-12T15:15:07.061Z</time></trkpt><trkpt lat="44.685385" lon="7.8615483"><ele>214.00000000000003</ele><time>2026-04-12T15:15:08.062Z</time></trkpt><trkpt lat="44.6854533" lon="7.8615267"><ele>214.0</ele><time>2026-04-12T15:15:09.062Z</time></trkpt><trkpt lat="44.6855217" lon="7.8615133"><ele>214.14285714285717</ele><time>2026-04-12T15:15:10.06Z</time></trkpt><trkpt lat="44.6855867" lon="7.8614983"><ele>214.28571428571428</ele><time>2026-04-12T15:15:11.062Z</time></trkpt><trkpt lat="44.6856517" lon="7.8614867"><ele>214.42857142857144</ele><time>2026-04-12T15:15:12.063Z</time></trkpt><trkpt lat="44.6857167" lon="7.8614733"><ele>214.57142857142858</ele><time>2026-04-12T15:15:13.064Z</time></trkpt><trkpt lat="44.6857817" lon="7.8614567"><ele>214.71428571428572</ele><time>2026-04-12T15:15:14.063Z</time></trkpt><trkpt lat="44.6858467" lon="7.8614383"><ele>214.85714285714286</ele><time>2026-04-12T15:15:15.063Z</time></trkpt><trkpt lat="44.6859133" lon="7.86142"><ele>215.0</ele><time>2026-04-12T15:15:16.062Z</time></trkpt><trkpt lat="44.6859783" lon="7.8614067"><ele>215.0</ele><time>2026-04-12T15:15:17.062Z</time></trkpt><trkpt lat="44.6860433" lon="7.8613933"><ele>215.0</ele><time>2026-04-12T15:15:18.061Z</time></trkpt><trkpt lat="44.6861083" lon="7.8613817"><ele>215.0</ele><time>2026-04-12T15:15:19.063Z</time></trkpt><trkpt lat="44.6861733" lon="7.861355"><ele>215.0</ele><time>2026-04-12T15:15:20.062Z</time></trkpt><trkpt lat="44.6862367" lon="7.8613317"><ele>215.0</ele><time>2026-04-12T15:15:21.063Z</time></trkpt><trkpt lat="44.6863" lon="7.86131"><ele>215.0</ele><time>2026-04-12T15:15:22.063Z</time></trkpt><trkpt lat="44.6863633" lon="7.8612933"><ele>215.0</ele><time>2026-04-12T15:15:23.06Z</time></trkpt><trkpt lat="44.6864267" lon="7.861275"><ele>215.0</ele><time>2026-04-12T15:15:24.062Z</time></trkpt><trkpt lat="44.6865367" lon="7.861235"><ele>215.0</ele><time>2026-04-12T15:15:26.063Z</time></trkpt><trkpt lat="44.686635" lon="7.8612067"><ele>215.0</ele><time>2026-04-12T15:15:28.063Z</time></trkpt><trkpt lat="44.686735" lon="7.8611917"><ele>215.0</ele><time>2026-04-12T15:15:30.063Z</time></trkpt><trkpt lat="44.6868383" lon="7.8611767"><ele>215.0</ele><time>2026-04-12T15:15:32.062Z</time></trkpt><trkpt lat="44.6869417" lon="7.861145"><ele>215.6</ele><time>2026-04-12T15:15:34.063Z</time></trkpt><trkpt lat="44.68704" lon="7.861085"><ele>216.2</ele><time>2026-04-12T15:15:36.062Z</time></trkpt><trkpt lat="44.6871417" lon="7.8610083"><ele>216.8</ele><time>2026-04-12T15:15:38.061Z</time></trkpt><trkpt lat="44.6872383" lon="7.8609283"><ele>217.4</ele><time>2026-04-12T15:15:40.063Z</time></trkpt><trkpt lat="44.6873317" lon="7.8608717"><ele>218.0</ele><time>2026-04-12T15:15:42.062Z</time></trkpt><trkpt lat="44.6874217" lon="7.860815"><ele>218.16666666666669</ele><time>2026-04-12T15:15:44.065Z</time></trkpt><trkpt lat="44.687505" lon="7.8607667"><ele>218.33333333333334</ele><time>2026-04-12T15:15:46.063Z</time></trkpt><trkpt lat="44.6875767" lon="7.8607067"><ele>218.5</ele><time>2026-04-12T15:15:48.064Z</time></trkpt><trkpt lat="44.6876583" lon="7.860665"><ele>218.66666666666669</ele><time>2026-04-12T15:15:50.062Z</time></trkpt><trkpt lat="44.6877367" lon="7.860625"><ele>218.83333333333334</ele><time>2026-04-12T15:15:52.066Z</time></trkpt><trkpt lat="44.6878133" lon="7.8605867"><ele>219.0</ele><time>2026-04-12T15:15:54.063Z</time></trkpt><trkpt lat="44.6878867" lon="7.86056"><ele>220.57142857142858</ele><time>2026-04-12T15:15:56.066Z</time></trkpt><trkpt lat="44.68796" lon="7.8605517"><ele>222.1428571428571</ele><time>2026-04-12T15:15:58.065Z</time></trkpt><trkpt lat="44.6880283" lon="7.8605433"><ele>223.7142857142857</ele><time>2026-04-12T15:16:00.065Z</time></trkpt><trkpt lat="44.6881167" lon="7.8605183"><ele>225.28571428571428</ele><time>2026-04-12T15:16:03.064Z</time></trkpt><trkpt lat="44.688175" lon="7.860475"><ele>226.85714285714283</ele><time>2026-04-12T15:16:05.062Z</time></trkpt><trkpt lat="44.6882317" lon="7.8604117"><ele>228.4285714285714</ele><time>2026-04-12T15:16:07.064Z</time></trkpt><trkpt lat="44.68829" lon="7.8603467"><ele>229.99999999999997</ele><time>2026-04-12T15:16:09.062Z</time></trkpt><trkpt lat="44.68834" lon="7.8602683"><ele>229.99999999999997</ele><time>2026-04-12T15:16:11.062Z</time></trkpt><trkpt lat="44.688375" lon="7.8601767"><ele>230.0</ele><time>2026-04-12T15:16:13.065Z</time></trkpt><trkpt lat="44.6884017" lon="7.86008"><ele>229.99999999999997</ele><time>2026-04-12T15:16:15.067Z</time></trkpt><trkpt lat="44.6884267" lon="7.85999"><ele>229.99999999999997</ele><time>2026-04-12T15:16:17.062Z</time></trkpt><trkpt lat="44.6884383" lon="7.859895"><ele>230.0</ele><time>2026-04-12T15:16:19.064Z</time></trkpt><trkpt lat="44.6884367" lon="7.859805"><ele>229.99999999999997</ele><time>2026-04-12T15:16:21.064Z</time></trkpt><trkpt lat="44.688435" lon="7.859715"><ele>229.99999999999997</ele><time>2026-04-12T15:16:23.062Z</time></trkpt><trkpt lat="44.6884267" lon="7.8596267"><ele>230.33333333333334</ele><time>2026-04-12T15:16:25.064Z</time></trkpt><trkpt lat="44.6884033" lon="7.8595"><ele>230.66666666666669</ele><time>2026-04-12T15:16:28.063Z</time></trkpt><trkpt lat="44.6883783" lon="7.8593767"><ele>231.0</ele><time>2026-04-12T15:16:31.064Z</time></trkpt><trkpt lat="44.6883517" lon="7.8592617"><ele>231.33333333333331</ele><time>2026-04-12T15:16:34.064Z</time></trkpt><trkpt lat="44.6883317" lon="7.8591483"><ele>231.66666666666666</ele><time>2026-04-12T15:16:37.062Z</time></trkpt><trkpt lat="44.6883233" lon="7.8590583"><ele>232.0</ele><time>2026-04-12T15:16:39.065Z</time></trkpt><trkpt lat="44.68831" lon="7.8589717"><ele>232.83333333333331</ele><time>2026-04-12T15:16:41.062Z</time></trkpt><trkpt lat="44.6882867" lon="7.8588533"><ele>233.66666666666666</ele><time>2026-04-12T15:16:44.065Z</time></trkpt><trkpt lat="44.6882533" lon="7.8587467"><ele>234.5</ele><time>2026-04-12T15:16:47.063Z</time></trkpt><trkpt lat="44.68823" lon="7.8586383"><ele>235.33333333333331</ele><time>2026-04-12T15:16:50.063Z</time></trkpt><trkpt lat="44.688225" lon="7.858525"><ele>236.16666666666666</ele><time>2026-04-12T15:16:53.062Z</time></trkpt><trkpt lat="44.6882067" lon="7.85842"><ele>237.0</ele><time>2026-04-12T15:16:56.063Z</time></trkpt><trkpt lat="44.6881817" lon="7.8583167"><ele>238.1428571428571</ele><time>2026-04-12T15:16:59.06Z</time></trkpt><trkpt lat="44.6881533" lon="7.8582083"><ele>239.28571428571428</ele><time>2026-04-12T15:17:02.062Z</time></trkpt><trkpt lat="44.6881333" lon="7.858105"><ele>240.42857142857142</ele><time>2026-04-12T15:17:05.061Z</time></trkpt><trkpt lat="44.68812" lon="7.8580083"><ele>241.57142857142856</ele><time>2026-04-12T15:17:08.062Z</time></trkpt><trkpt lat="44.6881117" lon="7.8579017"><ele>242.71428571428572</ele><time>2026-04-12T15:17:11.062Z</time></trkpt><trkpt lat="44.688095" lon="7.8578017"><ele>243.85714285714286</ele><time>2026-04-12T15:17:14.063Z</time></trkpt><trkpt lat="44.6880817" lon="7.8577033"><ele>245.0</ele><time>2026-04-12T15:17:17.063Z</time></trkpt><trkpt lat="44.6880717" lon="7.8575983"><ele>246.14285714285714</ele><time>2026-04-12T15:17:20.062Z</time></trkpt><trkpt lat="44.6880683" lon="7.8575033"><ele>247.28571428571428</ele><time>2026-04-12T15:17:23.063Z</time></trkpt><trkpt lat="44.6880683" lon="7.8574083"><ele>248.42857142857144</ele><time>2026-04-12T15:17:26.062Z</time></trkpt><trkpt lat="44.6880667" lon="7.857285"><ele>249.57142857142858</ele><time>2026-04-12T15:17:30.064Z</time></trkpt><trkpt lat="44.6880633" lon="7.8571883"><ele>250.71428571428572</ele><time>2026-04-12T15:17:33.062Z</time></trkpt><trkpt lat="44.68807" lon="7.8570933"><ele>251.8571428571429</ele><time>2026-04-12T15:17:36.062Z</time></trkpt><trkpt lat="44.688055" lon="7.857"><ele>253.00000000000003</ele><time>2026-04-12T15:17:39.062Z</time></trkpt><trkpt lat="44.688055" lon="7.8568967"><ele>253.00000000000003</ele><time>2026-04-12T15:17:42.065Z</time></trkpt><trkpt lat="44.6880467" lon="7.8567933"><ele>253.0</ele><time>2026-04-12T15:17:45.066Z</time></trkpt><trkpt lat="44.6880417" lon="7.8566883"><ele>253.00000000000003</ele><time>2026-04-12T15:17:48.064Z</time></trkpt><trkpt lat="44.6880383" lon="7.85659"><ele>253.00000000000003</ele><time>2026-04-12T15:17:51.064Z</time></trkpt><trkpt lat="44.688025" lon="7.8564933"><ele>253.0</ele><time>2026-04-12T15:17:54.062Z</time></trkpt><trkpt lat="44.688" lon="7.8564"><ele>253.00000000000003</ele><time>2026-04-12T15:17:57.065Z</time></trkpt><trkpt lat="44.6879483" lon="7.8563233"><ele>253.00000000000003</ele><time>2026-04-12T15:18:00.065Z</time></trkpt><trkpt lat="44.6879017" lon="7.85624"><ele>254.66666666666666</ele><time>2026-04-12T15:18:03.063Z</time></trkpt><trkpt lat="44.68785" lon="7.8561617"><ele>256.3333333333333</ele><time>2026-04-12T15:18:06.062Z</time></trkpt><trkpt lat="44.687805" lon="7.8560633"><ele>258.0</ele><time>2026-04-12T15:18:09.063Z</time></trkpt><trkpt lat="44.6878333" lon="7.8559667"><ele>259.6666666666667</ele><time>2026-04-12T15:18:12.061Z</time></trkpt><trkpt lat="44.687915" lon="7.8559183"><ele>261.33333333333337</ele><time>2026-04-12T15:18:15.063Z</time></trkpt><trkpt lat="44.6879983" lon="7.8559367"><ele>263.0</ele><time>2026-04-12T15:18:18.062Z</time></trkpt><trkpt lat="44.6880583" lon="7.855995"><ele>263.0</ele><time>2026-04-12T15:18:21.062Z</time></trkpt><trkpt lat="44.6881083" lon="7.8560583"><ele>263.0</ele><time>2026-04-12T15:18:24.064Z</time></trkpt><trkpt lat="44.6881633" lon="7.8561133"><ele>263.0</ele><time>2026-04-12T15:18:27.064Z</time></trkpt><trkpt lat="44.6882267" lon="7.8560933"><ele>263.0</ele><time>2026-04-12T15:18:30.064Z</time></trkpt><trkpt lat="44.6882767" lon="7.8560067"><ele>263.0</ele><time>2026-04-12T15:18:33.064Z</time></trkpt><trkpt lat="44.688295" lon="7.8559"><ele>263.0</ele><time>2026-04-12T15:18:36.063Z</time></trkpt><trkpt lat="44.6883" lon="7.85579"><ele>263.0</ele><time>2026-04-12T15:18:39.063Z</time></trkpt><trkpt lat="44.6883217" lon="7.8556967"><ele>264.0</ele><time>2026-04-12T15:18:42.063Z</time></trkpt><trkpt lat="44.688345" lon="7.85561"><ele>265.0</ele><time>2026-04-12T15:18:45.063Z</time></trkpt><trkpt lat="44.6884017" lon="7.8555267"><ele>266.0</ele><time>2026-04-12T15:18:49.065Z</time></trkpt><trkpt lat="44.6884567" lon="7.8554767"><ele>267.0</ele><time>2026-04-12T15:18:52.062Z</time></trkpt><trkpt lat="44.6885233" lon="7.8554633"><ele>268.0</ele><time>2026-04-12T15:18:55.063Z</time></trkpt><trkpt lat="44.6886067" lon="7.8554667"><ele>269.0</ele><time>2026-04-12T15:18:59.065Z</time></trkpt><trkpt lat="44.6886767" lon="7.8554567"><ele>270.0</ele><time>2026-04-12T15:19:02.062Z</time></trkpt><trkpt lat="44.6887467" lon="7.8554033"><ele>271.5</ele><time>2026-04-12T15:19:05.062Z</time></trkpt><trkpt lat="44.688795" lon="7.8553083"><ele>273.0</ele><time>2026-04-12T15:19:08.062Z</time></trkpt><trkpt lat="44.68879" lon="7.8551983"><ele>274.5</ele><time>2026-04-12T15:19:11.061Z</time></trkpt><trkpt lat="44.6887583" lon="7.85512"><ele>276.0</ele><time>2026-04-12T15:19:14.063Z</time></trkpt><trkpt lat="44.6888083" lon="7.8550433"><ele>277.5</ele><time>2026-04-12T15:19:19.063Z</time></trkpt><trkpt lat="44.688895" lon="7.855095"><ele>279.0</ele><time>2026-04-12T15:19:22.064Z</time></trkpt><trkpt lat="44.68897" lon="7.8551083"><ele>279.3333333333333</ele><time>2026-04-12T15:19:24.063Z</time></trkpt><trkpt lat="44.689045" lon="7.855125"><ele>279.6666666666667</ele><time>2026-04-12T15:19:26.064Z</time></trkpt><trkpt lat="44.6891167" lon="7.855145"><ele>280.0</ele><time>2026-04-12T15:19:28.065Z</time></trkpt><trkpt lat="44.6891933" lon="7.8551583"><ele>280.33333333333337</ele><time>2026-04-12T15:19:30.063Z</time></trkpt><trkpt lat="44.6892667" lon="7.855175"><ele>280.6666666666667</ele><time>2026-04-12T15:19:32.063Z</time></trkpt><trkpt lat="44.6893417" lon="7.8551883"><ele>281.0</ele><time>2026-04-12T15:19:34.063Z</time></trkpt><trkpt lat="44.68942" lon="7.85519"><ele>281.0</ele><time>2026-04-12T15:19:36.062Z</time></trkpt><trkpt lat="44.6894933" lon="7.8551883"><ele>281.0</ele><time>2026-04-12T15:19:38.065Z</time></trkpt><trkpt lat="44.6895733" lon="7.85518"><ele>281.0</ele><time>2026-04-12T15:19:40.062Z</time></trkpt><trkpt lat="44.6896533" lon="7.8551667"><ele>281.0</ele><time>2026-04-12T15:19:42.061Z</time></trkpt><trkpt lat="44.6897317" lon="7.855155"><ele>281.0</ele><time>2026-04-12T15:19:44.062Z</time></trkpt><trkpt lat="44.689815" lon="7.8551467"><ele>281.0</ele><time>2026-04-12T15:19:46.063Z</time></trkpt><trkpt lat="44.6898933" lon="7.855125"><ele>280.83333333333337</ele><time>2026-04-12T15:19:48.063Z</time></trkpt><trkpt lat="44.6899667" lon="7.8551033"><ele>280.6666666666667</ele><time>2026-04-12T15:19:50.066Z</time></trkpt><trkpt lat="44.6900467" lon="7.855075"><ele>280.5</ele><time>2026-04-12T15:19:52.064Z</time></trkpt><trkpt lat="44.6901167" lon="7.8550467"><ele>280.3333333333333</ele><time>2026-04-12T15:19:54.063Z</time></trkpt><trkpt lat="44.6901817" lon="7.85502"><ele>280.16666666666663</ele><time>2026-04-12T15:19:57.065Z</time></trkpt><trkpt lat="44.690255" lon="7.854965"><ele>280.0</ele><time>2026-04-12T15:20:13.063Z</time></trkpt><trkpt lat="44.690335" lon="7.8549583"><ele>280.0</ele><time>2026-04-12T15:20:18.062Z</time></trkpt><trkpt lat="44.6904067" lon="7.8549233"><ele>280.0</ele><time>2026-04-12T15:20:21.062Z</time></trkpt><trkpt lat="44.6904683" lon="7.8548933"><ele>280.0</ele><time>2026-04-12T15:20:23.063Z</time></trkpt><trkpt lat="44.6905367" lon="7.85487"><ele>280.0</ele><time>2026-04-12T15:20:25.062Z</time></trkpt><trkpt lat="44.6906083" lon="7.8548583"><ele>280.0</ele><time>2026-04-12T15:20:27.064Z</time></trkpt><trkpt lat="44.6906833" lon="7.854845"><ele>280.0</ele><time>2026-04-12T15:20:29.062Z</time></trkpt><trkpt lat="44.6907933" lon="7.854865"><ele>280.0</ele><time>2026-04-12T15:20:32.061Z</time></trkpt><trkpt lat="44.6908867" lon="7.854875"><ele>280.0</ele><time>2026-04-12T15:20:34.062Z</time></trkpt><trkpt lat="44.69098" lon="7.8548817"><ele>280.0</ele><time>2026-04-12T15:20:36.063Z</time></trkpt><trkpt lat="44.6910683" lon="7.8549083"><ele>280.0</ele><time>2026-04-12T15:20:38.063Z</time></trkpt><trkpt lat="44.69116" lon="7.8549183"><ele>280.0</ele><time>2026-04-12T15:20:40.062Z</time></trkpt><trkpt lat="44.6912517" lon="7.85491"><ele>280.0</ele><time>2026-04-12T15:20:42.064Z</time></trkpt><trkpt lat="44.6913433" lon="7.854915"><ele>280.0</ele><time>2026-04-12T15:20:44.063Z</time></trkpt><trkpt lat="44.6914367" lon="7.8549517"><ele>280.0</ele><time>2026-04-12T15:20:46.061Z</time></trkpt><trkpt lat="44.6915283" lon="7.8549783"><ele>280.0</ele><time>2026-04-12T15:20:48.061Z</time></trkpt><trkpt lat="44.69162" lon="7.854995"><ele>280.0</ele><time>2026-04-12T15:20:50.062Z</time></trkpt><trkpt lat="44.6917133" lon="7.8550117"><ele>280.0</ele><time>2026-04-12T15:20:52.062Z</time></trkpt><trkpt lat="44.6918167" lon="7.8550283"><ele>280.0</ele><time>2026-04-12T15:20:54.062Z</time></trkpt><trkpt lat="44.6919083" lon="7.8550283"><ele>280.0</ele><time>2026-04-12T15:20:56.061Z</time></trkpt><trkpt lat="44.692" lon="7.855015"><ele>280.0</ele><time>2026-04-12T15:20:58.061Z</time></trkpt><trkpt lat="44.6921017" lon="7.855035"><ele>280.0</ele><time>2026-04-12T15:21:00.062Z</time></trkpt><trkpt lat="44.692195" lon="7.85506"><ele>279.8</ele><time>2026-04-12T15:21:02.062Z</time></trkpt><trkpt lat="44.69228" lon="7.8550867"><ele>279.6</ele><time>2026-04-12T15:21:04.063Z</time></trkpt><trkpt lat="44.692365" lon="7.8550933"><ele>279.4</ele><time>2026-04-12T15:21:06.062Z</time></trkpt><trkpt lat="44.6924617" lon="7.8550733"><ele>279.2</ele><time>2026-04-12T15:21:08.063Z</time></trkpt><trkpt lat="44.69256" lon="7.8550567"><ele>279.0</ele><time>2026-04-12T15:21:10.062Z</time></trkpt><trkpt lat="44.6926617" lon="7.8550667"><ele>279.59999999999997</ele><time>2026-04-12T15:21:12.064Z</time></trkpt><trkpt lat="44.6927667" lon="7.855075"><ele>280.2</ele><time>2026-04-12T15:21:14.062Z</time></trkpt><trkpt lat="44.6928633" lon="7.85508"><ele>280.79999999999995</ele><time>2026-04-12T15:21:16.062Z</time></trkpt><trkpt lat="44.6929483" lon="7.8550883"><ele>281.4</ele><time>2026-04-12T15:21:18.064Z</time></trkpt><trkpt lat="44.69304" lon="7.85507"><ele>282.0</ele><time>2026-04-12T15:21:20.063Z</time></trkpt><trkpt lat="44.6931417" lon="7.855055"><ele>282.0</ele><time>2026-04-12T15:21:22.063Z</time></trkpt><trkpt lat="44.6932433" lon="7.8550433"><ele>282.0</ele><time>2026-04-12T15:21:24.062Z</time></trkpt><trkpt lat="44.6933417" lon="7.8550333"><ele>282.0</ele><time>2026-04-12T15:21:26.061Z</time></trkpt><trkpt lat="44.693455" lon="7.8550183"><ele>282.0</ele><time>2026-04-12T15:21:28.062Z</time></trkpt><trkpt lat="44.6935717" lon="7.8549967"><ele>282.0</ele><time>2026-04-12T15:21:30.059Z</time></trkpt><trkpt lat="44.6936817" lon="7.8549783"><ele>282.25</ele><time>2026-04-12T15:21:32.063Z</time></trkpt><trkpt lat="44.6937867" lon="7.8549433"><ele>282.5</ele><time>2026-04-12T15:21:34.062Z</time></trkpt><trkpt lat="44.6939017" lon="7.85491"><ele>282.75</ele><time>2026-04-12T15:21:36.062Z</time></trkpt><trkpt lat="44.6940167" lon="7.8548917"><ele>283.0</ele><time>2026-04-12T15:21:38.063Z</time></trkpt><trkpt lat="44.6941367" lon="7.8548733"><ele>283.0</ele><time>2026-04-12T15:21:40.062Z</time></trkpt><trkpt lat="44.6942567" lon="7.8548617"><ele>283.0</ele><time>2026-04-12T15:21:42.062Z</time></trkpt><trkpt lat="44.694365" lon="7.85485"><ele>283.0</ele><time>2026-04-12T15:21:44.062Z</time></trkpt><trkpt lat="44.6944667" lon="7.8548333"><ele>283.0</ele><time>2026-04-12T15:21:46.063Z</time></trkpt><trkpt lat="44.6945683" lon="7.85481"><ele>283.0</ele><time>2026-04-12T15:21:48.061Z</time></trkpt><trkpt lat="44.69467" lon="7.8547783"><ele>283.3333333333333</ele><time>2026-04-12T15:21:50.063Z</time></trkpt><trkpt lat="44.69477" lon="7.8547233"><ele>283.66666666666663</ele><time>2026-04-12T15:21:52.062Z</time></trkpt><trkpt lat="44.6948583" lon="7.85468"><ele>284.0</ele><time>2026-04-12T15:21:54.063Z</time></trkpt><trkpt lat="44.6949333" lon="7.8546567"><ele>284.3333333333333</ele><time>2026-04-12T15:21:56.061Z</time></trkpt><trkpt lat="44.6949967" lon="7.85469"><ele>284.6666666666667</ele><time>2026-04-12T15:21:58.061Z</time></trkpt><trkpt lat="44.695045" lon="7.8547817"><ele>285.0</ele><time>2026-04-12T15:22:00.061Z</time></trkpt><trkpt lat="44.6950767" lon="7.8548867"><ele>285.0</ele><time>2026-04-12T15:22:02.06Z</time></trkpt><trkpt lat="44.6951033" lon="7.8550167"><ele>285.0</ele><time>2026-04-12T15:22:04.061Z</time></trkpt><trkpt lat="44.695115" lon="7.8551483"><ele>285.0</ele><time>2026-04-12T15:22:06.062Z</time></trkpt><trkpt lat="44.6951283" lon="7.85527"><ele>285.0</ele><time>2026-04-12T15:22:08.062Z</time></trkpt><trkpt lat="44.6951483" lon="7.855385"><ele>285.0</ele><time>2026-04-12T15:22:10.063Z</time></trkpt><trkpt lat="44.6951483" lon="7.8555"><ele>285.0</ele><time>2026-04-12T15:22:12.062Z</time></trkpt><trkpt lat="44.695155" lon="7.8556067"><ele>285.0</ele><time>2026-04-12T15:22:14.063Z</time></trkpt><trkpt lat="44.69517" lon="7.8557133"><ele>285.0</ele><time>2026-04-12T15:22:16.058Z</time></trkpt><trkpt lat="44.6951983" lon="7.8558283"><ele>285.0</ele><time>2026-04-12T15:22:18.058Z</time></trkpt><trkpt lat="44.695225" lon="7.8559533"><ele>285.0</ele><time>2026-04-12T15:22:20.06Z</time></trkpt><trkpt lat="44.6952567" lon="7.8560733"><ele>285.0</ele><time>2026-04-12T15:22:22.06Z</time></trkpt><trkpt lat="44.6952933" lon="7.856185"><ele>285.0</ele><time>2026-04-12T15:22:24.06Z</time></trkpt><trkpt lat="44.6953333" lon="7.8563"><ele>285.3333333333333</ele><time>2026-04-12T15:22:26.059Z</time></trkpt><trkpt lat="44.695365" lon="7.8564183"><ele>285.6666666666667</ele><time>2026-04-12T15:22:28.063Z</time></trkpt><trkpt lat="44.6953967" lon="7.8565383"><ele>286.0</ele><time>2026-04-12T15:22:30.062Z</time></trkpt><trkpt lat="44.6954433" lon="7.8566333"><ele>286.33333333333337</ele><time>2026-04-12T15:22:32.062Z</time></trkpt><trkpt lat="44.6954817" lon="7.8567383"><ele>286.6666666666667</ele><time>2026-04-12T15:22:35.062Z</time></trkpt><trkpt lat="44.69555" lon="7.8567833"><ele>287.0</ele><time>2026-04-12T15:22:40.064Z</time></trkpt><trkpt lat="44.69561" lon="7.8567367"><ele>287.0</ele><time>2026-04-12T15:22:42.059Z</time></trkpt><trkpt lat="44.695685" lon="7.85669"><ele>287.0</ele><time>2026-04-12T15:22:44.062Z</time></trkpt><trkpt lat="44.6957683" lon="7.8566433"><ele>287.0</ele><time>2026-04-12T15:22:46.063Z</time></trkpt><trkpt lat="44.6958433" lon="7.856595"><ele>287.0</ele><time>2026-04-12T15:22:48.061Z</time></trkpt><trkpt lat="44.6959133" lon="7.8565533"><ele>287.0</ele><time>2026-04-12T15:22:50.063Z</time></trkpt><trkpt lat="44.6959817" lon="7.856515"><ele>287.0</ele><time>2026-04-12T15:22:52.063Z</time></trkpt><trkpt lat="44.6960483" lon="7.8564633"><ele>287.57142857142856</ele><time>2026-04-12T15:22:55.062Z</time></trkpt><trkpt lat="44.6961117" lon="7.8564483"><ele>288.1428571428571</ele><time>2026-04-12T15:22:59.06Z</time></trkpt><trkpt lat="44.6961833" lon="7.85644"><ele>288.7142857142857</ele><time>2026-04-12T15:23:03.063Z</time></trkpt><trkpt lat="44.6962717" lon="7.8563983"><ele>289.2857142857143</ele><time>2026-04-12T15:23:06.064Z</time></trkpt><trkpt lat="44.69634" lon="7.8563533"><ele>289.85714285714283</ele><time>2026-04-12T15:23:08.064Z</time></trkpt><trkpt lat="44.6964017" lon="7.8563067"><ele>290.42857142857144</ele><time>2026-04-12T15:23:10.063Z</time></trkpt><trkpt lat="44.69646" lon="7.85627"><ele>291.0</ele><time>2026-04-12T15:23:12.062Z</time></trkpt><trkpt lat="44.696535" lon="7.8562133"><ele>291.0</ele><time>2026-04-12T15:23:15.063Z</time></trkpt><trkpt lat="44.696595" lon="7.8561683"><ele>291.0</ele><time>2026-04-12T15:23:21.065Z</time></trkpt><trkpt lat="44.6966467" lon="7.856105"><ele>291.0</ele><time>2026-04-12T15:23:24.062Z</time></trkpt><trkpt lat="44.6967267" lon="7.8560483"><ele>291.0</ele><time>2026-04-12T15:23:26.063Z</time></trkpt><trkpt lat="44.696805" lon="7.85598"><ele>291.0</ele><time>2026-04-12T15:23:28.061Z</time></trkpt><trkpt lat="44.69688" lon="7.85588"><ele>291.0</ele><time>2026-04-12T15:23:30.063Z</time></trkpt><trkpt lat="44.696965" lon="7.8557733"><ele>291.3333333333333</ele><time>2026-04-12T15:23:32.062Z</time></trkpt><trkpt lat="44.6970517" lon="7.8556567"><ele>291.6666666666667</ele><time>2026-04-12T15:23:34.063Z</time></trkpt><trkpt lat="44.6970967" lon="7.85559"><ele>292.0</ele><time>2026-04-12T15:23:35.062Z</time></trkpt><trkpt lat="44.697145" lon="7.855525"><ele>292.33333333333337</ele><time>2026-04-12T15:23:36.062Z</time></trkpt><trkpt lat="44.697195" lon="7.8554583"><ele>292.6666666666667</ele><time>2026-04-12T15:23:37.061Z</time></trkpt><trkpt lat="44.6972467" lon="7.8553883"><ele>293.0</ele><time>2026-04-12T15:23:38.064Z</time></trkpt><trkpt lat="44.6972933" lon="7.8553133"><ele>293.0</ele><time>2026-04-12T15:23:39.064Z</time></trkpt><trkpt lat="44.6973417" lon="7.855245"><ele>293.0</ele><time>2026-04-12T15:23:40.062Z</time></trkpt><trkpt lat="44.6973883" lon="7.855185"><ele>293.0</ele><time>2026-04-12T15:23:41.062Z</time></trkpt><trkpt lat="44.6974367" lon="7.85512"><ele>293.0</ele><time>2026-04-12T15:23:42.063Z</time></trkpt><trkpt lat="44.69748" lon="7.8550517"><ele>293.0</ele><time>2026-04-12T15:23:43.063Z</time></trkpt><trkpt lat="44.6975633" lon="7.8549233"><ele>293.0</ele><time>2026-04-12T15:23:45.062Z</time></trkpt><trkpt lat="44.6976517" lon="7.85483"><ele>293.1666666666667</ele><time>2026-04-12T15:23:47.062Z</time></trkpt><trkpt lat="44.697735" lon="7.854745"><ele>293.33333333333337</ele><time>2026-04-12T15:23:49.064Z</time></trkpt><trkpt lat="44.6978033" lon="7.8546683"><ele>293.5</ele><time>2026-04-12T15:23:51.066Z</time></trkpt><trkpt lat="44.6978483" lon="7.8546017"><ele>293.6666666666667</ele><time>2026-04-12T15:23:53.063Z</time></trkpt><trkpt lat="44.6978533" lon="7.8544883"><ele>293.8333333333333</ele><time>2026-04-12T15:23:56.062Z</time></trkpt><trkpt lat="44.697815" lon="7.8543817"><ele>294.0</ele><time>2026-04-12T15:23:58.063Z</time></trkpt><trkpt lat="44.697765" lon="7.854265"><ele>293.59999999999997</ele><time>2026-04-12T15:24:00.062Z</time></trkpt><trkpt lat="44.697715" lon="7.8541467"><ele>293.2</ele><time>2026-04-12T15:24:02.063Z</time></trkpt><trkpt lat="44.69767" lon="7.8540183"><ele>292.79999999999995</ele><time>2026-04-12T15:24:04.063Z</time></trkpt><trkpt lat="44.6976217" lon="7.8538867"><ele>292.4</ele><time>2026-04-12T15:24:06.063Z</time></trkpt><trkpt lat="44.6975683" lon="7.8537367"><ele>292.0</ele><time>2026-04-12T15:24:08.063Z</time></trkpt><trkpt lat="44.6975417" lon="7.8536533"><ele>292.0</ele><time>2026-04-12T15:24:09.065Z</time></trkpt><trkpt lat="44.6975" lon="7.8535833"><ele>292.0</ele><time>2026-04-12T15:24:10.064Z</time></trkpt><trkpt lat="44.69746" lon="7.8535033"><ele>292.0</ele><time>2026-04-12T15:24:11.063Z</time></trkpt><trkpt lat="44.6974133" lon="7.8534317"><ele>292.0</ele><time>2026-04-12T15:24:12.063Z</time></trkpt><trkpt lat="44.6973683" lon="7.8533617"><ele>292.0</ele><time>2026-04-12T15:24:13.065Z</time></trkpt><trkpt lat="44.697305" lon="7.8532383"><ele>292.0</ele><time>2026-04-12T15:24:15.065Z</time></trkpt><trkpt lat="44.6972917" lon="7.8531167"><ele>291.6</ele><time>2026-04-12T15:24:18.063Z</time></trkpt><trkpt lat="44.6973767" lon="7.853055"><ele>291.2</ele><time>2026-04-12T15:24:21.065Z</time></trkpt><trkpt lat="44.6974633" lon="7.8530033"><ele>290.8</ele><time>2026-04-12T15:24:23.063Z</time></trkpt><trkpt lat="44.697555" lon="7.8529383"><ele>290.4</ele><time>2026-04-12T15:24:25.063Z</time></trkpt><trkpt lat="44.697655" lon="7.8528817"><ele>290.0</ele><time>2026-04-12T15:24:27.064Z</time></trkpt><trkpt lat="44.6977083" lon="7.8528317"><ele>289.75</ele><time>2026-04-12T15:24:28.062Z</time></trkpt><trkpt lat="44.697815" lon="7.8527483"><ele>289.5</ele><time>2026-04-12T15:24:30.064Z</time></trkpt><trkpt lat="44.69792" lon="7.8526717"><ele>289.25</ele><time>2026-04-12T15:24:32.064Z</time></trkpt><trkpt lat="44.6980067" lon="7.8525783"><ele>289.0</ele><time>2026-04-12T15:24:34.065Z</time></trkpt><trkpt lat="44.698075" lon="7.8524683"><ele>288.8</ele><time>2026-04-12T15:24:36.064Z</time></trkpt><trkpt lat="44.69814" lon="7.8523567"><ele>288.59999999999997</ele><time>2026-04-12T15:24:38.065Z</time></trkpt><trkpt lat="44.698205" lon="7.8522383"><ele>288.4</ele><time>2026-04-12T15:24:40.062Z</time></trkpt><trkpt lat="44.6982567" lon="7.8521017"><ele>288.2</ele><time>2026-04-12T15:24:42.061Z</time></trkpt><trkpt lat="44.6983133" lon="7.8519583"><ele>288.0</ele><time>2026-04-12T15:24:44.062Z</time></trkpt><trkpt lat="44.6983633" lon="7.8518167"><ele>288.0</ele><time>2026-04-12T15:24:46.063Z</time></trkpt><trkpt lat="44.69841" lon="7.851675"><ele>288.0</ele><time>2026-04-12T15:24:48.062Z</time></trkpt><trkpt lat="44.6984717" lon="7.8515567"><ele>288.0</ele><time>2026-04-12T15:24:50.063Z</time></trkpt><trkpt lat="44.698525" lon="7.8514167"><ele>288.0</ele><time>2026-04-12T15:24:52.063Z</time></trkpt><trkpt lat="44.69858" lon="7.8512717"><ele>288.0</ele><time>2026-04-12T15:24:54.063Z</time></trkpt><trkpt lat="44.6986317" lon="7.8511267"><ele>288.0</ele><time>2026-04-12T15:24:56.062Z</time></trkpt><trkpt lat="44.6986783" lon="7.8509733"><ele>288.0</ele><time>2026-04-12T15:24:58.061Z</time></trkpt><trkpt lat="44.6987317" lon="7.8508217"><ele>288.0</ele><time>2026-04-12T15:25:00.062Z</time></trkpt><trkpt lat="44.6987767" lon="7.8506683"><ele>288.0</ele><time>2026-04-12T15:25:02.06Z</time></trkpt><trkpt lat="44.6988317" lon="7.850515"><ele>287.6</ele><time>2026-04-12T15:25:04.061Z</time></trkpt><trkpt lat="44.6988817" lon="7.8503633"><ele>287.20000000000005</ele><time>2026-04-12T15:25:06.063Z</time></trkpt><trkpt lat="44.69893" lon="7.8502583"><ele>286.8</ele><time>2026-04-12T15:25:08.062Z</time></trkpt><trkpt lat="44.698985" lon="7.850175"><ele>286.40000000000003</ele><time>2026-04-12T15:25:11.061Z</time></trkpt><trkpt lat="44.6990383" lon="7.8500867"><ele>286.0</ele><time>2026-04-12T15:25:14.065Z</time></trkpt><trkpt lat="44.6990867" lon="7.8499917"><ele>285.8</ele><time>2026-04-12T15:25:16.062Z</time></trkpt><trkpt lat="44.6991433" lon="7.84988"><ele>285.6</ele><time>2026-04-12T15:25:18.063Z</time></trkpt><trkpt lat="44.6992033" lon="7.8497617"><ele>285.4</ele><time>2026-04-12T15:25:20.061Z</time></trkpt><trkpt lat="44.6992867" lon="7.8496617"><ele>285.2</ele><time>2026-04-12T15:25:22.062Z</time></trkpt><trkpt lat="44.6993733" lon="7.8495683"><ele>285.0</ele><time>2026-04-12T15:25:24.061Z</time></trkpt><trkpt lat="44.699455" lon="7.8494633"><ele>285.25</ele><time>2026-04-12T15:25:26.063Z</time></trkpt><trkpt lat="44.6995367" lon="7.8493433"><ele>285.5</ele><time>2026-04-12T15:25:28.061Z</time></trkpt><trkpt lat="44.6996167" lon="7.8492217"><ele>285.75</ele><time>2026-04-12T15:25:30.061Z</time></trkpt><trkpt lat="44.6996867" lon="7.8490867"><ele>286.0</ele><time>2026-04-12T15:25:32.062Z</time></trkpt><trkpt lat="44.6997633" lon="7.8489717"><ele>286.0</ele><time>2026-04-12T15:25:34.061Z</time></trkpt><trkpt lat="44.6998383" lon="7.8488517"><ele>286.0</ele><time>2026-04-12T15:25:36.061Z</time></trkpt><trkpt lat="44.6999183" lon="7.84874"><ele>286.0</ele><time>2026-04-12T15:25:38.062Z</time></trkpt><trkpt lat="44.7000017" lon="7.8486367"><ele>286.0</ele><time>2026-04-12T15:25:40.061Z</time></trkpt><trkpt lat="44.700115" lon="7.84857"><ele>286.0</ele><time>2026-04-12T15:25:42.062Z</time></trkpt><trkpt lat="44.7002233" lon="7.848495"><ele>286.0</ele><time>2026-04-12T15:25:44.062Z</time></trkpt><trkpt lat="44.7002817" lon="7.84846"><ele>286.0</ele><time>2026-04-12T15:25:45.064Z</time></trkpt><trkpt lat="44.7003917" lon="7.8483983"><ele>286.0</ele><time>2026-04-12T15:25:47.062Z</time></trkpt><trkpt lat="44.7005" lon="7.8483567"><ele>286.0</ele><time>2026-04-12T15:25:49.067Z</time></trkpt><trkpt lat="44.70061" lon="7.8483117"><ele>286.0</ele><time>2026-04-12T15:25:51.065Z</time></trkpt><trkpt lat="44.7007267" lon="7.8482717"><ele>286.0</ele><time>2026-04-12T15:25:53.064Z</time></trkpt><trkpt lat="44.7008383" lon="7.84824"><ele>286.0</ele><time>2026-04-12T15:25:55.064Z</time></trkpt><trkpt lat="44.7009533" lon="7.848215"><ele>286.0</ele><time>2026-04-12T15:25:57.063Z</time></trkpt><trkpt lat="44.7010633" lon="7.84819"><ele>287.0</ele><time>2026-04-12T15:25:59.064Z</time></trkpt><trkpt lat="44.701165" lon="7.8481567"><ele>288.0</ele><time>2026-04-12T15:26:01.063Z</time></trkpt><trkpt lat="44.70127" lon="7.8481217"><ele>289.0</ele><time>2026-04-12T15:26:03.064Z</time></trkpt><trkpt lat="44.7013683" lon="7.8480517"><ele>290.0</ele><time>2026-04-12T15:26:05.064Z</time></trkpt><trkpt lat="44.7014583" lon="7.8479667"><ele>291.0</ele><time>2026-04-12T15:26:07.064Z</time></trkpt><trkpt lat="44.7015433" lon="7.8478717"><ele>291.0</ele><time>2026-04-12T15:26:09.064Z</time></trkpt><trkpt lat="44.7016283" lon="7.8477867"><ele>291.0</ele><time>2026-04-12T15:26:11.063Z</time></trkpt><trkpt lat="44.7017083" lon="7.8476983"><ele>291.0</ele><time>2026-04-12T15:26:13.065Z</time></trkpt><trkpt lat="44.70179" lon="7.84761"><ele>291.0</ele><time>2026-04-12T15:26:15.064Z</time></trkpt><trkpt lat="44.7018683" lon="7.847525"><ele>291.0</ele><time>2026-04-12T15:26:17.064Z</time></trkpt><trkpt lat="44.7019433" lon="7.8474433"><ele>291.0</ele><time>2026-04-12T15:26:19.064Z</time></trkpt><trkpt lat="44.7020133" lon="7.8473817"><ele>291.0</ele><time>2026-04-12T15:26:21.064Z</time></trkpt><trkpt lat="44.702085" lon="7.84732"><ele>291.0</ele><time>2026-04-12T15:26:23.065Z</time></trkpt><trkpt lat="44.7021617" lon="7.8472767"><ele>291.0</ele><time>2026-04-12T15:26:25.066Z</time></trkpt><trkpt lat="44.70223" lon="7.8472267"><ele>291.0</ele><time>2026-04-12T15:26:27.063Z</time></trkpt><trkpt lat="44.7022883" lon="7.84717"><ele>291.0</ele><time>2026-04-12T15:26:29.063Z</time></trkpt><trkpt lat="44.7023517" lon="7.8471167"><ele>291.0</ele><time>2026-04-12T15:26:32.06Z</time></trkpt><trkpt lat="44.7024133" lon="7.84706"><ele>291.0</ele><time>2026-04-12T15:26:36.063Z</time></trkpt><trkpt lat="44.70245" lon="7.8469733"><ele>291.0</ele><time>2026-04-12T15:26:43.062Z</time></trkpt><trkpt lat="44.7025017" lon="7.8469083"><ele>291.0</ele><time>2026-04-12T15:26:45.063Z</time></trkpt><trkpt lat="44.7025717" lon="7.84684"><ele>291.0</ele><time>2026-04-12T15:26:47.063Z</time></trkpt><trkpt lat="44.7026517" lon="7.846765"><ele>291.0</ele><time>2026-04-12T15:26:49.064Z</time></trkpt><trkpt lat="44.7027367" lon="7.846685"><ele>290.8</ele><time>2026-04-12T15:26:51.064Z</time></trkpt><trkpt lat="44.7028283" lon="7.8465967"><ele>290.6</ele><time>2026-04-12T15:26:53.06Z</time></trkpt><trkpt lat="44.70292" lon="7.84651"><ele>290.4</ele><time>2026-04-12T15:26:55.063Z</time></trkpt><trkpt lat="44.7030133" lon="7.8464217"><ele>290.2</ele><time>2026-04-12T15:26:57.062Z</time></trkpt><trkpt lat="44.7031067" lon="7.8463317"><ele>290.0</ele><time>2026-04-12T15:26:59.062Z</time></trkpt><trkpt lat="44.7032" lon="7.8462383"><ele>290.0</ele><time>2026-04-12T15:27:01.062Z</time></trkpt><trkpt lat="44.7032933" lon="7.8461533"><ele>290.0</ele><time>2026-04-12T15:27:03.065Z</time></trkpt><trkpt lat="44.7033833" lon="7.84606"><ele>290.0</ele><time>2026-04-12T15:27:05.062Z</time></trkpt><trkpt lat="44.7034783" lon="7.845975"><ele>290.0</ele><time>2026-04-12T15:27:07.062Z</time></trkpt><trkpt lat="44.70358" lon="7.845885"><ele>289.83333333333337</ele><time>2026-04-12T15:27:09.063Z</time></trkpt><trkpt lat="44.7036783" lon="7.8457883"><ele>289.6666666666667</ele><time>2026-04-12T15:27:11.062Z</time></trkpt><trkpt lat="44.70378" lon="7.84569"><ele>289.5</ele><time>2026-04-12T15:27:13.061Z</time></trkpt><trkpt lat="44.7038317" lon="7.8456383"><ele>289.3333333333333</ele><time>2026-04-12T15:27:14.061Z</time></trkpt><trkpt lat="44.7038867" lon="7.8455867"><ele>289.16666666666663</ele><time>2026-04-12T15:27:15.065Z</time></trkpt><trkpt lat="44.70394" lon="7.845525"><ele>289.0</ele><time>2026-04-12T15:27:16.062Z</time></trkpt><trkpt lat="44.7039917" lon="7.8454617"><ele>289.0</ele><time>2026-04-12T15:27:17.062Z</time></trkpt><trkpt lat="44.7040433" lon="7.84541"><ele>289.0</ele><time>2026-04-12T15:27:18.062Z</time></trkpt><trkpt lat="44.704095" lon="7.8453567"><ele>289.0</ele><time>2026-04-12T15:27:19.063Z</time></trkpt><trkpt lat="44.7041467" lon="7.845305"><ele>289.0</ele><time>2026-04-12T15:27:20.063Z</time></trkpt><trkpt lat="44.7041983" lon="7.8452533"><ele>289.0</ele><time>2026-04-12T15:27:21.063Z</time></trkpt><trkpt lat="44.7042483" lon="7.8451983"><ele>289.0</ele><time>2026-04-12T15:27:22.062Z</time></trkpt><trkpt lat="44.7043" lon="7.84514"><ele>289.0</ele><time>2026-04-12T15:27:23.061Z</time></trkpt><trkpt lat="44.70435" lon="7.8450833"><ele>289.0</ele><time>2026-04-12T15:27:24.063Z</time></trkpt><trkpt lat="44.7044033" lon="7.8450333"><ele>289.16666666666663</ele><time>2026-04-12T15:27:25.064Z</time></trkpt><trkpt lat="44.7044567" lon="7.8449817"><ele>289.3333333333333</ele><time>2026-04-12T15:27:26.063Z</time></trkpt><trkpt lat="44.7045133" lon="7.844935"><ele>289.5</ele><time>2026-04-12T15:27:27.063Z</time></trkpt><trkpt lat="44.704625" lon="7.844845"><ele>289.6666666666667</ele><time>2026-04-12T15:27:29.063Z</time></trkpt><trkpt lat="44.70468" lon="7.844795"><ele>289.83333333333337</ele><time>2026-04-12T15:27:30.062Z</time></trkpt><trkpt lat="44.7047367" lon="7.84474"><ele>290.0</ele><time>2026-04-12T15:27:31.062Z</time></trkpt><trkpt lat="44.7047983" lon="7.8446867"><ele>290.0</ele><time>2026-04-12T15:27:32.063Z</time></trkpt><trkpt lat="44.7048533" lon="7.8446333"><ele>290.0</ele><time>2026-04-12T15:27:33.063Z</time></trkpt><trkpt lat="44.7049083" lon="7.8445767"><ele>290.0</ele><time>2026-04-12T15:27:34.062Z</time></trkpt><trkpt lat="44.7049617" lon="7.8445183"><ele>290.0</ele><time>2026-04-12T15:27:35.063Z</time></trkpt><trkpt lat="44.7050167" lon="7.8444633"><ele>290.0</ele><time>2026-04-12T15:27:36.062Z</time></trkpt><trkpt lat="44.70507" lon="7.8444117"><ele>290.0</ele><time>2026-04-12T15:27:37.063Z</time></trkpt><trkpt lat="44.7051267" lon="7.8443567"><ele>290.0</ele><time>2026-04-12T15:27:38.063Z</time></trkpt><trkpt lat="44.7051833" lon="7.8443067"><ele>289.7142857142857</ele><time>2026-04-12T15:27:39.063Z</time></trkpt><trkpt lat="44.7052383" lon="7.8442567"><ele>289.42857142857144</ele><time>2026-04-12T15:27:40.062Z</time></trkpt><trkpt lat="44.7052933" lon="7.8442083"><ele>289.14285714285717</ele><time>2026-04-12T15:27:41.062Z</time></trkpt><trkpt lat="44.70535" lon="7.8441533"><ele>288.8571428571429</ele><time>2026-04-12T15:27:42.064Z</time></trkpt><trkpt lat="44.7054083" lon="7.8440983"><ele>288.57142857142856</ele><time>2026-04-12T15:27:43.062Z</time></trkpt><trkpt lat="44.705465" lon="7.8440417"><ele>288.28571428571433</ele><time>2026-04-12T15:27:44.065Z</time></trkpt><trkpt lat="44.7055167" lon="7.84398"><ele>288.0</ele><time>2026-04-12T15:27:45.066Z</time></trkpt><trkpt lat="44.705575" lon="7.8439233"><ele>288.00000000000006</ele><time>2026-04-12T15:27:46.061Z</time></trkpt><trkpt lat="44.705635" lon="7.8438683"><ele>288.0</ele><time>2026-04-12T15:27:47.061Z</time></trkpt><trkpt lat="44.7056917" lon="7.84381"><ele>288.0</ele><time>2026-04-12T15:27:48.065Z</time></trkpt><trkpt lat="44.70575" lon="7.843755"><ele>288.0</ele><time>2026-04-12T15:27:49.063Z</time></trkpt><trkpt lat="44.7058067" lon="7.8436967"><ele>288.0</ele><time>2026-04-12T15:27:50.063Z</time></trkpt><trkpt lat="44.7058667" lon="7.8436417"><ele>288.00000000000006</ele><time>2026-04-12T15:27:51.062Z</time></trkpt><trkpt lat="44.7059233" lon="7.8435867"><ele>288.0</ele><time>2026-04-12T15:27:52.064Z</time></trkpt><trkpt lat="44.7059833" lon="7.8435317"><ele>288.00000000000006</ele><time>2026-04-12T15:27:53.061Z</time></trkpt><trkpt lat="44.7060433" lon="7.8434733"><ele>288.0</ele><time>2026-04-12T15:27:54.061Z</time></trkpt><trkpt lat="44.706105" lon="7.8434217"><ele>288.0</ele><time>2026-04-12T15:27:55.062Z</time></trkpt><trkpt lat="44.7061717" lon="7.8433717"><ele>288.0</ele><time>2026-04-12T15:27:56.063Z</time></trkpt><trkpt lat="44.70623" lon="7.8433133"><ele>288.0</ele><time>2026-04-12T15:27:57.063Z</time></trkpt><trkpt lat="44.7062917" lon="7.843255"><ele>288.00000000000006</ele><time>2026-04-12T15:27:58.062Z</time></trkpt><trkpt lat="44.7063533" lon="7.8432017"><ele>288.0</ele><time>2026-04-12T15:27:59.06Z</time></trkpt><trkpt lat="44.706415" lon="7.843145"><ele>288.14285714285717</ele><time>2026-04-12T15:28:00.063Z</time></trkpt><trkpt lat="44.70648" lon="7.8430933"><ele>288.2857142857143</ele><time>2026-04-12T15:28:01.061Z</time></trkpt><trkpt lat="44.7065433" lon="7.8430417"><ele>288.42857142857144</ele><time>2026-04-12T15:28:02.061Z</time></trkpt><trkpt lat="44.7066067" lon="7.8429867"><ele>288.57142857142856</ele><time>2026-04-12T15:28:03.062Z</time></trkpt><trkpt lat="44.7066667" lon="7.84293"><ele>288.7142857142857</ele><time>2026-04-12T15:28:04.062Z</time></trkpt><trkpt lat="44.7067267" lon="7.8428783"><ele>288.8571428571429</ele><time>2026-04-12T15:28:05.061Z</time></trkpt><trkpt lat="44.7067867" lon="7.8428167"><ele>289.0</ele><time>2026-04-12T15:28:06.062Z</time></trkpt><trkpt lat="44.7068467" lon="7.8427533"><ele>288.8333333333333</ele><time>2026-04-12T15:28:07.064Z</time></trkpt><trkpt lat="44.7069117" lon="7.842695"><ele>288.66666666666663</ele><time>2026-04-12T15:28:08.061Z</time></trkpt><trkpt lat="44.7069767" lon="7.842635"><ele>288.5</ele><time>2026-04-12T15:28:09.062Z</time></trkpt><trkpt lat="44.70704" lon="7.842575"><ele>288.3333333333333</ele><time>2026-04-12T15:28:10.063Z</time></trkpt><trkpt lat="44.707105" lon="7.8425133"><ele>288.1666666666667</ele><time>2026-04-12T15:28:11.062Z</time></trkpt><trkpt lat="44.7071717" lon="7.8424517"><ele>288.0</ele><time>2026-04-12T15:28:12.061Z</time></trkpt><trkpt lat="44.7072367" lon="7.8423883"><ele>288.0</ele><time>2026-04-12T15:28:13.063Z</time></trkpt><trkpt lat="44.7072967" lon="7.8423267"><ele>288.0</ele><time>2026-04-12T15:28:14.062Z</time></trkpt><trkpt lat="44.70736" lon="7.8422683"><ele>288.0</ele><time>2026-04-12T15:28:15.062Z</time></trkpt><trkpt lat="44.7074233" lon="7.84221"><ele>288.0</ele><time>2026-04-12T15:28:16.063Z</time></trkpt><trkpt lat="44.7074867" lon="7.8421533"><ele>288.0</ele><time>2026-04-12T15:28:17.063Z</time></trkpt><trkpt lat="44.70755" lon="7.842095"><ele>288.0</ele><time>2026-04-12T15:28:18.063Z</time></trkpt><trkpt lat="44.7076117" lon="7.8420367"><ele>288.00000000000006</ele><time>2026-04-12T15:28:19.064Z</time></trkpt><trkpt lat="44.7076767" lon="7.84198"><ele>288.0</ele><time>2026-04-12T15:28:20.062Z</time></trkpt><trkpt lat="44.7077417" lon="7.8419233"><ele>288.0</ele><time>2026-04-12T15:28:21.062Z</time></trkpt><trkpt lat="44.7077983" lon="7.841865"><ele>288.0</ele><time>2026-04-12T15:28:22.062Z</time></trkpt><trkpt lat="44.7078583" lon="7.8418067"><ele>288.0</ele><time>2026-04-12T15:28:23.061Z</time></trkpt><trkpt lat="44.70792" lon="7.84175"><ele>288.00000000000006</ele><time>2026-04-12T15:28:24.062Z</time></trkpt><trkpt lat="44.70798" lon="7.8416917"><ele>288.0</ele><time>2026-04-12T15:28:25.063Z</time></trkpt><trkpt lat="44.7080367" lon="7.841635"><ele>288.2</ele><time>2026-04-12T15:28:26.063Z</time></trkpt><trkpt lat="44.7080917" lon="7.8415867"><ele>288.4</ele><time>2026-04-12T15:28:27.062Z</time></trkpt><trkpt lat="44.7081917" lon="7.841495"><ele>288.59999999999997</ele><time>2026-04-12T15:28:29.064Z</time></trkpt><trkpt lat="44.7082767" lon="7.8414167"><ele>288.8</ele><time>2026-04-12T15:28:31.062Z</time></trkpt><trkpt lat="44.7083533" lon="7.8413367"><ele>289.0</ele><time>2026-04-12T15:28:33.061Z</time></trkpt><trkpt lat="44.7084317" lon="7.8412567"><ele>289.0</ele><time>2026-04-12T15:28:35.06Z</time></trkpt><trkpt lat="44.7085017" lon="7.8411783"><ele>289.0</ele><time>2026-04-12T15:28:37.064Z</time></trkpt><trkpt lat="44.7085617" lon="7.8411117"><ele>289.0</ele><time>2026-04-12T15:28:39.062Z</time></trkpt><trkpt lat="44.7086183" lon="7.841035"><ele>289.0</ele><time>2026-04-12T15:28:41.061Z</time></trkpt><trkpt lat="44.70867" lon="7.840935"><ele>289.0</ele><time>2026-04-12T15:28:43.061Z</time></trkpt><trkpt lat="44.7086617" lon="7.8408033"><ele>289.0</ele><time>2026-04-12T15:28:45.061Z</time></trkpt><trkpt lat="44.7086183" lon="7.8406717"><ele>289.4</ele><time>2026-04-12T15:28:47.06Z</time></trkpt><trkpt lat="44.70855" lon="7.8405367"><ele>289.79999999999995</ele><time>2026-04-12T15:28:49.063Z</time></trkpt><trkpt lat="44.7084783" lon="7.8403917"><ele>290.20000000000005</ele><time>2026-04-12T15:28:51.062Z</time></trkpt><trkpt lat="44.70842" lon="7.8402317"><ele>290.6</ele><time>2026-04-12T15:28:53.063Z</time></trkpt><trkpt lat="44.7083867" lon="7.84015"><ele>291.0</ele><time>2026-04-12T15:28:54.063Z</time></trkpt><trkpt lat="44.70836" lon="7.8400633"><ele>290.2857142857143</ele><time>2026-04-12T15:28:55.063Z</time></trkpt><trkpt lat="44.7083333" lon="7.8399717"><ele>289.57142857142856</ele><time>2026-04-12T15:28:56.062Z</time></trkpt><trkpt lat="44.708305" lon="7.839885"><ele>288.85714285714283</ele><time>2026-04-12T15:28:57.062Z</time></trkpt><trkpt lat="44.708275" lon="7.839805"><ele>288.1428571428571</ele><time>2026-04-12T15:28:58.062Z</time></trkpt><trkpt lat="44.708245" lon="7.8397217"><ele>287.42857142857144</ele><time>2026-04-12T15:28:59.062Z</time></trkpt><trkpt lat="44.708215" lon="7.839635"><ele>286.71428571428567</ele><time>2026-04-12T15:29:00.061Z</time></trkpt><trkpt lat="44.708185" lon="7.8395517"><ele>286.0</ele><time>2026-04-12T15:29:01.063Z</time></trkpt><trkpt lat="44.7081583" lon="7.8394667"><ele>285.99999999999994</ele><time>2026-04-12T15:29:02.065Z</time></trkpt><trkpt lat="44.7081333" lon="7.83938"><ele>286.0</ele><time>2026-04-12T15:29:03.062Z</time></trkpt><trkpt lat="44.7081083" lon="7.8392917"><ele>286.0</ele><time>2026-04-12T15:29:04.063Z</time></trkpt><trkpt lat="44.7080833" lon="7.8392017"><ele>286.0</ele><time>2026-04-12T15:29:05.061Z</time></trkpt><trkpt lat="44.7080567" lon="7.839115"><ele>286.0</ele><time>2026-04-12T15:29:06.062Z</time></trkpt><trkpt lat="44.7080283" lon="7.83903"><ele>285.99999999999994</ele><time>2026-04-12T15:29:07.065Z</time></trkpt><trkpt lat="44.7079983" lon="7.8389417"><ele>286.0</ele><time>2026-04-12T15:29:08.063Z</time></trkpt><trkpt lat="44.7079667" lon="7.838855"><ele>285.85714285714283</ele><time>2026-04-12T15:29:09.062Z</time></trkpt><trkpt lat="44.7079367" lon="7.8387717"><ele>285.7142857142857</ele><time>2026-04-12T15:29:10.062Z</time></trkpt><trkpt lat="44.7079083" lon="7.8386883"><ele>285.57142857142856</ele><time>2026-04-12T15:29:11.062Z</time></trkpt><trkpt lat="44.7078783" lon="7.8386"><ele>285.42857142857144</ele><time>2026-04-12T15:29:12.063Z</time></trkpt><trkpt lat="44.7078517" lon="7.8385083"><ele>285.2857142857143</ele><time>2026-04-12T15:29:13.062Z</time></trkpt><trkpt lat="44.7078233" lon="7.8384133"><ele>285.1428571428571</ele><time>2026-04-12T15:29:14.062Z</time></trkpt><trkpt lat="44.70779" lon="7.8383183"><ele>285.0</ele><time>2026-04-12T15:29:15.062Z</time></trkpt><trkpt lat="44.7077583" lon="7.8382217"><ele>284.8</ele><time>2026-04-12T15:29:16.062Z</time></trkpt><trkpt lat="44.7077167" lon="7.8381117"><ele>284.6</ele><time>2026-04-12T15:29:17.061Z</time></trkpt><trkpt lat="44.7076767" lon="7.8380017"><ele>284.4</ele><time>2026-04-12T15:29:18.063Z</time></trkpt><trkpt lat="44.7076367" lon="7.8378867"><ele>284.2</ele><time>2026-04-12T15:29:19.062Z</time></trkpt><trkpt lat="44.707595" lon="7.8377683"><ele>284.0</ele><time>2026-04-12T15:29:20.061Z</time></trkpt><trkpt lat="44.7075567" lon="7.8376517"><ele>283.59999999999997</ele><time>2026-04-12T15:29:21.062Z</time></trkpt><trkpt lat="44.7075233" lon="7.8375283"><ele>283.2</ele><time>2026-04-12T15:29:22.061Z</time></trkpt><trkpt lat="44.70749" lon="7.8374067"><ele>282.79999999999995</ele><time>2026-04-12T15:29:23.06Z</time></trkpt><trkpt lat="44.7074533" lon="7.837285"><ele>282.4</ele><time>2026-04-12T15:29:24.061Z</time></trkpt><trkpt lat="44.7074133" lon="7.8371683"><ele>282.0</ele><time>2026-04-12T15:29:25.063Z</time></trkpt><trkpt lat="44.70738" lon="7.837055"><ele>282.0</ele><time>2026-04-12T15:29:26.064Z</time></trkpt><trkpt lat="44.7073467" lon="7.8369417"><ele>282.0</ele><time>2026-04-12T15:29:27.063Z</time></trkpt><trkpt lat="44.7073117" lon="7.83683"><ele>282.0</ele><time>2026-04-12T15:29:28.063Z</time></trkpt><trkpt lat="44.7072767" lon="7.8367183"><ele>282.0</ele><time>2026-04-12T15:29:29.063Z</time></trkpt><trkpt lat="44.707245" lon="7.8366117"><ele>282.0</ele><time>2026-04-12T15:29:30.064Z</time></trkpt><trkpt lat="44.7072133" lon="7.8365083"><ele>282.0</ele><time>2026-04-12T15:29:31.062Z</time></trkpt><trkpt lat="44.7071817" lon="7.836405"><ele>281.8333333333333</ele><time>2026-04-12T15:29:32.063Z</time></trkpt><trkpt lat="44.7071467" lon="7.836305"><ele>281.6666666666667</ele><time>2026-04-12T15:29:33.061Z</time></trkpt><trkpt lat="44.7071133" lon="7.8362083"><ele>281.5</ele><time>2026-04-12T15:29:34.062Z</time></trkpt><trkpt lat="44.7070817" lon="7.8361133"><ele>281.33333333333337</ele><time>2026-04-12T15:29:35.06Z</time></trkpt><trkpt lat="44.70705" lon="7.8360167"><ele>281.1666666666667</ele><time>2026-04-12T15:29:36.062Z</time></trkpt><trkpt lat="44.7070217" lon="7.835915"><ele>281.0</ele><time>2026-04-12T15:29:37.063Z</time></trkpt><trkpt lat="44.706995" lon="7.83581"><ele>280.83333333333337</ele><time>2026-04-12T15:29:38.063Z</time></trkpt><trkpt lat="44.7069667" lon="7.835705"><ele>280.6666666666667</ele><time>2026-04-12T15:29:39.062Z</time></trkpt><trkpt lat="44.70694" lon="7.8356"><ele>280.5</ele><time>2026-04-12T15:29:40.062Z</time></trkpt><trkpt lat="44.706915" lon="7.8354933"><ele>280.3333333333333</ele><time>2026-04-12T15:29:41.06Z</time></trkpt><trkpt lat="44.70689" lon="7.8353817"><ele>280.16666666666663</ele><time>2026-04-12T15:29:42.061Z</time></trkpt><trkpt lat="44.706865" lon="7.8352717"><ele>280.0</ele><time>2026-04-12T15:29:43.062Z</time></trkpt><trkpt lat="44.706845" lon="7.8351617"><ele>280.0</ele><time>2026-04-12T15:29:44.063Z</time></trkpt><trkpt lat="44.7068233" lon="7.8350533"><ele>280.0</ele><time>2026-04-12T15:29:45.064Z</time></trkpt><trkpt lat="44.7068" lon="7.834945"><ele>280.0</ele><time>2026-04-12T15:29:46.063Z</time></trkpt><trkpt lat="44.70678" lon="7.834835"><ele>280.0</ele><time>2026-04-12T15:29:47.062Z</time></trkpt><trkpt lat="44.7067617" lon="7.83472"><ele>280.0</ele><time>2026-04-12T15:29:48.062Z</time></trkpt><trkpt lat="44.706745" lon="7.8346067"><ele>280.0</ele><time>2026-04-12T15:29:49.063Z</time></trkpt><trkpt lat="44.7067383" lon="7.83449"><ele>280.0</ele><time>2026-04-12T15:29:50.063Z</time></trkpt><trkpt lat="44.7067417" lon="7.8343717"><ele>280.0</ele><time>2026-04-12T15:29:51.064Z</time></trkpt><trkpt lat="44.7067467" lon="7.8342533"><ele>280.0</ele><time>2026-04-12T15:29:52.061Z</time></trkpt><trkpt lat="44.7067567" lon="7.83414"><ele>280.0</ele><time>2026-04-12T15:29:53.064Z</time></trkpt><trkpt lat="44.70677" lon="7.8340317"><ele>280.0</ele><time>2026-04-12T15:29:54.062Z</time></trkpt><trkpt lat="44.7067883" lon="7.833925"><ele>280.0</ele><time>2026-04-12T15:29:55.061Z</time></trkpt><trkpt lat="44.7068067" lon="7.8338183"><ele>279.8333333333333</ele><time>2026-04-12T15:29:56.062Z</time></trkpt><trkpt lat="44.7068317" lon="7.8337117"><ele>279.66666666666663</ele><time>2026-04-12T15:29:57.062Z</time></trkpt><trkpt lat="44.7068567" lon="7.8336083"><ele>279.5</ele><time>2026-04-12T15:29:58.062Z</time></trkpt><trkpt lat="44.70688" lon="7.8335067"><ele>279.3333333333333</ele><time>2026-04-12T15:29:59.063Z</time></trkpt><trkpt lat="44.7069033" lon="7.8334083"><ele>279.1666666666667</ele><time>2026-04-12T15:30:00.063Z</time></trkpt><trkpt lat="44.706925" lon="7.8333067"><ele>279.0</ele><time>2026-04-12T15:30:01.063Z</time></trkpt><trkpt lat="44.7069483" lon="7.8332033"><ele>278.6666666666667</ele><time>2026-04-12T15:30:02.063Z</time></trkpt><trkpt lat="44.7069717" lon="7.8331017"><ele>278.3333333333333</ele><time>2026-04-12T15:30:03.062Z</time></trkpt><trkpt lat="44.707" lon="7.8329983"><ele>278.0</ele><time>2026-04-12T15:30:04.063Z</time></trkpt><trkpt lat="44.7070267" lon="7.8328967"><ele>277.66666666666663</ele><time>2026-04-12T15:30:05.062Z</time></trkpt><trkpt lat="44.7070533" lon="7.832795"><ele>277.3333333333333</ele><time>2026-04-12T15:30:06.063Z</time></trkpt><trkpt lat="44.7070783" lon="7.8326933"><ele>277.0</ele><time>2026-04-12T15:30:07.063Z</time></trkpt><trkpt lat="44.7070967" lon="7.83259"><ele>276.85714285714283</ele><time>2026-04-12T15:30:08.062Z</time></trkpt><trkpt lat="44.707115" lon="7.83249"><ele>276.71428571428567</ele><time>2026-04-12T15:30:09.062Z</time></trkpt><trkpt lat="44.7071367" lon="7.8323933"><ele>276.57142857142856</ele><time>2026-04-12T15:30:10.061Z</time></trkpt><trkpt lat="44.70716" lon="7.8322983"><ele>276.42857142857144</ele><time>2026-04-12T15:30:11.061Z</time></trkpt><trkpt lat="44.7071817" lon="7.8322017"><ele>276.28571428571433</ele><time>2026-04-12T15:30:12.062Z</time></trkpt><trkpt lat="44.7072033" lon="7.8321083"><ele>276.14285714285717</ele><time>2026-04-12T15:30:13.062Z</time></trkpt><trkpt lat="44.7072183" lon="7.8320167"><ele>276.0</ele><time>2026-04-12T15:30:14.062Z</time></trkpt><trkpt lat="44.707245" lon="7.8318517"><ele>276.40000000000003</ele><time>2026-04-12T15:30:16.061Z</time></trkpt><trkpt lat="44.7073067" lon="7.8317333"><ele>276.8</ele><time>2026-04-12T15:30:18.063Z</time></trkpt><trkpt lat="44.707405" lon="7.8316567"><ele>277.20000000000005</ele><time>2026-04-12T15:30:20.064Z</time></trkpt><trkpt lat="44.7075183" lon="7.8315917"><ele>277.6</ele><time>2026-04-12T15:30:22.062Z</time></trkpt><trkpt lat="44.70758" lon="7.8315683"><ele>278.0</ele><time>2026-04-12T15:30:23.061Z</time></trkpt><trkpt lat="44.707695" lon="7.8315683"><ele>278.33333333333337</ele><time>2026-04-12T15:30:25.061Z</time></trkpt><trkpt lat="44.7078017" lon="7.8316467"><ele>278.6666666666667</ele><time>2026-04-12T15:30:27.062Z</time></trkpt><trkpt lat="44.7078533" lon="7.8316983"><ele>279.0</ele><time>2026-04-12T15:30:28.062Z</time></trkpt><trkpt lat="44.7079067" lon="7.83175"><ele>279.3333333333333</ele><time>2026-04-12T15:30:29.061Z</time></trkpt><trkpt lat="44.7079583" lon="7.8318067"><ele>279.66666666666663</ele><time>2026-04-12T15:30:30.062Z</time></trkpt><trkpt lat="44.7080117" lon="7.8318617"><ele>280.0</ele><time>2026-04-12T15:30:31.062Z</time></trkpt><trkpt lat="44.70812" lon="7.83193"><ele>280.0</ele><time>2026-04-12T15:30:33.063Z</time></trkpt><trkpt lat="44.7082333" lon="7.83196"><ele>280.0</ele><time>2026-04-12T15:30:35.06Z</time></trkpt><trkpt lat="44.70834" lon="7.8320067"><ele>280.0</ele><time>2026-04-12T15:30:37.062Z</time></trkpt><trkpt lat="44.70845" lon="7.8321017"><ele>280.0</ele><time>2026-04-12T15:30:39.065Z</time></trkpt><trkpt lat="44.70851" lon="7.8321383"><ele>280.0</ele><time>2026-04-12T15:30:40.063Z</time></trkpt><trkpt lat="44.70862" lon="7.8322117"><ele>280.4</ele><time>2026-04-12T15:30:42.061Z</time></trkpt><trkpt lat="44.7087133" lon="7.8322983"><ele>280.8</ele><time>2026-04-12T15:30:44.06Z</time></trkpt><trkpt lat="44.7088067" lon="7.8323933"><ele>281.2</ele><time>2026-04-12T15:30:46.063Z</time></trkpt><trkpt lat="44.7089067" lon="7.8324683"><ele>281.6</ele><time>2026-04-12T15:30:48.062Z</time></trkpt><trkpt lat="44.709" lon="7.8325383"><ele>282.0</ele><time>2026-04-12T15:30:50.062Z</time></trkpt><trkpt lat="44.7091017" lon="7.8326117"><ele>282.5</ele><time>2026-04-12T15:30:52.063Z</time></trkpt><trkpt lat="44.7092117" lon="7.8326567"><ele>283.0</ele><time>2026-04-12T15:30:54.065Z</time></trkpt><trkpt lat="44.7093183" lon="7.8326967"><ele>283.5</ele><time>2026-04-12T15:30:56.066Z</time></trkpt><trkpt lat="44.70943" lon="7.8327317"><ele>284.0</ele><time>2026-04-12T15:30:58.064Z</time></trkpt><trkpt lat="44.7095333" lon="7.83279"><ele>283.2</ele><time>2026-04-12T15:31:00.064Z</time></trkpt><trkpt lat="44.709635" lon="7.8328817"><ele>282.4</ele><time>2026-04-12T15:31:02.065Z</time></trkpt><trkpt lat="44.7097383" lon="7.8329433"><ele>281.6</ele><time>2026-04-12T15:31:04.066Z</time></trkpt><trkpt lat="44.709835" lon="7.833005"><ele>280.8</ele><time>2026-04-12T15:31:06.065Z</time></trkpt><trkpt lat="44.7099117" lon="7.8330367"><ele>280.0</ele><time>2026-04-12T15:31:08.064Z</time></trkpt><trkpt lat="44.709985" lon="7.8330467"><ele>280.0</ele><time>2026-04-12T15:31:11.066Z</time></trkpt><trkpt lat="44.7100767" lon="7.8330417"><ele>280.0</ele><time>2026-04-12T15:31:14.062Z</time></trkpt><trkpt lat="44.71015" lon="7.8330367"><ele>280.0</ele><time>2026-04-12T15:31:16.067Z</time></trkpt><trkpt lat="44.71022" lon="7.8330633"><ele>280.0</ele><time>2026-04-12T15:31:18.064Z</time></trkpt><trkpt lat="44.7102833" lon="7.8330817"><ele>280.0</ele><time>2026-04-12T15:31:20.064Z</time></trkpt><trkpt lat="44.710345" lon="7.83306"><ele>280.0</ele><time>2026-04-12T15:31:22.064Z</time></trkpt><trkpt lat="44.7104" lon="7.8330133"><ele>280.0</ele><time>2026-04-12T15:31:24.064Z</time></trkpt><trkpt lat="44.7104683" lon="7.8329583"><ele>279.8</ele><time>2026-04-12T15:31:26.065Z</time></trkpt><trkpt lat="44.7105483" lon="7.8328933"><ele>279.6</ele><time>2026-04-12T15:31:28.063Z</time></trkpt><trkpt lat="44.7106233" lon="7.83282"><ele>279.4</ele><time>2026-04-12T15:31:30.063Z</time></trkpt><trkpt lat="44.7107117" lon="7.832725"><ele>279.2</ele><time>2026-04-12T15:31:32.064Z</time></trkpt><trkpt lat="44.7108117" lon="7.83262"><ele>279.0</ele><time>2026-04-12T15:31:34.063Z</time></trkpt><trkpt lat="44.710915" lon="7.83251"><ele>278.99999999999994</ele><time>2026-04-12T15:31:36.064Z</time></trkpt><trkpt lat="44.7109683" lon="7.8324533"><ele>279.0</ele><time>2026-04-12T15:31:37.063Z</time></trkpt><trkpt lat="44.71102" lon="7.8323983"><ele>279.0</ele><time>2026-04-12T15:31:38.063Z</time></trkpt><trkpt lat="44.711075" lon="7.832345"><ele>279.0</ele><time>2026-04-12T15:31:39.062Z</time></trkpt><trkpt lat="44.7111333" lon="7.8322883"><ele>279.0</ele><time>2026-04-12T15:31:40.063Z</time></trkpt><trkpt lat="44.7111917" lon="7.83223"><ele>278.99999999999994</ele><time>2026-04-12T15:31:41.065Z</time></trkpt><trkpt lat="44.7112433" lon="7.8321667"><ele>279.0</ele><time>2026-04-12T15:31:42.063Z</time></trkpt><trkpt lat="44.7112967" lon="7.8321067"><ele>278.99999999999994</ele><time>2026-04-12T15:31:43.063Z</time></trkpt><trkpt lat="44.7113533" lon="7.8320483"><ele>279.0</ele><time>2026-04-12T15:31:44.066Z</time></trkpt><trkpt lat="44.71141" lon="7.8319917"><ele>279.0</ele><time>2026-04-12T15:31:45.064Z</time></trkpt><trkpt lat="44.7114683" lon="7.831935"><ele>279.0</ele><time>2026-04-12T15:31:46.064Z</time></trkpt><trkpt lat="44.7115267" lon="7.8318783"><ele>279.0</ele><time>2026-04-12T15:31:47.065Z</time></trkpt><trkpt lat="44.7115833" lon="7.8318183"><ele>278.99999999999994</ele><time>2026-04-12T15:31:48.063Z</time></trkpt><trkpt lat="44.71164" lon="7.8317617"><ele>279.0</ele><time>2026-04-12T15:31:49.063Z</time></trkpt><trkpt lat="44.7116933" lon="7.8317067"><ele>278.4285714285714</ele><time>2026-04-12T15:31:50.063Z</time></trkpt><trkpt lat="44.7117483" lon="7.83165"><ele>277.85714285714283</ele><time>2026-04-12T15:31:51.063Z</time></trkpt><trkpt lat="44.7118" lon="7.831595"><ele>277.2857142857143</ele><time>2026-04-12T15:31:52.064Z</time></trkpt><trkpt lat="44.7118567" lon="7.83154"><ele>276.71428571428567</ele><time>2026-04-12T15:31:53.062Z</time></trkpt><trkpt lat="44.7119167" lon="7.83149"><ele>276.1428571428571</ele><time>2026-04-12T15:31:54.062Z</time></trkpt><trkpt lat="44.7119717" lon="7.8314367"><ele>275.57142857142856</ele><time>2026-04-12T15:31:55.061Z</time></trkpt><trkpt lat="44.71203" lon="7.83139"><ele>275.0</ele><time>2026-04-12T15:31:56.062Z</time></trkpt><trkpt lat="44.7120867" lon="7.8313417"><ele>275.0</ele><time>2026-04-12T15:31:57.066Z</time></trkpt><trkpt lat="44.712145" lon="7.831295"><ele>275.0</ele><time>2026-04-12T15:31:58.063Z</time></trkpt><trkpt lat="44.7122017" lon="7.83124"><ele>275.0</ele><time>2026-04-12T15:31:59.062Z</time></trkpt><trkpt lat="44.7122583" lon="7.83119"><ele>275.0</ele><time>2026-04-12T15:32:00.061Z</time></trkpt><trkpt lat="44.7123167" lon="7.8311383"><ele>275.0</ele><time>2026-04-12T15:32:01.063Z</time></trkpt><trkpt lat="44.712375" lon="7.8310833"><ele>275.0</ele><time>2026-04-12T15:32:02.061Z</time></trkpt><trkpt lat="44.7124333" lon="7.831025"><ele>275.0</ele><time>2026-04-12T15:32:03.062Z</time></trkpt><trkpt lat="44.71249" lon="7.8309617"><ele>275.0</ele><time>2026-04-12T15:32:04.063Z</time></trkpt><trkpt lat="44.7125483" lon="7.8309017"><ele>275.0</ele><time>2026-04-12T15:32:05.062Z</time></trkpt><trkpt lat="44.7126067" lon="7.83084"><ele>275.0</ele><time>2026-04-12T15:32:06.061Z</time></trkpt><trkpt lat="44.7126633" lon="7.83078"><ele>275.0</ele><time>2026-04-12T15:32:07.063Z</time></trkpt><trkpt lat="44.7127167" lon="7.830715"><ele>275.0</ele><time>2026-04-12T15:32:08.065Z</time></trkpt><trkpt lat="44.7127733" lon="7.83066"><ele>275.0</ele><time>2026-04-12T15:32:09.063Z</time></trkpt><trkpt lat="44.7128283" lon="7.830605"><ele>275.0</ele><time>2026-04-12T15:32:10.063Z</time></trkpt><trkpt lat="44.71288" lon="7.83055"><ele>274.8571428571429</ele><time>2026-04-12T15:32:11.062Z</time></trkpt><trkpt lat="44.7129333" lon="7.8304933"><ele>274.7142857142857</ele><time>2026-04-12T15:32:12.063Z</time></trkpt><trkpt lat="44.7129883" lon="7.8304383"><ele>274.57142857142856</ele><time>2026-04-12T15:32:13.063Z</time></trkpt><trkpt lat="44.7130433" lon="7.8303833"><ele>274.42857142857144</ele><time>2026-04-12T15:32:14.063Z</time></trkpt><trkpt lat="44.7130967" lon="7.830325"><ele>274.2857142857143</ele><time>2026-04-12T15:32:15.064Z</time></trkpt><trkpt lat="44.7131483" lon="7.8302633"><ele>274.14285714285717</ele><time>2026-04-12T15:32:16.062Z</time></trkpt><trkpt lat="44.7132017" lon="7.8302067"><ele>274.0</ele><time>2026-04-12T15:32:17.063Z</time></trkpt><trkpt lat="44.71325" lon="7.8301417"><ele>273.8571428571429</ele><time>2026-04-12T15:32:18.061Z</time></trkpt><trkpt lat="44.7133" lon="7.8300783"><ele>273.7142857142857</ele><time>2026-04-12T15:32:19.065Z</time></trkpt><trkpt lat="44.7133533" lon="7.830015"><ele>273.57142857142856</ele><time>2026-04-12T15:32:20.065Z</time></trkpt><trkpt lat="44.7134083" lon="7.829965"><ele>273.42857142857144</ele><time>2026-04-12T15:32:21.065Z</time></trkpt><trkpt lat="44.7134617" lon="7.8299033"><ele>273.2857142857143</ele><time>2026-04-12T15:32:22.063Z</time></trkpt><trkpt lat="44.7135133" lon="7.82985"><ele>273.14285714285717</ele><time>2026-04-12T15:32:23.061Z</time></trkpt><trkpt lat="44.713565" lon="7.8297983"><ele>273.0</ele><time>2026-04-12T15:32:24.063Z</time></trkpt><trkpt lat="44.7136217" lon="7.8297483"><ele>273.57142857142856</ele><time>2026-04-12T15:32:25.064Z</time></trkpt><trkpt lat="44.7136783" lon="7.8297"><ele>274.1428571428571</ele><time>2026-04-12T15:32:26.067Z</time></trkpt><trkpt lat="44.7137367" lon="7.8296467"><ele>274.7142857142857</ele><time>2026-04-12T15:32:27.063Z</time></trkpt><trkpt lat="44.7137933" lon="7.8295967"><ele>275.2857142857143</ele><time>2026-04-12T15:32:28.065Z</time></trkpt><trkpt lat="44.71385" lon="7.82955"><ele>275.85714285714283</ele><time>2026-04-12T15:32:29.062Z</time></trkpt><trkpt lat="44.7139067" lon="7.8295033"><ele>276.42857142857144</ele><time>2026-04-12T15:32:30.063Z</time></trkpt><trkpt lat="44.713965" lon="7.829465"><ele>277.0</ele><time>2026-04-12T15:32:31.063Z</time></trkpt><trkpt lat="44.7140233" lon="7.8294217"><ele>277.0</ele><time>2026-04-12T15:32:32.064Z</time></trkpt><trkpt lat="44.7140817" lon="7.8293783"><ele>277.0</ele><time>2026-04-12T15:32:33.061Z</time></trkpt><trkpt lat="44.71414" lon="7.8293383"><ele>277.0</ele><time>2026-04-12T15:32:34.063Z</time></trkpt><trkpt lat="44.7142017" lon="7.8293"><ele>277.0</ele><time>2026-04-12T15:32:35.062Z</time></trkpt><trkpt lat="44.7142667" lon="7.829265"><ele>277.0</ele><time>2026-04-12T15:32:36.063Z</time></trkpt><trkpt lat="44.7143333" lon="7.8292283"><ele>277.0</ele><time>2026-04-12T15:32:37.064Z</time></trkpt><trkpt lat="44.7144017" lon="7.829185"><ele>277.0</ele><time>2026-04-12T15:32:38.063Z</time></trkpt><trkpt lat="44.7144667" lon="7.82913"><ele>276.57142857142856</ele><time>2026-04-12T15:32:39.065Z</time></trkpt><trkpt lat="44.7145267" lon="7.82907"><ele>276.1428571428571</ele><time>2026-04-12T15:32:40.063Z</time></trkpt><trkpt lat="44.7145833" lon="7.82901"><ele>275.7142857142857</ele><time>2026-04-12T15:32:41.062Z</time></trkpt><trkpt lat="44.7146417" lon="7.8289483"><ele>275.2857142857143</ele><time>2026-04-12T15:32:42.062Z</time></trkpt><trkpt lat="44.7147" lon="7.828885"><ele>274.8571428571429</ele><time>2026-04-12T15:32:43.062Z</time></trkpt><trkpt lat="44.71476" lon="7.82882"><ele>274.42857142857144</ele><time>2026-04-12T15:32:44.063Z</time></trkpt><trkpt lat="44.7148183" lon="7.8287517"><ele>274.0</ele><time>2026-04-12T15:32:45.062Z</time></trkpt><trkpt lat="44.7148733" lon="7.8286783"><ele>274.00000000000006</ele><time>2026-04-12T15:32:46.062Z</time></trkpt><trkpt lat="44.7149267" lon="7.8286067"><ele>274.0</ele><time>2026-04-12T15:32:47.064Z</time></trkpt><trkpt lat="44.71498" lon="7.8285317"><ele>274.0</ele><time>2026-04-12T15:32:48.061Z</time></trkpt><trkpt lat="44.7150333" lon="7.8284567"><ele>274.0</ele><time>2026-04-12T15:32:49.062Z</time></trkpt><trkpt lat="44.7150883" lon="7.8283867"><ele>274.0</ele><time>2026-04-12T15:32:50.062Z</time></trkpt><trkpt lat="44.7151433" lon="7.8283183"><ele>274.00000000000006</ele><time>2026-04-12T15:32:51.062Z</time></trkpt><trkpt lat="44.7151983" lon="7.82825"><ele>274.0</ele><time>2026-04-12T15:32:52.061Z</time></trkpt><trkpt lat="44.715255" lon="7.828185"><ele>273.8571428571429</ele><time>2026-04-12T15:32:53.063Z</time></trkpt><trkpt lat="44.7153117" lon="7.82812"><ele>273.7142857142857</ele><time>2026-04-12T15:32:54.062Z</time></trkpt><trkpt lat="44.71537" lon="7.8280583"><ele>273.57142857142856</ele><time>2026-04-12T15:32:55.063Z</time></trkpt><trkpt lat="44.71543" lon="7.8279983"><ele>273.42857142857144</ele><time>2026-04-12T15:32:56.065Z</time></trkpt><trkpt lat="44.7154917" lon="7.82794"><ele>273.2857142857143</ele><time>2026-04-12T15:32:57.061Z</time></trkpt><trkpt lat="44.7155533" lon="7.8278817"><ele>273.14285714285717</ele><time>2026-04-12T15:32:58.062Z</time></trkpt><trkpt lat="44.715615" lon="7.82782"><ele>273.0</ele><time>2026-04-12T15:32:59.062Z</time></trkpt><trkpt lat="44.715675" lon="7.82776"><ele>273.0</ele><time>2026-04-12T15:33:00.063Z</time></trkpt><trkpt lat="44.7157367" lon="7.8276983"><ele>273.0</ele><time>2026-04-12T15:33:01.063Z</time></trkpt><trkpt lat="44.7158017" lon="7.8276383"><ele>273.0</ele><time>2026-04-12T15:33:02.063Z</time></trkpt><trkpt lat="44.7158633" lon="7.827575"><ele>273.0</ele><time>2026-04-12T15:33:03.062Z</time></trkpt><trkpt lat="44.7159233" lon="7.827515"><ele>273.0</ele><time>2026-04-12T15:33:04.062Z</time></trkpt><trkpt lat="44.7159833" lon="7.8274567"><ele>273.0</ele><time>2026-04-12T15:33:05.064Z</time></trkpt><trkpt lat="44.7160433" lon="7.8273983"><ele>273.0</ele><time>2026-04-12T15:33:06.065Z</time></trkpt><trkpt lat="44.716105" lon="7.82734"><ele>273.2857142857143</ele><time>2026-04-12T15:33:07.064Z</time></trkpt><trkpt lat="44.716165" lon="7.8272783"><ele>273.57142857142856</ele><time>2026-04-12T15:33:08.063Z</time></trkpt><trkpt lat="44.716225" lon="7.8272233"><ele>273.8571428571429</ele><time>2026-04-12T15:33:09.064Z</time></trkpt><trkpt lat="44.7162833" lon="7.8271667"><ele>274.1428571428571</ele><time>2026-04-12T15:33:10.064Z</time></trkpt><trkpt lat="44.7163417" lon="7.8271033"><ele>274.42857142857144</ele><time>2026-04-12T15:33:11.065Z</time></trkpt><trkpt lat="44.7163967" lon="7.827045"><ele>274.7142857142857</ele><time>2026-04-12T15:33:12.063Z</time></trkpt><trkpt lat="44.7164533" lon="7.82699"><ele>275.0</ele><time>2026-04-12T15:33:13.063Z</time></trkpt><trkpt lat="44.7165083" lon="7.8269367"><ele>275.0</ele><time>2026-04-12T15:33:14.062Z</time></trkpt><trkpt lat="44.7165617" lon="7.8268833"><ele>275.0</ele><time>2026-04-12T15:33:15.065Z</time></trkpt><trkpt lat="44.7166167" lon="7.8268267"><ele>275.0</ele><time>2026-04-12T15:33:16.064Z</time></trkpt><trkpt lat="44.71667" lon="7.8267667"><ele>275.0</ele><time>2026-04-12T15:33:17.063Z</time></trkpt><trkpt lat="44.7167233" lon="7.8267067"><ele>275.0</ele><time>2026-04-12T15:33:18.062Z</time></trkpt><trkpt lat="44.7167767" lon="7.8266483"><ele>275.0</ele><time>2026-04-12T15:33:19.063Z</time></trkpt><trkpt lat="44.71683" lon="7.8265867"><ele>275.0</ele><time>2026-04-12T15:33:20.064Z</time></trkpt><trkpt lat="44.7168833" lon="7.826525"><ele>275.2857142857143</ele><time>2026-04-12T15:33:21.064Z</time></trkpt><trkpt lat="44.716935" lon="7.826465"><ele>275.57142857142856</ele><time>2026-04-12T15:33:22.064Z</time></trkpt><trkpt lat="44.7169883" lon="7.8264033"><ele>275.85714285714283</ele><time>2026-04-12T15:33:23.063Z</time></trkpt><trkpt lat="44.71704" lon="7.8263417"><ele>276.1428571428571</ele><time>2026-04-12T15:33:24.064Z</time></trkpt><trkpt lat="44.71709" lon="7.8262767"><ele>276.4285714285714</ele><time>2026-04-12T15:33:25.063Z</time></trkpt><trkpt lat="44.717135" lon="7.8262117"><ele>276.7142857142857</ele><time>2026-04-12T15:33:26.062Z</time></trkpt><trkpt lat="44.7171867" lon="7.8261583"><ele>277.0</ele><time>2026-04-12T15:33:27.063Z</time></trkpt><trkpt lat="44.717235" lon="7.8261"><ele>277.0</ele><time>2026-04-12T15:33:28.062Z</time></trkpt><trkpt lat="44.7173383" lon="7.8260117"><ele>277.0</ele><time>2026-04-12T15:33:30.063Z</time></trkpt><trkpt lat="44.717435" lon="7.8259267"><ele>277.0</ele><time>2026-04-12T15:33:32.062Z</time></trkpt><trkpt lat="44.7175283" lon="7.8258533"><ele>277.0</ele><time>2026-04-12T15:33:34.063Z</time></trkpt><trkpt lat="44.7176067" lon="7.8257867"><ele>277.0</ele><time>2026-04-12T15:33:36.062Z</time></trkpt><trkpt lat="44.71767" lon="7.8257383"><ele>277.16666666666663</ele><time>2026-04-12T15:33:39.064Z</time></trkpt><trkpt lat="44.7177383" lon="7.8257433"><ele>277.3333333333333</ele><time>2026-04-12T15:33:43.065Z</time></trkpt><trkpt lat="44.71781" lon="7.8257367"><ele>277.5</ele><time>2026-04-12T15:33:45.064Z</time></trkpt><trkpt lat="44.71789" lon="7.8256683"><ele>277.6666666666667</ele><time>2026-04-12T15:33:47.065Z</time></trkpt><trkpt lat="44.7179633" lon="7.8255783"><ele>277.83333333333337</ele><time>2026-04-12T15:33:49.063Z</time></trkpt><trkpt lat="44.718035" lon="7.82549"><ele>278.0</ele><time>2026-04-12T15:33:51.064Z</time></trkpt><trkpt lat="44.7181217" lon="7.825395"><ele>278.0</ele><time>2026-04-12T15:33:53.062Z</time></trkpt><trkpt lat="44.718215" lon="7.8252917"><ele>278.0</ele><time>2026-04-12T15:33:55.064Z</time></trkpt><trkpt lat="44.7183117" lon="7.8251783"><ele>278.0</ele><time>2026-04-12T15:33:57.065Z</time></trkpt><trkpt lat="44.71841" lon="7.8250667"><ele>278.0</ele><time>2026-04-12T15:33:59.063Z</time></trkpt><trkpt lat="44.71846" lon="7.8250067"><ele>278.0</ele><time>2026-04-12T15:34:00.062Z</time></trkpt><trkpt lat="44.71851" lon="7.8249483"><ele>277.83333333333337</ele><time>2026-04-12T15:34:01.065Z</time></trkpt><trkpt lat="44.71856" lon="7.8248883"><ele>277.6666666666667</ele><time>2026-04-12T15:34:02.065Z</time></trkpt><trkpt lat="44.7186117" lon="7.8248317"><ele>277.5</ele><time>2026-04-12T15:34:03.064Z</time></trkpt><trkpt lat="44.7186617" lon="7.8247767"><ele>277.3333333333333</ele><time>2026-04-12T15:34:04.065Z</time></trkpt><trkpt lat="44.718715" lon="7.82472"><ele>277.16666666666663</ele><time>2026-04-12T15:34:05.063Z</time></trkpt><trkpt lat="44.7187667" lon="7.8246617"><ele>277.0</ele><time>2026-04-12T15:34:06.059Z</time></trkpt><trkpt lat="44.7188667" lon="7.82455"><ele>277.0</ele><time>2026-04-12T15:34:08.065Z</time></trkpt><trkpt lat="44.7189183" lon="7.8244933"><ele>277.0</ele><time>2026-04-12T15:34:09.068Z</time></trkpt><trkpt lat="44.7190167" lon="7.8243883"><ele>277.0</ele><time>2026-04-12T15:34:11.064Z</time></trkpt><trkpt lat="44.7190683" lon="7.8243333"><ele>277.0</ele><time>2026-04-12T15:34:12.063Z</time></trkpt><trkpt lat="44.7191667" lon="7.8242283"><ele>277.0</ele><time>2026-04-12T15:34:14.063Z</time></trkpt><trkpt lat="44.7192183" lon="7.824175"><ele>277.0</ele><time>2026-04-12T15:34:15.063Z</time></trkpt><trkpt lat="44.719315" lon="7.8240733"><ele>277.2</ele><time>2026-04-12T15:34:17.062Z</time></trkpt><trkpt lat="44.719365" lon="7.8240183"><ele>277.4</ele><time>2026-04-12T15:34:18.064Z</time></trkpt><trkpt lat="44.71946" lon="7.823915"><ele>277.6</ele><time>2026-04-12T15:34:20.062Z</time></trkpt><trkpt lat="44.7195533" lon="7.823815"><ele>277.8</ele><time>2026-04-12T15:34:22.062Z</time></trkpt><trkpt lat="44.7196483" lon="7.8237117"><ele>278.0</ele><time>2026-04-12T15:34:24.064Z</time></trkpt><trkpt lat="44.71974" lon="7.8236117"><ele>278.0</ele><time>2026-04-12T15:34:26.062Z</time></trkpt><trkpt lat="44.71983" lon="7.8235117"><ele>278.0</ele><time>2026-04-12T15:34:28.064Z</time></trkpt><trkpt lat="44.71992" lon="7.8234217"><ele>278.0</ele><time>2026-04-12T15:34:30.064Z</time></trkpt><trkpt lat="44.720015" lon="7.823335"><ele>278.0</ele><time>2026-04-12T15:34:32.063Z</time></trkpt><trkpt lat="44.7201183" lon="7.8232417"><ele>277.8</ele><time>2026-04-12T15:34:34.064Z</time></trkpt><trkpt lat="44.7202183" lon="7.8231333"><ele>277.6</ele><time>2026-04-12T15:34:36.062Z</time></trkpt><trkpt lat="44.7203117" lon="7.8230167"><ele>277.4</ele><time>2026-04-12T15:34:38.062Z</time></trkpt><trkpt lat="44.7203617" lon="7.82296"><ele>277.2</ele><time>2026-04-12T15:34:39.063Z</time></trkpt><trkpt lat="44.7204617" lon="7.822855"><ele>277.0</ele><time>2026-04-12T15:34:41.064Z</time></trkpt><trkpt lat="44.720565" lon="7.822755"><ele>277.0</ele><time>2026-04-12T15:34:43.062Z</time></trkpt><trkpt lat="44.72067" lon="7.8226667"><ele>277.0</ele><time>2026-04-12T15:34:45.062Z</time></trkpt><trkpt lat="44.720775" lon="7.8225833"><ele>277.0</ele><time>2026-04-12T15:34:47.062Z</time></trkpt><trkpt lat="44.7208733" lon="7.8225"><ele>277.0</ele><time>2026-04-12T15:34:49.063Z</time></trkpt><trkpt lat="44.7209683" lon="7.82241"><ele>276.5</ele><time>2026-04-12T15:34:51.065Z</time></trkpt><trkpt lat="44.72106" lon="7.8223167"><ele>276.0</ele><time>2026-04-12T15:34:53.062Z</time></trkpt><trkpt lat="44.7211617" lon="7.822225"><ele>275.5</ele><time>2026-04-12T15:34:55.065Z</time></trkpt><trkpt lat="44.7212633" lon="7.8221367"><ele>275.0</ele><time>2026-04-12T15:34:57.063Z</time></trkpt><trkpt lat="44.7213633" lon="7.82205"><ele>275.0</ele><time>2026-04-12T15:34:59.062Z</time></trkpt><trkpt lat="44.72147" lon="7.8219617"><ele>275.0</ele><time>2026-04-12T15:35:01.062Z</time></trkpt><trkpt lat="44.7215767" lon="7.82188"><ele>275.0</ele><time>2026-04-12T15:35:03.064Z</time></trkpt><trkpt lat="44.72163" lon="7.8218317"><ele>275.0</ele><time>2026-04-12T15:35:04.063Z</time></trkpt><trkpt lat="44.7216867" lon="7.8217767"><ele>275.0</ele><time>2026-04-12T15:35:05.061Z</time></trkpt><trkpt lat="44.72174" lon="7.821725"><ele>275.0</ele><time>2026-04-12T15:35:06.062Z</time></trkpt><trkpt lat="44.7217933" lon="7.8216683"><ele>274.8</ele><time>2026-04-12T15:35:07.061Z</time></trkpt><trkpt lat="44.7218967" lon="7.82157"><ele>274.6</ele><time>2026-04-12T15:35:09.063Z</time></trkpt><trkpt lat="44.7219467" lon="7.8215133"><ele>274.4</ele><time>2026-04-12T15:35:10.061Z</time></trkpt><trkpt lat="44.7219983" lon="7.8214583"><ele>274.2</ele><time>2026-04-12T15:35:11.064Z</time></trkpt><trkpt lat="44.722055" lon="7.8214"><ele>274.0</ele><time>2026-04-12T15:35:12.063Z</time></trkpt><trkpt lat="44.7221583" lon="7.821295"><ele>274.0</ele><time>2026-04-12T15:35:14.063Z</time></trkpt><trkpt lat="44.7222583" lon="7.8211867"><ele>274.0</ele><time>2026-04-12T15:35:16.063Z</time></trkpt><trkpt lat="44.72231" lon="7.8211283"><ele>274.0</ele><time>2026-04-12T15:35:17.062Z</time></trkpt><trkpt lat="44.72236" lon="7.8210717"><ele>274.0</ele><time>2026-04-12T15:35:18.061Z</time></trkpt><trkpt lat="44.7224633" lon="7.8209633"><ele>274.0</ele><time>2026-04-12T15:35:20.064Z</time></trkpt><trkpt lat="44.7225133" lon="7.8209083"><ele>274.0</ele><time>2026-04-12T15:35:21.062Z</time></trkpt><trkpt lat="44.7226133" lon="7.8208067"><ele>274.00000000000006</ele><time>2026-04-12T15:35:23.062Z</time></trkpt><trkpt lat="44.7226667" lon="7.8207467"><ele>274.0</ele><time>2026-04-12T15:35:24.061Z</time></trkpt><trkpt lat="44.7227183" lon="7.8206833"><ele>274.0</ele><time>2026-04-12T15:35:25.062Z</time></trkpt><trkpt lat="44.72277" lon="7.820625"><ele>274.0</ele><time>2026-04-12T15:35:26.064Z</time></trkpt><trkpt lat="44.7228233" lon="7.8205667"><ele>274.0</ele><time>2026-04-12T15:35:27.062Z</time></trkpt><trkpt lat="44.7228767" lon="7.8205033"><ele>274.00000000000006</ele><time>2026-04-12T15:35:28.063Z</time></trkpt><trkpt lat="44.72293" lon="7.8204433"><ele>274.0</ele><time>2026-04-12T15:35:29.063Z</time></trkpt><trkpt lat="44.7229833" lon="7.8203833"><ele>274.00000000000006</ele><time>2026-04-12T15:35:30.063Z</time></trkpt><trkpt lat="44.723035" lon="7.8203233"><ele>274.0</ele><time>2026-04-12T15:35:31.064Z</time></trkpt><trkpt lat="44.7230883" lon="7.8202583"><ele>274.0</ele><time>2026-04-12T15:35:32.062Z</time></trkpt><trkpt lat="44.7231417" lon="7.8201967"><ele>274.0</ele><time>2026-04-12T15:35:33.062Z</time></trkpt><trkpt lat="44.723195" lon="7.8201367"><ele>274.0</ele><time>2026-04-12T15:35:34.062Z</time></trkpt><trkpt lat="44.7232483" lon="7.82008"><ele>274.00000000000006</ele><time>2026-04-12T15:35:35.072Z</time></trkpt><trkpt lat="44.723305" lon="7.8200183"><ele>274.0</ele><time>2026-04-12T15:35:36.062Z</time></trkpt><trkpt lat="44.72336" lon="7.8199583"><ele>273.8571428571429</ele><time>2026-04-12T15:35:37.063Z</time></trkpt><trkpt lat="44.723415" lon="7.8199"><ele>273.7142857142857</ele><time>2026-04-12T15:35:38.062Z</time></trkpt><trkpt lat="44.723475" lon="7.81984"><ele>273.57142857142856</ele><time>2026-04-12T15:35:39.06Z</time></trkpt><trkpt lat="44.723535" lon="7.8197817"><ele>273.42857142857144</ele><time>2026-04-12T15:35:40.064Z</time></trkpt><trkpt lat="44.7235917" lon="7.8197167"><ele>273.2857142857143</ele><time>2026-04-12T15:35:41.062Z</time></trkpt><trkpt lat="44.7236483" lon="7.8196533"><ele>273.14285714285717</ele><time>2026-04-12T15:35:42.063Z</time></trkpt><trkpt lat="44.723705" lon="7.819595"><ele>273.0</ele><time>2026-04-12T15:35:43.066Z</time></trkpt><trkpt lat="44.72376" lon="7.8195367"><ele>273.0</ele><time>2026-04-12T15:35:44.062Z</time></trkpt><trkpt lat="44.72382" lon="7.8194817"><ele>273.0</ele><time>2026-04-12T15:35:45.063Z</time></trkpt><trkpt lat="44.7238767" lon="7.819425"><ele>273.0</ele><time>2026-04-12T15:35:46.062Z</time></trkpt><trkpt lat="44.7239333" lon="7.8193717"><ele>273.0</ele><time>2026-04-12T15:35:47.061Z</time></trkpt><trkpt lat="44.72399" lon="7.8193183"><ele>273.0</ele><time>2026-04-12T15:35:48.063Z</time></trkpt><trkpt lat="44.7240483" lon="7.8192617"><ele>273.0</ele><time>2026-04-12T15:35:49.063Z</time></trkpt><trkpt lat="44.724105" lon="7.8192067"><ele>273.0</ele><time>2026-04-12T15:35:50.062Z</time></trkpt><trkpt lat="44.7241617" lon="7.8191517"><ele>273.0</ele><time>2026-04-12T15:35:51.062Z</time></trkpt><trkpt lat="44.7242183" lon="7.819095"><ele>273.0</ele><time>2026-04-12T15:35:52.062Z</time></trkpt><trkpt lat="44.72428" lon="7.8190383"><ele>273.0</ele><time>2026-04-12T15:35:53.063Z</time></trkpt><trkpt lat="44.7243367" lon="7.8189817"><ele>273.0</ele><time>2026-04-12T15:35:54.065Z</time></trkpt><trkpt lat="44.7243933" lon="7.81892"><ele>273.0</ele><time>2026-04-12T15:35:55.061Z</time></trkpt><trkpt lat="44.7244517" lon="7.8188633"><ele>273.0</ele><time>2026-04-12T15:35:56.061Z</time></trkpt><trkpt lat="44.7245067" lon="7.818805"><ele>273.0</ele><time>2026-04-12T15:35:57.063Z</time></trkpt><trkpt lat="44.7245617" lon="7.8187483"><ele>273.0</ele><time>2026-04-12T15:35:58.062Z</time></trkpt><trkpt lat="44.72462" lon="7.8186967"><ele>273.0</ele><time>2026-04-12T15:35:59.061Z</time></trkpt><trkpt lat="44.724675" lon="7.81864"><ele>273.0</ele><time>2026-04-12T15:36:00.062Z</time></trkpt><trkpt lat="44.72473" lon="7.8185817"><ele>273.0</ele><time>2026-04-12T15:36:01.059Z</time></trkpt><trkpt lat="44.724785" lon="7.81853"><ele>273.0</ele><time>2026-04-12T15:36:02.062Z</time></trkpt><trkpt lat="44.7248417" lon="7.818475"><ele>273.0</ele><time>2026-04-12T15:36:03.063Z</time></trkpt><trkpt lat="44.7248983" lon="7.8184233"><ele>273.0</ele><time>2026-04-12T15:36:04.063Z</time></trkpt><trkpt lat="44.724955" lon="7.8183683"><ele>272.8</ele><time>2026-04-12T15:36:05.061Z</time></trkpt><trkpt lat="44.7250117" lon="7.8183167"><ele>272.6</ele><time>2026-04-12T15:36:06.063Z</time></trkpt><trkpt lat="44.7250667" lon="7.818265"><ele>272.4</ele><time>2026-04-12T15:36:07.065Z</time></trkpt><trkpt lat="44.72513" lon="7.81821"><ele>272.2</ele><time>2026-04-12T15:36:08.062Z</time></trkpt><trkpt lat="44.7252367" lon="7.818115"><ele>272.0</ele><time>2026-04-12T15:36:10.062Z</time></trkpt><trkpt lat="44.7253333" lon="7.81801"><ele>272.6</ele><time>2026-04-12T15:36:12.062Z</time></trkpt><trkpt lat="44.7254267" lon="7.817905"><ele>273.2</ele><time>2026-04-12T15:36:14.063Z</time></trkpt><trkpt lat="44.7255183" lon="7.8178117"><ele>273.8</ele><time>2026-04-12T15:36:16.062Z</time></trkpt><trkpt lat="44.7256067" lon="7.817725"><ele>274.4</ele><time>2026-04-12T15:36:18.061Z</time></trkpt><trkpt lat="44.725685" lon="7.8176783"><ele>275.0</ele><time>2026-04-12T15:36:20.064Z</time></trkpt><trkpt lat="44.7257517" lon="7.81771"><ele>275.0</ele><time>2026-04-12T15:36:22.064Z</time></trkpt><trkpt lat="44.7258133" lon="7.8178233"><ele>275.0</ele><time>2026-04-12T15:36:24.06Z</time></trkpt><trkpt lat="44.72588" lon="7.8179483"><ele>275.0</ele><time>2026-04-12T15:36:26.063Z</time></trkpt><trkpt lat="44.7259517" lon="7.8180767"><ele>275.0</ele><time>2026-04-12T15:36:28.062Z</time></trkpt><trkpt lat="44.7260233" lon="7.8181967"><ele>275.0</ele><time>2026-04-12T15:36:30.064Z</time></trkpt><trkpt lat="44.72609" lon="7.8183117"><ele>274.8</ele><time>2026-04-12T15:36:32.062Z</time></trkpt><trkpt lat="44.7261633" lon="7.818425"><ele>274.6</ele><time>2026-04-12T15:36:34.064Z</time></trkpt><trkpt lat="44.72623" lon="7.81854"><ele>274.4</ele><time>2026-04-12T15:36:36.063Z</time></trkpt><trkpt lat="44.7262983" lon="7.8186483"><ele>274.2</ele><time>2026-04-12T15:36:38.062Z</time></trkpt><trkpt lat="44.72636" lon="7.8187567"><ele>274.0</ele><time>2026-04-12T15:36:40.064Z</time></trkpt><trkpt lat="44.7264167" lon="7.818855"><ele>274.5</ele><time>2026-04-12T15:36:42.063Z</time></trkpt><trkpt lat="44.7264683" lon="7.8189483"><ele>275.0</ele><time>2026-04-12T15:36:44.063Z</time></trkpt><trkpt lat="44.726515" lon="7.8190233"><ele>275.5</ele><time>2026-04-12T15:36:46.061Z</time></trkpt><trkpt lat="44.7265683" lon="7.819115"><ele>276.0</ele><time>2026-04-12T15:36:49.064Z</time></trkpt><trkpt lat="44.7266083" lon="7.819205"><ele>276.5</ele><time>2026-04-12T15:37:06.064Z</time></trkpt><trkpt lat="44.7266833" lon="7.8192983"><ele>277.0</ele><time>2026-04-12T15:37:09.064Z</time></trkpt><trkpt lat="44.7267283" lon="7.8193717"><ele>277.3333333333333</ele><time>2026-04-12T15:37:11.063Z</time></trkpt><trkpt lat="44.7267783" lon="7.819445"><ele>277.66666666666663</ele><time>2026-04-12T15:37:13.064Z</time></trkpt><trkpt lat="44.72683" lon="7.819515"><ele>278.0</ele><time>2026-04-12T15:37:15.063Z</time></trkpt><trkpt lat="44.7268767" lon="7.8195983"><ele>278.3333333333333</ele><time>2026-04-12T15:37:17.06Z</time></trkpt><trkpt lat="44.7269233" lon="7.8196967"><ele>278.6666666666667</ele><time>2026-04-12T15:37:19.063Z</time></trkpt><trkpt lat="44.7269733" lon="7.81979"><ele>279.0</ele><time>2026-04-12T15:37:21.062Z</time></trkpt><trkpt lat="44.7270183" lon="7.81989"><ele>279.5</ele><time>2026-04-12T15:37:23.062Z</time></trkpt><trkpt lat="44.7270717" lon="7.8199833"><ele>280.0</ele><time>2026-04-12T15:37:25.064Z</time></trkpt><trkpt lat="44.727125" lon="7.820075"><ele>280.5</ele><time>2026-04-12T15:37:27.064Z</time></trkpt><trkpt lat="44.72718" lon="7.82016"><ele>281.0</ele><time>2026-04-12T15:37:29.061Z</time></trkpt><trkpt lat="44.7272417" lon="7.8202317"><ele>281.5</ele><time>2026-04-12T15:37:31.064Z</time></trkpt><trkpt lat="44.72732" lon="7.8202467"><ele>282.0</ele><time>2026-04-12T15:37:33.062Z</time></trkpt><trkpt lat="44.72739" lon="7.8202017"><ele>282.0</ele><time>2026-04-12T15:37:35.062Z</time></trkpt><trkpt lat="44.72746" lon="7.82014"><ele>282.0</ele><time>2026-04-12T15:37:37.061Z</time></trkpt><trkpt lat="44.72752" lon="7.8200717"><ele>282.0</ele><time>2026-04-12T15:37:39.063Z</time></trkpt><trkpt lat="44.7275833" lon="7.8200167"><ele>282.0</ele><time>2026-04-12T15:37:41.058Z</time></trkpt><trkpt lat="44.7276483" lon="7.8199717"><ele>282.0</ele><time>2026-04-12T15:37:43.057Z</time></trkpt><trkpt lat="44.7277133" lon="7.81992"><ele>282.0</ele><time>2026-04-12T15:37:45.057Z</time></trkpt><trkpt lat="44.7277717" lon="7.819875"><ele>282.0</ele><time>2026-04-12T15:37:47.063Z</time></trkpt><trkpt lat="44.72784" lon="7.819845"><ele>283.8333333333333</ele><time>2026-04-12T15:37:49.066Z</time></trkpt><trkpt lat="44.7279083" lon="7.8198367"><ele>285.6666666666667</ele><time>2026-04-12T15:37:51.061Z</time></trkpt><trkpt lat="44.7279983" lon="7.819855"><ele>287.5</ele><time>2026-04-12T15:37:54.058Z</time></trkpt><trkpt lat="44.7280783" lon="7.81988"><ele>289.33333333333337</ele><time>2026-04-12T15:37:57.062Z</time></trkpt><trkpt lat="44.7281633" lon="7.819905"><ele>291.1666666666667</ele><time>2026-04-12T15:38:00.064Z</time></trkpt><trkpt lat="44.7282367" lon="7.8199333"><ele>293.0</ele><time>2026-04-12T15:38:03.065Z</time></trkpt><trkpt lat="44.7283033" lon="7.8199567"><ele>292.99999999999994</ele><time>2026-04-12T15:38:06.063Z</time></trkpt><trkpt lat="44.728375" lon="7.8199683"><ele>293.0</ele><time>2026-04-12T15:38:09.07Z</time></trkpt><trkpt lat="44.7284483" lon="7.81998"><ele>293.0</ele><time>2026-04-12T15:38:12.061Z</time></trkpt><trkpt lat="44.7285117" lon="7.819995"><ele>293.0</ele><time>2026-04-12T15:38:15.064Z</time></trkpt><trkpt lat="44.728585" lon="7.8200183"><ele>293.0</ele><time>2026-04-12T15:38:19.067Z</time></trkpt><trkpt lat="44.72866" lon="7.8200417"><ele>292.99999999999994</ele><time>2026-04-12T15:38:23.063Z</time></trkpt><trkpt lat="44.7287233" lon="7.8200733"><ele>293.0</ele><time>2026-04-12T15:38:26.063Z</time></trkpt><trkpt lat="44.728785" lon="7.8200983"><ele>294.1666666666667</ele><time>2026-04-12T15:38:29.062Z</time></trkpt><trkpt lat="44.7288567" lon="7.8201233"><ele>295.33333333333337</ele><time>2026-04-12T15:38:33.063Z</time></trkpt><trkpt lat="44.72893" lon="7.8201483"><ele>296.5</ele><time>2026-04-12T15:38:37.064Z</time></trkpt><trkpt lat="44.72899" lon="7.8202117"><ele>297.6666666666667</ele><time>2026-04-12T15:38:41.061Z</time></trkpt><trkpt lat="44.7290083" lon="7.82032"><ele>298.8333333333333</ele><time>2026-04-12T15:38:45.063Z</time></trkpt><trkpt lat="44.72898" lon="7.82042"><ele>300.0</ele><time>2026-04-12T15:38:49.063Z</time></trkpt><trkpt lat="44.7289333" lon="7.8205083"><ele>303.0</ele><time>2026-04-12T15:38:53.064Z</time></trkpt><trkpt lat="44.7288867" lon="7.8205917"><ele>306.0</ele><time>2026-04-12T15:38:57.064Z</time></trkpt><trkpt lat="44.7288367" lon="7.82068"><ele>309.0</ele><time>2026-04-12T15:39:01.064Z</time></trkpt><trkpt lat="44.7288067" lon="7.82077"><ele>312.0</ele><time>2026-04-12T15:39:04.063Z</time></trkpt><trkpt lat="44.7287617" lon="7.820855"><ele>315.0</ele><time>2026-04-12T15:39:07.065Z</time></trkpt><trkpt lat="44.72871" lon="7.8209533"><ele>318.0</ele><time>2026-04-12T15:39:10.065Z</time></trkpt><trkpt lat="44.728645" lon="7.82104"><ele>317.6666666666667</ele><time>2026-04-12T15:39:13.067Z</time></trkpt><trkpt lat="44.7285733" lon="7.8211183"><ele>317.3333333333333</ele><time>2026-04-12T15:39:16.065Z</time></trkpt><trkpt lat="44.72851" lon="7.821195"><ele>317.0</ele><time>2026-04-12T15:39:19.065Z</time></trkpt><trkpt lat="44.7284483" lon="7.8212617"><ele>316.66666666666663</ele><time>2026-04-12T15:39:22.064Z</time></trkpt><trkpt lat="44.7283683" lon="7.8213133"><ele>316.3333333333333</ele><time>2026-04-12T15:39:25.072Z</time></trkpt><trkpt lat="44.72828" lon="7.82134"><ele>316.0</ele><time>2026-04-12T15:39:28.065Z</time></trkpt><trkpt lat="44.7281833" lon="7.821355"><ele>316.00000000000006</ele><time>2026-04-12T15:39:31.064Z</time></trkpt><trkpt lat="44.72811" lon="7.821355"><ele>316.0</ele><time>2026-04-12T15:39:33.063Z</time></trkpt><trkpt lat="44.7280383" lon="7.8213717"><ele>316.0</ele><time>2026-04-12T15:39:35.067Z</time></trkpt><trkpt lat="44.7279767" lon="7.8214033"><ele>316.0</ele><time>2026-04-12T15:39:37.066Z</time></trkpt><trkpt lat="44.7279067" lon="7.8214117"><ele>316.0</ele><time>2026-04-12T15:39:39.065Z</time></trkpt><trkpt lat="44.72784" lon="7.8214217"><ele>316.00000000000006</ele><time>2026-04-12T15:39:41.065Z</time></trkpt><trkpt lat="44.7277633" lon="7.8214633"><ele>316.0</ele><time>2026-04-12T15:39:44.063Z</time></trkpt><trkpt lat="44.7277117" lon="7.82156"><ele>314.8571428571429</ele><time>2026-04-12T15:39:47.063Z</time></trkpt><trkpt lat="44.7276583" lon="7.8216267"><ele>313.7142857142857</ele><time>2026-04-12T15:39:50.065Z</time></trkpt><trkpt lat="44.7276417" lon="7.8217233"><ele>312.57142857142856</ele><time>2026-04-12T15:39:54.064Z</time></trkpt><trkpt lat="44.727675" lon="7.821815"><ele>311.42857142857144</ele><time>2026-04-12T15:39:58.064Z</time></trkpt><trkpt lat="44.7277317" lon="7.8219033"><ele>310.2857142857143</ele><time>2026-04-12T15:40:02.063Z</time></trkpt><trkpt lat="44.727775" lon="7.8219933"><ele>309.14285714285717</ele><time>2026-04-12T15:40:06.062Z</time></trkpt><trkpt lat="44.7278183" lon="7.8220683"><ele>308.0</ele><time>2026-04-12T15:40:12.063Z</time></trkpt><trkpt lat="44.7278817" lon="7.822065"><ele>309.7142857142857</ele><time>2026-04-12T15:40:22.064Z</time></trkpt><trkpt lat="44.7278017" lon="7.82205"><ele>311.42857142857144</ele><time>2026-04-12T15:44:56.062Z</time></trkpt><trkpt lat="44.7277342" lon="7.8220649"><ele>313.1428571428571</ele><time>2026-04-12T15:45:07.062Z</time></trkpt><trkpt lat="44.7276775" lon="7.8220161"><ele>314.8571428571429</ele><time>2026-04-12T15:45:14.07Z</time></trkpt><trkpt lat="44.7277276" lon="7.8220812"><ele>316.57142857142856</ele><time>2026-04-12T15:45:34.121Z</time></trkpt><trkpt lat="44.7277859" lon="7.8221171"><ele>318.2857142857143</ele><time>2026-04-12T15:45:40.089Z</time></trkpt><trkpt lat="44.7278471" lon="7.8220728"><ele>320.0</ele><time>2026-04-12T15:45:46.062Z</time></trkpt><trkpt lat="44.7279038" lon="7.8220201"><ele>330.0</ele><time>2026-04-12T15:45:53.097Z</time></trkpt><trkpt lat="44.7279529" lon="7.8219539"><ele>330.0</ele><time>2026-04-12T15:46:00.064Z</time></trkpt><trkpt lat="44.7279823" lon="7.8218725"><ele>330.0</ele><time>2026-04-12T15:46:08.063Z</time></trkpt><trkpt lat="44.7279082" lon="7.8217736"><ele>316.0</ele><time>2026-04-12T15:48:24.064Z</time></trkpt><trkpt lat="44.7279082" lon="7.8217736"><ele>316.0</ele><time>2026-04-12T15:48:24.064Z</time></trkpt></trkseg></trk></gpx>